<?xml version="1.0" encoding="UTF-8" standalone="no" ?>
<gpx xmlns="http://www.topografix.com/GPX/1/1" xmlns:xsi="http://www.w3.org/2001/XMLSchema-instance" xsi:schemaLocation="http://www.topografix.com/GPX/1/1 http://www.topografix.com/GPX/1/1/gpx.xsd" version="1.1" creator="VisuGPX - https://www.visugpx.com">
  <metadata>
    <name>Rando interne (SH/HR)</name>
  </metadata>
  <trk>
    <name><![CDATA[Rando interne (SH/HR)_1]]></name>
    <trkseg>
      <trkpt lat="47.30279" lon="-1.39164">
        <ele>115</ele>
        <time>2021-02-28T07:57:27.251000+00:00</time>
      </trkpt>
      <trkpt lat="0" lon="0">
        <time>2021-02-28T07:57:27.269000+00:00</time>
      </trkpt>
      <trkpt lat="0" lon="0">
        <time>2021-02-28T07:57:27.274000+00:00</time>
      </trkpt>
      <trkpt lat="47.30279" lon="-1.39164">
        <ele>116</ele>
        <time>2021-02-28T07:57:28.264000+00:00</time>
      </trkpt>
      <trkpt lat="0" lon="0">
        <time>2021-02-28T07:57:28.266000+00:00</time>
      </trkpt>
      <trkpt lat="0" lon="0">
        <time>2021-02-28T07:57:28.269000+00:00</time>
      </trkpt>
      <trkpt lat="0" lon="0">
        <time>2021-02-28T07:57:28.271000+00:00</time>
      </trkpt>
      <trkpt lat="47.30279" lon="-1.39165">
        <ele>116</ele>
        <time>2021-02-28T07:57:29.212000+00:00</time>
      </trkpt>
      <trkpt lat="0" lon="0">
        <time>2021-02-28T07:57:29.220000+00:00</time>
      </trkpt>
      <trkpt lat="0" lon="0">
        <time>2021-02-28T07:57:29.232000+00:00</time>
      </trkpt>
      <trkpt lat="0" lon="0">
        <time>2021-02-28T07:57:29.236000+00:00</time>
      </trkpt>
      <trkpt lat="47.30279" lon="-1.39165">
        <ele>116</ele>
        <time>2021-02-28T07:57:30.263000+00:00</time>
      </trkpt>
      <trkpt lat="0" lon="0">
        <time>2021-02-28T07:57:30.265000+00:00</time>
      </trkpt>
      <trkpt lat="0" lon="0">
        <time>2021-02-28T07:57:30.267000+00:00</time>
      </trkpt>
      <trkpt lat="0" lon="0">
        <time>2021-02-28T07:57:30.285000+00:00</time>
      </trkpt>
      <trkpt lat="47.30299" lon="-1.39154">
        <ele>115</ele>
        <time>2021-02-28T07:57:31.157000+00:00</time>
      </trkpt>
      <trkpt lat="0" lon="0">
        <time>2021-02-28T07:57:31.165000+00:00</time>
      </trkpt>
      <trkpt lat="0" lon="0">
        <time>2021-02-28T07:57:31.170000+00:00</time>
      </trkpt>
      <trkpt lat="0" lon="0">
        <time>2021-02-28T07:57:31.173000+00:00</time>
      </trkpt>
      <trkpt lat="47.30301" lon="-1.3915">
        <ele>116</ele>
        <time>2021-02-28T07:57:32.259000+00:00</time>
      </trkpt>
      <trkpt lat="0" lon="0">
        <time>2021-02-28T07:57:32.272000+00:00</time>
      </trkpt>
      <trkpt lat="0" lon="0">
        <time>2021-02-28T07:57:32.279000+00:00</time>
      </trkpt>
      <trkpt lat="0" lon="0">
        <time>2021-02-28T07:57:32.282000+00:00</time>
      </trkpt>
      <trkpt lat="47.30302" lon="-1.39145">
        <ele>116</ele>
        <time>2021-02-28T07:57:33.288000+00:00</time>
      </trkpt>
      <trkpt lat="0" lon="0">
        <time>2021-02-28T07:57:33.302000+00:00</time>
      </trkpt>
      <trkpt lat="0" lon="0">
        <time>2021-02-28T07:57:33.315000+00:00</time>
      </trkpt>
      <trkpt lat="0" lon="0">
        <time>2021-02-28T07:57:33.319000+00:00</time>
      </trkpt>
      <trkpt lat="47.30304" lon="-1.3914">
        <ele>116</ele>
        <time>2021-02-28T07:57:34.263000+00:00</time>
      </trkpt>
      <trkpt lat="0" lon="0">
        <time>2021-02-28T07:57:34.269000+00:00</time>
      </trkpt>
      <trkpt lat="0" lon="0">
        <time>2021-02-28T07:57:34.271000+00:00</time>
      </trkpt>
      <trkpt lat="0" lon="0">
        <time>2021-02-28T07:57:34.274000+00:00</time>
      </trkpt>
      <trkpt lat="47.30306" lon="-1.39135">
        <ele>117</ele>
        <time>2021-02-28T07:57:35.225000+00:00</time>
      </trkpt>
      <trkpt lat="0" lon="0">
        <time>2021-02-28T07:57:35.257000+00:00</time>
      </trkpt>
      <trkpt lat="0" lon="0">
        <time>2021-02-28T07:57:35.260000+00:00</time>
      </trkpt>
      <trkpt lat="0" lon="0">
        <time>2021-02-28T07:57:35.261000+00:00</time>
      </trkpt>
      <trkpt lat="47.30307" lon="-1.39129">
        <ele>117</ele>
        <time>2021-02-28T07:57:36.237000+00:00</time>
      </trkpt>
      <trkpt lat="0" lon="0">
        <time>2021-02-28T07:57:36.250000+00:00</time>
      </trkpt>
      <trkpt lat="0" lon="0">
        <time>2021-02-28T07:57:36.253000+00:00</time>
      </trkpt>
      <trkpt lat="0" lon="0">
        <time>2021-02-28T07:57:36.258000+00:00</time>
      </trkpt>
      <trkpt lat="47.30309" lon="-1.39124">
        <ele>116</ele>
        <time>2021-02-28T07:57:37.265000+00:00</time>
      </trkpt>
      <trkpt lat="0" lon="0">
        <time>2021-02-28T07:57:37.271000+00:00</time>
      </trkpt>
      <trkpt lat="0" lon="0">
        <time>2021-02-28T07:57:37.277000+00:00</time>
      </trkpt>
      <trkpt lat="0" lon="0">
        <time>2021-02-28T07:57:37.283000+00:00</time>
      </trkpt>
      <trkpt lat="47.30311" lon="-1.39118">
        <ele>115</ele>
        <time>2021-02-28T07:57:38.251000+00:00</time>
      </trkpt>
      <trkpt lat="0" lon="0">
        <time>2021-02-28T07:57:38.253000+00:00</time>
      </trkpt>
      <trkpt lat="0" lon="0">
        <time>2021-02-28T07:57:38.255000+00:00</time>
      </trkpt>
      <trkpt lat="0" lon="0">
        <time>2021-02-28T07:57:38.257000+00:00</time>
      </trkpt>
      <trkpt lat="47.30313" lon="-1.39111">
        <ele>115</ele>
        <time>2021-02-28T07:57:39.316000+00:00</time>
      </trkpt>
      <trkpt lat="0" lon="0">
        <time>2021-02-28T07:57:39.328000+00:00</time>
      </trkpt>
      <trkpt lat="0" lon="0">
        <time>2021-02-28T07:57:39.332000+00:00</time>
      </trkpt>
      <trkpt lat="0" lon="0">
        <time>2021-02-28T07:57:39.335000+00:00</time>
      </trkpt>
      <trkpt lat="47.30314" lon="-1.39105">
        <ele>115</ele>
        <time>2021-02-28T07:57:40.261000+00:00</time>
      </trkpt>
      <trkpt lat="0" lon="0">
        <time>2021-02-28T07:57:40.266000+00:00</time>
      </trkpt>
      <trkpt lat="0" lon="0">
        <time>2021-02-28T07:57:40.271000+00:00</time>
      </trkpt>
      <trkpt lat="0" lon="0">
        <time>2021-02-28T07:57:40.277000+00:00</time>
      </trkpt>
      <trkpt lat="47.30316" lon="-1.39099">
        <ele>115</ele>
        <time>2021-02-28T07:57:41.253000+00:00</time>
      </trkpt>
      <trkpt lat="0" lon="0">
        <time>2021-02-28T07:57:41.271000+00:00</time>
      </trkpt>
      <trkpt lat="0" lon="0">
        <time>2021-02-28T07:57:41.282000+00:00</time>
      </trkpt>
      <trkpt lat="0" lon="0">
        <time>2021-02-28T07:57:41.285000+00:00</time>
      </trkpt>
      <trkpt lat="47.30318" lon="-1.39093">
        <ele>114</ele>
        <time>2021-02-28T07:57:42.273000+00:00</time>
      </trkpt>
      <trkpt lat="0" lon="0">
        <time>2021-02-28T07:57:42.285000+00:00</time>
      </trkpt>
      <trkpt lat="0" lon="0">
        <time>2021-02-28T07:57:42.295000+00:00</time>
      </trkpt>
      <trkpt lat="0" lon="0">
        <time>2021-02-28T07:57:42.298000+00:00</time>
      </trkpt>
      <trkpt lat="47.3032" lon="-1.39087">
        <ele>115</ele>
        <time>2021-02-28T07:57:43.234000+00:00</time>
      </trkpt>
      <trkpt lat="0" lon="0">
        <time>2021-02-28T07:57:43.243000+00:00</time>
      </trkpt>
      <trkpt lat="0" lon="0">
        <time>2021-02-28T07:57:43.252000+00:00</time>
      </trkpt>
      <trkpt lat="0" lon="0">
        <time>2021-02-28T07:57:43.257000+00:00</time>
      </trkpt>
      <trkpt lat="47.30321" lon="-1.39081">
        <ele>115</ele>
        <time>2021-02-28T07:57:44.319000+00:00</time>
      </trkpt>
      <trkpt lat="0" lon="0">
        <time>2021-02-28T07:57:44.339000+00:00</time>
      </trkpt>
      <trkpt lat="0" lon="0">
        <time>2021-02-28T07:57:44.345000+00:00</time>
      </trkpt>
      <trkpt lat="0" lon="0">
        <time>2021-02-28T07:57:44.351000+00:00</time>
      </trkpt>
      <trkpt lat="47.30323" lon="-1.39075">
        <ele>115</ele>
        <time>2021-02-28T07:57:45.250000+00:00</time>
      </trkpt>
      <trkpt lat="0" lon="0">
        <time>2021-02-28T07:57:45.259000+00:00</time>
      </trkpt>
      <trkpt lat="0" lon="0">
        <time>2021-02-28T07:57:45.267000+00:00</time>
      </trkpt>
      <trkpt lat="0" lon="0">
        <time>2021-02-28T07:57:45.271000+00:00</time>
      </trkpt>
      <trkpt lat="47.30325" lon="-1.39069">
        <ele>115</ele>
        <time>2021-02-28T07:57:46.276000+00:00</time>
      </trkpt>
      <trkpt lat="0" lon="0">
        <time>2021-02-28T07:57:46.283000+00:00</time>
      </trkpt>
      <trkpt lat="0" lon="0">
        <time>2021-02-28T07:57:46.287000+00:00</time>
      </trkpt>
      <trkpt lat="0" lon="0">
        <time>2021-02-28T07:57:46.291000+00:00</time>
      </trkpt>
      <trkpt lat="47.30327" lon="-1.39063">
        <ele>114</ele>
        <time>2021-02-28T07:57:47.252000+00:00</time>
      </trkpt>
      <trkpt lat="0" lon="0">
        <time>2021-02-28T07:57:47.269000+00:00</time>
      </trkpt>
      <trkpt lat="0" lon="0">
        <time>2021-02-28T07:57:47.274000+00:00</time>
      </trkpt>
      <trkpt lat="0" lon="0">
        <time>2021-02-28T07:57:47.275000+00:00</time>
      </trkpt>
      <trkpt lat="47.30329" lon="-1.39058">
        <ele>115</ele>
        <time>2021-02-28T07:57:48.275000+00:00</time>
      </trkpt>
      <trkpt lat="0" lon="0">
        <time>2021-02-28T07:57:48.285000+00:00</time>
      </trkpt>
      <trkpt lat="0" lon="0">
        <time>2021-02-28T07:57:48.292000+00:00</time>
      </trkpt>
      <trkpt lat="0" lon="0">
        <time>2021-02-28T07:57:48.295000+00:00</time>
      </trkpt>
      <trkpt lat="47.30331" lon="-1.39052">
        <ele>115</ele>
        <time>2021-02-28T07:57:49.262000+00:00</time>
      </trkpt>
      <trkpt lat="0" lon="0">
        <time>2021-02-28T07:57:49.276000+00:00</time>
      </trkpt>
      <trkpt lat="0" lon="0">
        <time>2021-02-28T07:57:49.284000+00:00</time>
      </trkpt>
      <trkpt lat="0" lon="0">
        <time>2021-02-28T07:57:49.286000+00:00</time>
      </trkpt>
      <trkpt lat="47.30333" lon="-1.39047">
        <ele>114</ele>
        <time>2021-02-28T07:57:50.249000+00:00</time>
      </trkpt>
      <trkpt lat="0" lon="0">
        <time>2021-02-28T07:57:50.258000+00:00</time>
      </trkpt>
      <trkpt lat="0" lon="0">
        <time>2021-02-28T07:57:50.266000+00:00</time>
      </trkpt>
      <trkpt lat="0" lon="0">
        <time>2021-02-28T07:57:50.271000+00:00</time>
      </trkpt>
      <trkpt lat="47.30335" lon="-1.39042">
        <ele>115</ele>
        <time>2021-02-28T07:57:51.179000+00:00</time>
      </trkpt>
      <trkpt lat="0" lon="0">
        <time>2021-02-28T07:57:51.184000+00:00</time>
      </trkpt>
      <trkpt lat="0" lon="0">
        <time>2021-02-28T07:57:51.185000+00:00</time>
      </trkpt>
      <trkpt lat="47.30337" lon="-1.39037">
        <ele>115</ele>
        <time>2021-02-28T07:57:52.271000+00:00</time>
      </trkpt>
      <trkpt lat="0" lon="0">
        <time>2021-02-28T07:57:52.278000+00:00</time>
      </trkpt>
      <trkpt lat="0" lon="0">
        <time>2021-02-28T07:57:52.288000+00:00</time>
      </trkpt>
      <trkpt lat="0" lon="0">
        <time>2021-02-28T07:57:52.291000+00:00</time>
      </trkpt>
      <trkpt lat="47.3034" lon="-1.39032">
        <ele>114</ele>
        <time>2021-02-28T07:57:53.145000+00:00</time>
      </trkpt>
      <trkpt lat="0" lon="0">
        <time>2021-02-28T07:57:53.154000+00:00</time>
      </trkpt>
      <trkpt lat="0" lon="0">
        <time>2021-02-28T07:57:53.158000+00:00</time>
      </trkpt>
      <trkpt lat="0" lon="0">
        <time>2021-02-28T07:57:53.165000+00:00</time>
      </trkpt>
      <trkpt lat="47.30343" lon="-1.39027">
        <ele>114</ele>
        <time>2021-02-28T07:57:54.121000+00:00</time>
      </trkpt>
      <trkpt lat="0" lon="0">
        <time>2021-02-28T07:57:54.122000+00:00</time>
      </trkpt>
      <trkpt lat="0" lon="0">
        <time>2021-02-28T07:57:54.123000+00:00</time>
      </trkpt>
      <trkpt lat="0" lon="0">
        <time>2021-02-28T07:57:54.124000+00:00</time>
      </trkpt>
      <trkpt lat="47.30345" lon="-1.39022">
        <ele>114</ele>
        <time>2021-02-28T07:57:55.145000+00:00</time>
      </trkpt>
      <trkpt lat="0" lon="0">
        <time>2021-02-28T07:57:55.147000+00:00</time>
      </trkpt>
      <trkpt lat="0" lon="0">
        <time>2021-02-28T07:57:55.148000+00:00</time>
      </trkpt>
      <trkpt lat="0" lon="0">
        <time>2021-02-28T07:57:55.149000+00:00</time>
      </trkpt>
      <trkpt lat="47.30348" lon="-1.39017">
        <ele>113</ele>
        <time>2021-02-28T07:57:56.195000+00:00</time>
      </trkpt>
      <trkpt lat="0" lon="0">
        <time>2021-02-28T07:57:56.199000+00:00</time>
      </trkpt>
      <trkpt lat="0" lon="0">
        <time>2021-02-28T07:57:56.202000+00:00</time>
      </trkpt>
      <trkpt lat="0" lon="0">
        <time>2021-02-28T07:57:56.203000+00:00</time>
      </trkpt>
      <trkpt lat="47.30351" lon="-1.39013">
        <ele>113</ele>
        <time>2021-02-28T07:57:57.197000+00:00</time>
      </trkpt>
      <trkpt lat="0" lon="0">
        <time>2021-02-28T07:57:57.199000+00:00</time>
      </trkpt>
      <trkpt lat="0" lon="0">
        <time>2021-02-28T07:57:57.201000+00:00</time>
      </trkpt>
      <trkpt lat="0" lon="0">
        <time>2021-02-28T07:57:57.202000+00:00</time>
      </trkpt>
      <trkpt lat="47.30354" lon="-1.39009">
        <ele>114</ele>
        <time>2021-02-28T07:57:58.171000+00:00</time>
      </trkpt>
      <trkpt lat="0" lon="0">
        <time>2021-02-28T07:57:58.178000+00:00</time>
      </trkpt>
      <trkpt lat="0" lon="0">
        <time>2021-02-28T07:57:58.184000+00:00</time>
      </trkpt>
      <trkpt lat="0" lon="0">
        <time>2021-02-28T07:57:58.187000+00:00</time>
      </trkpt>
      <trkpt lat="47.30356" lon="-1.39005">
        <ele>114</ele>
        <time>2021-02-28T07:57:59.161000+00:00</time>
      </trkpt>
      <trkpt lat="0" lon="0">
        <time>2021-02-28T07:57:59.165000+00:00</time>
      </trkpt>
      <trkpt lat="0" lon="0">
        <time>2021-02-28T07:57:59.166000+00:00</time>
      </trkpt>
      <trkpt lat="47.30359" lon="-1.39001">
        <ele>114</ele>
        <time>2021-02-28T07:58:00.165000+00:00</time>
      </trkpt>
      <trkpt lat="0" lon="0">
        <time>2021-02-28T07:58:00.175000+00:00</time>
      </trkpt>
      <trkpt lat="0" lon="0">
        <time>2021-02-28T07:58:00.180000+00:00</time>
      </trkpt>
      <trkpt lat="0" lon="0">
        <time>2021-02-28T07:58:00.182000+00:00</time>
      </trkpt>
      <trkpt lat="47.30361" lon="-1.38998">
        <ele>114</ele>
        <time>2021-02-28T07:58:01.194000+00:00</time>
      </trkpt>
      <trkpt lat="0" lon="0">
        <time>2021-02-28T07:58:01.196000+00:00</time>
      </trkpt>
      <trkpt lat="0" lon="0">
        <time>2021-02-28T07:58:01.198000+00:00</time>
      </trkpt>
      <trkpt lat="0" lon="0">
        <time>2021-02-28T07:58:01.199000+00:00</time>
      </trkpt>
      <trkpt lat="47.30364" lon="-1.38994">
        <ele>114</ele>
        <time>2021-02-28T07:58:02.214000+00:00</time>
      </trkpt>
      <trkpt lat="0" lon="0">
        <time>2021-02-28T07:58:02.225000+00:00</time>
      </trkpt>
      <trkpt lat="0" lon="0">
        <time>2021-02-28T07:58:02.230000+00:00</time>
      </trkpt>
      <trkpt lat="0" lon="0">
        <time>2021-02-28T07:58:02.232000+00:00</time>
      </trkpt>
      <trkpt lat="47.30366" lon="-1.38991">
        <ele>114</ele>
        <time>2021-02-28T07:58:03.242000+00:00</time>
      </trkpt>
      <trkpt lat="0" lon="0">
        <time>2021-02-28T07:58:03.247000+00:00</time>
      </trkpt>
      <trkpt lat="0" lon="0">
        <time>2021-02-28T07:58:03.251000+00:00</time>
      </trkpt>
      <trkpt lat="0" lon="0">
        <time>2021-02-28T07:58:03.253000+00:00</time>
      </trkpt>
      <trkpt lat="47.30368" lon="-1.38988">
        <ele>115</ele>
        <time>2021-02-28T07:58:04.226000+00:00</time>
      </trkpt>
      <trkpt lat="0" lon="0">
        <time>2021-02-28T07:58:04.238000+00:00</time>
      </trkpt>
      <trkpt lat="0" lon="0">
        <time>2021-02-28T07:58:04.246000+00:00</time>
      </trkpt>
      <trkpt lat="0" lon="0">
        <time>2021-02-28T07:58:04.248000+00:00</time>
      </trkpt>
      <trkpt lat="47.30371" lon="-1.38984">
        <ele>115</ele>
        <time>2021-02-28T07:58:05.218000+00:00</time>
      </trkpt>
      <trkpt lat="0" lon="0">
        <time>2021-02-28T07:58:05.233000+00:00</time>
      </trkpt>
      <trkpt lat="0" lon="0">
        <time>2021-02-28T07:58:05.242000+00:00</time>
      </trkpt>
      <trkpt lat="0" lon="0">
        <time>2021-02-28T07:58:05.246000+00:00</time>
      </trkpt>
      <trkpt lat="47.30373" lon="-1.38981">
        <ele>115</ele>
        <time>2021-02-28T07:58:06.228000+00:00</time>
      </trkpt>
      <trkpt lat="0" lon="0">
        <time>2021-02-28T07:58:06.238000+00:00</time>
      </trkpt>
      <trkpt lat="0" lon="0">
        <time>2021-02-28T07:58:06.246000+00:00</time>
      </trkpt>
      <trkpt lat="0" lon="0">
        <time>2021-02-28T07:58:06.249000+00:00</time>
      </trkpt>
      <trkpt lat="47.30375" lon="-1.38977">
        <ele>115</ele>
        <time>2021-02-28T07:58:07.172000+00:00</time>
      </trkpt>
      <trkpt lat="0" lon="0">
        <time>2021-02-28T07:58:07.178000+00:00</time>
      </trkpt>
      <trkpt lat="0" lon="0">
        <time>2021-02-28T07:58:07.183000+00:00</time>
      </trkpt>
      <trkpt lat="0" lon="0">
        <time>2021-02-28T07:58:07.187000+00:00</time>
      </trkpt>
      <trkpt lat="47.30377" lon="-1.38974">
        <ele>116</ele>
        <time>2021-02-28T07:58:08.180000+00:00</time>
      </trkpt>
      <trkpt lat="0" lon="0">
        <time>2021-02-28T07:58:08.188000+00:00</time>
      </trkpt>
      <trkpt lat="0" lon="0">
        <time>2021-02-28T07:58:08.195000+00:00</time>
      </trkpt>
      <trkpt lat="0" lon="0">
        <time>2021-02-28T07:58:08.199000+00:00</time>
      </trkpt>
      <trkpt lat="47.30379" lon="-1.3897">
        <ele>116</ele>
        <time>2021-02-28T07:58:09.222000+00:00</time>
      </trkpt>
      <trkpt lat="0" lon="0">
        <time>2021-02-28T07:58:09.225000+00:00</time>
      </trkpt>
      <trkpt lat="0" lon="0">
        <time>2021-02-28T07:58:09.227000+00:00</time>
      </trkpt>
      <trkpt lat="0" lon="0">
        <time>2021-02-28T07:58:09.232000+00:00</time>
      </trkpt>
      <trkpt lat="47.30381" lon="-1.38966">
        <ele>116</ele>
        <time>2021-02-28T07:58:10.220000+00:00</time>
      </trkpt>
      <trkpt lat="0" lon="0">
        <time>2021-02-28T07:58:10.226000+00:00</time>
      </trkpt>
      <trkpt lat="0" lon="0">
        <time>2021-02-28T07:58:10.232000+00:00</time>
      </trkpt>
      <trkpt lat="0" lon="0">
        <time>2021-02-28T07:58:10.238000+00:00</time>
      </trkpt>
      <trkpt lat="47.30383" lon="-1.38962">
        <ele>116</ele>
        <time>2021-02-28T07:58:11.176000+00:00</time>
      </trkpt>
      <trkpt lat="0" lon="0">
        <time>2021-02-28T07:58:11.178000+00:00</time>
      </trkpt>
      <trkpt lat="0" lon="0">
        <time>2021-02-28T07:58:11.182000+00:00</time>
      </trkpt>
      <trkpt lat="0" lon="0">
        <time>2021-02-28T07:58:11.184000+00:00</time>
      </trkpt>
      <trkpt lat="47.30385" lon="-1.38957">
        <ele>116</ele>
        <time>2021-02-28T07:58:12.175000+00:00</time>
      </trkpt>
      <trkpt lat="0" lon="0">
        <time>2021-02-28T07:58:12.178000+00:00</time>
      </trkpt>
      <trkpt lat="0" lon="0">
        <time>2021-02-28T07:58:12.183000+00:00</time>
      </trkpt>
      <trkpt lat="0" lon="0">
        <time>2021-02-28T07:58:12.184000+00:00</time>
      </trkpt>
      <trkpt lat="47.30387" lon="-1.38953">
        <ele>117</ele>
        <time>2021-02-28T07:58:13.215000+00:00</time>
      </trkpt>
      <trkpt lat="0" lon="0">
        <time>2021-02-28T07:58:13.230000+00:00</time>
      </trkpt>
      <trkpt lat="0" lon="0">
        <time>2021-02-28T07:58:13.236000+00:00</time>
      </trkpt>
      <trkpt lat="0" lon="0">
        <time>2021-02-28T07:58:13.241000+00:00</time>
      </trkpt>
      <trkpt lat="47.3039" lon="-1.38948">
        <ele>117</ele>
        <time>2021-02-28T07:58:14.185000+00:00</time>
      </trkpt>
      <trkpt lat="0" lon="0">
        <time>2021-02-28T07:58:14.190000+00:00</time>
      </trkpt>
      <trkpt lat="0" lon="0">
        <time>2021-02-28T07:58:14.195000+00:00</time>
      </trkpt>
      <trkpt lat="0" lon="0">
        <time>2021-02-28T07:58:14.199000+00:00</time>
      </trkpt>
      <trkpt lat="47.30392" lon="-1.38944">
        <ele>117</ele>
        <time>2021-02-28T07:58:15.197000+00:00</time>
      </trkpt>
      <trkpt lat="0" lon="0">
        <time>2021-02-28T07:58:15.205000+00:00</time>
      </trkpt>
      <trkpt lat="0" lon="0">
        <time>2021-02-28T07:58:15.209000+00:00</time>
      </trkpt>
      <trkpt lat="0" lon="0">
        <time>2021-02-28T07:58:15.211000+00:00</time>
      </trkpt>
      <trkpt lat="47.30395" lon="-1.38939">
        <ele>117</ele>
        <time>2021-02-28T07:58:16.205000+00:00</time>
      </trkpt>
      <trkpt lat="0" lon="0">
        <time>2021-02-28T07:58:16.217000+00:00</time>
      </trkpt>
      <trkpt lat="0" lon="0">
        <time>2021-02-28T07:58:16.222000+00:00</time>
      </trkpt>
      <trkpt lat="0" lon="0">
        <time>2021-02-28T07:58:16.228000+00:00</time>
      </trkpt>
      <trkpt lat="47.30397" lon="-1.38934">
        <ele>117</ele>
        <time>2021-02-28T07:58:17.282000+00:00</time>
      </trkpt>
      <trkpt lat="0" lon="0">
        <time>2021-02-28T07:58:17.289000+00:00</time>
      </trkpt>
      <trkpt lat="0" lon="0">
        <time>2021-02-28T07:58:17.295000+00:00</time>
      </trkpt>
      <trkpt lat="0" lon="0">
        <time>2021-02-28T07:58:17.298000+00:00</time>
      </trkpt>
      <trkpt lat="47.304" lon="-1.38929">
        <ele>117</ele>
        <time>2021-02-28T07:58:18.261000+00:00</time>
      </trkpt>
      <trkpt lat="0" lon="0">
        <time>2021-02-28T07:58:18.267000+00:00</time>
      </trkpt>
      <trkpt lat="0" lon="0">
        <time>2021-02-28T07:58:18.271000+00:00</time>
      </trkpt>
      <trkpt lat="0" lon="0">
        <time>2021-02-28T07:58:18.274000+00:00</time>
      </trkpt>
      <trkpt lat="47.30403" lon="-1.38924">
        <ele>117</ele>
        <time>2021-02-28T07:58:19.279000+00:00</time>
      </trkpt>
      <trkpt lat="0" lon="0">
        <time>2021-02-28T07:58:19.285000+00:00</time>
      </trkpt>
      <trkpt lat="0" lon="0">
        <time>2021-02-28T07:58:19.290000+00:00</time>
      </trkpt>
      <trkpt lat="0" lon="0">
        <time>2021-02-28T07:58:19.293000+00:00</time>
      </trkpt>
      <trkpt lat="47.30406" lon="-1.3892">
        <ele>117</ele>
        <time>2021-02-28T07:58:20.153000+00:00</time>
      </trkpt>
      <trkpt lat="0" lon="0">
        <time>2021-02-28T07:58:20.161000+00:00</time>
      </trkpt>
      <trkpt lat="0" lon="0">
        <time>2021-02-28T07:58:20.165000+00:00</time>
      </trkpt>
      <trkpt lat="0" lon="0">
        <time>2021-02-28T07:58:20.166000+00:00</time>
      </trkpt>
      <trkpt lat="47.30409" lon="-1.38915">
        <ele>118</ele>
        <time>2021-02-28T07:58:21.266000+00:00</time>
      </trkpt>
      <trkpt lat="0" lon="0">
        <time>2021-02-28T07:58:21.270000+00:00</time>
      </trkpt>
      <trkpt lat="0" lon="0">
        <time>2021-02-28T07:58:21.275000+00:00</time>
      </trkpt>
      <trkpt lat="0" lon="0">
        <time>2021-02-28T07:58:21.277000+00:00</time>
      </trkpt>
      <trkpt lat="47.30412" lon="-1.38911">
        <ele>118</ele>
        <time>2021-02-28T07:58:22.238000+00:00</time>
      </trkpt>
      <trkpt lat="0" lon="0">
        <time>2021-02-28T07:58:22.250000+00:00</time>
      </trkpt>
      <trkpt lat="0" lon="0">
        <time>2021-02-28T07:58:22.255000+00:00</time>
      </trkpt>
      <trkpt lat="0" lon="0">
        <time>2021-02-28T07:58:22.258000+00:00</time>
      </trkpt>
      <trkpt lat="47.30415" lon="-1.38906">
        <ele>118</ele>
        <time>2021-02-28T07:58:23.142000+00:00</time>
      </trkpt>
      <trkpt lat="0" lon="0">
        <time>2021-02-28T07:58:23.156000+00:00</time>
      </trkpt>
      <trkpt lat="0" lon="0">
        <time>2021-02-28T07:58:23.159000+00:00</time>
      </trkpt>
      <trkpt lat="0" lon="0">
        <time>2021-02-28T07:58:23.161000+00:00</time>
      </trkpt>
      <trkpt lat="47.30418" lon="-1.38902">
        <ele>119</ele>
        <time>2021-02-28T07:58:24.278000+00:00</time>
      </trkpt>
      <trkpt lat="0" lon="0">
        <time>2021-02-28T07:58:24.294000+00:00</time>
      </trkpt>
      <trkpt lat="0" lon="0">
        <time>2021-02-28T07:58:24.301000+00:00</time>
      </trkpt>
      <trkpt lat="0" lon="0">
        <time>2021-02-28T07:58:24.305000+00:00</time>
      </trkpt>
      <trkpt lat="47.3042" lon="-1.38897">
        <ele>119</ele>
        <time>2021-02-28T07:58:25.176000+00:00</time>
      </trkpt>
      <trkpt lat="0" lon="0">
        <time>2021-02-28T07:58:25.182000+00:00</time>
      </trkpt>
      <trkpt lat="0" lon="0">
        <time>2021-02-28T07:58:25.186000+00:00</time>
      </trkpt>
      <trkpt lat="0" lon="0">
        <time>2021-02-28T07:58:25.188000+00:00</time>
      </trkpt>
      <trkpt lat="47.30423" lon="-1.38893">
        <ele>119</ele>
        <time>2021-02-28T07:58:26.138000+00:00</time>
      </trkpt>
      <trkpt lat="0" lon="0">
        <time>2021-02-28T07:58:26.147000+00:00</time>
      </trkpt>
      <trkpt lat="0" lon="0">
        <time>2021-02-28T07:58:26.163000+00:00</time>
      </trkpt>
      <trkpt lat="0" lon="0">
        <time>2021-02-28T07:58:26.166000+00:00</time>
      </trkpt>
      <trkpt lat="47.30426" lon="-1.3889">
        <ele>119</ele>
        <time>2021-02-28T07:58:27.191000+00:00</time>
      </trkpt>
      <trkpt lat="0" lon="0">
        <time>2021-02-28T07:58:27.204000+00:00</time>
      </trkpt>
      <trkpt lat="0" lon="0">
        <time>2021-02-28T07:58:27.208000+00:00</time>
      </trkpt>
      <trkpt lat="0" lon="0">
        <time>2021-02-28T07:58:27.211000+00:00</time>
      </trkpt>
      <trkpt lat="47.30429" lon="-1.38886">
        <ele>119</ele>
        <time>2021-02-28T07:58:28.179000+00:00</time>
      </trkpt>
      <trkpt lat="0" lon="0">
        <time>2021-02-28T07:58:28.188000+00:00</time>
      </trkpt>
      <trkpt lat="0" lon="0">
        <time>2021-02-28T07:58:28.194000+00:00</time>
      </trkpt>
      <trkpt lat="0" lon="0">
        <time>2021-02-28T07:58:28.195000+00:00</time>
      </trkpt>
      <trkpt lat="47.30432" lon="-1.38883">
        <ele>119</ele>
        <time>2021-02-28T07:58:29.164000+00:00</time>
      </trkpt>
      <trkpt lat="0" lon="0">
        <time>2021-02-28T07:58:29.172000+00:00</time>
      </trkpt>
      <trkpt lat="0" lon="0">
        <time>2021-02-28T07:58:29.175000+00:00</time>
      </trkpt>
      <trkpt lat="0" lon="0">
        <time>2021-02-28T07:58:29.178000+00:00</time>
      </trkpt>
      <trkpt lat="47.30434" lon="-1.3888">
        <ele>119</ele>
        <time>2021-02-28T07:58:30.201000+00:00</time>
      </trkpt>
      <trkpt lat="0" lon="0">
        <time>2021-02-28T07:58:30.209000+00:00</time>
      </trkpt>
      <trkpt lat="0" lon="0">
        <time>2021-02-28T07:58:30.216000+00:00</time>
      </trkpt>
      <trkpt lat="0" lon="0">
        <time>2021-02-28T07:58:30.218000+00:00</time>
      </trkpt>
      <trkpt lat="47.30437" lon="-1.38877">
        <ele>119</ele>
        <time>2021-02-28T07:58:31.254000+00:00</time>
      </trkpt>
      <trkpt lat="0" lon="0">
        <time>2021-02-28T07:58:31.281000+00:00</time>
      </trkpt>
      <trkpt lat="0" lon="0">
        <time>2021-02-28T07:58:31.290000+00:00</time>
      </trkpt>
      <trkpt lat="0" lon="0">
        <time>2021-02-28T07:58:31.295000+00:00</time>
      </trkpt>
      <trkpt lat="47.30439" lon="-1.38874">
        <ele>120</ele>
        <time>2021-02-28T07:58:32.255000+00:00</time>
      </trkpt>
      <trkpt lat="0" lon="0">
        <time>2021-02-28T07:58:32.266000+00:00</time>
      </trkpt>
      <trkpt lat="0" lon="0">
        <time>2021-02-28T07:58:32.271000+00:00</time>
      </trkpt>
      <trkpt lat="0" lon="0">
        <time>2021-02-28T07:58:32.273000+00:00</time>
      </trkpt>
      <trkpt lat="47.30442" lon="-1.38871">
        <ele>120</ele>
        <time>2021-02-28T07:58:33.259000+00:00</time>
      </trkpt>
      <trkpt lat="0" lon="0">
        <time>2021-02-28T07:58:33.269000+00:00</time>
      </trkpt>
      <trkpt lat="0" lon="0">
        <time>2021-02-28T07:58:33.274000+00:00</time>
      </trkpt>
      <trkpt lat="0" lon="0">
        <time>2021-02-28T07:58:33.276000+00:00</time>
      </trkpt>
      <trkpt lat="47.30445" lon="-1.38868">
        <ele>120</ele>
        <time>2021-02-28T07:58:34.273000+00:00</time>
      </trkpt>
      <trkpt lat="0" lon="0">
        <time>2021-02-28T07:58:34.280000+00:00</time>
      </trkpt>
      <trkpt lat="0" lon="0">
        <time>2021-02-28T07:58:34.284000+00:00</time>
      </trkpt>
      <trkpt lat="0" lon="0">
        <time>2021-02-28T07:58:34.287000+00:00</time>
      </trkpt>
      <trkpt lat="47.30447" lon="-1.38865">
        <ele>121</ele>
        <time>2021-02-28T07:58:35.261000+00:00</time>
      </trkpt>
      <trkpt lat="0" lon="0">
        <time>2021-02-28T07:58:35.271000+00:00</time>
      </trkpt>
      <trkpt lat="0" lon="0">
        <time>2021-02-28T07:58:35.276000+00:00</time>
      </trkpt>
      <trkpt lat="0" lon="0">
        <time>2021-02-28T07:58:35.279000+00:00</time>
      </trkpt>
      <trkpt lat="47.3045" lon="-1.38863">
        <ele>121</ele>
        <time>2021-02-28T07:58:36.294000+00:00</time>
      </trkpt>
      <trkpt lat="0" lon="0">
        <time>2021-02-28T07:58:36.300000+00:00</time>
      </trkpt>
      <trkpt lat="0" lon="0">
        <time>2021-02-28T07:58:36.305000+00:00</time>
      </trkpt>
      <trkpt lat="0" lon="0">
        <time>2021-02-28T07:58:36.308000+00:00</time>
      </trkpt>
      <trkpt lat="47.30453" lon="-1.3886">
        <ele>121</ele>
        <time>2021-02-28T07:58:37.274000+00:00</time>
      </trkpt>
      <trkpt lat="0" lon="0">
        <time>2021-02-28T07:58:37.277000+00:00</time>
      </trkpt>
      <trkpt lat="0" lon="0">
        <time>2021-02-28T07:58:37.280000+00:00</time>
      </trkpt>
      <trkpt lat="0" lon="0">
        <time>2021-02-28T07:58:37.281000+00:00</time>
      </trkpt>
      <trkpt lat="47.30456" lon="-1.38857">
        <ele>121</ele>
        <time>2021-02-28T07:58:38.252000+00:00</time>
      </trkpt>
      <trkpt lat="0" lon="0">
        <time>2021-02-28T07:58:38.262000+00:00</time>
      </trkpt>
      <trkpt lat="0" lon="0">
        <time>2021-02-28T07:58:38.268000+00:00</time>
      </trkpt>
      <trkpt lat="0" lon="0">
        <time>2021-02-28T07:58:38.271000+00:00</time>
      </trkpt>
      <trkpt lat="47.3046" lon="-1.38854">
        <ele>121</ele>
        <time>2021-02-28T07:58:39.257000+00:00</time>
      </trkpt>
      <trkpt lat="0" lon="0">
        <time>2021-02-28T07:58:39.263000+00:00</time>
      </trkpt>
      <trkpt lat="0" lon="0">
        <time>2021-02-28T07:58:39.272000+00:00</time>
      </trkpt>
      <trkpt lat="0" lon="0">
        <time>2021-02-28T07:58:39.277000+00:00</time>
      </trkpt>
      <trkpt lat="47.30463" lon="-1.38852">
        <ele>121</ele>
        <time>2021-02-28T07:58:40.247000+00:00</time>
      </trkpt>
      <trkpt lat="0" lon="0">
        <time>2021-02-28T07:58:40.258000+00:00</time>
      </trkpt>
      <trkpt lat="0" lon="0">
        <time>2021-02-28T07:58:40.263000+00:00</time>
      </trkpt>
      <trkpt lat="0" lon="0">
        <time>2021-02-28T07:58:40.268000+00:00</time>
      </trkpt>
      <trkpt lat="47.30467" lon="-1.38849">
        <ele>121</ele>
        <time>2021-02-28T07:58:41.223000+00:00</time>
      </trkpt>
      <trkpt lat="0" lon="0">
        <time>2021-02-28T07:58:41.233000+00:00</time>
      </trkpt>
      <trkpt lat="0" lon="0">
        <time>2021-02-28T07:58:41.242000+00:00</time>
      </trkpt>
      <trkpt lat="0" lon="0">
        <time>2021-02-28T07:58:41.245000+00:00</time>
      </trkpt>
      <trkpt lat="47.30472" lon="-1.38846">
        <ele>121</ele>
        <time>2021-02-28T07:58:42.252000+00:00</time>
      </trkpt>
      <trkpt lat="0" lon="0">
        <time>2021-02-28T07:58:42.264000+00:00</time>
      </trkpt>
      <trkpt lat="0" lon="0">
        <time>2021-02-28T07:58:42.272000+00:00</time>
      </trkpt>
      <trkpt lat="0" lon="0">
        <time>2021-02-28T07:58:42.276000+00:00</time>
      </trkpt>
      <trkpt lat="47.30476" lon="-1.38844">
        <ele>121</ele>
        <time>2021-02-28T07:58:43.222000+00:00</time>
      </trkpt>
      <trkpt lat="0" lon="0">
        <time>2021-02-28T07:58:43.229000+00:00</time>
      </trkpt>
      <trkpt lat="0" lon="0">
        <time>2021-02-28T07:58:43.234000+00:00</time>
      </trkpt>
      <trkpt lat="0" lon="0">
        <time>2021-02-28T07:58:43.236000+00:00</time>
      </trkpt>
      <trkpt lat="47.30479" lon="-1.38841">
        <ele>120</ele>
        <time>2021-02-28T07:58:44.212000+00:00</time>
      </trkpt>
      <trkpt lat="0" lon="0">
        <time>2021-02-28T07:58:44.225000+00:00</time>
      </trkpt>
      <trkpt lat="0" lon="0">
        <time>2021-02-28T07:58:44.235000+00:00</time>
      </trkpt>
      <trkpt lat="0" lon="0">
        <time>2021-02-28T07:58:44.241000+00:00</time>
      </trkpt>
      <trkpt lat="47.30483" lon="-1.38837">
        <ele>119</ele>
        <time>2021-02-28T07:58:45.216000+00:00</time>
      </trkpt>
      <trkpt lat="0" lon="0">
        <time>2021-02-28T07:58:45.221000+00:00</time>
      </trkpt>
      <trkpt lat="0" lon="0">
        <time>2021-02-28T07:58:45.226000+00:00</time>
      </trkpt>
      <trkpt lat="0" lon="0">
        <time>2021-02-28T07:58:45.228000+00:00</time>
      </trkpt>
      <trkpt lat="47.30485" lon="-1.38834">
        <ele>119</ele>
        <time>2021-02-28T07:58:46.233000+00:00</time>
      </trkpt>
      <trkpt lat="0" lon="0">
        <time>2021-02-28T07:58:46.240000+00:00</time>
      </trkpt>
      <trkpt lat="0" lon="0">
        <time>2021-02-28T07:58:46.248000+00:00</time>
      </trkpt>
      <trkpt lat="0" lon="0">
        <time>2021-02-28T07:58:46.251000+00:00</time>
      </trkpt>
      <trkpt lat="47.30487" lon="-1.3883">
        <ele>119</ele>
        <time>2021-02-28T07:58:47.242000+00:00</time>
      </trkpt>
      <trkpt lat="0" lon="0">
        <time>2021-02-28T07:58:47.249000+00:00</time>
      </trkpt>
      <trkpt lat="0" lon="0">
        <time>2021-02-28T07:58:47.260000+00:00</time>
      </trkpt>
      <trkpt lat="0" lon="0">
        <time>2021-02-28T07:58:47.262000+00:00</time>
      </trkpt>
      <trkpt lat="47.30487" lon="-1.38826">
        <ele>119</ele>
        <time>2021-02-28T07:58:48.229000+00:00</time>
      </trkpt>
      <trkpt lat="0" lon="0">
        <time>2021-02-28T07:58:48.236000+00:00</time>
      </trkpt>
      <trkpt lat="0" lon="0">
        <time>2021-02-28T07:58:48.240000+00:00</time>
      </trkpt>
      <trkpt lat="0" lon="0">
        <time>2021-02-28T07:58:48.242000+00:00</time>
      </trkpt>
      <trkpt lat="47.30487" lon="-1.38821">
        <ele>119</ele>
        <time>2021-02-28T07:58:49.277000+00:00</time>
      </trkpt>
      <trkpt lat="0" lon="0">
        <time>2021-02-28T07:58:49.283000+00:00</time>
      </trkpt>
      <trkpt lat="0" lon="0">
        <time>2021-02-28T07:58:49.287000+00:00</time>
      </trkpt>
      <trkpt lat="0" lon="0">
        <time>2021-02-28T07:58:49.290000+00:00</time>
      </trkpt>
      <trkpt lat="47.30487" lon="-1.38816">
        <ele>120</ele>
        <time>2021-02-28T07:58:50.253000+00:00</time>
      </trkpt>
      <trkpt lat="0" lon="0">
        <time>2021-02-28T07:58:50.258000+00:00</time>
      </trkpt>
      <trkpt lat="0" lon="0">
        <time>2021-02-28T07:58:50.261000+00:00</time>
      </trkpt>
      <trkpt lat="0" lon="0">
        <time>2021-02-28T07:58:50.264000+00:00</time>
      </trkpt>
      <trkpt lat="47.30485" lon="-1.3881">
        <ele>120</ele>
        <time>2021-02-28T07:58:51.303000+00:00</time>
      </trkpt>
      <trkpt lat="0" lon="0">
        <time>2021-02-28T07:58:51.307000+00:00</time>
      </trkpt>
      <trkpt lat="0" lon="0">
        <time>2021-02-28T07:58:51.315000+00:00</time>
      </trkpt>
      <trkpt lat="0" lon="0">
        <time>2021-02-28T07:58:51.318000+00:00</time>
      </trkpt>
      <trkpt lat="47.30484" lon="-1.38805">
        <ele>120</ele>
        <time>2021-02-28T07:58:52.257000+00:00</time>
      </trkpt>
      <trkpt lat="0" lon="0">
        <time>2021-02-28T07:58:52.265000+00:00</time>
      </trkpt>
      <trkpt lat="0" lon="0">
        <time>2021-02-28T07:58:52.269000+00:00</time>
      </trkpt>
      <trkpt lat="0" lon="0">
        <time>2021-02-28T07:58:52.271000+00:00</time>
      </trkpt>
      <trkpt lat="47.30482" lon="-1.38799">
        <ele>120</ele>
        <time>2021-02-28T07:58:53.269000+00:00</time>
      </trkpt>
      <trkpt lat="0" lon="0">
        <time>2021-02-28T07:58:53.276000+00:00</time>
      </trkpt>
      <trkpt lat="0" lon="0">
        <time>2021-02-28T07:58:53.281000+00:00</time>
      </trkpt>
      <trkpt lat="0" lon="0">
        <time>2021-02-28T07:58:53.284000+00:00</time>
      </trkpt>
      <trkpt lat="47.3048" lon="-1.38793">
        <ele>120</ele>
        <time>2021-02-28T07:58:54.291000+00:00</time>
      </trkpt>
      <trkpt lat="0" lon="0">
        <time>2021-02-28T07:58:54.302000+00:00</time>
      </trkpt>
      <trkpt lat="0" lon="0">
        <time>2021-02-28T07:58:54.308000+00:00</time>
      </trkpt>
      <trkpt lat="0" lon="0">
        <time>2021-02-28T07:58:54.311000+00:00</time>
      </trkpt>
      <trkpt lat="47.30478" lon="-1.38786">
        <ele>120</ele>
        <time>2021-02-28T07:58:55.264000+00:00</time>
      </trkpt>
      <trkpt lat="0" lon="0">
        <time>2021-02-28T07:58:55.286000+00:00</time>
      </trkpt>
      <trkpt lat="0" lon="0">
        <time>2021-02-28T07:58:55.291000+00:00</time>
      </trkpt>
      <trkpt lat="0" lon="0">
        <time>2021-02-28T07:58:55.295000+00:00</time>
      </trkpt>
      <trkpt lat="47.30475" lon="-1.3878">
        <ele>120</ele>
        <time>2021-02-28T07:58:56.187000+00:00</time>
      </trkpt>
      <trkpt lat="0" lon="0">
        <time>2021-02-28T07:58:56.193000+00:00</time>
      </trkpt>
      <trkpt lat="0" lon="0">
        <time>2021-02-28T07:58:56.198000+00:00</time>
      </trkpt>
      <trkpt lat="0" lon="0">
        <time>2021-02-28T07:58:56.201000+00:00</time>
      </trkpt>
      <trkpt lat="47.30473" lon="-1.38775">
        <ele>120</ele>
        <time>2021-02-28T07:58:57.274000+00:00</time>
      </trkpt>
      <trkpt lat="0" lon="0">
        <time>2021-02-28T07:58:57.281000+00:00</time>
      </trkpt>
      <trkpt lat="0" lon="0">
        <time>2021-02-28T07:58:57.287000+00:00</time>
      </trkpt>
      <trkpt lat="0" lon="0">
        <time>2021-02-28T07:58:57.289000+00:00</time>
      </trkpt>
      <trkpt lat="47.30471" lon="-1.38769">
        <ele>120</ele>
        <time>2021-02-28T07:58:58.275000+00:00</time>
      </trkpt>
      <trkpt lat="0" lon="0">
        <time>2021-02-28T07:58:58.285000+00:00</time>
      </trkpt>
      <trkpt lat="0" lon="0">
        <time>2021-02-28T07:58:58.292000+00:00</time>
      </trkpt>
      <trkpt lat="0" lon="0">
        <time>2021-02-28T07:58:58.294000+00:00</time>
      </trkpt>
      <trkpt lat="47.30468" lon="-1.38764">
        <ele>121</ele>
        <time>2021-02-28T07:58:59.281000+00:00</time>
      </trkpt>
      <trkpt lat="0" lon="0">
        <time>2021-02-28T07:58:59.286000+00:00</time>
      </trkpt>
      <trkpt lat="0" lon="0">
        <time>2021-02-28T07:58:59.293000+00:00</time>
      </trkpt>
      <trkpt lat="0" lon="0">
        <time>2021-02-28T07:58:59.297000+00:00</time>
      </trkpt>
      <trkpt lat="47.30466" lon="-1.38759">
        <ele>122</ele>
        <time>2021-02-28T07:59:00.277000+00:00</time>
      </trkpt>
      <trkpt lat="0" lon="0">
        <time>2021-02-28T07:59:00.283000+00:00</time>
      </trkpt>
      <trkpt lat="0" lon="0">
        <time>2021-02-28T07:59:00.290000+00:00</time>
      </trkpt>
      <trkpt lat="0" lon="0">
        <time>2021-02-28T07:59:00.292000+00:00</time>
      </trkpt>
      <trkpt lat="47.30464" lon="-1.38754">
        <ele>123</ele>
        <time>2021-02-28T07:59:01.242000+00:00</time>
      </trkpt>
      <trkpt lat="0" lon="0">
        <time>2021-02-28T07:59:01.247000+00:00</time>
      </trkpt>
      <trkpt lat="0" lon="0">
        <time>2021-02-28T07:59:01.252000+00:00</time>
      </trkpt>
      <trkpt lat="0" lon="0">
        <time>2021-02-28T07:59:01.256000+00:00</time>
      </trkpt>
      <trkpt lat="47.30461" lon="-1.38749">
        <ele>124</ele>
        <time>2021-02-28T07:59:02.234000+00:00</time>
      </trkpt>
      <trkpt lat="0" lon="0">
        <time>2021-02-28T07:59:02.236000+00:00</time>
      </trkpt>
      <trkpt lat="0" lon="0">
        <time>2021-02-28T07:59:02.239000+00:00</time>
      </trkpt>
      <trkpt lat="0" lon="0">
        <time>2021-02-28T07:59:02.240000+00:00</time>
      </trkpt>
      <trkpt lat="47.30459" lon="-1.38745">
        <ele>125</ele>
        <time>2021-02-28T07:59:03.264000+00:00</time>
      </trkpt>
      <trkpt lat="0" lon="0">
        <time>2021-02-28T07:59:03.273000+00:00</time>
      </trkpt>
      <trkpt lat="0" lon="0">
        <time>2021-02-28T07:59:03.277000+00:00</time>
      </trkpt>
      <trkpt lat="0" lon="0">
        <time>2021-02-28T07:59:03.279000+00:00</time>
      </trkpt>
      <trkpt lat="47.30457" lon="-1.38741">
        <ele>125</ele>
        <time>2021-02-28T07:59:04.289000+00:00</time>
      </trkpt>
      <trkpt lat="0" lon="0">
        <time>2021-02-28T07:59:04.304000+00:00</time>
      </trkpt>
      <trkpt lat="0" lon="0">
        <time>2021-02-28T07:59:04.308000+00:00</time>
      </trkpt>
      <trkpt lat="0" lon="0">
        <time>2021-02-28T07:59:04.310000+00:00</time>
      </trkpt>
      <trkpt lat="47.30454" lon="-1.38737">
        <ele>126</ele>
        <time>2021-02-28T07:59:05.177000+00:00</time>
      </trkpt>
      <trkpt lat="0" lon="0">
        <time>2021-02-28T07:59:05.181000+00:00</time>
      </trkpt>
      <trkpt lat="0" lon="0">
        <time>2021-02-28T07:59:05.182000+00:00</time>
      </trkpt>
      <trkpt lat="0" lon="0">
        <time>2021-02-28T07:59:05.183000+00:00</time>
      </trkpt>
      <trkpt lat="47.30452" lon="-1.38733">
        <ele>126</ele>
        <time>2021-02-28T07:59:06.249000+00:00</time>
      </trkpt>
      <trkpt lat="0" lon="0">
        <time>2021-02-28T07:59:06.255000+00:00</time>
      </trkpt>
      <trkpt lat="0" lon="0">
        <time>2021-02-28T07:59:06.263000+00:00</time>
      </trkpt>
      <trkpt lat="0" lon="0">
        <time>2021-02-28T07:59:06.265000+00:00</time>
      </trkpt>
      <trkpt lat="47.3045" lon="-1.38729">
        <ele>127</ele>
        <time>2021-02-28T07:59:07.265000+00:00</time>
      </trkpt>
      <trkpt lat="0" lon="0">
        <time>2021-02-28T07:59:07.274000+00:00</time>
      </trkpt>
      <trkpt lat="0" lon="0">
        <time>2021-02-28T07:59:07.278000+00:00</time>
      </trkpt>
      <trkpt lat="0" lon="0">
        <time>2021-02-28T07:59:07.280000+00:00</time>
      </trkpt>
      <trkpt lat="47.30448" lon="-1.38724">
        <ele>127</ele>
        <time>2021-02-28T07:59:08.282000+00:00</time>
      </trkpt>
      <trkpt lat="0" lon="0">
        <time>2021-02-28T07:59:08.288000+00:00</time>
      </trkpt>
      <trkpt lat="0" lon="0">
        <time>2021-02-28T07:59:08.294000+00:00</time>
      </trkpt>
      <trkpt lat="0" lon="0">
        <time>2021-02-28T07:59:08.297000+00:00</time>
      </trkpt>
      <trkpt lat="47.30446" lon="-1.38719">
        <ele>127</ele>
        <time>2021-02-28T07:59:09.267000+00:00</time>
      </trkpt>
      <trkpt lat="0" lon="0">
        <time>2021-02-28T07:59:09.276000+00:00</time>
      </trkpt>
      <trkpt lat="0" lon="0">
        <time>2021-02-28T07:59:09.285000+00:00</time>
      </trkpt>
      <trkpt lat="0" lon="0">
        <time>2021-02-28T07:59:09.288000+00:00</time>
      </trkpt>
      <trkpt lat="47.30445" lon="-1.38715">
        <ele>127</ele>
        <time>2021-02-28T07:59:10.274000+00:00</time>
      </trkpt>
      <trkpt lat="0" lon="0">
        <time>2021-02-28T07:59:10.281000+00:00</time>
      </trkpt>
      <trkpt lat="0" lon="0">
        <time>2021-02-28T07:59:10.287000+00:00</time>
      </trkpt>
      <trkpt lat="0" lon="0">
        <time>2021-02-28T07:59:10.290000+00:00</time>
      </trkpt>
      <trkpt lat="47.30443" lon="-1.3871">
        <ele>127</ele>
        <time>2021-02-28T07:59:11.248000+00:00</time>
      </trkpt>
      <trkpt lat="0" lon="0">
        <time>2021-02-28T07:59:11.254000+00:00</time>
      </trkpt>
      <trkpt lat="0" lon="0">
        <time>2021-02-28T07:59:11.260000+00:00</time>
      </trkpt>
      <trkpt lat="0" lon="0">
        <time>2021-02-28T07:59:11.262000+00:00</time>
      </trkpt>
      <trkpt lat="47.30441" lon="-1.38705">
        <ele>127</ele>
        <time>2021-02-28T07:59:12.288000+00:00</time>
      </trkpt>
      <trkpt lat="0" lon="0">
        <time>2021-02-28T07:59:12.293000+00:00</time>
      </trkpt>
      <trkpt lat="0" lon="0">
        <time>2021-02-28T07:59:12.296000+00:00</time>
      </trkpt>
      <trkpt lat="0" lon="0">
        <time>2021-02-28T07:59:12.297000+00:00</time>
      </trkpt>
      <trkpt lat="47.3044" lon="-1.387">
        <ele>127</ele>
        <time>2021-02-28T07:59:13.277000+00:00</time>
      </trkpt>
      <trkpt lat="0" lon="0">
        <time>2021-02-28T07:59:13.283000+00:00</time>
      </trkpt>
      <trkpt lat="0" lon="0">
        <time>2021-02-28T07:59:13.287000+00:00</time>
      </trkpt>
      <trkpt lat="0" lon="0">
        <time>2021-02-28T07:59:13.290000+00:00</time>
      </trkpt>
      <trkpt lat="47.30438" lon="-1.38695">
        <ele>128</ele>
        <time>2021-02-28T07:59:14.272000+00:00</time>
      </trkpt>
      <trkpt lat="0" lon="0">
        <time>2021-02-28T07:59:14.276000+00:00</time>
      </trkpt>
      <trkpt lat="0" lon="0">
        <time>2021-02-28T07:59:14.281000+00:00</time>
      </trkpt>
      <trkpt lat="0" lon="0">
        <time>2021-02-28T07:59:14.283000+00:00</time>
      </trkpt>
      <trkpt lat="47.30437" lon="-1.3869">
        <ele>128</ele>
        <time>2021-02-28T07:59:15.278000+00:00</time>
      </trkpt>
      <trkpt lat="0" lon="0">
        <time>2021-02-28T07:59:15.285000+00:00</time>
      </trkpt>
      <trkpt lat="0" lon="0">
        <time>2021-02-28T07:59:15.289000+00:00</time>
      </trkpt>
      <trkpt lat="0" lon="0">
        <time>2021-02-28T07:59:15.291000+00:00</time>
      </trkpt>
      <trkpt lat="47.30435" lon="-1.38685">
        <ele>128</ele>
        <time>2021-02-28T07:59:16.264000+00:00</time>
      </trkpt>
      <trkpt lat="0" lon="0">
        <time>2021-02-28T07:59:16.269000+00:00</time>
      </trkpt>
      <trkpt lat="0" lon="0">
        <time>2021-02-28T07:59:16.274000+00:00</time>
      </trkpt>
      <trkpt lat="0" lon="0">
        <time>2021-02-28T07:59:16.277000+00:00</time>
      </trkpt>
      <trkpt lat="47.30434" lon="-1.3868">
        <ele>128</ele>
        <time>2021-02-28T07:59:17.316000+00:00</time>
      </trkpt>
      <trkpt lat="0" lon="0">
        <time>2021-02-28T07:59:17.330000+00:00</time>
      </trkpt>
      <trkpt lat="0" lon="0">
        <time>2021-02-28T07:59:17.335000+00:00</time>
      </trkpt>
      <trkpt lat="0" lon="0">
        <time>2021-02-28T07:59:17.338000+00:00</time>
      </trkpt>
      <trkpt lat="47.30433" lon="-1.38674">
        <ele>128</ele>
        <time>2021-02-28T07:59:18.204000+00:00</time>
      </trkpt>
      <trkpt lat="0" lon="0">
        <time>2021-02-28T07:59:18.211000+00:00</time>
      </trkpt>
      <trkpt lat="0" lon="0">
        <time>2021-02-28T07:59:18.215000+00:00</time>
      </trkpt>
      <trkpt lat="0" lon="0">
        <time>2021-02-28T07:59:18.222000+00:00</time>
      </trkpt>
      <trkpt lat="47.30431" lon="-1.38669">
        <ele>128</ele>
        <time>2021-02-28T07:59:19.195000+00:00</time>
      </trkpt>
      <trkpt lat="0" lon="0">
        <time>2021-02-28T07:59:19.203000+00:00</time>
      </trkpt>
      <trkpt lat="0" lon="0">
        <time>2021-02-28T07:59:19.208000+00:00</time>
      </trkpt>
      <trkpt lat="0" lon="0">
        <time>2021-02-28T07:59:19.209000+00:00</time>
      </trkpt>
      <trkpt lat="47.3043" lon="-1.38664">
        <ele>128</ele>
        <time>2021-02-28T07:59:20.217000+00:00</time>
      </trkpt>
      <trkpt lat="0" lon="0">
        <time>2021-02-28T07:59:20.227000+00:00</time>
      </trkpt>
      <trkpt lat="0" lon="0">
        <time>2021-02-28T07:59:20.231000+00:00</time>
      </trkpt>
      <trkpt lat="0" lon="0">
        <time>2021-02-28T07:59:20.233000+00:00</time>
      </trkpt>
      <trkpt lat="47.30428" lon="-1.38659">
        <ele>128</ele>
        <time>2021-02-28T07:59:21.208000+00:00</time>
      </trkpt>
      <trkpt lat="0" lon="0">
        <time>2021-02-28T07:59:21.219000+00:00</time>
      </trkpt>
      <trkpt lat="0" lon="0">
        <time>2021-02-28T07:59:21.225000+00:00</time>
      </trkpt>
      <trkpt lat="0" lon="0">
        <time>2021-02-28T07:59:21.231000+00:00</time>
      </trkpt>
      <trkpt lat="47.30427" lon="-1.38654">
        <ele>128</ele>
        <time>2021-02-28T07:59:22.218000+00:00</time>
      </trkpt>
      <trkpt lat="0" lon="0">
        <time>2021-02-28T07:59:22.227000+00:00</time>
      </trkpt>
      <trkpt lat="0" lon="0">
        <time>2021-02-28T07:59:22.231000+00:00</time>
      </trkpt>
      <trkpt lat="0" lon="0">
        <time>2021-02-28T07:59:22.234000+00:00</time>
      </trkpt>
      <trkpt lat="47.30425" lon="-1.38649">
        <ele>128</ele>
        <time>2021-02-28T07:59:23.214000+00:00</time>
      </trkpt>
      <trkpt lat="0" lon="0">
        <time>2021-02-28T07:59:23.229000+00:00</time>
      </trkpt>
      <trkpt lat="0" lon="0">
        <time>2021-02-28T07:59:23.236000+00:00</time>
      </trkpt>
      <trkpt lat="0" lon="0">
        <time>2021-02-28T07:59:23.239000+00:00</time>
      </trkpt>
      <trkpt lat="47.30424" lon="-1.38644">
        <ele>128</ele>
        <time>2021-02-28T07:59:24.207000+00:00</time>
      </trkpt>
      <trkpt lat="0" lon="0">
        <time>2021-02-28T07:59:24.217000+00:00</time>
      </trkpt>
      <trkpt lat="0" lon="0">
        <time>2021-02-28T07:59:24.223000+00:00</time>
      </trkpt>
      <trkpt lat="0" lon="0">
        <time>2021-02-28T07:59:24.224000+00:00</time>
      </trkpt>
      <trkpt lat="47.30423" lon="-1.38639">
        <ele>128</ele>
        <time>2021-02-28T07:59:25.201000+00:00</time>
      </trkpt>
      <trkpt lat="0" lon="0">
        <time>2021-02-28T07:59:25.205000+00:00</time>
      </trkpt>
      <trkpt lat="0" lon="0">
        <time>2021-02-28T07:59:25.209000+00:00</time>
      </trkpt>
      <trkpt lat="0" lon="0">
        <time>2021-02-28T07:59:25.211000+00:00</time>
      </trkpt>
      <trkpt lat="47.30421" lon="-1.38635">
        <ele>128</ele>
        <time>2021-02-28T07:59:26.172000+00:00</time>
      </trkpt>
      <trkpt lat="0" lon="0">
        <time>2021-02-28T07:59:26.176000+00:00</time>
      </trkpt>
      <trkpt lat="0" lon="0">
        <time>2021-02-28T07:59:26.177000+00:00</time>
      </trkpt>
      <trkpt lat="0" lon="0">
        <time>2021-02-28T07:59:26.178000+00:00</time>
      </trkpt>
      <trkpt lat="47.30419" lon="-1.38631">
        <ele>128</ele>
        <time>2021-02-28T07:59:27.197000+00:00</time>
      </trkpt>
      <trkpt lat="0" lon="0">
        <time>2021-02-28T07:59:27.206000+00:00</time>
      </trkpt>
      <trkpt lat="0" lon="0">
        <time>2021-02-28T07:59:27.209000+00:00</time>
      </trkpt>
      <trkpt lat="0" lon="0">
        <time>2021-02-28T07:59:27.211000+00:00</time>
      </trkpt>
      <trkpt lat="47.30417" lon="-1.38627">
        <ele>128</ele>
        <time>2021-02-28T07:59:28.149000+00:00</time>
      </trkpt>
      <trkpt lat="0" lon="0">
        <time>2021-02-28T07:59:28.154000+00:00</time>
      </trkpt>
      <trkpt lat="0" lon="0">
        <time>2021-02-28T07:59:28.157000+00:00</time>
      </trkpt>
      <trkpt lat="0" lon="0">
        <time>2021-02-28T07:59:28.160000+00:00</time>
      </trkpt>
      <trkpt lat="47.30415" lon="-1.38624">
        <ele>128</ele>
        <time>2021-02-28T07:59:29.223000+00:00</time>
      </trkpt>
      <trkpt lat="0" lon="0">
        <time>2021-02-28T07:59:29.228000+00:00</time>
      </trkpt>
      <trkpt lat="0" lon="0">
        <time>2021-02-28T07:59:29.233000+00:00</time>
      </trkpt>
      <trkpt lat="0" lon="0">
        <time>2021-02-28T07:59:29.235000+00:00</time>
      </trkpt>
      <trkpt lat="47.30413" lon="-1.38622">
        <ele>128</ele>
        <time>2021-02-28T07:59:30.184000+00:00</time>
      </trkpt>
      <trkpt lat="0" lon="0">
        <time>2021-02-28T07:59:30.188000+00:00</time>
      </trkpt>
      <trkpt lat="0" lon="0">
        <time>2021-02-28T07:59:30.198000+00:00</time>
      </trkpt>
      <trkpt lat="0" lon="0">
        <time>2021-02-28T07:59:30.200000+00:00</time>
      </trkpt>
      <trkpt lat="47.3041" lon="-1.3862">
        <ele>128</ele>
        <time>2021-02-28T07:59:31.219000+00:00</time>
      </trkpt>
      <trkpt lat="0" lon="0">
        <time>2021-02-28T07:59:31.225000+00:00</time>
      </trkpt>
      <trkpt lat="0" lon="0">
        <time>2021-02-28T07:59:31.228000+00:00</time>
      </trkpt>
      <trkpt lat="0" lon="0">
        <time>2021-02-28T07:59:31.230000+00:00</time>
      </trkpt>
      <trkpt lat="47.30407" lon="-1.38619">
        <ele>127</ele>
        <time>2021-02-28T07:59:32.227000+00:00</time>
      </trkpt>
      <trkpt lat="0" lon="0">
        <time>2021-02-28T07:59:32.232000+00:00</time>
      </trkpt>
      <trkpt lat="0" lon="0">
        <time>2021-02-28T07:59:32.235000+00:00</time>
      </trkpt>
      <trkpt lat="0" lon="0">
        <time>2021-02-28T07:59:32.237000+00:00</time>
      </trkpt>
      <trkpt lat="47.30404" lon="-1.38618">
        <ele>127</ele>
        <time>2021-02-28T07:59:33.204000+00:00</time>
      </trkpt>
      <trkpt lat="0" lon="0">
        <time>2021-02-28T07:59:33.213000+00:00</time>
      </trkpt>
      <trkpt lat="0" lon="0">
        <time>2021-02-28T07:59:33.216000+00:00</time>
      </trkpt>
      <trkpt lat="0" lon="0">
        <time>2021-02-28T07:59:33.218000+00:00</time>
      </trkpt>
      <trkpt lat="47.30401" lon="-1.38617">
        <ele>127</ele>
        <time>2021-02-28T07:59:34.199000+00:00</time>
      </trkpt>
      <trkpt lat="0" lon="0">
        <time>2021-02-28T07:59:34.206000+00:00</time>
      </trkpt>
      <trkpt lat="0" lon="0">
        <time>2021-02-28T07:59:34.210000+00:00</time>
      </trkpt>
      <trkpt lat="0" lon="0">
        <time>2021-02-28T07:59:34.212000+00:00</time>
      </trkpt>
      <trkpt lat="47.30398" lon="-1.38616">
        <ele>127</ele>
        <time>2021-02-28T07:59:35.206000+00:00</time>
      </trkpt>
      <trkpt lat="0" lon="0">
        <time>2021-02-28T07:59:35.209000+00:00</time>
      </trkpt>
      <trkpt lat="0" lon="0">
        <time>2021-02-28T07:59:35.217000+00:00</time>
      </trkpt>
      <trkpt lat="0" lon="0">
        <time>2021-02-28T07:59:35.221000+00:00</time>
      </trkpt>
      <trkpt lat="47.30395" lon="-1.38615">
        <ele>127</ele>
        <time>2021-02-28T07:59:36.179000+00:00</time>
      </trkpt>
      <trkpt lat="0" lon="0">
        <time>2021-02-28T07:59:36.186000+00:00</time>
      </trkpt>
      <trkpt lat="0" lon="0">
        <time>2021-02-28T07:59:36.190000+00:00</time>
      </trkpt>
      <trkpt lat="0" lon="0">
        <time>2021-02-28T07:59:36.193000+00:00</time>
      </trkpt>
      <trkpt lat="47.30392" lon="-1.38613">
        <ele>127</ele>
        <time>2021-02-28T07:59:37.298000+00:00</time>
      </trkpt>
      <trkpt lat="0" lon="0">
        <time>2021-02-28T07:59:37.305000+00:00</time>
      </trkpt>
      <trkpt lat="0" lon="0">
        <time>2021-02-28T07:59:37.311000+00:00</time>
      </trkpt>
      <trkpt lat="0" lon="0">
        <time>2021-02-28T07:59:37.314000+00:00</time>
      </trkpt>
      <trkpt lat="47.30388" lon="-1.38612">
        <ele>127</ele>
        <time>2021-02-28T07:59:38.292000+00:00</time>
      </trkpt>
      <trkpt lat="0" lon="0">
        <time>2021-02-28T07:59:38.299000+00:00</time>
      </trkpt>
      <trkpt lat="0" lon="0">
        <time>2021-02-28T07:59:38.306000+00:00</time>
      </trkpt>
      <trkpt lat="0" lon="0">
        <time>2021-02-28T07:59:38.309000+00:00</time>
      </trkpt>
      <trkpt lat="47.30385" lon="-1.3861">
        <ele>127</ele>
        <time>2021-02-28T07:59:39.225000+00:00</time>
      </trkpt>
      <trkpt lat="0" lon="0">
        <time>2021-02-28T07:59:39.233000+00:00</time>
      </trkpt>
      <trkpt lat="0" lon="0">
        <time>2021-02-28T07:59:39.238000+00:00</time>
      </trkpt>
      <trkpt lat="0" lon="0">
        <time>2021-02-28T07:59:39.241000+00:00</time>
      </trkpt>
      <trkpt lat="47.30381" lon="-1.38608">
        <ele>127</ele>
        <time>2021-02-28T07:59:40.263000+00:00</time>
      </trkpt>
      <trkpt lat="0" lon="0">
        <time>2021-02-28T07:59:40.268000+00:00</time>
      </trkpt>
      <trkpt lat="0" lon="0">
        <time>2021-02-28T07:59:40.273000+00:00</time>
      </trkpt>
      <trkpt lat="0" lon="0">
        <time>2021-02-28T07:59:40.278000+00:00</time>
      </trkpt>
      <trkpt lat="47.30377" lon="-1.38607">
        <ele>127</ele>
        <time>2021-02-28T07:59:41.311000+00:00</time>
      </trkpt>
      <trkpt lat="0" lon="0">
        <time>2021-02-28T07:59:41.315000+00:00</time>
      </trkpt>
      <trkpt lat="0" lon="0">
        <time>2021-02-28T07:59:41.320000+00:00</time>
      </trkpt>
      <trkpt lat="0" lon="0">
        <time>2021-02-28T07:59:41.322000+00:00</time>
      </trkpt>
      <trkpt lat="47.30373" lon="-1.38605">
        <ele>127</ele>
        <time>2021-02-28T07:59:42.290000+00:00</time>
      </trkpt>
      <trkpt lat="0" lon="0">
        <time>2021-02-28T07:59:42.300000+00:00</time>
      </trkpt>
      <trkpt lat="0" lon="0">
        <time>2021-02-28T07:59:42.303000+00:00</time>
      </trkpt>
      <trkpt lat="0" lon="0">
        <time>2021-02-28T07:59:42.306000+00:00</time>
      </trkpt>
      <trkpt lat="47.30369" lon="-1.38603">
        <ele>127</ele>
        <time>2021-02-28T07:59:43.310000+00:00</time>
      </trkpt>
      <trkpt lat="0" lon="0">
        <time>2021-02-28T07:59:43.318000+00:00</time>
      </trkpt>
      <trkpt lat="0" lon="0">
        <time>2021-02-28T07:59:43.323000+00:00</time>
      </trkpt>
      <trkpt lat="0" lon="0">
        <time>2021-02-28T07:59:43.326000+00:00</time>
      </trkpt>
      <trkpt lat="47.30364" lon="-1.38601">
        <ele>127</ele>
        <time>2021-02-28T07:59:44.302000+00:00</time>
      </trkpt>
      <trkpt lat="0" lon="0">
        <time>2021-02-28T07:59:44.307000+00:00</time>
      </trkpt>
      <trkpt lat="0" lon="0">
        <time>2021-02-28T07:59:44.312000+00:00</time>
      </trkpt>
      <trkpt lat="0" lon="0">
        <time>2021-02-28T07:59:44.315000+00:00</time>
      </trkpt>
      <trkpt lat="47.3036" lon="-1.38599">
        <ele>126</ele>
        <time>2021-02-28T07:59:45.328000+00:00</time>
      </trkpt>
      <trkpt lat="0" lon="0">
        <time>2021-02-28T07:59:45.339000+00:00</time>
      </trkpt>
      <trkpt lat="0" lon="0">
        <time>2021-02-28T07:59:45.345000+00:00</time>
      </trkpt>
      <trkpt lat="0" lon="0">
        <time>2021-02-28T07:59:45.347000+00:00</time>
      </trkpt>
      <trkpt lat="47.30355" lon="-1.38597">
        <ele>126</ele>
        <time>2021-02-28T07:59:46.283000+00:00</time>
      </trkpt>
      <trkpt lat="0" lon="0">
        <time>2021-02-28T07:59:46.294000+00:00</time>
      </trkpt>
      <trkpt lat="0" lon="0">
        <time>2021-02-28T07:59:46.302000+00:00</time>
      </trkpt>
      <trkpt lat="0" lon="0">
        <time>2021-02-28T07:59:46.304000+00:00</time>
      </trkpt>
      <trkpt lat="47.30349" lon="-1.38595">
        <ele>126</ele>
        <time>2021-02-28T07:59:47.342000+00:00</time>
      </trkpt>
      <trkpt lat="0" lon="0">
        <time>2021-02-28T07:59:47.350000+00:00</time>
      </trkpt>
      <trkpt lat="0" lon="0">
        <time>2021-02-28T07:59:47.359000+00:00</time>
      </trkpt>
      <trkpt lat="0" lon="0">
        <time>2021-02-28T07:59:47.362000+00:00</time>
      </trkpt>
      <trkpt lat="47.30343" lon="-1.38593">
        <ele>126</ele>
        <time>2021-02-28T07:59:48.303000+00:00</time>
      </trkpt>
      <trkpt lat="0" lon="0">
        <time>2021-02-28T07:59:48.309000+00:00</time>
      </trkpt>
      <trkpt lat="0" lon="0">
        <time>2021-02-28T07:59:48.313000+00:00</time>
      </trkpt>
      <trkpt lat="0" lon="0">
        <time>2021-02-28T07:59:48.317000+00:00</time>
      </trkpt>
      <trkpt lat="47.30337" lon="-1.38591">
        <ele>125</ele>
        <time>2021-02-28T07:59:49.296000+00:00</time>
      </trkpt>
      <trkpt lat="0" lon="0">
        <time>2021-02-28T07:59:49.310000+00:00</time>
      </trkpt>
      <trkpt lat="0" lon="0">
        <time>2021-02-28T07:59:49.315000+00:00</time>
      </trkpt>
      <trkpt lat="0" lon="0">
        <time>2021-02-28T07:59:49.318000+00:00</time>
      </trkpt>
      <trkpt lat="47.30331" lon="-1.3859">
        <ele>125</ele>
        <time>2021-02-28T07:59:50.300000+00:00</time>
      </trkpt>
      <trkpt lat="0" lon="0">
        <time>2021-02-28T07:59:50.309000+00:00</time>
      </trkpt>
      <trkpt lat="0" lon="0">
        <time>2021-02-28T07:59:50.318000+00:00</time>
      </trkpt>
      <trkpt lat="0" lon="0">
        <time>2021-02-28T07:59:50.321000+00:00</time>
      </trkpt>
      <trkpt lat="47.30324" lon="-1.38589">
        <ele>125</ele>
        <time>2021-02-28T07:59:51.315000+00:00</time>
      </trkpt>
      <trkpt lat="0" lon="0">
        <time>2021-02-28T07:59:51.328000+00:00</time>
      </trkpt>
      <trkpt lat="0" lon="0">
        <time>2021-02-28T07:59:51.333000+00:00</time>
      </trkpt>
      <trkpt lat="0" lon="0">
        <time>2021-02-28T07:59:51.335000+00:00</time>
      </trkpt>
      <trkpt lat="47.30317" lon="-1.38588">
        <ele>125</ele>
        <time>2021-02-28T07:59:52.232000+00:00</time>
      </trkpt>
      <trkpt lat="0" lon="0">
        <time>2021-02-28T07:59:52.237000+00:00</time>
      </trkpt>
      <trkpt lat="0" lon="0">
        <time>2021-02-28T07:59:52.242000+00:00</time>
      </trkpt>
      <trkpt lat="0" lon="0">
        <time>2021-02-28T07:59:52.247000+00:00</time>
      </trkpt>
      <trkpt lat="47.30311" lon="-1.38588">
        <ele>126</ele>
        <time>2021-02-28T07:59:53.185000+00:00</time>
      </trkpt>
      <trkpt lat="0" lon="0">
        <time>2021-02-28T07:59:53.186000+00:00</time>
      </trkpt>
      <trkpt lat="0" lon="0">
        <time>2021-02-28T07:59:53.187000+00:00</time>
      </trkpt>
      <trkpt lat="0" lon="0">
        <time>2021-02-28T07:59:53.192000+00:00</time>
      </trkpt>
      <trkpt lat="47.30304" lon="-1.38587">
        <ele>125</ele>
        <time>2021-02-28T07:59:54.262000+00:00</time>
      </trkpt>
      <trkpt lat="0" lon="0">
        <time>2021-02-28T07:59:54.268000+00:00</time>
      </trkpt>
      <trkpt lat="0" lon="0">
        <time>2021-02-28T07:59:54.276000+00:00</time>
      </trkpt>
      <trkpt lat="0" lon="0">
        <time>2021-02-28T07:59:54.281000+00:00</time>
      </trkpt>
      <trkpt lat="47.30298" lon="-1.38587">
        <ele>126</ele>
        <time>2021-02-28T07:59:55.298000+00:00</time>
      </trkpt>
      <trkpt lat="0" lon="0">
        <time>2021-02-28T07:59:55.301000+00:00</time>
      </trkpt>
      <trkpt lat="0" lon="0">
        <time>2021-02-28T07:59:55.303000+00:00</time>
      </trkpt>
      <trkpt lat="0" lon="0">
        <time>2021-02-28T07:59:55.304000+00:00</time>
      </trkpt>
      <trkpt lat="47.30291" lon="-1.38587">
        <ele>125</ele>
        <time>2021-02-28T07:59:56.258000+00:00</time>
      </trkpt>
      <trkpt lat="0" lon="0">
        <time>2021-02-28T07:59:56.264000+00:00</time>
      </trkpt>
      <trkpt lat="0" lon="0">
        <time>2021-02-28T07:59:56.269000+00:00</time>
      </trkpt>
      <trkpt lat="0" lon="0">
        <time>2021-02-28T07:59:56.271000+00:00</time>
      </trkpt>
      <trkpt lat="47.30285" lon="-1.38588">
        <ele>125</ele>
        <time>2021-02-28T07:59:57.267000+00:00</time>
      </trkpt>
      <trkpt lat="0" lon="0">
        <time>2021-02-28T07:59:57.277000+00:00</time>
      </trkpt>
      <trkpt lat="0" lon="0">
        <time>2021-02-28T07:59:57.285000+00:00</time>
      </trkpt>
      <trkpt lat="0" lon="0">
        <time>2021-02-28T07:59:57.287000+00:00</time>
      </trkpt>
      <trkpt lat="47.30279" lon="-1.38588">
        <ele>125</ele>
        <time>2021-02-28T07:59:58.280000+00:00</time>
      </trkpt>
      <trkpt lat="0" lon="0">
        <time>2021-02-28T07:59:58.295000+00:00</time>
      </trkpt>
      <trkpt lat="0" lon="0">
        <time>2021-02-28T07:59:58.302000+00:00</time>
      </trkpt>
      <trkpt lat="0" lon="0">
        <time>2021-02-28T07:59:58.304000+00:00</time>
      </trkpt>
      <trkpt lat="47.30273" lon="-1.38589">
        <ele>126</ele>
        <time>2021-02-28T07:59:59.267000+00:00</time>
      </trkpt>
      <trkpt lat="0" lon="0">
        <time>2021-02-28T07:59:59.277000+00:00</time>
      </trkpt>
      <trkpt lat="0" lon="0">
        <time>2021-02-28T07:59:59.287000+00:00</time>
      </trkpt>
      <trkpt lat="0" lon="0">
        <time>2021-02-28T07:59:59.289000+00:00</time>
      </trkpt>
      <trkpt lat="47.30267" lon="-1.3859">
        <ele>126</ele>
        <time>2021-02-28T08:00:00.279000+00:00</time>
      </trkpt>
      <trkpt lat="0" lon="0">
        <time>2021-02-28T08:00:00.284000+00:00</time>
      </trkpt>
      <trkpt lat="0" lon="0">
        <time>2021-02-28T08:00:00.294000+00:00</time>
      </trkpt>
      <trkpt lat="0" lon="0">
        <time>2021-02-28T08:00:00.301000+00:00</time>
      </trkpt>
      <trkpt lat="47.30261" lon="-1.38591">
        <ele>125</ele>
        <time>2021-02-28T08:00:01.268000+00:00</time>
      </trkpt>
      <trkpt lat="0" lon="0">
        <time>2021-02-28T08:00:01.280000+00:00</time>
      </trkpt>
      <trkpt lat="0" lon="0">
        <time>2021-02-28T08:00:01.290000+00:00</time>
      </trkpt>
      <trkpt lat="0" lon="0">
        <time>2021-02-28T08:00:01.292000+00:00</time>
      </trkpt>
      <trkpt lat="47.30255" lon="-1.38592">
        <ele>125</ele>
        <time>2021-02-28T08:00:02.238000+00:00</time>
      </trkpt>
      <trkpt lat="0" lon="0">
        <time>2021-02-28T08:00:02.244000+00:00</time>
      </trkpt>
      <trkpt lat="0" lon="0">
        <time>2021-02-28T08:00:02.250000+00:00</time>
      </trkpt>
      <trkpt lat="0" lon="0">
        <time>2021-02-28T08:00:02.254000+00:00</time>
      </trkpt>
      <trkpt lat="47.30249" lon="-1.38593">
        <ele>126</ele>
        <time>2021-02-28T08:00:03.287000+00:00</time>
      </trkpt>
      <trkpt lat="0" lon="0">
        <time>2021-02-28T08:00:03.292000+00:00</time>
      </trkpt>
      <trkpt lat="0" lon="0">
        <time>2021-02-28T08:00:03.296000+00:00</time>
      </trkpt>
      <trkpt lat="0" lon="0">
        <time>2021-02-28T08:00:03.299000+00:00</time>
      </trkpt>
      <trkpt lat="47.30243" lon="-1.38594">
        <ele>126</ele>
        <time>2021-02-28T08:00:04.277000+00:00</time>
      </trkpt>
      <trkpt lat="0" lon="0">
        <time>2021-02-28T08:00:04.282000+00:00</time>
      </trkpt>
      <trkpt lat="0" lon="0">
        <time>2021-02-28T08:00:04.289000+00:00</time>
      </trkpt>
      <trkpt lat="0" lon="0">
        <time>2021-02-28T08:00:04.291000+00:00</time>
      </trkpt>
      <trkpt lat="47.30236" lon="-1.38595">
        <ele>127</ele>
        <time>2021-02-28T08:00:05.266000+00:00</time>
      </trkpt>
      <trkpt lat="0" lon="0">
        <time>2021-02-28T08:00:05.275000+00:00</time>
      </trkpt>
      <trkpt lat="0" lon="0">
        <time>2021-02-28T08:00:05.282000+00:00</time>
      </trkpt>
      <trkpt lat="0" lon="0">
        <time>2021-02-28T08:00:05.289000+00:00</time>
      </trkpt>
      <trkpt lat="47.3023" lon="-1.38597">
        <ele>126</ele>
        <time>2021-02-28T08:00:06.291000+00:00</time>
      </trkpt>
      <trkpt lat="0" lon="0">
        <time>2021-02-28T08:00:06.302000+00:00</time>
      </trkpt>
      <trkpt lat="0" lon="0">
        <time>2021-02-28T08:00:06.307000+00:00</time>
      </trkpt>
      <trkpt lat="0" lon="0">
        <time>2021-02-28T08:00:06.311000+00:00</time>
      </trkpt>
      <trkpt lat="47.30224" lon="-1.38598">
        <ele>126</ele>
        <time>2021-02-28T08:00:07.273000+00:00</time>
      </trkpt>
      <trkpt lat="0" lon="0">
        <time>2021-02-28T08:00:07.287000+00:00</time>
      </trkpt>
      <trkpt lat="0" lon="0">
        <time>2021-02-28T08:00:07.293000+00:00</time>
      </trkpt>
      <trkpt lat="0" lon="0">
        <time>2021-02-28T08:00:07.297000+00:00</time>
      </trkpt>
      <trkpt lat="47.30218" lon="-1.386">
        <ele>126</ele>
        <time>2021-02-28T08:00:08.249000+00:00</time>
      </trkpt>
      <trkpt lat="0" lon="0">
        <time>2021-02-28T08:00:08.258000+00:00</time>
      </trkpt>
      <trkpt lat="0" lon="0">
        <time>2021-02-28T08:00:08.263000+00:00</time>
      </trkpt>
      <trkpt lat="0" lon="0">
        <time>2021-02-28T08:00:08.265000+00:00</time>
      </trkpt>
      <trkpt lat="47.30213" lon="-1.38602">
        <ele>125</ele>
        <time>2021-02-28T08:00:09.249000+00:00</time>
      </trkpt>
      <trkpt lat="0" lon="0">
        <time>2021-02-28T08:00:09.258000+00:00</time>
      </trkpt>
      <trkpt lat="0" lon="0">
        <time>2021-02-28T08:00:09.266000+00:00</time>
      </trkpt>
      <trkpt lat="0" lon="0">
        <time>2021-02-28T08:00:09.269000+00:00</time>
      </trkpt>
      <trkpt lat="47.30207" lon="-1.38603">
        <ele>124</ele>
        <time>2021-02-28T08:00:10.265000+00:00</time>
      </trkpt>
      <trkpt lat="0" lon="0">
        <time>2021-02-28T08:00:10.277000+00:00</time>
      </trkpt>
      <trkpt lat="0" lon="0">
        <time>2021-02-28T08:00:10.283000+00:00</time>
      </trkpt>
      <trkpt lat="0" lon="0">
        <time>2021-02-28T08:00:10.285000+00:00</time>
      </trkpt>
      <trkpt lat="47.30202" lon="-1.38604">
        <ele>123</ele>
        <time>2021-02-28T08:00:11.330000+00:00</time>
      </trkpt>
      <trkpt lat="0" lon="0">
        <time>2021-02-28T08:00:11.336000+00:00</time>
      </trkpt>
      <trkpt lat="0" lon="0">
        <time>2021-02-28T08:00:11.341000+00:00</time>
      </trkpt>
      <trkpt lat="0" lon="0">
        <time>2021-02-28T08:00:11.344000+00:00</time>
      </trkpt>
      <trkpt lat="47.30197" lon="-1.38604">
        <ele>123</ele>
        <time>2021-02-28T08:00:12.265000+00:00</time>
      </trkpt>
      <trkpt lat="0" lon="0">
        <time>2021-02-28T08:00:12.286000+00:00</time>
      </trkpt>
      <trkpt lat="0" lon="0">
        <time>2021-02-28T08:00:12.290000+00:00</time>
      </trkpt>
      <trkpt lat="0" lon="0">
        <time>2021-02-28T08:00:12.292000+00:00</time>
      </trkpt>
      <trkpt lat="47.30193" lon="-1.38603">
        <ele>123</ele>
        <time>2021-02-28T08:00:13.257000+00:00</time>
      </trkpt>
      <trkpt lat="0" lon="0">
        <time>2021-02-28T08:00:13.267000+00:00</time>
      </trkpt>
      <trkpt lat="0" lon="0">
        <time>2021-02-28T08:00:13.271000+00:00</time>
      </trkpt>
      <trkpt lat="0" lon="0">
        <time>2021-02-28T08:00:13.275000+00:00</time>
      </trkpt>
      <trkpt lat="47.3019" lon="-1.386">
        <ele>123</ele>
        <time>2021-02-28T08:00:14.272000+00:00</time>
      </trkpt>
      <trkpt lat="0" lon="0">
        <time>2021-02-28T08:00:14.278000+00:00</time>
      </trkpt>
      <trkpt lat="0" lon="0">
        <time>2021-02-28T08:00:14.284000+00:00</time>
      </trkpt>
      <trkpt lat="0" lon="0">
        <time>2021-02-28T08:00:14.290000+00:00</time>
      </trkpt>
      <trkpt lat="47.30186" lon="-1.38596">
        <ele>123</ele>
        <time>2021-02-28T08:00:15.262000+00:00</time>
      </trkpt>
      <trkpt lat="0" lon="0">
        <time>2021-02-28T08:00:15.271000+00:00</time>
      </trkpt>
      <trkpt lat="0" lon="0">
        <time>2021-02-28T08:00:15.276000+00:00</time>
      </trkpt>
      <trkpt lat="0" lon="0">
        <time>2021-02-28T08:00:15.279000+00:00</time>
      </trkpt>
      <trkpt lat="47.30183" lon="-1.38592">
        <ele>124</ele>
        <time>2021-02-28T08:00:16.262000+00:00</time>
      </trkpt>
      <trkpt lat="0" lon="0">
        <time>2021-02-28T08:00:16.267000+00:00</time>
      </trkpt>
      <trkpt lat="0" lon="0">
        <time>2021-02-28T08:00:16.273000+00:00</time>
      </trkpt>
      <trkpt lat="0" lon="0">
        <time>2021-02-28T08:00:16.276000+00:00</time>
      </trkpt>
      <trkpt lat="47.3018" lon="-1.38586">
        <ele>124</ele>
        <time>2021-02-28T08:00:17.257000+00:00</time>
      </trkpt>
      <trkpt lat="0" lon="0">
        <time>2021-02-28T08:00:17.271000+00:00</time>
      </trkpt>
      <trkpt lat="0" lon="0">
        <time>2021-02-28T08:00:17.277000+00:00</time>
      </trkpt>
      <trkpt lat="0" lon="0">
        <time>2021-02-28T08:00:17.280000+00:00</time>
      </trkpt>
      <trkpt lat="47.30177" lon="-1.38581">
        <ele>124</ele>
        <time>2021-02-28T08:00:18.331000+00:00</time>
      </trkpt>
      <trkpt lat="0" lon="0">
        <time>2021-02-28T08:00:18.341000+00:00</time>
      </trkpt>
      <trkpt lat="0" lon="0">
        <time>2021-02-28T08:00:18.347000+00:00</time>
      </trkpt>
      <trkpt lat="0" lon="0">
        <time>2021-02-28T08:00:18.351000+00:00</time>
      </trkpt>
      <trkpt lat="47.30174" lon="-1.38574">
        <ele>124</ele>
        <time>2021-02-28T08:00:19.317000+00:00</time>
      </trkpt>
      <trkpt lat="0" lon="0">
        <time>2021-02-28T08:00:19.327000+00:00</time>
      </trkpt>
      <trkpt lat="0" lon="0">
        <time>2021-02-28T08:00:19.334000+00:00</time>
      </trkpt>
      <trkpt lat="0" lon="0">
        <time>2021-02-28T08:00:19.336000+00:00</time>
      </trkpt>
      <trkpt lat="47.30171" lon="-1.38567">
        <ele>124</ele>
        <time>2021-02-28T08:00:20.252000+00:00</time>
      </trkpt>
      <trkpt lat="0" lon="0">
        <time>2021-02-28T08:00:20.254000+00:00</time>
      </trkpt>
      <trkpt lat="0" lon="0">
        <time>2021-02-28T08:00:20.257000+00:00</time>
      </trkpt>
      <trkpt lat="0" lon="0">
        <time>2021-02-28T08:00:20.258000+00:00</time>
      </trkpt>
      <trkpt lat="47.30168" lon="-1.3856">
        <ele>124</ele>
        <time>2021-02-28T08:00:21.266000+00:00</time>
      </trkpt>
      <trkpt lat="0" lon="0">
        <time>2021-02-28T08:00:21.275000+00:00</time>
      </trkpt>
      <trkpt lat="0" lon="0">
        <time>2021-02-28T08:00:21.282000+00:00</time>
      </trkpt>
      <trkpt lat="0" lon="0">
        <time>2021-02-28T08:00:21.285000+00:00</time>
      </trkpt>
      <trkpt lat="47.30165" lon="-1.38552">
        <ele>123</ele>
        <time>2021-02-28T08:00:22.264000+00:00</time>
      </trkpt>
      <trkpt lat="0" lon="0">
        <time>2021-02-28T08:00:22.285000+00:00</time>
      </trkpt>
      <trkpt lat="0" lon="0">
        <time>2021-02-28T08:00:22.289000+00:00</time>
      </trkpt>
      <trkpt lat="0" lon="0">
        <time>2021-02-28T08:00:22.292000+00:00</time>
      </trkpt>
      <trkpt lat="47.30161" lon="-1.38545">
        <ele>123</ele>
        <time>2021-02-28T08:00:23.318000+00:00</time>
      </trkpt>
      <trkpt lat="0" lon="0">
        <time>2021-02-28T08:00:23.328000+00:00</time>
      </trkpt>
      <trkpt lat="0" lon="0">
        <time>2021-02-28T08:00:23.335000+00:00</time>
      </trkpt>
      <trkpt lat="0" lon="0">
        <time>2021-02-28T08:00:23.338000+00:00</time>
      </trkpt>
      <trkpt lat="47.30157" lon="-1.38536">
        <ele>122</ele>
        <time>2021-02-28T08:00:24.277000+00:00</time>
      </trkpt>
      <trkpt lat="0" lon="0">
        <time>2021-02-28T08:00:24.282000+00:00</time>
      </trkpt>
      <trkpt lat="0" lon="0">
        <time>2021-02-28T08:00:24.290000+00:00</time>
      </trkpt>
      <trkpt lat="0" lon="0">
        <time>2021-02-28T08:00:24.293000+00:00</time>
      </trkpt>
      <trkpt lat="47.30153" lon="-1.38528">
        <ele>122</ele>
        <time>2021-02-28T08:00:25.297000+00:00</time>
      </trkpt>
      <trkpt lat="0" lon="0">
        <time>2021-02-28T08:00:25.307000+00:00</time>
      </trkpt>
      <trkpt lat="0" lon="0">
        <time>2021-02-28T08:00:25.313000+00:00</time>
      </trkpt>
      <trkpt lat="0" lon="0">
        <time>2021-02-28T08:00:25.317000+00:00</time>
      </trkpt>
      <trkpt lat="47.30148" lon="-1.3852">
        <ele>122</ele>
        <time>2021-02-28T08:00:26.283000+00:00</time>
      </trkpt>
      <trkpt lat="0" lon="0">
        <time>2021-02-28T08:00:26.291000+00:00</time>
      </trkpt>
      <trkpt lat="0" lon="0">
        <time>2021-02-28T08:00:26.297000+00:00</time>
      </trkpt>
      <trkpt lat="0" lon="0">
        <time>2021-02-28T08:00:26.301000+00:00</time>
      </trkpt>
      <trkpt lat="47.30144" lon="-1.38511">
        <ele>122</ele>
        <time>2021-02-28T08:00:27.274000+00:00</time>
      </trkpt>
      <trkpt lat="0" lon="0">
        <time>2021-02-28T08:00:27.285000+00:00</time>
      </trkpt>
      <trkpt lat="0" lon="0">
        <time>2021-02-28T08:00:27.294000+00:00</time>
      </trkpt>
      <trkpt lat="0" lon="0">
        <time>2021-02-28T08:00:27.297000+00:00</time>
      </trkpt>
      <trkpt lat="47.30138" lon="-1.38502">
        <ele>122</ele>
        <time>2021-02-28T08:00:28.274000+00:00</time>
      </trkpt>
      <trkpt lat="0" lon="0">
        <time>2021-02-28T08:00:28.282000+00:00</time>
      </trkpt>
      <trkpt lat="0" lon="0">
        <time>2021-02-28T08:00:28.287000+00:00</time>
      </trkpt>
      <trkpt lat="0" lon="0">
        <time>2021-02-28T08:00:28.290000+00:00</time>
      </trkpt>
      <trkpt lat="47.30133" lon="-1.38493">
        <ele>121</ele>
        <time>2021-02-28T08:00:29.280000+00:00</time>
      </trkpt>
      <trkpt lat="0" lon="0">
        <time>2021-02-28T08:00:29.292000+00:00</time>
      </trkpt>
      <trkpt lat="0" lon="0">
        <time>2021-02-28T08:00:29.298000+00:00</time>
      </trkpt>
      <trkpt lat="0" lon="0">
        <time>2021-02-28T08:00:29.301000+00:00</time>
      </trkpt>
      <trkpt lat="47.30127" lon="-1.38484">
        <ele>120</ele>
        <time>2021-02-28T08:00:30.267000+00:00</time>
      </trkpt>
      <trkpt lat="0" lon="0">
        <time>2021-02-28T08:00:30.274000+00:00</time>
      </trkpt>
      <trkpt lat="0" lon="0">
        <time>2021-02-28T08:00:30.281000+00:00</time>
      </trkpt>
      <trkpt lat="0" lon="0">
        <time>2021-02-28T08:00:30.283000+00:00</time>
      </trkpt>
      <trkpt lat="47.30121" lon="-1.38475">
        <ele>120</ele>
        <time>2021-02-28T08:00:31.248000+00:00</time>
      </trkpt>
      <trkpt lat="0" lon="0">
        <time>2021-02-28T08:00:31.262000+00:00</time>
      </trkpt>
      <trkpt lat="0" lon="0">
        <time>2021-02-28T08:00:31.267000+00:00</time>
      </trkpt>
      <trkpt lat="0" lon="0">
        <time>2021-02-28T08:00:31.273000+00:00</time>
      </trkpt>
      <trkpt lat="47.30114" lon="-1.38465">
        <ele>119</ele>
        <time>2021-02-28T08:00:32.264000+00:00</time>
      </trkpt>
      <trkpt lat="0" lon="0">
        <time>2021-02-28T08:00:32.273000+00:00</time>
      </trkpt>
      <trkpt lat="0" lon="0">
        <time>2021-02-28T08:00:32.282000+00:00</time>
      </trkpt>
      <trkpt lat="0" lon="0">
        <time>2021-02-28T08:00:32.285000+00:00</time>
      </trkpt>
      <trkpt lat="47.30108" lon="-1.38456">
        <ele>119</ele>
        <time>2021-02-28T08:00:33.187000+00:00</time>
      </trkpt>
      <trkpt lat="0" lon="0">
        <time>2021-02-28T08:00:33.198000+00:00</time>
      </trkpt>
      <trkpt lat="0" lon="0">
        <time>2021-02-28T08:00:33.203000+00:00</time>
      </trkpt>
      <trkpt lat="0" lon="0">
        <time>2021-02-28T08:00:33.206000+00:00</time>
      </trkpt>
      <trkpt lat="47.30103" lon="-1.38448">
        <ele>118</ele>
        <time>2021-02-28T08:00:34.256000+00:00</time>
      </trkpt>
      <trkpt lat="0" lon="0">
        <time>2021-02-28T08:00:34.266000+00:00</time>
      </trkpt>
      <trkpt lat="0" lon="0">
        <time>2021-02-28T08:00:34.270000+00:00</time>
      </trkpt>
      <trkpt lat="0" lon="0">
        <time>2021-02-28T08:00:34.273000+00:00</time>
      </trkpt>
      <trkpt lat="47.30097" lon="-1.38441">
        <ele>117</ele>
        <time>2021-02-28T08:00:35.278000+00:00</time>
      </trkpt>
      <trkpt lat="0" lon="0">
        <time>2021-02-28T08:00:35.285000+00:00</time>
      </trkpt>
      <trkpt lat="0" lon="0">
        <time>2021-02-28T08:00:35.290000+00:00</time>
      </trkpt>
      <trkpt lat="0" lon="0">
        <time>2021-02-28T08:00:35.298000+00:00</time>
      </trkpt>
      <trkpt lat="47.30093" lon="-1.38434">
        <ele>117</ele>
        <time>2021-02-28T08:00:36.284000+00:00</time>
      </trkpt>
      <trkpt lat="0" lon="0">
        <time>2021-02-28T08:00:36.288000+00:00</time>
      </trkpt>
      <trkpt lat="0" lon="0">
        <time>2021-02-28T08:00:36.293000+00:00</time>
      </trkpt>
      <trkpt lat="0" lon="0">
        <time>2021-02-28T08:00:36.295000+00:00</time>
      </trkpt>
      <trkpt lat="47.30089" lon="-1.38429">
        <ele>117</ele>
        <time>2021-02-28T08:00:37.322000+00:00</time>
      </trkpt>
      <trkpt lat="0" lon="0">
        <time>2021-02-28T08:00:37.335000+00:00</time>
      </trkpt>
      <trkpt lat="0" lon="0">
        <time>2021-02-28T08:00:37.343000+00:00</time>
      </trkpt>
      <trkpt lat="0" lon="0">
        <time>2021-02-28T08:00:37.347000+00:00</time>
      </trkpt>
      <trkpt lat="47.30085" lon="-1.38426">
        <ele>117</ele>
        <time>2021-02-28T08:00:38.216000+00:00</time>
      </trkpt>
      <trkpt lat="0" lon="0">
        <time>2021-02-28T08:00:38.225000+00:00</time>
      </trkpt>
      <trkpt lat="0" lon="0">
        <time>2021-02-28T08:00:38.230000+00:00</time>
      </trkpt>
      <trkpt lat="0" lon="0">
        <time>2021-02-28T08:00:38.232000+00:00</time>
      </trkpt>
      <trkpt lat="47.30082" lon="-1.38425">
        <ele>117</ele>
        <time>2021-02-28T08:00:39.222000+00:00</time>
      </trkpt>
      <trkpt lat="0" lon="0">
        <time>2021-02-28T08:00:39.226000+00:00</time>
      </trkpt>
      <trkpt lat="0" lon="0">
        <time>2021-02-28T08:00:39.231000+00:00</time>
      </trkpt>
      <trkpt lat="0" lon="0">
        <time>2021-02-28T08:00:39.234000+00:00</time>
      </trkpt>
      <trkpt lat="47.3008" lon="-1.38426">
        <ele>117</ele>
        <time>2021-02-28T08:00:40.249000+00:00</time>
      </trkpt>
      <trkpt lat="0" lon="0">
        <time>2021-02-28T08:00:40.261000+00:00</time>
      </trkpt>
      <trkpt lat="0" lon="0">
        <time>2021-02-28T08:00:40.270000+00:00</time>
      </trkpt>
      <trkpt lat="0" lon="0">
        <time>2021-02-28T08:00:40.273000+00:00</time>
      </trkpt>
      <trkpt lat="47.30078" lon="-1.38428">
        <ele>116</ele>
        <time>2021-02-28T08:00:41.279000+00:00</time>
      </trkpt>
      <trkpt lat="0" lon="0">
        <time>2021-02-28T08:00:41.290000+00:00</time>
      </trkpt>
      <trkpt lat="0" lon="0">
        <time>2021-02-28T08:00:41.298000+00:00</time>
      </trkpt>
      <trkpt lat="0" lon="0">
        <time>2021-02-28T08:00:41.301000+00:00</time>
      </trkpt>
      <trkpt lat="47.30076" lon="-1.38431">
        <ele>116</ele>
        <time>2021-02-28T08:00:42.306000+00:00</time>
      </trkpt>
      <trkpt lat="0" lon="0">
        <time>2021-02-28T08:00:42.310000+00:00</time>
      </trkpt>
      <trkpt lat="0" lon="0">
        <time>2021-02-28T08:00:42.313000+00:00</time>
      </trkpt>
      <trkpt lat="0" lon="0">
        <time>2021-02-28T08:00:42.314000+00:00</time>
      </trkpt>
      <trkpt lat="47.30075" lon="-1.38435">
        <ele>116</ele>
        <time>2021-02-28T08:00:43.268000+00:00</time>
      </trkpt>
      <trkpt lat="0" lon="0">
        <time>2021-02-28T08:00:43.279000+00:00</time>
      </trkpt>
      <trkpt lat="0" lon="0">
        <time>2021-02-28T08:00:43.286000+00:00</time>
      </trkpt>
      <trkpt lat="0" lon="0">
        <time>2021-02-28T08:00:43.288000+00:00</time>
      </trkpt>
      <trkpt lat="47.30074" lon="-1.38438">
        <ele>115</ele>
        <time>2021-02-28T08:00:44.277000+00:00</time>
      </trkpt>
      <trkpt lat="0" lon="0">
        <time>2021-02-28T08:00:44.287000+00:00</time>
      </trkpt>
      <trkpt lat="0" lon="0">
        <time>2021-02-28T08:00:44.292000+00:00</time>
      </trkpt>
      <trkpt lat="0" lon="0">
        <time>2021-02-28T08:00:44.295000+00:00</time>
      </trkpt>
      <trkpt lat="47.30073" lon="-1.38442">
        <ele>115</ele>
        <time>2021-02-28T08:00:45.296000+00:00</time>
      </trkpt>
      <trkpt lat="0" lon="0">
        <time>2021-02-28T08:00:45.302000+00:00</time>
      </trkpt>
      <trkpt lat="0" lon="0">
        <time>2021-02-28T08:00:45.308000+00:00</time>
      </trkpt>
      <trkpt lat="0" lon="0">
        <time>2021-02-28T08:00:45.311000+00:00</time>
      </trkpt>
      <trkpt lat="47.30072" lon="-1.38445">
        <ele>115</ele>
        <time>2021-02-28T08:00:46.226000+00:00</time>
      </trkpt>
      <trkpt lat="0" lon="0">
        <time>2021-02-28T08:00:46.232000+00:00</time>
      </trkpt>
      <trkpt lat="0" lon="0">
        <time>2021-02-28T08:00:46.237000+00:00</time>
      </trkpt>
      <trkpt lat="0" lon="0">
        <time>2021-02-28T08:00:46.239000+00:00</time>
      </trkpt>
      <trkpt lat="47.30071" lon="-1.38447">
        <ele>115</ele>
        <time>2021-02-28T08:00:47.189000+00:00</time>
      </trkpt>
      <trkpt lat="0" lon="0">
        <time>2021-02-28T08:00:47.197000+00:00</time>
      </trkpt>
      <trkpt lat="0" lon="0">
        <time>2021-02-28T08:00:47.201000+00:00</time>
      </trkpt>
      <trkpt lat="0" lon="0">
        <time>2021-02-28T08:00:47.203000+00:00</time>
      </trkpt>
      <trkpt lat="47.3007" lon="-1.38449">
        <ele>115</ele>
        <time>2021-02-28T08:00:48.187000+00:00</time>
      </trkpt>
      <trkpt lat="0" lon="0">
        <time>2021-02-28T08:00:48.194000+00:00</time>
      </trkpt>
      <trkpt lat="0" lon="0">
        <time>2021-02-28T08:00:48.198000+00:00</time>
      </trkpt>
      <trkpt lat="0" lon="0">
        <time>2021-02-28T08:00:48.203000+00:00</time>
      </trkpt>
      <trkpt lat="47.30068" lon="-1.38451">
        <ele>115</ele>
        <time>2021-02-28T08:00:49.199000+00:00</time>
      </trkpt>
      <trkpt lat="0" lon="0">
        <time>2021-02-28T08:00:49.205000+00:00</time>
      </trkpt>
      <trkpt lat="0" lon="0">
        <time>2021-02-28T08:00:49.210000+00:00</time>
      </trkpt>
      <trkpt lat="0" lon="0">
        <time>2021-02-28T08:00:49.213000+00:00</time>
      </trkpt>
      <trkpt lat="47.30066" lon="-1.38453">
        <ele>116</ele>
        <time>2021-02-28T08:00:50.197000+00:00</time>
      </trkpt>
      <trkpt lat="0" lon="0">
        <time>2021-02-28T08:00:50.202000+00:00</time>
      </trkpt>
      <trkpt lat="0" lon="0">
        <time>2021-02-28T08:00:50.208000+00:00</time>
      </trkpt>
      <trkpt lat="0" lon="0">
        <time>2021-02-28T08:00:50.211000+00:00</time>
      </trkpt>
      <trkpt lat="47.30064" lon="-1.38454">
        <ele>116</ele>
        <time>2021-02-28T08:00:51.288000+00:00</time>
      </trkpt>
      <trkpt lat="0" lon="0">
        <time>2021-02-28T08:00:51.295000+00:00</time>
      </trkpt>
      <trkpt lat="0" lon="0">
        <time>2021-02-28T08:00:51.302000+00:00</time>
      </trkpt>
      <trkpt lat="0" lon="0">
        <time>2021-02-28T08:00:51.305000+00:00</time>
      </trkpt>
      <trkpt lat="47.30062" lon="-1.38456">
        <ele>117</ele>
        <time>2021-02-28T08:00:52.256000+00:00</time>
      </trkpt>
      <trkpt lat="0" lon="0">
        <time>2021-02-28T08:00:52.276000+00:00</time>
      </trkpt>
      <trkpt lat="0" lon="0">
        <time>2021-02-28T08:00:52.287000+00:00</time>
      </trkpt>
      <trkpt lat="0" lon="0">
        <time>2021-02-28T08:00:52.290000+00:00</time>
      </trkpt>
      <trkpt lat="47.30059" lon="-1.38457">
        <ele>117</ele>
        <time>2021-02-28T08:00:53.289000+00:00</time>
      </trkpt>
      <trkpt lat="0" lon="0">
        <time>2021-02-28T08:00:53.303000+00:00</time>
      </trkpt>
      <trkpt lat="0" lon="0">
        <time>2021-02-28T08:00:53.310000+00:00</time>
      </trkpt>
      <trkpt lat="0" lon="0">
        <time>2021-02-28T08:00:53.312000+00:00</time>
      </trkpt>
      <trkpt lat="47.30056" lon="-1.38459">
        <ele>117</ele>
        <time>2021-02-28T08:00:54.222000+00:00</time>
      </trkpt>
      <trkpt lat="0" lon="0">
        <time>2021-02-28T08:00:54.227000+00:00</time>
      </trkpt>
      <trkpt lat="0" lon="0">
        <time>2021-02-28T08:00:54.230000+00:00</time>
      </trkpt>
      <trkpt lat="0" lon="0">
        <time>2021-02-28T08:00:54.231000+00:00</time>
      </trkpt>
      <trkpt lat="47.30053" lon="-1.3846">
        <ele>117</ele>
        <time>2021-02-28T08:00:55.299000+00:00</time>
      </trkpt>
      <trkpt lat="0" lon="0">
        <time>2021-02-28T08:00:55.312000+00:00</time>
      </trkpt>
      <trkpt lat="0" lon="0">
        <time>2021-02-28T08:00:55.323000+00:00</time>
      </trkpt>
      <trkpt lat="0" lon="0">
        <time>2021-02-28T08:00:55.326000+00:00</time>
      </trkpt>
      <trkpt lat="47.30048" lon="-1.38461">
        <ele>117</ele>
        <time>2021-02-28T08:00:56.295000+00:00</time>
      </trkpt>
      <trkpt lat="0" lon="0">
        <time>2021-02-28T08:00:56.307000+00:00</time>
      </trkpt>
      <trkpt lat="0" lon="0">
        <time>2021-02-28T08:00:56.313000+00:00</time>
      </trkpt>
      <trkpt lat="0" lon="0">
        <time>2021-02-28T08:00:56.316000+00:00</time>
      </trkpt>
      <trkpt lat="47.30041" lon="-1.38461">
        <ele>117</ele>
        <time>2021-02-28T08:00:57.271000+00:00</time>
      </trkpt>
      <trkpt lat="0" lon="0">
        <time>2021-02-28T08:00:57.277000+00:00</time>
      </trkpt>
      <trkpt lat="0" lon="0">
        <time>2021-02-28T08:00:57.282000+00:00</time>
      </trkpt>
      <trkpt lat="0" lon="0">
        <time>2021-02-28T08:00:57.284000+00:00</time>
      </trkpt>
      <trkpt lat="47.30034" lon="-1.3846">
        <ele>116</ele>
        <time>2021-02-28T08:00:58.198000+00:00</time>
      </trkpt>
      <trkpt lat="0" lon="0">
        <time>2021-02-28T08:00:58.204000+00:00</time>
      </trkpt>
      <trkpt lat="0" lon="0">
        <time>2021-02-28T08:00:58.206000+00:00</time>
      </trkpt>
      <trkpt lat="0" lon="0">
        <time>2021-02-28T08:00:58.208000+00:00</time>
      </trkpt>
      <trkpt lat="47.30026" lon="-1.3846">
        <ele>116</ele>
        <time>2021-02-28T08:00:59.211000+00:00</time>
      </trkpt>
      <trkpt lat="0" lon="0">
        <time>2021-02-28T08:00:59.215000+00:00</time>
      </trkpt>
      <trkpt lat="0" lon="0">
        <time>2021-02-28T08:00:59.221000+00:00</time>
      </trkpt>
      <trkpt lat="0" lon="0">
        <time>2021-02-28T08:00:59.224000+00:00</time>
      </trkpt>
      <trkpt lat="47.30018" lon="-1.38459">
        <ele>115</ele>
        <time>2021-02-28T08:01:00.255000+00:00</time>
      </trkpt>
      <trkpt lat="0" lon="0">
        <time>2021-02-28T08:01:00.283000+00:00</time>
      </trkpt>
      <trkpt lat="0" lon="0">
        <time>2021-02-28T08:01:00.288000+00:00</time>
      </trkpt>
      <trkpt lat="0" lon="0">
        <time>2021-02-28T08:01:00.295000+00:00</time>
      </trkpt>
      <trkpt lat="47.3001" lon="-1.38459">
        <ele>114</ele>
        <time>2021-02-28T08:01:01.196000+00:00</time>
      </trkpt>
      <trkpt lat="0" lon="0">
        <time>2021-02-28T08:01:01.208000+00:00</time>
      </trkpt>
      <trkpt lat="0" lon="0">
        <time>2021-02-28T08:01:01.215000+00:00</time>
      </trkpt>
      <trkpt lat="0" lon="0">
        <time>2021-02-28T08:01:01.218000+00:00</time>
      </trkpt>
      <trkpt lat="47.30001" lon="-1.38458">
        <ele>114</ele>
        <time>2021-02-28T08:01:02.229000+00:00</time>
      </trkpt>
      <trkpt lat="0" lon="0">
        <time>2021-02-28T08:01:02.243000+00:00</time>
      </trkpt>
      <trkpt lat="0" lon="0">
        <time>2021-02-28T08:01:02.247000+00:00</time>
      </trkpt>
      <trkpt lat="0" lon="0">
        <time>2021-02-28T08:01:02.249000+00:00</time>
      </trkpt>
      <trkpt lat="47.29993" lon="-1.38457">
        <ele>113</ele>
        <time>2021-02-28T08:01:03.235000+00:00</time>
      </trkpt>
      <trkpt lat="0" lon="0">
        <time>2021-02-28T08:01:03.259000+00:00</time>
      </trkpt>
      <trkpt lat="0" lon="0">
        <time>2021-02-28T08:01:03.265000+00:00</time>
      </trkpt>
      <trkpt lat="0" lon="0">
        <time>2021-02-28T08:01:03.268000+00:00</time>
      </trkpt>
      <trkpt lat="47.29984" lon="-1.38457">
        <ele>113</ele>
        <time>2021-02-28T08:01:04.235000+00:00</time>
      </trkpt>
      <trkpt lat="0" lon="0">
        <time>2021-02-28T08:01:04.248000+00:00</time>
      </trkpt>
      <trkpt lat="0" lon="0">
        <time>2021-02-28T08:01:04.254000+00:00</time>
      </trkpt>
      <trkpt lat="0" lon="0">
        <time>2021-02-28T08:01:04.257000+00:00</time>
      </trkpt>
      <trkpt lat="47.29976" lon="-1.38456">
        <ele>113</ele>
        <time>2021-02-28T08:01:05.225000+00:00</time>
      </trkpt>
      <trkpt lat="0" lon="0">
        <time>2021-02-28T08:01:05.231000+00:00</time>
      </trkpt>
      <trkpt lat="0" lon="0">
        <time>2021-02-28T08:01:05.237000+00:00</time>
      </trkpt>
      <trkpt lat="0" lon="0">
        <time>2021-02-28T08:01:05.240000+00:00</time>
      </trkpt>
      <trkpt lat="47.29969" lon="-1.38456">
        <ele>112</ele>
        <time>2021-02-28T08:01:06.226000+00:00</time>
      </trkpt>
      <trkpt lat="0" lon="0">
        <time>2021-02-28T08:01:06.237000+00:00</time>
      </trkpt>
      <trkpt lat="0" lon="0">
        <time>2021-02-28T08:01:06.244000+00:00</time>
      </trkpt>
      <trkpt lat="0" lon="0">
        <time>2021-02-28T08:01:06.247000+00:00</time>
      </trkpt>
      <trkpt lat="47.29962" lon="-1.38456">
        <ele>112</ele>
        <time>2021-02-28T08:01:07.199000+00:00</time>
      </trkpt>
      <trkpt lat="0" lon="0">
        <time>2021-02-28T08:01:07.209000+00:00</time>
      </trkpt>
      <trkpt lat="0" lon="0">
        <time>2021-02-28T08:01:07.215000+00:00</time>
      </trkpt>
      <trkpt lat="0" lon="0">
        <time>2021-02-28T08:01:07.217000+00:00</time>
      </trkpt>
      <trkpt lat="47.29956" lon="-1.38456">
        <ele>111</ele>
        <time>2021-02-28T08:01:08.254000+00:00</time>
      </trkpt>
      <trkpt lat="0" lon="0">
        <time>2021-02-28T08:01:08.266000+00:00</time>
      </trkpt>
      <trkpt lat="0" lon="0">
        <time>2021-02-28T08:01:08.270000+00:00</time>
      </trkpt>
      <trkpt lat="0" lon="0">
        <time>2021-02-28T08:01:08.272000+00:00</time>
      </trkpt>
      <trkpt lat="47.2995" lon="-1.38457">
        <ele>111</ele>
        <time>2021-02-28T08:01:09.244000+00:00</time>
      </trkpt>
      <trkpt lat="0" lon="0">
        <time>2021-02-28T08:01:09.249000+00:00</time>
      </trkpt>
      <trkpt lat="0" lon="0">
        <time>2021-02-28T08:01:09.256000+00:00</time>
      </trkpt>
      <trkpt lat="0" lon="0">
        <time>2021-02-28T08:01:09.258000+00:00</time>
      </trkpt>
      <trkpt lat="47.29945" lon="-1.38457">
        <ele>111</ele>
        <time>2021-02-28T08:01:10.215000+00:00</time>
      </trkpt>
      <trkpt lat="0" lon="0">
        <time>2021-02-28T08:01:10.225000+00:00</time>
      </trkpt>
      <trkpt lat="0" lon="0">
        <time>2021-02-28T08:01:10.230000+00:00</time>
      </trkpt>
      <trkpt lat="0" lon="0">
        <time>2021-02-28T08:01:10.232000+00:00</time>
      </trkpt>
      <trkpt lat="47.29941" lon="-1.38458">
        <ele>111</ele>
        <time>2021-02-28T08:01:11.255000+00:00</time>
      </trkpt>
      <trkpt lat="0" lon="0">
        <time>2021-02-28T08:01:11.266000+00:00</time>
      </trkpt>
      <trkpt lat="0" lon="0">
        <time>2021-02-28T08:01:11.271000+00:00</time>
      </trkpt>
      <trkpt lat="0" lon="0">
        <time>2021-02-28T08:01:11.274000+00:00</time>
      </trkpt>
      <trkpt lat="47.29937" lon="-1.38459">
        <ele>111</ele>
        <time>2021-02-28T08:01:12.230000+00:00</time>
      </trkpt>
      <trkpt lat="0" lon="0">
        <time>2021-02-28T08:01:12.241000+00:00</time>
      </trkpt>
      <trkpt lat="0" lon="0">
        <time>2021-02-28T08:01:12.249000+00:00</time>
      </trkpt>
      <trkpt lat="0" lon="0">
        <time>2021-02-28T08:01:12.251000+00:00</time>
      </trkpt>
      <trkpt lat="47.29934" lon="-1.38459">
        <ele>111</ele>
        <time>2021-02-28T08:01:13.219000+00:00</time>
      </trkpt>
      <trkpt lat="0" lon="0">
        <time>2021-02-28T08:01:13.228000+00:00</time>
      </trkpt>
      <trkpt lat="0" lon="0">
        <time>2021-02-28T08:01:13.233000+00:00</time>
      </trkpt>
      <trkpt lat="0" lon="0">
        <time>2021-02-28T08:01:13.235000+00:00</time>
      </trkpt>
      <trkpt lat="47.2993" lon="-1.3846">
        <ele>111</ele>
        <time>2021-02-28T08:01:14.223000+00:00</time>
      </trkpt>
      <trkpt lat="0" lon="0">
        <time>2021-02-28T08:01:14.232000+00:00</time>
      </trkpt>
      <trkpt lat="0" lon="0">
        <time>2021-02-28T08:01:14.241000+00:00</time>
      </trkpt>
      <trkpt lat="0" lon="0">
        <time>2021-02-28T08:01:14.243000+00:00</time>
      </trkpt>
      <trkpt lat="47.29928" lon="-1.38462">
        <ele>111</ele>
        <time>2021-02-28T08:01:15.257000+00:00</time>
      </trkpt>
      <trkpt lat="0" lon="0">
        <time>2021-02-28T08:01:15.265000+00:00</time>
      </trkpt>
      <trkpt lat="0" lon="0">
        <time>2021-02-28T08:01:15.270000+00:00</time>
      </trkpt>
      <trkpt lat="0" lon="0">
        <time>2021-02-28T08:01:15.273000+00:00</time>
      </trkpt>
      <trkpt lat="47.29924" lon="-1.38464">
        <ele>111</ele>
        <time>2021-02-28T08:01:16.266000+00:00</time>
      </trkpt>
      <trkpt lat="0" lon="0">
        <time>2021-02-28T08:01:16.276000+00:00</time>
      </trkpt>
      <trkpt lat="0" lon="0">
        <time>2021-02-28T08:01:16.280000+00:00</time>
      </trkpt>
      <trkpt lat="0" lon="0">
        <time>2021-02-28T08:01:16.283000+00:00</time>
      </trkpt>
      <trkpt lat="47.29921" lon="-1.38467">
        <ele>110</ele>
        <time>2021-02-28T08:01:17.191000+00:00</time>
      </trkpt>
      <trkpt lat="0" lon="0">
        <time>2021-02-28T08:01:17.202000+00:00</time>
      </trkpt>
      <trkpt lat="0" lon="0">
        <time>2021-02-28T08:01:17.206000+00:00</time>
      </trkpt>
      <trkpt lat="0" lon="0">
        <time>2021-02-28T08:01:17.208000+00:00</time>
      </trkpt>
      <trkpt lat="47.29917" lon="-1.38471">
        <ele>110</ele>
        <time>2021-02-28T08:01:18.278000+00:00</time>
      </trkpt>
      <trkpt lat="0" lon="0">
        <time>2021-02-28T08:01:18.284000+00:00</time>
      </trkpt>
      <trkpt lat="0" lon="0">
        <time>2021-02-28T08:01:18.291000+00:00</time>
      </trkpt>
      <trkpt lat="0" lon="0">
        <time>2021-02-28T08:01:18.294000+00:00</time>
      </trkpt>
      <trkpt lat="47.29912" lon="-1.38474">
        <ele>110</ele>
        <time>2021-02-28T08:01:19.179000+00:00</time>
      </trkpt>
      <trkpt lat="0" lon="0">
        <time>2021-02-28T08:01:19.187000+00:00</time>
      </trkpt>
      <trkpt lat="0" lon="0">
        <time>2021-02-28T08:01:19.191000+00:00</time>
      </trkpt>
      <trkpt lat="0" lon="0">
        <time>2021-02-28T08:01:19.193000+00:00</time>
      </trkpt>
      <trkpt lat="47.29906" lon="-1.38477">
        <ele>110</ele>
        <time>2021-02-28T08:01:20.205000+00:00</time>
      </trkpt>
      <trkpt lat="0" lon="0">
        <time>2021-02-28T08:01:20.211000+00:00</time>
      </trkpt>
      <trkpt lat="0" lon="0">
        <time>2021-02-28T08:01:20.215000+00:00</time>
      </trkpt>
      <trkpt lat="0" lon="0">
        <time>2021-02-28T08:01:20.217000+00:00</time>
      </trkpt>
      <trkpt lat="47.29901" lon="-1.3848">
        <ele>110</ele>
        <time>2021-02-28T08:01:21.233000+00:00</time>
      </trkpt>
      <trkpt lat="0" lon="0">
        <time>2021-02-28T08:01:21.238000+00:00</time>
      </trkpt>
      <trkpt lat="0" lon="0">
        <time>2021-02-28T08:01:21.244000+00:00</time>
      </trkpt>
      <trkpt lat="0" lon="0">
        <time>2021-02-28T08:01:21.247000+00:00</time>
      </trkpt>
      <trkpt lat="47.29896" lon="-1.38483">
        <ele>110</ele>
        <time>2021-02-28T08:01:22.250000+00:00</time>
      </trkpt>
      <trkpt lat="0" lon="0">
        <time>2021-02-28T08:01:22.258000+00:00</time>
      </trkpt>
      <trkpt lat="0" lon="0">
        <time>2021-02-28T08:01:22.265000+00:00</time>
      </trkpt>
      <trkpt lat="0" lon="0">
        <time>2021-02-28T08:01:22.267000+00:00</time>
      </trkpt>
      <trkpt lat="47.29891" lon="-1.38486">
        <ele>111</ele>
        <time>2021-02-28T08:01:23.244000+00:00</time>
      </trkpt>
      <trkpt lat="0" lon="0">
        <time>2021-02-28T08:01:23.253000+00:00</time>
      </trkpt>
      <trkpt lat="0" lon="0">
        <time>2021-02-28T08:01:23.257000+00:00</time>
      </trkpt>
      <trkpt lat="0" lon="0">
        <time>2021-02-28T08:01:23.261000+00:00</time>
      </trkpt>
      <trkpt lat="47.29887" lon="-1.3849">
        <ele>111</ele>
        <time>2021-02-28T08:01:24.233000+00:00</time>
      </trkpt>
      <trkpt lat="0" lon="0">
        <time>2021-02-28T08:01:24.241000+00:00</time>
      </trkpt>
      <trkpt lat="0" lon="0">
        <time>2021-02-28T08:01:24.246000+00:00</time>
      </trkpt>
      <trkpt lat="0" lon="0">
        <time>2021-02-28T08:01:24.249000+00:00</time>
      </trkpt>
      <trkpt lat="47.29883" lon="-1.38495">
        <ele>111</ele>
        <time>2021-02-28T08:01:25.210000+00:00</time>
      </trkpt>
      <trkpt lat="0" lon="0">
        <time>2021-02-28T08:01:25.217000+00:00</time>
      </trkpt>
      <trkpt lat="0" lon="0">
        <time>2021-02-28T08:01:25.220000+00:00</time>
      </trkpt>
      <trkpt lat="0" lon="0">
        <time>2021-02-28T08:01:25.222000+00:00</time>
      </trkpt>
      <trkpt lat="47.29879" lon="-1.38498">
        <ele>111</ele>
        <time>2021-02-28T08:01:26.243000+00:00</time>
      </trkpt>
      <trkpt lat="0" lon="0">
        <time>2021-02-28T08:01:26.248000+00:00</time>
      </trkpt>
      <trkpt lat="0" lon="0">
        <time>2021-02-28T08:01:26.251000+00:00</time>
      </trkpt>
      <trkpt lat="0" lon="0">
        <time>2021-02-28T08:01:26.252000+00:00</time>
      </trkpt>
      <trkpt lat="47.29876" lon="-1.38502">
        <ele>111</ele>
        <time>2021-02-28T08:01:27.235000+00:00</time>
      </trkpt>
      <trkpt lat="0" lon="0">
        <time>2021-02-28T08:01:27.247000+00:00</time>
      </trkpt>
      <trkpt lat="0" lon="0">
        <time>2021-02-28T08:01:27.252000+00:00</time>
      </trkpt>
      <trkpt lat="0" lon="0">
        <time>2021-02-28T08:01:27.255000+00:00</time>
      </trkpt>
      <trkpt lat="47.29872" lon="-1.38505">
        <ele>111</ele>
        <time>2021-02-28T08:01:28.215000+00:00</time>
      </trkpt>
      <trkpt lat="0" lon="0">
        <time>2021-02-28T08:01:28.220000+00:00</time>
      </trkpt>
      <trkpt lat="0" lon="0">
        <time>2021-02-28T08:01:28.226000+00:00</time>
      </trkpt>
      <trkpt lat="0" lon="0">
        <time>2021-02-28T08:01:28.229000+00:00</time>
      </trkpt>
      <trkpt lat="47.29869" lon="-1.38507">
        <ele>111</ele>
        <time>2021-02-28T08:01:29.198000+00:00</time>
      </trkpt>
      <trkpt lat="0" lon="0">
        <time>2021-02-28T08:01:29.207000+00:00</time>
      </trkpt>
      <trkpt lat="0" lon="0">
        <time>2021-02-28T08:01:29.212000+00:00</time>
      </trkpt>
      <trkpt lat="0" lon="0">
        <time>2021-02-28T08:01:29.215000+00:00</time>
      </trkpt>
      <trkpt lat="47.29865" lon="-1.38509">
        <ele>111</ele>
        <time>2021-02-28T08:01:30.198000+00:00</time>
      </trkpt>
      <trkpt lat="0" lon="0">
        <time>2021-02-28T08:01:30.214000+00:00</time>
      </trkpt>
      <trkpt lat="0" lon="0">
        <time>2021-02-28T08:01:30.219000+00:00</time>
      </trkpt>
      <trkpt lat="0" lon="0">
        <time>2021-02-28T08:01:30.221000+00:00</time>
      </trkpt>
      <trkpt lat="47.29861" lon="-1.3851">
        <ele>110</ele>
        <time>2021-02-28T08:01:31.218000+00:00</time>
      </trkpt>
      <trkpt lat="0" lon="0">
        <time>2021-02-28T08:01:31.225000+00:00</time>
      </trkpt>
      <trkpt lat="0" lon="0">
        <time>2021-02-28T08:01:31.229000+00:00</time>
      </trkpt>
      <trkpt lat="0" lon="0">
        <time>2021-02-28T08:01:31.232000+00:00</time>
      </trkpt>
      <trkpt lat="47.29858" lon="-1.3851">
        <ele>110</ele>
        <time>2021-02-28T08:01:32.221000+00:00</time>
      </trkpt>
      <trkpt lat="0" lon="0">
        <time>2021-02-28T08:01:32.226000+00:00</time>
      </trkpt>
      <trkpt lat="0" lon="0">
        <time>2021-02-28T08:01:32.231000+00:00</time>
      </trkpt>
      <trkpt lat="0" lon="0">
        <time>2021-02-28T08:01:32.233000+00:00</time>
      </trkpt>
      <trkpt lat="47.29854" lon="-1.38511">
        <ele>110</ele>
        <time>2021-02-28T08:01:33.186000+00:00</time>
      </trkpt>
      <trkpt lat="0" lon="0">
        <time>2021-02-28T08:01:33.191000+00:00</time>
      </trkpt>
      <trkpt lat="0" lon="0">
        <time>2021-02-28T08:01:33.195000+00:00</time>
      </trkpt>
      <trkpt lat="0" lon="0">
        <time>2021-02-28T08:01:33.200000+00:00</time>
      </trkpt>
      <trkpt lat="47.29851" lon="-1.38512">
        <ele>110</ele>
        <time>2021-02-28T08:01:34.210000+00:00</time>
      </trkpt>
      <trkpt lat="0" lon="0">
        <time>2021-02-28T08:01:34.221000+00:00</time>
      </trkpt>
      <trkpt lat="0" lon="0">
        <time>2021-02-28T08:01:34.231000+00:00</time>
      </trkpt>
      <trkpt lat="0" lon="0">
        <time>2021-02-28T08:01:34.234000+00:00</time>
      </trkpt>
      <trkpt lat="47.29847" lon="-1.38514">
        <ele>110</ele>
        <time>2021-02-28T08:01:35.212000+00:00</time>
      </trkpt>
      <trkpt lat="0" lon="0">
        <time>2021-02-28T08:01:35.227000+00:00</time>
      </trkpt>
      <trkpt lat="0" lon="0">
        <time>2021-02-28T08:01:35.234000+00:00</time>
      </trkpt>
      <trkpt lat="0" lon="0">
        <time>2021-02-28T08:01:35.237000+00:00</time>
      </trkpt>
      <trkpt lat="47.29844" lon="-1.38515">
        <ele>110</ele>
        <time>2021-02-28T08:01:36.215000+00:00</time>
      </trkpt>
      <trkpt lat="0" lon="0">
        <time>2021-02-28T08:01:36.230000+00:00</time>
      </trkpt>
      <trkpt lat="0" lon="0">
        <time>2021-02-28T08:01:36.233000+00:00</time>
      </trkpt>
      <trkpt lat="0" lon="0">
        <time>2021-02-28T08:01:36.237000+00:00</time>
      </trkpt>
      <trkpt lat="47.2984" lon="-1.38516">
        <ele>110</ele>
        <time>2021-02-28T08:01:37.250000+00:00</time>
      </trkpt>
      <trkpt lat="0" lon="0">
        <time>2021-02-28T08:01:37.256000+00:00</time>
      </trkpt>
      <trkpt lat="0" lon="0">
        <time>2021-02-28T08:01:37.260000+00:00</time>
      </trkpt>
      <trkpt lat="0" lon="0">
        <time>2021-02-28T08:01:37.263000+00:00</time>
      </trkpt>
      <trkpt lat="47.29837" lon="-1.38517">
        <ele>109</ele>
        <time>2021-02-28T08:01:38.220000+00:00</time>
      </trkpt>
      <trkpt lat="0" lon="0">
        <time>2021-02-28T08:01:38.229000+00:00</time>
      </trkpt>
      <trkpt lat="0" lon="0">
        <time>2021-02-28T08:01:38.235000+00:00</time>
      </trkpt>
      <trkpt lat="0" lon="0">
        <time>2021-02-28T08:01:38.238000+00:00</time>
      </trkpt>
      <trkpt lat="47.29834" lon="-1.38518">
        <ele>110</ele>
        <time>2021-02-28T08:01:39.216000+00:00</time>
      </trkpt>
      <trkpt lat="0" lon="0">
        <time>2021-02-28T08:01:39.221000+00:00</time>
      </trkpt>
      <trkpt lat="0" lon="0">
        <time>2021-02-28T08:01:39.227000+00:00</time>
      </trkpt>
      <trkpt lat="0" lon="0">
        <time>2021-02-28T08:01:39.230000+00:00</time>
      </trkpt>
      <trkpt lat="47.2983" lon="-1.38518">
        <ele>110</ele>
        <time>2021-02-28T08:01:40.210000+00:00</time>
      </trkpt>
      <trkpt lat="0" lon="0">
        <time>2021-02-28T08:01:40.217000+00:00</time>
      </trkpt>
      <trkpt lat="0" lon="0">
        <time>2021-02-28T08:01:40.221000+00:00</time>
      </trkpt>
      <trkpt lat="0" lon="0">
        <time>2021-02-28T08:01:40.223000+00:00</time>
      </trkpt>
      <trkpt lat="47.29826" lon="-1.38519">
        <ele>109</ele>
        <time>2021-02-28T08:01:41.209000+00:00</time>
      </trkpt>
      <trkpt lat="0" lon="0">
        <time>2021-02-28T08:01:41.225000+00:00</time>
      </trkpt>
      <trkpt lat="0" lon="0">
        <time>2021-02-28T08:01:41.232000+00:00</time>
      </trkpt>
      <trkpt lat="0" lon="0">
        <time>2021-02-28T08:01:41.235000+00:00</time>
      </trkpt>
      <trkpt lat="47.29822" lon="-1.38519">
        <ele>109</ele>
        <time>2021-02-28T08:01:42.210000+00:00</time>
      </trkpt>
      <trkpt lat="0" lon="0">
        <time>2021-02-28T08:01:42.215000+00:00</time>
      </trkpt>
      <trkpt lat="0" lon="0">
        <time>2021-02-28T08:01:42.220000+00:00</time>
      </trkpt>
      <trkpt lat="0" lon="0">
        <time>2021-02-28T08:01:42.224000+00:00</time>
      </trkpt>
      <trkpt lat="47.29818" lon="-1.3852">
        <ele>109</ele>
        <time>2021-02-28T08:01:43.222000+00:00</time>
      </trkpt>
      <trkpt lat="0" lon="0">
        <time>2021-02-28T08:01:43.227000+00:00</time>
      </trkpt>
      <trkpt lat="0" lon="0">
        <time>2021-02-28T08:01:43.230000+00:00</time>
      </trkpt>
      <trkpt lat="0" lon="0">
        <time>2021-02-28T08:01:43.233000+00:00</time>
      </trkpt>
      <trkpt lat="47.29813" lon="-1.3852">
        <ele>109</ele>
        <time>2021-02-28T08:01:44.226000+00:00</time>
      </trkpt>
      <trkpt lat="0" lon="0">
        <time>2021-02-28T08:01:44.237000+00:00</time>
      </trkpt>
      <trkpt lat="0" lon="0">
        <time>2021-02-28T08:01:44.242000+00:00</time>
      </trkpt>
      <trkpt lat="0" lon="0">
        <time>2021-02-28T08:01:44.244000+00:00</time>
      </trkpt>
      <trkpt lat="47.29807" lon="-1.3852">
        <ele>109</ele>
        <time>2021-02-28T08:01:45.201000+00:00</time>
      </trkpt>
      <trkpt lat="0" lon="0">
        <time>2021-02-28T08:01:45.206000+00:00</time>
      </trkpt>
      <trkpt lat="0" lon="0">
        <time>2021-02-28T08:01:45.212000+00:00</time>
      </trkpt>
      <trkpt lat="0" lon="0">
        <time>2021-02-28T08:01:45.214000+00:00</time>
      </trkpt>
      <trkpt lat="47.29801" lon="-1.3852">
        <ele>109</ele>
        <time>2021-02-28T08:01:46.220000+00:00</time>
      </trkpt>
      <trkpt lat="0" lon="0">
        <time>2021-02-28T08:01:46.225000+00:00</time>
      </trkpt>
      <trkpt lat="0" lon="0">
        <time>2021-02-28T08:01:46.233000+00:00</time>
      </trkpt>
      <trkpt lat="0" lon="0">
        <time>2021-02-28T08:01:46.240000+00:00</time>
      </trkpt>
      <trkpt lat="47.29795" lon="-1.38519">
        <ele>109</ele>
        <time>2021-02-28T08:01:47.199000+00:00</time>
      </trkpt>
      <trkpt lat="0" lon="0">
        <time>2021-02-28T08:01:47.211000+00:00</time>
      </trkpt>
      <trkpt lat="0" lon="0">
        <time>2021-02-28T08:01:47.216000+00:00</time>
      </trkpt>
      <trkpt lat="0" lon="0">
        <time>2021-02-28T08:01:47.219000+00:00</time>
      </trkpt>
      <trkpt lat="47.29788" lon="-1.38517">
        <ele>109</ele>
        <time>2021-02-28T08:01:48.233000+00:00</time>
      </trkpt>
      <trkpt lat="0" lon="0">
        <time>2021-02-28T08:01:48.246000+00:00</time>
      </trkpt>
      <trkpt lat="0" lon="0">
        <time>2021-02-28T08:01:48.251000+00:00</time>
      </trkpt>
      <trkpt lat="0" lon="0">
        <time>2021-02-28T08:01:48.253000+00:00</time>
      </trkpt>
      <trkpt lat="47.29781" lon="-1.38516">
        <ele>110</ele>
        <time>2021-02-28T08:01:49.201000+00:00</time>
      </trkpt>
      <trkpt lat="0" lon="0">
        <time>2021-02-28T08:01:49.204000+00:00</time>
      </trkpt>
      <trkpt lat="0" lon="0">
        <time>2021-02-28T08:01:49.206000+00:00</time>
      </trkpt>
      <trkpt lat="0" lon="0">
        <time>2021-02-28T08:01:49.208000+00:00</time>
      </trkpt>
      <trkpt lat="47.29774" lon="-1.38514">
        <ele>110</ele>
        <time>2021-02-28T08:01:50.208000+00:00</time>
      </trkpt>
      <trkpt lat="0" lon="0">
        <time>2021-02-28T08:01:50.219000+00:00</time>
      </trkpt>
      <trkpt lat="0" lon="0">
        <time>2021-02-28T08:01:50.225000+00:00</time>
      </trkpt>
      <trkpt lat="0" lon="0">
        <time>2021-02-28T08:01:50.228000+00:00</time>
      </trkpt>
      <trkpt lat="47.29766" lon="-1.38513">
        <ele>110</ele>
        <time>2021-02-28T08:01:51.216000+00:00</time>
      </trkpt>
      <trkpt lat="0" lon="0">
        <time>2021-02-28T08:01:51.220000+00:00</time>
      </trkpt>
      <trkpt lat="0" lon="0">
        <time>2021-02-28T08:01:51.229000+00:00</time>
      </trkpt>
      <trkpt lat="0" lon="0">
        <time>2021-02-28T08:01:51.231000+00:00</time>
      </trkpt>
      <trkpt lat="47.29758" lon="-1.38512">
        <ele>109</ele>
        <time>2021-02-28T08:01:52.226000+00:00</time>
      </trkpt>
      <trkpt lat="0" lon="0">
        <time>2021-02-28T08:01:52.231000+00:00</time>
      </trkpt>
      <trkpt lat="0" lon="0">
        <time>2021-02-28T08:01:52.236000+00:00</time>
      </trkpt>
      <trkpt lat="0" lon="0">
        <time>2021-02-28T08:01:52.241000+00:00</time>
      </trkpt>
      <trkpt lat="47.2975" lon="-1.3851">
        <ele>109</ele>
        <time>2021-02-28T08:01:53.200000+00:00</time>
      </trkpt>
      <trkpt lat="0" lon="0">
        <time>2021-02-28T08:01:53.203000+00:00</time>
      </trkpt>
      <trkpt lat="0" lon="0">
        <time>2021-02-28T08:01:53.209000+00:00</time>
      </trkpt>
      <trkpt lat="0" lon="0">
        <time>2021-02-28T08:01:53.211000+00:00</time>
      </trkpt>
      <trkpt lat="47.29741" lon="-1.38509">
        <ele>109</ele>
        <time>2021-02-28T08:01:54.204000+00:00</time>
      </trkpt>
      <trkpt lat="0" lon="0">
        <time>2021-02-28T08:01:54.218000+00:00</time>
      </trkpt>
      <trkpt lat="0" lon="0">
        <time>2021-02-28T08:01:54.234000+00:00</time>
      </trkpt>
      <trkpt lat="0" lon="0">
        <time>2021-02-28T08:01:54.236000+00:00</time>
      </trkpt>
      <trkpt lat="47.29732" lon="-1.38508">
        <ele>108</ele>
        <time>2021-02-28T08:01:55.168000+00:00</time>
      </trkpt>
      <trkpt lat="0" lon="0">
        <time>2021-02-28T08:01:55.176000+00:00</time>
      </trkpt>
      <trkpt lat="0" lon="0">
        <time>2021-02-28T08:01:55.180000+00:00</time>
      </trkpt>
      <trkpt lat="0" lon="0">
        <time>2021-02-28T08:01:55.182000+00:00</time>
      </trkpt>
      <trkpt lat="47.29722" lon="-1.38506">
        <ele>108</ele>
        <time>2021-02-28T08:01:56.227000+00:00</time>
      </trkpt>
      <trkpt lat="0" lon="0">
        <time>2021-02-28T08:01:56.237000+00:00</time>
      </trkpt>
      <trkpt lat="0" lon="0">
        <time>2021-02-28T08:01:56.241000+00:00</time>
      </trkpt>
      <trkpt lat="0" lon="0">
        <time>2021-02-28T08:01:56.244000+00:00</time>
      </trkpt>
      <trkpt lat="47.29712" lon="-1.38505">
        <ele>108</ele>
        <time>2021-02-28T08:01:57.221000+00:00</time>
      </trkpt>
      <trkpt lat="0" lon="0">
        <time>2021-02-28T08:01:57.227000+00:00</time>
      </trkpt>
      <trkpt lat="0" lon="0">
        <time>2021-02-28T08:01:57.233000+00:00</time>
      </trkpt>
      <trkpt lat="0" lon="0">
        <time>2021-02-28T08:01:57.235000+00:00</time>
      </trkpt>
      <trkpt lat="47.29702" lon="-1.38503">
        <ele>108</ele>
        <time>2021-02-28T08:01:58.231000+00:00</time>
      </trkpt>
      <trkpt lat="0" lon="0">
        <time>2021-02-28T08:01:58.244000+00:00</time>
      </trkpt>
      <trkpt lat="0" lon="0">
        <time>2021-02-28T08:01:58.249000+00:00</time>
      </trkpt>
      <trkpt lat="0" lon="0">
        <time>2021-02-28T08:01:58.253000+00:00</time>
      </trkpt>
      <trkpt lat="47.29691" lon="-1.38502">
        <ele>109</ele>
        <time>2021-02-28T08:01:59.194000+00:00</time>
      </trkpt>
      <trkpt lat="0" lon="0">
        <time>2021-02-28T08:01:59.205000+00:00</time>
      </trkpt>
      <trkpt lat="0" lon="0">
        <time>2021-02-28T08:01:59.209000+00:00</time>
      </trkpt>
      <trkpt lat="0" lon="0">
        <time>2021-02-28T08:01:59.211000+00:00</time>
      </trkpt>
      <trkpt lat="47.2968" lon="-1.38501">
        <ele>109</ele>
        <time>2021-02-28T08:02:00.210000+00:00</time>
      </trkpt>
      <trkpt lat="0" lon="0">
        <time>2021-02-28T08:02:00.213000+00:00</time>
      </trkpt>
      <trkpt lat="0" lon="0">
        <time>2021-02-28T08:02:00.223000+00:00</time>
      </trkpt>
      <trkpt lat="0" lon="0">
        <time>2021-02-28T08:02:00.225000+00:00</time>
      </trkpt>
      <trkpt lat="47.29669" lon="-1.38501">
        <ele>110</ele>
        <time>2021-02-28T08:02:01.182000+00:00</time>
      </trkpt>
      <trkpt lat="0" lon="0">
        <time>2021-02-28T08:02:01.187000+00:00</time>
      </trkpt>
      <trkpt lat="0" lon="0">
        <time>2021-02-28T08:02:01.192000+00:00</time>
      </trkpt>
      <trkpt lat="0" lon="0">
        <time>2021-02-28T08:02:01.194000+00:00</time>
      </trkpt>
      <trkpt lat="47.29658" lon="-1.38502">
        <ele>111</ele>
        <time>2021-02-28T08:02:02.199000+00:00</time>
      </trkpt>
      <trkpt lat="0" lon="0">
        <time>2021-02-28T08:02:02.207000+00:00</time>
      </trkpt>
      <trkpt lat="0" lon="0">
        <time>2021-02-28T08:02:02.213000+00:00</time>
      </trkpt>
      <trkpt lat="0" lon="0">
        <time>2021-02-28T08:02:02.216000+00:00</time>
      </trkpt>
      <trkpt lat="47.29646" lon="-1.38503">
        <ele>111</ele>
        <time>2021-02-28T08:02:03.187000+00:00</time>
      </trkpt>
      <trkpt lat="0" lon="0">
        <time>2021-02-28T08:02:03.195000+00:00</time>
      </trkpt>
      <trkpt lat="0" lon="0">
        <time>2021-02-28T08:02:03.198000+00:00</time>
      </trkpt>
      <trkpt lat="0" lon="0">
        <time>2021-02-28T08:02:03.200000+00:00</time>
      </trkpt>
      <trkpt lat="47.29635" lon="-1.38504">
        <ele>112</ele>
        <time>2021-02-28T08:02:04.205000+00:00</time>
      </trkpt>
      <trkpt lat="0" lon="0">
        <time>2021-02-28T08:02:04.211000+00:00</time>
      </trkpt>
      <trkpt lat="0" lon="0">
        <time>2021-02-28T08:02:04.216000+00:00</time>
      </trkpt>
      <trkpt lat="0" lon="0">
        <time>2021-02-28T08:02:04.219000+00:00</time>
      </trkpt>
      <trkpt lat="47.29623" lon="-1.38504">
        <ele>112</ele>
        <time>2021-02-28T08:02:05.209000+00:00</time>
      </trkpt>
      <trkpt lat="0" lon="0">
        <time>2021-02-28T08:02:05.218000+00:00</time>
      </trkpt>
      <trkpt lat="0" lon="0">
        <time>2021-02-28T08:02:05.224000+00:00</time>
      </trkpt>
      <trkpt lat="0" lon="0">
        <time>2021-02-28T08:02:05.227000+00:00</time>
      </trkpt>
      <trkpt lat="47.29612" lon="-1.38505">
        <ele>112</ele>
        <time>2021-02-28T08:02:06.203000+00:00</time>
      </trkpt>
      <trkpt lat="0" lon="0">
        <time>2021-02-28T08:02:06.214000+00:00</time>
      </trkpt>
      <trkpt lat="0" lon="0">
        <time>2021-02-28T08:02:06.219000+00:00</time>
      </trkpt>
      <trkpt lat="0" lon="0">
        <time>2021-02-28T08:02:06.222000+00:00</time>
      </trkpt>
      <trkpt lat="47.29601" lon="-1.38506">
        <ele>112</ele>
        <time>2021-02-28T08:02:07.210000+00:00</time>
      </trkpt>
      <trkpt lat="0" lon="0">
        <time>2021-02-28T08:02:07.219000+00:00</time>
      </trkpt>
      <trkpt lat="0" lon="0">
        <time>2021-02-28T08:02:07.225000+00:00</time>
      </trkpt>
      <trkpt lat="0" lon="0">
        <time>2021-02-28T08:02:07.228000+00:00</time>
      </trkpt>
      <trkpt lat="47.29591" lon="-1.38506">
        <ele>111</ele>
        <time>2021-02-28T08:02:08.193000+00:00</time>
      </trkpt>
      <trkpt lat="0" lon="0">
        <time>2021-02-28T08:02:08.203000+00:00</time>
      </trkpt>
      <trkpt lat="0" lon="0">
        <time>2021-02-28T08:02:08.208000+00:00</time>
      </trkpt>
      <trkpt lat="0" lon="0">
        <time>2021-02-28T08:02:08.210000+00:00</time>
      </trkpt>
      <trkpt lat="47.29581" lon="-1.38508">
        <ele>111</ele>
        <time>2021-02-28T08:02:09.219000+00:00</time>
      </trkpt>
      <trkpt lat="0" lon="0">
        <time>2021-02-28T08:02:09.226000+00:00</time>
      </trkpt>
      <trkpt lat="0" lon="0">
        <time>2021-02-28T08:02:09.230000+00:00</time>
      </trkpt>
      <trkpt lat="0" lon="0">
        <time>2021-02-28T08:02:09.232000+00:00</time>
      </trkpt>
      <trkpt lat="47.29572" lon="-1.38509">
        <ele>110</ele>
        <time>2021-02-28T08:02:10.170000+00:00</time>
      </trkpt>
      <trkpt lat="0" lon="0">
        <time>2021-02-28T08:02:10.179000+00:00</time>
      </trkpt>
      <trkpt lat="0" lon="0">
        <time>2021-02-28T08:02:10.188000+00:00</time>
      </trkpt>
      <trkpt lat="0" lon="0">
        <time>2021-02-28T08:02:10.191000+00:00</time>
      </trkpt>
      <trkpt lat="47.29564" lon="-1.3851">
        <ele>109</ele>
        <time>2021-02-28T08:02:11.205000+00:00</time>
      </trkpt>
      <trkpt lat="0" lon="0">
        <time>2021-02-28T08:02:11.210000+00:00</time>
      </trkpt>
      <trkpt lat="0" lon="0">
        <time>2021-02-28T08:02:11.214000+00:00</time>
      </trkpt>
      <trkpt lat="0" lon="0">
        <time>2021-02-28T08:02:11.217000+00:00</time>
      </trkpt>
      <trkpt lat="47.29556" lon="-1.38512">
        <ele>109</ele>
        <time>2021-02-28T08:02:12.207000+00:00</time>
      </trkpt>
      <trkpt lat="0" lon="0">
        <time>2021-02-28T08:02:12.211000+00:00</time>
      </trkpt>
      <trkpt lat="0" lon="0">
        <time>2021-02-28T08:02:12.213000+00:00</time>
      </trkpt>
      <trkpt lat="0" lon="0">
        <time>2021-02-28T08:02:12.214000+00:00</time>
      </trkpt>
      <trkpt lat="47.29549" lon="-1.38513">
        <ele>108</ele>
        <time>2021-02-28T08:02:13.220000+00:00</time>
      </trkpt>
      <trkpt lat="0" lon="0">
        <time>2021-02-28T08:02:13.227000+00:00</time>
      </trkpt>
      <trkpt lat="0" lon="0">
        <time>2021-02-28T08:02:13.234000+00:00</time>
      </trkpt>
      <trkpt lat="0" lon="0">
        <time>2021-02-28T08:02:13.236000+00:00</time>
      </trkpt>
      <trkpt lat="47.29543" lon="-1.38515">
        <ele>108</ele>
        <time>2021-02-28T08:02:14.224000+00:00</time>
      </trkpt>
      <trkpt lat="0" lon="0">
        <time>2021-02-28T08:02:14.237000+00:00</time>
      </trkpt>
      <trkpt lat="0" lon="0">
        <time>2021-02-28T08:02:14.243000+00:00</time>
      </trkpt>
      <trkpt lat="0" lon="0">
        <time>2021-02-28T08:02:14.249000+00:00</time>
      </trkpt>
      <trkpt lat="47.29538" lon="-1.38516">
        <ele>108</ele>
        <time>2021-02-28T08:02:15.210000+00:00</time>
      </trkpt>
      <trkpt lat="0" lon="0">
        <time>2021-02-28T08:02:15.217000+00:00</time>
      </trkpt>
      <trkpt lat="0" lon="0">
        <time>2021-02-28T08:02:15.222000+00:00</time>
      </trkpt>
      <trkpt lat="0" lon="0">
        <time>2021-02-28T08:02:15.225000+00:00</time>
      </trkpt>
      <trkpt lat="47.29532" lon="-1.38517">
        <ele>106</ele>
        <time>2021-02-28T08:02:16.215000+00:00</time>
      </trkpt>
      <trkpt lat="0" lon="0">
        <time>2021-02-28T08:02:16.222000+00:00</time>
      </trkpt>
      <trkpt lat="0" lon="0">
        <time>2021-02-28T08:02:16.225000+00:00</time>
      </trkpt>
      <trkpt lat="0" lon="0">
        <time>2021-02-28T08:02:16.228000+00:00</time>
      </trkpt>
      <trkpt lat="47.29527" lon="-1.38518">
        <ele>104</ele>
        <time>2021-02-28T08:02:17.205000+00:00</time>
      </trkpt>
      <trkpt lat="0" lon="0">
        <time>2021-02-28T08:02:17.213000+00:00</time>
      </trkpt>
      <trkpt lat="0" lon="0">
        <time>2021-02-28T08:02:17.218000+00:00</time>
      </trkpt>
      <trkpt lat="0" lon="0">
        <time>2021-02-28T08:02:17.220000+00:00</time>
      </trkpt>
      <trkpt lat="47.29521" lon="-1.38518">
        <ele>102</ele>
        <time>2021-02-28T08:02:18.191000+00:00</time>
      </trkpt>
      <trkpt lat="0" lon="0">
        <time>2021-02-28T08:02:18.203000+00:00</time>
      </trkpt>
      <trkpt lat="0" lon="0">
        <time>2021-02-28T08:02:18.210000+00:00</time>
      </trkpt>
      <trkpt lat="0" lon="0">
        <time>2021-02-28T08:02:18.212000+00:00</time>
      </trkpt>
      <trkpt lat="47.29516" lon="-1.38519">
        <ele>101</ele>
        <time>2021-02-28T08:02:19.186000+00:00</time>
      </trkpt>
      <trkpt lat="0" lon="0">
        <time>2021-02-28T08:02:19.192000+00:00</time>
      </trkpt>
      <trkpt lat="0" lon="0">
        <time>2021-02-28T08:02:19.197000+00:00</time>
      </trkpt>
      <trkpt lat="0" lon="0">
        <time>2021-02-28T08:02:19.199000+00:00</time>
      </trkpt>
      <trkpt lat="47.2951" lon="-1.38519">
        <ele>99</ele>
        <time>2021-02-28T08:02:20.187000+00:00</time>
      </trkpt>
      <trkpt lat="0" lon="0">
        <time>2021-02-28T08:02:20.192000+00:00</time>
      </trkpt>
      <trkpt lat="0" lon="0">
        <time>2021-02-28T08:02:20.197000+00:00</time>
      </trkpt>
      <trkpt lat="0" lon="0">
        <time>2021-02-28T08:02:20.200000+00:00</time>
      </trkpt>
      <trkpt lat="47.29505" lon="-1.38519">
        <ele>98</ele>
        <time>2021-02-28T08:02:21.190000+00:00</time>
      </trkpt>
      <trkpt lat="0" lon="0">
        <time>2021-02-28T08:02:21.199000+00:00</time>
      </trkpt>
      <trkpt lat="0" lon="0">
        <time>2021-02-28T08:02:21.204000+00:00</time>
      </trkpt>
      <trkpt lat="0" lon="0">
        <time>2021-02-28T08:02:21.208000+00:00</time>
      </trkpt>
      <trkpt lat="47.29499" lon="-1.38518">
        <ele>97</ele>
        <time>2021-02-28T08:02:22.218000+00:00</time>
      </trkpt>
      <trkpt lat="0" lon="0">
        <time>2021-02-28T08:02:22.233000+00:00</time>
      </trkpt>
      <trkpt lat="0" lon="0">
        <time>2021-02-28T08:02:22.241000+00:00</time>
      </trkpt>
      <trkpt lat="0" lon="0">
        <time>2021-02-28T08:02:22.242000+00:00</time>
      </trkpt>
      <trkpt lat="47.29493" lon="-1.38516">
        <ele>96</ele>
        <time>2021-02-28T08:02:23.235000+00:00</time>
      </trkpt>
      <trkpt lat="0" lon="0">
        <time>2021-02-28T08:02:23.244000+00:00</time>
      </trkpt>
      <trkpt lat="0" lon="0">
        <time>2021-02-28T08:02:23.249000+00:00</time>
      </trkpt>
      <trkpt lat="0" lon="0">
        <time>2021-02-28T08:02:23.252000+00:00</time>
      </trkpt>
      <trkpt lat="47.29487" lon="-1.38514">
        <ele>95</ele>
        <time>2021-02-28T08:02:24.235000+00:00</time>
      </trkpt>
      <trkpt lat="0" lon="0">
        <time>2021-02-28T08:02:24.241000+00:00</time>
      </trkpt>
      <trkpt lat="0" lon="0">
        <time>2021-02-28T08:02:24.246000+00:00</time>
      </trkpt>
      <trkpt lat="0" lon="0">
        <time>2021-02-28T08:02:24.250000+00:00</time>
      </trkpt>
      <trkpt lat="47.29481" lon="-1.38512">
        <ele>93</ele>
        <time>2021-02-28T08:02:25.213000+00:00</time>
      </trkpt>
      <trkpt lat="0" lon="0">
        <time>2021-02-28T08:02:25.226000+00:00</time>
      </trkpt>
      <trkpt lat="0" lon="0">
        <time>2021-02-28T08:02:25.231000+00:00</time>
      </trkpt>
      <trkpt lat="0" lon="0">
        <time>2021-02-28T08:02:25.233000+00:00</time>
      </trkpt>
      <trkpt lat="47.29476" lon="-1.38509">
        <ele>92</ele>
        <time>2021-02-28T08:02:26.220000+00:00</time>
      </trkpt>
      <trkpt lat="0" lon="0">
        <time>2021-02-28T08:02:26.233000+00:00</time>
      </trkpt>
      <trkpt lat="0" lon="0">
        <time>2021-02-28T08:02:26.241000+00:00</time>
      </trkpt>
      <trkpt lat="0" lon="0">
        <time>2021-02-28T08:02:26.249000+00:00</time>
      </trkpt>
      <trkpt lat="47.29472" lon="-1.38506">
        <ele>92</ele>
        <time>2021-02-28T08:02:27.254000+00:00</time>
      </trkpt>
      <trkpt lat="0" lon="0">
        <time>2021-02-28T08:02:27.263000+00:00</time>
      </trkpt>
      <trkpt lat="0" lon="0">
        <time>2021-02-28T08:02:27.270000+00:00</time>
      </trkpt>
      <trkpt lat="0" lon="0">
        <time>2021-02-28T08:02:27.273000+00:00</time>
      </trkpt>
      <trkpt lat="47.29469" lon="-1.38503">
        <ele>91</ele>
        <time>2021-02-28T08:02:28.264000+00:00</time>
      </trkpt>
      <trkpt lat="0" lon="0">
        <time>2021-02-28T08:02:28.273000+00:00</time>
      </trkpt>
      <trkpt lat="0" lon="0">
        <time>2021-02-28T08:02:28.280000+00:00</time>
      </trkpt>
      <trkpt lat="0" lon="0">
        <time>2021-02-28T08:02:28.282000+00:00</time>
      </trkpt>
      <trkpt lat="47.29466" lon="-1.38501">
        <ele>90</ele>
        <time>2021-02-28T08:02:29.246000+00:00</time>
      </trkpt>
      <trkpt lat="0" lon="0">
        <time>2021-02-28T08:02:29.256000+00:00</time>
      </trkpt>
      <trkpt lat="0" lon="0">
        <time>2021-02-28T08:02:29.261000+00:00</time>
      </trkpt>
      <trkpt lat="0" lon="0">
        <time>2021-02-28T08:02:29.264000+00:00</time>
      </trkpt>
      <trkpt lat="47.29464" lon="-1.38498">
        <ele>89</ele>
        <time>2021-02-28T08:02:30.259000+00:00</time>
      </trkpt>
      <trkpt lat="0" lon="0">
        <time>2021-02-28T08:02:30.266000+00:00</time>
      </trkpt>
      <trkpt lat="0" lon="0">
        <time>2021-02-28T08:02:30.271000+00:00</time>
      </trkpt>
      <trkpt lat="0" lon="0">
        <time>2021-02-28T08:02:30.274000+00:00</time>
      </trkpt>
      <trkpt lat="47.29462" lon="-1.38496">
        <ele>88</ele>
        <time>2021-02-28T08:02:31.269000+00:00</time>
      </trkpt>
      <trkpt lat="0" lon="0">
        <time>2021-02-28T08:02:31.279000+00:00</time>
      </trkpt>
      <trkpt lat="0" lon="0">
        <time>2021-02-28T08:02:31.285000+00:00</time>
      </trkpt>
      <trkpt lat="0" lon="0">
        <time>2021-02-28T08:02:31.288000+00:00</time>
      </trkpt>
      <trkpt lat="47.29462" lon="-1.38493">
        <ele>87</ele>
        <time>2021-02-28T08:02:32.240000+00:00</time>
      </trkpt>
      <trkpt lat="0" lon="0">
        <time>2021-02-28T08:02:32.248000+00:00</time>
      </trkpt>
      <trkpt lat="0" lon="0">
        <time>2021-02-28T08:02:32.258000+00:00</time>
      </trkpt>
      <trkpt lat="0" lon="0">
        <time>2021-02-28T08:02:32.264000+00:00</time>
      </trkpt>
      <trkpt lat="47.29462" lon="-1.38491">
        <ele>87</ele>
        <time>2021-02-28T08:02:33.253000+00:00</time>
      </trkpt>
      <trkpt lat="0" lon="0">
        <time>2021-02-28T08:02:33.266000+00:00</time>
      </trkpt>
      <trkpt lat="0" lon="0">
        <time>2021-02-28T08:02:33.271000+00:00</time>
      </trkpt>
      <trkpt lat="0" lon="0">
        <time>2021-02-28T08:02:33.274000+00:00</time>
      </trkpt>
      <trkpt lat="47.29462" lon="-1.38489">
        <ele>87</ele>
        <time>2021-02-28T08:02:34.238000+00:00</time>
      </trkpt>
      <trkpt lat="0" lon="0">
        <time>2021-02-28T08:02:34.244000+00:00</time>
      </trkpt>
      <trkpt lat="0" lon="0">
        <time>2021-02-28T08:02:34.247000+00:00</time>
      </trkpt>
      <trkpt lat="0" lon="0">
        <time>2021-02-28T08:02:34.248000+00:00</time>
      </trkpt>
      <trkpt lat="47.29463" lon="-1.38488">
        <ele>87</ele>
        <time>2021-02-28T08:02:35.273000+00:00</time>
      </trkpt>
      <trkpt lat="0" lon="0">
        <time>2021-02-28T08:02:35.279000+00:00</time>
      </trkpt>
      <trkpt lat="0" lon="0">
        <time>2021-02-28T08:02:35.287000+00:00</time>
      </trkpt>
      <trkpt lat="0" lon="0">
        <time>2021-02-28T08:02:35.291000+00:00</time>
      </trkpt>
      <trkpt lat="47.29464" lon="-1.38487">
        <ele>87</ele>
        <time>2021-02-28T08:02:36.192000+00:00</time>
      </trkpt>
      <trkpt lat="0" lon="0">
        <time>2021-02-28T08:02:36.200000+00:00</time>
      </trkpt>
      <trkpt lat="0" lon="0">
        <time>2021-02-28T08:02:36.204000+00:00</time>
      </trkpt>
      <trkpt lat="0" lon="0">
        <time>2021-02-28T08:02:36.206000+00:00</time>
      </trkpt>
      <trkpt lat="47.29464" lon="-1.38486">
        <ele>86</ele>
        <time>2021-02-28T08:02:37.188000+00:00</time>
      </trkpt>
      <trkpt lat="0" lon="0">
        <time>2021-02-28T08:02:37.192000+00:00</time>
      </trkpt>
      <trkpt lat="0" lon="0">
        <time>2021-02-28T08:02:37.201000+00:00</time>
      </trkpt>
      <trkpt lat="0" lon="0">
        <time>2021-02-28T08:02:37.204000+00:00</time>
      </trkpt>
      <trkpt lat="47.29465" lon="-1.38485">
        <ele>85</ele>
        <time>2021-02-28T08:02:38.170000+00:00</time>
      </trkpt>
      <trkpt lat="0" lon="0">
        <time>2021-02-28T08:02:38.181000+00:00</time>
      </trkpt>
      <trkpt lat="0" lon="0">
        <time>2021-02-28T08:02:38.185000+00:00</time>
      </trkpt>
      <trkpt lat="0" lon="0">
        <time>2021-02-28T08:02:38.187000+00:00</time>
      </trkpt>
      <trkpt lat="47.29466" lon="-1.38484">
        <ele>85</ele>
        <time>2021-02-28T08:02:39.220000+00:00</time>
      </trkpt>
      <trkpt lat="0" lon="0">
        <time>2021-02-28T08:02:39.230000+00:00</time>
      </trkpt>
      <trkpt lat="0" lon="0">
        <time>2021-02-28T08:02:39.239000+00:00</time>
      </trkpt>
      <trkpt lat="0" lon="0">
        <time>2021-02-28T08:02:39.245000+00:00</time>
      </trkpt>
      <trkpt lat="47.29467" lon="-1.38483">
        <ele>84</ele>
        <time>2021-02-28T08:02:40.265000+00:00</time>
      </trkpt>
      <trkpt lat="0" lon="0">
        <time>2021-02-28T08:02:40.274000+00:00</time>
      </trkpt>
      <trkpt lat="0" lon="0">
        <time>2021-02-28T08:02:40.281000+00:00</time>
      </trkpt>
      <trkpt lat="0" lon="0">
        <time>2021-02-28T08:02:40.285000+00:00</time>
      </trkpt>
      <trkpt lat="47.29468" lon="-1.38482">
        <ele>83</ele>
        <time>2021-02-28T08:02:41.294000+00:00</time>
      </trkpt>
      <trkpt lat="0" lon="0">
        <time>2021-02-28T08:02:41.303000+00:00</time>
      </trkpt>
      <trkpt lat="0" lon="0">
        <time>2021-02-28T08:02:41.308000+00:00</time>
      </trkpt>
      <trkpt lat="0" lon="0">
        <time>2021-02-28T08:02:41.312000+00:00</time>
      </trkpt>
      <trkpt lat="47.29469" lon="-1.38482">
        <ele>83</ele>
        <time>2021-02-28T08:02:42.180000+00:00</time>
      </trkpt>
      <trkpt lat="0" lon="0">
        <time>2021-02-28T08:02:42.183000+00:00</time>
      </trkpt>
      <trkpt lat="0" lon="0">
        <time>2021-02-28T08:02:42.188000+00:00</time>
      </trkpt>
      <trkpt lat="0" lon="0">
        <time>2021-02-28T08:02:42.195000+00:00</time>
      </trkpt>
      <trkpt lat="47.29469" lon="-1.38481">
        <ele>82</ele>
        <time>2021-02-28T08:02:43.212000+00:00</time>
      </trkpt>
      <trkpt lat="0" lon="0">
        <time>2021-02-28T08:02:43.222000+00:00</time>
      </trkpt>
      <trkpt lat="0" lon="0">
        <time>2021-02-28T08:02:43.230000+00:00</time>
      </trkpt>
      <trkpt lat="0" lon="0">
        <time>2021-02-28T08:02:43.236000+00:00</time>
      </trkpt>
      <trkpt lat="47.2947" lon="-1.3848">
        <ele>82</ele>
        <time>2021-02-28T08:02:44.259000+00:00</time>
      </trkpt>
      <trkpt lat="0" lon="0">
        <time>2021-02-28T08:02:44.269000+00:00</time>
      </trkpt>
      <trkpt lat="0" lon="0">
        <time>2021-02-28T08:02:44.273000+00:00</time>
      </trkpt>
      <trkpt lat="0" lon="0">
        <time>2021-02-28T08:02:44.276000+00:00</time>
      </trkpt>
      <trkpt lat="47.29471" lon="-1.3848">
        <ele>82</ele>
        <time>2021-02-28T08:02:45.245000+00:00</time>
      </trkpt>
      <trkpt lat="0" lon="0">
        <time>2021-02-28T08:02:45.255000+00:00</time>
      </trkpt>
      <trkpt lat="0" lon="0">
        <time>2021-02-28T08:02:45.261000+00:00</time>
      </trkpt>
      <trkpt lat="0" lon="0">
        <time>2021-02-28T08:02:45.270000+00:00</time>
      </trkpt>
      <trkpt lat="47.29468" lon="-1.38506">
        <ele>75</ele>
        <time>2021-02-28T08:02:46.262000+00:00</time>
      </trkpt>
      <trkpt lat="0" lon="0">
        <time>2021-02-28T08:02:46.276000+00:00</time>
      </trkpt>
      <trkpt lat="0" lon="0">
        <time>2021-02-28T08:02:46.280000+00:00</time>
      </trkpt>
      <trkpt lat="0" lon="0">
        <time>2021-02-28T08:02:46.282000+00:00</time>
      </trkpt>
      <trkpt lat="47.29468" lon="-1.3851">
        <ele>75</ele>
        <time>2021-02-28T08:02:47.284000+00:00</time>
      </trkpt>
      <trkpt lat="0" lon="0">
        <time>2021-02-28T08:02:47.290000+00:00</time>
      </trkpt>
      <trkpt lat="0" lon="0">
        <time>2021-02-28T08:02:47.295000+00:00</time>
      </trkpt>
      <trkpt lat="0" lon="0">
        <time>2021-02-28T08:02:47.297000+00:00</time>
      </trkpt>
      <trkpt lat="47.29467" lon="-1.38514">
        <ele>75</ele>
        <time>2021-02-28T08:02:48.312000+00:00</time>
      </trkpt>
      <trkpt lat="0" lon="0">
        <time>2021-02-28T08:02:48.318000+00:00</time>
      </trkpt>
      <trkpt lat="0" lon="0">
        <time>2021-02-28T08:02:48.324000+00:00</time>
      </trkpt>
      <trkpt lat="0" lon="0">
        <time>2021-02-28T08:02:48.327000+00:00</time>
      </trkpt>
      <trkpt lat="47.29466" lon="-1.38519">
        <ele>75</ele>
        <time>2021-02-28T08:02:49.302000+00:00</time>
      </trkpt>
      <trkpt lat="0" lon="0">
        <time>2021-02-28T08:02:49.310000+00:00</time>
      </trkpt>
      <trkpt lat="0" lon="0">
        <time>2021-02-28T08:02:49.316000+00:00</time>
      </trkpt>
      <trkpt lat="0" lon="0">
        <time>2021-02-28T08:02:49.319000+00:00</time>
      </trkpt>
      <trkpt lat="47.29465" lon="-1.38524">
        <ele>75</ele>
        <time>2021-02-28T08:02:50.277000+00:00</time>
      </trkpt>
      <trkpt lat="0" lon="0">
        <time>2021-02-28T08:02:50.288000+00:00</time>
      </trkpt>
      <trkpt lat="0" lon="0">
        <time>2021-02-28T08:02:50.292000+00:00</time>
      </trkpt>
      <trkpt lat="0" lon="0">
        <time>2021-02-28T08:02:50.295000+00:00</time>
      </trkpt>
      <trkpt lat="47.29465" lon="-1.3853">
        <ele>74</ele>
        <time>2021-02-28T08:02:51.212000+00:00</time>
      </trkpt>
      <trkpt lat="0" lon="0">
        <time>2021-02-28T08:02:51.226000+00:00</time>
      </trkpt>
      <trkpt lat="0" lon="0">
        <time>2021-02-28T08:02:51.231000+00:00</time>
      </trkpt>
      <trkpt lat="0" lon="0">
        <time>2021-02-28T08:02:51.234000+00:00</time>
      </trkpt>
      <trkpt lat="47.29464" lon="-1.38535">
        <ele>75</ele>
        <time>2021-02-28T08:02:52.299000+00:00</time>
      </trkpt>
      <trkpt lat="0" lon="0">
        <time>2021-02-28T08:02:52.311000+00:00</time>
      </trkpt>
      <trkpt lat="0" lon="0">
        <time>2021-02-28T08:02:52.318000+00:00</time>
      </trkpt>
      <trkpt lat="0" lon="0">
        <time>2021-02-28T08:02:52.320000+00:00</time>
      </trkpt>
      <trkpt lat="47.29463" lon="-1.38541">
        <ele>74</ele>
        <time>2021-02-28T08:02:53.261000+00:00</time>
      </trkpt>
      <trkpt lat="0" lon="0">
        <time>2021-02-28T08:02:53.269000+00:00</time>
      </trkpt>
      <trkpt lat="0" lon="0">
        <time>2021-02-28T08:02:53.274000+00:00</time>
      </trkpt>
      <trkpt lat="0" lon="0">
        <time>2021-02-28T08:02:53.276000+00:00</time>
      </trkpt>
      <trkpt lat="47.29462" lon="-1.38546">
        <ele>74</ele>
        <time>2021-02-28T08:02:54.225000+00:00</time>
      </trkpt>
      <trkpt lat="0" lon="0">
        <time>2021-02-28T08:02:54.229000+00:00</time>
      </trkpt>
      <trkpt lat="0" lon="0">
        <time>2021-02-28T08:02:54.231000+00:00</time>
      </trkpt>
      <trkpt lat="0" lon="0">
        <time>2021-02-28T08:02:54.232000+00:00</time>
      </trkpt>
      <trkpt lat="47.29461" lon="-1.38552">
        <ele>73</ele>
        <time>2021-02-28T08:02:55.299000+00:00</time>
      </trkpt>
      <trkpt lat="0" lon="0">
        <time>2021-02-28T08:02:55.310000+00:00</time>
      </trkpt>
      <trkpt lat="0" lon="0">
        <time>2021-02-28T08:02:55.316000+00:00</time>
      </trkpt>
      <trkpt lat="0" lon="0">
        <time>2021-02-28T08:02:55.325000+00:00</time>
      </trkpt>
      <trkpt lat="47.2946" lon="-1.38558">
        <ele>73</ele>
        <time>2021-02-28T08:02:56.293000+00:00</time>
      </trkpt>
      <trkpt lat="0" lon="0">
        <time>2021-02-28T08:02:56.300000+00:00</time>
      </trkpt>
      <trkpt lat="0" lon="0">
        <time>2021-02-28T08:02:56.306000+00:00</time>
      </trkpt>
      <trkpt lat="0" lon="0">
        <time>2021-02-28T08:02:56.308000+00:00</time>
      </trkpt>
      <trkpt lat="47.29459" lon="-1.38563">
        <ele>73</ele>
        <time>2021-02-28T08:02:57.267000+00:00</time>
      </trkpt>
      <trkpt lat="0" lon="0">
        <time>2021-02-28T08:02:57.280000+00:00</time>
      </trkpt>
      <trkpt lat="0" lon="0">
        <time>2021-02-28T08:02:57.286000+00:00</time>
      </trkpt>
      <trkpt lat="0" lon="0">
        <time>2021-02-28T08:02:57.289000+00:00</time>
      </trkpt>
      <trkpt lat="47.29458" lon="-1.38569">
        <ele>73</ele>
        <time>2021-02-28T08:02:58.304000+00:00</time>
      </trkpt>
      <trkpt lat="0" lon="0">
        <time>2021-02-28T08:02:58.311000+00:00</time>
      </trkpt>
      <trkpt lat="0" lon="0">
        <time>2021-02-28T08:02:58.317000+00:00</time>
      </trkpt>
      <trkpt lat="0" lon="0">
        <time>2021-02-28T08:02:58.320000+00:00</time>
      </trkpt>
      <trkpt lat="47.29458" lon="-1.38575">
        <ele>73</ele>
        <time>2021-02-28T08:02:59.245000+00:00</time>
      </trkpt>
      <trkpt lat="0" lon="0">
        <time>2021-02-28T08:02:59.251000+00:00</time>
      </trkpt>
      <trkpt lat="0" lon="0">
        <time>2021-02-28T08:02:59.257000+00:00</time>
      </trkpt>
      <trkpt lat="0" lon="0">
        <time>2021-02-28T08:02:59.260000+00:00</time>
      </trkpt>
      <trkpt lat="47.29457" lon="-1.38581">
        <ele>72</ele>
        <time>2021-02-28T08:03:00.277000+00:00</time>
      </trkpt>
      <trkpt lat="0" lon="0">
        <time>2021-02-28T08:03:00.284000+00:00</time>
      </trkpt>
      <trkpt lat="0" lon="0">
        <time>2021-02-28T08:03:00.289000+00:00</time>
      </trkpt>
      <trkpt lat="0" lon="0">
        <time>2021-02-28T08:03:00.292000+00:00</time>
      </trkpt>
      <trkpt lat="47.29456" lon="-1.38587">
        <ele>73</ele>
        <time>2021-02-28T08:03:01.264000+00:00</time>
      </trkpt>
      <trkpt lat="0" lon="0">
        <time>2021-02-28T08:03:01.271000+00:00</time>
      </trkpt>
      <trkpt lat="0" lon="0">
        <time>2021-02-28T08:03:01.275000+00:00</time>
      </trkpt>
      <trkpt lat="0" lon="0">
        <time>2021-02-28T08:03:01.278000+00:00</time>
      </trkpt>
      <trkpt lat="47.29455" lon="-1.38593">
        <ele>72</ele>
        <time>2021-02-28T08:03:02.254000+00:00</time>
      </trkpt>
      <trkpt lat="0" lon="0">
        <time>2021-02-28T08:03:02.270000+00:00</time>
      </trkpt>
      <trkpt lat="0" lon="0">
        <time>2021-02-28T08:03:02.275000+00:00</time>
      </trkpt>
      <trkpt lat="0" lon="0">
        <time>2021-02-28T08:03:02.278000+00:00</time>
      </trkpt>
      <trkpt lat="47.29454" lon="-1.386">
        <ele>72</ele>
        <time>2021-02-28T08:03:03.252000+00:00</time>
      </trkpt>
      <trkpt lat="0" lon="0">
        <time>2021-02-28T08:03:03.264000+00:00</time>
      </trkpt>
      <trkpt lat="0" lon="0">
        <time>2021-02-28T08:03:03.271000+00:00</time>
      </trkpt>
      <trkpt lat="0" lon="0">
        <time>2021-02-28T08:03:03.273000+00:00</time>
      </trkpt>
      <trkpt lat="47.29453" lon="-1.38606">
        <ele>71</ele>
        <time>2021-02-28T08:03:04.252000+00:00</time>
      </trkpt>
      <trkpt lat="0" lon="0">
        <time>2021-02-28T08:03:04.257000+00:00</time>
      </trkpt>
      <trkpt lat="0" lon="0">
        <time>2021-02-28T08:03:04.262000+00:00</time>
      </trkpt>
      <trkpt lat="0" lon="0">
        <time>2021-02-28T08:03:04.266000+00:00</time>
      </trkpt>
      <trkpt lat="47.29452" lon="-1.38613">
        <ele>71</ele>
        <time>2021-02-28T08:03:05.300000+00:00</time>
      </trkpt>
      <trkpt lat="0" lon="0">
        <time>2021-02-28T08:03:05.307000+00:00</time>
      </trkpt>
      <trkpt lat="0" lon="0">
        <time>2021-02-28T08:03:05.314000+00:00</time>
      </trkpt>
      <trkpt lat="0" lon="0">
        <time>2021-02-28T08:03:05.318000+00:00</time>
      </trkpt>
      <trkpt lat="47.29451" lon="-1.38619">
        <ele>71</ele>
        <time>2021-02-28T08:03:06.314000+00:00</time>
      </trkpt>
      <trkpt lat="0" lon="0">
        <time>2021-02-28T08:03:06.321000+00:00</time>
      </trkpt>
      <trkpt lat="0" lon="0">
        <time>2021-02-28T08:03:06.327000+00:00</time>
      </trkpt>
      <trkpt lat="0" lon="0">
        <time>2021-02-28T08:03:06.330000+00:00</time>
      </trkpt>
      <trkpt lat="47.2945" lon="-1.38625">
        <ele>71</ele>
        <time>2021-02-28T08:03:07.302000+00:00</time>
      </trkpt>
      <trkpt lat="0" lon="0">
        <time>2021-02-28T08:03:07.309000+00:00</time>
      </trkpt>
      <trkpt lat="0" lon="0">
        <time>2021-02-28T08:03:07.315000+00:00</time>
      </trkpt>
      <trkpt lat="0" lon="0">
        <time>2021-02-28T08:03:07.318000+00:00</time>
      </trkpt>
      <trkpt lat="47.29449" lon="-1.38632">
        <ele>70</ele>
        <time>2021-02-28T08:03:08.293000+00:00</time>
      </trkpt>
      <trkpt lat="0" lon="0">
        <time>2021-02-28T08:03:08.298000+00:00</time>
      </trkpt>
      <trkpt lat="0" lon="0">
        <time>2021-02-28T08:03:08.305000+00:00</time>
      </trkpt>
      <trkpt lat="0" lon="0">
        <time>2021-02-28T08:03:08.307000+00:00</time>
      </trkpt>
      <trkpt lat="47.29448" lon="-1.38638">
        <ele>70</ele>
        <time>2021-02-28T08:03:09.235000+00:00</time>
      </trkpt>
      <trkpt lat="0" lon="0">
        <time>2021-02-28T08:03:09.242000+00:00</time>
      </trkpt>
      <trkpt lat="0" lon="0">
        <time>2021-02-28T08:03:09.246000+00:00</time>
      </trkpt>
      <trkpt lat="0" lon="0">
        <time>2021-02-28T08:03:09.248000+00:00</time>
      </trkpt>
      <trkpt lat="47.29447" lon="-1.38644">
        <ele>70</ele>
        <time>2021-02-28T08:03:10.303000+00:00</time>
      </trkpt>
      <trkpt lat="0" lon="0">
        <time>2021-02-28T08:03:10.315000+00:00</time>
      </trkpt>
      <trkpt lat="0" lon="0">
        <time>2021-02-28T08:03:10.321000+00:00</time>
      </trkpt>
      <trkpt lat="0" lon="0">
        <time>2021-02-28T08:03:10.324000+00:00</time>
      </trkpt>
      <trkpt lat="47.29446" lon="-1.3865">
        <ele>70</ele>
        <time>2021-02-28T08:03:11.232000+00:00</time>
      </trkpt>
      <trkpt lat="0" lon="0">
        <time>2021-02-28T08:03:11.242000+00:00</time>
      </trkpt>
      <trkpt lat="0" lon="0">
        <time>2021-02-28T08:03:11.248000+00:00</time>
      </trkpt>
      <trkpt lat="0" lon="0">
        <time>2021-02-28T08:03:11.251000+00:00</time>
      </trkpt>
      <trkpt lat="47.29446" lon="-1.38657">
        <ele>69</ele>
        <time>2021-02-28T08:03:12.258000+00:00</time>
      </trkpt>
      <trkpt lat="0" lon="0">
        <time>2021-02-28T08:03:12.268000+00:00</time>
      </trkpt>
      <trkpt lat="0" lon="0">
        <time>2021-02-28T08:03:12.272000+00:00</time>
      </trkpt>
      <trkpt lat="0" lon="0">
        <time>2021-02-28T08:03:12.274000+00:00</time>
      </trkpt>
      <trkpt lat="47.29445" lon="-1.38663">
        <ele>69</ele>
        <time>2021-02-28T08:03:13.294000+00:00</time>
      </trkpt>
      <trkpt lat="0" lon="0">
        <time>2021-02-28T08:03:13.302000+00:00</time>
      </trkpt>
      <trkpt lat="0" lon="0">
        <time>2021-02-28T08:03:13.307000+00:00</time>
      </trkpt>
      <trkpt lat="0" lon="0">
        <time>2021-02-28T08:03:13.311000+00:00</time>
      </trkpt>
      <trkpt lat="47.29444" lon="-1.3867">
        <ele>69</ele>
        <time>2021-02-28T08:03:14.263000+00:00</time>
      </trkpt>
      <trkpt lat="0" lon="0">
        <time>2021-02-28T08:03:14.270000+00:00</time>
      </trkpt>
      <trkpt lat="0" lon="0">
        <time>2021-02-28T08:03:14.276000+00:00</time>
      </trkpt>
      <trkpt lat="0" lon="0">
        <time>2021-02-28T08:03:14.279000+00:00</time>
      </trkpt>
      <trkpt lat="47.29443" lon="-1.38677">
        <ele>68</ele>
        <time>2021-02-28T08:03:15.282000+00:00</time>
      </trkpt>
      <trkpt lat="0" lon="0">
        <time>2021-02-28T08:03:15.288000+00:00</time>
      </trkpt>
      <trkpt lat="0" lon="0">
        <time>2021-02-28T08:03:15.294000+00:00</time>
      </trkpt>
      <trkpt lat="0" lon="0">
        <time>2021-02-28T08:03:15.297000+00:00</time>
      </trkpt>
      <trkpt lat="47.29442" lon="-1.38683">
        <ele>68</ele>
        <time>2021-02-28T08:03:16.304000+00:00</time>
      </trkpt>
      <trkpt lat="0" lon="0">
        <time>2021-02-28T08:03:16.320000+00:00</time>
      </trkpt>
      <trkpt lat="0" lon="0">
        <time>2021-02-28T08:03:16.327000+00:00</time>
      </trkpt>
      <trkpt lat="0" lon="0">
        <time>2021-02-28T08:03:16.330000+00:00</time>
      </trkpt>
      <trkpt lat="47.29441" lon="-1.3869">
        <ele>67</ele>
        <time>2021-02-28T08:03:17.275000+00:00</time>
      </trkpt>
      <trkpt lat="0" lon="0">
        <time>2021-02-28T08:03:17.285000+00:00</time>
      </trkpt>
      <trkpt lat="0" lon="0">
        <time>2021-02-28T08:03:17.290000+00:00</time>
      </trkpt>
      <trkpt lat="0" lon="0">
        <time>2021-02-28T08:03:17.292000+00:00</time>
      </trkpt>
      <trkpt lat="47.2944" lon="-1.38697">
        <ele>66</ele>
        <time>2021-02-28T08:03:18.322000+00:00</time>
      </trkpt>
      <trkpt lat="0" lon="0">
        <time>2021-02-28T08:03:18.328000+00:00</time>
      </trkpt>
      <trkpt lat="0" lon="0">
        <time>2021-02-28T08:03:18.333000+00:00</time>
      </trkpt>
      <trkpt lat="0" lon="0">
        <time>2021-02-28T08:03:18.336000+00:00</time>
      </trkpt>
      <trkpt lat="47.29439" lon="-1.38704">
        <ele>65</ele>
        <time>2021-02-28T08:03:19.273000+00:00</time>
      </trkpt>
      <trkpt lat="0" lon="0">
        <time>2021-02-28T08:03:19.287000+00:00</time>
      </trkpt>
      <trkpt lat="0" lon="0">
        <time>2021-02-28T08:03:19.293000+00:00</time>
      </trkpt>
      <trkpt lat="0" lon="0">
        <time>2021-02-28T08:03:19.302000+00:00</time>
      </trkpt>
      <trkpt lat="47.29438" lon="-1.38711">
        <ele>65</ele>
        <time>2021-02-28T08:03:20.299000+00:00</time>
      </trkpt>
      <trkpt lat="0" lon="0">
        <time>2021-02-28T08:03:20.309000+00:00</time>
      </trkpt>
      <trkpt lat="0" lon="0">
        <time>2021-02-28T08:03:20.318000+00:00</time>
      </trkpt>
      <trkpt lat="0" lon="0">
        <time>2021-02-28T08:03:20.320000+00:00</time>
      </trkpt>
      <trkpt lat="47.29437" lon="-1.38718">
        <ele>65</ele>
        <time>2021-02-28T08:03:21.296000+00:00</time>
      </trkpt>
      <trkpt lat="0" lon="0">
        <time>2021-02-28T08:03:21.303000+00:00</time>
      </trkpt>
      <trkpt lat="0" lon="0">
        <time>2021-02-28T08:03:21.307000+00:00</time>
      </trkpt>
      <trkpt lat="0" lon="0">
        <time>2021-02-28T08:03:21.309000+00:00</time>
      </trkpt>
      <trkpt lat="47.29436" lon="-1.38725">
        <ele>64</ele>
        <time>2021-02-28T08:03:22.303000+00:00</time>
      </trkpt>
      <trkpt lat="0" lon="0">
        <time>2021-02-28T08:03:22.327000+00:00</time>
      </trkpt>
      <trkpt lat="0" lon="0">
        <time>2021-02-28T08:03:22.331000+00:00</time>
      </trkpt>
      <trkpt lat="0" lon="0">
        <time>2021-02-28T08:03:22.335000+00:00</time>
      </trkpt>
      <trkpt lat="47.29435" lon="-1.38732">
        <ele>64</ele>
        <time>2021-02-28T08:03:23.276000+00:00</time>
      </trkpt>
      <trkpt lat="0" lon="0">
        <time>2021-02-28T08:03:23.288000+00:00</time>
      </trkpt>
      <trkpt lat="0" lon="0">
        <time>2021-02-28T08:03:23.293000+00:00</time>
      </trkpt>
      <trkpt lat="0" lon="0">
        <time>2021-02-28T08:03:23.296000+00:00</time>
      </trkpt>
      <trkpt lat="47.29435" lon="-1.38739">
        <ele>64</ele>
        <time>2021-02-28T08:03:24.296000+00:00</time>
      </trkpt>
      <trkpt lat="0" lon="0">
        <time>2021-02-28T08:03:24.301000+00:00</time>
      </trkpt>
      <trkpt lat="0" lon="0">
        <time>2021-02-28T08:03:24.305000+00:00</time>
      </trkpt>
      <trkpt lat="0" lon="0">
        <time>2021-02-28T08:03:24.308000+00:00</time>
      </trkpt>
      <trkpt lat="47.29435" lon="-1.38746">
        <ele>63</ele>
        <time>2021-02-28T08:03:25.306000+00:00</time>
      </trkpt>
      <trkpt lat="0" lon="0">
        <time>2021-02-28T08:03:25.312000+00:00</time>
      </trkpt>
      <trkpt lat="0" lon="0">
        <time>2021-02-28T08:03:25.317000+00:00</time>
      </trkpt>
      <trkpt lat="0" lon="0">
        <time>2021-02-28T08:03:25.319000+00:00</time>
      </trkpt>
      <trkpt lat="47.29434" lon="-1.38754">
        <ele>63</ele>
        <time>2021-02-28T08:03:26.317000+00:00</time>
      </trkpt>
      <trkpt lat="0" lon="0">
        <time>2021-02-28T08:03:26.327000+00:00</time>
      </trkpt>
      <trkpt lat="0" lon="0">
        <time>2021-02-28T08:03:26.331000+00:00</time>
      </trkpt>
      <trkpt lat="0" lon="0">
        <time>2021-02-28T08:03:26.334000+00:00</time>
      </trkpt>
      <trkpt lat="47.29434" lon="-1.38759">
        <ele>64</ele>
        <time>2021-02-28T08:03:27.314000+00:00</time>
      </trkpt>
      <trkpt lat="0" lon="0">
        <time>2021-02-28T08:03:27.321000+00:00</time>
      </trkpt>
      <trkpt lat="0" lon="0">
        <time>2021-02-28T08:03:27.326000+00:00</time>
      </trkpt>
      <trkpt lat="0" lon="0">
        <time>2021-02-28T08:03:27.327000+00:00</time>
      </trkpt>
      <trkpt lat="47.29434" lon="-1.38764">
        <ele>64</ele>
        <time>2021-02-28T08:03:28.283000+00:00</time>
      </trkpt>
      <trkpt lat="0" lon="0">
        <time>2021-02-28T08:03:28.290000+00:00</time>
      </trkpt>
      <trkpt lat="0" lon="0">
        <time>2021-02-28T08:03:28.296000+00:00</time>
      </trkpt>
      <trkpt lat="0" lon="0">
        <time>2021-02-28T08:03:28.299000+00:00</time>
      </trkpt>
      <trkpt lat="47.29434" lon="-1.38768">
        <ele>64</ele>
        <time>2021-02-28T08:03:29.282000+00:00</time>
      </trkpt>
      <trkpt lat="0" lon="0">
        <time>2021-02-28T08:03:29.293000+00:00</time>
      </trkpt>
      <trkpt lat="0" lon="0">
        <time>2021-02-28T08:03:29.300000+00:00</time>
      </trkpt>
      <trkpt lat="0" lon="0">
        <time>2021-02-28T08:03:29.307000+00:00</time>
      </trkpt>
      <trkpt lat="47.29434" lon="-1.38772">
        <ele>65</ele>
        <time>2021-02-28T08:03:30.287000+00:00</time>
      </trkpt>
      <trkpt lat="0" lon="0">
        <time>2021-02-28T08:03:30.299000+00:00</time>
      </trkpt>
      <trkpt lat="0" lon="0">
        <time>2021-02-28T08:03:30.304000+00:00</time>
      </trkpt>
      <trkpt lat="0" lon="0">
        <time>2021-02-28T08:03:30.307000+00:00</time>
      </trkpt>
      <trkpt lat="47.29433" lon="-1.38776">
        <ele>65</ele>
        <time>2021-02-28T08:03:31.296000+00:00</time>
      </trkpt>
      <trkpt lat="0" lon="0">
        <time>2021-02-28T08:03:31.298000+00:00</time>
      </trkpt>
      <trkpt lat="0" lon="0">
        <time>2021-02-28T08:03:31.301000+00:00</time>
      </trkpt>
      <trkpt lat="0" lon="0">
        <time>2021-02-28T08:03:31.302000+00:00</time>
      </trkpt>
      <trkpt lat="47.29433" lon="-1.3878">
        <ele>66</ele>
        <time>2021-02-28T08:03:32.284000+00:00</time>
      </trkpt>
      <trkpt lat="0" lon="0">
        <time>2021-02-28T08:03:32.296000+00:00</time>
      </trkpt>
      <trkpt lat="0" lon="0">
        <time>2021-02-28T08:03:32.301000+00:00</time>
      </trkpt>
      <trkpt lat="0" lon="0">
        <time>2021-02-28T08:03:32.304000+00:00</time>
      </trkpt>
      <trkpt lat="47.29433" lon="-1.38785">
        <ele>67</ele>
        <time>2021-02-28T08:03:33.279000+00:00</time>
      </trkpt>
      <trkpt lat="0" lon="0">
        <time>2021-02-28T08:03:33.285000+00:00</time>
      </trkpt>
      <trkpt lat="0" lon="0">
        <time>2021-02-28T08:03:33.290000+00:00</time>
      </trkpt>
      <trkpt lat="0" lon="0">
        <time>2021-02-28T08:03:33.292000+00:00</time>
      </trkpt>
      <trkpt lat="47.29434" lon="-1.3879">
        <ele>68</ele>
        <time>2021-02-28T08:03:34.295000+00:00</time>
      </trkpt>
      <trkpt lat="0" lon="0">
        <time>2021-02-28T08:03:34.301000+00:00</time>
      </trkpt>
      <trkpt lat="0" lon="0">
        <time>2021-02-28T08:03:34.312000+00:00</time>
      </trkpt>
      <trkpt lat="0" lon="0">
        <time>2021-02-28T08:03:34.315000+00:00</time>
      </trkpt>
      <trkpt lat="47.29434" lon="-1.38795">
        <ele>69</ele>
        <time>2021-02-28T08:03:35.285000+00:00</time>
      </trkpt>
      <trkpt lat="0" lon="0">
        <time>2021-02-28T08:03:35.299000+00:00</time>
      </trkpt>
      <trkpt lat="0" lon="0">
        <time>2021-02-28T08:03:35.303000+00:00</time>
      </trkpt>
      <trkpt lat="0" lon="0">
        <time>2021-02-28T08:03:35.306000+00:00</time>
      </trkpt>
      <trkpt lat="47.29434" lon="-1.38801">
        <ele>69</ele>
        <time>2021-02-28T08:03:36.322000+00:00</time>
      </trkpt>
      <trkpt lat="0" lon="0">
        <time>2021-02-28T08:03:36.335000+00:00</time>
      </trkpt>
      <trkpt lat="0" lon="0">
        <time>2021-02-28T08:03:36.342000+00:00</time>
      </trkpt>
      <trkpt lat="0" lon="0">
        <time>2021-02-28T08:03:36.345000+00:00</time>
      </trkpt>
      <trkpt lat="47.29435" lon="-1.38807">
        <ele>68</ele>
        <time>2021-02-28T08:03:37.323000+00:00</time>
      </trkpt>
      <trkpt lat="0" lon="0">
        <time>2021-02-28T08:03:37.336000+00:00</time>
      </trkpt>
      <trkpt lat="0" lon="0">
        <time>2021-02-28T08:03:37.340000+00:00</time>
      </trkpt>
      <trkpt lat="0" lon="0">
        <time>2021-02-28T08:03:37.343000+00:00</time>
      </trkpt>
      <trkpt lat="47.29435" lon="-1.38813">
        <ele>69</ele>
        <time>2021-02-28T08:03:38.315000+00:00</time>
      </trkpt>
      <trkpt lat="0" lon="0">
        <time>2021-02-28T08:03:38.321000+00:00</time>
      </trkpt>
      <trkpt lat="0" lon="0">
        <time>2021-02-28T08:03:38.324000+00:00</time>
      </trkpt>
      <trkpt lat="0" lon="0">
        <time>2021-02-28T08:03:38.327000+00:00</time>
      </trkpt>
      <trkpt lat="47.29436" lon="-1.38819">
        <ele>68</ele>
        <time>2021-02-28T08:03:39.239000+00:00</time>
      </trkpt>
      <trkpt lat="0" lon="0">
        <time>2021-02-28T08:03:39.242000+00:00</time>
      </trkpt>
      <trkpt lat="0" lon="0">
        <time>2021-02-28T08:03:39.250000+00:00</time>
      </trkpt>
      <trkpt lat="0" lon="0">
        <time>2021-02-28T08:03:39.253000+00:00</time>
      </trkpt>
      <trkpt lat="47.29437" lon="-1.38824">
        <ele>68</ele>
        <time>2021-02-28T08:03:40.298000+00:00</time>
      </trkpt>
      <trkpt lat="0" lon="0">
        <time>2021-02-28T08:03:40.303000+00:00</time>
      </trkpt>
      <trkpt lat="0" lon="0">
        <time>2021-02-28T08:03:40.308000+00:00</time>
      </trkpt>
      <trkpt lat="0" lon="0">
        <time>2021-02-28T08:03:40.311000+00:00</time>
      </trkpt>
      <trkpt lat="47.29438" lon="-1.38828">
        <ele>68</ele>
        <time>2021-02-28T08:03:41.315000+00:00</time>
      </trkpt>
      <trkpt lat="0" lon="0">
        <time>2021-02-28T08:03:41.335000+00:00</time>
      </trkpt>
      <trkpt lat="0" lon="0">
        <time>2021-02-28T08:03:41.342000+00:00</time>
      </trkpt>
      <trkpt lat="0" lon="0">
        <time>2021-02-28T08:03:41.345000+00:00</time>
      </trkpt>
      <trkpt lat="47.29439" lon="-1.38833">
        <ele>69</ele>
        <time>2021-02-28T08:03:42.291000+00:00</time>
      </trkpt>
      <trkpt lat="0" lon="0">
        <time>2021-02-28T08:03:42.305000+00:00</time>
      </trkpt>
      <trkpt lat="0" lon="0">
        <time>2021-02-28T08:03:42.310000+00:00</time>
      </trkpt>
      <trkpt lat="0" lon="0">
        <time>2021-02-28T08:03:42.312000+00:00</time>
      </trkpt>
      <trkpt lat="47.2944" lon="-1.38836">
        <ele>69</ele>
        <time>2021-02-28T08:03:43.262000+00:00</time>
      </trkpt>
      <trkpt lat="0" lon="0">
        <time>2021-02-28T08:03:43.264000+00:00</time>
      </trkpt>
      <trkpt lat="0" lon="0">
        <time>2021-02-28T08:03:43.268000+00:00</time>
      </trkpt>
      <trkpt lat="0" lon="0">
        <time>2021-02-28T08:03:43.269000+00:00</time>
      </trkpt>
      <trkpt lat="47.29441" lon="-1.38839">
        <ele>68</ele>
        <time>2021-02-28T08:03:44.287000+00:00</time>
      </trkpt>
      <trkpt lat="0" lon="0">
        <time>2021-02-28T08:03:44.301000+00:00</time>
      </trkpt>
      <trkpt lat="0" lon="0">
        <time>2021-02-28T08:03:44.307000+00:00</time>
      </trkpt>
      <trkpt lat="0" lon="0">
        <time>2021-02-28T08:03:44.310000+00:00</time>
      </trkpt>
      <trkpt lat="47.29442" lon="-1.38846">
        <ele>68</ele>
        <time>2021-02-28T08:03:46.288000+00:00</time>
      </trkpt>
      <trkpt lat="0" lon="0">
        <time>2021-02-28T08:03:46.304000+00:00</time>
      </trkpt>
      <trkpt lat="0" lon="0">
        <time>2021-02-28T08:03:46.308000+00:00</time>
      </trkpt>
      <trkpt lat="0" lon="0">
        <time>2021-02-28T08:03:46.311000+00:00</time>
      </trkpt>
      <trkpt lat="47.29442" lon="-1.3885">
        <ele>68</ele>
        <time>2021-02-28T08:03:47.319000+00:00</time>
      </trkpt>
      <trkpt lat="0" lon="0">
        <time>2021-02-28T08:03:47.326000+00:00</time>
      </trkpt>
      <trkpt lat="0" lon="0">
        <time>2021-02-28T08:03:47.332000+00:00</time>
      </trkpt>
      <trkpt lat="0" lon="0">
        <time>2021-02-28T08:03:47.334000+00:00</time>
      </trkpt>
      <trkpt lat="47.29443" lon="-1.38854">
        <ele>68</ele>
        <time>2021-02-28T08:03:48.322000+00:00</time>
      </trkpt>
      <trkpt lat="0" lon="0">
        <time>2021-02-28T08:03:48.332000+00:00</time>
      </trkpt>
      <trkpt lat="0" lon="0">
        <time>2021-02-28T08:03:48.337000+00:00</time>
      </trkpt>
      <trkpt lat="0" lon="0">
        <time>2021-02-28T08:03:48.340000+00:00</time>
      </trkpt>
      <trkpt lat="47.29444" lon="-1.38859">
        <ele>68</ele>
        <time>2021-02-28T08:03:49.290000+00:00</time>
      </trkpt>
      <trkpt lat="0" lon="0">
        <time>2021-02-28T08:03:49.296000+00:00</time>
      </trkpt>
      <trkpt lat="0" lon="0">
        <time>2021-02-28T08:03:49.301000+00:00</time>
      </trkpt>
      <trkpt lat="0" lon="0">
        <time>2021-02-28T08:03:49.304000+00:00</time>
      </trkpt>
      <trkpt lat="47.29444" lon="-1.38865">
        <ele>67</ele>
        <time>2021-02-28T08:03:50.262000+00:00</time>
      </trkpt>
      <trkpt lat="0" lon="0">
        <time>2021-02-28T08:03:50.268000+00:00</time>
      </trkpt>
      <trkpt lat="0" lon="0">
        <time>2021-02-28T08:03:50.272000+00:00</time>
      </trkpt>
      <trkpt lat="0" lon="0">
        <time>2021-02-28T08:03:50.274000+00:00</time>
      </trkpt>
      <trkpt lat="47.29444" lon="-1.3887">
        <ele>67</ele>
        <time>2021-02-28T08:03:51.292000+00:00</time>
      </trkpt>
      <trkpt lat="0" lon="0">
        <time>2021-02-28T08:03:51.297000+00:00</time>
      </trkpt>
      <trkpt lat="0" lon="0">
        <time>2021-02-28T08:03:51.302000+00:00</time>
      </trkpt>
      <trkpt lat="0" lon="0">
        <time>2021-02-28T08:03:51.307000+00:00</time>
      </trkpt>
      <trkpt lat="47.29445" lon="-1.38874">
        <ele>67</ele>
        <time>2021-02-28T08:03:52.277000+00:00</time>
      </trkpt>
      <trkpt lat="0" lon="0">
        <time>2021-02-28T08:03:52.292000+00:00</time>
      </trkpt>
      <trkpt lat="0" lon="0">
        <time>2021-02-28T08:03:52.298000+00:00</time>
      </trkpt>
      <trkpt lat="0" lon="0">
        <time>2021-02-28T08:03:52.302000+00:00</time>
      </trkpt>
      <trkpt lat="47.29445" lon="-1.38878">
        <ele>67</ele>
        <time>2021-02-28T08:03:53.257000+00:00</time>
      </trkpt>
      <trkpt lat="0" lon="0">
        <time>2021-02-28T08:03:53.266000+00:00</time>
      </trkpt>
      <trkpt lat="0" lon="0">
        <time>2021-02-28T08:03:53.270000+00:00</time>
      </trkpt>
      <trkpt lat="0" lon="0">
        <time>2021-02-28T08:03:53.273000+00:00</time>
      </trkpt>
      <trkpt lat="47.29445" lon="-1.38884">
        <ele>67</ele>
        <time>2021-02-28T08:03:54.305000+00:00</time>
      </trkpt>
      <trkpt lat="0" lon="0">
        <time>2021-02-28T08:03:54.314000+00:00</time>
      </trkpt>
      <trkpt lat="0" lon="0">
        <time>2021-02-28T08:03:54.319000+00:00</time>
      </trkpt>
      <trkpt lat="0" lon="0">
        <time>2021-02-28T08:03:54.321000+00:00</time>
      </trkpt>
      <trkpt lat="47.29445" lon="-1.3889">
        <ele>66</ele>
        <time>2021-02-28T08:03:55.284000+00:00</time>
      </trkpt>
      <trkpt lat="0" lon="0">
        <time>2021-02-28T08:03:55.301000+00:00</time>
      </trkpt>
      <trkpt lat="0" lon="0">
        <time>2021-02-28T08:03:55.305000+00:00</time>
      </trkpt>
      <trkpt lat="0" lon="0">
        <time>2021-02-28T08:03:55.308000+00:00</time>
      </trkpt>
      <trkpt lat="47.29446" lon="-1.38898">
        <ele>65</ele>
        <time>2021-02-28T08:03:56.319000+00:00</time>
      </trkpt>
      <trkpt lat="0" lon="0">
        <time>2021-02-28T08:03:56.325000+00:00</time>
      </trkpt>
      <trkpt lat="0" lon="0">
        <time>2021-02-28T08:03:56.331000+00:00</time>
      </trkpt>
      <trkpt lat="0" lon="0">
        <time>2021-02-28T08:03:56.334000+00:00</time>
      </trkpt>
      <trkpt lat="47.29446" lon="-1.38906">
        <ele>64</ele>
        <time>2021-02-28T08:03:57.305000+00:00</time>
      </trkpt>
      <trkpt lat="0" lon="0">
        <time>2021-02-28T08:03:57.314000+00:00</time>
      </trkpt>
      <trkpt lat="0" lon="0">
        <time>2021-02-28T08:03:57.320000+00:00</time>
      </trkpt>
      <trkpt lat="0" lon="0">
        <time>2021-02-28T08:03:57.322000+00:00</time>
      </trkpt>
      <trkpt lat="47.29446" lon="-1.38914">
        <ele>63</ele>
        <time>2021-02-28T08:03:58.315000+00:00</time>
      </trkpt>
      <trkpt lat="0" lon="0">
        <time>2021-02-28T08:03:58.324000+00:00</time>
      </trkpt>
      <trkpt lat="0" lon="0">
        <time>2021-02-28T08:03:58.332000+00:00</time>
      </trkpt>
      <trkpt lat="0" lon="0">
        <time>2021-02-28T08:03:58.336000+00:00</time>
      </trkpt>
      <trkpt lat="47.29446" lon="-1.38923">
        <ele>63</ele>
        <time>2021-02-28T08:03:59.279000+00:00</time>
      </trkpt>
      <trkpt lat="0" lon="0">
        <time>2021-02-28T08:03:59.287000+00:00</time>
      </trkpt>
      <trkpt lat="0" lon="0">
        <time>2021-02-28T08:03:59.290000+00:00</time>
      </trkpt>
      <trkpt lat="0" lon="0">
        <time>2021-02-28T08:03:59.293000+00:00</time>
      </trkpt>
      <trkpt lat="47.29446" lon="-1.38933">
        <ele>63</ele>
        <time>2021-02-28T08:04:00.281000+00:00</time>
      </trkpt>
      <trkpt lat="0" lon="0">
        <time>2021-02-28T08:04:00.289000+00:00</time>
      </trkpt>
      <trkpt lat="0" lon="0">
        <time>2021-02-28T08:04:00.294000+00:00</time>
      </trkpt>
      <trkpt lat="0" lon="0">
        <time>2021-02-28T08:04:00.297000+00:00</time>
      </trkpt>
      <trkpt lat="47.29446" lon="-1.38942">
        <ele>62</ele>
        <time>2021-02-28T08:04:01.305000+00:00</time>
      </trkpt>
      <trkpt lat="0" lon="0">
        <time>2021-02-28T08:04:01.313000+00:00</time>
      </trkpt>
      <trkpt lat="0" lon="0">
        <time>2021-02-28T08:04:01.319000+00:00</time>
      </trkpt>
      <trkpt lat="0" lon="0">
        <time>2021-02-28T08:04:01.321000+00:00</time>
      </trkpt>
      <trkpt lat="47.29445" lon="-1.38951">
        <ele>62</ele>
        <time>2021-02-28T08:04:02.285000+00:00</time>
      </trkpt>
      <trkpt lat="0" lon="0">
        <time>2021-02-28T08:04:02.292000+00:00</time>
      </trkpt>
      <trkpt lat="0" lon="0">
        <time>2021-02-28T08:04:02.299000+00:00</time>
      </trkpt>
      <trkpt lat="0" lon="0">
        <time>2021-02-28T08:04:02.302000+00:00</time>
      </trkpt>
      <trkpt lat="47.29445" lon="-1.38961">
        <ele>62</ele>
        <time>2021-02-28T08:04:03.304000+00:00</time>
      </trkpt>
      <trkpt lat="0" lon="0">
        <time>2021-02-28T08:04:03.312000+00:00</time>
      </trkpt>
      <trkpt lat="0" lon="0">
        <time>2021-02-28T08:04:03.318000+00:00</time>
      </trkpt>
      <trkpt lat="0" lon="0">
        <time>2021-02-28T08:04:03.321000+00:00</time>
      </trkpt>
      <trkpt lat="47.29444" lon="-1.3897">
        <ele>62</ele>
        <time>2021-02-28T08:04:04.299000+00:00</time>
      </trkpt>
      <trkpt lat="0" lon="0">
        <time>2021-02-28T08:04:04.310000+00:00</time>
      </trkpt>
      <trkpt lat="0" lon="0">
        <time>2021-02-28T08:04:04.315000+00:00</time>
      </trkpt>
      <trkpt lat="0" lon="0">
        <time>2021-02-28T08:04:04.318000+00:00</time>
      </trkpt>
      <trkpt lat="47.29443" lon="-1.38979">
        <ele>62</ele>
        <time>2021-02-28T08:04:05.303000+00:00</time>
      </trkpt>
      <trkpt lat="0" lon="0">
        <time>2021-02-28T08:04:05.315000+00:00</time>
      </trkpt>
      <trkpt lat="0" lon="0">
        <time>2021-02-28T08:04:05.319000+00:00</time>
      </trkpt>
      <trkpt lat="0" lon="0">
        <time>2021-02-28T08:04:05.322000+00:00</time>
      </trkpt>
      <trkpt lat="47.29442" lon="-1.38988">
        <ele>62</ele>
        <time>2021-02-28T08:04:06.298000+00:00</time>
      </trkpt>
      <trkpt lat="0" lon="0">
        <time>2021-02-28T08:04:06.303000+00:00</time>
      </trkpt>
      <trkpt lat="0" lon="0">
        <time>2021-02-28T08:04:06.308000+00:00</time>
      </trkpt>
      <trkpt lat="0" lon="0">
        <time>2021-02-28T08:04:06.310000+00:00</time>
      </trkpt>
      <trkpt lat="47.29441" lon="-1.38998">
        <ele>62</ele>
        <time>2021-02-28T08:04:07.276000+00:00</time>
      </trkpt>
      <trkpt lat="0" lon="0">
        <time>2021-02-28T08:04:07.284000+00:00</time>
      </trkpt>
      <trkpt lat="0" lon="0">
        <time>2021-02-28T08:04:07.289000+00:00</time>
      </trkpt>
      <trkpt lat="0" lon="0">
        <time>2021-02-28T08:04:07.292000+00:00</time>
      </trkpt>
      <trkpt lat="47.2944" lon="-1.39007">
        <ele>61</ele>
        <time>2021-02-28T08:04:08.289000+00:00</time>
      </trkpt>
      <trkpt lat="0" lon="0">
        <time>2021-02-28T08:04:08.303000+00:00</time>
      </trkpt>
      <trkpt lat="0" lon="0">
        <time>2021-02-28T08:04:08.316000+00:00</time>
      </trkpt>
      <trkpt lat="0" lon="0">
        <time>2021-02-28T08:04:08.319000+00:00</time>
      </trkpt>
      <trkpt lat="47.29438" lon="-1.39016">
        <ele>61</ele>
        <time>2021-02-28T08:04:09.295000+00:00</time>
      </trkpt>
      <trkpt lat="0" lon="0">
        <time>2021-02-28T08:04:09.306000+00:00</time>
      </trkpt>
      <trkpt lat="0" lon="0">
        <time>2021-02-28T08:04:09.311000+00:00</time>
      </trkpt>
      <trkpt lat="0" lon="0">
        <time>2021-02-28T08:04:09.314000+00:00</time>
      </trkpt>
      <trkpt lat="47.29437" lon="-1.39025">
        <ele>61</ele>
        <time>2021-02-28T08:04:10.293000+00:00</time>
      </trkpt>
      <trkpt lat="0" lon="0">
        <time>2021-02-28T08:04:10.305000+00:00</time>
      </trkpt>
      <trkpt lat="0" lon="0">
        <time>2021-02-28T08:04:10.315000+00:00</time>
      </trkpt>
      <trkpt lat="0" lon="0">
        <time>2021-02-28T08:04:10.318000+00:00</time>
      </trkpt>
      <trkpt lat="47.29436" lon="-1.39034">
        <ele>61</ele>
        <time>2021-02-28T08:04:11.275000+00:00</time>
      </trkpt>
      <trkpt lat="0" lon="0">
        <time>2021-02-28T08:04:11.279000+00:00</time>
      </trkpt>
      <trkpt lat="0" lon="0">
        <time>2021-02-28T08:04:11.283000+00:00</time>
      </trkpt>
      <trkpt lat="0" lon="0">
        <time>2021-02-28T08:04:11.286000+00:00</time>
      </trkpt>
      <trkpt lat="47.29434" lon="-1.39043">
        <ele>61</ele>
        <time>2021-02-28T08:04:12.314000+00:00</time>
      </trkpt>
      <trkpt lat="0" lon="0">
        <time>2021-02-28T08:04:12.325000+00:00</time>
      </trkpt>
      <trkpt lat="0" lon="0">
        <time>2021-02-28T08:04:12.332000+00:00</time>
      </trkpt>
      <trkpt lat="0" lon="0">
        <time>2021-02-28T08:04:12.335000+00:00</time>
      </trkpt>
      <trkpt lat="47.29433" lon="-1.39052">
        <ele>61</ele>
        <time>2021-02-28T08:04:13.291000+00:00</time>
      </trkpt>
      <trkpt lat="0" lon="0">
        <time>2021-02-28T08:04:13.304000+00:00</time>
      </trkpt>
      <trkpt lat="0" lon="0">
        <time>2021-02-28T08:04:13.310000+00:00</time>
      </trkpt>
      <trkpt lat="0" lon="0">
        <time>2021-02-28T08:04:13.313000+00:00</time>
      </trkpt>
      <trkpt lat="47.29431" lon="-1.3906">
        <ele>61</ele>
        <time>2021-02-28T08:04:14.284000+00:00</time>
      </trkpt>
      <trkpt lat="0" lon="0">
        <time>2021-02-28T08:04:14.296000+00:00</time>
      </trkpt>
      <trkpt lat="0" lon="0">
        <time>2021-02-28T08:04:14.304000+00:00</time>
      </trkpt>
      <trkpt lat="0" lon="0">
        <time>2021-02-28T08:04:14.307000+00:00</time>
      </trkpt>
      <trkpt lat="47.2943" lon="-1.39069">
        <ele>62</ele>
        <time>2021-02-28T08:04:15.288000+00:00</time>
      </trkpt>
      <trkpt lat="0" lon="0">
        <time>2021-02-28T08:04:15.294000+00:00</time>
      </trkpt>
      <trkpt lat="0" lon="0">
        <time>2021-02-28T08:04:15.299000+00:00</time>
      </trkpt>
      <trkpt lat="0" lon="0">
        <time>2021-02-28T08:04:15.303000+00:00</time>
      </trkpt>
      <trkpt lat="47.29429" lon="-1.39077">
        <ele>62</ele>
        <time>2021-02-28T08:04:16.296000+00:00</time>
      </trkpt>
      <trkpt lat="0" lon="0">
        <time>2021-02-28T08:04:16.301000+00:00</time>
      </trkpt>
      <trkpt lat="0" lon="0">
        <time>2021-02-28T08:04:16.305000+00:00</time>
      </trkpt>
      <trkpt lat="0" lon="0">
        <time>2021-02-28T08:04:16.307000+00:00</time>
      </trkpt>
      <trkpt lat="47.29428" lon="-1.39085">
        <ele>61</ele>
        <time>2021-02-28T08:04:17.275000+00:00</time>
      </trkpt>
      <trkpt lat="0" lon="0">
        <time>2021-02-28T08:04:17.282000+00:00</time>
      </trkpt>
      <trkpt lat="0" lon="0">
        <time>2021-02-28T08:04:17.286000+00:00</time>
      </trkpt>
      <trkpt lat="0" lon="0">
        <time>2021-02-28T08:04:17.288000+00:00</time>
      </trkpt>
      <trkpt lat="47.29427" lon="-1.39094">
        <ele>61</ele>
        <time>2021-02-28T08:04:18.292000+00:00</time>
      </trkpt>
      <trkpt lat="0" lon="0">
        <time>2021-02-28T08:04:18.299000+00:00</time>
      </trkpt>
      <trkpt lat="0" lon="0">
        <time>2021-02-28T08:04:18.306000+00:00</time>
      </trkpt>
      <trkpt lat="0" lon="0">
        <time>2021-02-28T08:04:18.309000+00:00</time>
      </trkpt>
      <trkpt lat="47.29425" lon="-1.39101">
        <ele>60</ele>
        <time>2021-02-28T08:04:19.299000+00:00</time>
      </trkpt>
      <trkpt lat="0" lon="0">
        <time>2021-02-28T08:04:19.306000+00:00</time>
      </trkpt>
      <trkpt lat="0" lon="0">
        <time>2021-02-28T08:04:19.313000+00:00</time>
      </trkpt>
      <trkpt lat="0" lon="0">
        <time>2021-02-28T08:04:19.316000+00:00</time>
      </trkpt>
      <trkpt lat="47.29424" lon="-1.39109">
        <ele>59</ele>
        <time>2021-02-28T08:04:20.283000+00:00</time>
      </trkpt>
      <trkpt lat="0" lon="0">
        <time>2021-02-28T08:04:20.289000+00:00</time>
      </trkpt>
      <trkpt lat="0" lon="0">
        <time>2021-02-28T08:04:20.293000+00:00</time>
      </trkpt>
      <trkpt lat="0" lon="0">
        <time>2021-02-28T08:04:20.296000+00:00</time>
      </trkpt>
      <trkpt lat="47.29423" lon="-1.39117">
        <ele>59</ele>
        <time>2021-02-28T08:04:21.295000+00:00</time>
      </trkpt>
      <trkpt lat="0" lon="0">
        <time>2021-02-28T08:04:21.307000+00:00</time>
      </trkpt>
      <trkpt lat="0" lon="0">
        <time>2021-02-28T08:04:21.312000+00:00</time>
      </trkpt>
      <trkpt lat="0" lon="0">
        <time>2021-02-28T08:04:21.316000+00:00</time>
      </trkpt>
      <trkpt lat="47.29422" lon="-1.39124">
        <ele>59</ele>
        <time>2021-02-28T08:04:22.231000+00:00</time>
      </trkpt>
      <trkpt lat="0" lon="0">
        <time>2021-02-28T08:04:22.233000+00:00</time>
      </trkpt>
      <trkpt lat="0" lon="0">
        <time>2021-02-28T08:04:22.235000+00:00</time>
      </trkpt>
      <trkpt lat="0" lon="0">
        <time>2021-02-28T08:04:22.237000+00:00</time>
      </trkpt>
      <trkpt lat="47.29421" lon="-1.39132">
        <ele>59</ele>
        <time>2021-02-28T08:04:23.258000+00:00</time>
      </trkpt>
      <trkpt lat="0" lon="0">
        <time>2021-02-28T08:04:23.274000+00:00</time>
      </trkpt>
      <trkpt lat="0" lon="0">
        <time>2021-02-28T08:04:23.277000+00:00</time>
      </trkpt>
      <trkpt lat="0" lon="0">
        <time>2021-02-28T08:04:23.278000+00:00</time>
      </trkpt>
      <trkpt lat="47.2942" lon="-1.39139">
        <ele>59</ele>
        <time>2021-02-28T08:04:24.285000+00:00</time>
      </trkpt>
      <trkpt lat="0" lon="0">
        <time>2021-02-28T08:04:24.290000+00:00</time>
      </trkpt>
      <trkpt lat="0" lon="0">
        <time>2021-02-28T08:04:24.294000+00:00</time>
      </trkpt>
      <trkpt lat="0" lon="0">
        <time>2021-02-28T08:04:24.300000+00:00</time>
      </trkpt>
      <trkpt lat="47.29418" lon="-1.39146">
        <ele>60</ele>
        <time>2021-02-28T08:04:25.275000+00:00</time>
      </trkpt>
      <trkpt lat="0" lon="0">
        <time>2021-02-28T08:04:25.285000+00:00</time>
      </trkpt>
      <trkpt lat="0" lon="0">
        <time>2021-02-28T08:04:25.291000+00:00</time>
      </trkpt>
      <trkpt lat="0" lon="0">
        <time>2021-02-28T08:04:25.294000+00:00</time>
      </trkpt>
      <trkpt lat="47.29416" lon="-1.39153">
        <ele>60</ele>
        <time>2021-02-28T08:04:26.253000+00:00</time>
      </trkpt>
      <trkpt lat="0" lon="0">
        <time>2021-02-28T08:04:26.263000+00:00</time>
      </trkpt>
      <trkpt lat="0" lon="0">
        <time>2021-02-28T08:04:26.267000+00:00</time>
      </trkpt>
      <trkpt lat="0" lon="0">
        <time>2021-02-28T08:04:26.268000+00:00</time>
      </trkpt>
      <trkpt lat="47.29415" lon="-1.3916">
        <ele>59</ele>
        <time>2021-02-28T08:04:27.274000+00:00</time>
      </trkpt>
      <trkpt lat="0" lon="0">
        <time>2021-02-28T08:04:27.282000+00:00</time>
      </trkpt>
      <trkpt lat="0" lon="0">
        <time>2021-02-28T08:04:27.286000+00:00</time>
      </trkpt>
      <trkpt lat="0" lon="0">
        <time>2021-02-28T08:04:27.288000+00:00</time>
      </trkpt>
      <trkpt lat="47.29414" lon="-1.39166">
        <ele>59</ele>
        <time>2021-02-28T08:04:28.334000+00:00</time>
      </trkpt>
      <trkpt lat="0" lon="0">
        <time>2021-02-28T08:04:28.343000+00:00</time>
      </trkpt>
      <trkpt lat="0" lon="0">
        <time>2021-02-28T08:04:28.349000+00:00</time>
      </trkpt>
      <trkpt lat="0" lon="0">
        <time>2021-02-28T08:04:28.352000+00:00</time>
      </trkpt>
      <trkpt lat="47.29412" lon="-1.39172">
        <ele>59</ele>
        <time>2021-02-28T08:04:29.269000+00:00</time>
      </trkpt>
      <trkpt lat="0" lon="0">
        <time>2021-02-28T08:04:29.271000+00:00</time>
      </trkpt>
      <trkpt lat="0" lon="0">
        <time>2021-02-28T08:04:29.274000+00:00</time>
      </trkpt>
      <trkpt lat="0" lon="0">
        <time>2021-02-28T08:04:29.275000+00:00</time>
      </trkpt>
      <trkpt lat="47.29411" lon="-1.39178">
        <ele>59</ele>
        <time>2021-02-28T08:04:30.275000+00:00</time>
      </trkpt>
      <trkpt lat="0" lon="0">
        <time>2021-02-28T08:04:30.283000+00:00</time>
      </trkpt>
      <trkpt lat="0" lon="0">
        <time>2021-02-28T08:04:30.288000+00:00</time>
      </trkpt>
      <trkpt lat="0" lon="0">
        <time>2021-02-28T08:04:30.290000+00:00</time>
      </trkpt>
      <trkpt lat="47.2941" lon="-1.39183">
        <ele>59</ele>
        <time>2021-02-28T08:04:31.282000+00:00</time>
      </trkpt>
      <trkpt lat="0" lon="0">
        <time>2021-02-28T08:04:31.288000+00:00</time>
      </trkpt>
      <trkpt lat="0" lon="0">
        <time>2021-02-28T08:04:31.294000+00:00</time>
      </trkpt>
      <trkpt lat="0" lon="0">
        <time>2021-02-28T08:04:31.297000+00:00</time>
      </trkpt>
      <trkpt lat="47.29409" lon="-1.39187">
        <ele>59</ele>
        <time>2021-02-28T08:04:32.299000+00:00</time>
      </trkpt>
      <trkpt lat="0" lon="0">
        <time>2021-02-28T08:04:32.316000+00:00</time>
      </trkpt>
      <trkpt lat="0" lon="0">
        <time>2021-02-28T08:04:32.323000+00:00</time>
      </trkpt>
      <trkpt lat="0" lon="0">
        <time>2021-02-28T08:04:32.329000+00:00</time>
      </trkpt>
      <trkpt lat="47.29409" lon="-1.39191">
        <ele>59</ele>
        <time>2021-02-28T08:04:33.296000+00:00</time>
      </trkpt>
      <trkpt lat="0" lon="0">
        <time>2021-02-28T08:04:33.303000+00:00</time>
      </trkpt>
      <trkpt lat="0" lon="0">
        <time>2021-02-28T08:04:33.315000+00:00</time>
      </trkpt>
      <trkpt lat="0" lon="0">
        <time>2021-02-28T08:04:33.319000+00:00</time>
      </trkpt>
      <trkpt lat="47.29408" lon="-1.39194">
        <ele>59</ele>
        <time>2021-02-28T08:04:34.274000+00:00</time>
      </trkpt>
      <trkpt lat="0" lon="0">
        <time>2021-02-28T08:04:34.283000+00:00</time>
      </trkpt>
      <trkpt lat="0" lon="0">
        <time>2021-02-28T08:04:34.289000+00:00</time>
      </trkpt>
      <trkpt lat="0" lon="0">
        <time>2021-02-28T08:04:34.293000+00:00</time>
      </trkpt>
      <trkpt lat="47.29407" lon="-1.39196">
        <ele>59</ele>
        <time>2021-02-28T08:04:35.299000+00:00</time>
      </trkpt>
      <trkpt lat="0" lon="0">
        <time>2021-02-28T08:04:35.308000+00:00</time>
      </trkpt>
      <trkpt lat="0" lon="0">
        <time>2021-02-28T08:04:35.316000+00:00</time>
      </trkpt>
      <trkpt lat="0" lon="0">
        <time>2021-02-28T08:04:35.318000+00:00</time>
      </trkpt>
      <trkpt lat="47.29407" lon="-1.39198">
        <ele>59</ele>
        <time>2021-02-28T08:04:36.298000+00:00</time>
      </trkpt>
      <trkpt lat="0" lon="0">
        <time>2021-02-28T08:04:36.306000+00:00</time>
      </trkpt>
      <trkpt lat="0" lon="0">
        <time>2021-02-28T08:04:36.312000+00:00</time>
      </trkpt>
      <trkpt lat="0" lon="0">
        <time>2021-02-28T08:04:36.315000+00:00</time>
      </trkpt>
      <trkpt lat="47.29406" lon="-1.39197">
        <ele>59</ele>
        <time>2021-02-28T08:04:37.267000+00:00</time>
      </trkpt>
      <trkpt lat="0" lon="0">
        <time>2021-02-28T08:04:37.272000+00:00</time>
      </trkpt>
      <trkpt lat="0" lon="0">
        <time>2021-02-28T08:04:37.276000+00:00</time>
      </trkpt>
      <trkpt lat="0" lon="0">
        <time>2021-02-28T08:04:37.279000+00:00</time>
      </trkpt>
      <trkpt lat="47.29406" lon="-1.39196">
        <ele>59</ele>
        <time>2021-02-28T08:04:38.208000+00:00</time>
      </trkpt>
      <trkpt lat="0" lon="0">
        <time>2021-02-28T08:04:38.211000+00:00</time>
      </trkpt>
      <trkpt lat="0" lon="0">
        <time>2021-02-28T08:04:38.215000+00:00</time>
      </trkpt>
      <trkpt lat="0" lon="0">
        <time>2021-02-28T08:04:38.216000+00:00</time>
      </trkpt>
      <trkpt lat="47.29407" lon="-1.39193">
        <ele>60</ele>
        <time>2021-02-28T08:04:39.260000+00:00</time>
      </trkpt>
      <trkpt lat="0" lon="0">
        <time>2021-02-28T08:04:39.265000+00:00</time>
      </trkpt>
      <trkpt lat="0" lon="0">
        <time>2021-02-28T08:04:39.273000+00:00</time>
      </trkpt>
      <trkpt lat="0" lon="0">
        <time>2021-02-28T08:04:39.275000+00:00</time>
      </trkpt>
      <trkpt lat="47.29406" lon="-1.39189">
        <ele>59</ele>
        <time>2021-02-28T08:04:40.284000+00:00</time>
      </trkpt>
      <trkpt lat="0" lon="0">
        <time>2021-02-28T08:04:40.286000+00:00</time>
      </trkpt>
      <trkpt lat="0" lon="0">
        <time>2021-02-28T08:04:40.288000+00:00</time>
      </trkpt>
      <trkpt lat="0" lon="0">
        <time>2021-02-28T08:04:40.290000+00:00</time>
      </trkpt>
      <trkpt lat="47.29406" lon="-1.39184">
        <ele>59</ele>
        <time>2021-02-28T08:04:41.271000+00:00</time>
      </trkpt>
      <trkpt lat="0" lon="0">
        <time>2021-02-28T08:04:41.277000+00:00</time>
      </trkpt>
      <trkpt lat="0" lon="0">
        <time>2021-02-28T08:04:41.283000+00:00</time>
      </trkpt>
      <trkpt lat="0" lon="0">
        <time>2021-02-28T08:04:41.286000+00:00</time>
      </trkpt>
      <trkpt lat="47.29405" lon="-1.39179">
        <ele>58</ele>
        <time>2021-02-28T08:04:42.308000+00:00</time>
      </trkpt>
      <trkpt lat="0" lon="0">
        <time>2021-02-28T08:04:42.316000+00:00</time>
      </trkpt>
      <trkpt lat="0" lon="0">
        <time>2021-02-28T08:04:42.320000+00:00</time>
      </trkpt>
      <trkpt lat="0" lon="0">
        <time>2021-02-28T08:04:42.323000+00:00</time>
      </trkpt>
      <trkpt lat="47.29403" lon="-1.39174">
        <ele>58</ele>
        <time>2021-02-28T08:04:43.268000+00:00</time>
      </trkpt>
      <trkpt lat="0" lon="0">
        <time>2021-02-28T08:04:43.278000+00:00</time>
      </trkpt>
      <trkpt lat="0" lon="0">
        <time>2021-02-28T08:04:43.283000+00:00</time>
      </trkpt>
      <trkpt lat="0" lon="0">
        <time>2021-02-28T08:04:43.285000+00:00</time>
      </trkpt>
      <trkpt lat="47.29401" lon="-1.3917">
        <ele>58</ele>
        <time>2021-02-28T08:04:44.287000+00:00</time>
      </trkpt>
      <trkpt lat="0" lon="0">
        <time>2021-02-28T08:04:44.298000+00:00</time>
      </trkpt>
      <trkpt lat="0" lon="0">
        <time>2021-02-28T08:04:44.302000+00:00</time>
      </trkpt>
      <trkpt lat="0" lon="0">
        <time>2021-02-28T08:04:44.304000+00:00</time>
      </trkpt>
      <trkpt lat="47.29398" lon="-1.39169">
        <ele>59</ele>
        <time>2021-02-28T08:04:45.280000+00:00</time>
      </trkpt>
      <trkpt lat="0" lon="0">
        <time>2021-02-28T08:04:45.285000+00:00</time>
      </trkpt>
      <trkpt lat="0" lon="0">
        <time>2021-02-28T08:04:45.290000+00:00</time>
      </trkpt>
      <trkpt lat="0" lon="0">
        <time>2021-02-28T08:04:45.293000+00:00</time>
      </trkpt>
      <trkpt lat="47.29395" lon="-1.39169">
        <ele>60</ele>
        <time>2021-02-28T08:04:46.303000+00:00</time>
      </trkpt>
      <trkpt lat="0" lon="0">
        <time>2021-02-28T08:04:46.309000+00:00</time>
      </trkpt>
      <trkpt lat="0" lon="0">
        <time>2021-02-28T08:04:46.315000+00:00</time>
      </trkpt>
      <trkpt lat="0" lon="0">
        <time>2021-02-28T08:04:46.318000+00:00</time>
      </trkpt>
      <trkpt lat="47.29392" lon="-1.39171">
        <ele>59</ele>
        <time>2021-02-28T08:04:47.276000+00:00</time>
      </trkpt>
      <trkpt lat="0" lon="0">
        <time>2021-02-28T08:04:47.282000+00:00</time>
      </trkpt>
      <trkpt lat="0" lon="0">
        <time>2021-02-28T08:04:47.286000+00:00</time>
      </trkpt>
      <trkpt lat="0" lon="0">
        <time>2021-02-28T08:04:47.289000+00:00</time>
      </trkpt>
      <trkpt lat="47.2939" lon="-1.39174">
        <ele>59</ele>
        <time>2021-02-28T08:04:48.306000+00:00</time>
      </trkpt>
      <trkpt lat="0" lon="0">
        <time>2021-02-28T08:04:48.315000+00:00</time>
      </trkpt>
      <trkpt lat="0" lon="0">
        <time>2021-02-28T08:04:48.320000+00:00</time>
      </trkpt>
      <trkpt lat="0" lon="0">
        <time>2021-02-28T08:04:48.323000+00:00</time>
      </trkpt>
      <trkpt lat="47.29389" lon="-1.39178">
        <ele>58</ele>
        <time>2021-02-28T08:04:49.287000+00:00</time>
      </trkpt>
      <trkpt lat="0" lon="0">
        <time>2021-02-28T08:04:49.293000+00:00</time>
      </trkpt>
      <trkpt lat="0" lon="0">
        <time>2021-02-28T08:04:49.299000+00:00</time>
      </trkpt>
      <trkpt lat="0" lon="0">
        <time>2021-02-28T08:04:49.303000+00:00</time>
      </trkpt>
      <trkpt lat="47.29388" lon="-1.39184">
        <ele>57</ele>
        <time>2021-02-28T08:04:50.342000+00:00</time>
      </trkpt>
      <trkpt lat="0" lon="0">
        <time>2021-02-28T08:04:50.348000+00:00</time>
      </trkpt>
      <trkpt lat="0" lon="0">
        <time>2021-02-28T08:04:50.355000+00:00</time>
      </trkpt>
      <trkpt lat="0" lon="0">
        <time>2021-02-28T08:04:50.358000+00:00</time>
      </trkpt>
      <trkpt lat="47.29387" lon="-1.3919">
        <ele>56</ele>
        <time>2021-02-28T08:04:51.266000+00:00</time>
      </trkpt>
      <trkpt lat="0" lon="0">
        <time>2021-02-28T08:04:51.271000+00:00</time>
      </trkpt>
      <trkpt lat="0" lon="0">
        <time>2021-02-28T08:04:51.276000+00:00</time>
      </trkpt>
      <trkpt lat="0" lon="0">
        <time>2021-02-28T08:04:51.278000+00:00</time>
      </trkpt>
      <trkpt lat="47.29386" lon="-1.39197">
        <ele>56</ele>
        <time>2021-02-28T08:04:52.286000+00:00</time>
      </trkpt>
      <trkpt lat="0" lon="0">
        <time>2021-02-28T08:04:52.299000+00:00</time>
      </trkpt>
      <trkpt lat="0" lon="0">
        <time>2021-02-28T08:04:52.306000+00:00</time>
      </trkpt>
      <trkpt lat="0" lon="0">
        <time>2021-02-28T08:04:52.309000+00:00</time>
      </trkpt>
      <trkpt lat="47.29386" lon="-1.39205">
        <ele>56</ele>
        <time>2021-02-28T08:04:53.300000+00:00</time>
      </trkpt>
      <trkpt lat="0" lon="0">
        <time>2021-02-28T08:04:53.312000+00:00</time>
      </trkpt>
      <trkpt lat="0" lon="0">
        <time>2021-02-28T08:04:53.317000+00:00</time>
      </trkpt>
      <trkpt lat="0" lon="0">
        <time>2021-02-28T08:04:53.320000+00:00</time>
      </trkpt>
      <trkpt lat="47.29385" lon="-1.39213">
        <ele>55</ele>
        <time>2021-02-28T08:04:54.301000+00:00</time>
      </trkpt>
      <trkpt lat="0" lon="0">
        <time>2021-02-28T08:04:54.318000+00:00</time>
      </trkpt>
      <trkpt lat="0" lon="0">
        <time>2021-02-28T08:04:54.322000+00:00</time>
      </trkpt>
      <trkpt lat="0" lon="0">
        <time>2021-02-28T08:04:54.325000+00:00</time>
      </trkpt>
      <trkpt lat="47.29385" lon="-1.39222">
        <ele>55</ele>
        <time>2021-02-28T08:04:55.305000+00:00</time>
      </trkpt>
      <trkpt lat="0" lon="0">
        <time>2021-02-28T08:04:55.312000+00:00</time>
      </trkpt>
      <trkpt lat="0" lon="0">
        <time>2021-02-28T08:04:55.317000+00:00</time>
      </trkpt>
      <trkpt lat="0" lon="0">
        <time>2021-02-28T08:04:55.320000+00:00</time>
      </trkpt>
      <trkpt lat="47.29384" lon="-1.39231">
        <ele>55</ele>
        <time>2021-02-28T08:04:56.301000+00:00</time>
      </trkpt>
      <trkpt lat="0" lon="0">
        <time>2021-02-28T08:04:56.321000+00:00</time>
      </trkpt>
      <trkpt lat="0" lon="0">
        <time>2021-02-28T08:04:56.326000+00:00</time>
      </trkpt>
      <trkpt lat="0" lon="0">
        <time>2021-02-28T08:04:56.329000+00:00</time>
      </trkpt>
      <trkpt lat="47.29384" lon="-1.39241">
        <ele>55</ele>
        <time>2021-02-28T08:04:57.271000+00:00</time>
      </trkpt>
      <trkpt lat="0" lon="0">
        <time>2021-02-28T08:04:57.278000+00:00</time>
      </trkpt>
      <trkpt lat="0" lon="0">
        <time>2021-02-28T08:04:57.283000+00:00</time>
      </trkpt>
      <trkpt lat="0" lon="0">
        <time>2021-02-28T08:04:57.286000+00:00</time>
      </trkpt>
      <trkpt lat="47.29383" lon="-1.3925">
        <ele>55</ele>
        <time>2021-02-28T08:04:58.307000+00:00</time>
      </trkpt>
      <trkpt lat="0" lon="0">
        <time>2021-02-28T08:04:58.322000+00:00</time>
      </trkpt>
      <trkpt lat="0" lon="0">
        <time>2021-02-28T08:04:58.326000+00:00</time>
      </trkpt>
      <trkpt lat="0" lon="0">
        <time>2021-02-28T08:04:58.328000+00:00</time>
      </trkpt>
      <trkpt lat="47.29383" lon="-1.39261">
        <ele>55</ele>
        <time>2021-02-28T08:04:59.302000+00:00</time>
      </trkpt>
      <trkpt lat="0" lon="0">
        <time>2021-02-28T08:04:59.312000+00:00</time>
      </trkpt>
      <trkpt lat="0" lon="0">
        <time>2021-02-28T08:04:59.317000+00:00</time>
      </trkpt>
      <trkpt lat="0" lon="0">
        <time>2021-02-28T08:04:59.319000+00:00</time>
      </trkpt>
      <trkpt lat="47.29382" lon="-1.39271">
        <ele>55</ele>
        <time>2021-02-28T08:05:00.329000+00:00</time>
      </trkpt>
      <trkpt lat="0" lon="0">
        <time>2021-02-28T08:05:00.341000+00:00</time>
      </trkpt>
      <trkpt lat="0" lon="0">
        <time>2021-02-28T08:05:00.346000+00:00</time>
      </trkpt>
      <trkpt lat="0" lon="0">
        <time>2021-02-28T08:05:00.350000+00:00</time>
      </trkpt>
      <trkpt lat="47.29381" lon="-1.39282">
        <ele>55</ele>
        <time>2021-02-28T08:05:01.300000+00:00</time>
      </trkpt>
      <trkpt lat="0" lon="0">
        <time>2021-02-28T08:05:01.311000+00:00</time>
      </trkpt>
      <trkpt lat="0" lon="0">
        <time>2021-02-28T08:05:01.315000+00:00</time>
      </trkpt>
      <trkpt lat="0" lon="0">
        <time>2021-02-28T08:05:01.317000+00:00</time>
      </trkpt>
      <trkpt lat="47.2938" lon="-1.39292">
        <ele>55</ele>
        <time>2021-02-28T08:05:02.303000+00:00</time>
      </trkpt>
      <trkpt lat="0" lon="0">
        <time>2021-02-28T08:05:02.316000+00:00</time>
      </trkpt>
      <trkpt lat="0" lon="0">
        <time>2021-02-28T08:05:02.322000+00:00</time>
      </trkpt>
      <trkpt lat="0" lon="0">
        <time>2021-02-28T08:05:02.324000+00:00</time>
      </trkpt>
      <trkpt lat="47.29379" lon="-1.39302">
        <ele>55</ele>
        <time>2021-02-28T08:05:03.265000+00:00</time>
      </trkpt>
      <trkpt lat="0" lon="0">
        <time>2021-02-28T08:05:03.272000+00:00</time>
      </trkpt>
      <trkpt lat="0" lon="0">
        <time>2021-02-28T08:05:03.276000+00:00</time>
      </trkpt>
      <trkpt lat="0" lon="0">
        <time>2021-02-28T08:05:03.279000+00:00</time>
      </trkpt>
      <trkpt lat="47.29378" lon="-1.39312">
        <ele>55</ele>
        <time>2021-02-28T08:05:04.296000+00:00</time>
      </trkpt>
      <trkpt lat="0" lon="0">
        <time>2021-02-28T08:05:04.306000+00:00</time>
      </trkpt>
      <trkpt lat="0" lon="0">
        <time>2021-02-28T08:05:04.314000+00:00</time>
      </trkpt>
      <trkpt lat="0" lon="0">
        <time>2021-02-28T08:05:04.317000+00:00</time>
      </trkpt>
      <trkpt lat="47.29376" lon="-1.39322">
        <ele>55</ele>
        <time>2021-02-28T08:05:05.335000+00:00</time>
      </trkpt>
      <trkpt lat="0" lon="0">
        <time>2021-02-28T08:05:05.341000+00:00</time>
      </trkpt>
      <trkpt lat="0" lon="0">
        <time>2021-02-28T08:05:05.347000+00:00</time>
      </trkpt>
      <trkpt lat="0" lon="0">
        <time>2021-02-28T08:05:05.350000+00:00</time>
      </trkpt>
      <trkpt lat="47.29375" lon="-1.39332">
        <ele>54</ele>
        <time>2021-02-28T08:05:06.309000+00:00</time>
      </trkpt>
      <trkpt lat="0" lon="0">
        <time>2021-02-28T08:05:06.323000+00:00</time>
      </trkpt>
      <trkpt lat="0" lon="0">
        <time>2021-02-28T08:05:06.329000+00:00</time>
      </trkpt>
      <trkpt lat="0" lon="0">
        <time>2021-02-28T08:05:06.332000+00:00</time>
      </trkpt>
      <trkpt lat="47.29373" lon="-1.39342">
        <ele>54</ele>
        <time>2021-02-28T08:05:07.327000+00:00</time>
      </trkpt>
      <trkpt lat="0" lon="0">
        <time>2021-02-28T08:05:07.334000+00:00</time>
      </trkpt>
      <trkpt lat="0" lon="0">
        <time>2021-02-28T08:05:07.340000+00:00</time>
      </trkpt>
      <trkpt lat="0" lon="0">
        <time>2021-02-28T08:05:07.342000+00:00</time>
      </trkpt>
      <trkpt lat="47.29371" lon="-1.39351">
        <ele>55</ele>
        <time>2021-02-28T08:05:08.257000+00:00</time>
      </trkpt>
      <trkpt lat="0" lon="0">
        <time>2021-02-28T08:05:08.260000+00:00</time>
      </trkpt>
      <trkpt lat="0" lon="0">
        <time>2021-02-28T08:05:08.262000+00:00</time>
      </trkpt>
      <trkpt lat="0" lon="0">
        <time>2021-02-28T08:05:08.264000+00:00</time>
      </trkpt>
      <trkpt lat="47.29369" lon="-1.3936">
        <ele>55</ele>
        <time>2021-02-28T08:05:09.289000+00:00</time>
      </trkpt>
      <trkpt lat="0" lon="0">
        <time>2021-02-28T08:05:09.305000+00:00</time>
      </trkpt>
      <trkpt lat="0" lon="0">
        <time>2021-02-28T08:05:09.309000+00:00</time>
      </trkpt>
      <trkpt lat="0" lon="0">
        <time>2021-02-28T08:05:09.312000+00:00</time>
      </trkpt>
      <trkpt lat="47.29367" lon="-1.39369">
        <ele>55</ele>
        <time>2021-02-28T08:05:10.305000+00:00</time>
      </trkpt>
      <trkpt lat="0" lon="0">
        <time>2021-02-28T08:05:10.318000+00:00</time>
      </trkpt>
      <trkpt lat="0" lon="0">
        <time>2021-02-28T08:05:10.324000+00:00</time>
      </trkpt>
      <trkpt lat="0" lon="0">
        <time>2021-02-28T08:05:10.329000+00:00</time>
      </trkpt>
      <trkpt lat="47.29365" lon="-1.39378">
        <ele>55</ele>
        <time>2021-02-28T08:05:11.316000+00:00</time>
      </trkpt>
      <trkpt lat="0" lon="0">
        <time>2021-02-28T08:05:11.328000+00:00</time>
      </trkpt>
      <trkpt lat="0" lon="0">
        <time>2021-02-28T08:05:11.336000+00:00</time>
      </trkpt>
      <trkpt lat="0" lon="0">
        <time>2021-02-28T08:05:11.339000+00:00</time>
      </trkpt>
      <trkpt lat="47.29363" lon="-1.39386">
        <ele>54</ele>
        <time>2021-02-28T08:05:12.280000+00:00</time>
      </trkpt>
      <trkpt lat="0" lon="0">
        <time>2021-02-28T08:05:12.297000+00:00</time>
      </trkpt>
      <trkpt lat="0" lon="0">
        <time>2021-02-28T08:05:12.304000+00:00</time>
      </trkpt>
      <trkpt lat="0" lon="0">
        <time>2021-02-28T08:05:12.307000+00:00</time>
      </trkpt>
      <trkpt lat="47.2936" lon="-1.39394">
        <ele>54</ele>
        <time>2021-02-28T08:05:13.299000+00:00</time>
      </trkpt>
      <trkpt lat="0" lon="0">
        <time>2021-02-28T08:05:13.306000+00:00</time>
      </trkpt>
      <trkpt lat="0" lon="0">
        <time>2021-02-28T08:05:13.312000+00:00</time>
      </trkpt>
      <trkpt lat="0" lon="0">
        <time>2021-02-28T08:05:13.315000+00:00</time>
      </trkpt>
      <trkpt lat="47.29358" lon="-1.39402">
        <ele>54</ele>
        <time>2021-02-28T08:05:14.329000+00:00</time>
      </trkpt>
      <trkpt lat="0" lon="0">
        <time>2021-02-28T08:05:14.348000+00:00</time>
      </trkpt>
      <trkpt lat="0" lon="0">
        <time>2021-02-28T08:05:14.356000+00:00</time>
      </trkpt>
      <trkpt lat="0" lon="0">
        <time>2021-02-28T08:05:14.358000+00:00</time>
      </trkpt>
      <trkpt lat="47.29355" lon="-1.3941">
        <ele>54</ele>
        <time>2021-02-28T08:05:15.305000+00:00</time>
      </trkpt>
      <trkpt lat="0" lon="0">
        <time>2021-02-28T08:05:15.320000+00:00</time>
      </trkpt>
      <trkpt lat="0" lon="0">
        <time>2021-02-28T08:05:15.327000+00:00</time>
      </trkpt>
      <trkpt lat="0" lon="0">
        <time>2021-02-28T08:05:15.331000+00:00</time>
      </trkpt>
      <trkpt lat="47.29352" lon="-1.39418">
        <ele>54</ele>
        <time>2021-02-28T08:05:16.325000+00:00</time>
      </trkpt>
      <trkpt lat="0" lon="0">
        <time>2021-02-28T08:05:16.332000+00:00</time>
      </trkpt>
      <trkpt lat="0" lon="0">
        <time>2021-02-28T08:05:16.338000+00:00</time>
      </trkpt>
      <trkpt lat="0" lon="0">
        <time>2021-02-28T08:05:16.341000+00:00</time>
      </trkpt>
      <trkpt lat="47.29349" lon="-1.39425">
        <ele>53</ele>
        <time>2021-02-28T08:05:17.327000+00:00</time>
      </trkpt>
      <trkpt lat="0" lon="0">
        <time>2021-02-28T08:05:17.337000+00:00</time>
      </trkpt>
      <trkpt lat="0" lon="0">
        <time>2021-02-28T08:05:17.343000+00:00</time>
      </trkpt>
      <trkpt lat="0" lon="0">
        <time>2021-02-28T08:05:17.346000+00:00</time>
      </trkpt>
      <trkpt lat="47.29346" lon="-1.39433">
        <ele>53</ele>
        <time>2021-02-28T08:05:18.294000+00:00</time>
      </trkpt>
      <trkpt lat="0" lon="0">
        <time>2021-02-28T08:05:18.299000+00:00</time>
      </trkpt>
      <trkpt lat="0" lon="0">
        <time>2021-02-28T08:05:18.305000+00:00</time>
      </trkpt>
      <trkpt lat="0" lon="0">
        <time>2021-02-28T08:05:18.309000+00:00</time>
      </trkpt>
      <trkpt lat="47.29343" lon="-1.39441">
        <ele>53</ele>
        <time>2021-02-28T08:05:19.299000+00:00</time>
      </trkpt>
      <trkpt lat="0" lon="0">
        <time>2021-02-28T08:05:19.310000+00:00</time>
      </trkpt>
      <trkpt lat="0" lon="0">
        <time>2021-02-28T08:05:19.315000+00:00</time>
      </trkpt>
      <trkpt lat="0" lon="0">
        <time>2021-02-28T08:05:19.318000+00:00</time>
      </trkpt>
      <trkpt lat="47.2934" lon="-1.39449">
        <ele>52</ele>
        <time>2021-02-28T08:05:20.298000+00:00</time>
      </trkpt>
      <trkpt lat="0" lon="0">
        <time>2021-02-28T08:05:20.322000+00:00</time>
      </trkpt>
      <trkpt lat="0" lon="0">
        <time>2021-02-28T08:05:20.328000+00:00</time>
      </trkpt>
      <trkpt lat="0" lon="0">
        <time>2021-02-28T08:05:20.331000+00:00</time>
      </trkpt>
      <trkpt lat="47.29337" lon="-1.39457">
        <ele>52</ele>
        <time>2021-02-28T08:05:21.310000+00:00</time>
      </trkpt>
      <trkpt lat="0" lon="0">
        <time>2021-02-28T08:05:21.319000+00:00</time>
      </trkpt>
      <trkpt lat="0" lon="0">
        <time>2021-02-28T08:05:21.325000+00:00</time>
      </trkpt>
      <trkpt lat="0" lon="0">
        <time>2021-02-28T08:05:21.328000+00:00</time>
      </trkpt>
      <trkpt lat="47.29333" lon="-1.39465">
        <ele>52</ele>
        <time>2021-02-28T08:05:22.313000+00:00</time>
      </trkpt>
      <trkpt lat="0" lon="0">
        <time>2021-02-28T08:05:22.327000+00:00</time>
      </trkpt>
      <trkpt lat="0" lon="0">
        <time>2021-02-28T08:05:22.333000+00:00</time>
      </trkpt>
      <trkpt lat="0" lon="0">
        <time>2021-02-28T08:05:22.337000+00:00</time>
      </trkpt>
      <trkpt lat="47.2933" lon="-1.39473">
        <ele>52</ele>
        <time>2021-02-28T08:05:23.290000+00:00</time>
      </trkpt>
      <trkpt lat="0" lon="0">
        <time>2021-02-28T08:05:23.295000+00:00</time>
      </trkpt>
      <trkpt lat="0" lon="0">
        <time>2021-02-28T08:05:23.300000+00:00</time>
      </trkpt>
      <trkpt lat="0" lon="0">
        <time>2021-02-28T08:05:23.302000+00:00</time>
      </trkpt>
      <trkpt lat="47.29327" lon="-1.39481">
        <ele>52</ele>
        <time>2021-02-28T08:05:24.284000+00:00</time>
      </trkpt>
      <trkpt lat="0" lon="0">
        <time>2021-02-28T08:05:24.293000+00:00</time>
      </trkpt>
      <trkpt lat="0" lon="0">
        <time>2021-02-28T08:05:24.299000+00:00</time>
      </trkpt>
      <trkpt lat="0" lon="0">
        <time>2021-02-28T08:05:24.302000+00:00</time>
      </trkpt>
      <trkpt lat="47.29323" lon="-1.39489">
        <ele>52</ele>
        <time>2021-02-28T08:05:25.303000+00:00</time>
      </trkpt>
      <trkpt lat="0" lon="0">
        <time>2021-02-28T08:05:25.311000+00:00</time>
      </trkpt>
      <trkpt lat="0" lon="0">
        <time>2021-02-28T08:05:25.317000+00:00</time>
      </trkpt>
      <trkpt lat="0" lon="0">
        <time>2021-02-28T08:05:25.320000+00:00</time>
      </trkpt>
      <trkpt lat="47.2932" lon="-1.39498">
        <ele>52</ele>
        <time>2021-02-28T08:05:26.282000+00:00</time>
      </trkpt>
      <trkpt lat="0" lon="0">
        <time>2021-02-28T08:05:26.287000+00:00</time>
      </trkpt>
      <trkpt lat="0" lon="0">
        <time>2021-02-28T08:05:26.296000+00:00</time>
      </trkpt>
      <trkpt lat="0" lon="0">
        <time>2021-02-28T08:05:26.298000+00:00</time>
      </trkpt>
      <trkpt lat="47.29317" lon="-1.39506">
        <ele>52</ele>
        <time>2021-02-28T08:05:27.293000+00:00</time>
      </trkpt>
      <trkpt lat="0" lon="0">
        <time>2021-02-28T08:05:27.299000+00:00</time>
      </trkpt>
      <trkpt lat="0" lon="0">
        <time>2021-02-28T08:05:27.306000+00:00</time>
      </trkpt>
      <trkpt lat="0" lon="0">
        <time>2021-02-28T08:05:27.309000+00:00</time>
      </trkpt>
      <trkpt lat="47.29313" lon="-1.39515">
        <ele>52</ele>
        <time>2021-02-28T08:05:28.327000+00:00</time>
      </trkpt>
      <trkpt lat="0" lon="0">
        <time>2021-02-28T08:05:28.336000+00:00</time>
      </trkpt>
      <trkpt lat="0" lon="0">
        <time>2021-02-28T08:05:28.344000+00:00</time>
      </trkpt>
      <trkpt lat="0" lon="0">
        <time>2021-02-28T08:05:28.349000+00:00</time>
      </trkpt>
      <trkpt lat="47.2931" lon="-1.39524">
        <ele>52</ele>
        <time>2021-02-28T08:05:29.299000+00:00</time>
      </trkpt>
      <trkpt lat="0" lon="0">
        <time>2021-02-28T08:05:29.306000+00:00</time>
      </trkpt>
      <trkpt lat="0" lon="0">
        <time>2021-02-28T08:05:29.312000+00:00</time>
      </trkpt>
      <trkpt lat="0" lon="0">
        <time>2021-02-28T08:05:29.315000+00:00</time>
      </trkpt>
      <trkpt lat="47.29307" lon="-1.39532">
        <ele>52</ele>
        <time>2021-02-28T08:05:30.298000+00:00</time>
      </trkpt>
      <trkpt lat="0" lon="0">
        <time>2021-02-28T08:05:30.303000+00:00</time>
      </trkpt>
      <trkpt lat="0" lon="0">
        <time>2021-02-28T08:05:30.308000+00:00</time>
      </trkpt>
      <trkpt lat="0" lon="0">
        <time>2021-02-28T08:05:30.311000+00:00</time>
      </trkpt>
      <trkpt lat="47.29304" lon="-1.39541">
        <ele>52</ele>
        <time>2021-02-28T08:05:31.313000+00:00</time>
      </trkpt>
      <trkpt lat="0" lon="0">
        <time>2021-02-28T08:05:31.322000+00:00</time>
      </trkpt>
      <trkpt lat="0" lon="0">
        <time>2021-02-28T08:05:31.326000+00:00</time>
      </trkpt>
      <trkpt lat="0" lon="0">
        <time>2021-02-28T08:05:31.328000+00:00</time>
      </trkpt>
      <trkpt lat="47.29301" lon="-1.3955">
        <ele>52</ele>
        <time>2021-02-28T08:05:32.312000+00:00</time>
      </trkpt>
      <trkpt lat="0" lon="0">
        <time>2021-02-28T08:05:32.315000+00:00</time>
      </trkpt>
      <trkpt lat="0" lon="0">
        <time>2021-02-28T08:05:32.317000+00:00</time>
      </trkpt>
      <trkpt lat="0" lon="0">
        <time>2021-02-28T08:05:32.318000+00:00</time>
      </trkpt>
      <trkpt lat="47.29298" lon="-1.39558">
        <ele>52</ele>
        <time>2021-02-28T08:05:33.284000+00:00</time>
      </trkpt>
      <trkpt lat="0" lon="0">
        <time>2021-02-28T08:05:33.300000+00:00</time>
      </trkpt>
      <trkpt lat="0" lon="0">
        <time>2021-02-28T08:05:33.306000+00:00</time>
      </trkpt>
      <trkpt lat="0" lon="0">
        <time>2021-02-28T08:05:33.314000+00:00</time>
      </trkpt>
      <trkpt lat="47.29295" lon="-1.39567">
        <ele>52</ele>
        <time>2021-02-28T08:05:34.276000+00:00</time>
      </trkpt>
      <trkpt lat="0" lon="0">
        <time>2021-02-28T08:05:34.287000+00:00</time>
      </trkpt>
      <trkpt lat="0" lon="0">
        <time>2021-02-28T08:05:34.295000+00:00</time>
      </trkpt>
      <trkpt lat="0" lon="0">
        <time>2021-02-28T08:05:34.297000+00:00</time>
      </trkpt>
      <trkpt lat="47.29293" lon="-1.39576">
        <ele>52</ele>
        <time>2021-02-28T08:05:35.297000+00:00</time>
      </trkpt>
      <trkpt lat="0" lon="0">
        <time>2021-02-28T08:05:35.311000+00:00</time>
      </trkpt>
      <trkpt lat="0" lon="0">
        <time>2021-02-28T08:05:35.319000+00:00</time>
      </trkpt>
      <trkpt lat="0" lon="0">
        <time>2021-02-28T08:05:35.324000+00:00</time>
      </trkpt>
      <trkpt lat="47.2929" lon="-1.39585">
        <ele>51</ele>
        <time>2021-02-28T08:05:36.283000+00:00</time>
      </trkpt>
      <trkpt lat="0" lon="0">
        <time>2021-02-28T08:05:36.290000+00:00</time>
      </trkpt>
      <trkpt lat="0" lon="0">
        <time>2021-02-28T08:05:36.297000+00:00</time>
      </trkpt>
      <trkpt lat="0" lon="0">
        <time>2021-02-28T08:05:36.303000+00:00</time>
      </trkpt>
      <trkpt lat="47.29287" lon="-1.39593">
        <ele>51</ele>
        <time>2021-02-28T08:05:37.255000+00:00</time>
      </trkpt>
      <trkpt lat="0" lon="0">
        <time>2021-02-28T08:05:37.260000+00:00</time>
      </trkpt>
      <trkpt lat="0" lon="0">
        <time>2021-02-28T08:05:37.264000+00:00</time>
      </trkpt>
      <trkpt lat="0" lon="0">
        <time>2021-02-28T08:05:37.267000+00:00</time>
      </trkpt>
      <trkpt lat="47.29284" lon="-1.39602">
        <ele>51</ele>
        <time>2021-02-28T08:05:38.317000+00:00</time>
      </trkpt>
      <trkpt lat="0" lon="0">
        <time>2021-02-28T08:05:38.326000+00:00</time>
      </trkpt>
      <trkpt lat="0" lon="0">
        <time>2021-02-28T08:05:38.332000+00:00</time>
      </trkpt>
      <trkpt lat="0" lon="0">
        <time>2021-02-28T08:05:38.335000+00:00</time>
      </trkpt>
      <trkpt lat="47.29281" lon="-1.39611">
        <ele>51</ele>
        <time>2021-02-28T08:05:39.301000+00:00</time>
      </trkpt>
      <trkpt lat="0" lon="0">
        <time>2021-02-28T08:05:39.307000+00:00</time>
      </trkpt>
      <trkpt lat="0" lon="0">
        <time>2021-02-28T08:05:39.316000+00:00</time>
      </trkpt>
      <trkpt lat="0" lon="0">
        <time>2021-02-28T08:05:39.320000+00:00</time>
      </trkpt>
      <trkpt lat="47.29278" lon="-1.39619">
        <ele>51</ele>
        <time>2021-02-28T08:05:40.277000+00:00</time>
      </trkpt>
      <trkpt lat="0" lon="0">
        <time>2021-02-28T08:05:40.283000+00:00</time>
      </trkpt>
      <trkpt lat="0" lon="0">
        <time>2021-02-28T08:05:40.288000+00:00</time>
      </trkpt>
      <trkpt lat="0" lon="0">
        <time>2021-02-28T08:05:40.292000+00:00</time>
      </trkpt>
      <trkpt lat="47.29275" lon="-1.39627">
        <ele>51</ele>
        <time>2021-02-28T08:05:41.268000+00:00</time>
      </trkpt>
      <trkpt lat="0" lon="0">
        <time>2021-02-28T08:05:41.274000+00:00</time>
      </trkpt>
      <trkpt lat="0" lon="0">
        <time>2021-02-28T08:05:41.280000+00:00</time>
      </trkpt>
      <trkpt lat="0" lon="0">
        <time>2021-02-28T08:05:41.282000+00:00</time>
      </trkpt>
      <trkpt lat="47.29272" lon="-1.39635">
        <ele>50</ele>
        <time>2021-02-28T08:05:42.302000+00:00</time>
      </trkpt>
      <trkpt lat="0" lon="0">
        <time>2021-02-28T08:05:42.314000+00:00</time>
      </trkpt>
      <trkpt lat="0" lon="0">
        <time>2021-02-28T08:05:42.322000+00:00</time>
      </trkpt>
      <trkpt lat="0" lon="0">
        <time>2021-02-28T08:05:42.324000+00:00</time>
      </trkpt>
      <trkpt lat="47.29269" lon="-1.39643">
        <ele>50</ele>
        <time>2021-02-28T08:05:43.272000+00:00</time>
      </trkpt>
      <trkpt lat="0" lon="0">
        <time>2021-02-28T08:05:43.282000+00:00</time>
      </trkpt>
      <trkpt lat="0" lon="0">
        <time>2021-02-28T08:05:43.285000+00:00</time>
      </trkpt>
      <trkpt lat="0" lon="0">
        <time>2021-02-28T08:05:43.287000+00:00</time>
      </trkpt>
      <trkpt lat="47.29266" lon="-1.39651">
        <ele>51</ele>
        <time>2021-02-28T08:05:44.302000+00:00</time>
      </trkpt>
      <trkpt lat="0" lon="0">
        <time>2021-02-28T08:05:44.315000+00:00</time>
      </trkpt>
      <trkpt lat="0" lon="0">
        <time>2021-02-28T08:05:44.320000+00:00</time>
      </trkpt>
      <trkpt lat="0" lon="0">
        <time>2021-02-28T08:05:44.323000+00:00</time>
      </trkpt>
      <trkpt lat="47.29263" lon="-1.39659">
        <ele>51</ele>
        <time>2021-02-28T08:05:45.259000+00:00</time>
      </trkpt>
      <trkpt lat="0" lon="0">
        <time>2021-02-28T08:05:45.268000+00:00</time>
      </trkpt>
      <trkpt lat="0" lon="0">
        <time>2021-02-28T08:05:45.274000+00:00</time>
      </trkpt>
      <trkpt lat="0" lon="0">
        <time>2021-02-28T08:05:45.276000+00:00</time>
      </trkpt>
      <trkpt lat="47.2926" lon="-1.39666">
        <ele>52</ele>
        <time>2021-02-28T08:05:46.297000+00:00</time>
      </trkpt>
      <trkpt lat="0" lon="0">
        <time>2021-02-28T08:05:46.311000+00:00</time>
      </trkpt>
      <trkpt lat="0" lon="0">
        <time>2021-02-28T08:05:46.318000+00:00</time>
      </trkpt>
      <trkpt lat="0" lon="0">
        <time>2021-02-28T08:05:46.321000+00:00</time>
      </trkpt>
      <trkpt lat="47.29257" lon="-1.39674">
        <ele>53</ele>
        <time>2021-02-28T08:05:47.297000+00:00</time>
      </trkpt>
      <trkpt lat="0" lon="0">
        <time>2021-02-28T08:05:47.310000+00:00</time>
      </trkpt>
      <trkpt lat="0" lon="0">
        <time>2021-02-28T08:05:47.316000+00:00</time>
      </trkpt>
      <trkpt lat="0" lon="0">
        <time>2021-02-28T08:05:47.320000+00:00</time>
      </trkpt>
      <trkpt lat="47.29254" lon="-1.39682">
        <ele>53</ele>
        <time>2021-02-28T08:05:48.303000+00:00</time>
      </trkpt>
      <trkpt lat="0" lon="0">
        <time>2021-02-28T08:05:48.316000+00:00</time>
      </trkpt>
      <trkpt lat="0" lon="0">
        <time>2021-02-28T08:05:48.323000+00:00</time>
      </trkpt>
      <trkpt lat="0" lon="0">
        <time>2021-02-28T08:05:48.327000+00:00</time>
      </trkpt>
      <trkpt lat="47.29251" lon="-1.3969">
        <ele>53</ele>
        <time>2021-02-28T08:05:49.274000+00:00</time>
      </trkpt>
      <trkpt lat="0" lon="0">
        <time>2021-02-28T08:05:49.276000+00:00</time>
      </trkpt>
      <trkpt lat="0" lon="0">
        <time>2021-02-28T08:05:49.278000+00:00</time>
      </trkpt>
      <trkpt lat="0" lon="0">
        <time>2021-02-28T08:05:49.279000+00:00</time>
      </trkpt>
      <trkpt lat="47.29249" lon="-1.39697">
        <ele>53</ele>
        <time>2021-02-28T08:05:50.218000+00:00</time>
      </trkpt>
      <trkpt lat="0" lon="0">
        <time>2021-02-28T08:05:50.223000+00:00</time>
      </trkpt>
      <trkpt lat="0" lon="0">
        <time>2021-02-28T08:05:50.228000+00:00</time>
      </trkpt>
      <trkpt lat="0" lon="0">
        <time>2021-02-28T08:05:50.230000+00:00</time>
      </trkpt>
      <trkpt lat="47.29246" lon="-1.39706">
        <ele>53</ele>
        <time>2021-02-28T08:05:51.264000+00:00</time>
      </trkpt>
      <trkpt lat="0" lon="0">
        <time>2021-02-28T08:05:51.277000+00:00</time>
      </trkpt>
      <trkpt lat="0" lon="0">
        <time>2021-02-28T08:05:51.282000+00:00</time>
      </trkpt>
      <trkpt lat="0" lon="0">
        <time>2021-02-28T08:05:51.286000+00:00</time>
      </trkpt>
      <trkpt lat="47.29243" lon="-1.39714">
        <ele>53</ele>
        <time>2021-02-28T08:05:52.271000+00:00</time>
      </trkpt>
      <trkpt lat="0" lon="0">
        <time>2021-02-28T08:05:52.281000+00:00</time>
      </trkpt>
      <trkpt lat="0" lon="0">
        <time>2021-02-28T08:05:52.285000+00:00</time>
      </trkpt>
      <trkpt lat="0" lon="0">
        <time>2021-02-28T08:05:52.288000+00:00</time>
      </trkpt>
      <trkpt lat="47.29241" lon="-1.39723">
        <ele>53</ele>
        <time>2021-02-28T08:05:53.277000+00:00</time>
      </trkpt>
      <trkpt lat="0" lon="0">
        <time>2021-02-28T08:05:53.288000+00:00</time>
      </trkpt>
      <trkpt lat="0" lon="0">
        <time>2021-02-28T08:05:53.293000+00:00</time>
      </trkpt>
      <trkpt lat="0" lon="0">
        <time>2021-02-28T08:05:53.297000+00:00</time>
      </trkpt>
      <trkpt lat="47.29238" lon="-1.39732">
        <ele>53</ele>
        <time>2021-02-28T08:05:54.243000+00:00</time>
      </trkpt>
      <trkpt lat="0" lon="0">
        <time>2021-02-28T08:05:54.256000+00:00</time>
      </trkpt>
      <trkpt lat="0" lon="0">
        <time>2021-02-28T08:05:54.262000+00:00</time>
      </trkpt>
      <trkpt lat="0" lon="0">
        <time>2021-02-28T08:05:54.266000+00:00</time>
      </trkpt>
      <trkpt lat="47.29235" lon="-1.3974">
        <ele>53</ele>
        <time>2021-02-28T08:05:55.269000+00:00</time>
      </trkpt>
      <trkpt lat="0" lon="0">
        <time>2021-02-28T08:05:55.277000+00:00</time>
      </trkpt>
      <trkpt lat="0" lon="0">
        <time>2021-02-28T08:05:55.287000+00:00</time>
      </trkpt>
      <trkpt lat="0" lon="0">
        <time>2021-02-28T08:05:55.289000+00:00</time>
      </trkpt>
      <trkpt lat="47.29233" lon="-1.39749">
        <ele>53</ele>
        <time>2021-02-28T08:05:56.280000+00:00</time>
      </trkpt>
      <trkpt lat="0" lon="0">
        <time>2021-02-28T08:05:56.288000+00:00</time>
      </trkpt>
      <trkpt lat="0" lon="0">
        <time>2021-02-28T08:05:56.293000+00:00</time>
      </trkpt>
      <trkpt lat="0" lon="0">
        <time>2021-02-28T08:05:56.296000+00:00</time>
      </trkpt>
      <trkpt lat="47.2923" lon="-1.39758">
        <ele>53</ele>
        <time>2021-02-28T08:05:57.296000+00:00</time>
      </trkpt>
      <trkpt lat="0" lon="0">
        <time>2021-02-28T08:05:57.302000+00:00</time>
      </trkpt>
      <trkpt lat="0" lon="0">
        <time>2021-02-28T08:05:57.307000+00:00</time>
      </trkpt>
      <trkpt lat="0" lon="0">
        <time>2021-02-28T08:05:57.310000+00:00</time>
      </trkpt>
      <trkpt lat="47.29227" lon="-1.39767">
        <ele>53</ele>
        <time>2021-02-28T08:05:58.292000+00:00</time>
      </trkpt>
      <trkpt lat="0" lon="0">
        <time>2021-02-28T08:05:58.303000+00:00</time>
      </trkpt>
      <trkpt lat="0" lon="0">
        <time>2021-02-28T08:05:58.308000+00:00</time>
      </trkpt>
      <trkpt lat="0" lon="0">
        <time>2021-02-28T08:05:58.311000+00:00</time>
      </trkpt>
      <trkpt lat="47.29224" lon="-1.39776">
        <ele>54</ele>
        <time>2021-02-28T08:05:59.281000+00:00</time>
      </trkpt>
      <trkpt lat="0" lon="0">
        <time>2021-02-28T08:05:59.287000+00:00</time>
      </trkpt>
      <trkpt lat="0" lon="0">
        <time>2021-02-28T08:05:59.297000+00:00</time>
      </trkpt>
      <trkpt lat="0" lon="0">
        <time>2021-02-28T08:05:59.300000+00:00</time>
      </trkpt>
      <trkpt lat="47.29221" lon="-1.39785">
        <ele>54</ele>
        <time>2021-02-28T08:06:00.298000+00:00</time>
      </trkpt>
      <trkpt lat="0" lon="0">
        <time>2021-02-28T08:06:00.304000+00:00</time>
      </trkpt>
      <trkpt lat="0" lon="0">
        <time>2021-02-28T08:06:00.308000+00:00</time>
      </trkpt>
      <trkpt lat="0" lon="0">
        <time>2021-02-28T08:06:00.312000+00:00</time>
      </trkpt>
      <trkpt lat="47.29219" lon="-1.39794">
        <ele>54</ele>
        <time>2021-02-28T08:06:01.247000+00:00</time>
      </trkpt>
      <trkpt lat="0" lon="0">
        <time>2021-02-28T08:06:01.256000+00:00</time>
      </trkpt>
      <trkpt lat="0" lon="0">
        <time>2021-02-28T08:06:01.258000+00:00</time>
      </trkpt>
      <trkpt lat="0" lon="0">
        <time>2021-02-28T08:06:01.260000+00:00</time>
      </trkpt>
      <trkpt lat="47.29215" lon="-1.39803">
        <ele>54</ele>
        <time>2021-02-28T08:06:02.220000+00:00</time>
      </trkpt>
      <trkpt lat="0" lon="0">
        <time>2021-02-28T08:06:02.227000+00:00</time>
      </trkpt>
      <trkpt lat="0" lon="0">
        <time>2021-02-28T08:06:02.232000+00:00</time>
      </trkpt>
      <trkpt lat="0" lon="0">
        <time>2021-02-28T08:06:02.235000+00:00</time>
      </trkpt>
      <trkpt lat="47.29212" lon="-1.39812">
        <ele>54</ele>
        <time>2021-02-28T08:06:03.283000+00:00</time>
      </trkpt>
      <trkpt lat="0" lon="0">
        <time>2021-02-28T08:06:03.290000+00:00</time>
      </trkpt>
      <trkpt lat="0" lon="0">
        <time>2021-02-28T08:06:03.297000+00:00</time>
      </trkpt>
      <trkpt lat="0" lon="0">
        <time>2021-02-28T08:06:03.300000+00:00</time>
      </trkpt>
      <trkpt lat="47.29209" lon="-1.39821">
        <ele>54</ele>
        <time>2021-02-28T08:06:04.301000+00:00</time>
      </trkpt>
      <trkpt lat="0" lon="0">
        <time>2021-02-28T08:06:04.319000+00:00</time>
      </trkpt>
      <trkpt lat="0" lon="0">
        <time>2021-02-28T08:06:04.325000+00:00</time>
      </trkpt>
      <trkpt lat="0" lon="0">
        <time>2021-02-28T08:06:04.328000+00:00</time>
      </trkpt>
      <trkpt lat="47.29206" lon="-1.39829">
        <ele>53</ele>
        <time>2021-02-28T08:06:05.269000+00:00</time>
      </trkpt>
      <trkpt lat="0" lon="0">
        <time>2021-02-28T08:06:05.278000+00:00</time>
      </trkpt>
      <trkpt lat="0" lon="0">
        <time>2021-02-28T08:06:05.283000+00:00</time>
      </trkpt>
      <trkpt lat="0" lon="0">
        <time>2021-02-28T08:06:05.287000+00:00</time>
      </trkpt>
      <trkpt lat="47.29203" lon="-1.39838">
        <ele>53</ele>
        <time>2021-02-28T08:06:06.283000+00:00</time>
      </trkpt>
      <trkpt lat="0" lon="0">
        <time>2021-02-28T08:06:06.294000+00:00</time>
      </trkpt>
      <trkpt lat="0" lon="0">
        <time>2021-02-28T08:06:06.300000+00:00</time>
      </trkpt>
      <trkpt lat="0" lon="0">
        <time>2021-02-28T08:06:06.303000+00:00</time>
      </trkpt>
      <trkpt lat="47.292" lon="-1.39847">
        <ele>53</ele>
        <time>2021-02-28T08:06:07.244000+00:00</time>
      </trkpt>
      <trkpt lat="0" lon="0">
        <time>2021-02-28T08:06:07.246000+00:00</time>
      </trkpt>
      <trkpt lat="0" lon="0">
        <time>2021-02-28T08:06:07.248000+00:00</time>
      </trkpt>
      <trkpt lat="0" lon="0">
        <time>2021-02-28T08:06:07.250000+00:00</time>
      </trkpt>
      <trkpt lat="47.29197" lon="-1.39855">
        <ele>53</ele>
        <time>2021-02-28T08:06:08.275000+00:00</time>
      </trkpt>
      <trkpt lat="0" lon="0">
        <time>2021-02-28T08:06:08.281000+00:00</time>
      </trkpt>
      <trkpt lat="0" lon="0">
        <time>2021-02-28T08:06:08.287000+00:00</time>
      </trkpt>
      <trkpt lat="0" lon="0">
        <time>2021-02-28T08:06:08.290000+00:00</time>
      </trkpt>
      <trkpt lat="47.29194" lon="-1.39864">
        <ele>53</ele>
        <time>2021-02-28T08:06:09.267000+00:00</time>
      </trkpt>
      <trkpt lat="0" lon="0">
        <time>2021-02-28T08:06:09.273000+00:00</time>
      </trkpt>
      <trkpt lat="0" lon="0">
        <time>2021-02-28T08:06:09.279000+00:00</time>
      </trkpt>
      <trkpt lat="0" lon="0">
        <time>2021-02-28T08:06:09.282000+00:00</time>
      </trkpt>
      <trkpt lat="47.29191" lon="-1.39873">
        <ele>53</ele>
        <time>2021-02-28T08:06:10.258000+00:00</time>
      </trkpt>
      <trkpt lat="0" lon="0">
        <time>2021-02-28T08:06:10.266000+00:00</time>
      </trkpt>
      <trkpt lat="0" lon="0">
        <time>2021-02-28T08:06:10.274000+00:00</time>
      </trkpt>
      <trkpt lat="0" lon="0">
        <time>2021-02-28T08:06:10.280000+00:00</time>
      </trkpt>
      <trkpt lat="47.29188" lon="-1.39882">
        <ele>53</ele>
        <time>2021-02-28T08:06:11.271000+00:00</time>
      </trkpt>
      <trkpt lat="0" lon="0">
        <time>2021-02-28T08:06:11.280000+00:00</time>
      </trkpt>
      <trkpt lat="0" lon="0">
        <time>2021-02-28T08:06:11.287000+00:00</time>
      </trkpt>
      <trkpt lat="0" lon="0">
        <time>2021-02-28T08:06:11.290000+00:00</time>
      </trkpt>
      <trkpt lat="47.29186" lon="-1.39891">
        <ele>53</ele>
        <time>2021-02-28T08:06:12.309000+00:00</time>
      </trkpt>
      <trkpt lat="0" lon="0">
        <time>2021-02-28T08:06:12.316000+00:00</time>
      </trkpt>
      <trkpt lat="0" lon="0">
        <time>2021-02-28T08:06:12.320000+00:00</time>
      </trkpt>
      <trkpt lat="0" lon="0">
        <time>2021-02-28T08:06:12.329000+00:00</time>
      </trkpt>
      <trkpt lat="47.29183" lon="-1.399">
        <ele>53</ele>
        <time>2021-02-28T08:06:13.275000+00:00</time>
      </trkpt>
      <trkpt lat="0" lon="0">
        <time>2021-02-28T08:06:13.277000+00:00</time>
      </trkpt>
      <trkpt lat="0" lon="0">
        <time>2021-02-28T08:06:13.280000+00:00</time>
      </trkpt>
      <trkpt lat="0" lon="0">
        <time>2021-02-28T08:06:13.281000+00:00</time>
      </trkpt>
      <trkpt lat="47.2918" lon="-1.39909">
        <ele>53</ele>
        <time>2021-02-28T08:06:14.283000+00:00</time>
      </trkpt>
      <trkpt lat="0" lon="0">
        <time>2021-02-28T08:06:14.292000+00:00</time>
      </trkpt>
      <trkpt lat="0" lon="0">
        <time>2021-02-28T08:06:14.298000+00:00</time>
      </trkpt>
      <trkpt lat="0" lon="0">
        <time>2021-02-28T08:06:14.302000+00:00</time>
      </trkpt>
      <trkpt lat="47.29178" lon="-1.39918">
        <ele>53</ele>
        <time>2021-02-28T08:06:15.262000+00:00</time>
      </trkpt>
      <trkpt lat="0" lon="0">
        <time>2021-02-28T08:06:15.272000+00:00</time>
      </trkpt>
      <trkpt lat="0" lon="0">
        <time>2021-02-28T08:06:15.277000+00:00</time>
      </trkpt>
      <trkpt lat="0" lon="0">
        <time>2021-02-28T08:06:15.279000+00:00</time>
      </trkpt>
      <trkpt lat="47.29176" lon="-1.39927">
        <ele>52</ele>
        <time>2021-02-28T08:06:16.274000+00:00</time>
      </trkpt>
      <trkpt lat="0" lon="0">
        <time>2021-02-28T08:06:16.280000+00:00</time>
      </trkpt>
      <trkpt lat="0" lon="0">
        <time>2021-02-28T08:06:16.286000+00:00</time>
      </trkpt>
      <trkpt lat="0" lon="0">
        <time>2021-02-28T08:06:16.289000+00:00</time>
      </trkpt>
      <trkpt lat="47.29174" lon="-1.39936">
        <ele>52</ele>
        <time>2021-02-28T08:06:17.306000+00:00</time>
      </trkpt>
      <trkpt lat="0" lon="0">
        <time>2021-02-28T08:06:17.315000+00:00</time>
      </trkpt>
      <trkpt lat="0" lon="0">
        <time>2021-02-28T08:06:17.321000+00:00</time>
      </trkpt>
      <trkpt lat="0" lon="0">
        <time>2021-02-28T08:06:17.324000+00:00</time>
      </trkpt>
      <trkpt lat="47.29172" lon="-1.39944">
        <ele>52</ele>
        <time>2021-02-28T08:06:18.304000+00:00</time>
      </trkpt>
      <trkpt lat="0" lon="0">
        <time>2021-02-28T08:06:18.317000+00:00</time>
      </trkpt>
      <trkpt lat="0" lon="0">
        <time>2021-02-28T08:06:18.322000+00:00</time>
      </trkpt>
      <trkpt lat="0" lon="0">
        <time>2021-02-28T08:06:18.325000+00:00</time>
      </trkpt>
      <trkpt lat="47.2917" lon="-1.39953">
        <ele>52</ele>
        <time>2021-02-28T08:06:19.284000+00:00</time>
      </trkpt>
      <trkpt lat="0" lon="0">
        <time>2021-02-28T08:06:19.291000+00:00</time>
      </trkpt>
      <trkpt lat="0" lon="0">
        <time>2021-02-28T08:06:19.301000+00:00</time>
      </trkpt>
      <trkpt lat="0" lon="0">
        <time>2021-02-28T08:06:19.304000+00:00</time>
      </trkpt>
      <trkpt lat="47.29169" lon="-1.39961">
        <ele>52</ele>
        <time>2021-02-28T08:06:20.318000+00:00</time>
      </trkpt>
      <trkpt lat="0" lon="0">
        <time>2021-02-28T08:06:20.323000+00:00</time>
      </trkpt>
      <trkpt lat="0" lon="0">
        <time>2021-02-28T08:06:20.332000+00:00</time>
      </trkpt>
      <trkpt lat="0" lon="0">
        <time>2021-02-28T08:06:20.336000+00:00</time>
      </trkpt>
      <trkpt lat="47.29167" lon="-1.3997">
        <ele>52</ele>
        <time>2021-02-28T08:06:21.285000+00:00</time>
      </trkpt>
      <trkpt lat="0" lon="0">
        <time>2021-02-28T08:06:21.290000+00:00</time>
      </trkpt>
      <trkpt lat="0" lon="0">
        <time>2021-02-28T08:06:21.295000+00:00</time>
      </trkpt>
      <trkpt lat="0" lon="0">
        <time>2021-02-28T08:06:21.298000+00:00</time>
      </trkpt>
      <trkpt lat="47.29166" lon="-1.39978">
        <ele>52</ele>
        <time>2021-02-28T08:06:22.304000+00:00</time>
      </trkpt>
      <trkpt lat="0" lon="0">
        <time>2021-02-28T08:06:22.319000+00:00</time>
      </trkpt>
      <trkpt lat="0" lon="0">
        <time>2021-02-28T08:06:22.332000+00:00</time>
      </trkpt>
      <trkpt lat="0" lon="0">
        <time>2021-02-28T08:06:22.338000+00:00</time>
      </trkpt>
      <trkpt lat="47.29165" lon="-1.39987">
        <ele>51</ele>
        <time>2021-02-28T08:06:23.304000+00:00</time>
      </trkpt>
      <trkpt lat="0" lon="0">
        <time>2021-02-28T08:06:23.316000+00:00</time>
      </trkpt>
      <trkpt lat="0" lon="0">
        <time>2021-02-28T08:06:23.322000+00:00</time>
      </trkpt>
      <trkpt lat="0" lon="0">
        <time>2021-02-28T08:06:23.327000+00:00</time>
      </trkpt>
      <trkpt lat="47.29164" lon="-1.39995">
        <ele>51</ele>
        <time>2021-02-28T08:06:24.334000+00:00</time>
      </trkpt>
      <trkpt lat="0" lon="0">
        <time>2021-02-28T08:06:24.344000+00:00</time>
      </trkpt>
      <trkpt lat="0" lon="0">
        <time>2021-02-28T08:06:24.351000+00:00</time>
      </trkpt>
      <trkpt lat="0" lon="0">
        <time>2021-02-28T08:06:24.354000+00:00</time>
      </trkpt>
      <trkpt lat="47.29163" lon="-1.40004">
        <ele>51</ele>
        <time>2021-02-28T08:06:25.284000+00:00</time>
      </trkpt>
      <trkpt lat="0" lon="0">
        <time>2021-02-28T08:06:25.292000+00:00</time>
      </trkpt>
      <trkpt lat="0" lon="0">
        <time>2021-02-28T08:06:25.297000+00:00</time>
      </trkpt>
      <trkpt lat="0" lon="0">
        <time>2021-02-28T08:06:25.300000+00:00</time>
      </trkpt>
      <trkpt lat="47.29162" lon="-1.40013">
        <ele>51</ele>
        <time>2021-02-28T08:06:26.232000+00:00</time>
      </trkpt>
      <trkpt lat="0" lon="0">
        <time>2021-02-28T08:06:26.251000+00:00</time>
      </trkpt>
      <trkpt lat="0" lon="0">
        <time>2021-02-28T08:06:26.254000+00:00</time>
      </trkpt>
      <trkpt lat="0" lon="0">
        <time>2021-02-28T08:06:26.256000+00:00</time>
      </trkpt>
      <trkpt lat="47.2916" lon="-1.40021">
        <ele>51</ele>
        <time>2021-02-28T08:06:27.190000+00:00</time>
      </trkpt>
      <trkpt lat="0" lon="0">
        <time>2021-02-28T08:06:27.197000+00:00</time>
      </trkpt>
      <trkpt lat="0" lon="0">
        <time>2021-02-28T08:06:27.201000+00:00</time>
      </trkpt>
      <trkpt lat="0" lon="0">
        <time>2021-02-28T08:06:27.204000+00:00</time>
      </trkpt>
      <trkpt lat="47.29159" lon="-1.4003">
        <ele>51</ele>
        <time>2021-02-28T08:06:28.283000+00:00</time>
      </trkpt>
      <trkpt lat="0" lon="0">
        <time>2021-02-28T08:06:28.294000+00:00</time>
      </trkpt>
      <trkpt lat="0" lon="0">
        <time>2021-02-28T08:06:28.301000+00:00</time>
      </trkpt>
      <trkpt lat="0" lon="0">
        <time>2021-02-28T08:06:28.306000+00:00</time>
      </trkpt>
      <trkpt lat="47.29158" lon="-1.40039">
        <ele>51</ele>
        <time>2021-02-28T08:06:29.303000+00:00</time>
      </trkpt>
      <trkpt lat="0" lon="0">
        <time>2021-02-28T08:06:29.309000+00:00</time>
      </trkpt>
      <trkpt lat="0" lon="0">
        <time>2021-02-28T08:06:29.314000+00:00</time>
      </trkpt>
      <trkpt lat="0" lon="0">
        <time>2021-02-28T08:06:29.316000+00:00</time>
      </trkpt>
      <trkpt lat="47.29157" lon="-1.40048">
        <ele>51</ele>
        <time>2021-02-28T08:06:30.290000+00:00</time>
      </trkpt>
      <trkpt lat="0" lon="0">
        <time>2021-02-28T08:06:30.295000+00:00</time>
      </trkpt>
      <trkpt lat="0" lon="0">
        <time>2021-02-28T08:06:30.298000+00:00</time>
      </trkpt>
      <trkpt lat="0" lon="0">
        <time>2021-02-28T08:06:30.300000+00:00</time>
      </trkpt>
      <trkpt lat="47.29155" lon="-1.40057">
        <ele>51</ele>
        <time>2021-02-28T08:06:31.292000+00:00</time>
      </trkpt>
      <trkpt lat="0" lon="0">
        <time>2021-02-28T08:06:31.305000+00:00</time>
      </trkpt>
      <trkpt lat="0" lon="0">
        <time>2021-02-28T08:06:31.312000+00:00</time>
      </trkpt>
      <trkpt lat="0" lon="0">
        <time>2021-02-28T08:06:31.315000+00:00</time>
      </trkpt>
      <trkpt lat="47.29154" lon="-1.40066">
        <ele>52</ele>
        <time>2021-02-28T08:06:32.257000+00:00</time>
      </trkpt>
      <trkpt lat="0" lon="0">
        <time>2021-02-28T08:06:32.266000+00:00</time>
      </trkpt>
      <trkpt lat="0" lon="0">
        <time>2021-02-28T08:06:32.272000+00:00</time>
      </trkpt>
      <trkpt lat="0" lon="0">
        <time>2021-02-28T08:06:32.274000+00:00</time>
      </trkpt>
      <trkpt lat="47.29152" lon="-1.40075">
        <ele>51</ele>
        <time>2021-02-28T08:06:33.285000+00:00</time>
      </trkpt>
      <trkpt lat="0" lon="0">
        <time>2021-02-28T08:06:33.293000+00:00</time>
      </trkpt>
      <trkpt lat="0" lon="0">
        <time>2021-02-28T08:06:33.298000+00:00</time>
      </trkpt>
      <trkpt lat="0" lon="0">
        <time>2021-02-28T08:06:33.301000+00:00</time>
      </trkpt>
      <trkpt lat="47.2915" lon="-1.40083">
        <ele>51</ele>
        <time>2021-02-28T08:06:34.310000+00:00</time>
      </trkpt>
      <trkpt lat="0" lon="0">
        <time>2021-02-28T08:06:34.321000+00:00</time>
      </trkpt>
      <trkpt lat="0" lon="0">
        <time>2021-02-28T08:06:34.329000+00:00</time>
      </trkpt>
      <trkpt lat="0" lon="0">
        <time>2021-02-28T08:06:34.333000+00:00</time>
      </trkpt>
      <trkpt lat="47.29148" lon="-1.40091">
        <ele>51</ele>
        <time>2021-02-28T08:06:35.267000+00:00</time>
      </trkpt>
      <trkpt lat="0" lon="0">
        <time>2021-02-28T08:06:35.281000+00:00</time>
      </trkpt>
      <trkpt lat="0" lon="0">
        <time>2021-02-28T08:06:35.287000+00:00</time>
      </trkpt>
      <trkpt lat="0" lon="0">
        <time>2021-02-28T08:06:35.290000+00:00</time>
      </trkpt>
      <trkpt lat="47.29146" lon="-1.40098">
        <ele>52</ele>
        <time>2021-02-28T08:06:36.296000+00:00</time>
      </trkpt>
      <trkpt lat="0" lon="0">
        <time>2021-02-28T08:06:36.306000+00:00</time>
      </trkpt>
      <trkpt lat="0" lon="0">
        <time>2021-02-28T08:06:36.311000+00:00</time>
      </trkpt>
      <trkpt lat="0" lon="0">
        <time>2021-02-28T08:06:36.314000+00:00</time>
      </trkpt>
      <trkpt lat="47.29144" lon="-1.40105">
        <ele>51</ele>
        <time>2021-02-28T08:06:37.314000+00:00</time>
      </trkpt>
      <trkpt lat="0" lon="0">
        <time>2021-02-28T08:06:37.320000+00:00</time>
      </trkpt>
      <trkpt lat="0" lon="0">
        <time>2021-02-28T08:06:37.326000+00:00</time>
      </trkpt>
      <trkpt lat="0" lon="0">
        <time>2021-02-28T08:06:37.328000+00:00</time>
      </trkpt>
      <trkpt lat="47.29142" lon="-1.40111">
        <ele>51</ele>
        <time>2021-02-28T08:06:38.309000+00:00</time>
      </trkpt>
      <trkpt lat="0" lon="0">
        <time>2021-02-28T08:06:38.318000+00:00</time>
      </trkpt>
      <trkpt lat="0" lon="0">
        <time>2021-02-28T08:06:38.326000+00:00</time>
      </trkpt>
      <trkpt lat="0" lon="0">
        <time>2021-02-28T08:06:38.329000+00:00</time>
      </trkpt>
      <trkpt lat="47.2914" lon="-1.40116">
        <ele>50</ele>
        <time>2021-02-28T08:06:39.272000+00:00</time>
      </trkpt>
      <trkpt lat="0" lon="0">
        <time>2021-02-28T08:06:39.282000+00:00</time>
      </trkpt>
      <trkpt lat="0" lon="0">
        <time>2021-02-28T08:06:39.288000+00:00</time>
      </trkpt>
      <trkpt lat="0" lon="0">
        <time>2021-02-28T08:06:39.291000+00:00</time>
      </trkpt>
      <trkpt lat="47.29138" lon="-1.40121">
        <ele>51</ele>
        <time>2021-02-28T08:06:40.290000+00:00</time>
      </trkpt>
      <trkpt lat="0" lon="0">
        <time>2021-02-28T08:06:40.297000+00:00</time>
      </trkpt>
      <trkpt lat="0" lon="0">
        <time>2021-02-28T08:06:40.302000+00:00</time>
      </trkpt>
      <trkpt lat="0" lon="0">
        <time>2021-02-28T08:06:40.304000+00:00</time>
      </trkpt>
      <trkpt lat="47.29137" lon="-1.40126">
        <ele>51</ele>
        <time>2021-02-28T08:06:41.295000+00:00</time>
      </trkpt>
      <trkpt lat="0" lon="0">
        <time>2021-02-28T08:06:41.303000+00:00</time>
      </trkpt>
      <trkpt lat="0" lon="0">
        <time>2021-02-28T08:06:41.308000+00:00</time>
      </trkpt>
      <trkpt lat="0" lon="0">
        <time>2021-02-28T08:06:41.312000+00:00</time>
      </trkpt>
      <trkpt lat="47.29135" lon="-1.4013">
        <ele>51</ele>
        <time>2021-02-28T08:06:42.192000+00:00</time>
      </trkpt>
      <trkpt lat="0" lon="0">
        <time>2021-02-28T08:06:42.194000+00:00</time>
      </trkpt>
      <trkpt lat="0" lon="0">
        <time>2021-02-28T08:06:42.195000+00:00</time>
      </trkpt>
      <trkpt lat="0" lon="0">
        <time>2021-02-28T08:06:42.196000+00:00</time>
      </trkpt>
      <trkpt lat="47.29133" lon="-1.40133">
        <ele>51</ele>
        <time>2021-02-28T08:06:43.262000+00:00</time>
      </trkpt>
      <trkpt lat="0" lon="0">
        <time>2021-02-28T08:06:43.268000+00:00</time>
      </trkpt>
      <trkpt lat="0" lon="0">
        <time>2021-02-28T08:06:43.272000+00:00</time>
      </trkpt>
      <trkpt lat="0" lon="0">
        <time>2021-02-28T08:06:43.275000+00:00</time>
      </trkpt>
      <trkpt lat="47.29131" lon="-1.40137">
        <ele>51</ele>
        <time>2021-02-28T08:06:44.255000+00:00</time>
      </trkpt>
      <trkpt lat="0" lon="0">
        <time>2021-02-28T08:06:44.267000+00:00</time>
      </trkpt>
      <trkpt lat="0" lon="0">
        <time>2021-02-28T08:06:44.272000+00:00</time>
      </trkpt>
      <trkpt lat="0" lon="0">
        <time>2021-02-28T08:06:44.274000+00:00</time>
      </trkpt>
      <trkpt lat="47.2913" lon="-1.4014">
        <ele>52</ele>
        <time>2021-02-28T08:06:45.284000+00:00</time>
      </trkpt>
      <trkpt lat="0" lon="0">
        <time>2021-02-28T08:06:45.289000+00:00</time>
      </trkpt>
      <trkpt lat="0" lon="0">
        <time>2021-02-28T08:06:45.294000+00:00</time>
      </trkpt>
      <trkpt lat="0" lon="0">
        <time>2021-02-28T08:06:45.297000+00:00</time>
      </trkpt>
      <trkpt lat="47.29128" lon="-1.40144">
        <ele>52</ele>
        <time>2021-02-28T08:06:46.281000+00:00</time>
      </trkpt>
      <trkpt lat="0" lon="0">
        <time>2021-02-28T08:06:46.289000+00:00</time>
      </trkpt>
      <trkpt lat="0" lon="0">
        <time>2021-02-28T08:06:46.297000+00:00</time>
      </trkpt>
      <trkpt lat="0" lon="0">
        <time>2021-02-28T08:06:46.300000+00:00</time>
      </trkpt>
      <trkpt lat="47.29126" lon="-1.40147">
        <ele>52</ele>
        <time>2021-02-28T08:06:47.281000+00:00</time>
      </trkpt>
      <trkpt lat="0" lon="0">
        <time>2021-02-28T08:06:47.288000+00:00</time>
      </trkpt>
      <trkpt lat="0" lon="0">
        <time>2021-02-28T08:06:47.290000+00:00</time>
      </trkpt>
      <trkpt lat="0" lon="0">
        <time>2021-02-28T08:06:47.291000+00:00</time>
      </trkpt>
      <trkpt lat="47.29124" lon="-1.4015">
        <ele>53</ele>
        <time>2021-02-28T08:06:48.322000+00:00</time>
      </trkpt>
      <trkpt lat="0" lon="0">
        <time>2021-02-28T08:06:48.328000+00:00</time>
      </trkpt>
      <trkpt lat="0" lon="0">
        <time>2021-02-28T08:06:48.333000+00:00</time>
      </trkpt>
      <trkpt lat="0" lon="0">
        <time>2021-02-28T08:06:48.336000+00:00</time>
      </trkpt>
      <trkpt lat="47.29122" lon="-1.40154">
        <ele>53</ele>
        <time>2021-02-28T08:06:49.304000+00:00</time>
      </trkpt>
      <trkpt lat="0" lon="0">
        <time>2021-02-28T08:06:49.319000+00:00</time>
      </trkpt>
      <trkpt lat="0" lon="0">
        <time>2021-02-28T08:06:49.329000+00:00</time>
      </trkpt>
      <trkpt lat="0" lon="0">
        <time>2021-02-28T08:06:49.332000+00:00</time>
      </trkpt>
      <trkpt lat="47.2912" lon="-1.40158">
        <ele>54</ele>
        <time>2021-02-28T08:06:50.284000+00:00</time>
      </trkpt>
      <trkpt lat="0" lon="0">
        <time>2021-02-28T08:06:50.291000+00:00</time>
      </trkpt>
      <trkpt lat="0" lon="0">
        <time>2021-02-28T08:06:50.298000+00:00</time>
      </trkpt>
      <trkpt lat="0" lon="0">
        <time>2021-02-28T08:06:50.301000+00:00</time>
      </trkpt>
      <trkpt lat="47.29118" lon="-1.40161">
        <ele>55</ele>
        <time>2021-02-28T08:06:51.321000+00:00</time>
      </trkpt>
      <trkpt lat="0" lon="0">
        <time>2021-02-28T08:06:51.331000+00:00</time>
      </trkpt>
      <trkpt lat="0" lon="0">
        <time>2021-02-28T08:06:51.338000+00:00</time>
      </trkpt>
      <trkpt lat="0" lon="0">
        <time>2021-02-28T08:06:51.341000+00:00</time>
      </trkpt>
      <trkpt lat="47.29116" lon="-1.40165">
        <ele>56</ele>
        <time>2021-02-28T08:06:52.290000+00:00</time>
      </trkpt>
      <trkpt lat="0" lon="0">
        <time>2021-02-28T08:06:52.299000+00:00</time>
      </trkpt>
      <trkpt lat="0" lon="0">
        <time>2021-02-28T08:06:52.304000+00:00</time>
      </trkpt>
      <trkpt lat="0" lon="0">
        <time>2021-02-28T08:06:52.306000+00:00</time>
      </trkpt>
      <trkpt lat="47.29113" lon="-1.4017">
        <ele>56</ele>
        <time>2021-02-28T08:06:53.325000+00:00</time>
      </trkpt>
      <trkpt lat="0" lon="0">
        <time>2021-02-28T08:06:53.335000+00:00</time>
      </trkpt>
      <trkpt lat="0" lon="0">
        <time>2021-02-28T08:06:53.343000+00:00</time>
      </trkpt>
      <trkpt lat="0" lon="0">
        <time>2021-02-28T08:06:53.346000+00:00</time>
      </trkpt>
      <trkpt lat="47.2911" lon="-1.40174">
        <ele>57</ele>
        <time>2021-02-28T08:06:54.328000+00:00</time>
      </trkpt>
      <trkpt lat="0" lon="0">
        <time>2021-02-28T08:06:54.336000+00:00</time>
      </trkpt>
      <trkpt lat="0" lon="0">
        <time>2021-02-28T08:06:54.340000+00:00</time>
      </trkpt>
      <trkpt lat="0" lon="0">
        <time>2021-02-28T08:06:54.343000+00:00</time>
      </trkpt>
      <trkpt lat="47.29107" lon="-1.40179">
        <ele>57</ele>
        <time>2021-02-28T08:06:55.343000+00:00</time>
      </trkpt>
      <trkpt lat="0" lon="0">
        <time>2021-02-28T08:06:55.355000+00:00</time>
      </trkpt>
      <trkpt lat="0" lon="0">
        <time>2021-02-28T08:06:55.363000+00:00</time>
      </trkpt>
      <trkpt lat="0" lon="0">
        <time>2021-02-28T08:06:55.368000+00:00</time>
      </trkpt>
      <trkpt lat="47.29104" lon="-1.40184">
        <ele>57</ele>
        <time>2021-02-28T08:06:56.308000+00:00</time>
      </trkpt>
      <trkpt lat="0" lon="0">
        <time>2021-02-28T08:06:56.316000+00:00</time>
      </trkpt>
      <trkpt lat="0" lon="0">
        <time>2021-02-28T08:06:56.322000+00:00</time>
      </trkpt>
      <trkpt lat="0" lon="0">
        <time>2021-02-28T08:06:56.324000+00:00</time>
      </trkpt>
      <trkpt lat="47.29101" lon="-1.4019">
        <ele>57</ele>
        <time>2021-02-28T08:06:57.317000+00:00</time>
      </trkpt>
      <trkpt lat="0" lon="0">
        <time>2021-02-28T08:06:57.322000+00:00</time>
      </trkpt>
      <trkpt lat="0" lon="0">
        <time>2021-02-28T08:06:57.330000+00:00</time>
      </trkpt>
      <trkpt lat="0" lon="0">
        <time>2021-02-28T08:06:57.333000+00:00</time>
      </trkpt>
      <trkpt lat="47.29098" lon="-1.40195">
        <ele>58</ele>
        <time>2021-02-28T08:06:58.334000+00:00</time>
      </trkpt>
      <trkpt lat="0" lon="0">
        <time>2021-02-28T08:06:58.341000+00:00</time>
      </trkpt>
      <trkpt lat="0" lon="0">
        <time>2021-02-28T08:06:58.346000+00:00</time>
      </trkpt>
      <trkpt lat="0" lon="0">
        <time>2021-02-28T08:06:58.350000+00:00</time>
      </trkpt>
      <trkpt lat="47.29094" lon="-1.40201">
        <ele>57</ele>
        <time>2021-02-28T08:06:59.320000+00:00</time>
      </trkpt>
      <trkpt lat="0" lon="0">
        <time>2021-02-28T08:06:59.326000+00:00</time>
      </trkpt>
      <trkpt lat="0" lon="0">
        <time>2021-02-28T08:06:59.328000+00:00</time>
      </trkpt>
      <trkpt lat="0" lon="0">
        <time>2021-02-28T08:06:59.329000+00:00</time>
      </trkpt>
      <trkpt lat="47.2909" lon="-1.40207">
        <ele>57</ele>
        <time>2021-02-28T08:07:00.318000+00:00</time>
      </trkpt>
      <trkpt lat="0" lon="0">
        <time>2021-02-28T08:07:00.325000+00:00</time>
      </trkpt>
      <trkpt lat="0" lon="0">
        <time>2021-02-28T08:07:00.332000+00:00</time>
      </trkpt>
      <trkpt lat="0" lon="0">
        <time>2021-02-28T08:07:00.334000+00:00</time>
      </trkpt>
      <trkpt lat="47.29087" lon="-1.40213">
        <ele>57</ele>
        <time>2021-02-28T08:07:01.357000+00:00</time>
      </trkpt>
      <trkpt lat="0" lon="0">
        <time>2021-02-28T08:07:01.368000+00:00</time>
      </trkpt>
      <trkpt lat="0" lon="0">
        <time>2021-02-28T08:07:01.372000+00:00</time>
      </trkpt>
      <trkpt lat="0" lon="0">
        <time>2021-02-28T08:07:01.375000+00:00</time>
      </trkpt>
      <trkpt lat="47.29083" lon="-1.4022">
        <ele>57</ele>
        <time>2021-02-28T08:07:02.375000+00:00</time>
      </trkpt>
      <trkpt lat="0" lon="0">
        <time>2021-02-28T08:07:02.387000+00:00</time>
      </trkpt>
      <trkpt lat="0" lon="0">
        <time>2021-02-28T08:07:02.394000+00:00</time>
      </trkpt>
      <trkpt lat="0" lon="0">
        <time>2021-02-28T08:07:02.397000+00:00</time>
      </trkpt>
      <trkpt lat="47.29079" lon="-1.40226">
        <ele>56</ele>
        <time>2021-02-28T08:07:03.366000+00:00</time>
      </trkpt>
      <trkpt lat="0" lon="0">
        <time>2021-02-28T08:07:03.372000+00:00</time>
      </trkpt>
      <trkpt lat="0" lon="0">
        <time>2021-02-28T08:07:03.378000+00:00</time>
      </trkpt>
      <trkpt lat="0" lon="0">
        <time>2021-02-28T08:07:03.381000+00:00</time>
      </trkpt>
      <trkpt lat="47.29075" lon="-1.40233">
        <ele>56</ele>
        <time>2021-02-28T08:07:04.352000+00:00</time>
      </trkpt>
      <trkpt lat="0" lon="0">
        <time>2021-02-28T08:07:04.362000+00:00</time>
      </trkpt>
      <trkpt lat="0" lon="0">
        <time>2021-02-28T08:07:04.370000+00:00</time>
      </trkpt>
      <trkpt lat="0" lon="0">
        <time>2021-02-28T08:07:04.372000+00:00</time>
      </trkpt>
      <trkpt lat="47.29071" lon="-1.40239">
        <ele>56</ele>
        <time>2021-02-28T08:07:05.353000+00:00</time>
      </trkpt>
      <trkpt lat="0" lon="0">
        <time>2021-02-28T08:07:05.359000+00:00</time>
      </trkpt>
      <trkpt lat="0" lon="0">
        <time>2021-02-28T08:07:05.361000+00:00</time>
      </trkpt>
      <trkpt lat="0" lon="0">
        <time>2021-02-28T08:07:05.362000+00:00</time>
      </trkpt>
      <trkpt lat="47.29067" lon="-1.40246">
        <ele>56</ele>
        <time>2021-02-28T08:07:06.303000+00:00</time>
      </trkpt>
      <trkpt lat="0" lon="0">
        <time>2021-02-28T08:07:06.310000+00:00</time>
      </trkpt>
      <trkpt lat="0" lon="0">
        <time>2021-02-28T08:07:06.314000+00:00</time>
      </trkpt>
      <trkpt lat="0" lon="0">
        <time>2021-02-28T08:07:06.317000+00:00</time>
      </trkpt>
      <trkpt lat="47.29063" lon="-1.40252">
        <ele>56</ele>
        <time>2021-02-28T08:07:07.331000+00:00</time>
      </trkpt>
      <trkpt lat="0" lon="0">
        <time>2021-02-28T08:07:07.339000+00:00</time>
      </trkpt>
      <trkpt lat="0" lon="0">
        <time>2021-02-28T08:07:07.348000+00:00</time>
      </trkpt>
      <trkpt lat="0" lon="0">
        <time>2021-02-28T08:07:07.352000+00:00</time>
      </trkpt>
      <trkpt lat="47.29059" lon="-1.40259">
        <ele>57</ele>
        <time>2021-02-28T08:07:08.322000+00:00</time>
      </trkpt>
      <trkpt lat="0" lon="0">
        <time>2021-02-28T08:07:08.327000+00:00</time>
      </trkpt>
      <trkpt lat="0" lon="0">
        <time>2021-02-28T08:07:08.331000+00:00</time>
      </trkpt>
      <trkpt lat="0" lon="0">
        <time>2021-02-28T08:07:08.334000+00:00</time>
      </trkpt>
      <trkpt lat="47.29055" lon="-1.40266">
        <ele>57</ele>
        <time>2021-02-28T08:07:09.325000+00:00</time>
      </trkpt>
      <trkpt lat="0" lon="0">
        <time>2021-02-28T08:07:09.331000+00:00</time>
      </trkpt>
      <trkpt lat="0" lon="0">
        <time>2021-02-28T08:07:09.338000+00:00</time>
      </trkpt>
      <trkpt lat="0" lon="0">
        <time>2021-02-28T08:07:09.340000+00:00</time>
      </trkpt>
      <trkpt lat="47.29051" lon="-1.40272">
        <ele>58</ele>
        <time>2021-02-28T08:07:10.333000+00:00</time>
      </trkpt>
      <trkpt lat="0" lon="0">
        <time>2021-02-28T08:07:10.346000+00:00</time>
      </trkpt>
      <trkpt lat="0" lon="0">
        <time>2021-02-28T08:07:10.352000+00:00</time>
      </trkpt>
      <trkpt lat="0" lon="0">
        <time>2021-02-28T08:07:10.355000+00:00</time>
      </trkpt>
      <trkpt lat="47.29047" lon="-1.40279">
        <ele>58</ele>
        <time>2021-02-28T08:07:11.314000+00:00</time>
      </trkpt>
      <trkpt lat="0" lon="0">
        <time>2021-02-28T08:07:11.328000+00:00</time>
      </trkpt>
      <trkpt lat="0" lon="0">
        <time>2021-02-28T08:07:11.333000+00:00</time>
      </trkpt>
      <trkpt lat="0" lon="0">
        <time>2021-02-28T08:07:11.336000+00:00</time>
      </trkpt>
      <trkpt lat="47.29043" lon="-1.40285">
        <ele>58</ele>
        <time>2021-02-28T08:07:12.306000+00:00</time>
      </trkpt>
      <trkpt lat="0" lon="0">
        <time>2021-02-28T08:07:12.316000+00:00</time>
      </trkpt>
      <trkpt lat="0" lon="0">
        <time>2021-02-28T08:07:12.321000+00:00</time>
      </trkpt>
      <trkpt lat="0" lon="0">
        <time>2021-02-28T08:07:12.323000+00:00</time>
      </trkpt>
      <trkpt lat="47.29039" lon="-1.40292">
        <ele>58</ele>
        <time>2021-02-28T08:07:13.295000+00:00</time>
      </trkpt>
      <trkpt lat="0" lon="0">
        <time>2021-02-28T08:07:13.301000+00:00</time>
      </trkpt>
      <trkpt lat="0" lon="0">
        <time>2021-02-28T08:07:13.307000+00:00</time>
      </trkpt>
      <trkpt lat="0" lon="0">
        <time>2021-02-28T08:07:13.308000+00:00</time>
      </trkpt>
      <trkpt lat="47.29035" lon="-1.40298">
        <ele>58</ele>
        <time>2021-02-28T08:07:14.336000+00:00</time>
      </trkpt>
      <trkpt lat="0" lon="0">
        <time>2021-02-28T08:07:14.343000+00:00</time>
      </trkpt>
      <trkpt lat="0" lon="0">
        <time>2021-02-28T08:07:14.348000+00:00</time>
      </trkpt>
      <trkpt lat="0" lon="0">
        <time>2021-02-28T08:07:14.351000+00:00</time>
      </trkpt>
      <trkpt lat="47.29031" lon="-1.40305">
        <ele>58</ele>
        <time>2021-02-28T08:07:15.335000+00:00</time>
      </trkpt>
      <trkpt lat="0" lon="0">
        <time>2021-02-28T08:07:15.344000+00:00</time>
      </trkpt>
      <trkpt lat="0" lon="0">
        <time>2021-02-28T08:07:15.352000+00:00</time>
      </trkpt>
      <trkpt lat="0" lon="0">
        <time>2021-02-28T08:07:15.355000+00:00</time>
      </trkpt>
      <trkpt lat="47.29026" lon="-1.40311">
        <ele>58</ele>
        <time>2021-02-28T08:07:16.306000+00:00</time>
      </trkpt>
      <trkpt lat="0" lon="0">
        <time>2021-02-28T08:07:16.311000+00:00</time>
      </trkpt>
      <trkpt lat="0" lon="0">
        <time>2021-02-28T08:07:16.313000+00:00</time>
      </trkpt>
      <trkpt lat="0" lon="0">
        <time>2021-02-28T08:07:16.315000+00:00</time>
      </trkpt>
      <trkpt lat="47.29022" lon="-1.40317">
        <ele>59</ele>
        <time>2021-02-28T08:07:17.280000+00:00</time>
      </trkpt>
      <trkpt lat="0" lon="0">
        <time>2021-02-28T08:07:17.286000+00:00</time>
      </trkpt>
      <trkpt lat="0" lon="0">
        <time>2021-02-28T08:07:17.291000+00:00</time>
      </trkpt>
      <trkpt lat="0" lon="0">
        <time>2021-02-28T08:07:17.293000+00:00</time>
      </trkpt>
      <trkpt lat="47.29018" lon="-1.40323">
        <ele>59</ele>
        <time>2021-02-28T08:07:18.339000+00:00</time>
      </trkpt>
      <trkpt lat="0" lon="0">
        <time>2021-02-28T08:07:18.347000+00:00</time>
      </trkpt>
      <trkpt lat="0" lon="0">
        <time>2021-02-28T08:07:18.352000+00:00</time>
      </trkpt>
      <trkpt lat="0" lon="0">
        <time>2021-02-28T08:07:18.355000+00:00</time>
      </trkpt>
      <trkpt lat="47.29014" lon="-1.40329">
        <ele>59</ele>
        <time>2021-02-28T08:07:19.323000+00:00</time>
      </trkpt>
      <trkpt lat="0" lon="0">
        <time>2021-02-28T08:07:19.332000+00:00</time>
      </trkpt>
      <trkpt lat="0" lon="0">
        <time>2021-02-28T08:07:19.337000+00:00</time>
      </trkpt>
      <trkpt lat="0" lon="0">
        <time>2021-02-28T08:07:19.339000+00:00</time>
      </trkpt>
      <trkpt lat="47.29011" lon="-1.40335">
        <ele>59</ele>
        <time>2021-02-28T08:07:20.314000+00:00</time>
      </trkpt>
      <trkpt lat="0" lon="0">
        <time>2021-02-28T08:07:20.319000+00:00</time>
      </trkpt>
      <trkpt lat="0" lon="0">
        <time>2021-02-28T08:07:20.324000+00:00</time>
      </trkpt>
      <trkpt lat="0" lon="0">
        <time>2021-02-28T08:07:20.327000+00:00</time>
      </trkpt>
      <trkpt lat="47.29007" lon="-1.40341">
        <ele>58</ele>
        <time>2021-02-28T08:07:21.292000+00:00</time>
      </trkpt>
      <trkpt lat="0" lon="0">
        <time>2021-02-28T08:07:21.298000+00:00</time>
      </trkpt>
      <trkpt lat="0" lon="0">
        <time>2021-02-28T08:07:21.304000+00:00</time>
      </trkpt>
      <trkpt lat="0" lon="0">
        <time>2021-02-28T08:07:21.307000+00:00</time>
      </trkpt>
      <trkpt lat="47.29003" lon="-1.40347">
        <ele>58</ele>
        <time>2021-02-28T08:07:22.302000+00:00</time>
      </trkpt>
      <trkpt lat="0" lon="0">
        <time>2021-02-28T08:07:22.307000+00:00</time>
      </trkpt>
      <trkpt lat="0" lon="0">
        <time>2021-02-28T08:07:22.312000+00:00</time>
      </trkpt>
      <trkpt lat="0" lon="0">
        <time>2021-02-28T08:07:22.315000+00:00</time>
      </trkpt>
      <trkpt lat="47.29" lon="-1.40354">
        <ele>58</ele>
        <time>2021-02-28T08:07:23.287000+00:00</time>
      </trkpt>
      <trkpt lat="0" lon="0">
        <time>2021-02-28T08:07:23.296000+00:00</time>
      </trkpt>
      <trkpt lat="0" lon="0">
        <time>2021-02-28T08:07:23.300000+00:00</time>
      </trkpt>
      <trkpt lat="0" lon="0">
        <time>2021-02-28T08:07:23.303000+00:00</time>
      </trkpt>
      <trkpt lat="47.28999" lon="-1.4036">
        <ele>58</ele>
        <time>2021-02-28T08:07:24.307000+00:00</time>
      </trkpt>
      <trkpt lat="0" lon="0">
        <time>2021-02-28T08:07:24.316000+00:00</time>
      </trkpt>
      <trkpt lat="0" lon="0">
        <time>2021-02-28T08:07:24.322000+00:00</time>
      </trkpt>
      <trkpt lat="0" lon="0">
        <time>2021-02-28T08:07:24.324000+00:00</time>
      </trkpt>
      <trkpt lat="47.28998" lon="-1.40365">
        <ele>58</ele>
        <time>2021-02-28T08:07:25.283000+00:00</time>
      </trkpt>
      <trkpt lat="0" lon="0">
        <time>2021-02-28T08:07:25.288000+00:00</time>
      </trkpt>
      <trkpt lat="0" lon="0">
        <time>2021-02-28T08:07:25.294000+00:00</time>
      </trkpt>
      <trkpt lat="0" lon="0">
        <time>2021-02-28T08:07:25.296000+00:00</time>
      </trkpt>
      <trkpt lat="47.28999" lon="-1.40369">
        <ele>57</ele>
        <time>2021-02-28T08:07:26.318000+00:00</time>
      </trkpt>
      <trkpt lat="0" lon="0">
        <time>2021-02-28T08:07:26.323000+00:00</time>
      </trkpt>
      <trkpt lat="0" lon="0">
        <time>2021-02-28T08:07:26.329000+00:00</time>
      </trkpt>
      <trkpt lat="0" lon="0">
        <time>2021-02-28T08:07:26.331000+00:00</time>
      </trkpt>
      <trkpt lat="47.29001" lon="-1.40372">
        <ele>57</ele>
        <time>2021-02-28T08:07:27.283000+00:00</time>
      </trkpt>
      <trkpt lat="0" lon="0">
        <time>2021-02-28T08:07:27.285000+00:00</time>
      </trkpt>
      <trkpt lat="0" lon="0">
        <time>2021-02-28T08:07:27.291000+00:00</time>
      </trkpt>
      <trkpt lat="0" lon="0">
        <time>2021-02-28T08:07:27.292000+00:00</time>
      </trkpt>
      <trkpt lat="47.29003" lon="-1.40375">
        <ele>57</ele>
        <time>2021-02-28T08:07:28.287000+00:00</time>
      </trkpt>
      <trkpt lat="0" lon="0">
        <time>2021-02-28T08:07:28.303000+00:00</time>
      </trkpt>
      <trkpt lat="0" lon="0">
        <time>2021-02-28T08:07:28.308000+00:00</time>
      </trkpt>
      <trkpt lat="0" lon="0">
        <time>2021-02-28T08:07:28.310000+00:00</time>
      </trkpt>
      <trkpt lat="47.29007" lon="-1.40376">
        <ele>57</ele>
        <time>2021-02-28T08:07:29.268000+00:00</time>
      </trkpt>
      <trkpt lat="0" lon="0">
        <time>2021-02-28T08:07:29.281000+00:00</time>
      </trkpt>
      <trkpt lat="0" lon="0">
        <time>2021-02-28T08:07:29.286000+00:00</time>
      </trkpt>
      <trkpt lat="0" lon="0">
        <time>2021-02-28T08:07:29.288000+00:00</time>
      </trkpt>
      <trkpt lat="47.29011" lon="-1.40377">
        <ele>57</ele>
        <time>2021-02-28T08:07:30.220000+00:00</time>
      </trkpt>
      <trkpt lat="0" lon="0">
        <time>2021-02-28T08:07:30.226000+00:00</time>
      </trkpt>
      <trkpt lat="0" lon="0">
        <time>2021-02-28T08:07:30.231000+00:00</time>
      </trkpt>
      <trkpt lat="0" lon="0">
        <time>2021-02-28T08:07:30.235000+00:00</time>
      </trkpt>
      <trkpt lat="47.29016" lon="-1.40379">
        <ele>57</ele>
        <time>2021-02-28T08:07:31.294000+00:00</time>
      </trkpt>
      <trkpt lat="0" lon="0">
        <time>2021-02-28T08:07:31.302000+00:00</time>
      </trkpt>
      <trkpt lat="0" lon="0">
        <time>2021-02-28T08:07:31.306000+00:00</time>
      </trkpt>
      <trkpt lat="0" lon="0">
        <time>2021-02-28T08:07:31.308000+00:00</time>
      </trkpt>
      <trkpt lat="47.2902" lon="-1.4038">
        <ele>57</ele>
        <time>2021-02-28T08:07:32.333000+00:00</time>
      </trkpt>
      <trkpt lat="0" lon="0">
        <time>2021-02-28T08:07:32.338000+00:00</time>
      </trkpt>
      <trkpt lat="0" lon="0">
        <time>2021-02-28T08:07:32.344000+00:00</time>
      </trkpt>
      <trkpt lat="0" lon="0">
        <time>2021-02-28T08:07:32.346000+00:00</time>
      </trkpt>
      <trkpt lat="47.29025" lon="-1.40381">
        <ele>56</ele>
        <time>2021-02-28T08:07:33.290000+00:00</time>
      </trkpt>
      <trkpt lat="0" lon="0">
        <time>2021-02-28T08:07:33.297000+00:00</time>
      </trkpt>
      <trkpt lat="0" lon="0">
        <time>2021-02-28T08:07:33.302000+00:00</time>
      </trkpt>
      <trkpt lat="0" lon="0">
        <time>2021-02-28T08:07:33.305000+00:00</time>
      </trkpt>
      <trkpt lat="47.2903" lon="-1.40383">
        <ele>56</ele>
        <time>2021-02-28T08:07:34.291000+00:00</time>
      </trkpt>
      <trkpt lat="0" lon="0">
        <time>2021-02-28T08:07:34.305000+00:00</time>
      </trkpt>
      <trkpt lat="0" lon="0">
        <time>2021-02-28T08:07:34.311000+00:00</time>
      </trkpt>
      <trkpt lat="0" lon="0">
        <time>2021-02-28T08:07:34.313000+00:00</time>
      </trkpt>
      <trkpt lat="47.29035" lon="-1.40384">
        <ele>56</ele>
        <time>2021-02-28T08:07:35.305000+00:00</time>
      </trkpt>
      <trkpt lat="0" lon="0">
        <time>2021-02-28T08:07:35.318000+00:00</time>
      </trkpt>
      <trkpt lat="0" lon="0">
        <time>2021-02-28T08:07:35.324000+00:00</time>
      </trkpt>
      <trkpt lat="0" lon="0">
        <time>2021-02-28T08:07:35.327000+00:00</time>
      </trkpt>
      <trkpt lat="47.29041" lon="-1.40386">
        <ele>56</ele>
        <time>2021-02-28T08:07:36.307000+00:00</time>
      </trkpt>
      <trkpt lat="0" lon="0">
        <time>2021-02-28T08:07:36.317000+00:00</time>
      </trkpt>
      <trkpt lat="0" lon="0">
        <time>2021-02-28T08:07:36.322000+00:00</time>
      </trkpt>
      <trkpt lat="0" lon="0">
        <time>2021-02-28T08:07:36.324000+00:00</time>
      </trkpt>
      <trkpt lat="47.29046" lon="-1.40388">
        <ele>56</ele>
        <time>2021-02-28T08:07:37.296000+00:00</time>
      </trkpt>
      <trkpt lat="0" lon="0">
        <time>2021-02-28T08:07:37.302000+00:00</time>
      </trkpt>
      <trkpt lat="0" lon="0">
        <time>2021-02-28T08:07:37.307000+00:00</time>
      </trkpt>
      <trkpt lat="0" lon="0">
        <time>2021-02-28T08:07:37.309000+00:00</time>
      </trkpt>
      <trkpt lat="47.29051" lon="-1.4039">
        <ele>57</ele>
        <time>2021-02-28T08:07:38.314000+00:00</time>
      </trkpt>
      <trkpt lat="0" lon="0">
        <time>2021-02-28T08:07:38.323000+00:00</time>
      </trkpt>
      <trkpt lat="0" lon="0">
        <time>2021-02-28T08:07:38.332000+00:00</time>
      </trkpt>
      <trkpt lat="0" lon="0">
        <time>2021-02-28T08:07:38.336000+00:00</time>
      </trkpt>
      <trkpt lat="47.29056" lon="-1.40393">
        <ele>57</ele>
        <time>2021-02-28T08:07:39.312000+00:00</time>
      </trkpt>
      <trkpt lat="0" lon="0">
        <time>2021-02-28T08:07:39.321000+00:00</time>
      </trkpt>
      <trkpt lat="0" lon="0">
        <time>2021-02-28T08:07:39.329000+00:00</time>
      </trkpt>
      <trkpt lat="0" lon="0">
        <time>2021-02-28T08:07:39.332000+00:00</time>
      </trkpt>
      <trkpt lat="47.29061" lon="-1.40395">
        <ele>58</ele>
        <time>2021-02-28T08:07:40.308000+00:00</time>
      </trkpt>
      <trkpt lat="0" lon="0">
        <time>2021-02-28T08:07:40.319000+00:00</time>
      </trkpt>
      <trkpt lat="0" lon="0">
        <time>2021-02-28T08:07:40.324000+00:00</time>
      </trkpt>
      <trkpt lat="0" lon="0">
        <time>2021-02-28T08:07:40.327000+00:00</time>
      </trkpt>
      <trkpt lat="47.29066" lon="-1.40398">
        <ele>58</ele>
        <time>2021-02-28T08:07:41.311000+00:00</time>
      </trkpt>
      <trkpt lat="0" lon="0">
        <time>2021-02-28T08:07:41.321000+00:00</time>
      </trkpt>
      <trkpt lat="0" lon="0">
        <time>2021-02-28T08:07:41.326000+00:00</time>
      </trkpt>
      <trkpt lat="0" lon="0">
        <time>2021-02-28T08:07:41.329000+00:00</time>
      </trkpt>
      <trkpt lat="47.29071" lon="-1.40401">
        <ele>58</ele>
        <time>2021-02-28T08:07:42.330000+00:00</time>
      </trkpt>
      <trkpt lat="0" lon="0">
        <time>2021-02-28T08:07:42.339000+00:00</time>
      </trkpt>
      <trkpt lat="0" lon="0">
        <time>2021-02-28T08:07:42.344000+00:00</time>
      </trkpt>
      <trkpt lat="0" lon="0">
        <time>2021-02-28T08:07:42.347000+00:00</time>
      </trkpt>
      <trkpt lat="47.29076" lon="-1.40403">
        <ele>58</ele>
        <time>2021-02-28T08:07:43.323000+00:00</time>
      </trkpt>
      <trkpt lat="0" lon="0">
        <time>2021-02-28T08:07:43.330000+00:00</time>
      </trkpt>
      <trkpt lat="0" lon="0">
        <time>2021-02-28T08:07:43.335000+00:00</time>
      </trkpt>
      <trkpt lat="0" lon="0">
        <time>2021-02-28T08:07:43.338000+00:00</time>
      </trkpt>
      <trkpt lat="47.2908" lon="-1.40406">
        <ele>58</ele>
        <time>2021-02-28T08:07:44.327000+00:00</time>
      </trkpt>
      <trkpt lat="0" lon="0">
        <time>2021-02-28T08:07:44.340000+00:00</time>
      </trkpt>
      <trkpt lat="0" lon="0">
        <time>2021-02-28T08:07:44.347000+00:00</time>
      </trkpt>
      <trkpt lat="0" lon="0">
        <time>2021-02-28T08:07:44.350000+00:00</time>
      </trkpt>
      <trkpt lat="47.29084" lon="-1.4041">
        <ele>59</ele>
        <time>2021-02-28T08:07:45.319000+00:00</time>
      </trkpt>
      <trkpt lat="0" lon="0">
        <time>2021-02-28T08:07:45.324000+00:00</time>
      </trkpt>
      <trkpt lat="0" lon="0">
        <time>2021-02-28T08:07:45.326000+00:00</time>
      </trkpt>
      <trkpt lat="0" lon="0">
        <time>2021-02-28T08:07:45.327000+00:00</time>
      </trkpt>
      <trkpt lat="47.29089" lon="-1.40413">
        <ele>60</ele>
        <time>2021-02-28T08:07:46.319000+00:00</time>
      </trkpt>
      <trkpt lat="0" lon="0">
        <time>2021-02-28T08:07:46.326000+00:00</time>
      </trkpt>
      <trkpt lat="0" lon="0">
        <time>2021-02-28T08:07:46.332000+00:00</time>
      </trkpt>
      <trkpt lat="0" lon="0">
        <time>2021-02-28T08:07:46.336000+00:00</time>
      </trkpt>
      <trkpt lat="47.29093" lon="-1.40417">
        <ele>60</ele>
        <time>2021-02-28T08:07:47.336000+00:00</time>
      </trkpt>
      <trkpt lat="0" lon="0">
        <time>2021-02-28T08:07:47.342000+00:00</time>
      </trkpt>
      <trkpt lat="0" lon="0">
        <time>2021-02-28T08:07:47.348000+00:00</time>
      </trkpt>
      <trkpt lat="0" lon="0">
        <time>2021-02-28T08:07:47.351000+00:00</time>
      </trkpt>
      <trkpt lat="47.29097" lon="-1.4042">
        <ele>60</ele>
        <time>2021-02-28T08:07:48.245000+00:00</time>
      </trkpt>
      <trkpt lat="0" lon="0">
        <time>2021-02-28T08:07:48.247000+00:00</time>
      </trkpt>
      <trkpt lat="0" lon="0">
        <time>2021-02-28T08:07:48.248000+00:00</time>
      </trkpt>
      <trkpt lat="47.29101" lon="-1.40424">
        <ele>61</ele>
        <time>2021-02-28T08:07:49.288000+00:00</time>
      </trkpt>
      <trkpt lat="0" lon="0">
        <time>2021-02-28T08:07:49.295000+00:00</time>
      </trkpt>
      <trkpt lat="0" lon="0">
        <time>2021-02-28T08:07:49.302000+00:00</time>
      </trkpt>
      <trkpt lat="0" lon="0">
        <time>2021-02-28T08:07:49.304000+00:00</time>
      </trkpt>
      <trkpt lat="47.29105" lon="-1.40428">
        <ele>61</ele>
        <time>2021-02-28T08:07:50.270000+00:00</time>
      </trkpt>
      <trkpt lat="0" lon="0">
        <time>2021-02-28T08:07:50.277000+00:00</time>
      </trkpt>
      <trkpt lat="0" lon="0">
        <time>2021-02-28T08:07:50.283000+00:00</time>
      </trkpt>
      <trkpt lat="0" lon="0">
        <time>2021-02-28T08:07:50.286000+00:00</time>
      </trkpt>
      <trkpt lat="47.29109" lon="-1.40432">
        <ele>61</ele>
        <time>2021-02-28T08:07:51.340000+00:00</time>
      </trkpt>
      <trkpt lat="0" lon="0">
        <time>2021-02-28T08:07:51.349000+00:00</time>
      </trkpt>
      <trkpt lat="0" lon="0">
        <time>2021-02-28T08:07:51.353000+00:00</time>
      </trkpt>
      <trkpt lat="0" lon="0">
        <time>2021-02-28T08:07:51.355000+00:00</time>
      </trkpt>
      <trkpt lat="47.29113" lon="-1.40435">
        <ele>62</ele>
        <time>2021-02-28T08:07:52.297000+00:00</time>
      </trkpt>
      <trkpt lat="0" lon="0">
        <time>2021-02-28T08:07:52.311000+00:00</time>
      </trkpt>
      <trkpt lat="0" lon="0">
        <time>2021-02-28T08:07:52.315000+00:00</time>
      </trkpt>
      <trkpt lat="0" lon="0">
        <time>2021-02-28T08:07:52.317000+00:00</time>
      </trkpt>
      <trkpt lat="47.29117" lon="-1.40439">
        <ele>62</ele>
        <time>2021-02-28T08:07:53.340000+00:00</time>
      </trkpt>
      <trkpt lat="0" lon="0">
        <time>2021-02-28T08:07:53.352000+00:00</time>
      </trkpt>
      <trkpt lat="0" lon="0">
        <time>2021-02-28T08:07:53.358000+00:00</time>
      </trkpt>
      <trkpt lat="0" lon="0">
        <time>2021-02-28T08:07:53.362000+00:00</time>
      </trkpt>
      <trkpt lat="47.29121" lon="-1.40443">
        <ele>62</ele>
        <time>2021-02-28T08:07:54.370000+00:00</time>
      </trkpt>
      <trkpt lat="0" lon="0">
        <time>2021-02-28T08:07:54.377000+00:00</time>
      </trkpt>
      <trkpt lat="0" lon="0">
        <time>2021-02-28T08:07:54.384000+00:00</time>
      </trkpt>
      <trkpt lat="0" lon="0">
        <time>2021-02-28T08:07:54.387000+00:00</time>
      </trkpt>
      <trkpt lat="47.29124" lon="-1.40447">
        <ele>63</ele>
        <time>2021-02-28T08:07:55.332000+00:00</time>
      </trkpt>
      <trkpt lat="0" lon="0">
        <time>2021-02-28T08:07:55.343000+00:00</time>
      </trkpt>
      <trkpt lat="0" lon="0">
        <time>2021-02-28T08:07:55.347000+00:00</time>
      </trkpt>
      <trkpt lat="0" lon="0">
        <time>2021-02-28T08:07:55.349000+00:00</time>
      </trkpt>
      <trkpt lat="47.29128" lon="-1.40451">
        <ele>63</ele>
        <time>2021-02-28T08:07:56.304000+00:00</time>
      </trkpt>
      <trkpt lat="0" lon="0">
        <time>2021-02-28T08:07:56.313000+00:00</time>
      </trkpt>
      <trkpt lat="0" lon="0">
        <time>2021-02-28T08:07:56.321000+00:00</time>
      </trkpt>
      <trkpt lat="0" lon="0">
        <time>2021-02-28T08:07:56.324000+00:00</time>
      </trkpt>
      <trkpt lat="47.29131" lon="-1.40456">
        <ele>63</ele>
        <time>2021-02-28T08:07:57.340000+00:00</time>
      </trkpt>
      <trkpt lat="0" lon="0">
        <time>2021-02-28T08:07:57.350000+00:00</time>
      </trkpt>
      <trkpt lat="0" lon="0">
        <time>2021-02-28T08:07:57.355000+00:00</time>
      </trkpt>
      <trkpt lat="0" lon="0">
        <time>2021-02-28T08:07:57.358000+00:00</time>
      </trkpt>
      <trkpt lat="47.29134" lon="-1.4046">
        <ele>64</ele>
        <time>2021-02-28T08:07:58.342000+00:00</time>
      </trkpt>
      <trkpt lat="0" lon="0">
        <time>2021-02-28T08:07:58.347000+00:00</time>
      </trkpt>
      <trkpt lat="0" lon="0">
        <time>2021-02-28T08:07:58.352000+00:00</time>
      </trkpt>
      <trkpt lat="0" lon="0">
        <time>2021-02-28T08:07:58.355000+00:00</time>
      </trkpt>
      <trkpt lat="47.29136" lon="-1.40465">
        <ele>64</ele>
        <time>2021-02-28T08:07:59.296000+00:00</time>
      </trkpt>
      <trkpt lat="0" lon="0">
        <time>2021-02-28T08:07:59.303000+00:00</time>
      </trkpt>
      <trkpt lat="0" lon="0">
        <time>2021-02-28T08:07:59.311000+00:00</time>
      </trkpt>
      <trkpt lat="0" lon="0">
        <time>2021-02-28T08:07:59.314000+00:00</time>
      </trkpt>
      <trkpt lat="47.29138" lon="-1.4047">
        <ele>64</ele>
        <time>2021-02-28T08:08:00.304000+00:00</time>
      </trkpt>
      <trkpt lat="0" lon="0">
        <time>2021-02-28T08:08:00.313000+00:00</time>
      </trkpt>
      <trkpt lat="0" lon="0">
        <time>2021-02-28T08:08:00.318000+00:00</time>
      </trkpt>
      <trkpt lat="0" lon="0">
        <time>2021-02-28T08:08:00.321000+00:00</time>
      </trkpt>
      <trkpt lat="47.29139" lon="-1.40474">
        <ele>64</ele>
        <time>2021-02-28T08:08:01.307000+00:00</time>
      </trkpt>
      <trkpt lat="0" lon="0">
        <time>2021-02-28T08:08:01.314000+00:00</time>
      </trkpt>
      <trkpt lat="0" lon="0">
        <time>2021-02-28T08:08:01.319000+00:00</time>
      </trkpt>
      <trkpt lat="0" lon="0">
        <time>2021-02-28T08:08:01.321000+00:00</time>
      </trkpt>
      <trkpt lat="47.2914" lon="-1.40477">
        <ele>65</ele>
        <time>2021-02-28T08:08:02.301000+00:00</time>
      </trkpt>
      <trkpt lat="0" lon="0">
        <time>2021-02-28T08:08:02.309000+00:00</time>
      </trkpt>
      <trkpt lat="0" lon="0">
        <time>2021-02-28T08:08:02.316000+00:00</time>
      </trkpt>
      <trkpt lat="0" lon="0">
        <time>2021-02-28T08:08:02.318000+00:00</time>
      </trkpt>
      <trkpt lat="47.29141" lon="-1.4048">
        <ele>65</ele>
        <time>2021-02-28T08:08:03.284000+00:00</time>
      </trkpt>
      <trkpt lat="0" lon="0">
        <time>2021-02-28T08:08:03.288000+00:00</time>
      </trkpt>
      <trkpt lat="0" lon="0">
        <time>2021-02-28T08:08:03.292000+00:00</time>
      </trkpt>
      <trkpt lat="0" lon="0">
        <time>2021-02-28T08:08:03.295000+00:00</time>
      </trkpt>
      <trkpt lat="47.29141" lon="-1.40484">
        <ele>67</ele>
        <time>2021-02-28T08:08:04.310000+00:00</time>
      </trkpt>
      <trkpt lat="0" lon="0">
        <time>2021-02-28T08:08:04.318000+00:00</time>
      </trkpt>
      <trkpt lat="0" lon="0">
        <time>2021-02-28T08:08:04.324000+00:00</time>
      </trkpt>
      <trkpt lat="0" lon="0">
        <time>2021-02-28T08:08:04.327000+00:00</time>
      </trkpt>
      <trkpt lat="47.29141" lon="-1.40489">
        <ele>68</ele>
        <time>2021-02-28T08:08:05.308000+00:00</time>
      </trkpt>
      <trkpt lat="0" lon="0">
        <time>2021-02-28T08:08:05.312000+00:00</time>
      </trkpt>
      <trkpt lat="0" lon="0">
        <time>2021-02-28T08:08:05.317000+00:00</time>
      </trkpt>
      <trkpt lat="0" lon="0">
        <time>2021-02-28T08:08:05.319000+00:00</time>
      </trkpt>
      <trkpt lat="47.29141" lon="-1.40493">
        <ele>69</ele>
        <time>2021-02-28T08:08:06.319000+00:00</time>
      </trkpt>
      <trkpt lat="0" lon="0">
        <time>2021-02-28T08:08:06.328000+00:00</time>
      </trkpt>
      <trkpt lat="0" lon="0">
        <time>2021-02-28T08:08:06.333000+00:00</time>
      </trkpt>
      <trkpt lat="0" lon="0">
        <time>2021-02-28T08:08:06.338000+00:00</time>
      </trkpt>
      <trkpt lat="47.2914" lon="-1.40499">
        <ele>70</ele>
        <time>2021-02-28T08:08:07.300000+00:00</time>
      </trkpt>
      <trkpt lat="0" lon="0">
        <time>2021-02-28T08:08:07.303000+00:00</time>
      </trkpt>
      <trkpt lat="0" lon="0">
        <time>2021-02-28T08:08:07.305000+00:00</time>
      </trkpt>
      <trkpt lat="0" lon="0">
        <time>2021-02-28T08:08:07.307000+00:00</time>
      </trkpt>
      <trkpt lat="47.29139" lon="-1.40504">
        <ele>70</ele>
        <time>2021-02-28T08:08:08.330000+00:00</time>
      </trkpt>
      <trkpt lat="0" lon="0">
        <time>2021-02-28T08:08:08.336000+00:00</time>
      </trkpt>
      <trkpt lat="0" lon="0">
        <time>2021-02-28T08:08:08.342000+00:00</time>
      </trkpt>
      <trkpt lat="0" lon="0">
        <time>2021-02-28T08:08:08.345000+00:00</time>
      </trkpt>
      <trkpt lat="47.29138" lon="-1.4051">
        <ele>70</ele>
        <time>2021-02-28T08:08:09.311000+00:00</time>
      </trkpt>
      <trkpt lat="0" lon="0">
        <time>2021-02-28T08:08:09.319000+00:00</time>
      </trkpt>
      <trkpt lat="0" lon="0">
        <time>2021-02-28T08:08:09.324000+00:00</time>
      </trkpt>
      <trkpt lat="0" lon="0">
        <time>2021-02-28T08:08:09.327000+00:00</time>
      </trkpt>
      <trkpt lat="47.29136" lon="-1.40516">
        <ele>70</ele>
        <time>2021-02-28T08:08:10.291000+00:00</time>
      </trkpt>
      <trkpt lat="0" lon="0">
        <time>2021-02-28T08:08:10.299000+00:00</time>
      </trkpt>
      <trkpt lat="0" lon="0">
        <time>2021-02-28T08:08:10.304000+00:00</time>
      </trkpt>
      <trkpt lat="0" lon="0">
        <time>2021-02-28T08:08:10.307000+00:00</time>
      </trkpt>
      <trkpt lat="47.29134" lon="-1.40522">
        <ele>70</ele>
        <time>2021-02-28T08:08:11.308000+00:00</time>
      </trkpt>
      <trkpt lat="0" lon="0">
        <time>2021-02-28T08:08:11.317000+00:00</time>
      </trkpt>
      <trkpt lat="0" lon="0">
        <time>2021-02-28T08:08:11.331000+00:00</time>
      </trkpt>
      <trkpt lat="0" lon="0">
        <time>2021-02-28T08:08:11.334000+00:00</time>
      </trkpt>
      <trkpt lat="47.29132" lon="-1.40527">
        <ele>70</ele>
        <time>2021-02-28T08:08:12.336000+00:00</time>
      </trkpt>
      <trkpt lat="0" lon="0">
        <time>2021-02-28T08:08:12.354000+00:00</time>
      </trkpt>
      <trkpt lat="0" lon="0">
        <time>2021-02-28T08:08:12.366000+00:00</time>
      </trkpt>
      <trkpt lat="0" lon="0">
        <time>2021-02-28T08:08:12.369000+00:00</time>
      </trkpt>
      <trkpt lat="47.29129" lon="-1.40533">
        <ele>70</ele>
        <time>2021-02-28T08:08:13.299000+00:00</time>
      </trkpt>
      <trkpt lat="0" lon="0">
        <time>2021-02-28T08:08:13.309000+00:00</time>
      </trkpt>
      <trkpt lat="0" lon="0">
        <time>2021-02-28T08:08:13.317000+00:00</time>
      </trkpt>
      <trkpt lat="0" lon="0">
        <time>2021-02-28T08:08:13.321000+00:00</time>
      </trkpt>
      <trkpt lat="47.29127" lon="-1.40539">
        <ele>70</ele>
        <time>2021-02-28T08:08:14.272000+00:00</time>
      </trkpt>
      <trkpt lat="0" lon="0">
        <time>2021-02-28T08:08:14.278000+00:00</time>
      </trkpt>
      <trkpt lat="0" lon="0">
        <time>2021-02-28T08:08:14.282000+00:00</time>
      </trkpt>
      <trkpt lat="0" lon="0">
        <time>2021-02-28T08:08:14.284000+00:00</time>
      </trkpt>
      <trkpt lat="47.29124" lon="-1.40544">
        <ele>70</ele>
        <time>2021-02-28T08:08:15.318000+00:00</time>
      </trkpt>
      <trkpt lat="0" lon="0">
        <time>2021-02-28T08:08:15.326000+00:00</time>
      </trkpt>
      <trkpt lat="0" lon="0">
        <time>2021-02-28T08:08:15.330000+00:00</time>
      </trkpt>
      <trkpt lat="0" lon="0">
        <time>2021-02-28T08:08:15.332000+00:00</time>
      </trkpt>
      <trkpt lat="47.29122" lon="-1.40549">
        <ele>70</ele>
        <time>2021-02-28T08:08:16.306000+00:00</time>
      </trkpt>
      <trkpt lat="0" lon="0">
        <time>2021-02-28T08:08:16.318000+00:00</time>
      </trkpt>
      <trkpt lat="0" lon="0">
        <time>2021-02-28T08:08:16.324000+00:00</time>
      </trkpt>
      <trkpt lat="0" lon="0">
        <time>2021-02-28T08:08:16.327000+00:00</time>
      </trkpt>
      <trkpt lat="47.29119" lon="-1.40555">
        <ele>70</ele>
        <time>2021-02-28T08:08:17.337000+00:00</time>
      </trkpt>
      <trkpt lat="0" lon="0">
        <time>2021-02-28T08:08:17.342000+00:00</time>
      </trkpt>
      <trkpt lat="0" lon="0">
        <time>2021-02-28T08:08:17.348000+00:00</time>
      </trkpt>
      <trkpt lat="0" lon="0">
        <time>2021-02-28T08:08:17.350000+00:00</time>
      </trkpt>
      <trkpt lat="47.29116" lon="-1.4056">
        <ele>70</ele>
        <time>2021-02-28T08:08:18.298000+00:00</time>
      </trkpt>
      <trkpt lat="0" lon="0">
        <time>2021-02-28T08:08:18.300000+00:00</time>
      </trkpt>
      <trkpt lat="0" lon="0">
        <time>2021-02-28T08:08:18.302000+00:00</time>
      </trkpt>
      <trkpt lat="0" lon="0">
        <time>2021-02-28T08:08:18.308000+00:00</time>
      </trkpt>
      <trkpt lat="47.29114" lon="-1.40565">
        <ele>71</ele>
        <time>2021-02-28T08:08:19.306000+00:00</time>
      </trkpt>
      <trkpt lat="0" lon="0">
        <time>2021-02-28T08:08:19.314000+00:00</time>
      </trkpt>
      <trkpt lat="0" lon="0">
        <time>2021-02-28T08:08:19.317000+00:00</time>
      </trkpt>
      <trkpt lat="0" lon="0">
        <time>2021-02-28T08:08:19.320000+00:00</time>
      </trkpt>
      <trkpt lat="47.29111" lon="-1.4057">
        <ele>71</ele>
        <time>2021-02-28T08:08:20.320000+00:00</time>
      </trkpt>
      <trkpt lat="0" lon="0">
        <time>2021-02-28T08:08:20.330000+00:00</time>
      </trkpt>
      <trkpt lat="0" lon="0">
        <time>2021-02-28T08:08:20.337000+00:00</time>
      </trkpt>
      <trkpt lat="0" lon="0">
        <time>2021-02-28T08:08:20.340000+00:00</time>
      </trkpt>
      <trkpt lat="47.29109" lon="-1.40575">
        <ele>72</ele>
        <time>2021-02-28T08:08:21.340000+00:00</time>
      </trkpt>
      <trkpt lat="0" lon="0">
        <time>2021-02-28T08:08:21.347000+00:00</time>
      </trkpt>
      <trkpt lat="0" lon="0">
        <time>2021-02-28T08:08:21.352000+00:00</time>
      </trkpt>
      <trkpt lat="0" lon="0">
        <time>2021-02-28T08:08:21.355000+00:00</time>
      </trkpt>
      <trkpt lat="47.29107" lon="-1.4058">
        <ele>73</ele>
        <time>2021-02-28T08:08:22.305000+00:00</time>
      </trkpt>
      <trkpt lat="0" lon="0">
        <time>2021-02-28T08:08:22.312000+00:00</time>
      </trkpt>
      <trkpt lat="0" lon="0">
        <time>2021-02-28T08:08:22.318000+00:00</time>
      </trkpt>
      <trkpt lat="0" lon="0">
        <time>2021-02-28T08:08:22.321000+00:00</time>
      </trkpt>
      <trkpt lat="47.29105" lon="-1.40585">
        <ele>73</ele>
        <time>2021-02-28T08:08:23.323000+00:00</time>
      </trkpt>
      <trkpt lat="0" lon="0">
        <time>2021-02-28T08:08:23.327000+00:00</time>
      </trkpt>
      <trkpt lat="0" lon="0">
        <time>2021-02-28T08:08:23.333000+00:00</time>
      </trkpt>
      <trkpt lat="0" lon="0">
        <time>2021-02-28T08:08:23.336000+00:00</time>
      </trkpt>
      <trkpt lat="47.29103" lon="-1.4059">
        <ele>73</ele>
        <time>2021-02-28T08:08:24.293000+00:00</time>
      </trkpt>
      <trkpt lat="0" lon="0">
        <time>2021-02-28T08:08:24.295000+00:00</time>
      </trkpt>
      <trkpt lat="0" lon="0">
        <time>2021-02-28T08:08:24.297000+00:00</time>
      </trkpt>
      <trkpt lat="47.29102" lon="-1.40595">
        <ele>74</ele>
        <time>2021-02-28T08:08:25.299000+00:00</time>
      </trkpt>
      <trkpt lat="0" lon="0">
        <time>2021-02-28T08:08:25.303000+00:00</time>
      </trkpt>
      <trkpt lat="0" lon="0">
        <time>2021-02-28T08:08:25.308000+00:00</time>
      </trkpt>
      <trkpt lat="0" lon="0">
        <time>2021-02-28T08:08:25.311000+00:00</time>
      </trkpt>
      <trkpt lat="47.291" lon="-1.406">
        <ele>74</ele>
        <time>2021-02-28T08:08:26.305000+00:00</time>
      </trkpt>
      <trkpt lat="0" lon="0">
        <time>2021-02-28T08:08:26.312000+00:00</time>
      </trkpt>
      <trkpt lat="0" lon="0">
        <time>2021-02-28T08:08:26.320000+00:00</time>
      </trkpt>
      <trkpt lat="0" lon="0">
        <time>2021-02-28T08:08:26.322000+00:00</time>
      </trkpt>
      <trkpt lat="47.29099" lon="-1.40604">
        <ele>74</ele>
        <time>2021-02-28T08:08:27.283000+00:00</time>
      </trkpt>
      <trkpt lat="0" lon="0">
        <time>2021-02-28T08:08:27.291000+00:00</time>
      </trkpt>
      <trkpt lat="0" lon="0">
        <time>2021-02-28T08:08:27.295000+00:00</time>
      </trkpt>
      <trkpt lat="0" lon="0">
        <time>2021-02-28T08:08:27.298000+00:00</time>
      </trkpt>
      <trkpt lat="47.29099" lon="-1.40608">
        <ele>75</ele>
        <time>2021-02-28T08:08:28.306000+00:00</time>
      </trkpt>
      <trkpt lat="0" lon="0">
        <time>2021-02-28T08:08:28.313000+00:00</time>
      </trkpt>
      <trkpt lat="0" lon="0">
        <time>2021-02-28T08:08:28.318000+00:00</time>
      </trkpt>
      <trkpt lat="0" lon="0">
        <time>2021-02-28T08:08:28.321000+00:00</time>
      </trkpt>
      <trkpt lat="47.29098" lon="-1.40613">
        <ele>75</ele>
        <time>2021-02-28T08:08:29.310000+00:00</time>
      </trkpt>
      <trkpt lat="0" lon="0">
        <time>2021-02-28T08:08:29.323000+00:00</time>
      </trkpt>
      <trkpt lat="0" lon="0">
        <time>2021-02-28T08:08:29.331000+00:00</time>
      </trkpt>
      <trkpt lat="0" lon="0">
        <time>2021-02-28T08:08:29.337000+00:00</time>
      </trkpt>
      <trkpt lat="47.29098" lon="-1.40617">
        <ele>76</ele>
        <time>2021-02-28T08:08:30.286000+00:00</time>
      </trkpt>
      <trkpt lat="0" lon="0">
        <time>2021-02-28T08:08:30.299000+00:00</time>
      </trkpt>
      <trkpt lat="0" lon="0">
        <time>2021-02-28T08:08:30.304000+00:00</time>
      </trkpt>
      <trkpt lat="0" lon="0">
        <time>2021-02-28T08:08:30.308000+00:00</time>
      </trkpt>
      <trkpt lat="47.29097" lon="-1.40621">
        <ele>76</ele>
        <time>2021-02-28T08:08:31.244000+00:00</time>
      </trkpt>
      <trkpt lat="0" lon="0">
        <time>2021-02-28T08:08:31.259000+00:00</time>
      </trkpt>
      <trkpt lat="0" lon="0">
        <time>2021-02-28T08:08:31.264000+00:00</time>
      </trkpt>
      <trkpt lat="0" lon="0">
        <time>2021-02-28T08:08:31.266000+00:00</time>
      </trkpt>
      <trkpt lat="47.29097" lon="-1.40625">
        <ele>76</ele>
        <time>2021-02-28T08:08:32.290000+00:00</time>
      </trkpt>
      <trkpt lat="0" lon="0">
        <time>2021-02-28T08:08:32.303000+00:00</time>
      </trkpt>
      <trkpt lat="0" lon="0">
        <time>2021-02-28T08:08:32.310000+00:00</time>
      </trkpt>
      <trkpt lat="0" lon="0">
        <time>2021-02-28T08:08:32.313000+00:00</time>
      </trkpt>
      <trkpt lat="47.29097" lon="-1.40629">
        <ele>76</ele>
        <time>2021-02-28T08:08:33.291000+00:00</time>
      </trkpt>
      <trkpt lat="0" lon="0">
        <time>2021-02-28T08:08:33.298000+00:00</time>
      </trkpt>
      <trkpt lat="0" lon="0">
        <time>2021-02-28T08:08:33.304000+00:00</time>
      </trkpt>
      <trkpt lat="0" lon="0">
        <time>2021-02-28T08:08:33.307000+00:00</time>
      </trkpt>
      <trkpt lat="47.29097" lon="-1.40633">
        <ele>76</ele>
        <time>2021-02-28T08:08:34.346000+00:00</time>
      </trkpt>
      <trkpt lat="0" lon="0">
        <time>2021-02-28T08:08:34.357000+00:00</time>
      </trkpt>
      <trkpt lat="0" lon="0">
        <time>2021-02-28T08:08:34.362000+00:00</time>
      </trkpt>
      <trkpt lat="0" lon="0">
        <time>2021-02-28T08:08:34.364000+00:00</time>
      </trkpt>
      <trkpt lat="47.29097" lon="-1.40638">
        <ele>76</ele>
        <time>2021-02-28T08:08:35.307000+00:00</time>
      </trkpt>
      <trkpt lat="0" lon="0">
        <time>2021-02-28T08:08:35.316000+00:00</time>
      </trkpt>
      <trkpt lat="0" lon="0">
        <time>2021-02-28T08:08:35.320000+00:00</time>
      </trkpt>
      <trkpt lat="0" lon="0">
        <time>2021-02-28T08:08:35.324000+00:00</time>
      </trkpt>
      <trkpt lat="47.29097" lon="-1.40643">
        <ele>76</ele>
        <time>2021-02-28T08:08:36.298000+00:00</time>
      </trkpt>
      <trkpt lat="0" lon="0">
        <time>2021-02-28T08:08:36.303000+00:00</time>
      </trkpt>
      <trkpt lat="0" lon="0">
        <time>2021-02-28T08:08:36.308000+00:00</time>
      </trkpt>
      <trkpt lat="0" lon="0">
        <time>2021-02-28T08:08:36.310000+00:00</time>
      </trkpt>
      <trkpt lat="47.29097" lon="-1.40648">
        <ele>76</ele>
        <time>2021-02-28T08:08:37.279000+00:00</time>
      </trkpt>
      <trkpt lat="0" lon="0">
        <time>2021-02-28T08:08:37.290000+00:00</time>
      </trkpt>
      <trkpt lat="0" lon="0">
        <time>2021-02-28T08:08:37.298000+00:00</time>
      </trkpt>
      <trkpt lat="0" lon="0">
        <time>2021-02-28T08:08:37.303000+00:00</time>
      </trkpt>
      <trkpt lat="47.29097" lon="-1.40652">
        <ele>76</ele>
        <time>2021-02-28T08:08:38.303000+00:00</time>
      </trkpt>
      <trkpt lat="0" lon="0">
        <time>2021-02-28T08:08:38.312000+00:00</time>
      </trkpt>
      <trkpt lat="0" lon="0">
        <time>2021-02-28T08:08:38.318000+00:00</time>
      </trkpt>
      <trkpt lat="0" lon="0">
        <time>2021-02-28T08:08:38.321000+00:00</time>
      </trkpt>
      <trkpt lat="47.29097" lon="-1.40657">
        <ele>77</ele>
        <time>2021-02-28T08:08:39.299000+00:00</time>
      </trkpt>
      <trkpt lat="0" lon="0">
        <time>2021-02-28T08:08:39.307000+00:00</time>
      </trkpt>
      <trkpt lat="0" lon="0">
        <time>2021-02-28T08:08:39.313000+00:00</time>
      </trkpt>
      <trkpt lat="0" lon="0">
        <time>2021-02-28T08:08:39.316000+00:00</time>
      </trkpt>
      <trkpt lat="47.29096" lon="-1.40661">
        <ele>77</ele>
        <time>2021-02-28T08:08:40.321000+00:00</time>
      </trkpt>
      <trkpt lat="0" lon="0">
        <time>2021-02-28T08:08:40.330000+00:00</time>
      </trkpt>
      <trkpt lat="0" lon="0">
        <time>2021-02-28T08:08:40.335000+00:00</time>
      </trkpt>
      <trkpt lat="0" lon="0">
        <time>2021-02-28T08:08:40.338000+00:00</time>
      </trkpt>
      <trkpt lat="47.29096" lon="-1.40666">
        <ele>77</ele>
        <time>2021-02-28T08:08:41.295000+00:00</time>
      </trkpt>
      <trkpt lat="0" lon="0">
        <time>2021-02-28T08:08:41.297000+00:00</time>
      </trkpt>
      <trkpt lat="0" lon="0">
        <time>2021-02-28T08:08:41.299000+00:00</time>
      </trkpt>
      <trkpt lat="0" lon="0">
        <time>2021-02-28T08:08:41.300000+00:00</time>
      </trkpt>
      <trkpt lat="47.29095" lon="-1.40671">
        <ele>77</ele>
        <time>2021-02-28T08:08:42.278000+00:00</time>
      </trkpt>
      <trkpt lat="0" lon="0">
        <time>2021-02-28T08:08:42.283000+00:00</time>
      </trkpt>
      <trkpt lat="0" lon="0">
        <time>2021-02-28T08:08:42.290000+00:00</time>
      </trkpt>
      <trkpt lat="0" lon="0">
        <time>2021-02-28T08:08:42.293000+00:00</time>
      </trkpt>
      <trkpt lat="47.29095" lon="-1.40676">
        <ele>78</ele>
        <time>2021-02-28T08:08:43.294000+00:00</time>
      </trkpt>
      <trkpt lat="0" lon="0">
        <time>2021-02-28T08:08:43.312000+00:00</time>
      </trkpt>
      <trkpt lat="0" lon="0">
        <time>2021-02-28T08:08:43.320000+00:00</time>
      </trkpt>
      <trkpt lat="0" lon="0">
        <time>2021-02-28T08:08:43.327000+00:00</time>
      </trkpt>
      <trkpt lat="47.29094" lon="-1.40681">
        <ele>78</ele>
        <time>2021-02-28T08:08:44.273000+00:00</time>
      </trkpt>
      <trkpt lat="0" lon="0">
        <time>2021-02-28T08:08:44.279000+00:00</time>
      </trkpt>
      <trkpt lat="0" lon="0">
        <time>2021-02-28T08:08:44.286000+00:00</time>
      </trkpt>
      <trkpt lat="0" lon="0">
        <time>2021-02-28T08:08:44.289000+00:00</time>
      </trkpt>
      <trkpt lat="47.29093" lon="-1.40686">
        <ele>78</ele>
        <time>2021-02-28T08:08:45.309000+00:00</time>
      </trkpt>
      <trkpt lat="0" lon="0">
        <time>2021-02-28T08:08:45.314000+00:00</time>
      </trkpt>
      <trkpt lat="0" lon="0">
        <time>2021-02-28T08:08:45.320000+00:00</time>
      </trkpt>
      <trkpt lat="0" lon="0">
        <time>2021-02-28T08:08:45.322000+00:00</time>
      </trkpt>
      <trkpt lat="47.29093" lon="-1.40692">
        <ele>78</ele>
        <time>2021-02-28T08:08:46.313000+00:00</time>
      </trkpt>
      <trkpt lat="0" lon="0">
        <time>2021-02-28T08:08:46.326000+00:00</time>
      </trkpt>
      <trkpt lat="0" lon="0">
        <time>2021-02-28T08:08:46.334000+00:00</time>
      </trkpt>
      <trkpt lat="0" lon="0">
        <time>2021-02-28T08:08:46.343000+00:00</time>
      </trkpt>
      <trkpt lat="47.29092" lon="-1.40697">
        <ele>78</ele>
        <time>2021-02-28T08:08:47.309000+00:00</time>
      </trkpt>
      <trkpt lat="0" lon="0">
        <time>2021-02-28T08:08:47.322000+00:00</time>
      </trkpt>
      <trkpt lat="0" lon="0">
        <time>2021-02-28T08:08:47.327000+00:00</time>
      </trkpt>
      <trkpt lat="0" lon="0">
        <time>2021-02-28T08:08:47.329000+00:00</time>
      </trkpt>
      <trkpt lat="47.29091" lon="-1.40702">
        <ele>79</ele>
        <time>2021-02-28T08:08:48.321000+00:00</time>
      </trkpt>
      <trkpt lat="0" lon="0">
        <time>2021-02-28T08:08:48.338000+00:00</time>
      </trkpt>
      <trkpt lat="0" lon="0">
        <time>2021-02-28T08:08:48.346000+00:00</time>
      </trkpt>
      <trkpt lat="0" lon="0">
        <time>2021-02-28T08:08:48.351000+00:00</time>
      </trkpt>
      <trkpt lat="47.29091" lon="-1.40707">
        <ele>79</ele>
        <time>2021-02-28T08:08:49.316000+00:00</time>
      </trkpt>
      <trkpt lat="0" lon="0">
        <time>2021-02-28T08:08:49.323000+00:00</time>
      </trkpt>
      <trkpt lat="0" lon="0">
        <time>2021-02-28T08:08:49.330000+00:00</time>
      </trkpt>
      <trkpt lat="0" lon="0">
        <time>2021-02-28T08:08:49.333000+00:00</time>
      </trkpt>
      <trkpt lat="47.2909" lon="-1.40713">
        <ele>79</ele>
        <time>2021-02-28T08:08:50.324000+00:00</time>
      </trkpt>
      <trkpt lat="0" lon="0">
        <time>2021-02-28T08:08:50.330000+00:00</time>
      </trkpt>
      <trkpt lat="0" lon="0">
        <time>2021-02-28T08:08:50.335000+00:00</time>
      </trkpt>
      <trkpt lat="0" lon="0">
        <time>2021-02-28T08:08:50.338000+00:00</time>
      </trkpt>
      <trkpt lat="47.29089" lon="-1.40718">
        <ele>79</ele>
        <time>2021-02-28T08:08:51.337000+00:00</time>
      </trkpt>
      <trkpt lat="0" lon="0">
        <time>2021-02-28T08:08:51.344000+00:00</time>
      </trkpt>
      <trkpt lat="0" lon="0">
        <time>2021-02-28T08:08:51.351000+00:00</time>
      </trkpt>
      <trkpt lat="0" lon="0">
        <time>2021-02-28T08:08:51.355000+00:00</time>
      </trkpt>
      <trkpt lat="47.29088" lon="-1.40723">
        <ele>79</ele>
        <time>2021-02-28T08:08:52.336000+00:00</time>
      </trkpt>
      <trkpt lat="0" lon="0">
        <time>2021-02-28T08:08:52.338000+00:00</time>
      </trkpt>
      <trkpt lat="0" lon="0">
        <time>2021-02-28T08:08:52.340000+00:00</time>
      </trkpt>
      <trkpt lat="0" lon="0">
        <time>2021-02-28T08:08:52.341000+00:00</time>
      </trkpt>
      <trkpt lat="47.29088" lon="-1.40729">
        <ele>79</ele>
        <time>2021-02-28T08:08:53.350000+00:00</time>
      </trkpt>
      <trkpt lat="0" lon="0">
        <time>2021-02-28T08:08:53.357000+00:00</time>
      </trkpt>
      <trkpt lat="0" lon="0">
        <time>2021-02-28T08:08:53.369000+00:00</time>
      </trkpt>
      <trkpt lat="0" lon="0">
        <time>2021-02-28T08:08:53.372000+00:00</time>
      </trkpt>
      <trkpt lat="47.29087" lon="-1.40734">
        <ele>79</ele>
        <time>2021-02-28T08:08:54.332000+00:00</time>
      </trkpt>
      <trkpt lat="0" lon="0">
        <time>2021-02-28T08:08:54.339000+00:00</time>
      </trkpt>
      <trkpt lat="0" lon="0">
        <time>2021-02-28T08:08:54.348000+00:00</time>
      </trkpt>
      <trkpt lat="0" lon="0">
        <time>2021-02-28T08:08:54.351000+00:00</time>
      </trkpt>
      <trkpt lat="47.29086" lon="-1.4074">
        <ele>79</ele>
        <time>2021-02-28T08:08:55.337000+00:00</time>
      </trkpt>
      <trkpt lat="0" lon="0">
        <time>2021-02-28T08:08:55.348000+00:00</time>
      </trkpt>
      <trkpt lat="0" lon="0">
        <time>2021-02-28T08:08:55.354000+00:00</time>
      </trkpt>
      <trkpt lat="0" lon="0">
        <time>2021-02-28T08:08:55.356000+00:00</time>
      </trkpt>
      <trkpt lat="47.29085" lon="-1.40746">
        <ele>79</ele>
        <time>2021-02-28T08:08:56.312000+00:00</time>
      </trkpt>
      <trkpt lat="0" lon="0">
        <time>2021-02-28T08:08:56.322000+00:00</time>
      </trkpt>
      <trkpt lat="0" lon="0">
        <time>2021-02-28T08:08:56.328000+00:00</time>
      </trkpt>
      <trkpt lat="0" lon="0">
        <time>2021-02-28T08:08:56.332000+00:00</time>
      </trkpt>
      <trkpt lat="47.29085" lon="-1.40751">
        <ele>79</ele>
        <time>2021-02-28T08:08:57.307000+00:00</time>
      </trkpt>
      <trkpt lat="0" lon="0">
        <time>2021-02-28T08:08:57.313000+00:00</time>
      </trkpt>
      <trkpt lat="0" lon="0">
        <time>2021-02-28T08:08:57.320000+00:00</time>
      </trkpt>
      <trkpt lat="0" lon="0">
        <time>2021-02-28T08:08:57.322000+00:00</time>
      </trkpt>
      <trkpt lat="47.29084" lon="-1.40755">
        <ele>80</ele>
        <time>2021-02-28T08:08:58.296000+00:00</time>
      </trkpt>
      <trkpt lat="0" lon="0">
        <time>2021-02-28T08:08:58.312000+00:00</time>
      </trkpt>
      <trkpt lat="0" lon="0">
        <time>2021-02-28T08:08:58.321000+00:00</time>
      </trkpt>
      <trkpt lat="0" lon="0">
        <time>2021-02-28T08:08:58.326000+00:00</time>
      </trkpt>
      <trkpt lat="47.29083" lon="-1.40759">
        <ele>80</ele>
        <time>2021-02-28T08:08:59.357000+00:00</time>
      </trkpt>
      <trkpt lat="0" lon="0">
        <time>2021-02-28T08:08:59.367000+00:00</time>
      </trkpt>
      <trkpt lat="0" lon="0">
        <time>2021-02-28T08:08:59.371000+00:00</time>
      </trkpt>
      <trkpt lat="0" lon="0">
        <time>2021-02-28T08:08:59.374000+00:00</time>
      </trkpt>
      <trkpt lat="47.29083" lon="-1.40761">
        <ele>80</ele>
        <time>2021-02-28T08:09:00.274000+00:00</time>
      </trkpt>
      <trkpt lat="0" lon="0">
        <time>2021-02-28T08:09:00.284000+00:00</time>
      </trkpt>
      <trkpt lat="0" lon="0">
        <time>2021-02-28T08:09:00.294000+00:00</time>
      </trkpt>
      <trkpt lat="0" lon="0">
        <time>2021-02-28T08:09:00.296000+00:00</time>
      </trkpt>
      <trkpt lat="47.29083" lon="-1.40763">
        <ele>80</ele>
        <time>2021-02-28T08:09:01.338000+00:00</time>
      </trkpt>
      <trkpt lat="0" lon="0">
        <time>2021-02-28T08:09:01.344000+00:00</time>
      </trkpt>
      <trkpt lat="0" lon="0">
        <time>2021-02-28T08:09:01.351000+00:00</time>
      </trkpt>
      <trkpt lat="0" lon="0">
        <time>2021-02-28T08:09:01.353000+00:00</time>
      </trkpt>
      <trkpt lat="47.29082" lon="-1.40765">
        <ele>80</ele>
        <time>2021-02-28T08:09:02.312000+00:00</time>
      </trkpt>
      <trkpt lat="0" lon="0">
        <time>2021-02-28T08:09:02.324000+00:00</time>
      </trkpt>
      <trkpt lat="0" lon="0">
        <time>2021-02-28T08:09:02.336000+00:00</time>
      </trkpt>
      <trkpt lat="0" lon="0">
        <time>2021-02-28T08:09:02.339000+00:00</time>
      </trkpt>
      <trkpt lat="47.29082" lon="-1.40766">
        <ele>80</ele>
        <time>2021-02-28T08:09:03.306000+00:00</time>
      </trkpt>
      <trkpt lat="0" lon="0">
        <time>2021-02-28T08:09:03.319000+00:00</time>
      </trkpt>
      <trkpt lat="0" lon="0">
        <time>2021-02-28T08:09:03.324000+00:00</time>
      </trkpt>
      <trkpt lat="0" lon="0">
        <time>2021-02-28T08:09:03.327000+00:00</time>
      </trkpt>
      <trkpt lat="47.29082" lon="-1.40768">
        <ele>80</ele>
        <time>2021-02-28T08:09:04.300000+00:00</time>
      </trkpt>
      <trkpt lat="0" lon="0">
        <time>2021-02-28T08:09:04.308000+00:00</time>
      </trkpt>
      <trkpt lat="0" lon="0">
        <time>2021-02-28T08:09:04.311000+00:00</time>
      </trkpt>
      <trkpt lat="0" lon="0">
        <time>2021-02-28T08:09:04.313000+00:00</time>
      </trkpt>
      <trkpt lat="47.29082" lon="-1.4077">
        <ele>81</ele>
        <time>2021-02-28T08:09:05.302000+00:00</time>
      </trkpt>
      <trkpt lat="0" lon="0">
        <time>2021-02-28T08:09:05.309000+00:00</time>
      </trkpt>
      <trkpt lat="0" lon="0">
        <time>2021-02-28T08:09:05.319000+00:00</time>
      </trkpt>
      <trkpt lat="0" lon="0">
        <time>2021-02-28T08:09:05.321000+00:00</time>
      </trkpt>
      <trkpt lat="47.29082" lon="-1.40773">
        <ele>82</ele>
        <time>2021-02-28T08:09:06.230000+00:00</time>
      </trkpt>
      <trkpt lat="0" lon="0">
        <time>2021-02-28T08:09:06.248000+00:00</time>
      </trkpt>
      <trkpt lat="0" lon="0">
        <time>2021-02-28T08:09:06.251000+00:00</time>
      </trkpt>
      <trkpt lat="0" lon="0">
        <time>2021-02-28T08:09:06.255000+00:00</time>
      </trkpt>
      <trkpt lat="47.29083" lon="-1.40777">
        <ele>82</ele>
        <time>2021-02-28T08:09:07.250000+00:00</time>
      </trkpt>
      <trkpt lat="0" lon="0">
        <time>2021-02-28T08:09:07.263000+00:00</time>
      </trkpt>
      <trkpt lat="0" lon="0">
        <time>2021-02-28T08:09:07.266000+00:00</time>
      </trkpt>
      <trkpt lat="0" lon="0">
        <time>2021-02-28T08:09:07.268000+00:00</time>
      </trkpt>
      <trkpt lat="47.29083" lon="-1.40781">
        <ele>82</ele>
        <time>2021-02-28T08:09:08.337000+00:00</time>
      </trkpt>
      <trkpt lat="0" lon="0">
        <time>2021-02-28T08:09:08.344000+00:00</time>
      </trkpt>
      <trkpt lat="0" lon="0">
        <time>2021-02-28T08:09:08.351000+00:00</time>
      </trkpt>
      <trkpt lat="0" lon="0">
        <time>2021-02-28T08:09:08.354000+00:00</time>
      </trkpt>
      <trkpt lat="47.29084" lon="-1.40787">
        <ele>82</ele>
        <time>2021-02-28T08:09:09.306000+00:00</time>
      </trkpt>
      <trkpt lat="0" lon="0">
        <time>2021-02-28T08:09:09.316000+00:00</time>
      </trkpt>
      <trkpt lat="0" lon="0">
        <time>2021-02-28T08:09:09.322000+00:00</time>
      </trkpt>
      <trkpt lat="0" lon="0">
        <time>2021-02-28T08:09:09.326000+00:00</time>
      </trkpt>
      <trkpt lat="47.29085" lon="-1.40792">
        <ele>83</ele>
        <time>2021-02-28T08:09:10.289000+00:00</time>
      </trkpt>
      <trkpt lat="0" lon="0">
        <time>2021-02-28T08:09:10.298000+00:00</time>
      </trkpt>
      <trkpt lat="0" lon="0">
        <time>2021-02-28T08:09:10.306000+00:00</time>
      </trkpt>
      <trkpt lat="0" lon="0">
        <time>2021-02-28T08:09:10.308000+00:00</time>
      </trkpt>
      <trkpt lat="47.29085" lon="-1.40798">
        <ele>83</ele>
        <time>2021-02-28T08:09:11.318000+00:00</time>
      </trkpt>
      <trkpt lat="0" lon="0">
        <time>2021-02-28T08:09:11.329000+00:00</time>
      </trkpt>
      <trkpt lat="0" lon="0">
        <time>2021-02-28T08:09:11.336000+00:00</time>
      </trkpt>
      <trkpt lat="0" lon="0">
        <time>2021-02-28T08:09:11.342000+00:00</time>
      </trkpt>
      <trkpt lat="47.29086" lon="-1.40804">
        <ele>83</ele>
        <time>2021-02-28T08:09:12.312000+00:00</time>
      </trkpt>
      <trkpt lat="0" lon="0">
        <time>2021-02-28T08:09:12.326000+00:00</time>
      </trkpt>
      <trkpt lat="0" lon="0">
        <time>2021-02-28T08:09:12.332000+00:00</time>
      </trkpt>
      <trkpt lat="0" lon="0">
        <time>2021-02-28T08:09:12.336000+00:00</time>
      </trkpt>
      <trkpt lat="47.29087" lon="-1.40811">
        <ele>84</ele>
        <time>2021-02-28T08:09:13.323000+00:00</time>
      </trkpt>
      <trkpt lat="0" lon="0">
        <time>2021-02-28T08:09:13.336000+00:00</time>
      </trkpt>
      <trkpt lat="0" lon="0">
        <time>2021-02-28T08:09:13.341000+00:00</time>
      </trkpt>
      <trkpt lat="0" lon="0">
        <time>2021-02-28T08:09:13.344000+00:00</time>
      </trkpt>
      <trkpt lat="47.29088" lon="-1.40817">
        <ele>85</ele>
        <time>2021-02-28T08:09:14.287000+00:00</time>
      </trkpt>
      <trkpt lat="0" lon="0">
        <time>2021-02-28T08:09:14.305000+00:00</time>
      </trkpt>
      <trkpt lat="0" lon="0">
        <time>2021-02-28T08:09:14.310000+00:00</time>
      </trkpt>
      <trkpt lat="0" lon="0">
        <time>2021-02-28T08:09:14.312000+00:00</time>
      </trkpt>
      <trkpt lat="47.29089" lon="-1.40824">
        <ele>85</ele>
        <time>2021-02-28T08:09:15.284000+00:00</time>
      </trkpt>
      <trkpt lat="0" lon="0">
        <time>2021-02-28T08:09:15.286000+00:00</time>
      </trkpt>
      <trkpt lat="0" lon="0">
        <time>2021-02-28T08:09:15.290000+00:00</time>
      </trkpt>
      <trkpt lat="0" lon="0">
        <time>2021-02-28T08:09:15.291000+00:00</time>
      </trkpt>
      <trkpt lat="47.2909" lon="-1.4083">
        <ele>86</ele>
        <time>2021-02-28T08:09:16.307000+00:00</time>
      </trkpt>
      <trkpt lat="0" lon="0">
        <time>2021-02-28T08:09:16.312000+00:00</time>
      </trkpt>
      <trkpt lat="0" lon="0">
        <time>2021-02-28T08:09:16.318000+00:00</time>
      </trkpt>
      <trkpt lat="0" lon="0">
        <time>2021-02-28T08:09:16.320000+00:00</time>
      </trkpt>
      <trkpt lat="47.29091" lon="-1.40837">
        <ele>86</ele>
        <time>2021-02-28T08:09:17.314000+00:00</time>
      </trkpt>
      <trkpt lat="0" lon="0">
        <time>2021-02-28T08:09:17.319000+00:00</time>
      </trkpt>
      <trkpt lat="0" lon="0">
        <time>2021-02-28T08:09:17.324000+00:00</time>
      </trkpt>
      <trkpt lat="0" lon="0">
        <time>2021-02-28T08:09:17.327000+00:00</time>
      </trkpt>
      <trkpt lat="47.29092" lon="-1.40843">
        <ele>86</ele>
        <time>2021-02-28T08:09:18.316000+00:00</time>
      </trkpt>
      <trkpt lat="0" lon="0">
        <time>2021-02-28T08:09:18.323000+00:00</time>
      </trkpt>
      <trkpt lat="0" lon="0">
        <time>2021-02-28T08:09:18.328000+00:00</time>
      </trkpt>
      <trkpt lat="0" lon="0">
        <time>2021-02-28T08:09:18.331000+00:00</time>
      </trkpt>
      <trkpt lat="47.29093" lon="-1.40849">
        <ele>86</ele>
        <time>2021-02-28T08:09:19.312000+00:00</time>
      </trkpt>
      <trkpt lat="0" lon="0">
        <time>2021-02-28T08:09:19.322000+00:00</time>
      </trkpt>
      <trkpt lat="0" lon="0">
        <time>2021-02-28T08:09:19.331000+00:00</time>
      </trkpt>
      <trkpt lat="0" lon="0">
        <time>2021-02-28T08:09:19.334000+00:00</time>
      </trkpt>
      <trkpt lat="47.29094" lon="-1.40856">
        <ele>87</ele>
        <time>2021-02-28T08:09:20.299000+00:00</time>
      </trkpt>
      <trkpt lat="0" lon="0">
        <time>2021-02-28T08:09:20.311000+00:00</time>
      </trkpt>
      <trkpt lat="0" lon="0">
        <time>2021-02-28T08:09:20.321000+00:00</time>
      </trkpt>
      <trkpt lat="0" lon="0">
        <time>2021-02-28T08:09:20.325000+00:00</time>
      </trkpt>
      <trkpt lat="47.29095" lon="-1.40862">
        <ele>87</ele>
        <time>2021-02-28T08:09:21.293000+00:00</time>
      </trkpt>
      <trkpt lat="0" lon="0">
        <time>2021-02-28T08:09:21.306000+00:00</time>
      </trkpt>
      <trkpt lat="0" lon="0">
        <time>2021-02-28T08:09:21.311000+00:00</time>
      </trkpt>
      <trkpt lat="0" lon="0">
        <time>2021-02-28T08:09:21.315000+00:00</time>
      </trkpt>
      <trkpt lat="47.29096" lon="-1.40868">
        <ele>87</ele>
        <time>2021-02-28T08:09:22.258000+00:00</time>
      </trkpt>
      <trkpt lat="0" lon="0">
        <time>2021-02-28T08:09:22.266000+00:00</time>
      </trkpt>
      <trkpt lat="0" lon="0">
        <time>2021-02-28T08:09:22.270000+00:00</time>
      </trkpt>
      <trkpt lat="0" lon="0">
        <time>2021-02-28T08:09:22.273000+00:00</time>
      </trkpt>
      <trkpt lat="47.29097" lon="-1.40874">
        <ele>87</ele>
        <time>2021-02-28T08:09:23.275000+00:00</time>
      </trkpt>
      <trkpt lat="0" lon="0">
        <time>2021-02-28T08:09:23.287000+00:00</time>
      </trkpt>
      <trkpt lat="0" lon="0">
        <time>2021-02-28T08:09:23.293000+00:00</time>
      </trkpt>
      <trkpt lat="0" lon="0">
        <time>2021-02-28T08:09:23.295000+00:00</time>
      </trkpt>
      <trkpt lat="47.29098" lon="-1.4088">
        <ele>88</ele>
        <time>2021-02-28T08:09:24.258000+00:00</time>
      </trkpt>
      <trkpt lat="0" lon="0">
        <time>2021-02-28T08:09:24.265000+00:00</time>
      </trkpt>
      <trkpt lat="0" lon="0">
        <time>2021-02-28T08:09:24.272000+00:00</time>
      </trkpt>
      <trkpt lat="0" lon="0">
        <time>2021-02-28T08:09:24.275000+00:00</time>
      </trkpt>
      <trkpt lat="47.29099" lon="-1.40886">
        <ele>88</ele>
        <time>2021-02-28T08:09:25.258000+00:00</time>
      </trkpt>
      <trkpt lat="0" lon="0">
        <time>2021-02-28T08:09:25.264000+00:00</time>
      </trkpt>
      <trkpt lat="0" lon="0">
        <time>2021-02-28T08:09:25.271000+00:00</time>
      </trkpt>
      <trkpt lat="0" lon="0">
        <time>2021-02-28T08:09:25.274000+00:00</time>
      </trkpt>
      <trkpt lat="47.291" lon="-1.40892">
        <ele>88</ele>
        <time>2021-02-28T08:09:26.299000+00:00</time>
      </trkpt>
      <trkpt lat="0" lon="0">
        <time>2021-02-28T08:09:26.307000+00:00</time>
      </trkpt>
      <trkpt lat="0" lon="0">
        <time>2021-02-28T08:09:26.313000+00:00</time>
      </trkpt>
      <trkpt lat="0" lon="0">
        <time>2021-02-28T08:09:26.316000+00:00</time>
      </trkpt>
      <trkpt lat="47.29101" lon="-1.40897">
        <ele>89</ele>
        <time>2021-02-28T08:09:27.300000+00:00</time>
      </trkpt>
      <trkpt lat="0" lon="0">
        <time>2021-02-28T08:09:27.309000+00:00</time>
      </trkpt>
      <trkpt lat="0" lon="0">
        <time>2021-02-28T08:09:27.315000+00:00</time>
      </trkpt>
      <trkpt lat="0" lon="0">
        <time>2021-02-28T08:09:27.319000+00:00</time>
      </trkpt>
      <trkpt lat="47.29103" lon="-1.40903">
        <ele>89</ele>
        <time>2021-02-28T08:09:28.307000+00:00</time>
      </trkpt>
      <trkpt lat="0" lon="0">
        <time>2021-02-28T08:09:28.317000+00:00</time>
      </trkpt>
      <trkpt lat="0" lon="0">
        <time>2021-02-28T08:09:28.323000+00:00</time>
      </trkpt>
      <trkpt lat="0" lon="0">
        <time>2021-02-28T08:09:28.326000+00:00</time>
      </trkpt>
      <trkpt lat="47.29104" lon="-1.40908">
        <ele>89</ele>
        <time>2021-02-28T08:09:29.308000+00:00</time>
      </trkpt>
      <trkpt lat="0" lon="0">
        <time>2021-02-28T08:09:29.319000+00:00</time>
      </trkpt>
      <trkpt lat="0" lon="0">
        <time>2021-02-28T08:09:29.326000+00:00</time>
      </trkpt>
      <trkpt lat="0" lon="0">
        <time>2021-02-28T08:09:29.328000+00:00</time>
      </trkpt>
      <trkpt lat="47.29105" lon="-1.40913">
        <ele>89</ele>
        <time>2021-02-28T08:09:30.302000+00:00</time>
      </trkpt>
      <trkpt lat="0" lon="0">
        <time>2021-02-28T08:09:30.311000+00:00</time>
      </trkpt>
      <trkpt lat="0" lon="0">
        <time>2021-02-28T08:09:30.324000+00:00</time>
      </trkpt>
      <trkpt lat="0" lon="0">
        <time>2021-02-28T08:09:30.327000+00:00</time>
      </trkpt>
      <trkpt lat="47.29107" lon="-1.40918">
        <ele>90</ele>
        <time>2021-02-28T08:09:31.271000+00:00</time>
      </trkpt>
      <trkpt lat="0" lon="0">
        <time>2021-02-28T08:09:31.281000+00:00</time>
      </trkpt>
      <trkpt lat="0" lon="0">
        <time>2021-02-28T08:09:31.285000+00:00</time>
      </trkpt>
      <trkpt lat="0" lon="0">
        <time>2021-02-28T08:09:31.287000+00:00</time>
      </trkpt>
      <trkpt lat="47.29108" lon="-1.40923">
        <ele>90</ele>
        <time>2021-02-28T08:09:32.257000+00:00</time>
      </trkpt>
      <trkpt lat="0" lon="0">
        <time>2021-02-28T08:09:32.266000+00:00</time>
      </trkpt>
      <trkpt lat="0" lon="0">
        <time>2021-02-28T08:09:32.271000+00:00</time>
      </trkpt>
      <trkpt lat="0" lon="0">
        <time>2021-02-28T08:09:32.274000+00:00</time>
      </trkpt>
      <trkpt lat="47.2911" lon="-1.40927">
        <ele>90</ele>
        <time>2021-02-28T08:09:33.221000+00:00</time>
      </trkpt>
      <trkpt lat="0" lon="0">
        <time>2021-02-28T08:09:33.227000+00:00</time>
      </trkpt>
      <trkpt lat="0" lon="0">
        <time>2021-02-28T08:09:33.234000+00:00</time>
      </trkpt>
      <trkpt lat="0" lon="0">
        <time>2021-02-28T08:09:33.236000+00:00</time>
      </trkpt>
      <trkpt lat="47.29111" lon="-1.40932">
        <ele>90</ele>
        <time>2021-02-28T08:09:34.265000+00:00</time>
      </trkpt>
      <trkpt lat="0" lon="0">
        <time>2021-02-28T08:09:34.276000+00:00</time>
      </trkpt>
      <trkpt lat="0" lon="0">
        <time>2021-02-28T08:09:34.282000+00:00</time>
      </trkpt>
      <trkpt lat="0" lon="0">
        <time>2021-02-28T08:09:34.286000+00:00</time>
      </trkpt>
      <trkpt lat="47.29112" lon="-1.40936">
        <ele>90</ele>
        <time>2021-02-28T08:09:35.271000+00:00</time>
      </trkpt>
      <trkpt lat="0" lon="0">
        <time>2021-02-28T08:09:35.284000+00:00</time>
      </trkpt>
      <trkpt lat="0" lon="0">
        <time>2021-02-28T08:09:35.293000+00:00</time>
      </trkpt>
      <trkpt lat="0" lon="0">
        <time>2021-02-28T08:09:35.297000+00:00</time>
      </trkpt>
      <trkpt lat="47.29114" lon="-1.4094">
        <ele>90</ele>
        <time>2021-02-28T08:09:36.289000+00:00</time>
      </trkpt>
      <trkpt lat="0" lon="0">
        <time>2021-02-28T08:09:36.301000+00:00</time>
      </trkpt>
      <trkpt lat="0" lon="0">
        <time>2021-02-28T08:09:36.307000+00:00</time>
      </trkpt>
      <trkpt lat="0" lon="0">
        <time>2021-02-28T08:09:36.310000+00:00</time>
      </trkpt>
      <trkpt lat="47.29115" lon="-1.40945">
        <ele>91</ele>
        <time>2021-02-28T08:09:37.287000+00:00</time>
      </trkpt>
      <trkpt lat="0" lon="0">
        <time>2021-02-28T08:09:37.296000+00:00</time>
      </trkpt>
      <trkpt lat="0" lon="0">
        <time>2021-02-28T08:09:37.303000+00:00</time>
      </trkpt>
      <trkpt lat="0" lon="0">
        <time>2021-02-28T08:09:37.305000+00:00</time>
      </trkpt>
      <trkpt lat="47.29116" lon="-1.40949">
        <ele>91</ele>
        <time>2021-02-28T08:09:38.207000+00:00</time>
      </trkpt>
      <trkpt lat="0" lon="0">
        <time>2021-02-28T08:09:38.221000+00:00</time>
      </trkpt>
      <trkpt lat="0" lon="0">
        <time>2021-02-28T08:09:38.226000+00:00</time>
      </trkpt>
      <trkpt lat="0" lon="0">
        <time>2021-02-28T08:09:38.228000+00:00</time>
      </trkpt>
      <trkpt lat="47.29117" lon="-1.40953">
        <ele>91</ele>
        <time>2021-02-28T08:09:39.276000+00:00</time>
      </trkpt>
      <trkpt lat="0" lon="0">
        <time>2021-02-28T08:09:39.286000+00:00</time>
      </trkpt>
      <trkpt lat="0" lon="0">
        <time>2021-02-28T08:09:39.291000+00:00</time>
      </trkpt>
      <trkpt lat="0" lon="0">
        <time>2021-02-28T08:09:39.295000+00:00</time>
      </trkpt>
      <trkpt lat="47.29118" lon="-1.40957">
        <ele>91</ele>
        <time>2021-02-28T08:09:40.241000+00:00</time>
      </trkpt>
      <trkpt lat="0" lon="0">
        <time>2021-02-28T08:09:40.250000+00:00</time>
      </trkpt>
      <trkpt lat="0" lon="0">
        <time>2021-02-28T08:09:40.254000+00:00</time>
      </trkpt>
      <trkpt lat="0" lon="0">
        <time>2021-02-28T08:09:40.257000+00:00</time>
      </trkpt>
      <trkpt lat="47.29119" lon="-1.40961">
        <ele>92</ele>
        <time>2021-02-28T08:09:41.264000+00:00</time>
      </trkpt>
      <trkpt lat="0" lon="0">
        <time>2021-02-28T08:09:41.271000+00:00</time>
      </trkpt>
      <trkpt lat="0" lon="0">
        <time>2021-02-28T08:09:41.276000+00:00</time>
      </trkpt>
      <trkpt lat="0" lon="0">
        <time>2021-02-28T08:09:41.278000+00:00</time>
      </trkpt>
      <trkpt lat="47.29121" lon="-1.40965">
        <ele>92</ele>
        <time>2021-02-28T08:09:42.250000+00:00</time>
      </trkpt>
      <trkpt lat="0" lon="0">
        <time>2021-02-28T08:09:42.257000+00:00</time>
      </trkpt>
      <trkpt lat="0" lon="0">
        <time>2021-02-28T08:09:42.263000+00:00</time>
      </trkpt>
      <trkpt lat="0" lon="0">
        <time>2021-02-28T08:09:42.264000+00:00</time>
      </trkpt>
      <trkpt lat="47.29122" lon="-1.40969">
        <ele>92</ele>
        <time>2021-02-28T08:09:43.280000+00:00</time>
      </trkpt>
      <trkpt lat="0" lon="0">
        <time>2021-02-28T08:09:43.286000+00:00</time>
      </trkpt>
      <trkpt lat="0" lon="0">
        <time>2021-02-28T08:09:43.291000+00:00</time>
      </trkpt>
      <trkpt lat="0" lon="0">
        <time>2021-02-28T08:09:43.295000+00:00</time>
      </trkpt>
      <trkpt lat="47.29123" lon="-1.40972">
        <ele>92</ele>
        <time>2021-02-28T08:09:44.253000+00:00</time>
      </trkpt>
      <trkpt lat="0" lon="0">
        <time>2021-02-28T08:09:44.261000+00:00</time>
      </trkpt>
      <trkpt lat="0" lon="0">
        <time>2021-02-28T08:09:44.269000+00:00</time>
      </trkpt>
      <trkpt lat="0" lon="0">
        <time>2021-02-28T08:09:44.271000+00:00</time>
      </trkpt>
      <trkpt lat="47.29124" lon="-1.40976">
        <ele>93</ele>
        <time>2021-02-28T08:09:45.302000+00:00</time>
      </trkpt>
      <trkpt lat="0" lon="0">
        <time>2021-02-28T08:09:45.316000+00:00</time>
      </trkpt>
      <trkpt lat="0" lon="0">
        <time>2021-02-28T08:09:45.327000+00:00</time>
      </trkpt>
      <trkpt lat="0" lon="0">
        <time>2021-02-28T08:09:45.329000+00:00</time>
      </trkpt>
      <trkpt lat="47.29126" lon="-1.4098">
        <ele>93</ele>
        <time>2021-02-28T08:09:46.293000+00:00</time>
      </trkpt>
      <trkpt lat="0" lon="0">
        <time>2021-02-28T08:09:46.302000+00:00</time>
      </trkpt>
      <trkpt lat="0" lon="0">
        <time>2021-02-28T08:09:46.307000+00:00</time>
      </trkpt>
      <trkpt lat="0" lon="0">
        <time>2021-02-28T08:09:46.313000+00:00</time>
      </trkpt>
      <trkpt lat="47.29127" lon="-1.40984">
        <ele>93</ele>
        <time>2021-02-28T08:09:47.282000+00:00</time>
      </trkpt>
      <trkpt lat="0" lon="0">
        <time>2021-02-28T08:09:47.293000+00:00</time>
      </trkpt>
      <trkpt lat="0" lon="0">
        <time>2021-02-28T08:09:47.299000+00:00</time>
      </trkpt>
      <trkpt lat="0" lon="0">
        <time>2021-02-28T08:09:47.302000+00:00</time>
      </trkpt>
      <trkpt lat="47.29128" lon="-1.40988">
        <ele>93</ele>
        <time>2021-02-28T08:09:48.208000+00:00</time>
      </trkpt>
      <trkpt lat="0" lon="0">
        <time>2021-02-28T08:09:48.213000+00:00</time>
      </trkpt>
      <trkpt lat="0" lon="0">
        <time>2021-02-28T08:09:48.217000+00:00</time>
      </trkpt>
      <trkpt lat="0" lon="0">
        <time>2021-02-28T08:09:48.220000+00:00</time>
      </trkpt>
      <trkpt lat="47.2913" lon="-1.40992">
        <ele>94</ele>
        <time>2021-02-28T08:09:49.279000+00:00</time>
      </trkpt>
      <trkpt lat="0" lon="0">
        <time>2021-02-28T08:09:49.294000+00:00</time>
      </trkpt>
      <trkpt lat="0" lon="0">
        <time>2021-02-28T08:09:49.303000+00:00</time>
      </trkpt>
      <trkpt lat="0" lon="0">
        <time>2021-02-28T08:09:49.308000+00:00</time>
      </trkpt>
      <trkpt lat="47.29131" lon="-1.40996">
        <ele>94</ele>
        <time>2021-02-28T08:09:50.300000+00:00</time>
      </trkpt>
      <trkpt lat="0" lon="0">
        <time>2021-02-28T08:09:50.326000+00:00</time>
      </trkpt>
      <trkpt lat="0" lon="0">
        <time>2021-02-28T08:09:50.332000+00:00</time>
      </trkpt>
      <trkpt lat="0" lon="0">
        <time>2021-02-28T08:09:50.335000+00:00</time>
      </trkpt>
      <trkpt lat="47.29133" lon="-1.41">
        <ele>94</ele>
        <time>2021-02-28T08:09:51.275000+00:00</time>
      </trkpt>
      <trkpt lat="0" lon="0">
        <time>2021-02-28T08:09:51.281000+00:00</time>
      </trkpt>
      <trkpt lat="0" lon="0">
        <time>2021-02-28T08:09:51.283000+00:00</time>
      </trkpt>
      <trkpt lat="0" lon="0">
        <time>2021-02-28T08:09:51.284000+00:00</time>
      </trkpt>
      <trkpt lat="47.29134" lon="-1.41003">
        <ele>94</ele>
        <time>2021-02-28T08:09:52.261000+00:00</time>
      </trkpt>
      <trkpt lat="0" lon="0">
        <time>2021-02-28T08:09:52.266000+00:00</time>
      </trkpt>
      <trkpt lat="0" lon="0">
        <time>2021-02-28T08:09:52.271000+00:00</time>
      </trkpt>
      <trkpt lat="0" lon="0">
        <time>2021-02-28T08:09:52.274000+00:00</time>
      </trkpt>
      <trkpt lat="47.29135" lon="-1.41007">
        <ele>94</ele>
        <time>2021-02-28T08:09:53.302000+00:00</time>
      </trkpt>
      <trkpt lat="0" lon="0">
        <time>2021-02-28T08:09:53.310000+00:00</time>
      </trkpt>
      <trkpt lat="0" lon="0">
        <time>2021-02-28T08:09:53.316000+00:00</time>
      </trkpt>
      <trkpt lat="0" lon="0">
        <time>2021-02-28T08:09:53.319000+00:00</time>
      </trkpt>
      <trkpt lat="47.29136" lon="-1.41011">
        <ele>95</ele>
        <time>2021-02-28T08:09:54.312000+00:00</time>
      </trkpt>
      <trkpt lat="0" lon="0">
        <time>2021-02-28T08:09:54.322000+00:00</time>
      </trkpt>
      <trkpt lat="0" lon="0">
        <time>2021-02-28T08:09:54.327000+00:00</time>
      </trkpt>
      <trkpt lat="0" lon="0">
        <time>2021-02-28T08:09:54.330000+00:00</time>
      </trkpt>
      <trkpt lat="47.29138" lon="-1.41014">
        <ele>95</ele>
        <time>2021-02-28T08:09:55.298000+00:00</time>
      </trkpt>
      <trkpt lat="0" lon="0">
        <time>2021-02-28T08:09:55.304000+00:00</time>
      </trkpt>
      <trkpt lat="0" lon="0">
        <time>2021-02-28T08:09:55.310000+00:00</time>
      </trkpt>
      <trkpt lat="0" lon="0">
        <time>2021-02-28T08:09:55.312000+00:00</time>
      </trkpt>
      <trkpt lat="47.29139" lon="-1.41018">
        <ele>95</ele>
        <time>2021-02-28T08:09:56.297000+00:00</time>
      </trkpt>
      <trkpt lat="0" lon="0">
        <time>2021-02-28T08:09:56.301000+00:00</time>
      </trkpt>
      <trkpt lat="0" lon="0">
        <time>2021-02-28T08:09:56.306000+00:00</time>
      </trkpt>
      <trkpt lat="0" lon="0">
        <time>2021-02-28T08:09:56.309000+00:00</time>
      </trkpt>
      <trkpt lat="47.2914" lon="-1.41022">
        <ele>95</ele>
        <time>2021-02-28T08:09:57.320000+00:00</time>
      </trkpt>
      <trkpt lat="0" lon="0">
        <time>2021-02-28T08:09:57.334000+00:00</time>
      </trkpt>
      <trkpt lat="0" lon="0">
        <time>2021-02-28T08:09:57.343000+00:00</time>
      </trkpt>
      <trkpt lat="0" lon="0">
        <time>2021-02-28T08:09:57.346000+00:00</time>
      </trkpt>
      <trkpt lat="47.29142" lon="-1.41025">
        <ele>95</ele>
        <time>2021-02-28T08:09:58.266000+00:00</time>
      </trkpt>
      <trkpt lat="0" lon="0">
        <time>2021-02-28T08:09:58.270000+00:00</time>
      </trkpt>
      <trkpt lat="0" lon="0">
        <time>2021-02-28T08:09:58.278000+00:00</time>
      </trkpt>
      <trkpt lat="0" lon="0">
        <time>2021-02-28T08:09:58.280000+00:00</time>
      </trkpt>
      <trkpt lat="47.29143" lon="-1.41029">
        <ele>96</ele>
        <time>2021-02-28T08:09:59.320000+00:00</time>
      </trkpt>
      <trkpt lat="0" lon="0">
        <time>2021-02-28T08:09:59.329000+00:00</time>
      </trkpt>
      <trkpt lat="0" lon="0">
        <time>2021-02-28T08:09:59.335000+00:00</time>
      </trkpt>
      <trkpt lat="0" lon="0">
        <time>2021-02-28T08:09:59.339000+00:00</time>
      </trkpt>
      <trkpt lat="47.29144" lon="-1.41033">
        <ele>96</ele>
        <time>2021-02-28T08:10:00.307000+00:00</time>
      </trkpt>
      <trkpt lat="0" lon="0">
        <time>2021-02-28T08:10:00.316000+00:00</time>
      </trkpt>
      <trkpt lat="0" lon="0">
        <time>2021-02-28T08:10:00.320000+00:00</time>
      </trkpt>
      <trkpt lat="0" lon="0">
        <time>2021-02-28T08:10:00.322000+00:00</time>
      </trkpt>
      <trkpt lat="47.29145" lon="-1.41037">
        <ele>96</ele>
        <time>2021-02-28T08:10:01.302000+00:00</time>
      </trkpt>
      <trkpt lat="0" lon="0">
        <time>2021-02-28T08:10:01.311000+00:00</time>
      </trkpt>
      <trkpt lat="0" lon="0">
        <time>2021-02-28T08:10:01.318000+00:00</time>
      </trkpt>
      <trkpt lat="0" lon="0">
        <time>2021-02-28T08:10:01.322000+00:00</time>
      </trkpt>
      <trkpt lat="47.29146" lon="-1.4104">
        <ele>97</ele>
        <time>2021-02-28T08:10:02.331000+00:00</time>
      </trkpt>
      <trkpt lat="0" lon="0">
        <time>2021-02-28T08:10:02.343000+00:00</time>
      </trkpt>
      <trkpt lat="0" lon="0">
        <time>2021-02-28T08:10:02.348000+00:00</time>
      </trkpt>
      <trkpt lat="0" lon="0">
        <time>2021-02-28T08:10:02.353000+00:00</time>
      </trkpt>
      <trkpt lat="47.29148" lon="-1.41044">
        <ele>97</ele>
        <time>2021-02-28T08:10:03.293000+00:00</time>
      </trkpt>
      <trkpt lat="0" lon="0">
        <time>2021-02-28T08:10:03.295000+00:00</time>
      </trkpt>
      <trkpt lat="0" lon="0">
        <time>2021-02-28T08:10:03.296000+00:00</time>
      </trkpt>
      <trkpt lat="0" lon="0">
        <time>2021-02-28T08:10:03.297000+00:00</time>
      </trkpt>
      <trkpt lat="47.29149" lon="-1.41048">
        <ele>97</ele>
        <time>2021-02-28T08:10:04.311000+00:00</time>
      </trkpt>
      <trkpt lat="0" lon="0">
        <time>2021-02-28T08:10:04.318000+00:00</time>
      </trkpt>
      <trkpt lat="0" lon="0">
        <time>2021-02-28T08:10:04.323000+00:00</time>
      </trkpt>
      <trkpt lat="0" lon="0">
        <time>2021-02-28T08:10:04.326000+00:00</time>
      </trkpt>
      <trkpt lat="47.29151" lon="-1.41051">
        <ele>97</ele>
        <time>2021-02-28T08:10:05.346000+00:00</time>
      </trkpt>
      <trkpt lat="0" lon="0">
        <time>2021-02-28T08:10:05.351000+00:00</time>
      </trkpt>
      <trkpt lat="0" lon="0">
        <time>2021-02-28T08:10:05.357000+00:00</time>
      </trkpt>
      <trkpt lat="0" lon="0">
        <time>2021-02-28T08:10:05.360000+00:00</time>
      </trkpt>
      <trkpt lat="47.29152" lon="-1.41055">
        <ele>97</ele>
        <time>2021-02-28T08:10:06.334000+00:00</time>
      </trkpt>
      <trkpt lat="0" lon="0">
        <time>2021-02-28T08:10:06.340000+00:00</time>
      </trkpt>
      <trkpt lat="0" lon="0">
        <time>2021-02-28T08:10:06.346000+00:00</time>
      </trkpt>
      <trkpt lat="0" lon="0">
        <time>2021-02-28T08:10:06.349000+00:00</time>
      </trkpt>
      <trkpt lat="47.29153" lon="-1.41058">
        <ele>98</ele>
        <time>2021-02-28T08:10:07.344000+00:00</time>
      </trkpt>
      <trkpt lat="0" lon="0">
        <time>2021-02-28T08:10:07.354000+00:00</time>
      </trkpt>
      <trkpt lat="0" lon="0">
        <time>2021-02-28T08:10:07.360000+00:00</time>
      </trkpt>
      <trkpt lat="0" lon="0">
        <time>2021-02-28T08:10:07.362000+00:00</time>
      </trkpt>
      <trkpt lat="47.29154" lon="-1.41062">
        <ele>98</ele>
        <time>2021-02-28T08:10:08.314000+00:00</time>
      </trkpt>
      <trkpt lat="0" lon="0">
        <time>2021-02-28T08:10:08.319000+00:00</time>
      </trkpt>
      <trkpt lat="0" lon="0">
        <time>2021-02-28T08:10:08.326000+00:00</time>
      </trkpt>
      <trkpt lat="0" lon="0">
        <time>2021-02-28T08:10:08.329000+00:00</time>
      </trkpt>
      <trkpt lat="47.29156" lon="-1.41066">
        <ele>98</ele>
        <time>2021-02-28T08:10:09.335000+00:00</time>
      </trkpt>
      <trkpt lat="0" lon="0">
        <time>2021-02-28T08:10:09.341000+00:00</time>
      </trkpt>
      <trkpt lat="0" lon="0">
        <time>2021-02-28T08:10:09.347000+00:00</time>
      </trkpt>
      <trkpt lat="0" lon="0">
        <time>2021-02-28T08:10:09.350000+00:00</time>
      </trkpt>
      <trkpt lat="47.29157" lon="-1.41069">
        <ele>98</ele>
        <time>2021-02-28T08:10:10.321000+00:00</time>
      </trkpt>
      <trkpt lat="0" lon="0">
        <time>2021-02-28T08:10:10.330000+00:00</time>
      </trkpt>
      <trkpt lat="0" lon="0">
        <time>2021-02-28T08:10:10.345000+00:00</time>
      </trkpt>
      <trkpt lat="0" lon="0">
        <time>2021-02-28T08:10:10.347000+00:00</time>
      </trkpt>
      <trkpt lat="47.29158" lon="-1.41073">
        <ele>98</ele>
        <time>2021-02-28T08:10:11.349000+00:00</time>
      </trkpt>
      <trkpt lat="0" lon="0">
        <time>2021-02-28T08:10:11.359000+00:00</time>
      </trkpt>
      <trkpt lat="0" lon="0">
        <time>2021-02-28T08:10:11.366000+00:00</time>
      </trkpt>
      <trkpt lat="0" lon="0">
        <time>2021-02-28T08:10:11.369000+00:00</time>
      </trkpt>
      <trkpt lat="47.2916" lon="-1.41078">
        <ele>99</ele>
        <time>2021-02-28T08:10:12.308000+00:00</time>
      </trkpt>
      <trkpt lat="0" lon="0">
        <time>2021-02-28T08:10:12.317000+00:00</time>
      </trkpt>
      <trkpt lat="0" lon="0">
        <time>2021-02-28T08:10:12.322000+00:00</time>
      </trkpt>
      <trkpt lat="0" lon="0">
        <time>2021-02-28T08:10:12.325000+00:00</time>
      </trkpt>
      <trkpt lat="47.29161" lon="-1.41082">
        <ele>99</ele>
        <time>2021-02-28T08:10:13.315000+00:00</time>
      </trkpt>
      <trkpt lat="0" lon="0">
        <time>2021-02-28T08:10:13.323000+00:00</time>
      </trkpt>
      <trkpt lat="0" lon="0">
        <time>2021-02-28T08:10:13.327000+00:00</time>
      </trkpt>
      <trkpt lat="0" lon="0">
        <time>2021-02-28T08:10:13.329000+00:00</time>
      </trkpt>
      <trkpt lat="47.29163" lon="-1.41086">
        <ele>99</ele>
        <time>2021-02-28T08:10:14.296000+00:00</time>
      </trkpt>
      <trkpt lat="0" lon="0">
        <time>2021-02-28T08:10:14.303000+00:00</time>
      </trkpt>
      <trkpt lat="0" lon="0">
        <time>2021-02-28T08:10:14.308000+00:00</time>
      </trkpt>
      <trkpt lat="0" lon="0">
        <time>2021-02-28T08:10:14.310000+00:00</time>
      </trkpt>
      <trkpt lat="47.29164" lon="-1.4109">
        <ele>100</ele>
        <time>2021-02-28T08:10:15.289000+00:00</time>
      </trkpt>
      <trkpt lat="0" lon="0">
        <time>2021-02-28T08:10:15.291000+00:00</time>
      </trkpt>
      <trkpt lat="0" lon="0">
        <time>2021-02-28T08:10:15.293000+00:00</time>
      </trkpt>
      <trkpt lat="0" lon="0">
        <time>2021-02-28T08:10:15.294000+00:00</time>
      </trkpt>
      <trkpt lat="47.29165" lon="-1.41095">
        <ele>100</ele>
        <time>2021-02-28T08:10:16.288000+00:00</time>
      </trkpt>
      <trkpt lat="0" lon="0">
        <time>2021-02-28T08:10:16.295000+00:00</time>
      </trkpt>
      <trkpt lat="0" lon="0">
        <time>2021-02-28T08:10:16.300000+00:00</time>
      </trkpt>
      <trkpt lat="0" lon="0">
        <time>2021-02-28T08:10:16.303000+00:00</time>
      </trkpt>
      <trkpt lat="47.29166" lon="-1.41099">
        <ele>100</ele>
        <time>2021-02-28T08:10:17.310000+00:00</time>
      </trkpt>
      <trkpt lat="0" lon="0">
        <time>2021-02-28T08:10:17.316000+00:00</time>
      </trkpt>
      <trkpt lat="0" lon="0">
        <time>2021-02-28T08:10:17.321000+00:00</time>
      </trkpt>
      <trkpt lat="0" lon="0">
        <time>2021-02-28T08:10:17.327000+00:00</time>
      </trkpt>
      <trkpt lat="47.29167" lon="-1.41103">
        <ele>100</ele>
        <time>2021-02-28T08:10:18.296000+00:00</time>
      </trkpt>
      <trkpt lat="0" lon="0">
        <time>2021-02-28T08:10:18.308000+00:00</time>
      </trkpt>
      <trkpt lat="0" lon="0">
        <time>2021-02-28T08:10:18.315000+00:00</time>
      </trkpt>
      <trkpt lat="0" lon="0">
        <time>2021-02-28T08:10:18.318000+00:00</time>
      </trkpt>
      <trkpt lat="47.29168" lon="-1.41107">
        <ele>101</ele>
        <time>2021-02-28T08:10:19.324000+00:00</time>
      </trkpt>
      <trkpt lat="0" lon="0">
        <time>2021-02-28T08:10:19.331000+00:00</time>
      </trkpt>
      <trkpt lat="0" lon="0">
        <time>2021-02-28T08:10:19.337000+00:00</time>
      </trkpt>
      <trkpt lat="0" lon="0">
        <time>2021-02-28T08:10:19.340000+00:00</time>
      </trkpt>
      <trkpt lat="47.2917" lon="-1.4111">
        <ele>101</ele>
        <time>2021-02-28T08:10:20.328000+00:00</time>
      </trkpt>
      <trkpt lat="0" lon="0">
        <time>2021-02-28T08:10:20.337000+00:00</time>
      </trkpt>
      <trkpt lat="0" lon="0">
        <time>2021-02-28T08:10:20.344000+00:00</time>
      </trkpt>
      <trkpt lat="0" lon="0">
        <time>2021-02-28T08:10:20.348000+00:00</time>
      </trkpt>
      <trkpt lat="47.29171" lon="-1.41114">
        <ele>102</ele>
        <time>2021-02-28T08:10:21.311000+00:00</time>
      </trkpt>
      <trkpt lat="0" lon="0">
        <time>2021-02-28T08:10:21.324000+00:00</time>
      </trkpt>
      <trkpt lat="0" lon="0">
        <time>2021-02-28T08:10:21.326000+00:00</time>
      </trkpt>
      <trkpt lat="0" lon="0">
        <time>2021-02-28T08:10:21.327000+00:00</time>
      </trkpt>
      <trkpt lat="47.29172" lon="-1.41117">
        <ele>103</ele>
        <time>2021-02-28T08:10:22.354000+00:00</time>
      </trkpt>
      <trkpt lat="0" lon="0">
        <time>2021-02-28T08:10:22.360000+00:00</time>
      </trkpt>
      <trkpt lat="0" lon="0">
        <time>2021-02-28T08:10:22.366000+00:00</time>
      </trkpt>
      <trkpt lat="0" lon="0">
        <time>2021-02-28T08:10:22.369000+00:00</time>
      </trkpt>
      <trkpt lat="47.29173" lon="-1.41121">
        <ele>104</ele>
        <time>2021-02-28T08:10:23.323000+00:00</time>
      </trkpt>
      <trkpt lat="0" lon="0">
        <time>2021-02-28T08:10:23.338000+00:00</time>
      </trkpt>
      <trkpt lat="0" lon="0">
        <time>2021-02-28T08:10:23.344000+00:00</time>
      </trkpt>
      <trkpt lat="0" lon="0">
        <time>2021-02-28T08:10:23.349000+00:00</time>
      </trkpt>
      <trkpt lat="47.29174" lon="-1.41124">
        <ele>105</ele>
        <time>2021-02-28T08:10:24.323000+00:00</time>
      </trkpt>
      <trkpt lat="0" lon="0">
        <time>2021-02-28T08:10:24.333000+00:00</time>
      </trkpt>
      <trkpt lat="0" lon="0">
        <time>2021-02-28T08:10:24.341000+00:00</time>
      </trkpt>
      <trkpt lat="0" lon="0">
        <time>2021-02-28T08:10:24.344000+00:00</time>
      </trkpt>
      <trkpt lat="47.29175" lon="-1.41127">
        <ele>105</ele>
        <time>2021-02-28T08:10:25.311000+00:00</time>
      </trkpt>
      <trkpt lat="0" lon="0">
        <time>2021-02-28T08:10:25.318000+00:00</time>
      </trkpt>
      <trkpt lat="0" lon="0">
        <time>2021-02-28T08:10:25.323000+00:00</time>
      </trkpt>
      <trkpt lat="0" lon="0">
        <time>2021-02-28T08:10:25.326000+00:00</time>
      </trkpt>
      <trkpt lat="47.29176" lon="-1.41131">
        <ele>105</ele>
        <time>2021-02-28T08:10:26.309000+00:00</time>
      </trkpt>
      <trkpt lat="0" lon="0">
        <time>2021-02-28T08:10:26.324000+00:00</time>
      </trkpt>
      <trkpt lat="0" lon="0">
        <time>2021-02-28T08:10:26.329000+00:00</time>
      </trkpt>
      <trkpt lat="0" lon="0">
        <time>2021-02-28T08:10:26.333000+00:00</time>
      </trkpt>
      <trkpt lat="47.29177" lon="-1.41134">
        <ele>106</ele>
        <time>2021-02-28T08:10:27.315000+00:00</time>
      </trkpt>
      <trkpt lat="0" lon="0">
        <time>2021-02-28T08:10:27.323000+00:00</time>
      </trkpt>
      <trkpt lat="0" lon="0">
        <time>2021-02-28T08:10:27.330000+00:00</time>
      </trkpt>
      <trkpt lat="0" lon="0">
        <time>2021-02-28T08:10:27.335000+00:00</time>
      </trkpt>
      <trkpt lat="47.29179" lon="-1.41138">
        <ele>106</ele>
        <time>2021-02-28T08:10:28.323000+00:00</time>
      </trkpt>
      <trkpt lat="0" lon="0">
        <time>2021-02-28T08:10:28.340000+00:00</time>
      </trkpt>
      <trkpt lat="0" lon="0">
        <time>2021-02-28T08:10:28.349000+00:00</time>
      </trkpt>
      <trkpt lat="0" lon="0">
        <time>2021-02-28T08:10:28.355000+00:00</time>
      </trkpt>
      <trkpt lat="47.2918" lon="-1.41142">
        <ele>107</ele>
        <time>2021-02-28T08:10:29.350000+00:00</time>
      </trkpt>
      <trkpt lat="0" lon="0">
        <time>2021-02-28T08:10:29.360000+00:00</time>
      </trkpt>
      <trkpt lat="0" lon="0">
        <time>2021-02-28T08:10:29.365000+00:00</time>
      </trkpt>
      <trkpt lat="0" lon="0">
        <time>2021-02-28T08:10:29.368000+00:00</time>
      </trkpt>
      <trkpt lat="47.29181" lon="-1.41146">
        <ele>107</ele>
        <time>2021-02-28T08:10:30.282000+00:00</time>
      </trkpt>
      <trkpt lat="0" lon="0">
        <time>2021-02-28T08:10:30.288000+00:00</time>
      </trkpt>
      <trkpt lat="0" lon="0">
        <time>2021-02-28T08:10:30.295000+00:00</time>
      </trkpt>
      <trkpt lat="0" lon="0">
        <time>2021-02-28T08:10:30.299000+00:00</time>
      </trkpt>
      <trkpt lat="47.29182" lon="-1.4115">
        <ele>108</ele>
        <time>2021-02-28T08:10:31.322000+00:00</time>
      </trkpt>
      <trkpt lat="0" lon="0">
        <time>2021-02-28T08:10:31.330000+00:00</time>
      </trkpt>
      <trkpt lat="0" lon="0">
        <time>2021-02-28T08:10:31.335000+00:00</time>
      </trkpt>
      <trkpt lat="0" lon="0">
        <time>2021-02-28T08:10:31.337000+00:00</time>
      </trkpt>
      <trkpt lat="47.29183" lon="-1.41154">
        <ele>109</ele>
        <time>2021-02-28T08:10:32.278000+00:00</time>
      </trkpt>
      <trkpt lat="0" lon="0">
        <time>2021-02-28T08:10:32.286000+00:00</time>
      </trkpt>
      <trkpt lat="0" lon="0">
        <time>2021-02-28T08:10:32.292000+00:00</time>
      </trkpt>
      <trkpt lat="0" lon="0">
        <time>2021-02-28T08:10:32.298000+00:00</time>
      </trkpt>
      <trkpt lat="47.29184" lon="-1.41158">
        <ele>109</ele>
        <time>2021-02-28T08:10:33.314000+00:00</time>
      </trkpt>
      <trkpt lat="0" lon="0">
        <time>2021-02-28T08:10:33.320000+00:00</time>
      </trkpt>
      <trkpt lat="0" lon="0">
        <time>2021-02-28T08:10:33.327000+00:00</time>
      </trkpt>
      <trkpt lat="0" lon="0">
        <time>2021-02-28T08:10:33.329000+00:00</time>
      </trkpt>
      <trkpt lat="47.29185" lon="-1.41162">
        <ele>110</ele>
        <time>2021-02-28T08:10:34.340000+00:00</time>
      </trkpt>
      <trkpt lat="0" lon="0">
        <time>2021-02-28T08:10:34.346000+00:00</time>
      </trkpt>
      <trkpt lat="0" lon="0">
        <time>2021-02-28T08:10:34.351000+00:00</time>
      </trkpt>
      <trkpt lat="0" lon="0">
        <time>2021-02-28T08:10:34.354000+00:00</time>
      </trkpt>
      <trkpt lat="47.29187" lon="-1.41166">
        <ele>109</ele>
        <time>2021-02-28T08:10:35.282000+00:00</time>
      </trkpt>
      <trkpt lat="0" lon="0">
        <time>2021-02-28T08:10:35.290000+00:00</time>
      </trkpt>
      <trkpt lat="0" lon="0">
        <time>2021-02-28T08:10:35.298000+00:00</time>
      </trkpt>
      <trkpt lat="0" lon="0">
        <time>2021-02-28T08:10:35.301000+00:00</time>
      </trkpt>
      <trkpt lat="47.29188" lon="-1.4117">
        <ele>110</ele>
        <time>2021-02-28T08:10:36.323000+00:00</time>
      </trkpt>
      <trkpt lat="0" lon="0">
        <time>2021-02-28T08:10:36.332000+00:00</time>
      </trkpt>
      <trkpt lat="0" lon="0">
        <time>2021-02-28T08:10:36.338000+00:00</time>
      </trkpt>
      <trkpt lat="0" lon="0">
        <time>2021-02-28T08:10:36.341000+00:00</time>
      </trkpt>
      <trkpt lat="47.29189" lon="-1.41174">
        <ele>110</ele>
        <time>2021-02-28T08:10:37.307000+00:00</time>
      </trkpt>
      <trkpt lat="0" lon="0">
        <time>2021-02-28T08:10:37.318000+00:00</time>
      </trkpt>
      <trkpt lat="0" lon="0">
        <time>2021-02-28T08:10:37.325000+00:00</time>
      </trkpt>
      <trkpt lat="0" lon="0">
        <time>2021-02-28T08:10:37.327000+00:00</time>
      </trkpt>
      <trkpt lat="47.2919" lon="-1.41178">
        <ele>110</ele>
        <time>2021-02-28T08:10:38.296000+00:00</time>
      </trkpt>
      <trkpt lat="0" lon="0">
        <time>2021-02-28T08:10:38.298000+00:00</time>
      </trkpt>
      <trkpt lat="0" lon="0">
        <time>2021-02-28T08:10:38.300000+00:00</time>
      </trkpt>
      <trkpt lat="0" lon="0">
        <time>2021-02-28T08:10:38.302000+00:00</time>
      </trkpt>
      <trkpt lat="47.29191" lon="-1.41183">
        <ele>111</ele>
        <time>2021-02-28T08:10:39.297000+00:00</time>
      </trkpt>
      <trkpt lat="0" lon="0">
        <time>2021-02-28T08:10:39.302000+00:00</time>
      </trkpt>
      <trkpt lat="0" lon="0">
        <time>2021-02-28T08:10:39.309000+00:00</time>
      </trkpt>
      <trkpt lat="0" lon="0">
        <time>2021-02-28T08:10:39.312000+00:00</time>
      </trkpt>
      <trkpt lat="47.29192" lon="-1.41187">
        <ele>111</ele>
        <time>2021-02-28T08:10:40.334000+00:00</time>
      </trkpt>
      <trkpt lat="0" lon="0">
        <time>2021-02-28T08:10:40.342000+00:00</time>
      </trkpt>
      <trkpt lat="0" lon="0">
        <time>2021-02-28T08:10:40.347000+00:00</time>
      </trkpt>
      <trkpt lat="0" lon="0">
        <time>2021-02-28T08:10:40.351000+00:00</time>
      </trkpt>
      <trkpt lat="47.29194" lon="-1.41197">
        <ele>111</ele>
        <time>2021-02-28T08:10:42.310000+00:00</time>
      </trkpt>
      <trkpt lat="0" lon="0">
        <time>2021-02-28T08:10:42.323000+00:00</time>
      </trkpt>
      <trkpt lat="0" lon="0">
        <time>2021-02-28T08:10:42.329000+00:00</time>
      </trkpt>
      <trkpt lat="0" lon="0">
        <time>2021-02-28T08:10:42.333000+00:00</time>
      </trkpt>
      <trkpt lat="47.29195" lon="-1.41202">
        <ele>112</ele>
        <time>2021-02-28T08:10:43.309000+00:00</time>
      </trkpt>
      <trkpt lat="0" lon="0">
        <time>2021-02-28T08:10:43.315000+00:00</time>
      </trkpt>
      <trkpt lat="0" lon="0">
        <time>2021-02-28T08:10:43.321000+00:00</time>
      </trkpt>
      <trkpt lat="0" lon="0">
        <time>2021-02-28T08:10:43.324000+00:00</time>
      </trkpt>
      <trkpt lat="47.29195" lon="-1.41207">
        <ele>112</ele>
        <time>2021-02-28T08:10:44.292000+00:00</time>
      </trkpt>
      <trkpt lat="0" lon="0">
        <time>2021-02-28T08:10:44.301000+00:00</time>
      </trkpt>
      <trkpt lat="0" lon="0">
        <time>2021-02-28T08:10:44.306000+00:00</time>
      </trkpt>
      <trkpt lat="0" lon="0">
        <time>2021-02-28T08:10:44.308000+00:00</time>
      </trkpt>
      <trkpt lat="47.29196" lon="-1.41212">
        <ele>112</ele>
        <time>2021-02-28T08:10:45.307000+00:00</time>
      </trkpt>
      <trkpt lat="0" lon="0">
        <time>2021-02-28T08:10:45.319000+00:00</time>
      </trkpt>
      <trkpt lat="0" lon="0">
        <time>2021-02-28T08:10:45.334000+00:00</time>
      </trkpt>
      <trkpt lat="0" lon="0">
        <time>2021-02-28T08:10:45.336000+00:00</time>
      </trkpt>
      <trkpt lat="47.29197" lon="-1.41217">
        <ele>111</ele>
        <time>2021-02-28T08:10:46.300000+00:00</time>
      </trkpt>
      <trkpt lat="0" lon="0">
        <time>2021-02-28T08:10:46.311000+00:00</time>
      </trkpt>
      <trkpt lat="0" lon="0">
        <time>2021-02-28T08:10:46.318000+00:00</time>
      </trkpt>
      <trkpt lat="0" lon="0">
        <time>2021-02-28T08:10:46.321000+00:00</time>
      </trkpt>
      <trkpt lat="47.29198" lon="-1.41222">
        <ele>111</ele>
        <time>2021-02-28T08:10:47.301000+00:00</time>
      </trkpt>
      <trkpt lat="0" lon="0">
        <time>2021-02-28T08:10:47.306000+00:00</time>
      </trkpt>
      <trkpt lat="0" lon="0">
        <time>2021-02-28T08:10:47.313000+00:00</time>
      </trkpt>
      <trkpt lat="0" lon="0">
        <time>2021-02-28T08:10:47.315000+00:00</time>
      </trkpt>
      <trkpt lat="47.29199" lon="-1.41227">
        <ele>112</ele>
        <time>2021-02-28T08:10:48.307000+00:00</time>
      </trkpt>
      <trkpt lat="0" lon="0">
        <time>2021-02-28T08:10:48.326000+00:00</time>
      </trkpt>
      <trkpt lat="0" lon="0">
        <time>2021-02-28T08:10:48.333000+00:00</time>
      </trkpt>
      <trkpt lat="0" lon="0">
        <time>2021-02-28T08:10:48.336000+00:00</time>
      </trkpt>
      <trkpt lat="47.29199" lon="-1.41232">
        <ele>112</ele>
        <time>2021-02-28T08:10:49.315000+00:00</time>
      </trkpt>
      <trkpt lat="0" lon="0">
        <time>2021-02-28T08:10:49.324000+00:00</time>
      </trkpt>
      <trkpt lat="0" lon="0">
        <time>2021-02-28T08:10:49.329000+00:00</time>
      </trkpt>
      <trkpt lat="0" lon="0">
        <time>2021-02-28T08:10:49.331000+00:00</time>
      </trkpt>
      <trkpt lat="47.292" lon="-1.41236">
        <ele>112</ele>
        <time>2021-02-28T08:10:50.310000+00:00</time>
      </trkpt>
      <trkpt lat="0" lon="0">
        <time>2021-02-28T08:10:50.314000+00:00</time>
      </trkpt>
      <trkpt lat="0" lon="0">
        <time>2021-02-28T08:10:50.323000+00:00</time>
      </trkpt>
      <trkpt lat="0" lon="0">
        <time>2021-02-28T08:10:50.325000+00:00</time>
      </trkpt>
      <trkpt lat="47.29201" lon="-1.41241">
        <ele>113</ele>
        <time>2021-02-28T08:10:51.292000+00:00</time>
      </trkpt>
      <trkpt lat="0" lon="0">
        <time>2021-02-28T08:10:51.300000+00:00</time>
      </trkpt>
      <trkpt lat="0" lon="0">
        <time>2021-02-28T08:10:51.303000+00:00</time>
      </trkpt>
      <trkpt lat="0" lon="0">
        <time>2021-02-28T08:10:51.306000+00:00</time>
      </trkpt>
      <trkpt lat="47.29201" lon="-1.41246">
        <ele>112</ele>
        <time>2021-02-28T08:10:52.309000+00:00</time>
      </trkpt>
      <trkpt lat="0" lon="0">
        <time>2021-02-28T08:10:52.320000+00:00</time>
      </trkpt>
      <trkpt lat="0" lon="0">
        <time>2021-02-28T08:10:52.329000+00:00</time>
      </trkpt>
      <trkpt lat="0" lon="0">
        <time>2021-02-28T08:10:52.331000+00:00</time>
      </trkpt>
      <trkpt lat="47.29202" lon="-1.4125">
        <ele>112</ele>
        <time>2021-02-28T08:10:53.288000+00:00</time>
      </trkpt>
      <trkpt lat="0" lon="0">
        <time>2021-02-28T08:10:53.296000+00:00</time>
      </trkpt>
      <trkpt lat="0" lon="0">
        <time>2021-02-28T08:10:53.302000+00:00</time>
      </trkpt>
      <trkpt lat="0" lon="0">
        <time>2021-02-28T08:10:53.305000+00:00</time>
      </trkpt>
      <trkpt lat="47.29203" lon="-1.41255">
        <ele>112</ele>
        <time>2021-02-28T08:10:54.292000+00:00</time>
      </trkpt>
      <trkpt lat="0" lon="0">
        <time>2021-02-28T08:10:54.301000+00:00</time>
      </trkpt>
      <trkpt lat="0" lon="0">
        <time>2021-02-28T08:10:54.309000+00:00</time>
      </trkpt>
      <trkpt lat="0" lon="0">
        <time>2021-02-28T08:10:54.312000+00:00</time>
      </trkpt>
      <trkpt lat="47.29203" lon="-1.4126">
        <ele>112</ele>
        <time>2021-02-28T08:10:55.314000+00:00</time>
      </trkpt>
      <trkpt lat="0" lon="0">
        <time>2021-02-28T08:10:55.316000+00:00</time>
      </trkpt>
      <trkpt lat="0" lon="0">
        <time>2021-02-28T08:10:55.319000+00:00</time>
      </trkpt>
      <trkpt lat="0" lon="0">
        <time>2021-02-28T08:10:55.320000+00:00</time>
      </trkpt>
      <trkpt lat="47.29204" lon="-1.41264">
        <ele>113</ele>
        <time>2021-02-28T08:10:56.327000+00:00</time>
      </trkpt>
      <trkpt lat="0" lon="0">
        <time>2021-02-28T08:10:56.338000+00:00</time>
      </trkpt>
      <trkpt lat="0" lon="0">
        <time>2021-02-28T08:10:56.343000+00:00</time>
      </trkpt>
      <trkpt lat="0" lon="0">
        <time>2021-02-28T08:10:56.346000+00:00</time>
      </trkpt>
      <trkpt lat="47.29205" lon="-1.41269">
        <ele>113</ele>
        <time>2021-02-28T08:10:57.308000+00:00</time>
      </trkpt>
      <trkpt lat="0" lon="0">
        <time>2021-02-28T08:10:57.316000+00:00</time>
      </trkpt>
      <trkpt lat="0" lon="0">
        <time>2021-02-28T08:10:57.322000+00:00</time>
      </trkpt>
      <trkpt lat="0" lon="0">
        <time>2021-02-28T08:10:57.325000+00:00</time>
      </trkpt>
      <trkpt lat="47.29205" lon="-1.41273">
        <ele>113</ele>
        <time>2021-02-28T08:10:58.261000+00:00</time>
      </trkpt>
      <trkpt lat="0" lon="0">
        <time>2021-02-28T08:10:58.272000+00:00</time>
      </trkpt>
      <trkpt lat="0" lon="0">
        <time>2021-02-28T08:10:58.278000+00:00</time>
      </trkpt>
      <trkpt lat="0" lon="0">
        <time>2021-02-28T08:10:58.281000+00:00</time>
      </trkpt>
      <trkpt lat="47.29206" lon="-1.41277">
        <ele>113</ele>
        <time>2021-02-28T08:10:59.303000+00:00</time>
      </trkpt>
      <trkpt lat="0" lon="0">
        <time>2021-02-28T08:10:59.312000+00:00</time>
      </trkpt>
      <trkpt lat="0" lon="0">
        <time>2021-02-28T08:10:59.317000+00:00</time>
      </trkpt>
      <trkpt lat="0" lon="0">
        <time>2021-02-28T08:10:59.320000+00:00</time>
      </trkpt>
      <trkpt lat="47.29206" lon="-1.41281">
        <ele>114</ele>
        <time>2021-02-28T08:11:00.314000+00:00</time>
      </trkpt>
      <trkpt lat="0" lon="0">
        <time>2021-02-28T08:11:00.324000+00:00</time>
      </trkpt>
      <trkpt lat="0" lon="0">
        <time>2021-02-28T08:11:00.331000+00:00</time>
      </trkpt>
      <trkpt lat="0" lon="0">
        <time>2021-02-28T08:11:00.336000+00:00</time>
      </trkpt>
      <trkpt lat="47.29207" lon="-1.41285">
        <ele>114</ele>
        <time>2021-02-28T08:11:01.281000+00:00</time>
      </trkpt>
      <trkpt lat="0" lon="0">
        <time>2021-02-28T08:11:01.285000+00:00</time>
      </trkpt>
      <trkpt lat="0" lon="0">
        <time>2021-02-28T08:11:01.291000+00:00</time>
      </trkpt>
      <trkpt lat="0" lon="0">
        <time>2021-02-28T08:11:01.294000+00:00</time>
      </trkpt>
      <trkpt lat="47.29207" lon="-1.41289">
        <ele>114</ele>
        <time>2021-02-28T08:11:02.266000+00:00</time>
      </trkpt>
      <trkpt lat="0" lon="0">
        <time>2021-02-28T08:11:02.271000+00:00</time>
      </trkpt>
      <trkpt lat="0" lon="0">
        <time>2021-02-28T08:11:02.279000+00:00</time>
      </trkpt>
      <trkpt lat="0" lon="0">
        <time>2021-02-28T08:11:02.281000+00:00</time>
      </trkpt>
      <trkpt lat="47.29208" lon="-1.41293">
        <ele>114</ele>
        <time>2021-02-28T08:11:03.264000+00:00</time>
      </trkpt>
      <trkpt lat="0" lon="0">
        <time>2021-02-28T08:11:03.269000+00:00</time>
      </trkpt>
      <trkpt lat="0" lon="0">
        <time>2021-02-28T08:11:03.274000+00:00</time>
      </trkpt>
      <trkpt lat="0" lon="0">
        <time>2021-02-28T08:11:03.276000+00:00</time>
      </trkpt>
      <trkpt lat="47.29209" lon="-1.41297">
        <ele>114</ele>
        <time>2021-02-28T08:11:04.255000+00:00</time>
      </trkpt>
      <trkpt lat="0" lon="0">
        <time>2021-02-28T08:11:04.264000+00:00</time>
      </trkpt>
      <trkpt lat="0" lon="0">
        <time>2021-02-28T08:11:04.267000+00:00</time>
      </trkpt>
      <trkpt lat="0" lon="0">
        <time>2021-02-28T08:11:04.270000+00:00</time>
      </trkpt>
      <trkpt lat="47.29209" lon="-1.41301">
        <ele>115</ele>
        <time>2021-02-28T08:11:05.308000+00:00</time>
      </trkpt>
      <trkpt lat="0" lon="0">
        <time>2021-02-28T08:11:05.322000+00:00</time>
      </trkpt>
      <trkpt lat="0" lon="0">
        <time>2021-02-28T08:11:05.329000+00:00</time>
      </trkpt>
      <trkpt lat="0" lon="0">
        <time>2021-02-28T08:11:05.332000+00:00</time>
      </trkpt>
      <trkpt lat="47.2921" lon="-1.41306">
        <ele>115</ele>
        <time>2021-02-28T08:11:06.304000+00:00</time>
      </trkpt>
      <trkpt lat="0" lon="0">
        <time>2021-02-28T08:11:06.313000+00:00</time>
      </trkpt>
      <trkpt lat="0" lon="0">
        <time>2021-02-28T08:11:06.316000+00:00</time>
      </trkpt>
      <trkpt lat="0" lon="0">
        <time>2021-02-28T08:11:06.318000+00:00</time>
      </trkpt>
      <trkpt lat="47.2921" lon="-1.4131">
        <ele>116</ele>
        <time>2021-02-28T08:11:07.256000+00:00</time>
      </trkpt>
      <trkpt lat="0" lon="0">
        <time>2021-02-28T08:11:07.264000+00:00</time>
      </trkpt>
      <trkpt lat="0" lon="0">
        <time>2021-02-28T08:11:07.275000+00:00</time>
      </trkpt>
      <trkpt lat="0" lon="0">
        <time>2021-02-28T08:11:07.278000+00:00</time>
      </trkpt>
      <trkpt lat="47.29211" lon="-1.41314">
        <ele>116</ele>
        <time>2021-02-28T08:11:08.310000+00:00</time>
      </trkpt>
      <trkpt lat="0" lon="0">
        <time>2021-02-28T08:11:08.320000+00:00</time>
      </trkpt>
      <trkpt lat="0" lon="0">
        <time>2021-02-28T08:11:08.325000+00:00</time>
      </trkpt>
      <trkpt lat="0" lon="0">
        <time>2021-02-28T08:11:08.328000+00:00</time>
      </trkpt>
      <trkpt lat="47.29212" lon="-1.41318">
        <ele>116</ele>
        <time>2021-02-28T08:11:09.293000+00:00</time>
      </trkpt>
      <trkpt lat="0" lon="0">
        <time>2021-02-28T08:11:09.302000+00:00</time>
      </trkpt>
      <trkpt lat="0" lon="0">
        <time>2021-02-28T08:11:09.307000+00:00</time>
      </trkpt>
      <trkpt lat="0" lon="0">
        <time>2021-02-28T08:11:09.309000+00:00</time>
      </trkpt>
      <trkpt lat="47.29212" lon="-1.41322">
        <ele>116</ele>
        <time>2021-02-28T08:11:10.263000+00:00</time>
      </trkpt>
      <trkpt lat="0" lon="0">
        <time>2021-02-28T08:11:10.270000+00:00</time>
      </trkpt>
      <trkpt lat="0" lon="0">
        <time>2021-02-28T08:11:10.275000+00:00</time>
      </trkpt>
      <trkpt lat="0" lon="0">
        <time>2021-02-28T08:11:10.278000+00:00</time>
      </trkpt>
      <trkpt lat="47.29213" lon="-1.41326">
        <ele>116</ele>
        <time>2021-02-28T08:11:11.283000+00:00</time>
      </trkpt>
      <trkpt lat="0" lon="0">
        <time>2021-02-28T08:11:11.292000+00:00</time>
      </trkpt>
      <trkpt lat="0" lon="0">
        <time>2021-02-28T08:11:11.297000+00:00</time>
      </trkpt>
      <trkpt lat="0" lon="0">
        <time>2021-02-28T08:11:11.300000+00:00</time>
      </trkpt>
      <trkpt lat="47.29214" lon="-1.4133">
        <ele>117</ele>
        <time>2021-02-28T08:11:12.279000+00:00</time>
      </trkpt>
      <trkpt lat="0" lon="0">
        <time>2021-02-28T08:11:12.287000+00:00</time>
      </trkpt>
      <trkpt lat="0" lon="0">
        <time>2021-02-28T08:11:12.294000+00:00</time>
      </trkpt>
      <trkpt lat="0" lon="0">
        <time>2021-02-28T08:11:12.296000+00:00</time>
      </trkpt>
      <trkpt lat="47.29215" lon="-1.41334">
        <ele>117</ele>
        <time>2021-02-28T08:11:13.232000+00:00</time>
      </trkpt>
      <trkpt lat="0" lon="0">
        <time>2021-02-28T08:11:13.242000+00:00</time>
      </trkpt>
      <trkpt lat="0" lon="0">
        <time>2021-02-28T08:11:13.247000+00:00</time>
      </trkpt>
      <trkpt lat="0" lon="0">
        <time>2021-02-28T08:11:13.251000+00:00</time>
      </trkpt>
      <trkpt lat="47.29215" lon="-1.41339">
        <ele>117</ele>
        <time>2021-02-28T08:11:14.300000+00:00</time>
      </trkpt>
      <trkpt lat="0" lon="0">
        <time>2021-02-28T08:11:14.315000+00:00</time>
      </trkpt>
      <trkpt lat="0" lon="0">
        <time>2021-02-28T08:11:14.322000+00:00</time>
      </trkpt>
      <trkpt lat="0" lon="0">
        <time>2021-02-28T08:11:14.327000+00:00</time>
      </trkpt>
      <trkpt lat="47.29216" lon="-1.41343">
        <ele>118</ele>
        <time>2021-02-28T08:11:15.301000+00:00</time>
      </trkpt>
      <trkpt lat="0" lon="0">
        <time>2021-02-28T08:11:15.314000+00:00</time>
      </trkpt>
      <trkpt lat="0" lon="0">
        <time>2021-02-28T08:11:15.321000+00:00</time>
      </trkpt>
      <trkpt lat="0" lon="0">
        <time>2021-02-28T08:11:15.324000+00:00</time>
      </trkpt>
      <trkpt lat="47.29217" lon="-1.41347">
        <ele>118</ele>
        <time>2021-02-28T08:11:16.264000+00:00</time>
      </trkpt>
      <trkpt lat="0" lon="0">
        <time>2021-02-28T08:11:16.279000+00:00</time>
      </trkpt>
      <trkpt lat="0" lon="0">
        <time>2021-02-28T08:11:16.287000+00:00</time>
      </trkpt>
      <trkpt lat="0" lon="0">
        <time>2021-02-28T08:11:16.290000+00:00</time>
      </trkpt>
      <trkpt lat="47.29217" lon="-1.41351">
        <ele>118</ele>
        <time>2021-02-28T08:11:17.276000+00:00</time>
      </trkpt>
      <trkpt lat="0" lon="0">
        <time>2021-02-28T08:11:17.283000+00:00</time>
      </trkpt>
      <trkpt lat="0" lon="0">
        <time>2021-02-28T08:11:17.287000+00:00</time>
      </trkpt>
      <trkpt lat="0" lon="0">
        <time>2021-02-28T08:11:17.293000+00:00</time>
      </trkpt>
      <trkpt lat="47.29218" lon="-1.41356">
        <ele>118</ele>
        <time>2021-02-28T08:11:18.270000+00:00</time>
      </trkpt>
      <trkpt lat="0" lon="0">
        <time>2021-02-28T08:11:18.279000+00:00</time>
      </trkpt>
      <trkpt lat="0" lon="0">
        <time>2021-02-28T08:11:18.283000+00:00</time>
      </trkpt>
      <trkpt lat="0" lon="0">
        <time>2021-02-28T08:11:18.286000+00:00</time>
      </trkpt>
      <trkpt lat="47.29219" lon="-1.4136">
        <ele>118</ele>
        <time>2021-02-28T08:11:19.287000+00:00</time>
      </trkpt>
      <trkpt lat="0" lon="0">
        <time>2021-02-28T08:11:19.302000+00:00</time>
      </trkpt>
      <trkpt lat="0" lon="0">
        <time>2021-02-28T08:11:19.309000+00:00</time>
      </trkpt>
      <trkpt lat="0" lon="0">
        <time>2021-02-28T08:11:19.311000+00:00</time>
      </trkpt>
      <trkpt lat="47.2922" lon="-1.41365">
        <ele>118</ele>
        <time>2021-02-28T08:11:20.293000+00:00</time>
      </trkpt>
      <trkpt lat="0" lon="0">
        <time>2021-02-28T08:11:20.303000+00:00</time>
      </trkpt>
      <trkpt lat="0" lon="0">
        <time>2021-02-28T08:11:20.311000+00:00</time>
      </trkpt>
      <trkpt lat="0" lon="0">
        <time>2021-02-28T08:11:20.316000+00:00</time>
      </trkpt>
      <trkpt lat="47.2922" lon="-1.41369">
        <ele>118</ele>
        <time>2021-02-28T08:11:21.305000+00:00</time>
      </trkpt>
      <trkpt lat="0" lon="0">
        <time>2021-02-28T08:11:21.314000+00:00</time>
      </trkpt>
      <trkpt lat="0" lon="0">
        <time>2021-02-28T08:11:21.320000+00:00</time>
      </trkpt>
      <trkpt lat="0" lon="0">
        <time>2021-02-28T08:11:21.323000+00:00</time>
      </trkpt>
      <trkpt lat="47.29221" lon="-1.41374">
        <ele>118</ele>
        <time>2021-02-28T08:11:22.283000+00:00</time>
      </trkpt>
      <trkpt lat="0" lon="0">
        <time>2021-02-28T08:11:22.303000+00:00</time>
      </trkpt>
      <trkpt lat="0" lon="0">
        <time>2021-02-28T08:11:22.310000+00:00</time>
      </trkpt>
      <trkpt lat="0" lon="0">
        <time>2021-02-28T08:11:22.311000+00:00</time>
      </trkpt>
      <trkpt lat="47.29221" lon="-1.41378">
        <ele>119</ele>
        <time>2021-02-28T08:11:23.326000+00:00</time>
      </trkpt>
      <trkpt lat="0" lon="0">
        <time>2021-02-28T08:11:23.336000+00:00</time>
      </trkpt>
      <trkpt lat="0" lon="0">
        <time>2021-02-28T08:11:23.342000+00:00</time>
      </trkpt>
      <trkpt lat="0" lon="0">
        <time>2021-02-28T08:11:23.344000+00:00</time>
      </trkpt>
      <trkpt lat="47.29222" lon="-1.41383">
        <ele>119</ele>
        <time>2021-02-28T08:11:24.313000+00:00</time>
      </trkpt>
      <trkpt lat="0" lon="0">
        <time>2021-02-28T08:11:24.321000+00:00</time>
      </trkpt>
      <trkpt lat="0" lon="0">
        <time>2021-02-28T08:11:24.328000+00:00</time>
      </trkpt>
      <trkpt lat="0" lon="0">
        <time>2021-02-28T08:11:24.331000+00:00</time>
      </trkpt>
      <trkpt lat="47.29223" lon="-1.41388">
        <ele>119</ele>
        <time>2021-02-28T08:11:25.290000+00:00</time>
      </trkpt>
      <trkpt lat="0" lon="0">
        <time>2021-02-28T08:11:25.300000+00:00</time>
      </trkpt>
      <trkpt lat="0" lon="0">
        <time>2021-02-28T08:11:25.304000+00:00</time>
      </trkpt>
      <trkpt lat="0" lon="0">
        <time>2021-02-28T08:11:25.306000+00:00</time>
      </trkpt>
      <trkpt lat="47.29223" lon="-1.41392">
        <ele>119</ele>
        <time>2021-02-28T08:11:26.294000+00:00</time>
      </trkpt>
      <trkpt lat="0" lon="0">
        <time>2021-02-28T08:11:26.300000+00:00</time>
      </trkpt>
      <trkpt lat="0" lon="0">
        <time>2021-02-28T08:11:26.304000+00:00</time>
      </trkpt>
      <trkpt lat="0" lon="0">
        <time>2021-02-28T08:11:26.307000+00:00</time>
      </trkpt>
      <trkpt lat="47.29224" lon="-1.41397">
        <ele>119</ele>
        <time>2021-02-28T08:11:27.322000+00:00</time>
      </trkpt>
      <trkpt lat="0" lon="0">
        <time>2021-02-28T08:11:27.331000+00:00</time>
      </trkpt>
      <trkpt lat="0" lon="0">
        <time>2021-02-28T08:11:27.340000+00:00</time>
      </trkpt>
      <trkpt lat="0" lon="0">
        <time>2021-02-28T08:11:27.342000+00:00</time>
      </trkpt>
      <trkpt lat="47.29224" lon="-1.41401">
        <ele>119</ele>
        <time>2021-02-28T08:11:28.292000+00:00</time>
      </trkpt>
      <trkpt lat="0" lon="0">
        <time>2021-02-28T08:11:28.301000+00:00</time>
      </trkpt>
      <trkpt lat="0" lon="0">
        <time>2021-02-28T08:11:28.311000+00:00</time>
      </trkpt>
      <trkpt lat="0" lon="0">
        <time>2021-02-28T08:11:28.315000+00:00</time>
      </trkpt>
      <trkpt lat="47.29225" lon="-1.41406">
        <ele>120</ele>
        <time>2021-02-28T08:11:29.290000+00:00</time>
      </trkpt>
      <trkpt lat="0" lon="0">
        <time>2021-02-28T08:11:29.296000+00:00</time>
      </trkpt>
      <trkpt lat="0" lon="0">
        <time>2021-02-28T08:11:29.301000+00:00</time>
      </trkpt>
      <trkpt lat="0" lon="0">
        <time>2021-02-28T08:11:29.306000+00:00</time>
      </trkpt>
      <trkpt lat="47.29225" lon="-1.4141">
        <ele>120</ele>
        <time>2021-02-28T08:11:30.299000+00:00</time>
      </trkpt>
      <trkpt lat="0" lon="0">
        <time>2021-02-28T08:11:30.310000+00:00</time>
      </trkpt>
      <trkpt lat="0" lon="0">
        <time>2021-02-28T08:11:30.316000+00:00</time>
      </trkpt>
      <trkpt lat="0" lon="0">
        <time>2021-02-28T08:11:30.320000+00:00</time>
      </trkpt>
      <trkpt lat="47.29226" lon="-1.41415">
        <ele>120</ele>
        <time>2021-02-28T08:11:31.266000+00:00</time>
      </trkpt>
      <trkpt lat="0" lon="0">
        <time>2021-02-28T08:11:31.278000+00:00</time>
      </trkpt>
      <trkpt lat="0" lon="0">
        <time>2021-02-28T08:11:31.282000+00:00</time>
      </trkpt>
      <trkpt lat="0" lon="0">
        <time>2021-02-28T08:11:31.285000+00:00</time>
      </trkpt>
      <trkpt lat="47.29227" lon="-1.41419">
        <ele>120</ele>
        <time>2021-02-28T08:11:32.301000+00:00</time>
      </trkpt>
      <trkpt lat="0" lon="0">
        <time>2021-02-28T08:11:32.311000+00:00</time>
      </trkpt>
      <trkpt lat="0" lon="0">
        <time>2021-02-28T08:11:32.316000+00:00</time>
      </trkpt>
      <trkpt lat="0" lon="0">
        <time>2021-02-28T08:11:32.318000+00:00</time>
      </trkpt>
      <trkpt lat="47.29227" lon="-1.41424">
        <ele>120</ele>
        <time>2021-02-28T08:11:33.316000+00:00</time>
      </trkpt>
      <trkpt lat="0" lon="0">
        <time>2021-02-28T08:11:33.325000+00:00</time>
      </trkpt>
      <trkpt lat="0" lon="0">
        <time>2021-02-28T08:11:33.331000+00:00</time>
      </trkpt>
      <trkpt lat="0" lon="0">
        <time>2021-02-28T08:11:33.334000+00:00</time>
      </trkpt>
      <trkpt lat="47.29228" lon="-1.41428">
        <ele>120</ele>
        <time>2021-02-28T08:11:34.307000+00:00</time>
      </trkpt>
      <trkpt lat="0" lon="0">
        <time>2021-02-28T08:11:34.319000+00:00</time>
      </trkpt>
      <trkpt lat="0" lon="0">
        <time>2021-02-28T08:11:34.327000+00:00</time>
      </trkpt>
      <trkpt lat="0" lon="0">
        <time>2021-02-28T08:11:34.329000+00:00</time>
      </trkpt>
      <trkpt lat="47.29228" lon="-1.41433">
        <ele>120</ele>
        <time>2021-02-28T08:11:35.318000+00:00</time>
      </trkpt>
      <trkpt lat="0" lon="0">
        <time>2021-02-28T08:11:35.326000+00:00</time>
      </trkpt>
      <trkpt lat="0" lon="0">
        <time>2021-02-28T08:11:35.331000+00:00</time>
      </trkpt>
      <trkpt lat="0" lon="0">
        <time>2021-02-28T08:11:35.334000+00:00</time>
      </trkpt>
      <trkpt lat="47.29229" lon="-1.41437">
        <ele>120</ele>
        <time>2021-02-28T08:11:36.308000+00:00</time>
      </trkpt>
      <trkpt lat="0" lon="0">
        <time>2021-02-28T08:11:36.316000+00:00</time>
      </trkpt>
      <trkpt lat="0" lon="0">
        <time>2021-02-28T08:11:36.321000+00:00</time>
      </trkpt>
      <trkpt lat="0" lon="0">
        <time>2021-02-28T08:11:36.324000+00:00</time>
      </trkpt>
      <trkpt lat="47.29229" lon="-1.41441">
        <ele>120</ele>
        <time>2021-02-28T08:11:37.283000+00:00</time>
      </trkpt>
      <trkpt lat="0" lon="0">
        <time>2021-02-28T08:11:37.293000+00:00</time>
      </trkpt>
      <trkpt lat="0" lon="0">
        <time>2021-02-28T08:11:37.299000+00:00</time>
      </trkpt>
      <trkpt lat="0" lon="0">
        <time>2021-02-28T08:11:37.302000+00:00</time>
      </trkpt>
      <trkpt lat="47.2923" lon="-1.41446">
        <ele>120</ele>
        <time>2021-02-28T08:11:38.327000+00:00</time>
      </trkpt>
      <trkpt lat="0" lon="0">
        <time>2021-02-28T08:11:38.333000+00:00</time>
      </trkpt>
      <trkpt lat="0" lon="0">
        <time>2021-02-28T08:11:38.339000+00:00</time>
      </trkpt>
      <trkpt lat="0" lon="0">
        <time>2021-02-28T08:11:38.342000+00:00</time>
      </trkpt>
      <trkpt lat="47.2923" lon="-1.4145">
        <ele>120</ele>
        <time>2021-02-28T08:11:39.323000+00:00</time>
      </trkpt>
      <trkpt lat="0" lon="0">
        <time>2021-02-28T08:11:39.339000+00:00</time>
      </trkpt>
      <trkpt lat="0" lon="0">
        <time>2021-02-28T08:11:39.347000+00:00</time>
      </trkpt>
      <trkpt lat="0" lon="0">
        <time>2021-02-28T08:11:39.350000+00:00</time>
      </trkpt>
      <trkpt lat="47.29231" lon="-1.41454">
        <ele>120</ele>
        <time>2021-02-28T08:11:40.292000+00:00</time>
      </trkpt>
      <trkpt lat="0" lon="0">
        <time>2021-02-28T08:11:40.301000+00:00</time>
      </trkpt>
      <trkpt lat="0" lon="0">
        <time>2021-02-28T08:11:40.303000+00:00</time>
      </trkpt>
      <trkpt lat="0" lon="0">
        <time>2021-02-28T08:11:40.304000+00:00</time>
      </trkpt>
      <trkpt lat="47.29232" lon="-1.41459">
        <ele>120</ele>
        <time>2021-02-28T08:11:41.294000+00:00</time>
      </trkpt>
      <trkpt lat="0" lon="0">
        <time>2021-02-28T08:11:41.299000+00:00</time>
      </trkpt>
      <trkpt lat="0" lon="0">
        <time>2021-02-28T08:11:41.305000+00:00</time>
      </trkpt>
      <trkpt lat="0" lon="0">
        <time>2021-02-28T08:11:41.308000+00:00</time>
      </trkpt>
      <trkpt lat="47.29233" lon="-1.41463">
        <ele>120</ele>
        <time>2021-02-28T08:11:42.206000+00:00</time>
      </trkpt>
      <trkpt lat="0" lon="0">
        <time>2021-02-28T08:11:42.207000+00:00</time>
      </trkpt>
      <trkpt lat="0" lon="0">
        <time>2021-02-28T08:11:42.208000+00:00</time>
      </trkpt>
      <trkpt lat="0" lon="0">
        <time>2021-02-28T08:11:42.209000+00:00</time>
      </trkpt>
      <trkpt lat="47.29234" lon="-1.41468">
        <ele>120</ele>
        <time>2021-02-28T08:11:43.273000+00:00</time>
      </trkpt>
      <trkpt lat="0" lon="0">
        <time>2021-02-28T08:11:43.279000+00:00</time>
      </trkpt>
      <trkpt lat="0" lon="0">
        <time>2021-02-28T08:11:43.287000+00:00</time>
      </trkpt>
      <trkpt lat="0" lon="0">
        <time>2021-02-28T08:11:43.290000+00:00</time>
      </trkpt>
      <trkpt lat="47.29235" lon="-1.41473">
        <ele>120</ele>
        <time>2021-02-28T08:11:44.286000+00:00</time>
      </trkpt>
      <trkpt lat="0" lon="0">
        <time>2021-02-28T08:11:44.299000+00:00</time>
      </trkpt>
      <trkpt lat="0" lon="0">
        <time>2021-02-28T08:11:44.303000+00:00</time>
      </trkpt>
      <trkpt lat="0" lon="0">
        <time>2021-02-28T08:11:44.306000+00:00</time>
      </trkpt>
      <trkpt lat="47.29236" lon="-1.41477">
        <ele>120</ele>
        <time>2021-02-28T08:11:45.207000+00:00</time>
      </trkpt>
      <trkpt lat="0" lon="0">
        <time>2021-02-28T08:11:45.214000+00:00</time>
      </trkpt>
      <trkpt lat="0" lon="0">
        <time>2021-02-28T08:11:45.218000+00:00</time>
      </trkpt>
      <trkpt lat="0" lon="0">
        <time>2021-02-28T08:11:45.221000+00:00</time>
      </trkpt>
      <trkpt lat="47.29237" lon="-1.41482">
        <ele>120</ele>
        <time>2021-02-28T08:11:46.282000+00:00</time>
      </trkpt>
      <trkpt lat="0" lon="0">
        <time>2021-02-28T08:11:46.291000+00:00</time>
      </trkpt>
      <trkpt lat="0" lon="0">
        <time>2021-02-28T08:11:46.297000+00:00</time>
      </trkpt>
      <trkpt lat="0" lon="0">
        <time>2021-02-28T08:11:46.300000+00:00</time>
      </trkpt>
      <trkpt lat="47.29239" lon="-1.41487">
        <ele>120</ele>
        <time>2021-02-28T08:11:47.270000+00:00</time>
      </trkpt>
      <trkpt lat="0" lon="0">
        <time>2021-02-28T08:11:47.275000+00:00</time>
      </trkpt>
      <trkpt lat="0" lon="0">
        <time>2021-02-28T08:11:47.284000+00:00</time>
      </trkpt>
      <trkpt lat="0" lon="0">
        <time>2021-02-28T08:11:47.291000+00:00</time>
      </trkpt>
      <trkpt lat="47.2924" lon="-1.41491">
        <ele>120</ele>
        <time>2021-02-28T08:11:48.303000+00:00</time>
      </trkpt>
      <trkpt lat="0" lon="0">
        <time>2021-02-28T08:11:48.309000+00:00</time>
      </trkpt>
      <trkpt lat="0" lon="0">
        <time>2021-02-28T08:11:48.315000+00:00</time>
      </trkpt>
      <trkpt lat="0" lon="0">
        <time>2021-02-28T08:11:48.318000+00:00</time>
      </trkpt>
      <trkpt lat="47.29242" lon="-1.41496">
        <ele>119</ele>
        <time>2021-02-28T08:11:49.298000+00:00</time>
      </trkpt>
      <trkpt lat="0" lon="0">
        <time>2021-02-28T08:11:49.311000+00:00</time>
      </trkpt>
      <trkpt lat="0" lon="0">
        <time>2021-02-28T08:11:49.320000+00:00</time>
      </trkpt>
      <trkpt lat="0" lon="0">
        <time>2021-02-28T08:11:49.323000+00:00</time>
      </trkpt>
      <trkpt lat="47.29243" lon="-1.41501">
        <ele>119</ele>
        <time>2021-02-28T08:11:50.289000+00:00</time>
      </trkpt>
      <trkpt lat="0" lon="0">
        <time>2021-02-28T08:11:50.296000+00:00</time>
      </trkpt>
      <trkpt lat="0" lon="0">
        <time>2021-02-28T08:11:50.302000+00:00</time>
      </trkpt>
      <trkpt lat="0" lon="0">
        <time>2021-02-28T08:11:50.305000+00:00</time>
      </trkpt>
      <trkpt lat="47.29245" lon="-1.41505">
        <ele>120</ele>
        <time>2021-02-28T08:11:51.305000+00:00</time>
      </trkpt>
      <trkpt lat="0" lon="0">
        <time>2021-02-28T08:11:51.312000+00:00</time>
      </trkpt>
      <trkpt lat="0" lon="0">
        <time>2021-02-28T08:11:51.324000+00:00</time>
      </trkpt>
      <trkpt lat="0" lon="0">
        <time>2021-02-28T08:11:51.326000+00:00</time>
      </trkpt>
      <trkpt lat="47.29246" lon="-1.41509">
        <ele>120</ele>
        <time>2021-02-28T08:11:52.296000+00:00</time>
      </trkpt>
      <trkpt lat="0" lon="0">
        <time>2021-02-28T08:11:52.315000+00:00</time>
      </trkpt>
      <trkpt lat="0" lon="0">
        <time>2021-02-28T08:11:52.320000+00:00</time>
      </trkpt>
      <trkpt lat="0" lon="0">
        <time>2021-02-28T08:11:52.324000+00:00</time>
      </trkpt>
      <trkpt lat="47.29248" lon="-1.41514">
        <ele>120</ele>
        <time>2021-02-28T08:11:53.241000+00:00</time>
      </trkpt>
      <trkpt lat="0" lon="0">
        <time>2021-02-28T08:11:53.248000+00:00</time>
      </trkpt>
      <trkpt lat="0" lon="0">
        <time>2021-02-28T08:11:53.255000+00:00</time>
      </trkpt>
      <trkpt lat="0" lon="0">
        <time>2021-02-28T08:11:53.257000+00:00</time>
      </trkpt>
      <trkpt lat="47.2925" lon="-1.41518">
        <ele>120</ele>
        <time>2021-02-28T08:11:54.275000+00:00</time>
      </trkpt>
      <trkpt lat="0" lon="0">
        <time>2021-02-28T08:11:54.289000+00:00</time>
      </trkpt>
      <trkpt lat="0" lon="0">
        <time>2021-02-28T08:11:54.297000+00:00</time>
      </trkpt>
      <trkpt lat="0" lon="0">
        <time>2021-02-28T08:11:54.299000+00:00</time>
      </trkpt>
      <trkpt lat="47.29252" lon="-1.41522">
        <ele>120</ele>
        <time>2021-02-28T08:11:55.321000+00:00</time>
      </trkpt>
      <trkpt lat="0" lon="0">
        <time>2021-02-28T08:11:55.335000+00:00</time>
      </trkpt>
      <trkpt lat="0" lon="0">
        <time>2021-02-28T08:11:55.342000+00:00</time>
      </trkpt>
      <trkpt lat="0" lon="0">
        <time>2021-02-28T08:11:55.347000+00:00</time>
      </trkpt>
      <trkpt lat="47.29253" lon="-1.41526">
        <ele>120</ele>
        <time>2021-02-28T08:11:56.283000+00:00</time>
      </trkpt>
      <trkpt lat="0" lon="0">
        <time>2021-02-28T08:11:56.296000+00:00</time>
      </trkpt>
      <trkpt lat="0" lon="0">
        <time>2021-02-28T08:11:56.305000+00:00</time>
      </trkpt>
      <trkpt lat="0" lon="0">
        <time>2021-02-28T08:11:56.309000+00:00</time>
      </trkpt>
      <trkpt lat="47.29255" lon="-1.4153">
        <ele>121</ele>
        <time>2021-02-28T08:11:57.313000+00:00</time>
      </trkpt>
      <trkpt lat="0" lon="0">
        <time>2021-02-28T08:11:57.326000+00:00</time>
      </trkpt>
      <trkpt lat="0" lon="0">
        <time>2021-02-28T08:11:57.333000+00:00</time>
      </trkpt>
      <trkpt lat="0" lon="0">
        <time>2021-02-28T08:11:57.337000+00:00</time>
      </trkpt>
      <trkpt lat="47.29257" lon="-1.41534">
        <ele>121</ele>
        <time>2021-02-28T08:11:58.255000+00:00</time>
      </trkpt>
      <trkpt lat="0" lon="0">
        <time>2021-02-28T08:11:58.265000+00:00</time>
      </trkpt>
      <trkpt lat="0" lon="0">
        <time>2021-02-28T08:11:58.269000+00:00</time>
      </trkpt>
      <trkpt lat="0" lon="0">
        <time>2021-02-28T08:11:58.272000+00:00</time>
      </trkpt>
      <trkpt lat="47.2926" lon="-1.41538">
        <ele>121</ele>
        <time>2021-02-28T08:11:59.260000+00:00</time>
      </trkpt>
      <trkpt lat="0" lon="0">
        <time>2021-02-28T08:11:59.271000+00:00</time>
      </trkpt>
      <trkpt lat="0" lon="0">
        <time>2021-02-28T08:11:59.276000+00:00</time>
      </trkpt>
      <trkpt lat="0" lon="0">
        <time>2021-02-28T08:11:59.278000+00:00</time>
      </trkpt>
      <trkpt lat="47.29262" lon="-1.41541">
        <ele>121</ele>
        <time>2021-02-28T08:12:00.287000+00:00</time>
      </trkpt>
      <trkpt lat="0" lon="0">
        <time>2021-02-28T08:12:00.293000+00:00</time>
      </trkpt>
      <trkpt lat="0" lon="0">
        <time>2021-02-28T08:12:00.300000+00:00</time>
      </trkpt>
      <trkpt lat="0" lon="0">
        <time>2021-02-28T08:12:00.303000+00:00</time>
      </trkpt>
      <trkpt lat="47.29264" lon="-1.41545">
        <ele>121</ele>
        <time>2021-02-28T08:12:01.264000+00:00</time>
      </trkpt>
      <trkpt lat="0" lon="0">
        <time>2021-02-28T08:12:01.272000+00:00</time>
      </trkpt>
      <trkpt lat="0" lon="0">
        <time>2021-02-28T08:12:01.276000+00:00</time>
      </trkpt>
      <trkpt lat="0" lon="0">
        <time>2021-02-28T08:12:01.279000+00:00</time>
      </trkpt>
      <trkpt lat="47.29266" lon="-1.41549">
        <ele>121</ele>
        <time>2021-02-28T08:12:02.228000+00:00</time>
      </trkpt>
      <trkpt lat="0" lon="0">
        <time>2021-02-28T08:12:02.243000+00:00</time>
      </trkpt>
      <trkpt lat="0" lon="0">
        <time>2021-02-28T08:12:02.247000+00:00</time>
      </trkpt>
      <trkpt lat="0" lon="0">
        <time>2021-02-28T08:12:02.250000+00:00</time>
      </trkpt>
      <trkpt lat="47.29268" lon="-1.41552">
        <ele>121</ele>
        <time>2021-02-28T08:12:03.290000+00:00</time>
      </trkpt>
      <trkpt lat="0" lon="0">
        <time>2021-02-28T08:12:03.297000+00:00</time>
      </trkpt>
      <trkpt lat="0" lon="0">
        <time>2021-02-28T08:12:03.304000+00:00</time>
      </trkpt>
      <trkpt lat="0" lon="0">
        <time>2021-02-28T08:12:03.306000+00:00</time>
      </trkpt>
      <trkpt lat="47.29271" lon="-1.41556">
        <ele>120</ele>
        <time>2021-02-28T08:12:04.255000+00:00</time>
      </trkpt>
      <trkpt lat="0" lon="0">
        <time>2021-02-28T08:12:04.264000+00:00</time>
      </trkpt>
      <trkpt lat="0" lon="0">
        <time>2021-02-28T08:12:04.269000+00:00</time>
      </trkpt>
      <trkpt lat="0" lon="0">
        <time>2021-02-28T08:12:04.272000+00:00</time>
      </trkpt>
      <trkpt lat="47.29273" lon="-1.41559">
        <ele>121</ele>
        <time>2021-02-28T08:12:05.250000+00:00</time>
      </trkpt>
      <trkpt lat="0" lon="0">
        <time>2021-02-28T08:12:05.262000+00:00</time>
      </trkpt>
      <trkpt lat="0" lon="0">
        <time>2021-02-28T08:12:05.265000+00:00</time>
      </trkpt>
      <trkpt lat="0" lon="0">
        <time>2021-02-28T08:12:05.266000+00:00</time>
      </trkpt>
      <trkpt lat="47.29275" lon="-1.41562">
        <ele>121</ele>
        <time>2021-02-28T08:12:06.289000+00:00</time>
      </trkpt>
      <trkpt lat="0" lon="0">
        <time>2021-02-28T08:12:06.300000+00:00</time>
      </trkpt>
      <trkpt lat="0" lon="0">
        <time>2021-02-28T08:12:06.304000+00:00</time>
      </trkpt>
      <trkpt lat="0" lon="0">
        <time>2021-02-28T08:12:06.311000+00:00</time>
      </trkpt>
      <trkpt lat="47.29278" lon="-1.41565">
        <ele>121</ele>
        <time>2021-02-28T08:12:07.295000+00:00</time>
      </trkpt>
      <trkpt lat="0" lon="0">
        <time>2021-02-28T08:12:07.301000+00:00</time>
      </trkpt>
      <trkpt lat="0" lon="0">
        <time>2021-02-28T08:12:07.306000+00:00</time>
      </trkpt>
      <trkpt lat="0" lon="0">
        <time>2021-02-28T08:12:07.309000+00:00</time>
      </trkpt>
      <trkpt lat="47.2928" lon="-1.41569">
        <ele>121</ele>
        <time>2021-02-28T08:12:08.309000+00:00</time>
      </trkpt>
      <trkpt lat="0" lon="0">
        <time>2021-02-28T08:12:08.316000+00:00</time>
      </trkpt>
      <trkpt lat="0" lon="0">
        <time>2021-02-28T08:12:08.323000+00:00</time>
      </trkpt>
      <trkpt lat="0" lon="0">
        <time>2021-02-28T08:12:08.326000+00:00</time>
      </trkpt>
      <trkpt lat="47.29283" lon="-1.41572">
        <ele>121</ele>
        <time>2021-02-28T08:12:09.287000+00:00</time>
      </trkpt>
      <trkpt lat="0" lon="0">
        <time>2021-02-28T08:12:09.288000+00:00</time>
      </trkpt>
      <trkpt lat="0" lon="0">
        <time>2021-02-28T08:12:09.289000+00:00</time>
      </trkpt>
      <trkpt lat="0" lon="0">
        <time>2021-02-28T08:12:09.290000+00:00</time>
      </trkpt>
      <trkpt lat="47.29286" lon="-1.41575">
        <ele>121</ele>
        <time>2021-02-28T08:12:10.322000+00:00</time>
      </trkpt>
      <trkpt lat="0" lon="0">
        <time>2021-02-28T08:12:10.331000+00:00</time>
      </trkpt>
      <trkpt lat="0" lon="0">
        <time>2021-02-28T08:12:10.336000+00:00</time>
      </trkpt>
      <trkpt lat="0" lon="0">
        <time>2021-02-28T08:12:10.338000+00:00</time>
      </trkpt>
      <trkpt lat="47.29289" lon="-1.41578">
        <ele>121</ele>
        <time>2021-02-28T08:12:11.295000+00:00</time>
      </trkpt>
      <trkpt lat="0" lon="0">
        <time>2021-02-28T08:12:11.300000+00:00</time>
      </trkpt>
      <trkpt lat="0" lon="0">
        <time>2021-02-28T08:12:11.305000+00:00</time>
      </trkpt>
      <trkpt lat="0" lon="0">
        <time>2021-02-28T08:12:11.307000+00:00</time>
      </trkpt>
      <trkpt lat="47.29291" lon="-1.41581">
        <ele>121</ele>
        <time>2021-02-28T08:12:12.343000+00:00</time>
      </trkpt>
      <trkpt lat="0" lon="0">
        <time>2021-02-28T08:12:12.349000+00:00</time>
      </trkpt>
      <trkpt lat="0" lon="0">
        <time>2021-02-28T08:12:12.354000+00:00</time>
      </trkpt>
      <trkpt lat="0" lon="0">
        <time>2021-02-28T08:12:12.357000+00:00</time>
      </trkpt>
      <trkpt lat="47.29294" lon="-1.41584">
        <ele>121</ele>
        <time>2021-02-28T08:12:13.333000+00:00</time>
      </trkpt>
      <trkpt lat="0" lon="0">
        <time>2021-02-28T08:12:13.347000+00:00</time>
      </trkpt>
      <trkpt lat="0" lon="0">
        <time>2021-02-28T08:12:13.356000+00:00</time>
      </trkpt>
      <trkpt lat="0" lon="0">
        <time>2021-02-28T08:12:13.358000+00:00</time>
      </trkpt>
      <trkpt lat="47.29297" lon="-1.41587">
        <ele>121</ele>
        <time>2021-02-28T08:12:14.349000+00:00</time>
      </trkpt>
      <trkpt lat="0" lon="0">
        <time>2021-02-28T08:12:14.360000+00:00</time>
      </trkpt>
      <trkpt lat="0" lon="0">
        <time>2021-02-28T08:12:14.365000+00:00</time>
      </trkpt>
      <trkpt lat="0" lon="0">
        <time>2021-02-28T08:12:14.372000+00:00</time>
      </trkpt>
      <trkpt lat="47.293" lon="-1.4159">
        <ele>122</ele>
        <time>2021-02-28T08:12:15.335000+00:00</time>
      </trkpt>
      <trkpt lat="0" lon="0">
        <time>2021-02-28T08:12:15.341000+00:00</time>
      </trkpt>
      <trkpt lat="0" lon="0">
        <time>2021-02-28T08:12:15.347000+00:00</time>
      </trkpt>
      <trkpt lat="0" lon="0">
        <time>2021-02-28T08:12:15.350000+00:00</time>
      </trkpt>
      <trkpt lat="47.29303" lon="-1.41592">
        <ele>122</ele>
        <time>2021-02-28T08:12:16.292000+00:00</time>
      </trkpt>
      <trkpt lat="0" lon="0">
        <time>2021-02-28T08:12:16.299000+00:00</time>
      </trkpt>
      <trkpt lat="0" lon="0">
        <time>2021-02-28T08:12:16.310000+00:00</time>
      </trkpt>
      <trkpt lat="0" lon="0">
        <time>2021-02-28T08:12:16.312000+00:00</time>
      </trkpt>
      <trkpt lat="47.29305" lon="-1.41595">
        <ele>122</ele>
        <time>2021-02-28T08:12:17.242000+00:00</time>
      </trkpt>
      <trkpt lat="0" lon="0">
        <time>2021-02-28T08:12:17.246000+00:00</time>
      </trkpt>
      <trkpt lat="0" lon="0">
        <time>2021-02-28T08:12:17.254000+00:00</time>
      </trkpt>
      <trkpt lat="0" lon="0">
        <time>2021-02-28T08:12:17.257000+00:00</time>
      </trkpt>
      <trkpt lat="47.29308" lon="-1.41598">
        <ele>122</ele>
        <time>2021-02-28T08:12:18.331000+00:00</time>
      </trkpt>
      <trkpt lat="0" lon="0">
        <time>2021-02-28T08:12:18.336000+00:00</time>
      </trkpt>
      <trkpt lat="0" lon="0">
        <time>2021-02-28T08:12:18.342000+00:00</time>
      </trkpt>
      <trkpt lat="0" lon="0">
        <time>2021-02-28T08:12:18.346000+00:00</time>
      </trkpt>
      <trkpt lat="47.29311" lon="-1.41601">
        <ele>122</ele>
        <time>2021-02-28T08:12:19.334000+00:00</time>
      </trkpt>
      <trkpt lat="0" lon="0">
        <time>2021-02-28T08:12:19.343000+00:00</time>
      </trkpt>
      <trkpt lat="0" lon="0">
        <time>2021-02-28T08:12:19.348000+00:00</time>
      </trkpt>
      <trkpt lat="0" lon="0">
        <time>2021-02-28T08:12:19.351000+00:00</time>
      </trkpt>
      <trkpt lat="47.29314" lon="-1.41604">
        <ele>122</ele>
        <time>2021-02-28T08:12:20.339000+00:00</time>
      </trkpt>
      <trkpt lat="0" lon="0">
        <time>2021-02-28T08:12:20.348000+00:00</time>
      </trkpt>
      <trkpt lat="0" lon="0">
        <time>2021-02-28T08:12:20.354000+00:00</time>
      </trkpt>
      <trkpt lat="0" lon="0">
        <time>2021-02-28T08:12:20.359000+00:00</time>
      </trkpt>
      <trkpt lat="47.29317" lon="-1.41607">
        <ele>121</ele>
        <time>2021-02-28T08:12:21.314000+00:00</time>
      </trkpt>
      <trkpt lat="0" lon="0">
        <time>2021-02-28T08:12:21.322000+00:00</time>
      </trkpt>
      <trkpt lat="0" lon="0">
        <time>2021-02-28T08:12:21.328000+00:00</time>
      </trkpt>
      <trkpt lat="0" lon="0">
        <time>2021-02-28T08:12:21.331000+00:00</time>
      </trkpt>
      <trkpt lat="47.2932" lon="-1.4161">
        <ele>121</ele>
        <time>2021-02-28T08:12:22.295000+00:00</time>
      </trkpt>
      <trkpt lat="0" lon="0">
        <time>2021-02-28T08:12:22.312000+00:00</time>
      </trkpt>
      <trkpt lat="0" lon="0">
        <time>2021-02-28T08:12:22.321000+00:00</time>
      </trkpt>
      <trkpt lat="0" lon="0">
        <time>2021-02-28T08:12:22.325000+00:00</time>
      </trkpt>
      <trkpt lat="47.29323" lon="-1.41613">
        <ele>121</ele>
        <time>2021-02-28T08:12:23.322000+00:00</time>
      </trkpt>
      <trkpt lat="0" lon="0">
        <time>2021-02-28T08:12:23.343000+00:00</time>
      </trkpt>
      <trkpt lat="0" lon="0">
        <time>2021-02-28T08:12:23.349000+00:00</time>
      </trkpt>
      <trkpt lat="0" lon="0">
        <time>2021-02-28T08:12:23.352000+00:00</time>
      </trkpt>
      <trkpt lat="47.29325" lon="-1.41615">
        <ele>121</ele>
        <time>2021-02-28T08:12:24.396000+00:00</time>
      </trkpt>
      <trkpt lat="0" lon="0">
        <time>2021-02-28T08:12:24.404000+00:00</time>
      </trkpt>
      <trkpt lat="0" lon="0">
        <time>2021-02-28T08:12:24.410000+00:00</time>
      </trkpt>
      <trkpt lat="0" lon="0">
        <time>2021-02-28T08:12:24.414000+00:00</time>
      </trkpt>
      <trkpt lat="47.29328" lon="-1.41617">
        <ele>121</ele>
        <time>2021-02-28T08:12:25.318000+00:00</time>
      </trkpt>
      <trkpt lat="0" lon="0">
        <time>2021-02-28T08:12:25.328000+00:00</time>
      </trkpt>
      <trkpt lat="0" lon="0">
        <time>2021-02-28T08:12:25.334000+00:00</time>
      </trkpt>
      <trkpt lat="0" lon="0">
        <time>2021-02-28T08:12:25.335000+00:00</time>
      </trkpt>
      <trkpt lat="47.29332" lon="-1.41619">
        <ele>121</ele>
        <time>2021-02-28T08:12:26.323000+00:00</time>
      </trkpt>
      <trkpt lat="0" lon="0">
        <time>2021-02-28T08:12:26.332000+00:00</time>
      </trkpt>
      <trkpt lat="0" lon="0">
        <time>2021-02-28T08:12:26.338000+00:00</time>
      </trkpt>
      <trkpt lat="0" lon="0">
        <time>2021-02-28T08:12:26.341000+00:00</time>
      </trkpt>
      <trkpt lat="47.29335" lon="-1.4162">
        <ele>121</ele>
        <time>2021-02-28T08:12:27.336000+00:00</time>
      </trkpt>
      <trkpt lat="0" lon="0">
        <time>2021-02-28T08:12:27.344000+00:00</time>
      </trkpt>
      <trkpt lat="0" lon="0">
        <time>2021-02-28T08:12:27.350000+00:00</time>
      </trkpt>
      <trkpt lat="0" lon="0">
        <time>2021-02-28T08:12:27.353000+00:00</time>
      </trkpt>
      <trkpt lat="47.29338" lon="-1.41621">
        <ele>121</ele>
        <time>2021-02-28T08:12:28.299000+00:00</time>
      </trkpt>
      <trkpt lat="0" lon="0">
        <time>2021-02-28T08:12:28.306000+00:00</time>
      </trkpt>
      <trkpt lat="0" lon="0">
        <time>2021-02-28T08:12:28.311000+00:00</time>
      </trkpt>
      <trkpt lat="0" lon="0">
        <time>2021-02-28T08:12:28.314000+00:00</time>
      </trkpt>
      <trkpt lat="47.2934" lon="-1.41622">
        <ele>121</ele>
        <time>2021-02-28T08:12:29.314000+00:00</time>
      </trkpt>
      <trkpt lat="0" lon="0">
        <time>2021-02-28T08:12:29.325000+00:00</time>
      </trkpt>
      <trkpt lat="0" lon="0">
        <time>2021-02-28T08:12:29.333000+00:00</time>
      </trkpt>
      <trkpt lat="0" lon="0">
        <time>2021-02-28T08:12:29.335000+00:00</time>
      </trkpt>
      <trkpt lat="47.29343" lon="-1.41622">
        <ele>121</ele>
        <time>2021-02-28T08:12:30.311000+00:00</time>
      </trkpt>
      <trkpt lat="0" lon="0">
        <time>2021-02-28T08:12:30.317000+00:00</time>
      </trkpt>
      <trkpt lat="0" lon="0">
        <time>2021-02-28T08:12:30.323000+00:00</time>
      </trkpt>
      <trkpt lat="0" lon="0">
        <time>2021-02-28T08:12:30.326000+00:00</time>
      </trkpt>
      <trkpt lat="47.29345" lon="-1.41622">
        <ele>121</ele>
        <time>2021-02-28T08:12:31.297000+00:00</time>
      </trkpt>
      <trkpt lat="0" lon="0">
        <time>2021-02-28T08:12:31.303000+00:00</time>
      </trkpt>
      <trkpt lat="0" lon="0">
        <time>2021-02-28T08:12:31.308000+00:00</time>
      </trkpt>
      <trkpt lat="0" lon="0">
        <time>2021-02-28T08:12:31.310000+00:00</time>
      </trkpt>
      <trkpt lat="47.29347" lon="-1.41622">
        <ele>121</ele>
        <time>2021-02-28T08:12:32.316000+00:00</time>
      </trkpt>
      <trkpt lat="0" lon="0">
        <time>2021-02-28T08:12:32.323000+00:00</time>
      </trkpt>
      <trkpt lat="0" lon="0">
        <time>2021-02-28T08:12:32.330000+00:00</time>
      </trkpt>
      <trkpt lat="0" lon="0">
        <time>2021-02-28T08:12:32.333000+00:00</time>
      </trkpt>
      <trkpt lat="47.29349" lon="-1.41621">
        <ele>121</ele>
        <time>2021-02-28T08:12:33.316000+00:00</time>
      </trkpt>
      <trkpt lat="0" lon="0">
        <time>2021-02-28T08:12:33.321000+00:00</time>
      </trkpt>
      <trkpt lat="0" lon="0">
        <time>2021-02-28T08:12:33.327000+00:00</time>
      </trkpt>
      <trkpt lat="0" lon="0">
        <time>2021-02-28T08:12:33.329000+00:00</time>
      </trkpt>
      <trkpt lat="47.29349" lon="-1.41622">
        <ele>121</ele>
        <time>2021-02-28T08:12:34.276000+00:00</time>
      </trkpt>
      <trkpt lat="0" lon="0">
        <time>2021-02-28T08:12:34.282000+00:00</time>
      </trkpt>
      <trkpt lat="0" lon="0">
        <time>2021-02-28T08:12:34.290000+00:00</time>
      </trkpt>
      <trkpt lat="0" lon="0">
        <time>2021-02-28T08:12:34.292000+00:00</time>
      </trkpt>
      <trkpt lat="47.2935" lon="-1.41622">
        <ele>120</ele>
        <time>2021-02-28T08:12:35.267000+00:00</time>
      </trkpt>
      <trkpt lat="0" lon="0">
        <time>2021-02-28T08:12:35.279000+00:00</time>
      </trkpt>
      <trkpt lat="0" lon="0">
        <time>2021-02-28T08:12:35.287000+00:00</time>
      </trkpt>
      <trkpt lat="0" lon="0">
        <time>2021-02-28T08:12:35.293000+00:00</time>
      </trkpt>
      <trkpt lat="47.29349" lon="-1.41622">
        <ele>121</ele>
        <time>2021-02-28T08:12:36.286000+00:00</time>
      </trkpt>
      <trkpt lat="0" lon="0">
        <time>2021-02-28T08:12:36.299000+00:00</time>
      </trkpt>
      <trkpt lat="0" lon="0">
        <time>2021-02-28T08:12:36.309000+00:00</time>
      </trkpt>
      <trkpt lat="0" lon="0">
        <time>2021-02-28T08:12:36.316000+00:00</time>
      </trkpt>
      <trkpt lat="47.29349" lon="-1.41621">
        <ele>121</ele>
        <time>2021-02-28T08:12:37.298000+00:00</time>
      </trkpt>
      <trkpt lat="0" lon="0">
        <time>2021-02-28T08:12:37.309000+00:00</time>
      </trkpt>
      <trkpt lat="0" lon="0">
        <time>2021-02-28T08:12:37.314000+00:00</time>
      </trkpt>
      <trkpt lat="0" lon="0">
        <time>2021-02-28T08:12:37.317000+00:00</time>
      </trkpt>
      <trkpt lat="47.29347" lon="-1.41621">
        <ele>120</ele>
        <time>2021-02-28T08:12:38.285000+00:00</time>
      </trkpt>
      <trkpt lat="0" lon="0">
        <time>2021-02-28T08:12:38.295000+00:00</time>
      </trkpt>
      <trkpt lat="0" lon="0">
        <time>2021-02-28T08:12:38.300000+00:00</time>
      </trkpt>
      <trkpt lat="0" lon="0">
        <time>2021-02-28T08:12:38.304000+00:00</time>
      </trkpt>
      <trkpt lat="47.29346" lon="-1.41619">
        <ele>121</ele>
        <time>2021-02-28T08:12:39.297000+00:00</time>
      </trkpt>
      <trkpt lat="0" lon="0">
        <time>2021-02-28T08:12:39.304000+00:00</time>
      </trkpt>
      <trkpt lat="0" lon="0">
        <time>2021-02-28T08:12:39.311000+00:00</time>
      </trkpt>
      <trkpt lat="0" lon="0">
        <time>2021-02-28T08:12:39.313000+00:00</time>
      </trkpt>
      <trkpt lat="47.29345" lon="-1.41617">
        <ele>121</ele>
        <time>2021-02-28T08:12:40.309000+00:00</time>
      </trkpt>
      <trkpt lat="0" lon="0">
        <time>2021-02-28T08:12:40.324000+00:00</time>
      </trkpt>
      <trkpt lat="0" lon="0">
        <time>2021-02-28T08:12:40.329000+00:00</time>
      </trkpt>
      <trkpt lat="0" lon="0">
        <time>2021-02-28T08:12:40.331000+00:00</time>
      </trkpt>
      <trkpt lat="47.29344" lon="-1.41615">
        <ele>121</ele>
        <time>2021-02-28T08:12:41.298000+00:00</time>
      </trkpt>
      <trkpt lat="0" lon="0">
        <time>2021-02-28T08:12:41.306000+00:00</time>
      </trkpt>
      <trkpt lat="0" lon="0">
        <time>2021-02-28T08:12:41.312000+00:00</time>
      </trkpt>
      <trkpt lat="0" lon="0">
        <time>2021-02-28T08:12:41.324000+00:00</time>
      </trkpt>
      <trkpt lat="47.29346" lon="-1.41589">
        <ele>122</ele>
        <time>2021-02-28T08:12:42.213000+00:00</time>
      </trkpt>
      <trkpt lat="0" lon="0">
        <time>2021-02-28T08:12:42.219000+00:00</time>
      </trkpt>
      <trkpt lat="0" lon="0">
        <time>2021-02-28T08:12:42.225000+00:00</time>
      </trkpt>
      <trkpt lat="0" lon="0">
        <time>2021-02-28T08:12:42.228000+00:00</time>
      </trkpt>
      <trkpt lat="47.29347" lon="-1.41583">
        <ele>122</ele>
        <time>2021-02-28T08:12:43.321000+00:00</time>
      </trkpt>
      <trkpt lat="0" lon="0">
        <time>2021-02-28T08:12:43.326000+00:00</time>
      </trkpt>
      <trkpt lat="0" lon="0">
        <time>2021-02-28T08:12:43.332000+00:00</time>
      </trkpt>
      <trkpt lat="0" lon="0">
        <time>2021-02-28T08:12:43.335000+00:00</time>
      </trkpt>
      <trkpt lat="47.29348" lon="-1.41577">
        <ele>121</ele>
        <time>2021-02-28T08:12:44.292000+00:00</time>
      </trkpt>
      <trkpt lat="0" lon="0">
        <time>2021-02-28T08:12:44.305000+00:00</time>
      </trkpt>
      <trkpt lat="0" lon="0">
        <time>2021-02-28T08:12:44.308000+00:00</time>
      </trkpt>
      <trkpt lat="0" lon="0">
        <time>2021-02-28T08:12:44.313000+00:00</time>
      </trkpt>
      <trkpt lat="47.29349" lon="-1.41571">
        <ele>121</ele>
        <time>2021-02-28T08:12:45.345000+00:00</time>
      </trkpt>
      <trkpt lat="0" lon="0">
        <time>2021-02-28T08:12:45.352000+00:00</time>
      </trkpt>
      <trkpt lat="0" lon="0">
        <time>2021-02-28T08:12:45.358000+00:00</time>
      </trkpt>
      <trkpt lat="0" lon="0">
        <time>2021-02-28T08:12:45.362000+00:00</time>
      </trkpt>
      <trkpt lat="47.29351" lon="-1.41564">
        <ele>121</ele>
        <time>2021-02-28T08:12:46.324000+00:00</time>
      </trkpt>
      <trkpt lat="0" lon="0">
        <time>2021-02-28T08:12:46.334000+00:00</time>
      </trkpt>
      <trkpt lat="0" lon="0">
        <time>2021-02-28T08:12:46.339000+00:00</time>
      </trkpt>
      <trkpt lat="0" lon="0">
        <time>2021-02-28T08:12:46.342000+00:00</time>
      </trkpt>
      <trkpt lat="47.29352" lon="-1.41557">
        <ele>121</ele>
        <time>2021-02-28T08:12:47.314000+00:00</time>
      </trkpt>
      <trkpt lat="0" lon="0">
        <time>2021-02-28T08:12:47.323000+00:00</time>
      </trkpt>
      <trkpt lat="0" lon="0">
        <time>2021-02-28T08:12:47.328000+00:00</time>
      </trkpt>
      <trkpt lat="0" lon="0">
        <time>2021-02-28T08:12:47.331000+00:00</time>
      </trkpt>
      <trkpt lat="47.29354" lon="-1.41551">
        <ele>121</ele>
        <time>2021-02-28T08:12:48.342000+00:00</time>
      </trkpt>
      <trkpt lat="0" lon="0">
        <time>2021-02-28T08:12:48.354000+00:00</time>
      </trkpt>
      <trkpt lat="0" lon="0">
        <time>2021-02-28T08:12:48.360000+00:00</time>
      </trkpt>
      <trkpt lat="0" lon="0">
        <time>2021-02-28T08:12:48.363000+00:00</time>
      </trkpt>
      <trkpt lat="47.29356" lon="-1.41543">
        <ele>121</ele>
        <time>2021-02-28T08:12:49.319000+00:00</time>
      </trkpt>
      <trkpt lat="0" lon="0">
        <time>2021-02-28T08:12:49.325000+00:00</time>
      </trkpt>
      <trkpt lat="0" lon="0">
        <time>2021-02-28T08:12:49.330000+00:00</time>
      </trkpt>
      <trkpt lat="0" lon="0">
        <time>2021-02-28T08:12:49.333000+00:00</time>
      </trkpt>
      <trkpt lat="47.29358" lon="-1.41536">
        <ele>121</ele>
        <time>2021-02-28T08:12:50.340000+00:00</time>
      </trkpt>
      <trkpt lat="0" lon="0">
        <time>2021-02-28T08:12:50.355000+00:00</time>
      </trkpt>
      <trkpt lat="0" lon="0">
        <time>2021-02-28T08:12:50.363000+00:00</time>
      </trkpt>
      <trkpt lat="0" lon="0">
        <time>2021-02-28T08:12:50.366000+00:00</time>
      </trkpt>
      <trkpt lat="47.2936" lon="-1.41529">
        <ele>121</ele>
        <time>2021-02-28T08:12:51.327000+00:00</time>
      </trkpt>
      <trkpt lat="0" lon="0">
        <time>2021-02-28T08:12:51.334000+00:00</time>
      </trkpt>
      <trkpt lat="0" lon="0">
        <time>2021-02-28T08:12:51.339000+00:00</time>
      </trkpt>
      <trkpt lat="0" lon="0">
        <time>2021-02-28T08:12:51.342000+00:00</time>
      </trkpt>
      <trkpt lat="47.29362" lon="-1.41521">
        <ele>120</ele>
        <time>2021-02-28T08:12:52.315000+00:00</time>
      </trkpt>
      <trkpt lat="0" lon="0">
        <time>2021-02-28T08:12:52.325000+00:00</time>
      </trkpt>
      <trkpt lat="0" lon="0">
        <time>2021-02-28T08:12:52.331000+00:00</time>
      </trkpt>
      <trkpt lat="0" lon="0">
        <time>2021-02-28T08:12:52.335000+00:00</time>
      </trkpt>
      <trkpt lat="47.29364" lon="-1.41513">
        <ele>120</ele>
        <time>2021-02-28T08:12:53.336000+00:00</time>
      </trkpt>
      <trkpt lat="0" lon="0">
        <time>2021-02-28T08:12:53.347000+00:00</time>
      </trkpt>
      <trkpt lat="0" lon="0">
        <time>2021-02-28T08:12:53.353000+00:00</time>
      </trkpt>
      <trkpt lat="0" lon="0">
        <time>2021-02-28T08:12:53.358000+00:00</time>
      </trkpt>
      <trkpt lat="47.29367" lon="-1.41506">
        <ele>120</ele>
        <time>2021-02-28T08:12:54.302000+00:00</time>
      </trkpt>
      <trkpt lat="0" lon="0">
        <time>2021-02-28T08:12:54.309000+00:00</time>
      </trkpt>
      <trkpt lat="0" lon="0">
        <time>2021-02-28T08:12:54.319000+00:00</time>
      </trkpt>
      <trkpt lat="0" lon="0">
        <time>2021-02-28T08:12:54.322000+00:00</time>
      </trkpt>
      <trkpt lat="47.2937" lon="-1.41498">
        <ele>118</ele>
        <time>2021-02-28T08:12:55.328000+00:00</time>
      </trkpt>
      <trkpt lat="0" lon="0">
        <time>2021-02-28T08:12:55.339000+00:00</time>
      </trkpt>
      <trkpt lat="0" lon="0">
        <time>2021-02-28T08:12:55.345000+00:00</time>
      </trkpt>
      <trkpt lat="0" lon="0">
        <time>2021-02-28T08:12:55.348000+00:00</time>
      </trkpt>
      <trkpt lat="47.29373" lon="-1.4149">
        <ele>118</ele>
        <time>2021-02-28T08:12:56.293000+00:00</time>
      </trkpt>
      <trkpt lat="0" lon="0">
        <time>2021-02-28T08:12:56.299000+00:00</time>
      </trkpt>
      <trkpt lat="0" lon="0">
        <time>2021-02-28T08:12:56.310000+00:00</time>
      </trkpt>
      <trkpt lat="0" lon="0">
        <time>2021-02-28T08:12:56.312000+00:00</time>
      </trkpt>
      <trkpt lat="47.29376" lon="-1.41482">
        <ele>118</ele>
        <time>2021-02-28T08:12:57.280000+00:00</time>
      </trkpt>
      <trkpt lat="0" lon="0">
        <time>2021-02-28T08:12:57.289000+00:00</time>
      </trkpt>
      <trkpt lat="0" lon="0">
        <time>2021-02-28T08:12:57.294000+00:00</time>
      </trkpt>
      <trkpt lat="0" lon="0">
        <time>2021-02-28T08:12:57.297000+00:00</time>
      </trkpt>
      <trkpt lat="47.29379" lon="-1.41474">
        <ele>118</ele>
        <time>2021-02-28T08:12:58.269000+00:00</time>
      </trkpt>
      <trkpt lat="0" lon="0">
        <time>2021-02-28T08:12:58.276000+00:00</time>
      </trkpt>
      <trkpt lat="0" lon="0">
        <time>2021-02-28T08:12:58.284000+00:00</time>
      </trkpt>
      <trkpt lat="0" lon="0">
        <time>2021-02-28T08:12:58.286000+00:00</time>
      </trkpt>
      <trkpt lat="47.29382" lon="-1.41466">
        <ele>118</ele>
        <time>2021-02-28T08:12:59.321000+00:00</time>
      </trkpt>
      <trkpt lat="0" lon="0">
        <time>2021-02-28T08:12:59.333000+00:00</time>
      </trkpt>
      <trkpt lat="0" lon="0">
        <time>2021-02-28T08:12:59.343000+00:00</time>
      </trkpt>
      <trkpt lat="0" lon="0">
        <time>2021-02-28T08:12:59.346000+00:00</time>
      </trkpt>
      <trkpt lat="47.29385" lon="-1.41458">
        <ele>118</ele>
        <time>2021-02-28T08:13:00.328000+00:00</time>
      </trkpt>
      <trkpt lat="0" lon="0">
        <time>2021-02-28T08:13:00.333000+00:00</time>
      </trkpt>
      <trkpt lat="0" lon="0">
        <time>2021-02-28T08:13:00.338000+00:00</time>
      </trkpt>
      <trkpt lat="0" lon="0">
        <time>2021-02-28T08:13:00.340000+00:00</time>
      </trkpt>
      <trkpt lat="47.29388" lon="-1.4145">
        <ele>117</ele>
        <time>2021-02-28T08:13:01.325000+00:00</time>
      </trkpt>
      <trkpt lat="0" lon="0">
        <time>2021-02-28T08:13:01.332000+00:00</time>
      </trkpt>
      <trkpt lat="0" lon="0">
        <time>2021-02-28T08:13:01.340000+00:00</time>
      </trkpt>
      <trkpt lat="0" lon="0">
        <time>2021-02-28T08:13:01.342000+00:00</time>
      </trkpt>
      <trkpt lat="47.29391" lon="-1.41441">
        <ele>117</ele>
        <time>2021-02-28T08:13:02.305000+00:00</time>
      </trkpt>
      <trkpt lat="0" lon="0">
        <time>2021-02-28T08:13:02.318000+00:00</time>
      </trkpt>
      <trkpt lat="0" lon="0">
        <time>2021-02-28T08:13:02.324000+00:00</time>
      </trkpt>
      <trkpt lat="0" lon="0">
        <time>2021-02-28T08:13:02.327000+00:00</time>
      </trkpt>
      <trkpt lat="47.29394" lon="-1.41433">
        <ele>117</ele>
        <time>2021-02-28T08:13:03.327000+00:00</time>
      </trkpt>
      <trkpt lat="0" lon="0">
        <time>2021-02-28T08:13:03.339000+00:00</time>
      </trkpt>
      <trkpt lat="0" lon="0">
        <time>2021-02-28T08:13:03.344000+00:00</time>
      </trkpt>
      <trkpt lat="0" lon="0">
        <time>2021-02-28T08:13:03.348000+00:00</time>
      </trkpt>
      <trkpt lat="47.29396" lon="-1.41425">
        <ele>117</ele>
        <time>2021-02-28T08:13:04.238000+00:00</time>
      </trkpt>
      <trkpt lat="0" lon="0">
        <time>2021-02-28T08:13:04.245000+00:00</time>
      </trkpt>
      <trkpt lat="0" lon="0">
        <time>2021-02-28T08:13:04.251000+00:00</time>
      </trkpt>
      <trkpt lat="0" lon="0">
        <time>2021-02-28T08:13:04.253000+00:00</time>
      </trkpt>
      <trkpt lat="47.29399" lon="-1.41417">
        <ele>118</ele>
        <time>2021-02-28T08:13:05.243000+00:00</time>
      </trkpt>
      <trkpt lat="0" lon="0">
        <time>2021-02-28T08:13:05.257000+00:00</time>
      </trkpt>
      <trkpt lat="0" lon="0">
        <time>2021-02-28T08:13:05.259000+00:00</time>
      </trkpt>
      <trkpt lat="0" lon="0">
        <time>2021-02-28T08:13:05.260000+00:00</time>
      </trkpt>
      <trkpt lat="47.29402" lon="-1.41409">
        <ele>118</ele>
        <time>2021-02-28T08:13:06.245000+00:00</time>
      </trkpt>
      <trkpt lat="0" lon="0">
        <time>2021-02-28T08:13:06.256000+00:00</time>
      </trkpt>
      <trkpt lat="0" lon="0">
        <time>2021-02-28T08:13:06.261000+00:00</time>
      </trkpt>
      <trkpt lat="0" lon="0">
        <time>2021-02-28T08:13:06.264000+00:00</time>
      </trkpt>
      <trkpt lat="47.29404" lon="-1.41401">
        <ele>118</ele>
        <time>2021-02-28T08:13:07.328000+00:00</time>
      </trkpt>
      <trkpt lat="0" lon="0">
        <time>2021-02-28T08:13:07.334000+00:00</time>
      </trkpt>
      <trkpt lat="0" lon="0">
        <time>2021-02-28T08:13:07.338000+00:00</time>
      </trkpt>
      <trkpt lat="0" lon="0">
        <time>2021-02-28T08:13:07.342000+00:00</time>
      </trkpt>
      <trkpt lat="47.29406" lon="-1.41393">
        <ele>118</ele>
        <time>2021-02-28T08:13:08.276000+00:00</time>
      </trkpt>
      <trkpt lat="0" lon="0">
        <time>2021-02-28T08:13:08.284000+00:00</time>
      </trkpt>
      <trkpt lat="0" lon="0">
        <time>2021-02-28T08:13:08.292000+00:00</time>
      </trkpt>
      <trkpt lat="0" lon="0">
        <time>2021-02-28T08:13:08.294000+00:00</time>
      </trkpt>
      <trkpt lat="47.29409" lon="-1.41386">
        <ele>118</ele>
        <time>2021-02-28T08:13:09.279000+00:00</time>
      </trkpt>
      <trkpt lat="0" lon="0">
        <time>2021-02-28T08:13:09.290000+00:00</time>
      </trkpt>
      <trkpt lat="0" lon="0">
        <time>2021-02-28T08:13:09.296000+00:00</time>
      </trkpt>
      <trkpt lat="0" lon="0">
        <time>2021-02-28T08:13:09.299000+00:00</time>
      </trkpt>
      <trkpt lat="47.29411" lon="-1.41378">
        <ele>117</ele>
        <time>2021-02-28T08:13:10.323000+00:00</time>
      </trkpt>
      <trkpt lat="0" lon="0">
        <time>2021-02-28T08:13:10.334000+00:00</time>
      </trkpt>
      <trkpt lat="0" lon="0">
        <time>2021-02-28T08:13:10.341000+00:00</time>
      </trkpt>
      <trkpt lat="0" lon="0">
        <time>2021-02-28T08:13:10.344000+00:00</time>
      </trkpt>
      <trkpt lat="47.29414" lon="-1.41371">
        <ele>117</ele>
        <time>2021-02-28T08:13:11.323000+00:00</time>
      </trkpt>
      <trkpt lat="0" lon="0">
        <time>2021-02-28T08:13:11.332000+00:00</time>
      </trkpt>
      <trkpt lat="0" lon="0">
        <time>2021-02-28T08:13:11.338000+00:00</time>
      </trkpt>
      <trkpt lat="0" lon="0">
        <time>2021-02-28T08:13:11.340000+00:00</time>
      </trkpt>
      <trkpt lat="47.29417" lon="-1.41363">
        <ele>117</ele>
        <time>2021-02-28T08:13:12.335000+00:00</time>
      </trkpt>
      <trkpt lat="0" lon="0">
        <time>2021-02-28T08:13:12.343000+00:00</time>
      </trkpt>
      <trkpt lat="0" lon="0">
        <time>2021-02-28T08:13:12.348000+00:00</time>
      </trkpt>
      <trkpt lat="0" lon="0">
        <time>2021-02-28T08:13:12.351000+00:00</time>
      </trkpt>
      <trkpt lat="47.29419" lon="-1.41356">
        <ele>117</ele>
        <time>2021-02-28T08:13:13.308000+00:00</time>
      </trkpt>
      <trkpt lat="0" lon="0">
        <time>2021-02-28T08:13:13.315000+00:00</time>
      </trkpt>
      <trkpt lat="0" lon="0">
        <time>2021-02-28T08:13:13.321000+00:00</time>
      </trkpt>
      <trkpt lat="0" lon="0">
        <time>2021-02-28T08:13:13.324000+00:00</time>
      </trkpt>
      <trkpt lat="47.29422" lon="-1.41348">
        <ele>117</ele>
        <time>2021-02-28T08:13:14.251000+00:00</time>
      </trkpt>
      <trkpt lat="0" lon="0">
        <time>2021-02-28T08:13:14.253000+00:00</time>
      </trkpt>
      <trkpt lat="0" lon="0">
        <time>2021-02-28T08:13:14.255000+00:00</time>
      </trkpt>
      <trkpt lat="0" lon="0">
        <time>2021-02-28T08:13:14.256000+00:00</time>
      </trkpt>
      <trkpt lat="47.29424" lon="-1.41341">
        <ele>117</ele>
        <time>2021-02-28T08:13:15.258000+00:00</time>
      </trkpt>
      <trkpt lat="0" lon="0">
        <time>2021-02-28T08:13:15.264000+00:00</time>
      </trkpt>
      <trkpt lat="0" lon="0">
        <time>2021-02-28T08:13:15.271000+00:00</time>
      </trkpt>
      <trkpt lat="0" lon="0">
        <time>2021-02-28T08:13:15.274000+00:00</time>
      </trkpt>
      <trkpt lat="47.29427" lon="-1.41334">
        <ele>116</ele>
        <time>2021-02-28T08:13:16.298000+00:00</time>
      </trkpt>
      <trkpt lat="0" lon="0">
        <time>2021-02-28T08:13:16.305000+00:00</time>
      </trkpt>
      <trkpt lat="0" lon="0">
        <time>2021-02-28T08:13:16.311000+00:00</time>
      </trkpt>
      <trkpt lat="0" lon="0">
        <time>2021-02-28T08:13:16.314000+00:00</time>
      </trkpt>
      <trkpt lat="47.29429" lon="-1.41326">
        <ele>116</ele>
        <time>2021-02-28T08:13:17.303000+00:00</time>
      </trkpt>
      <trkpt lat="0" lon="0">
        <time>2021-02-28T08:13:17.311000+00:00</time>
      </trkpt>
      <trkpt lat="0" lon="0">
        <time>2021-02-28T08:13:17.318000+00:00</time>
      </trkpt>
      <trkpt lat="0" lon="0">
        <time>2021-02-28T08:13:17.321000+00:00</time>
      </trkpt>
      <trkpt lat="47.29432" lon="-1.41319">
        <ele>115</ele>
        <time>2021-02-28T08:13:18.277000+00:00</time>
      </trkpt>
      <trkpt lat="0" lon="0">
        <time>2021-02-28T08:13:18.286000+00:00</time>
      </trkpt>
      <trkpt lat="0" lon="0">
        <time>2021-02-28T08:13:18.291000+00:00</time>
      </trkpt>
      <trkpt lat="0" lon="0">
        <time>2021-02-28T08:13:18.294000+00:00</time>
      </trkpt>
      <trkpt lat="47.29435" lon="-1.41312">
        <ele>115</ele>
        <time>2021-02-28T08:13:19.284000+00:00</time>
      </trkpt>
      <trkpt lat="0" lon="0">
        <time>2021-02-28T08:13:19.294000+00:00</time>
      </trkpt>
      <trkpt lat="0" lon="0">
        <time>2021-02-28T08:13:19.300000+00:00</time>
      </trkpt>
      <trkpt lat="0" lon="0">
        <time>2021-02-28T08:13:19.302000+00:00</time>
      </trkpt>
      <trkpt lat="47.29438" lon="-1.41305">
        <ele>115</ele>
        <time>2021-02-28T08:13:20.320000+00:00</time>
      </trkpt>
      <trkpt lat="0" lon="0">
        <time>2021-02-28T08:13:20.322000+00:00</time>
      </trkpt>
      <trkpt lat="0" lon="0">
        <time>2021-02-28T08:13:20.327000+00:00</time>
      </trkpt>
      <trkpt lat="0" lon="0">
        <time>2021-02-28T08:13:20.330000+00:00</time>
      </trkpt>
      <trkpt lat="47.29441" lon="-1.41298">
        <ele>115</ele>
        <time>2021-02-28T08:13:21.294000+00:00</time>
      </trkpt>
      <trkpt lat="0" lon="0">
        <time>2021-02-28T08:13:21.300000+00:00</time>
      </trkpt>
      <trkpt lat="0" lon="0">
        <time>2021-02-28T08:13:21.305000+00:00</time>
      </trkpt>
      <trkpt lat="0" lon="0">
        <time>2021-02-28T08:13:21.307000+00:00</time>
      </trkpt>
      <trkpt lat="47.29444" lon="-1.41291">
        <ele>115</ele>
        <time>2021-02-28T08:13:22.316000+00:00</time>
      </trkpt>
      <trkpt lat="0" lon="0">
        <time>2021-02-28T08:13:22.322000+00:00</time>
      </trkpt>
      <trkpt lat="0" lon="0">
        <time>2021-02-28T08:13:22.329000+00:00</time>
      </trkpt>
      <trkpt lat="0" lon="0">
        <time>2021-02-28T08:13:22.333000+00:00</time>
      </trkpt>
      <trkpt lat="47.29447" lon="-1.41283">
        <ele>115</ele>
        <time>2021-02-28T08:13:23.251000+00:00</time>
      </trkpt>
      <trkpt lat="0" lon="0">
        <time>2021-02-28T08:13:23.264000+00:00</time>
      </trkpt>
      <trkpt lat="0" lon="0">
        <time>2021-02-28T08:13:23.271000+00:00</time>
      </trkpt>
      <trkpt lat="0" lon="0">
        <time>2021-02-28T08:13:23.278000+00:00</time>
      </trkpt>
      <trkpt lat="47.2945" lon="-1.41276">
        <ele>115</ele>
        <time>2021-02-28T08:13:24.326000+00:00</time>
      </trkpt>
      <trkpt lat="0" lon="0">
        <time>2021-02-28T08:13:24.336000+00:00</time>
      </trkpt>
      <trkpt lat="0" lon="0">
        <time>2021-02-28T08:13:24.342000+00:00</time>
      </trkpt>
      <trkpt lat="0" lon="0">
        <time>2021-02-28T08:13:24.345000+00:00</time>
      </trkpt>
      <trkpt lat="47.29453" lon="-1.41269">
        <ele>114</ele>
        <time>2021-02-28T08:13:25.293000+00:00</time>
      </trkpt>
      <trkpt lat="0" lon="0">
        <time>2021-02-28T08:13:25.302000+00:00</time>
      </trkpt>
      <trkpt lat="0" lon="0">
        <time>2021-02-28T08:13:25.307000+00:00</time>
      </trkpt>
      <trkpt lat="0" lon="0">
        <time>2021-02-28T08:13:25.309000+00:00</time>
      </trkpt>
      <trkpt lat="47.29456" lon="-1.41262">
        <ele>115</ele>
        <time>2021-02-28T08:13:26.282000+00:00</time>
      </trkpt>
      <trkpt lat="0" lon="0">
        <time>2021-02-28T08:13:26.286000+00:00</time>
      </trkpt>
      <trkpt lat="0" lon="0">
        <time>2021-02-28T08:13:26.288000+00:00</time>
      </trkpt>
      <trkpt lat="0" lon="0">
        <time>2021-02-28T08:13:26.289000+00:00</time>
      </trkpt>
      <trkpt lat="47.29458" lon="-1.41254">
        <ele>114</ele>
        <time>2021-02-28T08:13:27.287000+00:00</time>
      </trkpt>
      <trkpt lat="0" lon="0">
        <time>2021-02-28T08:13:27.292000+00:00</time>
      </trkpt>
      <trkpt lat="0" lon="0">
        <time>2021-02-28T08:13:27.298000+00:00</time>
      </trkpt>
      <trkpt lat="0" lon="0">
        <time>2021-02-28T08:13:27.303000+00:00</time>
      </trkpt>
      <trkpt lat="47.29461" lon="-1.41247">
        <ele>114</ele>
        <time>2021-02-28T08:13:28.248000+00:00</time>
      </trkpt>
      <trkpt lat="0" lon="0">
        <time>2021-02-28T08:13:28.254000+00:00</time>
      </trkpt>
      <trkpt lat="0" lon="0">
        <time>2021-02-28T08:13:28.258000+00:00</time>
      </trkpt>
      <trkpt lat="0" lon="0">
        <time>2021-02-28T08:13:28.261000+00:00</time>
      </trkpt>
      <trkpt lat="47.29463" lon="-1.4124">
        <ele>114</ele>
        <time>2021-02-28T08:13:29.299000+00:00</time>
      </trkpt>
      <trkpt lat="0" lon="0">
        <time>2021-02-28T08:13:29.305000+00:00</time>
      </trkpt>
      <trkpt lat="0" lon="0">
        <time>2021-02-28T08:13:29.309000+00:00</time>
      </trkpt>
      <trkpt lat="0" lon="0">
        <time>2021-02-28T08:13:29.311000+00:00</time>
      </trkpt>
      <trkpt lat="47.29466" lon="-1.41232">
        <ele>114</ele>
        <time>2021-02-28T08:13:30.300000+00:00</time>
      </trkpt>
      <trkpt lat="0" lon="0">
        <time>2021-02-28T08:13:30.307000+00:00</time>
      </trkpt>
      <trkpt lat="0" lon="0">
        <time>2021-02-28T08:13:30.313000+00:00</time>
      </trkpt>
      <trkpt lat="0" lon="0">
        <time>2021-02-28T08:13:30.316000+00:00</time>
      </trkpt>
      <trkpt lat="47.29468" lon="-1.41225">
        <ele>114</ele>
        <time>2021-02-28T08:13:31.277000+00:00</time>
      </trkpt>
      <trkpt lat="0" lon="0">
        <time>2021-02-28T08:13:31.289000+00:00</time>
      </trkpt>
      <trkpt lat="0" lon="0">
        <time>2021-02-28T08:13:31.293000+00:00</time>
      </trkpt>
      <trkpt lat="0" lon="0">
        <time>2021-02-28T08:13:31.296000+00:00</time>
      </trkpt>
      <trkpt lat="47.29471" lon="-1.41218">
        <ele>114</ele>
        <time>2021-02-28T08:13:32.309000+00:00</time>
      </trkpt>
      <trkpt lat="0" lon="0">
        <time>2021-02-28T08:13:32.319000+00:00</time>
      </trkpt>
      <trkpt lat="0" lon="0">
        <time>2021-02-28T08:13:32.324000+00:00</time>
      </trkpt>
      <trkpt lat="0" lon="0">
        <time>2021-02-28T08:13:32.327000+00:00</time>
      </trkpt>
      <trkpt lat="47.29473" lon="-1.4121">
        <ele>114</ele>
        <time>2021-02-28T08:13:33.282000+00:00</time>
      </trkpt>
      <trkpt lat="0" lon="0">
        <time>2021-02-28T08:13:33.290000+00:00</time>
      </trkpt>
      <trkpt lat="0" lon="0">
        <time>2021-02-28T08:13:33.295000+00:00</time>
      </trkpt>
      <trkpt lat="0" lon="0">
        <time>2021-02-28T08:13:33.299000+00:00</time>
      </trkpt>
      <trkpt lat="47.29476" lon="-1.41203">
        <ele>113</ele>
        <time>2021-02-28T08:13:34.314000+00:00</time>
      </trkpt>
      <trkpt lat="0" lon="0">
        <time>2021-02-28T08:13:34.321000+00:00</time>
      </trkpt>
      <trkpt lat="0" lon="0">
        <time>2021-02-28T08:13:34.327000+00:00</time>
      </trkpt>
      <trkpt lat="0" lon="0">
        <time>2021-02-28T08:13:34.330000+00:00</time>
      </trkpt>
      <trkpt lat="47.29478" lon="-1.41196">
        <ele>113</ele>
        <time>2021-02-28T08:13:35.297000+00:00</time>
      </trkpt>
      <trkpt lat="0" lon="0">
        <time>2021-02-28T08:13:35.309000+00:00</time>
      </trkpt>
      <trkpt lat="0" lon="0">
        <time>2021-02-28T08:13:35.317000+00:00</time>
      </trkpt>
      <trkpt lat="0" lon="0">
        <time>2021-02-28T08:13:35.320000+00:00</time>
      </trkpt>
      <trkpt lat="47.29481" lon="-1.41188">
        <ele>114</ele>
        <time>2021-02-28T08:13:36.320000+00:00</time>
      </trkpt>
      <trkpt lat="0" lon="0">
        <time>2021-02-28T08:13:36.328000+00:00</time>
      </trkpt>
      <trkpt lat="0" lon="0">
        <time>2021-02-28T08:13:36.337000+00:00</time>
      </trkpt>
      <trkpt lat="0" lon="0">
        <time>2021-02-28T08:13:36.342000+00:00</time>
      </trkpt>
      <trkpt lat="47.29483" lon="-1.41181">
        <ele>113</ele>
        <time>2021-02-28T08:13:37.306000+00:00</time>
      </trkpt>
      <trkpt lat="0" lon="0">
        <time>2021-02-28T08:13:37.310000+00:00</time>
      </trkpt>
      <trkpt lat="0" lon="0">
        <time>2021-02-28T08:13:37.312000+00:00</time>
      </trkpt>
      <trkpt lat="0" lon="0">
        <time>2021-02-28T08:13:37.313000+00:00</time>
      </trkpt>
      <trkpt lat="47.29486" lon="-1.41173">
        <ele>113</ele>
        <time>2021-02-28T08:13:38.240000+00:00</time>
      </trkpt>
      <trkpt lat="0" lon="0">
        <time>2021-02-28T08:13:38.245000+00:00</time>
      </trkpt>
      <trkpt lat="0" lon="0">
        <time>2021-02-28T08:13:38.258000+00:00</time>
      </trkpt>
      <trkpt lat="0" lon="0">
        <time>2021-02-28T08:13:38.260000+00:00</time>
      </trkpt>
      <trkpt lat="47.29489" lon="-1.41166">
        <ele>113</ele>
        <time>2021-02-28T08:13:39.291000+00:00</time>
      </trkpt>
      <trkpt lat="0" lon="0">
        <time>2021-02-28T08:13:39.302000+00:00</time>
      </trkpt>
      <trkpt lat="0" lon="0">
        <time>2021-02-28T08:13:39.308000+00:00</time>
      </trkpt>
      <trkpt lat="0" lon="0">
        <time>2021-02-28T08:13:39.311000+00:00</time>
      </trkpt>
      <trkpt lat="47.29491" lon="-1.41158">
        <ele>112</ele>
        <time>2021-02-28T08:13:40.307000+00:00</time>
      </trkpt>
      <trkpt lat="0" lon="0">
        <time>2021-02-28T08:13:40.314000+00:00</time>
      </trkpt>
      <trkpt lat="0" lon="0">
        <time>2021-02-28T08:13:40.319000+00:00</time>
      </trkpt>
      <trkpt lat="0" lon="0">
        <time>2021-02-28T08:13:40.322000+00:00</time>
      </trkpt>
      <trkpt lat="47.29494" lon="-1.4115">
        <ele>111</ele>
        <time>2021-02-28T08:13:41.303000+00:00</time>
      </trkpt>
      <trkpt lat="0" lon="0">
        <time>2021-02-28T08:13:41.315000+00:00</time>
      </trkpt>
      <trkpt lat="0" lon="0">
        <time>2021-02-28T08:13:41.321000+00:00</time>
      </trkpt>
      <trkpt lat="0" lon="0">
        <time>2021-02-28T08:13:41.324000+00:00</time>
      </trkpt>
      <trkpt lat="47.29497" lon="-1.41143">
        <ele>111</ele>
        <time>2021-02-28T08:13:42.290000+00:00</time>
      </trkpt>
      <trkpt lat="0" lon="0">
        <time>2021-02-28T08:13:42.301000+00:00</time>
      </trkpt>
      <trkpt lat="0" lon="0">
        <time>2021-02-28T08:13:42.310000+00:00</time>
      </trkpt>
      <trkpt lat="0" lon="0">
        <time>2021-02-28T08:13:42.314000+00:00</time>
      </trkpt>
      <trkpt lat="47.29499" lon="-1.41135">
        <ele>111</ele>
        <time>2021-02-28T08:13:43.285000+00:00</time>
      </trkpt>
      <trkpt lat="0" lon="0">
        <time>2021-02-28T08:13:43.295000+00:00</time>
      </trkpt>
      <trkpt lat="0" lon="0">
        <time>2021-02-28T08:13:43.297000+00:00</time>
      </trkpt>
      <trkpt lat="0" lon="0">
        <time>2021-02-28T08:13:43.298000+00:00</time>
      </trkpt>
      <trkpt lat="47.29502" lon="-1.41128">
        <ele>110</ele>
        <time>2021-02-28T08:13:44.308000+00:00</time>
      </trkpt>
      <trkpt lat="0" lon="0">
        <time>2021-02-28T08:13:44.314000+00:00</time>
      </trkpt>
      <trkpt lat="0" lon="0">
        <time>2021-02-28T08:13:44.320000+00:00</time>
      </trkpt>
      <trkpt lat="0" lon="0">
        <time>2021-02-28T08:13:44.322000+00:00</time>
      </trkpt>
      <trkpt lat="47.29505" lon="-1.41121">
        <ele>110</ele>
        <time>2021-02-28T08:13:45.314000+00:00</time>
      </trkpt>
      <trkpt lat="0" lon="0">
        <time>2021-02-28T08:13:45.324000+00:00</time>
      </trkpt>
      <trkpt lat="0" lon="0">
        <time>2021-02-28T08:13:45.331000+00:00</time>
      </trkpt>
      <trkpt lat="0" lon="0">
        <time>2021-02-28T08:13:45.335000+00:00</time>
      </trkpt>
      <trkpt lat="47.29507" lon="-1.41113">
        <ele>109</ele>
        <time>2021-02-28T08:13:46.301000+00:00</time>
      </trkpt>
      <trkpt lat="0" lon="0">
        <time>2021-02-28T08:13:46.317000+00:00</time>
      </trkpt>
      <trkpt lat="0" lon="0">
        <time>2021-02-28T08:13:46.324000+00:00</time>
      </trkpt>
      <trkpt lat="0" lon="0">
        <time>2021-02-28T08:13:46.326000+00:00</time>
      </trkpt>
      <trkpt lat="47.2951" lon="-1.41106">
        <ele>109</ele>
        <time>2021-02-28T08:13:47.304000+00:00</time>
      </trkpt>
      <trkpt lat="0" lon="0">
        <time>2021-02-28T08:13:47.314000+00:00</time>
      </trkpt>
      <trkpt lat="0" lon="0">
        <time>2021-02-28T08:13:47.319000+00:00</time>
      </trkpt>
      <trkpt lat="0" lon="0">
        <time>2021-02-28T08:13:47.321000+00:00</time>
      </trkpt>
      <trkpt lat="47.29512" lon="-1.41099">
        <ele>109</ele>
        <time>2021-02-28T08:13:48.282000+00:00</time>
      </trkpt>
      <trkpt lat="0" lon="0">
        <time>2021-02-28T08:13:48.284000+00:00</time>
      </trkpt>
      <trkpt lat="0" lon="0">
        <time>2021-02-28T08:13:48.287000+00:00</time>
      </trkpt>
      <trkpt lat="0" lon="0">
        <time>2021-02-28T08:13:48.288000+00:00</time>
      </trkpt>
      <trkpt lat="47.29514" lon="-1.41091">
        <ele>108</ele>
        <time>2021-02-28T08:13:49.317000+00:00</time>
      </trkpt>
      <trkpt lat="0" lon="0">
        <time>2021-02-28T08:13:49.322000+00:00</time>
      </trkpt>
      <trkpt lat="0" lon="0">
        <time>2021-02-28T08:13:49.327000+00:00</time>
      </trkpt>
      <trkpt lat="0" lon="0">
        <time>2021-02-28T08:13:49.330000+00:00</time>
      </trkpt>
      <trkpt lat="47.29517" lon="-1.41084">
        <ele>108</ele>
        <time>2021-02-28T08:13:50.316000+00:00</time>
      </trkpt>
      <trkpt lat="0" lon="0">
        <time>2021-02-28T08:13:50.322000+00:00</time>
      </trkpt>
      <trkpt lat="0" lon="0">
        <time>2021-02-28T08:13:50.332000+00:00</time>
      </trkpt>
      <trkpt lat="0" lon="0">
        <time>2021-02-28T08:13:50.336000+00:00</time>
      </trkpt>
      <trkpt lat="47.29519" lon="-1.41076">
        <ele>107</ele>
        <time>2021-02-28T08:13:51.315000+00:00</time>
      </trkpt>
      <trkpt lat="0" lon="0">
        <time>2021-02-28T08:13:51.333000+00:00</time>
      </trkpt>
      <trkpt lat="0" lon="0">
        <time>2021-02-28T08:13:51.342000+00:00</time>
      </trkpt>
      <trkpt lat="0" lon="0">
        <time>2021-02-28T08:13:51.345000+00:00</time>
      </trkpt>
      <trkpt lat="47.29522" lon="-1.41069">
        <ele>106</ele>
        <time>2021-02-28T08:13:52.294000+00:00</time>
      </trkpt>
      <trkpt lat="0" lon="0">
        <time>2021-02-28T08:13:52.300000+00:00</time>
      </trkpt>
      <trkpt lat="0" lon="0">
        <time>2021-02-28T08:13:52.305000+00:00</time>
      </trkpt>
      <trkpt lat="0" lon="0">
        <time>2021-02-28T08:13:52.307000+00:00</time>
      </trkpt>
      <trkpt lat="47.29524" lon="-1.41061">
        <ele>106</ele>
        <time>2021-02-28T08:13:53.297000+00:00</time>
      </trkpt>
      <trkpt lat="0" lon="0">
        <time>2021-02-28T08:13:53.307000+00:00</time>
      </trkpt>
      <trkpt lat="0" lon="0">
        <time>2021-02-28T08:13:53.313000+00:00</time>
      </trkpt>
      <trkpt lat="0" lon="0">
        <time>2021-02-28T08:13:53.319000+00:00</time>
      </trkpt>
      <trkpt lat="47.29527" lon="-1.41053">
        <ele>106</ele>
        <time>2021-02-28T08:13:54.266000+00:00</time>
      </trkpt>
      <trkpt lat="0" lon="0">
        <time>2021-02-28T08:13:54.268000+00:00</time>
      </trkpt>
      <trkpt lat="0" lon="0">
        <time>2021-02-28T08:13:54.271000+00:00</time>
      </trkpt>
      <trkpt lat="0" lon="0">
        <time>2021-02-28T08:13:54.273000+00:00</time>
      </trkpt>
      <trkpt lat="47.2953" lon="-1.41045">
        <ele>105</ele>
        <time>2021-02-28T08:13:55.344000+00:00</time>
      </trkpt>
      <trkpt lat="0" lon="0">
        <time>2021-02-28T08:13:55.349000+00:00</time>
      </trkpt>
      <trkpt lat="0" lon="0">
        <time>2021-02-28T08:13:55.354000+00:00</time>
      </trkpt>
      <trkpt lat="0" lon="0">
        <time>2021-02-28T08:13:55.357000+00:00</time>
      </trkpt>
      <trkpt lat="47.29532" lon="-1.41037">
        <ele>105</ele>
        <time>2021-02-28T08:13:56.182000+00:00</time>
      </trkpt>
      <trkpt lat="0" lon="0">
        <time>2021-02-28T08:13:56.185000+00:00</time>
      </trkpt>
      <trkpt lat="0" lon="0">
        <time>2021-02-28T08:13:56.187000+00:00</time>
      </trkpt>
      <trkpt lat="0" lon="0">
        <time>2021-02-28T08:13:56.189000+00:00</time>
      </trkpt>
      <trkpt lat="47.29535" lon="-1.41028">
        <ele>104</ele>
        <time>2021-02-28T08:13:57.192000+00:00</time>
      </trkpt>
      <trkpt lat="0" lon="0">
        <time>2021-02-28T08:13:57.198000+00:00</time>
      </trkpt>
      <trkpt lat="0" lon="0">
        <time>2021-02-28T08:13:57.202000+00:00</time>
      </trkpt>
      <trkpt lat="0" lon="0">
        <time>2021-02-28T08:13:57.204000+00:00</time>
      </trkpt>
      <trkpt lat="47.29538" lon="-1.4102">
        <ele>103</ele>
        <time>2021-02-28T08:13:58.275000+00:00</time>
      </trkpt>
      <trkpt lat="0" lon="0">
        <time>2021-02-28T08:13:58.287000+00:00</time>
      </trkpt>
      <trkpt lat="0" lon="0">
        <time>2021-02-28T08:13:58.294000+00:00</time>
      </trkpt>
      <trkpt lat="0" lon="0">
        <time>2021-02-28T08:13:58.300000+00:00</time>
      </trkpt>
      <trkpt lat="47.29541" lon="-1.4101">
        <ele>102</ele>
        <time>2021-02-28T08:13:59.306000+00:00</time>
      </trkpt>
      <trkpt lat="0" lon="0">
        <time>2021-02-28T08:13:59.315000+00:00</time>
      </trkpt>
      <trkpt lat="0" lon="0">
        <time>2021-02-28T08:13:59.322000+00:00</time>
      </trkpt>
      <trkpt lat="0" lon="0">
        <time>2021-02-28T08:13:59.325000+00:00</time>
      </trkpt>
      <trkpt lat="47.29544" lon="-1.41001">
        <ele>102</ele>
        <time>2021-02-28T08:14:00.316000+00:00</time>
      </trkpt>
      <trkpt lat="0" lon="0">
        <time>2021-02-28T08:14:00.325000+00:00</time>
      </trkpt>
      <trkpt lat="0" lon="0">
        <time>2021-02-28T08:14:00.335000+00:00</time>
      </trkpt>
      <trkpt lat="0" lon="0">
        <time>2021-02-28T08:14:00.338000+00:00</time>
      </trkpt>
      <trkpt lat="47.29548" lon="-1.40991">
        <ele>101</ele>
        <time>2021-02-28T08:14:01.288000+00:00</time>
      </trkpt>
      <trkpt lat="0" lon="0">
        <time>2021-02-28T08:14:01.294000+00:00</time>
      </trkpt>
      <trkpt lat="0" lon="0">
        <time>2021-02-28T08:14:01.298000+00:00</time>
      </trkpt>
      <trkpt lat="0" lon="0">
        <time>2021-02-28T08:14:01.300000+00:00</time>
      </trkpt>
      <trkpt lat="47.29551" lon="-1.4098">
        <ele>100</ele>
        <time>2021-02-28T08:14:02.224000+00:00</time>
      </trkpt>
      <trkpt lat="0" lon="0">
        <time>2021-02-28T08:14:02.228000+00:00</time>
      </trkpt>
      <trkpt lat="0" lon="0">
        <time>2021-02-28T08:14:02.234000+00:00</time>
      </trkpt>
      <trkpt lat="0" lon="0">
        <time>2021-02-28T08:14:02.236000+00:00</time>
      </trkpt>
      <trkpt lat="47.29555" lon="-1.40969">
        <ele>100</ele>
        <time>2021-02-28T08:14:03.273000+00:00</time>
      </trkpt>
      <trkpt lat="0" lon="0">
        <time>2021-02-28T08:14:03.282000+00:00</time>
      </trkpt>
      <trkpt lat="0" lon="0">
        <time>2021-02-28T08:14:03.290000+00:00</time>
      </trkpt>
      <trkpt lat="0" lon="0">
        <time>2021-02-28T08:14:03.296000+00:00</time>
      </trkpt>
      <trkpt lat="47.2956" lon="-1.40958">
        <ele>99</ele>
        <time>2021-02-28T08:14:04.293000+00:00</time>
      </trkpt>
      <trkpt lat="0" lon="0">
        <time>2021-02-28T08:14:04.306000+00:00</time>
      </trkpt>
      <trkpt lat="0" lon="0">
        <time>2021-02-28T08:14:04.312000+00:00</time>
      </trkpt>
      <trkpt lat="0" lon="0">
        <time>2021-02-28T08:14:04.316000+00:00</time>
      </trkpt>
      <trkpt lat="47.29564" lon="-1.40947">
        <ele>98</ele>
        <time>2021-02-28T08:14:05.279000+00:00</time>
      </trkpt>
      <trkpt lat="0" lon="0">
        <time>2021-02-28T08:14:05.287000+00:00</time>
      </trkpt>
      <trkpt lat="0" lon="0">
        <time>2021-02-28T08:14:05.293000+00:00</time>
      </trkpt>
      <trkpt lat="0" lon="0">
        <time>2021-02-28T08:14:05.296000+00:00</time>
      </trkpt>
      <trkpt lat="47.29568" lon="-1.40937">
        <ele>98</ele>
        <time>2021-02-28T08:14:06.279000+00:00</time>
      </trkpt>
      <trkpt lat="0" lon="0">
        <time>2021-02-28T08:14:06.288000+00:00</time>
      </trkpt>
      <trkpt lat="0" lon="0">
        <time>2021-02-28T08:14:06.297000+00:00</time>
      </trkpt>
      <trkpt lat="0" lon="0">
        <time>2021-02-28T08:14:06.299000+00:00</time>
      </trkpt>
      <trkpt lat="47.29572" lon="-1.40927">
        <ele>97</ele>
        <time>2021-02-28T08:14:07.315000+00:00</time>
      </trkpt>
      <trkpt lat="0" lon="0">
        <time>2021-02-28T08:14:07.322000+00:00</time>
      </trkpt>
      <trkpt lat="0" lon="0">
        <time>2021-02-28T08:14:07.332000+00:00</time>
      </trkpt>
      <trkpt lat="0" lon="0">
        <time>2021-02-28T08:14:07.339000+00:00</time>
      </trkpt>
      <trkpt lat="47.29576" lon="-1.40918">
        <ele>97</ele>
        <time>2021-02-28T08:14:08.315000+00:00</time>
      </trkpt>
      <trkpt lat="0" lon="0">
        <time>2021-02-28T08:14:08.327000+00:00</time>
      </trkpt>
      <trkpt lat="0" lon="0">
        <time>2021-02-28T08:14:08.333000+00:00</time>
      </trkpt>
      <trkpt lat="0" lon="0">
        <time>2021-02-28T08:14:08.336000+00:00</time>
      </trkpt>
      <trkpt lat="47.2958" lon="-1.40909">
        <ele>97</ele>
        <time>2021-02-28T08:14:09.329000+00:00</time>
      </trkpt>
      <trkpt lat="0" lon="0">
        <time>2021-02-28T08:14:09.336000+00:00</time>
      </trkpt>
      <trkpt lat="0" lon="0">
        <time>2021-02-28T08:14:09.345000+00:00</time>
      </trkpt>
      <trkpt lat="0" lon="0">
        <time>2021-02-28T08:14:09.348000+00:00</time>
      </trkpt>
      <trkpt lat="47.29583" lon="-1.40901">
        <ele>97</ele>
        <time>2021-02-28T08:14:10.291000+00:00</time>
      </trkpt>
      <trkpt lat="0" lon="0">
        <time>2021-02-28T08:14:10.297000+00:00</time>
      </trkpt>
      <trkpt lat="0" lon="0">
        <time>2021-02-28T08:14:10.303000+00:00</time>
      </trkpt>
      <trkpt lat="0" lon="0">
        <time>2021-02-28T08:14:10.307000+00:00</time>
      </trkpt>
      <trkpt lat="47.29586" lon="-1.40895">
        <ele>97</ele>
        <time>2021-02-28T08:14:11.296000+00:00</time>
      </trkpt>
      <trkpt lat="0" lon="0">
        <time>2021-02-28T08:14:11.312000+00:00</time>
      </trkpt>
      <trkpt lat="0" lon="0">
        <time>2021-02-28T08:14:11.316000+00:00</time>
      </trkpt>
      <trkpt lat="0" lon="0">
        <time>2021-02-28T08:14:11.320000+00:00</time>
      </trkpt>
      <trkpt lat="47.29588" lon="-1.4089">
        <ele>96</ele>
        <time>2021-02-28T08:14:12.233000+00:00</time>
      </trkpt>
      <trkpt lat="0" lon="0">
        <time>2021-02-28T08:14:12.243000+00:00</time>
      </trkpt>
      <trkpt lat="0" lon="0">
        <time>2021-02-28T08:14:12.247000+00:00</time>
      </trkpt>
      <trkpt lat="0" lon="0">
        <time>2021-02-28T08:14:12.249000+00:00</time>
      </trkpt>
      <trkpt lat="47.2959" lon="-1.40885">
        <ele>96</ele>
        <time>2021-02-28T08:14:13.288000+00:00</time>
      </trkpt>
      <trkpt lat="0" lon="0">
        <time>2021-02-28T08:14:13.295000+00:00</time>
      </trkpt>
      <trkpt lat="0" lon="0">
        <time>2021-02-28T08:14:13.300000+00:00</time>
      </trkpt>
      <trkpt lat="0" lon="0">
        <time>2021-02-28T08:14:13.303000+00:00</time>
      </trkpt>
      <trkpt lat="47.29591" lon="-1.40882">
        <ele>96</ele>
        <time>2021-02-28T08:14:14.210000+00:00</time>
      </trkpt>
      <trkpt lat="0" lon="0">
        <time>2021-02-28T08:14:14.217000+00:00</time>
      </trkpt>
      <trkpt lat="0" lon="0">
        <time>2021-02-28T08:14:14.219000+00:00</time>
      </trkpt>
      <trkpt lat="0" lon="0">
        <time>2021-02-28T08:14:14.220000+00:00</time>
      </trkpt>
      <trkpt lat="47.29592" lon="-1.4088">
        <ele>95</ele>
        <time>2021-02-28T08:14:15.328000+00:00</time>
      </trkpt>
      <trkpt lat="0" lon="0">
        <time>2021-02-28T08:14:15.340000+00:00</time>
      </trkpt>
      <trkpt lat="0" lon="0">
        <time>2021-02-28T08:14:15.344000+00:00</time>
      </trkpt>
      <trkpt lat="0" lon="0">
        <time>2021-02-28T08:14:15.346000+00:00</time>
      </trkpt>
      <trkpt lat="47.29592" lon="-1.40879">
        <ele>95</ele>
        <time>2021-02-28T08:14:16.299000+00:00</time>
      </trkpt>
      <trkpt lat="0" lon="0">
        <time>2021-02-28T08:14:16.311000+00:00</time>
      </trkpt>
      <trkpt lat="0" lon="0">
        <time>2021-02-28T08:14:16.316000+00:00</time>
      </trkpt>
      <trkpt lat="0" lon="0">
        <time>2021-02-28T08:14:16.318000+00:00</time>
      </trkpt>
      <trkpt lat="47.29593" lon="-1.40878">
        <ele>95</ele>
        <time>2021-02-28T08:14:17.297000+00:00</time>
      </trkpt>
      <trkpt lat="0" lon="0">
        <time>2021-02-28T08:14:17.303000+00:00</time>
      </trkpt>
      <trkpt lat="0" lon="0">
        <time>2021-02-28T08:14:17.308000+00:00</time>
      </trkpt>
      <trkpt lat="0" lon="0">
        <time>2021-02-28T08:14:17.314000+00:00</time>
      </trkpt>
      <trkpt lat="47.29592" lon="-1.40878">
        <ele>95</ele>
        <time>2021-02-28T08:14:18.282000+00:00</time>
      </trkpt>
      <trkpt lat="0" lon="0">
        <time>2021-02-28T08:14:18.290000+00:00</time>
      </trkpt>
      <trkpt lat="0" lon="0">
        <time>2021-02-28T08:14:18.294000+00:00</time>
      </trkpt>
      <trkpt lat="0" lon="0">
        <time>2021-02-28T08:14:18.297000+00:00</time>
      </trkpt>
      <trkpt lat="47.29592" lon="-1.40879">
        <ele>94</ele>
        <time>2021-02-28T08:14:19.307000+00:00</time>
      </trkpt>
      <trkpt lat="0" lon="0">
        <time>2021-02-28T08:14:19.314000+00:00</time>
      </trkpt>
      <trkpt lat="0" lon="0">
        <time>2021-02-28T08:14:19.322000+00:00</time>
      </trkpt>
      <trkpt lat="0" lon="0">
        <time>2021-02-28T08:14:19.325000+00:00</time>
      </trkpt>
      <trkpt lat="47.29592" lon="-1.40879">
        <ele>94</ele>
        <time>2021-02-28T08:14:20.278000+00:00</time>
      </trkpt>
      <trkpt lat="0" lon="0">
        <time>2021-02-28T08:14:20.286000+00:00</time>
      </trkpt>
      <trkpt lat="0" lon="0">
        <time>2021-02-28T08:14:20.290000+00:00</time>
      </trkpt>
      <trkpt lat="0" lon="0">
        <time>2021-02-28T08:14:20.293000+00:00</time>
      </trkpt>
      <trkpt lat="47.29591" lon="-1.4088">
        <ele>94</ele>
        <time>2021-02-28T08:14:21.319000+00:00</time>
      </trkpt>
      <trkpt lat="0" lon="0">
        <time>2021-02-28T08:14:21.334000+00:00</time>
      </trkpt>
      <trkpt lat="0" lon="0">
        <time>2021-02-28T08:14:21.345000+00:00</time>
      </trkpt>
      <trkpt lat="0" lon="0">
        <time>2021-02-28T08:14:21.348000+00:00</time>
      </trkpt>
      <trkpt lat="47.29591" lon="-1.40882">
        <ele>94</ele>
        <time>2021-02-28T08:14:22.318000+00:00</time>
      </trkpt>
      <trkpt lat="0" lon="0">
        <time>2021-02-28T08:14:22.329000+00:00</time>
      </trkpt>
      <trkpt lat="0" lon="0">
        <time>2021-02-28T08:14:22.334000+00:00</time>
      </trkpt>
      <trkpt lat="0" lon="0">
        <time>2021-02-28T08:14:22.338000+00:00</time>
      </trkpt>
      <trkpt lat="47.2959" lon="-1.40883">
        <ele>94</ele>
        <time>2021-02-28T08:14:23.315000+00:00</time>
      </trkpt>
      <trkpt lat="0" lon="0">
        <time>2021-02-28T08:14:23.317000+00:00</time>
      </trkpt>
      <trkpt lat="0" lon="0">
        <time>2021-02-28T08:14:23.319000+00:00</time>
      </trkpt>
      <trkpt lat="0" lon="0">
        <time>2021-02-28T08:14:23.320000+00:00</time>
      </trkpt>
      <trkpt lat="47.29589" lon="-1.40884">
        <ele>94</ele>
        <time>2021-02-28T08:14:24.321000+00:00</time>
      </trkpt>
      <trkpt lat="0" lon="0">
        <time>2021-02-28T08:14:24.332000+00:00</time>
      </trkpt>
      <trkpt lat="0" lon="0">
        <time>2021-02-28T08:14:24.341000+00:00</time>
      </trkpt>
      <trkpt lat="0" lon="0">
        <time>2021-02-28T08:14:24.346000+00:00</time>
      </trkpt>
      <trkpt lat="47.29589" lon="-1.40886">
        <ele>94</ele>
        <time>2021-02-28T08:14:25.314000+00:00</time>
      </trkpt>
      <trkpt lat="0" lon="0">
        <time>2021-02-28T08:14:25.319000+00:00</time>
      </trkpt>
      <trkpt lat="0" lon="0">
        <time>2021-02-28T08:14:25.324000+00:00</time>
      </trkpt>
      <trkpt lat="0" lon="0">
        <time>2021-02-28T08:14:25.328000+00:00</time>
      </trkpt>
      <trkpt lat="47.29588" lon="-1.40887">
        <ele>94</ele>
        <time>2021-02-28T08:14:26.280000+00:00</time>
      </trkpt>
      <trkpt lat="0" lon="0">
        <time>2021-02-28T08:14:26.282000+00:00</time>
      </trkpt>
      <trkpt lat="0" lon="0">
        <time>2021-02-28T08:14:26.284000+00:00</time>
      </trkpt>
      <trkpt lat="0" lon="0">
        <time>2021-02-28T08:14:26.285000+00:00</time>
      </trkpt>
      <trkpt lat="47.29588" lon="-1.40888">
        <ele>94</ele>
        <time>2021-02-28T08:14:27.272000+00:00</time>
      </trkpt>
      <trkpt lat="0" lon="0">
        <time>2021-02-28T08:14:27.274000+00:00</time>
      </trkpt>
      <trkpt lat="0" lon="0">
        <time>2021-02-28T08:14:27.277000+00:00</time>
      </trkpt>
      <trkpt lat="0" lon="0">
        <time>2021-02-28T08:14:27.285000+00:00</time>
      </trkpt>
      <trkpt lat="47.29594" lon="-1.40837">
        <ele>85</ele>
        <time>2021-02-28T08:14:28.327000+00:00</time>
      </trkpt>
      <trkpt lat="0" lon="0">
        <time>2021-02-28T08:14:28.333000+00:00</time>
      </trkpt>
      <trkpt lat="0" lon="0">
        <time>2021-02-28T08:14:28.336000+00:00</time>
      </trkpt>
      <trkpt lat="0" lon="0">
        <time>2021-02-28T08:14:28.337000+00:00</time>
      </trkpt>
      <trkpt lat="47.29595" lon="-1.40833">
        <ele>85</ele>
        <time>2021-02-28T08:14:29.349000+00:00</time>
      </trkpt>
      <trkpt lat="0" lon="0">
        <time>2021-02-28T08:14:29.351000+00:00</time>
      </trkpt>
      <trkpt lat="0" lon="0">
        <time>2021-02-28T08:14:29.353000+00:00</time>
      </trkpt>
      <trkpt lat="0" lon="0">
        <time>2021-02-28T08:14:29.355000+00:00</time>
      </trkpt>
      <trkpt lat="47.29598" lon="-1.4083">
        <ele>85</ele>
        <time>2021-02-28T08:14:30.285000+00:00</time>
      </trkpt>
      <trkpt lat="0" lon="0">
        <time>2021-02-28T08:14:30.295000+00:00</time>
      </trkpt>
      <trkpt lat="0" lon="0">
        <time>2021-02-28T08:14:30.300000+00:00</time>
      </trkpt>
      <trkpt lat="0" lon="0">
        <time>2021-02-28T08:14:30.303000+00:00</time>
      </trkpt>
      <trkpt lat="47.296" lon="-1.40826">
        <ele>84</ele>
        <time>2021-02-28T08:14:31.334000+00:00</time>
      </trkpt>
      <trkpt lat="0" lon="0">
        <time>2021-02-28T08:14:31.340000+00:00</time>
      </trkpt>
      <trkpt lat="0" lon="0">
        <time>2021-02-28T08:14:31.343000+00:00</time>
      </trkpt>
      <trkpt lat="0" lon="0">
        <time>2021-02-28T08:14:31.345000+00:00</time>
      </trkpt>
      <trkpt lat="47.29602" lon="-1.40821">
        <ele>84</ele>
        <time>2021-02-28T08:14:32.349000+00:00</time>
      </trkpt>
      <trkpt lat="0" lon="0">
        <time>2021-02-28T08:14:32.356000+00:00</time>
      </trkpt>
      <trkpt lat="0" lon="0">
        <time>2021-02-28T08:14:32.360000+00:00</time>
      </trkpt>
      <trkpt lat="0" lon="0">
        <time>2021-02-28T08:14:32.362000+00:00</time>
      </trkpt>
      <trkpt lat="47.29603" lon="-1.40816">
        <ele>84</ele>
        <time>2021-02-28T08:14:33.303000+00:00</time>
      </trkpt>
      <trkpt lat="0" lon="0">
        <time>2021-02-28T08:14:33.316000+00:00</time>
      </trkpt>
      <trkpt lat="0" lon="0">
        <time>2021-02-28T08:14:33.325000+00:00</time>
      </trkpt>
      <trkpt lat="0" lon="0">
        <time>2021-02-28T08:14:33.332000+00:00</time>
      </trkpt>
      <trkpt lat="47.29605" lon="-1.40811">
        <ele>85</ele>
        <time>2021-02-28T08:14:34.328000+00:00</time>
      </trkpt>
      <trkpt lat="0" lon="0">
        <time>2021-02-28T08:14:34.341000+00:00</time>
      </trkpt>
      <trkpt lat="0" lon="0">
        <time>2021-02-28T08:14:34.347000+00:00</time>
      </trkpt>
      <trkpt lat="0" lon="0">
        <time>2021-02-28T08:14:34.350000+00:00</time>
      </trkpt>
      <trkpt lat="47.29607" lon="-1.40805">
        <ele>85</ele>
        <time>2021-02-28T08:14:35.295000+00:00</time>
      </trkpt>
      <trkpt lat="0" lon="0">
        <time>2021-02-28T08:14:35.300000+00:00</time>
      </trkpt>
      <trkpt lat="0" lon="0">
        <time>2021-02-28T08:14:35.304000+00:00</time>
      </trkpt>
      <trkpt lat="0" lon="0">
        <time>2021-02-28T08:14:35.307000+00:00</time>
      </trkpt>
      <trkpt lat="47.29608" lon="-1.40799">
        <ele>85</ele>
        <time>2021-02-28T08:14:36.395000+00:00</time>
      </trkpt>
      <trkpt lat="0" lon="0">
        <time>2021-02-28T08:14:36.399000+00:00</time>
      </trkpt>
      <trkpt lat="0" lon="0">
        <time>2021-02-28T08:14:36.404000+00:00</time>
      </trkpt>
      <trkpt lat="0" lon="0">
        <time>2021-02-28T08:14:36.406000+00:00</time>
      </trkpt>
      <trkpt lat="47.2961" lon="-1.40793">
        <ele>85</ele>
        <time>2021-02-28T08:14:37.350000+00:00</time>
      </trkpt>
      <trkpt lat="0" lon="0">
        <time>2021-02-28T08:14:37.360000+00:00</time>
      </trkpt>
      <trkpt lat="0" lon="0">
        <time>2021-02-28T08:14:37.364000+00:00</time>
      </trkpt>
      <trkpt lat="0" lon="0">
        <time>2021-02-28T08:14:37.367000+00:00</time>
      </trkpt>
      <trkpt lat="47.29612" lon="-1.40786">
        <ele>85</ele>
        <time>2021-02-28T08:14:38.337000+00:00</time>
      </trkpt>
      <trkpt lat="0" lon="0">
        <time>2021-02-28T08:14:38.347000+00:00</time>
      </trkpt>
      <trkpt lat="0" lon="0">
        <time>2021-02-28T08:14:38.353000+00:00</time>
      </trkpt>
      <trkpt lat="0" lon="0">
        <time>2021-02-28T08:14:38.357000+00:00</time>
      </trkpt>
      <trkpt lat="47.29613" lon="-1.40779">
        <ele>85</ele>
        <time>2021-02-28T08:14:39.373000+00:00</time>
      </trkpt>
      <trkpt lat="0" lon="0">
        <time>2021-02-28T08:14:39.379000+00:00</time>
      </trkpt>
      <trkpt lat="0" lon="0">
        <time>2021-02-28T08:14:39.384000+00:00</time>
      </trkpt>
      <trkpt lat="0" lon="0">
        <time>2021-02-28T08:14:39.387000+00:00</time>
      </trkpt>
      <trkpt lat="47.29615" lon="-1.40773">
        <ele>85</ele>
        <time>2021-02-28T08:14:40.274000+00:00</time>
      </trkpt>
      <trkpt lat="0" lon="0">
        <time>2021-02-28T08:14:40.280000+00:00</time>
      </trkpt>
      <trkpt lat="0" lon="0">
        <time>2021-02-28T08:14:40.287000+00:00</time>
      </trkpt>
      <trkpt lat="0" lon="0">
        <time>2021-02-28T08:14:40.289000+00:00</time>
      </trkpt>
      <trkpt lat="47.29617" lon="-1.40766">
        <ele>85</ele>
        <time>2021-02-28T08:14:41.352000+00:00</time>
      </trkpt>
      <trkpt lat="0" lon="0">
        <time>2021-02-28T08:14:41.358000+00:00</time>
      </trkpt>
      <trkpt lat="0" lon="0">
        <time>2021-02-28T08:14:41.363000+00:00</time>
      </trkpt>
      <trkpt lat="0" lon="0">
        <time>2021-02-28T08:14:41.367000+00:00</time>
      </trkpt>
      <trkpt lat="47.29618" lon="-1.4076">
        <ele>85</ele>
        <time>2021-02-28T08:14:42.272000+00:00</time>
      </trkpt>
      <trkpt lat="0" lon="0">
        <time>2021-02-28T08:14:42.281000+00:00</time>
      </trkpt>
      <trkpt lat="0" lon="0">
        <time>2021-02-28T08:14:42.286000+00:00</time>
      </trkpt>
      <trkpt lat="0" lon="0">
        <time>2021-02-28T08:14:42.289000+00:00</time>
      </trkpt>
      <trkpt lat="47.29619" lon="-1.40754">
        <ele>85</ele>
        <time>2021-02-28T08:14:43.331000+00:00</time>
      </trkpt>
      <trkpt lat="0" lon="0">
        <time>2021-02-28T08:14:43.342000+00:00</time>
      </trkpt>
      <trkpt lat="0" lon="0">
        <time>2021-02-28T08:14:43.349000+00:00</time>
      </trkpt>
      <trkpt lat="0" lon="0">
        <time>2021-02-28T08:14:43.352000+00:00</time>
      </trkpt>
      <trkpt lat="47.29621" lon="-1.40748">
        <ele>85</ele>
        <time>2021-02-28T08:14:44.307000+00:00</time>
      </trkpt>
      <trkpt lat="0" lon="0">
        <time>2021-02-28T08:14:44.313000+00:00</time>
      </trkpt>
      <trkpt lat="0" lon="0">
        <time>2021-02-28T08:14:44.320000+00:00</time>
      </trkpt>
      <trkpt lat="0" lon="0">
        <time>2021-02-28T08:14:44.323000+00:00</time>
      </trkpt>
      <trkpt lat="47.29622" lon="-1.40742">
        <ele>84</ele>
        <time>2021-02-28T08:14:45.355000+00:00</time>
      </trkpt>
      <trkpt lat="0" lon="0">
        <time>2021-02-28T08:14:45.363000+00:00</time>
      </trkpt>
      <trkpt lat="0" lon="0">
        <time>2021-02-28T08:14:45.369000+00:00</time>
      </trkpt>
      <trkpt lat="0" lon="0">
        <time>2021-02-28T08:14:45.372000+00:00</time>
      </trkpt>
      <trkpt lat="47.29624" lon="-1.40736">
        <ele>84</ele>
        <time>2021-02-28T08:14:46.317000+00:00</time>
      </trkpt>
      <trkpt lat="0" lon="0">
        <time>2021-02-28T08:14:46.326000+00:00</time>
      </trkpt>
      <trkpt lat="0" lon="0">
        <time>2021-02-28T08:14:46.330000+00:00</time>
      </trkpt>
      <trkpt lat="0" lon="0">
        <time>2021-02-28T08:14:46.333000+00:00</time>
      </trkpt>
      <trkpt lat="47.29626" lon="-1.4073">
        <ele>84</ele>
        <time>2021-02-28T08:14:47.289000+00:00</time>
      </trkpt>
      <trkpt lat="0" lon="0">
        <time>2021-02-28T08:14:47.299000+00:00</time>
      </trkpt>
      <trkpt lat="0" lon="0">
        <time>2021-02-28T08:14:47.307000+00:00</time>
      </trkpt>
      <trkpt lat="0" lon="0">
        <time>2021-02-28T08:14:47.310000+00:00</time>
      </trkpt>
      <trkpt lat="47.29628" lon="-1.40724">
        <ele>84</ele>
        <time>2021-02-28T08:14:48.327000+00:00</time>
      </trkpt>
      <trkpt lat="0" lon="0">
        <time>2021-02-28T08:14:48.338000+00:00</time>
      </trkpt>
      <trkpt lat="0" lon="0">
        <time>2021-02-28T08:14:48.346000+00:00</time>
      </trkpt>
      <trkpt lat="0" lon="0">
        <time>2021-02-28T08:14:48.349000+00:00</time>
      </trkpt>
      <trkpt lat="47.29629" lon="-1.40718">
        <ele>84</ele>
        <time>2021-02-28T08:14:49.334000+00:00</time>
      </trkpt>
      <trkpt lat="0" lon="0">
        <time>2021-02-28T08:14:49.340000+00:00</time>
      </trkpt>
      <trkpt lat="0" lon="0">
        <time>2021-02-28T08:14:49.344000+00:00</time>
      </trkpt>
      <trkpt lat="0" lon="0">
        <time>2021-02-28T08:14:49.346000+00:00</time>
      </trkpt>
      <trkpt lat="47.2963" lon="-1.40713">
        <ele>84</ele>
        <time>2021-02-28T08:14:50.351000+00:00</time>
      </trkpt>
      <trkpt lat="0" lon="0">
        <time>2021-02-28T08:14:50.357000+00:00</time>
      </trkpt>
      <trkpt lat="0" lon="0">
        <time>2021-02-28T08:14:50.363000+00:00</time>
      </trkpt>
      <trkpt lat="0" lon="0">
        <time>2021-02-28T08:14:50.368000+00:00</time>
      </trkpt>
      <trkpt lat="47.29632" lon="-1.40708">
        <ele>84</ele>
        <time>2021-02-28T08:14:51.334000+00:00</time>
      </trkpt>
      <trkpt lat="0" lon="0">
        <time>2021-02-28T08:14:51.343000+00:00</time>
      </trkpt>
      <trkpt lat="0" lon="0">
        <time>2021-02-28T08:14:51.349000+00:00</time>
      </trkpt>
      <trkpt lat="0" lon="0">
        <time>2021-02-28T08:14:51.352000+00:00</time>
      </trkpt>
      <trkpt lat="47.29634" lon="-1.40703">
        <ele>84</ele>
        <time>2021-02-28T08:14:52.314000+00:00</time>
      </trkpt>
      <trkpt lat="0" lon="0">
        <time>2021-02-28T08:14:52.320000+00:00</time>
      </trkpt>
      <trkpt lat="0" lon="0">
        <time>2021-02-28T08:14:52.324000+00:00</time>
      </trkpt>
      <trkpt lat="0" lon="0">
        <time>2021-02-28T08:14:52.327000+00:00</time>
      </trkpt>
      <trkpt lat="47.29636" lon="-1.40698">
        <ele>83</ele>
        <time>2021-02-28T08:14:53.387000+00:00</time>
      </trkpt>
      <trkpt lat="0" lon="0">
        <time>2021-02-28T08:14:53.392000+00:00</time>
      </trkpt>
      <trkpt lat="0" lon="0">
        <time>2021-02-28T08:14:53.397000+00:00</time>
      </trkpt>
      <trkpt lat="0" lon="0">
        <time>2021-02-28T08:14:53.400000+00:00</time>
      </trkpt>
      <trkpt lat="47.29639" lon="-1.40693">
        <ele>83</ele>
        <time>2021-02-28T08:14:54.363000+00:00</time>
      </trkpt>
      <trkpt lat="0" lon="0">
        <time>2021-02-28T08:14:54.371000+00:00</time>
      </trkpt>
      <trkpt lat="0" lon="0">
        <time>2021-02-28T08:14:54.378000+00:00</time>
      </trkpt>
      <trkpt lat="0" lon="0">
        <time>2021-02-28T08:14:54.381000+00:00</time>
      </trkpt>
      <trkpt lat="47.29642" lon="-1.40687">
        <ele>82</ele>
        <time>2021-02-28T08:14:55.331000+00:00</time>
      </trkpt>
      <trkpt lat="0" lon="0">
        <time>2021-02-28T08:14:55.337000+00:00</time>
      </trkpt>
      <trkpt lat="0" lon="0">
        <time>2021-02-28T08:14:55.341000+00:00</time>
      </trkpt>
      <trkpt lat="0" lon="0">
        <time>2021-02-28T08:14:55.344000+00:00</time>
      </trkpt>
      <trkpt lat="47.29645" lon="-1.40681">
        <ele>81</ele>
        <time>2021-02-28T08:14:56.364000+00:00</time>
      </trkpt>
      <trkpt lat="0" lon="0">
        <time>2021-02-28T08:14:56.372000+00:00</time>
      </trkpt>
      <trkpt lat="0" lon="0">
        <time>2021-02-28T08:14:56.386000+00:00</time>
      </trkpt>
      <trkpt lat="0" lon="0">
        <time>2021-02-28T08:14:56.390000+00:00</time>
      </trkpt>
      <trkpt lat="47.29648" lon="-1.40675">
        <ele>81</ele>
        <time>2021-02-28T08:14:57.326000+00:00</time>
      </trkpt>
      <trkpt lat="0" lon="0">
        <time>2021-02-28T08:14:57.332000+00:00</time>
      </trkpt>
      <trkpt lat="0" lon="0">
        <time>2021-02-28T08:14:57.334000+00:00</time>
      </trkpt>
      <trkpt lat="0" lon="0">
        <time>2021-02-28T08:14:57.335000+00:00</time>
      </trkpt>
      <trkpt lat="47.29651" lon="-1.40668">
        <ele>81</ele>
        <time>2021-02-28T08:14:58.258000+00:00</time>
      </trkpt>
      <trkpt lat="0" lon="0">
        <time>2021-02-28T08:14:58.267000+00:00</time>
      </trkpt>
      <trkpt lat="0" lon="0">
        <time>2021-02-28T08:14:58.270000+00:00</time>
      </trkpt>
      <trkpt lat="0" lon="0">
        <time>2021-02-28T08:14:58.273000+00:00</time>
      </trkpt>
      <trkpt lat="47.29654" lon="-1.40662">
        <ele>81</ele>
        <time>2021-02-28T08:14:59.252000+00:00</time>
      </trkpt>
      <trkpt lat="0" lon="0">
        <time>2021-02-28T08:14:59.260000+00:00</time>
      </trkpt>
      <trkpt lat="0" lon="0">
        <time>2021-02-28T08:14:59.266000+00:00</time>
      </trkpt>
      <trkpt lat="0" lon="0">
        <time>2021-02-28T08:14:59.269000+00:00</time>
      </trkpt>
      <trkpt lat="47.29656" lon="-1.40655">
        <ele>80</ele>
        <time>2021-02-28T08:15:00.270000+00:00</time>
      </trkpt>
      <trkpt lat="0" lon="0">
        <time>2021-02-28T08:15:00.274000+00:00</time>
      </trkpt>
      <trkpt lat="0" lon="0">
        <time>2021-02-28T08:15:00.279000+00:00</time>
      </trkpt>
      <trkpt lat="0" lon="0">
        <time>2021-02-28T08:15:00.281000+00:00</time>
      </trkpt>
      <trkpt lat="47.29658" lon="-1.40649">
        <ele>80</ele>
        <time>2021-02-28T08:15:01.265000+00:00</time>
      </trkpt>
      <trkpt lat="0" lon="0">
        <time>2021-02-28T08:15:01.275000+00:00</time>
      </trkpt>
      <trkpt lat="0" lon="0">
        <time>2021-02-28T08:15:01.279000+00:00</time>
      </trkpt>
      <trkpt lat="0" lon="0">
        <time>2021-02-28T08:15:01.281000+00:00</time>
      </trkpt>
      <trkpt lat="47.2966" lon="-1.40642">
        <ele>79</ele>
        <time>2021-02-28T08:15:02.326000+00:00</time>
      </trkpt>
      <trkpt lat="0" lon="0">
        <time>2021-02-28T08:15:02.331000+00:00</time>
      </trkpt>
      <trkpt lat="0" lon="0">
        <time>2021-02-28T08:15:02.335000+00:00</time>
      </trkpt>
      <trkpt lat="0" lon="0">
        <time>2021-02-28T08:15:02.337000+00:00</time>
      </trkpt>
      <trkpt lat="47.29662" lon="-1.40636">
        <ele>79</ele>
        <time>2021-02-28T08:15:03.343000+00:00</time>
      </trkpt>
      <trkpt lat="0" lon="0">
        <time>2021-02-28T08:15:03.352000+00:00</time>
      </trkpt>
      <trkpt lat="0" lon="0">
        <time>2021-02-28T08:15:03.358000+00:00</time>
      </trkpt>
      <trkpt lat="0" lon="0">
        <time>2021-02-28T08:15:03.362000+00:00</time>
      </trkpt>
      <trkpt lat="47.29663" lon="-1.4063">
        <ele>78</ele>
        <time>2021-02-28T08:15:04.332000+00:00</time>
      </trkpt>
      <trkpt lat="0" lon="0">
        <time>2021-02-28T08:15:04.338000+00:00</time>
      </trkpt>
      <trkpt lat="0" lon="0">
        <time>2021-02-28T08:15:04.347000+00:00</time>
      </trkpt>
      <trkpt lat="0" lon="0">
        <time>2021-02-28T08:15:04.351000+00:00</time>
      </trkpt>
      <trkpt lat="47.29664" lon="-1.40624">
        <ele>78</ele>
        <time>2021-02-28T08:15:05.330000+00:00</time>
      </trkpt>
      <trkpt lat="0" lon="0">
        <time>2021-02-28T08:15:05.338000+00:00</time>
      </trkpt>
      <trkpt lat="0" lon="0">
        <time>2021-02-28T08:15:05.342000+00:00</time>
      </trkpt>
      <trkpt lat="0" lon="0">
        <time>2021-02-28T08:15:05.344000+00:00</time>
      </trkpt>
      <trkpt lat="47.29666" lon="-1.40618">
        <ele>77</ele>
        <time>2021-02-28T08:15:06.329000+00:00</time>
      </trkpt>
      <trkpt lat="0" lon="0">
        <time>2021-02-28T08:15:06.345000+00:00</time>
      </trkpt>
      <trkpt lat="0" lon="0">
        <time>2021-02-28T08:15:06.353000+00:00</time>
      </trkpt>
      <trkpt lat="0" lon="0">
        <time>2021-02-28T08:15:06.356000+00:00</time>
      </trkpt>
      <trkpt lat="47.29668" lon="-1.40612">
        <ele>76</ele>
        <time>2021-02-28T08:15:07.319000+00:00</time>
      </trkpt>
      <trkpt lat="0" lon="0">
        <time>2021-02-28T08:15:07.339000+00:00</time>
      </trkpt>
      <trkpt lat="0" lon="0">
        <time>2021-02-28T08:15:07.344000+00:00</time>
      </trkpt>
      <trkpt lat="0" lon="0">
        <time>2021-02-28T08:15:07.346000+00:00</time>
      </trkpt>
      <trkpt lat="47.2967" lon="-1.40606">
        <ele>76</ele>
        <time>2021-02-28T08:15:08.313000+00:00</time>
      </trkpt>
      <trkpt lat="0" lon="0">
        <time>2021-02-28T08:15:08.315000+00:00</time>
      </trkpt>
      <trkpt lat="0" lon="0">
        <time>2021-02-28T08:15:08.316000+00:00</time>
      </trkpt>
      <trkpt lat="0" lon="0">
        <time>2021-02-28T08:15:08.317000+00:00</time>
      </trkpt>
      <trkpt lat="47.29672" lon="-1.406">
        <ele>75</ele>
        <time>2021-02-28T08:15:09.328000+00:00</time>
      </trkpt>
      <trkpt lat="0" lon="0">
        <time>2021-02-28T08:15:09.339000+00:00</time>
      </trkpt>
      <trkpt lat="0" lon="0">
        <time>2021-02-28T08:15:09.343000+00:00</time>
      </trkpt>
      <trkpt lat="0" lon="0">
        <time>2021-02-28T08:15:09.346000+00:00</time>
      </trkpt>
      <trkpt lat="47.29673" lon="-1.40594">
        <ele>75</ele>
        <time>2021-02-28T08:15:10.312000+00:00</time>
      </trkpt>
      <trkpt lat="0" lon="0">
        <time>2021-02-28T08:15:10.319000+00:00</time>
      </trkpt>
      <trkpt lat="0" lon="0">
        <time>2021-02-28T08:15:10.324000+00:00</time>
      </trkpt>
      <trkpt lat="0" lon="0">
        <time>2021-02-28T08:15:10.328000+00:00</time>
      </trkpt>
      <trkpt lat="47.29675" lon="-1.40589">
        <ele>75</ele>
        <time>2021-02-28T08:15:11.345000+00:00</time>
      </trkpt>
      <trkpt lat="0" lon="0">
        <time>2021-02-28T08:15:11.355000+00:00</time>
      </trkpt>
      <trkpt lat="0" lon="0">
        <time>2021-02-28T08:15:11.360000+00:00</time>
      </trkpt>
      <trkpt lat="0" lon="0">
        <time>2021-02-28T08:15:11.362000+00:00</time>
      </trkpt>
      <trkpt lat="47.29677" lon="-1.40584">
        <ele>75</ele>
        <time>2021-02-28T08:15:12.328000+00:00</time>
      </trkpt>
      <trkpt lat="0" lon="0">
        <time>2021-02-28T08:15:12.343000+00:00</time>
      </trkpt>
      <trkpt lat="0" lon="0">
        <time>2021-02-28T08:15:12.349000+00:00</time>
      </trkpt>
      <trkpt lat="0" lon="0">
        <time>2021-02-28T08:15:12.352000+00:00</time>
      </trkpt>
      <trkpt lat="47.29678" lon="-1.40578">
        <ele>75</ele>
        <time>2021-02-28T08:15:13.325000+00:00</time>
      </trkpt>
      <trkpt lat="0" lon="0">
        <time>2021-02-28T08:15:13.331000+00:00</time>
      </trkpt>
      <trkpt lat="0" lon="0">
        <time>2021-02-28T08:15:13.336000+00:00</time>
      </trkpt>
      <trkpt lat="0" lon="0">
        <time>2021-02-28T08:15:13.340000+00:00</time>
      </trkpt>
      <trkpt lat="47.29679" lon="-1.40574">
        <ele>75</ele>
        <time>2021-02-28T08:15:14.383000+00:00</time>
      </trkpt>
      <trkpt lat="0" lon="0">
        <time>2021-02-28T08:15:14.385000+00:00</time>
      </trkpt>
      <trkpt lat="0" lon="0">
        <time>2021-02-28T08:15:14.387000+00:00</time>
      </trkpt>
      <trkpt lat="0" lon="0">
        <time>2021-02-28T08:15:14.388000+00:00</time>
      </trkpt>
      <trkpt lat="47.2968" lon="-1.40569">
        <ele>75</ele>
        <time>2021-02-28T08:15:15.289000+00:00</time>
      </trkpt>
      <trkpt lat="0" lon="0">
        <time>2021-02-28T08:15:15.295000+00:00</time>
      </trkpt>
      <trkpt lat="0" lon="0">
        <time>2021-02-28T08:15:15.300000+00:00</time>
      </trkpt>
      <trkpt lat="0" lon="0">
        <time>2021-02-28T08:15:15.303000+00:00</time>
      </trkpt>
      <trkpt lat="47.2968" lon="-1.40566">
        <ele>75</ele>
        <time>2021-02-28T08:15:16.312000+00:00</time>
      </trkpt>
      <trkpt lat="0" lon="0">
        <time>2021-02-28T08:15:16.323000+00:00</time>
      </trkpt>
      <trkpt lat="0" lon="0">
        <time>2021-02-28T08:15:16.329000+00:00</time>
      </trkpt>
      <trkpt lat="0" lon="0">
        <time>2021-02-28T08:15:16.333000+00:00</time>
      </trkpt>
      <trkpt lat="47.2968" lon="-1.40563">
        <ele>75</ele>
        <time>2021-02-28T08:15:17.293000+00:00</time>
      </trkpt>
      <trkpt lat="0" lon="0">
        <time>2021-02-28T08:15:17.297000+00:00</time>
      </trkpt>
      <trkpt lat="0" lon="0">
        <time>2021-02-28T08:15:17.302000+00:00</time>
      </trkpt>
      <trkpt lat="0" lon="0">
        <time>2021-02-28T08:15:17.304000+00:00</time>
      </trkpt>
      <trkpt lat="47.29681" lon="-1.40561">
        <ele>75</ele>
        <time>2021-02-28T08:15:18.306000+00:00</time>
      </trkpt>
      <trkpt lat="0" lon="0">
        <time>2021-02-28T08:15:18.313000+00:00</time>
      </trkpt>
      <trkpt lat="0" lon="0">
        <time>2021-02-28T08:15:18.320000+00:00</time>
      </trkpt>
      <trkpt lat="0" lon="0">
        <time>2021-02-28T08:15:18.322000+00:00</time>
      </trkpt>
      <trkpt lat="47.2968" lon="-1.40559">
        <ele>75</ele>
        <time>2021-02-28T08:15:19.351000+00:00</time>
      </trkpt>
      <trkpt lat="0" lon="0">
        <time>2021-02-28T08:15:19.358000+00:00</time>
      </trkpt>
      <trkpt lat="0" lon="0">
        <time>2021-02-28T08:15:19.363000+00:00</time>
      </trkpt>
      <trkpt lat="0" lon="0">
        <time>2021-02-28T08:15:19.366000+00:00</time>
      </trkpt>
      <trkpt lat="47.2968" lon="-1.40558">
        <ele>75</ele>
        <time>2021-02-28T08:15:20.277000+00:00</time>
      </trkpt>
      <trkpt lat="0" lon="0">
        <time>2021-02-28T08:15:20.284000+00:00</time>
      </trkpt>
      <trkpt lat="0" lon="0">
        <time>2021-02-28T08:15:20.291000+00:00</time>
      </trkpt>
      <trkpt lat="0" lon="0">
        <time>2021-02-28T08:15:20.294000+00:00</time>
      </trkpt>
      <trkpt lat="47.29679" lon="-1.40557">
        <ele>75</ele>
        <time>2021-02-28T08:15:21.263000+00:00</time>
      </trkpt>
      <trkpt lat="0" lon="0">
        <time>2021-02-28T08:15:21.270000+00:00</time>
      </trkpt>
      <trkpt lat="0" lon="0">
        <time>2021-02-28T08:15:21.277000+00:00</time>
      </trkpt>
      <trkpt lat="0" lon="0">
        <time>2021-02-28T08:15:21.280000+00:00</time>
      </trkpt>
      <trkpt lat="47.29677" lon="-1.40557">
        <ele>74</ele>
        <time>2021-02-28T08:15:22.255000+00:00</time>
      </trkpt>
      <trkpt lat="0" lon="0">
        <time>2021-02-28T08:15:22.261000+00:00</time>
      </trkpt>
      <trkpt lat="0" lon="0">
        <time>2021-02-28T08:15:22.265000+00:00</time>
      </trkpt>
      <trkpt lat="0" lon="0">
        <time>2021-02-28T08:15:22.267000+00:00</time>
      </trkpt>
      <trkpt lat="47.29676" lon="-1.40556">
        <ele>74</ele>
        <time>2021-02-28T08:15:23.243000+00:00</time>
      </trkpt>
      <trkpt lat="0" lon="0">
        <time>2021-02-28T08:15:23.252000+00:00</time>
      </trkpt>
      <trkpt lat="0" lon="0">
        <time>2021-02-28T08:15:23.254000+00:00</time>
      </trkpt>
      <trkpt lat="0" lon="0">
        <time>2021-02-28T08:15:23.255000+00:00</time>
      </trkpt>
      <trkpt lat="47.29674" lon="-1.40555">
        <ele>74</ele>
        <time>2021-02-28T08:15:24.310000+00:00</time>
      </trkpt>
      <trkpt lat="0" lon="0">
        <time>2021-02-28T08:15:24.322000+00:00</time>
      </trkpt>
      <trkpt lat="0" lon="0">
        <time>2021-02-28T08:15:24.329000+00:00</time>
      </trkpt>
      <trkpt lat="0" lon="0">
        <time>2021-02-28T08:15:24.331000+00:00</time>
      </trkpt>
      <trkpt lat="47.29673" lon="-1.40555">
        <ele>74</ele>
        <time>2021-02-28T08:15:25.315000+00:00</time>
      </trkpt>
      <trkpt lat="0" lon="0">
        <time>2021-02-28T08:15:25.323000+00:00</time>
      </trkpt>
      <trkpt lat="0" lon="0">
        <time>2021-02-28T08:15:25.327000+00:00</time>
      </trkpt>
      <trkpt lat="0" lon="0">
        <time>2021-02-28T08:15:25.330000+00:00</time>
      </trkpt>
      <trkpt lat="47.29671" lon="-1.40554">
        <ele>74</ele>
        <time>2021-02-28T08:15:26.326000+00:00</time>
      </trkpt>
      <trkpt lat="0" lon="0">
        <time>2021-02-28T08:15:26.334000+00:00</time>
      </trkpt>
      <trkpt lat="0" lon="0">
        <time>2021-02-28T08:15:26.342000+00:00</time>
      </trkpt>
      <trkpt lat="0" lon="0">
        <time>2021-02-28T08:15:26.345000+00:00</time>
      </trkpt>
      <trkpt lat="47.2967" lon="-1.40553">
        <ele>74</ele>
        <time>2021-02-28T08:15:27.364000+00:00</time>
      </trkpt>
      <trkpt lat="0" lon="0">
        <time>2021-02-28T08:15:27.372000+00:00</time>
      </trkpt>
      <trkpt lat="0" lon="0">
        <time>2021-02-28T08:15:27.378000+00:00</time>
      </trkpt>
      <trkpt lat="0" lon="0">
        <time>2021-02-28T08:15:27.381000+00:00</time>
      </trkpt>
      <trkpt lat="47.29669" lon="-1.40553">
        <ele>74</ele>
        <time>2021-02-28T08:15:28.313000+00:00</time>
      </trkpt>
      <trkpt lat="0" lon="0">
        <time>2021-02-28T08:15:28.326000+00:00</time>
      </trkpt>
      <trkpt lat="0" lon="0">
        <time>2021-02-28T08:15:28.331000+00:00</time>
      </trkpt>
      <trkpt lat="0" lon="0">
        <time>2021-02-28T08:15:28.333000+00:00</time>
      </trkpt>
      <trkpt lat="47.29668" lon="-1.40551">
        <ele>73</ele>
        <time>2021-02-28T08:15:29.374000+00:00</time>
      </trkpt>
      <trkpt lat="0" lon="0">
        <time>2021-02-28T08:15:29.387000+00:00</time>
      </trkpt>
      <trkpt lat="0" lon="0">
        <time>2021-02-28T08:15:29.392000+00:00</time>
      </trkpt>
      <trkpt lat="0" lon="0">
        <time>2021-02-28T08:15:29.394000+00:00</time>
      </trkpt>
      <trkpt lat="47.29668" lon="-1.4055">
        <ele>73</ele>
        <time>2021-02-28T08:15:30.270000+00:00</time>
      </trkpt>
      <trkpt lat="0" lon="0">
        <time>2021-02-28T08:15:30.272000+00:00</time>
      </trkpt>
      <trkpt lat="0" lon="0">
        <time>2021-02-28T08:15:30.278000+00:00</time>
      </trkpt>
      <trkpt lat="0" lon="0">
        <time>2021-02-28T08:15:30.279000+00:00</time>
      </trkpt>
      <trkpt lat="47.29667" lon="-1.40549">
        <ele>74</ele>
        <time>2021-02-28T08:15:31.349000+00:00</time>
      </trkpt>
      <trkpt lat="0" lon="0">
        <time>2021-02-28T08:15:31.360000+00:00</time>
      </trkpt>
      <trkpt lat="0" lon="0">
        <time>2021-02-28T08:15:31.367000+00:00</time>
      </trkpt>
      <trkpt lat="0" lon="0">
        <time>2021-02-28T08:15:31.370000+00:00</time>
      </trkpt>
      <trkpt lat="47.29666" lon="-1.40547">
        <ele>74</ele>
        <time>2021-02-28T08:15:32.334000+00:00</time>
      </trkpt>
      <trkpt lat="0" lon="0">
        <time>2021-02-28T08:15:32.340000+00:00</time>
      </trkpt>
      <trkpt lat="0" lon="0">
        <time>2021-02-28T08:15:32.345000+00:00</time>
      </trkpt>
      <trkpt lat="0" lon="0">
        <time>2021-02-28T08:15:32.348000+00:00</time>
      </trkpt>
      <trkpt lat="47.29666" lon="-1.40546">
        <ele>74</ele>
        <time>2021-02-28T08:15:33.313000+00:00</time>
      </trkpt>
      <trkpt lat="0" lon="0">
        <time>2021-02-28T08:15:33.326000+00:00</time>
      </trkpt>
      <trkpt lat="0" lon="0">
        <time>2021-02-28T08:15:33.331000+00:00</time>
      </trkpt>
      <trkpt lat="0" lon="0">
        <time>2021-02-28T08:15:33.335000+00:00</time>
      </trkpt>
      <trkpt lat="47.29665" lon="-1.40546">
        <ele>74</ele>
        <time>2021-02-28T08:15:34.343000+00:00</time>
      </trkpt>
      <trkpt lat="0" lon="0">
        <time>2021-02-28T08:15:34.350000+00:00</time>
      </trkpt>
      <trkpt lat="0" lon="0">
        <time>2021-02-28T08:15:34.354000+00:00</time>
      </trkpt>
      <trkpt lat="0" lon="0">
        <time>2021-02-28T08:15:34.356000+00:00</time>
      </trkpt>
      <trkpt lat="47.29665" lon="-1.40545">
        <ele>74</ele>
        <time>2021-02-28T08:15:35.295000+00:00</time>
      </trkpt>
      <trkpt lat="0" lon="0">
        <time>2021-02-28T08:15:35.304000+00:00</time>
      </trkpt>
      <trkpt lat="0" lon="0">
        <time>2021-02-28T08:15:35.309000+00:00</time>
      </trkpt>
      <trkpt lat="0" lon="0">
        <time>2021-02-28T08:15:35.311000+00:00</time>
      </trkpt>
      <trkpt lat="47.29664" lon="-1.40544">
        <ele>74</ele>
        <time>2021-02-28T08:15:36.293000+00:00</time>
      </trkpt>
      <trkpt lat="0" lon="0">
        <time>2021-02-28T08:15:36.301000+00:00</time>
      </trkpt>
      <trkpt lat="0" lon="0">
        <time>2021-02-28T08:15:36.307000+00:00</time>
      </trkpt>
      <trkpt lat="0" lon="0">
        <time>2021-02-28T08:15:36.310000+00:00</time>
      </trkpt>
      <trkpt lat="47.29664" lon="-1.40543">
        <ele>74</ele>
        <time>2021-02-28T08:15:37.316000+00:00</time>
      </trkpt>
      <trkpt lat="0" lon="0">
        <time>2021-02-28T08:15:37.322000+00:00</time>
      </trkpt>
      <trkpt lat="0" lon="0">
        <time>2021-02-28T08:15:37.327000+00:00</time>
      </trkpt>
      <trkpt lat="0" lon="0">
        <time>2021-02-28T08:15:37.329000+00:00</time>
      </trkpt>
      <trkpt lat="47.29663" lon="-1.40542">
        <ele>74</ele>
        <time>2021-02-28T08:15:38.311000+00:00</time>
      </trkpt>
      <trkpt lat="0" lon="0">
        <time>2021-02-28T08:15:38.323000+00:00</time>
      </trkpt>
      <trkpt lat="0" lon="0">
        <time>2021-02-28T08:15:38.334000+00:00</time>
      </trkpt>
      <trkpt lat="0" lon="0">
        <time>2021-02-28T08:15:38.337000+00:00</time>
      </trkpt>
      <trkpt lat="47.29663" lon="-1.40541">
        <ele>74</ele>
        <time>2021-02-28T08:15:39.358000+00:00</time>
      </trkpt>
      <trkpt lat="0" lon="0">
        <time>2021-02-28T08:15:39.367000+00:00</time>
      </trkpt>
      <trkpt lat="0" lon="0">
        <time>2021-02-28T08:15:39.373000+00:00</time>
      </trkpt>
      <trkpt lat="0" lon="0">
        <time>2021-02-28T08:15:39.376000+00:00</time>
      </trkpt>
      <trkpt lat="47.29662" lon="-1.4054">
        <ele>74</ele>
        <time>2021-02-28T08:15:40.364000+00:00</time>
      </trkpt>
      <trkpt lat="0" lon="0">
        <time>2021-02-28T08:15:40.376000+00:00</time>
      </trkpt>
      <trkpt lat="0" lon="0">
        <time>2021-02-28T08:15:40.382000+00:00</time>
      </trkpt>
      <trkpt lat="0" lon="0">
        <time>2021-02-28T08:15:40.384000+00:00</time>
      </trkpt>
      <trkpt lat="47.29661" lon="-1.40539">
        <ele>75</ele>
        <time>2021-02-28T08:15:41.317000+00:00</time>
      </trkpt>
      <trkpt lat="0" lon="0">
        <time>2021-02-28T08:15:41.322000+00:00</time>
      </trkpt>
      <trkpt lat="0" lon="0">
        <time>2021-02-28T08:15:41.327000+00:00</time>
      </trkpt>
      <trkpt lat="0" lon="0">
        <time>2021-02-28T08:15:41.329000+00:00</time>
      </trkpt>
      <trkpt lat="47.2966" lon="-1.40537">
        <ele>75</ele>
        <time>2021-02-28T08:15:42.296000+00:00</time>
      </trkpt>
      <trkpt lat="0" lon="0">
        <time>2021-02-28T08:15:42.304000+00:00</time>
      </trkpt>
      <trkpt lat="0" lon="0">
        <time>2021-02-28T08:15:42.308000+00:00</time>
      </trkpt>
      <trkpt lat="0" lon="0">
        <time>2021-02-28T08:15:42.312000+00:00</time>
      </trkpt>
      <trkpt lat="47.2966" lon="-1.40535">
        <ele>75</ele>
        <time>2021-02-28T08:15:43.349000+00:00</time>
      </trkpt>
      <trkpt lat="0" lon="0">
        <time>2021-02-28T08:15:43.357000+00:00</time>
      </trkpt>
      <trkpt lat="0" lon="0">
        <time>2021-02-28T08:15:43.366000+00:00</time>
      </trkpt>
      <trkpt lat="0" lon="0">
        <time>2021-02-28T08:15:43.368000+00:00</time>
      </trkpt>
      <trkpt lat="47.29659" lon="-1.40533">
        <ele>74</ele>
        <time>2021-02-28T08:15:44.215000+00:00</time>
      </trkpt>
      <trkpt lat="0" lon="0">
        <time>2021-02-28T08:15:44.216000+00:00</time>
      </trkpt>
      <trkpt lat="0" lon="0">
        <time>2021-02-28T08:15:44.218000+00:00</time>
      </trkpt>
      <trkpt lat="0" lon="0">
        <time>2021-02-28T08:15:44.219000+00:00</time>
      </trkpt>
      <trkpt lat="47.29658" lon="-1.4053">
        <ele>74</ele>
        <time>2021-02-28T08:15:45.295000+00:00</time>
      </trkpt>
      <trkpt lat="0" lon="0">
        <time>2021-02-28T08:15:45.301000+00:00</time>
      </trkpt>
      <trkpt lat="0" lon="0">
        <time>2021-02-28T08:15:45.307000+00:00</time>
      </trkpt>
      <trkpt lat="0" lon="0">
        <time>2021-02-28T08:15:45.310000+00:00</time>
      </trkpt>
      <trkpt lat="47.29657" lon="-1.40528">
        <ele>74</ele>
        <time>2021-02-28T08:15:46.375000+00:00</time>
      </trkpt>
      <trkpt lat="0" lon="0">
        <time>2021-02-28T08:15:46.383000+00:00</time>
      </trkpt>
      <trkpt lat="0" lon="0">
        <time>2021-02-28T08:15:46.395000+00:00</time>
      </trkpt>
      <trkpt lat="0" lon="0">
        <time>2021-02-28T08:15:46.399000+00:00</time>
      </trkpt>
      <trkpt lat="47.29657" lon="-1.40525">
        <ele>73</ele>
        <time>2021-02-28T08:15:47.319000+00:00</time>
      </trkpt>
      <trkpt lat="0" lon="0">
        <time>2021-02-28T08:15:47.322000+00:00</time>
      </trkpt>
      <trkpt lat="0" lon="0">
        <time>2021-02-28T08:15:47.324000+00:00</time>
      </trkpt>
      <trkpt lat="0" lon="0">
        <time>2021-02-28T08:15:47.326000+00:00</time>
      </trkpt>
      <trkpt lat="47.29656" lon="-1.40523">
        <ele>74</ele>
        <time>2021-02-28T08:15:48.313000+00:00</time>
      </trkpt>
      <trkpt lat="0" lon="0">
        <time>2021-02-28T08:15:48.320000+00:00</time>
      </trkpt>
      <trkpt lat="0" lon="0">
        <time>2021-02-28T08:15:48.326000+00:00</time>
      </trkpt>
      <trkpt lat="0" lon="0">
        <time>2021-02-28T08:15:48.329000+00:00</time>
      </trkpt>
      <trkpt lat="47.29656" lon="-1.40521">
        <ele>73</ele>
        <time>2021-02-28T08:15:49.314000+00:00</time>
      </trkpt>
      <trkpt lat="0" lon="0">
        <time>2021-02-28T08:15:49.323000+00:00</time>
      </trkpt>
      <trkpt lat="0" lon="0">
        <time>2021-02-28T08:15:49.326000+00:00</time>
      </trkpt>
      <trkpt lat="0" lon="0">
        <time>2021-02-28T08:15:49.327000+00:00</time>
      </trkpt>
      <trkpt lat="47.29656" lon="-1.40519">
        <ele>73</ele>
        <time>2021-02-28T08:15:50.246000+00:00</time>
      </trkpt>
      <trkpt lat="0" lon="0">
        <time>2021-02-28T08:15:50.248000+00:00</time>
      </trkpt>
      <trkpt lat="0" lon="0">
        <time>2021-02-28T08:15:50.249000+00:00</time>
      </trkpt>
      <trkpt lat="0" lon="0">
        <time>2021-02-28T08:15:50.250000+00:00</time>
      </trkpt>
      <trkpt lat="47.29657" lon="-1.40517">
        <ele>74</ele>
        <time>2021-02-28T08:15:51.296000+00:00</time>
      </trkpt>
      <trkpt lat="0" lon="0">
        <time>2021-02-28T08:15:51.298000+00:00</time>
      </trkpt>
      <trkpt lat="0" lon="0">
        <time>2021-02-28T08:15:51.299000+00:00</time>
      </trkpt>
      <trkpt lat="0" lon="0">
        <time>2021-02-28T08:15:51.300000+00:00</time>
      </trkpt>
      <trkpt lat="47.29657" lon="-1.40516">
        <ele>74</ele>
        <time>2021-02-28T08:15:52.317000+00:00</time>
      </trkpt>
      <trkpt lat="0" lon="0">
        <time>2021-02-28T08:15:52.322000+00:00</time>
      </trkpt>
      <trkpt lat="0" lon="0">
        <time>2021-02-28T08:15:52.328000+00:00</time>
      </trkpt>
      <trkpt lat="0" lon="0">
        <time>2021-02-28T08:15:52.331000+00:00</time>
      </trkpt>
      <trkpt lat="47.29658" lon="-1.40515">
        <ele>74</ele>
        <time>2021-02-28T08:15:53.259000+00:00</time>
      </trkpt>
      <trkpt lat="0" lon="0">
        <time>2021-02-28T08:15:53.267000+00:00</time>
      </trkpt>
      <trkpt lat="0" lon="0">
        <time>2021-02-28T08:15:53.271000+00:00</time>
      </trkpt>
      <trkpt lat="0" lon="0">
        <time>2021-02-28T08:15:53.272000+00:00</time>
      </trkpt>
      <trkpt lat="47.29659" lon="-1.40514">
        <ele>73</ele>
        <time>2021-02-28T08:15:54.302000+00:00</time>
      </trkpt>
      <trkpt lat="0" lon="0">
        <time>2021-02-28T08:15:54.307000+00:00</time>
      </trkpt>
      <trkpt lat="0" lon="0">
        <time>2021-02-28T08:15:54.311000+00:00</time>
      </trkpt>
      <trkpt lat="0" lon="0">
        <time>2021-02-28T08:15:54.314000+00:00</time>
      </trkpt>
      <trkpt lat="47.29659" lon="-1.40513">
        <ele>73</ele>
        <time>2021-02-28T08:15:55.302000+00:00</time>
      </trkpt>
      <trkpt lat="0" lon="0">
        <time>2021-02-28T08:15:55.310000+00:00</time>
      </trkpt>
      <trkpt lat="0" lon="0">
        <time>2021-02-28T08:15:55.317000+00:00</time>
      </trkpt>
      <trkpt lat="0" lon="0">
        <time>2021-02-28T08:15:55.318000+00:00</time>
      </trkpt>
      <trkpt lat="47.2966" lon="-1.40512">
        <ele>73</ele>
        <time>2021-02-28T08:15:56.275000+00:00</time>
      </trkpt>
      <trkpt lat="0" lon="0">
        <time>2021-02-28T08:15:56.281000+00:00</time>
      </trkpt>
      <trkpt lat="0" lon="0">
        <time>2021-02-28T08:15:56.286000+00:00</time>
      </trkpt>
      <trkpt lat="0" lon="0">
        <time>2021-02-28T08:15:56.289000+00:00</time>
      </trkpt>
      <trkpt lat="47.2966" lon="-1.40511">
        <ele>73</ele>
        <time>2021-02-28T08:15:57.286000+00:00</time>
      </trkpt>
      <trkpt lat="0" lon="0">
        <time>2021-02-28T08:15:57.292000+00:00</time>
      </trkpt>
      <trkpt lat="0" lon="0">
        <time>2021-02-28T08:15:57.299000+00:00</time>
      </trkpt>
      <trkpt lat="47.29661" lon="-1.4051">
        <ele>73</ele>
        <time>2021-02-28T08:15:58.298000+00:00</time>
      </trkpt>
      <trkpt lat="0" lon="0">
        <time>2021-02-28T08:15:58.312000+00:00</time>
      </trkpt>
      <trkpt lat="0" lon="0">
        <time>2021-02-28T08:15:58.317000+00:00</time>
      </trkpt>
      <trkpt lat="0" lon="0">
        <time>2021-02-28T08:15:58.320000+00:00</time>
      </trkpt>
      <trkpt lat="47.29661" lon="-1.40509">
        <ele>72</ele>
        <time>2021-02-28T08:15:59.303000+00:00</time>
      </trkpt>
      <trkpt lat="0" lon="0">
        <time>2021-02-28T08:15:59.308000+00:00</time>
      </trkpt>
      <trkpt lat="0" lon="0">
        <time>2021-02-28T08:15:59.313000+00:00</time>
      </trkpt>
      <trkpt lat="0" lon="0">
        <time>2021-02-28T08:15:59.315000+00:00</time>
      </trkpt>
      <trkpt lat="47.29662" lon="-1.40508">
        <ele>72</ele>
        <time>2021-02-28T08:16:00.272000+00:00</time>
      </trkpt>
      <trkpt lat="0" lon="0">
        <time>2021-02-28T08:16:00.279000+00:00</time>
      </trkpt>
      <trkpt lat="0" lon="0">
        <time>2021-02-28T08:16:00.283000+00:00</time>
      </trkpt>
      <trkpt lat="0" lon="0">
        <time>2021-02-28T08:16:00.286000+00:00</time>
      </trkpt>
      <trkpt lat="47.29663" lon="-1.40508">
        <ele>72</ele>
        <time>2021-02-28T08:16:01.286000+00:00</time>
      </trkpt>
      <trkpt lat="0" lon="0">
        <time>2021-02-28T08:16:01.296000+00:00</time>
      </trkpt>
      <trkpt lat="0" lon="0">
        <time>2021-02-28T08:16:01.301000+00:00</time>
      </trkpt>
      <trkpt lat="0" lon="0">
        <time>2021-02-28T08:16:01.303000+00:00</time>
      </trkpt>
      <trkpt lat="47.29664" lon="-1.40507">
        <ele>72</ele>
        <time>2021-02-28T08:16:02.282000+00:00</time>
      </trkpt>
      <trkpt lat="0" lon="0">
        <time>2021-02-28T08:16:02.298000+00:00</time>
      </trkpt>
      <trkpt lat="0" lon="0">
        <time>2021-02-28T08:16:02.302000+00:00</time>
      </trkpt>
      <trkpt lat="0" lon="0">
        <time>2021-02-28T08:16:02.305000+00:00</time>
      </trkpt>
      <trkpt lat="47.29665" lon="-1.40507">
        <ele>71</ele>
        <time>2021-02-28T08:16:03.282000+00:00</time>
      </trkpt>
      <trkpt lat="0" lon="0">
        <time>2021-02-28T08:16:03.288000+00:00</time>
      </trkpt>
      <trkpt lat="0" lon="0">
        <time>2021-02-28T08:16:03.292000+00:00</time>
      </trkpt>
      <trkpt lat="0" lon="0">
        <time>2021-02-28T08:16:03.300000+00:00</time>
      </trkpt>
      <trkpt lat="47.2968" lon="-1.4049">
        <ele>64</ele>
        <time>2021-02-28T08:16:04.279000+00:00</time>
      </trkpt>
      <trkpt lat="0" lon="0">
        <time>2021-02-28T08:16:04.288000+00:00</time>
      </trkpt>
      <trkpt lat="0" lon="0">
        <time>2021-02-28T08:16:04.292000+00:00</time>
      </trkpt>
      <trkpt lat="0" lon="0">
        <time>2021-02-28T08:16:04.295000+00:00</time>
      </trkpt>
      <trkpt lat="47.29682" lon="-1.40487">
        <ele>64</ele>
        <time>2021-02-28T08:16:05.281000+00:00</time>
      </trkpt>
      <trkpt lat="0" lon="0">
        <time>2021-02-28T08:16:05.283000+00:00</time>
      </trkpt>
      <trkpt lat="0" lon="0">
        <time>2021-02-28T08:16:05.285000+00:00</time>
      </trkpt>
      <trkpt lat="0" lon="0">
        <time>2021-02-28T08:16:05.286000+00:00</time>
      </trkpt>
      <trkpt lat="47.29684" lon="-1.40484">
        <ele>64</ele>
        <time>2021-02-28T08:16:06.298000+00:00</time>
      </trkpt>
      <trkpt lat="0" lon="0">
        <time>2021-02-28T08:16:06.300000+00:00</time>
      </trkpt>
      <trkpt lat="0" lon="0">
        <time>2021-02-28T08:16:06.304000+00:00</time>
      </trkpt>
      <trkpt lat="47.29687" lon="-1.40481">
        <ele>64</ele>
        <time>2021-02-28T08:16:07.271000+00:00</time>
      </trkpt>
      <trkpt lat="0" lon="0">
        <time>2021-02-28T08:16:07.277000+00:00</time>
      </trkpt>
      <trkpt lat="0" lon="0">
        <time>2021-02-28T08:16:07.283000+00:00</time>
      </trkpt>
      <trkpt lat="0" lon="0">
        <time>2021-02-28T08:16:07.285000+00:00</time>
      </trkpt>
      <trkpt lat="47.29689" lon="-1.40478">
        <ele>64</ele>
        <time>2021-02-28T08:16:08.235000+00:00</time>
      </trkpt>
      <trkpt lat="0" lon="0">
        <time>2021-02-28T08:16:08.241000+00:00</time>
      </trkpt>
      <trkpt lat="0" lon="0">
        <time>2021-02-28T08:16:08.247000+00:00</time>
      </trkpt>
      <trkpt lat="0" lon="0">
        <time>2021-02-28T08:16:08.249000+00:00</time>
      </trkpt>
      <trkpt lat="47.29691" lon="-1.40475">
        <ele>64</ele>
        <time>2021-02-28T08:16:09.249000+00:00</time>
      </trkpt>
      <trkpt lat="0" lon="0">
        <time>2021-02-28T08:16:09.253000+00:00</time>
      </trkpt>
      <trkpt lat="0" lon="0">
        <time>2021-02-28T08:16:09.258000+00:00</time>
      </trkpt>
      <trkpt lat="0" lon="0">
        <time>2021-02-28T08:16:09.259000+00:00</time>
      </trkpt>
      <trkpt lat="47.29693" lon="-1.40472">
        <ele>64</ele>
        <time>2021-02-28T08:16:10.301000+00:00</time>
      </trkpt>
      <trkpt lat="0" lon="0">
        <time>2021-02-28T08:16:10.313000+00:00</time>
      </trkpt>
      <trkpt lat="0" lon="0">
        <time>2021-02-28T08:16:10.317000+00:00</time>
      </trkpt>
      <trkpt lat="0" lon="0">
        <time>2021-02-28T08:16:10.320000+00:00</time>
      </trkpt>
      <trkpt lat="47.29695" lon="-1.4047">
        <ele>65</ele>
        <time>2021-02-28T08:16:11.302000+00:00</time>
      </trkpt>
      <trkpt lat="0" lon="0">
        <time>2021-02-28T08:16:11.308000+00:00</time>
      </trkpt>
      <trkpt lat="0" lon="0">
        <time>2021-02-28T08:16:11.316000+00:00</time>
      </trkpt>
      <trkpt lat="0" lon="0">
        <time>2021-02-28T08:16:11.319000+00:00</time>
      </trkpt>
      <trkpt lat="47.29697" lon="-1.40467">
        <ele>66</ele>
        <time>2021-02-28T08:16:12.296000+00:00</time>
      </trkpt>
      <trkpt lat="0" lon="0">
        <time>2021-02-28T08:16:12.304000+00:00</time>
      </trkpt>
      <trkpt lat="0" lon="0">
        <time>2021-02-28T08:16:12.311000+00:00</time>
      </trkpt>
      <trkpt lat="0" lon="0">
        <time>2021-02-28T08:16:12.313000+00:00</time>
      </trkpt>
      <trkpt lat="47.29699" lon="-1.40464">
        <ele>67</ele>
        <time>2021-02-28T08:16:13.305000+00:00</time>
      </trkpt>
      <trkpt lat="0" lon="0">
        <time>2021-02-28T08:16:13.316000+00:00</time>
      </trkpt>
      <trkpt lat="0" lon="0">
        <time>2021-02-28T08:16:13.321000+00:00</time>
      </trkpt>
      <trkpt lat="0" lon="0">
        <time>2021-02-28T08:16:13.323000+00:00</time>
      </trkpt>
      <trkpt lat="47.297" lon="-1.40462">
        <ele>68</ele>
        <time>2021-02-28T08:16:14.290000+00:00</time>
      </trkpt>
      <trkpt lat="0" lon="0">
        <time>2021-02-28T08:16:14.298000+00:00</time>
      </trkpt>
      <trkpt lat="0" lon="0">
        <time>2021-02-28T08:16:14.303000+00:00</time>
      </trkpt>
      <trkpt lat="0" lon="0">
        <time>2021-02-28T08:16:14.305000+00:00</time>
      </trkpt>
      <trkpt lat="47.29702" lon="-1.40459">
        <ele>68</ele>
        <time>2021-02-28T08:16:15.300000+00:00</time>
      </trkpt>
      <trkpt lat="0" lon="0">
        <time>2021-02-28T08:16:15.307000+00:00</time>
      </trkpt>
      <trkpt lat="0" lon="0">
        <time>2021-02-28T08:16:15.309000+00:00</time>
      </trkpt>
      <trkpt lat="0" lon="0">
        <time>2021-02-28T08:16:15.310000+00:00</time>
      </trkpt>
      <trkpt lat="47.29704" lon="-1.40457">
        <ele>68</ele>
        <time>2021-02-28T08:16:16.316000+00:00</time>
      </trkpt>
      <trkpt lat="0" lon="0">
        <time>2021-02-28T08:16:16.321000+00:00</time>
      </trkpt>
      <trkpt lat="0" lon="0">
        <time>2021-02-28T08:16:16.327000+00:00</time>
      </trkpt>
      <trkpt lat="0" lon="0">
        <time>2021-02-28T08:16:16.330000+00:00</time>
      </trkpt>
      <trkpt lat="47.29706" lon="-1.40454">
        <ele>68</ele>
        <time>2021-02-28T08:16:17.296000+00:00</time>
      </trkpt>
      <trkpt lat="0" lon="0">
        <time>2021-02-28T08:16:17.301000+00:00</time>
      </trkpt>
      <trkpt lat="0" lon="0">
        <time>2021-02-28T08:16:17.305000+00:00</time>
      </trkpt>
      <trkpt lat="0" lon="0">
        <time>2021-02-28T08:16:17.307000+00:00</time>
      </trkpt>
      <trkpt lat="47.29708" lon="-1.40452">
        <ele>69</ele>
        <time>2021-02-28T08:16:18.280000+00:00</time>
      </trkpt>
      <trkpt lat="0" lon="0">
        <time>2021-02-28T08:16:18.289000+00:00</time>
      </trkpt>
      <trkpt lat="0" lon="0">
        <time>2021-02-28T08:16:18.295000+00:00</time>
      </trkpt>
      <trkpt lat="0" lon="0">
        <time>2021-02-28T08:16:18.297000+00:00</time>
      </trkpt>
      <trkpt lat="47.2971" lon="-1.4045">
        <ele>69</ele>
        <time>2021-02-28T08:16:19.295000+00:00</time>
      </trkpt>
      <trkpt lat="0" lon="0">
        <time>2021-02-28T08:16:19.302000+00:00</time>
      </trkpt>
      <trkpt lat="0" lon="0">
        <time>2021-02-28T08:16:19.307000+00:00</time>
      </trkpt>
      <trkpt lat="0" lon="0">
        <time>2021-02-28T08:16:19.309000+00:00</time>
      </trkpt>
      <trkpt lat="47.29713" lon="-1.40447">
        <ele>69</ele>
        <time>2021-02-28T08:16:20.307000+00:00</time>
      </trkpt>
      <trkpt lat="0" lon="0">
        <time>2021-02-28T08:16:20.311000+00:00</time>
      </trkpt>
      <trkpt lat="0" lon="0">
        <time>2021-02-28T08:16:20.318000+00:00</time>
      </trkpt>
      <trkpt lat="0" lon="0">
        <time>2021-02-28T08:16:20.321000+00:00</time>
      </trkpt>
      <trkpt lat="47.29715" lon="-1.40445">
        <ele>69</ele>
        <time>2021-02-28T08:16:21.283000+00:00</time>
      </trkpt>
      <trkpt lat="0" lon="0">
        <time>2021-02-28T08:16:21.291000+00:00</time>
      </trkpt>
      <trkpt lat="0" lon="0">
        <time>2021-02-28T08:16:21.295000+00:00</time>
      </trkpt>
      <trkpt lat="0" lon="0">
        <time>2021-02-28T08:16:21.296000+00:00</time>
      </trkpt>
      <trkpt lat="47.29718" lon="-1.40443">
        <ele>70</ele>
        <time>2021-02-28T08:16:22.310000+00:00</time>
      </trkpt>
      <trkpt lat="0" lon="0">
        <time>2021-02-28T08:16:22.317000+00:00</time>
      </trkpt>
      <trkpt lat="0" lon="0">
        <time>2021-02-28T08:16:22.323000+00:00</time>
      </trkpt>
      <trkpt lat="0" lon="0">
        <time>2021-02-28T08:16:22.325000+00:00</time>
      </trkpt>
      <trkpt lat="47.29721" lon="-1.40442">
        <ele>70</ele>
        <time>2021-02-28T08:16:23.222000+00:00</time>
      </trkpt>
      <trkpt lat="0" lon="0">
        <time>2021-02-28T08:16:23.224000+00:00</time>
      </trkpt>
      <trkpt lat="0" lon="0">
        <time>2021-02-28T08:16:23.225000+00:00</time>
      </trkpt>
      <trkpt lat="0" lon="0">
        <time>2021-02-28T08:16:23.226000+00:00</time>
      </trkpt>
      <trkpt lat="47.29723" lon="-1.4044">
        <ele>70</ele>
        <time>2021-02-28T08:16:24.268000+00:00</time>
      </trkpt>
      <trkpt lat="0" lon="0">
        <time>2021-02-28T08:16:24.279000+00:00</time>
      </trkpt>
      <trkpt lat="0" lon="0">
        <time>2021-02-28T08:16:24.284000+00:00</time>
      </trkpt>
      <trkpt lat="0" lon="0">
        <time>2021-02-28T08:16:24.285000+00:00</time>
      </trkpt>
      <trkpt lat="47.29726" lon="-1.40438">
        <ele>70</ele>
        <time>2021-02-28T08:16:25.332000+00:00</time>
      </trkpt>
      <trkpt lat="0" lon="0">
        <time>2021-02-28T08:16:25.338000+00:00</time>
      </trkpt>
      <trkpt lat="0" lon="0">
        <time>2021-02-28T08:16:25.342000+00:00</time>
      </trkpt>
      <trkpt lat="0" lon="0">
        <time>2021-02-28T08:16:25.345000+00:00</time>
      </trkpt>
      <trkpt lat="47.29729" lon="-1.40436">
        <ele>70</ele>
        <time>2021-02-28T08:16:26.295000+00:00</time>
      </trkpt>
      <trkpt lat="0" lon="0">
        <time>2021-02-28T08:16:26.299000+00:00</time>
      </trkpt>
      <trkpt lat="0" lon="0">
        <time>2021-02-28T08:16:26.308000+00:00</time>
      </trkpt>
      <trkpt lat="0" lon="0">
        <time>2021-02-28T08:16:26.311000+00:00</time>
      </trkpt>
      <trkpt lat="47.29732" lon="-1.40435">
        <ele>70</ele>
        <time>2021-02-28T08:16:27.320000+00:00</time>
      </trkpt>
      <trkpt lat="0" lon="0">
        <time>2021-02-28T08:16:27.326000+00:00</time>
      </trkpt>
      <trkpt lat="0" lon="0">
        <time>2021-02-28T08:16:27.333000+00:00</time>
      </trkpt>
      <trkpt lat="0" lon="0">
        <time>2021-02-28T08:16:27.335000+00:00</time>
      </trkpt>
      <trkpt lat="47.29734" lon="-1.40434">
        <ele>70</ele>
        <time>2021-02-28T08:16:28.254000+00:00</time>
      </trkpt>
      <trkpt lat="0" lon="0">
        <time>2021-02-28T08:16:28.256000+00:00</time>
      </trkpt>
      <trkpt lat="0" lon="0">
        <time>2021-02-28T08:16:28.260000+00:00</time>
      </trkpt>
      <trkpt lat="0" lon="0">
        <time>2021-02-28T08:16:28.262000+00:00</time>
      </trkpt>
      <trkpt lat="47.29736" lon="-1.40432">
        <ele>70</ele>
        <time>2021-02-28T08:16:29.313000+00:00</time>
      </trkpt>
      <trkpt lat="0" lon="0">
        <time>2021-02-28T08:16:29.318000+00:00</time>
      </trkpt>
      <trkpt lat="0" lon="0">
        <time>2021-02-28T08:16:29.322000+00:00</time>
      </trkpt>
      <trkpt lat="0" lon="0">
        <time>2021-02-28T08:16:29.324000+00:00</time>
      </trkpt>
      <trkpt lat="47.29738" lon="-1.40431">
        <ele>70</ele>
        <time>2021-02-28T08:16:30.262000+00:00</time>
      </trkpt>
      <trkpt lat="0" lon="0">
        <time>2021-02-28T08:16:30.276000+00:00</time>
      </trkpt>
      <trkpt lat="0" lon="0">
        <time>2021-02-28T08:16:30.284000+00:00</time>
      </trkpt>
      <trkpt lat="0" lon="0">
        <time>2021-02-28T08:16:30.288000+00:00</time>
      </trkpt>
      <trkpt lat="47.29739" lon="-1.4043">
        <ele>70</ele>
        <time>2021-02-28T08:16:31.259000+00:00</time>
      </trkpt>
      <trkpt lat="0" lon="0">
        <time>2021-02-28T08:16:31.261000+00:00</time>
      </trkpt>
      <trkpt lat="0" lon="0">
        <time>2021-02-28T08:16:31.263000+00:00</time>
      </trkpt>
      <trkpt lat="0" lon="0">
        <time>2021-02-28T08:16:31.264000+00:00</time>
      </trkpt>
      <trkpt lat="47.2974" lon="-1.40428">
        <ele>70</ele>
        <time>2021-02-28T08:16:32.288000+00:00</time>
      </trkpt>
      <trkpt lat="0" lon="0">
        <time>2021-02-28T08:16:32.293000+00:00</time>
      </trkpt>
      <trkpt lat="0" lon="0">
        <time>2021-02-28T08:16:32.298000+00:00</time>
      </trkpt>
      <trkpt lat="0" lon="0">
        <time>2021-02-28T08:16:32.301000+00:00</time>
      </trkpt>
      <trkpt lat="47.29741" lon="-1.40427">
        <ele>71</ele>
        <time>2021-02-28T08:16:33.272000+00:00</time>
      </trkpt>
      <trkpt lat="0" lon="0">
        <time>2021-02-28T08:16:33.276000+00:00</time>
      </trkpt>
      <trkpt lat="0" lon="0">
        <time>2021-02-28T08:16:33.279000+00:00</time>
      </trkpt>
      <trkpt lat="0" lon="0">
        <time>2021-02-28T08:16:33.280000+00:00</time>
      </trkpt>
      <trkpt lat="47.29742" lon="-1.40425">
        <ele>71</ele>
        <time>2021-02-28T08:16:34.317000+00:00</time>
      </trkpt>
      <trkpt lat="0" lon="0">
        <time>2021-02-28T08:16:34.319000+00:00</time>
      </trkpt>
      <trkpt lat="0" lon="0">
        <time>2021-02-28T08:16:34.321000+00:00</time>
      </trkpt>
      <trkpt lat="0" lon="0">
        <time>2021-02-28T08:16:34.322000+00:00</time>
      </trkpt>
      <trkpt lat="47.29742" lon="-1.40423">
        <ele>71</ele>
        <time>2021-02-28T08:16:35.297000+00:00</time>
      </trkpt>
      <trkpt lat="0" lon="0">
        <time>2021-02-28T08:16:35.301000+00:00</time>
      </trkpt>
      <trkpt lat="0" lon="0">
        <time>2021-02-28T08:16:35.307000+00:00</time>
      </trkpt>
      <trkpt lat="0" lon="0">
        <time>2021-02-28T08:16:35.312000+00:00</time>
      </trkpt>
      <trkpt lat="47.29742" lon="-1.40421">
        <ele>71</ele>
        <time>2021-02-28T08:16:36.301000+00:00</time>
      </trkpt>
      <trkpt lat="0" lon="0">
        <time>2021-02-28T08:16:36.315000+00:00</time>
      </trkpt>
      <trkpt lat="0" lon="0">
        <time>2021-02-28T08:16:36.322000+00:00</time>
      </trkpt>
      <trkpt lat="0" lon="0">
        <time>2021-02-28T08:16:36.327000+00:00</time>
      </trkpt>
      <trkpt lat="47.29743" lon="-1.40419">
        <ele>72</ele>
        <time>2021-02-28T08:16:37.299000+00:00</time>
      </trkpt>
      <trkpt lat="0" lon="0">
        <time>2021-02-28T08:16:37.303000+00:00</time>
      </trkpt>
      <trkpt lat="0" lon="0">
        <time>2021-02-28T08:16:37.311000+00:00</time>
      </trkpt>
      <trkpt lat="0" lon="0">
        <time>2021-02-28T08:16:37.312000+00:00</time>
      </trkpt>
      <trkpt lat="47.29744" lon="-1.40416">
        <ele>72</ele>
        <time>2021-02-28T08:16:38.265000+00:00</time>
      </trkpt>
      <trkpt lat="0" lon="0">
        <time>2021-02-28T08:16:38.269000+00:00</time>
      </trkpt>
      <trkpt lat="0" lon="0">
        <time>2021-02-28T08:16:38.276000+00:00</time>
      </trkpt>
      <trkpt lat="0" lon="0">
        <time>2021-02-28T08:16:38.279000+00:00</time>
      </trkpt>
      <trkpt lat="47.29744" lon="-1.40414">
        <ele>73</ele>
        <time>2021-02-28T08:16:39.295000+00:00</time>
      </trkpt>
      <trkpt lat="0" lon="0">
        <time>2021-02-28T08:16:39.306000+00:00</time>
      </trkpt>
      <trkpt lat="0" lon="0">
        <time>2021-02-28T08:16:39.309000+00:00</time>
      </trkpt>
      <trkpt lat="0" lon="0">
        <time>2021-02-28T08:16:39.311000+00:00</time>
      </trkpt>
      <trkpt lat="47.29745" lon="-1.40411">
        <ele>73</ele>
        <time>2021-02-28T08:16:40.274000+00:00</time>
      </trkpt>
      <trkpt lat="0" lon="0">
        <time>2021-02-28T08:16:40.283000+00:00</time>
      </trkpt>
      <trkpt lat="0" lon="0">
        <time>2021-02-28T08:16:40.296000+00:00</time>
      </trkpt>
      <trkpt lat="0" lon="0">
        <time>2021-02-28T08:16:40.299000+00:00</time>
      </trkpt>
      <trkpt lat="47.29746" lon="-1.40408">
        <ele>73</ele>
        <time>2021-02-28T08:16:41.277000+00:00</time>
      </trkpt>
      <trkpt lat="0" lon="0">
        <time>2021-02-28T08:16:41.284000+00:00</time>
      </trkpt>
      <trkpt lat="0" lon="0">
        <time>2021-02-28T08:16:41.286000+00:00</time>
      </trkpt>
      <trkpt lat="0" lon="0">
        <time>2021-02-28T08:16:41.287000+00:00</time>
      </trkpt>
      <trkpt lat="47.29747" lon="-1.40406">
        <ele>72</ele>
        <time>2021-02-28T08:16:42.289000+00:00</time>
      </trkpt>
      <trkpt lat="0" lon="0">
        <time>2021-02-28T08:16:42.294000+00:00</time>
      </trkpt>
      <trkpt lat="0" lon="0">
        <time>2021-02-28T08:16:42.299000+00:00</time>
      </trkpt>
      <trkpt lat="0" lon="0">
        <time>2021-02-28T08:16:42.301000+00:00</time>
      </trkpt>
      <trkpt lat="47.29749" lon="-1.40403">
        <ele>72</ele>
        <time>2021-02-28T08:16:43.269000+00:00</time>
      </trkpt>
      <trkpt lat="0" lon="0">
        <time>2021-02-28T08:16:43.274000+00:00</time>
      </trkpt>
      <trkpt lat="0" lon="0">
        <time>2021-02-28T08:16:43.281000+00:00</time>
      </trkpt>
      <trkpt lat="0" lon="0">
        <time>2021-02-28T08:16:43.284000+00:00</time>
      </trkpt>
      <trkpt lat="47.2975" lon="-1.404">
        <ele>72</ele>
        <time>2021-02-28T08:16:44.287000+00:00</time>
      </trkpt>
      <trkpt lat="0" lon="0">
        <time>2021-02-28T08:16:44.295000+00:00</time>
      </trkpt>
      <trkpt lat="0" lon="0">
        <time>2021-02-28T08:16:44.301000+00:00</time>
      </trkpt>
      <trkpt lat="0" lon="0">
        <time>2021-02-28T08:16:44.307000+00:00</time>
      </trkpt>
      <trkpt lat="47.29751" lon="-1.40398">
        <ele>72</ele>
        <time>2021-02-28T08:16:45.275000+00:00</time>
      </trkpt>
      <trkpt lat="0" lon="0">
        <time>2021-02-28T08:16:45.278000+00:00</time>
      </trkpt>
      <trkpt lat="0" lon="0">
        <time>2021-02-28T08:16:45.281000+00:00</time>
      </trkpt>
      <trkpt lat="0" lon="0">
        <time>2021-02-28T08:16:45.283000+00:00</time>
      </trkpt>
      <trkpt lat="47.29752" lon="-1.40395">
        <ele>71</ele>
        <time>2021-02-28T08:16:46.278000+00:00</time>
      </trkpt>
      <trkpt lat="0" lon="0">
        <time>2021-02-28T08:16:46.287000+00:00</time>
      </trkpt>
      <trkpt lat="0" lon="0">
        <time>2021-02-28T08:16:46.289000+00:00</time>
      </trkpt>
      <trkpt lat="0" lon="0">
        <time>2021-02-28T08:16:46.290000+00:00</time>
      </trkpt>
      <trkpt lat="47.29753" lon="-1.40393">
        <ele>71</ele>
        <time>2021-02-28T08:16:47.269000+00:00</time>
      </trkpt>
      <trkpt lat="0" lon="0">
        <time>2021-02-28T08:16:47.277000+00:00</time>
      </trkpt>
      <trkpt lat="0" lon="0">
        <time>2021-02-28T08:16:47.280000+00:00</time>
      </trkpt>
      <trkpt lat="0" lon="0">
        <time>2021-02-28T08:16:47.282000+00:00</time>
      </trkpt>
      <trkpt lat="47.29754" lon="-1.4039">
        <ele>71</ele>
        <time>2021-02-28T08:16:48.286000+00:00</time>
      </trkpt>
      <trkpt lat="0" lon="0">
        <time>2021-02-28T08:16:48.300000+00:00</time>
      </trkpt>
      <trkpt lat="0" lon="0">
        <time>2021-02-28T08:16:48.307000+00:00</time>
      </trkpt>
      <trkpt lat="0" lon="0">
        <time>2021-02-28T08:16:48.311000+00:00</time>
      </trkpt>
      <trkpt lat="47.29755" lon="-1.40388">
        <ele>71</ele>
        <time>2021-02-28T08:16:49.244000+00:00</time>
      </trkpt>
      <trkpt lat="0" lon="0">
        <time>2021-02-28T08:16:49.246000+00:00</time>
      </trkpt>
      <trkpt lat="0" lon="0">
        <time>2021-02-28T08:16:49.250000+00:00</time>
      </trkpt>
      <trkpt lat="0" lon="0">
        <time>2021-02-28T08:16:49.251000+00:00</time>
      </trkpt>
      <trkpt lat="47.29756" lon="-1.40385">
        <ele>71</ele>
        <time>2021-02-28T08:16:50.282000+00:00</time>
      </trkpt>
      <trkpt lat="0" lon="0">
        <time>2021-02-28T08:16:50.295000+00:00</time>
      </trkpt>
      <trkpt lat="0" lon="0">
        <time>2021-02-28T08:16:50.299000+00:00</time>
      </trkpt>
      <trkpt lat="0" lon="0">
        <time>2021-02-28T08:16:50.301000+00:00</time>
      </trkpt>
      <trkpt lat="47.29757" lon="-1.40383">
        <ele>72</ele>
        <time>2021-02-28T08:16:51.262000+00:00</time>
      </trkpt>
      <trkpt lat="0" lon="0">
        <time>2021-02-28T08:16:51.264000+00:00</time>
      </trkpt>
      <trkpt lat="0" lon="0">
        <time>2021-02-28T08:16:51.265000+00:00</time>
      </trkpt>
      <trkpt lat="0" lon="0">
        <time>2021-02-28T08:16:51.266000+00:00</time>
      </trkpt>
      <trkpt lat="47.29758" lon="-1.40381">
        <ele>72</ele>
        <time>2021-02-28T08:16:52.286000+00:00</time>
      </trkpt>
      <trkpt lat="0" lon="0">
        <time>2021-02-28T08:16:52.293000+00:00</time>
      </trkpt>
      <trkpt lat="0" lon="0">
        <time>2021-02-28T08:16:52.299000+00:00</time>
      </trkpt>
      <trkpt lat="0" lon="0">
        <time>2021-02-28T08:16:52.302000+00:00</time>
      </trkpt>
      <trkpt lat="47.29759" lon="-1.40379">
        <ele>72</ele>
        <time>2021-02-28T08:16:53.269000+00:00</time>
      </trkpt>
      <trkpt lat="0" lon="0">
        <time>2021-02-28T08:16:53.275000+00:00</time>
      </trkpt>
      <trkpt lat="0" lon="0">
        <time>2021-02-28T08:16:53.281000+00:00</time>
      </trkpt>
      <trkpt lat="0" lon="0">
        <time>2021-02-28T08:16:53.284000+00:00</time>
      </trkpt>
      <trkpt lat="47.29759" lon="-1.40377">
        <ele>71</ele>
        <time>2021-02-28T08:16:54.285000+00:00</time>
      </trkpt>
      <trkpt lat="0" lon="0">
        <time>2021-02-28T08:16:54.298000+00:00</time>
      </trkpt>
      <trkpt lat="0" lon="0">
        <time>2021-02-28T08:16:54.306000+00:00</time>
      </trkpt>
      <trkpt lat="0" lon="0">
        <time>2021-02-28T08:16:54.313000+00:00</time>
      </trkpt>
      <trkpt lat="47.2976" lon="-1.40375">
        <ele>71</ele>
        <time>2021-02-28T08:16:55.284000+00:00</time>
      </trkpt>
      <trkpt lat="0" lon="0">
        <time>2021-02-28T08:16:55.292000+00:00</time>
      </trkpt>
      <trkpt lat="0" lon="0">
        <time>2021-02-28T08:16:55.294000+00:00</time>
      </trkpt>
      <trkpt lat="0" lon="0">
        <time>2021-02-28T08:16:55.295000+00:00</time>
      </trkpt>
      <trkpt lat="47.29761" lon="-1.40374">
        <ele>71</ele>
        <time>2021-02-28T08:16:56.270000+00:00</time>
      </trkpt>
      <trkpt lat="0" lon="0">
        <time>2021-02-28T08:16:56.272000+00:00</time>
      </trkpt>
      <trkpt lat="0" lon="0">
        <time>2021-02-28T08:16:56.276000+00:00</time>
      </trkpt>
      <trkpt lat="0" lon="0">
        <time>2021-02-28T08:16:56.279000+00:00</time>
      </trkpt>
      <trkpt lat="47.29762" lon="-1.40372">
        <ele>71</ele>
        <time>2021-02-28T08:16:57.304000+00:00</time>
      </trkpt>
      <trkpt lat="0" lon="0">
        <time>2021-02-28T08:16:57.306000+00:00</time>
      </trkpt>
      <trkpt lat="0" lon="0">
        <time>2021-02-28T08:16:57.309000+00:00</time>
      </trkpt>
      <trkpt lat="0" lon="0">
        <time>2021-02-28T08:16:57.310000+00:00</time>
      </trkpt>
      <trkpt lat="47.29763" lon="-1.40371">
        <ele>71</ele>
        <time>2021-02-28T08:16:58.295000+00:00</time>
      </trkpt>
      <trkpt lat="0" lon="0">
        <time>2021-02-28T08:16:58.303000+00:00</time>
      </trkpt>
      <trkpt lat="0" lon="0">
        <time>2021-02-28T08:16:58.309000+00:00</time>
      </trkpt>
      <trkpt lat="0" lon="0">
        <time>2021-02-28T08:16:58.312000+00:00</time>
      </trkpt>
      <trkpt lat="47.29764" lon="-1.4037">
        <ele>72</ele>
        <time>2021-02-28T08:16:59.229000+00:00</time>
      </trkpt>
      <trkpt lat="0" lon="0">
        <time>2021-02-28T08:16:59.235000+00:00</time>
      </trkpt>
      <trkpt lat="0" lon="0">
        <time>2021-02-28T08:16:59.239000+00:00</time>
      </trkpt>
      <trkpt lat="0" lon="0">
        <time>2021-02-28T08:16:59.241000+00:00</time>
      </trkpt>
      <trkpt lat="47.29765" lon="-1.40369">
        <ele>72</ele>
        <time>2021-02-28T08:17:00.304000+00:00</time>
      </trkpt>
      <trkpt lat="0" lon="0">
        <time>2021-02-28T08:17:00.310000+00:00</time>
      </trkpt>
      <trkpt lat="0" lon="0">
        <time>2021-02-28T08:17:00.314000+00:00</time>
      </trkpt>
      <trkpt lat="0" lon="0">
        <time>2021-02-28T08:17:00.316000+00:00</time>
      </trkpt>
      <trkpt lat="47.29766" lon="-1.40368">
        <ele>72</ele>
        <time>2021-02-28T08:17:01.277000+00:00</time>
      </trkpt>
      <trkpt lat="0" lon="0">
        <time>2021-02-28T08:17:01.283000+00:00</time>
      </trkpt>
      <trkpt lat="0" lon="0">
        <time>2021-02-28T08:17:01.284000+00:00</time>
      </trkpt>
      <trkpt lat="0" lon="0">
        <time>2021-02-28T08:17:01.285000+00:00</time>
      </trkpt>
      <trkpt lat="47.29767" lon="-1.40367">
        <ele>72</ele>
        <time>2021-02-28T08:17:02.265000+00:00</time>
      </trkpt>
      <trkpt lat="0" lon="0">
        <time>2021-02-28T08:17:02.275000+00:00</time>
      </trkpt>
      <trkpt lat="0" lon="0">
        <time>2021-02-28T08:17:02.278000+00:00</time>
      </trkpt>
      <trkpt lat="0" lon="0">
        <time>2021-02-28T08:17:02.279000+00:00</time>
      </trkpt>
      <trkpt lat="47.29768" lon="-1.40365">
        <ele>72</ele>
        <time>2021-02-28T08:17:03.253000+00:00</time>
      </trkpt>
      <trkpt lat="0" lon="0">
        <time>2021-02-28T08:17:03.255000+00:00</time>
      </trkpt>
      <trkpt lat="0" lon="0">
        <time>2021-02-28T08:17:03.257000+00:00</time>
      </trkpt>
      <trkpt lat="0" lon="0">
        <time>2021-02-28T08:17:03.258000+00:00</time>
      </trkpt>
      <trkpt lat="47.29769" lon="-1.40364">
        <ele>72</ele>
        <time>2021-02-28T08:17:04.260000+00:00</time>
      </trkpt>
      <trkpt lat="0" lon="0">
        <time>2021-02-28T08:17:04.268000+00:00</time>
      </trkpt>
      <trkpt lat="0" lon="0">
        <time>2021-02-28T08:17:04.275000+00:00</time>
      </trkpt>
      <trkpt lat="0" lon="0">
        <time>2021-02-28T08:17:04.278000+00:00</time>
      </trkpt>
      <trkpt lat="47.29769" lon="-1.40362">
        <ele>73</ele>
        <time>2021-02-28T08:17:05.304000+00:00</time>
      </trkpt>
      <trkpt lat="0" lon="0">
        <time>2021-02-28T08:17:05.311000+00:00</time>
      </trkpt>
      <trkpt lat="0" lon="0">
        <time>2021-02-28T08:17:05.315000+00:00</time>
      </trkpt>
      <trkpt lat="0" lon="0">
        <time>2021-02-28T08:17:05.318000+00:00</time>
      </trkpt>
      <trkpt lat="47.2977" lon="-1.40361">
        <ele>73</ele>
        <time>2021-02-28T08:17:06.307000+00:00</time>
      </trkpt>
      <trkpt lat="0" lon="0">
        <time>2021-02-28T08:17:06.313000+00:00</time>
      </trkpt>
      <trkpt lat="0" lon="0">
        <time>2021-02-28T08:17:06.315000+00:00</time>
      </trkpt>
      <trkpt lat="0" lon="0">
        <time>2021-02-28T08:17:06.316000+00:00</time>
      </trkpt>
      <trkpt lat="47.29771" lon="-1.40359">
        <ele>73</ele>
        <time>2021-02-28T08:17:07.294000+00:00</time>
      </trkpt>
      <trkpt lat="0" lon="0">
        <time>2021-02-28T08:17:07.302000+00:00</time>
      </trkpt>
      <trkpt lat="0" lon="0">
        <time>2021-02-28T08:17:07.307000+00:00</time>
      </trkpt>
      <trkpt lat="0" lon="0">
        <time>2021-02-28T08:17:07.309000+00:00</time>
      </trkpt>
      <trkpt lat="47.29771" lon="-1.40357">
        <ele>73</ele>
        <time>2021-02-28T08:17:08.285000+00:00</time>
      </trkpt>
      <trkpt lat="0" lon="0">
        <time>2021-02-28T08:17:08.290000+00:00</time>
      </trkpt>
      <trkpt lat="0" lon="0">
        <time>2021-02-28T08:17:08.294000+00:00</time>
      </trkpt>
      <trkpt lat="0" lon="0">
        <time>2021-02-28T08:17:08.295000+00:00</time>
      </trkpt>
      <trkpt lat="47.29772" lon="-1.40355">
        <ele>74</ele>
        <time>2021-02-28T08:17:09.284000+00:00</time>
      </trkpt>
      <trkpt lat="0" lon="0">
        <time>2021-02-28T08:17:09.296000+00:00</time>
      </trkpt>
      <trkpt lat="0" lon="0">
        <time>2021-02-28T08:17:09.302000+00:00</time>
      </trkpt>
      <trkpt lat="0" lon="0">
        <time>2021-02-28T08:17:09.305000+00:00</time>
      </trkpt>
      <trkpt lat="47.29773" lon="-1.40352">
        <ele>74</ele>
        <time>2021-02-28T08:17:10.303000+00:00</time>
      </trkpt>
      <trkpt lat="0" lon="0">
        <time>2021-02-28T08:17:10.310000+00:00</time>
      </trkpt>
      <trkpt lat="0" lon="0">
        <time>2021-02-28T08:17:10.318000+00:00</time>
      </trkpt>
      <trkpt lat="0" lon="0">
        <time>2021-02-28T08:17:10.320000+00:00</time>
      </trkpt>
      <trkpt lat="47.29774" lon="-1.4035">
        <ele>75</ele>
        <time>2021-02-28T08:17:11.303000+00:00</time>
      </trkpt>
      <trkpt lat="0" lon="0">
        <time>2021-02-28T08:17:11.305000+00:00</time>
      </trkpt>
      <trkpt lat="0" lon="0">
        <time>2021-02-28T08:17:11.307000+00:00</time>
      </trkpt>
      <trkpt lat="0" lon="0">
        <time>2021-02-28T08:17:11.308000+00:00</time>
      </trkpt>
      <trkpt lat="47.29775" lon="-1.40347">
        <ele>75</ele>
        <time>2021-02-28T08:17:12.273000+00:00</time>
      </trkpt>
      <trkpt lat="0" lon="0">
        <time>2021-02-28T08:17:12.275000+00:00</time>
      </trkpt>
      <trkpt lat="0" lon="0">
        <time>2021-02-28T08:17:12.279000+00:00</time>
      </trkpt>
      <trkpt lat="0" lon="0">
        <time>2021-02-28T08:17:12.280000+00:00</time>
      </trkpt>
      <trkpt lat="47.29777" lon="-1.40345">
        <ele>75</ele>
        <time>2021-02-28T08:17:13.281000+00:00</time>
      </trkpt>
      <trkpt lat="0" lon="0">
        <time>2021-02-28T08:17:13.286000+00:00</time>
      </trkpt>
      <trkpt lat="0" lon="0">
        <time>2021-02-28T08:17:13.290000+00:00</time>
      </trkpt>
      <trkpt lat="0" lon="0">
        <time>2021-02-28T08:17:13.292000+00:00</time>
      </trkpt>
      <trkpt lat="47.29778" lon="-1.40342">
        <ele>76</ele>
        <time>2021-02-28T08:17:14.304000+00:00</time>
      </trkpt>
      <trkpt lat="0" lon="0">
        <time>2021-02-28T08:17:14.311000+00:00</time>
      </trkpt>
      <trkpt lat="0" lon="0">
        <time>2021-02-28T08:17:14.317000+00:00</time>
      </trkpt>
      <trkpt lat="0" lon="0">
        <time>2021-02-28T08:17:14.319000+00:00</time>
      </trkpt>
      <trkpt lat="47.2978" lon="-1.40339">
        <ele>76</ele>
        <time>2021-02-28T08:17:15.292000+00:00</time>
      </trkpt>
      <trkpt lat="0" lon="0">
        <time>2021-02-28T08:17:15.294000+00:00</time>
      </trkpt>
      <trkpt lat="0" lon="0">
        <time>2021-02-28T08:17:15.296000+00:00</time>
      </trkpt>
      <trkpt lat="0" lon="0">
        <time>2021-02-28T08:17:15.297000+00:00</time>
      </trkpt>
      <trkpt lat="47.29781" lon="-1.40337">
        <ele>76</ele>
        <time>2021-02-28T08:17:16.285000+00:00</time>
      </trkpt>
      <trkpt lat="0" lon="0">
        <time>2021-02-28T08:17:16.287000+00:00</time>
      </trkpt>
      <trkpt lat="0" lon="0">
        <time>2021-02-28T08:17:16.289000+00:00</time>
      </trkpt>
      <trkpt lat="0" lon="0">
        <time>2021-02-28T08:17:16.291000+00:00</time>
      </trkpt>
      <trkpt lat="47.29782" lon="-1.40334">
        <ele>77</ele>
        <time>2021-02-28T08:17:17.263000+00:00</time>
      </trkpt>
      <trkpt lat="0" lon="0">
        <time>2021-02-28T08:17:17.272000+00:00</time>
      </trkpt>
      <trkpt lat="0" lon="0">
        <time>2021-02-28T08:17:17.276000+00:00</time>
      </trkpt>
      <trkpt lat="0" lon="0">
        <time>2021-02-28T08:17:17.279000+00:00</time>
      </trkpt>
      <trkpt lat="47.29784" lon="-1.40332">
        <ele>77</ele>
        <time>2021-02-28T08:17:18.297000+00:00</time>
      </trkpt>
      <trkpt lat="0" lon="0">
        <time>2021-02-28T08:17:18.310000+00:00</time>
      </trkpt>
      <trkpt lat="0" lon="0">
        <time>2021-02-28T08:17:18.315000+00:00</time>
      </trkpt>
      <trkpt lat="0" lon="0">
        <time>2021-02-28T08:17:18.317000+00:00</time>
      </trkpt>
      <trkpt lat="47.29785" lon="-1.40329">
        <ele>78</ele>
        <time>2021-02-28T08:17:19.277000+00:00</time>
      </trkpt>
      <trkpt lat="0" lon="0">
        <time>2021-02-28T08:17:19.283000+00:00</time>
      </trkpt>
      <trkpt lat="0" lon="0">
        <time>2021-02-28T08:17:19.288000+00:00</time>
      </trkpt>
      <trkpt lat="0" lon="0">
        <time>2021-02-28T08:17:19.290000+00:00</time>
      </trkpt>
      <trkpt lat="47.29786" lon="-1.40327">
        <ele>78</ele>
        <time>2021-02-28T08:17:20.288000+00:00</time>
      </trkpt>
      <trkpt lat="0" lon="0">
        <time>2021-02-28T08:17:20.295000+00:00</time>
      </trkpt>
      <trkpt lat="0" lon="0">
        <time>2021-02-28T08:17:20.300000+00:00</time>
      </trkpt>
      <trkpt lat="0" lon="0">
        <time>2021-02-28T08:17:20.303000+00:00</time>
      </trkpt>
      <trkpt lat="47.29787" lon="-1.40325">
        <ele>79</ele>
        <time>2021-02-28T08:17:21.278000+00:00</time>
      </trkpt>
      <trkpt lat="0" lon="0">
        <time>2021-02-28T08:17:21.288000+00:00</time>
      </trkpt>
      <trkpt lat="0" lon="0">
        <time>2021-02-28T08:17:21.292000+00:00</time>
      </trkpt>
      <trkpt lat="0" lon="0">
        <time>2021-02-28T08:17:21.295000+00:00</time>
      </trkpt>
      <trkpt lat="47.29788" lon="-1.40323">
        <ele>79</ele>
        <time>2021-02-28T08:17:22.283000+00:00</time>
      </trkpt>
      <trkpt lat="0" lon="0">
        <time>2021-02-28T08:17:22.289000+00:00</time>
      </trkpt>
      <trkpt lat="0" lon="0">
        <time>2021-02-28T08:17:22.293000+00:00</time>
      </trkpt>
      <trkpt lat="0" lon="0">
        <time>2021-02-28T08:17:22.296000+00:00</time>
      </trkpt>
      <trkpt lat="47.2979" lon="-1.40321">
        <ele>79</ele>
        <time>2021-02-28T08:17:23.305000+00:00</time>
      </trkpt>
      <trkpt lat="0" lon="0">
        <time>2021-02-28T08:17:23.308000+00:00</time>
      </trkpt>
      <trkpt lat="0" lon="0">
        <time>2021-02-28T08:17:23.310000+00:00</time>
      </trkpt>
      <trkpt lat="0" lon="0">
        <time>2021-02-28T08:17:23.311000+00:00</time>
      </trkpt>
      <trkpt lat="47.2979" lon="-1.40319">
        <ele>79</ele>
        <time>2021-02-28T08:17:24.277000+00:00</time>
      </trkpt>
      <trkpt lat="0" lon="0">
        <time>2021-02-28T08:17:24.283000+00:00</time>
      </trkpt>
      <trkpt lat="0" lon="0">
        <time>2021-02-28T08:17:24.288000+00:00</time>
      </trkpt>
      <trkpt lat="0" lon="0">
        <time>2021-02-28T08:17:24.291000+00:00</time>
      </trkpt>
      <trkpt lat="47.29791" lon="-1.40318">
        <ele>79</ele>
        <time>2021-02-28T08:17:25.285000+00:00</time>
      </trkpt>
      <trkpt lat="0" lon="0">
        <time>2021-02-28T08:17:25.292000+00:00</time>
      </trkpt>
      <trkpt lat="0" lon="0">
        <time>2021-02-28T08:17:25.296000+00:00</time>
      </trkpt>
      <trkpt lat="0" lon="0">
        <time>2021-02-28T08:17:25.298000+00:00</time>
      </trkpt>
      <trkpt lat="47.29792" lon="-1.40316">
        <ele>79</ele>
        <time>2021-02-28T08:17:26.265000+00:00</time>
      </trkpt>
      <trkpt lat="0" lon="0">
        <time>2021-02-28T08:17:26.272000+00:00</time>
      </trkpt>
      <trkpt lat="0" lon="0">
        <time>2021-02-28T08:17:26.280000+00:00</time>
      </trkpt>
      <trkpt lat="0" lon="0">
        <time>2021-02-28T08:17:26.282000+00:00</time>
      </trkpt>
      <trkpt lat="47.29793" lon="-1.40314">
        <ele>80</ele>
        <time>2021-02-28T08:17:27.285000+00:00</time>
      </trkpt>
      <trkpt lat="0" lon="0">
        <time>2021-02-28T08:17:27.287000+00:00</time>
      </trkpt>
      <trkpt lat="0" lon="0">
        <time>2021-02-28T08:17:27.289000+00:00</time>
      </trkpt>
      <trkpt lat="0" lon="0">
        <time>2021-02-28T08:17:27.290000+00:00</time>
      </trkpt>
      <trkpt lat="47.29793" lon="-1.40312">
        <ele>80</ele>
        <time>2021-02-28T08:17:28.309000+00:00</time>
      </trkpt>
      <trkpt lat="0" lon="0">
        <time>2021-02-28T08:17:28.319000+00:00</time>
      </trkpt>
      <trkpt lat="0" lon="0">
        <time>2021-02-28T08:17:28.322000+00:00</time>
      </trkpt>
      <trkpt lat="0" lon="0">
        <time>2021-02-28T08:17:28.324000+00:00</time>
      </trkpt>
      <trkpt lat="47.29794" lon="-1.40309">
        <ele>81</ele>
        <time>2021-02-28T08:17:29.263000+00:00</time>
      </trkpt>
      <trkpt lat="0" lon="0">
        <time>2021-02-28T08:17:29.277000+00:00</time>
      </trkpt>
      <trkpt lat="0" lon="0">
        <time>2021-02-28T08:17:29.283000+00:00</time>
      </trkpt>
      <trkpt lat="0" lon="0">
        <time>2021-02-28T08:17:29.285000+00:00</time>
      </trkpt>
      <trkpt lat="47.29794" lon="-1.40307">
        <ele>83</ele>
        <time>2021-02-28T08:17:30.302000+00:00</time>
      </trkpt>
      <trkpt lat="0" lon="0">
        <time>2021-02-28T08:17:30.312000+00:00</time>
      </trkpt>
      <trkpt lat="0" lon="0">
        <time>2021-02-28T08:17:30.316000+00:00</time>
      </trkpt>
      <trkpt lat="0" lon="0">
        <time>2021-02-28T08:17:30.319000+00:00</time>
      </trkpt>
      <trkpt lat="47.29795" lon="-1.40305">
        <ele>84</ele>
        <time>2021-02-28T08:17:31.256000+00:00</time>
      </trkpt>
      <trkpt lat="0" lon="0">
        <time>2021-02-28T08:17:31.265000+00:00</time>
      </trkpt>
      <trkpt lat="0" lon="0">
        <time>2021-02-28T08:17:31.269000+00:00</time>
      </trkpt>
      <trkpt lat="0" lon="0">
        <time>2021-02-28T08:17:31.272000+00:00</time>
      </trkpt>
      <trkpt lat="47.29795" lon="-1.40303">
        <ele>85</ele>
        <time>2021-02-28T08:17:32.250000+00:00</time>
      </trkpt>
      <trkpt lat="0" lon="0">
        <time>2021-02-28T08:17:32.253000+00:00</time>
      </trkpt>
      <trkpt lat="0" lon="0">
        <time>2021-02-28T08:17:32.256000+00:00</time>
      </trkpt>
      <trkpt lat="0" lon="0">
        <time>2021-02-28T08:17:32.257000+00:00</time>
      </trkpt>
      <trkpt lat="47.29795" lon="-1.40301">
        <ele>85</ele>
        <time>2021-02-28T08:17:33.281000+00:00</time>
      </trkpt>
      <trkpt lat="0" lon="0">
        <time>2021-02-28T08:17:33.291000+00:00</time>
      </trkpt>
      <trkpt lat="0" lon="0">
        <time>2021-02-28T08:17:33.297000+00:00</time>
      </trkpt>
      <trkpt lat="0" lon="0">
        <time>2021-02-28T08:17:33.300000+00:00</time>
      </trkpt>
      <trkpt lat="47.29795" lon="-1.40299">
        <ele>85</ele>
        <time>2021-02-28T08:17:34.281000+00:00</time>
      </trkpt>
      <trkpt lat="0" lon="0">
        <time>2021-02-28T08:17:34.288000+00:00</time>
      </trkpt>
      <trkpt lat="0" lon="0">
        <time>2021-02-28T08:17:34.292000+00:00</time>
      </trkpt>
      <trkpt lat="0" lon="0">
        <time>2021-02-28T08:17:34.295000+00:00</time>
      </trkpt>
      <trkpt lat="47.29796" lon="-1.40297">
        <ele>85</ele>
        <time>2021-02-28T08:17:35.279000+00:00</time>
      </trkpt>
      <trkpt lat="0" lon="0">
        <time>2021-02-28T08:17:35.284000+00:00</time>
      </trkpt>
      <trkpt lat="0" lon="0">
        <time>2021-02-28T08:17:35.289000+00:00</time>
      </trkpt>
      <trkpt lat="0" lon="0">
        <time>2021-02-28T08:17:35.291000+00:00</time>
      </trkpt>
      <trkpt lat="47.29796" lon="-1.40295">
        <ele>85</ele>
        <time>2021-02-28T08:17:36.291000+00:00</time>
      </trkpt>
      <trkpt lat="0" lon="0">
        <time>2021-02-28T08:17:36.295000+00:00</time>
      </trkpt>
      <trkpt lat="0" lon="0">
        <time>2021-02-28T08:17:36.298000+00:00</time>
      </trkpt>
      <trkpt lat="0" lon="0">
        <time>2021-02-28T08:17:36.303000+00:00</time>
      </trkpt>
      <trkpt lat="47.29797" lon="-1.40293">
        <ele>85</ele>
        <time>2021-02-28T08:17:37.233000+00:00</time>
      </trkpt>
      <trkpt lat="0" lon="0">
        <time>2021-02-28T08:17:37.235000+00:00</time>
      </trkpt>
      <trkpt lat="0" lon="0">
        <time>2021-02-28T08:17:37.239000+00:00</time>
      </trkpt>
      <trkpt lat="0" lon="0">
        <time>2021-02-28T08:17:37.241000+00:00</time>
      </trkpt>
      <trkpt lat="47.29798" lon="-1.40291">
        <ele>85</ele>
        <time>2021-02-28T08:17:38.235000+00:00</time>
      </trkpt>
      <trkpt lat="0" lon="0">
        <time>2021-02-28T08:17:38.241000+00:00</time>
      </trkpt>
      <trkpt lat="0" lon="0">
        <time>2021-02-28T08:17:38.245000+00:00</time>
      </trkpt>
      <trkpt lat="0" lon="0">
        <time>2021-02-28T08:17:38.247000+00:00</time>
      </trkpt>
      <trkpt lat="47.29798" lon="-1.40289">
        <ele>84</ele>
        <time>2021-02-28T08:17:39.219000+00:00</time>
      </trkpt>
      <trkpt lat="0" lon="0">
        <time>2021-02-28T08:17:39.225000+00:00</time>
      </trkpt>
      <trkpt lat="0" lon="0">
        <time>2021-02-28T08:17:39.227000+00:00</time>
      </trkpt>
      <trkpt lat="0" lon="0">
        <time>2021-02-28T08:17:39.228000+00:00</time>
      </trkpt>
      <trkpt lat="47.298" lon="-1.40286">
        <ele>84</ele>
        <time>2021-02-28T08:17:40.242000+00:00</time>
      </trkpt>
      <trkpt lat="0" lon="0">
        <time>2021-02-28T08:17:40.255000+00:00</time>
      </trkpt>
      <trkpt lat="0" lon="0">
        <time>2021-02-28T08:17:40.262000+00:00</time>
      </trkpt>
      <trkpt lat="0" lon="0">
        <time>2021-02-28T08:17:40.268000+00:00</time>
      </trkpt>
      <trkpt lat="47.29801" lon="-1.40284">
        <ele>84</ele>
        <time>2021-02-28T08:17:41.273000+00:00</time>
      </trkpt>
      <trkpt lat="0" lon="0">
        <time>2021-02-28T08:17:41.281000+00:00</time>
      </trkpt>
      <trkpt lat="0" lon="0">
        <time>2021-02-28T08:17:41.286000+00:00</time>
      </trkpt>
      <trkpt lat="0" lon="0">
        <time>2021-02-28T08:17:41.288000+00:00</time>
      </trkpt>
      <trkpt lat="47.29802" lon="-1.40281">
        <ele>84</ele>
        <time>2021-02-28T08:17:42.239000+00:00</time>
      </trkpt>
      <trkpt lat="0" lon="0">
        <time>2021-02-28T08:17:42.246000+00:00</time>
      </trkpt>
      <trkpt lat="0" lon="0">
        <time>2021-02-28T08:17:42.248000+00:00</time>
      </trkpt>
      <trkpt lat="0" lon="0">
        <time>2021-02-28T08:17:42.250000+00:00</time>
      </trkpt>
      <trkpt lat="47.29803" lon="-1.40279">
        <ele>84</ele>
        <time>2021-02-28T08:17:43.241000+00:00</time>
      </trkpt>
      <trkpt lat="0" lon="0">
        <time>2021-02-28T08:17:43.245000+00:00</time>
      </trkpt>
      <trkpt lat="0" lon="0">
        <time>2021-02-28T08:17:43.249000+00:00</time>
      </trkpt>
      <trkpt lat="0" lon="0">
        <time>2021-02-28T08:17:43.251000+00:00</time>
      </trkpt>
      <trkpt lat="47.29804" lon="-1.40277">
        <ele>84</ele>
        <time>2021-02-28T08:17:44.233000+00:00</time>
      </trkpt>
      <trkpt lat="0" lon="0">
        <time>2021-02-28T08:17:44.236000+00:00</time>
      </trkpt>
      <trkpt lat="0" lon="0">
        <time>2021-02-28T08:17:44.240000+00:00</time>
      </trkpt>
      <trkpt lat="0" lon="0">
        <time>2021-02-28T08:17:44.241000+00:00</time>
      </trkpt>
      <trkpt lat="47.29805" lon="-1.40275">
        <ele>84</ele>
        <time>2021-02-28T08:17:45.264000+00:00</time>
      </trkpt>
      <trkpt lat="0" lon="0">
        <time>2021-02-28T08:17:45.266000+00:00</time>
      </trkpt>
      <trkpt lat="0" lon="0">
        <time>2021-02-28T08:17:45.268000+00:00</time>
      </trkpt>
      <trkpt lat="0" lon="0">
        <time>2021-02-28T08:17:45.269000+00:00</time>
      </trkpt>
      <trkpt lat="47.29806" lon="-1.40272">
        <ele>84</ele>
        <time>2021-02-28T08:17:46.228000+00:00</time>
      </trkpt>
      <trkpt lat="0" lon="0">
        <time>2021-02-28T08:17:46.236000+00:00</time>
      </trkpt>
      <trkpt lat="0" lon="0">
        <time>2021-02-28T08:17:46.238000+00:00</time>
      </trkpt>
      <trkpt lat="0" lon="0">
        <time>2021-02-28T08:17:46.240000+00:00</time>
      </trkpt>
      <trkpt lat="47.29806" lon="-1.4027">
        <ele>84</ele>
        <time>2021-02-28T08:17:47.249000+00:00</time>
      </trkpt>
      <trkpt lat="0" lon="0">
        <time>2021-02-28T08:17:47.258000+00:00</time>
      </trkpt>
      <trkpt lat="0" lon="0">
        <time>2021-02-28T08:17:47.266000+00:00</time>
      </trkpt>
      <trkpt lat="0" lon="0">
        <time>2021-02-28T08:17:47.268000+00:00</time>
      </trkpt>
      <trkpt lat="47.29807" lon="-1.40268">
        <ele>84</ele>
        <time>2021-02-28T08:17:48.240000+00:00</time>
      </trkpt>
      <trkpt lat="0" lon="0">
        <time>2021-02-28T08:17:48.247000+00:00</time>
      </trkpt>
      <trkpt lat="0" lon="0">
        <time>2021-02-28T08:17:48.251000+00:00</time>
      </trkpt>
      <trkpt lat="0" lon="0">
        <time>2021-02-28T08:17:48.253000+00:00</time>
      </trkpt>
      <trkpt lat="47.29808" lon="-1.40266">
        <ele>84</ele>
        <time>2021-02-28T08:17:49.240000+00:00</time>
      </trkpt>
      <trkpt lat="0" lon="0">
        <time>2021-02-28T08:17:49.253000+00:00</time>
      </trkpt>
      <trkpt lat="0" lon="0">
        <time>2021-02-28T08:17:49.257000+00:00</time>
      </trkpt>
      <trkpt lat="0" lon="0">
        <time>2021-02-28T08:17:49.260000+00:00</time>
      </trkpt>
      <trkpt lat="47.29809" lon="-1.40263">
        <ele>84</ele>
        <time>2021-02-28T08:17:50.274000+00:00</time>
      </trkpt>
      <trkpt lat="0" lon="0">
        <time>2021-02-28T08:17:50.283000+00:00</time>
      </trkpt>
      <trkpt lat="0" lon="0">
        <time>2021-02-28T08:17:50.287000+00:00</time>
      </trkpt>
      <trkpt lat="0" lon="0">
        <time>2021-02-28T08:17:50.289000+00:00</time>
      </trkpt>
      <trkpt lat="47.2981" lon="-1.40261">
        <ele>85</ele>
        <time>2021-02-28T08:17:51.244000+00:00</time>
      </trkpt>
      <trkpt lat="0" lon="0">
        <time>2021-02-28T08:17:51.254000+00:00</time>
      </trkpt>
      <trkpt lat="0" lon="0">
        <time>2021-02-28T08:17:51.259000+00:00</time>
      </trkpt>
      <trkpt lat="0" lon="0">
        <time>2021-02-28T08:17:51.261000+00:00</time>
      </trkpt>
      <trkpt lat="47.29811" lon="-1.40258">
        <ele>84</ele>
        <time>2021-02-28T08:17:52.246000+00:00</time>
      </trkpt>
      <trkpt lat="0" lon="0">
        <time>2021-02-28T08:17:52.250000+00:00</time>
      </trkpt>
      <trkpt lat="0" lon="0">
        <time>2021-02-28T08:17:52.255000+00:00</time>
      </trkpt>
      <trkpt lat="0" lon="0">
        <time>2021-02-28T08:17:52.259000+00:00</time>
      </trkpt>
      <trkpt lat="47.29812" lon="-1.40256">
        <ele>85</ele>
        <time>2021-02-28T08:17:53.242000+00:00</time>
      </trkpt>
      <trkpt lat="0" lon="0">
        <time>2021-02-28T08:17:53.249000+00:00</time>
      </trkpt>
      <trkpt lat="0" lon="0">
        <time>2021-02-28T08:17:53.254000+00:00</time>
      </trkpt>
      <trkpt lat="0" lon="0">
        <time>2021-02-28T08:17:53.256000+00:00</time>
      </trkpt>
      <trkpt lat="47.29813" lon="-1.40253">
        <ele>84</ele>
        <time>2021-02-28T08:17:54.264000+00:00</time>
      </trkpt>
      <trkpt lat="0" lon="0">
        <time>2021-02-28T08:17:54.276000+00:00</time>
      </trkpt>
      <trkpt lat="0" lon="0">
        <time>2021-02-28T08:17:54.280000+00:00</time>
      </trkpt>
      <trkpt lat="0" lon="0">
        <time>2021-02-28T08:17:54.283000+00:00</time>
      </trkpt>
      <trkpt lat="47.29814" lon="-1.4025">
        <ele>85</ele>
        <time>2021-02-28T08:17:55.247000+00:00</time>
      </trkpt>
      <trkpt lat="0" lon="0">
        <time>2021-02-28T08:17:55.254000+00:00</time>
      </trkpt>
      <trkpt lat="0" lon="0">
        <time>2021-02-28T08:17:55.258000+00:00</time>
      </trkpt>
      <trkpt lat="0" lon="0">
        <time>2021-02-28T08:17:55.260000+00:00</time>
      </trkpt>
      <trkpt lat="47.29815" lon="-1.40247">
        <ele>84</ele>
        <time>2021-02-28T08:17:56.238000+00:00</time>
      </trkpt>
      <trkpt lat="0" lon="0">
        <time>2021-02-28T08:17:56.242000+00:00</time>
      </trkpt>
      <trkpt lat="0" lon="0">
        <time>2021-02-28T08:17:56.247000+00:00</time>
      </trkpt>
      <trkpt lat="0" lon="0">
        <time>2021-02-28T08:17:56.249000+00:00</time>
      </trkpt>
      <trkpt lat="47.29817" lon="-1.40244">
        <ele>85</ele>
        <time>2021-02-28T08:17:57.256000+00:00</time>
      </trkpt>
      <trkpt lat="0" lon="0">
        <time>2021-02-28T08:17:57.261000+00:00</time>
      </trkpt>
      <trkpt lat="0" lon="0">
        <time>2021-02-28T08:17:57.265000+00:00</time>
      </trkpt>
      <trkpt lat="0" lon="0">
        <time>2021-02-28T08:17:57.268000+00:00</time>
      </trkpt>
      <trkpt lat="47.29818" lon="-1.40241">
        <ele>85</ele>
        <time>2021-02-28T08:17:58.263000+00:00</time>
      </trkpt>
      <trkpt lat="0" lon="0">
        <time>2021-02-28T08:17:58.274000+00:00</time>
      </trkpt>
      <trkpt lat="0" lon="0">
        <time>2021-02-28T08:17:58.279000+00:00</time>
      </trkpt>
      <trkpt lat="0" lon="0">
        <time>2021-02-28T08:17:58.282000+00:00</time>
      </trkpt>
      <trkpt lat="47.29819" lon="-1.40239">
        <ele>85</ele>
        <time>2021-02-28T08:17:59.253000+00:00</time>
      </trkpt>
      <trkpt lat="0" lon="0">
        <time>2021-02-28T08:17:59.259000+00:00</time>
      </trkpt>
      <trkpt lat="0" lon="0">
        <time>2021-02-28T08:17:59.264000+00:00</time>
      </trkpt>
      <trkpt lat="0" lon="0">
        <time>2021-02-28T08:17:59.266000+00:00</time>
      </trkpt>
      <trkpt lat="47.29821" lon="-1.40236">
        <ele>85</ele>
        <time>2021-02-28T08:18:00.220000+00:00</time>
      </trkpt>
      <trkpt lat="0" lon="0">
        <time>2021-02-28T08:18:00.228000+00:00</time>
      </trkpt>
      <trkpt lat="0" lon="0">
        <time>2021-02-28T08:18:00.232000+00:00</time>
      </trkpt>
      <trkpt lat="0" lon="0">
        <time>2021-02-28T08:18:00.235000+00:00</time>
      </trkpt>
      <trkpt lat="47.29822" lon="-1.40233">
        <ele>85</ele>
        <time>2021-02-28T08:18:01.245000+00:00</time>
      </trkpt>
      <trkpt lat="0" lon="0">
        <time>2021-02-28T08:18:01.251000+00:00</time>
      </trkpt>
      <trkpt lat="0" lon="0">
        <time>2021-02-28T08:18:01.253000+00:00</time>
      </trkpt>
      <trkpt lat="0" lon="0">
        <time>2021-02-28T08:18:01.254000+00:00</time>
      </trkpt>
      <trkpt lat="47.29823" lon="-1.4023">
        <ele>85</ele>
        <time>2021-02-28T08:18:02.262000+00:00</time>
      </trkpt>
      <trkpt lat="0" lon="0">
        <time>2021-02-28T08:18:02.264000+00:00</time>
      </trkpt>
      <trkpt lat="0" lon="0">
        <time>2021-02-28T08:18:02.266000+00:00</time>
      </trkpt>
      <trkpt lat="0" lon="0">
        <time>2021-02-28T08:18:02.267000+00:00</time>
      </trkpt>
      <trkpt lat="47.29824" lon="-1.40228">
        <ele>85</ele>
        <time>2021-02-28T08:18:03.230000+00:00</time>
      </trkpt>
      <trkpt lat="0" lon="0">
        <time>2021-02-28T08:18:03.238000+00:00</time>
      </trkpt>
      <trkpt lat="0" lon="0">
        <time>2021-02-28T08:18:03.242000+00:00</time>
      </trkpt>
      <trkpt lat="0" lon="0">
        <time>2021-02-28T08:18:03.244000+00:00</time>
      </trkpt>
      <trkpt lat="47.29826" lon="-1.40225">
        <ele>85</ele>
        <time>2021-02-28T08:18:04.243000+00:00</time>
      </trkpt>
      <trkpt lat="0" lon="0">
        <time>2021-02-28T08:18:04.250000+00:00</time>
      </trkpt>
      <trkpt lat="0" lon="0">
        <time>2021-02-28T08:18:04.254000+00:00</time>
      </trkpt>
      <trkpt lat="0" lon="0">
        <time>2021-02-28T08:18:04.256000+00:00</time>
      </trkpt>
      <trkpt lat="47.29827" lon="-1.40223">
        <ele>85</ele>
        <time>2021-02-28T08:18:05.258000+00:00</time>
      </trkpt>
      <trkpt lat="0" lon="0">
        <time>2021-02-28T08:18:05.260000+00:00</time>
      </trkpt>
      <trkpt lat="0" lon="0">
        <time>2021-02-28T08:18:05.263000+00:00</time>
      </trkpt>
      <trkpt lat="0" lon="0">
        <time>2021-02-28T08:18:05.264000+00:00</time>
      </trkpt>
      <trkpt lat="47.29828" lon="-1.4022">
        <ele>86</ele>
        <time>2021-02-28T08:18:06.266000+00:00</time>
      </trkpt>
      <trkpt lat="0" lon="0">
        <time>2021-02-28T08:18:06.275000+00:00</time>
      </trkpt>
      <trkpt lat="0" lon="0">
        <time>2021-02-28T08:18:06.279000+00:00</time>
      </trkpt>
      <trkpt lat="0" lon="0">
        <time>2021-02-28T08:18:06.281000+00:00</time>
      </trkpt>
      <trkpt lat="47.29829" lon="-1.40218">
        <ele>86</ele>
        <time>2021-02-28T08:18:07.260000+00:00</time>
      </trkpt>
      <trkpt lat="0" lon="0">
        <time>2021-02-28T08:18:07.269000+00:00</time>
      </trkpt>
      <trkpt lat="0" lon="0">
        <time>2021-02-28T08:18:07.275000+00:00</time>
      </trkpt>
      <trkpt lat="0" lon="0">
        <time>2021-02-28T08:18:07.278000+00:00</time>
      </trkpt>
      <trkpt lat="47.2983" lon="-1.40216">
        <ele>87</ele>
        <time>2021-02-28T08:18:08.249000+00:00</time>
      </trkpt>
      <trkpt lat="0" lon="0">
        <time>2021-02-28T08:18:08.252000+00:00</time>
      </trkpt>
      <trkpt lat="0" lon="0">
        <time>2021-02-28T08:18:08.255000+00:00</time>
      </trkpt>
      <trkpt lat="0" lon="0">
        <time>2021-02-28T08:18:08.257000+00:00</time>
      </trkpt>
      <trkpt lat="47.29832" lon="-1.40213">
        <ele>87</ele>
        <time>2021-02-28T08:18:09.244000+00:00</time>
      </trkpt>
      <trkpt lat="0" lon="0">
        <time>2021-02-28T08:18:09.248000+00:00</time>
      </trkpt>
      <trkpt lat="0" lon="0">
        <time>2021-02-28T08:18:09.252000+00:00</time>
      </trkpt>
      <trkpt lat="0" lon="0">
        <time>2021-02-28T08:18:09.254000+00:00</time>
      </trkpt>
      <trkpt lat="47.29833" lon="-1.40211">
        <ele>87</ele>
        <time>2021-02-28T08:18:10.234000+00:00</time>
      </trkpt>
      <trkpt lat="0" lon="0">
        <time>2021-02-28T08:18:10.238000+00:00</time>
      </trkpt>
      <trkpt lat="0" lon="0">
        <time>2021-02-28T08:18:10.241000+00:00</time>
      </trkpt>
      <trkpt lat="0" lon="0">
        <time>2021-02-28T08:18:10.242000+00:00</time>
      </trkpt>
      <trkpt lat="47.29834" lon="-1.40209">
        <ele>87</ele>
        <time>2021-02-28T08:18:11.227000+00:00</time>
      </trkpt>
      <trkpt lat="0" lon="0">
        <time>2021-02-28T08:18:11.229000+00:00</time>
      </trkpt>
      <trkpt lat="0" lon="0">
        <time>2021-02-28T08:18:11.231000+00:00</time>
      </trkpt>
      <trkpt lat="0" lon="0">
        <time>2021-02-28T08:18:11.233000+00:00</time>
      </trkpt>
      <trkpt lat="47.29835" lon="-1.40206">
        <ele>88</ele>
        <time>2021-02-28T08:18:12.227000+00:00</time>
      </trkpt>
      <trkpt lat="0" lon="0">
        <time>2021-02-28T08:18:12.236000+00:00</time>
      </trkpt>
      <trkpt lat="0" lon="0">
        <time>2021-02-28T08:18:12.240000+00:00</time>
      </trkpt>
      <trkpt lat="0" lon="0">
        <time>2021-02-28T08:18:12.242000+00:00</time>
      </trkpt>
      <trkpt lat="47.29836" lon="-1.40204">
        <ele>88</ele>
        <time>2021-02-28T08:18:13.246000+00:00</time>
      </trkpt>
      <trkpt lat="0" lon="0">
        <time>2021-02-28T08:18:13.253000+00:00</time>
      </trkpt>
      <trkpt lat="0" lon="0">
        <time>2021-02-28T08:18:13.257000+00:00</time>
      </trkpt>
      <trkpt lat="0" lon="0">
        <time>2021-02-28T08:18:13.259000+00:00</time>
      </trkpt>
      <trkpt lat="47.29837" lon="-1.40202">
        <ele>88</ele>
        <time>2021-02-28T08:18:14.240000+00:00</time>
      </trkpt>
      <trkpt lat="0" lon="0">
        <time>2021-02-28T08:18:14.245000+00:00</time>
      </trkpt>
      <trkpt lat="0" lon="0">
        <time>2021-02-28T08:18:14.251000+00:00</time>
      </trkpt>
      <trkpt lat="0" lon="0">
        <time>2021-02-28T08:18:14.253000+00:00</time>
      </trkpt>
      <trkpt lat="47.29838" lon="-1.40199">
        <ele>87</ele>
        <time>2021-02-28T08:18:15.259000+00:00</time>
      </trkpt>
      <trkpt lat="0" lon="0">
        <time>2021-02-28T08:18:15.266000+00:00</time>
      </trkpt>
      <trkpt lat="0" lon="0">
        <time>2021-02-28T08:18:15.270000+00:00</time>
      </trkpt>
      <trkpt lat="0" lon="0">
        <time>2021-02-28T08:18:15.272000+00:00</time>
      </trkpt>
      <trkpt lat="47.29838" lon="-1.40197">
        <ele>87</ele>
        <time>2021-02-28T08:18:16.257000+00:00</time>
      </trkpt>
      <trkpt lat="0" lon="0">
        <time>2021-02-28T08:18:16.268000+00:00</time>
      </trkpt>
      <trkpt lat="0" lon="0">
        <time>2021-02-28T08:18:16.274000+00:00</time>
      </trkpt>
      <trkpt lat="0" lon="0">
        <time>2021-02-28T08:18:16.276000+00:00</time>
      </trkpt>
      <trkpt lat="47.29839" lon="-1.40195">
        <ele>87</ele>
        <time>2021-02-28T08:18:17.238000+00:00</time>
      </trkpt>
      <trkpt lat="0" lon="0">
        <time>2021-02-28T08:18:17.244000+00:00</time>
      </trkpt>
      <trkpt lat="0" lon="0">
        <time>2021-02-28T08:18:17.248000+00:00</time>
      </trkpt>
      <trkpt lat="0" lon="0">
        <time>2021-02-28T08:18:17.250000+00:00</time>
      </trkpt>
      <trkpt lat="47.2984" lon="-1.40192">
        <ele>87</ele>
        <time>2021-02-28T08:18:18.257000+00:00</time>
      </trkpt>
      <trkpt lat="0" lon="0">
        <time>2021-02-28T08:18:18.261000+00:00</time>
      </trkpt>
      <trkpt lat="0" lon="0">
        <time>2021-02-28T08:18:18.265000+00:00</time>
      </trkpt>
      <trkpt lat="0" lon="0">
        <time>2021-02-28T08:18:18.267000+00:00</time>
      </trkpt>
      <trkpt lat="47.29841" lon="-1.4019">
        <ele>87</ele>
        <time>2021-02-28T08:18:19.251000+00:00</time>
      </trkpt>
      <trkpt lat="0" lon="0">
        <time>2021-02-28T08:18:19.258000+00:00</time>
      </trkpt>
      <trkpt lat="0" lon="0">
        <time>2021-02-28T08:18:19.262000+00:00</time>
      </trkpt>
      <trkpt lat="0" lon="0">
        <time>2021-02-28T08:18:19.266000+00:00</time>
      </trkpt>
      <trkpt lat="47.29841" lon="-1.40188">
        <ele>87</ele>
        <time>2021-02-28T08:18:20.242000+00:00</time>
      </trkpt>
      <trkpt lat="0" lon="0">
        <time>2021-02-28T08:18:20.248000+00:00</time>
      </trkpt>
      <trkpt lat="0" lon="0">
        <time>2021-02-28T08:18:20.253000+00:00</time>
      </trkpt>
      <trkpt lat="0" lon="0">
        <time>2021-02-28T08:18:20.256000+00:00</time>
      </trkpt>
      <trkpt lat="47.29842" lon="-1.40185">
        <ele>87</ele>
        <time>2021-02-28T08:18:21.247000+00:00</time>
      </trkpt>
      <trkpt lat="0" lon="0">
        <time>2021-02-28T08:18:21.249000+00:00</time>
      </trkpt>
      <trkpt lat="0" lon="0">
        <time>2021-02-28T08:18:21.250000+00:00</time>
      </trkpt>
      <trkpt lat="0" lon="0">
        <time>2021-02-28T08:18:21.251000+00:00</time>
      </trkpt>
      <trkpt lat="47.29843" lon="-1.40183">
        <ele>87</ele>
        <time>2021-02-28T08:18:22.243000+00:00</time>
      </trkpt>
      <trkpt lat="0" lon="0">
        <time>2021-02-28T08:18:22.252000+00:00</time>
      </trkpt>
      <trkpt lat="0" lon="0">
        <time>2021-02-28T08:18:22.257000+00:00</time>
      </trkpt>
      <trkpt lat="0" lon="0">
        <time>2021-02-28T08:18:22.259000+00:00</time>
      </trkpt>
      <trkpt lat="47.29844" lon="-1.40181">
        <ele>87</ele>
        <time>2021-02-28T08:18:23.237000+00:00</time>
      </trkpt>
      <trkpt lat="0" lon="0">
        <time>2021-02-28T08:18:23.249000+00:00</time>
      </trkpt>
      <trkpt lat="0" lon="0">
        <time>2021-02-28T08:18:23.253000+00:00</time>
      </trkpt>
      <trkpt lat="0" lon="0">
        <time>2021-02-28T08:18:23.255000+00:00</time>
      </trkpt>
      <trkpt lat="47.29845" lon="-1.40179">
        <ele>88</ele>
        <time>2021-02-28T08:18:24.232000+00:00</time>
      </trkpt>
      <trkpt lat="0" lon="0">
        <time>2021-02-28T08:18:24.242000+00:00</time>
      </trkpt>
      <trkpt lat="0" lon="0">
        <time>2021-02-28T08:18:24.247000+00:00</time>
      </trkpt>
      <trkpt lat="0" lon="0">
        <time>2021-02-28T08:18:24.249000+00:00</time>
      </trkpt>
      <trkpt lat="47.29846" lon="-1.40177">
        <ele>88</ele>
        <time>2021-02-28T08:18:25.233000+00:00</time>
      </trkpt>
      <trkpt lat="0" lon="0">
        <time>2021-02-28T08:18:25.235000+00:00</time>
      </trkpt>
      <trkpt lat="0" lon="0">
        <time>2021-02-28T08:18:25.238000+00:00</time>
      </trkpt>
      <trkpt lat="0" lon="0">
        <time>2021-02-28T08:18:25.239000+00:00</time>
      </trkpt>
      <trkpt lat="47.29847" lon="-1.40175">
        <ele>88</ele>
        <time>2021-02-28T08:18:26.270000+00:00</time>
      </trkpt>
      <trkpt lat="0" lon="0">
        <time>2021-02-28T08:18:26.274000+00:00</time>
      </trkpt>
      <trkpt lat="0" lon="0">
        <time>2021-02-28T08:18:26.278000+00:00</time>
      </trkpt>
      <trkpt lat="0" lon="0">
        <time>2021-02-28T08:18:26.281000+00:00</time>
      </trkpt>
      <trkpt lat="47.29848" lon="-1.40173">
        <ele>88</ele>
        <time>2021-02-28T08:18:27.247000+00:00</time>
      </trkpt>
      <trkpt lat="0" lon="0">
        <time>2021-02-28T08:18:27.254000+00:00</time>
      </trkpt>
      <trkpt lat="0" lon="0">
        <time>2021-02-28T08:18:27.255000+00:00</time>
      </trkpt>
      <trkpt lat="0" lon="0">
        <time>2021-02-28T08:18:27.256000+00:00</time>
      </trkpt>
      <trkpt lat="47.29849" lon="-1.40171">
        <ele>88</ele>
        <time>2021-02-28T08:18:28.258000+00:00</time>
      </trkpt>
      <trkpt lat="0" lon="0">
        <time>2021-02-28T08:18:28.268000+00:00</time>
      </trkpt>
      <trkpt lat="0" lon="0">
        <time>2021-02-28T08:18:28.274000+00:00</time>
      </trkpt>
      <trkpt lat="0" lon="0">
        <time>2021-02-28T08:18:28.276000+00:00</time>
      </trkpt>
      <trkpt lat="47.29849" lon="-1.40169">
        <ele>88</ele>
        <time>2021-02-28T08:18:29.261000+00:00</time>
      </trkpt>
      <trkpt lat="0" lon="0">
        <time>2021-02-28T08:18:29.266000+00:00</time>
      </trkpt>
      <trkpt lat="0" lon="0">
        <time>2021-02-28T08:18:29.270000+00:00</time>
      </trkpt>
      <trkpt lat="0" lon="0">
        <time>2021-02-28T08:18:29.272000+00:00</time>
      </trkpt>
      <trkpt lat="47.2985" lon="-1.40167">
        <ele>88</ele>
        <time>2021-02-28T08:18:30.256000+00:00</time>
      </trkpt>
      <trkpt lat="0" lon="0">
        <time>2021-02-28T08:18:30.267000+00:00</time>
      </trkpt>
      <trkpt lat="0" lon="0">
        <time>2021-02-28T08:18:30.271000+00:00</time>
      </trkpt>
      <trkpt lat="0" lon="0">
        <time>2021-02-28T08:18:30.273000+00:00</time>
      </trkpt>
      <trkpt lat="47.29851" lon="-1.40165">
        <ele>88</ele>
        <time>2021-02-28T08:18:31.253000+00:00</time>
      </trkpt>
      <trkpt lat="0" lon="0">
        <time>2021-02-28T08:18:31.259000+00:00</time>
      </trkpt>
      <trkpt lat="0" lon="0">
        <time>2021-02-28T08:18:31.263000+00:00</time>
      </trkpt>
      <trkpt lat="0" lon="0">
        <time>2021-02-28T08:18:31.266000+00:00</time>
      </trkpt>
      <trkpt lat="47.29851" lon="-1.40163">
        <ele>88</ele>
        <time>2021-02-28T08:18:32.256000+00:00</time>
      </trkpt>
      <trkpt lat="0" lon="0">
        <time>2021-02-28T08:18:32.264000+00:00</time>
      </trkpt>
      <trkpt lat="0" lon="0">
        <time>2021-02-28T08:18:32.268000+00:00</time>
      </trkpt>
      <trkpt lat="0" lon="0">
        <time>2021-02-28T08:18:32.270000+00:00</time>
      </trkpt>
      <trkpt lat="47.29852" lon="-1.40161">
        <ele>88</ele>
        <time>2021-02-28T08:18:33.248000+00:00</time>
      </trkpt>
      <trkpt lat="0" lon="0">
        <time>2021-02-28T08:18:33.255000+00:00</time>
      </trkpt>
      <trkpt lat="0" lon="0">
        <time>2021-02-28T08:18:33.257000+00:00</time>
      </trkpt>
      <trkpt lat="0" lon="0">
        <time>2021-02-28T08:18:33.258000+00:00</time>
      </trkpt>
      <trkpt lat="47.29852" lon="-1.40159">
        <ele>89</ele>
        <time>2021-02-28T08:18:34.258000+00:00</time>
      </trkpt>
      <trkpt lat="0" lon="0">
        <time>2021-02-28T08:18:34.261000+00:00</time>
      </trkpt>
      <trkpt lat="0" lon="0">
        <time>2021-02-28T08:18:34.263000+00:00</time>
      </trkpt>
      <trkpt lat="0" lon="0">
        <time>2021-02-28T08:18:34.264000+00:00</time>
      </trkpt>
      <trkpt lat="47.29853" lon="-1.40158">
        <ele>89</ele>
        <time>2021-02-28T08:18:35.250000+00:00</time>
      </trkpt>
      <trkpt lat="0" lon="0">
        <time>2021-02-28T08:18:35.257000+00:00</time>
      </trkpt>
      <trkpt lat="0" lon="0">
        <time>2021-02-28T08:18:35.264000+00:00</time>
      </trkpt>
      <trkpt lat="0" lon="0">
        <time>2021-02-28T08:18:35.266000+00:00</time>
      </trkpt>
      <trkpt lat="47.29854" lon="-1.40156">
        <ele>89</ele>
        <time>2021-02-28T08:18:36.252000+00:00</time>
      </trkpt>
      <trkpt lat="0" lon="0">
        <time>2021-02-28T08:18:36.264000+00:00</time>
      </trkpt>
      <trkpt lat="0" lon="0">
        <time>2021-02-28T08:18:36.271000+00:00</time>
      </trkpt>
      <trkpt lat="0" lon="0">
        <time>2021-02-28T08:18:36.273000+00:00</time>
      </trkpt>
      <trkpt lat="47.29854" lon="-1.40155">
        <ele>89</ele>
        <time>2021-02-28T08:18:37.238000+00:00</time>
      </trkpt>
      <trkpt lat="0" lon="0">
        <time>2021-02-28T08:18:37.247000+00:00</time>
      </trkpt>
      <trkpt lat="0" lon="0">
        <time>2021-02-28T08:18:37.254000+00:00</time>
      </trkpt>
      <trkpt lat="0" lon="0">
        <time>2021-02-28T08:18:37.256000+00:00</time>
      </trkpt>
      <trkpt lat="47.29855" lon="-1.40154">
        <ele>91</ele>
        <time>2021-02-28T08:18:38.268000+00:00</time>
      </trkpt>
      <trkpt lat="0" lon="0">
        <time>2021-02-28T08:18:38.275000+00:00</time>
      </trkpt>
      <trkpt lat="0" lon="0">
        <time>2021-02-28T08:18:38.281000+00:00</time>
      </trkpt>
      <trkpt lat="0" lon="0">
        <time>2021-02-28T08:18:38.283000+00:00</time>
      </trkpt>
      <trkpt lat="47.29856" lon="-1.40152">
        <ele>91</ele>
        <time>2021-02-28T08:18:39.260000+00:00</time>
      </trkpt>
      <trkpt lat="0" lon="0">
        <time>2021-02-28T08:18:39.270000+00:00</time>
      </trkpt>
      <trkpt lat="0" lon="0">
        <time>2021-02-28T08:18:39.274000+00:00</time>
      </trkpt>
      <trkpt lat="0" lon="0">
        <time>2021-02-28T08:18:39.279000+00:00</time>
      </trkpt>
      <trkpt lat="47.29856" lon="-1.4015">
        <ele>91</ele>
        <time>2021-02-28T08:18:40.267000+00:00</time>
      </trkpt>
      <trkpt lat="0" lon="0">
        <time>2021-02-28T08:18:40.276000+00:00</time>
      </trkpt>
      <trkpt lat="0" lon="0">
        <time>2021-02-28T08:18:40.280000+00:00</time>
      </trkpt>
      <trkpt lat="0" lon="0">
        <time>2021-02-28T08:18:40.281000+00:00</time>
      </trkpt>
      <trkpt lat="47.29857" lon="-1.40148">
        <ele>91</ele>
        <time>2021-02-28T08:18:41.255000+00:00</time>
      </trkpt>
      <trkpt lat="0" lon="0">
        <time>2021-02-28T08:18:41.262000+00:00</time>
      </trkpt>
      <trkpt lat="0" lon="0">
        <time>2021-02-28T08:18:41.266000+00:00</time>
      </trkpt>
      <trkpt lat="0" lon="0">
        <time>2021-02-28T08:18:41.269000+00:00</time>
      </trkpt>
      <trkpt lat="47.29858" lon="-1.40146">
        <ele>92</ele>
        <time>2021-02-28T08:18:42.248000+00:00</time>
      </trkpt>
      <trkpt lat="0" lon="0">
        <time>2021-02-28T08:18:42.257000+00:00</time>
      </trkpt>
      <trkpt lat="0" lon="0">
        <time>2021-02-28T08:18:42.259000+00:00</time>
      </trkpt>
      <trkpt lat="0" lon="0">
        <time>2021-02-28T08:18:42.260000+00:00</time>
      </trkpt>
      <trkpt lat="47.29859" lon="-1.40143">
        <ele>91</ele>
        <time>2021-02-28T08:18:43.245000+00:00</time>
      </trkpt>
      <trkpt lat="0" lon="0">
        <time>2021-02-28T08:18:43.255000+00:00</time>
      </trkpt>
      <trkpt lat="0" lon="0">
        <time>2021-02-28T08:18:43.259000+00:00</time>
      </trkpt>
      <trkpt lat="0" lon="0">
        <time>2021-02-28T08:18:43.261000+00:00</time>
      </trkpt>
      <trkpt lat="47.2986" lon="-1.40141">
        <ele>91</ele>
        <time>2021-02-28T08:18:44.286000+00:00</time>
      </trkpt>
      <trkpt lat="0" lon="0">
        <time>2021-02-28T08:18:44.289000+00:00</time>
      </trkpt>
      <trkpt lat="0" lon="0">
        <time>2021-02-28T08:18:44.293000+00:00</time>
      </trkpt>
      <trkpt lat="0" lon="0">
        <time>2021-02-28T08:18:44.295000+00:00</time>
      </trkpt>
      <trkpt lat="47.29862" lon="-1.40139">
        <ele>92</ele>
        <time>2021-02-28T08:18:45.261000+00:00</time>
      </trkpt>
      <trkpt lat="0" lon="0">
        <time>2021-02-28T08:18:45.272000+00:00</time>
      </trkpt>
      <trkpt lat="0" lon="0">
        <time>2021-02-28T08:18:45.276000+00:00</time>
      </trkpt>
      <trkpt lat="0" lon="0">
        <time>2021-02-28T08:18:45.277000+00:00</time>
      </trkpt>
      <trkpt lat="47.29863" lon="-1.40136">
        <ele>91</ele>
        <time>2021-02-28T08:18:46.266000+00:00</time>
      </trkpt>
      <trkpt lat="0" lon="0">
        <time>2021-02-28T08:18:46.277000+00:00</time>
      </trkpt>
      <trkpt lat="0" lon="0">
        <time>2021-02-28T08:18:46.281000+00:00</time>
      </trkpt>
      <trkpt lat="0" lon="0">
        <time>2021-02-28T08:18:46.284000+00:00</time>
      </trkpt>
      <trkpt lat="47.29864" lon="-1.40133">
        <ele>92</ele>
        <time>2021-02-28T08:18:47.244000+00:00</time>
      </trkpt>
      <trkpt lat="0" lon="0">
        <time>2021-02-28T08:18:47.252000+00:00</time>
      </trkpt>
      <trkpt lat="0" lon="0">
        <time>2021-02-28T08:18:47.256000+00:00</time>
      </trkpt>
      <trkpt lat="0" lon="0">
        <time>2021-02-28T08:18:47.259000+00:00</time>
      </trkpt>
      <trkpt lat="47.29865" lon="-1.40131">
        <ele>92</ele>
        <time>2021-02-28T08:18:48.239000+00:00</time>
      </trkpt>
      <trkpt lat="0" lon="0">
        <time>2021-02-28T08:18:48.246000+00:00</time>
      </trkpt>
      <trkpt lat="0" lon="0">
        <time>2021-02-28T08:18:48.250000+00:00</time>
      </trkpt>
      <trkpt lat="0" lon="0">
        <time>2021-02-28T08:18:48.252000+00:00</time>
      </trkpt>
      <trkpt lat="47.29867" lon="-1.40128">
        <ele>92</ele>
        <time>2021-02-28T08:18:49.261000+00:00</time>
      </trkpt>
      <trkpt lat="0" lon="0">
        <time>2021-02-28T08:18:49.263000+00:00</time>
      </trkpt>
      <trkpt lat="0" lon="0">
        <time>2021-02-28T08:18:49.266000+00:00</time>
      </trkpt>
      <trkpt lat="0" lon="0">
        <time>2021-02-28T08:18:49.267000+00:00</time>
      </trkpt>
      <trkpt lat="47.29868" lon="-1.40125">
        <ele>92</ele>
        <time>2021-02-28T08:18:50.270000+00:00</time>
      </trkpt>
      <trkpt lat="0" lon="0">
        <time>2021-02-28T08:18:50.282000+00:00</time>
      </trkpt>
      <trkpt lat="0" lon="0">
        <time>2021-02-28T08:18:50.289000+00:00</time>
      </trkpt>
      <trkpt lat="0" lon="0">
        <time>2021-02-28T08:18:50.293000+00:00</time>
      </trkpt>
      <trkpt lat="47.2987" lon="-1.40123">
        <ele>92</ele>
        <time>2021-02-28T08:18:51.253000+00:00</time>
      </trkpt>
      <trkpt lat="0" lon="0">
        <time>2021-02-28T08:18:51.260000+00:00</time>
      </trkpt>
      <trkpt lat="0" lon="0">
        <time>2021-02-28T08:18:51.264000+00:00</time>
      </trkpt>
      <trkpt lat="0" lon="0">
        <time>2021-02-28T08:18:51.267000+00:00</time>
      </trkpt>
      <trkpt lat="47.29871" lon="-1.4012">
        <ele>93</ele>
        <time>2021-02-28T08:18:52.256000+00:00</time>
      </trkpt>
      <trkpt lat="0" lon="0">
        <time>2021-02-28T08:18:52.268000+00:00</time>
      </trkpt>
      <trkpt lat="0" lon="0">
        <time>2021-02-28T08:18:52.274000+00:00</time>
      </trkpt>
      <trkpt lat="0" lon="0">
        <time>2021-02-28T08:18:52.277000+00:00</time>
      </trkpt>
      <trkpt lat="47.29873" lon="-1.40117">
        <ele>93</ele>
        <time>2021-02-28T08:18:53.253000+00:00</time>
      </trkpt>
      <trkpt lat="0" lon="0">
        <time>2021-02-28T08:18:53.259000+00:00</time>
      </trkpt>
      <trkpt lat="0" lon="0">
        <time>2021-02-28T08:18:53.263000+00:00</time>
      </trkpt>
      <trkpt lat="0" lon="0">
        <time>2021-02-28T08:18:53.265000+00:00</time>
      </trkpt>
      <trkpt lat="47.29874" lon="-1.40115">
        <ele>93</ele>
        <time>2021-02-28T08:18:54.240000+00:00</time>
      </trkpt>
      <trkpt lat="0" lon="0">
        <time>2021-02-28T08:18:54.247000+00:00</time>
      </trkpt>
      <trkpt lat="0" lon="0">
        <time>2021-02-28T08:18:54.253000+00:00</time>
      </trkpt>
      <trkpt lat="0" lon="0">
        <time>2021-02-28T08:18:54.260000+00:00</time>
      </trkpt>
      <trkpt lat="47.29875" lon="-1.40112">
        <ele>93</ele>
        <time>2021-02-28T08:18:55.245000+00:00</time>
      </trkpt>
      <trkpt lat="0" lon="0">
        <time>2021-02-28T08:18:55.252000+00:00</time>
      </trkpt>
      <trkpt lat="0" lon="0">
        <time>2021-02-28T08:18:55.258000+00:00</time>
      </trkpt>
      <trkpt lat="0" lon="0">
        <time>2021-02-28T08:18:55.260000+00:00</time>
      </trkpt>
      <trkpt lat="47.29876" lon="-1.40109">
        <ele>93</ele>
        <time>2021-02-28T08:18:56.256000+00:00</time>
      </trkpt>
      <trkpt lat="0" lon="0">
        <time>2021-02-28T08:18:56.258000+00:00</time>
      </trkpt>
      <trkpt lat="0" lon="0">
        <time>2021-02-28T08:18:56.262000+00:00</time>
      </trkpt>
      <trkpt lat="0" lon="0">
        <time>2021-02-28T08:18:56.264000+00:00</time>
      </trkpt>
      <trkpt lat="47.29877" lon="-1.40107">
        <ele>93</ele>
        <time>2021-02-28T08:18:57.249000+00:00</time>
      </trkpt>
      <trkpt lat="0" lon="0">
        <time>2021-02-28T08:18:57.251000+00:00</time>
      </trkpt>
      <trkpt lat="0" lon="0">
        <time>2021-02-28T08:18:57.252000+00:00</time>
      </trkpt>
      <trkpt lat="0" lon="0">
        <time>2021-02-28T08:18:57.254000+00:00</time>
      </trkpt>
      <trkpt lat="47.29879" lon="-1.40104">
        <ele>93</ele>
        <time>2021-02-28T08:18:58.260000+00:00</time>
      </trkpt>
      <trkpt lat="0" lon="0">
        <time>2021-02-28T08:18:58.267000+00:00</time>
      </trkpt>
      <trkpt lat="0" lon="0">
        <time>2021-02-28T08:18:58.271000+00:00</time>
      </trkpt>
      <trkpt lat="0" lon="0">
        <time>2021-02-28T08:18:58.273000+00:00</time>
      </trkpt>
      <trkpt lat="47.2988" lon="-1.40102">
        <ele>93</ele>
        <time>2021-02-28T08:18:59.255000+00:00</time>
      </trkpt>
      <trkpt lat="0" lon="0">
        <time>2021-02-28T08:18:59.260000+00:00</time>
      </trkpt>
      <trkpt lat="0" lon="0">
        <time>2021-02-28T08:18:59.270000+00:00</time>
      </trkpt>
      <trkpt lat="0" lon="0">
        <time>2021-02-28T08:18:59.272000+00:00</time>
      </trkpt>
      <trkpt lat="47.2988" lon="-1.40099">
        <ele>94</ele>
        <time>2021-02-28T08:19:00.244000+00:00</time>
      </trkpt>
      <trkpt lat="0" lon="0">
        <time>2021-02-28T08:19:00.252000+00:00</time>
      </trkpt>
      <trkpt lat="0" lon="0">
        <time>2021-02-28T08:19:00.256000+00:00</time>
      </trkpt>
      <trkpt lat="0" lon="0">
        <time>2021-02-28T08:19:00.259000+00:00</time>
      </trkpt>
      <trkpt lat="47.29881" lon="-1.40097">
        <ele>94</ele>
        <time>2021-02-28T08:19:01.230000+00:00</time>
      </trkpt>
      <trkpt lat="0" lon="0">
        <time>2021-02-28T08:19:01.232000+00:00</time>
      </trkpt>
      <trkpt lat="0" lon="0">
        <time>2021-02-28T08:19:01.235000+00:00</time>
      </trkpt>
      <trkpt lat="0" lon="0">
        <time>2021-02-28T08:19:01.236000+00:00</time>
      </trkpt>
      <trkpt lat="47.29882" lon="-1.40095">
        <ele>93</ele>
        <time>2021-02-28T08:19:02.237000+00:00</time>
      </trkpt>
      <trkpt lat="0" lon="0">
        <time>2021-02-28T08:19:02.240000+00:00</time>
      </trkpt>
      <trkpt lat="0" lon="0">
        <time>2021-02-28T08:19:02.244000+00:00</time>
      </trkpt>
      <trkpt lat="0" lon="0">
        <time>2021-02-28T08:19:02.246000+00:00</time>
      </trkpt>
      <trkpt lat="47.29883" lon="-1.40093">
        <ele>93</ele>
        <time>2021-02-28T08:19:03.242000+00:00</time>
      </trkpt>
      <trkpt lat="0" lon="0">
        <time>2021-02-28T08:19:03.252000+00:00</time>
      </trkpt>
      <trkpt lat="0" lon="0">
        <time>2021-02-28T08:19:03.259000+00:00</time>
      </trkpt>
      <trkpt lat="0" lon="0">
        <time>2021-02-28T08:19:03.261000+00:00</time>
      </trkpt>
      <trkpt lat="47.29883" lon="-1.40091">
        <ele>93</ele>
        <time>2021-02-28T08:19:04.251000+00:00</time>
      </trkpt>
      <trkpt lat="0" lon="0">
        <time>2021-02-28T08:19:04.260000+00:00</time>
      </trkpt>
      <trkpt lat="0" lon="0">
        <time>2021-02-28T08:19:04.267000+00:00</time>
      </trkpt>
      <trkpt lat="0" lon="0">
        <time>2021-02-28T08:19:04.269000+00:00</time>
      </trkpt>
      <trkpt lat="47.29883" lon="-1.40089">
        <ele>93</ele>
        <time>2021-02-28T08:19:05.259000+00:00</time>
      </trkpt>
      <trkpt lat="0" lon="0">
        <time>2021-02-28T08:19:05.264000+00:00</time>
      </trkpt>
      <trkpt lat="0" lon="0">
        <time>2021-02-28T08:19:05.266000+00:00</time>
      </trkpt>
      <trkpt lat="0" lon="0">
        <time>2021-02-28T08:19:05.267000+00:00</time>
      </trkpt>
      <trkpt lat="47.29884" lon="-1.40087">
        <ele>93</ele>
        <time>2021-02-28T08:19:06.228000+00:00</time>
      </trkpt>
      <trkpt lat="0" lon="0">
        <time>2021-02-28T08:19:06.232000+00:00</time>
      </trkpt>
      <trkpt lat="0" lon="0">
        <time>2021-02-28T08:19:06.236000+00:00</time>
      </trkpt>
      <trkpt lat="0" lon="0">
        <time>2021-02-28T08:19:06.240000+00:00</time>
      </trkpt>
      <trkpt lat="47.29884" lon="-1.40085">
        <ele>93</ele>
        <time>2021-02-28T08:19:07.259000+00:00</time>
      </trkpt>
      <trkpt lat="0" lon="0">
        <time>2021-02-28T08:19:07.266000+00:00</time>
      </trkpt>
      <trkpt lat="0" lon="0">
        <time>2021-02-28T08:19:07.268000+00:00</time>
      </trkpt>
      <trkpt lat="0" lon="0">
        <time>2021-02-28T08:19:07.269000+00:00</time>
      </trkpt>
      <trkpt lat="47.29885" lon="-1.40083">
        <ele>93</ele>
        <time>2021-02-28T08:19:08.225000+00:00</time>
      </trkpt>
      <trkpt lat="0" lon="0">
        <time>2021-02-28T08:19:08.230000+00:00</time>
      </trkpt>
      <trkpt lat="0" lon="0">
        <time>2021-02-28T08:19:08.234000+00:00</time>
      </trkpt>
      <trkpt lat="0" lon="0">
        <time>2021-02-28T08:19:08.236000+00:00</time>
      </trkpt>
      <trkpt lat="47.29885" lon="-1.4008">
        <ele>93</ele>
        <time>2021-02-28T08:19:09.249000+00:00</time>
      </trkpt>
      <trkpt lat="0" lon="0">
        <time>2021-02-28T08:19:09.253000+00:00</time>
      </trkpt>
      <trkpt lat="0" lon="0">
        <time>2021-02-28T08:19:09.259000+00:00</time>
      </trkpt>
      <trkpt lat="0" lon="0">
        <time>2021-02-28T08:19:09.262000+00:00</time>
      </trkpt>
      <trkpt lat="47.29886" lon="-1.40078">
        <ele>94</ele>
        <time>2021-02-28T08:19:10.288000+00:00</time>
      </trkpt>
      <trkpt lat="0" lon="0">
        <time>2021-02-28T08:19:10.300000+00:00</time>
      </trkpt>
      <trkpt lat="0" lon="0">
        <time>2021-02-28T08:19:10.304000+00:00</time>
      </trkpt>
      <trkpt lat="0" lon="0">
        <time>2021-02-28T08:19:10.307000+00:00</time>
      </trkpt>
      <trkpt lat="47.29886" lon="-1.40076">
        <ele>94</ele>
        <time>2021-02-28T08:19:11.287000+00:00</time>
      </trkpt>
      <trkpt lat="0" lon="0">
        <time>2021-02-28T08:19:11.300000+00:00</time>
      </trkpt>
      <trkpt lat="0" lon="0">
        <time>2021-02-28T08:19:11.306000+00:00</time>
      </trkpt>
      <trkpt lat="0" lon="0">
        <time>2021-02-28T08:19:11.308000+00:00</time>
      </trkpt>
      <trkpt lat="47.29887" lon="-1.40074">
        <ele>94</ele>
        <time>2021-02-28T08:19:12.315000+00:00</time>
      </trkpt>
      <trkpt lat="0" lon="0">
        <time>2021-02-28T08:19:12.319000+00:00</time>
      </trkpt>
      <trkpt lat="0" lon="0">
        <time>2021-02-28T08:19:12.323000+00:00</time>
      </trkpt>
      <trkpt lat="0" lon="0">
        <time>2021-02-28T08:19:12.325000+00:00</time>
      </trkpt>
      <trkpt lat="47.29888" lon="-1.40072">
        <ele>94</ele>
        <time>2021-02-28T08:19:13.263000+00:00</time>
      </trkpt>
      <trkpt lat="0" lon="0">
        <time>2021-02-28T08:19:13.264000+00:00</time>
      </trkpt>
      <trkpt lat="0" lon="0">
        <time>2021-02-28T08:19:13.266000+00:00</time>
      </trkpt>
      <trkpt lat="47.29888" lon="-1.40069">
        <ele>93</ele>
        <time>2021-02-28T08:19:14.296000+00:00</time>
      </trkpt>
      <trkpt lat="0" lon="0">
        <time>2021-02-28T08:19:14.305000+00:00</time>
      </trkpt>
      <trkpt lat="0" lon="0">
        <time>2021-02-28T08:19:14.310000+00:00</time>
      </trkpt>
      <trkpt lat="0" lon="0">
        <time>2021-02-28T08:19:14.312000+00:00</time>
      </trkpt>
      <trkpt lat="47.29889" lon="-1.40067">
        <ele>93</ele>
        <time>2021-02-28T08:19:15.256000+00:00</time>
      </trkpt>
      <trkpt lat="0" lon="0">
        <time>2021-02-28T08:19:15.271000+00:00</time>
      </trkpt>
      <trkpt lat="0" lon="0">
        <time>2021-02-28T08:19:15.276000+00:00</time>
      </trkpt>
      <trkpt lat="0" lon="0">
        <time>2021-02-28T08:19:15.277000+00:00</time>
      </trkpt>
      <trkpt lat="47.29891" lon="-1.40065">
        <ele>93</ele>
        <time>2021-02-28T08:19:16.261000+00:00</time>
      </trkpt>
      <trkpt lat="0" lon="0">
        <time>2021-02-28T08:19:16.270000+00:00</time>
      </trkpt>
      <trkpt lat="0" lon="0">
        <time>2021-02-28T08:19:16.275000+00:00</time>
      </trkpt>
      <trkpt lat="0" lon="0">
        <time>2021-02-28T08:19:16.277000+00:00</time>
      </trkpt>
      <trkpt lat="47.29892" lon="-1.40062">
        <ele>93</ele>
        <time>2021-02-28T08:19:17.283000+00:00</time>
      </trkpt>
      <trkpt lat="0" lon="0">
        <time>2021-02-28T08:19:17.291000+00:00</time>
      </trkpt>
      <trkpt lat="0" lon="0">
        <time>2021-02-28T08:19:17.292000+00:00</time>
      </trkpt>
      <trkpt lat="0" lon="0">
        <time>2021-02-28T08:19:17.293000+00:00</time>
      </trkpt>
      <trkpt lat="47.29893" lon="-1.4006">
        <ele>93</ele>
        <time>2021-02-28T08:19:18.326000+00:00</time>
      </trkpt>
      <trkpt lat="0" lon="0">
        <time>2021-02-28T08:19:18.342000+00:00</time>
      </trkpt>
      <trkpt lat="0" lon="0">
        <time>2021-02-28T08:19:18.346000+00:00</time>
      </trkpt>
      <trkpt lat="0" lon="0">
        <time>2021-02-28T08:19:18.349000+00:00</time>
      </trkpt>
      <trkpt lat="47.29894" lon="-1.40057">
        <ele>93</ele>
        <time>2021-02-28T08:19:19.296000+00:00</time>
      </trkpt>
      <trkpt lat="0" lon="0">
        <time>2021-02-28T08:19:19.304000+00:00</time>
      </trkpt>
      <trkpt lat="0" lon="0">
        <time>2021-02-28T08:19:19.308000+00:00</time>
      </trkpt>
      <trkpt lat="0" lon="0">
        <time>2021-02-28T08:19:19.310000+00:00</time>
      </trkpt>
      <trkpt lat="47.29895" lon="-1.40054">
        <ele>93</ele>
        <time>2021-02-28T08:19:20.269000+00:00</time>
      </trkpt>
      <trkpt lat="0" lon="0">
        <time>2021-02-28T08:19:20.277000+00:00</time>
      </trkpt>
      <trkpt lat="0" lon="0">
        <time>2021-02-28T08:19:20.283000+00:00</time>
      </trkpt>
      <trkpt lat="0" lon="0">
        <time>2021-02-28T08:19:20.285000+00:00</time>
      </trkpt>
      <trkpt lat="47.29896" lon="-1.40052">
        <ele>93</ele>
        <time>2021-02-28T08:19:21.317000+00:00</time>
      </trkpt>
      <trkpt lat="0" lon="0">
        <time>2021-02-28T08:19:21.323000+00:00</time>
      </trkpt>
      <trkpt lat="0" lon="0">
        <time>2021-02-28T08:19:21.329000+00:00</time>
      </trkpt>
      <trkpt lat="0" lon="0">
        <time>2021-02-28T08:19:21.332000+00:00</time>
      </trkpt>
      <trkpt lat="47.29898" lon="-1.40049">
        <ele>93</ele>
        <time>2021-02-28T08:19:22.263000+00:00</time>
      </trkpt>
      <trkpt lat="0" lon="0">
        <time>2021-02-28T08:19:22.276000+00:00</time>
      </trkpt>
      <trkpt lat="0" lon="0">
        <time>2021-02-28T08:19:22.282000+00:00</time>
      </trkpt>
      <trkpt lat="0" lon="0">
        <time>2021-02-28T08:19:22.289000+00:00</time>
      </trkpt>
      <trkpt lat="47.29899" lon="-1.40046">
        <ele>94</ele>
        <time>2021-02-28T08:19:23.291000+00:00</time>
      </trkpt>
      <trkpt lat="0" lon="0">
        <time>2021-02-28T08:19:23.293000+00:00</time>
      </trkpt>
      <trkpt lat="0" lon="0">
        <time>2021-02-28T08:19:23.295000+00:00</time>
      </trkpt>
      <trkpt lat="0" lon="0">
        <time>2021-02-28T08:19:23.296000+00:00</time>
      </trkpt>
      <trkpt lat="47.299" lon="-1.40044">
        <ele>94</ele>
        <time>2021-02-28T08:19:24.280000+00:00</time>
      </trkpt>
      <trkpt lat="0" lon="0">
        <time>2021-02-28T08:19:24.290000+00:00</time>
      </trkpt>
      <trkpt lat="0" lon="0">
        <time>2021-02-28T08:19:24.295000+00:00</time>
      </trkpt>
      <trkpt lat="0" lon="0">
        <time>2021-02-28T08:19:24.297000+00:00</time>
      </trkpt>
      <trkpt lat="47.29901" lon="-1.40041">
        <ele>94</ele>
        <time>2021-02-28T08:19:25.280000+00:00</time>
      </trkpt>
      <trkpt lat="0" lon="0">
        <time>2021-02-28T08:19:25.283000+00:00</time>
      </trkpt>
      <trkpt lat="0" lon="0">
        <time>2021-02-28T08:19:25.285000+00:00</time>
      </trkpt>
      <trkpt lat="0" lon="0">
        <time>2021-02-28T08:19:25.286000+00:00</time>
      </trkpt>
      <trkpt lat="47.29903" lon="-1.40039">
        <ele>94</ele>
        <time>2021-02-28T08:19:26.287000+00:00</time>
      </trkpt>
      <trkpt lat="0" lon="0">
        <time>2021-02-28T08:19:26.302000+00:00</time>
      </trkpt>
      <trkpt lat="0" lon="0">
        <time>2021-02-28T08:19:26.309000+00:00</time>
      </trkpt>
      <trkpt lat="0" lon="0">
        <time>2021-02-28T08:19:26.311000+00:00</time>
      </trkpt>
      <trkpt lat="47.29904" lon="-1.40036">
        <ele>94</ele>
        <time>2021-02-28T08:19:27.236000+00:00</time>
      </trkpt>
      <trkpt lat="0" lon="0">
        <time>2021-02-28T08:19:27.238000+00:00</time>
      </trkpt>
      <trkpt lat="0" lon="0">
        <time>2021-02-28T08:19:27.241000+00:00</time>
      </trkpt>
      <trkpt lat="0" lon="0">
        <time>2021-02-28T08:19:27.242000+00:00</time>
      </trkpt>
      <trkpt lat="47.29905" lon="-1.40034">
        <ele>95</ele>
        <time>2021-02-28T08:19:28.282000+00:00</time>
      </trkpt>
      <trkpt lat="0" lon="0">
        <time>2021-02-28T08:19:28.291000+00:00</time>
      </trkpt>
      <trkpt lat="0" lon="0">
        <time>2021-02-28T08:19:28.299000+00:00</time>
      </trkpt>
      <trkpt lat="0" lon="0">
        <time>2021-02-28T08:19:28.301000+00:00</time>
      </trkpt>
      <trkpt lat="47.29906" lon="-1.40031">
        <ele>94</ele>
        <time>2021-02-28T08:19:29.296000+00:00</time>
      </trkpt>
      <trkpt lat="0" lon="0">
        <time>2021-02-28T08:19:29.302000+00:00</time>
      </trkpt>
      <trkpt lat="0" lon="0">
        <time>2021-02-28T08:19:29.308000+00:00</time>
      </trkpt>
      <trkpt lat="0" lon="0">
        <time>2021-02-28T08:19:29.311000+00:00</time>
      </trkpt>
      <trkpt lat="47.29908" lon="-1.40029">
        <ele>94</ele>
        <time>2021-02-28T08:19:30.271000+00:00</time>
      </trkpt>
      <trkpt lat="0" lon="0">
        <time>2021-02-28T08:19:30.276000+00:00</time>
      </trkpt>
      <trkpt lat="0" lon="0">
        <time>2021-02-28T08:19:30.281000+00:00</time>
      </trkpt>
      <trkpt lat="0" lon="0">
        <time>2021-02-28T08:19:30.284000+00:00</time>
      </trkpt>
      <trkpt lat="47.29909" lon="-1.40026">
        <ele>95</ele>
        <time>2021-02-28T08:19:31.292000+00:00</time>
      </trkpt>
      <trkpt lat="0" lon="0">
        <time>2021-02-28T08:19:31.297000+00:00</time>
      </trkpt>
      <trkpt lat="0" lon="0">
        <time>2021-02-28T08:19:31.303000+00:00</time>
      </trkpt>
      <trkpt lat="0" lon="0">
        <time>2021-02-28T08:19:31.304000+00:00</time>
      </trkpt>
      <trkpt lat="47.29911" lon="-1.40024">
        <ele>94</ele>
        <time>2021-02-28T08:19:32.253000+00:00</time>
      </trkpt>
      <trkpt lat="0" lon="0">
        <time>2021-02-28T08:19:32.262000+00:00</time>
      </trkpt>
      <trkpt lat="0" lon="0">
        <time>2021-02-28T08:19:32.264000+00:00</time>
      </trkpt>
      <trkpt lat="0" lon="0">
        <time>2021-02-28T08:19:32.266000+00:00</time>
      </trkpt>
      <trkpt lat="47.29912" lon="-1.40021">
        <ele>95</ele>
        <time>2021-02-28T08:19:33.202000+00:00</time>
      </trkpt>
      <trkpt lat="0" lon="0">
        <time>2021-02-28T08:19:33.206000+00:00</time>
      </trkpt>
      <trkpt lat="0" lon="0">
        <time>2021-02-28T08:19:33.214000+00:00</time>
      </trkpt>
      <trkpt lat="0" lon="0">
        <time>2021-02-28T08:19:33.216000+00:00</time>
      </trkpt>
      <trkpt lat="47.29914" lon="-1.40019">
        <ele>95</ele>
        <time>2021-02-28T08:19:34.181000+00:00</time>
      </trkpt>
      <trkpt lat="0" lon="0">
        <time>2021-02-28T08:19:34.188000+00:00</time>
      </trkpt>
      <trkpt lat="0" lon="0">
        <time>2021-02-28T08:19:34.190000+00:00</time>
      </trkpt>
      <trkpt lat="0" lon="0">
        <time>2021-02-28T08:19:34.191000+00:00</time>
      </trkpt>
      <trkpt lat="47.29915" lon="-1.40016">
        <ele>95</ele>
        <time>2021-02-28T08:19:35.218000+00:00</time>
      </trkpt>
      <trkpt lat="0" lon="0">
        <time>2021-02-28T08:19:35.225000+00:00</time>
      </trkpt>
      <trkpt lat="0" lon="0">
        <time>2021-02-28T08:19:35.231000+00:00</time>
      </trkpt>
      <trkpt lat="0" lon="0">
        <time>2021-02-28T08:19:35.233000+00:00</time>
      </trkpt>
      <trkpt lat="47.29916" lon="-1.40014">
        <ele>95</ele>
        <time>2021-02-28T08:19:36.287000+00:00</time>
      </trkpt>
      <trkpt lat="0" lon="0">
        <time>2021-02-28T08:19:36.308000+00:00</time>
      </trkpt>
      <trkpt lat="0" lon="0">
        <time>2021-02-28T08:19:36.316000+00:00</time>
      </trkpt>
      <trkpt lat="0" lon="0">
        <time>2021-02-28T08:19:36.317000+00:00</time>
      </trkpt>
      <trkpt lat="47.29917" lon="-1.40012">
        <ele>95</ele>
        <time>2021-02-28T08:19:37.317000+00:00</time>
      </trkpt>
      <trkpt lat="0" lon="0">
        <time>2021-02-28T08:19:37.323000+00:00</time>
      </trkpt>
      <trkpt lat="0" lon="0">
        <time>2021-02-28T08:19:37.327000+00:00</time>
      </trkpt>
      <trkpt lat="0" lon="0">
        <time>2021-02-28T08:19:37.330000+00:00</time>
      </trkpt>
      <trkpt lat="47.29918" lon="-1.4001">
        <ele>96</ele>
        <time>2021-02-28T08:19:38.261000+00:00</time>
      </trkpt>
      <trkpt lat="0" lon="0">
        <time>2021-02-28T08:19:38.270000+00:00</time>
      </trkpt>
      <trkpt lat="0" lon="0">
        <time>2021-02-28T08:19:38.278000+00:00</time>
      </trkpt>
      <trkpt lat="0" lon="0">
        <time>2021-02-28T08:19:38.286000+00:00</time>
      </trkpt>
      <trkpt lat="47.2992" lon="-1.40008">
        <ele>95</ele>
        <time>2021-02-28T08:19:39.284000+00:00</time>
      </trkpt>
      <trkpt lat="0" lon="0">
        <time>2021-02-28T08:19:39.288000+00:00</time>
      </trkpt>
      <trkpt lat="0" lon="0">
        <time>2021-02-28T08:19:39.290000+00:00</time>
      </trkpt>
      <trkpt lat="0" lon="0">
        <time>2021-02-28T08:19:39.294000+00:00</time>
      </trkpt>
      <trkpt lat="47.29921" lon="-1.40006">
        <ele>95</ele>
        <time>2021-02-28T08:19:40.298000+00:00</time>
      </trkpt>
      <trkpt lat="0" lon="0">
        <time>2021-02-28T08:19:40.300000+00:00</time>
      </trkpt>
      <trkpt lat="0" lon="0">
        <time>2021-02-28T08:19:40.302000+00:00</time>
      </trkpt>
      <trkpt lat="0" lon="0">
        <time>2021-02-28T08:19:40.303000+00:00</time>
      </trkpt>
      <trkpt lat="47.29922" lon="-1.40004">
        <ele>96</ele>
        <time>2021-02-28T08:19:41.233000+00:00</time>
      </trkpt>
      <trkpt lat="0" lon="0">
        <time>2021-02-28T08:19:41.239000+00:00</time>
      </trkpt>
      <trkpt lat="0" lon="0">
        <time>2021-02-28T08:19:41.244000+00:00</time>
      </trkpt>
      <trkpt lat="0" lon="0">
        <time>2021-02-28T08:19:41.246000+00:00</time>
      </trkpt>
      <trkpt lat="47.29924" lon="-1.40002">
        <ele>96</ele>
        <time>2021-02-28T08:19:42.274000+00:00</time>
      </trkpt>
      <trkpt lat="0" lon="0">
        <time>2021-02-28T08:19:42.280000+00:00</time>
      </trkpt>
      <trkpt lat="0" lon="0">
        <time>2021-02-28T08:19:42.285000+00:00</time>
      </trkpt>
      <trkpt lat="0" lon="0">
        <time>2021-02-28T08:19:42.287000+00:00</time>
      </trkpt>
      <trkpt lat="47.29925" lon="-1.40001">
        <ele>96</ele>
        <time>2021-02-28T08:19:43.286000+00:00</time>
      </trkpt>
      <trkpt lat="0" lon="0">
        <time>2021-02-28T08:19:43.289000+00:00</time>
      </trkpt>
      <trkpt lat="0" lon="0">
        <time>2021-02-28T08:19:43.291000+00:00</time>
      </trkpt>
      <trkpt lat="0" lon="0">
        <time>2021-02-28T08:19:43.292000+00:00</time>
      </trkpt>
      <trkpt lat="47.29927" lon="-1.39999">
        <ele>96</ele>
        <time>2021-02-28T08:19:44.286000+00:00</time>
      </trkpt>
      <trkpt lat="0" lon="0">
        <time>2021-02-28T08:19:44.298000+00:00</time>
      </trkpt>
      <trkpt lat="0" lon="0">
        <time>2021-02-28T08:19:44.302000+00:00</time>
      </trkpt>
      <trkpt lat="0" lon="0">
        <time>2021-02-28T08:19:44.304000+00:00</time>
      </trkpt>
      <trkpt lat="47.29928" lon="-1.39998">
        <ele>96</ele>
        <time>2021-02-28T08:19:45.317000+00:00</time>
      </trkpt>
      <trkpt lat="0" lon="0">
        <time>2021-02-28T08:19:45.321000+00:00</time>
      </trkpt>
      <trkpt lat="0" lon="0">
        <time>2021-02-28T08:19:45.325000+00:00</time>
      </trkpt>
      <trkpt lat="0" lon="0">
        <time>2021-02-28T08:19:45.326000+00:00</time>
      </trkpt>
      <trkpt lat="47.29929" lon="-1.39996">
        <ele>96</ele>
        <time>2021-02-28T08:19:46.262000+00:00</time>
      </trkpt>
      <trkpt lat="0" lon="0">
        <time>2021-02-28T08:19:46.266000+00:00</time>
      </trkpt>
      <trkpt lat="0" lon="0">
        <time>2021-02-28T08:19:46.278000+00:00</time>
      </trkpt>
      <trkpt lat="0" lon="0">
        <time>2021-02-28T08:19:46.279000+00:00</time>
      </trkpt>
      <trkpt lat="47.29931" lon="-1.39995">
        <ele>96</ele>
        <time>2021-02-28T08:19:47.290000+00:00</time>
      </trkpt>
      <trkpt lat="0" lon="0">
        <time>2021-02-28T08:19:47.292000+00:00</time>
      </trkpt>
      <trkpt lat="0" lon="0">
        <time>2021-02-28T08:19:47.294000+00:00</time>
      </trkpt>
      <trkpt lat="0" lon="0">
        <time>2021-02-28T08:19:47.295000+00:00</time>
      </trkpt>
      <trkpt lat="47.29932" lon="-1.39993">
        <ele>96</ele>
        <time>2021-02-28T08:19:48.285000+00:00</time>
      </trkpt>
      <trkpt lat="0" lon="0">
        <time>2021-02-28T08:19:48.294000+00:00</time>
      </trkpt>
      <trkpt lat="0" lon="0">
        <time>2021-02-28T08:19:48.296000+00:00</time>
      </trkpt>
      <trkpt lat="0" lon="0">
        <time>2021-02-28T08:19:48.298000+00:00</time>
      </trkpt>
      <trkpt lat="47.29933" lon="-1.39991">
        <ele>96</ele>
        <time>2021-02-28T08:19:49.281000+00:00</time>
      </trkpt>
      <trkpt lat="0" lon="0">
        <time>2021-02-28T08:19:49.287000+00:00</time>
      </trkpt>
      <trkpt lat="0" lon="0">
        <time>2021-02-28T08:19:49.292000+00:00</time>
      </trkpt>
      <trkpt lat="0" lon="0">
        <time>2021-02-28T08:19:49.295000+00:00</time>
      </trkpt>
      <trkpt lat="47.29934" lon="-1.3999">
        <ele>96</ele>
        <time>2021-02-28T08:19:50.320000+00:00</time>
      </trkpt>
      <trkpt lat="0" lon="0">
        <time>2021-02-28T08:19:50.328000+00:00</time>
      </trkpt>
      <trkpt lat="0" lon="0">
        <time>2021-02-28T08:19:50.333000+00:00</time>
      </trkpt>
      <trkpt lat="0" lon="0">
        <time>2021-02-28T08:19:50.335000+00:00</time>
      </trkpt>
      <trkpt lat="47.29936" lon="-1.39988">
        <ele>97</ele>
        <time>2021-02-28T08:19:51.294000+00:00</time>
      </trkpt>
      <trkpt lat="0" lon="0">
        <time>2021-02-28T08:19:51.300000+00:00</time>
      </trkpt>
      <trkpt lat="0" lon="0">
        <time>2021-02-28T08:19:51.305000+00:00</time>
      </trkpt>
      <trkpt lat="0" lon="0">
        <time>2021-02-28T08:19:51.308000+00:00</time>
      </trkpt>
      <trkpt lat="47.29937" lon="-1.39986">
        <ele>97</ele>
        <time>2021-02-28T08:19:52.311000+00:00</time>
      </trkpt>
      <trkpt lat="0" lon="0">
        <time>2021-02-28T08:19:52.313000+00:00</time>
      </trkpt>
      <trkpt lat="0" lon="0">
        <time>2021-02-28T08:19:52.314000+00:00</time>
      </trkpt>
      <trkpt lat="0" lon="0">
        <time>2021-02-28T08:19:52.315000+00:00</time>
      </trkpt>
      <trkpt lat="47.29938" lon="-1.39984">
        <ele>97</ele>
        <time>2021-02-28T08:19:53.312000+00:00</time>
      </trkpt>
      <trkpt lat="0" lon="0">
        <time>2021-02-28T08:19:53.320000+00:00</time>
      </trkpt>
      <trkpt lat="0" lon="0">
        <time>2021-02-28T08:19:53.325000+00:00</time>
      </trkpt>
      <trkpt lat="0" lon="0">
        <time>2021-02-28T08:19:53.327000+00:00</time>
      </trkpt>
      <trkpt lat="47.29939" lon="-1.39982">
        <ele>97</ele>
        <time>2021-02-28T08:19:54.283000+00:00</time>
      </trkpt>
      <trkpt lat="0" lon="0">
        <time>2021-02-28T08:19:54.289000+00:00</time>
      </trkpt>
      <trkpt lat="0" lon="0">
        <time>2021-02-28T08:19:54.291000+00:00</time>
      </trkpt>
      <trkpt lat="0" lon="0">
        <time>2021-02-28T08:19:54.292000+00:00</time>
      </trkpt>
      <trkpt lat="47.2994" lon="-1.39979">
        <ele>97</ele>
        <time>2021-02-28T08:19:55.301000+00:00</time>
      </trkpt>
      <trkpt lat="0" lon="0">
        <time>2021-02-28T08:19:55.313000+00:00</time>
      </trkpt>
      <trkpt lat="0" lon="0">
        <time>2021-02-28T08:19:55.318000+00:00</time>
      </trkpt>
      <trkpt lat="0" lon="0">
        <time>2021-02-28T08:19:55.321000+00:00</time>
      </trkpt>
      <trkpt lat="47.29941" lon="-1.39977">
        <ele>97</ele>
        <time>2021-02-28T08:19:56.295000+00:00</time>
      </trkpt>
      <trkpt lat="0" lon="0">
        <time>2021-02-28T08:19:56.298000+00:00</time>
      </trkpt>
      <trkpt lat="0" lon="0">
        <time>2021-02-28T08:19:56.300000+00:00</time>
      </trkpt>
      <trkpt lat="0" lon="0">
        <time>2021-02-28T08:19:56.302000+00:00</time>
      </trkpt>
      <trkpt lat="47.29943" lon="-1.39975">
        <ele>98</ele>
        <time>2021-02-28T08:19:57.318000+00:00</time>
      </trkpt>
      <trkpt lat="0" lon="0">
        <time>2021-02-28T08:19:57.327000+00:00</time>
      </trkpt>
      <trkpt lat="0" lon="0">
        <time>2021-02-28T08:19:57.331000+00:00</time>
      </trkpt>
      <trkpt lat="0" lon="0">
        <time>2021-02-28T08:19:57.333000+00:00</time>
      </trkpt>
      <trkpt lat="47.29944" lon="-1.39973">
        <ele>98</ele>
        <time>2021-02-28T08:19:58.290000+00:00</time>
      </trkpt>
      <trkpt lat="0" lon="0">
        <time>2021-02-28T08:19:58.293000+00:00</time>
      </trkpt>
      <trkpt lat="0" lon="0">
        <time>2021-02-28T08:19:58.297000+00:00</time>
      </trkpt>
      <trkpt lat="0" lon="0">
        <time>2021-02-28T08:19:58.298000+00:00</time>
      </trkpt>
      <trkpt lat="47.29946" lon="-1.39971">
        <ele>98</ele>
        <time>2021-02-28T08:19:59.339000+00:00</time>
      </trkpt>
      <trkpt lat="0" lon="0">
        <time>2021-02-28T08:19:59.354000+00:00</time>
      </trkpt>
      <trkpt lat="0" lon="0">
        <time>2021-02-28T08:19:59.361000+00:00</time>
      </trkpt>
      <trkpt lat="0" lon="0">
        <time>2021-02-28T08:19:59.364000+00:00</time>
      </trkpt>
      <trkpt lat="47.29947" lon="-1.39968">
        <ele>98</ele>
        <time>2021-02-28T08:20:00.346000+00:00</time>
      </trkpt>
      <trkpt lat="0" lon="0">
        <time>2021-02-28T08:20:00.356000+00:00</time>
      </trkpt>
      <trkpt lat="0" lon="0">
        <time>2021-02-28T08:20:00.363000+00:00</time>
      </trkpt>
      <trkpt lat="0" lon="0">
        <time>2021-02-28T08:20:00.366000+00:00</time>
      </trkpt>
      <trkpt lat="47.29949" lon="-1.39966">
        <ele>98</ele>
        <time>2021-02-28T08:20:01.358000+00:00</time>
      </trkpt>
      <trkpt lat="0" lon="0">
        <time>2021-02-28T08:20:01.364000+00:00</time>
      </trkpt>
      <trkpt lat="0" lon="0">
        <time>2021-02-28T08:20:01.374000+00:00</time>
      </trkpt>
      <trkpt lat="0" lon="0">
        <time>2021-02-28T08:20:01.379000+00:00</time>
      </trkpt>
      <trkpt lat="47.2995" lon="-1.39963">
        <ele>98</ele>
        <time>2021-02-28T08:20:02.337000+00:00</time>
      </trkpt>
      <trkpt lat="0" lon="0">
        <time>2021-02-28T08:20:02.345000+00:00</time>
      </trkpt>
      <trkpt lat="0" lon="0">
        <time>2021-02-28T08:20:02.350000+00:00</time>
      </trkpt>
      <trkpt lat="0" lon="0">
        <time>2021-02-28T08:20:02.352000+00:00</time>
      </trkpt>
      <trkpt lat="47.29952" lon="-1.39961">
        <ele>99</ele>
        <time>2021-02-28T08:20:03.305000+00:00</time>
      </trkpt>
      <trkpt lat="0" lon="0">
        <time>2021-02-28T08:20:03.310000+00:00</time>
      </trkpt>
      <trkpt lat="0" lon="0">
        <time>2021-02-28T08:20:03.314000+00:00</time>
      </trkpt>
      <trkpt lat="0" lon="0">
        <time>2021-02-28T08:20:03.317000+00:00</time>
      </trkpt>
      <trkpt lat="47.29954" lon="-1.39958">
        <ele>99</ele>
        <time>2021-02-28T08:20:04.231000+00:00</time>
      </trkpt>
      <trkpt lat="0" lon="0">
        <time>2021-02-28T08:20:04.236000+00:00</time>
      </trkpt>
      <trkpt lat="0" lon="0">
        <time>2021-02-28T08:20:04.243000+00:00</time>
      </trkpt>
      <trkpt lat="0" lon="0">
        <time>2021-02-28T08:20:04.245000+00:00</time>
      </trkpt>
      <trkpt lat="47.29956" lon="-1.39955">
        <ele>99</ele>
        <time>2021-02-28T08:20:05.249000+00:00</time>
      </trkpt>
      <trkpt lat="0" lon="0">
        <time>2021-02-28T08:20:05.256000+00:00</time>
      </trkpt>
      <trkpt lat="0" lon="0">
        <time>2021-02-28T08:20:05.261000+00:00</time>
      </trkpt>
      <trkpt lat="0" lon="0">
        <time>2021-02-28T08:20:05.264000+00:00</time>
      </trkpt>
      <trkpt lat="47.29958" lon="-1.39953">
        <ele>99</ele>
        <time>2021-02-28T08:20:06.345000+00:00</time>
      </trkpt>
      <trkpt lat="0" lon="0">
        <time>2021-02-28T08:20:06.356000+00:00</time>
      </trkpt>
      <trkpt lat="0" lon="0">
        <time>2021-02-28T08:20:06.361000+00:00</time>
      </trkpt>
      <trkpt lat="0" lon="0">
        <time>2021-02-28T08:20:06.363000+00:00</time>
      </trkpt>
      <trkpt lat="47.29959" lon="-1.3995">
        <ele>99</ele>
        <time>2021-02-28T08:20:07.345000+00:00</time>
      </trkpt>
      <trkpt lat="0" lon="0">
        <time>2021-02-28T08:20:07.355000+00:00</time>
      </trkpt>
      <trkpt lat="0" lon="0">
        <time>2021-02-28T08:20:07.362000+00:00</time>
      </trkpt>
      <trkpt lat="0" lon="0">
        <time>2021-02-28T08:20:07.366000+00:00</time>
      </trkpt>
      <trkpt lat="47.29961" lon="-1.39948">
        <ele>99</ele>
        <time>2021-02-28T08:20:08.313000+00:00</time>
      </trkpt>
      <trkpt lat="0" lon="0">
        <time>2021-02-28T08:20:08.324000+00:00</time>
      </trkpt>
      <trkpt lat="0" lon="0">
        <time>2021-02-28T08:20:08.330000+00:00</time>
      </trkpt>
      <trkpt lat="0" lon="0">
        <time>2021-02-28T08:20:08.333000+00:00</time>
      </trkpt>
      <trkpt lat="47.29963" lon="-1.39945">
        <ele>98</ele>
        <time>2021-02-28T08:20:09.231000+00:00</time>
      </trkpt>
      <trkpt lat="0" lon="0">
        <time>2021-02-28T08:20:09.238000+00:00</time>
      </trkpt>
      <trkpt lat="0" lon="0">
        <time>2021-02-28T08:20:09.243000+00:00</time>
      </trkpt>
      <trkpt lat="0" lon="0">
        <time>2021-02-28T08:20:09.245000+00:00</time>
      </trkpt>
      <trkpt lat="47.29965" lon="-1.39943">
        <ele>99</ele>
        <time>2021-02-28T08:20:10.347000+00:00</time>
      </trkpt>
      <trkpt lat="0" lon="0">
        <time>2021-02-28T08:20:10.362000+00:00</time>
      </trkpt>
      <trkpt lat="0" lon="0">
        <time>2021-02-28T08:20:10.367000+00:00</time>
      </trkpt>
      <trkpt lat="0" lon="0">
        <time>2021-02-28T08:20:10.370000+00:00</time>
      </trkpt>
      <trkpt lat="47.29967" lon="-1.39941">
        <ele>98</ele>
        <time>2021-02-28T08:20:11.329000+00:00</time>
      </trkpt>
      <trkpt lat="0" lon="0">
        <time>2021-02-28T08:20:11.339000+00:00</time>
      </trkpt>
      <trkpt lat="0" lon="0">
        <time>2021-02-28T08:20:11.345000+00:00</time>
      </trkpt>
      <trkpt lat="0" lon="0">
        <time>2021-02-28T08:20:11.348000+00:00</time>
      </trkpt>
      <trkpt lat="47.29969" lon="-1.39938">
        <ele>98</ele>
        <time>2021-02-28T08:20:12.341000+00:00</time>
      </trkpt>
      <trkpt lat="0" lon="0">
        <time>2021-02-28T08:20:12.352000+00:00</time>
      </trkpt>
      <trkpt lat="0" lon="0">
        <time>2021-02-28T08:20:12.357000+00:00</time>
      </trkpt>
      <trkpt lat="0" lon="0">
        <time>2021-02-28T08:20:12.360000+00:00</time>
      </trkpt>
      <trkpt lat="47.2997" lon="-1.39936">
        <ele>98</ele>
        <time>2021-02-28T08:20:13.241000+00:00</time>
      </trkpt>
      <trkpt lat="0" lon="0">
        <time>2021-02-28T08:20:13.251000+00:00</time>
      </trkpt>
      <trkpt lat="0" lon="0">
        <time>2021-02-28T08:20:13.255000+00:00</time>
      </trkpt>
      <trkpt lat="0" lon="0">
        <time>2021-02-28T08:20:13.257000+00:00</time>
      </trkpt>
      <trkpt lat="47.29972" lon="-1.39934">
        <ele>98</ele>
        <time>2021-02-28T08:20:14.279000+00:00</time>
      </trkpt>
      <trkpt lat="0" lon="0">
        <time>2021-02-28T08:20:14.280000+00:00</time>
      </trkpt>
      <trkpt lat="0" lon="0">
        <time>2021-02-28T08:20:14.284000+00:00</time>
      </trkpt>
      <trkpt lat="0" lon="0">
        <time>2021-02-28T08:20:14.289000+00:00</time>
      </trkpt>
      <trkpt lat="47.29974" lon="-1.39932">
        <ele>98</ele>
        <time>2021-02-28T08:20:15.224000+00:00</time>
      </trkpt>
      <trkpt lat="0" lon="0">
        <time>2021-02-28T08:20:15.226000+00:00</time>
      </trkpt>
      <trkpt lat="0" lon="0">
        <time>2021-02-28T08:20:15.229000+00:00</time>
      </trkpt>
      <trkpt lat="0" lon="0">
        <time>2021-02-28T08:20:15.230000+00:00</time>
      </trkpt>
      <trkpt lat="47.29976" lon="-1.3993">
        <ele>98</ele>
        <time>2021-02-28T08:20:16.304000+00:00</time>
      </trkpt>
      <trkpt lat="0" lon="0">
        <time>2021-02-28T08:20:16.316000+00:00</time>
      </trkpt>
      <trkpt lat="0" lon="0">
        <time>2021-02-28T08:20:16.320000+00:00</time>
      </trkpt>
      <trkpt lat="0" lon="0">
        <time>2021-02-28T08:20:16.322000+00:00</time>
      </trkpt>
      <trkpt lat="47.29977" lon="-1.39928">
        <ele>98</ele>
        <time>2021-02-28T08:20:17.271000+00:00</time>
      </trkpt>
      <trkpt lat="0" lon="0">
        <time>2021-02-28T08:20:17.279000+00:00</time>
      </trkpt>
      <trkpt lat="0" lon="0">
        <time>2021-02-28T08:20:17.283000+00:00</time>
      </trkpt>
      <trkpt lat="0" lon="0">
        <time>2021-02-28T08:20:17.286000+00:00</time>
      </trkpt>
      <trkpt lat="47.29979" lon="-1.39926">
        <ele>98</ele>
        <time>2021-02-28T08:20:18.324000+00:00</time>
      </trkpt>
      <trkpt lat="0" lon="0">
        <time>2021-02-28T08:20:18.335000+00:00</time>
      </trkpt>
      <trkpt lat="0" lon="0">
        <time>2021-02-28T08:20:18.341000+00:00</time>
      </trkpt>
      <trkpt lat="0" lon="0">
        <time>2021-02-28T08:20:18.344000+00:00</time>
      </trkpt>
      <trkpt lat="47.2998" lon="-1.39924">
        <ele>98</ele>
        <time>2021-02-28T08:20:19.277000+00:00</time>
      </trkpt>
      <trkpt lat="0" lon="0">
        <time>2021-02-28T08:20:19.284000+00:00</time>
      </trkpt>
      <trkpt lat="0" lon="0">
        <time>2021-02-28T08:20:19.292000+00:00</time>
      </trkpt>
      <trkpt lat="0" lon="0">
        <time>2021-02-28T08:20:19.294000+00:00</time>
      </trkpt>
      <trkpt lat="47.29981" lon="-1.39922">
        <ele>98</ele>
        <time>2021-02-28T08:20:20.315000+00:00</time>
      </trkpt>
      <trkpt lat="0" lon="0">
        <time>2021-02-28T08:20:20.328000+00:00</time>
      </trkpt>
      <trkpt lat="0" lon="0">
        <time>2021-02-28T08:20:20.332000+00:00</time>
      </trkpt>
      <trkpt lat="0" lon="0">
        <time>2021-02-28T08:20:20.335000+00:00</time>
      </trkpt>
      <trkpt lat="47.29982" lon="-1.39921">
        <ele>98</ele>
        <time>2021-02-28T08:20:21.277000+00:00</time>
      </trkpt>
      <trkpt lat="0" lon="0">
        <time>2021-02-28T08:20:21.281000+00:00</time>
      </trkpt>
      <trkpt lat="0" lon="0">
        <time>2021-02-28T08:20:21.286000+00:00</time>
      </trkpt>
      <trkpt lat="0" lon="0">
        <time>2021-02-28T08:20:21.289000+00:00</time>
      </trkpt>
      <trkpt lat="47.29983" lon="-1.3992">
        <ele>98</ele>
        <time>2021-02-28T08:20:22.302000+00:00</time>
      </trkpt>
      <trkpt lat="0" lon="0">
        <time>2021-02-28T08:20:22.314000+00:00</time>
      </trkpt>
      <trkpt lat="0" lon="0">
        <time>2021-02-28T08:20:22.323000+00:00</time>
      </trkpt>
      <trkpt lat="0" lon="0">
        <time>2021-02-28T08:20:22.325000+00:00</time>
      </trkpt>
      <trkpt lat="47.29984" lon="-1.3992">
        <ele>98</ele>
        <time>2021-02-28T08:20:23.303000+00:00</time>
      </trkpt>
      <trkpt lat="0" lon="0">
        <time>2021-02-28T08:20:23.312000+00:00</time>
      </trkpt>
      <trkpt lat="0" lon="0">
        <time>2021-02-28T08:20:23.316000+00:00</time>
      </trkpt>
      <trkpt lat="0" lon="0">
        <time>2021-02-28T08:20:23.318000+00:00</time>
      </trkpt>
      <trkpt lat="47.29985" lon="-1.3992">
        <ele>98</ele>
        <time>2021-02-28T08:20:24.274000+00:00</time>
      </trkpt>
      <trkpt lat="0" lon="0">
        <time>2021-02-28T08:20:24.280000+00:00</time>
      </trkpt>
      <trkpt lat="0" lon="0">
        <time>2021-02-28T08:20:24.285000+00:00</time>
      </trkpt>
      <trkpt lat="0" lon="0">
        <time>2021-02-28T08:20:24.289000+00:00</time>
      </trkpt>
      <trkpt lat="47.29985" lon="-1.3992">
        <ele>98</ele>
        <time>2021-02-28T08:20:25.324000+00:00</time>
      </trkpt>
      <trkpt lat="0" lon="0">
        <time>2021-02-28T08:20:25.336000+00:00</time>
      </trkpt>
      <trkpt lat="0" lon="0">
        <time>2021-02-28T08:20:25.344000+00:00</time>
      </trkpt>
      <trkpt lat="0" lon="0">
        <time>2021-02-28T08:20:25.347000+00:00</time>
      </trkpt>
      <trkpt lat="47.29986" lon="-1.3992">
        <ele>98</ele>
        <time>2021-02-28T08:20:26.310000+00:00</time>
      </trkpt>
      <trkpt lat="0" lon="0">
        <time>2021-02-28T08:20:26.315000+00:00</time>
      </trkpt>
      <trkpt lat="0" lon="0">
        <time>2021-02-28T08:20:26.320000+00:00</time>
      </trkpt>
      <trkpt lat="0" lon="0">
        <time>2021-02-28T08:20:26.323000+00:00</time>
      </trkpt>
      <trkpt lat="47.29986" lon="-1.3992">
        <ele>98</ele>
        <time>2021-02-28T08:20:27.313000+00:00</time>
      </trkpt>
      <trkpt lat="0" lon="0">
        <time>2021-02-28T08:20:27.325000+00:00</time>
      </trkpt>
      <trkpt lat="0" lon="0">
        <time>2021-02-28T08:20:27.330000+00:00</time>
      </trkpt>
      <trkpt lat="0" lon="0">
        <time>2021-02-28T08:20:27.333000+00:00</time>
      </trkpt>
      <trkpt lat="47.29986" lon="-1.3992">
        <ele>98</ele>
        <time>2021-02-28T08:20:28.302000+00:00</time>
      </trkpt>
      <trkpt lat="0" lon="0">
        <time>2021-02-28T08:20:28.313000+00:00</time>
      </trkpt>
      <trkpt lat="0" lon="0">
        <time>2021-02-28T08:20:28.317000+00:00</time>
      </trkpt>
      <trkpt lat="0" lon="0">
        <time>2021-02-28T08:20:28.319000+00:00</time>
      </trkpt>
      <trkpt lat="47.29986" lon="-1.3992">
        <ele>99</ele>
        <time>2021-02-28T08:20:29.288000+00:00</time>
      </trkpt>
      <trkpt lat="0" lon="0">
        <time>2021-02-28T08:20:29.299000+00:00</time>
      </trkpt>
      <trkpt lat="0" lon="0">
        <time>2021-02-28T08:20:29.303000+00:00</time>
      </trkpt>
      <trkpt lat="0" lon="0">
        <time>2021-02-28T08:20:29.306000+00:00</time>
      </trkpt>
      <trkpt lat="47.29986" lon="-1.3992">
        <ele>98</ele>
        <time>2021-02-28T08:20:30.305000+00:00</time>
      </trkpt>
      <trkpt lat="0" lon="0">
        <time>2021-02-28T08:20:30.320000+00:00</time>
      </trkpt>
      <trkpt lat="0" lon="0">
        <time>2021-02-28T08:20:30.325000+00:00</time>
      </trkpt>
      <trkpt lat="0" lon="0">
        <time>2021-02-28T08:20:30.328000+00:00</time>
      </trkpt>
      <trkpt lat="47.29986" lon="-1.3992">
        <ele>99</ele>
        <time>2021-02-28T08:20:31.338000+00:00</time>
      </trkpt>
      <trkpt lat="0" lon="0">
        <time>2021-02-28T08:20:31.345000+00:00</time>
      </trkpt>
      <trkpt lat="0" lon="0">
        <time>2021-02-28T08:20:31.353000+00:00</time>
      </trkpt>
      <trkpt lat="0" lon="0">
        <time>2021-02-28T08:20:31.356000+00:00</time>
      </trkpt>
      <trkpt lat="47.29987" lon="-1.3992">
        <ele>99</ele>
        <time>2021-02-28T08:20:32.295000+00:00</time>
      </trkpt>
      <trkpt lat="0" lon="0">
        <time>2021-02-28T08:20:32.299000+00:00</time>
      </trkpt>
      <trkpt lat="0" lon="0">
        <time>2021-02-28T08:20:32.304000+00:00</time>
      </trkpt>
      <trkpt lat="0" lon="0">
        <time>2021-02-28T08:20:32.313000+00:00</time>
      </trkpt>
      <trkpt lat="47.29992" lon="-1.39905">
        <ele>98</ele>
        <time>2021-02-28T08:20:33.338000+00:00</time>
      </trkpt>
      <trkpt lat="0" lon="0">
        <time>2021-02-28T08:20:33.345000+00:00</time>
      </trkpt>
      <trkpt lat="0" lon="0">
        <time>2021-02-28T08:20:33.349000+00:00</time>
      </trkpt>
      <trkpt lat="0" lon="0">
        <time>2021-02-28T08:20:33.351000+00:00</time>
      </trkpt>
      <trkpt lat="47.29992" lon="-1.39903">
        <ele>98</ele>
        <time>2021-02-28T08:20:34.342000+00:00</time>
      </trkpt>
      <trkpt lat="0" lon="0">
        <time>2021-02-28T08:20:34.349000+00:00</time>
      </trkpt>
      <trkpt lat="0" lon="0">
        <time>2021-02-28T08:20:34.352000+00:00</time>
      </trkpt>
      <trkpt lat="0" lon="0">
        <time>2021-02-28T08:20:34.361000+00:00</time>
      </trkpt>
      <trkpt lat="47.29992" lon="-1.399">
        <ele>98</ele>
        <time>2021-02-28T08:20:35.389000+00:00</time>
      </trkpt>
      <trkpt lat="0" lon="0">
        <time>2021-02-28T08:20:35.394000+00:00</time>
      </trkpt>
      <trkpt lat="0" lon="0">
        <time>2021-02-28T08:20:35.399000+00:00</time>
      </trkpt>
      <trkpt lat="0" lon="0">
        <time>2021-02-28T08:20:35.401000+00:00</time>
      </trkpt>
      <trkpt lat="47.29993" lon="-1.39897">
        <ele>98</ele>
        <time>2021-02-28T08:20:36.353000+00:00</time>
      </trkpt>
      <trkpt lat="0" lon="0">
        <time>2021-02-28T08:20:36.359000+00:00</time>
      </trkpt>
      <trkpt lat="0" lon="0">
        <time>2021-02-28T08:20:36.363000+00:00</time>
      </trkpt>
      <trkpt lat="0" lon="0">
        <time>2021-02-28T08:20:36.366000+00:00</time>
      </trkpt>
      <trkpt lat="47.29993" lon="-1.39895">
        <ele>98</ele>
        <time>2021-02-28T08:20:37.360000+00:00</time>
      </trkpt>
      <trkpt lat="0" lon="0">
        <time>2021-02-28T08:20:37.366000+00:00</time>
      </trkpt>
      <trkpt lat="0" lon="0">
        <time>2021-02-28T08:20:37.372000+00:00</time>
      </trkpt>
      <trkpt lat="0" lon="0">
        <time>2021-02-28T08:20:37.375000+00:00</time>
      </trkpt>
      <trkpt lat="47.29994" lon="-1.39893">
        <ele>98</ele>
        <time>2021-02-28T08:20:38.363000+00:00</time>
      </trkpt>
      <trkpt lat="0" lon="0">
        <time>2021-02-28T08:20:38.372000+00:00</time>
      </trkpt>
      <trkpt lat="0" lon="0">
        <time>2021-02-28T08:20:38.377000+00:00</time>
      </trkpt>
      <trkpt lat="0" lon="0">
        <time>2021-02-28T08:20:38.380000+00:00</time>
      </trkpt>
      <trkpt lat="47.29994" lon="-1.3989">
        <ele>99</ele>
        <time>2021-02-28T08:20:39.399000+00:00</time>
      </trkpt>
      <trkpt lat="0" lon="0">
        <time>2021-02-28T08:20:39.405000+00:00</time>
      </trkpt>
      <trkpt lat="0" lon="0">
        <time>2021-02-28T08:20:39.409000+00:00</time>
      </trkpt>
      <trkpt lat="0" lon="0">
        <time>2021-02-28T08:20:39.411000+00:00</time>
      </trkpt>
      <trkpt lat="47.29995" lon="-1.39888">
        <ele>99</ele>
        <time>2021-02-28T08:20:40.379000+00:00</time>
      </trkpt>
      <trkpt lat="0" lon="0">
        <time>2021-02-28T08:20:40.389000+00:00</time>
      </trkpt>
      <trkpt lat="0" lon="0">
        <time>2021-02-28T08:20:40.397000+00:00</time>
      </trkpt>
      <trkpt lat="0" lon="0">
        <time>2021-02-28T08:20:40.402000+00:00</time>
      </trkpt>
      <trkpt lat="47.29995" lon="-1.39886">
        <ele>99</ele>
        <time>2021-02-28T08:20:41.349000+00:00</time>
      </trkpt>
      <trkpt lat="0" lon="0">
        <time>2021-02-28T08:20:41.356000+00:00</time>
      </trkpt>
      <trkpt lat="0" lon="0">
        <time>2021-02-28T08:20:41.360000+00:00</time>
      </trkpt>
      <trkpt lat="0" lon="0">
        <time>2021-02-28T08:20:41.363000+00:00</time>
      </trkpt>
      <trkpt lat="47.29996" lon="-1.39883">
        <ele>99</ele>
        <time>2021-02-28T08:20:42.402000+00:00</time>
      </trkpt>
      <trkpt lat="0" lon="0">
        <time>2021-02-28T08:20:42.407000+00:00</time>
      </trkpt>
      <trkpt lat="0" lon="0">
        <time>2021-02-28T08:20:42.413000+00:00</time>
      </trkpt>
      <trkpt lat="0" lon="0">
        <time>2021-02-28T08:20:42.417000+00:00</time>
      </trkpt>
      <trkpt lat="47.29996" lon="-1.39881">
        <ele>99</ele>
        <time>2021-02-28T08:20:43.377000+00:00</time>
      </trkpt>
      <trkpt lat="0" lon="0">
        <time>2021-02-28T08:20:43.382000+00:00</time>
      </trkpt>
      <trkpt lat="0" lon="0">
        <time>2021-02-28T08:20:43.388000+00:00</time>
      </trkpt>
      <trkpt lat="0" lon="0">
        <time>2021-02-28T08:20:43.391000+00:00</time>
      </trkpt>
      <trkpt lat="47.29997" lon="-1.39879">
        <ele>98</ele>
        <time>2021-02-28T08:20:44.387000+00:00</time>
      </trkpt>
      <trkpt lat="0" lon="0">
        <time>2021-02-28T08:20:44.399000+00:00</time>
      </trkpt>
      <trkpt lat="0" lon="0">
        <time>2021-02-28T08:20:44.408000+00:00</time>
      </trkpt>
      <trkpt lat="0" lon="0">
        <time>2021-02-28T08:20:44.412000+00:00</time>
      </trkpt>
      <trkpt lat="47.29999" lon="-1.39877">
        <ele>99</ele>
        <time>2021-02-28T08:20:45.313000+00:00</time>
      </trkpt>
      <trkpt lat="0" lon="0">
        <time>2021-02-28T08:20:45.324000+00:00</time>
      </trkpt>
      <trkpt lat="0" lon="0">
        <time>2021-02-28T08:20:45.329000+00:00</time>
      </trkpt>
      <trkpt lat="0" lon="0">
        <time>2021-02-28T08:20:45.332000+00:00</time>
      </trkpt>
      <trkpt lat="47.3" lon="-1.39875">
        <ele>99</ele>
        <time>2021-02-28T08:20:46.369000+00:00</time>
      </trkpt>
      <trkpt lat="0" lon="0">
        <time>2021-02-28T08:20:46.374000+00:00</time>
      </trkpt>
      <trkpt lat="0" lon="0">
        <time>2021-02-28T08:20:46.378000+00:00</time>
      </trkpt>
      <trkpt lat="0" lon="0">
        <time>2021-02-28T08:20:46.380000+00:00</time>
      </trkpt>
      <trkpt lat="47.30002" lon="-1.39872">
        <ele>99</ele>
        <time>2021-02-28T08:20:47.375000+00:00</time>
      </trkpt>
      <trkpt lat="0" lon="0">
        <time>2021-02-28T08:20:47.383000+00:00</time>
      </trkpt>
      <trkpt lat="0" lon="0">
        <time>2021-02-28T08:20:47.388000+00:00</time>
      </trkpt>
      <trkpt lat="0" lon="0">
        <time>2021-02-28T08:20:47.392000+00:00</time>
      </trkpt>
      <trkpt lat="47.30003" lon="-1.3987">
        <ele>100</ele>
        <time>2021-02-28T08:20:48.372000+00:00</time>
      </trkpt>
      <trkpt lat="0" lon="0">
        <time>2021-02-28T08:20:48.384000+00:00</time>
      </trkpt>
      <trkpt lat="0" lon="0">
        <time>2021-02-28T08:20:48.394000+00:00</time>
      </trkpt>
      <trkpt lat="0" lon="0">
        <time>2021-02-28T08:20:48.399000+00:00</time>
      </trkpt>
      <trkpt lat="47.30005" lon="-1.39867">
        <ele>100</ele>
        <time>2021-02-28T08:20:49.408000+00:00</time>
      </trkpt>
      <trkpt lat="0" lon="0">
        <time>2021-02-28T08:20:49.423000+00:00</time>
      </trkpt>
      <trkpt lat="0" lon="0">
        <time>2021-02-28T08:20:49.430000+00:00</time>
      </trkpt>
      <trkpt lat="0" lon="0">
        <time>2021-02-28T08:20:49.435000+00:00</time>
      </trkpt>
      <trkpt lat="47.30007" lon="-1.39865">
        <ele>100</ele>
        <time>2021-02-28T08:20:50.403000+00:00</time>
      </trkpt>
      <trkpt lat="0" lon="0">
        <time>2021-02-28T08:20:50.414000+00:00</time>
      </trkpt>
      <trkpt lat="0" lon="0">
        <time>2021-02-28T08:20:50.420000+00:00</time>
      </trkpt>
      <trkpt lat="0" lon="0">
        <time>2021-02-28T08:20:50.423000+00:00</time>
      </trkpt>
      <trkpt lat="47.30009" lon="-1.39862">
        <ele>101</ele>
        <time>2021-02-28T08:20:51.396000+00:00</time>
      </trkpt>
      <trkpt lat="0" lon="0">
        <time>2021-02-28T08:20:51.409000+00:00</time>
      </trkpt>
      <trkpt lat="0" lon="0">
        <time>2021-02-28T08:20:51.415000+00:00</time>
      </trkpt>
      <trkpt lat="0" lon="0">
        <time>2021-02-28T08:20:51.418000+00:00</time>
      </trkpt>
      <trkpt lat="47.30011" lon="-1.3986">
        <ele>101</ele>
        <time>2021-02-28T08:20:52.457000+00:00</time>
      </trkpt>
      <trkpt lat="0" lon="0">
        <time>2021-02-28T08:20:52.459000+00:00</time>
      </trkpt>
      <trkpt lat="0" lon="0">
        <time>2021-02-28T08:20:52.461000+00:00</time>
      </trkpt>
      <trkpt lat="0" lon="0">
        <time>2021-02-28T08:20:52.462000+00:00</time>
      </trkpt>
      <trkpt lat="47.30013" lon="-1.39857">
        <ele>101</ele>
        <time>2021-02-28T08:20:53.398000+00:00</time>
      </trkpt>
      <trkpt lat="0" lon="0">
        <time>2021-02-28T08:20:53.405000+00:00</time>
      </trkpt>
      <trkpt lat="0" lon="0">
        <time>2021-02-28T08:20:53.416000+00:00</time>
      </trkpt>
      <trkpt lat="0" lon="0">
        <time>2021-02-28T08:20:53.419000+00:00</time>
      </trkpt>
      <trkpt lat="47.30015" lon="-1.39855">
        <ele>101</ele>
        <time>2021-02-28T08:20:54.409000+00:00</time>
      </trkpt>
      <trkpt lat="0" lon="0">
        <time>2021-02-28T08:20:54.424000+00:00</time>
      </trkpt>
      <trkpt lat="0" lon="0">
        <time>2021-02-28T08:20:54.430000+00:00</time>
      </trkpt>
      <trkpt lat="0" lon="0">
        <time>2021-02-28T08:20:54.433000+00:00</time>
      </trkpt>
      <trkpt lat="47.30016" lon="-1.39852">
        <ele>101</ele>
        <time>2021-02-28T08:20:55.396000+00:00</time>
      </trkpt>
      <trkpt lat="0" lon="0">
        <time>2021-02-28T08:20:55.411000+00:00</time>
      </trkpt>
      <trkpt lat="0" lon="0">
        <time>2021-02-28T08:20:55.417000+00:00</time>
      </trkpt>
      <trkpt lat="0" lon="0">
        <time>2021-02-28T08:20:55.425000+00:00</time>
      </trkpt>
      <trkpt lat="47.30018" lon="-1.39849">
        <ele>101</ele>
        <time>2021-02-28T08:20:56.406000+00:00</time>
      </trkpt>
      <trkpt lat="0" lon="0">
        <time>2021-02-28T08:20:56.417000+00:00</time>
      </trkpt>
      <trkpt lat="0" lon="0">
        <time>2021-02-28T08:20:56.421000+00:00</time>
      </trkpt>
      <trkpt lat="0" lon="0">
        <time>2021-02-28T08:20:56.423000+00:00</time>
      </trkpt>
      <trkpt lat="47.3002" lon="-1.39846">
        <ele>101</ele>
        <time>2021-02-28T08:20:57.385000+00:00</time>
      </trkpt>
      <trkpt lat="0" lon="0">
        <time>2021-02-28T08:20:57.392000+00:00</time>
      </trkpt>
      <trkpt lat="0" lon="0">
        <time>2021-02-28T08:20:57.398000+00:00</time>
      </trkpt>
      <trkpt lat="0" lon="0">
        <time>2021-02-28T08:20:57.401000+00:00</time>
      </trkpt>
      <trkpt lat="47.30022" lon="-1.39843">
        <ele>102</ele>
        <time>2021-02-28T08:20:58.378000+00:00</time>
      </trkpt>
      <trkpt lat="0" lon="0">
        <time>2021-02-28T08:20:58.386000+00:00</time>
      </trkpt>
      <trkpt lat="0" lon="0">
        <time>2021-02-28T08:20:58.392000+00:00</time>
      </trkpt>
      <trkpt lat="0" lon="0">
        <time>2021-02-28T08:20:58.398000+00:00</time>
      </trkpt>
      <trkpt lat="47.30024" lon="-1.3984">
        <ele>102</ele>
        <time>2021-02-28T08:20:59.311000+00:00</time>
      </trkpt>
      <trkpt lat="0" lon="0">
        <time>2021-02-28T08:20:59.319000+00:00</time>
      </trkpt>
      <trkpt lat="0" lon="0">
        <time>2021-02-28T08:20:59.325000+00:00</time>
      </trkpt>
      <trkpt lat="0" lon="0">
        <time>2021-02-28T08:20:59.328000+00:00</time>
      </trkpt>
      <trkpt lat="47.30026" lon="-1.39838">
        <ele>102</ele>
        <time>2021-02-28T08:21:00.336000+00:00</time>
      </trkpt>
      <trkpt lat="0" lon="0">
        <time>2021-02-28T08:21:00.344000+00:00</time>
      </trkpt>
      <trkpt lat="0" lon="0">
        <time>2021-02-28T08:21:00.348000+00:00</time>
      </trkpt>
      <trkpt lat="0" lon="0">
        <time>2021-02-28T08:21:00.351000+00:00</time>
      </trkpt>
      <trkpt lat="47.30028" lon="-1.39835">
        <ele>102</ele>
        <time>2021-02-28T08:21:01.344000+00:00</time>
      </trkpt>
      <trkpt lat="0" lon="0">
        <time>2021-02-28T08:21:01.349000+00:00</time>
      </trkpt>
      <trkpt lat="0" lon="0">
        <time>2021-02-28T08:21:01.355000+00:00</time>
      </trkpt>
      <trkpt lat="0" lon="0">
        <time>2021-02-28T08:21:01.357000+00:00</time>
      </trkpt>
      <trkpt lat="47.3003" lon="-1.39832">
        <ele>101</ele>
        <time>2021-02-28T08:21:02.352000+00:00</time>
      </trkpt>
      <trkpt lat="0" lon="0">
        <time>2021-02-28T08:21:02.363000+00:00</time>
      </trkpt>
      <trkpt lat="0" lon="0">
        <time>2021-02-28T08:21:02.368000+00:00</time>
      </trkpt>
      <trkpt lat="0" lon="0">
        <time>2021-02-28T08:21:02.371000+00:00</time>
      </trkpt>
      <trkpt lat="47.30032" lon="-1.39829">
        <ele>102</ele>
        <time>2021-02-28T08:21:03.413000+00:00</time>
      </trkpt>
      <trkpt lat="0" lon="0">
        <time>2021-02-28T08:21:03.423000+00:00</time>
      </trkpt>
      <trkpt lat="0" lon="0">
        <time>2021-02-28T08:21:03.426000+00:00</time>
      </trkpt>
      <trkpt lat="0" lon="0">
        <time>2021-02-28T08:21:03.427000+00:00</time>
      </trkpt>
      <trkpt lat="47.30034" lon="-1.39826">
        <ele>102</ele>
        <time>2021-02-28T08:21:04.401000+00:00</time>
      </trkpt>
      <trkpt lat="0" lon="0">
        <time>2021-02-28T08:21:04.414000+00:00</time>
      </trkpt>
      <trkpt lat="0" lon="0">
        <time>2021-02-28T08:21:04.420000+00:00</time>
      </trkpt>
      <trkpt lat="0" lon="0">
        <time>2021-02-28T08:21:04.423000+00:00</time>
      </trkpt>
      <trkpt lat="47.30036" lon="-1.39823">
        <ele>102</ele>
        <time>2021-02-28T08:21:05.390000+00:00</time>
      </trkpt>
      <trkpt lat="0" lon="0">
        <time>2021-02-28T08:21:05.398000+00:00</time>
      </trkpt>
      <trkpt lat="0" lon="0">
        <time>2021-02-28T08:21:05.406000+00:00</time>
      </trkpt>
      <trkpt lat="0" lon="0">
        <time>2021-02-28T08:21:05.409000+00:00</time>
      </trkpt>
      <trkpt lat="47.30038" lon="-1.3982">
        <ele>102</ele>
        <time>2021-02-28T08:21:06.385000+00:00</time>
      </trkpt>
      <trkpt lat="0" lon="0">
        <time>2021-02-28T08:21:06.389000+00:00</time>
      </trkpt>
      <trkpt lat="0" lon="0">
        <time>2021-02-28T08:21:06.397000+00:00</time>
      </trkpt>
      <trkpt lat="0" lon="0">
        <time>2021-02-28T08:21:06.399000+00:00</time>
      </trkpt>
      <trkpt lat="47.3004" lon="-1.39817">
        <ele>102</ele>
        <time>2021-02-28T08:21:07.411000+00:00</time>
      </trkpt>
      <trkpt lat="0" lon="0">
        <time>2021-02-28T08:21:07.420000+00:00</time>
      </trkpt>
      <trkpt lat="0" lon="0">
        <time>2021-02-28T08:21:07.426000+00:00</time>
      </trkpt>
      <trkpt lat="0" lon="0">
        <time>2021-02-28T08:21:07.428000+00:00</time>
      </trkpt>
      <trkpt lat="47.30042" lon="-1.39814">
        <ele>103</ele>
        <time>2021-02-28T08:21:08.401000+00:00</time>
      </trkpt>
      <trkpt lat="0" lon="0">
        <time>2021-02-28T08:21:08.410000+00:00</time>
      </trkpt>
      <trkpt lat="0" lon="0">
        <time>2021-02-28T08:21:08.415000+00:00</time>
      </trkpt>
      <trkpt lat="0" lon="0">
        <time>2021-02-28T08:21:08.418000+00:00</time>
      </trkpt>
      <trkpt lat="47.30043" lon="-1.3981">
        <ele>103</ele>
        <time>2021-02-28T08:21:09.404000+00:00</time>
      </trkpt>
      <trkpt lat="0" lon="0">
        <time>2021-02-28T08:21:09.411000+00:00</time>
      </trkpt>
      <trkpt lat="0" lon="0">
        <time>2021-02-28T08:21:09.416000+00:00</time>
      </trkpt>
      <trkpt lat="0" lon="0">
        <time>2021-02-28T08:21:09.419000+00:00</time>
      </trkpt>
      <trkpt lat="47.30045" lon="-1.39807">
        <ele>103</ele>
        <time>2021-02-28T08:21:10.387000+00:00</time>
      </trkpt>
      <trkpt lat="0" lon="0">
        <time>2021-02-28T08:21:10.403000+00:00</time>
      </trkpt>
      <trkpt lat="0" lon="0">
        <time>2021-02-28T08:21:10.409000+00:00</time>
      </trkpt>
      <trkpt lat="0" lon="0">
        <time>2021-02-28T08:21:10.412000+00:00</time>
      </trkpt>
      <trkpt lat="47.30046" lon="-1.39804">
        <ele>103</ele>
        <time>2021-02-28T08:21:11.406000+00:00</time>
      </trkpt>
      <trkpt lat="0" lon="0">
        <time>2021-02-28T08:21:11.415000+00:00</time>
      </trkpt>
      <trkpt lat="0" lon="0">
        <time>2021-02-28T08:21:11.421000+00:00</time>
      </trkpt>
      <trkpt lat="0" lon="0">
        <time>2021-02-28T08:21:11.425000+00:00</time>
      </trkpt>
      <trkpt lat="47.30048" lon="-1.398">
        <ele>103</ele>
        <time>2021-02-28T08:21:12.418000+00:00</time>
      </trkpt>
      <trkpt lat="0" lon="0">
        <time>2021-02-28T08:21:12.425000+00:00</time>
      </trkpt>
      <trkpt lat="0" lon="0">
        <time>2021-02-28T08:21:12.431000+00:00</time>
      </trkpt>
      <trkpt lat="0" lon="0">
        <time>2021-02-28T08:21:12.435000+00:00</time>
      </trkpt>
      <trkpt lat="47.30048" lon="-1.39796">
        <ele>103</ele>
        <time>2021-02-28T08:21:13.334000+00:00</time>
      </trkpt>
      <trkpt lat="0" lon="0">
        <time>2021-02-28T08:21:13.343000+00:00</time>
      </trkpt>
      <trkpt lat="0" lon="0">
        <time>2021-02-28T08:21:13.348000+00:00</time>
      </trkpt>
      <trkpt lat="0" lon="0">
        <time>2021-02-28T08:21:13.351000+00:00</time>
      </trkpt>
      <trkpt lat="47.30049" lon="-1.39792">
        <ele>102</ele>
        <time>2021-02-28T08:21:14.394000+00:00</time>
      </trkpt>
      <trkpt lat="0" lon="0">
        <time>2021-02-28T08:21:14.402000+00:00</time>
      </trkpt>
      <trkpt lat="0" lon="0">
        <time>2021-02-28T08:21:14.407000+00:00</time>
      </trkpt>
      <trkpt lat="0" lon="0">
        <time>2021-02-28T08:21:14.410000+00:00</time>
      </trkpt>
      <trkpt lat="47.30049" lon="-1.39788">
        <ele>102</ele>
        <time>2021-02-28T08:21:15.386000+00:00</time>
      </trkpt>
      <trkpt lat="0" lon="0">
        <time>2021-02-28T08:21:15.393000+00:00</time>
      </trkpt>
      <trkpt lat="0" lon="0">
        <time>2021-02-28T08:21:15.397000+00:00</time>
      </trkpt>
      <trkpt lat="0" lon="0">
        <time>2021-02-28T08:21:15.400000+00:00</time>
      </trkpt>
      <trkpt lat="47.30049" lon="-1.39783">
        <ele>102</ele>
        <time>2021-02-28T08:21:16.375000+00:00</time>
      </trkpt>
      <trkpt lat="0" lon="0">
        <time>2021-02-28T08:21:16.380000+00:00</time>
      </trkpt>
      <trkpt lat="0" lon="0">
        <time>2021-02-28T08:21:16.386000+00:00</time>
      </trkpt>
      <trkpt lat="0" lon="0">
        <time>2021-02-28T08:21:16.389000+00:00</time>
      </trkpt>
      <trkpt lat="47.30049" lon="-1.39779">
        <ele>102</ele>
        <time>2021-02-28T08:21:17.405000+00:00</time>
      </trkpt>
      <trkpt lat="0" lon="0">
        <time>2021-02-28T08:21:17.416000+00:00</time>
      </trkpt>
      <trkpt lat="0" lon="0">
        <time>2021-02-28T08:21:17.422000+00:00</time>
      </trkpt>
      <trkpt lat="0" lon="0">
        <time>2021-02-28T08:21:17.425000+00:00</time>
      </trkpt>
      <trkpt lat="47.30049" lon="-1.39774">
        <ele>102</ele>
        <time>2021-02-28T08:21:18.391000+00:00</time>
      </trkpt>
      <trkpt lat="0" lon="0">
        <time>2021-02-28T08:21:18.400000+00:00</time>
      </trkpt>
      <trkpt lat="0" lon="0">
        <time>2021-02-28T08:21:18.407000+00:00</time>
      </trkpt>
      <trkpt lat="0" lon="0">
        <time>2021-02-28T08:21:18.410000+00:00</time>
      </trkpt>
      <trkpt lat="47.30048" lon="-1.3977">
        <ele>102</ele>
        <time>2021-02-28T08:21:19.362000+00:00</time>
      </trkpt>
      <trkpt lat="0" lon="0">
        <time>2021-02-28T08:21:19.372000+00:00</time>
      </trkpt>
      <trkpt lat="0" lon="0">
        <time>2021-02-28T08:21:19.378000+00:00</time>
      </trkpt>
      <trkpt lat="0" lon="0">
        <time>2021-02-28T08:21:19.380000+00:00</time>
      </trkpt>
      <trkpt lat="47.30048" lon="-1.39765">
        <ele>102</ele>
        <time>2021-02-28T08:21:20.402000+00:00</time>
      </trkpt>
      <trkpt lat="0" lon="0">
        <time>2021-02-28T08:21:20.410000+00:00</time>
      </trkpt>
      <trkpt lat="0" lon="0">
        <time>2021-02-28T08:21:20.416000+00:00</time>
      </trkpt>
      <trkpt lat="0" lon="0">
        <time>2021-02-28T08:21:20.419000+00:00</time>
      </trkpt>
      <trkpt lat="47.30048" lon="-1.39761">
        <ele>102</ele>
        <time>2021-02-28T08:21:21.419000+00:00</time>
      </trkpt>
      <trkpt lat="0" lon="0">
        <time>2021-02-28T08:21:21.425000+00:00</time>
      </trkpt>
      <trkpt lat="0" lon="0">
        <time>2021-02-28T08:21:21.430000+00:00</time>
      </trkpt>
      <trkpt lat="0" lon="0">
        <time>2021-02-28T08:21:21.434000+00:00</time>
      </trkpt>
      <trkpt lat="47.30047" lon="-1.39757">
        <ele>102</ele>
        <time>2021-02-28T08:21:22.404000+00:00</time>
      </trkpt>
      <trkpt lat="0" lon="0">
        <time>2021-02-28T08:21:22.418000+00:00</time>
      </trkpt>
      <trkpt lat="0" lon="0">
        <time>2021-02-28T08:21:22.424000+00:00</time>
      </trkpt>
      <trkpt lat="0" lon="0">
        <time>2021-02-28T08:21:22.426000+00:00</time>
      </trkpt>
      <trkpt lat="47.30047" lon="-1.39753">
        <ele>101</ele>
        <time>2021-02-28T08:21:23.432000+00:00</time>
      </trkpt>
      <trkpt lat="0" lon="0">
        <time>2021-02-28T08:21:23.448000+00:00</time>
      </trkpt>
      <trkpt lat="0" lon="0">
        <time>2021-02-28T08:21:23.455000+00:00</time>
      </trkpt>
      <trkpt lat="0" lon="0">
        <time>2021-02-28T08:21:23.463000+00:00</time>
      </trkpt>
      <trkpt lat="47.30046" lon="-1.39749">
        <ele>102</ele>
        <time>2021-02-28T08:21:24.367000+00:00</time>
      </trkpt>
      <trkpt lat="0" lon="0">
        <time>2021-02-28T08:21:24.371000+00:00</time>
      </trkpt>
      <trkpt lat="0" lon="0">
        <time>2021-02-28T08:21:24.375000+00:00</time>
      </trkpt>
      <trkpt lat="0" lon="0">
        <time>2021-02-28T08:21:24.378000+00:00</time>
      </trkpt>
      <trkpt lat="47.30046" lon="-1.39745">
        <ele>102</ele>
        <time>2021-02-28T08:21:25.363000+00:00</time>
      </trkpt>
      <trkpt lat="0" lon="0">
        <time>2021-02-28T08:21:25.375000+00:00</time>
      </trkpt>
      <trkpt lat="0" lon="0">
        <time>2021-02-28T08:21:25.377000+00:00</time>
      </trkpt>
      <trkpt lat="0" lon="0">
        <time>2021-02-28T08:21:25.378000+00:00</time>
      </trkpt>
      <trkpt lat="47.30047" lon="-1.39742">
        <ele>102</ele>
        <time>2021-02-28T08:21:26.362000+00:00</time>
      </trkpt>
      <trkpt lat="0" lon="0">
        <time>2021-02-28T08:21:26.368000+00:00</time>
      </trkpt>
      <trkpt lat="0" lon="0">
        <time>2021-02-28T08:21:26.372000+00:00</time>
      </trkpt>
      <trkpt lat="0" lon="0">
        <time>2021-02-28T08:21:26.375000+00:00</time>
      </trkpt>
      <trkpt lat="47.30047" lon="-1.39739">
        <ele>102</ele>
        <time>2021-02-28T08:21:27.378000+00:00</time>
      </trkpt>
      <trkpt lat="0" lon="0">
        <time>2021-02-28T08:21:27.386000+00:00</time>
      </trkpt>
      <trkpt lat="0" lon="0">
        <time>2021-02-28T08:21:27.392000+00:00</time>
      </trkpt>
      <trkpt lat="0" lon="0">
        <time>2021-02-28T08:21:27.394000+00:00</time>
      </trkpt>
      <trkpt lat="47.30048" lon="-1.39738">
        <ele>102</ele>
        <time>2021-02-28T08:21:28.392000+00:00</time>
      </trkpt>
      <trkpt lat="0" lon="0">
        <time>2021-02-28T08:21:28.400000+00:00</time>
      </trkpt>
      <trkpt lat="0" lon="0">
        <time>2021-02-28T08:21:28.405000+00:00</time>
      </trkpt>
      <trkpt lat="0" lon="0">
        <time>2021-02-28T08:21:28.409000+00:00</time>
      </trkpt>
      <trkpt lat="47.30049" lon="-1.39737">
        <ele>102</ele>
        <time>2021-02-28T08:21:29.321000+00:00</time>
      </trkpt>
      <trkpt lat="0" lon="0">
        <time>2021-02-28T08:21:29.332000+00:00</time>
      </trkpt>
      <trkpt lat="0" lon="0">
        <time>2021-02-28T08:21:29.338000+00:00</time>
      </trkpt>
      <trkpt lat="0" lon="0">
        <time>2021-02-28T08:21:29.340000+00:00</time>
      </trkpt>
      <trkpt lat="47.3005" lon="-1.39738">
        <ele>102</ele>
        <time>2021-02-28T08:21:30.369000+00:00</time>
      </trkpt>
      <trkpt lat="0" lon="0">
        <time>2021-02-28T08:21:30.376000+00:00</time>
      </trkpt>
      <trkpt lat="0" lon="0">
        <time>2021-02-28T08:21:30.382000+00:00</time>
      </trkpt>
      <trkpt lat="0" lon="0">
        <time>2021-02-28T08:21:30.385000+00:00</time>
      </trkpt>
      <trkpt lat="47.30052" lon="-1.39739">
        <ele>103</ele>
        <time>2021-02-28T08:21:31.371000+00:00</time>
      </trkpt>
      <trkpt lat="0" lon="0">
        <time>2021-02-28T08:21:31.380000+00:00</time>
      </trkpt>
      <trkpt lat="0" lon="0">
        <time>2021-02-28T08:21:31.385000+00:00</time>
      </trkpt>
      <trkpt lat="0" lon="0">
        <time>2021-02-28T08:21:31.387000+00:00</time>
      </trkpt>
      <trkpt lat="47.30054" lon="-1.39742">
        <ele>103</ele>
        <time>2021-02-28T08:21:32.392000+00:00</time>
      </trkpt>
      <trkpt lat="0" lon="0">
        <time>2021-02-28T08:21:32.398000+00:00</time>
      </trkpt>
      <trkpt lat="0" lon="0">
        <time>2021-02-28T08:21:32.403000+00:00</time>
      </trkpt>
      <trkpt lat="0" lon="0">
        <time>2021-02-28T08:21:32.405000+00:00</time>
      </trkpt>
      <trkpt lat="47.30056" lon="-1.39746">
        <ele>103</ele>
        <time>2021-02-28T08:21:33.425000+00:00</time>
      </trkpt>
      <trkpt lat="0" lon="0">
        <time>2021-02-28T08:21:33.431000+00:00</time>
      </trkpt>
      <trkpt lat="0" lon="0">
        <time>2021-02-28T08:21:33.437000+00:00</time>
      </trkpt>
      <trkpt lat="0" lon="0">
        <time>2021-02-28T08:21:33.440000+00:00</time>
      </trkpt>
      <trkpt lat="47.30058" lon="-1.39751">
        <ele>103</ele>
        <time>2021-02-28T08:21:34.404000+00:00</time>
      </trkpt>
      <trkpt lat="0" lon="0">
        <time>2021-02-28T08:21:34.410000+00:00</time>
      </trkpt>
      <trkpt lat="0" lon="0">
        <time>2021-02-28T08:21:34.418000+00:00</time>
      </trkpt>
      <trkpt lat="0" lon="0">
        <time>2021-02-28T08:21:34.421000+00:00</time>
      </trkpt>
      <trkpt lat="47.3006" lon="-1.39758">
        <ele>103</ele>
        <time>2021-02-28T08:21:35.398000+00:00</time>
      </trkpt>
      <trkpt lat="0" lon="0">
        <time>2021-02-28T08:21:35.406000+00:00</time>
      </trkpt>
      <trkpt lat="0" lon="0">
        <time>2021-02-28T08:21:35.411000+00:00</time>
      </trkpt>
      <trkpt lat="0" lon="0">
        <time>2021-02-28T08:21:35.414000+00:00</time>
      </trkpt>
      <trkpt lat="47.30063" lon="-1.39765">
        <ele>103</ele>
        <time>2021-02-28T08:21:36.458000+00:00</time>
      </trkpt>
      <trkpt lat="0" lon="0">
        <time>2021-02-28T08:21:36.469000+00:00</time>
      </trkpt>
      <trkpt lat="0" lon="0">
        <time>2021-02-28T08:21:36.482000+00:00</time>
      </trkpt>
      <trkpt lat="0" lon="0">
        <time>2021-02-28T08:21:36.486000+00:00</time>
      </trkpt>
      <trkpt lat="47.30065" lon="-1.39773">
        <ele>103</ele>
        <time>2021-02-28T08:21:37.397000+00:00</time>
      </trkpt>
      <trkpt lat="0" lon="0">
        <time>2021-02-28T08:21:37.405000+00:00</time>
      </trkpt>
      <trkpt lat="0" lon="0">
        <time>2021-02-28T08:21:37.410000+00:00</time>
      </trkpt>
      <trkpt lat="0" lon="0">
        <time>2021-02-28T08:21:37.412000+00:00</time>
      </trkpt>
      <trkpt lat="47.30068" lon="-1.39782">
        <ele>103</ele>
        <time>2021-02-28T08:21:38.375000+00:00</time>
      </trkpt>
      <trkpt lat="0" lon="0">
        <time>2021-02-28T08:21:38.385000+00:00</time>
      </trkpt>
      <trkpt lat="0" lon="0">
        <time>2021-02-28T08:21:38.389000+00:00</time>
      </trkpt>
      <trkpt lat="0" lon="0">
        <time>2021-02-28T08:21:38.392000+00:00</time>
      </trkpt>
      <trkpt lat="47.30072" lon="-1.39791">
        <ele>103</ele>
        <time>2021-02-28T08:21:39.370000+00:00</time>
      </trkpt>
      <trkpt lat="0" lon="0">
        <time>2021-02-28T08:21:39.381000+00:00</time>
      </trkpt>
      <trkpt lat="0" lon="0">
        <time>2021-02-28T08:21:39.387000+00:00</time>
      </trkpt>
      <trkpt lat="0" lon="0">
        <time>2021-02-28T08:21:39.391000+00:00</time>
      </trkpt>
      <trkpt lat="47.30076" lon="-1.39799">
        <ele>103</ele>
        <time>2021-02-28T08:21:40.380000+00:00</time>
      </trkpt>
      <trkpt lat="0" lon="0">
        <time>2021-02-28T08:21:40.387000+00:00</time>
      </trkpt>
      <trkpt lat="0" lon="0">
        <time>2021-02-28T08:21:40.394000+00:00</time>
      </trkpt>
      <trkpt lat="0" lon="0">
        <time>2021-02-28T08:21:40.397000+00:00</time>
      </trkpt>
      <trkpt lat="47.3008" lon="-1.39808">
        <ele>103</ele>
        <time>2021-02-28T08:21:41.394000+00:00</time>
      </trkpt>
      <trkpt lat="0" lon="0">
        <time>2021-02-28T08:21:41.407000+00:00</time>
      </trkpt>
      <trkpt lat="0" lon="0">
        <time>2021-02-28T08:21:41.413000+00:00</time>
      </trkpt>
      <trkpt lat="0" lon="0">
        <time>2021-02-28T08:21:41.415000+00:00</time>
      </trkpt>
      <trkpt lat="47.30084" lon="-1.39815">
        <ele>103</ele>
        <time>2021-02-28T08:21:42.393000+00:00</time>
      </trkpt>
      <trkpt lat="0" lon="0">
        <time>2021-02-28T08:21:42.403000+00:00</time>
      </trkpt>
      <trkpt lat="0" lon="0">
        <time>2021-02-28T08:21:42.407000+00:00</time>
      </trkpt>
      <trkpt lat="0" lon="0">
        <time>2021-02-28T08:21:42.409000+00:00</time>
      </trkpt>
      <trkpt lat="47.30088" lon="-1.39821">
        <ele>103</ele>
        <time>2021-02-28T08:21:43.396000+00:00</time>
      </trkpt>
      <trkpt lat="0" lon="0">
        <time>2021-02-28T08:21:43.404000+00:00</time>
      </trkpt>
      <trkpt lat="0" lon="0">
        <time>2021-02-28T08:21:43.408000+00:00</time>
      </trkpt>
      <trkpt lat="0" lon="0">
        <time>2021-02-28T08:21:43.411000+00:00</time>
      </trkpt>
      <trkpt lat="47.30093" lon="-1.39827">
        <ele>102</ele>
        <time>2021-02-28T08:21:44.383000+00:00</time>
      </trkpt>
      <trkpt lat="0" lon="0">
        <time>2021-02-28T08:21:44.388000+00:00</time>
      </trkpt>
      <trkpt lat="0" lon="0">
        <time>2021-02-28T08:21:44.394000+00:00</time>
      </trkpt>
      <trkpt lat="0" lon="0">
        <time>2021-02-28T08:21:44.397000+00:00</time>
      </trkpt>
      <trkpt lat="47.30097" lon="-1.39832">
        <ele>102</ele>
        <time>2021-02-28T08:21:45.366000+00:00</time>
      </trkpt>
      <trkpt lat="0" lon="0">
        <time>2021-02-28T08:21:45.376000+00:00</time>
      </trkpt>
      <trkpt lat="0" lon="0">
        <time>2021-02-28T08:21:45.385000+00:00</time>
      </trkpt>
      <trkpt lat="0" lon="0">
        <time>2021-02-28T08:21:45.387000+00:00</time>
      </trkpt>
      <trkpt lat="47.30102" lon="-1.39838">
        <ele>102</ele>
        <time>2021-02-28T08:21:46.420000+00:00</time>
      </trkpt>
      <trkpt lat="0" lon="0">
        <time>2021-02-28T08:21:46.429000+00:00</time>
      </trkpt>
      <trkpt lat="0" lon="0">
        <time>2021-02-28T08:21:46.438000+00:00</time>
      </trkpt>
      <trkpt lat="0" lon="0">
        <time>2021-02-28T08:21:46.441000+00:00</time>
      </trkpt>
      <trkpt lat="47.30106" lon="-1.39843">
        <ele>102</ele>
        <time>2021-02-28T08:21:47.395000+00:00</time>
      </trkpt>
      <trkpt lat="0" lon="0">
        <time>2021-02-28T08:21:47.403000+00:00</time>
      </trkpt>
      <trkpt lat="0" lon="0">
        <time>2021-02-28T08:21:47.408000+00:00</time>
      </trkpt>
      <trkpt lat="0" lon="0">
        <time>2021-02-28T08:21:47.412000+00:00</time>
      </trkpt>
      <trkpt lat="47.3011" lon="-1.39847">
        <ele>102</ele>
        <time>2021-02-28T08:21:48.356000+00:00</time>
      </trkpt>
      <trkpt lat="0" lon="0">
        <time>2021-02-28T08:21:48.362000+00:00</time>
      </trkpt>
      <trkpt lat="0" lon="0">
        <time>2021-02-28T08:21:48.368000+00:00</time>
      </trkpt>
      <trkpt lat="0" lon="0">
        <time>2021-02-28T08:21:48.371000+00:00</time>
      </trkpt>
      <trkpt lat="47.30113" lon="-1.39851">
        <ele>102</ele>
        <time>2021-02-28T08:21:49.372000+00:00</time>
      </trkpt>
      <trkpt lat="0" lon="0">
        <time>2021-02-28T08:21:49.383000+00:00</time>
      </trkpt>
      <trkpt lat="0" lon="0">
        <time>2021-02-28T08:21:49.391000+00:00</time>
      </trkpt>
      <trkpt lat="0" lon="0">
        <time>2021-02-28T08:21:49.393000+00:00</time>
      </trkpt>
      <trkpt lat="47.30116" lon="-1.39855">
        <ele>103</ele>
        <time>2021-02-28T08:21:50.409000+00:00</time>
      </trkpt>
      <trkpt lat="0" lon="0">
        <time>2021-02-28T08:21:50.415000+00:00</time>
      </trkpt>
      <trkpt lat="0" lon="0">
        <time>2021-02-28T08:21:50.421000+00:00</time>
      </trkpt>
      <trkpt lat="0" lon="0">
        <time>2021-02-28T08:21:50.424000+00:00</time>
      </trkpt>
      <trkpt lat="47.30119" lon="-1.39857">
        <ele>103</ele>
        <time>2021-02-28T08:21:51.389000+00:00</time>
      </trkpt>
      <trkpt lat="0" lon="0">
        <time>2021-02-28T08:21:51.395000+00:00</time>
      </trkpt>
      <trkpt lat="0" lon="0">
        <time>2021-02-28T08:21:51.400000+00:00</time>
      </trkpt>
      <trkpt lat="0" lon="0">
        <time>2021-02-28T08:21:51.404000+00:00</time>
      </trkpt>
      <trkpt lat="47.3012" lon="-1.39859">
        <ele>103</ele>
        <time>2021-02-28T08:21:52.392000+00:00</time>
      </trkpt>
      <trkpt lat="0" lon="0">
        <time>2021-02-28T08:21:52.398000+00:00</time>
      </trkpt>
      <trkpt lat="0" lon="0">
        <time>2021-02-28T08:21:52.404000+00:00</time>
      </trkpt>
      <trkpt lat="0" lon="0">
        <time>2021-02-28T08:21:52.407000+00:00</time>
      </trkpt>
      <trkpt lat="47.30122" lon="-1.3986">
        <ele>103</ele>
        <time>2021-02-28T08:21:53.400000+00:00</time>
      </trkpt>
      <trkpt lat="0" lon="0">
        <time>2021-02-28T08:21:53.405000+00:00</time>
      </trkpt>
      <trkpt lat="0" lon="0">
        <time>2021-02-28T08:21:53.410000+00:00</time>
      </trkpt>
      <trkpt lat="0" lon="0">
        <time>2021-02-28T08:21:53.413000+00:00</time>
      </trkpt>
      <trkpt lat="47.30122" lon="-1.3986">
        <ele>103</ele>
        <time>2021-02-28T08:21:54.321000+00:00</time>
      </trkpt>
      <trkpt lat="0" lon="0">
        <time>2021-02-28T08:21:54.325000+00:00</time>
      </trkpt>
      <trkpt lat="0" lon="0">
        <time>2021-02-28T08:21:54.332000+00:00</time>
      </trkpt>
      <trkpt lat="0" lon="0">
        <time>2021-02-28T08:21:54.335000+00:00</time>
      </trkpt>
      <trkpt lat="47.30123" lon="-1.39861">
        <ele>104</ele>
        <time>2021-02-28T08:21:55.353000+00:00</time>
      </trkpt>
      <trkpt lat="0" lon="0">
        <time>2021-02-28T08:21:55.358000+00:00</time>
      </trkpt>
      <trkpt lat="0" lon="0">
        <time>2021-02-28T08:21:55.363000+00:00</time>
      </trkpt>
      <trkpt lat="0" lon="0">
        <time>2021-02-28T08:21:55.365000+00:00</time>
      </trkpt>
      <trkpt lat="47.30123" lon="-1.39862">
        <ele>104</ele>
        <time>2021-02-28T08:21:56.395000+00:00</time>
      </trkpt>
      <trkpt lat="0" lon="0">
        <time>2021-02-28T08:21:56.407000+00:00</time>
      </trkpt>
      <trkpt lat="0" lon="0">
        <time>2021-02-28T08:21:56.411000+00:00</time>
      </trkpt>
      <trkpt lat="0" lon="0">
        <time>2021-02-28T08:21:56.414000+00:00</time>
      </trkpt>
      <trkpt lat="47.30123" lon="-1.39863">
        <ele>104</ele>
        <time>2021-02-28T08:21:57.326000+00:00</time>
      </trkpt>
      <trkpt lat="0" lon="0">
        <time>2021-02-28T08:21:57.332000+00:00</time>
      </trkpt>
      <trkpt lat="0" lon="0">
        <time>2021-02-28T08:21:57.344000+00:00</time>
      </trkpt>
      <trkpt lat="0" lon="0">
        <time>2021-02-28T08:21:57.346000+00:00</time>
      </trkpt>
      <trkpt lat="47.30122" lon="-1.39864">
        <ele>105</ele>
        <time>2021-02-28T08:21:58.408000+00:00</time>
      </trkpt>
      <trkpt lat="0" lon="0">
        <time>2021-02-28T08:21:58.422000+00:00</time>
      </trkpt>
      <trkpt lat="0" lon="0">
        <time>2021-02-28T08:21:58.431000+00:00</time>
      </trkpt>
      <trkpt lat="0" lon="0">
        <time>2021-02-28T08:21:58.434000+00:00</time>
      </trkpt>
      <trkpt lat="47.30122" lon="-1.39865">
        <ele>105</ele>
        <time>2021-02-28T08:21:59.335000+00:00</time>
      </trkpt>
      <trkpt lat="0" lon="0">
        <time>2021-02-28T08:21:59.346000+00:00</time>
      </trkpt>
      <trkpt lat="0" lon="0">
        <time>2021-02-28T08:21:59.352000+00:00</time>
      </trkpt>
      <trkpt lat="0" lon="0">
        <time>2021-02-28T08:21:59.357000+00:00</time>
      </trkpt>
      <trkpt lat="47.30121" lon="-1.39866">
        <ele>105</ele>
        <time>2021-02-28T08:22:00.422000+00:00</time>
      </trkpt>
      <trkpt lat="0" lon="0">
        <time>2021-02-28T08:22:00.430000+00:00</time>
      </trkpt>
      <trkpt lat="0" lon="0">
        <time>2021-02-28T08:22:00.440000+00:00</time>
      </trkpt>
      <trkpt lat="0" lon="0">
        <time>2021-02-28T08:22:00.443000+00:00</time>
      </trkpt>
      <trkpt lat="47.3012" lon="-1.39868">
        <ele>106</ele>
        <time>2021-02-28T08:22:01.410000+00:00</time>
      </trkpt>
      <trkpt lat="0" lon="0">
        <time>2021-02-28T08:22:01.416000+00:00</time>
      </trkpt>
      <trkpt lat="0" lon="0">
        <time>2021-02-28T08:22:01.421000+00:00</time>
      </trkpt>
      <trkpt lat="0" lon="0">
        <time>2021-02-28T08:22:01.424000+00:00</time>
      </trkpt>
      <trkpt lat="47.30119" lon="-1.3987">
        <ele>106</ele>
        <time>2021-02-28T08:22:02.373000+00:00</time>
      </trkpt>
      <trkpt lat="0" lon="0">
        <time>2021-02-28T08:22:02.381000+00:00</time>
      </trkpt>
      <trkpt lat="0" lon="0">
        <time>2021-02-28T08:22:02.386000+00:00</time>
      </trkpt>
      <trkpt lat="0" lon="0">
        <time>2021-02-28T08:22:02.389000+00:00</time>
      </trkpt>
      <trkpt lat="47.30117" lon="-1.39872">
        <ele>106</ele>
        <time>2021-02-28T08:22:03.386000+00:00</time>
      </trkpt>
      <trkpt lat="0" lon="0">
        <time>2021-02-28T08:22:03.396000+00:00</time>
      </trkpt>
      <trkpt lat="0" lon="0">
        <time>2021-02-28T08:22:03.401000+00:00</time>
      </trkpt>
      <trkpt lat="0" lon="0">
        <time>2021-02-28T08:22:03.406000+00:00</time>
      </trkpt>
      <trkpt lat="47.30116" lon="-1.39876">
        <ele>106</ele>
        <time>2021-02-28T08:22:04.410000+00:00</time>
      </trkpt>
      <trkpt lat="0" lon="0">
        <time>2021-02-28T08:22:04.415000+00:00</time>
      </trkpt>
      <trkpt lat="0" lon="0">
        <time>2021-02-28T08:22:04.421000+00:00</time>
      </trkpt>
      <trkpt lat="0" lon="0">
        <time>2021-02-28T08:22:04.424000+00:00</time>
      </trkpt>
      <trkpt lat="47.30114" lon="-1.39879">
        <ele>106</ele>
        <time>2021-02-28T08:22:05.374000+00:00</time>
      </trkpt>
      <trkpt lat="0" lon="0">
        <time>2021-02-28T08:22:05.386000+00:00</time>
      </trkpt>
      <trkpt lat="0" lon="0">
        <time>2021-02-28T08:22:05.393000+00:00</time>
      </trkpt>
      <trkpt lat="0" lon="0">
        <time>2021-02-28T08:22:05.396000+00:00</time>
      </trkpt>
      <trkpt lat="47.30112" lon="-1.39884">
        <ele>106</ele>
        <time>2021-02-28T08:22:06.336000+00:00</time>
      </trkpt>
      <trkpt lat="0" lon="0">
        <time>2021-02-28T08:22:06.350000+00:00</time>
      </trkpt>
      <trkpt lat="0" lon="0">
        <time>2021-02-28T08:22:06.352000+00:00</time>
      </trkpt>
      <trkpt lat="0" lon="0">
        <time>2021-02-28T08:22:06.353000+00:00</time>
      </trkpt>
      <trkpt lat="47.30109" lon="-1.39889">
        <ele>105</ele>
        <time>2021-02-28T08:22:07.352000+00:00</time>
      </trkpt>
      <trkpt lat="0" lon="0">
        <time>2021-02-28T08:22:07.360000+00:00</time>
      </trkpt>
      <trkpt lat="0" lon="0">
        <time>2021-02-28T08:22:07.366000+00:00</time>
      </trkpt>
      <trkpt lat="0" lon="0">
        <time>2021-02-28T08:22:07.369000+00:00</time>
      </trkpt>
      <trkpt lat="47.30107" lon="-1.39894">
        <ele>104</ele>
        <time>2021-02-28T08:22:08.375000+00:00</time>
      </trkpt>
      <trkpt lat="0" lon="0">
        <time>2021-02-28T08:22:08.387000+00:00</time>
      </trkpt>
      <trkpt lat="0" lon="0">
        <time>2021-02-28T08:22:08.392000+00:00</time>
      </trkpt>
      <trkpt lat="0" lon="0">
        <time>2021-02-28T08:22:08.395000+00:00</time>
      </trkpt>
      <trkpt lat="47.30104" lon="-1.399">
        <ele>103</ele>
        <time>2021-02-28T08:22:09.323000+00:00</time>
      </trkpt>
      <trkpt lat="0" lon="0">
        <time>2021-02-28T08:22:09.328000+00:00</time>
      </trkpt>
      <trkpt lat="0" lon="0">
        <time>2021-02-28T08:22:09.333000+00:00</time>
      </trkpt>
      <trkpt lat="0" lon="0">
        <time>2021-02-28T08:22:09.338000+00:00</time>
      </trkpt>
      <trkpt lat="47.30102" lon="-1.39907">
        <ele>103</ele>
        <time>2021-02-28T08:22:10.402000+00:00</time>
      </trkpt>
      <trkpt lat="0" lon="0">
        <time>2021-02-28T08:22:10.408000+00:00</time>
      </trkpt>
      <trkpt lat="0" lon="0">
        <time>2021-02-28T08:22:10.413000+00:00</time>
      </trkpt>
      <trkpt lat="0" lon="0">
        <time>2021-02-28T08:22:10.416000+00:00</time>
      </trkpt>
      <trkpt lat="47.30099" lon="-1.39914">
        <ele>102</ele>
        <time>2021-02-28T08:22:11.373000+00:00</time>
      </trkpt>
      <trkpt lat="0" lon="0">
        <time>2021-02-28T08:22:11.384000+00:00</time>
      </trkpt>
      <trkpt lat="0" lon="0">
        <time>2021-02-28T08:22:11.389000+00:00</time>
      </trkpt>
      <trkpt lat="0" lon="0">
        <time>2021-02-28T08:22:11.392000+00:00</time>
      </trkpt>
      <trkpt lat="47.30096" lon="-1.39921">
        <ele>102</ele>
        <time>2021-02-28T08:22:12.335000+00:00</time>
      </trkpt>
      <trkpt lat="0" lon="0">
        <time>2021-02-28T08:22:12.342000+00:00</time>
      </trkpt>
      <trkpt lat="0" lon="0">
        <time>2021-02-28T08:22:12.346000+00:00</time>
      </trkpt>
      <trkpt lat="0" lon="0">
        <time>2021-02-28T08:22:12.349000+00:00</time>
      </trkpt>
      <trkpt lat="47.30094" lon="-1.39929">
        <ele>103</ele>
        <time>2021-02-28T08:22:13.392000+00:00</time>
      </trkpt>
      <trkpt lat="0" lon="0">
        <time>2021-02-28T08:22:13.397000+00:00</time>
      </trkpt>
      <trkpt lat="0" lon="0">
        <time>2021-02-28T08:22:13.402000+00:00</time>
      </trkpt>
      <trkpt lat="0" lon="0">
        <time>2021-02-28T08:22:13.404000+00:00</time>
      </trkpt>
      <trkpt lat="47.30091" lon="-1.39936">
        <ele>102</ele>
        <time>2021-02-28T08:22:14.364000+00:00</time>
      </trkpt>
      <trkpt lat="0" lon="0">
        <time>2021-02-28T08:22:14.369000+00:00</time>
      </trkpt>
      <trkpt lat="0" lon="0">
        <time>2021-02-28T08:22:14.379000+00:00</time>
      </trkpt>
      <trkpt lat="0" lon="0">
        <time>2021-02-28T08:22:14.381000+00:00</time>
      </trkpt>
      <trkpt lat="47.30089" lon="-1.39944">
        <ele>102</ele>
        <time>2021-02-28T08:22:15.405000+00:00</time>
      </trkpt>
      <trkpt lat="0" lon="0">
        <time>2021-02-28T08:22:15.415000+00:00</time>
      </trkpt>
      <trkpt lat="0" lon="0">
        <time>2021-02-28T08:22:15.426000+00:00</time>
      </trkpt>
      <trkpt lat="0" lon="0">
        <time>2021-02-28T08:22:15.431000+00:00</time>
      </trkpt>
      <trkpt lat="47.30087" lon="-1.39953">
        <ele>102</ele>
        <time>2021-02-28T08:22:16.393000+00:00</time>
      </trkpt>
      <trkpt lat="0" lon="0">
        <time>2021-02-28T08:22:16.404000+00:00</time>
      </trkpt>
      <trkpt lat="0" lon="0">
        <time>2021-02-28T08:22:16.410000+00:00</time>
      </trkpt>
      <trkpt lat="0" lon="0">
        <time>2021-02-28T08:22:16.413000+00:00</time>
      </trkpt>
      <trkpt lat="47.30086" lon="-1.39962">
        <ele>102</ele>
        <time>2021-02-28T08:22:17.407000+00:00</time>
      </trkpt>
      <trkpt lat="0" lon="0">
        <time>2021-02-28T08:22:17.413000+00:00</time>
      </trkpt>
      <trkpt lat="0" lon="0">
        <time>2021-02-28T08:22:17.418000+00:00</time>
      </trkpt>
      <trkpt lat="0" lon="0">
        <time>2021-02-28T08:22:17.421000+00:00</time>
      </trkpt>
      <trkpt lat="47.30085" lon="-1.39971">
        <ele>102</ele>
        <time>2021-02-28T08:22:18.380000+00:00</time>
      </trkpt>
      <trkpt lat="0" lon="0">
        <time>2021-02-28T08:22:18.389000+00:00</time>
      </trkpt>
      <trkpt lat="0" lon="0">
        <time>2021-02-28T08:22:18.395000+00:00</time>
      </trkpt>
      <trkpt lat="0" lon="0">
        <time>2021-02-28T08:22:18.397000+00:00</time>
      </trkpt>
      <trkpt lat="47.30084" lon="-1.3998">
        <ele>101</ele>
        <time>2021-02-28T08:22:19.399000+00:00</time>
      </trkpt>
      <trkpt lat="0" lon="0">
        <time>2021-02-28T08:22:19.410000+00:00</time>
      </trkpt>
      <trkpt lat="0" lon="0">
        <time>2021-02-28T08:22:19.415000+00:00</time>
      </trkpt>
      <trkpt lat="0" lon="0">
        <time>2021-02-28T08:22:19.417000+00:00</time>
      </trkpt>
      <trkpt lat="47.30085" lon="-1.3999">
        <ele>101</ele>
        <time>2021-02-28T08:22:20.373000+00:00</time>
      </trkpt>
      <trkpt lat="0" lon="0">
        <time>2021-02-28T08:22:20.385000+00:00</time>
      </trkpt>
      <trkpt lat="0" lon="0">
        <time>2021-02-28T08:22:20.395000+00:00</time>
      </trkpt>
      <trkpt lat="0" lon="0">
        <time>2021-02-28T08:22:20.400000+00:00</time>
      </trkpt>
      <trkpt lat="47.30086" lon="-1.4">
        <ele>100</ele>
        <time>2021-02-28T08:22:21.420000+00:00</time>
      </trkpt>
      <trkpt lat="0" lon="0">
        <time>2021-02-28T08:22:21.428000+00:00</time>
      </trkpt>
      <trkpt lat="0" lon="0">
        <time>2021-02-28T08:22:21.434000+00:00</time>
      </trkpt>
      <trkpt lat="0" lon="0">
        <time>2021-02-28T08:22:21.436000+00:00</time>
      </trkpt>
      <trkpt lat="47.30088" lon="-1.4001">
        <ele>100</ele>
        <time>2021-02-28T08:22:22.382000+00:00</time>
      </trkpt>
      <trkpt lat="0" lon="0">
        <time>2021-02-28T08:22:22.386000+00:00</time>
      </trkpt>
      <trkpt lat="0" lon="0">
        <time>2021-02-28T08:22:22.390000+00:00</time>
      </trkpt>
      <trkpt lat="0" lon="0">
        <time>2021-02-28T08:22:22.392000+00:00</time>
      </trkpt>
      <trkpt lat="47.3009" lon="-1.4002">
        <ele>100</ele>
        <time>2021-02-28T08:22:23.315000+00:00</time>
      </trkpt>
      <trkpt lat="0" lon="0">
        <time>2021-02-28T08:22:23.322000+00:00</time>
      </trkpt>
      <trkpt lat="0" lon="0">
        <time>2021-02-28T08:22:23.327000+00:00</time>
      </trkpt>
      <trkpt lat="0" lon="0">
        <time>2021-02-28T08:22:23.330000+00:00</time>
      </trkpt>
      <trkpt lat="47.30093" lon="-1.40029">
        <ele>101</ele>
        <time>2021-02-28T08:22:24.367000+00:00</time>
      </trkpt>
      <trkpt lat="0" lon="0">
        <time>2021-02-28T08:22:24.375000+00:00</time>
      </trkpt>
      <trkpt lat="0" lon="0">
        <time>2021-02-28T08:22:24.381000+00:00</time>
      </trkpt>
      <trkpt lat="0" lon="0">
        <time>2021-02-28T08:22:24.384000+00:00</time>
      </trkpt>
      <trkpt lat="47.30098" lon="-1.40038">
        <ele>101</ele>
        <time>2021-02-28T08:22:25.392000+00:00</time>
      </trkpt>
      <trkpt lat="0" lon="0">
        <time>2021-02-28T08:22:25.398000+00:00</time>
      </trkpt>
      <trkpt lat="0" lon="0">
        <time>2021-02-28T08:22:25.403000+00:00</time>
      </trkpt>
      <trkpt lat="0" lon="0">
        <time>2021-02-28T08:22:25.406000+00:00</time>
      </trkpt>
      <trkpt lat="47.30102" lon="-1.40047">
        <ele>101</ele>
        <time>2021-02-28T08:22:26.396000+00:00</time>
      </trkpt>
      <trkpt lat="0" lon="0">
        <time>2021-02-28T08:22:26.408000+00:00</time>
      </trkpt>
      <trkpt lat="0" lon="0">
        <time>2021-02-28T08:22:26.415000+00:00</time>
      </trkpt>
      <trkpt lat="0" lon="0">
        <time>2021-02-28T08:22:26.417000+00:00</time>
      </trkpt>
      <trkpt lat="47.30108" lon="-1.40055">
        <ele>102</ele>
        <time>2021-02-28T08:22:27.414000+00:00</time>
      </trkpt>
      <trkpt lat="0" lon="0">
        <time>2021-02-28T08:22:27.422000+00:00</time>
      </trkpt>
      <trkpt lat="0" lon="0">
        <time>2021-02-28T08:22:27.426000+00:00</time>
      </trkpt>
      <trkpt lat="0" lon="0">
        <time>2021-02-28T08:22:27.429000+00:00</time>
      </trkpt>
      <trkpt lat="47.30114" lon="-1.40062">
        <ele>102</ele>
        <time>2021-02-28T08:22:28.382000+00:00</time>
      </trkpt>
      <trkpt lat="0" lon="0">
        <time>2021-02-28T08:22:28.389000+00:00</time>
      </trkpt>
      <trkpt lat="0" lon="0">
        <time>2021-02-28T08:22:28.395000+00:00</time>
      </trkpt>
      <trkpt lat="0" lon="0">
        <time>2021-02-28T08:22:28.398000+00:00</time>
      </trkpt>
      <trkpt lat="47.3012" lon="-1.40069">
        <ele>102</ele>
        <time>2021-02-28T08:22:29.347000+00:00</time>
      </trkpt>
      <trkpt lat="0" lon="0">
        <time>2021-02-28T08:22:29.355000+00:00</time>
      </trkpt>
      <trkpt lat="0" lon="0">
        <time>2021-02-28T08:22:29.362000+00:00</time>
      </trkpt>
      <trkpt lat="0" lon="0">
        <time>2021-02-28T08:22:29.364000+00:00</time>
      </trkpt>
      <trkpt lat="47.30126" lon="-1.40075">
        <ele>102</ele>
        <time>2021-02-28T08:22:30.432000+00:00</time>
      </trkpt>
      <trkpt lat="0" lon="0">
        <time>2021-02-28T08:22:30.439000+00:00</time>
      </trkpt>
      <trkpt lat="0" lon="0">
        <time>2021-02-28T08:22:30.446000+00:00</time>
      </trkpt>
      <trkpt lat="0" lon="0">
        <time>2021-02-28T08:22:30.449000+00:00</time>
      </trkpt>
      <trkpt lat="47.30133" lon="-1.40081">
        <ele>101</ele>
        <time>2021-02-28T08:22:31.375000+00:00</time>
      </trkpt>
      <trkpt lat="0" lon="0">
        <time>2021-02-28T08:22:31.386000+00:00</time>
      </trkpt>
      <trkpt lat="0" lon="0">
        <time>2021-02-28T08:22:31.398000+00:00</time>
      </trkpt>
      <trkpt lat="0" lon="0">
        <time>2021-02-28T08:22:31.400000+00:00</time>
      </trkpt>
      <trkpt lat="47.3014" lon="-1.40087">
        <ele>101</ele>
        <time>2021-02-28T08:22:32.390000+00:00</time>
      </trkpt>
      <trkpt lat="0" lon="0">
        <time>2021-02-28T08:22:32.397000+00:00</time>
      </trkpt>
      <trkpt lat="0" lon="0">
        <time>2021-02-28T08:22:32.404000+00:00</time>
      </trkpt>
      <trkpt lat="0" lon="0">
        <time>2021-02-28T08:22:32.408000+00:00</time>
      </trkpt>
      <trkpt lat="47.30147" lon="-1.40092">
        <ele>100</ele>
        <time>2021-02-28T08:22:33.386000+00:00</time>
      </trkpt>
      <trkpt lat="0" lon="0">
        <time>2021-02-28T08:22:33.394000+00:00</time>
      </trkpt>
      <trkpt lat="0" lon="0">
        <time>2021-02-28T08:22:33.402000+00:00</time>
      </trkpt>
      <trkpt lat="0" lon="0">
        <time>2021-02-28T08:22:33.407000+00:00</time>
      </trkpt>
      <trkpt lat="47.30154" lon="-1.40098">
        <ele>100</ele>
        <time>2021-02-28T08:22:34.376000+00:00</time>
      </trkpt>
      <trkpt lat="0" lon="0">
        <time>2021-02-28T08:22:34.387000+00:00</time>
      </trkpt>
      <trkpt lat="0" lon="0">
        <time>2021-02-28T08:22:34.392000+00:00</time>
      </trkpt>
      <trkpt lat="0" lon="0">
        <time>2021-02-28T08:22:34.394000+00:00</time>
      </trkpt>
      <trkpt lat="47.30161" lon="-1.40103">
        <ele>100</ele>
        <time>2021-02-28T08:22:35.364000+00:00</time>
      </trkpt>
      <trkpt lat="0" lon="0">
        <time>2021-02-28T08:22:35.369000+00:00</time>
      </trkpt>
      <trkpt lat="0" lon="0">
        <time>2021-02-28T08:22:35.374000+00:00</time>
      </trkpt>
      <trkpt lat="0" lon="0">
        <time>2021-02-28T08:22:35.376000+00:00</time>
      </trkpt>
      <trkpt lat="47.30169" lon="-1.40109">
        <ele>99</ele>
        <time>2021-02-28T08:22:36.405000+00:00</time>
      </trkpt>
      <trkpt lat="0" lon="0">
        <time>2021-02-28T08:22:36.416000+00:00</time>
      </trkpt>
      <trkpt lat="0" lon="0">
        <time>2021-02-28T08:22:36.422000+00:00</time>
      </trkpt>
      <trkpt lat="0" lon="0">
        <time>2021-02-28T08:22:36.425000+00:00</time>
      </trkpt>
      <trkpt lat="47.30176" lon="-1.40114">
        <ele>99</ele>
        <time>2021-02-28T08:22:37.391000+00:00</time>
      </trkpt>
      <trkpt lat="0" lon="0">
        <time>2021-02-28T08:22:37.397000+00:00</time>
      </trkpt>
      <trkpt lat="0" lon="0">
        <time>2021-02-28T08:22:37.402000+00:00</time>
      </trkpt>
      <trkpt lat="0" lon="0">
        <time>2021-02-28T08:22:37.405000+00:00</time>
      </trkpt>
      <trkpt lat="47.30184" lon="-1.40119">
        <ele>99</ele>
        <time>2021-02-28T08:22:38.380000+00:00</time>
      </trkpt>
      <trkpt lat="0" lon="0">
        <time>2021-02-28T08:22:38.390000+00:00</time>
      </trkpt>
      <trkpt lat="0" lon="0">
        <time>2021-02-28T08:22:38.400000+00:00</time>
      </trkpt>
      <trkpt lat="0" lon="0">
        <time>2021-02-28T08:22:38.407000+00:00</time>
      </trkpt>
      <trkpt lat="47.30191" lon="-1.40125">
        <ele>99</ele>
        <time>2021-02-28T08:22:39.385000+00:00</time>
      </trkpt>
      <trkpt lat="0" lon="0">
        <time>2021-02-28T08:22:39.391000+00:00</time>
      </trkpt>
      <trkpt lat="0" lon="0">
        <time>2021-02-28T08:22:39.397000+00:00</time>
      </trkpt>
      <trkpt lat="0" lon="0">
        <time>2021-02-28T08:22:39.400000+00:00</time>
      </trkpt>
      <trkpt lat="47.30199" lon="-1.4013">
        <ele>99</ele>
        <time>2021-02-28T08:22:40.384000+00:00</time>
      </trkpt>
      <trkpt lat="0" lon="0">
        <time>2021-02-28T08:22:40.397000+00:00</time>
      </trkpt>
      <trkpt lat="0" lon="0">
        <time>2021-02-28T08:22:40.405000+00:00</time>
      </trkpt>
      <trkpt lat="0" lon="0">
        <time>2021-02-28T08:22:40.407000+00:00</time>
      </trkpt>
      <trkpt lat="47.30206" lon="-1.40135">
        <ele>98</ele>
        <time>2021-02-28T08:22:41.402000+00:00</time>
      </trkpt>
      <trkpt lat="0" lon="0">
        <time>2021-02-28T08:22:41.414000+00:00</time>
      </trkpt>
      <trkpt lat="0" lon="0">
        <time>2021-02-28T08:22:41.422000+00:00</time>
      </trkpt>
      <trkpt lat="0" lon="0">
        <time>2021-02-28T08:22:41.426000+00:00</time>
      </trkpt>
      <trkpt lat="47.30213" lon="-1.40141">
        <ele>98</ele>
        <time>2021-02-28T08:22:42.380000+00:00</time>
      </trkpt>
      <trkpt lat="0" lon="0">
        <time>2021-02-28T08:22:42.392000+00:00</time>
      </trkpt>
      <trkpt lat="0" lon="0">
        <time>2021-02-28T08:22:42.399000+00:00</time>
      </trkpt>
      <trkpt lat="0" lon="0">
        <time>2021-02-28T08:22:42.403000+00:00</time>
      </trkpt>
      <trkpt lat="47.30221" lon="-1.40147">
        <ele>97</ele>
        <time>2021-02-28T08:22:43.368000+00:00</time>
      </trkpt>
      <trkpt lat="0" lon="0">
        <time>2021-02-28T08:22:43.378000+00:00</time>
      </trkpt>
      <trkpt lat="0" lon="0">
        <time>2021-02-28T08:22:43.383000+00:00</time>
      </trkpt>
      <trkpt lat="0" lon="0">
        <time>2021-02-28T08:22:43.387000+00:00</time>
      </trkpt>
      <trkpt lat="47.30228" lon="-1.40153">
        <ele>97</ele>
        <time>2021-02-28T08:22:44.391000+00:00</time>
      </trkpt>
      <trkpt lat="0" lon="0">
        <time>2021-02-28T08:22:44.397000+00:00</time>
      </trkpt>
      <trkpt lat="0" lon="0">
        <time>2021-02-28T08:22:44.402000+00:00</time>
      </trkpt>
      <trkpt lat="0" lon="0">
        <time>2021-02-28T08:22:44.405000+00:00</time>
      </trkpt>
      <trkpt lat="47.30235" lon="-1.40159">
        <ele>98</ele>
        <time>2021-02-28T08:22:45.392000+00:00</time>
      </trkpt>
      <trkpt lat="0" lon="0">
        <time>2021-02-28T08:22:45.403000+00:00</time>
      </trkpt>
      <trkpt lat="0" lon="0">
        <time>2021-02-28T08:22:45.412000+00:00</time>
      </trkpt>
      <trkpt lat="0" lon="0">
        <time>2021-02-28T08:22:45.418000+00:00</time>
      </trkpt>
      <trkpt lat="47.30243" lon="-1.40165">
        <ele>98</ele>
        <time>2021-02-28T08:22:46.382000+00:00</time>
      </trkpt>
      <trkpt lat="0" lon="0">
        <time>2021-02-28T08:22:46.387000+00:00</time>
      </trkpt>
      <trkpt lat="0" lon="0">
        <time>2021-02-28T08:22:46.392000+00:00</time>
      </trkpt>
      <trkpt lat="0" lon="0">
        <time>2021-02-28T08:22:46.394000+00:00</time>
      </trkpt>
      <trkpt lat="47.3025" lon="-1.4017">
        <ele>97</ele>
        <time>2021-02-28T08:22:47.367000+00:00</time>
      </trkpt>
      <trkpt lat="0" lon="0">
        <time>2021-02-28T08:22:47.378000+00:00</time>
      </trkpt>
      <trkpt lat="0" lon="0">
        <time>2021-02-28T08:22:47.388000+00:00</time>
      </trkpt>
      <trkpt lat="0" lon="0">
        <time>2021-02-28T08:22:47.391000+00:00</time>
      </trkpt>
      <trkpt lat="47.30257" lon="-1.40176">
        <ele>97</ele>
        <time>2021-02-28T08:22:48.360000+00:00</time>
      </trkpt>
      <trkpt lat="0" lon="0">
        <time>2021-02-28T08:22:48.367000+00:00</time>
      </trkpt>
      <trkpt lat="0" lon="0">
        <time>2021-02-28T08:22:48.372000+00:00</time>
      </trkpt>
      <trkpt lat="0" lon="0">
        <time>2021-02-28T08:22:48.374000+00:00</time>
      </trkpt>
      <trkpt lat="47.30264" lon="-1.40182">
        <ele>96</ele>
        <time>2021-02-28T08:22:49.397000+00:00</time>
      </trkpt>
      <trkpt lat="0" lon="0">
        <time>2021-02-28T08:22:49.408000+00:00</time>
      </trkpt>
      <trkpt lat="0" lon="0">
        <time>2021-02-28T08:22:49.413000+00:00</time>
      </trkpt>
      <trkpt lat="0" lon="0">
        <time>2021-02-28T08:22:49.416000+00:00</time>
      </trkpt>
      <trkpt lat="47.3027" lon="-1.40188">
        <ele>95</ele>
        <time>2021-02-28T08:22:50.381000+00:00</time>
      </trkpt>
      <trkpt lat="0" lon="0">
        <time>2021-02-28T08:22:50.391000+00:00</time>
      </trkpt>
      <trkpt lat="0" lon="0">
        <time>2021-02-28T08:22:50.395000+00:00</time>
      </trkpt>
      <trkpt lat="0" lon="0">
        <time>2021-02-28T08:22:50.398000+00:00</time>
      </trkpt>
      <trkpt lat="47.30277" lon="-1.40195">
        <ele>94</ele>
        <time>2021-02-28T08:22:51.433000+00:00</time>
      </trkpt>
      <trkpt lat="0" lon="0">
        <time>2021-02-28T08:22:51.449000+00:00</time>
      </trkpt>
      <trkpt lat="0" lon="0">
        <time>2021-02-28T08:22:51.455000+00:00</time>
      </trkpt>
      <trkpt lat="0" lon="0">
        <time>2021-02-28T08:22:51.458000+00:00</time>
      </trkpt>
      <trkpt lat="47.30283" lon="-1.40202">
        <ele>93</ele>
        <time>2021-02-28T08:22:52.405000+00:00</time>
      </trkpt>
      <trkpt lat="0" lon="0">
        <time>2021-02-28T08:22:52.419000+00:00</time>
      </trkpt>
      <trkpt lat="0" lon="0">
        <time>2021-02-28T08:22:52.423000+00:00</time>
      </trkpt>
      <trkpt lat="0" lon="0">
        <time>2021-02-28T08:22:52.426000+00:00</time>
      </trkpt>
      <trkpt lat="47.3029" lon="-1.4021">
        <ele>93</ele>
        <time>2021-02-28T08:22:53.366000+00:00</time>
      </trkpt>
      <trkpt lat="0" lon="0">
        <time>2021-02-28T08:22:53.374000+00:00</time>
      </trkpt>
      <trkpt lat="0" lon="0">
        <time>2021-02-28T08:22:53.378000+00:00</time>
      </trkpt>
      <trkpt lat="0" lon="0">
        <time>2021-02-28T08:22:53.382000+00:00</time>
      </trkpt>
      <trkpt lat="47.30297" lon="-1.40217">
        <ele>93</ele>
        <time>2021-02-28T08:22:54.404000+00:00</time>
      </trkpt>
      <trkpt lat="0" lon="0">
        <time>2021-02-28T08:22:54.410000+00:00</time>
      </trkpt>
      <trkpt lat="0" lon="0">
        <time>2021-02-28T08:22:54.416000+00:00</time>
      </trkpt>
      <trkpt lat="0" lon="0">
        <time>2021-02-28T08:22:54.419000+00:00</time>
      </trkpt>
      <trkpt lat="47.30303" lon="-1.40225">
        <ele>92</ele>
        <time>2021-02-28T08:22:55.412000+00:00</time>
      </trkpt>
      <trkpt lat="0" lon="0">
        <time>2021-02-28T08:22:55.420000+00:00</time>
      </trkpt>
      <trkpt lat="0" lon="0">
        <time>2021-02-28T08:22:55.425000+00:00</time>
      </trkpt>
      <trkpt lat="0" lon="0">
        <time>2021-02-28T08:22:55.430000+00:00</time>
      </trkpt>
      <trkpt lat="47.3031" lon="-1.40233">
        <ele>92</ele>
        <time>2021-02-28T08:22:56.420000+00:00</time>
      </trkpt>
      <trkpt lat="0" lon="0">
        <time>2021-02-28T08:22:56.426000+00:00</time>
      </trkpt>
      <trkpt lat="0" lon="0">
        <time>2021-02-28T08:22:56.432000+00:00</time>
      </trkpt>
      <trkpt lat="0" lon="0">
        <time>2021-02-28T08:22:56.436000+00:00</time>
      </trkpt>
      <trkpt lat="47.30316" lon="-1.40241">
        <ele>92</ele>
        <time>2021-02-28T08:22:57.392000+00:00</time>
      </trkpt>
      <trkpt lat="0" lon="0">
        <time>2021-02-28T08:22:57.398000+00:00</time>
      </trkpt>
      <trkpt lat="0" lon="0">
        <time>2021-02-28T08:22:57.404000+00:00</time>
      </trkpt>
      <trkpt lat="0" lon="0">
        <time>2021-02-28T08:22:57.408000+00:00</time>
      </trkpt>
      <trkpt lat="47.30323" lon="-1.4025">
        <ele>92</ele>
        <time>2021-02-28T08:22:58.332000+00:00</time>
      </trkpt>
      <trkpt lat="0" lon="0">
        <time>2021-02-28T08:22:58.340000+00:00</time>
      </trkpt>
      <trkpt lat="0" lon="0">
        <time>2021-02-28T08:22:58.345000+00:00</time>
      </trkpt>
      <trkpt lat="0" lon="0">
        <time>2021-02-28T08:22:58.348000+00:00</time>
      </trkpt>
      <trkpt lat="47.30329" lon="-1.40258">
        <ele>91</ele>
        <time>2021-02-28T08:22:59.406000+00:00</time>
      </trkpt>
      <trkpt lat="0" lon="0">
        <time>2021-02-28T08:22:59.410000+00:00</time>
      </trkpt>
      <trkpt lat="0" lon="0">
        <time>2021-02-28T08:22:59.418000+00:00</time>
      </trkpt>
      <trkpt lat="0" lon="0">
        <time>2021-02-28T08:22:59.421000+00:00</time>
      </trkpt>
      <trkpt lat="47.30335" lon="-1.40267">
        <ele>91</ele>
        <time>2021-02-28T08:23:00.387000+00:00</time>
      </trkpt>
      <trkpt lat="0" lon="0">
        <time>2021-02-28T08:23:00.392000+00:00</time>
      </trkpt>
      <trkpt lat="0" lon="0">
        <time>2021-02-28T08:23:00.398000+00:00</time>
      </trkpt>
      <trkpt lat="0" lon="0">
        <time>2021-02-28T08:23:00.400000+00:00</time>
      </trkpt>
      <trkpt lat="47.30341" lon="-1.40275">
        <ele>91</ele>
        <time>2021-02-28T08:23:01.383000+00:00</time>
      </trkpt>
      <trkpt lat="0" lon="0">
        <time>2021-02-28T08:23:01.389000+00:00</time>
      </trkpt>
      <trkpt lat="0" lon="0">
        <time>2021-02-28T08:23:01.394000+00:00</time>
      </trkpt>
      <trkpt lat="0" lon="0">
        <time>2021-02-28T08:23:01.396000+00:00</time>
      </trkpt>
      <trkpt lat="47.30346" lon="-1.40283">
        <ele>90</ele>
        <time>2021-02-28T08:23:02.376000+00:00</time>
      </trkpt>
      <trkpt lat="0" lon="0">
        <time>2021-02-28T08:23:02.385000+00:00</time>
      </trkpt>
      <trkpt lat="0" lon="0">
        <time>2021-02-28T08:23:02.390000+00:00</time>
      </trkpt>
      <trkpt lat="0" lon="0">
        <time>2021-02-28T08:23:02.392000+00:00</time>
      </trkpt>
      <trkpt lat="47.30351" lon="-1.4029">
        <ele>90</ele>
        <time>2021-02-28T08:23:03.385000+00:00</time>
      </trkpt>
      <trkpt lat="0" lon="0">
        <time>2021-02-28T08:23:03.396000+00:00</time>
      </trkpt>
      <trkpt lat="0" lon="0">
        <time>2021-02-28T08:23:03.401000+00:00</time>
      </trkpt>
      <trkpt lat="0" lon="0">
        <time>2021-02-28T08:23:03.404000+00:00</time>
      </trkpt>
      <trkpt lat="47.30356" lon="-1.40297">
        <ele>90</ele>
        <time>2021-02-28T08:23:04.390000+00:00</time>
      </trkpt>
      <trkpt lat="0" lon="0">
        <time>2021-02-28T08:23:04.402000+00:00</time>
      </trkpt>
      <trkpt lat="0" lon="0">
        <time>2021-02-28T08:23:04.407000+00:00</time>
      </trkpt>
      <trkpt lat="0" lon="0">
        <time>2021-02-28T08:23:04.409000+00:00</time>
      </trkpt>
      <trkpt lat="47.3036" lon="-1.40303">
        <ele>90</ele>
        <time>2021-02-28T08:23:05.395000+00:00</time>
      </trkpt>
      <trkpt lat="0" lon="0">
        <time>2021-02-28T08:23:05.404000+00:00</time>
      </trkpt>
      <trkpt lat="0" lon="0">
        <time>2021-02-28T08:23:05.408000+00:00</time>
      </trkpt>
      <trkpt lat="0" lon="0">
        <time>2021-02-28T08:23:05.410000+00:00</time>
      </trkpt>
      <trkpt lat="47.30364" lon="-1.40308">
        <ele>90</ele>
        <time>2021-02-28T08:23:06.397000+00:00</time>
      </trkpt>
      <trkpt lat="0" lon="0">
        <time>2021-02-28T08:23:06.406000+00:00</time>
      </trkpt>
      <trkpt lat="0" lon="0">
        <time>2021-02-28T08:23:06.411000+00:00</time>
      </trkpt>
      <trkpt lat="0" lon="0">
        <time>2021-02-28T08:23:06.414000+00:00</time>
      </trkpt>
      <trkpt lat="47.30368" lon="-1.40313">
        <ele>90</ele>
        <time>2021-02-28T08:23:07.382000+00:00</time>
      </trkpt>
      <trkpt lat="0" lon="0">
        <time>2021-02-28T08:23:07.390000+00:00</time>
      </trkpt>
      <trkpt lat="0" lon="0">
        <time>2021-02-28T08:23:07.394000+00:00</time>
      </trkpt>
      <trkpt lat="0" lon="0">
        <time>2021-02-28T08:23:07.397000+00:00</time>
      </trkpt>
      <trkpt lat="47.30371" lon="-1.40317">
        <ele>89</ele>
        <time>2021-02-28T08:23:08.392000+00:00</time>
      </trkpt>
      <trkpt lat="0" lon="0">
        <time>2021-02-28T08:23:08.397000+00:00</time>
      </trkpt>
      <trkpt lat="0" lon="0">
        <time>2021-02-28T08:23:08.402000+00:00</time>
      </trkpt>
      <trkpt lat="0" lon="0">
        <time>2021-02-28T08:23:08.404000+00:00</time>
      </trkpt>
      <trkpt lat="47.30374" lon="-1.40322">
        <ele>88</ele>
        <time>2021-02-28T08:23:09.325000+00:00</time>
      </trkpt>
      <trkpt lat="0" lon="0">
        <time>2021-02-28T08:23:09.330000+00:00</time>
      </trkpt>
      <trkpt lat="0" lon="0">
        <time>2021-02-28T08:23:09.335000+00:00</time>
      </trkpt>
      <trkpt lat="0" lon="0">
        <time>2021-02-28T08:23:09.338000+00:00</time>
      </trkpt>
      <trkpt lat="47.30377" lon="-1.40327">
        <ele>88</ele>
        <time>2021-02-28T08:23:10.379000+00:00</time>
      </trkpt>
      <trkpt lat="0" lon="0">
        <time>2021-02-28T08:23:10.393000+00:00</time>
      </trkpt>
      <trkpt lat="0" lon="0">
        <time>2021-02-28T08:23:10.397000+00:00</time>
      </trkpt>
      <trkpt lat="0" lon="0">
        <time>2021-02-28T08:23:10.400000+00:00</time>
      </trkpt>
      <trkpt lat="47.3038" lon="-1.40332">
        <ele>87</ele>
        <time>2021-02-28T08:23:11.408000+00:00</time>
      </trkpt>
      <trkpt lat="0" lon="0">
        <time>2021-02-28T08:23:11.424000+00:00</time>
      </trkpt>
      <trkpt lat="0" lon="0">
        <time>2021-02-28T08:23:11.429000+00:00</time>
      </trkpt>
      <trkpt lat="0" lon="0">
        <time>2021-02-28T08:23:11.431000+00:00</time>
      </trkpt>
      <trkpt lat="47.30383" lon="-1.40337">
        <ele>86</ele>
        <time>2021-02-28T08:23:12.447000+00:00</time>
      </trkpt>
      <trkpt lat="0" lon="0">
        <time>2021-02-28T08:23:12.455000+00:00</time>
      </trkpt>
      <trkpt lat="0" lon="0">
        <time>2021-02-28T08:23:12.460000+00:00</time>
      </trkpt>
      <trkpt lat="0" lon="0">
        <time>2021-02-28T08:23:12.464000+00:00</time>
      </trkpt>
      <trkpt lat="47.30386" lon="-1.40341">
        <ele>86</ele>
        <time>2021-02-28T08:23:13.337000+00:00</time>
      </trkpt>
      <trkpt lat="0" lon="0">
        <time>2021-02-28T08:23:13.343000+00:00</time>
      </trkpt>
      <trkpt lat="0" lon="0">
        <time>2021-02-28T08:23:13.349000+00:00</time>
      </trkpt>
      <trkpt lat="0" lon="0">
        <time>2021-02-28T08:23:13.354000+00:00</time>
      </trkpt>
      <trkpt lat="47.30389" lon="-1.40346">
        <ele>85</ele>
        <time>2021-02-28T08:23:14.396000+00:00</time>
      </trkpt>
      <trkpt lat="0" lon="0">
        <time>2021-02-28T08:23:14.405000+00:00</time>
      </trkpt>
      <trkpt lat="0" lon="0">
        <time>2021-02-28T08:23:14.410000+00:00</time>
      </trkpt>
      <trkpt lat="0" lon="0">
        <time>2021-02-28T08:23:14.414000+00:00</time>
      </trkpt>
      <trkpt lat="47.30392" lon="-1.40351">
        <ele>85</ele>
        <time>2021-02-28T08:23:15.396000+00:00</time>
      </trkpt>
      <trkpt lat="0" lon="0">
        <time>2021-02-28T08:23:15.418000+00:00</time>
      </trkpt>
      <trkpt lat="0" lon="0">
        <time>2021-02-28T08:23:15.423000+00:00</time>
      </trkpt>
      <trkpt lat="0" lon="0">
        <time>2021-02-28T08:23:15.425000+00:00</time>
      </trkpt>
      <trkpt lat="47.30395" lon="-1.40355">
        <ele>85</ele>
        <time>2021-02-28T08:23:16.429000+00:00</time>
      </trkpt>
      <trkpt lat="0" lon="0">
        <time>2021-02-28T08:23:16.439000+00:00</time>
      </trkpt>
      <trkpt lat="0" lon="0">
        <time>2021-02-28T08:23:16.444000+00:00</time>
      </trkpt>
      <trkpt lat="0" lon="0">
        <time>2021-02-28T08:23:16.447000+00:00</time>
      </trkpt>
      <trkpt lat="47.30398" lon="-1.40359">
        <ele>84</ele>
        <time>2021-02-28T08:23:17.395000+00:00</time>
      </trkpt>
      <trkpt lat="0" lon="0">
        <time>2021-02-28T08:23:17.408000+00:00</time>
      </trkpt>
      <trkpt lat="0" lon="0">
        <time>2021-02-28T08:23:17.414000+00:00</time>
      </trkpt>
      <trkpt lat="0" lon="0">
        <time>2021-02-28T08:23:17.416000+00:00</time>
      </trkpt>
      <trkpt lat="47.30401" lon="-1.40364">
        <ele>84</ele>
        <time>2021-02-28T08:23:18.429000+00:00</time>
      </trkpt>
      <trkpt lat="0" lon="0">
        <time>2021-02-28T08:23:18.432000+00:00</time>
      </trkpt>
      <trkpt lat="0" lon="0">
        <time>2021-02-28T08:23:18.439000+00:00</time>
      </trkpt>
      <trkpt lat="0" lon="0">
        <time>2021-02-28T08:23:18.442000+00:00</time>
      </trkpt>
      <trkpt lat="47.30404" lon="-1.40368">
        <ele>84</ele>
        <time>2021-02-28T08:23:19.437000+00:00</time>
      </trkpt>
      <trkpt lat="0" lon="0">
        <time>2021-02-28T08:23:19.443000+00:00</time>
      </trkpt>
      <trkpt lat="0" lon="0">
        <time>2021-02-28T08:23:19.448000+00:00</time>
      </trkpt>
      <trkpt lat="0" lon="0">
        <time>2021-02-28T08:23:19.451000+00:00</time>
      </trkpt>
      <trkpt lat="47.30407" lon="-1.40372">
        <ele>83</ele>
        <time>2021-02-28T08:23:20.447000+00:00</time>
      </trkpt>
      <trkpt lat="0" lon="0">
        <time>2021-02-28T08:23:20.456000+00:00</time>
      </trkpt>
      <trkpt lat="0" lon="0">
        <time>2021-02-28T08:23:20.461000+00:00</time>
      </trkpt>
      <trkpt lat="0" lon="0">
        <time>2021-02-28T08:23:20.464000+00:00</time>
      </trkpt>
      <trkpt lat="47.3041" lon="-1.40376">
        <ele>83</ele>
        <time>2021-02-28T08:23:21.426000+00:00</time>
      </trkpt>
      <trkpt lat="0" lon="0">
        <time>2021-02-28T08:23:21.431000+00:00</time>
      </trkpt>
      <trkpt lat="0" lon="0">
        <time>2021-02-28T08:23:21.437000+00:00</time>
      </trkpt>
      <trkpt lat="0" lon="0">
        <time>2021-02-28T08:23:21.440000+00:00</time>
      </trkpt>
      <trkpt lat="47.30413" lon="-1.4038">
        <ele>83</ele>
        <time>2021-02-28T08:23:22.415000+00:00</time>
      </trkpt>
      <trkpt lat="0" lon="0">
        <time>2021-02-28T08:23:22.423000+00:00</time>
      </trkpt>
      <trkpt lat="0" lon="0">
        <time>2021-02-28T08:23:22.431000+00:00</time>
      </trkpt>
      <trkpt lat="0" lon="0">
        <time>2021-02-28T08:23:22.435000+00:00</time>
      </trkpt>
      <trkpt lat="47.30416" lon="-1.40383">
        <ele>83</ele>
        <time>2021-02-28T08:23:23.445000+00:00</time>
      </trkpt>
      <trkpt lat="0" lon="0">
        <time>2021-02-28T08:23:23.455000+00:00</time>
      </trkpt>
      <trkpt lat="0" lon="0">
        <time>2021-02-28T08:23:23.460000+00:00</time>
      </trkpt>
      <trkpt lat="0" lon="0">
        <time>2021-02-28T08:23:23.463000+00:00</time>
      </trkpt>
      <trkpt lat="47.30418" lon="-1.40387">
        <ele>83</ele>
        <time>2021-02-28T08:23:24.408000+00:00</time>
      </trkpt>
      <trkpt lat="0" lon="0">
        <time>2021-02-28T08:23:24.427000+00:00</time>
      </trkpt>
      <trkpt lat="0" lon="0">
        <time>2021-02-28T08:23:24.431000+00:00</time>
      </trkpt>
      <trkpt lat="0" lon="0">
        <time>2021-02-28T08:23:24.434000+00:00</time>
      </trkpt>
      <trkpt lat="47.30421" lon="-1.4039">
        <ele>83</ele>
        <time>2021-02-28T08:23:25.391000+00:00</time>
      </trkpt>
      <trkpt lat="0" lon="0">
        <time>2021-02-28T08:23:25.396000+00:00</time>
      </trkpt>
      <trkpt lat="0" lon="0">
        <time>2021-02-28T08:23:25.401000+00:00</time>
      </trkpt>
      <trkpt lat="0" lon="0">
        <time>2021-02-28T08:23:25.404000+00:00</time>
      </trkpt>
      <trkpt lat="47.30423" lon="-1.40393">
        <ele>83</ele>
        <time>2021-02-28T08:23:26.440000+00:00</time>
      </trkpt>
      <trkpt lat="0" lon="0">
        <time>2021-02-28T08:23:26.446000+00:00</time>
      </trkpt>
      <trkpt lat="0" lon="0">
        <time>2021-02-28T08:23:26.452000+00:00</time>
      </trkpt>
      <trkpt lat="0" lon="0">
        <time>2021-02-28T08:23:26.455000+00:00</time>
      </trkpt>
      <trkpt lat="47.30425" lon="-1.40396">
        <ele>83</ele>
        <time>2021-02-28T08:23:27.406000+00:00</time>
      </trkpt>
      <trkpt lat="0" lon="0">
        <time>2021-02-28T08:23:27.415000+00:00</time>
      </trkpt>
      <trkpt lat="0" lon="0">
        <time>2021-02-28T08:23:27.421000+00:00</time>
      </trkpt>
      <trkpt lat="0" lon="0">
        <time>2021-02-28T08:23:27.424000+00:00</time>
      </trkpt>
      <trkpt lat="47.30427" lon="-1.40398">
        <ele>83</ele>
        <time>2021-02-28T08:23:28.361000+00:00</time>
      </trkpt>
      <trkpt lat="0" lon="0">
        <time>2021-02-28T08:23:28.365000+00:00</time>
      </trkpt>
      <trkpt lat="0" lon="0">
        <time>2021-02-28T08:23:28.368000+00:00</time>
      </trkpt>
      <trkpt lat="0" lon="0">
        <time>2021-02-28T08:23:28.369000+00:00</time>
      </trkpt>
      <trkpt lat="47.30429" lon="-1.40401">
        <ele>83</ele>
        <time>2021-02-28T08:23:29.412000+00:00</time>
      </trkpt>
      <trkpt lat="0" lon="0">
        <time>2021-02-28T08:23:29.428000+00:00</time>
      </trkpt>
      <trkpt lat="0" lon="0">
        <time>2021-02-28T08:23:29.433000+00:00</time>
      </trkpt>
      <trkpt lat="0" lon="0">
        <time>2021-02-28T08:23:29.436000+00:00</time>
      </trkpt>
      <trkpt lat="47.30431" lon="-1.40405">
        <ele>83</ele>
        <time>2021-02-28T08:23:30.391000+00:00</time>
      </trkpt>
      <trkpt lat="0" lon="0">
        <time>2021-02-28T08:23:30.404000+00:00</time>
      </trkpt>
      <trkpt lat="0" lon="0">
        <time>2021-02-28T08:23:30.408000+00:00</time>
      </trkpt>
      <trkpt lat="0" lon="0">
        <time>2021-02-28T08:23:30.410000+00:00</time>
      </trkpt>
      <trkpt lat="47.30434" lon="-1.40408">
        <ele>82</ele>
        <time>2021-02-28T08:23:31.394000+00:00</time>
      </trkpt>
      <trkpt lat="0" lon="0">
        <time>2021-02-28T08:23:31.401000+00:00</time>
      </trkpt>
      <trkpt lat="0" lon="0">
        <time>2021-02-28T08:23:31.407000+00:00</time>
      </trkpt>
      <trkpt lat="0" lon="0">
        <time>2021-02-28T08:23:31.410000+00:00</time>
      </trkpt>
      <trkpt lat="47.30436" lon="-1.40411">
        <ele>82</ele>
        <time>2021-02-28T08:23:32.356000+00:00</time>
      </trkpt>
      <trkpt lat="0" lon="0">
        <time>2021-02-28T08:23:32.365000+00:00</time>
      </trkpt>
      <trkpt lat="0" lon="0">
        <time>2021-02-28T08:23:32.369000+00:00</time>
      </trkpt>
      <trkpt lat="0" lon="0">
        <time>2021-02-28T08:23:32.372000+00:00</time>
      </trkpt>
      <trkpt lat="47.30438" lon="-1.40414">
        <ele>82</ele>
        <time>2021-02-28T08:23:33.397000+00:00</time>
      </trkpt>
      <trkpt lat="0" lon="0">
        <time>2021-02-28T08:23:33.406000+00:00</time>
      </trkpt>
      <trkpt lat="0" lon="0">
        <time>2021-02-28T08:23:33.411000+00:00</time>
      </trkpt>
      <trkpt lat="0" lon="0">
        <time>2021-02-28T08:23:33.414000+00:00</time>
      </trkpt>
      <trkpt lat="47.3044" lon="-1.40417">
        <ele>82</ele>
        <time>2021-02-28T08:23:34.391000+00:00</time>
      </trkpt>
      <trkpt lat="0" lon="0">
        <time>2021-02-28T08:23:34.396000+00:00</time>
      </trkpt>
      <trkpt lat="0" lon="0">
        <time>2021-02-28T08:23:34.404000+00:00</time>
      </trkpt>
      <trkpt lat="0" lon="0">
        <time>2021-02-28T08:23:34.407000+00:00</time>
      </trkpt>
      <trkpt lat="47.30443" lon="-1.40421">
        <ele>82</ele>
        <time>2021-02-28T08:23:35.409000+00:00</time>
      </trkpt>
      <trkpt lat="0" lon="0">
        <time>2021-02-28T08:23:35.416000+00:00</time>
      </trkpt>
      <trkpt lat="0" lon="0">
        <time>2021-02-28T08:23:35.422000+00:00</time>
      </trkpt>
      <trkpt lat="0" lon="0">
        <time>2021-02-28T08:23:35.425000+00:00</time>
      </trkpt>
      <trkpt lat="47.30445" lon="-1.40425">
        <ele>82</ele>
        <time>2021-02-28T08:23:36.402000+00:00</time>
      </trkpt>
      <trkpt lat="0" lon="0">
        <time>2021-02-28T08:23:36.412000+00:00</time>
      </trkpt>
      <trkpt lat="0" lon="0">
        <time>2021-02-28T08:23:36.418000+00:00</time>
      </trkpt>
      <trkpt lat="0" lon="0">
        <time>2021-02-28T08:23:36.420000+00:00</time>
      </trkpt>
      <trkpt lat="47.30448" lon="-1.40429">
        <ele>81</ele>
        <time>2021-02-28T08:23:37.345000+00:00</time>
      </trkpt>
      <trkpt lat="0" lon="0">
        <time>2021-02-28T08:23:37.357000+00:00</time>
      </trkpt>
      <trkpt lat="0" lon="0">
        <time>2021-02-28T08:23:37.365000+00:00</time>
      </trkpt>
      <trkpt lat="0" lon="0">
        <time>2021-02-28T08:23:37.367000+00:00</time>
      </trkpt>
      <trkpt lat="47.30451" lon="-1.40433">
        <ele>81</ele>
        <time>2021-02-28T08:23:38.412000+00:00</time>
      </trkpt>
      <trkpt lat="0" lon="0">
        <time>2021-02-28T08:23:38.420000+00:00</time>
      </trkpt>
      <trkpt lat="0" lon="0">
        <time>2021-02-28T08:23:38.425000+00:00</time>
      </trkpt>
      <trkpt lat="0" lon="0">
        <time>2021-02-28T08:23:38.428000+00:00</time>
      </trkpt>
      <trkpt lat="47.30454" lon="-1.40437">
        <ele>80</ele>
        <time>2021-02-28T08:23:39.384000+00:00</time>
      </trkpt>
      <trkpt lat="0" lon="0">
        <time>2021-02-28T08:23:39.393000+00:00</time>
      </trkpt>
      <trkpt lat="0" lon="0">
        <time>2021-02-28T08:23:39.398000+00:00</time>
      </trkpt>
      <trkpt lat="0" lon="0">
        <time>2021-02-28T08:23:39.400000+00:00</time>
      </trkpt>
      <trkpt lat="47.30458" lon="-1.40442">
        <ele>80</ele>
        <time>2021-02-28T08:23:40.395000+00:00</time>
      </trkpt>
      <trkpt lat="0" lon="0">
        <time>2021-02-28T08:23:40.405000+00:00</time>
      </trkpt>
      <trkpt lat="0" lon="0">
        <time>2021-02-28T08:23:40.410000+00:00</time>
      </trkpt>
      <trkpt lat="0" lon="0">
        <time>2021-02-28T08:23:40.413000+00:00</time>
      </trkpt>
      <trkpt lat="47.30461" lon="-1.40446">
        <ele>79</ele>
        <time>2021-02-28T08:23:41.387000+00:00</time>
      </trkpt>
      <trkpt lat="0" lon="0">
        <time>2021-02-28T08:23:41.399000+00:00</time>
      </trkpt>
      <trkpt lat="0" lon="0">
        <time>2021-02-28T08:23:41.407000+00:00</time>
      </trkpt>
      <trkpt lat="0" lon="0">
        <time>2021-02-28T08:23:41.410000+00:00</time>
      </trkpt>
      <trkpt lat="47.30465" lon="-1.40452">
        <ele>79</ele>
        <time>2021-02-28T08:23:42.368000+00:00</time>
      </trkpt>
      <trkpt lat="0" lon="0">
        <time>2021-02-28T08:23:42.376000+00:00</time>
      </trkpt>
      <trkpt lat="0" lon="0">
        <time>2021-02-28T08:23:42.382000+00:00</time>
      </trkpt>
      <trkpt lat="0" lon="0">
        <time>2021-02-28T08:23:42.385000+00:00</time>
      </trkpt>
      <trkpt lat="47.30469" lon="-1.40457">
        <ele>79</ele>
        <time>2021-02-28T08:23:43.375000+00:00</time>
      </trkpt>
      <trkpt lat="0" lon="0">
        <time>2021-02-28T08:23:43.377000+00:00</time>
      </trkpt>
      <trkpt lat="0" lon="0">
        <time>2021-02-28T08:23:43.380000+00:00</time>
      </trkpt>
      <trkpt lat="0" lon="0">
        <time>2021-02-28T08:23:43.382000+00:00</time>
      </trkpt>
      <trkpt lat="47.30473" lon="-1.40463">
        <ele>79</ele>
        <time>2021-02-28T08:23:44.409000+00:00</time>
      </trkpt>
      <trkpt lat="0" lon="0">
        <time>2021-02-28T08:23:44.417000+00:00</time>
      </trkpt>
      <trkpt lat="0" lon="0">
        <time>2021-02-28T08:23:44.421000+00:00</time>
      </trkpt>
      <trkpt lat="0" lon="0">
        <time>2021-02-28T08:23:44.423000+00:00</time>
      </trkpt>
      <trkpt lat="47.30478" lon="-1.40468">
        <ele>78</ele>
        <time>2021-02-28T08:23:45.417000+00:00</time>
      </trkpt>
      <trkpt lat="0" lon="0">
        <time>2021-02-28T08:23:45.426000+00:00</time>
      </trkpt>
      <trkpt lat="0" lon="0">
        <time>2021-02-28T08:23:45.431000+00:00</time>
      </trkpt>
      <trkpt lat="0" lon="0">
        <time>2021-02-28T08:23:45.434000+00:00</time>
      </trkpt>
      <trkpt lat="47.30482" lon="-1.40474">
        <ele>78</ele>
        <time>2021-02-28T08:23:46.408000+00:00</time>
      </trkpt>
      <trkpt lat="0" lon="0">
        <time>2021-02-28T08:23:46.415000+00:00</time>
      </trkpt>
      <trkpt lat="0" lon="0">
        <time>2021-02-28T08:23:46.422000+00:00</time>
      </trkpt>
      <trkpt lat="0" lon="0">
        <time>2021-02-28T08:23:46.425000+00:00</time>
      </trkpt>
      <trkpt lat="47.30487" lon="-1.4048">
        <ele>77</ele>
        <time>2021-02-28T08:23:47.418000+00:00</time>
      </trkpt>
      <trkpt lat="0" lon="0">
        <time>2021-02-28T08:23:47.423000+00:00</time>
      </trkpt>
      <trkpt lat="0" lon="0">
        <time>2021-02-28T08:23:47.429000+00:00</time>
      </trkpt>
      <trkpt lat="0" lon="0">
        <time>2021-02-28T08:23:47.431000+00:00</time>
      </trkpt>
      <trkpt lat="47.30491" lon="-1.40485">
        <ele>77</ele>
        <time>2021-02-28T08:23:48.368000+00:00</time>
      </trkpt>
      <trkpt lat="0" lon="0">
        <time>2021-02-28T08:23:48.378000+00:00</time>
      </trkpt>
      <trkpt lat="0" lon="0">
        <time>2021-02-28T08:23:48.383000+00:00</time>
      </trkpt>
      <trkpt lat="0" lon="0">
        <time>2021-02-28T08:23:48.386000+00:00</time>
      </trkpt>
      <trkpt lat="47.30495" lon="-1.40489">
        <ele>77</ele>
        <time>2021-02-28T08:23:49.405000+00:00</time>
      </trkpt>
      <trkpt lat="0" lon="0">
        <time>2021-02-28T08:23:49.416000+00:00</time>
      </trkpt>
      <trkpt lat="0" lon="0">
        <time>2021-02-28T08:23:49.420000+00:00</time>
      </trkpt>
      <trkpt lat="0" lon="0">
        <time>2021-02-28T08:23:49.423000+00:00</time>
      </trkpt>
      <trkpt lat="47.30499" lon="-1.40492">
        <ele>77</ele>
        <time>2021-02-28T08:23:50.404000+00:00</time>
      </trkpt>
      <trkpt lat="0" lon="0">
        <time>2021-02-28T08:23:50.411000+00:00</time>
      </trkpt>
      <trkpt lat="0" lon="0">
        <time>2021-02-28T08:23:50.418000+00:00</time>
      </trkpt>
      <trkpt lat="0" lon="0">
        <time>2021-02-28T08:23:50.421000+00:00</time>
      </trkpt>
      <trkpt lat="47.30504" lon="-1.40495">
        <ele>77</ele>
        <time>2021-02-28T08:23:51.439000+00:00</time>
      </trkpt>
      <trkpt lat="0" lon="0">
        <time>2021-02-28T08:23:51.458000+00:00</time>
      </trkpt>
      <trkpt lat="0" lon="0">
        <time>2021-02-28T08:23:51.465000+00:00</time>
      </trkpt>
      <trkpt lat="0" lon="0">
        <time>2021-02-28T08:23:51.469000+00:00</time>
      </trkpt>
      <trkpt lat="47.30508" lon="-1.40497">
        <ele>76</ele>
        <time>2021-02-28T08:23:52.431000+00:00</time>
      </trkpt>
      <trkpt lat="0" lon="0">
        <time>2021-02-28T08:23:52.437000+00:00</time>
      </trkpt>
      <trkpt lat="0" lon="0">
        <time>2021-02-28T08:23:52.443000+00:00</time>
      </trkpt>
      <trkpt lat="0" lon="0">
        <time>2021-02-28T08:23:52.445000+00:00</time>
      </trkpt>
      <trkpt lat="47.30513" lon="-1.40499">
        <ele>75</ele>
        <time>2021-02-28T08:23:53.435000+00:00</time>
      </trkpt>
      <trkpt lat="0" lon="0">
        <time>2021-02-28T08:23:53.456000+00:00</time>
      </trkpt>
      <trkpt lat="0" lon="0">
        <time>2021-02-28T08:23:53.461000+00:00</time>
      </trkpt>
      <trkpt lat="0" lon="0">
        <time>2021-02-28T08:23:53.466000+00:00</time>
      </trkpt>
      <trkpt lat="47.30518" lon="-1.405">
        <ele>75</ele>
        <time>2021-02-28T08:23:54.404000+00:00</time>
      </trkpt>
      <trkpt lat="0" lon="0">
        <time>2021-02-28T08:23:54.416000+00:00</time>
      </trkpt>
      <trkpt lat="0" lon="0">
        <time>2021-02-28T08:23:54.418000+00:00</time>
      </trkpt>
      <trkpt lat="0" lon="0">
        <time>2021-02-28T08:23:54.419000+00:00</time>
      </trkpt>
      <trkpt lat="47.30523" lon="-1.40501">
        <ele>74</ele>
        <time>2021-02-28T08:23:55.440000+00:00</time>
      </trkpt>
      <trkpt lat="0" lon="0">
        <time>2021-02-28T08:23:55.453000+00:00</time>
      </trkpt>
      <trkpt lat="0" lon="0">
        <time>2021-02-28T08:23:55.462000+00:00</time>
      </trkpt>
      <trkpt lat="0" lon="0">
        <time>2021-02-28T08:23:55.466000+00:00</time>
      </trkpt>
      <trkpt lat="47.30528" lon="-1.40503">
        <ele>74</ele>
        <time>2021-02-28T08:23:56.450000+00:00</time>
      </trkpt>
      <trkpt lat="0" lon="0">
        <time>2021-02-28T08:23:56.459000+00:00</time>
      </trkpt>
      <trkpt lat="0" lon="0">
        <time>2021-02-28T08:23:56.465000+00:00</time>
      </trkpt>
      <trkpt lat="0" lon="0">
        <time>2021-02-28T08:23:56.468000+00:00</time>
      </trkpt>
      <trkpt lat="47.30534" lon="-1.40504">
        <ele>73</ele>
        <time>2021-02-28T08:23:57.433000+00:00</time>
      </trkpt>
      <trkpt lat="0" lon="0">
        <time>2021-02-28T08:23:57.443000+00:00</time>
      </trkpt>
      <trkpt lat="0" lon="0">
        <time>2021-02-28T08:23:57.447000+00:00</time>
      </trkpt>
      <trkpt lat="0" lon="0">
        <time>2021-02-28T08:23:57.449000+00:00</time>
      </trkpt>
      <trkpt lat="47.30539" lon="-1.40506">
        <ele>72</ele>
        <time>2021-02-28T08:23:58.396000+00:00</time>
      </trkpt>
      <trkpt lat="0" lon="0">
        <time>2021-02-28T08:23:58.404000+00:00</time>
      </trkpt>
      <trkpt lat="0" lon="0">
        <time>2021-02-28T08:23:58.408000+00:00</time>
      </trkpt>
      <trkpt lat="0" lon="0">
        <time>2021-02-28T08:23:58.410000+00:00</time>
      </trkpt>
      <trkpt lat="47.30544" lon="-1.40507">
        <ele>72</ele>
        <time>2021-02-28T08:23:59.348000+00:00</time>
      </trkpt>
      <trkpt lat="0" lon="0">
        <time>2021-02-28T08:23:59.357000+00:00</time>
      </trkpt>
      <trkpt lat="0" lon="0">
        <time>2021-02-28T08:23:59.363000+00:00</time>
      </trkpt>
      <trkpt lat="0" lon="0">
        <time>2021-02-28T08:23:59.366000+00:00</time>
      </trkpt>
      <trkpt lat="47.30548" lon="-1.40508">
        <ele>73</ele>
        <time>2021-02-28T08:24:00.375000+00:00</time>
      </trkpt>
      <trkpt lat="0" lon="0">
        <time>2021-02-28T08:24:00.382000+00:00</time>
      </trkpt>
      <trkpt lat="0" lon="0">
        <time>2021-02-28T08:24:00.388000+00:00</time>
      </trkpt>
      <trkpt lat="0" lon="0">
        <time>2021-02-28T08:24:00.390000+00:00</time>
      </trkpt>
      <trkpt lat="47.30552" lon="-1.40509">
        <ele>73</ele>
        <time>2021-02-28T08:24:01.400000+00:00</time>
      </trkpt>
      <trkpt lat="0" lon="0">
        <time>2021-02-28T08:24:01.412000+00:00</time>
      </trkpt>
      <trkpt lat="0" lon="0">
        <time>2021-02-28T08:24:01.417000+00:00</time>
      </trkpt>
      <trkpt lat="0" lon="0">
        <time>2021-02-28T08:24:01.419000+00:00</time>
      </trkpt>
      <trkpt lat="47.30556" lon="-1.40509">
        <ele>73</ele>
        <time>2021-02-28T08:24:02.390000+00:00</time>
      </trkpt>
      <trkpt lat="0" lon="0">
        <time>2021-02-28T08:24:02.397000+00:00</time>
      </trkpt>
      <trkpt lat="0" lon="0">
        <time>2021-02-28T08:24:02.404000+00:00</time>
      </trkpt>
      <trkpt lat="0" lon="0">
        <time>2021-02-28T08:24:02.407000+00:00</time>
      </trkpt>
      <trkpt lat="47.30559" lon="-1.4051">
        <ele>74</ele>
        <time>2021-02-28T08:24:03.381000+00:00</time>
      </trkpt>
      <trkpt lat="0" lon="0">
        <time>2021-02-28T08:24:03.391000+00:00</time>
      </trkpt>
      <trkpt lat="0" lon="0">
        <time>2021-02-28T08:24:03.397000+00:00</time>
      </trkpt>
      <trkpt lat="0" lon="0">
        <time>2021-02-28T08:24:03.400000+00:00</time>
      </trkpt>
      <trkpt lat="47.30562" lon="-1.40511">
        <ele>74</ele>
        <time>2021-02-28T08:24:04.383000+00:00</time>
      </trkpt>
      <trkpt lat="0" lon="0">
        <time>2021-02-28T08:24:04.393000+00:00</time>
      </trkpt>
      <trkpt lat="0" lon="0">
        <time>2021-02-28T08:24:04.401000+00:00</time>
      </trkpt>
      <trkpt lat="0" lon="0">
        <time>2021-02-28T08:24:04.403000+00:00</time>
      </trkpt>
      <trkpt lat="47.30564" lon="-1.40511">
        <ele>74</ele>
        <time>2021-02-28T08:24:05.424000+00:00</time>
      </trkpt>
      <trkpt lat="0" lon="0">
        <time>2021-02-28T08:24:05.431000+00:00</time>
      </trkpt>
      <trkpt lat="0" lon="0">
        <time>2021-02-28T08:24:05.436000+00:00</time>
      </trkpt>
      <trkpt lat="0" lon="0">
        <time>2021-02-28T08:24:05.439000+00:00</time>
      </trkpt>
      <trkpt lat="47.30566" lon="-1.40512">
        <ele>74</ele>
        <time>2021-02-28T08:24:06.336000+00:00</time>
      </trkpt>
      <trkpt lat="0" lon="0">
        <time>2021-02-28T08:24:06.344000+00:00</time>
      </trkpt>
      <trkpt lat="0" lon="0">
        <time>2021-02-28T08:24:06.349000+00:00</time>
      </trkpt>
      <trkpt lat="0" lon="0">
        <time>2021-02-28T08:24:06.352000+00:00</time>
      </trkpt>
      <trkpt lat="47.30568" lon="-1.40512">
        <ele>74</ele>
        <time>2021-02-28T08:24:07.428000+00:00</time>
      </trkpt>
      <trkpt lat="0" lon="0">
        <time>2021-02-28T08:24:07.439000+00:00</time>
      </trkpt>
      <trkpt lat="0" lon="0">
        <time>2021-02-28T08:24:07.447000+00:00</time>
      </trkpt>
      <trkpt lat="0" lon="0">
        <time>2021-02-28T08:24:07.451000+00:00</time>
      </trkpt>
      <trkpt lat="47.30569" lon="-1.40513">
        <ele>74</ele>
        <time>2021-02-28T08:24:08.387000+00:00</time>
      </trkpt>
      <trkpt lat="0" lon="0">
        <time>2021-02-28T08:24:08.394000+00:00</time>
      </trkpt>
      <trkpt lat="0" lon="0">
        <time>2021-02-28T08:24:08.400000+00:00</time>
      </trkpt>
      <trkpt lat="0" lon="0">
        <time>2021-02-28T08:24:08.402000+00:00</time>
      </trkpt>
      <trkpt lat="47.3057" lon="-1.40513">
        <ele>74</ele>
        <time>2021-02-28T08:24:09.405000+00:00</time>
      </trkpt>
      <trkpt lat="0" lon="0">
        <time>2021-02-28T08:24:09.418000+00:00</time>
      </trkpt>
      <trkpt lat="0" lon="0">
        <time>2021-02-28T08:24:09.427000+00:00</time>
      </trkpt>
      <trkpt lat="0" lon="0">
        <time>2021-02-28T08:24:09.430000+00:00</time>
      </trkpt>
      <trkpt lat="47.30572" lon="-1.40514">
        <ele>74</ele>
        <time>2021-02-28T08:24:10.423000+00:00</time>
      </trkpt>
      <trkpt lat="0" lon="0">
        <time>2021-02-28T08:24:10.429000+00:00</time>
      </trkpt>
      <trkpt lat="0" lon="0">
        <time>2021-02-28T08:24:10.435000+00:00</time>
      </trkpt>
      <trkpt lat="0" lon="0">
        <time>2021-02-28T08:24:10.439000+00:00</time>
      </trkpt>
      <trkpt lat="47.30573" lon="-1.40514">
        <ele>74</ele>
        <time>2021-02-28T08:24:11.416000+00:00</time>
      </trkpt>
      <trkpt lat="0" lon="0">
        <time>2021-02-28T08:24:11.422000+00:00</time>
      </trkpt>
      <trkpt lat="0" lon="0">
        <time>2021-02-28T08:24:11.427000+00:00</time>
      </trkpt>
      <trkpt lat="0" lon="0">
        <time>2021-02-28T08:24:11.430000+00:00</time>
      </trkpt>
      <trkpt lat="47.30574" lon="-1.40515">
        <ele>74</ele>
        <time>2021-02-28T08:24:12.449000+00:00</time>
      </trkpt>
      <trkpt lat="0" lon="0">
        <time>2021-02-28T08:24:12.460000+00:00</time>
      </trkpt>
      <trkpt lat="0" lon="0">
        <time>2021-02-28T08:24:12.471000+00:00</time>
      </trkpt>
      <trkpt lat="0" lon="0">
        <time>2021-02-28T08:24:12.476000+00:00</time>
      </trkpt>
      <trkpt lat="47.30576" lon="-1.40515">
        <ele>74</ele>
        <time>2021-02-28T08:24:13.392000+00:00</time>
      </trkpt>
      <trkpt lat="0" lon="0">
        <time>2021-02-28T08:24:13.398000+00:00</time>
      </trkpt>
      <trkpt lat="0" lon="0">
        <time>2021-02-28T08:24:13.403000+00:00</time>
      </trkpt>
      <trkpt lat="0" lon="0">
        <time>2021-02-28T08:24:13.406000+00:00</time>
      </trkpt>
      <trkpt lat="47.30577" lon="-1.40516">
        <ele>74</ele>
        <time>2021-02-28T08:24:14.418000+00:00</time>
      </trkpt>
      <trkpt lat="0" lon="0">
        <time>2021-02-28T08:24:14.425000+00:00</time>
      </trkpt>
      <trkpt lat="0" lon="0">
        <time>2021-02-28T08:24:14.431000+00:00</time>
      </trkpt>
      <trkpt lat="0" lon="0">
        <time>2021-02-28T08:24:14.434000+00:00</time>
      </trkpt>
      <trkpt lat="47.30578" lon="-1.40517">
        <ele>74</ele>
        <time>2021-02-28T08:24:15.431000+00:00</time>
      </trkpt>
      <trkpt lat="0" lon="0">
        <time>2021-02-28T08:24:15.443000+00:00</time>
      </trkpt>
      <trkpt lat="0" lon="0">
        <time>2021-02-28T08:24:15.453000+00:00</time>
      </trkpt>
      <trkpt lat="0" lon="0">
        <time>2021-02-28T08:24:15.456000+00:00</time>
      </trkpt>
      <trkpt lat="47.30579" lon="-1.40518">
        <ele>74</ele>
        <time>2021-02-28T08:24:16.400000+00:00</time>
      </trkpt>
      <trkpt lat="0" lon="0">
        <time>2021-02-28T08:24:16.408000+00:00</time>
      </trkpt>
      <trkpt lat="0" lon="0">
        <time>2021-02-28T08:24:16.413000+00:00</time>
      </trkpt>
      <trkpt lat="0" lon="0">
        <time>2021-02-28T08:24:16.415000+00:00</time>
      </trkpt>
      <trkpt lat="47.3058" lon="-1.40519">
        <ele>74</ele>
        <time>2021-02-28T08:24:17.432000+00:00</time>
      </trkpt>
      <trkpt lat="0" lon="0">
        <time>2021-02-28T08:24:17.446000+00:00</time>
      </trkpt>
      <trkpt lat="0" lon="0">
        <time>2021-02-28T08:24:17.454000+00:00</time>
      </trkpt>
      <trkpt lat="0" lon="0">
        <time>2021-02-28T08:24:17.457000+00:00</time>
      </trkpt>
      <trkpt lat="47.30582" lon="-1.4052">
        <ele>74</ele>
        <time>2021-02-28T08:24:18.388000+00:00</time>
      </trkpt>
      <trkpt lat="0" lon="0">
        <time>2021-02-28T08:24:18.394000+00:00</time>
      </trkpt>
      <trkpt lat="0" lon="0">
        <time>2021-02-28T08:24:18.398000+00:00</time>
      </trkpt>
      <trkpt lat="0" lon="0">
        <time>2021-02-28T08:24:18.400000+00:00</time>
      </trkpt>
      <trkpt lat="47.30584" lon="-1.40521">
        <ele>74</ele>
        <time>2021-02-28T08:24:19.376000+00:00</time>
      </trkpt>
      <trkpt lat="0" lon="0">
        <time>2021-02-28T08:24:19.389000+00:00</time>
      </trkpt>
      <trkpt lat="0" lon="0">
        <time>2021-02-28T08:24:19.396000+00:00</time>
      </trkpt>
      <trkpt lat="0" lon="0">
        <time>2021-02-28T08:24:19.400000+00:00</time>
      </trkpt>
      <trkpt lat="47.30586" lon="-1.40522">
        <ele>75</ele>
        <time>2021-02-28T08:24:20.404000+00:00</time>
      </trkpt>
      <trkpt lat="0" lon="0">
        <time>2021-02-28T08:24:20.422000+00:00</time>
      </trkpt>
      <trkpt lat="0" lon="0">
        <time>2021-02-28T08:24:20.431000+00:00</time>
      </trkpt>
      <trkpt lat="0" lon="0">
        <time>2021-02-28T08:24:20.435000+00:00</time>
      </trkpt>
      <trkpt lat="47.30589" lon="-1.40523">
        <ele>75</ele>
        <time>2021-02-28T08:24:21.432000+00:00</time>
      </trkpt>
      <trkpt lat="0" lon="0">
        <time>2021-02-28T08:24:21.445000+00:00</time>
      </trkpt>
      <trkpt lat="0" lon="0">
        <time>2021-02-28T08:24:21.450000+00:00</time>
      </trkpt>
      <trkpt lat="0" lon="0">
        <time>2021-02-28T08:24:21.453000+00:00</time>
      </trkpt>
      <trkpt lat="47.30591" lon="-1.40524">
        <ele>75</ele>
        <time>2021-02-28T08:24:22.430000+00:00</time>
      </trkpt>
      <trkpt lat="0" lon="0">
        <time>2021-02-28T08:24:22.436000+00:00</time>
      </trkpt>
      <trkpt lat="0" lon="0">
        <time>2021-02-28T08:24:22.441000+00:00</time>
      </trkpt>
      <trkpt lat="0" lon="0">
        <time>2021-02-28T08:24:22.443000+00:00</time>
      </trkpt>
      <trkpt lat="47.30594" lon="-1.40525">
        <ele>75</ele>
        <time>2021-02-28T08:24:23.422000+00:00</time>
      </trkpt>
      <trkpt lat="0" lon="0">
        <time>2021-02-28T08:24:23.424000+00:00</time>
      </trkpt>
      <trkpt lat="0" lon="0">
        <time>2021-02-28T08:24:23.427000+00:00</time>
      </trkpt>
      <trkpt lat="0" lon="0">
        <time>2021-02-28T08:24:23.429000+00:00</time>
      </trkpt>
      <trkpt lat="47.30596" lon="-1.40526">
        <ele>75</ele>
        <time>2021-02-28T08:24:24.427000+00:00</time>
      </trkpt>
      <trkpt lat="0" lon="0">
        <time>2021-02-28T08:24:24.432000+00:00</time>
      </trkpt>
      <trkpt lat="0" lon="0">
        <time>2021-02-28T08:24:24.439000+00:00</time>
      </trkpt>
      <trkpt lat="0" lon="0">
        <time>2021-02-28T08:24:24.442000+00:00</time>
      </trkpt>
      <trkpt lat="47.30599" lon="-1.40527">
        <ele>75</ele>
        <time>2021-02-28T08:24:25.434000+00:00</time>
      </trkpt>
      <trkpt lat="0" lon="0">
        <time>2021-02-28T08:24:25.444000+00:00</time>
      </trkpt>
      <trkpt lat="0" lon="0">
        <time>2021-02-28T08:24:25.450000+00:00</time>
      </trkpt>
      <trkpt lat="0" lon="0">
        <time>2021-02-28T08:24:25.453000+00:00</time>
      </trkpt>
      <trkpt lat="47.30603" lon="-1.40528">
        <ele>76</ele>
        <time>2021-02-28T08:24:26.429000+00:00</time>
      </trkpt>
      <trkpt lat="0" lon="0">
        <time>2021-02-28T08:24:26.434000+00:00</time>
      </trkpt>
      <trkpt lat="0" lon="0">
        <time>2021-02-28T08:24:26.440000+00:00</time>
      </trkpt>
      <trkpt lat="0" lon="0">
        <time>2021-02-28T08:24:26.443000+00:00</time>
      </trkpt>
      <trkpt lat="47.30606" lon="-1.40529">
        <ele>76</ele>
        <time>2021-02-28T08:24:27.378000+00:00</time>
      </trkpt>
      <trkpt lat="0" lon="0">
        <time>2021-02-28T08:24:27.391000+00:00</time>
      </trkpt>
      <trkpt lat="0" lon="0">
        <time>2021-02-28T08:24:27.401000+00:00</time>
      </trkpt>
      <trkpt lat="0" lon="0">
        <time>2021-02-28T08:24:27.403000+00:00</time>
      </trkpt>
      <trkpt lat="47.30609" lon="-1.4053">
        <ele>76</ele>
        <time>2021-02-28T08:24:28.415000+00:00</time>
      </trkpt>
      <trkpt lat="0" lon="0">
        <time>2021-02-28T08:24:28.428000+00:00</time>
      </trkpt>
      <trkpt lat="0" lon="0">
        <time>2021-02-28T08:24:28.432000+00:00</time>
      </trkpt>
      <trkpt lat="0" lon="0">
        <time>2021-02-28T08:24:28.434000+00:00</time>
      </trkpt>
      <trkpt lat="47.30613" lon="-1.40531">
        <ele>76</ele>
        <time>2021-02-28T08:24:29.427000+00:00</time>
      </trkpt>
      <trkpt lat="0" lon="0">
        <time>2021-02-28T08:24:29.438000+00:00</time>
      </trkpt>
      <trkpt lat="0" lon="0">
        <time>2021-02-28T08:24:29.447000+00:00</time>
      </trkpt>
      <trkpt lat="0" lon="0">
        <time>2021-02-28T08:24:29.451000+00:00</time>
      </trkpt>
      <trkpt lat="47.30617" lon="-1.40533">
        <ele>76</ele>
        <time>2021-02-28T08:24:30.340000+00:00</time>
      </trkpt>
      <trkpt lat="0" lon="0">
        <time>2021-02-28T08:24:30.345000+00:00</time>
      </trkpt>
      <trkpt lat="0" lon="0">
        <time>2021-02-28T08:24:30.349000+00:00</time>
      </trkpt>
      <trkpt lat="0" lon="0">
        <time>2021-02-28T08:24:30.351000+00:00</time>
      </trkpt>
      <trkpt lat="47.3062" lon="-1.40534">
        <ele>76</ele>
        <time>2021-02-28T08:24:31.274000+00:00</time>
      </trkpt>
      <trkpt lat="0" lon="0">
        <time>2021-02-28T08:24:31.280000+00:00</time>
      </trkpt>
      <trkpt lat="0" lon="0">
        <time>2021-02-28T08:24:31.284000+00:00</time>
      </trkpt>
      <trkpt lat="0" lon="0">
        <time>2021-02-28T08:24:31.286000+00:00</time>
      </trkpt>
      <trkpt lat="47.30623" lon="-1.40535">
        <ele>76</ele>
        <time>2021-02-28T08:24:32.296000+00:00</time>
      </trkpt>
      <trkpt lat="0" lon="0">
        <time>2021-02-28T08:24:32.309000+00:00</time>
      </trkpt>
      <trkpt lat="0" lon="0">
        <time>2021-02-28T08:24:32.319000+00:00</time>
      </trkpt>
      <trkpt lat="0" lon="0">
        <time>2021-02-28T08:24:32.325000+00:00</time>
      </trkpt>
      <trkpt lat="47.30626" lon="-1.40536">
        <ele>77</ele>
        <time>2021-02-28T08:24:33.394000+00:00</time>
      </trkpt>
      <trkpt lat="0" lon="0">
        <time>2021-02-28T08:24:33.405000+00:00</time>
      </trkpt>
      <trkpt lat="0" lon="0">
        <time>2021-02-28T08:24:33.410000+00:00</time>
      </trkpt>
      <trkpt lat="0" lon="0">
        <time>2021-02-28T08:24:33.413000+00:00</time>
      </trkpt>
      <trkpt lat="47.30629" lon="-1.40538">
        <ele>77</ele>
        <time>2021-02-28T08:24:34.335000+00:00</time>
      </trkpt>
      <trkpt lat="0" lon="0">
        <time>2021-02-28T08:24:34.347000+00:00</time>
      </trkpt>
      <trkpt lat="0" lon="0">
        <time>2021-02-28T08:24:34.354000+00:00</time>
      </trkpt>
      <trkpt lat="0" lon="0">
        <time>2021-02-28T08:24:34.358000+00:00</time>
      </trkpt>
      <trkpt lat="47.30631" lon="-1.40539">
        <ele>77</ele>
        <time>2021-02-28T08:24:35.387000+00:00</time>
      </trkpt>
      <trkpt lat="0" lon="0">
        <time>2021-02-28T08:24:35.393000+00:00</time>
      </trkpt>
      <trkpt lat="0" lon="0">
        <time>2021-02-28T08:24:35.399000+00:00</time>
      </trkpt>
      <trkpt lat="0" lon="0">
        <time>2021-02-28T08:24:35.402000+00:00</time>
      </trkpt>
      <trkpt lat="47.30633" lon="-1.4054">
        <ele>77</ele>
        <time>2021-02-28T08:24:36.389000+00:00</time>
      </trkpt>
      <trkpt lat="0" lon="0">
        <time>2021-02-28T08:24:36.396000+00:00</time>
      </trkpt>
      <trkpt lat="0" lon="0">
        <time>2021-02-28T08:24:36.401000+00:00</time>
      </trkpt>
      <trkpt lat="0" lon="0">
        <time>2021-02-28T08:24:36.404000+00:00</time>
      </trkpt>
      <trkpt lat="47.30635" lon="-1.40541">
        <ele>77</ele>
        <time>2021-02-28T08:24:37.427000+00:00</time>
      </trkpt>
      <trkpt lat="0" lon="0">
        <time>2021-02-28T08:24:37.435000+00:00</time>
      </trkpt>
      <trkpt lat="0" lon="0">
        <time>2021-02-28T08:24:37.443000+00:00</time>
      </trkpt>
      <trkpt lat="0" lon="0">
        <time>2021-02-28T08:24:37.448000+00:00</time>
      </trkpt>
      <trkpt lat="47.30637" lon="-1.40542">
        <ele>76</ele>
        <time>2021-02-28T08:24:38.395000+00:00</time>
      </trkpt>
      <trkpt lat="0" lon="0">
        <time>2021-02-28T08:24:38.404000+00:00</time>
      </trkpt>
      <trkpt lat="0" lon="0">
        <time>2021-02-28T08:24:38.414000+00:00</time>
      </trkpt>
      <trkpt lat="0" lon="0">
        <time>2021-02-28T08:24:38.416000+00:00</time>
      </trkpt>
      <trkpt lat="47.30639" lon="-1.40542">
        <ele>76</ele>
        <time>2021-02-28T08:24:39.389000+00:00</time>
      </trkpt>
      <trkpt lat="0" lon="0">
        <time>2021-02-28T08:24:39.396000+00:00</time>
      </trkpt>
      <trkpt lat="0" lon="0">
        <time>2021-02-28T08:24:39.401000+00:00</time>
      </trkpt>
      <trkpt lat="0" lon="0">
        <time>2021-02-28T08:24:39.404000+00:00</time>
      </trkpt>
      <trkpt lat="47.30641" lon="-1.40543">
        <ele>76</ele>
        <time>2021-02-28T08:24:40.398000+00:00</time>
      </trkpt>
      <trkpt lat="0" lon="0">
        <time>2021-02-28T08:24:40.408000+00:00</time>
      </trkpt>
      <trkpt lat="0" lon="0">
        <time>2021-02-28T08:24:40.418000+00:00</time>
      </trkpt>
      <trkpt lat="0" lon="0">
        <time>2021-02-28T08:24:40.421000+00:00</time>
      </trkpt>
      <trkpt lat="47.30643" lon="-1.40543">
        <ele>76</ele>
        <time>2021-02-28T08:24:41.395000+00:00</time>
      </trkpt>
      <trkpt lat="0" lon="0">
        <time>2021-02-28T08:24:41.402000+00:00</time>
      </trkpt>
      <trkpt lat="0" lon="0">
        <time>2021-02-28T08:24:41.407000+00:00</time>
      </trkpt>
      <trkpt lat="0" lon="0">
        <time>2021-02-28T08:24:41.410000+00:00</time>
      </trkpt>
      <trkpt lat="47.30644" lon="-1.40543">
        <ele>76</ele>
        <time>2021-02-28T08:24:42.430000+00:00</time>
      </trkpt>
      <trkpt lat="0" lon="0">
        <time>2021-02-28T08:24:42.436000+00:00</time>
      </trkpt>
      <trkpt lat="0" lon="0">
        <time>2021-02-28T08:24:42.441000+00:00</time>
      </trkpt>
      <trkpt lat="0" lon="0">
        <time>2021-02-28T08:24:42.444000+00:00</time>
      </trkpt>
      <trkpt lat="47.30645" lon="-1.40544">
        <ele>76</ele>
        <time>2021-02-28T08:24:43.379000+00:00</time>
      </trkpt>
      <trkpt lat="0" lon="0">
        <time>2021-02-28T08:24:43.386000+00:00</time>
      </trkpt>
      <trkpt lat="0" lon="0">
        <time>2021-02-28T08:24:43.391000+00:00</time>
      </trkpt>
      <trkpt lat="0" lon="0">
        <time>2021-02-28T08:24:43.393000+00:00</time>
      </trkpt>
      <trkpt lat="47.30646" lon="-1.40545">
        <ele>76</ele>
        <time>2021-02-28T08:24:44.400000+00:00</time>
      </trkpt>
      <trkpt lat="0" lon="0">
        <time>2021-02-28T08:24:44.407000+00:00</time>
      </trkpt>
      <trkpt lat="0" lon="0">
        <time>2021-02-28T08:24:44.411000+00:00</time>
      </trkpt>
      <trkpt lat="0" lon="0">
        <time>2021-02-28T08:24:44.414000+00:00</time>
      </trkpt>
      <trkpt lat="47.30647" lon="-1.40546">
        <ele>76</ele>
        <time>2021-02-28T08:24:45.374000+00:00</time>
      </trkpt>
      <trkpt lat="0" lon="0">
        <time>2021-02-28T08:24:45.380000+00:00</time>
      </trkpt>
      <trkpt lat="0" lon="0">
        <time>2021-02-28T08:24:45.382000+00:00</time>
      </trkpt>
      <trkpt lat="0" lon="0">
        <time>2021-02-28T08:24:45.383000+00:00</time>
      </trkpt>
      <trkpt lat="47.30649" lon="-1.40547">
        <ele>76</ele>
        <time>2021-02-28T08:24:46.381000+00:00</time>
      </trkpt>
      <trkpt lat="0" lon="0">
        <time>2021-02-28T08:24:46.390000+00:00</time>
      </trkpt>
      <trkpt lat="0" lon="0">
        <time>2021-02-28T08:24:46.395000+00:00</time>
      </trkpt>
      <trkpt lat="0" lon="0">
        <time>2021-02-28T08:24:46.397000+00:00</time>
      </trkpt>
      <trkpt lat="47.3065" lon="-1.40548">
        <ele>76</ele>
        <time>2021-02-28T08:24:47.399000+00:00</time>
      </trkpt>
      <trkpt lat="0" lon="0">
        <time>2021-02-28T08:24:47.405000+00:00</time>
      </trkpt>
      <trkpt lat="0" lon="0">
        <time>2021-02-28T08:24:47.411000+00:00</time>
      </trkpt>
      <trkpt lat="0" lon="0">
        <time>2021-02-28T08:24:47.414000+00:00</time>
      </trkpt>
      <trkpt lat="47.30652" lon="-1.40549">
        <ele>76</ele>
        <time>2021-02-28T08:24:48.427000+00:00</time>
      </trkpt>
      <trkpt lat="0" lon="0">
        <time>2021-02-28T08:24:48.441000+00:00</time>
      </trkpt>
      <trkpt lat="0" lon="0">
        <time>2021-02-28T08:24:48.447000+00:00</time>
      </trkpt>
      <trkpt lat="0" lon="0">
        <time>2021-02-28T08:24:48.450000+00:00</time>
      </trkpt>
      <trkpt lat="47.30653" lon="-1.40551">
        <ele>76</ele>
        <time>2021-02-28T08:24:49.409000+00:00</time>
      </trkpt>
      <trkpt lat="0" lon="0">
        <time>2021-02-28T08:24:49.421000+00:00</time>
      </trkpt>
      <trkpt lat="0" lon="0">
        <time>2021-02-28T08:24:49.427000+00:00</time>
      </trkpt>
      <trkpt lat="0" lon="0">
        <time>2021-02-28T08:24:49.430000+00:00</time>
      </trkpt>
      <trkpt lat="47.30654" lon="-1.40553">
        <ele>76</ele>
        <time>2021-02-28T08:24:50.405000+00:00</time>
      </trkpt>
      <trkpt lat="0" lon="0">
        <time>2021-02-28T08:24:50.418000+00:00</time>
      </trkpt>
      <trkpt lat="0" lon="0">
        <time>2021-02-28T08:24:50.428000+00:00</time>
      </trkpt>
      <trkpt lat="0" lon="0">
        <time>2021-02-28T08:24:50.436000+00:00</time>
      </trkpt>
      <trkpt lat="47.30656" lon="-1.40554">
        <ele>76</ele>
        <time>2021-02-28T08:24:51.375000+00:00</time>
      </trkpt>
      <trkpt lat="0" lon="0">
        <time>2021-02-28T08:24:51.383000+00:00</time>
      </trkpt>
      <trkpt lat="0" lon="0">
        <time>2021-02-28T08:24:51.384000+00:00</time>
      </trkpt>
      <trkpt lat="47.30657" lon="-1.40556">
        <ele>76</ele>
        <time>2021-02-28T08:24:52.440000+00:00</time>
      </trkpt>
      <trkpt lat="0" lon="0">
        <time>2021-02-28T08:24:52.454000+00:00</time>
      </trkpt>
      <trkpt lat="0" lon="0">
        <time>2021-02-28T08:24:52.462000+00:00</time>
      </trkpt>
      <trkpt lat="0" lon="0">
        <time>2021-02-28T08:24:52.464000+00:00</time>
      </trkpt>
      <trkpt lat="47.3066" lon="-1.40559">
        <ele>76</ele>
        <time>2021-02-28T08:24:54.346000+00:00</time>
      </trkpt>
      <trkpt lat="0" lon="0">
        <time>2021-02-28T08:24:54.355000+00:00</time>
      </trkpt>
      <trkpt lat="0" lon="0">
        <time>2021-02-28T08:24:54.367000+00:00</time>
      </trkpt>
      <trkpt lat="0" lon="0">
        <time>2021-02-28T08:24:54.370000+00:00</time>
      </trkpt>
      <trkpt lat="47.30661" lon="-1.4056">
        <ele>76</ele>
        <time>2021-02-28T08:24:55.416000+00:00</time>
      </trkpt>
      <trkpt lat="0" lon="0">
        <time>2021-02-28T08:24:55.427000+00:00</time>
      </trkpt>
      <trkpt lat="0" lon="0">
        <time>2021-02-28T08:24:55.433000+00:00</time>
      </trkpt>
      <trkpt lat="0" lon="0">
        <time>2021-02-28T08:24:55.436000+00:00</time>
      </trkpt>
      <trkpt lat="47.30662" lon="-1.40561">
        <ele>76</ele>
        <time>2021-02-28T08:24:56.393000+00:00</time>
      </trkpt>
      <trkpt lat="0" lon="0">
        <time>2021-02-28T08:24:56.399000+00:00</time>
      </trkpt>
      <trkpt lat="0" lon="0">
        <time>2021-02-28T08:24:56.407000+00:00</time>
      </trkpt>
      <trkpt lat="0" lon="0">
        <time>2021-02-28T08:24:56.409000+00:00</time>
      </trkpt>
      <trkpt lat="47.30663" lon="-1.40562">
        <ele>76</ele>
        <time>2021-02-28T08:24:57.418000+00:00</time>
      </trkpt>
      <trkpt lat="0" lon="0">
        <time>2021-02-28T08:24:57.427000+00:00</time>
      </trkpt>
      <trkpt lat="0" lon="0">
        <time>2021-02-28T08:24:57.435000+00:00</time>
      </trkpt>
      <trkpt lat="0" lon="0">
        <time>2021-02-28T08:24:57.438000+00:00</time>
      </trkpt>
      <trkpt lat="47.30664" lon="-1.40563">
        <ele>76</ele>
        <time>2021-02-28T08:24:58.361000+00:00</time>
      </trkpt>
      <trkpt lat="0" lon="0">
        <time>2021-02-28T08:24:58.371000+00:00</time>
      </trkpt>
      <trkpt lat="0" lon="0">
        <time>2021-02-28T08:24:58.383000+00:00</time>
      </trkpt>
      <trkpt lat="0" lon="0">
        <time>2021-02-28T08:24:58.386000+00:00</time>
      </trkpt>
      <trkpt lat="47.30665" lon="-1.40564">
        <ele>76</ele>
        <time>2021-02-28T08:24:59.330000+00:00</time>
      </trkpt>
      <trkpt lat="0" lon="0">
        <time>2021-02-28T08:24:59.334000+00:00</time>
      </trkpt>
      <trkpt lat="0" lon="0">
        <time>2021-02-28T08:24:59.335000+00:00</time>
      </trkpt>
      <trkpt lat="0" lon="0">
        <time>2021-02-28T08:24:59.336000+00:00</time>
      </trkpt>
      <trkpt lat="47.30666" lon="-1.40566">
        <ele>76</ele>
        <time>2021-02-28T08:25:00.404000+00:00</time>
      </trkpt>
      <trkpt lat="0" lon="0">
        <time>2021-02-28T08:25:00.410000+00:00</time>
      </trkpt>
      <trkpt lat="0" lon="0">
        <time>2021-02-28T08:25:00.415000+00:00</time>
      </trkpt>
      <trkpt lat="0" lon="0">
        <time>2021-02-28T08:25:00.419000+00:00</time>
      </trkpt>
      <trkpt lat="47.30668" lon="-1.40567">
        <ele>76</ele>
        <time>2021-02-28T08:25:01.411000+00:00</time>
      </trkpt>
      <trkpt lat="0" lon="0">
        <time>2021-02-28T08:25:01.425000+00:00</time>
      </trkpt>
      <trkpt lat="0" lon="0">
        <time>2021-02-28T08:25:01.430000+00:00</time>
      </trkpt>
      <trkpt lat="0" lon="0">
        <time>2021-02-28T08:25:01.434000+00:00</time>
      </trkpt>
      <trkpt lat="47.3067" lon="-1.40568">
        <ele>76</ele>
        <time>2021-02-28T08:25:02.414000+00:00</time>
      </trkpt>
      <trkpt lat="0" lon="0">
        <time>2021-02-28T08:25:02.423000+00:00</time>
      </trkpt>
      <trkpt lat="0" lon="0">
        <time>2021-02-28T08:25:02.429000+00:00</time>
      </trkpt>
      <trkpt lat="0" lon="0">
        <time>2021-02-28T08:25:02.432000+00:00</time>
      </trkpt>
      <trkpt lat="47.30671" lon="-1.40569">
        <ele>76</ele>
        <time>2021-02-28T08:25:03.407000+00:00</time>
      </trkpt>
      <trkpt lat="0" lon="0">
        <time>2021-02-28T08:25:03.418000+00:00</time>
      </trkpt>
      <trkpt lat="0" lon="0">
        <time>2021-02-28T08:25:03.423000+00:00</time>
      </trkpt>
      <trkpt lat="0" lon="0">
        <time>2021-02-28T08:25:03.428000+00:00</time>
      </trkpt>
      <trkpt lat="47.30673" lon="-1.4057">
        <ele>76</ele>
        <time>2021-02-28T08:25:04.400000+00:00</time>
      </trkpt>
      <trkpt lat="0" lon="0">
        <time>2021-02-28T08:25:04.405000+00:00</time>
      </trkpt>
      <trkpt lat="0" lon="0">
        <time>2021-02-28T08:25:04.409000+00:00</time>
      </trkpt>
      <trkpt lat="0" lon="0">
        <time>2021-02-28T08:25:04.412000+00:00</time>
      </trkpt>
      <trkpt lat="47.30675" lon="-1.40571">
        <ele>76</ele>
        <time>2021-02-28T08:25:05.390000+00:00</time>
      </trkpt>
      <trkpt lat="0" lon="0">
        <time>2021-02-28T08:25:05.397000+00:00</time>
      </trkpt>
      <trkpt lat="0" lon="0">
        <time>2021-02-28T08:25:05.403000+00:00</time>
      </trkpt>
      <trkpt lat="0" lon="0">
        <time>2021-02-28T08:25:05.407000+00:00</time>
      </trkpt>
      <trkpt lat="47.30677" lon="-1.40573">
        <ele>77</ele>
        <time>2021-02-28T08:25:06.391000+00:00</time>
      </trkpt>
      <trkpt lat="0" lon="0">
        <time>2021-02-28T08:25:06.397000+00:00</time>
      </trkpt>
      <trkpt lat="0" lon="0">
        <time>2021-02-28T08:25:06.403000+00:00</time>
      </trkpt>
      <trkpt lat="0" lon="0">
        <time>2021-02-28T08:25:06.406000+00:00</time>
      </trkpt>
      <trkpt lat="47.3068" lon="-1.40574">
        <ele>77</ele>
        <time>2021-02-28T08:25:07.382000+00:00</time>
      </trkpt>
      <trkpt lat="0" lon="0">
        <time>2021-02-28T08:25:07.389000+00:00</time>
      </trkpt>
      <trkpt lat="0" lon="0">
        <time>2021-02-28T08:25:07.398000+00:00</time>
      </trkpt>
      <trkpt lat="0" lon="0">
        <time>2021-02-28T08:25:07.404000+00:00</time>
      </trkpt>
      <trkpt lat="47.30682" lon="-1.40575">
        <ele>77</ele>
        <time>2021-02-28T08:25:08.403000+00:00</time>
      </trkpt>
      <trkpt lat="0" lon="0">
        <time>2021-02-28T08:25:08.410000+00:00</time>
      </trkpt>
      <trkpt lat="0" lon="0">
        <time>2021-02-28T08:25:08.415000+00:00</time>
      </trkpt>
      <trkpt lat="0" lon="0">
        <time>2021-02-28T08:25:08.418000+00:00</time>
      </trkpt>
      <trkpt lat="47.30685" lon="-1.40577">
        <ele>77</ele>
        <time>2021-02-28T08:25:09.398000+00:00</time>
      </trkpt>
      <trkpt lat="0" lon="0">
        <time>2021-02-28T08:25:09.404000+00:00</time>
      </trkpt>
      <trkpt lat="0" lon="0">
        <time>2021-02-28T08:25:09.408000+00:00</time>
      </trkpt>
      <trkpt lat="0" lon="0">
        <time>2021-02-28T08:25:09.411000+00:00</time>
      </trkpt>
      <trkpt lat="47.30687" lon="-1.40578">
        <ele>78</ele>
        <time>2021-02-28T08:25:10.385000+00:00</time>
      </trkpt>
      <trkpt lat="0" lon="0">
        <time>2021-02-28T08:25:10.391000+00:00</time>
      </trkpt>
      <trkpt lat="0" lon="0">
        <time>2021-02-28T08:25:10.396000+00:00</time>
      </trkpt>
      <trkpt lat="0" lon="0">
        <time>2021-02-28T08:25:10.399000+00:00</time>
      </trkpt>
      <trkpt lat="47.30689" lon="-1.4058">
        <ele>78</ele>
        <time>2021-02-28T08:25:11.397000+00:00</time>
      </trkpt>
      <trkpt lat="0" lon="0">
        <time>2021-02-28T08:25:11.404000+00:00</time>
      </trkpt>
      <trkpt lat="0" lon="0">
        <time>2021-02-28T08:25:11.409000+00:00</time>
      </trkpt>
      <trkpt lat="0" lon="0">
        <time>2021-02-28T08:25:11.412000+00:00</time>
      </trkpt>
      <trkpt lat="47.30692" lon="-1.40581">
        <ele>77</ele>
        <time>2021-02-28T08:25:12.398000+00:00</time>
      </trkpt>
      <trkpt lat="0" lon="0">
        <time>2021-02-28T08:25:12.405000+00:00</time>
      </trkpt>
      <trkpt lat="0" lon="0">
        <time>2021-02-28T08:25:12.410000+00:00</time>
      </trkpt>
      <trkpt lat="0" lon="0">
        <time>2021-02-28T08:25:12.413000+00:00</time>
      </trkpt>
      <trkpt lat="47.30694" lon="-1.40583">
        <ele>77</ele>
        <time>2021-02-28T08:25:13.402000+00:00</time>
      </trkpt>
      <trkpt lat="0" lon="0">
        <time>2021-02-28T08:25:13.408000+00:00</time>
      </trkpt>
      <trkpt lat="0" lon="0">
        <time>2021-02-28T08:25:13.414000+00:00</time>
      </trkpt>
      <trkpt lat="0" lon="0">
        <time>2021-02-28T08:25:13.417000+00:00</time>
      </trkpt>
      <trkpt lat="47.30697" lon="-1.40584">
        <ele>76</ele>
        <time>2021-02-28T08:25:14.414000+00:00</time>
      </trkpt>
      <trkpt lat="0" lon="0">
        <time>2021-02-28T08:25:14.419000+00:00</time>
      </trkpt>
      <trkpt lat="0" lon="0">
        <time>2021-02-28T08:25:14.424000+00:00</time>
      </trkpt>
      <trkpt lat="0" lon="0">
        <time>2021-02-28T08:25:14.426000+00:00</time>
      </trkpt>
      <trkpt lat="47.307" lon="-1.40585">
        <ele>76</ele>
        <time>2021-02-28T08:25:15.408000+00:00</time>
      </trkpt>
      <trkpt lat="0" lon="0">
        <time>2021-02-28T08:25:15.412000+00:00</time>
      </trkpt>
      <trkpt lat="0" lon="0">
        <time>2021-02-28T08:25:15.414000+00:00</time>
      </trkpt>
      <trkpt lat="0" lon="0">
        <time>2021-02-28T08:25:15.415000+00:00</time>
      </trkpt>
      <trkpt lat="47.30703" lon="-1.40586">
        <ele>76</ele>
        <time>2021-02-28T08:25:16.410000+00:00</time>
      </trkpt>
      <trkpt lat="0" lon="0">
        <time>2021-02-28T08:25:16.416000+00:00</time>
      </trkpt>
      <trkpt lat="0" lon="0">
        <time>2021-02-28T08:25:16.423000+00:00</time>
      </trkpt>
      <trkpt lat="0" lon="0">
        <time>2021-02-28T08:25:16.426000+00:00</time>
      </trkpt>
      <trkpt lat="47.30706" lon="-1.40588">
        <ele>77</ele>
        <time>2021-02-28T08:25:17.367000+00:00</time>
      </trkpt>
      <trkpt lat="0" lon="0">
        <time>2021-02-28T08:25:17.376000+00:00</time>
      </trkpt>
      <trkpt lat="0" lon="0">
        <time>2021-02-28T08:25:17.381000+00:00</time>
      </trkpt>
      <trkpt lat="0" lon="0">
        <time>2021-02-28T08:25:17.384000+00:00</time>
      </trkpt>
      <trkpt lat="47.30709" lon="-1.40589">
        <ele>78</ele>
        <time>2021-02-28T08:25:18.409000+00:00</time>
      </trkpt>
      <trkpt lat="0" lon="0">
        <time>2021-02-28T08:25:18.417000+00:00</time>
      </trkpt>
      <trkpt lat="0" lon="0">
        <time>2021-02-28T08:25:18.422000+00:00</time>
      </trkpt>
      <trkpt lat="0" lon="0">
        <time>2021-02-28T08:25:18.426000+00:00</time>
      </trkpt>
      <trkpt lat="47.30712" lon="-1.40591">
        <ele>79</ele>
        <time>2021-02-28T08:25:19.325000+00:00</time>
      </trkpt>
      <trkpt lat="0" lon="0">
        <time>2021-02-28T08:25:19.335000+00:00</time>
      </trkpt>
      <trkpt lat="0" lon="0">
        <time>2021-02-28T08:25:19.338000+00:00</time>
      </trkpt>
      <trkpt lat="0" lon="0">
        <time>2021-02-28T08:25:19.341000+00:00</time>
      </trkpt>
      <trkpt lat="47.30715" lon="-1.40592">
        <ele>80</ele>
        <time>2021-02-28T08:25:20.397000+00:00</time>
      </trkpt>
      <trkpt lat="0" lon="0">
        <time>2021-02-28T08:25:20.407000+00:00</time>
      </trkpt>
      <trkpt lat="0" lon="0">
        <time>2021-02-28T08:25:20.411000+00:00</time>
      </trkpt>
      <trkpt lat="0" lon="0">
        <time>2021-02-28T08:25:20.414000+00:00</time>
      </trkpt>
      <trkpt lat="47.30718" lon="-1.40594">
        <ele>80</ele>
        <time>2021-02-28T08:25:21.424000+00:00</time>
      </trkpt>
      <trkpt lat="0" lon="0">
        <time>2021-02-28T08:25:21.430000+00:00</time>
      </trkpt>
      <trkpt lat="0" lon="0">
        <time>2021-02-28T08:25:21.440000+00:00</time>
      </trkpt>
      <trkpt lat="0" lon="0">
        <time>2021-02-28T08:25:21.442000+00:00</time>
      </trkpt>
      <trkpt lat="47.30721" lon="-1.40596">
        <ele>81</ele>
        <time>2021-02-28T08:25:22.422000+00:00</time>
      </trkpt>
      <trkpt lat="0" lon="0">
        <time>2021-02-28T08:25:22.431000+00:00</time>
      </trkpt>
      <trkpt lat="0" lon="0">
        <time>2021-02-28T08:25:22.438000+00:00</time>
      </trkpt>
      <trkpt lat="0" lon="0">
        <time>2021-02-28T08:25:22.442000+00:00</time>
      </trkpt>
      <trkpt lat="47.30724" lon="-1.40598">
        <ele>81</ele>
        <time>2021-02-28T08:25:23.423000+00:00</time>
      </trkpt>
      <trkpt lat="0" lon="0">
        <time>2021-02-28T08:25:23.431000+00:00</time>
      </trkpt>
      <trkpt lat="0" lon="0">
        <time>2021-02-28T08:25:23.440000+00:00</time>
      </trkpt>
      <trkpt lat="0" lon="0">
        <time>2021-02-28T08:25:23.442000+00:00</time>
      </trkpt>
      <trkpt lat="47.30727" lon="-1.40599">
        <ele>82</ele>
        <time>2021-02-28T08:25:24.381000+00:00</time>
      </trkpt>
      <trkpt lat="0" lon="0">
        <time>2021-02-28T08:25:24.396000+00:00</time>
      </trkpt>
      <trkpt lat="0" lon="0">
        <time>2021-02-28T08:25:24.400000+00:00</time>
      </trkpt>
      <trkpt lat="0" lon="0">
        <time>2021-02-28T08:25:24.403000+00:00</time>
      </trkpt>
      <trkpt lat="47.3073" lon="-1.40601">
        <ele>83</ele>
        <time>2021-02-28T08:25:25.366000+00:00</time>
      </trkpt>
      <trkpt lat="0" lon="0">
        <time>2021-02-28T08:25:25.375000+00:00</time>
      </trkpt>
      <trkpt lat="0" lon="0">
        <time>2021-02-28T08:25:25.379000+00:00</time>
      </trkpt>
      <trkpt lat="0" lon="0">
        <time>2021-02-28T08:25:25.382000+00:00</time>
      </trkpt>
      <trkpt lat="47.30733" lon="-1.40602">
        <ele>83</ele>
        <time>2021-02-28T08:25:26.375000+00:00</time>
      </trkpt>
      <trkpt lat="0" lon="0">
        <time>2021-02-28T08:25:26.379000+00:00</time>
      </trkpt>
      <trkpt lat="0" lon="0">
        <time>2021-02-28T08:25:26.387000+00:00</time>
      </trkpt>
      <trkpt lat="0" lon="0">
        <time>2021-02-28T08:25:26.388000+00:00</time>
      </trkpt>
      <trkpt lat="47.30736" lon="-1.40604">
        <ele>83</ele>
        <time>2021-02-28T08:25:27.400000+00:00</time>
      </trkpt>
      <trkpt lat="0" lon="0">
        <time>2021-02-28T08:25:27.402000+00:00</time>
      </trkpt>
      <trkpt lat="0" lon="0">
        <time>2021-02-28T08:25:27.405000+00:00</time>
      </trkpt>
      <trkpt lat="0" lon="0">
        <time>2021-02-28T08:25:27.407000+00:00</time>
      </trkpt>
      <trkpt lat="47.30739" lon="-1.40605">
        <ele>83</ele>
        <time>2021-02-28T08:25:28.374000+00:00</time>
      </trkpt>
      <trkpt lat="0" lon="0">
        <time>2021-02-28T08:25:28.384000+00:00</time>
      </trkpt>
      <trkpt lat="0" lon="0">
        <time>2021-02-28T08:25:28.389000+00:00</time>
      </trkpt>
      <trkpt lat="0" lon="0">
        <time>2021-02-28T08:25:28.392000+00:00</time>
      </trkpt>
      <trkpt lat="47.30742" lon="-1.40606">
        <ele>83</ele>
        <time>2021-02-28T08:25:29.421000+00:00</time>
      </trkpt>
      <trkpt lat="0" lon="0">
        <time>2021-02-28T08:25:29.426000+00:00</time>
      </trkpt>
      <trkpt lat="0" lon="0">
        <time>2021-02-28T08:25:29.432000+00:00</time>
      </trkpt>
      <trkpt lat="0" lon="0">
        <time>2021-02-28T08:25:29.435000+00:00</time>
      </trkpt>
      <trkpt lat="47.30746" lon="-1.40607">
        <ele>84</ele>
        <time>2021-02-28T08:25:30.397000+00:00</time>
      </trkpt>
      <trkpt lat="0" lon="0">
        <time>2021-02-28T08:25:30.402000+00:00</time>
      </trkpt>
      <trkpt lat="0" lon="0">
        <time>2021-02-28T08:25:30.408000+00:00</time>
      </trkpt>
      <trkpt lat="0" lon="0">
        <time>2021-02-28T08:25:30.411000+00:00</time>
      </trkpt>
      <trkpt lat="47.30749" lon="-1.40608">
        <ele>83</ele>
        <time>2021-02-28T08:25:31.392000+00:00</time>
      </trkpt>
      <trkpt lat="0" lon="0">
        <time>2021-02-28T08:25:31.406000+00:00</time>
      </trkpt>
      <trkpt lat="0" lon="0">
        <time>2021-02-28T08:25:31.411000+00:00</time>
      </trkpt>
      <trkpt lat="0" lon="0">
        <time>2021-02-28T08:25:31.414000+00:00</time>
      </trkpt>
      <trkpt lat="47.30752" lon="-1.40609">
        <ele>84</ele>
        <time>2021-02-28T08:25:32.422000+00:00</time>
      </trkpt>
      <trkpt lat="0" lon="0">
        <time>2021-02-28T08:25:32.430000+00:00</time>
      </trkpt>
      <trkpt lat="0" lon="0">
        <time>2021-02-28T08:25:32.435000+00:00</time>
      </trkpt>
      <trkpt lat="0" lon="0">
        <time>2021-02-28T08:25:32.439000+00:00</time>
      </trkpt>
      <trkpt lat="47.30756" lon="-1.4061">
        <ele>84</ele>
        <time>2021-02-28T08:25:33.359000+00:00</time>
      </trkpt>
      <trkpt lat="0" lon="0">
        <time>2021-02-28T08:25:33.379000+00:00</time>
      </trkpt>
      <trkpt lat="0" lon="0">
        <time>2021-02-28T08:25:33.386000+00:00</time>
      </trkpt>
      <trkpt lat="0" lon="0">
        <time>2021-02-28T08:25:33.388000+00:00</time>
      </trkpt>
      <trkpt lat="47.3076" lon="-1.40612">
        <ele>84</ele>
        <time>2021-02-28T08:25:34.341000+00:00</time>
      </trkpt>
      <trkpt lat="0" lon="0">
        <time>2021-02-28T08:25:34.351000+00:00</time>
      </trkpt>
      <trkpt lat="0" lon="0">
        <time>2021-02-28T08:25:34.356000+00:00</time>
      </trkpt>
      <trkpt lat="0" lon="0">
        <time>2021-02-28T08:25:34.359000+00:00</time>
      </trkpt>
      <trkpt lat="47.30763" lon="-1.40613">
        <ele>83</ele>
        <time>2021-02-28T08:25:35.409000+00:00</time>
      </trkpt>
      <trkpt lat="0" lon="0">
        <time>2021-02-28T08:25:35.422000+00:00</time>
      </trkpt>
      <trkpt lat="0" lon="0">
        <time>2021-02-28T08:25:35.427000+00:00</time>
      </trkpt>
      <trkpt lat="0" lon="0">
        <time>2021-02-28T08:25:35.429000+00:00</time>
      </trkpt>
      <trkpt lat="47.30767" lon="-1.40614">
        <ele>83</ele>
        <time>2021-02-28T08:25:36.398000+00:00</time>
      </trkpt>
      <trkpt lat="0" lon="0">
        <time>2021-02-28T08:25:36.404000+00:00</time>
      </trkpt>
      <trkpt lat="0" lon="0">
        <time>2021-02-28T08:25:36.410000+00:00</time>
      </trkpt>
      <trkpt lat="0" lon="0">
        <time>2021-02-28T08:25:36.414000+00:00</time>
      </trkpt>
      <trkpt lat="47.30771" lon="-1.40615">
        <ele>83</ele>
        <time>2021-02-28T08:25:37.416000+00:00</time>
      </trkpt>
      <trkpt lat="0" lon="0">
        <time>2021-02-28T08:25:37.432000+00:00</time>
      </trkpt>
      <trkpt lat="0" lon="0">
        <time>2021-02-28T08:25:37.437000+00:00</time>
      </trkpt>
      <trkpt lat="0" lon="0">
        <time>2021-02-28T08:25:37.440000+00:00</time>
      </trkpt>
      <trkpt lat="47.30775" lon="-1.40616">
        <ele>82</ele>
        <time>2021-02-28T08:25:38.382000+00:00</time>
      </trkpt>
      <trkpt lat="0" lon="0">
        <time>2021-02-28T08:25:38.387000+00:00</time>
      </trkpt>
      <trkpt lat="0" lon="0">
        <time>2021-02-28T08:25:38.391000+00:00</time>
      </trkpt>
      <trkpt lat="0" lon="0">
        <time>2021-02-28T08:25:38.395000+00:00</time>
      </trkpt>
      <trkpt lat="47.30779" lon="-1.40617">
        <ele>82</ele>
        <time>2021-02-28T08:25:39.380000+00:00</time>
      </trkpt>
      <trkpt lat="0" lon="0">
        <time>2021-02-28T08:25:39.387000+00:00</time>
      </trkpt>
      <trkpt lat="0" lon="0">
        <time>2021-02-28T08:25:39.392000+00:00</time>
      </trkpt>
      <trkpt lat="0" lon="0">
        <time>2021-02-28T08:25:39.396000+00:00</time>
      </trkpt>
      <trkpt lat="47.30783" lon="-1.40618">
        <ele>82</ele>
        <time>2021-02-28T08:25:40.354000+00:00</time>
      </trkpt>
      <trkpt lat="0" lon="0">
        <time>2021-02-28T08:25:40.362000+00:00</time>
      </trkpt>
      <trkpt lat="0" lon="0">
        <time>2021-02-28T08:25:40.366000+00:00</time>
      </trkpt>
      <trkpt lat="0" lon="0">
        <time>2021-02-28T08:25:40.368000+00:00</time>
      </trkpt>
      <trkpt lat="47.30788" lon="-1.40619">
        <ele>80</ele>
        <time>2021-02-28T08:25:41.438000+00:00</time>
      </trkpt>
      <trkpt lat="0" lon="0">
        <time>2021-02-28T08:25:41.449000+00:00</time>
      </trkpt>
      <trkpt lat="0" lon="0">
        <time>2021-02-28T08:25:41.455000+00:00</time>
      </trkpt>
      <trkpt lat="0" lon="0">
        <time>2021-02-28T08:25:41.458000+00:00</time>
      </trkpt>
      <trkpt lat="47.30792" lon="-1.40621">
        <ele>80</ele>
        <time>2021-02-28T08:25:42.404000+00:00</time>
      </trkpt>
      <trkpt lat="0" lon="0">
        <time>2021-02-28T08:25:42.416000+00:00</time>
      </trkpt>
      <trkpt lat="0" lon="0">
        <time>2021-02-28T08:25:42.421000+00:00</time>
      </trkpt>
      <trkpt lat="0" lon="0">
        <time>2021-02-28T08:25:42.424000+00:00</time>
      </trkpt>
      <trkpt lat="47.30797" lon="-1.40622">
        <ele>80</ele>
        <time>2021-02-28T08:25:43.396000+00:00</time>
      </trkpt>
      <trkpt lat="0" lon="0">
        <time>2021-02-28T08:25:43.410000+00:00</time>
      </trkpt>
      <trkpt lat="0" lon="0">
        <time>2021-02-28T08:25:43.417000+00:00</time>
      </trkpt>
      <trkpt lat="0" lon="0">
        <time>2021-02-28T08:25:43.421000+00:00</time>
      </trkpt>
      <trkpt lat="47.30801" lon="-1.40623">
        <ele>79</ele>
        <time>2021-02-28T08:25:44.322000+00:00</time>
      </trkpt>
      <trkpt lat="0" lon="0">
        <time>2021-02-28T08:25:44.330000+00:00</time>
      </trkpt>
      <trkpt lat="0" lon="0">
        <time>2021-02-28T08:25:44.333000+00:00</time>
      </trkpt>
      <trkpt lat="0" lon="0">
        <time>2021-02-28T08:25:44.334000+00:00</time>
      </trkpt>
      <trkpt lat="47.30805" lon="-1.40625">
        <ele>77</ele>
        <time>2021-02-28T08:25:45.415000+00:00</time>
      </trkpt>
      <trkpt lat="0" lon="0">
        <time>2021-02-28T08:25:45.422000+00:00</time>
      </trkpt>
      <trkpt lat="0" lon="0">
        <time>2021-02-28T08:25:45.428000+00:00</time>
      </trkpt>
      <trkpt lat="0" lon="0">
        <time>2021-02-28T08:25:45.431000+00:00</time>
      </trkpt>
      <trkpt lat="47.3081" lon="-1.40626">
        <ele>76</ele>
        <time>2021-02-28T08:25:46.416000+00:00</time>
      </trkpt>
      <trkpt lat="0" lon="0">
        <time>2021-02-28T08:25:46.435000+00:00</time>
      </trkpt>
      <trkpt lat="0" lon="0">
        <time>2021-02-28T08:25:46.440000+00:00</time>
      </trkpt>
      <trkpt lat="0" lon="0">
        <time>2021-02-28T08:25:46.446000+00:00</time>
      </trkpt>
      <trkpt lat="47.30814" lon="-1.40627">
        <ele>75</ele>
        <time>2021-02-28T08:25:47.384000+00:00</time>
      </trkpt>
      <trkpt lat="0" lon="0">
        <time>2021-02-28T08:25:47.394000+00:00</time>
      </trkpt>
      <trkpt lat="0" lon="0">
        <time>2021-02-28T08:25:47.399000+00:00</time>
      </trkpt>
      <trkpt lat="0" lon="0">
        <time>2021-02-28T08:25:47.402000+00:00</time>
      </trkpt>
      <trkpt lat="47.30819" lon="-1.40629">
        <ele>75</ele>
        <time>2021-02-28T08:25:48.441000+00:00</time>
      </trkpt>
      <trkpt lat="0" lon="0">
        <time>2021-02-28T08:25:48.449000+00:00</time>
      </trkpt>
      <trkpt lat="0" lon="0">
        <time>2021-02-28T08:25:48.455000+00:00</time>
      </trkpt>
      <trkpt lat="0" lon="0">
        <time>2021-02-28T08:25:48.458000+00:00</time>
      </trkpt>
      <trkpt lat="47.30823" lon="-1.4063">
        <ele>75</ele>
        <time>2021-02-28T08:25:49.395000+00:00</time>
      </trkpt>
      <trkpt lat="0" lon="0">
        <time>2021-02-28T08:25:49.400000+00:00</time>
      </trkpt>
      <trkpt lat="0" lon="0">
        <time>2021-02-28T08:25:49.405000+00:00</time>
      </trkpt>
      <trkpt lat="0" lon="0">
        <time>2021-02-28T08:25:49.408000+00:00</time>
      </trkpt>
      <trkpt lat="47.30828" lon="-1.40631">
        <ele>74</ele>
        <time>2021-02-28T08:25:50.386000+00:00</time>
      </trkpt>
      <trkpt lat="0" lon="0">
        <time>2021-02-28T08:25:50.393000+00:00</time>
      </trkpt>
      <trkpt lat="0" lon="0">
        <time>2021-02-28T08:25:50.400000+00:00</time>
      </trkpt>
      <trkpt lat="0" lon="0">
        <time>2021-02-28T08:25:50.403000+00:00</time>
      </trkpt>
      <trkpt lat="47.30832" lon="-1.40633">
        <ele>74</ele>
        <time>2021-02-28T08:25:51.397000+00:00</time>
      </trkpt>
      <trkpt lat="0" lon="0">
        <time>2021-02-28T08:25:51.403000+00:00</time>
      </trkpt>
      <trkpt lat="0" lon="0">
        <time>2021-02-28T08:25:51.409000+00:00</time>
      </trkpt>
      <trkpt lat="0" lon="0">
        <time>2021-02-28T08:25:51.412000+00:00</time>
      </trkpt>
      <trkpt lat="47.30836" lon="-1.40634">
        <ele>73</ele>
        <time>2021-02-28T08:25:52.404000+00:00</time>
      </trkpt>
      <trkpt lat="0" lon="0">
        <time>2021-02-28T08:25:52.417000+00:00</time>
      </trkpt>
      <trkpt lat="0" lon="0">
        <time>2021-02-28T08:25:52.421000+00:00</time>
      </trkpt>
      <trkpt lat="0" lon="0">
        <time>2021-02-28T08:25:52.425000+00:00</time>
      </trkpt>
      <trkpt lat="47.3084" lon="-1.40635">
        <ele>73</ele>
        <time>2021-02-28T08:25:53.414000+00:00</time>
      </trkpt>
      <trkpt lat="0" lon="0">
        <time>2021-02-28T08:25:53.420000+00:00</time>
      </trkpt>
      <trkpt lat="0" lon="0">
        <time>2021-02-28T08:25:53.426000+00:00</time>
      </trkpt>
      <trkpt lat="0" lon="0">
        <time>2021-02-28T08:25:53.429000+00:00</time>
      </trkpt>
      <trkpt lat="47.30844" lon="-1.40636">
        <ele>73</ele>
        <time>2021-02-28T08:25:54.395000+00:00</time>
      </trkpt>
      <trkpt lat="0" lon="0">
        <time>2021-02-28T08:25:54.404000+00:00</time>
      </trkpt>
      <trkpt lat="0" lon="0">
        <time>2021-02-28T08:25:54.409000+00:00</time>
      </trkpt>
      <trkpt lat="0" lon="0">
        <time>2021-02-28T08:25:54.411000+00:00</time>
      </trkpt>
      <trkpt lat="47.30847" lon="-1.40637">
        <ele>73</ele>
        <time>2021-02-28T08:25:55.392000+00:00</time>
      </trkpt>
      <trkpt lat="0" lon="0">
        <time>2021-02-28T08:25:55.394000+00:00</time>
      </trkpt>
      <trkpt lat="0" lon="0">
        <time>2021-02-28T08:25:55.396000+00:00</time>
      </trkpt>
      <trkpt lat="0" lon="0">
        <time>2021-02-28T08:25:55.397000+00:00</time>
      </trkpt>
      <trkpt lat="47.3085" lon="-1.40637">
        <ele>73</ele>
        <time>2021-02-28T08:25:56.387000+00:00</time>
      </trkpt>
      <trkpt lat="0" lon="0">
        <time>2021-02-28T08:25:56.394000+00:00</time>
      </trkpt>
      <trkpt lat="0" lon="0">
        <time>2021-02-28T08:25:56.399000+00:00</time>
      </trkpt>
      <trkpt lat="0" lon="0">
        <time>2021-02-28T08:25:56.402000+00:00</time>
      </trkpt>
      <trkpt lat="47.30853" lon="-1.40637">
        <ele>73</ele>
        <time>2021-02-28T08:25:57.419000+00:00</time>
      </trkpt>
      <trkpt lat="0" lon="0">
        <time>2021-02-28T08:25:57.424000+00:00</time>
      </trkpt>
      <trkpt lat="0" lon="0">
        <time>2021-02-28T08:25:57.430000+00:00</time>
      </trkpt>
      <trkpt lat="0" lon="0">
        <time>2021-02-28T08:25:57.433000+00:00</time>
      </trkpt>
      <trkpt lat="47.30856" lon="-1.40637">
        <ele>74</ele>
        <time>2021-02-28T08:25:58.385000+00:00</time>
      </trkpt>
      <trkpt lat="0" lon="0">
        <time>2021-02-28T08:25:58.391000+00:00</time>
      </trkpt>
      <trkpt lat="0" lon="0">
        <time>2021-02-28T08:25:58.397000+00:00</time>
      </trkpt>
      <trkpt lat="0" lon="0">
        <time>2021-02-28T08:25:58.400000+00:00</time>
      </trkpt>
      <trkpt lat="47.30858" lon="-1.40637">
        <ele>74</ele>
        <time>2021-02-28T08:25:59.392000+00:00</time>
      </trkpt>
      <trkpt lat="0" lon="0">
        <time>2021-02-28T08:25:59.397000+00:00</time>
      </trkpt>
      <trkpt lat="0" lon="0">
        <time>2021-02-28T08:25:59.403000+00:00</time>
      </trkpt>
      <trkpt lat="0" lon="0">
        <time>2021-02-28T08:25:59.405000+00:00</time>
      </trkpt>
      <trkpt lat="47.30861" lon="-1.40636">
        <ele>74</ele>
        <time>2021-02-28T08:26:00.372000+00:00</time>
      </trkpt>
      <trkpt lat="0" lon="0">
        <time>2021-02-28T08:26:00.382000+00:00</time>
      </trkpt>
      <trkpt lat="0" lon="0">
        <time>2021-02-28T08:26:00.385000+00:00</time>
      </trkpt>
      <trkpt lat="0" lon="0">
        <time>2021-02-28T08:26:00.388000+00:00</time>
      </trkpt>
      <trkpt lat="47.30863" lon="-1.40636">
        <ele>74</ele>
        <time>2021-02-28T08:26:01.401000+00:00</time>
      </trkpt>
      <trkpt lat="0" lon="0">
        <time>2021-02-28T08:26:01.405000+00:00</time>
      </trkpt>
      <trkpt lat="0" lon="0">
        <time>2021-02-28T08:26:01.409000+00:00</time>
      </trkpt>
      <trkpt lat="0" lon="0">
        <time>2021-02-28T08:26:01.412000+00:00</time>
      </trkpt>
      <trkpt lat="47.30865" lon="-1.40635">
        <ele>74</ele>
        <time>2021-02-28T08:26:02.392000+00:00</time>
      </trkpt>
      <trkpt lat="0" lon="0">
        <time>2021-02-28T08:26:02.410000+00:00</time>
      </trkpt>
      <trkpt lat="0" lon="0">
        <time>2021-02-28T08:26:02.415000+00:00</time>
      </trkpt>
      <trkpt lat="0" lon="0">
        <time>2021-02-28T08:26:02.418000+00:00</time>
      </trkpt>
      <trkpt lat="47.30868" lon="-1.40635">
        <ele>74</ele>
        <time>2021-02-28T08:26:03.421000+00:00</time>
      </trkpt>
      <trkpt lat="0" lon="0">
        <time>2021-02-28T08:26:03.431000+00:00</time>
      </trkpt>
      <trkpt lat="0" lon="0">
        <time>2021-02-28T08:26:03.438000+00:00</time>
      </trkpt>
      <trkpt lat="0" lon="0">
        <time>2021-02-28T08:26:03.441000+00:00</time>
      </trkpt>
      <trkpt lat="47.30871" lon="-1.40633">
        <ele>75</ele>
        <time>2021-02-28T08:26:04.414000+00:00</time>
      </trkpt>
      <trkpt lat="0" lon="0">
        <time>2021-02-28T08:26:04.421000+00:00</time>
      </trkpt>
      <trkpt lat="0" lon="0">
        <time>2021-02-28T08:26:04.425000+00:00</time>
      </trkpt>
      <trkpt lat="0" lon="0">
        <time>2021-02-28T08:26:04.428000+00:00</time>
      </trkpt>
      <trkpt lat="47.30873" lon="-1.40632">
        <ele>75</ele>
        <time>2021-02-28T08:26:05.365000+00:00</time>
      </trkpt>
      <trkpt lat="0" lon="0">
        <time>2021-02-28T08:26:05.371000+00:00</time>
      </trkpt>
      <trkpt lat="0" lon="0">
        <time>2021-02-28T08:26:05.383000+00:00</time>
      </trkpt>
      <trkpt lat="0" lon="0">
        <time>2021-02-28T08:26:05.387000+00:00</time>
      </trkpt>
      <trkpt lat="47.30876" lon="-1.40631">
        <ele>75</ele>
        <time>2021-02-28T08:26:06.377000+00:00</time>
      </trkpt>
      <trkpt lat="0" lon="0">
        <time>2021-02-28T08:26:06.393000+00:00</time>
      </trkpt>
      <trkpt lat="0" lon="0">
        <time>2021-02-28T08:26:06.402000+00:00</time>
      </trkpt>
      <trkpt lat="0" lon="0">
        <time>2021-02-28T08:26:06.403000+00:00</time>
      </trkpt>
      <trkpt lat="47.30879" lon="-1.40629">
        <ele>75</ele>
        <time>2021-02-28T08:26:07.408000+00:00</time>
      </trkpt>
      <trkpt lat="0" lon="0">
        <time>2021-02-28T08:26:07.416000+00:00</time>
      </trkpt>
      <trkpt lat="0" lon="0">
        <time>2021-02-28T08:26:07.421000+00:00</time>
      </trkpt>
      <trkpt lat="0" lon="0">
        <time>2021-02-28T08:26:07.424000+00:00</time>
      </trkpt>
      <trkpt lat="47.30881" lon="-1.40627">
        <ele>75</ele>
        <time>2021-02-28T08:26:08.405000+00:00</time>
      </trkpt>
      <trkpt lat="0" lon="0">
        <time>2021-02-28T08:26:08.416000+00:00</time>
      </trkpt>
      <trkpt lat="0" lon="0">
        <time>2021-02-28T08:26:08.426000+00:00</time>
      </trkpt>
      <trkpt lat="0" lon="0">
        <time>2021-02-28T08:26:08.430000+00:00</time>
      </trkpt>
      <trkpt lat="47.30884" lon="-1.40625">
        <ele>75</ele>
        <time>2021-02-28T08:26:09.422000+00:00</time>
      </trkpt>
      <trkpt lat="0" lon="0">
        <time>2021-02-28T08:26:09.431000+00:00</time>
      </trkpt>
      <trkpt lat="0" lon="0">
        <time>2021-02-28T08:26:09.435000+00:00</time>
      </trkpt>
      <trkpt lat="0" lon="0">
        <time>2021-02-28T08:26:09.440000+00:00</time>
      </trkpt>
      <trkpt lat="47.30886" lon="-1.40623">
        <ele>75</ele>
        <time>2021-02-28T08:26:10.396000+00:00</time>
      </trkpt>
      <trkpt lat="0" lon="0">
        <time>2021-02-28T08:26:10.404000+00:00</time>
      </trkpt>
      <trkpt lat="0" lon="0">
        <time>2021-02-28T08:26:10.409000+00:00</time>
      </trkpt>
      <trkpt lat="0" lon="0">
        <time>2021-02-28T08:26:10.411000+00:00</time>
      </trkpt>
      <trkpt lat="47.30888" lon="-1.40621">
        <ele>75</ele>
        <time>2021-02-28T08:26:11.380000+00:00</time>
      </trkpt>
      <trkpt lat="0" lon="0">
        <time>2021-02-28T08:26:11.387000+00:00</time>
      </trkpt>
      <trkpt lat="0" lon="0">
        <time>2021-02-28T08:26:11.392000+00:00</time>
      </trkpt>
      <trkpt lat="0" lon="0">
        <time>2021-02-28T08:26:11.394000+00:00</time>
      </trkpt>
      <trkpt lat="47.3089" lon="-1.40619">
        <ele>75</ele>
        <time>2021-02-28T08:26:12.402000+00:00</time>
      </trkpt>
      <trkpt lat="0" lon="0">
        <time>2021-02-28T08:26:12.410000+00:00</time>
      </trkpt>
      <trkpt lat="0" lon="0">
        <time>2021-02-28T08:26:12.415000+00:00</time>
      </trkpt>
      <trkpt lat="0" lon="0">
        <time>2021-02-28T08:26:12.417000+00:00</time>
      </trkpt>
      <trkpt lat="47.30892" lon="-1.40617">
        <ele>75</ele>
        <time>2021-02-28T08:26:13.379000+00:00</time>
      </trkpt>
      <trkpt lat="0" lon="0">
        <time>2021-02-28T08:26:13.387000+00:00</time>
      </trkpt>
      <trkpt lat="0" lon="0">
        <time>2021-02-28T08:26:13.394000+00:00</time>
      </trkpt>
      <trkpt lat="0" lon="0">
        <time>2021-02-28T08:26:13.397000+00:00</time>
      </trkpt>
      <trkpt lat="47.30894" lon="-1.40615">
        <ele>75</ele>
        <time>2021-02-28T08:26:14.403000+00:00</time>
      </trkpt>
      <trkpt lat="0" lon="0">
        <time>2021-02-28T08:26:14.408000+00:00</time>
      </trkpt>
      <trkpt lat="0" lon="0">
        <time>2021-02-28T08:26:14.413000+00:00</time>
      </trkpt>
      <trkpt lat="0" lon="0">
        <time>2021-02-28T08:26:14.416000+00:00</time>
      </trkpt>
      <trkpt lat="47.30895" lon="-1.40612">
        <ele>76</ele>
        <time>2021-02-28T08:26:15.375000+00:00</time>
      </trkpt>
      <trkpt lat="0" lon="0">
        <time>2021-02-28T08:26:15.384000+00:00</time>
      </trkpt>
      <trkpt lat="0" lon="0">
        <time>2021-02-28T08:26:15.390000+00:00</time>
      </trkpt>
      <trkpt lat="0" lon="0">
        <time>2021-02-28T08:26:15.393000+00:00</time>
      </trkpt>
      <trkpt lat="47.30897" lon="-1.4061">
        <ele>76</ele>
        <time>2021-02-28T08:26:16.401000+00:00</time>
      </trkpt>
      <trkpt lat="0" lon="0">
        <time>2021-02-28T08:26:16.412000+00:00</time>
      </trkpt>
      <trkpt lat="0" lon="0">
        <time>2021-02-28T08:26:16.418000+00:00</time>
      </trkpt>
      <trkpt lat="0" lon="0">
        <time>2021-02-28T08:26:16.421000+00:00</time>
      </trkpt>
      <trkpt lat="47.30898" lon="-1.40607">
        <ele>76</ele>
        <time>2021-02-28T08:26:17.392000+00:00</time>
      </trkpt>
      <trkpt lat="0" lon="0">
        <time>2021-02-28T08:26:17.406000+00:00</time>
      </trkpt>
      <trkpt lat="0" lon="0">
        <time>2021-02-28T08:26:17.413000+00:00</time>
      </trkpt>
      <trkpt lat="0" lon="0">
        <time>2021-02-28T08:26:17.416000+00:00</time>
      </trkpt>
      <trkpt lat="47.30899" lon="-1.40605">
        <ele>76</ele>
        <time>2021-02-28T08:26:18.351000+00:00</time>
      </trkpt>
      <trkpt lat="0" lon="0">
        <time>2021-02-28T08:26:18.362000+00:00</time>
      </trkpt>
      <trkpt lat="0" lon="0">
        <time>2021-02-28T08:26:18.368000+00:00</time>
      </trkpt>
      <trkpt lat="0" lon="0">
        <time>2021-02-28T08:26:18.372000+00:00</time>
      </trkpt>
      <trkpt lat="47.309" lon="-1.40603">
        <ele>76</ele>
        <time>2021-02-28T08:26:19.413000+00:00</time>
      </trkpt>
      <trkpt lat="0" lon="0">
        <time>2021-02-28T08:26:19.419000+00:00</time>
      </trkpt>
      <trkpt lat="0" lon="0">
        <time>2021-02-28T08:26:19.425000+00:00</time>
      </trkpt>
      <trkpt lat="0" lon="0">
        <time>2021-02-28T08:26:19.428000+00:00</time>
      </trkpt>
      <trkpt lat="47.30901" lon="-1.40601">
        <ele>76</ele>
        <time>2021-02-28T08:26:20.403000+00:00</time>
      </trkpt>
      <trkpt lat="0" lon="0">
        <time>2021-02-28T08:26:20.411000+00:00</time>
      </trkpt>
      <trkpt lat="0" lon="0">
        <time>2021-02-28T08:26:20.416000+00:00</time>
      </trkpt>
      <trkpt lat="0" lon="0">
        <time>2021-02-28T08:26:20.419000+00:00</time>
      </trkpt>
      <trkpt lat="47.30901" lon="-1.40598">
        <ele>77</ele>
        <time>2021-02-28T08:26:21.411000+00:00</time>
      </trkpt>
      <trkpt lat="0" lon="0">
        <time>2021-02-28T08:26:21.419000+00:00</time>
      </trkpt>
      <trkpt lat="0" lon="0">
        <time>2021-02-28T08:26:21.426000+00:00</time>
      </trkpt>
      <trkpt lat="0" lon="0">
        <time>2021-02-28T08:26:21.429000+00:00</time>
      </trkpt>
      <trkpt lat="47.30902" lon="-1.40596">
        <ele>77</ele>
        <time>2021-02-28T08:26:22.414000+00:00</time>
      </trkpt>
      <trkpt lat="0" lon="0">
        <time>2021-02-28T08:26:22.423000+00:00</time>
      </trkpt>
      <trkpt lat="0" lon="0">
        <time>2021-02-28T08:26:22.429000+00:00</time>
      </trkpt>
      <trkpt lat="0" lon="0">
        <time>2021-02-28T08:26:22.432000+00:00</time>
      </trkpt>
      <trkpt lat="47.30903" lon="-1.40594">
        <ele>78</ele>
        <time>2021-02-28T08:26:23.401000+00:00</time>
      </trkpt>
      <trkpt lat="0" lon="0">
        <time>2021-02-28T08:26:23.416000+00:00</time>
      </trkpt>
      <trkpt lat="0" lon="0">
        <time>2021-02-28T08:26:23.424000+00:00</time>
      </trkpt>
      <trkpt lat="0" lon="0">
        <time>2021-02-28T08:26:23.428000+00:00</time>
      </trkpt>
      <trkpt lat="47.30903" lon="-1.40593">
        <ele>78</ele>
        <time>2021-02-28T08:26:24.360000+00:00</time>
      </trkpt>
      <trkpt lat="0" lon="0">
        <time>2021-02-28T08:26:24.376000+00:00</time>
      </trkpt>
      <trkpt lat="0" lon="0">
        <time>2021-02-28T08:26:24.381000+00:00</time>
      </trkpt>
      <trkpt lat="0" lon="0">
        <time>2021-02-28T08:26:24.384000+00:00</time>
      </trkpt>
      <trkpt lat="47.30903" lon="-1.40591">
        <ele>79</ele>
        <time>2021-02-28T08:26:25.386000+00:00</time>
      </trkpt>
      <trkpt lat="0" lon="0">
        <time>2021-02-28T08:26:25.400000+00:00</time>
      </trkpt>
      <trkpt lat="0" lon="0">
        <time>2021-02-28T08:26:25.406000+00:00</time>
      </trkpt>
      <trkpt lat="0" lon="0">
        <time>2021-02-28T08:26:25.408000+00:00</time>
      </trkpt>
      <trkpt lat="47.30903" lon="-1.4059">
        <ele>79</ele>
        <time>2021-02-28T08:26:26.402000+00:00</time>
      </trkpt>
      <trkpt lat="0" lon="0">
        <time>2021-02-28T08:26:26.404000+00:00</time>
      </trkpt>
      <trkpt lat="0" lon="0">
        <time>2021-02-28T08:26:26.406000+00:00</time>
      </trkpt>
      <trkpt lat="0" lon="0">
        <time>2021-02-28T08:26:26.408000+00:00</time>
      </trkpt>
      <trkpt lat="47.30903" lon="-1.40588">
        <ele>79</ele>
        <time>2021-02-28T08:26:27.425000+00:00</time>
      </trkpt>
      <trkpt lat="0" lon="0">
        <time>2021-02-28T08:26:27.434000+00:00</time>
      </trkpt>
      <trkpt lat="0" lon="0">
        <time>2021-02-28T08:26:27.439000+00:00</time>
      </trkpt>
      <trkpt lat="0" lon="0">
        <time>2021-02-28T08:26:27.443000+00:00</time>
      </trkpt>
      <trkpt lat="47.30903" lon="-1.40587">
        <ele>80</ele>
        <time>2021-02-28T08:26:28.393000+00:00</time>
      </trkpt>
      <trkpt lat="0" lon="0">
        <time>2021-02-28T08:26:28.399000+00:00</time>
      </trkpt>
      <trkpt lat="0" lon="0">
        <time>2021-02-28T08:26:28.404000+00:00</time>
      </trkpt>
      <trkpt lat="0" lon="0">
        <time>2021-02-28T08:26:28.407000+00:00</time>
      </trkpt>
      <trkpt lat="47.30903" lon="-1.40586">
        <ele>80</ele>
        <time>2021-02-28T08:26:29.401000+00:00</time>
      </trkpt>
      <trkpt lat="0" lon="0">
        <time>2021-02-28T08:26:29.409000+00:00</time>
      </trkpt>
      <trkpt lat="0" lon="0">
        <time>2021-02-28T08:26:29.415000+00:00</time>
      </trkpt>
      <trkpt lat="0" lon="0">
        <time>2021-02-28T08:26:29.419000+00:00</time>
      </trkpt>
      <trkpt lat="47.30902" lon="-1.40585">
        <ele>80</ele>
        <time>2021-02-28T08:26:30.426000+00:00</time>
      </trkpt>
      <trkpt lat="0" lon="0">
        <time>2021-02-28T08:26:30.431000+00:00</time>
      </trkpt>
      <trkpt lat="0" lon="0">
        <time>2021-02-28T08:26:30.436000+00:00</time>
      </trkpt>
      <trkpt lat="0" lon="0">
        <time>2021-02-28T08:26:30.439000+00:00</time>
      </trkpt>
      <trkpt lat="47.30902" lon="-1.40584">
        <ele>81</ele>
        <time>2021-02-28T08:26:31.387000+00:00</time>
      </trkpt>
      <trkpt lat="0" lon="0">
        <time>2021-02-28T08:26:31.392000+00:00</time>
      </trkpt>
      <trkpt lat="0" lon="0">
        <time>2021-02-28T08:26:31.397000+00:00</time>
      </trkpt>
      <trkpt lat="0" lon="0">
        <time>2021-02-28T08:26:31.400000+00:00</time>
      </trkpt>
      <trkpt lat="47.30901" lon="-1.40583">
        <ele>82</ele>
        <time>2021-02-28T08:26:32.383000+00:00</time>
      </trkpt>
      <trkpt lat="0" lon="0">
        <time>2021-02-28T08:26:32.389000+00:00</time>
      </trkpt>
      <trkpt lat="0" lon="0">
        <time>2021-02-28T08:26:32.394000+00:00</time>
      </trkpt>
      <trkpt lat="0" lon="0">
        <time>2021-02-28T08:26:32.397000+00:00</time>
      </trkpt>
      <trkpt lat="47.309" lon="-1.40581">
        <ele>82</ele>
        <time>2021-02-28T08:26:33.397000+00:00</time>
      </trkpt>
      <trkpt lat="0" lon="0">
        <time>2021-02-28T08:26:33.404000+00:00</time>
      </trkpt>
      <trkpt lat="0" lon="0">
        <time>2021-02-28T08:26:33.410000+00:00</time>
      </trkpt>
      <trkpt lat="0" lon="0">
        <time>2021-02-28T08:26:33.413000+00:00</time>
      </trkpt>
      <trkpt lat="47.30899" lon="-1.4058">
        <ele>83</ele>
        <time>2021-02-28T08:26:34.408000+00:00</time>
      </trkpt>
      <trkpt lat="0" lon="0">
        <time>2021-02-28T08:26:34.414000+00:00</time>
      </trkpt>
      <trkpt lat="0" lon="0">
        <time>2021-02-28T08:26:34.419000+00:00</time>
      </trkpt>
      <trkpt lat="0" lon="0">
        <time>2021-02-28T08:26:34.421000+00:00</time>
      </trkpt>
      <trkpt lat="47.30899" lon="-1.40578">
        <ele>83</ele>
        <time>2021-02-28T08:26:35.391000+00:00</time>
      </trkpt>
      <trkpt lat="0" lon="0">
        <time>2021-02-28T08:26:35.399000+00:00</time>
      </trkpt>
      <trkpt lat="0" lon="0">
        <time>2021-02-28T08:26:35.407000+00:00</time>
      </trkpt>
      <trkpt lat="0" lon="0">
        <time>2021-02-28T08:26:35.411000+00:00</time>
      </trkpt>
      <trkpt lat="47.30898" lon="-1.40576">
        <ele>83</ele>
        <time>2021-02-28T08:26:36.436000+00:00</time>
      </trkpt>
      <trkpt lat="0" lon="0">
        <time>2021-02-28T08:26:36.457000+00:00</time>
      </trkpt>
      <trkpt lat="0" lon="0">
        <time>2021-02-28T08:26:36.464000+00:00</time>
      </trkpt>
      <trkpt lat="0" lon="0">
        <time>2021-02-28T08:26:36.467000+00:00</time>
      </trkpt>
      <trkpt lat="47.30897" lon="-1.40574">
        <ele>84</ele>
        <time>2021-02-28T08:26:37.414000+00:00</time>
      </trkpt>
      <trkpt lat="0" lon="0">
        <time>2021-02-28T08:26:37.422000+00:00</time>
      </trkpt>
      <trkpt lat="0" lon="0">
        <time>2021-02-28T08:26:37.428000+00:00</time>
      </trkpt>
      <trkpt lat="0" lon="0">
        <time>2021-02-28T08:26:37.432000+00:00</time>
      </trkpt>
      <trkpt lat="47.30896" lon="-1.40571">
        <ele>84</ele>
        <time>2021-02-28T08:26:38.396000+00:00</time>
      </trkpt>
      <trkpt lat="0" lon="0">
        <time>2021-02-28T08:26:38.402000+00:00</time>
      </trkpt>
      <trkpt lat="0" lon="0">
        <time>2021-02-28T08:26:38.408000+00:00</time>
      </trkpt>
      <trkpt lat="0" lon="0">
        <time>2021-02-28T08:26:38.412000+00:00</time>
      </trkpt>
      <trkpt lat="47.30895" lon="-1.40568">
        <ele>84</ele>
        <time>2021-02-28T08:26:39.434000+00:00</time>
      </trkpt>
      <trkpt lat="0" lon="0">
        <time>2021-02-28T08:26:39.448000+00:00</time>
      </trkpt>
      <trkpt lat="0" lon="0">
        <time>2021-02-28T08:26:39.458000+00:00</time>
      </trkpt>
      <trkpt lat="0" lon="0">
        <time>2021-02-28T08:26:39.461000+00:00</time>
      </trkpt>
      <trkpt lat="47.30895" lon="-1.40565">
        <ele>85</ele>
        <time>2021-02-28T08:26:40.408000+00:00</time>
      </trkpt>
      <trkpt lat="0" lon="0">
        <time>2021-02-28T08:26:40.413000+00:00</time>
      </trkpt>
      <trkpt lat="0" lon="0">
        <time>2021-02-28T08:26:40.423000+00:00</time>
      </trkpt>
      <trkpt lat="0" lon="0">
        <time>2021-02-28T08:26:40.426000+00:00</time>
      </trkpt>
      <trkpt lat="47.30894" lon="-1.40562">
        <ele>85</ele>
        <time>2021-02-28T08:26:41.416000+00:00</time>
      </trkpt>
      <trkpt lat="0" lon="0">
        <time>2021-02-28T08:26:41.423000+00:00</time>
      </trkpt>
      <trkpt lat="0" lon="0">
        <time>2021-02-28T08:26:41.429000+00:00</time>
      </trkpt>
      <trkpt lat="0" lon="0">
        <time>2021-02-28T08:26:41.432000+00:00</time>
      </trkpt>
      <trkpt lat="47.30893" lon="-1.40559">
        <ele>85</ele>
        <time>2021-02-28T08:26:42.405000+00:00</time>
      </trkpt>
      <trkpt lat="0" lon="0">
        <time>2021-02-28T08:26:42.410000+00:00</time>
      </trkpt>
      <trkpt lat="0" lon="0">
        <time>2021-02-28T08:26:42.416000+00:00</time>
      </trkpt>
      <trkpt lat="0" lon="0">
        <time>2021-02-28T08:26:42.419000+00:00</time>
      </trkpt>
      <trkpt lat="47.30893" lon="-1.40555">
        <ele>85</ele>
        <time>2021-02-28T08:26:43.397000+00:00</time>
      </trkpt>
      <trkpt lat="0" lon="0">
        <time>2021-02-28T08:26:43.409000+00:00</time>
      </trkpt>
      <trkpt lat="0" lon="0">
        <time>2021-02-28T08:26:43.418000+00:00</time>
      </trkpt>
      <trkpt lat="0" lon="0">
        <time>2021-02-28T08:26:43.426000+00:00</time>
      </trkpt>
      <trkpt lat="47.30892" lon="-1.40552">
        <ele>85</ele>
        <time>2021-02-28T08:26:44.387000+00:00</time>
      </trkpt>
      <trkpt lat="0" lon="0">
        <time>2021-02-28T08:26:44.395000+00:00</time>
      </trkpt>
      <trkpt lat="0" lon="0">
        <time>2021-02-28T08:26:44.400000+00:00</time>
      </trkpt>
      <trkpt lat="0" lon="0">
        <time>2021-02-28T08:26:44.403000+00:00</time>
      </trkpt>
      <trkpt lat="47.30891" lon="-1.40548">
        <ele>85</ele>
        <time>2021-02-28T08:26:45.391000+00:00</time>
      </trkpt>
      <trkpt lat="0" lon="0">
        <time>2021-02-28T08:26:45.396000+00:00</time>
      </trkpt>
      <trkpt lat="0" lon="0">
        <time>2021-02-28T08:26:45.400000+00:00</time>
      </trkpt>
      <trkpt lat="0" lon="0">
        <time>2021-02-28T08:26:45.402000+00:00</time>
      </trkpt>
      <trkpt lat="47.30891" lon="-1.40545">
        <ele>85</ele>
        <time>2021-02-28T08:26:46.392000+00:00</time>
      </trkpt>
      <trkpt lat="0" lon="0">
        <time>2021-02-28T08:26:46.418000+00:00</time>
      </trkpt>
      <trkpt lat="0" lon="0">
        <time>2021-02-28T08:26:46.423000+00:00</time>
      </trkpt>
      <trkpt lat="0" lon="0">
        <time>2021-02-28T08:26:46.427000+00:00</time>
      </trkpt>
      <trkpt lat="47.3089" lon="-1.40542">
        <ele>85</ele>
        <time>2021-02-28T08:26:47.373000+00:00</time>
      </trkpt>
      <trkpt lat="0" lon="0">
        <time>2021-02-28T08:26:47.380000+00:00</time>
      </trkpt>
      <trkpt lat="0" lon="0">
        <time>2021-02-28T08:26:47.385000+00:00</time>
      </trkpt>
      <trkpt lat="0" lon="0">
        <time>2021-02-28T08:26:47.388000+00:00</time>
      </trkpt>
      <trkpt lat="47.30889" lon="-1.40539">
        <ele>85</ele>
        <time>2021-02-28T08:26:48.392000+00:00</time>
      </trkpt>
      <trkpt lat="0" lon="0">
        <time>2021-02-28T08:26:48.401000+00:00</time>
      </trkpt>
      <trkpt lat="0" lon="0">
        <time>2021-02-28T08:26:48.406000+00:00</time>
      </trkpt>
      <trkpt lat="0" lon="0">
        <time>2021-02-28T08:26:48.409000+00:00</time>
      </trkpt>
      <trkpt lat="47.30889" lon="-1.40536">
        <ele>85</ele>
        <time>2021-02-28T08:26:49.342000+00:00</time>
      </trkpt>
      <trkpt lat="0" lon="0">
        <time>2021-02-28T08:26:49.350000+00:00</time>
      </trkpt>
      <trkpt lat="0" lon="0">
        <time>2021-02-28T08:26:49.355000+00:00</time>
      </trkpt>
      <trkpt lat="0" lon="0">
        <time>2021-02-28T08:26:49.358000+00:00</time>
      </trkpt>
      <trkpt lat="47.30889" lon="-1.40535">
        <ele>85</ele>
        <time>2021-02-28T08:26:50.369000+00:00</time>
      </trkpt>
      <trkpt lat="0" lon="0">
        <time>2021-02-28T08:26:50.374000+00:00</time>
      </trkpt>
      <trkpt lat="0" lon="0">
        <time>2021-02-28T08:26:50.379000+00:00</time>
      </trkpt>
      <trkpt lat="0" lon="0">
        <time>2021-02-28T08:26:50.382000+00:00</time>
      </trkpt>
      <trkpt lat="47.30889" lon="-1.40533">
        <ele>85</ele>
        <time>2021-02-28T08:26:51.382000+00:00</time>
      </trkpt>
      <trkpt lat="0" lon="0">
        <time>2021-02-28T08:26:51.388000+00:00</time>
      </trkpt>
      <trkpt lat="0" lon="0">
        <time>2021-02-28T08:26:51.394000+00:00</time>
      </trkpt>
      <trkpt lat="0" lon="0">
        <time>2021-02-28T08:26:51.398000+00:00</time>
      </trkpt>
      <trkpt lat="47.30888" lon="-1.40533">
        <ele>85</ele>
        <time>2021-02-28T08:26:52.414000+00:00</time>
      </trkpt>
      <trkpt lat="0" lon="0">
        <time>2021-02-28T08:26:52.419000+00:00</time>
      </trkpt>
      <trkpt lat="0" lon="0">
        <time>2021-02-28T08:26:52.424000+00:00</time>
      </trkpt>
      <trkpt lat="0" lon="0">
        <time>2021-02-28T08:26:52.426000+00:00</time>
      </trkpt>
      <trkpt lat="47.30888" lon="-1.40532">
        <ele>85</ele>
        <time>2021-02-28T08:26:53.391000+00:00</time>
      </trkpt>
      <trkpt lat="0" lon="0">
        <time>2021-02-28T08:26:53.395000+00:00</time>
      </trkpt>
      <trkpt lat="0" lon="0">
        <time>2021-02-28T08:26:53.404000+00:00</time>
      </trkpt>
      <trkpt lat="0" lon="0">
        <time>2021-02-28T08:26:53.407000+00:00</time>
      </trkpt>
      <trkpt lat="47.30888" lon="-1.4053">
        <ele>86</ele>
        <time>2021-02-28T08:26:54.397000+00:00</time>
      </trkpt>
      <trkpt lat="0" lon="0">
        <time>2021-02-28T08:26:54.403000+00:00</time>
      </trkpt>
      <trkpt lat="0" lon="0">
        <time>2021-02-28T08:26:54.409000+00:00</time>
      </trkpt>
      <trkpt lat="0" lon="0">
        <time>2021-02-28T08:26:54.411000+00:00</time>
      </trkpt>
      <trkpt lat="47.30887" lon="-1.40528">
        <ele>86</ele>
        <time>2021-02-28T08:26:55.405000+00:00</time>
      </trkpt>
      <trkpt lat="0" lon="0">
        <time>2021-02-28T08:26:55.420000+00:00</time>
      </trkpt>
      <trkpt lat="0" lon="0">
        <time>2021-02-28T08:26:55.428000+00:00</time>
      </trkpt>
      <trkpt lat="0" lon="0">
        <time>2021-02-28T08:26:55.433000+00:00</time>
      </trkpt>
      <trkpt lat="47.30886" lon="-1.40526">
        <ele>87</ele>
        <time>2021-02-28T08:26:56.397000+00:00</time>
      </trkpt>
      <trkpt lat="0" lon="0">
        <time>2021-02-28T08:26:56.408000+00:00</time>
      </trkpt>
      <trkpt lat="0" lon="0">
        <time>2021-02-28T08:26:56.414000+00:00</time>
      </trkpt>
      <trkpt lat="0" lon="0">
        <time>2021-02-28T08:26:56.417000+00:00</time>
      </trkpt>
      <trkpt lat="47.30886" lon="-1.40523">
        <ele>87</ele>
        <time>2021-02-28T08:26:57.337000+00:00</time>
      </trkpt>
      <trkpt lat="0" lon="0">
        <time>2021-02-28T08:26:57.347000+00:00</time>
      </trkpt>
      <trkpt lat="0" lon="0">
        <time>2021-02-28T08:26:57.351000+00:00</time>
      </trkpt>
      <trkpt lat="0" lon="0">
        <time>2021-02-28T08:26:57.354000+00:00</time>
      </trkpt>
      <trkpt lat="47.30886" lon="-1.4052">
        <ele>88</ele>
        <time>2021-02-28T08:26:58.343000+00:00</time>
      </trkpt>
      <trkpt lat="0" lon="0">
        <time>2021-02-28T08:26:58.346000+00:00</time>
      </trkpt>
      <trkpt lat="0" lon="0">
        <time>2021-02-28T08:26:58.350000+00:00</time>
      </trkpt>
      <trkpt lat="0" lon="0">
        <time>2021-02-28T08:26:58.352000+00:00</time>
      </trkpt>
      <trkpt lat="47.30885" lon="-1.40517">
        <ele>88</ele>
        <time>2021-02-28T08:26:59.297000+00:00</time>
      </trkpt>
      <trkpt lat="0" lon="0">
        <time>2021-02-28T08:26:59.305000+00:00</time>
      </trkpt>
      <trkpt lat="0" lon="0">
        <time>2021-02-28T08:26:59.307000+00:00</time>
      </trkpt>
      <trkpt lat="0" lon="0">
        <time>2021-02-28T08:26:59.308000+00:00</time>
      </trkpt>
      <trkpt lat="47.30885" lon="-1.40514">
        <ele>89</ele>
        <time>2021-02-28T08:27:00.414000+00:00</time>
      </trkpt>
      <trkpt lat="0" lon="0">
        <time>2021-02-28T08:27:00.426000+00:00</time>
      </trkpt>
      <trkpt lat="0" lon="0">
        <time>2021-02-28T08:27:00.430000+00:00</time>
      </trkpt>
      <trkpt lat="0" lon="0">
        <time>2021-02-28T08:27:00.433000+00:00</time>
      </trkpt>
      <trkpt lat="47.30885" lon="-1.40511">
        <ele>89</ele>
        <time>2021-02-28T08:27:01.384000+00:00</time>
      </trkpt>
      <trkpt lat="0" lon="0">
        <time>2021-02-28T08:27:01.393000+00:00</time>
      </trkpt>
      <trkpt lat="0" lon="0">
        <time>2021-02-28T08:27:01.398000+00:00</time>
      </trkpt>
      <trkpt lat="0" lon="0">
        <time>2021-02-28T08:27:01.401000+00:00</time>
      </trkpt>
      <trkpt lat="47.30885" lon="-1.40509">
        <ele>89</ele>
        <time>2021-02-28T08:27:02.395000+00:00</time>
      </trkpt>
      <trkpt lat="0" lon="0">
        <time>2021-02-28T08:27:02.405000+00:00</time>
      </trkpt>
      <trkpt lat="0" lon="0">
        <time>2021-02-28T08:27:02.411000+00:00</time>
      </trkpt>
      <trkpt lat="0" lon="0">
        <time>2021-02-28T08:27:02.415000+00:00</time>
      </trkpt>
      <trkpt lat="47.30885" lon="-1.40507">
        <ele>89</ele>
        <time>2021-02-28T08:27:03.401000+00:00</time>
      </trkpt>
      <trkpt lat="0" lon="0">
        <time>2021-02-28T08:27:03.415000+00:00</time>
      </trkpt>
      <trkpt lat="0" lon="0">
        <time>2021-02-28T08:27:03.420000+00:00</time>
      </trkpt>
      <trkpt lat="0" lon="0">
        <time>2021-02-28T08:27:03.424000+00:00</time>
      </trkpt>
      <trkpt lat="47.30885" lon="-1.40504">
        <ele>92</ele>
        <time>2021-02-28T08:27:04.366000+00:00</time>
      </trkpt>
      <trkpt lat="0" lon="0">
        <time>2021-02-28T08:27:04.374000+00:00</time>
      </trkpt>
      <trkpt lat="0" lon="0">
        <time>2021-02-28T08:27:04.380000+00:00</time>
      </trkpt>
      <trkpt lat="0" lon="0">
        <time>2021-02-28T08:27:04.383000+00:00</time>
      </trkpt>
      <trkpt lat="47.30885" lon="-1.40501">
        <ele>93</ele>
        <time>2021-02-28T08:27:05.374000+00:00</time>
      </trkpt>
      <trkpt lat="0" lon="0">
        <time>2021-02-28T08:27:05.388000+00:00</time>
      </trkpt>
      <trkpt lat="0" lon="0">
        <time>2021-02-28T08:27:05.398000+00:00</time>
      </trkpt>
      <trkpt lat="0" lon="0">
        <time>2021-02-28T08:27:05.405000+00:00</time>
      </trkpt>
      <trkpt lat="47.30885" lon="-1.40498">
        <ele>94</ele>
        <time>2021-02-28T08:27:06.435000+00:00</time>
      </trkpt>
      <trkpt lat="0" lon="0">
        <time>2021-02-28T08:27:06.445000+00:00</time>
      </trkpt>
      <trkpt lat="0" lon="0">
        <time>2021-02-28T08:27:06.450000+00:00</time>
      </trkpt>
      <trkpt lat="0" lon="0">
        <time>2021-02-28T08:27:06.454000+00:00</time>
      </trkpt>
      <trkpt lat="47.30884" lon="-1.40495">
        <ele>94</ele>
        <time>2021-02-28T08:27:07.421000+00:00</time>
      </trkpt>
      <trkpt lat="0" lon="0">
        <time>2021-02-28T08:27:07.435000+00:00</time>
      </trkpt>
      <trkpt lat="0" lon="0">
        <time>2021-02-28T08:27:07.441000+00:00</time>
      </trkpt>
      <trkpt lat="0" lon="0">
        <time>2021-02-28T08:27:07.444000+00:00</time>
      </trkpt>
      <trkpt lat="47.30884" lon="-1.40492">
        <ele>94</ele>
        <time>2021-02-28T08:27:08.372000+00:00</time>
      </trkpt>
      <trkpt lat="0" lon="0">
        <time>2021-02-28T08:27:08.384000+00:00</time>
      </trkpt>
      <trkpt lat="0" lon="0">
        <time>2021-02-28T08:27:08.389000+00:00</time>
      </trkpt>
      <trkpt lat="0" lon="0">
        <time>2021-02-28T08:27:08.391000+00:00</time>
      </trkpt>
      <trkpt lat="47.30884" lon="-1.40491">
        <ele>94</ele>
        <time>2021-02-28T08:27:09.412000+00:00</time>
      </trkpt>
      <trkpt lat="0" lon="0">
        <time>2021-02-28T08:27:09.426000+00:00</time>
      </trkpt>
      <trkpt lat="0" lon="0">
        <time>2021-02-28T08:27:09.429000+00:00</time>
      </trkpt>
      <trkpt lat="0" lon="0">
        <time>2021-02-28T08:27:09.431000+00:00</time>
      </trkpt>
      <trkpt lat="47.30884" lon="-1.40488">
        <ele>96</ele>
        <time>2021-02-28T08:27:10.403000+00:00</time>
      </trkpt>
      <trkpt lat="0" lon="0">
        <time>2021-02-28T08:27:10.405000+00:00</time>
      </trkpt>
      <trkpt lat="0" lon="0">
        <time>2021-02-28T08:27:10.408000+00:00</time>
      </trkpt>
      <trkpt lat="0" lon="0">
        <time>2021-02-28T08:27:10.409000+00:00</time>
      </trkpt>
      <trkpt lat="47.30884" lon="-1.40485">
        <ele>96</ele>
        <time>2021-02-28T08:27:11.389000+00:00</time>
      </trkpt>
      <trkpt lat="0" lon="0">
        <time>2021-02-28T08:27:11.397000+00:00</time>
      </trkpt>
      <trkpt lat="0" lon="0">
        <time>2021-02-28T08:27:11.403000+00:00</time>
      </trkpt>
      <trkpt lat="0" lon="0">
        <time>2021-02-28T08:27:11.406000+00:00</time>
      </trkpt>
      <trkpt lat="47.30883" lon="-1.40482">
        <ele>97</ele>
        <time>2021-02-28T08:27:12.343000+00:00</time>
      </trkpt>
      <trkpt lat="0" lon="0">
        <time>2021-02-28T08:27:12.353000+00:00</time>
      </trkpt>
      <trkpt lat="0" lon="0">
        <time>2021-02-28T08:27:12.358000+00:00</time>
      </trkpt>
      <trkpt lat="0" lon="0">
        <time>2021-02-28T08:27:12.360000+00:00</time>
      </trkpt>
      <trkpt lat="47.30883" lon="-1.4048">
        <ele>97</ele>
        <time>2021-02-28T08:27:13.367000+00:00</time>
      </trkpt>
      <trkpt lat="0" lon="0">
        <time>2021-02-28T08:27:13.381000+00:00</time>
      </trkpt>
      <trkpt lat="0" lon="0">
        <time>2021-02-28T08:27:13.390000+00:00</time>
      </trkpt>
      <trkpt lat="0" lon="0">
        <time>2021-02-28T08:27:13.393000+00:00</time>
      </trkpt>
      <trkpt lat="47.30883" lon="-1.40477">
        <ele>97</ele>
        <time>2021-02-28T08:27:14.374000+00:00</time>
      </trkpt>
      <trkpt lat="0" lon="0">
        <time>2021-02-28T08:27:14.382000+00:00</time>
      </trkpt>
      <trkpt lat="0" lon="0">
        <time>2021-02-28T08:27:14.388000+00:00</time>
      </trkpt>
      <trkpt lat="0" lon="0">
        <time>2021-02-28T08:27:14.390000+00:00</time>
      </trkpt>
      <trkpt lat="47.30883" lon="-1.40476">
        <ele>97</ele>
        <time>2021-02-28T08:27:15.379000+00:00</time>
      </trkpt>
      <trkpt lat="0" lon="0">
        <time>2021-02-28T08:27:15.389000+00:00</time>
      </trkpt>
      <trkpt lat="0" lon="0">
        <time>2021-02-28T08:27:15.395000+00:00</time>
      </trkpt>
      <trkpt lat="0" lon="0">
        <time>2021-02-28T08:27:15.398000+00:00</time>
      </trkpt>
      <trkpt lat="47.30883" lon="-1.40473">
        <ele>98</ele>
        <time>2021-02-28T08:27:16.353000+00:00</time>
      </trkpt>
      <trkpt lat="0" lon="0">
        <time>2021-02-28T08:27:16.363000+00:00</time>
      </trkpt>
      <trkpt lat="0" lon="0">
        <time>2021-02-28T08:27:16.368000+00:00</time>
      </trkpt>
      <trkpt lat="0" lon="0">
        <time>2021-02-28T08:27:16.370000+00:00</time>
      </trkpt>
      <trkpt lat="47.30882" lon="-1.4047">
        <ele>99</ele>
        <time>2021-02-28T08:27:17.394000+00:00</time>
      </trkpt>
      <trkpt lat="0" lon="0">
        <time>2021-02-28T08:27:17.411000+00:00</time>
      </trkpt>
      <trkpt lat="0" lon="0">
        <time>2021-02-28T08:27:17.417000+00:00</time>
      </trkpt>
      <trkpt lat="0" lon="0">
        <time>2021-02-28T08:27:17.420000+00:00</time>
      </trkpt>
      <trkpt lat="47.30882" lon="-1.40467">
        <ele>100</ele>
        <time>2021-02-28T08:27:18.421000+00:00</time>
      </trkpt>
      <trkpt lat="0" lon="0">
        <time>2021-02-28T08:27:18.434000+00:00</time>
      </trkpt>
      <trkpt lat="0" lon="0">
        <time>2021-02-28T08:27:18.442000+00:00</time>
      </trkpt>
      <trkpt lat="0" lon="0">
        <time>2021-02-28T08:27:18.448000+00:00</time>
      </trkpt>
      <trkpt lat="47.30881" lon="-1.40465">
        <ele>101</ele>
        <time>2021-02-28T08:27:19.412000+00:00</time>
      </trkpt>
      <trkpt lat="0" lon="0">
        <time>2021-02-28T08:27:19.423000+00:00</time>
      </trkpt>
      <trkpt lat="0" lon="0">
        <time>2021-02-28T08:27:19.429000+00:00</time>
      </trkpt>
      <trkpt lat="0" lon="0">
        <time>2021-02-28T08:27:19.432000+00:00</time>
      </trkpt>
      <trkpt lat="47.3088" lon="-1.40462">
        <ele>101</ele>
        <time>2021-02-28T08:27:20.403000+00:00</time>
      </trkpt>
      <trkpt lat="0" lon="0">
        <time>2021-02-28T08:27:20.411000+00:00</time>
      </trkpt>
      <trkpt lat="0" lon="0">
        <time>2021-02-28T08:27:20.417000+00:00</time>
      </trkpt>
      <trkpt lat="0" lon="0">
        <time>2021-02-28T08:27:20.420000+00:00</time>
      </trkpt>
      <trkpt lat="47.3088" lon="-1.40461">
        <ele>101</ele>
        <time>2021-02-28T08:27:21.375000+00:00</time>
      </trkpt>
      <trkpt lat="0" lon="0">
        <time>2021-02-28T08:27:21.383000+00:00</time>
      </trkpt>
      <trkpt lat="0" lon="0">
        <time>2021-02-28T08:27:21.391000+00:00</time>
      </trkpt>
      <trkpt lat="0" lon="0">
        <time>2021-02-28T08:27:21.394000+00:00</time>
      </trkpt>
      <trkpt lat="47.30879" lon="-1.40457">
        <ele>102</ele>
        <time>2021-02-28T08:27:22.371000+00:00</time>
      </trkpt>
      <trkpt lat="0" lon="0">
        <time>2021-02-28T08:27:22.376000+00:00</time>
      </trkpt>
      <trkpt lat="0" lon="0">
        <time>2021-02-28T08:27:22.378000+00:00</time>
      </trkpt>
      <trkpt lat="0" lon="0">
        <time>2021-02-28T08:27:22.379000+00:00</time>
      </trkpt>
      <trkpt lat="47.30879" lon="-1.40454">
        <ele>103</ele>
        <time>2021-02-28T08:27:23.375000+00:00</time>
      </trkpt>
      <trkpt lat="0" lon="0">
        <time>2021-02-28T08:27:23.380000+00:00</time>
      </trkpt>
      <trkpt lat="0" lon="0">
        <time>2021-02-28T08:27:23.386000+00:00</time>
      </trkpt>
      <trkpt lat="0" lon="0">
        <time>2021-02-28T08:27:23.390000+00:00</time>
      </trkpt>
      <trkpt lat="47.30878" lon="-1.40451">
        <ele>103</ele>
        <time>2021-02-28T08:27:24.387000+00:00</time>
      </trkpt>
      <trkpt lat="0" lon="0">
        <time>2021-02-28T08:27:24.393000+00:00</time>
      </trkpt>
      <trkpt lat="0" lon="0">
        <time>2021-02-28T08:27:24.399000+00:00</time>
      </trkpt>
      <trkpt lat="0" lon="0">
        <time>2021-02-28T08:27:24.401000+00:00</time>
      </trkpt>
      <trkpt lat="47.30878" lon="-1.40448">
        <ele>104</ele>
        <time>2021-02-28T08:27:25.399000+00:00</time>
      </trkpt>
      <trkpt lat="0" lon="0">
        <time>2021-02-28T08:27:25.412000+00:00</time>
      </trkpt>
      <trkpt lat="0" lon="0">
        <time>2021-02-28T08:27:25.418000+00:00</time>
      </trkpt>
      <trkpt lat="0" lon="0">
        <time>2021-02-28T08:27:25.421000+00:00</time>
      </trkpt>
      <trkpt lat="47.30877" lon="-1.40446">
        <ele>104</ele>
        <time>2021-02-28T08:27:26.368000+00:00</time>
      </trkpt>
      <trkpt lat="0" lon="0">
        <time>2021-02-28T08:27:26.383000+00:00</time>
      </trkpt>
      <trkpt lat="0" lon="0">
        <time>2021-02-28T08:27:26.389000+00:00</time>
      </trkpt>
      <trkpt lat="0" lon="0">
        <time>2021-02-28T08:27:26.392000+00:00</time>
      </trkpt>
      <trkpt lat="47.30877" lon="-1.40444">
        <ele>104</ele>
        <time>2021-02-28T08:27:27.426000+00:00</time>
      </trkpt>
      <trkpt lat="0" lon="0">
        <time>2021-02-28T08:27:27.436000+00:00</time>
      </trkpt>
      <trkpt lat="0" lon="0">
        <time>2021-02-28T08:27:27.442000+00:00</time>
      </trkpt>
      <trkpt lat="0" lon="0">
        <time>2021-02-28T08:27:27.445000+00:00</time>
      </trkpt>
      <trkpt lat="47.30877" lon="-1.40441">
        <ele>105</ele>
        <time>2021-02-28T08:27:28.363000+00:00</time>
      </trkpt>
      <trkpt lat="0" lon="0">
        <time>2021-02-28T08:27:28.374000+00:00</time>
      </trkpt>
      <trkpt lat="0" lon="0">
        <time>2021-02-28T08:27:28.379000+00:00</time>
      </trkpt>
      <trkpt lat="0" lon="0">
        <time>2021-02-28T08:27:28.383000+00:00</time>
      </trkpt>
      <trkpt lat="47.30876" lon="-1.40438">
        <ele>105</ele>
        <time>2021-02-28T08:27:29.361000+00:00</time>
      </trkpt>
      <trkpt lat="0" lon="0">
        <time>2021-02-28T08:27:29.363000+00:00</time>
      </trkpt>
      <trkpt lat="0" lon="0">
        <time>2021-02-28T08:27:29.366000+00:00</time>
      </trkpt>
      <trkpt lat="0" lon="0">
        <time>2021-02-28T08:27:29.368000+00:00</time>
      </trkpt>
      <trkpt lat="47.30876" lon="-1.40435">
        <ele>105</ele>
        <time>2021-02-28T08:27:30.310000+00:00</time>
      </trkpt>
      <trkpt lat="0" lon="0">
        <time>2021-02-28T08:27:30.316000+00:00</time>
      </trkpt>
      <trkpt lat="0" lon="0">
        <time>2021-02-28T08:27:30.319000+00:00</time>
      </trkpt>
      <trkpt lat="0" lon="0">
        <time>2021-02-28T08:27:30.321000+00:00</time>
      </trkpt>
      <trkpt lat="47.30876" lon="-1.40432">
        <ele>105</ele>
        <time>2021-02-28T08:27:31.390000+00:00</time>
      </trkpt>
      <trkpt lat="0" lon="0">
        <time>2021-02-28T08:27:31.398000+00:00</time>
      </trkpt>
      <trkpt lat="0" lon="0">
        <time>2021-02-28T08:27:31.404000+00:00</time>
      </trkpt>
      <trkpt lat="0" lon="0">
        <time>2021-02-28T08:27:31.408000+00:00</time>
      </trkpt>
      <trkpt lat="47.30875" lon="-1.4043">
        <ele>105</ele>
        <time>2021-02-28T08:27:32.369000+00:00</time>
      </trkpt>
      <trkpt lat="0" lon="0">
        <time>2021-02-28T08:27:32.379000+00:00</time>
      </trkpt>
      <trkpt lat="0" lon="0">
        <time>2021-02-28T08:27:32.384000+00:00</time>
      </trkpt>
      <trkpt lat="0" lon="0">
        <time>2021-02-28T08:27:32.387000+00:00</time>
      </trkpt>
      <trkpt lat="47.30875" lon="-1.40429">
        <ele>105</ele>
        <time>2021-02-28T08:27:33.398000+00:00</time>
      </trkpt>
      <trkpt lat="0" lon="0">
        <time>2021-02-28T08:27:33.405000+00:00</time>
      </trkpt>
      <trkpt lat="0" lon="0">
        <time>2021-02-28T08:27:33.412000+00:00</time>
      </trkpt>
      <trkpt lat="0" lon="0">
        <time>2021-02-28T08:27:33.415000+00:00</time>
      </trkpt>
      <trkpt lat="47.30875" lon="-1.40426">
        <ele>106</ele>
        <time>2021-02-28T08:27:34.404000+00:00</time>
      </trkpt>
      <trkpt lat="0" lon="0">
        <time>2021-02-28T08:27:34.408000+00:00</time>
      </trkpt>
      <trkpt lat="0" lon="0">
        <time>2021-02-28T08:27:34.412000+00:00</time>
      </trkpt>
      <trkpt lat="0" lon="0">
        <time>2021-02-28T08:27:34.415000+00:00</time>
      </trkpt>
      <trkpt lat="47.30875" lon="-1.40424">
        <ele>106</ele>
        <time>2021-02-28T08:27:35.290000+00:00</time>
      </trkpt>
      <trkpt lat="0" lon="0">
        <time>2021-02-28T08:27:35.299000+00:00</time>
      </trkpt>
      <trkpt lat="0" lon="0">
        <time>2021-02-28T08:27:35.307000+00:00</time>
      </trkpt>
      <trkpt lat="0" lon="0">
        <time>2021-02-28T08:27:35.309000+00:00</time>
      </trkpt>
      <trkpt lat="47.30874" lon="-1.40421">
        <ele>107</ele>
        <time>2021-02-28T08:27:36.291000+00:00</time>
      </trkpt>
      <trkpt lat="0" lon="0">
        <time>2021-02-28T08:27:36.292000+00:00</time>
      </trkpt>
      <trkpt lat="0" lon="0">
        <time>2021-02-28T08:27:36.294000+00:00</time>
      </trkpt>
      <trkpt lat="0" lon="0">
        <time>2021-02-28T08:27:36.295000+00:00</time>
      </trkpt>
      <trkpt lat="47.30874" lon="-1.40418">
        <ele>108</ele>
        <time>2021-02-28T08:27:37.310000+00:00</time>
      </trkpt>
      <trkpt lat="0" lon="0">
        <time>2021-02-28T08:27:37.319000+00:00</time>
      </trkpt>
      <trkpt lat="0" lon="0">
        <time>2021-02-28T08:27:37.322000+00:00</time>
      </trkpt>
      <trkpt lat="0" lon="0">
        <time>2021-02-28T08:27:37.324000+00:00</time>
      </trkpt>
      <trkpt lat="47.30874" lon="-1.40416">
        <ele>108</ele>
        <time>2021-02-28T08:27:38.262000+00:00</time>
      </trkpt>
      <trkpt lat="0" lon="0">
        <time>2021-02-28T08:27:38.268000+00:00</time>
      </trkpt>
      <trkpt lat="0" lon="0">
        <time>2021-02-28T08:27:38.273000+00:00</time>
      </trkpt>
      <trkpt lat="47.30873" lon="-1.40415">
        <ele>108</ele>
        <time>2021-02-28T08:27:39.242000+00:00</time>
      </trkpt>
      <trkpt lat="0" lon="0">
        <time>2021-02-28T08:27:39.244000+00:00</time>
      </trkpt>
      <trkpt lat="0" lon="0">
        <time>2021-02-28T08:27:39.246000+00:00</time>
      </trkpt>
      <trkpt lat="47.30873" lon="-1.40412">
        <ele>108</ele>
        <time>2021-02-28T08:27:40.240000+00:00</time>
      </trkpt>
      <trkpt lat="0" lon="0">
        <time>2021-02-28T08:27:40.244000+00:00</time>
      </trkpt>
      <trkpt lat="0" lon="0">
        <time>2021-02-28T08:27:40.245000+00:00</time>
      </trkpt>
      <trkpt lat="47.30872" lon="-1.4041">
        <ele>109</ele>
        <time>2021-02-28T08:27:41.250000+00:00</time>
      </trkpt>
      <trkpt lat="0" lon="0">
        <time>2021-02-28T08:27:41.252000+00:00</time>
      </trkpt>
      <trkpt lat="0" lon="0">
        <time>2021-02-28T08:27:41.254000+00:00</time>
      </trkpt>
      <trkpt lat="0" lon="0">
        <time>2021-02-28T08:27:41.255000+00:00</time>
      </trkpt>
      <trkpt lat="47.30872" lon="-1.40407">
        <ele>111</ele>
        <time>2021-02-28T08:27:42.251000+00:00</time>
      </trkpt>
      <trkpt lat="0" lon="0">
        <time>2021-02-28T08:27:42.256000+00:00</time>
      </trkpt>
      <trkpt lat="0" lon="0">
        <time>2021-02-28T08:27:42.258000+00:00</time>
      </trkpt>
      <trkpt lat="0" lon="0">
        <time>2021-02-28T08:27:42.260000+00:00</time>
      </trkpt>
      <trkpt lat="47.30871" lon="-1.40405">
        <ele>113</ele>
        <time>2021-02-28T08:27:43.238000+00:00</time>
      </trkpt>
      <trkpt lat="0" lon="0">
        <time>2021-02-28T08:27:43.242000+00:00</time>
      </trkpt>
      <trkpt lat="0" lon="0">
        <time>2021-02-28T08:27:43.247000+00:00</time>
      </trkpt>
      <trkpt lat="0" lon="0">
        <time>2021-02-28T08:27:43.249000+00:00</time>
      </trkpt>
      <trkpt lat="47.3087" lon="-1.40403">
        <ele>115</ele>
        <time>2021-02-28T08:27:44.255000+00:00</time>
      </trkpt>
      <trkpt lat="0" lon="0">
        <time>2021-02-28T08:27:44.258000+00:00</time>
      </trkpt>
      <trkpt lat="0" lon="0">
        <time>2021-02-28T08:27:44.263000+00:00</time>
      </trkpt>
      <trkpt lat="0" lon="0">
        <time>2021-02-28T08:27:44.264000+00:00</time>
      </trkpt>
      <trkpt lat="47.3087" lon="-1.40401">
        <ele>117</ele>
        <time>2021-02-28T08:27:45.281000+00:00</time>
      </trkpt>
      <trkpt lat="0" lon="0">
        <time>2021-02-28T08:27:45.288000+00:00</time>
      </trkpt>
      <trkpt lat="0" lon="0">
        <time>2021-02-28T08:27:45.290000+00:00</time>
      </trkpt>
      <trkpt lat="0" lon="0">
        <time>2021-02-28T08:27:45.291000+00:00</time>
      </trkpt>
      <trkpt lat="47.30869" lon="-1.40399">
        <ele>118</ele>
        <time>2021-02-28T08:27:46.376000+00:00</time>
      </trkpt>
      <trkpt lat="0" lon="0">
        <time>2021-02-28T08:27:46.382000+00:00</time>
      </trkpt>
      <trkpt lat="0" lon="0">
        <time>2021-02-28T08:27:46.387000+00:00</time>
      </trkpt>
      <trkpt lat="0" lon="0">
        <time>2021-02-28T08:27:46.390000+00:00</time>
      </trkpt>
      <trkpt lat="47.30868" lon="-1.40398">
        <ele>119</ele>
        <time>2021-02-28T08:27:47.413000+00:00</time>
      </trkpt>
      <trkpt lat="0" lon="0">
        <time>2021-02-28T08:27:47.418000+00:00</time>
      </trkpt>
      <trkpt lat="0" lon="0">
        <time>2021-02-28T08:27:47.422000+00:00</time>
      </trkpt>
      <trkpt lat="0" lon="0">
        <time>2021-02-28T08:27:47.425000+00:00</time>
      </trkpt>
      <trkpt lat="47.30867" lon="-1.40396">
        <ele>120</ele>
        <time>2021-02-28T08:27:48.364000+00:00</time>
      </trkpt>
      <trkpt lat="0" lon="0">
        <time>2021-02-28T08:27:48.372000+00:00</time>
      </trkpt>
      <trkpt lat="0" lon="0">
        <time>2021-02-28T08:27:48.377000+00:00</time>
      </trkpt>
      <trkpt lat="0" lon="0">
        <time>2021-02-28T08:27:48.382000+00:00</time>
      </trkpt>
      <trkpt lat="47.30866" lon="-1.40394">
        <ele>121</ele>
        <time>2021-02-28T08:27:49.401000+00:00</time>
      </trkpt>
      <trkpt lat="0" lon="0">
        <time>2021-02-28T08:27:49.410000+00:00</time>
      </trkpt>
      <trkpt lat="0" lon="0">
        <time>2021-02-28T08:27:49.415000+00:00</time>
      </trkpt>
      <trkpt lat="0" lon="0">
        <time>2021-02-28T08:27:49.417000+00:00</time>
      </trkpt>
      <trkpt lat="47.30865" lon="-1.40392">
        <ele>122</ele>
        <time>2021-02-28T08:27:50.404000+00:00</time>
      </trkpt>
      <trkpt lat="0" lon="0">
        <time>2021-02-28T08:27:50.408000+00:00</time>
      </trkpt>
      <trkpt lat="0" lon="0">
        <time>2021-02-28T08:27:50.426000+00:00</time>
      </trkpt>
      <trkpt lat="0" lon="0">
        <time>2021-02-28T08:27:50.428000+00:00</time>
      </trkpt>
      <trkpt lat="47.30864" lon="-1.4039">
        <ele>122</ele>
        <time>2021-02-28T08:27:51.411000+00:00</time>
      </trkpt>
      <trkpt lat="0" lon="0">
        <time>2021-02-28T08:27:51.420000+00:00</time>
      </trkpt>
      <trkpt lat="0" lon="0">
        <time>2021-02-28T08:27:51.428000+00:00</time>
      </trkpt>
      <trkpt lat="0" lon="0">
        <time>2021-02-28T08:27:51.431000+00:00</time>
      </trkpt>
      <trkpt lat="47.30863" lon="-1.40388">
        <ele>122</ele>
        <time>2021-02-28T08:27:52.383000+00:00</time>
      </trkpt>
      <trkpt lat="0" lon="0">
        <time>2021-02-28T08:27:52.395000+00:00</time>
      </trkpt>
      <trkpt lat="0" lon="0">
        <time>2021-02-28T08:27:52.401000+00:00</time>
      </trkpt>
      <trkpt lat="0" lon="0">
        <time>2021-02-28T08:27:52.403000+00:00</time>
      </trkpt>
      <trkpt lat="47.30862" lon="-1.40387">
        <ele>122</ele>
        <time>2021-02-28T08:27:53.327000+00:00</time>
      </trkpt>
      <trkpt lat="0" lon="0">
        <time>2021-02-28T08:27:53.338000+00:00</time>
      </trkpt>
      <trkpt lat="0" lon="0">
        <time>2021-02-28T08:27:53.344000+00:00</time>
      </trkpt>
      <trkpt lat="0" lon="0">
        <time>2021-02-28T08:27:53.349000+00:00</time>
      </trkpt>
      <trkpt lat="47.30862" lon="-1.40385">
        <ele>123</ele>
        <time>2021-02-28T08:27:54.400000+00:00</time>
      </trkpt>
      <trkpt lat="0" lon="0">
        <time>2021-02-28T08:27:54.415000+00:00</time>
      </trkpt>
      <trkpt lat="0" lon="0">
        <time>2021-02-28T08:27:54.419000+00:00</time>
      </trkpt>
      <trkpt lat="0" lon="0">
        <time>2021-02-28T08:27:54.425000+00:00</time>
      </trkpt>
      <trkpt lat="47.30861" lon="-1.40382">
        <ele>122</ele>
        <time>2021-02-28T08:27:55.394000+00:00</time>
      </trkpt>
      <trkpt lat="0" lon="0">
        <time>2021-02-28T08:27:55.400000+00:00</time>
      </trkpt>
      <trkpt lat="0" lon="0">
        <time>2021-02-28T08:27:55.409000+00:00</time>
      </trkpt>
      <trkpt lat="0" lon="0">
        <time>2021-02-28T08:27:55.411000+00:00</time>
      </trkpt>
      <trkpt lat="47.3086" lon="-1.40379">
        <ele>122</ele>
        <time>2021-02-28T08:27:56.352000+00:00</time>
      </trkpt>
      <trkpt lat="0" lon="0">
        <time>2021-02-28T08:27:56.360000+00:00</time>
      </trkpt>
      <trkpt lat="0" lon="0">
        <time>2021-02-28T08:27:56.365000+00:00</time>
      </trkpt>
      <trkpt lat="0" lon="0">
        <time>2021-02-28T08:27:56.370000+00:00</time>
      </trkpt>
      <trkpt lat="47.30859" lon="-1.40376">
        <ele>123</ele>
        <time>2021-02-28T08:27:57.366000+00:00</time>
      </trkpt>
      <trkpt lat="0" lon="0">
        <time>2021-02-28T08:27:57.370000+00:00</time>
      </trkpt>
      <trkpt lat="0" lon="0">
        <time>2021-02-28T08:27:57.376000+00:00</time>
      </trkpt>
      <trkpt lat="0" lon="0">
        <time>2021-02-28T08:27:57.378000+00:00</time>
      </trkpt>
      <trkpt lat="47.30858" lon="-1.40373">
        <ele>123</ele>
        <time>2021-02-28T08:27:58.361000+00:00</time>
      </trkpt>
      <trkpt lat="0" lon="0">
        <time>2021-02-28T08:27:58.368000+00:00</time>
      </trkpt>
      <trkpt lat="0" lon="0">
        <time>2021-02-28T08:27:58.373000+00:00</time>
      </trkpt>
      <trkpt lat="0" lon="0">
        <time>2021-02-28T08:27:58.375000+00:00</time>
      </trkpt>
      <trkpt lat="47.30857" lon="-1.4037">
        <ele>123</ele>
        <time>2021-02-28T08:27:59.368000+00:00</time>
      </trkpt>
      <trkpt lat="0" lon="0">
        <time>2021-02-28T08:27:59.373000+00:00</time>
      </trkpt>
      <trkpt lat="0" lon="0">
        <time>2021-02-28T08:27:59.379000+00:00</time>
      </trkpt>
      <trkpt lat="0" lon="0">
        <time>2021-02-28T08:27:59.382000+00:00</time>
      </trkpt>
      <trkpt lat="47.30857" lon="-1.40367">
        <ele>123</ele>
        <time>2021-02-28T08:28:00.403000+00:00</time>
      </trkpt>
      <trkpt lat="0" lon="0">
        <time>2021-02-28T08:28:00.414000+00:00</time>
      </trkpt>
      <trkpt lat="0" lon="0">
        <time>2021-02-28T08:28:00.422000+00:00</time>
      </trkpt>
      <trkpt lat="0" lon="0">
        <time>2021-02-28T08:28:00.424000+00:00</time>
      </trkpt>
      <trkpt lat="47.30856" lon="-1.40363">
        <ele>122</ele>
        <time>2021-02-28T08:28:01.441000+00:00</time>
      </trkpt>
      <trkpt lat="0" lon="0">
        <time>2021-02-28T08:28:01.456000+00:00</time>
      </trkpt>
      <trkpt lat="0" lon="0">
        <time>2021-02-28T08:28:01.463000+00:00</time>
      </trkpt>
      <trkpt lat="0" lon="0">
        <time>2021-02-28T08:28:01.465000+00:00</time>
      </trkpt>
      <trkpt lat="47.30855" lon="-1.4036">
        <ele>122</ele>
        <time>2021-02-28T08:28:02.414000+00:00</time>
      </trkpt>
      <trkpt lat="0" lon="0">
        <time>2021-02-28T08:28:02.424000+00:00</time>
      </trkpt>
      <trkpt lat="0" lon="0">
        <time>2021-02-28T08:28:02.428000+00:00</time>
      </trkpt>
      <trkpt lat="0" lon="0">
        <time>2021-02-28T08:28:02.431000+00:00</time>
      </trkpt>
      <trkpt lat="47.30855" lon="-1.40356">
        <ele>121</ele>
        <time>2021-02-28T08:28:03.430000+00:00</time>
      </trkpt>
      <trkpt lat="0" lon="0">
        <time>2021-02-28T08:28:03.436000+00:00</time>
      </trkpt>
      <trkpt lat="0" lon="0">
        <time>2021-02-28T08:28:03.441000+00:00</time>
      </trkpt>
      <trkpt lat="0" lon="0">
        <time>2021-02-28T08:28:03.444000+00:00</time>
      </trkpt>
      <trkpt lat="47.30854" lon="-1.40353">
        <ele>120</ele>
        <time>2021-02-28T08:28:04.383000+00:00</time>
      </trkpt>
      <trkpt lat="0" lon="0">
        <time>2021-02-28T08:28:04.391000+00:00</time>
      </trkpt>
      <trkpt lat="0" lon="0">
        <time>2021-02-28T08:28:04.396000+00:00</time>
      </trkpt>
      <trkpt lat="0" lon="0">
        <time>2021-02-28T08:28:04.399000+00:00</time>
      </trkpt>
      <trkpt lat="47.30854" lon="-1.40349">
        <ele>120</ele>
        <time>2021-02-28T08:28:05.262000+00:00</time>
      </trkpt>
      <trkpt lat="0" lon="0">
        <time>2021-02-28T08:28:05.265000+00:00</time>
      </trkpt>
      <trkpt lat="0" lon="0">
        <time>2021-02-28T08:28:05.272000+00:00</time>
      </trkpt>
      <trkpt lat="0" lon="0">
        <time>2021-02-28T08:28:05.274000+00:00</time>
      </trkpt>
      <trkpt lat="47.30853" lon="-1.40345">
        <ele>120</ele>
        <time>2021-02-28T08:28:06.387000+00:00</time>
      </trkpt>
      <trkpt lat="0" lon="0">
        <time>2021-02-28T08:28:06.394000+00:00</time>
      </trkpt>
      <trkpt lat="0" lon="0">
        <time>2021-02-28T08:28:06.399000+00:00</time>
      </trkpt>
      <trkpt lat="0" lon="0">
        <time>2021-02-28T08:28:06.400000+00:00</time>
      </trkpt>
      <trkpt lat="47.30853" lon="-1.40342">
        <ele>119</ele>
        <time>2021-02-28T08:28:07.402000+00:00</time>
      </trkpt>
      <trkpt lat="0" lon="0">
        <time>2021-02-28T08:28:07.408000+00:00</time>
      </trkpt>
      <trkpt lat="0" lon="0">
        <time>2021-02-28T08:28:07.413000+00:00</time>
      </trkpt>
      <trkpt lat="0" lon="0">
        <time>2021-02-28T08:28:07.417000+00:00</time>
      </trkpt>
      <trkpt lat="47.30852" lon="-1.40338">
        <ele>119</ele>
        <time>2021-02-28T08:28:08.424000+00:00</time>
      </trkpt>
      <trkpt lat="0" lon="0">
        <time>2021-02-28T08:28:08.427000+00:00</time>
      </trkpt>
      <trkpt lat="0" lon="0">
        <time>2021-02-28T08:28:08.430000+00:00</time>
      </trkpt>
      <trkpt lat="0" lon="0">
        <time>2021-02-28T08:28:08.431000+00:00</time>
      </trkpt>
      <trkpt lat="47.30852" lon="-1.40335">
        <ele>118</ele>
        <time>2021-02-28T08:28:09.437000+00:00</time>
      </trkpt>
      <trkpt lat="0" lon="0">
        <time>2021-02-28T08:28:09.447000+00:00</time>
      </trkpt>
      <trkpt lat="0" lon="0">
        <time>2021-02-28T08:28:09.453000+00:00</time>
      </trkpt>
      <trkpt lat="0" lon="0">
        <time>2021-02-28T08:28:09.457000+00:00</time>
      </trkpt>
      <trkpt lat="47.30851" lon="-1.40328">
        <ele>118</ele>
        <time>2021-02-28T08:28:11.421000+00:00</time>
      </trkpt>
      <trkpt lat="0" lon="0">
        <time>2021-02-28T08:28:11.428000+00:00</time>
      </trkpt>
      <trkpt lat="0" lon="0">
        <time>2021-02-28T08:28:11.434000+00:00</time>
      </trkpt>
      <trkpt lat="0" lon="0">
        <time>2021-02-28T08:28:11.436000+00:00</time>
      </trkpt>
      <trkpt lat="47.30851" lon="-1.40326">
        <ele>118</ele>
        <time>2021-02-28T08:28:12.400000+00:00</time>
      </trkpt>
      <trkpt lat="0" lon="0">
        <time>2021-02-28T08:28:12.418000+00:00</time>
      </trkpt>
      <trkpt lat="0" lon="0">
        <time>2021-02-28T08:28:12.424000+00:00</time>
      </trkpt>
      <trkpt lat="0" lon="0">
        <time>2021-02-28T08:28:12.431000+00:00</time>
      </trkpt>
      <trkpt lat="47.3085" lon="-1.40323">
        <ele>118</ele>
        <time>2021-02-28T08:28:13.433000+00:00</time>
      </trkpt>
      <trkpt lat="0" lon="0">
        <time>2021-02-28T08:28:13.443000+00:00</time>
      </trkpt>
      <trkpt lat="0" lon="0">
        <time>2021-02-28T08:28:13.456000+00:00</time>
      </trkpt>
      <trkpt lat="0" lon="0">
        <time>2021-02-28T08:28:13.460000+00:00</time>
      </trkpt>
      <trkpt lat="47.3085" lon="-1.4032">
        <ele>118</ele>
        <time>2021-02-28T08:28:14.388000+00:00</time>
      </trkpt>
      <trkpt lat="0" lon="0">
        <time>2021-02-28T08:28:14.402000+00:00</time>
      </trkpt>
      <trkpt lat="0" lon="0">
        <time>2021-02-28T08:28:14.408000+00:00</time>
      </trkpt>
      <trkpt lat="0" lon="0">
        <time>2021-02-28T08:28:14.411000+00:00</time>
      </trkpt>
      <trkpt lat="47.3085" lon="-1.40316">
        <ele>119</ele>
        <time>2021-02-28T08:28:15.352000+00:00</time>
      </trkpt>
      <trkpt lat="0" lon="0">
        <time>2021-02-28T08:28:15.358000+00:00</time>
      </trkpt>
      <trkpt lat="0" lon="0">
        <time>2021-02-28T08:28:15.365000+00:00</time>
      </trkpt>
      <trkpt lat="0" lon="0">
        <time>2021-02-28T08:28:15.367000+00:00</time>
      </trkpt>
      <trkpt lat="47.3085" lon="-1.40313">
        <ele>119</ele>
        <time>2021-02-28T08:28:16.402000+00:00</time>
      </trkpt>
      <trkpt lat="0" lon="0">
        <time>2021-02-28T08:28:16.417000+00:00</time>
      </trkpt>
      <trkpt lat="0" lon="0">
        <time>2021-02-28T08:28:16.424000+00:00</time>
      </trkpt>
      <trkpt lat="0" lon="0">
        <time>2021-02-28T08:28:16.427000+00:00</time>
      </trkpt>
      <trkpt lat="47.3085" lon="-1.4031">
        <ele>119</ele>
        <time>2021-02-28T08:28:17.395000+00:00</time>
      </trkpt>
      <trkpt lat="0" lon="0">
        <time>2021-02-28T08:28:17.403000+00:00</time>
      </trkpt>
      <trkpt lat="0" lon="0">
        <time>2021-02-28T08:28:17.410000+00:00</time>
      </trkpt>
      <trkpt lat="0" lon="0">
        <time>2021-02-28T08:28:17.414000+00:00</time>
      </trkpt>
      <trkpt lat="47.3085" lon="-1.40307">
        <ele>119</ele>
        <time>2021-02-28T08:28:18.360000+00:00</time>
      </trkpt>
      <trkpt lat="0" lon="0">
        <time>2021-02-28T08:28:18.368000+00:00</time>
      </trkpt>
      <trkpt lat="0" lon="0">
        <time>2021-02-28T08:28:18.373000+00:00</time>
      </trkpt>
      <trkpt lat="0" lon="0">
        <time>2021-02-28T08:28:18.376000+00:00</time>
      </trkpt>
      <trkpt lat="47.3085" lon="-1.40303">
        <ele>119</ele>
        <time>2021-02-28T08:28:19.360000+00:00</time>
      </trkpt>
      <trkpt lat="0" lon="0">
        <time>2021-02-28T08:28:19.365000+00:00</time>
      </trkpt>
      <trkpt lat="0" lon="0">
        <time>2021-02-28T08:28:19.376000+00:00</time>
      </trkpt>
      <trkpt lat="0" lon="0">
        <time>2021-02-28T08:28:19.378000+00:00</time>
      </trkpt>
      <trkpt lat="47.3085" lon="-1.403">
        <ele>120</ele>
        <time>2021-02-28T08:28:20.335000+00:00</time>
      </trkpt>
      <trkpt lat="0" lon="0">
        <time>2021-02-28T08:28:20.355000+00:00</time>
      </trkpt>
      <trkpt lat="0" lon="0">
        <time>2021-02-28T08:28:20.358000+00:00</time>
      </trkpt>
      <trkpt lat="0" lon="0">
        <time>2021-02-28T08:28:20.361000+00:00</time>
      </trkpt>
      <trkpt lat="47.3085" lon="-1.40297">
        <ele>120</ele>
        <time>2021-02-28T08:28:21.392000+00:00</time>
      </trkpt>
      <trkpt lat="0" lon="0">
        <time>2021-02-28T08:28:21.400000+00:00</time>
      </trkpt>
      <trkpt lat="0" lon="0">
        <time>2021-02-28T08:28:21.405000+00:00</time>
      </trkpt>
      <trkpt lat="0" lon="0">
        <time>2021-02-28T08:28:21.408000+00:00</time>
      </trkpt>
      <trkpt lat="47.3085" lon="-1.40293">
        <ele>120</ele>
        <time>2021-02-28T08:28:22.417000+00:00</time>
      </trkpt>
      <trkpt lat="0" lon="0">
        <time>2021-02-28T08:28:22.423000+00:00</time>
      </trkpt>
      <trkpt lat="0" lon="0">
        <time>2021-02-28T08:28:22.429000+00:00</time>
      </trkpt>
      <trkpt lat="0" lon="0">
        <time>2021-02-28T08:28:22.432000+00:00</time>
      </trkpt>
      <trkpt lat="47.3085" lon="-1.4029">
        <ele>120</ele>
        <time>2021-02-28T08:28:23.397000+00:00</time>
      </trkpt>
      <trkpt lat="0" lon="0">
        <time>2021-02-28T08:28:23.403000+00:00</time>
      </trkpt>
      <trkpt lat="0" lon="0">
        <time>2021-02-28T08:28:23.408000+00:00</time>
      </trkpt>
      <trkpt lat="0" lon="0">
        <time>2021-02-28T08:28:23.411000+00:00</time>
      </trkpt>
      <trkpt lat="47.30849" lon="-1.40286">
        <ele>120</ele>
        <time>2021-02-28T08:28:24.403000+00:00</time>
      </trkpt>
      <trkpt lat="0" lon="0">
        <time>2021-02-28T08:28:24.413000+00:00</time>
      </trkpt>
      <trkpt lat="0" lon="0">
        <time>2021-02-28T08:28:24.420000+00:00</time>
      </trkpt>
      <trkpt lat="0" lon="0">
        <time>2021-02-28T08:28:24.423000+00:00</time>
      </trkpt>
      <trkpt lat="47.30849" lon="-1.40282">
        <ele>120</ele>
        <time>2021-02-28T08:28:25.346000+00:00</time>
      </trkpt>
      <trkpt lat="0" lon="0">
        <time>2021-02-28T08:28:25.356000+00:00</time>
      </trkpt>
      <trkpt lat="0" lon="0">
        <time>2021-02-28T08:28:25.361000+00:00</time>
      </trkpt>
      <trkpt lat="0" lon="0">
        <time>2021-02-28T08:28:25.363000+00:00</time>
      </trkpt>
      <trkpt lat="47.30849" lon="-1.40278">
        <ele>120</ele>
        <time>2021-02-28T08:28:26.407000+00:00</time>
      </trkpt>
      <trkpt lat="0" lon="0">
        <time>2021-02-28T08:28:26.419000+00:00</time>
      </trkpt>
      <trkpt lat="0" lon="0">
        <time>2021-02-28T08:28:26.422000+00:00</time>
      </trkpt>
      <trkpt lat="0" lon="0">
        <time>2021-02-28T08:28:26.424000+00:00</time>
      </trkpt>
      <trkpt lat="47.30849" lon="-1.40274">
        <ele>120</ele>
        <time>2021-02-28T08:28:27.396000+00:00</time>
      </trkpt>
      <trkpt lat="0" lon="0">
        <time>2021-02-28T08:28:27.403000+00:00</time>
      </trkpt>
      <trkpt lat="0" lon="0">
        <time>2021-02-28T08:28:27.408000+00:00</time>
      </trkpt>
      <trkpt lat="0" lon="0">
        <time>2021-02-28T08:28:27.411000+00:00</time>
      </trkpt>
      <trkpt lat="47.30849" lon="-1.40269">
        <ele>120</ele>
        <time>2021-02-28T08:28:28.404000+00:00</time>
      </trkpt>
      <trkpt lat="0" lon="0">
        <time>2021-02-28T08:28:28.411000+00:00</time>
      </trkpt>
      <trkpt lat="0" lon="0">
        <time>2021-02-28T08:28:28.416000+00:00</time>
      </trkpt>
      <trkpt lat="0" lon="0">
        <time>2021-02-28T08:28:28.420000+00:00</time>
      </trkpt>
      <trkpt lat="47.30849" lon="-1.40265">
        <ele>120</ele>
        <time>2021-02-28T08:28:29.374000+00:00</time>
      </trkpt>
      <trkpt lat="0" lon="0">
        <time>2021-02-28T08:28:29.380000+00:00</time>
      </trkpt>
      <trkpt lat="0" lon="0">
        <time>2021-02-28T08:28:29.388000+00:00</time>
      </trkpt>
      <trkpt lat="0" lon="0">
        <time>2021-02-28T08:28:29.390000+00:00</time>
      </trkpt>
      <trkpt lat="47.30849" lon="-1.4026">
        <ele>120</ele>
        <time>2021-02-28T08:28:30.357000+00:00</time>
      </trkpt>
      <trkpt lat="0" lon="0">
        <time>2021-02-28T08:28:30.366000+00:00</time>
      </trkpt>
      <trkpt lat="0" lon="0">
        <time>2021-02-28T08:28:30.371000+00:00</time>
      </trkpt>
      <trkpt lat="0" lon="0">
        <time>2021-02-28T08:28:30.373000+00:00</time>
      </trkpt>
      <trkpt lat="47.3085" lon="-1.40256">
        <ele>120</ele>
        <time>2021-02-28T08:28:31.372000+00:00</time>
      </trkpt>
      <trkpt lat="0" lon="0">
        <time>2021-02-28T08:28:31.379000+00:00</time>
      </trkpt>
      <trkpt lat="0" lon="0">
        <time>2021-02-28T08:28:31.385000+00:00</time>
      </trkpt>
      <trkpt lat="0" lon="0">
        <time>2021-02-28T08:28:31.388000+00:00</time>
      </trkpt>
      <trkpt lat="47.3085" lon="-1.40251">
        <ele>120</ele>
        <time>2021-02-28T08:28:32.397000+00:00</time>
      </trkpt>
      <trkpt lat="0" lon="0">
        <time>2021-02-28T08:28:32.412000+00:00</time>
      </trkpt>
      <trkpt lat="0" lon="0">
        <time>2021-02-28T08:28:32.417000+00:00</time>
      </trkpt>
      <trkpt lat="0" lon="0">
        <time>2021-02-28T08:28:32.419000+00:00</time>
      </trkpt>
      <trkpt lat="47.3085" lon="-1.40247">
        <ele>120</ele>
        <time>2021-02-28T08:28:33.413000+00:00</time>
      </trkpt>
      <trkpt lat="0" lon="0">
        <time>2021-02-28T08:28:33.423000+00:00</time>
      </trkpt>
      <trkpt lat="0" lon="0">
        <time>2021-02-28T08:28:33.431000+00:00</time>
      </trkpt>
      <trkpt lat="0" lon="0">
        <time>2021-02-28T08:28:33.433000+00:00</time>
      </trkpt>
      <trkpt lat="47.30851" lon="-1.40243">
        <ele>119</ele>
        <time>2021-02-28T08:28:34.336000+00:00</time>
      </trkpt>
      <trkpt lat="0" lon="0">
        <time>2021-02-28T08:28:34.341000+00:00</time>
      </trkpt>
      <trkpt lat="0" lon="0">
        <time>2021-02-28T08:28:34.346000+00:00</time>
      </trkpt>
      <trkpt lat="0" lon="0">
        <time>2021-02-28T08:28:34.348000+00:00</time>
      </trkpt>
      <trkpt lat="47.30851" lon="-1.40239">
        <ele>120</ele>
        <time>2021-02-28T08:28:35.385000+00:00</time>
      </trkpt>
      <trkpt lat="0" lon="0">
        <time>2021-02-28T08:28:35.394000+00:00</time>
      </trkpt>
      <trkpt lat="0" lon="0">
        <time>2021-02-28T08:28:35.399000+00:00</time>
      </trkpt>
      <trkpt lat="0" lon="0">
        <time>2021-02-28T08:28:35.403000+00:00</time>
      </trkpt>
      <trkpt lat="47.30851" lon="-1.40235">
        <ele>120</ele>
        <time>2021-02-28T08:28:36.438000+00:00</time>
      </trkpt>
      <trkpt lat="0" lon="0">
        <time>2021-02-28T08:28:36.450000+00:00</time>
      </trkpt>
      <trkpt lat="0" lon="0">
        <time>2021-02-28T08:28:36.458000+00:00</time>
      </trkpt>
      <trkpt lat="0" lon="0">
        <time>2021-02-28T08:28:36.461000+00:00</time>
      </trkpt>
      <trkpt lat="47.30851" lon="-1.40231">
        <ele>119</ele>
        <time>2021-02-28T08:28:37.401000+00:00</time>
      </trkpt>
      <trkpt lat="0" lon="0">
        <time>2021-02-28T08:28:37.408000+00:00</time>
      </trkpt>
      <trkpt lat="0" lon="0">
        <time>2021-02-28T08:28:37.414000+00:00</time>
      </trkpt>
      <trkpt lat="0" lon="0">
        <time>2021-02-28T08:28:37.417000+00:00</time>
      </trkpt>
      <trkpt lat="47.30851" lon="-1.40227">
        <ele>119</ele>
        <time>2021-02-28T08:28:38.405000+00:00</time>
      </trkpt>
      <trkpt lat="0" lon="0">
        <time>2021-02-28T08:28:38.414000+00:00</time>
      </trkpt>
      <trkpt lat="0" lon="0">
        <time>2021-02-28T08:28:38.419000+00:00</time>
      </trkpt>
      <trkpt lat="0" lon="0">
        <time>2021-02-28T08:28:38.421000+00:00</time>
      </trkpt>
      <trkpt lat="47.30852" lon="-1.40223">
        <ele>118</ele>
        <time>2021-02-28T08:28:39.420000+00:00</time>
      </trkpt>
      <trkpt lat="0" lon="0">
        <time>2021-02-28T08:28:39.428000+00:00</time>
      </trkpt>
      <trkpt lat="0" lon="0">
        <time>2021-02-28T08:28:39.434000+00:00</time>
      </trkpt>
      <trkpt lat="0" lon="0">
        <time>2021-02-28T08:28:39.437000+00:00</time>
      </trkpt>
      <trkpt lat="47.30853" lon="-1.4022">
        <ele>117</ele>
        <time>2021-02-28T08:28:40.380000+00:00</time>
      </trkpt>
      <trkpt lat="0" lon="0">
        <time>2021-02-28T08:28:40.385000+00:00</time>
      </trkpt>
      <trkpt lat="0" lon="0">
        <time>2021-02-28T08:28:40.391000+00:00</time>
      </trkpt>
      <trkpt lat="0" lon="0">
        <time>2021-02-28T08:28:40.393000+00:00</time>
      </trkpt>
      <trkpt lat="47.30853" lon="-1.40217">
        <ele>117</ele>
        <time>2021-02-28T08:28:41.446000+00:00</time>
      </trkpt>
      <trkpt lat="0" lon="0">
        <time>2021-02-28T08:28:41.452000+00:00</time>
      </trkpt>
      <trkpt lat="0" lon="0">
        <time>2021-02-28T08:28:41.458000+00:00</time>
      </trkpt>
      <trkpt lat="0" lon="0">
        <time>2021-02-28T08:28:41.461000+00:00</time>
      </trkpt>
      <trkpt lat="47.30853" lon="-1.40214">
        <ele>117</ele>
        <time>2021-02-28T08:28:42.430000+00:00</time>
      </trkpt>
      <trkpt lat="0" lon="0">
        <time>2021-02-28T08:28:42.442000+00:00</time>
      </trkpt>
      <trkpt lat="0" lon="0">
        <time>2021-02-28T08:28:42.448000+00:00</time>
      </trkpt>
      <trkpt lat="0" lon="0">
        <time>2021-02-28T08:28:42.452000+00:00</time>
      </trkpt>
      <trkpt lat="47.30854" lon="-1.40211">
        <ele>117</ele>
        <time>2021-02-28T08:28:43.414000+00:00</time>
      </trkpt>
      <trkpt lat="0" lon="0">
        <time>2021-02-28T08:28:43.422000+00:00</time>
      </trkpt>
      <trkpt lat="0" lon="0">
        <time>2021-02-28T08:28:43.428000+00:00</time>
      </trkpt>
      <trkpt lat="0" lon="0">
        <time>2021-02-28T08:28:43.431000+00:00</time>
      </trkpt>
      <trkpt lat="47.30854" lon="-1.40209">
        <ele>117</ele>
        <time>2021-02-28T08:28:44.391000+00:00</time>
      </trkpt>
      <trkpt lat="0" lon="0">
        <time>2021-02-28T08:28:44.396000+00:00</time>
      </trkpt>
      <trkpt lat="0" lon="0">
        <time>2021-02-28T08:28:44.403000+00:00</time>
      </trkpt>
      <trkpt lat="0" lon="0">
        <time>2021-02-28T08:28:44.406000+00:00</time>
      </trkpt>
      <trkpt lat="47.30854" lon="-1.40206">
        <ele>117</ele>
        <time>2021-02-28T08:28:45.403000+00:00</time>
      </trkpt>
      <trkpt lat="0" lon="0">
        <time>2021-02-28T08:28:45.408000+00:00</time>
      </trkpt>
      <trkpt lat="0" lon="0">
        <time>2021-02-28T08:28:45.412000+00:00</time>
      </trkpt>
      <trkpt lat="0" lon="0">
        <time>2021-02-28T08:28:45.414000+00:00</time>
      </trkpt>
      <trkpt lat="47.30854" lon="-1.40203">
        <ele>118</ele>
        <time>2021-02-28T08:28:46.387000+00:00</time>
      </trkpt>
      <trkpt lat="0" lon="0">
        <time>2021-02-28T08:28:46.389000+00:00</time>
      </trkpt>
      <trkpt lat="0" lon="0">
        <time>2021-02-28T08:28:46.393000+00:00</time>
      </trkpt>
      <trkpt lat="0" lon="0">
        <time>2021-02-28T08:28:46.394000+00:00</time>
      </trkpt>
      <trkpt lat="47.30854" lon="-1.40201">
        <ele>117</ele>
        <time>2021-02-28T08:28:47.413000+00:00</time>
      </trkpt>
      <trkpt lat="0" lon="0">
        <time>2021-02-28T08:28:47.426000+00:00</time>
      </trkpt>
      <trkpt lat="0" lon="0">
        <time>2021-02-28T08:28:47.433000+00:00</time>
      </trkpt>
      <trkpt lat="0" lon="0">
        <time>2021-02-28T08:28:47.436000+00:00</time>
      </trkpt>
      <trkpt lat="47.30853" lon="-1.40198">
        <ele>118</ele>
        <time>2021-02-28T08:28:48.413000+00:00</time>
      </trkpt>
      <trkpt lat="0" lon="0">
        <time>2021-02-28T08:28:48.423000+00:00</time>
      </trkpt>
      <trkpt lat="0" lon="0">
        <time>2021-02-28T08:28:48.428000+00:00</time>
      </trkpt>
      <trkpt lat="0" lon="0">
        <time>2021-02-28T08:28:48.431000+00:00</time>
      </trkpt>
      <trkpt lat="47.30853" lon="-1.40195">
        <ele>118</ele>
        <time>2021-02-28T08:28:49.370000+00:00</time>
      </trkpt>
      <trkpt lat="0" lon="0">
        <time>2021-02-28T08:28:49.379000+00:00</time>
      </trkpt>
      <trkpt lat="0" lon="0">
        <time>2021-02-28T08:28:49.385000+00:00</time>
      </trkpt>
      <trkpt lat="0" lon="0">
        <time>2021-02-28T08:28:49.388000+00:00</time>
      </trkpt>
      <trkpt lat="47.30853" lon="-1.40191">
        <ele>118</ele>
        <time>2021-02-28T08:28:50.371000+00:00</time>
      </trkpt>
      <trkpt lat="0" lon="0">
        <time>2021-02-28T08:28:50.374000+00:00</time>
      </trkpt>
      <trkpt lat="0" lon="0">
        <time>2021-02-28T08:28:50.376000+00:00</time>
      </trkpt>
      <trkpt lat="0" lon="0">
        <time>2021-02-28T08:28:50.378000+00:00</time>
      </trkpt>
      <trkpt lat="47.30853" lon="-1.40188">
        <ele>118</ele>
        <time>2021-02-28T08:28:51.388000+00:00</time>
      </trkpt>
      <trkpt lat="0" lon="0">
        <time>2021-02-28T08:28:51.396000+00:00</time>
      </trkpt>
      <trkpt lat="0" lon="0">
        <time>2021-02-28T08:28:51.404000+00:00</time>
      </trkpt>
      <trkpt lat="0" lon="0">
        <time>2021-02-28T08:28:51.410000+00:00</time>
      </trkpt>
      <trkpt lat="47.30853" lon="-1.40185">
        <ele>118</ele>
        <time>2021-02-28T08:28:52.442000+00:00</time>
      </trkpt>
      <trkpt lat="0" lon="0">
        <time>2021-02-28T08:28:52.451000+00:00</time>
      </trkpt>
      <trkpt lat="0" lon="0">
        <time>2021-02-28T08:28:52.456000+00:00</time>
      </trkpt>
      <trkpt lat="0" lon="0">
        <time>2021-02-28T08:28:52.459000+00:00</time>
      </trkpt>
      <trkpt lat="47.30853" lon="-1.40181">
        <ele>118</ele>
        <time>2021-02-28T08:28:53.422000+00:00</time>
      </trkpt>
      <trkpt lat="0" lon="0">
        <time>2021-02-28T08:28:53.430000+00:00</time>
      </trkpt>
      <trkpt lat="0" lon="0">
        <time>2021-02-28T08:28:53.437000+00:00</time>
      </trkpt>
      <trkpt lat="0" lon="0">
        <time>2021-02-28T08:28:53.440000+00:00</time>
      </trkpt>
      <trkpt lat="47.30853" lon="-1.40176">
        <ele>118</ele>
        <time>2021-02-28T08:28:54.395000+00:00</time>
      </trkpt>
      <trkpt lat="0" lon="0">
        <time>2021-02-28T08:28:54.401000+00:00</time>
      </trkpt>
      <trkpt lat="0" lon="0">
        <time>2021-02-28T08:28:54.407000+00:00</time>
      </trkpt>
      <trkpt lat="0" lon="0">
        <time>2021-02-28T08:28:54.411000+00:00</time>
      </trkpt>
      <trkpt lat="47.30853" lon="-1.40172">
        <ele>118</ele>
        <time>2021-02-28T08:28:55.451000+00:00</time>
      </trkpt>
      <trkpt lat="0" lon="0">
        <time>2021-02-28T08:28:55.457000+00:00</time>
      </trkpt>
      <trkpt lat="0" lon="0">
        <time>2021-02-28T08:28:55.459000+00:00</time>
      </trkpt>
      <trkpt lat="0" lon="0">
        <time>2021-02-28T08:28:55.461000+00:00</time>
      </trkpt>
      <trkpt lat="47.30853" lon="-1.40168">
        <ele>118</ele>
        <time>2021-02-28T08:28:56.397000+00:00</time>
      </trkpt>
      <trkpt lat="0" lon="0">
        <time>2021-02-28T08:28:56.399000+00:00</time>
      </trkpt>
      <trkpt lat="0" lon="0">
        <time>2021-02-28T08:28:56.402000+00:00</time>
      </trkpt>
      <trkpt lat="0" lon="0">
        <time>2021-02-28T08:28:56.403000+00:00</time>
      </trkpt>
      <trkpt lat="47.30853" lon="-1.40163">
        <ele>118</ele>
        <time>2021-02-28T08:28:57.337000+00:00</time>
      </trkpt>
      <trkpt lat="0" lon="0">
        <time>2021-02-28T08:28:57.344000+00:00</time>
      </trkpt>
      <trkpt lat="0" lon="0">
        <time>2021-02-28T08:28:57.350000+00:00</time>
      </trkpt>
      <trkpt lat="0" lon="0">
        <time>2021-02-28T08:28:57.352000+00:00</time>
      </trkpt>
      <trkpt lat="47.30853" lon="-1.40159">
        <ele>119</ele>
        <time>2021-02-28T08:28:58.406000+00:00</time>
      </trkpt>
      <trkpt lat="0" lon="0">
        <time>2021-02-28T08:28:58.412000+00:00</time>
      </trkpt>
      <trkpt lat="0" lon="0">
        <time>2021-02-28T08:28:58.420000+00:00</time>
      </trkpt>
      <trkpt lat="0" lon="0">
        <time>2021-02-28T08:28:58.422000+00:00</time>
      </trkpt>
      <trkpt lat="47.30853" lon="-1.40154">
        <ele>119</ele>
        <time>2021-02-28T08:28:59.415000+00:00</time>
      </trkpt>
      <trkpt lat="0" lon="0">
        <time>2021-02-28T08:28:59.421000+00:00</time>
      </trkpt>
      <trkpt lat="0" lon="0">
        <time>2021-02-28T08:28:59.427000+00:00</time>
      </trkpt>
      <trkpt lat="0" lon="0">
        <time>2021-02-28T08:28:59.431000+00:00</time>
      </trkpt>
      <trkpt lat="47.30853" lon="-1.4015">
        <ele>119</ele>
        <time>2021-02-28T08:29:00.430000+00:00</time>
      </trkpt>
      <trkpt lat="0" lon="0">
        <time>2021-02-28T08:29:00.438000+00:00</time>
      </trkpt>
      <trkpt lat="0" lon="0">
        <time>2021-02-28T08:29:00.448000+00:00</time>
      </trkpt>
      <trkpt lat="0" lon="0">
        <time>2021-02-28T08:29:00.451000+00:00</time>
      </trkpt>
      <trkpt lat="47.30853" lon="-1.40145">
        <ele>119</ele>
        <time>2021-02-28T08:29:01.411000+00:00</time>
      </trkpt>
      <trkpt lat="0" lon="0">
        <time>2021-02-28T08:29:01.420000+00:00</time>
      </trkpt>
      <trkpt lat="0" lon="0">
        <time>2021-02-28T08:29:01.424000+00:00</time>
      </trkpt>
      <trkpt lat="0" lon="0">
        <time>2021-02-28T08:29:01.427000+00:00</time>
      </trkpt>
      <trkpt lat="47.30853" lon="-1.40141">
        <ele>119</ele>
        <time>2021-02-28T08:29:02.405000+00:00</time>
      </trkpt>
      <trkpt lat="0" lon="0">
        <time>2021-02-28T08:29:02.412000+00:00</time>
      </trkpt>
      <trkpt lat="0" lon="0">
        <time>2021-02-28T08:29:02.416000+00:00</time>
      </trkpt>
      <trkpt lat="0" lon="0">
        <time>2021-02-28T08:29:02.418000+00:00</time>
      </trkpt>
      <trkpt lat="47.30854" lon="-1.40136">
        <ele>120</ele>
        <time>2021-02-28T08:29:03.424000+00:00</time>
      </trkpt>
      <trkpt lat="0" lon="0">
        <time>2021-02-28T08:29:03.430000+00:00</time>
      </trkpt>
      <trkpt lat="0" lon="0">
        <time>2021-02-28T08:29:03.435000+00:00</time>
      </trkpt>
      <trkpt lat="0" lon="0">
        <time>2021-02-28T08:29:03.439000+00:00</time>
      </trkpt>
      <trkpt lat="47.30854" lon="-1.40132">
        <ele>120</ele>
        <time>2021-02-28T08:29:04.442000+00:00</time>
      </trkpt>
      <trkpt lat="0" lon="0">
        <time>2021-02-28T08:29:04.449000+00:00</time>
      </trkpt>
      <trkpt lat="0" lon="0">
        <time>2021-02-28T08:29:04.455000+00:00</time>
      </trkpt>
      <trkpt lat="0" lon="0">
        <time>2021-02-28T08:29:04.458000+00:00</time>
      </trkpt>
      <trkpt lat="47.30854" lon="-1.40127">
        <ele>121</ele>
        <time>2021-02-28T08:29:05.395000+00:00</time>
      </trkpt>
      <trkpt lat="0" lon="0">
        <time>2021-02-28T08:29:05.408000+00:00</time>
      </trkpt>
      <trkpt lat="0" lon="0">
        <time>2021-02-28T08:29:05.413000+00:00</time>
      </trkpt>
      <trkpt lat="0" lon="0">
        <time>2021-02-28T08:29:05.416000+00:00</time>
      </trkpt>
      <trkpt lat="47.30854" lon="-1.40122">
        <ele>121</ele>
        <time>2021-02-28T08:29:06.387000+00:00</time>
      </trkpt>
      <trkpt lat="0" lon="0">
        <time>2021-02-28T08:29:06.398000+00:00</time>
      </trkpt>
      <trkpt lat="0" lon="0">
        <time>2021-02-28T08:29:06.404000+00:00</time>
      </trkpt>
      <trkpt lat="0" lon="0">
        <time>2021-02-28T08:29:06.408000+00:00</time>
      </trkpt>
      <trkpt lat="47.30854" lon="-1.40118">
        <ele>121</ele>
        <time>2021-02-28T08:29:07.381000+00:00</time>
      </trkpt>
      <trkpt lat="0" lon="0">
        <time>2021-02-28T08:29:07.387000+00:00</time>
      </trkpt>
      <trkpt lat="0" lon="0">
        <time>2021-02-28T08:29:07.392000+00:00</time>
      </trkpt>
      <trkpt lat="0" lon="0">
        <time>2021-02-28T08:29:07.394000+00:00</time>
      </trkpt>
      <trkpt lat="47.30855" lon="-1.40113">
        <ele>121</ele>
        <time>2021-02-28T08:29:08.388000+00:00</time>
      </trkpt>
      <trkpt lat="0" lon="0">
        <time>2021-02-28T08:29:08.399000+00:00</time>
      </trkpt>
      <trkpt lat="0" lon="0">
        <time>2021-02-28T08:29:08.403000+00:00</time>
      </trkpt>
      <trkpt lat="0" lon="0">
        <time>2021-02-28T08:29:08.406000+00:00</time>
      </trkpt>
      <trkpt lat="47.30855" lon="-1.40109">
        <ele>121</ele>
        <time>2021-02-28T08:29:09.468000+00:00</time>
      </trkpt>
      <trkpt lat="0" lon="0">
        <time>2021-02-28T08:29:09.481000+00:00</time>
      </trkpt>
      <trkpt lat="0" lon="0">
        <time>2021-02-28T08:29:09.487000+00:00</time>
      </trkpt>
      <trkpt lat="0" lon="0">
        <time>2021-02-28T08:29:09.491000+00:00</time>
      </trkpt>
      <trkpt lat="47.30855" lon="-1.40105">
        <ele>121</ele>
        <time>2021-02-28T08:29:10.418000+00:00</time>
      </trkpt>
      <trkpt lat="0" lon="0">
        <time>2021-02-28T08:29:10.428000+00:00</time>
      </trkpt>
      <trkpt lat="0" lon="0">
        <time>2021-02-28T08:29:10.433000+00:00</time>
      </trkpt>
      <trkpt lat="0" lon="0">
        <time>2021-02-28T08:29:10.436000+00:00</time>
      </trkpt>
      <trkpt lat="47.30856" lon="-1.40101">
        <ele>121</ele>
        <time>2021-02-28T08:29:11.407000+00:00</time>
      </trkpt>
      <trkpt lat="0" lon="0">
        <time>2021-02-28T08:29:11.416000+00:00</time>
      </trkpt>
      <trkpt lat="0" lon="0">
        <time>2021-02-28T08:29:11.422000+00:00</time>
      </trkpt>
      <trkpt lat="0" lon="0">
        <time>2021-02-28T08:29:11.426000+00:00</time>
      </trkpt>
      <trkpt lat="47.30856" lon="-1.40096">
        <ele>121</ele>
        <time>2021-02-28T08:29:12.368000+00:00</time>
      </trkpt>
      <trkpt lat="0" lon="0">
        <time>2021-02-28T08:29:12.383000+00:00</time>
      </trkpt>
      <trkpt lat="0" lon="0">
        <time>2021-02-28T08:29:12.389000+00:00</time>
      </trkpt>
      <trkpt lat="0" lon="0">
        <time>2021-02-28T08:29:12.391000+00:00</time>
      </trkpt>
      <trkpt lat="47.30856" lon="-1.40092">
        <ele>122</ele>
        <time>2021-02-28T08:29:13.340000+00:00</time>
      </trkpt>
      <trkpt lat="0" lon="0">
        <time>2021-02-28T08:29:13.350000+00:00</time>
      </trkpt>
      <trkpt lat="0" lon="0">
        <time>2021-02-28T08:29:13.355000+00:00</time>
      </trkpt>
      <trkpt lat="0" lon="0">
        <time>2021-02-28T08:29:13.360000+00:00</time>
      </trkpt>
      <trkpt lat="47.30857" lon="-1.40088">
        <ele>122</ele>
        <time>2021-02-28T08:29:14.367000+00:00</time>
      </trkpt>
      <trkpt lat="0" lon="0">
        <time>2021-02-28T08:29:14.373000+00:00</time>
      </trkpt>
      <trkpt lat="0" lon="0">
        <time>2021-02-28T08:29:14.382000+00:00</time>
      </trkpt>
      <trkpt lat="0" lon="0">
        <time>2021-02-28T08:29:14.385000+00:00</time>
      </trkpt>
      <trkpt lat="47.30857" lon="-1.40085">
        <ele>123</ele>
        <time>2021-02-28T08:29:15.393000+00:00</time>
      </trkpt>
      <trkpt lat="0" lon="0">
        <time>2021-02-28T08:29:15.404000+00:00</time>
      </trkpt>
      <trkpt lat="0" lon="0">
        <time>2021-02-28T08:29:15.413000+00:00</time>
      </trkpt>
      <trkpt lat="0" lon="0">
        <time>2021-02-28T08:29:15.420000+00:00</time>
      </trkpt>
      <trkpt lat="47.30857" lon="-1.40081">
        <ele>123</ele>
        <time>2021-02-28T08:29:16.392000+00:00</time>
      </trkpt>
      <trkpt lat="0" lon="0">
        <time>2021-02-28T08:29:16.404000+00:00</time>
      </trkpt>
      <trkpt lat="0" lon="0">
        <time>2021-02-28T08:29:16.413000+00:00</time>
      </trkpt>
      <trkpt lat="0" lon="0">
        <time>2021-02-28T08:29:16.416000+00:00</time>
      </trkpt>
      <trkpt lat="47.30858" lon="-1.40077">
        <ele>123</ele>
        <time>2021-02-28T08:29:17.396000+00:00</time>
      </trkpt>
      <trkpt lat="0" lon="0">
        <time>2021-02-28T08:29:17.407000+00:00</time>
      </trkpt>
      <trkpt lat="0" lon="0">
        <time>2021-02-28T08:29:17.414000+00:00</time>
      </trkpt>
      <trkpt lat="0" lon="0">
        <time>2021-02-28T08:29:17.418000+00:00</time>
      </trkpt>
      <trkpt lat="47.30858" lon="-1.40073">
        <ele>123</ele>
        <time>2021-02-28T08:29:18.379000+00:00</time>
      </trkpt>
      <trkpt lat="0" lon="0">
        <time>2021-02-28T08:29:18.384000+00:00</time>
      </trkpt>
      <trkpt lat="0" lon="0">
        <time>2021-02-28T08:29:18.389000+00:00</time>
      </trkpt>
      <trkpt lat="0" lon="0">
        <time>2021-02-28T08:29:18.391000+00:00</time>
      </trkpt>
      <trkpt lat="47.30859" lon="-1.40069">
        <ele>123</ele>
        <time>2021-02-28T08:29:19.420000+00:00</time>
      </trkpt>
      <trkpt lat="0" lon="0">
        <time>2021-02-28T08:29:19.430000+00:00</time>
      </trkpt>
      <trkpt lat="0" lon="0">
        <time>2021-02-28T08:29:19.436000+00:00</time>
      </trkpt>
      <trkpt lat="0" lon="0">
        <time>2021-02-28T08:29:19.439000+00:00</time>
      </trkpt>
      <trkpt lat="47.30859" lon="-1.40065">
        <ele>123</ele>
        <time>2021-02-28T08:29:20.394000+00:00</time>
      </trkpt>
      <trkpt lat="0" lon="0">
        <time>2021-02-28T08:29:20.399000+00:00</time>
      </trkpt>
      <trkpt lat="0" lon="0">
        <time>2021-02-28T08:29:20.404000+00:00</time>
      </trkpt>
      <trkpt lat="0" lon="0">
        <time>2021-02-28T08:29:20.407000+00:00</time>
      </trkpt>
      <trkpt lat="47.30859" lon="-1.40061">
        <ele>123</ele>
        <time>2021-02-28T08:29:21.386000+00:00</time>
      </trkpt>
      <trkpt lat="0" lon="0">
        <time>2021-02-28T08:29:21.392000+00:00</time>
      </trkpt>
      <trkpt lat="0" lon="0">
        <time>2021-02-28T08:29:21.396000+00:00</time>
      </trkpt>
      <trkpt lat="0" lon="0">
        <time>2021-02-28T08:29:21.399000+00:00</time>
      </trkpt>
      <trkpt lat="47.30859" lon="-1.40058">
        <ele>123</ele>
        <time>2021-02-28T08:29:22.431000+00:00</time>
      </trkpt>
      <trkpt lat="0" lon="0">
        <time>2021-02-28T08:29:22.452000+00:00</time>
      </trkpt>
      <trkpt lat="0" lon="0">
        <time>2021-02-28T08:29:22.459000+00:00</time>
      </trkpt>
      <trkpt lat="0" lon="0">
        <time>2021-02-28T08:29:22.463000+00:00</time>
      </trkpt>
      <trkpt lat="47.30859" lon="-1.40056">
        <ele>123</ele>
        <time>2021-02-28T08:29:23.410000+00:00</time>
      </trkpt>
      <trkpt lat="0" lon="0">
        <time>2021-02-28T08:29:23.419000+00:00</time>
      </trkpt>
      <trkpt lat="0" lon="0">
        <time>2021-02-28T08:29:23.425000+00:00</time>
      </trkpt>
      <trkpt lat="0" lon="0">
        <time>2021-02-28T08:29:23.428000+00:00</time>
      </trkpt>
      <trkpt lat="47.30859" lon="-1.40053">
        <ele>124</ele>
        <time>2021-02-28T08:29:24.399000+00:00</time>
      </trkpt>
      <trkpt lat="0" lon="0">
        <time>2021-02-28T08:29:24.404000+00:00</time>
      </trkpt>
      <trkpt lat="0" lon="0">
        <time>2021-02-28T08:29:24.408000+00:00</time>
      </trkpt>
      <trkpt lat="0" lon="0">
        <time>2021-02-28T08:29:24.410000+00:00</time>
      </trkpt>
      <trkpt lat="47.30859" lon="-1.4005">
        <ele>125</ele>
        <time>2021-02-28T08:29:25.382000+00:00</time>
      </trkpt>
      <trkpt lat="0" lon="0">
        <time>2021-02-28T08:29:25.388000+00:00</time>
      </trkpt>
      <trkpt lat="0" lon="0">
        <time>2021-02-28T08:29:25.393000+00:00</time>
      </trkpt>
      <trkpt lat="0" lon="0">
        <time>2021-02-28T08:29:25.399000+00:00</time>
      </trkpt>
      <trkpt lat="47.3086" lon="-1.40047">
        <ele>125</ele>
        <time>2021-02-28T08:29:26.411000+00:00</time>
      </trkpt>
      <trkpt lat="0" lon="0">
        <time>2021-02-28T08:29:26.421000+00:00</time>
      </trkpt>
      <trkpt lat="0" lon="0">
        <time>2021-02-28T08:29:26.427000+00:00</time>
      </trkpt>
      <trkpt lat="0" lon="0">
        <time>2021-02-28T08:29:26.431000+00:00</time>
      </trkpt>
      <trkpt lat="47.3086" lon="-1.40044">
        <ele>125</ele>
        <time>2021-02-28T08:29:27.394000+00:00</time>
      </trkpt>
      <trkpt lat="0" lon="0">
        <time>2021-02-28T08:29:27.402000+00:00</time>
      </trkpt>
      <trkpt lat="0" lon="0">
        <time>2021-02-28T08:29:27.408000+00:00</time>
      </trkpt>
      <trkpt lat="0" lon="0">
        <time>2021-02-28T08:29:27.412000+00:00</time>
      </trkpt>
      <trkpt lat="47.3086" lon="-1.40041">
        <ele>125</ele>
        <time>2021-02-28T08:29:28.422000+00:00</time>
      </trkpt>
      <trkpt lat="0" lon="0">
        <time>2021-02-28T08:29:28.427000+00:00</time>
      </trkpt>
      <trkpt lat="0" lon="0">
        <time>2021-02-28T08:29:28.433000+00:00</time>
      </trkpt>
      <trkpt lat="0" lon="0">
        <time>2021-02-28T08:29:28.435000+00:00</time>
      </trkpt>
      <trkpt lat="47.3086" lon="-1.40038">
        <ele>126</ele>
        <time>2021-02-28T08:29:29.352000+00:00</time>
      </trkpt>
      <trkpt lat="0" lon="0">
        <time>2021-02-28T08:29:29.359000+00:00</time>
      </trkpt>
      <trkpt lat="0" lon="0">
        <time>2021-02-28T08:29:29.363000+00:00</time>
      </trkpt>
      <trkpt lat="0" lon="0">
        <time>2021-02-28T08:29:29.366000+00:00</time>
      </trkpt>
      <trkpt lat="47.3086" lon="-1.40035">
        <ele>126</ele>
        <time>2021-02-28T08:29:30.440000+00:00</time>
      </trkpt>
      <trkpt lat="0" lon="0">
        <time>2021-02-28T08:29:30.442000+00:00</time>
      </trkpt>
      <trkpt lat="0" lon="0">
        <time>2021-02-28T08:29:30.445000+00:00</time>
      </trkpt>
      <trkpt lat="0" lon="0">
        <time>2021-02-28T08:29:30.446000+00:00</time>
      </trkpt>
      <trkpt lat="47.3086" lon="-1.40031">
        <ele>126</ele>
        <time>2021-02-28T08:29:31.423000+00:00</time>
      </trkpt>
      <trkpt lat="0" lon="0">
        <time>2021-02-28T08:29:31.425000+00:00</time>
      </trkpt>
      <trkpt lat="0" lon="0">
        <time>2021-02-28T08:29:31.427000+00:00</time>
      </trkpt>
      <trkpt lat="0" lon="0">
        <time>2021-02-28T08:29:31.428000+00:00</time>
      </trkpt>
      <trkpt lat="47.30861" lon="-1.40027">
        <ele>126</ele>
        <time>2021-02-28T08:29:32.406000+00:00</time>
      </trkpt>
      <trkpt lat="0" lon="0">
        <time>2021-02-28T08:29:32.414000+00:00</time>
      </trkpt>
      <trkpt lat="0" lon="0">
        <time>2021-02-28T08:29:32.420000+00:00</time>
      </trkpt>
      <trkpt lat="0" lon="0">
        <time>2021-02-28T08:29:32.422000+00:00</time>
      </trkpt>
      <trkpt lat="47.30861" lon="-1.40022">
        <ele>126</ele>
        <time>2021-02-28T08:29:33.397000+00:00</time>
      </trkpt>
      <trkpt lat="0" lon="0">
        <time>2021-02-28T08:29:33.407000+00:00</time>
      </trkpt>
      <trkpt lat="0" lon="0">
        <time>2021-02-28T08:29:33.412000+00:00</time>
      </trkpt>
      <trkpt lat="0" lon="0">
        <time>2021-02-28T08:29:33.414000+00:00</time>
      </trkpt>
      <trkpt lat="47.30862" lon="-1.40017">
        <ele>127</ele>
        <time>2021-02-28T08:29:34.374000+00:00</time>
      </trkpt>
      <trkpt lat="0" lon="0">
        <time>2021-02-28T08:29:34.378000+00:00</time>
      </trkpt>
      <trkpt lat="0" lon="0">
        <time>2021-02-28T08:29:34.384000+00:00</time>
      </trkpt>
      <trkpt lat="0" lon="0">
        <time>2021-02-28T08:29:34.386000+00:00</time>
      </trkpt>
      <trkpt lat="47.30862" lon="-1.40012">
        <ele>127</ele>
        <time>2021-02-28T08:29:35.415000+00:00</time>
      </trkpt>
      <trkpt lat="0" lon="0">
        <time>2021-02-28T08:29:35.434000+00:00</time>
      </trkpt>
      <trkpt lat="0" lon="0">
        <time>2021-02-28T08:29:35.440000+00:00</time>
      </trkpt>
      <trkpt lat="0" lon="0">
        <time>2021-02-28T08:29:35.444000+00:00</time>
      </trkpt>
      <trkpt lat="47.30863" lon="-1.40007">
        <ele>128</ele>
        <time>2021-02-28T08:29:36.398000+00:00</time>
      </trkpt>
      <trkpt lat="0" lon="0">
        <time>2021-02-28T08:29:36.406000+00:00</time>
      </trkpt>
      <trkpt lat="0" lon="0">
        <time>2021-02-28T08:29:36.417000+00:00</time>
      </trkpt>
      <trkpt lat="0" lon="0">
        <time>2021-02-28T08:29:36.420000+00:00</time>
      </trkpt>
      <trkpt lat="47.30863" lon="-1.40002">
        <ele>128</ele>
        <time>2021-02-28T08:29:37.387000+00:00</time>
      </trkpt>
      <trkpt lat="0" lon="0">
        <time>2021-02-28T08:29:37.394000+00:00</time>
      </trkpt>
      <trkpt lat="0" lon="0">
        <time>2021-02-28T08:29:37.403000+00:00</time>
      </trkpt>
      <trkpt lat="0" lon="0">
        <time>2021-02-28T08:29:37.406000+00:00</time>
      </trkpt>
      <trkpt lat="47.30864" lon="-1.39997">
        <ele>128</ele>
        <time>2021-02-28T08:29:38.384000+00:00</time>
      </trkpt>
      <trkpt lat="0" lon="0">
        <time>2021-02-28T08:29:38.394000+00:00</time>
      </trkpt>
      <trkpt lat="0" lon="0">
        <time>2021-02-28T08:29:38.399000+00:00</time>
      </trkpt>
      <trkpt lat="0" lon="0">
        <time>2021-02-28T08:29:38.402000+00:00</time>
      </trkpt>
      <trkpt lat="47.30865" lon="-1.39992">
        <ele>129</ele>
        <time>2021-02-28T08:29:39.408000+00:00</time>
      </trkpt>
      <trkpt lat="0" lon="0">
        <time>2021-02-28T08:29:39.417000+00:00</time>
      </trkpt>
      <trkpt lat="0" lon="0">
        <time>2021-02-28T08:29:39.422000+00:00</time>
      </trkpt>
      <trkpt lat="0" lon="0">
        <time>2021-02-28T08:29:39.426000+00:00</time>
      </trkpt>
      <trkpt lat="47.30865" lon="-1.39987">
        <ele>129</ele>
        <time>2021-02-28T08:29:40.396000+00:00</time>
      </trkpt>
      <trkpt lat="0" lon="0">
        <time>2021-02-28T08:29:40.410000+00:00</time>
      </trkpt>
      <trkpt lat="0" lon="0">
        <time>2021-02-28T08:29:40.416000+00:00</time>
      </trkpt>
      <trkpt lat="0" lon="0">
        <time>2021-02-28T08:29:40.420000+00:00</time>
      </trkpt>
      <trkpt lat="47.30866" lon="-1.39982">
        <ele>129</ele>
        <time>2021-02-28T08:29:41.395000+00:00</time>
      </trkpt>
      <trkpt lat="0" lon="0">
        <time>2021-02-28T08:29:41.400000+00:00</time>
      </trkpt>
      <trkpt lat="0" lon="0">
        <time>2021-02-28T08:29:41.406000+00:00</time>
      </trkpt>
      <trkpt lat="0" lon="0">
        <time>2021-02-28T08:29:41.408000+00:00</time>
      </trkpt>
      <trkpt lat="47.30867" lon="-1.39976">
        <ele>129</ele>
        <time>2021-02-28T08:29:42.421000+00:00</time>
      </trkpt>
      <trkpt lat="0" lon="0">
        <time>2021-02-28T08:29:42.430000+00:00</time>
      </trkpt>
      <trkpt lat="0" lon="0">
        <time>2021-02-28T08:29:42.443000+00:00</time>
      </trkpt>
      <trkpt lat="0" lon="0">
        <time>2021-02-28T08:29:42.450000+00:00</time>
      </trkpt>
      <trkpt lat="47.30868" lon="-1.39972">
        <ele>129</ele>
        <time>2021-02-28T08:29:43.416000+00:00</time>
      </trkpt>
      <trkpt lat="0" lon="0">
        <time>2021-02-28T08:29:43.418000+00:00</time>
      </trkpt>
      <trkpt lat="0" lon="0">
        <time>2021-02-28T08:29:43.421000+00:00</time>
      </trkpt>
      <trkpt lat="0" lon="0">
        <time>2021-02-28T08:29:43.422000+00:00</time>
      </trkpt>
      <trkpt lat="47.30869" lon="-1.39967">
        <ele>130</ele>
        <time>2021-02-28T08:29:44.402000+00:00</time>
      </trkpt>
      <trkpt lat="0" lon="0">
        <time>2021-02-28T08:29:44.409000+00:00</time>
      </trkpt>
      <trkpt lat="0" lon="0">
        <time>2021-02-28T08:29:44.415000+00:00</time>
      </trkpt>
      <trkpt lat="0" lon="0">
        <time>2021-02-28T08:29:44.418000+00:00</time>
      </trkpt>
      <trkpt lat="47.3087" lon="-1.39962">
        <ele>129</ele>
        <time>2021-02-28T08:29:45.347000+00:00</time>
      </trkpt>
      <trkpt lat="0" lon="0">
        <time>2021-02-28T08:29:45.355000+00:00</time>
      </trkpt>
      <trkpt lat="0" lon="0">
        <time>2021-02-28T08:29:45.361000+00:00</time>
      </trkpt>
      <trkpt lat="0" lon="0">
        <time>2021-02-28T08:29:45.365000+00:00</time>
      </trkpt>
      <trkpt lat="47.30871" lon="-1.39958">
        <ele>129</ele>
        <time>2021-02-28T08:29:46.368000+00:00</time>
      </trkpt>
      <trkpt lat="0" lon="0">
        <time>2021-02-28T08:29:46.375000+00:00</time>
      </trkpt>
      <trkpt lat="0" lon="0">
        <time>2021-02-28T08:29:46.381000+00:00</time>
      </trkpt>
      <trkpt lat="0" lon="0">
        <time>2021-02-28T08:29:46.384000+00:00</time>
      </trkpt>
      <trkpt lat="47.30872" lon="-1.39954">
        <ele>129</ele>
        <time>2021-02-28T08:29:47.368000+00:00</time>
      </trkpt>
      <trkpt lat="0" lon="0">
        <time>2021-02-28T08:29:47.379000+00:00</time>
      </trkpt>
      <trkpt lat="0" lon="0">
        <time>2021-02-28T08:29:47.384000+00:00</time>
      </trkpt>
      <trkpt lat="0" lon="0">
        <time>2021-02-28T08:29:47.386000+00:00</time>
      </trkpt>
      <trkpt lat="47.30874" lon="-1.39949">
        <ele>128</ele>
        <time>2021-02-28T08:29:48.378000+00:00</time>
      </trkpt>
      <trkpt lat="0" lon="0">
        <time>2021-02-28T08:29:48.384000+00:00</time>
      </trkpt>
      <trkpt lat="0" lon="0">
        <time>2021-02-28T08:29:48.389000+00:00</time>
      </trkpt>
      <trkpt lat="0" lon="0">
        <time>2021-02-28T08:29:48.391000+00:00</time>
      </trkpt>
      <trkpt lat="47.30875" lon="-1.39945">
        <ele>127</ele>
        <time>2021-02-28T08:29:49.377000+00:00</time>
      </trkpt>
      <trkpt lat="0" lon="0">
        <time>2021-02-28T08:29:49.385000+00:00</time>
      </trkpt>
      <trkpt lat="0" lon="0">
        <time>2021-02-28T08:29:49.391000+00:00</time>
      </trkpt>
      <trkpt lat="0" lon="0">
        <time>2021-02-28T08:29:49.394000+00:00</time>
      </trkpt>
      <trkpt lat="47.30876" lon="-1.39941">
        <ele>126</ele>
        <time>2021-02-28T08:29:50.378000+00:00</time>
      </trkpt>
      <trkpt lat="0" lon="0">
        <time>2021-02-28T08:29:50.389000+00:00</time>
      </trkpt>
      <trkpt lat="0" lon="0">
        <time>2021-02-28T08:29:50.395000+00:00</time>
      </trkpt>
      <trkpt lat="0" lon="0">
        <time>2021-02-28T08:29:50.397000+00:00</time>
      </trkpt>
      <trkpt lat="47.30878" lon="-1.39937">
        <ele>126</ele>
        <time>2021-02-28T08:29:51.402000+00:00</time>
      </trkpt>
      <trkpt lat="0" lon="0">
        <time>2021-02-28T08:29:51.408000+00:00</time>
      </trkpt>
      <trkpt lat="0" lon="0">
        <time>2021-02-28T08:29:51.414000+00:00</time>
      </trkpt>
      <trkpt lat="0" lon="0">
        <time>2021-02-28T08:29:51.417000+00:00</time>
      </trkpt>
      <trkpt lat="47.3088" lon="-1.39933">
        <ele>125</ele>
        <time>2021-02-28T08:29:52.377000+00:00</time>
      </trkpt>
      <trkpt lat="0" lon="0">
        <time>2021-02-28T08:29:52.385000+00:00</time>
      </trkpt>
      <trkpt lat="0" lon="0">
        <time>2021-02-28T08:29:52.392000+00:00</time>
      </trkpt>
      <trkpt lat="0" lon="0">
        <time>2021-02-28T08:29:52.395000+00:00</time>
      </trkpt>
      <trkpt lat="47.30881" lon="-1.39929">
        <ele>124</ele>
        <time>2021-02-28T08:29:53.410000+00:00</time>
      </trkpt>
      <trkpt lat="0" lon="0">
        <time>2021-02-28T08:29:53.417000+00:00</time>
      </trkpt>
      <trkpt lat="0" lon="0">
        <time>2021-02-28T08:29:53.422000+00:00</time>
      </trkpt>
      <trkpt lat="0" lon="0">
        <time>2021-02-28T08:29:53.425000+00:00</time>
      </trkpt>
      <trkpt lat="47.30883" lon="-1.39925">
        <ele>124</ele>
        <time>2021-02-28T08:29:54.417000+00:00</time>
      </trkpt>
      <trkpt lat="0" lon="0">
        <time>2021-02-28T08:29:54.424000+00:00</time>
      </trkpt>
      <trkpt lat="0" lon="0">
        <time>2021-02-28T08:29:54.431000+00:00</time>
      </trkpt>
      <trkpt lat="0" lon="0">
        <time>2021-02-28T08:29:54.434000+00:00</time>
      </trkpt>
      <trkpt lat="47.30885" lon="-1.39922">
        <ele>124</ele>
        <time>2021-02-28T08:29:55.396000+00:00</time>
      </trkpt>
      <trkpt lat="0" lon="0">
        <time>2021-02-28T08:29:55.398000+00:00</time>
      </trkpt>
      <trkpt lat="0" lon="0">
        <time>2021-02-28T08:29:55.401000+00:00</time>
      </trkpt>
      <trkpt lat="0" lon="0">
        <time>2021-02-28T08:29:55.403000+00:00</time>
      </trkpt>
      <trkpt lat="47.30886" lon="-1.39918">
        <ele>124</ele>
        <time>2021-02-28T08:29:56.398000+00:00</time>
      </trkpt>
      <trkpt lat="0" lon="0">
        <time>2021-02-28T08:29:56.403000+00:00</time>
      </trkpt>
      <trkpt lat="0" lon="0">
        <time>2021-02-28T08:29:56.408000+00:00</time>
      </trkpt>
      <trkpt lat="0" lon="0">
        <time>2021-02-28T08:29:56.410000+00:00</time>
      </trkpt>
      <trkpt lat="47.30888" lon="-1.39914">
        <ele>124</ele>
        <time>2021-02-28T08:29:57.416000+00:00</time>
      </trkpt>
      <trkpt lat="0" lon="0">
        <time>2021-02-28T08:29:57.427000+00:00</time>
      </trkpt>
      <trkpt lat="0" lon="0">
        <time>2021-02-28T08:29:57.437000+00:00</time>
      </trkpt>
      <trkpt lat="0" lon="0">
        <time>2021-02-28T08:29:57.439000+00:00</time>
      </trkpt>
      <trkpt lat="47.30889" lon="-1.39911">
        <ele>124</ele>
        <time>2021-02-28T08:29:58.422000+00:00</time>
      </trkpt>
      <trkpt lat="0" lon="0">
        <time>2021-02-28T08:29:58.430000+00:00</time>
      </trkpt>
      <trkpt lat="0" lon="0">
        <time>2021-02-28T08:29:58.436000+00:00</time>
      </trkpt>
      <trkpt lat="0" lon="0">
        <time>2021-02-28T08:29:58.439000+00:00</time>
      </trkpt>
      <trkpt lat="47.30891" lon="-1.39907">
        <ele>124</ele>
        <time>2021-02-28T08:29:59.404000+00:00</time>
      </trkpt>
      <trkpt lat="0" lon="0">
        <time>2021-02-28T08:29:59.414000+00:00</time>
      </trkpt>
      <trkpt lat="0" lon="0">
        <time>2021-02-28T08:29:59.417000+00:00</time>
      </trkpt>
      <trkpt lat="0" lon="0">
        <time>2021-02-28T08:29:59.418000+00:00</time>
      </trkpt>
      <trkpt lat="47.30892" lon="-1.39903">
        <ele>124</ele>
        <time>2021-02-28T08:30:00.363000+00:00</time>
      </trkpt>
      <trkpt lat="0" lon="0">
        <time>2021-02-28T08:30:00.370000+00:00</time>
      </trkpt>
      <trkpt lat="0" lon="0">
        <time>2021-02-28T08:30:00.375000+00:00</time>
      </trkpt>
      <trkpt lat="0" lon="0">
        <time>2021-02-28T08:30:00.378000+00:00</time>
      </trkpt>
      <trkpt lat="47.30894" lon="-1.399">
        <ele>124</ele>
        <time>2021-02-28T08:30:01.364000+00:00</time>
      </trkpt>
      <trkpt lat="0" lon="0">
        <time>2021-02-28T08:30:01.368000+00:00</time>
      </trkpt>
      <trkpt lat="0" lon="0">
        <time>2021-02-28T08:30:01.370000+00:00</time>
      </trkpt>
      <trkpt lat="0" lon="0">
        <time>2021-02-28T08:30:01.371000+00:00</time>
      </trkpt>
      <trkpt lat="47.30895" lon="-1.39896">
        <ele>123</ele>
        <time>2021-02-28T08:30:02.386000+00:00</time>
      </trkpt>
      <trkpt lat="0" lon="0">
        <time>2021-02-28T08:30:02.395000+00:00</time>
      </trkpt>
      <trkpt lat="0" lon="0">
        <time>2021-02-28T08:30:02.399000+00:00</time>
      </trkpt>
      <trkpt lat="0" lon="0">
        <time>2021-02-28T08:30:02.402000+00:00</time>
      </trkpt>
      <trkpt lat="47.30896" lon="-1.39893">
        <ele>123</ele>
        <time>2021-02-28T08:30:03.391000+00:00</time>
      </trkpt>
      <trkpt lat="0" lon="0">
        <time>2021-02-28T08:30:03.397000+00:00</time>
      </trkpt>
      <trkpt lat="0" lon="0">
        <time>2021-02-28T08:30:03.402000+00:00</time>
      </trkpt>
      <trkpt lat="0" lon="0">
        <time>2021-02-28T08:30:03.405000+00:00</time>
      </trkpt>
      <trkpt lat="47.30898" lon="-1.39889">
        <ele>122</ele>
        <time>2021-02-28T08:30:04.369000+00:00</time>
      </trkpt>
      <trkpt lat="0" lon="0">
        <time>2021-02-28T08:30:04.380000+00:00</time>
      </trkpt>
      <trkpt lat="0" lon="0">
        <time>2021-02-28T08:30:04.386000+00:00</time>
      </trkpt>
      <trkpt lat="0" lon="0">
        <time>2021-02-28T08:30:04.391000+00:00</time>
      </trkpt>
      <trkpt lat="47.30899" lon="-1.39886">
        <ele>122</ele>
        <time>2021-02-28T08:30:05.412000+00:00</time>
      </trkpt>
      <trkpt lat="0" lon="0">
        <time>2021-02-28T08:30:05.419000+00:00</time>
      </trkpt>
      <trkpt lat="0" lon="0">
        <time>2021-02-28T08:30:05.427000+00:00</time>
      </trkpt>
      <trkpt lat="0" lon="0">
        <time>2021-02-28T08:30:05.430000+00:00</time>
      </trkpt>
      <trkpt lat="47.309" lon="-1.39882">
        <ele>122</ele>
        <time>2021-02-28T08:30:06.412000+00:00</time>
      </trkpt>
      <trkpt lat="0" lon="0">
        <time>2021-02-28T08:30:06.415000+00:00</time>
      </trkpt>
      <trkpt lat="0" lon="0">
        <time>2021-02-28T08:30:06.420000+00:00</time>
      </trkpt>
      <trkpt lat="0" lon="0">
        <time>2021-02-28T08:30:06.422000+00:00</time>
      </trkpt>
      <trkpt lat="47.30901" lon="-1.39878">
        <ele>122</ele>
        <time>2021-02-28T08:30:07.411000+00:00</time>
      </trkpt>
      <trkpt lat="0" lon="0">
        <time>2021-02-28T08:30:07.417000+00:00</time>
      </trkpt>
      <trkpt lat="0" lon="0">
        <time>2021-02-28T08:30:07.422000+00:00</time>
      </trkpt>
      <trkpt lat="0" lon="0">
        <time>2021-02-28T08:30:07.424000+00:00</time>
      </trkpt>
      <trkpt lat="47.30902" lon="-1.39874">
        <ele>122</ele>
        <time>2021-02-28T08:30:08.407000+00:00</time>
      </trkpt>
      <trkpt lat="0" lon="0">
        <time>2021-02-28T08:30:08.413000+00:00</time>
      </trkpt>
      <trkpt lat="0" lon="0">
        <time>2021-02-28T08:30:08.418000+00:00</time>
      </trkpt>
      <trkpt lat="0" lon="0">
        <time>2021-02-28T08:30:08.420000+00:00</time>
      </trkpt>
      <trkpt lat="47.30904" lon="-1.3987">
        <ele>122</ele>
        <time>2021-02-28T08:30:09.366000+00:00</time>
      </trkpt>
      <trkpt lat="0" lon="0">
        <time>2021-02-28T08:30:09.371000+00:00</time>
      </trkpt>
      <trkpt lat="0" lon="0">
        <time>2021-02-28T08:30:09.375000+00:00</time>
      </trkpt>
      <trkpt lat="0" lon="0">
        <time>2021-02-28T08:30:09.378000+00:00</time>
      </trkpt>
      <trkpt lat="47.30905" lon="-1.39866">
        <ele>122</ele>
        <time>2021-02-28T08:30:10.412000+00:00</time>
      </trkpt>
      <trkpt lat="0" lon="0">
        <time>2021-02-28T08:30:10.422000+00:00</time>
      </trkpt>
      <trkpt lat="0" lon="0">
        <time>2021-02-28T08:30:10.427000+00:00</time>
      </trkpt>
      <trkpt lat="0" lon="0">
        <time>2021-02-28T08:30:10.430000+00:00</time>
      </trkpt>
      <trkpt lat="47.30906" lon="-1.39862">
        <ele>122</ele>
        <time>2021-02-28T08:30:11.418000+00:00</time>
      </trkpt>
      <trkpt lat="0" lon="0">
        <time>2021-02-28T08:30:11.429000+00:00</time>
      </trkpt>
      <trkpt lat="0" lon="0">
        <time>2021-02-28T08:30:11.435000+00:00</time>
      </trkpt>
      <trkpt lat="0" lon="0">
        <time>2021-02-28T08:30:11.439000+00:00</time>
      </trkpt>
      <trkpt lat="47.30908" lon="-1.39858">
        <ele>121</ele>
        <time>2021-02-28T08:30:12.407000+00:00</time>
      </trkpt>
      <trkpt lat="0" lon="0">
        <time>2021-02-28T08:30:12.413000+00:00</time>
      </trkpt>
      <trkpt lat="0" lon="0">
        <time>2021-02-28T08:30:12.415000+00:00</time>
      </trkpt>
      <trkpt lat="0" lon="0">
        <time>2021-02-28T08:30:12.417000+00:00</time>
      </trkpt>
      <trkpt lat="47.30909" lon="-1.39853">
        <ele>121</ele>
        <time>2021-02-28T08:30:13.382000+00:00</time>
      </trkpt>
      <trkpt lat="0" lon="0">
        <time>2021-02-28T08:30:13.406000+00:00</time>
      </trkpt>
      <trkpt lat="0" lon="0">
        <time>2021-02-28T08:30:13.413000+00:00</time>
      </trkpt>
      <trkpt lat="0" lon="0">
        <time>2021-02-28T08:30:13.416000+00:00</time>
      </trkpt>
      <trkpt lat="47.30911" lon="-1.39849">
        <ele>121</ele>
        <time>2021-02-28T08:30:14.346000+00:00</time>
      </trkpt>
      <trkpt lat="0" lon="0">
        <time>2021-02-28T08:30:14.355000+00:00</time>
      </trkpt>
      <trkpt lat="0" lon="0">
        <time>2021-02-28T08:30:14.360000+00:00</time>
      </trkpt>
      <trkpt lat="0" lon="0">
        <time>2021-02-28T08:30:14.363000+00:00</time>
      </trkpt>
      <trkpt lat="47.30912" lon="-1.39844">
        <ele>121</ele>
        <time>2021-02-28T08:30:15.391000+00:00</time>
      </trkpt>
      <trkpt lat="0" lon="0">
        <time>2021-02-28T08:30:15.396000+00:00</time>
      </trkpt>
      <trkpt lat="0" lon="0">
        <time>2021-02-28T08:30:15.401000+00:00</time>
      </trkpt>
      <trkpt lat="0" lon="0">
        <time>2021-02-28T08:30:15.403000+00:00</time>
      </trkpt>
      <trkpt lat="47.30914" lon="-1.39839">
        <ele>121</ele>
        <time>2021-02-28T08:30:16.372000+00:00</time>
      </trkpt>
      <trkpt lat="0" lon="0">
        <time>2021-02-28T08:30:16.385000+00:00</time>
      </trkpt>
      <trkpt lat="0" lon="0">
        <time>2021-02-28T08:30:16.391000+00:00</time>
      </trkpt>
      <trkpt lat="0" lon="0">
        <time>2021-02-28T08:30:16.393000+00:00</time>
      </trkpt>
      <trkpt lat="47.30916" lon="-1.39834">
        <ele>121</ele>
        <time>2021-02-28T08:30:17.404000+00:00</time>
      </trkpt>
      <trkpt lat="0" lon="0">
        <time>2021-02-28T08:30:17.417000+00:00</time>
      </trkpt>
      <trkpt lat="0" lon="0">
        <time>2021-02-28T08:30:17.426000+00:00</time>
      </trkpt>
      <trkpt lat="0" lon="0">
        <time>2021-02-28T08:30:17.429000+00:00</time>
      </trkpt>
      <trkpt lat="47.30917" lon="-1.39829">
        <ele>120</ele>
        <time>2021-02-28T08:30:18.376000+00:00</time>
      </trkpt>
      <trkpt lat="0" lon="0">
        <time>2021-02-28T08:30:18.383000+00:00</time>
      </trkpt>
      <trkpt lat="0" lon="0">
        <time>2021-02-28T08:30:18.387000+00:00</time>
      </trkpt>
      <trkpt lat="0" lon="0">
        <time>2021-02-28T08:30:18.390000+00:00</time>
      </trkpt>
      <trkpt lat="47.30919" lon="-1.39824">
        <ele>121</ele>
        <time>2021-02-28T08:30:19.359000+00:00</time>
      </trkpt>
      <trkpt lat="0" lon="0">
        <time>2021-02-28T08:30:19.369000+00:00</time>
      </trkpt>
      <trkpt lat="0" lon="0">
        <time>2021-02-28T08:30:19.373000+00:00</time>
      </trkpt>
      <trkpt lat="0" lon="0">
        <time>2021-02-28T08:30:19.379000+00:00</time>
      </trkpt>
      <trkpt lat="47.30921" lon="-1.39819">
        <ele>121</ele>
        <time>2021-02-28T08:30:20.398000+00:00</time>
      </trkpt>
      <trkpt lat="0" lon="0">
        <time>2021-02-28T08:30:20.404000+00:00</time>
      </trkpt>
      <trkpt lat="0" lon="0">
        <time>2021-02-28T08:30:20.410000+00:00</time>
      </trkpt>
      <trkpt lat="0" lon="0">
        <time>2021-02-28T08:30:20.415000+00:00</time>
      </trkpt>
      <trkpt lat="47.30923" lon="-1.39814">
        <ele>121</ele>
        <time>2021-02-28T08:30:21.381000+00:00</time>
      </trkpt>
      <trkpt lat="0" lon="0">
        <time>2021-02-28T08:30:21.400000+00:00</time>
      </trkpt>
      <trkpt lat="0" lon="0">
        <time>2021-02-28T08:30:21.408000+00:00</time>
      </trkpt>
      <trkpt lat="0" lon="0">
        <time>2021-02-28T08:30:21.412000+00:00</time>
      </trkpt>
      <trkpt lat="47.30925" lon="-1.39809">
        <ele>121</ele>
        <time>2021-02-28T08:30:22.380000+00:00</time>
      </trkpt>
      <trkpt lat="0" lon="0">
        <time>2021-02-28T08:30:22.390000+00:00</time>
      </trkpt>
      <trkpt lat="0" lon="0">
        <time>2021-02-28T08:30:22.396000+00:00</time>
      </trkpt>
      <trkpt lat="0" lon="0">
        <time>2021-02-28T08:30:22.402000+00:00</time>
      </trkpt>
      <trkpt lat="47.30927" lon="-1.39804">
        <ele>121</ele>
        <time>2021-02-28T08:30:23.393000+00:00</time>
      </trkpt>
      <trkpt lat="0" lon="0">
        <time>2021-02-28T08:30:23.399000+00:00</time>
      </trkpt>
      <trkpt lat="0" lon="0">
        <time>2021-02-28T08:30:23.404000+00:00</time>
      </trkpt>
      <trkpt lat="0" lon="0">
        <time>2021-02-28T08:30:23.407000+00:00</time>
      </trkpt>
      <trkpt lat="47.30929" lon="-1.39799">
        <ele>121</ele>
        <time>2021-02-28T08:30:24.384000+00:00</time>
      </trkpt>
      <trkpt lat="0" lon="0">
        <time>2021-02-28T08:30:24.389000+00:00</time>
      </trkpt>
      <trkpt lat="0" lon="0">
        <time>2021-02-28T08:30:24.395000+00:00</time>
      </trkpt>
      <trkpt lat="0" lon="0">
        <time>2021-02-28T08:30:24.398000+00:00</time>
      </trkpt>
      <trkpt lat="47.3093" lon="-1.39794">
        <ele>121</ele>
        <time>2021-02-28T08:30:25.400000+00:00</time>
      </trkpt>
      <trkpt lat="0" lon="0">
        <time>2021-02-28T08:30:25.409000+00:00</time>
      </trkpt>
      <trkpt lat="0" lon="0">
        <time>2021-02-28T08:30:25.415000+00:00</time>
      </trkpt>
      <trkpt lat="0" lon="0">
        <time>2021-02-28T08:30:25.417000+00:00</time>
      </trkpt>
      <trkpt lat="47.30932" lon="-1.39789">
        <ele>121</ele>
        <time>2021-02-28T08:30:26.376000+00:00</time>
      </trkpt>
      <trkpt lat="0" lon="0">
        <time>2021-02-28T08:30:26.383000+00:00</time>
      </trkpt>
      <trkpt lat="0" lon="0">
        <time>2021-02-28T08:30:26.392000+00:00</time>
      </trkpt>
      <trkpt lat="0" lon="0">
        <time>2021-02-28T08:30:26.394000+00:00</time>
      </trkpt>
      <trkpt lat="47.30934" lon="-1.39784">
        <ele>121</ele>
        <time>2021-02-28T08:30:27.357000+00:00</time>
      </trkpt>
      <trkpt lat="0" lon="0">
        <time>2021-02-28T08:30:27.371000+00:00</time>
      </trkpt>
      <trkpt lat="0" lon="0">
        <time>2021-02-28T08:30:27.376000+00:00</time>
      </trkpt>
      <trkpt lat="0" lon="0">
        <time>2021-02-28T08:30:27.379000+00:00</time>
      </trkpt>
      <trkpt lat="47.30936" lon="-1.39779">
        <ele>121</ele>
        <time>2021-02-28T08:30:28.408000+00:00</time>
      </trkpt>
      <trkpt lat="0" lon="0">
        <time>2021-02-28T08:30:28.416000+00:00</time>
      </trkpt>
      <trkpt lat="0" lon="0">
        <time>2021-02-28T08:30:28.423000+00:00</time>
      </trkpt>
      <trkpt lat="0" lon="0">
        <time>2021-02-28T08:30:28.426000+00:00</time>
      </trkpt>
      <trkpt lat="47.30937" lon="-1.39774">
        <ele>121</ele>
        <time>2021-02-28T08:30:29.364000+00:00</time>
      </trkpt>
      <trkpt lat="0" lon="0">
        <time>2021-02-28T08:30:29.372000+00:00</time>
      </trkpt>
      <trkpt lat="0" lon="0">
        <time>2021-02-28T08:30:29.376000+00:00</time>
      </trkpt>
      <trkpt lat="0" lon="0">
        <time>2021-02-28T08:30:29.378000+00:00</time>
      </trkpt>
      <trkpt lat="47.30939" lon="-1.39769">
        <ele>121</ele>
        <time>2021-02-28T08:30:30.353000+00:00</time>
      </trkpt>
      <trkpt lat="0" lon="0">
        <time>2021-02-28T08:30:30.359000+00:00</time>
      </trkpt>
      <trkpt lat="0" lon="0">
        <time>2021-02-28T08:30:30.364000+00:00</time>
      </trkpt>
      <trkpt lat="0" lon="0">
        <time>2021-02-28T08:30:30.370000+00:00</time>
      </trkpt>
      <trkpt lat="47.3094" lon="-1.39764">
        <ele>121</ele>
        <time>2021-02-28T08:30:31.398000+00:00</time>
      </trkpt>
      <trkpt lat="0" lon="0">
        <time>2021-02-28T08:30:31.410000+00:00</time>
      </trkpt>
      <trkpt lat="0" lon="0">
        <time>2021-02-28T08:30:31.420000+00:00</time>
      </trkpt>
      <trkpt lat="0" lon="0">
        <time>2021-02-28T08:30:31.424000+00:00</time>
      </trkpt>
      <trkpt lat="47.30942" lon="-1.39759">
        <ele>121</ele>
        <time>2021-02-28T08:30:32.415000+00:00</time>
      </trkpt>
      <trkpt lat="0" lon="0">
        <time>2021-02-28T08:30:32.424000+00:00</time>
      </trkpt>
      <trkpt lat="0" lon="0">
        <time>2021-02-28T08:30:32.429000+00:00</time>
      </trkpt>
      <trkpt lat="0" lon="0">
        <time>2021-02-28T08:30:32.432000+00:00</time>
      </trkpt>
      <trkpt lat="47.30944" lon="-1.39754">
        <ele>122</ele>
        <time>2021-02-28T08:30:33.363000+00:00</time>
      </trkpt>
      <trkpt lat="0" lon="0">
        <time>2021-02-28T08:30:33.366000+00:00</time>
      </trkpt>
      <trkpt lat="0" lon="0">
        <time>2021-02-28T08:30:33.368000+00:00</time>
      </trkpt>
      <trkpt lat="0" lon="0">
        <time>2021-02-28T08:30:33.369000+00:00</time>
      </trkpt>
      <trkpt lat="47.30945" lon="-1.39749">
        <ele>122</ele>
        <time>2021-02-28T08:30:34.371000+00:00</time>
      </trkpt>
      <trkpt lat="0" lon="0">
        <time>2021-02-28T08:30:34.377000+00:00</time>
      </trkpt>
      <trkpt lat="0" lon="0">
        <time>2021-02-28T08:30:34.383000+00:00</time>
      </trkpt>
      <trkpt lat="0" lon="0">
        <time>2021-02-28T08:30:34.386000+00:00</time>
      </trkpt>
      <trkpt lat="47.30947" lon="-1.39745">
        <ele>122</ele>
        <time>2021-02-28T08:30:35.348000+00:00</time>
      </trkpt>
      <trkpt lat="0" lon="0">
        <time>2021-02-28T08:30:35.354000+00:00</time>
      </trkpt>
      <trkpt lat="0" lon="0">
        <time>2021-02-28T08:30:35.358000+00:00</time>
      </trkpt>
      <trkpt lat="0" lon="0">
        <time>2021-02-28T08:30:35.360000+00:00</time>
      </trkpt>
      <trkpt lat="47.30949" lon="-1.39741">
        <ele>122</ele>
        <time>2021-02-28T08:30:36.380000+00:00</time>
      </trkpt>
      <trkpt lat="0" lon="0">
        <time>2021-02-28T08:30:36.389000+00:00</time>
      </trkpt>
      <trkpt lat="0" lon="0">
        <time>2021-02-28T08:30:36.395000+00:00</time>
      </trkpt>
      <trkpt lat="0" lon="0">
        <time>2021-02-28T08:30:36.399000+00:00</time>
      </trkpt>
      <trkpt lat="47.3095" lon="-1.39736">
        <ele>122</ele>
        <time>2021-02-28T08:30:37.394000+00:00</time>
      </trkpt>
      <trkpt lat="0" lon="0">
        <time>2021-02-28T08:30:37.399000+00:00</time>
      </trkpt>
      <trkpt lat="0" lon="0">
        <time>2021-02-28T08:30:37.404000+00:00</time>
      </trkpt>
      <trkpt lat="0" lon="0">
        <time>2021-02-28T08:30:37.407000+00:00</time>
      </trkpt>
      <trkpt lat="47.30952" lon="-1.39732">
        <ele>122</ele>
        <time>2021-02-28T08:30:38.345000+00:00</time>
      </trkpt>
      <trkpt lat="0" lon="0">
        <time>2021-02-28T08:30:38.347000+00:00</time>
      </trkpt>
      <trkpt lat="0" lon="0">
        <time>2021-02-28T08:30:38.350000+00:00</time>
      </trkpt>
      <trkpt lat="0" lon="0">
        <time>2021-02-28T08:30:38.351000+00:00</time>
      </trkpt>
      <trkpt lat="47.30954" lon="-1.39728">
        <ele>122</ele>
        <time>2021-02-28T08:30:39.363000+00:00</time>
      </trkpt>
      <trkpt lat="0" lon="0">
        <time>2021-02-28T08:30:39.370000+00:00</time>
      </trkpt>
      <trkpt lat="0" lon="0">
        <time>2021-02-28T08:30:39.375000+00:00</time>
      </trkpt>
      <trkpt lat="0" lon="0">
        <time>2021-02-28T08:30:39.377000+00:00</time>
      </trkpt>
      <trkpt lat="47.30956" lon="-1.39723">
        <ele>122</ele>
        <time>2021-02-28T08:30:40.336000+00:00</time>
      </trkpt>
      <trkpt lat="0" lon="0">
        <time>2021-02-28T08:30:40.343000+00:00</time>
      </trkpt>
      <trkpt lat="0" lon="0">
        <time>2021-02-28T08:30:40.348000+00:00</time>
      </trkpt>
      <trkpt lat="0" lon="0">
        <time>2021-02-28T08:30:40.350000+00:00</time>
      </trkpt>
      <trkpt lat="47.30958" lon="-1.39719">
        <ele>122</ele>
        <time>2021-02-28T08:30:41.343000+00:00</time>
      </trkpt>
      <trkpt lat="0" lon="0">
        <time>2021-02-28T08:30:41.348000+00:00</time>
      </trkpt>
      <trkpt lat="0" lon="0">
        <time>2021-02-28T08:30:41.352000+00:00</time>
      </trkpt>
      <trkpt lat="0" lon="0">
        <time>2021-02-28T08:30:41.355000+00:00</time>
      </trkpt>
      <trkpt lat="47.30959" lon="-1.39715">
        <ele>121</ele>
        <time>2021-02-28T08:30:42.360000+00:00</time>
      </trkpt>
      <trkpt lat="0" lon="0">
        <time>2021-02-28T08:30:42.369000+00:00</time>
      </trkpt>
      <trkpt lat="0" lon="0">
        <time>2021-02-28T08:30:42.374000+00:00</time>
      </trkpt>
      <trkpt lat="0" lon="0">
        <time>2021-02-28T08:30:42.376000+00:00</time>
      </trkpt>
      <trkpt lat="47.30961" lon="-1.39712">
        <ele>121</ele>
        <time>2021-02-28T08:30:43.367000+00:00</time>
      </trkpt>
      <trkpt lat="0" lon="0">
        <time>2021-02-28T08:30:43.374000+00:00</time>
      </trkpt>
      <trkpt lat="0" lon="0">
        <time>2021-02-28T08:30:43.380000+00:00</time>
      </trkpt>
      <trkpt lat="0" lon="0">
        <time>2021-02-28T08:30:43.383000+00:00</time>
      </trkpt>
      <trkpt lat="47.30963" lon="-1.39708">
        <ele>121</ele>
        <time>2021-02-28T08:30:44.369000+00:00</time>
      </trkpt>
      <trkpt lat="0" lon="0">
        <time>2021-02-28T08:30:44.378000+00:00</time>
      </trkpt>
      <trkpt lat="0" lon="0">
        <time>2021-02-28T08:30:44.383000+00:00</time>
      </trkpt>
      <trkpt lat="0" lon="0">
        <time>2021-02-28T08:30:44.385000+00:00</time>
      </trkpt>
      <trkpt lat="47.30965" lon="-1.39704">
        <ele>121</ele>
        <time>2021-02-28T08:30:45.401000+00:00</time>
      </trkpt>
      <trkpt lat="0" lon="0">
        <time>2021-02-28T08:30:45.412000+00:00</time>
      </trkpt>
      <trkpt lat="0" lon="0">
        <time>2021-02-28T08:30:45.418000+00:00</time>
      </trkpt>
      <trkpt lat="0" lon="0">
        <time>2021-02-28T08:30:45.422000+00:00</time>
      </trkpt>
      <trkpt lat="47.30967" lon="-1.39701">
        <ele>121</ele>
        <time>2021-02-28T08:30:46.333000+00:00</time>
      </trkpt>
      <trkpt lat="0" lon="0">
        <time>2021-02-28T08:30:46.343000+00:00</time>
      </trkpt>
      <trkpt lat="0" lon="0">
        <time>2021-02-28T08:30:46.348000+00:00</time>
      </trkpt>
      <trkpt lat="0" lon="0">
        <time>2021-02-28T08:30:46.351000+00:00</time>
      </trkpt>
      <trkpt lat="47.30969" lon="-1.39697">
        <ele>121</ele>
        <time>2021-02-28T08:30:47.359000+00:00</time>
      </trkpt>
      <trkpt lat="0" lon="0">
        <time>2021-02-28T08:30:47.363000+00:00</time>
      </trkpt>
      <trkpt lat="0" lon="0">
        <time>2021-02-28T08:30:47.365000+00:00</time>
      </trkpt>
      <trkpt lat="0" lon="0">
        <time>2021-02-28T08:30:47.366000+00:00</time>
      </trkpt>
      <trkpt lat="47.30971" lon="-1.39693">
        <ele>122</ele>
        <time>2021-02-28T08:30:48.299000+00:00</time>
      </trkpt>
      <trkpt lat="0" lon="0">
        <time>2021-02-28T08:30:48.305000+00:00</time>
      </trkpt>
      <trkpt lat="0" lon="0">
        <time>2021-02-28T08:30:48.309000+00:00</time>
      </trkpt>
      <trkpt lat="0" lon="0">
        <time>2021-02-28T08:30:48.312000+00:00</time>
      </trkpt>
      <trkpt lat="47.30973" lon="-1.3969">
        <ele>122</ele>
        <time>2021-02-28T08:30:49.379000+00:00</time>
      </trkpt>
      <trkpt lat="0" lon="0">
        <time>2021-02-28T08:30:49.388000+00:00</time>
      </trkpt>
      <trkpt lat="0" lon="0">
        <time>2021-02-28T08:30:49.392000+00:00</time>
      </trkpt>
      <trkpt lat="0" lon="0">
        <time>2021-02-28T08:30:49.394000+00:00</time>
      </trkpt>
      <trkpt lat="47.30975" lon="-1.39686">
        <ele>122</ele>
        <time>2021-02-28T08:30:50.392000+00:00</time>
      </trkpt>
      <trkpt lat="0" lon="0">
        <time>2021-02-28T08:30:50.403000+00:00</time>
      </trkpt>
      <trkpt lat="0" lon="0">
        <time>2021-02-28T08:30:50.407000+00:00</time>
      </trkpt>
      <trkpt lat="0" lon="0">
        <time>2021-02-28T08:30:50.410000+00:00</time>
      </trkpt>
      <trkpt lat="47.30977" lon="-1.39683">
        <ele>122</ele>
        <time>2021-02-28T08:30:51.346000+00:00</time>
      </trkpt>
      <trkpt lat="0" lon="0">
        <time>2021-02-28T08:30:51.356000+00:00</time>
      </trkpt>
      <trkpt lat="0" lon="0">
        <time>2021-02-28T08:30:51.361000+00:00</time>
      </trkpt>
      <trkpt lat="0" lon="0">
        <time>2021-02-28T08:30:51.364000+00:00</time>
      </trkpt>
      <trkpt lat="47.30978" lon="-1.39679">
        <ele>122</ele>
        <time>2021-02-28T08:30:52.370000+00:00</time>
      </trkpt>
      <trkpt lat="0" lon="0">
        <time>2021-02-28T08:30:52.374000+00:00</time>
      </trkpt>
      <trkpt lat="0" lon="0">
        <time>2021-02-28T08:30:52.379000+00:00</time>
      </trkpt>
      <trkpt lat="0" lon="0">
        <time>2021-02-28T08:30:52.382000+00:00</time>
      </trkpt>
      <trkpt lat="47.3098" lon="-1.39675">
        <ele>122</ele>
        <time>2021-02-28T08:30:53.369000+00:00</time>
      </trkpt>
      <trkpt lat="0" lon="0">
        <time>2021-02-28T08:30:53.376000+00:00</time>
      </trkpt>
      <trkpt lat="0" lon="0">
        <time>2021-02-28T08:30:53.380000+00:00</time>
      </trkpt>
      <trkpt lat="0" lon="0">
        <time>2021-02-28T08:30:53.382000+00:00</time>
      </trkpt>
      <trkpt lat="47.30982" lon="-1.39672">
        <ele>123</ele>
        <time>2021-02-28T08:30:54.337000+00:00</time>
      </trkpt>
      <trkpt lat="0" lon="0">
        <time>2021-02-28T08:30:54.345000+00:00</time>
      </trkpt>
      <trkpt lat="0" lon="0">
        <time>2021-02-28T08:30:54.349000+00:00</time>
      </trkpt>
      <trkpt lat="0" lon="0">
        <time>2021-02-28T08:30:54.351000+00:00</time>
      </trkpt>
      <trkpt lat="47.30983" lon="-1.39668">
        <ele>123</ele>
        <time>2021-02-28T08:30:55.347000+00:00</time>
      </trkpt>
      <trkpt lat="0" lon="0">
        <time>2021-02-28T08:30:55.352000+00:00</time>
      </trkpt>
      <trkpt lat="0" lon="0">
        <time>2021-02-28T08:30:55.358000+00:00</time>
      </trkpt>
      <trkpt lat="0" lon="0">
        <time>2021-02-28T08:30:55.361000+00:00</time>
      </trkpt>
      <trkpt lat="47.30985" lon="-1.39664">
        <ele>123</ele>
        <time>2021-02-28T08:30:56.346000+00:00</time>
      </trkpt>
      <trkpt lat="0" lon="0">
        <time>2021-02-28T08:30:56.352000+00:00</time>
      </trkpt>
      <trkpt lat="0" lon="0">
        <time>2021-02-28T08:30:56.356000+00:00</time>
      </trkpt>
      <trkpt lat="0" lon="0">
        <time>2021-02-28T08:30:56.359000+00:00</time>
      </trkpt>
      <trkpt lat="47.30987" lon="-1.39659">
        <ele>123</ele>
        <time>2021-02-28T08:30:57.380000+00:00</time>
      </trkpt>
      <trkpt lat="0" lon="0">
        <time>2021-02-28T08:30:57.386000+00:00</time>
      </trkpt>
      <trkpt lat="0" lon="0">
        <time>2021-02-28T08:30:57.390000+00:00</time>
      </trkpt>
      <trkpt lat="0" lon="0">
        <time>2021-02-28T08:30:57.393000+00:00</time>
      </trkpt>
      <trkpt lat="47.30989" lon="-1.39655">
        <ele>123</ele>
        <time>2021-02-28T08:30:58.353000+00:00</time>
      </trkpt>
      <trkpt lat="0" lon="0">
        <time>2021-02-28T08:30:58.356000+00:00</time>
      </trkpt>
      <trkpt lat="0" lon="0">
        <time>2021-02-28T08:30:58.359000+00:00</time>
      </trkpt>
      <trkpt lat="0" lon="0">
        <time>2021-02-28T08:30:58.360000+00:00</time>
      </trkpt>
      <trkpt lat="47.30991" lon="-1.39651">
        <ele>123</ele>
        <time>2021-02-28T08:30:59.385000+00:00</time>
      </trkpt>
      <trkpt lat="0" lon="0">
        <time>2021-02-28T08:30:59.390000+00:00</time>
      </trkpt>
      <trkpt lat="0" lon="0">
        <time>2021-02-28T08:30:59.395000+00:00</time>
      </trkpt>
      <trkpt lat="0" lon="0">
        <time>2021-02-28T08:30:59.397000+00:00</time>
      </trkpt>
      <trkpt lat="47.30993" lon="-1.39646">
        <ele>123</ele>
        <time>2021-02-28T08:31:00.330000+00:00</time>
      </trkpt>
      <trkpt lat="0" lon="0">
        <time>2021-02-28T08:31:00.341000+00:00</time>
      </trkpt>
      <trkpt lat="0" lon="0">
        <time>2021-02-28T08:31:00.345000+00:00</time>
      </trkpt>
      <trkpt lat="0" lon="0">
        <time>2021-02-28T08:31:00.348000+00:00</time>
      </trkpt>
      <trkpt lat="47.30995" lon="-1.39642">
        <ele>123</ele>
        <time>2021-02-28T08:31:01.361000+00:00</time>
      </trkpt>
      <trkpt lat="0" lon="0">
        <time>2021-02-28T08:31:01.368000+00:00</time>
      </trkpt>
      <trkpt lat="0" lon="0">
        <time>2021-02-28T08:31:01.373000+00:00</time>
      </trkpt>
      <trkpt lat="0" lon="0">
        <time>2021-02-28T08:31:01.375000+00:00</time>
      </trkpt>
      <trkpt lat="47.30997" lon="-1.39637">
        <ele>123</ele>
        <time>2021-02-28T08:31:02.381000+00:00</time>
      </trkpt>
      <trkpt lat="0" lon="0">
        <time>2021-02-28T08:31:02.383000+00:00</time>
      </trkpt>
      <trkpt lat="0" lon="0">
        <time>2021-02-28T08:31:02.385000+00:00</time>
      </trkpt>
      <trkpt lat="0" lon="0">
        <time>2021-02-28T08:31:02.387000+00:00</time>
      </trkpt>
      <trkpt lat="47.30999" lon="-1.39632">
        <ele>123</ele>
        <time>2021-02-28T08:31:03.341000+00:00</time>
      </trkpt>
      <trkpt lat="0" lon="0">
        <time>2021-02-28T08:31:03.348000+00:00</time>
      </trkpt>
      <trkpt lat="0" lon="0">
        <time>2021-02-28T08:31:03.353000+00:00</time>
      </trkpt>
      <trkpt lat="0" lon="0">
        <time>2021-02-28T08:31:03.355000+00:00</time>
      </trkpt>
      <trkpt lat="47.31001" lon="-1.39628">
        <ele>123</ele>
        <time>2021-02-28T08:31:04.325000+00:00</time>
      </trkpt>
      <trkpt lat="0" lon="0">
        <time>2021-02-28T08:31:04.335000+00:00</time>
      </trkpt>
      <trkpt lat="0" lon="0">
        <time>2021-02-28T08:31:04.339000+00:00</time>
      </trkpt>
      <trkpt lat="0" lon="0">
        <time>2021-02-28T08:31:04.341000+00:00</time>
      </trkpt>
      <trkpt lat="47.31003" lon="-1.39623">
        <ele>123</ele>
        <time>2021-02-28T08:31:05.388000+00:00</time>
      </trkpt>
      <trkpt lat="0" lon="0">
        <time>2021-02-28T08:31:05.394000+00:00</time>
      </trkpt>
      <trkpt lat="0" lon="0">
        <time>2021-02-28T08:31:05.401000+00:00</time>
      </trkpt>
      <trkpt lat="0" lon="0">
        <time>2021-02-28T08:31:05.403000+00:00</time>
      </trkpt>
      <trkpt lat="47.31005" lon="-1.39619">
        <ele>123</ele>
        <time>2021-02-28T08:31:06.333000+00:00</time>
      </trkpt>
      <trkpt lat="0" lon="0">
        <time>2021-02-28T08:31:06.335000+00:00</time>
      </trkpt>
      <trkpt lat="0" lon="0">
        <time>2021-02-28T08:31:06.337000+00:00</time>
      </trkpt>
      <trkpt lat="0" lon="0">
        <time>2021-02-28T08:31:06.338000+00:00</time>
      </trkpt>
      <trkpt lat="47.31007" lon="-1.39614">
        <ele>123</ele>
        <time>2021-02-28T08:31:07.336000+00:00</time>
      </trkpt>
      <trkpt lat="0" lon="0">
        <time>2021-02-28T08:31:07.345000+00:00</time>
      </trkpt>
      <trkpt lat="0" lon="0">
        <time>2021-02-28T08:31:07.350000+00:00</time>
      </trkpt>
      <trkpt lat="0" lon="0">
        <time>2021-02-28T08:31:07.352000+00:00</time>
      </trkpt>
      <trkpt lat="47.3101" lon="-1.3961">
        <ele>123</ele>
        <time>2021-02-28T08:31:08.336000+00:00</time>
      </trkpt>
      <trkpt lat="0" lon="0">
        <time>2021-02-28T08:31:08.344000+00:00</time>
      </trkpt>
      <trkpt lat="0" lon="0">
        <time>2021-02-28T08:31:08.349000+00:00</time>
      </trkpt>
      <trkpt lat="0" lon="0">
        <time>2021-02-28T08:31:08.351000+00:00</time>
      </trkpt>
      <trkpt lat="47.31012" lon="-1.39605">
        <ele>123</ele>
        <time>2021-02-28T08:31:09.377000+00:00</time>
      </trkpt>
      <trkpt lat="0" lon="0">
        <time>2021-02-28T08:31:09.381000+00:00</time>
      </trkpt>
      <trkpt lat="0" lon="0">
        <time>2021-02-28T08:31:09.386000+00:00</time>
      </trkpt>
      <trkpt lat="0" lon="0">
        <time>2021-02-28T08:31:09.387000+00:00</time>
      </trkpt>
      <trkpt lat="47.31014" lon="-1.39601">
        <ele>123</ele>
        <time>2021-02-28T08:31:10.342000+00:00</time>
      </trkpt>
      <trkpt lat="0" lon="0">
        <time>2021-02-28T08:31:10.345000+00:00</time>
      </trkpt>
      <trkpt lat="0" lon="0">
        <time>2021-02-28T08:31:10.347000+00:00</time>
      </trkpt>
      <trkpt lat="47.31016" lon="-1.39596">
        <ele>123</ele>
        <time>2021-02-28T08:31:11.340000+00:00</time>
      </trkpt>
      <trkpt lat="0" lon="0">
        <time>2021-02-28T08:31:11.349000+00:00</time>
      </trkpt>
      <trkpt lat="0" lon="0">
        <time>2021-02-28T08:31:11.353000+00:00</time>
      </trkpt>
      <trkpt lat="0" lon="0">
        <time>2021-02-28T08:31:11.356000+00:00</time>
      </trkpt>
      <trkpt lat="47.31019" lon="-1.39591">
        <ele>123</ele>
        <time>2021-02-28T08:31:12.383000+00:00</time>
      </trkpt>
      <trkpt lat="0" lon="0">
        <time>2021-02-28T08:31:12.395000+00:00</time>
      </trkpt>
      <trkpt lat="0" lon="0">
        <time>2021-02-28T08:31:12.399000+00:00</time>
      </trkpt>
      <trkpt lat="0" lon="0">
        <time>2021-02-28T08:31:12.402000+00:00</time>
      </trkpt>
      <trkpt lat="47.31021" lon="-1.39587">
        <ele>123</ele>
        <time>2021-02-28T08:31:13.375000+00:00</time>
      </trkpt>
      <trkpt lat="0" lon="0">
        <time>2021-02-28T08:31:13.380000+00:00</time>
      </trkpt>
      <trkpt lat="0" lon="0">
        <time>2021-02-28T08:31:13.385000+00:00</time>
      </trkpt>
      <trkpt lat="0" lon="0">
        <time>2021-02-28T08:31:13.387000+00:00</time>
      </trkpt>
      <trkpt lat="47.31023" lon="-1.39583">
        <ele>123</ele>
        <time>2021-02-28T08:31:14.349000+00:00</time>
      </trkpt>
      <trkpt lat="0" lon="0">
        <time>2021-02-28T08:31:14.353000+00:00</time>
      </trkpt>
      <trkpt lat="0" lon="0">
        <time>2021-02-28T08:31:14.355000+00:00</time>
      </trkpt>
      <trkpt lat="0" lon="0">
        <time>2021-02-28T08:31:14.356000+00:00</time>
      </trkpt>
      <trkpt lat="47.31025" lon="-1.39578">
        <ele>123</ele>
        <time>2021-02-28T08:31:15.364000+00:00</time>
      </trkpt>
      <trkpt lat="0" lon="0">
        <time>2021-02-28T08:31:15.376000+00:00</time>
      </trkpt>
      <trkpt lat="0" lon="0">
        <time>2021-02-28T08:31:15.381000+00:00</time>
      </trkpt>
      <trkpt lat="0" lon="0">
        <time>2021-02-28T08:31:15.383000+00:00</time>
      </trkpt>
      <trkpt lat="47.31027" lon="-1.39573">
        <ele>123</ele>
        <time>2021-02-28T08:31:16.339000+00:00</time>
      </trkpt>
      <trkpt lat="0" lon="0">
        <time>2021-02-28T08:31:16.347000+00:00</time>
      </trkpt>
      <trkpt lat="0" lon="0">
        <time>2021-02-28T08:31:16.353000+00:00</time>
      </trkpt>
      <trkpt lat="0" lon="0">
        <time>2021-02-28T08:31:16.355000+00:00</time>
      </trkpt>
      <trkpt lat="47.31029" lon="-1.39569">
        <ele>123</ele>
        <time>2021-02-28T08:31:17.323000+00:00</time>
      </trkpt>
      <trkpt lat="0" lon="0">
        <time>2021-02-28T08:31:17.329000+00:00</time>
      </trkpt>
      <trkpt lat="0" lon="0">
        <time>2021-02-28T08:31:17.340000+00:00</time>
      </trkpt>
      <trkpt lat="0" lon="0">
        <time>2021-02-28T08:31:17.342000+00:00</time>
      </trkpt>
      <trkpt lat="47.31031" lon="-1.39564">
        <ele>123</ele>
        <time>2021-02-28T08:31:18.337000+00:00</time>
      </trkpt>
      <trkpt lat="0" lon="0">
        <time>2021-02-28T08:31:18.345000+00:00</time>
      </trkpt>
      <trkpt lat="0" lon="0">
        <time>2021-02-28T08:31:18.351000+00:00</time>
      </trkpt>
      <trkpt lat="0" lon="0">
        <time>2021-02-28T08:31:18.352000+00:00</time>
      </trkpt>
      <trkpt lat="47.31032" lon="-1.39559">
        <ele>123</ele>
        <time>2021-02-28T08:31:19.320000+00:00</time>
      </trkpt>
      <trkpt lat="0" lon="0">
        <time>2021-02-28T08:31:19.328000+00:00</time>
      </trkpt>
      <trkpt lat="0" lon="0">
        <time>2021-02-28T08:31:19.333000+00:00</time>
      </trkpt>
      <trkpt lat="0" lon="0">
        <time>2021-02-28T08:31:19.335000+00:00</time>
      </trkpt>
      <trkpt lat="47.31034" lon="-1.39554">
        <ele>124</ele>
        <time>2021-02-28T08:31:20.367000+00:00</time>
      </trkpt>
      <trkpt lat="0" lon="0">
        <time>2021-02-28T08:31:20.374000+00:00</time>
      </trkpt>
      <trkpt lat="0" lon="0">
        <time>2021-02-28T08:31:20.378000+00:00</time>
      </trkpt>
      <trkpt lat="0" lon="0">
        <time>2021-02-28T08:31:20.381000+00:00</time>
      </trkpt>
      <trkpt lat="47.31036" lon="-1.3955">
        <ele>124</ele>
        <time>2021-02-28T08:31:21.347000+00:00</time>
      </trkpt>
      <trkpt lat="0" lon="0">
        <time>2021-02-28T08:31:21.351000+00:00</time>
      </trkpt>
      <trkpt lat="0" lon="0">
        <time>2021-02-28T08:31:21.356000+00:00</time>
      </trkpt>
      <trkpt lat="0" lon="0">
        <time>2021-02-28T08:31:21.358000+00:00</time>
      </trkpt>
      <trkpt lat="47.31038" lon="-1.39545">
        <ele>124</ele>
        <time>2021-02-28T08:31:22.356000+00:00</time>
      </trkpt>
      <trkpt lat="0" lon="0">
        <time>2021-02-28T08:31:22.358000+00:00</time>
      </trkpt>
      <trkpt lat="0" lon="0">
        <time>2021-02-28T08:31:22.360000+00:00</time>
      </trkpt>
      <trkpt lat="0" lon="0">
        <time>2021-02-28T08:31:22.366000+00:00</time>
      </trkpt>
      <trkpt lat="47.3104" lon="-1.3954">
        <ele>124</ele>
        <time>2021-02-28T08:31:23.328000+00:00</time>
      </trkpt>
      <trkpt lat="0" lon="0">
        <time>2021-02-28T08:31:23.341000+00:00</time>
      </trkpt>
      <trkpt lat="0" lon="0">
        <time>2021-02-28T08:31:23.349000+00:00</time>
      </trkpt>
      <trkpt lat="0" lon="0">
        <time>2021-02-28T08:31:23.353000+00:00</time>
      </trkpt>
      <trkpt lat="47.31041" lon="-1.39536">
        <ele>124</ele>
        <time>2021-02-28T08:31:24.381000+00:00</time>
      </trkpt>
      <trkpt lat="0" lon="0">
        <time>2021-02-28T08:31:24.391000+00:00</time>
      </trkpt>
      <trkpt lat="0" lon="0">
        <time>2021-02-28T08:31:24.396000+00:00</time>
      </trkpt>
      <trkpt lat="0" lon="0">
        <time>2021-02-28T08:31:24.399000+00:00</time>
      </trkpt>
      <trkpt lat="47.31043" lon="-1.39531">
        <ele>124</ele>
        <time>2021-02-28T08:31:25.318000+00:00</time>
      </trkpt>
      <trkpt lat="0" lon="0">
        <time>2021-02-28T08:31:25.326000+00:00</time>
      </trkpt>
      <trkpt lat="0" lon="0">
        <time>2021-02-28T08:31:25.328000+00:00</time>
      </trkpt>
      <trkpt lat="0" lon="0">
        <time>2021-02-28T08:31:25.330000+00:00</time>
      </trkpt>
      <trkpt lat="47.31045" lon="-1.39526">
        <ele>124</ele>
        <time>2021-02-28T08:31:26.364000+00:00</time>
      </trkpt>
      <trkpt lat="0" lon="0">
        <time>2021-02-28T08:31:26.373000+00:00</time>
      </trkpt>
      <trkpt lat="0" lon="0">
        <time>2021-02-28T08:31:26.377000+00:00</time>
      </trkpt>
      <trkpt lat="0" lon="0">
        <time>2021-02-28T08:31:26.380000+00:00</time>
      </trkpt>
      <trkpt lat="47.31046" lon="-1.39521">
        <ele>124</ele>
        <time>2021-02-28T08:31:27.366000+00:00</time>
      </trkpt>
      <trkpt lat="0" lon="0">
        <time>2021-02-28T08:31:27.372000+00:00</time>
      </trkpt>
      <trkpt lat="0" lon="0">
        <time>2021-02-28T08:31:27.376000+00:00</time>
      </trkpt>
      <trkpt lat="0" lon="0">
        <time>2021-02-28T08:31:27.378000+00:00</time>
      </trkpt>
      <trkpt lat="47.31048" lon="-1.39517">
        <ele>124</ele>
        <time>2021-02-28T08:31:28.324000+00:00</time>
      </trkpt>
      <trkpt lat="0" lon="0">
        <time>2021-02-28T08:31:28.326000+00:00</time>
      </trkpt>
      <trkpt lat="0" lon="0">
        <time>2021-02-28T08:31:28.329000+00:00</time>
      </trkpt>
      <trkpt lat="0" lon="0">
        <time>2021-02-28T08:31:28.330000+00:00</time>
      </trkpt>
      <trkpt lat="47.3105" lon="-1.39512">
        <ele>124</ele>
        <time>2021-02-28T08:31:29.342000+00:00</time>
      </trkpt>
      <trkpt lat="0" lon="0">
        <time>2021-02-28T08:31:29.351000+00:00</time>
      </trkpt>
      <trkpt lat="0" lon="0">
        <time>2021-02-28T08:31:29.358000+00:00</time>
      </trkpt>
      <trkpt lat="0" lon="0">
        <time>2021-02-28T08:31:29.359000+00:00</time>
      </trkpt>
      <trkpt lat="47.31052" lon="-1.39508">
        <ele>124</ele>
        <time>2021-02-28T08:31:30.335000+00:00</time>
      </trkpt>
      <trkpt lat="0" lon="0">
        <time>2021-02-28T08:31:30.350000+00:00</time>
      </trkpt>
      <trkpt lat="0" lon="0">
        <time>2021-02-28T08:31:30.359000+00:00</time>
      </trkpt>
      <trkpt lat="0" lon="0">
        <time>2021-02-28T08:31:30.360000+00:00</time>
      </trkpt>
      <trkpt lat="47.31054" lon="-1.39503">
        <ele>125</ele>
        <time>2021-02-28T08:31:31.351000+00:00</time>
      </trkpt>
      <trkpt lat="0" lon="0">
        <time>2021-02-28T08:31:31.364000+00:00</time>
      </trkpt>
      <trkpt lat="0" lon="0">
        <time>2021-02-28T08:31:31.370000+00:00</time>
      </trkpt>
      <trkpt lat="0" lon="0">
        <time>2021-02-28T08:31:31.372000+00:00</time>
      </trkpt>
      <trkpt lat="47.31056" lon="-1.39498">
        <ele>124</ele>
        <time>2021-02-28T08:31:32.339000+00:00</time>
      </trkpt>
      <trkpt lat="0" lon="0">
        <time>2021-02-28T08:31:32.345000+00:00</time>
      </trkpt>
      <trkpt lat="0" lon="0">
        <time>2021-02-28T08:31:32.349000+00:00</time>
      </trkpt>
      <trkpt lat="0" lon="0">
        <time>2021-02-28T08:31:32.351000+00:00</time>
      </trkpt>
      <trkpt lat="47.31057" lon="-1.39494">
        <ele>125</ele>
        <time>2021-02-28T08:31:33.361000+00:00</time>
      </trkpt>
      <trkpt lat="0" lon="0">
        <time>2021-02-28T08:31:33.365000+00:00</time>
      </trkpt>
      <trkpt lat="0" lon="0">
        <time>2021-02-28T08:31:33.369000+00:00</time>
      </trkpt>
      <trkpt lat="0" lon="0">
        <time>2021-02-28T08:31:33.371000+00:00</time>
      </trkpt>
      <trkpt lat="47.31059" lon="-1.39489">
        <ele>125</ele>
        <time>2021-02-28T08:31:34.345000+00:00</time>
      </trkpt>
      <trkpt lat="0" lon="0">
        <time>2021-02-28T08:31:34.346000+00:00</time>
      </trkpt>
      <trkpt lat="0" lon="0">
        <time>2021-02-28T08:31:34.348000+00:00</time>
      </trkpt>
      <trkpt lat="47.31061" lon="-1.39484">
        <ele>125</ele>
        <time>2021-02-28T08:31:35.346000+00:00</time>
      </trkpt>
      <trkpt lat="0" lon="0">
        <time>2021-02-28T08:31:35.349000+00:00</time>
      </trkpt>
      <trkpt lat="0" lon="0">
        <time>2021-02-28T08:31:35.352000+00:00</time>
      </trkpt>
      <trkpt lat="0" lon="0">
        <time>2021-02-28T08:31:35.353000+00:00</time>
      </trkpt>
      <trkpt lat="47.31063" lon="-1.3948">
        <ele>124</ele>
        <time>2021-02-28T08:31:36.342000+00:00</time>
      </trkpt>
      <trkpt lat="0" lon="0">
        <time>2021-02-28T08:31:36.348000+00:00</time>
      </trkpt>
      <trkpt lat="0" lon="0">
        <time>2021-02-28T08:31:36.353000+00:00</time>
      </trkpt>
      <trkpt lat="0" lon="0">
        <time>2021-02-28T08:31:36.355000+00:00</time>
      </trkpt>
      <trkpt lat="47.31064" lon="-1.39475">
        <ele>125</ele>
        <time>2021-02-28T08:31:37.340000+00:00</time>
      </trkpt>
      <trkpt lat="0" lon="0">
        <time>2021-02-28T08:31:37.342000+00:00</time>
      </trkpt>
      <trkpt lat="0" lon="0">
        <time>2021-02-28T08:31:37.344000+00:00</time>
      </trkpt>
      <trkpt lat="0" lon="0">
        <time>2021-02-28T08:31:37.345000+00:00</time>
      </trkpt>
      <trkpt lat="47.31066" lon="-1.3947">
        <ele>125</ele>
        <time>2021-02-28T08:31:38.278000+00:00</time>
      </trkpt>
      <trkpt lat="0" lon="0">
        <time>2021-02-28T08:31:38.283000+00:00</time>
      </trkpt>
      <trkpt lat="0" lon="0">
        <time>2021-02-28T08:31:38.286000+00:00</time>
      </trkpt>
      <trkpt lat="0" lon="0">
        <time>2021-02-28T08:31:38.288000+00:00</time>
      </trkpt>
      <trkpt lat="47.31067" lon="-1.39465">
        <ele>125</ele>
        <time>2021-02-28T08:31:39.353000+00:00</time>
      </trkpt>
      <trkpt lat="0" lon="0">
        <time>2021-02-28T08:31:39.357000+00:00</time>
      </trkpt>
      <trkpt lat="0" lon="0">
        <time>2021-02-28T08:31:39.366000+00:00</time>
      </trkpt>
      <trkpt lat="0" lon="0">
        <time>2021-02-28T08:31:39.368000+00:00</time>
      </trkpt>
      <trkpt lat="47.31068" lon="-1.39461">
        <ele>125</ele>
        <time>2021-02-28T08:31:40.339000+00:00</time>
      </trkpt>
      <trkpt lat="0" lon="0">
        <time>2021-02-28T08:31:40.345000+00:00</time>
      </trkpt>
      <trkpt lat="0" lon="0">
        <time>2021-02-28T08:31:40.347000+00:00</time>
      </trkpt>
      <trkpt lat="0" lon="0">
        <time>2021-02-28T08:31:40.348000+00:00</time>
      </trkpt>
      <trkpt lat="47.31069" lon="-1.39456">
        <ele>125</ele>
        <time>2021-02-28T08:31:41.354000+00:00</time>
      </trkpt>
      <trkpt lat="0" lon="0">
        <time>2021-02-28T08:31:41.367000+00:00</time>
      </trkpt>
      <trkpt lat="0" lon="0">
        <time>2021-02-28T08:31:41.377000+00:00</time>
      </trkpt>
      <trkpt lat="0" lon="0">
        <time>2021-02-28T08:31:41.379000+00:00</time>
      </trkpt>
      <trkpt lat="47.31069" lon="-1.39451">
        <ele>125</ele>
        <time>2021-02-28T08:31:42.355000+00:00</time>
      </trkpt>
      <trkpt lat="0" lon="0">
        <time>2021-02-28T08:31:42.360000+00:00</time>
      </trkpt>
      <trkpt lat="0" lon="0">
        <time>2021-02-28T08:31:42.365000+00:00</time>
      </trkpt>
      <trkpt lat="0" lon="0">
        <time>2021-02-28T08:31:42.368000+00:00</time>
      </trkpt>
      <trkpt lat="47.3107" lon="-1.39447">
        <ele>126</ele>
        <time>2021-02-28T08:31:43.347000+00:00</time>
      </trkpt>
      <trkpt lat="0" lon="0">
        <time>2021-02-28T08:31:43.354000+00:00</time>
      </trkpt>
      <trkpt lat="0" lon="0">
        <time>2021-02-28T08:31:43.366000+00:00</time>
      </trkpt>
      <trkpt lat="0" lon="0">
        <time>2021-02-28T08:31:43.368000+00:00</time>
      </trkpt>
      <trkpt lat="47.3107" lon="-1.39442">
        <ele>126</ele>
        <time>2021-02-28T08:31:44.332000+00:00</time>
      </trkpt>
      <trkpt lat="0" lon="0">
        <time>2021-02-28T08:31:44.338000+00:00</time>
      </trkpt>
      <trkpt lat="0" lon="0">
        <time>2021-02-28T08:31:44.340000+00:00</time>
      </trkpt>
      <trkpt lat="0" lon="0">
        <time>2021-02-28T08:31:44.341000+00:00</time>
      </trkpt>
      <trkpt lat="47.31071" lon="-1.39438">
        <ele>126</ele>
        <time>2021-02-28T08:31:45.334000+00:00</time>
      </trkpt>
      <trkpt lat="0" lon="0">
        <time>2021-02-28T08:31:45.342000+00:00</time>
      </trkpt>
      <trkpt lat="0" lon="0">
        <time>2021-02-28T08:31:45.355000+00:00</time>
      </trkpt>
      <trkpt lat="0" lon="0">
        <time>2021-02-28T08:31:45.357000+00:00</time>
      </trkpt>
      <trkpt lat="47.31071" lon="-1.39434">
        <ele>126</ele>
        <time>2021-02-28T08:31:46.343000+00:00</time>
      </trkpt>
      <trkpt lat="0" lon="0">
        <time>2021-02-28T08:31:46.353000+00:00</time>
      </trkpt>
      <trkpt lat="0" lon="0">
        <time>2021-02-28T08:31:46.358000+00:00</time>
      </trkpt>
      <trkpt lat="0" lon="0">
        <time>2021-02-28T08:31:46.361000+00:00</time>
      </trkpt>
      <trkpt lat="47.31071" lon="-1.3943">
        <ele>126</ele>
        <time>2021-02-28T08:31:47.330000+00:00</time>
      </trkpt>
      <trkpt lat="0" lon="0">
        <time>2021-02-28T08:31:47.334000+00:00</time>
      </trkpt>
      <trkpt lat="0" lon="0">
        <time>2021-02-28T08:31:47.339000+00:00</time>
      </trkpt>
      <trkpt lat="0" lon="0">
        <time>2021-02-28T08:31:47.344000+00:00</time>
      </trkpt>
      <trkpt lat="47.31071" lon="-1.39426">
        <ele>127</ele>
        <time>2021-02-28T08:31:48.340000+00:00</time>
      </trkpt>
      <trkpt lat="0" lon="0">
        <time>2021-02-28T08:31:48.345000+00:00</time>
      </trkpt>
      <trkpt lat="0" lon="0">
        <time>2021-02-28T08:31:48.347000+00:00</time>
      </trkpt>
      <trkpt lat="0" lon="0">
        <time>2021-02-28T08:31:48.348000+00:00</time>
      </trkpt>
      <trkpt lat="47.31071" lon="-1.39422">
        <ele>127</ele>
        <time>2021-02-28T08:31:49.344000+00:00</time>
      </trkpt>
      <trkpt lat="0" lon="0">
        <time>2021-02-28T08:31:49.351000+00:00</time>
      </trkpt>
      <trkpt lat="0" lon="0">
        <time>2021-02-28T08:31:49.355000+00:00</time>
      </trkpt>
      <trkpt lat="0" lon="0">
        <time>2021-02-28T08:31:49.357000+00:00</time>
      </trkpt>
      <trkpt lat="47.31071" lon="-1.39419">
        <ele>127</ele>
        <time>2021-02-28T08:31:50.315000+00:00</time>
      </trkpt>
      <trkpt lat="0" lon="0">
        <time>2021-02-28T08:31:50.320000+00:00</time>
      </trkpt>
      <trkpt lat="0" lon="0">
        <time>2021-02-28T08:31:50.327000+00:00</time>
      </trkpt>
      <trkpt lat="0" lon="0">
        <time>2021-02-28T08:31:50.330000+00:00</time>
      </trkpt>
      <trkpt lat="47.3107" lon="-1.39415">
        <ele>128</ele>
        <time>2021-02-28T08:31:51.336000+00:00</time>
      </trkpt>
      <trkpt lat="0" lon="0">
        <time>2021-02-28T08:31:51.340000+00:00</time>
      </trkpt>
      <trkpt lat="0" lon="0">
        <time>2021-02-28T08:31:51.342000+00:00</time>
      </trkpt>
      <trkpt lat="0" lon="0">
        <time>2021-02-28T08:31:51.344000+00:00</time>
      </trkpt>
      <trkpt lat="47.3107" lon="-1.39411">
        <ele>128</ele>
        <time>2021-02-28T08:31:52.337000+00:00</time>
      </trkpt>
      <trkpt lat="0" lon="0">
        <time>2021-02-28T08:31:52.340000+00:00</time>
      </trkpt>
      <trkpt lat="0" lon="0">
        <time>2021-02-28T08:31:52.345000+00:00</time>
      </trkpt>
      <trkpt lat="0" lon="0">
        <time>2021-02-28T08:31:52.347000+00:00</time>
      </trkpt>
      <trkpt lat="47.31069" lon="-1.39407">
        <ele>128</ele>
        <time>2021-02-28T08:31:53.356000+00:00</time>
      </trkpt>
      <trkpt lat="0" lon="0">
        <time>2021-02-28T08:31:53.366000+00:00</time>
      </trkpt>
      <trkpt lat="0" lon="0">
        <time>2021-02-28T08:31:53.368000+00:00</time>
      </trkpt>
      <trkpt lat="0" lon="0">
        <time>2021-02-28T08:31:53.369000+00:00</time>
      </trkpt>
      <trkpt lat="47.31069" lon="-1.39403">
        <ele>129</ele>
        <time>2021-02-28T08:31:54.365000+00:00</time>
      </trkpt>
      <trkpt lat="0" lon="0">
        <time>2021-02-28T08:31:54.369000+00:00</time>
      </trkpt>
      <trkpt lat="0" lon="0">
        <time>2021-02-28T08:31:54.380000+00:00</time>
      </trkpt>
      <trkpt lat="0" lon="0">
        <time>2021-02-28T08:31:54.382000+00:00</time>
      </trkpt>
      <trkpt lat="47.31068" lon="-1.39399">
        <ele>129</ele>
        <time>2021-02-28T08:31:55.361000+00:00</time>
      </trkpt>
      <trkpt lat="0" lon="0">
        <time>2021-02-28T08:31:55.367000+00:00</time>
      </trkpt>
      <trkpt lat="0" lon="0">
        <time>2021-02-28T08:31:55.371000+00:00</time>
      </trkpt>
      <trkpt lat="0" lon="0">
        <time>2021-02-28T08:31:55.375000+00:00</time>
      </trkpt>
      <trkpt lat="47.31067" lon="-1.39395">
        <ele>130</ele>
        <time>2021-02-28T08:31:56.336000+00:00</time>
      </trkpt>
      <trkpt lat="0" lon="0">
        <time>2021-02-28T08:31:56.338000+00:00</time>
      </trkpt>
      <trkpt lat="0" lon="0">
        <time>2021-02-28T08:31:56.340000+00:00</time>
      </trkpt>
      <trkpt lat="0" lon="0">
        <time>2021-02-28T08:31:56.341000+00:00</time>
      </trkpt>
      <trkpt lat="47.31067" lon="-1.3939">
        <ele>130</ele>
        <time>2021-02-28T08:31:57.357000+00:00</time>
      </trkpt>
      <trkpt lat="0" lon="0">
        <time>2021-02-28T08:31:57.364000+00:00</time>
      </trkpt>
      <trkpt lat="0" lon="0">
        <time>2021-02-28T08:31:57.365000+00:00</time>
      </trkpt>
      <trkpt lat="0" lon="0">
        <time>2021-02-28T08:31:57.366000+00:00</time>
      </trkpt>
      <trkpt lat="47.31066" lon="-1.39386">
        <ele>130</ele>
        <time>2021-02-28T08:31:58.370000+00:00</time>
      </trkpt>
      <trkpt lat="0" lon="0">
        <time>2021-02-28T08:31:58.379000+00:00</time>
      </trkpt>
      <trkpt lat="0" lon="0">
        <time>2021-02-28T08:31:58.384000+00:00</time>
      </trkpt>
      <trkpt lat="0" lon="0">
        <time>2021-02-28T08:31:58.386000+00:00</time>
      </trkpt>
      <trkpt lat="47.31065" lon="-1.39382">
        <ele>131</ele>
        <time>2021-02-28T08:31:59.370000+00:00</time>
      </trkpt>
      <trkpt lat="0" lon="0">
        <time>2021-02-28T08:31:59.382000+00:00</time>
      </trkpt>
      <trkpt lat="0" lon="0">
        <time>2021-02-28T08:31:59.386000+00:00</time>
      </trkpt>
      <trkpt lat="0" lon="0">
        <time>2021-02-28T08:31:59.390000+00:00</time>
      </trkpt>
      <trkpt lat="47.31064" lon="-1.39377">
        <ele>131</ele>
        <time>2021-02-28T08:32:00.359000+00:00</time>
      </trkpt>
      <trkpt lat="0" lon="0">
        <time>2021-02-28T08:32:00.373000+00:00</time>
      </trkpt>
      <trkpt lat="0" lon="0">
        <time>2021-02-28T08:32:00.378000+00:00</time>
      </trkpt>
      <trkpt lat="0" lon="0">
        <time>2021-02-28T08:32:00.381000+00:00</time>
      </trkpt>
      <trkpt lat="47.31064" lon="-1.39373">
        <ele>131</ele>
        <time>2021-02-28T08:32:01.347000+00:00</time>
      </trkpt>
      <trkpt lat="0" lon="0">
        <time>2021-02-28T08:32:01.352000+00:00</time>
      </trkpt>
      <trkpt lat="0" lon="0">
        <time>2021-02-28T08:32:01.356000+00:00</time>
      </trkpt>
      <trkpt lat="0" lon="0">
        <time>2021-02-28T08:32:01.358000+00:00</time>
      </trkpt>
      <trkpt lat="47.31063" lon="-1.39368">
        <ele>131</ele>
        <time>2021-02-28T08:32:02.357000+00:00</time>
      </trkpt>
      <trkpt lat="0" lon="0">
        <time>2021-02-28T08:32:02.367000+00:00</time>
      </trkpt>
      <trkpt lat="0" lon="0">
        <time>2021-02-28T08:32:02.372000+00:00</time>
      </trkpt>
      <trkpt lat="0" lon="0">
        <time>2021-02-28T08:32:02.374000+00:00</time>
      </trkpt>
      <trkpt lat="47.31062" lon="-1.39364">
        <ele>132</ele>
        <time>2021-02-28T08:32:03.387000+00:00</time>
      </trkpt>
      <trkpt lat="0" lon="0">
        <time>2021-02-28T08:32:03.391000+00:00</time>
      </trkpt>
      <trkpt lat="0" lon="0">
        <time>2021-02-28T08:32:03.398000+00:00</time>
      </trkpt>
      <trkpt lat="0" lon="0">
        <time>2021-02-28T08:32:03.399000+00:00</time>
      </trkpt>
      <trkpt lat="47.31062" lon="-1.39359">
        <ele>132</ele>
        <time>2021-02-28T08:32:04.336000+00:00</time>
      </trkpt>
      <trkpt lat="0" lon="0">
        <time>2021-02-28T08:32:04.341000+00:00</time>
      </trkpt>
      <trkpt lat="0" lon="0">
        <time>2021-02-28T08:32:04.346000+00:00</time>
      </trkpt>
      <trkpt lat="0" lon="0">
        <time>2021-02-28T08:32:04.347000+00:00</time>
      </trkpt>
      <trkpt lat="47.31061" lon="-1.39354">
        <ele>133</ele>
        <time>2021-02-28T08:32:05.365000+00:00</time>
      </trkpt>
      <trkpt lat="0" lon="0">
        <time>2021-02-28T08:32:05.378000+00:00</time>
      </trkpt>
      <trkpt lat="0" lon="0">
        <time>2021-02-28T08:32:05.380000+00:00</time>
      </trkpt>
      <trkpt lat="0" lon="0">
        <time>2021-02-28T08:32:05.381000+00:00</time>
      </trkpt>
      <trkpt lat="47.31061" lon="-1.39349">
        <ele>133</ele>
        <time>2021-02-28T08:32:06.372000+00:00</time>
      </trkpt>
      <trkpt lat="0" lon="0">
        <time>2021-02-28T08:32:06.377000+00:00</time>
      </trkpt>
      <trkpt lat="0" lon="0">
        <time>2021-02-28T08:32:06.382000+00:00</time>
      </trkpt>
      <trkpt lat="0" lon="0">
        <time>2021-02-28T08:32:06.385000+00:00</time>
      </trkpt>
      <trkpt lat="47.3106" lon="-1.39344">
        <ele>133</ele>
        <time>2021-02-28T08:32:07.366000+00:00</time>
      </trkpt>
      <trkpt lat="0" lon="0">
        <time>2021-02-28T08:32:07.373000+00:00</time>
      </trkpt>
      <trkpt lat="0" lon="0">
        <time>2021-02-28T08:32:07.378000+00:00</time>
      </trkpt>
      <trkpt lat="0" lon="0">
        <time>2021-02-28T08:32:07.380000+00:00</time>
      </trkpt>
      <trkpt lat="47.3106" lon="-1.39339">
        <ele>133</ele>
        <time>2021-02-28T08:32:08.355000+00:00</time>
      </trkpt>
      <trkpt lat="0" lon="0">
        <time>2021-02-28T08:32:08.370000+00:00</time>
      </trkpt>
      <trkpt lat="0" lon="0">
        <time>2021-02-28T08:32:08.376000+00:00</time>
      </trkpt>
      <trkpt lat="0" lon="0">
        <time>2021-02-28T08:32:08.378000+00:00</time>
      </trkpt>
      <trkpt lat="47.31059" lon="-1.39334">
        <ele>133</ele>
        <time>2021-02-28T08:32:09.375000+00:00</time>
      </trkpt>
      <trkpt lat="0" lon="0">
        <time>2021-02-28T08:32:09.382000+00:00</time>
      </trkpt>
      <trkpt lat="0" lon="0">
        <time>2021-02-28T08:32:09.388000+00:00</time>
      </trkpt>
      <trkpt lat="0" lon="0">
        <time>2021-02-28T08:32:09.391000+00:00</time>
      </trkpt>
      <trkpt lat="47.31059" lon="-1.39329">
        <ele>133</ele>
        <time>2021-02-28T08:32:10.335000+00:00</time>
      </trkpt>
      <trkpt lat="0" lon="0">
        <time>2021-02-28T08:32:10.341000+00:00</time>
      </trkpt>
      <trkpt lat="0" lon="0">
        <time>2021-02-28T08:32:10.346000+00:00</time>
      </trkpt>
      <trkpt lat="0" lon="0">
        <time>2021-02-28T08:32:10.349000+00:00</time>
      </trkpt>
      <trkpt lat="47.31058" lon="-1.39324">
        <ele>133</ele>
        <time>2021-02-28T08:32:11.371000+00:00</time>
      </trkpt>
      <trkpt lat="0" lon="0">
        <time>2021-02-28T08:32:11.376000+00:00</time>
      </trkpt>
      <trkpt lat="0" lon="0">
        <time>2021-02-28T08:32:11.387000+00:00</time>
      </trkpt>
      <trkpt lat="0" lon="0">
        <time>2021-02-28T08:32:11.389000+00:00</time>
      </trkpt>
      <trkpt lat="47.31058" lon="-1.39319">
        <ele>133</ele>
        <time>2021-02-28T08:32:12.375000+00:00</time>
      </trkpt>
      <trkpt lat="0" lon="0">
        <time>2021-02-28T08:32:12.377000+00:00</time>
      </trkpt>
      <trkpt lat="0" lon="0">
        <time>2021-02-28T08:32:12.379000+00:00</time>
      </trkpt>
      <trkpt lat="0" lon="0">
        <time>2021-02-28T08:32:12.380000+00:00</time>
      </trkpt>
      <trkpt lat="47.31057" lon="-1.39314">
        <ele>133</ele>
        <time>2021-02-28T08:32:13.377000+00:00</time>
      </trkpt>
      <trkpt lat="0" lon="0">
        <time>2021-02-28T08:32:13.389000+00:00</time>
      </trkpt>
      <trkpt lat="0" lon="0">
        <time>2021-02-28T08:32:13.398000+00:00</time>
      </trkpt>
      <trkpt lat="0" lon="0">
        <time>2021-02-28T08:32:13.401000+00:00</time>
      </trkpt>
      <trkpt lat="47.31057" lon="-1.39308">
        <ele>133</ele>
        <time>2021-02-28T08:32:14.354000+00:00</time>
      </trkpt>
      <trkpt lat="0" lon="0">
        <time>2021-02-28T08:32:14.362000+00:00</time>
      </trkpt>
      <trkpt lat="0" lon="0">
        <time>2021-02-28T08:32:14.363000+00:00</time>
      </trkpt>
      <trkpt lat="0" lon="0">
        <time>2021-02-28T08:32:14.364000+00:00</time>
      </trkpt>
      <trkpt lat="47.31057" lon="-1.39303">
        <ele>133</ele>
        <time>2021-02-28T08:32:15.341000+00:00</time>
      </trkpt>
      <trkpt lat="0" lon="0">
        <time>2021-02-28T08:32:15.343000+00:00</time>
      </trkpt>
      <trkpt lat="0" lon="0">
        <time>2021-02-28T08:32:15.345000+00:00</time>
      </trkpt>
      <trkpt lat="0" lon="0">
        <time>2021-02-28T08:32:15.347000+00:00</time>
      </trkpt>
      <trkpt lat="47.31056" lon="-1.39298">
        <ele>134</ele>
        <time>2021-02-28T08:32:16.376000+00:00</time>
      </trkpt>
      <trkpt lat="0" lon="0">
        <time>2021-02-28T08:32:16.381000+00:00</time>
      </trkpt>
      <trkpt lat="0" lon="0">
        <time>2021-02-28T08:32:16.388000+00:00</time>
      </trkpt>
      <trkpt lat="0" lon="0">
        <time>2021-02-28T08:32:16.391000+00:00</time>
      </trkpt>
      <trkpt lat="47.31056" lon="-1.39293">
        <ele>134</ele>
        <time>2021-02-28T08:32:17.376000+00:00</time>
      </trkpt>
      <trkpt lat="0" lon="0">
        <time>2021-02-28T08:32:17.385000+00:00</time>
      </trkpt>
      <trkpt lat="0" lon="0">
        <time>2021-02-28T08:32:17.391000+00:00</time>
      </trkpt>
      <trkpt lat="0" lon="0">
        <time>2021-02-28T08:32:17.394000+00:00</time>
      </trkpt>
      <trkpt lat="47.31055" lon="-1.39288">
        <ele>134</ele>
        <time>2021-02-28T08:32:18.351000+00:00</time>
      </trkpt>
      <trkpt lat="0" lon="0">
        <time>2021-02-28T08:32:18.356000+00:00</time>
      </trkpt>
      <trkpt lat="0" lon="0">
        <time>2021-02-28T08:32:18.364000+00:00</time>
      </trkpt>
      <trkpt lat="0" lon="0">
        <time>2021-02-28T08:32:18.368000+00:00</time>
      </trkpt>
      <trkpt lat="47.31055" lon="-1.39283">
        <ele>134</ele>
        <time>2021-02-28T08:32:19.395000+00:00</time>
      </trkpt>
      <trkpt lat="0" lon="0">
        <time>2021-02-28T08:32:19.407000+00:00</time>
      </trkpt>
      <trkpt lat="0" lon="0">
        <time>2021-02-28T08:32:19.411000+00:00</time>
      </trkpt>
      <trkpt lat="0" lon="0">
        <time>2021-02-28T08:32:19.414000+00:00</time>
      </trkpt>
      <trkpt lat="47.31055" lon="-1.39278">
        <ele>134</ele>
        <time>2021-02-28T08:32:20.375000+00:00</time>
      </trkpt>
      <trkpt lat="0" lon="0">
        <time>2021-02-28T08:32:20.385000+00:00</time>
      </trkpt>
      <trkpt lat="0" lon="0">
        <time>2021-02-28T08:32:20.389000+00:00</time>
      </trkpt>
      <trkpt lat="0" lon="0">
        <time>2021-02-28T08:32:20.398000+00:00</time>
      </trkpt>
      <trkpt lat="47.31054" lon="-1.39272">
        <ele>134</ele>
        <time>2021-02-28T08:32:21.371000+00:00</time>
      </trkpt>
      <trkpt lat="0" lon="0">
        <time>2021-02-28T08:32:21.385000+00:00</time>
      </trkpt>
      <trkpt lat="0" lon="0">
        <time>2021-02-28T08:32:21.392000+00:00</time>
      </trkpt>
      <trkpt lat="0" lon="0">
        <time>2021-02-28T08:32:21.394000+00:00</time>
      </trkpt>
      <trkpt lat="47.31054" lon="-1.39267">
        <ele>134</ele>
        <time>2021-02-28T08:32:22.351000+00:00</time>
      </trkpt>
      <trkpt lat="0" lon="0">
        <time>2021-02-28T08:32:22.356000+00:00</time>
      </trkpt>
      <trkpt lat="0" lon="0">
        <time>2021-02-28T08:32:22.358000+00:00</time>
      </trkpt>
      <trkpt lat="0" lon="0">
        <time>2021-02-28T08:32:22.359000+00:00</time>
      </trkpt>
      <trkpt lat="47.31053" lon="-1.39262">
        <ele>134</ele>
        <time>2021-02-28T08:32:23.364000+00:00</time>
      </trkpt>
      <trkpt lat="0" lon="0">
        <time>2021-02-28T08:32:23.373000+00:00</time>
      </trkpt>
      <trkpt lat="0" lon="0">
        <time>2021-02-28T08:32:23.378000+00:00</time>
      </trkpt>
      <trkpt lat="0" lon="0">
        <time>2021-02-28T08:32:23.383000+00:00</time>
      </trkpt>
      <trkpt lat="47.31053" lon="-1.39257">
        <ele>134</ele>
        <time>2021-02-28T08:32:24.361000+00:00</time>
      </trkpt>
      <trkpt lat="0" lon="0">
        <time>2021-02-28T08:32:24.374000+00:00</time>
      </trkpt>
      <trkpt lat="0" lon="0">
        <time>2021-02-28T08:32:24.379000+00:00</time>
      </trkpt>
      <trkpt lat="0" lon="0">
        <time>2021-02-28T08:32:24.382000+00:00</time>
      </trkpt>
      <trkpt lat="47.31053" lon="-1.39252">
        <ele>134</ele>
        <time>2021-02-28T08:32:25.355000+00:00</time>
      </trkpt>
      <trkpt lat="0" lon="0">
        <time>2021-02-28T08:32:25.365000+00:00</time>
      </trkpt>
      <trkpt lat="0" lon="0">
        <time>2021-02-28T08:32:25.368000+00:00</time>
      </trkpt>
      <trkpt lat="0" lon="0">
        <time>2021-02-28T08:32:25.369000+00:00</time>
      </trkpt>
      <trkpt lat="47.31053" lon="-1.39247">
        <ele>134</ele>
        <time>2021-02-28T08:32:26.350000+00:00</time>
      </trkpt>
      <trkpt lat="0" lon="0">
        <time>2021-02-28T08:32:26.356000+00:00</time>
      </trkpt>
      <trkpt lat="0" lon="0">
        <time>2021-02-28T08:32:26.360000+00:00</time>
      </trkpt>
      <trkpt lat="0" lon="0">
        <time>2021-02-28T08:32:26.363000+00:00</time>
      </trkpt>
      <trkpt lat="47.31052" lon="-1.39242">
        <ele>134</ele>
        <time>2021-02-28T08:32:27.371000+00:00</time>
      </trkpt>
      <trkpt lat="0" lon="0">
        <time>2021-02-28T08:32:27.379000+00:00</time>
      </trkpt>
      <trkpt lat="0" lon="0">
        <time>2021-02-28T08:32:27.383000+00:00</time>
      </trkpt>
      <trkpt lat="0" lon="0">
        <time>2021-02-28T08:32:27.386000+00:00</time>
      </trkpt>
      <trkpt lat="47.31052" lon="-1.39237">
        <ele>134</ele>
        <time>2021-02-28T08:32:28.358000+00:00</time>
      </trkpt>
      <trkpt lat="0" lon="0">
        <time>2021-02-28T08:32:28.364000+00:00</time>
      </trkpt>
      <trkpt lat="0" lon="0">
        <time>2021-02-28T08:32:28.368000+00:00</time>
      </trkpt>
      <trkpt lat="0" lon="0">
        <time>2021-02-28T08:32:28.371000+00:00</time>
      </trkpt>
      <trkpt lat="47.31052" lon="-1.39232">
        <ele>134</ele>
        <time>2021-02-28T08:32:29.360000+00:00</time>
      </trkpt>
      <trkpt lat="0" lon="0">
        <time>2021-02-28T08:32:29.371000+00:00</time>
      </trkpt>
      <trkpt lat="0" lon="0">
        <time>2021-02-28T08:32:29.377000+00:00</time>
      </trkpt>
      <trkpt lat="0" lon="0">
        <time>2021-02-28T08:32:29.380000+00:00</time>
      </trkpt>
      <trkpt lat="47.31051" lon="-1.39228">
        <ele>135</ele>
        <time>2021-02-28T08:32:30.372000+00:00</time>
      </trkpt>
      <trkpt lat="0" lon="0">
        <time>2021-02-28T08:32:30.382000+00:00</time>
      </trkpt>
      <trkpt lat="0" lon="0">
        <time>2021-02-28T08:32:30.389000+00:00</time>
      </trkpt>
      <trkpt lat="0" lon="0">
        <time>2021-02-28T08:32:30.392000+00:00</time>
      </trkpt>
      <trkpt lat="47.31051" lon="-1.39223">
        <ele>135</ele>
        <time>2021-02-28T08:32:31.359000+00:00</time>
      </trkpt>
      <trkpt lat="0" lon="0">
        <time>2021-02-28T08:32:31.368000+00:00</time>
      </trkpt>
      <trkpt lat="0" lon="0">
        <time>2021-02-28T08:32:31.373000+00:00</time>
      </trkpt>
      <trkpt lat="0" lon="0">
        <time>2021-02-28T08:32:31.375000+00:00</time>
      </trkpt>
      <trkpt lat="47.31051" lon="-1.39218">
        <ele>135</ele>
        <time>2021-02-28T08:32:32.372000+00:00</time>
      </trkpt>
      <trkpt lat="0" lon="0">
        <time>2021-02-28T08:32:32.375000+00:00</time>
      </trkpt>
      <trkpt lat="0" lon="0">
        <time>2021-02-28T08:32:32.379000+00:00</time>
      </trkpt>
      <trkpt lat="0" lon="0">
        <time>2021-02-28T08:32:32.380000+00:00</time>
      </trkpt>
      <trkpt lat="47.3105" lon="-1.39213">
        <ele>134</ele>
        <time>2021-02-28T08:32:33.402000+00:00</time>
      </trkpt>
      <trkpt lat="0" lon="0">
        <time>2021-02-28T08:32:33.406000+00:00</time>
      </trkpt>
      <trkpt lat="0" lon="0">
        <time>2021-02-28T08:32:33.410000+00:00</time>
      </trkpt>
      <trkpt lat="0" lon="0">
        <time>2021-02-28T08:32:33.413000+00:00</time>
      </trkpt>
      <trkpt lat="47.3105" lon="-1.39209">
        <ele>134</ele>
        <time>2021-02-28T08:32:34.383000+00:00</time>
      </trkpt>
      <trkpt lat="0" lon="0">
        <time>2021-02-28T08:32:34.388000+00:00</time>
      </trkpt>
      <trkpt lat="0" lon="0">
        <time>2021-02-28T08:32:34.393000+00:00</time>
      </trkpt>
      <trkpt lat="0" lon="0">
        <time>2021-02-28T08:32:34.395000+00:00</time>
      </trkpt>
      <trkpt lat="47.31049" lon="-1.39204">
        <ele>134</ele>
        <time>2021-02-28T08:32:35.367000+00:00</time>
      </trkpt>
      <trkpt lat="0" lon="0">
        <time>2021-02-28T08:32:35.372000+00:00</time>
      </trkpt>
      <trkpt lat="0" lon="0">
        <time>2021-02-28T08:32:35.376000+00:00</time>
      </trkpt>
      <trkpt lat="0" lon="0">
        <time>2021-02-28T08:32:35.377000+00:00</time>
      </trkpt>
      <trkpt lat="47.31049" lon="-1.392">
        <ele>134</ele>
        <time>2021-02-28T08:32:36.384000+00:00</time>
      </trkpt>
      <trkpt lat="0" lon="0">
        <time>2021-02-28T08:32:36.395000+00:00</time>
      </trkpt>
      <trkpt lat="0" lon="0">
        <time>2021-02-28T08:32:36.399000+00:00</time>
      </trkpt>
      <trkpt lat="0" lon="0">
        <time>2021-02-28T08:32:36.401000+00:00</time>
      </trkpt>
      <trkpt lat="47.31048" lon="-1.39195">
        <ele>134</ele>
        <time>2021-02-28T08:32:37.377000+00:00</time>
      </trkpt>
      <trkpt lat="0" lon="0">
        <time>2021-02-28T08:32:37.392000+00:00</time>
      </trkpt>
      <trkpt lat="0" lon="0">
        <time>2021-02-28T08:32:37.397000+00:00</time>
      </trkpt>
      <trkpt lat="0" lon="0">
        <time>2021-02-28T08:32:37.402000+00:00</time>
      </trkpt>
      <trkpt lat="47.31048" lon="-1.39191">
        <ele>134</ele>
        <time>2021-02-28T08:32:38.354000+00:00</time>
      </trkpt>
      <trkpt lat="0" lon="0">
        <time>2021-02-28T08:32:38.355000+00:00</time>
      </trkpt>
      <trkpt lat="0" lon="0">
        <time>2021-02-28T08:32:38.356000+00:00</time>
      </trkpt>
      <trkpt lat="0" lon="0">
        <time>2021-02-28T08:32:38.357000+00:00</time>
      </trkpt>
      <trkpt lat="47.31047" lon="-1.39187">
        <ele>134</ele>
        <time>2021-02-28T08:32:39.376000+00:00</time>
      </trkpt>
      <trkpt lat="0" lon="0">
        <time>2021-02-28T08:32:39.385000+00:00</time>
      </trkpt>
      <trkpt lat="0" lon="0">
        <time>2021-02-28T08:32:39.387000+00:00</time>
      </trkpt>
      <trkpt lat="0" lon="0">
        <time>2021-02-28T08:32:39.389000+00:00</time>
      </trkpt>
      <trkpt lat="47.31047" lon="-1.39182">
        <ele>134</ele>
        <time>2021-02-28T08:32:40.353000+00:00</time>
      </trkpt>
      <trkpt lat="0" lon="0">
        <time>2021-02-28T08:32:40.359000+00:00</time>
      </trkpt>
      <trkpt lat="0" lon="0">
        <time>2021-02-28T08:32:40.363000+00:00</time>
      </trkpt>
      <trkpt lat="0" lon="0">
        <time>2021-02-28T08:32:40.365000+00:00</time>
      </trkpt>
      <trkpt lat="47.31046" lon="-1.39178">
        <ele>133</ele>
        <time>2021-02-28T08:32:41.382000+00:00</time>
      </trkpt>
      <trkpt lat="0" lon="0">
        <time>2021-02-28T08:32:41.391000+00:00</time>
      </trkpt>
      <trkpt lat="0" lon="0">
        <time>2021-02-28T08:32:41.396000+00:00</time>
      </trkpt>
      <trkpt lat="0" lon="0">
        <time>2021-02-28T08:32:41.404000+00:00</time>
      </trkpt>
      <trkpt lat="47.31046" lon="-1.39175">
        <ele>133</ele>
        <time>2021-02-28T08:32:42.383000+00:00</time>
      </trkpt>
      <trkpt lat="0" lon="0">
        <time>2021-02-28T08:32:42.391000+00:00</time>
      </trkpt>
      <trkpt lat="0" lon="0">
        <time>2021-02-28T08:32:42.396000+00:00</time>
      </trkpt>
      <trkpt lat="0" lon="0">
        <time>2021-02-28T08:32:42.399000+00:00</time>
      </trkpt>
      <trkpt lat="47.31047" lon="-1.39171">
        <ele>133</ele>
        <time>2021-02-28T08:32:43.376000+00:00</time>
      </trkpt>
      <trkpt lat="0" lon="0">
        <time>2021-02-28T08:32:43.384000+00:00</time>
      </trkpt>
      <trkpt lat="0" lon="0">
        <time>2021-02-28T08:32:43.389000+00:00</time>
      </trkpt>
      <trkpt lat="0" lon="0">
        <time>2021-02-28T08:32:43.393000+00:00</time>
      </trkpt>
      <trkpt lat="47.31047" lon="-1.39167">
        <ele>133</ele>
        <time>2021-02-28T08:32:44.341000+00:00</time>
      </trkpt>
      <trkpt lat="0" lon="0">
        <time>2021-02-28T08:32:44.364000+00:00</time>
      </trkpt>
      <trkpt lat="0" lon="0">
        <time>2021-02-28T08:32:44.368000+00:00</time>
      </trkpt>
      <trkpt lat="0" lon="0">
        <time>2021-02-28T08:32:44.369000+00:00</time>
      </trkpt>
      <trkpt lat="47.31049" lon="-1.39164">
        <ele>133</ele>
        <time>2021-02-28T08:32:45.336000+00:00</time>
      </trkpt>
      <trkpt lat="0" lon="0">
        <time>2021-02-28T08:32:45.345000+00:00</time>
      </trkpt>
      <trkpt lat="0" lon="0">
        <time>2021-02-28T08:32:45.351000+00:00</time>
      </trkpt>
      <trkpt lat="0" lon="0">
        <time>2021-02-28T08:32:45.355000+00:00</time>
      </trkpt>
      <trkpt lat="47.31051" lon="-1.3916">
        <ele>133</ele>
        <time>2021-02-28T08:32:46.331000+00:00</time>
      </trkpt>
      <trkpt lat="0" lon="0">
        <time>2021-02-28T08:32:46.344000+00:00</time>
      </trkpt>
      <trkpt lat="0" lon="0">
        <time>2021-02-28T08:32:46.349000+00:00</time>
      </trkpt>
      <trkpt lat="0" lon="0">
        <time>2021-02-28T08:32:46.354000+00:00</time>
      </trkpt>
      <trkpt lat="47.31053" lon="-1.39158">
        <ele>132</ele>
        <time>2021-02-28T08:32:47.329000+00:00</time>
      </trkpt>
      <trkpt lat="0" lon="0">
        <time>2021-02-28T08:32:47.340000+00:00</time>
      </trkpt>
      <trkpt lat="0" lon="0">
        <time>2021-02-28T08:32:47.350000+00:00</time>
      </trkpt>
      <trkpt lat="0" lon="0">
        <time>2021-02-28T08:32:47.354000+00:00</time>
      </trkpt>
      <trkpt lat="47.31056" lon="-1.39156">
        <ele>132</ele>
        <time>2021-02-28T08:32:48.340000+00:00</time>
      </trkpt>
      <trkpt lat="0" lon="0">
        <time>2021-02-28T08:32:48.353000+00:00</time>
      </trkpt>
      <trkpt lat="0" lon="0">
        <time>2021-02-28T08:32:48.358000+00:00</time>
      </trkpt>
      <trkpt lat="0" lon="0">
        <time>2021-02-28T08:32:48.360000+00:00</time>
      </trkpt>
      <trkpt lat="47.3106" lon="-1.39155">
        <ele>132</ele>
        <time>2021-02-28T08:32:49.327000+00:00</time>
      </trkpt>
      <trkpt lat="0" lon="0">
        <time>2021-02-28T08:32:49.338000+00:00</time>
      </trkpt>
      <trkpt lat="0" lon="0">
        <time>2021-02-28T08:32:49.344000+00:00</time>
      </trkpt>
      <trkpt lat="0" lon="0">
        <time>2021-02-28T08:32:49.350000+00:00</time>
      </trkpt>
      <trkpt lat="47.31063" lon="-1.39155">
        <ele>132</ele>
        <time>2021-02-28T08:32:50.332000+00:00</time>
      </trkpt>
      <trkpt lat="0" lon="0">
        <time>2021-02-28T08:32:50.336000+00:00</time>
      </trkpt>
      <trkpt lat="0" lon="0">
        <time>2021-02-28T08:32:50.343000+00:00</time>
      </trkpt>
      <trkpt lat="0" lon="0">
        <time>2021-02-28T08:32:50.347000+00:00</time>
      </trkpt>
      <trkpt lat="47.31067" lon="-1.39156">
        <ele>131</ele>
        <time>2021-02-28T08:32:51.393000+00:00</time>
      </trkpt>
      <trkpt lat="0" lon="0">
        <time>2021-02-28T08:32:51.396000+00:00</time>
      </trkpt>
      <trkpt lat="0" lon="0">
        <time>2021-02-28T08:32:51.403000+00:00</time>
      </trkpt>
      <trkpt lat="0" lon="0">
        <time>2021-02-28T08:32:51.405000+00:00</time>
      </trkpt>
      <trkpt lat="47.31072" lon="-1.39157">
        <ele>131</ele>
        <time>2021-02-28T08:32:52.374000+00:00</time>
      </trkpt>
      <trkpt lat="0" lon="0">
        <time>2021-02-28T08:32:52.383000+00:00</time>
      </trkpt>
      <trkpt lat="0" lon="0">
        <time>2021-02-28T08:32:52.388000+00:00</time>
      </trkpt>
      <trkpt lat="0" lon="0">
        <time>2021-02-28T08:32:52.390000+00:00</time>
      </trkpt>
      <trkpt lat="47.31076" lon="-1.39158">
        <ele>131</ele>
        <time>2021-02-28T08:32:53.375000+00:00</time>
      </trkpt>
      <trkpt lat="0" lon="0">
        <time>2021-02-28T08:32:53.387000+00:00</time>
      </trkpt>
      <trkpt lat="0" lon="0">
        <time>2021-02-28T08:32:53.394000+00:00</time>
      </trkpt>
      <trkpt lat="0" lon="0">
        <time>2021-02-28T08:32:53.398000+00:00</time>
      </trkpt>
      <trkpt lat="47.31081" lon="-1.3916">
        <ele>131</ele>
        <time>2021-02-28T08:32:54.395000+00:00</time>
      </trkpt>
      <trkpt lat="0" lon="0">
        <time>2021-02-28T08:32:54.401000+00:00</time>
      </trkpt>
      <trkpt lat="0" lon="0">
        <time>2021-02-28T08:32:54.405000+00:00</time>
      </trkpt>
      <trkpt lat="0" lon="0">
        <time>2021-02-28T08:32:54.408000+00:00</time>
      </trkpt>
      <trkpt lat="47.31086" lon="-1.39163">
        <ele>131</ele>
        <time>2021-02-28T08:32:55.374000+00:00</time>
      </trkpt>
      <trkpt lat="0" lon="0">
        <time>2021-02-28T08:32:55.380000+00:00</time>
      </trkpt>
      <trkpt lat="0" lon="0">
        <time>2021-02-28T08:32:55.384000+00:00</time>
      </trkpt>
      <trkpt lat="0" lon="0">
        <time>2021-02-28T08:32:55.387000+00:00</time>
      </trkpt>
      <trkpt lat="47.31091" lon="-1.39165">
        <ele>131</ele>
        <time>2021-02-28T08:32:56.358000+00:00</time>
      </trkpt>
      <trkpt lat="0" lon="0">
        <time>2021-02-28T08:32:56.360000+00:00</time>
      </trkpt>
      <trkpt lat="0" lon="0">
        <time>2021-02-28T08:32:56.362000+00:00</time>
      </trkpt>
      <trkpt lat="0" lon="0">
        <time>2021-02-28T08:32:56.363000+00:00</time>
      </trkpt>
      <trkpt lat="47.31096" lon="-1.39167">
        <ele>131</ele>
        <time>2021-02-28T08:32:57.389000+00:00</time>
      </trkpt>
      <trkpt lat="0" lon="0">
        <time>2021-02-28T08:32:57.395000+00:00</time>
      </trkpt>
      <trkpt lat="0" lon="0">
        <time>2021-02-28T08:32:57.402000+00:00</time>
      </trkpt>
      <trkpt lat="0" lon="0">
        <time>2021-02-28T08:32:57.403000+00:00</time>
      </trkpt>
      <trkpt lat="47.31101" lon="-1.3917">
        <ele>130</ele>
        <time>2021-02-28T08:32:58.365000+00:00</time>
      </trkpt>
      <trkpt lat="0" lon="0">
        <time>2021-02-28T08:32:58.378000+00:00</time>
      </trkpt>
      <trkpt lat="0" lon="0">
        <time>2021-02-28T08:32:58.387000+00:00</time>
      </trkpt>
      <trkpt lat="0" lon="0">
        <time>2021-02-28T08:32:58.388000+00:00</time>
      </trkpt>
      <trkpt lat="47.31106" lon="-1.39172">
        <ele>130</ele>
        <time>2021-02-28T08:32:59.373000+00:00</time>
      </trkpt>
      <trkpt lat="0" lon="0">
        <time>2021-02-28T08:32:59.388000+00:00</time>
      </trkpt>
      <trkpt lat="0" lon="0">
        <time>2021-02-28T08:32:59.393000+00:00</time>
      </trkpt>
      <trkpt lat="0" lon="0">
        <time>2021-02-28T08:32:59.397000+00:00</time>
      </trkpt>
      <trkpt lat="47.31111" lon="-1.39175">
        <ele>129</ele>
        <time>2021-02-28T08:33:00.359000+00:00</time>
      </trkpt>
      <trkpt lat="0" lon="0">
        <time>2021-02-28T08:33:00.368000+00:00</time>
      </trkpt>
      <trkpt lat="0" lon="0">
        <time>2021-02-28T08:33:00.374000+00:00</time>
      </trkpt>
      <trkpt lat="0" lon="0">
        <time>2021-02-28T08:33:00.377000+00:00</time>
      </trkpt>
      <trkpt lat="47.31116" lon="-1.39177">
        <ele>129</ele>
        <time>2021-02-28T08:33:01.410000+00:00</time>
      </trkpt>
      <trkpt lat="0" lon="0">
        <time>2021-02-28T08:33:01.417000+00:00</time>
      </trkpt>
      <trkpt lat="0" lon="0">
        <time>2021-02-28T08:33:01.421000+00:00</time>
      </trkpt>
      <trkpt lat="0" lon="0">
        <time>2021-02-28T08:33:01.424000+00:00</time>
      </trkpt>
      <trkpt lat="47.31121" lon="-1.3918">
        <ele>129</ele>
        <time>2021-02-28T08:33:02.360000+00:00</time>
      </trkpt>
      <trkpt lat="0" lon="0">
        <time>2021-02-28T08:33:02.366000+00:00</time>
      </trkpt>
      <trkpt lat="0" lon="0">
        <time>2021-02-28T08:33:02.372000+00:00</time>
      </trkpt>
      <trkpt lat="0" lon="0">
        <time>2021-02-28T08:33:02.374000+00:00</time>
      </trkpt>
      <trkpt lat="47.31126" lon="-1.39183">
        <ele>129</ele>
        <time>2021-02-28T08:33:03.387000+00:00</time>
      </trkpt>
      <trkpt lat="0" lon="0">
        <time>2021-02-28T08:33:03.400000+00:00</time>
      </trkpt>
      <trkpt lat="0" lon="0">
        <time>2021-02-28T08:33:03.411000+00:00</time>
      </trkpt>
      <trkpt lat="0" lon="0">
        <time>2021-02-28T08:33:03.412000+00:00</time>
      </trkpt>
      <trkpt lat="47.31132" lon="-1.39186">
        <ele>128</ele>
        <time>2021-02-28T08:33:04.379000+00:00</time>
      </trkpt>
      <trkpt lat="0" lon="0">
        <time>2021-02-28T08:33:04.392000+00:00</time>
      </trkpt>
      <trkpt lat="0" lon="0">
        <time>2021-02-28T08:33:04.394000+00:00</time>
      </trkpt>
      <trkpt lat="0" lon="0">
        <time>2021-02-28T08:33:04.396000+00:00</time>
      </trkpt>
      <trkpt lat="47.31137" lon="-1.3919">
        <ele>128</ele>
        <time>2021-02-28T08:33:05.375000+00:00</time>
      </trkpt>
      <trkpt lat="0" lon="0">
        <time>2021-02-28T08:33:05.377000+00:00</time>
      </trkpt>
      <trkpt lat="0" lon="0">
        <time>2021-02-28T08:33:05.380000+00:00</time>
      </trkpt>
      <trkpt lat="47.31143" lon="-1.39194">
        <ele>128</ele>
        <time>2021-02-28T08:33:06.367000+00:00</time>
      </trkpt>
      <trkpt lat="0" lon="0">
        <time>2021-02-28T08:33:06.374000+00:00</time>
      </trkpt>
      <trkpt lat="0" lon="0">
        <time>2021-02-28T08:33:06.379000+00:00</time>
      </trkpt>
      <trkpt lat="0" lon="0">
        <time>2021-02-28T08:33:06.382000+00:00</time>
      </trkpt>
      <trkpt lat="47.31148" lon="-1.39197">
        <ele>128</ele>
        <time>2021-02-28T08:33:07.382000+00:00</time>
      </trkpt>
      <trkpt lat="0" lon="0">
        <time>2021-02-28T08:33:07.409000+00:00</time>
      </trkpt>
      <trkpt lat="0" lon="0">
        <time>2021-02-28T08:33:07.412000+00:00</time>
      </trkpt>
      <trkpt lat="0" lon="0">
        <time>2021-02-28T08:33:07.413000+00:00</time>
      </trkpt>
      <trkpt lat="47.31154" lon="-1.39202">
        <ele>127</ele>
        <time>2021-02-28T08:33:08.385000+00:00</time>
      </trkpt>
      <trkpt lat="0" lon="0">
        <time>2021-02-28T08:33:08.398000+00:00</time>
      </trkpt>
      <trkpt lat="0" lon="0">
        <time>2021-02-28T08:33:08.402000+00:00</time>
      </trkpt>
      <trkpt lat="0" lon="0">
        <time>2021-02-28T08:33:08.406000+00:00</time>
      </trkpt>
      <trkpt lat="47.3116" lon="-1.39205">
        <ele>127</ele>
        <time>2021-02-28T08:33:09.390000+00:00</time>
      </trkpt>
      <trkpt lat="0" lon="0">
        <time>2021-02-28T08:33:09.397000+00:00</time>
      </trkpt>
      <trkpt lat="0" lon="0">
        <time>2021-02-28T08:33:09.405000+00:00</time>
      </trkpt>
      <trkpt lat="0" lon="0">
        <time>2021-02-28T08:33:09.408000+00:00</time>
      </trkpt>
      <trkpt lat="47.31166" lon="-1.39209">
        <ele>127</ele>
        <time>2021-02-28T08:33:10.381000+00:00</time>
      </trkpt>
      <trkpt lat="0" lon="0">
        <time>2021-02-28T08:33:10.385000+00:00</time>
      </trkpt>
      <trkpt lat="0" lon="0">
        <time>2021-02-28T08:33:10.391000+00:00</time>
      </trkpt>
      <trkpt lat="0" lon="0">
        <time>2021-02-28T08:33:10.394000+00:00</time>
      </trkpt>
      <trkpt lat="47.31172" lon="-1.39212">
        <ele>126</ele>
        <time>2021-02-28T08:33:11.374000+00:00</time>
      </trkpt>
      <trkpt lat="0" lon="0">
        <time>2021-02-28T08:33:11.378000+00:00</time>
      </trkpt>
      <trkpt lat="0" lon="0">
        <time>2021-02-28T08:33:11.382000+00:00</time>
      </trkpt>
      <trkpt lat="0" lon="0">
        <time>2021-02-28T08:33:11.384000+00:00</time>
      </trkpt>
      <trkpt lat="47.31177" lon="-1.39216">
        <ele>126</ele>
        <time>2021-02-28T08:33:12.398000+00:00</time>
      </trkpt>
      <trkpt lat="0" lon="0">
        <time>2021-02-28T08:33:12.404000+00:00</time>
      </trkpt>
      <trkpt lat="0" lon="0">
        <time>2021-02-28T08:33:12.408000+00:00</time>
      </trkpt>
      <trkpt lat="0" lon="0">
        <time>2021-02-28T08:33:12.411000+00:00</time>
      </trkpt>
      <trkpt lat="47.31183" lon="-1.39219">
        <ele>126</ele>
        <time>2021-02-28T08:33:13.423000+00:00</time>
      </trkpt>
      <trkpt lat="0" lon="0">
        <time>2021-02-28T08:33:13.433000+00:00</time>
      </trkpt>
      <trkpt lat="0" lon="0">
        <time>2021-02-28T08:33:13.442000+00:00</time>
      </trkpt>
      <trkpt lat="0" lon="0">
        <time>2021-02-28T08:33:13.444000+00:00</time>
      </trkpt>
      <trkpt lat="47.31188" lon="-1.39221">
        <ele>126</ele>
        <time>2021-02-28T08:33:14.325000+00:00</time>
      </trkpt>
      <trkpt lat="0" lon="0">
        <time>2021-02-28T08:33:14.328000+00:00</time>
      </trkpt>
      <trkpt lat="0" lon="0">
        <time>2021-02-28T08:33:14.330000+00:00</time>
      </trkpt>
      <trkpt lat="0" lon="0">
        <time>2021-02-28T08:33:14.331000+00:00</time>
      </trkpt>
      <trkpt lat="47.31193" lon="-1.39223">
        <ele>126</ele>
        <time>2021-02-28T08:33:15.388000+00:00</time>
      </trkpt>
      <trkpt lat="0" lon="0">
        <time>2021-02-28T08:33:15.394000+00:00</time>
      </trkpt>
      <trkpt lat="0" lon="0">
        <time>2021-02-28T08:33:15.403000+00:00</time>
      </trkpt>
      <trkpt lat="0" lon="0">
        <time>2021-02-28T08:33:15.406000+00:00</time>
      </trkpt>
      <trkpt lat="47.31201" lon="-1.39227">
        <ele>127</ele>
        <time>2021-02-28T08:33:17.262000+00:00</time>
      </trkpt>
      <trkpt lat="0" lon="0">
        <time>2021-02-28T08:33:17.280000+00:00</time>
      </trkpt>
      <trkpt lat="0" lon="0">
        <time>2021-02-28T08:33:17.285000+00:00</time>
      </trkpt>
      <trkpt lat="0" lon="0">
        <time>2021-02-28T08:33:17.289000+00:00</time>
      </trkpt>
      <trkpt lat="47.31202" lon="-1.39228">
        <ele>128</ele>
        <time>2021-02-28T08:33:18.255000+00:00</time>
      </trkpt>
      <trkpt lat="0" lon="0">
        <time>2021-02-28T08:33:18.257000+00:00</time>
      </trkpt>
      <trkpt lat="0" lon="0">
        <time>2021-02-28T08:33:18.259000+00:00</time>
      </trkpt>
      <trkpt lat="0" lon="0">
        <time>2021-02-28T08:33:18.260000+00:00</time>
      </trkpt>
      <trkpt lat="47.31203" lon="-1.39229">
        <ele>128</ele>
        <time>2021-02-28T08:33:19.238000+00:00</time>
      </trkpt>
      <trkpt lat="0" lon="0">
        <time>2021-02-28T08:33:19.239000+00:00</time>
      </trkpt>
      <trkpt lat="0" lon="0">
        <time>2021-02-28T08:33:19.240000+00:00</time>
      </trkpt>
      <trkpt lat="0" lon="0">
        <time>2021-02-28T08:33:19.242000+00:00</time>
      </trkpt>
      <trkpt lat="47.31204" lon="-1.39231">
        <ele>129</ele>
        <time>2021-02-28T08:33:20.297000+00:00</time>
      </trkpt>
      <trkpt lat="0" lon="0">
        <time>2021-02-28T08:33:20.299000+00:00</time>
      </trkpt>
      <trkpt lat="0" lon="0">
        <time>2021-02-28T08:33:20.303000+00:00</time>
      </trkpt>
      <trkpt lat="0" lon="0">
        <time>2021-02-28T08:33:20.304000+00:00</time>
      </trkpt>
      <trkpt lat="47.31204" lon="-1.39233">
        <ele>129</ele>
        <time>2021-02-28T08:33:21.245000+00:00</time>
      </trkpt>
      <trkpt lat="0" lon="0">
        <time>2021-02-28T08:33:21.246000+00:00</time>
      </trkpt>
      <trkpt lat="0" lon="0">
        <time>2021-02-28T08:33:21.247000+00:00</time>
      </trkpt>
      <trkpt lat="47.31205" lon="-1.39235">
        <ele>130</ele>
        <time>2021-02-28T08:33:22.363000+00:00</time>
      </trkpt>
      <trkpt lat="0" lon="0">
        <time>2021-02-28T08:33:22.365000+00:00</time>
      </trkpt>
      <trkpt lat="0" lon="0">
        <time>2021-02-28T08:33:22.367000+00:00</time>
      </trkpt>
      <trkpt lat="0" lon="0">
        <time>2021-02-28T08:33:22.368000+00:00</time>
      </trkpt>
      <trkpt lat="47.31205" lon="-1.39237">
        <ele>130</ele>
        <time>2021-02-28T08:33:23.343000+00:00</time>
      </trkpt>
      <trkpt lat="0" lon="0">
        <time>2021-02-28T08:33:23.347000+00:00</time>
      </trkpt>
      <trkpt lat="0" lon="0">
        <time>2021-02-28T08:33:23.356000+00:00</time>
      </trkpt>
      <trkpt lat="0" lon="0">
        <time>2021-02-28T08:33:23.362000+00:00</time>
      </trkpt>
      <trkpt lat="47.31204" lon="-1.3924">
        <ele>130</ele>
        <time>2021-02-28T08:33:24.378000+00:00</time>
      </trkpt>
      <trkpt lat="0" lon="0">
        <time>2021-02-28T08:33:24.382000+00:00</time>
      </trkpt>
      <trkpt lat="0" lon="0">
        <time>2021-02-28T08:33:24.383000+00:00</time>
      </trkpt>
      <trkpt lat="0" lon="0">
        <time>2021-02-28T08:33:24.384000+00:00</time>
      </trkpt>
      <trkpt lat="47.31204" lon="-1.39243">
        <ele>130</ele>
        <time>2021-02-28T08:33:25.396000+00:00</time>
      </trkpt>
      <trkpt lat="0" lon="0">
        <time>2021-02-28T08:33:25.405000+00:00</time>
      </trkpt>
      <trkpt lat="0" lon="0">
        <time>2021-02-28T08:33:25.410000+00:00</time>
      </trkpt>
      <trkpt lat="0" lon="0">
        <time>2021-02-28T08:33:25.411000+00:00</time>
      </trkpt>
      <trkpt lat="47.31203" lon="-1.39247">
        <ele>130</ele>
        <time>2021-02-28T08:33:26.381000+00:00</time>
      </trkpt>
      <trkpt lat="0" lon="0">
        <time>2021-02-28T08:33:26.385000+00:00</time>
      </trkpt>
      <trkpt lat="0" lon="0">
        <time>2021-02-28T08:33:26.391000+00:00</time>
      </trkpt>
      <trkpt lat="0" lon="0">
        <time>2021-02-28T08:33:26.394000+00:00</time>
      </trkpt>
      <trkpt lat="47.31202" lon="-1.39251">
        <ele>130</ele>
        <time>2021-02-28T08:33:27.375000+00:00</time>
      </trkpt>
      <trkpt lat="0" lon="0">
        <time>2021-02-28T08:33:27.383000+00:00</time>
      </trkpt>
      <trkpt lat="0" lon="0">
        <time>2021-02-28T08:33:27.387000+00:00</time>
      </trkpt>
      <trkpt lat="0" lon="0">
        <time>2021-02-28T08:33:27.389000+00:00</time>
      </trkpt>
      <trkpt lat="47.31201" lon="-1.39255">
        <ele>130</ele>
        <time>2021-02-28T08:33:28.339000+00:00</time>
      </trkpt>
      <trkpt lat="0" lon="0">
        <time>2021-02-28T08:33:28.341000+00:00</time>
      </trkpt>
      <trkpt lat="0" lon="0">
        <time>2021-02-28T08:33:28.343000+00:00</time>
      </trkpt>
      <trkpt lat="47.312" lon="-1.39259">
        <ele>130</ele>
        <time>2021-02-28T08:33:29.407000+00:00</time>
      </trkpt>
      <trkpt lat="0" lon="0">
        <time>2021-02-28T08:33:29.415000+00:00</time>
      </trkpt>
      <trkpt lat="0" lon="0">
        <time>2021-02-28T08:33:29.420000+00:00</time>
      </trkpt>
      <trkpt lat="0" lon="0">
        <time>2021-02-28T08:33:29.423000+00:00</time>
      </trkpt>
      <trkpt lat="47.31199" lon="-1.39263">
        <ele>131</ele>
        <time>2021-02-28T08:33:30.408000+00:00</time>
      </trkpt>
      <trkpt lat="0" lon="0">
        <time>2021-02-28T08:33:30.414000+00:00</time>
      </trkpt>
      <trkpt lat="0" lon="0">
        <time>2021-02-28T08:33:30.416000+00:00</time>
      </trkpt>
      <trkpt lat="0" lon="0">
        <time>2021-02-28T08:33:30.418000+00:00</time>
      </trkpt>
      <trkpt lat="47.31198" lon="-1.39267">
        <ele>131</ele>
        <time>2021-02-28T08:33:31.356000+00:00</time>
      </trkpt>
      <trkpt lat="0" lon="0">
        <time>2021-02-28T08:33:31.361000+00:00</time>
      </trkpt>
      <trkpt lat="0" lon="0">
        <time>2021-02-28T08:33:31.365000+00:00</time>
      </trkpt>
      <trkpt lat="0" lon="0">
        <time>2021-02-28T08:33:31.368000+00:00</time>
      </trkpt>
      <trkpt lat="47.31198" lon="-1.39272">
        <ele>131</ele>
        <time>2021-02-28T08:33:32.384000+00:00</time>
      </trkpt>
      <trkpt lat="0" lon="0">
        <time>2021-02-28T08:33:32.389000+00:00</time>
      </trkpt>
      <trkpt lat="0" lon="0">
        <time>2021-02-28T08:33:32.391000+00:00</time>
      </trkpt>
      <trkpt lat="0" lon="0">
        <time>2021-02-28T08:33:32.392000+00:00</time>
      </trkpt>
      <trkpt lat="47.31198" lon="-1.39277">
        <ele>131</ele>
        <time>2021-02-28T08:33:33.362000+00:00</time>
      </trkpt>
      <trkpt lat="0" lon="0">
        <time>2021-02-28T08:33:33.374000+00:00</time>
      </trkpt>
      <trkpt lat="0" lon="0">
        <time>2021-02-28T08:33:33.387000+00:00</time>
      </trkpt>
      <trkpt lat="0" lon="0">
        <time>2021-02-28T08:33:33.391000+00:00</time>
      </trkpt>
      <trkpt lat="47.31198" lon="-1.39282">
        <ele>131</ele>
        <time>2021-02-28T08:33:34.397000+00:00</time>
      </trkpt>
      <trkpt lat="0" lon="0">
        <time>2021-02-28T08:33:34.405000+00:00</time>
      </trkpt>
      <trkpt lat="0" lon="0">
        <time>2021-02-28T08:33:34.407000+00:00</time>
      </trkpt>
      <trkpt lat="0" lon="0">
        <time>2021-02-28T08:33:34.409000+00:00</time>
      </trkpt>
      <trkpt lat="47.31198" lon="-1.39287">
        <ele>132</ele>
        <time>2021-02-28T08:33:35.355000+00:00</time>
      </trkpt>
      <trkpt lat="0" lon="0">
        <time>2021-02-28T08:33:35.369000+00:00</time>
      </trkpt>
      <trkpt lat="0" lon="0">
        <time>2021-02-28T08:33:35.376000+00:00</time>
      </trkpt>
      <trkpt lat="0" lon="0">
        <time>2021-02-28T08:33:35.379000+00:00</time>
      </trkpt>
      <trkpt lat="47.31199" lon="-1.39292">
        <ele>132</ele>
        <time>2021-02-28T08:33:36.343000+00:00</time>
      </trkpt>
      <trkpt lat="0" lon="0">
        <time>2021-02-28T08:33:36.358000+00:00</time>
      </trkpt>
      <trkpt lat="0" lon="0">
        <time>2021-02-28T08:33:36.362000+00:00</time>
      </trkpt>
      <trkpt lat="0" lon="0">
        <time>2021-02-28T08:33:36.364000+00:00</time>
      </trkpt>
      <trkpt lat="47.31199" lon="-1.39296">
        <ele>132</ele>
        <time>2021-02-28T08:33:37.366000+00:00</time>
      </trkpt>
      <trkpt lat="0" lon="0">
        <time>2021-02-28T08:33:37.371000+00:00</time>
      </trkpt>
      <trkpt lat="0" lon="0">
        <time>2021-02-28T08:33:37.376000+00:00</time>
      </trkpt>
      <trkpt lat="0" lon="0">
        <time>2021-02-28T08:33:37.379000+00:00</time>
      </trkpt>
      <trkpt lat="47.312" lon="-1.39302">
        <ele>132</ele>
        <time>2021-02-28T08:33:38.389000+00:00</time>
      </trkpt>
      <trkpt lat="0" lon="0">
        <time>2021-02-28T08:33:38.400000+00:00</time>
      </trkpt>
      <trkpt lat="0" lon="0">
        <time>2021-02-28T08:33:38.405000+00:00</time>
      </trkpt>
      <trkpt lat="0" lon="0">
        <time>2021-02-28T08:33:38.407000+00:00</time>
      </trkpt>
      <trkpt lat="47.31201" lon="-1.39307">
        <ele>132</ele>
        <time>2021-02-28T08:33:39.388000+00:00</time>
      </trkpt>
      <trkpt lat="0" lon="0">
        <time>2021-02-28T08:33:39.392000+00:00</time>
      </trkpt>
      <trkpt lat="0" lon="0">
        <time>2021-02-28T08:33:39.396000+00:00</time>
      </trkpt>
      <trkpt lat="0" lon="0">
        <time>2021-02-28T08:33:39.402000+00:00</time>
      </trkpt>
      <trkpt lat="47.31202" lon="-1.39312">
        <ele>132</ele>
        <time>2021-02-28T08:33:40.375000+00:00</time>
      </trkpt>
      <trkpt lat="0" lon="0">
        <time>2021-02-28T08:33:40.380000+00:00</time>
      </trkpt>
      <trkpt lat="0" lon="0">
        <time>2021-02-28T08:33:40.385000+00:00</time>
      </trkpt>
      <trkpt lat="0" lon="0">
        <time>2021-02-28T08:33:40.387000+00:00</time>
      </trkpt>
      <trkpt lat="47.31205" lon="-1.39317">
        <ele>132</ele>
        <time>2021-02-28T08:33:41.399000+00:00</time>
      </trkpt>
      <trkpt lat="0" lon="0">
        <time>2021-02-28T08:33:41.400000+00:00</time>
      </trkpt>
      <trkpt lat="0" lon="0">
        <time>2021-02-28T08:33:41.401000+00:00</time>
      </trkpt>
      <trkpt lat="47.31207" lon="-1.39322">
        <ele>132</ele>
        <time>2021-02-28T08:33:42.374000+00:00</time>
      </trkpt>
      <trkpt lat="0" lon="0">
        <time>2021-02-28T08:33:42.378000+00:00</time>
      </trkpt>
      <trkpt lat="0" lon="0">
        <time>2021-02-28T08:33:42.383000+00:00</time>
      </trkpt>
      <trkpt lat="0" lon="0">
        <time>2021-02-28T08:33:42.385000+00:00</time>
      </trkpt>
      <trkpt lat="47.31211" lon="-1.39328">
        <ele>132</ele>
        <time>2021-02-28T08:33:43.376000+00:00</time>
      </trkpt>
      <trkpt lat="0" lon="0">
        <time>2021-02-28T08:33:43.382000+00:00</time>
      </trkpt>
      <trkpt lat="0" lon="0">
        <time>2021-02-28T08:33:43.390000+00:00</time>
      </trkpt>
      <trkpt lat="0" lon="0">
        <time>2021-02-28T08:33:43.393000+00:00</time>
      </trkpt>
      <trkpt lat="47.31214" lon="-1.39333">
        <ele>132</ele>
        <time>2021-02-28T08:33:44.379000+00:00</time>
      </trkpt>
      <trkpt lat="0" lon="0">
        <time>2021-02-28T08:33:44.385000+00:00</time>
      </trkpt>
      <trkpt lat="0" lon="0">
        <time>2021-02-28T08:33:44.390000+00:00</time>
      </trkpt>
      <trkpt lat="0" lon="0">
        <time>2021-02-28T08:33:44.392000+00:00</time>
      </trkpt>
      <trkpt lat="47.31217" lon="-1.3934">
        <ele>132</ele>
        <time>2021-02-28T08:33:45.373000+00:00</time>
      </trkpt>
      <trkpt lat="0" lon="0">
        <time>2021-02-28T08:33:45.396000+00:00</time>
      </trkpt>
      <trkpt lat="0" lon="0">
        <time>2021-02-28T08:33:45.400000+00:00</time>
      </trkpt>
      <trkpt lat="0" lon="0">
        <time>2021-02-28T08:33:45.403000+00:00</time>
      </trkpt>
      <trkpt lat="47.3122" lon="-1.39346">
        <ele>132</ele>
        <time>2021-02-28T08:33:46.376000+00:00</time>
      </trkpt>
      <trkpt lat="0" lon="0">
        <time>2021-02-28T08:33:46.387000+00:00</time>
      </trkpt>
      <trkpt lat="0" lon="0">
        <time>2021-02-28T08:33:46.395000+00:00</time>
      </trkpt>
      <trkpt lat="0" lon="0">
        <time>2021-02-28T08:33:46.400000+00:00</time>
      </trkpt>
      <trkpt lat="47.31223" lon="-1.39353">
        <ele>132</ele>
        <time>2021-02-28T08:33:47.329000+00:00</time>
      </trkpt>
      <trkpt lat="0" lon="0">
        <time>2021-02-28T08:33:47.331000+00:00</time>
      </trkpt>
      <trkpt lat="0" lon="0">
        <time>2021-02-28T08:33:47.334000+00:00</time>
      </trkpt>
      <trkpt lat="0" lon="0">
        <time>2021-02-28T08:33:47.335000+00:00</time>
      </trkpt>
      <trkpt lat="47.31226" lon="-1.3936">
        <ele>132</ele>
        <time>2021-02-28T08:33:48.391000+00:00</time>
      </trkpt>
      <trkpt lat="0" lon="0">
        <time>2021-02-28T08:33:48.399000+00:00</time>
      </trkpt>
      <trkpt lat="0" lon="0">
        <time>2021-02-28T08:33:48.407000+00:00</time>
      </trkpt>
      <trkpt lat="0" lon="0">
        <time>2021-02-28T08:33:48.410000+00:00</time>
      </trkpt>
      <trkpt lat="47.31228" lon="-1.39368">
        <ele>132</ele>
        <time>2021-02-28T08:33:49.345000+00:00</time>
      </trkpt>
      <trkpt lat="0" lon="0">
        <time>2021-02-28T08:33:49.348000+00:00</time>
      </trkpt>
      <trkpt lat="0" lon="0">
        <time>2021-02-28T08:33:49.352000+00:00</time>
      </trkpt>
      <trkpt lat="0" lon="0">
        <time>2021-02-28T08:33:49.356000+00:00</time>
      </trkpt>
      <trkpt lat="47.31231" lon="-1.39375">
        <ele>132</ele>
        <time>2021-02-28T08:33:50.365000+00:00</time>
      </trkpt>
      <trkpt lat="0" lon="0">
        <time>2021-02-28T08:33:50.378000+00:00</time>
      </trkpt>
      <trkpt lat="0" lon="0">
        <time>2021-02-28T08:33:50.382000+00:00</time>
      </trkpt>
      <trkpt lat="0" lon="0">
        <time>2021-02-28T08:33:50.386000+00:00</time>
      </trkpt>
      <trkpt lat="47.31233" lon="-1.39383">
        <ele>132</ele>
        <time>2021-02-28T08:33:51.368000+00:00</time>
      </trkpt>
      <trkpt lat="0" lon="0">
        <time>2021-02-28T08:33:51.377000+00:00</time>
      </trkpt>
      <trkpt lat="0" lon="0">
        <time>2021-02-28T08:33:51.382000+00:00</time>
      </trkpt>
      <trkpt lat="0" lon="0">
        <time>2021-02-28T08:33:51.385000+00:00</time>
      </trkpt>
      <trkpt lat="47.31235" lon="-1.39391">
        <ele>132</ele>
        <time>2021-02-28T08:33:52.363000+00:00</time>
      </trkpt>
      <trkpt lat="0" lon="0">
        <time>2021-02-28T08:33:52.366000+00:00</time>
      </trkpt>
      <trkpt lat="0" lon="0">
        <time>2021-02-28T08:33:52.370000+00:00</time>
      </trkpt>
      <trkpt lat="0" lon="0">
        <time>2021-02-28T08:33:52.371000+00:00</time>
      </trkpt>
      <trkpt lat="47.31238" lon="-1.394">
        <ele>132</ele>
        <time>2021-02-28T08:33:53.400000+00:00</time>
      </trkpt>
      <trkpt lat="0" lon="0">
        <time>2021-02-28T08:33:53.408000+00:00</time>
      </trkpt>
      <trkpt lat="0" lon="0">
        <time>2021-02-28T08:33:53.413000+00:00</time>
      </trkpt>
      <trkpt lat="0" lon="0">
        <time>2021-02-28T08:33:53.416000+00:00</time>
      </trkpt>
      <trkpt lat="47.3124" lon="-1.39408">
        <ele>132</ele>
        <time>2021-02-28T08:33:54.383000+00:00</time>
      </trkpt>
      <trkpt lat="0" lon="0">
        <time>2021-02-28T08:33:54.388000+00:00</time>
      </trkpt>
      <trkpt lat="0" lon="0">
        <time>2021-02-28T08:33:54.392000+00:00</time>
      </trkpt>
      <trkpt lat="0" lon="0">
        <time>2021-02-28T08:33:54.395000+00:00</time>
      </trkpt>
      <trkpt lat="47.31242" lon="-1.39416">
        <ele>133</ele>
        <time>2021-02-28T08:33:55.375000+00:00</time>
      </trkpt>
      <trkpt lat="0" lon="0">
        <time>2021-02-28T08:33:55.385000+00:00</time>
      </trkpt>
      <trkpt lat="0" lon="0">
        <time>2021-02-28T08:33:55.389000+00:00</time>
      </trkpt>
      <trkpt lat="0" lon="0">
        <time>2021-02-28T08:33:55.391000+00:00</time>
      </trkpt>
      <trkpt lat="47.31244" lon="-1.39424">
        <ele>133</ele>
        <time>2021-02-28T08:33:56.407000+00:00</time>
      </trkpt>
      <trkpt lat="0" lon="0">
        <time>2021-02-28T08:33:56.413000+00:00</time>
      </trkpt>
      <trkpt lat="0" lon="0">
        <time>2021-02-28T08:33:56.419000+00:00</time>
      </trkpt>
      <trkpt lat="0" lon="0">
        <time>2021-02-28T08:33:56.424000+00:00</time>
      </trkpt>
      <trkpt lat="47.31246" lon="-1.39433">
        <ele>132</ele>
        <time>2021-02-28T08:33:57.365000+00:00</time>
      </trkpt>
      <trkpt lat="0" lon="0">
        <time>2021-02-28T08:33:57.372000+00:00</time>
      </trkpt>
      <trkpt lat="0" lon="0">
        <time>2021-02-28T08:33:57.376000+00:00</time>
      </trkpt>
      <trkpt lat="0" lon="0">
        <time>2021-02-28T08:33:57.379000+00:00</time>
      </trkpt>
      <trkpt lat="47.31248" lon="-1.3944">
        <ele>132</ele>
        <time>2021-02-28T08:33:58.423000+00:00</time>
      </trkpt>
      <trkpt lat="0" lon="0">
        <time>2021-02-28T08:33:58.429000+00:00</time>
      </trkpt>
      <trkpt lat="0" lon="0">
        <time>2021-02-28T08:33:58.434000+00:00</time>
      </trkpt>
      <trkpt lat="0" lon="0">
        <time>2021-02-28T08:33:58.438000+00:00</time>
      </trkpt>
      <trkpt lat="47.3125" lon="-1.39448">
        <ele>132</ele>
        <time>2021-02-28T08:33:59.381000+00:00</time>
      </trkpt>
      <trkpt lat="0" lon="0">
        <time>2021-02-28T08:33:59.392000+00:00</time>
      </trkpt>
      <trkpt lat="0" lon="0">
        <time>2021-02-28T08:33:59.399000+00:00</time>
      </trkpt>
      <trkpt lat="0" lon="0">
        <time>2021-02-28T08:33:59.403000+00:00</time>
      </trkpt>
      <trkpt lat="47.31252" lon="-1.39454">
        <ele>132</ele>
        <time>2021-02-28T08:34:00.372000+00:00</time>
      </trkpt>
      <trkpt lat="0" lon="0">
        <time>2021-02-28T08:34:00.379000+00:00</time>
      </trkpt>
      <trkpt lat="0" lon="0">
        <time>2021-02-28T08:34:00.383000+00:00</time>
      </trkpt>
      <trkpt lat="0" lon="0">
        <time>2021-02-28T08:34:00.386000+00:00</time>
      </trkpt>
      <trkpt lat="47.31255" lon="-1.39461">
        <ele>132</ele>
        <time>2021-02-28T08:34:01.401000+00:00</time>
      </trkpt>
      <trkpt lat="0" lon="0">
        <time>2021-02-28T08:34:01.408000+00:00</time>
      </trkpt>
      <trkpt lat="0" lon="0">
        <time>2021-02-28T08:34:01.416000+00:00</time>
      </trkpt>
      <trkpt lat="0" lon="0">
        <time>2021-02-28T08:34:01.419000+00:00</time>
      </trkpt>
      <trkpt lat="47.31258" lon="-1.39467">
        <ele>132</ele>
        <time>2021-02-28T08:34:02.370000+00:00</time>
      </trkpt>
      <trkpt lat="0" lon="0">
        <time>2021-02-28T08:34:02.377000+00:00</time>
      </trkpt>
      <trkpt lat="0" lon="0">
        <time>2021-02-28T08:34:02.380000+00:00</time>
      </trkpt>
      <trkpt lat="0" lon="0">
        <time>2021-02-28T08:34:02.386000+00:00</time>
      </trkpt>
      <trkpt lat="47.31261" lon="-1.39473">
        <ele>132</ele>
        <time>2021-02-28T08:34:03.389000+00:00</time>
      </trkpt>
      <trkpt lat="0" lon="0">
        <time>2021-02-28T08:34:03.400000+00:00</time>
      </trkpt>
      <trkpt lat="0" lon="0">
        <time>2021-02-28T08:34:03.405000+00:00</time>
      </trkpt>
      <trkpt lat="0" lon="0">
        <time>2021-02-28T08:34:03.407000+00:00</time>
      </trkpt>
      <trkpt lat="47.31265" lon="-1.3948">
        <ele>132</ele>
        <time>2021-02-28T08:34:04.379000+00:00</time>
      </trkpt>
      <trkpt lat="0" lon="0">
        <time>2021-02-28T08:34:04.391000+00:00</time>
      </trkpt>
      <trkpt lat="0" lon="0">
        <time>2021-02-28T08:34:04.402000+00:00</time>
      </trkpt>
      <trkpt lat="0" lon="0">
        <time>2021-02-28T08:34:04.404000+00:00</time>
      </trkpt>
      <trkpt lat="47.31269" lon="-1.39487">
        <ele>131</ele>
        <time>2021-02-28T08:34:05.376000+00:00</time>
      </trkpt>
      <trkpt lat="0" lon="0">
        <time>2021-02-28T08:34:05.389000+00:00</time>
      </trkpt>
      <trkpt lat="0" lon="0">
        <time>2021-02-28T08:34:05.396000+00:00</time>
      </trkpt>
      <trkpt lat="0" lon="0">
        <time>2021-02-28T08:34:05.401000+00:00</time>
      </trkpt>
      <trkpt lat="47.31273" lon="-1.39494">
        <ele>131</ele>
        <time>2021-02-28T08:34:06.404000+00:00</time>
      </trkpt>
      <trkpt lat="0" lon="0">
        <time>2021-02-28T08:34:06.410000+00:00</time>
      </trkpt>
      <trkpt lat="0" lon="0">
        <time>2021-02-28T08:34:06.417000+00:00</time>
      </trkpt>
      <trkpt lat="0" lon="0">
        <time>2021-02-28T08:34:06.419000+00:00</time>
      </trkpt>
      <trkpt lat="47.31277" lon="-1.39502">
        <ele>131</ele>
        <time>2021-02-28T08:34:07.390000+00:00</time>
      </trkpt>
      <trkpt lat="0" lon="0">
        <time>2021-02-28T08:34:07.395000+00:00</time>
      </trkpt>
      <trkpt lat="0" lon="0">
        <time>2021-02-28T08:34:07.402000+00:00</time>
      </trkpt>
      <trkpt lat="0" lon="0">
        <time>2021-02-28T08:34:07.404000+00:00</time>
      </trkpt>
      <trkpt lat="47.31281" lon="-1.3951">
        <ele>131</ele>
        <time>2021-02-28T08:34:08.390000+00:00</time>
      </trkpt>
      <trkpt lat="0" lon="0">
        <time>2021-02-28T08:34:08.398000+00:00</time>
      </trkpt>
      <trkpt lat="0" lon="0">
        <time>2021-02-28T08:34:08.403000+00:00</time>
      </trkpt>
      <trkpt lat="0" lon="0">
        <time>2021-02-28T08:34:08.405000+00:00</time>
      </trkpt>
      <trkpt lat="47.31285" lon="-1.39518">
        <ele>130</ele>
        <time>2021-02-28T08:34:09.361000+00:00</time>
      </trkpt>
      <trkpt lat="0" lon="0">
        <time>2021-02-28T08:34:09.366000+00:00</time>
      </trkpt>
      <trkpt lat="0" lon="0">
        <time>2021-02-28T08:34:09.372000+00:00</time>
      </trkpt>
      <trkpt lat="0" lon="0">
        <time>2021-02-28T08:34:09.374000+00:00</time>
      </trkpt>
      <trkpt lat="47.31289" lon="-1.39526">
        <ele>130</ele>
        <time>2021-02-28T08:34:10.367000+00:00</time>
      </trkpt>
      <trkpt lat="0" lon="0">
        <time>2021-02-28T08:34:10.379000+00:00</time>
      </trkpt>
      <trkpt lat="0" lon="0">
        <time>2021-02-28T08:34:10.386000+00:00</time>
      </trkpt>
      <trkpt lat="0" lon="0">
        <time>2021-02-28T08:34:10.393000+00:00</time>
      </trkpt>
      <trkpt lat="47.31294" lon="-1.39534">
        <ele>130</ele>
        <time>2021-02-28T08:34:11.386000+00:00</time>
      </trkpt>
      <trkpt lat="0" lon="0">
        <time>2021-02-28T08:34:11.395000+00:00</time>
      </trkpt>
      <trkpt lat="0" lon="0">
        <time>2021-02-28T08:34:11.400000+00:00</time>
      </trkpt>
      <trkpt lat="0" lon="0">
        <time>2021-02-28T08:34:11.404000+00:00</time>
      </trkpt>
      <trkpt lat="47.31298" lon="-1.39541">
        <ele>130</ele>
        <time>2021-02-28T08:34:12.375000+00:00</time>
      </trkpt>
      <trkpt lat="0" lon="0">
        <time>2021-02-28T08:34:12.386000+00:00</time>
      </trkpt>
      <trkpt lat="0" lon="0">
        <time>2021-02-28T08:34:12.393000+00:00</time>
      </trkpt>
      <trkpt lat="0" lon="0">
        <time>2021-02-28T08:34:12.396000+00:00</time>
      </trkpt>
      <trkpt lat="47.31301" lon="-1.39549">
        <ele>130</ele>
        <time>2021-02-28T08:34:13.363000+00:00</time>
      </trkpt>
      <trkpt lat="0" lon="0">
        <time>2021-02-28T08:34:13.377000+00:00</time>
      </trkpt>
      <trkpt lat="0" lon="0">
        <time>2021-02-28T08:34:13.386000+00:00</time>
      </trkpt>
      <trkpt lat="0" lon="0">
        <time>2021-02-28T08:34:13.388000+00:00</time>
      </trkpt>
      <trkpt lat="47.31304" lon="-1.39557">
        <ele>130</ele>
        <time>2021-02-28T08:34:14.360000+00:00</time>
      </trkpt>
      <trkpt lat="0" lon="0">
        <time>2021-02-28T08:34:14.370000+00:00</time>
      </trkpt>
      <trkpt lat="0" lon="0">
        <time>2021-02-28T08:34:14.373000+00:00</time>
      </trkpt>
      <trkpt lat="0" lon="0">
        <time>2021-02-28T08:34:14.376000+00:00</time>
      </trkpt>
      <trkpt lat="47.31307" lon="-1.39565">
        <ele>130</ele>
        <time>2021-02-28T08:34:15.365000+00:00</time>
      </trkpt>
      <trkpt lat="0" lon="0">
        <time>2021-02-28T08:34:15.369000+00:00</time>
      </trkpt>
      <trkpt lat="0" lon="0">
        <time>2021-02-28T08:34:15.376000+00:00</time>
      </trkpt>
      <trkpt lat="0" lon="0">
        <time>2021-02-28T08:34:15.378000+00:00</time>
      </trkpt>
      <trkpt lat="47.3131" lon="-1.39573">
        <ele>129</ele>
        <time>2021-02-28T08:34:16.345000+00:00</time>
      </trkpt>
      <trkpt lat="0" lon="0">
        <time>2021-02-28T08:34:16.348000+00:00</time>
      </trkpt>
      <trkpt lat="0" lon="0">
        <time>2021-02-28T08:34:16.352000+00:00</time>
      </trkpt>
      <trkpt lat="0" lon="0">
        <time>2021-02-28T08:34:16.353000+00:00</time>
      </trkpt>
      <trkpt lat="47.31313" lon="-1.39582">
        <ele>129</ele>
        <time>2021-02-28T08:34:17.365000+00:00</time>
      </trkpt>
      <trkpt lat="0" lon="0">
        <time>2021-02-28T08:34:17.367000+00:00</time>
      </trkpt>
      <trkpt lat="0" lon="0">
        <time>2021-02-28T08:34:17.370000+00:00</time>
      </trkpt>
      <trkpt lat="0" lon="0">
        <time>2021-02-28T08:34:17.371000+00:00</time>
      </trkpt>
      <trkpt lat="47.31316" lon="-1.39591">
        <ele>129</ele>
        <time>2021-02-28T08:34:18.369000+00:00</time>
      </trkpt>
      <trkpt lat="0" lon="0">
        <time>2021-02-28T08:34:18.375000+00:00</time>
      </trkpt>
      <trkpt lat="0" lon="0">
        <time>2021-02-28T08:34:18.380000+00:00</time>
      </trkpt>
      <trkpt lat="0" lon="0">
        <time>2021-02-28T08:34:18.383000+00:00</time>
      </trkpt>
      <trkpt lat="47.31319" lon="-1.39601">
        <ele>129</ele>
        <time>2021-02-28T08:34:19.376000+00:00</time>
      </trkpt>
      <trkpt lat="0" lon="0">
        <time>2021-02-28T08:34:19.381000+00:00</time>
      </trkpt>
      <trkpt lat="0" lon="0">
        <time>2021-02-28T08:34:19.386000+00:00</time>
      </trkpt>
      <trkpt lat="0" lon="0">
        <time>2021-02-28T08:34:19.389000+00:00</time>
      </trkpt>
      <trkpt lat="47.31322" lon="-1.3961">
        <ele>129</ele>
        <time>2021-02-28T08:34:20.368000+00:00</time>
      </trkpt>
      <trkpt lat="0" lon="0">
        <time>2021-02-28T08:34:20.378000+00:00</time>
      </trkpt>
      <trkpt lat="0" lon="0">
        <time>2021-02-28T08:34:20.383000+00:00</time>
      </trkpt>
      <trkpt lat="0" lon="0">
        <time>2021-02-28T08:34:20.385000+00:00</time>
      </trkpt>
      <trkpt lat="47.31325" lon="-1.3962">
        <ele>129</ele>
        <time>2021-02-28T08:34:21.383000+00:00</time>
      </trkpt>
      <trkpt lat="0" lon="0">
        <time>2021-02-28T08:34:21.394000+00:00</time>
      </trkpt>
      <trkpt lat="0" lon="0">
        <time>2021-02-28T08:34:21.400000+00:00</time>
      </trkpt>
      <trkpt lat="0" lon="0">
        <time>2021-02-28T08:34:21.403000+00:00</time>
      </trkpt>
      <trkpt lat="47.31328" lon="-1.3963">
        <ele>129</ele>
        <time>2021-02-28T08:34:22.357000+00:00</time>
      </trkpt>
      <trkpt lat="0" lon="0">
        <time>2021-02-28T08:34:22.359000+00:00</time>
      </trkpt>
      <trkpt lat="0" lon="0">
        <time>2021-02-28T08:34:22.361000+00:00</time>
      </trkpt>
      <trkpt lat="0" lon="0">
        <time>2021-02-28T08:34:22.363000+00:00</time>
      </trkpt>
      <trkpt lat="47.3133" lon="-1.3964">
        <ele>129</ele>
        <time>2021-02-28T08:34:23.375000+00:00</time>
      </trkpt>
      <trkpt lat="0" lon="0">
        <time>2021-02-28T08:34:23.386000+00:00</time>
      </trkpt>
      <trkpt lat="0" lon="0">
        <time>2021-02-28T08:34:23.391000+00:00</time>
      </trkpt>
      <trkpt lat="0" lon="0">
        <time>2021-02-28T08:34:23.394000+00:00</time>
      </trkpt>
      <trkpt lat="47.31332" lon="-1.39651">
        <ele>129</ele>
        <time>2021-02-28T08:34:24.360000+00:00</time>
      </trkpt>
      <trkpt lat="0" lon="0">
        <time>2021-02-28T08:34:24.365000+00:00</time>
      </trkpt>
      <trkpt lat="0" lon="0">
        <time>2021-02-28T08:34:24.370000+00:00</time>
      </trkpt>
      <trkpt lat="0" lon="0">
        <time>2021-02-28T08:34:24.371000+00:00</time>
      </trkpt>
      <trkpt lat="47.31335" lon="-1.39663">
        <ele>128</ele>
        <time>2021-02-28T08:34:25.361000+00:00</time>
      </trkpt>
      <trkpt lat="0" lon="0">
        <time>2021-02-28T08:34:25.368000+00:00</time>
      </trkpt>
      <trkpt lat="0" lon="0">
        <time>2021-02-28T08:34:25.372000+00:00</time>
      </trkpt>
      <trkpt lat="0" lon="0">
        <time>2021-02-28T08:34:25.376000+00:00</time>
      </trkpt>
      <trkpt lat="47.31337" lon="-1.39674">
        <ele>128</ele>
        <time>2021-02-28T08:34:26.348000+00:00</time>
      </trkpt>
      <trkpt lat="0" lon="0">
        <time>2021-02-28T08:34:26.352000+00:00</time>
      </trkpt>
      <trkpt lat="0" lon="0">
        <time>2021-02-28T08:34:26.358000+00:00</time>
      </trkpt>
      <trkpt lat="0" lon="0">
        <time>2021-02-28T08:34:26.360000+00:00</time>
      </trkpt>
      <trkpt lat="47.3134" lon="-1.39685">
        <ele>129</ele>
        <time>2021-02-28T08:34:27.375000+00:00</time>
      </trkpt>
      <trkpt lat="0" lon="0">
        <time>2021-02-28T08:34:27.380000+00:00</time>
      </trkpt>
      <trkpt lat="0" lon="0">
        <time>2021-02-28T08:34:27.385000+00:00</time>
      </trkpt>
      <trkpt lat="0" lon="0">
        <time>2021-02-28T08:34:27.387000+00:00</time>
      </trkpt>
      <trkpt lat="47.31342" lon="-1.39696">
        <ele>128</ele>
        <time>2021-02-28T08:34:28.342000+00:00</time>
      </trkpt>
      <trkpt lat="0" lon="0">
        <time>2021-02-28T08:34:28.344000+00:00</time>
      </trkpt>
      <trkpt lat="0" lon="0">
        <time>2021-02-28T08:34:28.345000+00:00</time>
      </trkpt>
      <trkpt lat="0" lon="0">
        <time>2021-02-28T08:34:28.349000+00:00</time>
      </trkpt>
      <trkpt lat="47.31344" lon="-1.39708">
        <ele>128</ele>
        <time>2021-02-28T08:34:29.366000+00:00</time>
      </trkpt>
      <trkpt lat="0" lon="0">
        <time>2021-02-28T08:34:29.371000+00:00</time>
      </trkpt>
      <trkpt lat="0" lon="0">
        <time>2021-02-28T08:34:29.379000+00:00</time>
      </trkpt>
      <trkpt lat="0" lon="0">
        <time>2021-02-28T08:34:29.381000+00:00</time>
      </trkpt>
      <trkpt lat="47.31346" lon="-1.3972">
        <ele>128</ele>
        <time>2021-02-28T08:34:30.364000+00:00</time>
      </trkpt>
      <trkpt lat="0" lon="0">
        <time>2021-02-28T08:34:30.373000+00:00</time>
      </trkpt>
      <trkpt lat="0" lon="0">
        <time>2021-02-28T08:34:30.378000+00:00</time>
      </trkpt>
      <trkpt lat="0" lon="0">
        <time>2021-02-28T08:34:30.380000+00:00</time>
      </trkpt>
      <trkpt lat="47.31348" lon="-1.39732">
        <ele>128</ele>
        <time>2021-02-28T08:34:31.337000+00:00</time>
      </trkpt>
      <trkpt lat="0" lon="0">
        <time>2021-02-28T08:34:31.342000+00:00</time>
      </trkpt>
      <trkpt lat="0" lon="0">
        <time>2021-02-28T08:34:31.346000+00:00</time>
      </trkpt>
      <trkpt lat="0" lon="0">
        <time>2021-02-28T08:34:31.348000+00:00</time>
      </trkpt>
      <trkpt lat="47.31351" lon="-1.39743">
        <ele>128</ele>
        <time>2021-02-28T08:34:32.364000+00:00</time>
      </trkpt>
      <trkpt lat="0" lon="0">
        <time>2021-02-28T08:34:32.372000+00:00</time>
      </trkpt>
      <trkpt lat="0" lon="0">
        <time>2021-02-28T08:34:32.377000+00:00</time>
      </trkpt>
      <trkpt lat="0" lon="0">
        <time>2021-02-28T08:34:32.379000+00:00</time>
      </trkpt>
      <trkpt lat="47.31354" lon="-1.39755">
        <ele>128</ele>
        <time>2021-02-28T08:34:33.375000+00:00</time>
      </trkpt>
      <trkpt lat="0" lon="0">
        <time>2021-02-28T08:34:33.382000+00:00</time>
      </trkpt>
      <trkpt lat="0" lon="0">
        <time>2021-02-28T08:34:33.390000+00:00</time>
      </trkpt>
      <trkpt lat="0" lon="0">
        <time>2021-02-28T08:34:33.393000+00:00</time>
      </trkpt>
      <trkpt lat="47.31357" lon="-1.39766">
        <ele>127</ele>
        <time>2021-02-28T08:34:34.360000+00:00</time>
      </trkpt>
      <trkpt lat="0" lon="0">
        <time>2021-02-28T08:34:34.366000+00:00</time>
      </trkpt>
      <trkpt lat="0" lon="0">
        <time>2021-02-28T08:34:34.371000+00:00</time>
      </trkpt>
      <trkpt lat="0" lon="0">
        <time>2021-02-28T08:34:34.375000+00:00</time>
      </trkpt>
      <trkpt lat="47.31361" lon="-1.39777">
        <ele>127</ele>
        <time>2021-02-28T08:34:35.353000+00:00</time>
      </trkpt>
      <trkpt lat="0" lon="0">
        <time>2021-02-28T08:34:35.361000+00:00</time>
      </trkpt>
      <trkpt lat="0" lon="0">
        <time>2021-02-28T08:34:35.365000+00:00</time>
      </trkpt>
      <trkpt lat="0" lon="0">
        <time>2021-02-28T08:34:35.368000+00:00</time>
      </trkpt>
      <trkpt lat="47.31364" lon="-1.39788">
        <ele>127</ele>
        <time>2021-02-28T08:34:36.374000+00:00</time>
      </trkpt>
      <trkpt lat="0" lon="0">
        <time>2021-02-28T08:34:36.380000+00:00</time>
      </trkpt>
      <trkpt lat="0" lon="0">
        <time>2021-02-28T08:34:36.384000+00:00</time>
      </trkpt>
      <trkpt lat="0" lon="0">
        <time>2021-02-28T08:34:36.386000+00:00</time>
      </trkpt>
      <trkpt lat="47.31367" lon="-1.39798">
        <ele>127</ele>
        <time>2021-02-28T08:34:37.373000+00:00</time>
      </trkpt>
      <trkpt lat="0" lon="0">
        <time>2021-02-28T08:34:37.378000+00:00</time>
      </trkpt>
      <trkpt lat="0" lon="0">
        <time>2021-02-28T08:34:37.383000+00:00</time>
      </trkpt>
      <trkpt lat="0" lon="0">
        <time>2021-02-28T08:34:37.385000+00:00</time>
      </trkpt>
      <trkpt lat="47.3137" lon="-1.39808">
        <ele>126</ele>
        <time>2021-02-28T08:34:38.354000+00:00</time>
      </trkpt>
      <trkpt lat="0" lon="0">
        <time>2021-02-28T08:34:38.360000+00:00</time>
      </trkpt>
      <trkpt lat="0" lon="0">
        <time>2021-02-28T08:34:38.366000+00:00</time>
      </trkpt>
      <trkpt lat="0" lon="0">
        <time>2021-02-28T08:34:38.367000+00:00</time>
      </trkpt>
      <trkpt lat="47.31373" lon="-1.39818">
        <ele>126</ele>
        <time>2021-02-28T08:34:39.339000+00:00</time>
      </trkpt>
      <trkpt lat="0" lon="0">
        <time>2021-02-28T08:34:39.348000+00:00</time>
      </trkpt>
      <trkpt lat="0" lon="0">
        <time>2021-02-28T08:34:39.351000+00:00</time>
      </trkpt>
      <trkpt lat="0" lon="0">
        <time>2021-02-28T08:34:39.352000+00:00</time>
      </trkpt>
      <trkpt lat="47.31377" lon="-1.39828">
        <ele>126</ele>
        <time>2021-02-28T08:34:40.351000+00:00</time>
      </trkpt>
      <trkpt lat="0" lon="0">
        <time>2021-02-28T08:34:40.358000+00:00</time>
      </trkpt>
      <trkpt lat="0" lon="0">
        <time>2021-02-28T08:34:40.364000+00:00</time>
      </trkpt>
      <trkpt lat="0" lon="0">
        <time>2021-02-28T08:34:40.367000+00:00</time>
      </trkpt>
      <trkpt lat="47.3138" lon="-1.39838">
        <ele>126</ele>
        <time>2021-02-28T08:34:41.358000+00:00</time>
      </trkpt>
      <trkpt lat="0" lon="0">
        <time>2021-02-28T08:34:41.362000+00:00</time>
      </trkpt>
      <trkpt lat="0" lon="0">
        <time>2021-02-28T08:34:41.366000+00:00</time>
      </trkpt>
      <trkpt lat="0" lon="0">
        <time>2021-02-28T08:34:41.369000+00:00</time>
      </trkpt>
      <trkpt lat="47.31382" lon="-1.39846">
        <ele>126</ele>
        <time>2021-02-28T08:34:42.361000+00:00</time>
      </trkpt>
      <trkpt lat="0" lon="0">
        <time>2021-02-28T08:34:42.367000+00:00</time>
      </trkpt>
      <trkpt lat="0" lon="0">
        <time>2021-02-28T08:34:42.372000+00:00</time>
      </trkpt>
      <trkpt lat="0" lon="0">
        <time>2021-02-28T08:34:42.375000+00:00</time>
      </trkpt>
      <trkpt lat="47.31385" lon="-1.39853">
        <ele>126</ele>
        <time>2021-02-28T08:34:43.375000+00:00</time>
      </trkpt>
      <trkpt lat="0" lon="0">
        <time>2021-02-28T08:34:43.381000+00:00</time>
      </trkpt>
      <trkpt lat="0" lon="0">
        <time>2021-02-28T08:34:43.386000+00:00</time>
      </trkpt>
      <trkpt lat="0" lon="0">
        <time>2021-02-28T08:34:43.391000+00:00</time>
      </trkpt>
      <trkpt lat="47.31387" lon="-1.39858">
        <ele>125</ele>
        <time>2021-02-28T08:34:44.387000+00:00</time>
      </trkpt>
      <trkpt lat="0" lon="0">
        <time>2021-02-28T08:34:44.393000+00:00</time>
      </trkpt>
      <trkpt lat="0" lon="0">
        <time>2021-02-28T08:34:44.398000+00:00</time>
      </trkpt>
      <trkpt lat="0" lon="0">
        <time>2021-02-28T08:34:44.401000+00:00</time>
      </trkpt>
      <trkpt lat="47.31388" lon="-1.39863">
        <ele>125</ele>
        <time>2021-02-28T08:34:45.348000+00:00</time>
      </trkpt>
      <trkpt lat="0" lon="0">
        <time>2021-02-28T08:34:45.361000+00:00</time>
      </trkpt>
      <trkpt lat="0" lon="0">
        <time>2021-02-28T08:34:45.366000+00:00</time>
      </trkpt>
      <trkpt lat="0" lon="0">
        <time>2021-02-28T08:34:45.368000+00:00</time>
      </trkpt>
      <trkpt lat="47.3139" lon="-1.39867">
        <ele>125</ele>
        <time>2021-02-28T08:34:46.381000+00:00</time>
      </trkpt>
      <trkpt lat="0" lon="0">
        <time>2021-02-28T08:34:46.391000+00:00</time>
      </trkpt>
      <trkpt lat="0" lon="0">
        <time>2021-02-28T08:34:46.395000+00:00</time>
      </trkpt>
      <trkpt lat="0" lon="0">
        <time>2021-02-28T08:34:46.397000+00:00</time>
      </trkpt>
      <trkpt lat="47.31391" lon="-1.3987">
        <ele>125</ele>
        <time>2021-02-28T08:34:47.366000+00:00</time>
      </trkpt>
      <trkpt lat="0" lon="0">
        <time>2021-02-28T08:34:47.375000+00:00</time>
      </trkpt>
      <trkpt lat="0" lon="0">
        <time>2021-02-28T08:34:47.377000+00:00</time>
      </trkpt>
      <trkpt lat="0" lon="0">
        <time>2021-02-28T08:34:47.378000+00:00</time>
      </trkpt>
      <trkpt lat="47.31392" lon="-1.39872">
        <ele>125</ele>
        <time>2021-02-28T08:34:48.371000+00:00</time>
      </trkpt>
      <trkpt lat="0" lon="0">
        <time>2021-02-28T08:34:48.379000+00:00</time>
      </trkpt>
      <trkpt lat="0" lon="0">
        <time>2021-02-28T08:34:48.384000+00:00</time>
      </trkpt>
      <trkpt lat="0" lon="0">
        <time>2021-02-28T08:34:48.386000+00:00</time>
      </trkpt>
      <trkpt lat="47.31393" lon="-1.39874">
        <ele>124</ele>
        <time>2021-02-28T08:34:49.372000+00:00</time>
      </trkpt>
      <trkpt lat="0" lon="0">
        <time>2021-02-28T08:34:49.377000+00:00</time>
      </trkpt>
      <trkpt lat="0" lon="0">
        <time>2021-02-28T08:34:49.381000+00:00</time>
      </trkpt>
      <trkpt lat="0" lon="0">
        <time>2021-02-28T08:34:49.383000+00:00</time>
      </trkpt>
      <trkpt lat="47.31394" lon="-1.39875">
        <ele>124</ele>
        <time>2021-02-28T08:34:50.356000+00:00</time>
      </trkpt>
      <trkpt lat="0" lon="0">
        <time>2021-02-28T08:34:50.361000+00:00</time>
      </trkpt>
      <trkpt lat="0" lon="0">
        <time>2021-02-28T08:34:50.364000+00:00</time>
      </trkpt>
      <trkpt lat="0" lon="0">
        <time>2021-02-28T08:34:50.367000+00:00</time>
      </trkpt>
      <trkpt lat="47.31394" lon="-1.39876">
        <ele>124</ele>
        <time>2021-02-28T08:34:51.341000+00:00</time>
      </trkpt>
      <trkpt lat="0" lon="0">
        <time>2021-02-28T08:34:51.346000+00:00</time>
      </trkpt>
      <trkpt lat="0" lon="0">
        <time>2021-02-28T08:34:51.353000+00:00</time>
      </trkpt>
      <trkpt lat="0" lon="0">
        <time>2021-02-28T08:34:51.356000+00:00</time>
      </trkpt>
      <trkpt lat="47.31394" lon="-1.39877">
        <ele>123</ele>
        <time>2021-02-28T08:34:52.360000+00:00</time>
      </trkpt>
      <trkpt lat="0" lon="0">
        <time>2021-02-28T08:34:52.371000+00:00</time>
      </trkpt>
      <trkpt lat="0" lon="0">
        <time>2021-02-28T08:34:52.379000+00:00</time>
      </trkpt>
      <trkpt lat="0" lon="0">
        <time>2021-02-28T08:34:52.382000+00:00</time>
      </trkpt>
      <trkpt lat="47.31395" lon="-1.39877">
        <ele>123</ele>
        <time>2021-02-28T08:34:53.386000+00:00</time>
      </trkpt>
      <trkpt lat="0" lon="0">
        <time>2021-02-28T08:34:53.393000+00:00</time>
      </trkpt>
      <trkpt lat="0" lon="0">
        <time>2021-02-28T08:34:53.401000+00:00</time>
      </trkpt>
      <trkpt lat="0" lon="0">
        <time>2021-02-28T08:34:53.404000+00:00</time>
      </trkpt>
      <trkpt lat="47.31395" lon="-1.39876">
        <ele>123</ele>
        <time>2021-02-28T08:34:54.365000+00:00</time>
      </trkpt>
      <trkpt lat="0" lon="0">
        <time>2021-02-28T08:34:54.370000+00:00</time>
      </trkpt>
      <trkpt lat="0" lon="0">
        <time>2021-02-28T08:34:54.374000+00:00</time>
      </trkpt>
      <trkpt lat="0" lon="0">
        <time>2021-02-28T08:34:54.376000+00:00</time>
      </trkpt>
      <trkpt lat="47.31395" lon="-1.39876">
        <ele>123</ele>
        <time>2021-02-28T08:34:55.375000+00:00</time>
      </trkpt>
      <trkpt lat="0" lon="0">
        <time>2021-02-28T08:34:55.381000+00:00</time>
      </trkpt>
      <trkpt lat="0" lon="0">
        <time>2021-02-28T08:34:55.385000+00:00</time>
      </trkpt>
      <trkpt lat="0" lon="0">
        <time>2021-02-28T08:34:55.388000+00:00</time>
      </trkpt>
      <trkpt lat="47.31395" lon="-1.39876">
        <ele>123</ele>
        <time>2021-02-28T08:34:56.346000+00:00</time>
      </trkpt>
      <trkpt lat="0" lon="0">
        <time>2021-02-28T08:34:56.350000+00:00</time>
      </trkpt>
      <trkpt lat="0" lon="0">
        <time>2021-02-28T08:34:56.355000+00:00</time>
      </trkpt>
      <trkpt lat="0" lon="0">
        <time>2021-02-28T08:34:56.358000+00:00</time>
      </trkpt>
      <trkpt lat="47.31395" lon="-1.39876">
        <ele>122</ele>
        <time>2021-02-28T08:34:57.367000+00:00</time>
      </trkpt>
      <trkpt lat="0" lon="0">
        <time>2021-02-28T08:34:57.369000+00:00</time>
      </trkpt>
      <trkpt lat="0" lon="0">
        <time>2021-02-28T08:34:57.372000+00:00</time>
      </trkpt>
      <trkpt lat="0" lon="0">
        <time>2021-02-28T08:34:57.373000+00:00</time>
      </trkpt>
      <trkpt lat="47.31396" lon="-1.39877">
        <ele>122</ele>
        <time>2021-02-28T08:34:58.371000+00:00</time>
      </trkpt>
      <trkpt lat="0" lon="0">
        <time>2021-02-28T08:34:58.373000+00:00</time>
      </trkpt>
      <trkpt lat="0" lon="0">
        <time>2021-02-28T08:34:58.376000+00:00</time>
      </trkpt>
      <trkpt lat="0" lon="0">
        <time>2021-02-28T08:34:58.377000+00:00</time>
      </trkpt>
      <trkpt lat="47.31396" lon="-1.39877">
        <ele>121</ele>
        <time>2021-02-28T08:34:59.391000+00:00</time>
      </trkpt>
      <trkpt lat="0" lon="0">
        <time>2021-02-28T08:34:59.397000+00:00</time>
      </trkpt>
      <trkpt lat="0" lon="0">
        <time>2021-02-28T08:34:59.401000+00:00</time>
      </trkpt>
      <trkpt lat="0" lon="0">
        <time>2021-02-28T08:34:59.403000+00:00</time>
      </trkpt>
      <trkpt lat="47.31397" lon="-1.39878">
        <ele>121</ele>
        <time>2021-02-28T08:35:00.348000+00:00</time>
      </trkpt>
      <trkpt lat="0" lon="0">
        <time>2021-02-28T08:35:00.362000+00:00</time>
      </trkpt>
      <trkpt lat="0" lon="0">
        <time>2021-02-28T08:35:00.369000+00:00</time>
      </trkpt>
      <trkpt lat="0" lon="0">
        <time>2021-02-28T08:35:00.370000+00:00</time>
      </trkpt>
      <trkpt lat="47.31397" lon="-1.39878">
        <ele>120</ele>
        <time>2021-02-28T08:35:01.356000+00:00</time>
      </trkpt>
      <trkpt lat="0" lon="0">
        <time>2021-02-28T08:35:01.363000+00:00</time>
      </trkpt>
      <trkpt lat="0" lon="0">
        <time>2021-02-28T08:35:01.370000+00:00</time>
      </trkpt>
      <trkpt lat="0" lon="0">
        <time>2021-02-28T08:35:01.372000+00:00</time>
      </trkpt>
      <trkpt lat="47.31398" lon="-1.39879">
        <ele>120</ele>
        <time>2021-02-28T08:35:02.358000+00:00</time>
      </trkpt>
      <trkpt lat="0" lon="0">
        <time>2021-02-28T08:35:02.367000+00:00</time>
      </trkpt>
      <trkpt lat="0" lon="0">
        <time>2021-02-28T08:35:02.371000+00:00</time>
      </trkpt>
      <trkpt lat="0" lon="0">
        <time>2021-02-28T08:35:02.373000+00:00</time>
      </trkpt>
      <trkpt lat="47.31399" lon="-1.3988">
        <ele>119</ele>
        <time>2021-02-28T08:35:03.356000+00:00</time>
      </trkpt>
      <trkpt lat="0" lon="0">
        <time>2021-02-28T08:35:03.364000+00:00</time>
      </trkpt>
      <trkpt lat="0" lon="0">
        <time>2021-02-28T08:35:03.368000+00:00</time>
      </trkpt>
      <trkpt lat="0" lon="0">
        <time>2021-02-28T08:35:03.372000+00:00</time>
      </trkpt>
      <trkpt lat="47.314" lon="-1.39881">
        <ele>119</ele>
        <time>2021-02-28T08:35:04.367000+00:00</time>
      </trkpt>
      <trkpt lat="0" lon="0">
        <time>2021-02-28T08:35:04.379000+00:00</time>
      </trkpt>
      <trkpt lat="0" lon="0">
        <time>2021-02-28T08:35:04.383000+00:00</time>
      </trkpt>
      <trkpt lat="0" lon="0">
        <time>2021-02-28T08:35:04.386000+00:00</time>
      </trkpt>
      <trkpt lat="47.31401" lon="-1.39882">
        <ele>119</ele>
        <time>2021-02-28T08:35:05.350000+00:00</time>
      </trkpt>
      <trkpt lat="0" lon="0">
        <time>2021-02-28T08:35:05.356000+00:00</time>
      </trkpt>
      <trkpt lat="0" lon="0">
        <time>2021-02-28T08:35:05.361000+00:00</time>
      </trkpt>
      <trkpt lat="0" lon="0">
        <time>2021-02-28T08:35:05.363000+00:00</time>
      </trkpt>
      <trkpt lat="47.31402" lon="-1.39883">
        <ele>118</ele>
        <time>2021-02-28T08:35:06.368000+00:00</time>
      </trkpt>
      <trkpt lat="0" lon="0">
        <time>2021-02-28T08:35:06.376000+00:00</time>
      </trkpt>
      <trkpt lat="0" lon="0">
        <time>2021-02-28T08:35:06.379000+00:00</time>
      </trkpt>
      <trkpt lat="0" lon="0">
        <time>2021-02-28T08:35:06.391000+00:00</time>
      </trkpt>
      <trkpt lat="47.31404" lon="-1.39883">
        <ele>118</ele>
        <time>2021-02-28T08:35:07.378000+00:00</time>
      </trkpt>
      <trkpt lat="0" lon="0">
        <time>2021-02-28T08:35:07.381000+00:00</time>
      </trkpt>
      <trkpt lat="0" lon="0">
        <time>2021-02-28T08:35:07.383000+00:00</time>
      </trkpt>
      <trkpt lat="0" lon="0">
        <time>2021-02-28T08:35:07.385000+00:00</time>
      </trkpt>
      <trkpt lat="47.31405" lon="-1.39884">
        <ele>118</ele>
        <time>2021-02-28T08:35:08.390000+00:00</time>
      </trkpt>
      <trkpt lat="0" lon="0">
        <time>2021-02-28T08:35:08.393000+00:00</time>
      </trkpt>
      <trkpt lat="0" lon="0">
        <time>2021-02-28T08:35:08.395000+00:00</time>
      </trkpt>
      <trkpt lat="0" lon="0">
        <time>2021-02-28T08:35:08.396000+00:00</time>
      </trkpt>
      <trkpt lat="47.31407" lon="-1.39884">
        <ele>117</ele>
        <time>2021-02-28T08:35:09.387000+00:00</time>
      </trkpt>
      <trkpt lat="0" lon="0">
        <time>2021-02-28T08:35:09.393000+00:00</time>
      </trkpt>
      <trkpt lat="0" lon="0">
        <time>2021-02-28T08:35:09.400000+00:00</time>
      </trkpt>
      <trkpt lat="0" lon="0">
        <time>2021-02-28T08:35:09.404000+00:00</time>
      </trkpt>
      <trkpt lat="47.31409" lon="-1.39884">
        <ele>117</ele>
        <time>2021-02-28T08:35:10.382000+00:00</time>
      </trkpt>
      <trkpt lat="0" lon="0">
        <time>2021-02-28T08:35:10.389000+00:00</time>
      </trkpt>
      <trkpt lat="0" lon="0">
        <time>2021-02-28T08:35:10.394000+00:00</time>
      </trkpt>
      <trkpt lat="0" lon="0">
        <time>2021-02-28T08:35:10.396000+00:00</time>
      </trkpt>
      <trkpt lat="47.31411" lon="-1.39884">
        <ele>117</ele>
        <time>2021-02-28T08:35:11.408000+00:00</time>
      </trkpt>
      <trkpt lat="0" lon="0">
        <time>2021-02-28T08:35:11.415000+00:00</time>
      </trkpt>
      <trkpt lat="0" lon="0">
        <time>2021-02-28T08:35:11.420000+00:00</time>
      </trkpt>
      <trkpt lat="0" lon="0">
        <time>2021-02-28T08:35:11.423000+00:00</time>
      </trkpt>
      <trkpt lat="47.31413" lon="-1.39884">
        <ele>116</ele>
        <time>2021-02-28T08:35:12.374000+00:00</time>
      </trkpt>
      <trkpt lat="0" lon="0">
        <time>2021-02-28T08:35:12.383000+00:00</time>
      </trkpt>
      <trkpt lat="0" lon="0">
        <time>2021-02-28T08:35:12.388000+00:00</time>
      </trkpt>
      <trkpt lat="0" lon="0">
        <time>2021-02-28T08:35:12.390000+00:00</time>
      </trkpt>
      <trkpt lat="47.31415" lon="-1.39884">
        <ele>116</ele>
        <time>2021-02-28T08:35:13.394000+00:00</time>
      </trkpt>
      <trkpt lat="0" lon="0">
        <time>2021-02-28T08:35:13.399000+00:00</time>
      </trkpt>
      <trkpt lat="0" lon="0">
        <time>2021-02-28T08:35:13.404000+00:00</time>
      </trkpt>
      <trkpt lat="0" lon="0">
        <time>2021-02-28T08:35:13.407000+00:00</time>
      </trkpt>
      <trkpt lat="47.31418" lon="-1.39884">
        <ele>116</ele>
        <time>2021-02-28T08:35:14.395000+00:00</time>
      </trkpt>
      <trkpt lat="0" lon="0">
        <time>2021-02-28T08:35:14.397000+00:00</time>
      </trkpt>
      <trkpt lat="0" lon="0">
        <time>2021-02-28T08:35:14.399000+00:00</time>
      </trkpt>
      <trkpt lat="0" lon="0">
        <time>2021-02-28T08:35:14.400000+00:00</time>
      </trkpt>
      <trkpt lat="47.31421" lon="-1.39883">
        <ele>116</ele>
        <time>2021-02-28T08:35:15.393000+00:00</time>
      </trkpt>
      <trkpt lat="0" lon="0">
        <time>2021-02-28T08:35:15.397000+00:00</time>
      </trkpt>
      <trkpt lat="0" lon="0">
        <time>2021-02-28T08:35:15.402000+00:00</time>
      </trkpt>
      <trkpt lat="0" lon="0">
        <time>2021-02-28T08:35:15.404000+00:00</time>
      </trkpt>
      <trkpt lat="47.31423" lon="-1.39883">
        <ele>116</ele>
        <time>2021-02-28T08:35:16.419000+00:00</time>
      </trkpt>
      <trkpt lat="0" lon="0">
        <time>2021-02-28T08:35:16.427000+00:00</time>
      </trkpt>
      <trkpt lat="0" lon="0">
        <time>2021-02-28T08:35:16.432000+00:00</time>
      </trkpt>
      <trkpt lat="0" lon="0">
        <time>2021-02-28T08:35:16.434000+00:00</time>
      </trkpt>
      <trkpt lat="47.31425" lon="-1.39882">
        <ele>116</ele>
        <time>2021-02-28T08:35:17.403000+00:00</time>
      </trkpt>
      <trkpt lat="0" lon="0">
        <time>2021-02-28T08:35:17.412000+00:00</time>
      </trkpt>
      <trkpt lat="0" lon="0">
        <time>2021-02-28T08:35:17.416000+00:00</time>
      </trkpt>
      <trkpt lat="0" lon="0">
        <time>2021-02-28T08:35:17.419000+00:00</time>
      </trkpt>
      <trkpt lat="47.31428" lon="-1.39882">
        <ele>116</ele>
        <time>2021-02-28T08:35:18.386000+00:00</time>
      </trkpt>
      <trkpt lat="0" lon="0">
        <time>2021-02-28T08:35:18.391000+00:00</time>
      </trkpt>
      <trkpt lat="0" lon="0">
        <time>2021-02-28T08:35:18.395000+00:00</time>
      </trkpt>
      <trkpt lat="0" lon="0">
        <time>2021-02-28T08:35:18.397000+00:00</time>
      </trkpt>
      <trkpt lat="47.3143" lon="-1.39881">
        <ele>116</ele>
        <time>2021-02-28T08:35:19.395000+00:00</time>
      </trkpt>
      <trkpt lat="0" lon="0">
        <time>2021-02-28T08:35:19.401000+00:00</time>
      </trkpt>
      <trkpt lat="0" lon="0">
        <time>2021-02-28T08:35:19.405000+00:00</time>
      </trkpt>
      <trkpt lat="0" lon="0">
        <time>2021-02-28T08:35:19.408000+00:00</time>
      </trkpt>
      <trkpt lat="47.31433" lon="-1.3988">
        <ele>116</ele>
        <time>2021-02-28T08:35:20.366000+00:00</time>
      </trkpt>
      <trkpt lat="0" lon="0">
        <time>2021-02-28T08:35:20.372000+00:00</time>
      </trkpt>
      <trkpt lat="0" lon="0">
        <time>2021-02-28T08:35:20.382000+00:00</time>
      </trkpt>
      <trkpt lat="0" lon="0">
        <time>2021-02-28T08:35:20.384000+00:00</time>
      </trkpt>
      <trkpt lat="47.31435" lon="-1.39879">
        <ele>116</ele>
        <time>2021-02-28T08:35:21.391000+00:00</time>
      </trkpt>
      <trkpt lat="0" lon="0">
        <time>2021-02-28T08:35:21.403000+00:00</time>
      </trkpt>
      <trkpt lat="0" lon="0">
        <time>2021-02-28T08:35:21.412000+00:00</time>
      </trkpt>
      <trkpt lat="0" lon="0">
        <time>2021-02-28T08:35:21.416000+00:00</time>
      </trkpt>
      <trkpt lat="47.31438" lon="-1.39878">
        <ele>116</ele>
        <time>2021-02-28T08:35:22.393000+00:00</time>
      </trkpt>
      <trkpt lat="0" lon="0">
        <time>2021-02-28T08:35:22.399000+00:00</time>
      </trkpt>
      <trkpt lat="0" lon="0">
        <time>2021-02-28T08:35:22.403000+00:00</time>
      </trkpt>
      <trkpt lat="0" lon="0">
        <time>2021-02-28T08:35:22.405000+00:00</time>
      </trkpt>
      <trkpt lat="47.3144" lon="-1.39876">
        <ele>116</ele>
        <time>2021-02-28T08:35:23.380000+00:00</time>
      </trkpt>
      <trkpt lat="0" lon="0">
        <time>2021-02-28T08:35:23.388000+00:00</time>
      </trkpt>
      <trkpt lat="0" lon="0">
        <time>2021-02-28T08:35:23.392000+00:00</time>
      </trkpt>
      <trkpt lat="0" lon="0">
        <time>2021-02-28T08:35:23.395000+00:00</time>
      </trkpt>
      <trkpt lat="47.31442" lon="-1.39875">
        <ele>115</ele>
        <time>2021-02-28T08:35:24.390000+00:00</time>
      </trkpt>
      <trkpt lat="0" lon="0">
        <time>2021-02-28T08:35:24.396000+00:00</time>
      </trkpt>
      <trkpt lat="0" lon="0">
        <time>2021-02-28T08:35:24.401000+00:00</time>
      </trkpt>
      <trkpt lat="0" lon="0">
        <time>2021-02-28T08:35:24.403000+00:00</time>
      </trkpt>
      <trkpt lat="47.31444" lon="-1.39873">
        <ele>115</ele>
        <time>2021-02-28T08:35:25.391000+00:00</time>
      </trkpt>
      <trkpt lat="0" lon="0">
        <time>2021-02-28T08:35:25.393000+00:00</time>
      </trkpt>
      <trkpt lat="0" lon="0">
        <time>2021-02-28T08:35:25.396000+00:00</time>
      </trkpt>
      <trkpt lat="0" lon="0">
        <time>2021-02-28T08:35:25.397000+00:00</time>
      </trkpt>
      <trkpt lat="47.31445" lon="-1.39872">
        <ele>115</ele>
        <time>2021-02-28T08:35:26.374000+00:00</time>
      </trkpt>
      <trkpt lat="0" lon="0">
        <time>2021-02-28T08:35:26.382000+00:00</time>
      </trkpt>
      <trkpt lat="0" lon="0">
        <time>2021-02-28T08:35:26.387000+00:00</time>
      </trkpt>
      <trkpt lat="0" lon="0">
        <time>2021-02-28T08:35:26.388000+00:00</time>
      </trkpt>
      <trkpt lat="47.31447" lon="-1.39871">
        <ele>115</ele>
        <time>2021-02-28T08:35:27.288000+00:00</time>
      </trkpt>
      <trkpt lat="0" lon="0">
        <time>2021-02-28T08:35:27.293000+00:00</time>
      </trkpt>
      <trkpt lat="0" lon="0">
        <time>2021-02-28T08:35:27.297000+00:00</time>
      </trkpt>
      <trkpt lat="0" lon="0">
        <time>2021-02-28T08:35:27.300000+00:00</time>
      </trkpt>
      <trkpt lat="47.31448" lon="-1.3987">
        <ele>115</ele>
        <time>2021-02-28T08:35:28.343000+00:00</time>
      </trkpt>
      <trkpt lat="0" lon="0">
        <time>2021-02-28T08:35:28.354000+00:00</time>
      </trkpt>
      <trkpt lat="0" lon="0">
        <time>2021-02-28T08:35:28.358000+00:00</time>
      </trkpt>
      <trkpt lat="0" lon="0">
        <time>2021-02-28T08:35:28.360000+00:00</time>
      </trkpt>
      <trkpt lat="47.3145" lon="-1.39869">
        <ele>115</ele>
        <time>2021-02-28T08:35:29.398000+00:00</time>
      </trkpt>
      <trkpt lat="0" lon="0">
        <time>2021-02-28T08:35:29.404000+00:00</time>
      </trkpt>
      <trkpt lat="0" lon="0">
        <time>2021-02-28T08:35:29.409000+00:00</time>
      </trkpt>
      <trkpt lat="0" lon="0">
        <time>2021-02-28T08:35:29.412000+00:00</time>
      </trkpt>
      <trkpt lat="47.31451" lon="-1.39868">
        <ele>115</ele>
        <time>2021-02-28T08:35:30.370000+00:00</time>
      </trkpt>
      <trkpt lat="0" lon="0">
        <time>2021-02-28T08:35:30.377000+00:00</time>
      </trkpt>
      <trkpt lat="0" lon="0">
        <time>2021-02-28T08:35:30.382000+00:00</time>
      </trkpt>
      <trkpt lat="0" lon="0">
        <time>2021-02-28T08:35:30.385000+00:00</time>
      </trkpt>
      <trkpt lat="47.31452" lon="-1.39867">
        <ele>115</ele>
        <time>2021-02-28T08:35:31.406000+00:00</time>
      </trkpt>
      <trkpt lat="0" lon="0">
        <time>2021-02-28T08:35:31.408000+00:00</time>
      </trkpt>
      <trkpt lat="0" lon="0">
        <time>2021-02-28T08:35:31.411000+00:00</time>
      </trkpt>
      <trkpt lat="0" lon="0">
        <time>2021-02-28T08:35:31.412000+00:00</time>
      </trkpt>
      <trkpt lat="47.31453" lon="-1.39867">
        <ele>115</ele>
        <time>2021-02-28T08:35:32.390000+00:00</time>
      </trkpt>
      <trkpt lat="0" lon="0">
        <time>2021-02-28T08:35:32.399000+00:00</time>
      </trkpt>
      <trkpt lat="0" lon="0">
        <time>2021-02-28T08:35:32.403000+00:00</time>
      </trkpt>
      <trkpt lat="0" lon="0">
        <time>2021-02-28T08:35:32.405000+00:00</time>
      </trkpt>
      <trkpt lat="47.31454" lon="-1.39866">
        <ele>115</ele>
        <time>2021-02-28T08:35:33.398000+00:00</time>
      </trkpt>
      <trkpt lat="0" lon="0">
        <time>2021-02-28T08:35:33.403000+00:00</time>
      </trkpt>
      <trkpt lat="0" lon="0">
        <time>2021-02-28T08:35:33.408000+00:00</time>
      </trkpt>
      <trkpt lat="0" lon="0">
        <time>2021-02-28T08:35:33.411000+00:00</time>
      </trkpt>
      <trkpt lat="47.31455" lon="-1.39865">
        <ele>114</ele>
        <time>2021-02-28T08:35:34.379000+00:00</time>
      </trkpt>
      <trkpt lat="0" lon="0">
        <time>2021-02-28T08:35:34.383000+00:00</time>
      </trkpt>
      <trkpt lat="0" lon="0">
        <time>2021-02-28T08:35:34.389000+00:00</time>
      </trkpt>
      <trkpt lat="0" lon="0">
        <time>2021-02-28T08:35:34.392000+00:00</time>
      </trkpt>
      <trkpt lat="47.31457" lon="-1.39864">
        <ele>114</ele>
        <time>2021-02-28T08:35:35.382000+00:00</time>
      </trkpt>
      <trkpt lat="0" lon="0">
        <time>2021-02-28T08:35:35.394000+00:00</time>
      </trkpt>
      <trkpt lat="0" lon="0">
        <time>2021-02-28T08:35:35.401000+00:00</time>
      </trkpt>
      <trkpt lat="0" lon="0">
        <time>2021-02-28T08:35:35.403000+00:00</time>
      </trkpt>
      <trkpt lat="47.31458" lon="-1.39863">
        <ele>114</ele>
        <time>2021-02-28T08:35:36.411000+00:00</time>
      </trkpt>
      <trkpt lat="0" lon="0">
        <time>2021-02-28T08:35:36.416000+00:00</time>
      </trkpt>
      <trkpt lat="0" lon="0">
        <time>2021-02-28T08:35:36.420000+00:00</time>
      </trkpt>
      <trkpt lat="0" lon="0">
        <time>2021-02-28T08:35:36.422000+00:00</time>
      </trkpt>
      <trkpt lat="47.31459" lon="-1.39862">
        <ele>114</ele>
        <time>2021-02-28T08:35:37.413000+00:00</time>
      </trkpt>
      <trkpt lat="0" lon="0">
        <time>2021-02-28T08:35:37.430000+00:00</time>
      </trkpt>
      <trkpt lat="0" lon="0">
        <time>2021-02-28T08:35:37.432000+00:00</time>
      </trkpt>
      <trkpt lat="0" lon="0">
        <time>2021-02-28T08:35:37.433000+00:00</time>
      </trkpt>
      <trkpt lat="47.3146" lon="-1.39861">
        <ele>114</ele>
        <time>2021-02-28T08:35:38.413000+00:00</time>
      </trkpt>
      <trkpt lat="0" lon="0">
        <time>2021-02-28T08:35:38.417000+00:00</time>
      </trkpt>
      <trkpt lat="0" lon="0">
        <time>2021-02-28T08:35:38.420000+00:00</time>
      </trkpt>
      <trkpt lat="0" lon="0">
        <time>2021-02-28T08:35:38.421000+00:00</time>
      </trkpt>
      <trkpt lat="47.31461" lon="-1.3986">
        <ele>114</ele>
        <time>2021-02-28T08:35:39.393000+00:00</time>
      </trkpt>
      <trkpt lat="0" lon="0">
        <time>2021-02-28T08:35:39.397000+00:00</time>
      </trkpt>
      <trkpt lat="0" lon="0">
        <time>2021-02-28T08:35:39.401000+00:00</time>
      </trkpt>
      <trkpt lat="0" lon="0">
        <time>2021-02-28T08:35:39.404000+00:00</time>
      </trkpt>
      <trkpt lat="47.31462" lon="-1.39859">
        <ele>114</ele>
        <time>2021-02-28T08:35:40.378000+00:00</time>
      </trkpt>
      <trkpt lat="0" lon="0">
        <time>2021-02-28T08:35:40.383000+00:00</time>
      </trkpt>
      <trkpt lat="0" lon="0">
        <time>2021-02-28T08:35:40.387000+00:00</time>
      </trkpt>
      <trkpt lat="0" lon="0">
        <time>2021-02-28T08:35:40.390000+00:00</time>
      </trkpt>
      <trkpt lat="47.31464" lon="-1.39858">
        <ele>114</ele>
        <time>2021-02-28T08:35:41.384000+00:00</time>
      </trkpt>
      <trkpt lat="0" lon="0">
        <time>2021-02-28T08:35:41.390000+00:00</time>
      </trkpt>
      <trkpt lat="0" lon="0">
        <time>2021-02-28T08:35:41.394000+00:00</time>
      </trkpt>
      <trkpt lat="0" lon="0">
        <time>2021-02-28T08:35:41.397000+00:00</time>
      </trkpt>
      <trkpt lat="47.31465" lon="-1.39856">
        <ele>114</ele>
        <time>2021-02-28T08:35:42.410000+00:00</time>
      </trkpt>
      <trkpt lat="0" lon="0">
        <time>2021-02-28T08:35:42.419000+00:00</time>
      </trkpt>
      <trkpt lat="0" lon="0">
        <time>2021-02-28T08:35:42.423000+00:00</time>
      </trkpt>
      <trkpt lat="0" lon="0">
        <time>2021-02-28T08:35:42.426000+00:00</time>
      </trkpt>
      <trkpt lat="47.31466" lon="-1.39854">
        <ele>114</ele>
        <time>2021-02-28T08:35:43.382000+00:00</time>
      </trkpt>
      <trkpt lat="0" lon="0">
        <time>2021-02-28T08:35:43.391000+00:00</time>
      </trkpt>
      <trkpt lat="0" lon="0">
        <time>2021-02-28T08:35:43.395000+00:00</time>
      </trkpt>
      <trkpt lat="0" lon="0">
        <time>2021-02-28T08:35:43.398000+00:00</time>
      </trkpt>
      <trkpt lat="47.31468" lon="-1.39853">
        <ele>114</ele>
        <time>2021-02-28T08:35:44.386000+00:00</time>
      </trkpt>
      <trkpt lat="0" lon="0">
        <time>2021-02-28T08:35:44.395000+00:00</time>
      </trkpt>
      <trkpt lat="0" lon="0">
        <time>2021-02-28T08:35:44.403000+00:00</time>
      </trkpt>
      <trkpt lat="0" lon="0">
        <time>2021-02-28T08:35:44.406000+00:00</time>
      </trkpt>
      <trkpt lat="47.3147" lon="-1.39851">
        <ele>114</ele>
        <time>2021-02-28T08:35:45.395000+00:00</time>
      </trkpt>
      <trkpt lat="0" lon="0">
        <time>2021-02-28T08:35:45.397000+00:00</time>
      </trkpt>
      <trkpt lat="0" lon="0">
        <time>2021-02-28T08:35:45.399000+00:00</time>
      </trkpt>
      <trkpt lat="0" lon="0">
        <time>2021-02-28T08:35:45.400000+00:00</time>
      </trkpt>
      <trkpt lat="47.31472" lon="-1.39849">
        <ele>114</ele>
        <time>2021-02-28T08:35:46.440000+00:00</time>
      </trkpt>
      <trkpt lat="0" lon="0">
        <time>2021-02-28T08:35:46.451000+00:00</time>
      </trkpt>
      <trkpt lat="0" lon="0">
        <time>2021-02-28T08:35:46.457000+00:00</time>
      </trkpt>
      <trkpt lat="0" lon="0">
        <time>2021-02-28T08:35:46.459000+00:00</time>
      </trkpt>
      <trkpt lat="47.31475" lon="-1.39848">
        <ele>114</ele>
        <time>2021-02-28T08:35:47.421000+00:00</time>
      </trkpt>
      <trkpt lat="0" lon="0">
        <time>2021-02-28T08:35:47.431000+00:00</time>
      </trkpt>
      <trkpt lat="0" lon="0">
        <time>2021-02-28T08:35:47.435000+00:00</time>
      </trkpt>
      <trkpt lat="0" lon="0">
        <time>2021-02-28T08:35:47.438000+00:00</time>
      </trkpt>
      <trkpt lat="47.31477" lon="-1.39846">
        <ele>114</ele>
        <time>2021-02-28T08:35:48.434000+00:00</time>
      </trkpt>
      <trkpt lat="0" lon="0">
        <time>2021-02-28T08:35:48.436000+00:00</time>
      </trkpt>
      <trkpt lat="0" lon="0">
        <time>2021-02-28T08:35:48.438000+00:00</time>
      </trkpt>
      <trkpt lat="0" lon="0">
        <time>2021-02-28T08:35:48.441000+00:00</time>
      </trkpt>
      <trkpt lat="47.3148" lon="-1.39844">
        <ele>114</ele>
        <time>2021-02-28T08:35:49.381000+00:00</time>
      </trkpt>
      <trkpt lat="0" lon="0">
        <time>2021-02-28T08:35:49.385000+00:00</time>
      </trkpt>
      <trkpt lat="0" lon="0">
        <time>2021-02-28T08:35:49.390000+00:00</time>
      </trkpt>
      <trkpt lat="0" lon="0">
        <time>2021-02-28T08:35:49.392000+00:00</time>
      </trkpt>
      <trkpt lat="47.31482" lon="-1.39843">
        <ele>114</ele>
        <time>2021-02-28T08:35:50.407000+00:00</time>
      </trkpt>
      <trkpt lat="0" lon="0">
        <time>2021-02-28T08:35:50.411000+00:00</time>
      </trkpt>
      <trkpt lat="0" lon="0">
        <time>2021-02-28T08:35:50.416000+00:00</time>
      </trkpt>
      <trkpt lat="0" lon="0">
        <time>2021-02-28T08:35:50.419000+00:00</time>
      </trkpt>
      <trkpt lat="47.31485" lon="-1.39841">
        <ele>114</ele>
        <time>2021-02-28T08:35:51.416000+00:00</time>
      </trkpt>
      <trkpt lat="0" lon="0">
        <time>2021-02-28T08:35:51.426000+00:00</time>
      </trkpt>
      <trkpt lat="0" lon="0">
        <time>2021-02-28T08:35:51.431000+00:00</time>
      </trkpt>
      <trkpt lat="0" lon="0">
        <time>2021-02-28T08:35:51.433000+00:00</time>
      </trkpt>
      <trkpt lat="47.31488" lon="-1.39839">
        <ele>114</ele>
        <time>2021-02-28T08:35:52.403000+00:00</time>
      </trkpt>
      <trkpt lat="0" lon="0">
        <time>2021-02-28T08:35:52.409000+00:00</time>
      </trkpt>
      <trkpt lat="0" lon="0">
        <time>2021-02-28T08:35:52.413000+00:00</time>
      </trkpt>
      <trkpt lat="0" lon="0">
        <time>2021-02-28T08:35:52.415000+00:00</time>
      </trkpt>
      <trkpt lat="47.31491" lon="-1.39838">
        <ele>114</ele>
        <time>2021-02-28T08:35:53.392000+00:00</time>
      </trkpt>
      <trkpt lat="0" lon="0">
        <time>2021-02-28T08:35:53.398000+00:00</time>
      </trkpt>
      <trkpt lat="0" lon="0">
        <time>2021-02-28T08:35:53.404000+00:00</time>
      </trkpt>
      <trkpt lat="0" lon="0">
        <time>2021-02-28T08:35:53.406000+00:00</time>
      </trkpt>
      <trkpt lat="47.31493" lon="-1.39836">
        <ele>114</ele>
        <time>2021-02-28T08:35:54.413000+00:00</time>
      </trkpt>
      <trkpt lat="0" lon="0">
        <time>2021-02-28T08:35:54.418000+00:00</time>
      </trkpt>
      <trkpt lat="0" lon="0">
        <time>2021-02-28T08:35:54.425000+00:00</time>
      </trkpt>
      <trkpt lat="0" lon="0">
        <time>2021-02-28T08:35:54.428000+00:00</time>
      </trkpt>
      <trkpt lat="47.31496" lon="-1.39835">
        <ele>114</ele>
        <time>2021-02-28T08:35:55.377000+00:00</time>
      </trkpt>
      <trkpt lat="0" lon="0">
        <time>2021-02-28T08:35:55.385000+00:00</time>
      </trkpt>
      <trkpt lat="0" lon="0">
        <time>2021-02-28T08:35:55.390000+00:00</time>
      </trkpt>
      <trkpt lat="0" lon="0">
        <time>2021-02-28T08:35:55.392000+00:00</time>
      </trkpt>
      <trkpt lat="47.31499" lon="-1.39834">
        <ele>114</ele>
        <time>2021-02-28T08:35:56.404000+00:00</time>
      </trkpt>
      <trkpt lat="0" lon="0">
        <time>2021-02-28T08:35:56.406000+00:00</time>
      </trkpt>
      <trkpt lat="0" lon="0">
        <time>2021-02-28T08:35:56.409000+00:00</time>
      </trkpt>
      <trkpt lat="0" lon="0">
        <time>2021-02-28T08:35:56.410000+00:00</time>
      </trkpt>
      <trkpt lat="47.31501" lon="-1.39832">
        <ele>114</ele>
        <time>2021-02-28T08:35:57.387000+00:00</time>
      </trkpt>
      <trkpt lat="0" lon="0">
        <time>2021-02-28T08:35:57.392000+00:00</time>
      </trkpt>
      <trkpt lat="0" lon="0">
        <time>2021-02-28T08:35:57.396000+00:00</time>
      </trkpt>
      <trkpt lat="0" lon="0">
        <time>2021-02-28T08:35:57.399000+00:00</time>
      </trkpt>
      <trkpt lat="47.31504" lon="-1.39831">
        <ele>114</ele>
        <time>2021-02-28T08:35:58.383000+00:00</time>
      </trkpt>
      <trkpt lat="0" lon="0">
        <time>2021-02-28T08:35:58.390000+00:00</time>
      </trkpt>
      <trkpt lat="0" lon="0">
        <time>2021-02-28T08:35:58.395000+00:00</time>
      </trkpt>
      <trkpt lat="0" lon="0">
        <time>2021-02-28T08:35:58.397000+00:00</time>
      </trkpt>
      <trkpt lat="47.31506" lon="-1.3983">
        <ele>114</ele>
        <time>2021-02-28T08:35:59.402000+00:00</time>
      </trkpt>
      <trkpt lat="0" lon="0">
        <time>2021-02-28T08:35:59.411000+00:00</time>
      </trkpt>
      <trkpt lat="0" lon="0">
        <time>2021-02-28T08:35:59.418000+00:00</time>
      </trkpt>
      <trkpt lat="0" lon="0">
        <time>2021-02-28T08:35:59.421000+00:00</time>
      </trkpt>
      <trkpt lat="47.31508" lon="-1.3983">
        <ele>114</ele>
        <time>2021-02-28T08:36:00.350000+00:00</time>
      </trkpt>
      <trkpt lat="0" lon="0">
        <time>2021-02-28T08:36:00.354000+00:00</time>
      </trkpt>
      <trkpt lat="0" lon="0">
        <time>2021-02-28T08:36:00.359000+00:00</time>
      </trkpt>
      <trkpt lat="0" lon="0">
        <time>2021-02-28T08:36:00.362000+00:00</time>
      </trkpt>
      <trkpt lat="47.3151" lon="-1.39829">
        <ele>114</ele>
        <time>2021-02-28T08:36:01.362000+00:00</time>
      </trkpt>
      <trkpt lat="0" lon="0">
        <time>2021-02-28T08:36:01.372000+00:00</time>
      </trkpt>
      <trkpt lat="0" lon="0">
        <time>2021-02-28T08:36:01.377000+00:00</time>
      </trkpt>
      <trkpt lat="0" lon="0">
        <time>2021-02-28T08:36:01.379000+00:00</time>
      </trkpt>
      <trkpt lat="47.31512" lon="-1.39828">
        <ele>115</ele>
        <time>2021-02-28T08:36:02.403000+00:00</time>
      </trkpt>
      <trkpt lat="0" lon="0">
        <time>2021-02-28T08:36:02.408000+00:00</time>
      </trkpt>
      <trkpt lat="0" lon="0">
        <time>2021-02-28T08:36:02.412000+00:00</time>
      </trkpt>
      <trkpt lat="0" lon="0">
        <time>2021-02-28T08:36:02.414000+00:00</time>
      </trkpt>
      <trkpt lat="47.31514" lon="-1.39827">
        <ele>116</ele>
        <time>2021-02-28T08:36:03.411000+00:00</time>
      </trkpt>
      <trkpt lat="0" lon="0">
        <time>2021-02-28T08:36:03.416000+00:00</time>
      </trkpt>
      <trkpt lat="0" lon="0">
        <time>2021-02-28T08:36:03.420000+00:00</time>
      </trkpt>
      <trkpt lat="0" lon="0">
        <time>2021-02-28T08:36:03.422000+00:00</time>
      </trkpt>
      <trkpt lat="47.31516" lon="-1.39826">
        <ele>115</ele>
        <time>2021-02-28T08:36:04.408000+00:00</time>
      </trkpt>
      <trkpt lat="0" lon="0">
        <time>2021-02-28T08:36:04.414000+00:00</time>
      </trkpt>
      <trkpt lat="0" lon="0">
        <time>2021-02-28T08:36:04.420000+00:00</time>
      </trkpt>
      <trkpt lat="0" lon="0">
        <time>2021-02-28T08:36:04.423000+00:00</time>
      </trkpt>
      <trkpt lat="47.31518" lon="-1.39825">
        <ele>115</ele>
        <time>2021-02-28T08:36:05.427000+00:00</time>
      </trkpt>
      <trkpt lat="0" lon="0">
        <time>2021-02-28T08:36:05.433000+00:00</time>
      </trkpt>
      <trkpt lat="0" lon="0">
        <time>2021-02-28T08:36:05.438000+00:00</time>
      </trkpt>
      <trkpt lat="0" lon="0">
        <time>2021-02-28T08:36:05.441000+00:00</time>
      </trkpt>
      <trkpt lat="47.3152" lon="-1.39824">
        <ele>116</ele>
        <time>2021-02-28T08:36:06.407000+00:00</time>
      </trkpt>
      <trkpt lat="0" lon="0">
        <time>2021-02-28T08:36:06.414000+00:00</time>
      </trkpt>
      <trkpt lat="0" lon="0">
        <time>2021-02-28T08:36:06.419000+00:00</time>
      </trkpt>
      <trkpt lat="0" lon="0">
        <time>2021-02-28T08:36:06.422000+00:00</time>
      </trkpt>
      <trkpt lat="47.31522" lon="-1.39822">
        <ele>116</ele>
        <time>2021-02-28T08:36:07.411000+00:00</time>
      </trkpt>
      <trkpt lat="0" lon="0">
        <time>2021-02-28T08:36:07.419000+00:00</time>
      </trkpt>
      <trkpt lat="0" lon="0">
        <time>2021-02-28T08:36:07.424000+00:00</time>
      </trkpt>
      <trkpt lat="0" lon="0">
        <time>2021-02-28T08:36:07.427000+00:00</time>
      </trkpt>
      <trkpt lat="47.31525" lon="-1.39821">
        <ele>117</ele>
        <time>2021-02-28T08:36:08.382000+00:00</time>
      </trkpt>
      <trkpt lat="0" lon="0">
        <time>2021-02-28T08:36:08.391000+00:00</time>
      </trkpt>
      <trkpt lat="0" lon="0">
        <time>2021-02-28T08:36:08.395000+00:00</time>
      </trkpt>
      <trkpt lat="0" lon="0">
        <time>2021-02-28T08:36:08.397000+00:00</time>
      </trkpt>
      <trkpt lat="47.31527" lon="-1.3982">
        <ele>118</ele>
        <time>2021-02-28T08:36:09.431000+00:00</time>
      </trkpt>
      <trkpt lat="0" lon="0">
        <time>2021-02-28T08:36:09.437000+00:00</time>
      </trkpt>
      <trkpt lat="0" lon="0">
        <time>2021-02-28T08:36:09.442000+00:00</time>
      </trkpt>
      <trkpt lat="0" lon="0">
        <time>2021-02-28T08:36:09.446000+00:00</time>
      </trkpt>
      <trkpt lat="47.3153" lon="-1.39819">
        <ele>118</ele>
        <time>2021-02-28T08:36:10.379000+00:00</time>
      </trkpt>
      <trkpt lat="0" lon="0">
        <time>2021-02-28T08:36:10.389000+00:00</time>
      </trkpt>
      <trkpt lat="0" lon="0">
        <time>2021-02-28T08:36:10.401000+00:00</time>
      </trkpt>
      <trkpt lat="0" lon="0">
        <time>2021-02-28T08:36:10.408000+00:00</time>
      </trkpt>
      <trkpt lat="47.31532" lon="-1.39818">
        <ele>118</ele>
        <time>2021-02-28T08:36:11.404000+00:00</time>
      </trkpt>
      <trkpt lat="0" lon="0">
        <time>2021-02-28T08:36:11.409000+00:00</time>
      </trkpt>
      <trkpt lat="0" lon="0">
        <time>2021-02-28T08:36:11.411000+00:00</time>
      </trkpt>
      <trkpt lat="0" lon="0">
        <time>2021-02-28T08:36:11.413000+00:00</time>
      </trkpt>
      <trkpt lat="47.31534" lon="-1.39817">
        <ele>118</ele>
        <time>2021-02-28T08:36:12.404000+00:00</time>
      </trkpt>
      <trkpt lat="0" lon="0">
        <time>2021-02-28T08:36:12.420000+00:00</time>
      </trkpt>
      <trkpt lat="0" lon="0">
        <time>2021-02-28T08:36:12.427000+00:00</time>
      </trkpt>
      <trkpt lat="0" lon="0">
        <time>2021-02-28T08:36:12.429000+00:00</time>
      </trkpt>
      <trkpt lat="47.31537" lon="-1.39816">
        <ele>118</ele>
        <time>2021-02-28T08:36:13.357000+00:00</time>
      </trkpt>
      <trkpt lat="0" lon="0">
        <time>2021-02-28T08:36:13.367000+00:00</time>
      </trkpt>
      <trkpt lat="0" lon="0">
        <time>2021-02-28T08:36:13.382000+00:00</time>
      </trkpt>
      <trkpt lat="0" lon="0">
        <time>2021-02-28T08:36:13.384000+00:00</time>
      </trkpt>
      <trkpt lat="47.31539" lon="-1.39815">
        <ele>118</ele>
        <time>2021-02-28T08:36:14.412000+00:00</time>
      </trkpt>
      <trkpt lat="0" lon="0">
        <time>2021-02-28T08:36:14.422000+00:00</time>
      </trkpt>
      <trkpt lat="0" lon="0">
        <time>2021-02-28T08:36:14.426000+00:00</time>
      </trkpt>
      <trkpt lat="0" lon="0">
        <time>2021-02-28T08:36:14.428000+00:00</time>
      </trkpt>
      <trkpt lat="47.31542" lon="-1.39814">
        <ele>118</ele>
        <time>2021-02-28T08:36:15.396000+00:00</time>
      </trkpt>
      <trkpt lat="0" lon="0">
        <time>2021-02-28T08:36:15.401000+00:00</time>
      </trkpt>
      <trkpt lat="0" lon="0">
        <time>2021-02-28T08:36:15.406000+00:00</time>
      </trkpt>
      <trkpt lat="0" lon="0">
        <time>2021-02-28T08:36:15.408000+00:00</time>
      </trkpt>
      <trkpt lat="47.31544" lon="-1.39813">
        <ele>119</ele>
        <time>2021-02-28T08:36:16.412000+00:00</time>
      </trkpt>
      <trkpt lat="0" lon="0">
        <time>2021-02-28T08:36:16.419000+00:00</time>
      </trkpt>
      <trkpt lat="0" lon="0">
        <time>2021-02-28T08:36:16.424000+00:00</time>
      </trkpt>
      <trkpt lat="0" lon="0">
        <time>2021-02-28T08:36:16.427000+00:00</time>
      </trkpt>
      <trkpt lat="47.31547" lon="-1.39811">
        <ele>119</ele>
        <time>2021-02-28T08:36:17.397000+00:00</time>
      </trkpt>
      <trkpt lat="0" lon="0">
        <time>2021-02-28T08:36:17.405000+00:00</time>
      </trkpt>
      <trkpt lat="0" lon="0">
        <time>2021-02-28T08:36:17.410000+00:00</time>
      </trkpt>
      <trkpt lat="0" lon="0">
        <time>2021-02-28T08:36:17.413000+00:00</time>
      </trkpt>
      <trkpt lat="47.31549" lon="-1.3981">
        <ele>120</ele>
        <time>2021-02-28T08:36:18.380000+00:00</time>
      </trkpt>
      <trkpt lat="0" lon="0">
        <time>2021-02-28T08:36:18.383000+00:00</time>
      </trkpt>
      <trkpt lat="0" lon="0">
        <time>2021-02-28T08:36:18.384000+00:00</time>
      </trkpt>
      <trkpt lat="0" lon="0">
        <time>2021-02-28T08:36:18.386000+00:00</time>
      </trkpt>
      <trkpt lat="47.31552" lon="-1.39809">
        <ele>120</ele>
        <time>2021-02-28T08:36:19.419000+00:00</time>
      </trkpt>
      <trkpt lat="0" lon="0">
        <time>2021-02-28T08:36:19.427000+00:00</time>
      </trkpt>
      <trkpt lat="0" lon="0">
        <time>2021-02-28T08:36:19.434000+00:00</time>
      </trkpt>
      <trkpt lat="0" lon="0">
        <time>2021-02-28T08:36:19.438000+00:00</time>
      </trkpt>
      <trkpt lat="47.31554" lon="-1.39808">
        <ele>121</ele>
        <time>2021-02-28T08:36:20.375000+00:00</time>
      </trkpt>
      <trkpt lat="0" lon="0">
        <time>2021-02-28T08:36:20.382000+00:00</time>
      </trkpt>
      <trkpt lat="0" lon="0">
        <time>2021-02-28T08:36:20.387000+00:00</time>
      </trkpt>
      <trkpt lat="0" lon="0">
        <time>2021-02-28T08:36:20.389000+00:00</time>
      </trkpt>
      <trkpt lat="47.31556" lon="-1.39807">
        <ele>122</ele>
        <time>2021-02-28T08:36:21.393000+00:00</time>
      </trkpt>
      <trkpt lat="0" lon="0">
        <time>2021-02-28T08:36:21.403000+00:00</time>
      </trkpt>
      <trkpt lat="0" lon="0">
        <time>2021-02-28T08:36:21.408000+00:00</time>
      </trkpt>
      <trkpt lat="0" lon="0">
        <time>2021-02-28T08:36:21.411000+00:00</time>
      </trkpt>
      <trkpt lat="47.31559" lon="-1.39806">
        <ele>123</ele>
        <time>2021-02-28T08:36:22.403000+00:00</time>
      </trkpt>
      <trkpt lat="0" lon="0">
        <time>2021-02-28T08:36:22.408000+00:00</time>
      </trkpt>
      <trkpt lat="0" lon="0">
        <time>2021-02-28T08:36:22.412000+00:00</time>
      </trkpt>
      <trkpt lat="0" lon="0">
        <time>2021-02-28T08:36:22.415000+00:00</time>
      </trkpt>
      <trkpt lat="47.3156" lon="-1.39805">
        <ele>123</ele>
        <time>2021-02-28T08:36:23.343000+00:00</time>
      </trkpt>
      <trkpt lat="0" lon="0">
        <time>2021-02-28T08:36:23.352000+00:00</time>
      </trkpt>
      <trkpt lat="0" lon="0">
        <time>2021-02-28T08:36:23.360000+00:00</time>
      </trkpt>
      <trkpt lat="0" lon="0">
        <time>2021-02-28T08:36:23.362000+00:00</time>
      </trkpt>
      <trkpt lat="47.31562" lon="-1.39804">
        <ele>123</ele>
        <time>2021-02-28T08:36:24.391000+00:00</time>
      </trkpt>
      <trkpt lat="0" lon="0">
        <time>2021-02-28T08:36:24.397000+00:00</time>
      </trkpt>
      <trkpt lat="0" lon="0">
        <time>2021-02-28T08:36:24.403000+00:00</time>
      </trkpt>
      <trkpt lat="0" lon="0">
        <time>2021-02-28T08:36:24.406000+00:00</time>
      </trkpt>
      <trkpt lat="47.31564" lon="-1.39804">
        <ele>125</ele>
        <time>2021-02-28T08:36:25.415000+00:00</time>
      </trkpt>
      <trkpt lat="0" lon="0">
        <time>2021-02-28T08:36:25.432000+00:00</time>
      </trkpt>
      <trkpt lat="0" lon="0">
        <time>2021-02-28T08:36:25.439000+00:00</time>
      </trkpt>
      <trkpt lat="0" lon="0">
        <time>2021-02-28T08:36:25.443000+00:00</time>
      </trkpt>
      <trkpt lat="47.31566" lon="-1.39803">
        <ele>126</ele>
        <time>2021-02-28T08:36:26.377000+00:00</time>
      </trkpt>
      <trkpt lat="0" lon="0">
        <time>2021-02-28T08:36:26.383000+00:00</time>
      </trkpt>
      <trkpt lat="0" lon="0">
        <time>2021-02-28T08:36:26.388000+00:00</time>
      </trkpt>
      <trkpt lat="0" lon="0">
        <time>2021-02-28T08:36:26.391000+00:00</time>
      </trkpt>
      <trkpt lat="47.31568" lon="-1.39802">
        <ele>126</ele>
        <time>2021-02-28T08:36:27.384000+00:00</time>
      </trkpt>
      <trkpt lat="0" lon="0">
        <time>2021-02-28T08:36:27.396000+00:00</time>
      </trkpt>
      <trkpt lat="0" lon="0">
        <time>2021-02-28T08:36:27.401000+00:00</time>
      </trkpt>
      <trkpt lat="0" lon="0">
        <time>2021-02-28T08:36:27.404000+00:00</time>
      </trkpt>
      <trkpt lat="47.3157" lon="-1.39801">
        <ele>126</ele>
        <time>2021-02-28T08:36:28.364000+00:00</time>
      </trkpt>
      <trkpt lat="0" lon="0">
        <time>2021-02-28T08:36:28.367000+00:00</time>
      </trkpt>
      <trkpt lat="0" lon="0">
        <time>2021-02-28T08:36:28.369000+00:00</time>
      </trkpt>
      <trkpt lat="0" lon="0">
        <time>2021-02-28T08:36:28.370000+00:00</time>
      </trkpt>
      <trkpt lat="47.31573" lon="-1.398">
        <ele>126</ele>
        <time>2021-02-28T08:36:29.402000+00:00</time>
      </trkpt>
      <trkpt lat="0" lon="0">
        <time>2021-02-28T08:36:29.409000+00:00</time>
      </trkpt>
      <trkpt lat="0" lon="0">
        <time>2021-02-28T08:36:29.415000+00:00</time>
      </trkpt>
      <trkpt lat="0" lon="0">
        <time>2021-02-28T08:36:29.419000+00:00</time>
      </trkpt>
      <trkpt lat="47.31575" lon="-1.39799">
        <ele>126</ele>
        <time>2021-02-28T08:36:30.421000+00:00</time>
      </trkpt>
      <trkpt lat="0" lon="0">
        <time>2021-02-28T08:36:30.428000+00:00</time>
      </trkpt>
      <trkpt lat="0" lon="0">
        <time>2021-02-28T08:36:30.433000+00:00</time>
      </trkpt>
      <trkpt lat="0" lon="0">
        <time>2021-02-28T08:36:30.437000+00:00</time>
      </trkpt>
      <trkpt lat="47.31578" lon="-1.39797">
        <ele>125</ele>
        <time>2021-02-28T08:36:31.393000+00:00</time>
      </trkpt>
      <trkpt lat="0" lon="0">
        <time>2021-02-28T08:36:31.403000+00:00</time>
      </trkpt>
      <trkpt lat="0" lon="0">
        <time>2021-02-28T08:36:31.408000+00:00</time>
      </trkpt>
      <trkpt lat="0" lon="0">
        <time>2021-02-28T08:36:31.411000+00:00</time>
      </trkpt>
      <trkpt lat="47.3158" lon="-1.39796">
        <ele>124</ele>
        <time>2021-02-28T08:36:32.408000+00:00</time>
      </trkpt>
      <trkpt lat="0" lon="0">
        <time>2021-02-28T08:36:32.418000+00:00</time>
      </trkpt>
      <trkpt lat="0" lon="0">
        <time>2021-02-28T08:36:32.424000+00:00</time>
      </trkpt>
      <trkpt lat="0" lon="0">
        <time>2021-02-28T08:36:32.427000+00:00</time>
      </trkpt>
      <trkpt lat="47.31583" lon="-1.39795">
        <ele>124</ele>
        <time>2021-02-28T08:36:33.417000+00:00</time>
      </trkpt>
      <trkpt lat="0" lon="0">
        <time>2021-02-28T08:36:33.423000+00:00</time>
      </trkpt>
      <trkpt lat="0" lon="0">
        <time>2021-02-28T08:36:33.431000+00:00</time>
      </trkpt>
      <trkpt lat="0" lon="0">
        <time>2021-02-28T08:36:33.432000+00:00</time>
      </trkpt>
      <trkpt lat="47.31585" lon="-1.39793">
        <ele>124</ele>
        <time>2021-02-28T08:36:34.417000+00:00</time>
      </trkpt>
      <trkpt lat="0" lon="0">
        <time>2021-02-28T08:36:34.423000+00:00</time>
      </trkpt>
      <trkpt lat="0" lon="0">
        <time>2021-02-28T08:36:34.427000+00:00</time>
      </trkpt>
      <trkpt lat="0" lon="0">
        <time>2021-02-28T08:36:34.430000+00:00</time>
      </trkpt>
      <trkpt lat="47.31588" lon="-1.39791">
        <ele>124</ele>
        <time>2021-02-28T08:36:35.358000+00:00</time>
      </trkpt>
      <trkpt lat="0" lon="0">
        <time>2021-02-28T08:36:35.362000+00:00</time>
      </trkpt>
      <trkpt lat="0" lon="0">
        <time>2021-02-28T08:36:35.367000+00:00</time>
      </trkpt>
      <trkpt lat="0" lon="0">
        <time>2021-02-28T08:36:35.369000+00:00</time>
      </trkpt>
      <trkpt lat="47.31591" lon="-1.3979">
        <ele>123</ele>
        <time>2021-02-28T08:36:36.347000+00:00</time>
      </trkpt>
      <trkpt lat="0" lon="0">
        <time>2021-02-28T08:36:36.360000+00:00</time>
      </trkpt>
      <trkpt lat="0" lon="0">
        <time>2021-02-28T08:36:36.365000+00:00</time>
      </trkpt>
      <trkpt lat="0" lon="0">
        <time>2021-02-28T08:36:36.367000+00:00</time>
      </trkpt>
      <trkpt lat="47.31594" lon="-1.39788">
        <ele>123</ele>
        <time>2021-02-28T08:36:37.363000+00:00</time>
      </trkpt>
      <trkpt lat="0" lon="0">
        <time>2021-02-28T08:36:37.375000+00:00</time>
      </trkpt>
      <trkpt lat="0" lon="0">
        <time>2021-02-28T08:36:37.381000+00:00</time>
      </trkpt>
      <trkpt lat="0" lon="0">
        <time>2021-02-28T08:36:37.384000+00:00</time>
      </trkpt>
      <trkpt lat="47.31598" lon="-1.39787">
        <ele>123</ele>
        <time>2021-02-28T08:36:38.332000+00:00</time>
      </trkpt>
      <trkpt lat="0" lon="0">
        <time>2021-02-28T08:36:38.338000+00:00</time>
      </trkpt>
      <trkpt lat="0" lon="0">
        <time>2021-02-28T08:36:38.341000+00:00</time>
      </trkpt>
      <trkpt lat="0" lon="0">
        <time>2021-02-28T08:36:38.345000+00:00</time>
      </trkpt>
      <trkpt lat="47.31601" lon="-1.39786">
        <ele>123</ele>
        <time>2021-02-28T08:36:39.387000+00:00</time>
      </trkpt>
      <trkpt lat="0" lon="0">
        <time>2021-02-28T08:36:39.390000+00:00</time>
      </trkpt>
      <trkpt lat="0" lon="0">
        <time>2021-02-28T08:36:39.392000+00:00</time>
      </trkpt>
      <trkpt lat="0" lon="0">
        <time>2021-02-28T08:36:39.396000+00:00</time>
      </trkpt>
      <trkpt lat="47.31605" lon="-1.39784">
        <ele>123</ele>
        <time>2021-02-28T08:36:40.299000+00:00</time>
      </trkpt>
      <trkpt lat="0" lon="0">
        <time>2021-02-28T08:36:40.305000+00:00</time>
      </trkpt>
      <trkpt lat="0" lon="0">
        <time>2021-02-28T08:36:40.309000+00:00</time>
      </trkpt>
      <trkpt lat="0" lon="0">
        <time>2021-02-28T08:36:40.312000+00:00</time>
      </trkpt>
      <trkpt lat="47.31608" lon="-1.39782">
        <ele>123</ele>
        <time>2021-02-28T08:36:41.366000+00:00</time>
      </trkpt>
      <trkpt lat="0" lon="0">
        <time>2021-02-28T08:36:41.371000+00:00</time>
      </trkpt>
      <trkpt lat="0" lon="0">
        <time>2021-02-28T08:36:41.376000+00:00</time>
      </trkpt>
      <trkpt lat="0" lon="0">
        <time>2021-02-28T08:36:41.380000+00:00</time>
      </trkpt>
      <trkpt lat="47.31612" lon="-1.3978">
        <ele>123</ele>
        <time>2021-02-28T08:36:42.357000+00:00</time>
      </trkpt>
      <trkpt lat="0" lon="0">
        <time>2021-02-28T08:36:42.362000+00:00</time>
      </trkpt>
      <trkpt lat="0" lon="0">
        <time>2021-02-28T08:36:42.367000+00:00</time>
      </trkpt>
      <trkpt lat="0" lon="0">
        <time>2021-02-28T08:36:42.370000+00:00</time>
      </trkpt>
      <trkpt lat="47.31616" lon="-1.39779">
        <ele>124</ele>
        <time>2021-02-28T08:36:43.336000+00:00</time>
      </trkpt>
      <trkpt lat="0" lon="0">
        <time>2021-02-28T08:36:43.347000+00:00</time>
      </trkpt>
      <trkpt lat="0" lon="0">
        <time>2021-02-28T08:36:43.351000+00:00</time>
      </trkpt>
      <trkpt lat="0" lon="0">
        <time>2021-02-28T08:36:43.353000+00:00</time>
      </trkpt>
      <trkpt lat="47.31619" lon="-1.39777">
        <ele>124</ele>
        <time>2021-02-28T08:36:44.368000+00:00</time>
      </trkpt>
      <trkpt lat="0" lon="0">
        <time>2021-02-28T08:36:44.372000+00:00</time>
      </trkpt>
      <trkpt lat="0" lon="0">
        <time>2021-02-28T08:36:44.377000+00:00</time>
      </trkpt>
      <trkpt lat="0" lon="0">
        <time>2021-02-28T08:36:44.380000+00:00</time>
      </trkpt>
      <trkpt lat="47.31623" lon="-1.39775">
        <ele>125</ele>
        <time>2021-02-28T08:36:45.376000+00:00</time>
      </trkpt>
      <trkpt lat="0" lon="0">
        <time>2021-02-28T08:36:45.383000+00:00</time>
      </trkpt>
      <trkpt lat="0" lon="0">
        <time>2021-02-28T08:36:45.388000+00:00</time>
      </trkpt>
      <trkpt lat="0" lon="0">
        <time>2021-02-28T08:36:45.390000+00:00</time>
      </trkpt>
      <trkpt lat="47.31627" lon="-1.39774">
        <ele>127</ele>
        <time>2021-02-28T08:36:46.353000+00:00</time>
      </trkpt>
      <trkpt lat="0" lon="0">
        <time>2021-02-28T08:36:46.363000+00:00</time>
      </trkpt>
      <trkpt lat="0" lon="0">
        <time>2021-02-28T08:36:46.369000+00:00</time>
      </trkpt>
      <trkpt lat="0" lon="0">
        <time>2021-02-28T08:36:46.371000+00:00</time>
      </trkpt>
      <trkpt lat="47.3163" lon="-1.39773">
        <ele>129</ele>
        <time>2021-02-28T08:36:47.337000+00:00</time>
      </trkpt>
      <trkpt lat="0" lon="0">
        <time>2021-02-28T08:36:47.343000+00:00</time>
      </trkpt>
      <trkpt lat="0" lon="0">
        <time>2021-02-28T08:36:47.348000+00:00</time>
      </trkpt>
      <trkpt lat="0" lon="0">
        <time>2021-02-28T08:36:47.350000+00:00</time>
      </trkpt>
      <trkpt lat="47.31633" lon="-1.39772">
        <ele>130</ele>
        <time>2021-02-28T08:36:48.339000+00:00</time>
      </trkpt>
      <trkpt lat="0" lon="0">
        <time>2021-02-28T08:36:48.344000+00:00</time>
      </trkpt>
      <trkpt lat="0" lon="0">
        <time>2021-02-28T08:36:48.348000+00:00</time>
      </trkpt>
      <trkpt lat="0" lon="0">
        <time>2021-02-28T08:36:48.350000+00:00</time>
      </trkpt>
      <trkpt lat="47.31636" lon="-1.39771">
        <ele>132</ele>
        <time>2021-02-28T08:36:49.353000+00:00</time>
      </trkpt>
      <trkpt lat="0" lon="0">
        <time>2021-02-28T08:36:49.363000+00:00</time>
      </trkpt>
      <trkpt lat="0" lon="0">
        <time>2021-02-28T08:36:49.367000+00:00</time>
      </trkpt>
      <trkpt lat="0" lon="0">
        <time>2021-02-28T08:36:49.369000+00:00</time>
      </trkpt>
      <trkpt lat="47.31639" lon="-1.39771">
        <ele>133</ele>
        <time>2021-02-28T08:36:50.329000+00:00</time>
      </trkpt>
      <trkpt lat="0" lon="0">
        <time>2021-02-28T08:36:50.334000+00:00</time>
      </trkpt>
      <trkpt lat="0" lon="0">
        <time>2021-02-28T08:36:50.340000+00:00</time>
      </trkpt>
      <trkpt lat="0" lon="0">
        <time>2021-02-28T08:36:50.342000+00:00</time>
      </trkpt>
      <trkpt lat="47.31641" lon="-1.39771">
        <ele>134</ele>
        <time>2021-02-28T08:36:51.338000+00:00</time>
      </trkpt>
      <trkpt lat="0" lon="0">
        <time>2021-02-28T08:36:51.350000+00:00</time>
      </trkpt>
      <trkpt lat="0" lon="0">
        <time>2021-02-28T08:36:51.354000+00:00</time>
      </trkpt>
      <trkpt lat="0" lon="0">
        <time>2021-02-28T08:36:51.357000+00:00</time>
      </trkpt>
      <trkpt lat="47.31644" lon="-1.3977">
        <ele>135</ele>
        <time>2021-02-28T08:36:52.315000+00:00</time>
      </trkpt>
      <trkpt lat="0" lon="0">
        <time>2021-02-28T08:36:52.320000+00:00</time>
      </trkpt>
      <trkpt lat="0" lon="0">
        <time>2021-02-28T08:36:52.327000+00:00</time>
      </trkpt>
      <trkpt lat="0" lon="0">
        <time>2021-02-28T08:36:52.330000+00:00</time>
      </trkpt>
      <trkpt lat="47.31647" lon="-1.3977">
        <ele>135</ele>
        <time>2021-02-28T08:36:53.368000+00:00</time>
      </trkpt>
      <trkpt lat="0" lon="0">
        <time>2021-02-28T08:36:53.380000+00:00</time>
      </trkpt>
      <trkpt lat="0" lon="0">
        <time>2021-02-28T08:36:53.386000+00:00</time>
      </trkpt>
      <trkpt lat="0" lon="0">
        <time>2021-02-28T08:36:53.391000+00:00</time>
      </trkpt>
      <trkpt lat="47.31649" lon="-1.39769">
        <ele>135</ele>
        <time>2021-02-28T08:36:54.338000+00:00</time>
      </trkpt>
      <trkpt lat="0" lon="0">
        <time>2021-02-28T08:36:54.343000+00:00</time>
      </trkpt>
      <trkpt lat="0" lon="0">
        <time>2021-02-28T08:36:54.349000+00:00</time>
      </trkpt>
      <trkpt lat="0" lon="0">
        <time>2021-02-28T08:36:54.351000+00:00</time>
      </trkpt>
      <trkpt lat="47.31652" lon="-1.39769">
        <ele>134</ele>
        <time>2021-02-28T08:36:55.317000+00:00</time>
      </trkpt>
      <trkpt lat="0" lon="0">
        <time>2021-02-28T08:36:55.329000+00:00</time>
      </trkpt>
      <trkpt lat="0" lon="0">
        <time>2021-02-28T08:36:55.333000+00:00</time>
      </trkpt>
      <trkpt lat="0" lon="0">
        <time>2021-02-28T08:36:55.336000+00:00</time>
      </trkpt>
      <trkpt lat="47.31655" lon="-1.39768">
        <ele>133</ele>
        <time>2021-02-28T08:36:56.352000+00:00</time>
      </trkpt>
      <trkpt lat="0" lon="0">
        <time>2021-02-28T08:36:56.357000+00:00</time>
      </trkpt>
      <trkpt lat="0" lon="0">
        <time>2021-02-28T08:36:56.362000+00:00</time>
      </trkpt>
      <trkpt lat="0" lon="0">
        <time>2021-02-28T08:36:56.364000+00:00</time>
      </trkpt>
      <trkpt lat="47.31658" lon="-1.39767">
        <ele>133</ele>
        <time>2021-02-28T08:36:57.382000+00:00</time>
      </trkpt>
      <trkpt lat="0" lon="0">
        <time>2021-02-28T08:36:57.393000+00:00</time>
      </trkpt>
      <trkpt lat="0" lon="0">
        <time>2021-02-28T08:36:57.407000+00:00</time>
      </trkpt>
      <trkpt lat="0" lon="0">
        <time>2021-02-28T08:36:57.409000+00:00</time>
      </trkpt>
      <trkpt lat="47.31661" lon="-1.39767">
        <ele>133</ele>
        <time>2021-02-28T08:36:58.354000+00:00</time>
      </trkpt>
      <trkpt lat="0" lon="0">
        <time>2021-02-28T08:36:58.360000+00:00</time>
      </trkpt>
      <trkpt lat="0" lon="0">
        <time>2021-02-28T08:36:58.366000+00:00</time>
      </trkpt>
      <trkpt lat="0" lon="0">
        <time>2021-02-28T08:36:58.368000+00:00</time>
      </trkpt>
      <trkpt lat="47.31664" lon="-1.39766">
        <ele>133</ele>
        <time>2021-02-28T08:36:59.319000+00:00</time>
      </trkpt>
      <trkpt lat="0" lon="0">
        <time>2021-02-28T08:36:59.324000+00:00</time>
      </trkpt>
      <trkpt lat="0" lon="0">
        <time>2021-02-28T08:36:59.328000+00:00</time>
      </trkpt>
      <trkpt lat="0" lon="0">
        <time>2021-02-28T08:36:59.331000+00:00</time>
      </trkpt>
      <trkpt lat="47.31667" lon="-1.39766">
        <ele>133</ele>
        <time>2021-02-28T08:37:00.351000+00:00</time>
      </trkpt>
      <trkpt lat="0" lon="0">
        <time>2021-02-28T08:37:00.357000+00:00</time>
      </trkpt>
      <trkpt lat="0" lon="0">
        <time>2021-02-28T08:37:00.361000+00:00</time>
      </trkpt>
      <trkpt lat="0" lon="0">
        <time>2021-02-28T08:37:00.364000+00:00</time>
      </trkpt>
      <trkpt lat="47.31671" lon="-1.39765">
        <ele>132</ele>
        <time>2021-02-28T08:37:01.337000+00:00</time>
      </trkpt>
      <trkpt lat="0" lon="0">
        <time>2021-02-28T08:37:01.346000+00:00</time>
      </trkpt>
      <trkpt lat="0" lon="0">
        <time>2021-02-28T08:37:01.352000+00:00</time>
      </trkpt>
      <trkpt lat="0" lon="0">
        <time>2021-02-28T08:37:01.359000+00:00</time>
      </trkpt>
      <trkpt lat="47.31675" lon="-1.39766">
        <ele>133</ele>
        <time>2021-02-28T08:37:02.312000+00:00</time>
      </trkpt>
      <trkpt lat="0" lon="0">
        <time>2021-02-28T08:37:02.326000+00:00</time>
      </trkpt>
      <trkpt lat="0" lon="0">
        <time>2021-02-28T08:37:02.332000+00:00</time>
      </trkpt>
      <trkpt lat="0" lon="0">
        <time>2021-02-28T08:37:02.334000+00:00</time>
      </trkpt>
      <trkpt lat="47.31678" lon="-1.39767">
        <ele>133</ele>
        <time>2021-02-28T08:37:03.322000+00:00</time>
      </trkpt>
      <trkpt lat="0" lon="0">
        <time>2021-02-28T08:37:03.326000+00:00</time>
      </trkpt>
      <trkpt lat="0" lon="0">
        <time>2021-02-28T08:37:03.332000+00:00</time>
      </trkpt>
      <trkpt lat="0" lon="0">
        <time>2021-02-28T08:37:03.342000+00:00</time>
      </trkpt>
      <trkpt lat="47.31682" lon="-1.39768">
        <ele>132</ele>
        <time>2021-02-28T08:37:04.358000+00:00</time>
      </trkpt>
      <trkpt lat="0" lon="0">
        <time>2021-02-28T08:37:04.368000+00:00</time>
      </trkpt>
      <trkpt lat="0" lon="0">
        <time>2021-02-28T08:37:04.372000+00:00</time>
      </trkpt>
      <trkpt lat="0" lon="0">
        <time>2021-02-28T08:37:04.375000+00:00</time>
      </trkpt>
      <trkpt lat="47.31685" lon="-1.39769">
        <ele>132</ele>
        <time>2021-02-28T08:37:05.317000+00:00</time>
      </trkpt>
      <trkpt lat="0" lon="0">
        <time>2021-02-28T08:37:05.324000+00:00</time>
      </trkpt>
      <trkpt lat="0" lon="0">
        <time>2021-02-28T08:37:05.330000+00:00</time>
      </trkpt>
      <trkpt lat="0" lon="0">
        <time>2021-02-28T08:37:05.332000+00:00</time>
      </trkpt>
      <trkpt lat="47.31688" lon="-1.3977">
        <ele>132</ele>
        <time>2021-02-28T08:37:06.343000+00:00</time>
      </trkpt>
      <trkpt lat="0" lon="0">
        <time>2021-02-28T08:37:06.352000+00:00</time>
      </trkpt>
      <trkpt lat="0" lon="0">
        <time>2021-02-28T08:37:06.357000+00:00</time>
      </trkpt>
      <trkpt lat="0" lon="0">
        <time>2021-02-28T08:37:06.359000+00:00</time>
      </trkpt>
      <trkpt lat="47.3169" lon="-1.3977">
        <ele>132</ele>
        <time>2021-02-28T08:37:07.346000+00:00</time>
      </trkpt>
      <trkpt lat="0" lon="0">
        <time>2021-02-28T08:37:07.354000+00:00</time>
      </trkpt>
      <trkpt lat="0" lon="0">
        <time>2021-02-28T08:37:07.359000+00:00</time>
      </trkpt>
      <trkpt lat="0" lon="0">
        <time>2021-02-28T08:37:07.361000+00:00</time>
      </trkpt>
      <trkpt lat="47.31691" lon="-1.3977">
        <ele>131</ele>
        <time>2021-02-28T08:37:08.347000+00:00</time>
      </trkpt>
      <trkpt lat="0" lon="0">
        <time>2021-02-28T08:37:08.354000+00:00</time>
      </trkpt>
      <trkpt lat="0" lon="0">
        <time>2021-02-28T08:37:08.358000+00:00</time>
      </trkpt>
      <trkpt lat="0" lon="0">
        <time>2021-02-28T08:37:08.360000+00:00</time>
      </trkpt>
      <trkpt lat="47.31693" lon="-1.3977">
        <ele>131</ele>
        <time>2021-02-28T08:37:09.347000+00:00</time>
      </trkpt>
      <trkpt lat="0" lon="0">
        <time>2021-02-28T08:37:09.356000+00:00</time>
      </trkpt>
      <trkpt lat="0" lon="0">
        <time>2021-02-28T08:37:09.362000+00:00</time>
      </trkpt>
      <trkpt lat="0" lon="0">
        <time>2021-02-28T08:37:09.365000+00:00</time>
      </trkpt>
      <trkpt lat="47.31695" lon="-1.3977">
        <ele>131</ele>
        <time>2021-02-28T08:37:10.343000+00:00</time>
      </trkpt>
      <trkpt lat="0" lon="0">
        <time>2021-02-28T08:37:10.351000+00:00</time>
      </trkpt>
      <trkpt lat="0" lon="0">
        <time>2021-02-28T08:37:10.355000+00:00</time>
      </trkpt>
      <trkpt lat="0" lon="0">
        <time>2021-02-28T08:37:10.358000+00:00</time>
      </trkpt>
      <trkpt lat="47.31696" lon="-1.39771">
        <ele>131</ele>
        <time>2021-02-28T08:37:11.335000+00:00</time>
      </trkpt>
      <trkpt lat="0" lon="0">
        <time>2021-02-28T08:37:11.344000+00:00</time>
      </trkpt>
      <trkpt lat="0" lon="0">
        <time>2021-02-28T08:37:11.347000+00:00</time>
      </trkpt>
      <trkpt lat="0" lon="0">
        <time>2021-02-28T08:37:11.350000+00:00</time>
      </trkpt>
      <trkpt lat="47.31698" lon="-1.39771">
        <ele>129</ele>
        <time>2021-02-28T08:37:12.340000+00:00</time>
      </trkpt>
      <trkpt lat="0" lon="0">
        <time>2021-02-28T08:37:12.344000+00:00</time>
      </trkpt>
      <trkpt lat="0" lon="0">
        <time>2021-02-28T08:37:12.348000+00:00</time>
      </trkpt>
      <trkpt lat="0" lon="0">
        <time>2021-02-28T08:37:12.353000+00:00</time>
      </trkpt>
      <trkpt lat="47.31699" lon="-1.39772">
        <ele>129</ele>
        <time>2021-02-28T08:37:13.360000+00:00</time>
      </trkpt>
      <trkpt lat="0" lon="0">
        <time>2021-02-28T08:37:13.364000+00:00</time>
      </trkpt>
      <trkpt lat="0" lon="0">
        <time>2021-02-28T08:37:13.370000+00:00</time>
      </trkpt>
      <trkpt lat="0" lon="0">
        <time>2021-02-28T08:37:13.387000+00:00</time>
      </trkpt>
      <trkpt lat="47.317" lon="-1.39773">
        <ele>128</ele>
        <time>2021-02-28T08:37:14.359000+00:00</time>
      </trkpt>
      <trkpt lat="0" lon="0">
        <time>2021-02-28T08:37:14.364000+00:00</time>
      </trkpt>
      <trkpt lat="0" lon="0">
        <time>2021-02-28T08:37:14.370000+00:00</time>
      </trkpt>
      <trkpt lat="0" lon="0">
        <time>2021-02-28T08:37:14.373000+00:00</time>
      </trkpt>
      <trkpt lat="47.31702" lon="-1.39775">
        <ele>127</ele>
        <time>2021-02-28T08:37:15.361000+00:00</time>
      </trkpt>
      <trkpt lat="0" lon="0">
        <time>2021-02-28T08:37:15.367000+00:00</time>
      </trkpt>
      <trkpt lat="0" lon="0">
        <time>2021-02-28T08:37:15.372000+00:00</time>
      </trkpt>
      <trkpt lat="0" lon="0">
        <time>2021-02-28T08:37:15.375000+00:00</time>
      </trkpt>
      <trkpt lat="47.31703" lon="-1.39776">
        <ele>125</ele>
        <time>2021-02-28T08:37:16.366000+00:00</time>
      </trkpt>
      <trkpt lat="0" lon="0">
        <time>2021-02-28T08:37:16.380000+00:00</time>
      </trkpt>
      <trkpt lat="0" lon="0">
        <time>2021-02-28T08:37:16.386000+00:00</time>
      </trkpt>
      <trkpt lat="0" lon="0">
        <time>2021-02-28T08:37:16.389000+00:00</time>
      </trkpt>
      <trkpt lat="47.31704" lon="-1.39778">
        <ele>124</ele>
        <time>2021-02-28T08:37:17.359000+00:00</time>
      </trkpt>
      <trkpt lat="0" lon="0">
        <time>2021-02-28T08:37:17.370000+00:00</time>
      </trkpt>
      <trkpt lat="0" lon="0">
        <time>2021-02-28T08:37:17.375000+00:00</time>
      </trkpt>
      <trkpt lat="0" lon="0">
        <time>2021-02-28T08:37:17.377000+00:00</time>
      </trkpt>
      <trkpt lat="47.31705" lon="-1.3978">
        <ele>122</ele>
        <time>2021-02-28T08:37:18.371000+00:00</time>
      </trkpt>
      <trkpt lat="0" lon="0">
        <time>2021-02-28T08:37:18.384000+00:00</time>
      </trkpt>
      <trkpt lat="0" lon="0">
        <time>2021-02-28T08:37:18.390000+00:00</time>
      </trkpt>
      <trkpt lat="0" lon="0">
        <time>2021-02-28T08:37:18.395000+00:00</time>
      </trkpt>
      <trkpt lat="47.31706" lon="-1.39781">
        <ele>121</ele>
        <time>2021-02-28T08:37:19.368000+00:00</time>
      </trkpt>
      <trkpt lat="0" lon="0">
        <time>2021-02-28T08:37:19.377000+00:00</time>
      </trkpt>
      <trkpt lat="0" lon="0">
        <time>2021-02-28T08:37:19.382000+00:00</time>
      </trkpt>
      <trkpt lat="0" lon="0">
        <time>2021-02-28T08:37:19.383000+00:00</time>
      </trkpt>
      <trkpt lat="47.31707" lon="-1.39783">
        <ele>120</ele>
        <time>2021-02-28T08:37:20.367000+00:00</time>
      </trkpt>
      <trkpt lat="0" lon="0">
        <time>2021-02-28T08:37:20.376000+00:00</time>
      </trkpt>
      <trkpt lat="0" lon="0">
        <time>2021-02-28T08:37:20.381000+00:00</time>
      </trkpt>
      <trkpt lat="0" lon="0">
        <time>2021-02-28T08:37:20.384000+00:00</time>
      </trkpt>
      <trkpt lat="47.31708" lon="-1.39784">
        <ele>119</ele>
        <time>2021-02-28T08:37:21.342000+00:00</time>
      </trkpt>
      <trkpt lat="0" lon="0">
        <time>2021-02-28T08:37:21.347000+00:00</time>
      </trkpt>
      <trkpt lat="0" lon="0">
        <time>2021-02-28T08:37:21.354000+00:00</time>
      </trkpt>
      <trkpt lat="0" lon="0">
        <time>2021-02-28T08:37:21.356000+00:00</time>
      </trkpt>
      <trkpt lat="47.31709" lon="-1.39785">
        <ele>117</ele>
        <time>2021-02-28T08:37:22.331000+00:00</time>
      </trkpt>
      <trkpt lat="0" lon="0">
        <time>2021-02-28T08:37:22.338000+00:00</time>
      </trkpt>
      <trkpt lat="0" lon="0">
        <time>2021-02-28T08:37:22.342000+00:00</time>
      </trkpt>
      <trkpt lat="0" lon="0">
        <time>2021-02-28T08:37:22.344000+00:00</time>
      </trkpt>
      <trkpt lat="47.3171" lon="-1.39786">
        <ele>117</ele>
        <time>2021-02-28T08:37:23.348000+00:00</time>
      </trkpt>
      <trkpt lat="0" lon="0">
        <time>2021-02-28T08:37:23.352000+00:00</time>
      </trkpt>
      <trkpt lat="0" lon="0">
        <time>2021-02-28T08:37:23.355000+00:00</time>
      </trkpt>
      <trkpt lat="0" lon="0">
        <time>2021-02-28T08:37:23.357000+00:00</time>
      </trkpt>
      <trkpt lat="47.31711" lon="-1.39787">
        <ele>117</ele>
        <time>2021-02-28T08:37:24.351000+00:00</time>
      </trkpt>
      <trkpt lat="0" lon="0">
        <time>2021-02-28T08:37:24.361000+00:00</time>
      </trkpt>
      <trkpt lat="0" lon="0">
        <time>2021-02-28T08:37:24.364000+00:00</time>
      </trkpt>
      <trkpt lat="0" lon="0">
        <time>2021-02-28T08:37:24.367000+00:00</time>
      </trkpt>
      <trkpt lat="47.31712" lon="-1.39788">
        <ele>114</ele>
        <time>2021-02-28T08:37:25.322000+00:00</time>
      </trkpt>
      <trkpt lat="0" lon="0">
        <time>2021-02-28T08:37:25.336000+00:00</time>
      </trkpt>
      <trkpt lat="0" lon="0">
        <time>2021-02-28T08:37:25.341000+00:00</time>
      </trkpt>
      <trkpt lat="0" lon="0">
        <time>2021-02-28T08:37:25.343000+00:00</time>
      </trkpt>
      <trkpt lat="47.31713" lon="-1.39788">
        <ele>113</ele>
        <time>2021-02-28T08:37:26.349000+00:00</time>
      </trkpt>
      <trkpt lat="0" lon="0">
        <time>2021-02-28T08:37:26.355000+00:00</time>
      </trkpt>
      <trkpt lat="0" lon="0">
        <time>2021-02-28T08:37:26.360000+00:00</time>
      </trkpt>
      <trkpt lat="0" lon="0">
        <time>2021-02-28T08:37:26.363000+00:00</time>
      </trkpt>
      <trkpt lat="47.31714" lon="-1.39789">
        <ele>112</ele>
        <time>2021-02-28T08:37:27.352000+00:00</time>
      </trkpt>
      <trkpt lat="0" lon="0">
        <time>2021-02-28T08:37:27.363000+00:00</time>
      </trkpt>
      <trkpt lat="0" lon="0">
        <time>2021-02-28T08:37:27.367000+00:00</time>
      </trkpt>
      <trkpt lat="0" lon="0">
        <time>2021-02-28T08:37:27.369000+00:00</time>
      </trkpt>
      <trkpt lat="47.31715" lon="-1.3979">
        <ele>111</ele>
        <time>2021-02-28T08:37:28.350000+00:00</time>
      </trkpt>
      <trkpt lat="0" lon="0">
        <time>2021-02-28T08:37:28.356000+00:00</time>
      </trkpt>
      <trkpt lat="0" lon="0">
        <time>2021-02-28T08:37:28.367000+00:00</time>
      </trkpt>
      <trkpt lat="0" lon="0">
        <time>2021-02-28T08:37:28.370000+00:00</time>
      </trkpt>
      <trkpt lat="47.31716" lon="-1.3979">
        <ele>111</ele>
        <time>2021-02-28T08:37:29.354000+00:00</time>
      </trkpt>
      <trkpt lat="0" lon="0">
        <time>2021-02-28T08:37:29.361000+00:00</time>
      </trkpt>
      <trkpt lat="0" lon="0">
        <time>2021-02-28T08:37:29.366000+00:00</time>
      </trkpt>
      <trkpt lat="0" lon="0">
        <time>2021-02-28T08:37:29.368000+00:00</time>
      </trkpt>
      <trkpt lat="47.31717" lon="-1.39791">
        <ele>110</ele>
        <time>2021-02-28T08:37:30.347000+00:00</time>
      </trkpt>
      <trkpt lat="0" lon="0">
        <time>2021-02-28T08:37:30.358000+00:00</time>
      </trkpt>
      <trkpt lat="0" lon="0">
        <time>2021-02-28T08:37:30.363000+00:00</time>
      </trkpt>
      <trkpt lat="0" lon="0">
        <time>2021-02-28T08:37:30.365000+00:00</time>
      </trkpt>
      <trkpt lat="47.31718" lon="-1.39792">
        <ele>109</ele>
        <time>2021-02-28T08:37:31.352000+00:00</time>
      </trkpt>
      <trkpt lat="0" lon="0">
        <time>2021-02-28T08:37:31.364000+00:00</time>
      </trkpt>
      <trkpt lat="0" lon="0">
        <time>2021-02-28T08:37:31.369000+00:00</time>
      </trkpt>
      <trkpt lat="0" lon="0">
        <time>2021-02-28T08:37:31.371000+00:00</time>
      </trkpt>
      <trkpt lat="47.31718" lon="-1.39793">
        <ele>108</ele>
        <time>2021-02-28T08:37:32.356000+00:00</time>
      </trkpt>
      <trkpt lat="0" lon="0">
        <time>2021-02-28T08:37:32.361000+00:00</time>
      </trkpt>
      <trkpt lat="0" lon="0">
        <time>2021-02-28T08:37:32.366000+00:00</time>
      </trkpt>
      <trkpt lat="0" lon="0">
        <time>2021-02-28T08:37:32.368000+00:00</time>
      </trkpt>
      <trkpt lat="47.31719" lon="-1.39793">
        <ele>108</ele>
        <time>2021-02-28T08:37:33.359000+00:00</time>
      </trkpt>
      <trkpt lat="0" lon="0">
        <time>2021-02-28T08:37:33.364000+00:00</time>
      </trkpt>
      <trkpt lat="0" lon="0">
        <time>2021-02-28T08:37:33.369000+00:00</time>
      </trkpt>
      <trkpt lat="0" lon="0">
        <time>2021-02-28T08:37:33.374000+00:00</time>
      </trkpt>
      <trkpt lat="47.31719" lon="-1.39794">
        <ele>108</ele>
        <time>2021-02-28T08:37:34.390000+00:00</time>
      </trkpt>
      <trkpt lat="0" lon="0">
        <time>2021-02-28T08:37:34.398000+00:00</time>
      </trkpt>
      <trkpt lat="0" lon="0">
        <time>2021-02-28T08:37:34.402000+00:00</time>
      </trkpt>
      <trkpt lat="0" lon="0">
        <time>2021-02-28T08:37:34.405000+00:00</time>
      </trkpt>
      <trkpt lat="47.3172" lon="-1.39794">
        <ele>108</ele>
        <time>2021-02-28T08:37:35.381000+00:00</time>
      </trkpt>
      <trkpt lat="0" lon="0">
        <time>2021-02-28T08:37:35.390000+00:00</time>
      </trkpt>
      <trkpt lat="0" lon="0">
        <time>2021-02-28T08:37:35.394000+00:00</time>
      </trkpt>
      <trkpt lat="0" lon="0">
        <time>2021-02-28T08:37:35.396000+00:00</time>
      </trkpt>
      <trkpt lat="47.3172" lon="-1.39795">
        <ele>108</ele>
        <time>2021-02-28T08:37:36.344000+00:00</time>
      </trkpt>
      <trkpt lat="0" lon="0">
        <time>2021-02-28T08:37:36.351000+00:00</time>
      </trkpt>
      <trkpt lat="0" lon="0">
        <time>2021-02-28T08:37:36.359000+00:00</time>
      </trkpt>
      <trkpt lat="0" lon="0">
        <time>2021-02-28T08:37:36.363000+00:00</time>
      </trkpt>
      <trkpt lat="47.31721" lon="-1.39796">
        <ele>107</ele>
        <time>2021-02-28T08:37:37.328000+00:00</time>
      </trkpt>
      <trkpt lat="0" lon="0">
        <time>2021-02-28T08:37:37.334000+00:00</time>
      </trkpt>
      <trkpt lat="0" lon="0">
        <time>2021-02-28T08:37:37.339000+00:00</time>
      </trkpt>
      <trkpt lat="0" lon="0">
        <time>2021-02-28T08:37:37.342000+00:00</time>
      </trkpt>
      <trkpt lat="47.31721" lon="-1.39797">
        <ele>106</ele>
        <time>2021-02-28T08:37:38.359000+00:00</time>
      </trkpt>
      <trkpt lat="0" lon="0">
        <time>2021-02-28T08:37:38.364000+00:00</time>
      </trkpt>
      <trkpt lat="0" lon="0">
        <time>2021-02-28T08:37:38.369000+00:00</time>
      </trkpt>
      <trkpt lat="0" lon="0">
        <time>2021-02-28T08:37:38.372000+00:00</time>
      </trkpt>
      <trkpt lat="47.31722" lon="-1.39798">
        <ele>106</ele>
        <time>2021-02-28T08:37:39.373000+00:00</time>
      </trkpt>
      <trkpt lat="0" lon="0">
        <time>2021-02-28T08:37:39.381000+00:00</time>
      </trkpt>
      <trkpt lat="0" lon="0">
        <time>2021-02-28T08:37:39.391000+00:00</time>
      </trkpt>
      <trkpt lat="0" lon="0">
        <time>2021-02-28T08:37:39.398000+00:00</time>
      </trkpt>
      <trkpt lat="47.31723" lon="-1.39799">
        <ele>105</ele>
        <time>2021-02-28T08:37:40.332000+00:00</time>
      </trkpt>
      <trkpt lat="0" lon="0">
        <time>2021-02-28T08:37:40.340000+00:00</time>
      </trkpt>
      <trkpt lat="0" lon="0">
        <time>2021-02-28T08:37:40.344000+00:00</time>
      </trkpt>
      <trkpt lat="0" lon="0">
        <time>2021-02-28T08:37:40.346000+00:00</time>
      </trkpt>
      <trkpt lat="47.31723" lon="-1.398">
        <ele>104</ele>
        <time>2021-02-28T08:37:41.351000+00:00</time>
      </trkpt>
      <trkpt lat="0" lon="0">
        <time>2021-02-28T08:37:41.358000+00:00</time>
      </trkpt>
      <trkpt lat="0" lon="0">
        <time>2021-02-28T08:37:41.362000+00:00</time>
      </trkpt>
      <trkpt lat="0" lon="0">
        <time>2021-02-28T08:37:41.364000+00:00</time>
      </trkpt>
      <trkpt lat="47.31724" lon="-1.39801">
        <ele>104</ele>
        <time>2021-02-28T08:37:42.362000+00:00</time>
      </trkpt>
      <trkpt lat="0" lon="0">
        <time>2021-02-28T08:37:42.372000+00:00</time>
      </trkpt>
      <trkpt lat="0" lon="0">
        <time>2021-02-28T08:37:42.377000+00:00</time>
      </trkpt>
      <trkpt lat="0" lon="0">
        <time>2021-02-28T08:37:42.380000+00:00</time>
      </trkpt>
      <trkpt lat="47.31725" lon="-1.39802">
        <ele>103</ele>
        <time>2021-02-28T08:37:43.363000+00:00</time>
      </trkpt>
      <trkpt lat="0" lon="0">
        <time>2021-02-28T08:37:43.369000+00:00</time>
      </trkpt>
      <trkpt lat="0" lon="0">
        <time>2021-02-28T08:37:43.374000+00:00</time>
      </trkpt>
      <trkpt lat="0" lon="0">
        <time>2021-02-28T08:37:43.377000+00:00</time>
      </trkpt>
      <trkpt lat="47.31725" lon="-1.39803">
        <ele>103</ele>
        <time>2021-02-28T08:37:44.368000+00:00</time>
      </trkpt>
      <trkpt lat="0" lon="0">
        <time>2021-02-28T08:37:44.371000+00:00</time>
      </trkpt>
      <trkpt lat="0" lon="0">
        <time>2021-02-28T08:37:44.374000+00:00</time>
      </trkpt>
      <trkpt lat="0" lon="0">
        <time>2021-02-28T08:37:44.375000+00:00</time>
      </trkpt>
      <trkpt lat="47.31725" lon="-1.39805">
        <ele>103</ele>
        <time>2021-02-28T08:37:45.371000+00:00</time>
      </trkpt>
      <trkpt lat="0" lon="0">
        <time>2021-02-28T08:37:45.384000+00:00</time>
      </trkpt>
      <trkpt lat="0" lon="0">
        <time>2021-02-28T08:37:45.389000+00:00</time>
      </trkpt>
      <trkpt lat="0" lon="0">
        <time>2021-02-28T08:37:45.392000+00:00</time>
      </trkpt>
      <trkpt lat="47.31726" lon="-1.39806">
        <ele>103</ele>
        <time>2021-02-28T08:37:46.400000+00:00</time>
      </trkpt>
      <trkpt lat="0" lon="0">
        <time>2021-02-28T08:37:46.405000+00:00</time>
      </trkpt>
      <trkpt lat="0" lon="0">
        <time>2021-02-28T08:37:46.409000+00:00</time>
      </trkpt>
      <trkpt lat="0" lon="0">
        <time>2021-02-28T08:37:46.411000+00:00</time>
      </trkpt>
      <trkpt lat="47.31726" lon="-1.39807">
        <ele>102</ele>
        <time>2021-02-28T08:37:47.351000+00:00</time>
      </trkpt>
      <trkpt lat="0" lon="0">
        <time>2021-02-28T08:37:47.358000+00:00</time>
      </trkpt>
      <trkpt lat="0" lon="0">
        <time>2021-02-28T08:37:47.362000+00:00</time>
      </trkpt>
      <trkpt lat="0" lon="0">
        <time>2021-02-28T08:37:47.365000+00:00</time>
      </trkpt>
      <trkpt lat="47.31726" lon="-1.39808">
        <ele>102</ele>
        <time>2021-02-28T08:37:48.380000+00:00</time>
      </trkpt>
      <trkpt lat="0" lon="0">
        <time>2021-02-28T08:37:48.391000+00:00</time>
      </trkpt>
      <trkpt lat="0" lon="0">
        <time>2021-02-28T08:37:48.396000+00:00</time>
      </trkpt>
      <trkpt lat="0" lon="0">
        <time>2021-02-28T08:37:48.399000+00:00</time>
      </trkpt>
      <trkpt lat="47.31727" lon="-1.39809">
        <ele>102</ele>
        <time>2021-02-28T08:37:49.336000+00:00</time>
      </trkpt>
      <trkpt lat="0" lon="0">
        <time>2021-02-28T08:37:49.344000+00:00</time>
      </trkpt>
      <trkpt lat="0" lon="0">
        <time>2021-02-28T08:37:49.349000+00:00</time>
      </trkpt>
      <trkpt lat="0" lon="0">
        <time>2021-02-28T08:37:49.351000+00:00</time>
      </trkpt>
      <trkpt lat="47.31727" lon="-1.3981">
        <ele>102</ele>
        <time>2021-02-28T08:37:50.338000+00:00</time>
      </trkpt>
      <trkpt lat="0" lon="0">
        <time>2021-02-28T08:37:50.348000+00:00</time>
      </trkpt>
      <trkpt lat="0" lon="0">
        <time>2021-02-28T08:37:50.353000+00:00</time>
      </trkpt>
      <trkpt lat="0" lon="0">
        <time>2021-02-28T08:37:50.375000+00:00</time>
      </trkpt>
      <trkpt lat="47.31727" lon="-1.39884">
        <ele>93</ele>
        <time>2021-02-28T08:37:51.398000+00:00</time>
      </trkpt>
      <trkpt lat="0" lon="0">
        <time>2021-02-28T08:37:51.403000+00:00</time>
      </trkpt>
      <trkpt lat="0" lon="0">
        <time>2021-02-28T08:37:51.407000+00:00</time>
      </trkpt>
      <trkpt lat="0" lon="0">
        <time>2021-02-28T08:37:51.410000+00:00</time>
      </trkpt>
      <trkpt lat="47.31728" lon="-1.39885">
        <ele>93</ele>
        <time>2021-02-28T08:37:52.404000+00:00</time>
      </trkpt>
      <trkpt lat="0" lon="0">
        <time>2021-02-28T08:37:52.421000+00:00</time>
      </trkpt>
      <trkpt lat="0" lon="0">
        <time>2021-02-28T08:37:52.432000+00:00</time>
      </trkpt>
      <trkpt lat="0" lon="0">
        <time>2021-02-28T08:37:52.434000+00:00</time>
      </trkpt>
      <trkpt lat="47.31728" lon="-1.39887">
        <ele>94</ele>
        <time>2021-02-28T08:37:53.378000+00:00</time>
      </trkpt>
      <trkpt lat="0" lon="0">
        <time>2021-02-28T08:37:53.382000+00:00</time>
      </trkpt>
      <trkpt lat="0" lon="0">
        <time>2021-02-28T08:37:53.385000+00:00</time>
      </trkpt>
      <trkpt lat="0" lon="0">
        <time>2021-02-28T08:37:53.387000+00:00</time>
      </trkpt>
      <trkpt lat="47.31729" lon="-1.39889">
        <ele>94</ele>
        <time>2021-02-28T08:37:54.387000+00:00</time>
      </trkpt>
      <trkpt lat="0" lon="0">
        <time>2021-02-28T08:37:54.393000+00:00</time>
      </trkpt>
      <trkpt lat="0" lon="0">
        <time>2021-02-28T08:37:54.397000+00:00</time>
      </trkpt>
      <trkpt lat="0" lon="0">
        <time>2021-02-28T08:37:54.399000+00:00</time>
      </trkpt>
      <trkpt lat="47.31729" lon="-1.3989">
        <ele>94</ele>
        <time>2021-02-28T08:37:55.424000+00:00</time>
      </trkpt>
      <trkpt lat="0" lon="0">
        <time>2021-02-28T08:37:55.432000+00:00</time>
      </trkpt>
      <trkpt lat="0" lon="0">
        <time>2021-02-28T08:37:55.438000+00:00</time>
      </trkpt>
      <trkpt lat="0" lon="0">
        <time>2021-02-28T08:37:55.441000+00:00</time>
      </trkpt>
      <trkpt lat="47.3173" lon="-1.39892">
        <ele>94</ele>
        <time>2021-02-28T08:37:56.441000+00:00</time>
      </trkpt>
      <trkpt lat="0" lon="0">
        <time>2021-02-28T08:37:56.455000+00:00</time>
      </trkpt>
      <trkpt lat="0" lon="0">
        <time>2021-02-28T08:37:56.458000+00:00</time>
      </trkpt>
      <trkpt lat="0" lon="0">
        <time>2021-02-28T08:37:56.460000+00:00</time>
      </trkpt>
      <trkpt lat="47.3173" lon="-1.39893">
        <ele>95</ele>
        <time>2021-02-28T08:37:57.388000+00:00</time>
      </trkpt>
      <trkpt lat="0" lon="0">
        <time>2021-02-28T08:37:57.397000+00:00</time>
      </trkpt>
      <trkpt lat="0" lon="0">
        <time>2021-02-28T08:37:57.402000+00:00</time>
      </trkpt>
      <trkpt lat="0" lon="0">
        <time>2021-02-28T08:37:57.404000+00:00</time>
      </trkpt>
      <trkpt lat="47.3173" lon="-1.39895">
        <ele>94</ele>
        <time>2021-02-28T08:37:58.416000+00:00</time>
      </trkpt>
      <trkpt lat="0" lon="0">
        <time>2021-02-28T08:37:58.422000+00:00</time>
      </trkpt>
      <trkpt lat="0" lon="0">
        <time>2021-02-28T08:37:58.426000+00:00</time>
      </trkpt>
      <trkpt lat="0" lon="0">
        <time>2021-02-28T08:37:58.429000+00:00</time>
      </trkpt>
      <trkpt lat="47.31731" lon="-1.39896">
        <ele>94</ele>
        <time>2021-02-28T08:37:59.435000+00:00</time>
      </trkpt>
      <trkpt lat="0" lon="0">
        <time>2021-02-28T08:37:59.440000+00:00</time>
      </trkpt>
      <trkpt lat="0" lon="0">
        <time>2021-02-28T08:37:59.451000+00:00</time>
      </trkpt>
      <trkpt lat="0" lon="0">
        <time>2021-02-28T08:37:59.453000+00:00</time>
      </trkpt>
      <trkpt lat="47.31731" lon="-1.39897">
        <ele>94</ele>
        <time>2021-02-28T08:38:00.463000+00:00</time>
      </trkpt>
      <trkpt lat="0" lon="0">
        <time>2021-02-28T08:38:00.466000+00:00</time>
      </trkpt>
      <trkpt lat="0" lon="0">
        <time>2021-02-28T08:38:00.469000+00:00</time>
      </trkpt>
      <trkpt lat="0" lon="0">
        <time>2021-02-28T08:38:00.470000+00:00</time>
      </trkpt>
      <trkpt lat="47.31731" lon="-1.39898">
        <ele>94</ele>
        <time>2021-02-28T08:38:01.424000+00:00</time>
      </trkpt>
      <trkpt lat="0" lon="0">
        <time>2021-02-28T08:38:01.430000+00:00</time>
      </trkpt>
      <trkpt lat="0" lon="0">
        <time>2021-02-28T08:38:01.437000+00:00</time>
      </trkpt>
      <trkpt lat="0" lon="0">
        <time>2021-02-28T08:38:01.439000+00:00</time>
      </trkpt>
      <trkpt lat="47.31732" lon="-1.39899">
        <ele>93</ele>
        <time>2021-02-28T08:38:02.399000+00:00</time>
      </trkpt>
      <trkpt lat="0" lon="0">
        <time>2021-02-28T08:38:02.410000+00:00</time>
      </trkpt>
      <trkpt lat="0" lon="0">
        <time>2021-02-28T08:38:02.414000+00:00</time>
      </trkpt>
      <trkpt lat="0" lon="0">
        <time>2021-02-28T08:38:02.417000+00:00</time>
      </trkpt>
      <trkpt lat="47.31732" lon="-1.399">
        <ele>93</ele>
        <time>2021-02-28T08:38:03.409000+00:00</time>
      </trkpt>
      <trkpt lat="0" lon="0">
        <time>2021-02-28T08:38:03.416000+00:00</time>
      </trkpt>
      <trkpt lat="0" lon="0">
        <time>2021-02-28T08:38:03.419000+00:00</time>
      </trkpt>
      <trkpt lat="0" lon="0">
        <time>2021-02-28T08:38:03.422000+00:00</time>
      </trkpt>
      <trkpt lat="47.31733" lon="-1.39902">
        <ele>95</ele>
        <time>2021-02-28T08:38:04.408000+00:00</time>
      </trkpt>
      <trkpt lat="0" lon="0">
        <time>2021-02-28T08:38:04.415000+00:00</time>
      </trkpt>
      <trkpt lat="0" lon="0">
        <time>2021-02-28T08:38:04.421000+00:00</time>
      </trkpt>
      <trkpt lat="0" lon="0">
        <time>2021-02-28T08:38:04.424000+00:00</time>
      </trkpt>
      <trkpt lat="47.31733" lon="-1.39903">
        <ele>95</ele>
        <time>2021-02-28T08:38:05.391000+00:00</time>
      </trkpt>
      <trkpt lat="0" lon="0">
        <time>2021-02-28T08:38:05.397000+00:00</time>
      </trkpt>
      <trkpt lat="0" lon="0">
        <time>2021-02-28T08:38:05.402000+00:00</time>
      </trkpt>
      <trkpt lat="0" lon="0">
        <time>2021-02-28T08:38:05.405000+00:00</time>
      </trkpt>
      <trkpt lat="47.31733" lon="-1.39904">
        <ele>95</ele>
        <time>2021-02-28T08:38:06.415000+00:00</time>
      </trkpt>
      <trkpt lat="0" lon="0">
        <time>2021-02-28T08:38:06.426000+00:00</time>
      </trkpt>
      <trkpt lat="0" lon="0">
        <time>2021-02-28T08:38:06.433000+00:00</time>
      </trkpt>
      <trkpt lat="0" lon="0">
        <time>2021-02-28T08:38:06.436000+00:00</time>
      </trkpt>
      <trkpt lat="47.31734" lon="-1.39905">
        <ele>96</ele>
        <time>2021-02-28T08:38:07.375000+00:00</time>
      </trkpt>
      <trkpt lat="0" lon="0">
        <time>2021-02-28T08:38:07.383000+00:00</time>
      </trkpt>
      <trkpt lat="0" lon="0">
        <time>2021-02-28T08:38:07.388000+00:00</time>
      </trkpt>
      <trkpt lat="0" lon="0">
        <time>2021-02-28T08:38:07.391000+00:00</time>
      </trkpt>
      <trkpt lat="47.31734" lon="-1.39905">
        <ele>96</ele>
        <time>2021-02-28T08:38:08.405000+00:00</time>
      </trkpt>
      <trkpt lat="0" lon="0">
        <time>2021-02-28T08:38:08.415000+00:00</time>
      </trkpt>
      <trkpt lat="0" lon="0">
        <time>2021-02-28T08:38:08.420000+00:00</time>
      </trkpt>
      <trkpt lat="0" lon="0">
        <time>2021-02-28T08:38:08.423000+00:00</time>
      </trkpt>
      <trkpt lat="47.31735" lon="-1.39906">
        <ele>96</ele>
        <time>2021-02-28T08:38:09.411000+00:00</time>
      </trkpt>
      <trkpt lat="0" lon="0">
        <time>2021-02-28T08:38:09.418000+00:00</time>
      </trkpt>
      <trkpt lat="0" lon="0">
        <time>2021-02-28T08:38:09.423000+00:00</time>
      </trkpt>
      <trkpt lat="0" lon="0">
        <time>2021-02-28T08:38:09.426000+00:00</time>
      </trkpt>
      <trkpt lat="47.31736" lon="-1.39907">
        <ele>96</ele>
        <time>2021-02-28T08:38:10.402000+00:00</time>
      </trkpt>
      <trkpt lat="0" lon="0">
        <time>2021-02-28T08:38:10.406000+00:00</time>
      </trkpt>
      <trkpt lat="0" lon="0">
        <time>2021-02-28T08:38:10.411000+00:00</time>
      </trkpt>
      <trkpt lat="0" lon="0">
        <time>2021-02-28T08:38:10.427000+00:00</time>
      </trkpt>
      <trkpt lat="47.31727" lon="-1.39949">
        <ele>105</ele>
        <time>2021-02-28T08:38:11.470000+00:00</time>
      </trkpt>
      <trkpt lat="0" lon="0">
        <time>2021-02-28T08:38:11.475000+00:00</time>
      </trkpt>
      <trkpt lat="0" lon="0">
        <time>2021-02-28T08:38:11.480000+00:00</time>
      </trkpt>
      <trkpt lat="0" lon="0">
        <time>2021-02-28T08:38:11.483000+00:00</time>
      </trkpt>
      <trkpt lat="47.31726" lon="-1.39951">
        <ele>106</ele>
        <time>2021-02-28T08:38:12.411000+00:00</time>
      </trkpt>
      <trkpt lat="0" lon="0">
        <time>2021-02-28T08:38:12.415000+00:00</time>
      </trkpt>
      <trkpt lat="0" lon="0">
        <time>2021-02-28T08:38:12.420000+00:00</time>
      </trkpt>
      <trkpt lat="0" lon="0">
        <time>2021-02-28T08:38:12.423000+00:00</time>
      </trkpt>
      <trkpt lat="47.31726" lon="-1.39952">
        <ele>106</ele>
        <time>2021-02-28T08:38:13.466000+00:00</time>
      </trkpt>
      <trkpt lat="0" lon="0">
        <time>2021-02-28T08:38:13.470000+00:00</time>
      </trkpt>
      <trkpt lat="0" lon="0">
        <time>2021-02-28T08:38:13.476000+00:00</time>
      </trkpt>
      <trkpt lat="0" lon="0">
        <time>2021-02-28T08:38:13.478000+00:00</time>
      </trkpt>
      <trkpt lat="47.31725" lon="-1.39954">
        <ele>107</ele>
        <time>2021-02-28T08:38:14.479000+00:00</time>
      </trkpt>
      <trkpt lat="0" lon="0">
        <time>2021-02-28T08:38:14.485000+00:00</time>
      </trkpt>
      <trkpt lat="0" lon="0">
        <time>2021-02-28T08:38:14.488000+00:00</time>
      </trkpt>
      <trkpt lat="0" lon="0">
        <time>2021-02-28T08:38:14.489000+00:00</time>
      </trkpt>
      <trkpt lat="47.31725" lon="-1.39955">
        <ele>107</ele>
        <time>2021-02-28T08:38:15.459000+00:00</time>
      </trkpt>
      <trkpt lat="0" lon="0">
        <time>2021-02-28T08:38:15.467000+00:00</time>
      </trkpt>
      <trkpt lat="0" lon="0">
        <time>2021-02-28T08:38:15.471000+00:00</time>
      </trkpt>
      <trkpt lat="0" lon="0">
        <time>2021-02-28T08:38:15.473000+00:00</time>
      </trkpt>
      <trkpt lat="47.31725" lon="-1.39957">
        <ele>106</ele>
        <time>2021-02-28T08:38:16.478000+00:00</time>
      </trkpt>
      <trkpt lat="0" lon="0">
        <time>2021-02-28T08:38:16.484000+00:00</time>
      </trkpt>
      <trkpt lat="0" lon="0">
        <time>2021-02-28T08:38:16.489000+00:00</time>
      </trkpt>
      <trkpt lat="0" lon="0">
        <time>2021-02-28T08:38:16.491000+00:00</time>
      </trkpt>
      <trkpt lat="47.31725" lon="-1.39958">
        <ele>107</ele>
        <time>2021-02-28T08:38:17.458000+00:00</time>
      </trkpt>
      <trkpt lat="0" lon="0">
        <time>2021-02-28T08:38:17.465000+00:00</time>
      </trkpt>
      <trkpt lat="0" lon="0">
        <time>2021-02-28T08:38:17.470000+00:00</time>
      </trkpt>
      <trkpt lat="0" lon="0">
        <time>2021-02-28T08:38:17.473000+00:00</time>
      </trkpt>
      <trkpt lat="47.31725" lon="-1.39959">
        <ele>106</ele>
        <time>2021-02-28T08:38:18.475000+00:00</time>
      </trkpt>
      <trkpt lat="0" lon="0">
        <time>2021-02-28T08:38:18.481000+00:00</time>
      </trkpt>
      <trkpt lat="0" lon="0">
        <time>2021-02-28T08:38:18.485000+00:00</time>
      </trkpt>
      <trkpt lat="0" lon="0">
        <time>2021-02-28T08:38:18.487000+00:00</time>
      </trkpt>
      <trkpt lat="47.31725" lon="-1.3996">
        <ele>107</ele>
        <time>2021-02-28T08:38:19.457000+00:00</time>
      </trkpt>
      <trkpt lat="0" lon="0">
        <time>2021-02-28T08:38:19.463000+00:00</time>
      </trkpt>
      <trkpt lat="0" lon="0">
        <time>2021-02-28T08:38:19.468000+00:00</time>
      </trkpt>
      <trkpt lat="0" lon="0">
        <time>2021-02-28T08:38:19.472000+00:00</time>
      </trkpt>
      <trkpt lat="47.31725" lon="-1.39961">
        <ele>107</ele>
        <time>2021-02-28T08:38:20.453000+00:00</time>
      </trkpt>
      <trkpt lat="0" lon="0">
        <time>2021-02-28T08:38:20.455000+00:00</time>
      </trkpt>
      <trkpt lat="0" lon="0">
        <time>2021-02-28T08:38:20.457000+00:00</time>
      </trkpt>
      <trkpt lat="0" lon="0">
        <time>2021-02-28T08:38:20.459000+00:00</time>
      </trkpt>
      <trkpt lat="47.31725" lon="-1.39962">
        <ele>107</ele>
        <time>2021-02-28T08:38:21.458000+00:00</time>
      </trkpt>
      <trkpt lat="0" lon="0">
        <time>2021-02-28T08:38:21.464000+00:00</time>
      </trkpt>
      <trkpt lat="0" lon="0">
        <time>2021-02-28T08:38:21.469000+00:00</time>
      </trkpt>
      <trkpt lat="0" lon="0">
        <time>2021-02-28T08:38:21.472000+00:00</time>
      </trkpt>
      <trkpt lat="47.31726" lon="-1.39963">
        <ele>106</ele>
        <time>2021-02-28T08:38:22.437000+00:00</time>
      </trkpt>
      <trkpt lat="0" lon="0">
        <time>2021-02-28T08:38:22.446000+00:00</time>
      </trkpt>
      <trkpt lat="0" lon="0">
        <time>2021-02-28T08:38:22.449000+00:00</time>
      </trkpt>
      <trkpt lat="0" lon="0">
        <time>2021-02-28T08:38:22.457000+00:00</time>
      </trkpt>
      <trkpt lat="47.31736" lon="-1.39997">
        <ele>107</ele>
        <time>2021-02-28T08:38:23.503000+00:00</time>
      </trkpt>
      <trkpt lat="0" lon="0">
        <time>2021-02-28T08:38:23.507000+00:00</time>
      </trkpt>
      <trkpt lat="0" lon="0">
        <time>2021-02-28T08:38:23.511000+00:00</time>
      </trkpt>
      <trkpt lat="0" lon="0">
        <time>2021-02-28T08:38:23.514000+00:00</time>
      </trkpt>
      <trkpt lat="47.31738" lon="-1.40001">
        <ele>107</ele>
        <time>2021-02-28T08:38:24.532000+00:00</time>
      </trkpt>
      <trkpt lat="0" lon="0">
        <time>2021-02-28T08:38:24.536000+00:00</time>
      </trkpt>
      <trkpt lat="0" lon="0">
        <time>2021-02-28T08:38:24.541000+00:00</time>
      </trkpt>
      <trkpt lat="0" lon="0">
        <time>2021-02-28T08:38:24.543000+00:00</time>
      </trkpt>
      <trkpt lat="47.31739" lon="-1.40004">
        <ele>107</ele>
        <time>2021-02-28T08:38:25.516000+00:00</time>
      </trkpt>
      <trkpt lat="0" lon="0">
        <time>2021-02-28T08:38:25.521000+00:00</time>
      </trkpt>
      <trkpt lat="0" lon="0">
        <time>2021-02-28T08:38:25.525000+00:00</time>
      </trkpt>
      <trkpt lat="0" lon="0">
        <time>2021-02-28T08:38:25.527000+00:00</time>
      </trkpt>
      <trkpt lat="47.31741" lon="-1.40007">
        <ele>107</ele>
        <time>2021-02-28T08:38:26.502000+00:00</time>
      </trkpt>
      <trkpt lat="0" lon="0">
        <time>2021-02-28T08:38:26.506000+00:00</time>
      </trkpt>
      <trkpt lat="0" lon="0">
        <time>2021-02-28T08:38:26.510000+00:00</time>
      </trkpt>
      <trkpt lat="0" lon="0">
        <time>2021-02-28T08:38:26.512000+00:00</time>
      </trkpt>
      <trkpt lat="47.31742" lon="-1.40011">
        <ele>107</ele>
        <time>2021-02-28T08:38:27.508000+00:00</time>
      </trkpt>
      <trkpt lat="0" lon="0">
        <time>2021-02-28T08:38:27.512000+00:00</time>
      </trkpt>
      <trkpt lat="0" lon="0">
        <time>2021-02-28T08:38:27.517000+00:00</time>
      </trkpt>
      <trkpt lat="0" lon="0">
        <time>2021-02-28T08:38:27.519000+00:00</time>
      </trkpt>
      <trkpt lat="47.31744" lon="-1.40014">
        <ele>107</ele>
        <time>2021-02-28T08:38:28.484000+00:00</time>
      </trkpt>
      <trkpt lat="0" lon="0">
        <time>2021-02-28T08:38:28.494000+00:00</time>
      </trkpt>
      <trkpt lat="0" lon="0">
        <time>2021-02-28T08:38:28.499000+00:00</time>
      </trkpt>
      <trkpt lat="0" lon="0">
        <time>2021-02-28T08:38:28.501000+00:00</time>
      </trkpt>
      <trkpt lat="47.31745" lon="-1.40018">
        <ele>107</ele>
        <time>2021-02-28T08:38:29.513000+00:00</time>
      </trkpt>
      <trkpt lat="0" lon="0">
        <time>2021-02-28T08:38:29.520000+00:00</time>
      </trkpt>
      <trkpt lat="0" lon="0">
        <time>2021-02-28T08:38:29.524000+00:00</time>
      </trkpt>
      <trkpt lat="0" lon="0">
        <time>2021-02-28T08:38:29.527000+00:00</time>
      </trkpt>
      <trkpt lat="47.31746" lon="-1.40021">
        <ele>107</ele>
        <time>2021-02-28T08:38:30.481000+00:00</time>
      </trkpt>
      <trkpt lat="0" lon="0">
        <time>2021-02-28T08:38:30.491000+00:00</time>
      </trkpt>
      <trkpt lat="0" lon="0">
        <time>2021-02-28T08:38:30.497000+00:00</time>
      </trkpt>
      <trkpt lat="0" lon="0">
        <time>2021-02-28T08:38:30.505000+00:00</time>
      </trkpt>
      <trkpt lat="47.31747" lon="-1.40025">
        <ele>108</ele>
        <time>2021-02-28T08:38:31.393000+00:00</time>
      </trkpt>
      <trkpt lat="0" lon="0">
        <time>2021-02-28T08:38:31.395000+00:00</time>
      </trkpt>
      <trkpt lat="0" lon="0">
        <time>2021-02-28T08:38:31.398000+00:00</time>
      </trkpt>
      <trkpt lat="0" lon="0">
        <time>2021-02-28T08:38:31.399000+00:00</time>
      </trkpt>
      <trkpt lat="47.31748" lon="-1.40028">
        <ele>108</ele>
        <time>2021-02-28T08:38:32.439000+00:00</time>
      </trkpt>
      <trkpt lat="0" lon="0">
        <time>2021-02-28T08:38:32.447000+00:00</time>
      </trkpt>
      <trkpt lat="0" lon="0">
        <time>2021-02-28T08:38:32.452000+00:00</time>
      </trkpt>
      <trkpt lat="0" lon="0">
        <time>2021-02-28T08:38:32.455000+00:00</time>
      </trkpt>
      <trkpt lat="47.31749" lon="-1.40032">
        <ele>108</ele>
        <time>2021-02-28T08:38:33.510000+00:00</time>
      </trkpt>
      <trkpt lat="0" lon="0">
        <time>2021-02-28T08:38:33.519000+00:00</time>
      </trkpt>
      <trkpt lat="0" lon="0">
        <time>2021-02-28T08:38:33.525000+00:00</time>
      </trkpt>
      <trkpt lat="0" lon="0">
        <time>2021-02-28T08:38:33.528000+00:00</time>
      </trkpt>
      <trkpt lat="47.3175" lon="-1.40035">
        <ele>108</ele>
        <time>2021-02-28T08:38:34.482000+00:00</time>
      </trkpt>
      <trkpt lat="0" lon="0">
        <time>2021-02-28T08:38:34.488000+00:00</time>
      </trkpt>
      <trkpt lat="0" lon="0">
        <time>2021-02-28T08:38:34.495000+00:00</time>
      </trkpt>
      <trkpt lat="0" lon="0">
        <time>2021-02-28T08:38:34.498000+00:00</time>
      </trkpt>
      <trkpt lat="47.31752" lon="-1.40038">
        <ele>108</ele>
        <time>2021-02-28T08:38:35.520000+00:00</time>
      </trkpt>
      <trkpt lat="0" lon="0">
        <time>2021-02-28T08:38:35.525000+00:00</time>
      </trkpt>
      <trkpt lat="0" lon="0">
        <time>2021-02-28T08:38:35.531000+00:00</time>
      </trkpt>
      <trkpt lat="0" lon="0">
        <time>2021-02-28T08:38:35.534000+00:00</time>
      </trkpt>
      <trkpt lat="47.31753" lon="-1.40042">
        <ele>108</ele>
        <time>2021-02-28T08:38:36.470000+00:00</time>
      </trkpt>
      <trkpt lat="0" lon="0">
        <time>2021-02-28T08:38:36.477000+00:00</time>
      </trkpt>
      <trkpt lat="0" lon="0">
        <time>2021-02-28T08:38:36.480000+00:00</time>
      </trkpt>
      <trkpt lat="0" lon="0">
        <time>2021-02-28T08:38:36.482000+00:00</time>
      </trkpt>
      <trkpt lat="47.31754" lon="-1.40045">
        <ele>108</ele>
        <time>2021-02-28T08:38:37.478000+00:00</time>
      </trkpt>
      <trkpt lat="0" lon="0">
        <time>2021-02-28T08:38:37.487000+00:00</time>
      </trkpt>
      <trkpt lat="0" lon="0">
        <time>2021-02-28T08:38:37.493000+00:00</time>
      </trkpt>
      <trkpt lat="0" lon="0">
        <time>2021-02-28T08:38:37.496000+00:00</time>
      </trkpt>
      <trkpt lat="47.31755" lon="-1.40049">
        <ele>108</ele>
        <time>2021-02-28T08:38:38.490000+00:00</time>
      </trkpt>
      <trkpt lat="0" lon="0">
        <time>2021-02-28T08:38:38.495000+00:00</time>
      </trkpt>
      <trkpt lat="0" lon="0">
        <time>2021-02-28T08:38:38.499000+00:00</time>
      </trkpt>
      <trkpt lat="0" lon="0">
        <time>2021-02-28T08:38:38.500000+00:00</time>
      </trkpt>
      <trkpt lat="47.31756" lon="-1.40052">
        <ele>109</ele>
        <time>2021-02-28T08:38:39.518000+00:00</time>
      </trkpt>
      <trkpt lat="0" lon="0">
        <time>2021-02-28T08:38:39.526000+00:00</time>
      </trkpt>
      <trkpt lat="0" lon="0">
        <time>2021-02-28T08:38:39.532000+00:00</time>
      </trkpt>
      <trkpt lat="0" lon="0">
        <time>2021-02-28T08:38:39.535000+00:00</time>
      </trkpt>
      <trkpt lat="47.31757" lon="-1.40056">
        <ele>109</ele>
        <time>2021-02-28T08:38:40.531000+00:00</time>
      </trkpt>
      <trkpt lat="0" lon="0">
        <time>2021-02-28T08:38:40.537000+00:00</time>
      </trkpt>
      <trkpt lat="0" lon="0">
        <time>2021-02-28T08:38:40.541000+00:00</time>
      </trkpt>
      <trkpt lat="0" lon="0">
        <time>2021-02-28T08:38:40.545000+00:00</time>
      </trkpt>
      <trkpt lat="47.31758" lon="-1.40059">
        <ele>109</ele>
        <time>2021-02-28T08:38:41.508000+00:00</time>
      </trkpt>
      <trkpt lat="0" lon="0">
        <time>2021-02-28T08:38:41.517000+00:00</time>
      </trkpt>
      <trkpt lat="0" lon="0">
        <time>2021-02-28T08:38:41.521000+00:00</time>
      </trkpt>
      <trkpt lat="0" lon="0">
        <time>2021-02-28T08:38:41.523000+00:00</time>
      </trkpt>
      <trkpt lat="47.31759" lon="-1.40063">
        <ele>109</ele>
        <time>2021-02-28T08:38:42.517000+00:00</time>
      </trkpt>
      <trkpt lat="0" lon="0">
        <time>2021-02-28T08:38:42.527000+00:00</time>
      </trkpt>
      <trkpt lat="0" lon="0">
        <time>2021-02-28T08:38:42.534000+00:00</time>
      </trkpt>
      <trkpt lat="0" lon="0">
        <time>2021-02-28T08:38:42.538000+00:00</time>
      </trkpt>
      <trkpt lat="47.3176" lon="-1.40067">
        <ele>110</ele>
        <time>2021-02-28T08:38:43.542000+00:00</time>
      </trkpt>
      <trkpt lat="0" lon="0">
        <time>2021-02-28T08:38:43.549000+00:00</time>
      </trkpt>
      <trkpt lat="0" lon="0">
        <time>2021-02-28T08:38:43.555000+00:00</time>
      </trkpt>
      <trkpt lat="0" lon="0">
        <time>2021-02-28T08:38:43.559000+00:00</time>
      </trkpt>
      <trkpt lat="47.31761" lon="-1.40071">
        <ele>110</ele>
        <time>2021-02-28T08:38:44.497000+00:00</time>
      </trkpt>
      <trkpt lat="0" lon="0">
        <time>2021-02-28T08:38:44.503000+00:00</time>
      </trkpt>
      <trkpt lat="0" lon="0">
        <time>2021-02-28T08:38:44.509000+00:00</time>
      </trkpt>
      <trkpt lat="0" lon="0">
        <time>2021-02-28T08:38:44.511000+00:00</time>
      </trkpt>
      <trkpt lat="47.31762" lon="-1.40074">
        <ele>110</ele>
        <time>2021-02-28T08:38:45.506000+00:00</time>
      </trkpt>
      <trkpt lat="0" lon="0">
        <time>2021-02-28T08:38:45.511000+00:00</time>
      </trkpt>
      <trkpt lat="0" lon="0">
        <time>2021-02-28T08:38:45.518000+00:00</time>
      </trkpt>
      <trkpt lat="0" lon="0">
        <time>2021-02-28T08:38:45.521000+00:00</time>
      </trkpt>
      <trkpt lat="47.31763" lon="-1.40079">
        <ele>110</ele>
        <time>2021-02-28T08:38:46.515000+00:00</time>
      </trkpt>
      <trkpt lat="0" lon="0">
        <time>2021-02-28T08:38:46.521000+00:00</time>
      </trkpt>
      <trkpt lat="0" lon="0">
        <time>2021-02-28T08:38:46.527000+00:00</time>
      </trkpt>
      <trkpt lat="0" lon="0">
        <time>2021-02-28T08:38:46.530000+00:00</time>
      </trkpt>
      <trkpt lat="47.31764" lon="-1.40083">
        <ele>110</ele>
        <time>2021-02-28T08:38:47.498000+00:00</time>
      </trkpt>
      <trkpt lat="0" lon="0">
        <time>2021-02-28T08:38:47.507000+00:00</time>
      </trkpt>
      <trkpt lat="0" lon="0">
        <time>2021-02-28T08:38:47.513000+00:00</time>
      </trkpt>
      <trkpt lat="0" lon="0">
        <time>2021-02-28T08:38:47.516000+00:00</time>
      </trkpt>
      <trkpt lat="47.31766" lon="-1.40087">
        <ele>111</ele>
        <time>2021-02-28T08:38:48.526000+00:00</time>
      </trkpt>
      <trkpt lat="0" lon="0">
        <time>2021-02-28T08:38:48.536000+00:00</time>
      </trkpt>
      <trkpt lat="0" lon="0">
        <time>2021-02-28T08:38:48.541000+00:00</time>
      </trkpt>
      <trkpt lat="0" lon="0">
        <time>2021-02-28T08:38:48.543000+00:00</time>
      </trkpt>
      <trkpt lat="47.31767" lon="-1.40091">
        <ele>111</ele>
        <time>2021-02-28T08:38:49.522000+00:00</time>
      </trkpt>
      <trkpt lat="0" lon="0">
        <time>2021-02-28T08:38:49.529000+00:00</time>
      </trkpt>
      <trkpt lat="0" lon="0">
        <time>2021-02-28T08:38:49.533000+00:00</time>
      </trkpt>
      <trkpt lat="0" lon="0">
        <time>2021-02-28T08:38:49.536000+00:00</time>
      </trkpt>
      <trkpt lat="47.31768" lon="-1.40095">
        <ele>111</ele>
        <time>2021-02-28T08:38:50.426000+00:00</time>
      </trkpt>
      <trkpt lat="0" lon="0">
        <time>2021-02-28T08:38:50.437000+00:00</time>
      </trkpt>
      <trkpt lat="0" lon="0">
        <time>2021-02-28T08:38:50.442000+00:00</time>
      </trkpt>
      <trkpt lat="0" lon="0">
        <time>2021-02-28T08:38:50.444000+00:00</time>
      </trkpt>
      <trkpt lat="47.3177" lon="-1.40099">
        <ele>112</ele>
        <time>2021-02-28T08:38:51.510000+00:00</time>
      </trkpt>
      <trkpt lat="0" lon="0">
        <time>2021-02-28T08:38:51.522000+00:00</time>
      </trkpt>
      <trkpt lat="0" lon="0">
        <time>2021-02-28T08:38:51.527000+00:00</time>
      </trkpt>
      <trkpt lat="0" lon="0">
        <time>2021-02-28T08:38:51.530000+00:00</time>
      </trkpt>
      <trkpt lat="47.31771" lon="-1.40104">
        <ele>112</ele>
        <time>2021-02-28T08:38:52.486000+00:00</time>
      </trkpt>
      <trkpt lat="0" lon="0">
        <time>2021-02-28T08:38:52.503000+00:00</time>
      </trkpt>
      <trkpt lat="0" lon="0">
        <time>2021-02-28T08:38:52.510000+00:00</time>
      </trkpt>
      <trkpt lat="0" lon="0">
        <time>2021-02-28T08:38:52.514000+00:00</time>
      </trkpt>
      <trkpt lat="47.31773" lon="-1.40108">
        <ele>112</ele>
        <time>2021-02-28T08:38:53.499000+00:00</time>
      </trkpt>
      <trkpt lat="0" lon="0">
        <time>2021-02-28T08:38:53.502000+00:00</time>
      </trkpt>
      <trkpt lat="0" lon="0">
        <time>2021-02-28T08:38:53.506000+00:00</time>
      </trkpt>
      <trkpt lat="0" lon="0">
        <time>2021-02-28T08:38:53.508000+00:00</time>
      </trkpt>
      <trkpt lat="47.31774" lon="-1.40112">
        <ele>112</ele>
        <time>2021-02-28T08:38:54.499000+00:00</time>
      </trkpt>
      <trkpt lat="0" lon="0">
        <time>2021-02-28T08:38:54.507000+00:00</time>
      </trkpt>
      <trkpt lat="0" lon="0">
        <time>2021-02-28T08:38:54.512000+00:00</time>
      </trkpt>
      <trkpt lat="0" lon="0">
        <time>2021-02-28T08:38:54.515000+00:00</time>
      </trkpt>
      <trkpt lat="47.31775" lon="-1.40116">
        <ele>112</ele>
        <time>2021-02-28T08:38:55.513000+00:00</time>
      </trkpt>
      <trkpt lat="0" lon="0">
        <time>2021-02-28T08:38:55.527000+00:00</time>
      </trkpt>
      <trkpt lat="0" lon="0">
        <time>2021-02-28T08:38:55.532000+00:00</time>
      </trkpt>
      <trkpt lat="0" lon="0">
        <time>2021-02-28T08:38:55.536000+00:00</time>
      </trkpt>
      <trkpt lat="47.31777" lon="-1.4012">
        <ele>113</ele>
        <time>2021-02-28T08:38:56.516000+00:00</time>
      </trkpt>
      <trkpt lat="0" lon="0">
        <time>2021-02-28T08:38:56.521000+00:00</time>
      </trkpt>
      <trkpt lat="0" lon="0">
        <time>2021-02-28T08:38:56.526000+00:00</time>
      </trkpt>
      <trkpt lat="0" lon="0">
        <time>2021-02-28T08:38:56.529000+00:00</time>
      </trkpt>
      <trkpt lat="47.31779" lon="-1.40125">
        <ele>113</ele>
        <time>2021-02-28T08:38:57.537000+00:00</time>
      </trkpt>
      <trkpt lat="0" lon="0">
        <time>2021-02-28T08:38:57.543000+00:00</time>
      </trkpt>
      <trkpt lat="0" lon="0">
        <time>2021-02-28T08:38:57.548000+00:00</time>
      </trkpt>
      <trkpt lat="0" lon="0">
        <time>2021-02-28T08:38:57.552000+00:00</time>
      </trkpt>
      <trkpt lat="47.3178" lon="-1.40129">
        <ele>113</ele>
        <time>2021-02-28T08:38:58.498000+00:00</time>
      </trkpt>
      <trkpt lat="0" lon="0">
        <time>2021-02-28T08:38:58.506000+00:00</time>
      </trkpt>
      <trkpt lat="0" lon="0">
        <time>2021-02-28T08:38:58.509000+00:00</time>
      </trkpt>
      <trkpt lat="0" lon="0">
        <time>2021-02-28T08:38:58.510000+00:00</time>
      </trkpt>
      <trkpt lat="47.31782" lon="-1.40133">
        <ele>113</ele>
        <time>2021-02-28T08:38:59.496000+00:00</time>
      </trkpt>
      <trkpt lat="0" lon="0">
        <time>2021-02-28T08:38:59.503000+00:00</time>
      </trkpt>
      <trkpt lat="0" lon="0">
        <time>2021-02-28T08:38:59.511000+00:00</time>
      </trkpt>
      <trkpt lat="0" lon="0">
        <time>2021-02-28T08:38:59.514000+00:00</time>
      </trkpt>
      <trkpt lat="47.31783" lon="-1.40137">
        <ele>113</ele>
        <time>2021-02-28T08:39:00.440000+00:00</time>
      </trkpt>
      <trkpt lat="0" lon="0">
        <time>2021-02-28T08:39:00.449000+00:00</time>
      </trkpt>
      <trkpt lat="0" lon="0">
        <time>2021-02-28T08:39:00.455000+00:00</time>
      </trkpt>
      <trkpt lat="0" lon="0">
        <time>2021-02-28T08:39:00.457000+00:00</time>
      </trkpt>
      <trkpt lat="47.31785" lon="-1.40141">
        <ele>112</ele>
        <time>2021-02-28T08:39:01.471000+00:00</time>
      </trkpt>
      <trkpt lat="0" lon="0">
        <time>2021-02-28T08:39:01.485000+00:00</time>
      </trkpt>
      <trkpt lat="0" lon="0">
        <time>2021-02-28T08:39:01.495000+00:00</time>
      </trkpt>
      <trkpt lat="0" lon="0">
        <time>2021-02-28T08:39:01.502000+00:00</time>
      </trkpt>
      <trkpt lat="47.31787" lon="-1.40145">
        <ele>113</ele>
        <time>2021-02-28T08:39:02.514000+00:00</time>
      </trkpt>
      <trkpt lat="0" lon="0">
        <time>2021-02-28T08:39:02.522000+00:00</time>
      </trkpt>
      <trkpt lat="0" lon="0">
        <time>2021-02-28T08:39:02.527000+00:00</time>
      </trkpt>
      <trkpt lat="0" lon="0">
        <time>2021-02-28T08:39:02.530000+00:00</time>
      </trkpt>
      <trkpt lat="47.31789" lon="-1.40149">
        <ele>113</ele>
        <time>2021-02-28T08:39:03.464000+00:00</time>
      </trkpt>
      <trkpt lat="0" lon="0">
        <time>2021-02-28T08:39:03.475000+00:00</time>
      </trkpt>
      <trkpt lat="0" lon="0">
        <time>2021-02-28T08:39:03.482000+00:00</time>
      </trkpt>
      <trkpt lat="0" lon="0">
        <time>2021-02-28T08:39:03.485000+00:00</time>
      </trkpt>
      <trkpt lat="47.3179" lon="-1.40154">
        <ele>113</ele>
        <time>2021-02-28T08:39:04.503000+00:00</time>
      </trkpt>
      <trkpt lat="0" lon="0">
        <time>2021-02-28T08:39:04.510000+00:00</time>
      </trkpt>
      <trkpt lat="0" lon="0">
        <time>2021-02-28T08:39:04.515000+00:00</time>
      </trkpt>
      <trkpt lat="0" lon="0">
        <time>2021-02-28T08:39:04.518000+00:00</time>
      </trkpt>
      <trkpt lat="47.31792" lon="-1.40158">
        <ele>113</ele>
        <time>2021-02-28T08:39:05.469000+00:00</time>
      </trkpt>
      <trkpt lat="0" lon="0">
        <time>2021-02-28T08:39:05.474000+00:00</time>
      </trkpt>
      <trkpt lat="0" lon="0">
        <time>2021-02-28T08:39:05.479000+00:00</time>
      </trkpt>
      <trkpt lat="0" lon="0">
        <time>2021-02-28T08:39:05.480000+00:00</time>
      </trkpt>
      <trkpt lat="47.31794" lon="-1.40162">
        <ele>113</ele>
        <time>2021-02-28T08:39:06.543000+00:00</time>
      </trkpt>
      <trkpt lat="0" lon="0">
        <time>2021-02-28T08:39:06.550000+00:00</time>
      </trkpt>
      <trkpt lat="0" lon="0">
        <time>2021-02-28T08:39:06.555000+00:00</time>
      </trkpt>
      <trkpt lat="0" lon="0">
        <time>2021-02-28T08:39:06.559000+00:00</time>
      </trkpt>
      <trkpt lat="47.31796" lon="-1.40166">
        <ele>113</ele>
        <time>2021-02-28T08:39:07.520000+00:00</time>
      </trkpt>
      <trkpt lat="0" lon="0">
        <time>2021-02-28T08:39:07.537000+00:00</time>
      </trkpt>
      <trkpt lat="0" lon="0">
        <time>2021-02-28T08:39:07.545000+00:00</time>
      </trkpt>
      <trkpt lat="0" lon="0">
        <time>2021-02-28T08:39:07.548000+00:00</time>
      </trkpt>
      <trkpt lat="47.31798" lon="-1.40169">
        <ele>114</ele>
        <time>2021-02-28T08:39:08.534000+00:00</time>
      </trkpt>
      <trkpt lat="0" lon="0">
        <time>2021-02-28T08:39:08.545000+00:00</time>
      </trkpt>
      <trkpt lat="0" lon="0">
        <time>2021-02-28T08:39:08.549000+00:00</time>
      </trkpt>
      <trkpt lat="0" lon="0">
        <time>2021-02-28T08:39:08.552000+00:00</time>
      </trkpt>
      <trkpt lat="47.318" lon="-1.40173">
        <ele>115</ele>
        <time>2021-02-28T08:39:09.489000+00:00</time>
      </trkpt>
      <trkpt lat="0" lon="0">
        <time>2021-02-28T08:39:09.495000+00:00</time>
      </trkpt>
      <trkpt lat="0" lon="0">
        <time>2021-02-28T08:39:09.500000+00:00</time>
      </trkpt>
      <trkpt lat="0" lon="0">
        <time>2021-02-28T08:39:09.503000+00:00</time>
      </trkpt>
      <trkpt lat="47.31802" lon="-1.40175">
        <ele>115</ele>
        <time>2021-02-28T08:39:10.453000+00:00</time>
      </trkpt>
      <trkpt lat="0" lon="0">
        <time>2021-02-28T08:39:10.455000+00:00</time>
      </trkpt>
      <trkpt lat="0" lon="0">
        <time>2021-02-28T08:39:10.459000+00:00</time>
      </trkpt>
      <trkpt lat="0" lon="0">
        <time>2021-02-28T08:39:10.460000+00:00</time>
      </trkpt>
      <trkpt lat="47.31805" lon="-1.40177">
        <ele>114</ele>
        <time>2021-02-28T08:39:11.478000+00:00</time>
      </trkpt>
      <trkpt lat="0" lon="0">
        <time>2021-02-28T08:39:11.487000+00:00</time>
      </trkpt>
      <trkpt lat="0" lon="0">
        <time>2021-02-28T08:39:11.493000+00:00</time>
      </trkpt>
      <trkpt lat="0" lon="0">
        <time>2021-02-28T08:39:11.495000+00:00</time>
      </trkpt>
      <trkpt lat="47.31808" lon="-1.40178">
        <ele>115</ele>
        <time>2021-02-28T08:39:12.452000+00:00</time>
      </trkpt>
      <trkpt lat="0" lon="0">
        <time>2021-02-28T08:39:12.459000+00:00</time>
      </trkpt>
      <trkpt lat="0" lon="0">
        <time>2021-02-28T08:39:12.464000+00:00</time>
      </trkpt>
      <trkpt lat="0" lon="0">
        <time>2021-02-28T08:39:12.467000+00:00</time>
      </trkpt>
      <trkpt lat="47.31811" lon="-1.40179">
        <ele>115</ele>
        <time>2021-02-28T08:39:13.467000+00:00</time>
      </trkpt>
      <trkpt lat="0" lon="0">
        <time>2021-02-28T08:39:13.479000+00:00</time>
      </trkpt>
      <trkpt lat="0" lon="0">
        <time>2021-02-28T08:39:13.487000+00:00</time>
      </trkpt>
      <trkpt lat="0" lon="0">
        <time>2021-02-28T08:39:13.490000+00:00</time>
      </trkpt>
      <trkpt lat="47.31814" lon="-1.40178">
        <ele>115</ele>
        <time>2021-02-28T08:39:14.416000+00:00</time>
      </trkpt>
      <trkpt lat="0" lon="0">
        <time>2021-02-28T08:39:14.418000+00:00</time>
      </trkpt>
      <trkpt lat="0" lon="0">
        <time>2021-02-28T08:39:14.419000+00:00</time>
      </trkpt>
      <trkpt lat="0" lon="0">
        <time>2021-02-28T08:39:14.420000+00:00</time>
      </trkpt>
      <trkpt lat="47.31817" lon="-1.40177">
        <ele>114</ele>
        <time>2021-02-28T08:39:15.509000+00:00</time>
      </trkpt>
      <trkpt lat="0" lon="0">
        <time>2021-02-28T08:39:15.514000+00:00</time>
      </trkpt>
      <trkpt lat="0" lon="0">
        <time>2021-02-28T08:39:15.524000+00:00</time>
      </trkpt>
      <trkpt lat="0" lon="0">
        <time>2021-02-28T08:39:15.530000+00:00</time>
      </trkpt>
      <trkpt lat="47.3182" lon="-1.40176">
        <ele>114</ele>
        <time>2021-02-28T08:39:16.496000+00:00</time>
      </trkpt>
      <trkpt lat="0" lon="0">
        <time>2021-02-28T08:39:16.505000+00:00</time>
      </trkpt>
      <trkpt lat="0" lon="0">
        <time>2021-02-28T08:39:16.512000+00:00</time>
      </trkpt>
      <trkpt lat="0" lon="0">
        <time>2021-02-28T08:39:16.515000+00:00</time>
      </trkpt>
      <trkpt lat="47.31824" lon="-1.40174">
        <ele>114</ele>
        <time>2021-02-28T08:39:17.509000+00:00</time>
      </trkpt>
      <trkpt lat="0" lon="0">
        <time>2021-02-28T08:39:17.518000+00:00</time>
      </trkpt>
      <trkpt lat="0" lon="0">
        <time>2021-02-28T08:39:17.524000+00:00</time>
      </trkpt>
      <trkpt lat="0" lon="0">
        <time>2021-02-28T08:39:17.526000+00:00</time>
      </trkpt>
      <trkpt lat="47.31827" lon="-1.40172">
        <ele>114</ele>
        <time>2021-02-28T08:39:18.541000+00:00</time>
      </trkpt>
      <trkpt lat="0" lon="0">
        <time>2021-02-28T08:39:18.549000+00:00</time>
      </trkpt>
      <trkpt lat="0" lon="0">
        <time>2021-02-28T08:39:18.555000+00:00</time>
      </trkpt>
      <trkpt lat="0" lon="0">
        <time>2021-02-28T08:39:18.558000+00:00</time>
      </trkpt>
      <trkpt lat="47.31831" lon="-1.40171">
        <ele>114</ele>
        <time>2021-02-28T08:39:19.498000+00:00</time>
      </trkpt>
      <trkpt lat="0" lon="0">
        <time>2021-02-28T08:39:19.505000+00:00</time>
      </trkpt>
      <trkpt lat="0" lon="0">
        <time>2021-02-28T08:39:19.515000+00:00</time>
      </trkpt>
      <trkpt lat="0" lon="0">
        <time>2021-02-28T08:39:19.518000+00:00</time>
      </trkpt>
      <trkpt lat="47.31834" lon="-1.40169">
        <ele>113</ele>
        <time>2021-02-28T08:39:20.527000+00:00</time>
      </trkpt>
      <trkpt lat="0" lon="0">
        <time>2021-02-28T08:39:20.534000+00:00</time>
      </trkpt>
      <trkpt lat="0" lon="0">
        <time>2021-02-28T08:39:20.538000+00:00</time>
      </trkpt>
      <trkpt lat="0" lon="0">
        <time>2021-02-28T08:39:20.544000+00:00</time>
      </trkpt>
      <trkpt lat="47.31838" lon="-1.40167">
        <ele>113</ele>
        <time>2021-02-28T08:39:21.466000+00:00</time>
      </trkpt>
      <trkpt lat="0" lon="0">
        <time>2021-02-28T08:39:21.473000+00:00</time>
      </trkpt>
      <trkpt lat="0" lon="0">
        <time>2021-02-28T08:39:21.477000+00:00</time>
      </trkpt>
      <trkpt lat="0" lon="0">
        <time>2021-02-28T08:39:21.479000+00:00</time>
      </trkpt>
      <trkpt lat="47.31842" lon="-1.40166">
        <ele>114</ele>
        <time>2021-02-28T08:39:22.522000+00:00</time>
      </trkpt>
      <trkpt lat="0" lon="0">
        <time>2021-02-28T08:39:22.529000+00:00</time>
      </trkpt>
      <trkpt lat="0" lon="0">
        <time>2021-02-28T08:39:22.534000+00:00</time>
      </trkpt>
      <trkpt lat="0" lon="0">
        <time>2021-02-28T08:39:22.543000+00:00</time>
      </trkpt>
      <trkpt lat="47.31846" lon="-1.40165">
        <ele>114</ele>
        <time>2021-02-28T08:39:23.480000+00:00</time>
      </trkpt>
      <trkpt lat="0" lon="0">
        <time>2021-02-28T08:39:23.487000+00:00</time>
      </trkpt>
      <trkpt lat="0" lon="0">
        <time>2021-02-28T08:39:23.494000+00:00</time>
      </trkpt>
      <trkpt lat="0" lon="0">
        <time>2021-02-28T08:39:23.497000+00:00</time>
      </trkpt>
      <trkpt lat="47.3185" lon="-1.40164">
        <ele>114</ele>
        <time>2021-02-28T08:39:24.506000+00:00</time>
      </trkpt>
      <trkpt lat="0" lon="0">
        <time>2021-02-28T08:39:24.511000+00:00</time>
      </trkpt>
      <trkpt lat="0" lon="0">
        <time>2021-02-28T08:39:24.520000+00:00</time>
      </trkpt>
      <trkpt lat="0" lon="0">
        <time>2021-02-28T08:39:24.522000+00:00</time>
      </trkpt>
      <trkpt lat="47.31853" lon="-1.40163">
        <ele>114</ele>
        <time>2021-02-28T08:39:25.498000+00:00</time>
      </trkpt>
      <trkpt lat="0" lon="0">
        <time>2021-02-28T08:39:25.508000+00:00</time>
      </trkpt>
      <trkpt lat="0" lon="0">
        <time>2021-02-28T08:39:25.517000+00:00</time>
      </trkpt>
      <trkpt lat="0" lon="0">
        <time>2021-02-28T08:39:25.520000+00:00</time>
      </trkpt>
      <trkpt lat="47.31858" lon="-1.40162">
        <ele>114</ele>
        <time>2021-02-28T08:39:26.492000+00:00</time>
      </trkpt>
      <trkpt lat="0" lon="0">
        <time>2021-02-28T08:39:26.498000+00:00</time>
      </trkpt>
      <trkpt lat="0" lon="0">
        <time>2021-02-28T08:39:26.502000+00:00</time>
      </trkpt>
      <trkpt lat="0" lon="0">
        <time>2021-02-28T08:39:26.505000+00:00</time>
      </trkpt>
      <trkpt lat="47.31862" lon="-1.40162">
        <ele>115</ele>
        <time>2021-02-28T08:39:27.468000+00:00</time>
      </trkpt>
      <trkpt lat="0" lon="0">
        <time>2021-02-28T08:39:27.482000+00:00</time>
      </trkpt>
      <trkpt lat="0" lon="0">
        <time>2021-02-28T08:39:27.486000+00:00</time>
      </trkpt>
      <trkpt lat="0" lon="0">
        <time>2021-02-28T08:39:27.488000+00:00</time>
      </trkpt>
      <trkpt lat="47.31866" lon="-1.40161">
        <ele>115</ele>
        <time>2021-02-28T08:39:28.526000+00:00</time>
      </trkpt>
      <trkpt lat="0" lon="0">
        <time>2021-02-28T08:39:28.539000+00:00</time>
      </trkpt>
      <trkpt lat="0" lon="0">
        <time>2021-02-28T08:39:28.544000+00:00</time>
      </trkpt>
      <trkpt lat="0" lon="0">
        <time>2021-02-28T08:39:28.547000+00:00</time>
      </trkpt>
      <trkpt lat="47.3187" lon="-1.4016">
        <ele>115</ele>
        <time>2021-02-28T08:39:29.520000+00:00</time>
      </trkpt>
      <trkpt lat="0" lon="0">
        <time>2021-02-28T08:39:29.533000+00:00</time>
      </trkpt>
      <trkpt lat="0" lon="0">
        <time>2021-02-28T08:39:29.539000+00:00</time>
      </trkpt>
      <trkpt lat="0" lon="0">
        <time>2021-02-28T08:39:29.542000+00:00</time>
      </trkpt>
      <trkpt lat="47.31874" lon="-1.4016">
        <ele>115</ele>
        <time>2021-02-28T08:39:30.523000+00:00</time>
      </trkpt>
      <trkpt lat="0" lon="0">
        <time>2021-02-28T08:39:30.531000+00:00</time>
      </trkpt>
      <trkpt lat="0" lon="0">
        <time>2021-02-28T08:39:30.535000+00:00</time>
      </trkpt>
      <trkpt lat="0" lon="0">
        <time>2021-02-28T08:39:30.538000+00:00</time>
      </trkpt>
      <trkpt lat="47.31877" lon="-1.40159">
        <ele>115</ele>
        <time>2021-02-28T08:39:31.501000+00:00</time>
      </trkpt>
      <trkpt lat="0" lon="0">
        <time>2021-02-28T08:39:31.509000+00:00</time>
      </trkpt>
      <trkpt lat="0" lon="0">
        <time>2021-02-28T08:39:31.516000+00:00</time>
      </trkpt>
      <trkpt lat="0" lon="0">
        <time>2021-02-28T08:39:31.518000+00:00</time>
      </trkpt>
      <trkpt lat="47.31881" lon="-1.40159">
        <ele>115</ele>
        <time>2021-02-28T08:39:32.512000+00:00</time>
      </trkpt>
      <trkpt lat="0" lon="0">
        <time>2021-02-28T08:39:32.521000+00:00</time>
      </trkpt>
      <trkpt lat="0" lon="0">
        <time>2021-02-28T08:39:32.527000+00:00</time>
      </trkpt>
      <trkpt lat="0" lon="0">
        <time>2021-02-28T08:39:32.530000+00:00</time>
      </trkpt>
      <trkpt lat="47.31885" lon="-1.40158">
        <ele>115</ele>
        <time>2021-02-28T08:39:33.468000+00:00</time>
      </trkpt>
      <trkpt lat="0" lon="0">
        <time>2021-02-28T08:39:33.474000+00:00</time>
      </trkpt>
      <trkpt lat="0" lon="0">
        <time>2021-02-28T08:39:33.479000+00:00</time>
      </trkpt>
      <trkpt lat="0" lon="0">
        <time>2021-02-28T08:39:33.482000+00:00</time>
      </trkpt>
      <trkpt lat="47.31889" lon="-1.40158">
        <ele>115</ele>
        <time>2021-02-28T08:39:34.411000+00:00</time>
      </trkpt>
      <trkpt lat="0" lon="0">
        <time>2021-02-28T08:39:34.418000+00:00</time>
      </trkpt>
      <trkpt lat="0" lon="0">
        <time>2021-02-28T08:39:34.427000+00:00</time>
      </trkpt>
      <trkpt lat="0" lon="0">
        <time>2021-02-28T08:39:34.430000+00:00</time>
      </trkpt>
      <trkpt lat="47.31893" lon="-1.40157">
        <ele>115</ele>
        <time>2021-02-28T08:39:35.479000+00:00</time>
      </trkpt>
      <trkpt lat="0" lon="0">
        <time>2021-02-28T08:39:35.486000+00:00</time>
      </trkpt>
      <trkpt lat="0" lon="0">
        <time>2021-02-28T08:39:35.492000+00:00</time>
      </trkpt>
      <trkpt lat="0" lon="0">
        <time>2021-02-28T08:39:35.495000+00:00</time>
      </trkpt>
      <trkpt lat="47.31897" lon="-1.40156">
        <ele>116</ele>
        <time>2021-02-28T08:39:36.487000+00:00</time>
      </trkpt>
      <trkpt lat="0" lon="0">
        <time>2021-02-28T08:39:36.496000+00:00</time>
      </trkpt>
      <trkpt lat="0" lon="0">
        <time>2021-02-28T08:39:36.505000+00:00</time>
      </trkpt>
      <trkpt lat="0" lon="0">
        <time>2021-02-28T08:39:36.508000+00:00</time>
      </trkpt>
      <trkpt lat="47.31901" lon="-1.40156">
        <ele>116</ele>
        <time>2021-02-28T08:39:37.493000+00:00</time>
      </trkpt>
      <trkpt lat="0" lon="0">
        <time>2021-02-28T08:39:37.500000+00:00</time>
      </trkpt>
      <trkpt lat="0" lon="0">
        <time>2021-02-28T08:39:37.506000+00:00</time>
      </trkpt>
      <trkpt lat="0" lon="0">
        <time>2021-02-28T08:39:37.509000+00:00</time>
      </trkpt>
      <trkpt lat="47.31905" lon="-1.40155">
        <ele>116</ele>
        <time>2021-02-28T08:39:38.509000+00:00</time>
      </trkpt>
      <trkpt lat="0" lon="0">
        <time>2021-02-28T08:39:38.520000+00:00</time>
      </trkpt>
      <trkpt lat="0" lon="0">
        <time>2021-02-28T08:39:38.523000+00:00</time>
      </trkpt>
      <trkpt lat="0" lon="0">
        <time>2021-02-28T08:39:38.524000+00:00</time>
      </trkpt>
      <trkpt lat="47.31908" lon="-1.40154">
        <ele>116</ele>
        <time>2021-02-28T08:39:39.508000+00:00</time>
      </trkpt>
      <trkpt lat="0" lon="0">
        <time>2021-02-28T08:39:39.518000+00:00</time>
      </trkpt>
      <trkpt lat="0" lon="0">
        <time>2021-02-28T08:39:39.530000+00:00</time>
      </trkpt>
      <trkpt lat="0" lon="0">
        <time>2021-02-28T08:39:39.532000+00:00</time>
      </trkpt>
      <trkpt lat="47.31912" lon="-1.40153">
        <ele>116</ele>
        <time>2021-02-28T08:39:40.458000+00:00</time>
      </trkpt>
      <trkpt lat="0" lon="0">
        <time>2021-02-28T08:39:40.474000+00:00</time>
      </trkpt>
      <trkpt lat="0" lon="0">
        <time>2021-02-28T08:39:40.483000+00:00</time>
      </trkpt>
      <trkpt lat="0" lon="0">
        <time>2021-02-28T08:39:40.485000+00:00</time>
      </trkpt>
      <trkpt lat="47.31916" lon="-1.40152">
        <ele>116</ele>
        <time>2021-02-28T08:39:41.522000+00:00</time>
      </trkpt>
      <trkpt lat="0" lon="0">
        <time>2021-02-28T08:39:41.531000+00:00</time>
      </trkpt>
      <trkpt lat="0" lon="0">
        <time>2021-02-28T08:39:41.535000+00:00</time>
      </trkpt>
      <trkpt lat="0" lon="0">
        <time>2021-02-28T08:39:41.538000+00:00</time>
      </trkpt>
      <trkpt lat="47.3192" lon="-1.40151">
        <ele>116</ele>
        <time>2021-02-28T08:39:42.468000+00:00</time>
      </trkpt>
      <trkpt lat="0" lon="0">
        <time>2021-02-28T08:39:42.475000+00:00</time>
      </trkpt>
      <trkpt lat="0" lon="0">
        <time>2021-02-28T08:39:42.479000+00:00</time>
      </trkpt>
      <trkpt lat="0" lon="0">
        <time>2021-02-28T08:39:42.482000+00:00</time>
      </trkpt>
      <trkpt lat="47.31924" lon="-1.40149">
        <ele>116</ele>
        <time>2021-02-28T08:39:43.502000+00:00</time>
      </trkpt>
      <trkpt lat="0" lon="0">
        <time>2021-02-28T08:39:43.513000+00:00</time>
      </trkpt>
      <trkpt lat="0" lon="0">
        <time>2021-02-28T08:39:43.519000+00:00</time>
      </trkpt>
      <trkpt lat="0" lon="0">
        <time>2021-02-28T08:39:43.522000+00:00</time>
      </trkpt>
      <trkpt lat="47.31929" lon="-1.40148">
        <ele>116</ele>
        <time>2021-02-28T08:39:44.495000+00:00</time>
      </trkpt>
      <trkpt lat="0" lon="0">
        <time>2021-02-28T08:39:44.497000+00:00</time>
      </trkpt>
      <trkpt lat="0" lon="0">
        <time>2021-02-28T08:39:44.499000+00:00</time>
      </trkpt>
      <trkpt lat="0" lon="0">
        <time>2021-02-28T08:39:44.501000+00:00</time>
      </trkpt>
      <trkpt lat="47.31933" lon="-1.40147">
        <ele>116</ele>
        <time>2021-02-28T08:39:45.542000+00:00</time>
      </trkpt>
      <trkpt lat="0" lon="0">
        <time>2021-02-28T08:39:45.558000+00:00</time>
      </trkpt>
      <trkpt lat="0" lon="0">
        <time>2021-02-28T08:39:45.567000+00:00</time>
      </trkpt>
      <trkpt lat="0" lon="0">
        <time>2021-02-28T08:39:45.570000+00:00</time>
      </trkpt>
      <trkpt lat="47.31937" lon="-1.40146">
        <ele>116</ele>
        <time>2021-02-28T08:39:46.477000+00:00</time>
      </trkpt>
      <trkpt lat="0" lon="0">
        <time>2021-02-28T08:39:46.483000+00:00</time>
      </trkpt>
      <trkpt lat="0" lon="0">
        <time>2021-02-28T08:39:46.489000+00:00</time>
      </trkpt>
      <trkpt lat="0" lon="0">
        <time>2021-02-28T08:39:46.492000+00:00</time>
      </trkpt>
      <trkpt lat="47.31941" lon="-1.40144">
        <ele>116</ele>
        <time>2021-02-28T08:39:47.532000+00:00</time>
      </trkpt>
      <trkpt lat="0" lon="0">
        <time>2021-02-28T08:39:47.539000+00:00</time>
      </trkpt>
      <trkpt lat="0" lon="0">
        <time>2021-02-28T08:39:47.545000+00:00</time>
      </trkpt>
      <trkpt lat="0" lon="0">
        <time>2021-02-28T08:39:47.547000+00:00</time>
      </trkpt>
      <trkpt lat="47.31945" lon="-1.40143">
        <ele>116</ele>
        <time>2021-02-28T08:39:48.502000+00:00</time>
      </trkpt>
      <trkpt lat="0" lon="0">
        <time>2021-02-28T08:39:48.509000+00:00</time>
      </trkpt>
      <trkpt lat="0" lon="0">
        <time>2021-02-28T08:39:48.513000+00:00</time>
      </trkpt>
      <trkpt lat="0" lon="0">
        <time>2021-02-28T08:39:48.516000+00:00</time>
      </trkpt>
      <trkpt lat="47.3195" lon="-1.40141">
        <ele>116</ele>
        <time>2021-02-28T08:39:49.486000+00:00</time>
      </trkpt>
      <trkpt lat="0" lon="0">
        <time>2021-02-28T08:39:49.492000+00:00</time>
      </trkpt>
      <trkpt lat="0" lon="0">
        <time>2021-02-28T08:39:49.498000+00:00</time>
      </trkpt>
      <trkpt lat="0" lon="0">
        <time>2021-02-28T08:39:49.500000+00:00</time>
      </trkpt>
      <trkpt lat="47.31954" lon="-1.4014">
        <ele>116</ele>
        <time>2021-02-28T08:39:50.481000+00:00</time>
      </trkpt>
      <trkpt lat="0" lon="0">
        <time>2021-02-28T08:39:50.483000+00:00</time>
      </trkpt>
      <trkpt lat="0" lon="0">
        <time>2021-02-28T08:39:50.485000+00:00</time>
      </trkpt>
      <trkpt lat="0" lon="0">
        <time>2021-02-28T08:39:50.487000+00:00</time>
      </trkpt>
      <trkpt lat="47.31959" lon="-1.40138">
        <ele>115</ele>
        <time>2021-02-28T08:39:51.510000+00:00</time>
      </trkpt>
      <trkpt lat="0" lon="0">
        <time>2021-02-28T08:39:51.516000+00:00</time>
      </trkpt>
      <trkpt lat="0" lon="0">
        <time>2021-02-28T08:39:51.521000+00:00</time>
      </trkpt>
      <trkpt lat="0" lon="0">
        <time>2021-02-28T08:39:51.523000+00:00</time>
      </trkpt>
      <trkpt lat="47.31963" lon="-1.40137">
        <ele>115</ele>
        <time>2021-02-28T08:39:52.563000+00:00</time>
      </trkpt>
      <trkpt lat="0" lon="0">
        <time>2021-02-28T08:39:52.571000+00:00</time>
      </trkpt>
      <trkpt lat="0" lon="0">
        <time>2021-02-28T08:39:52.576000+00:00</time>
      </trkpt>
      <trkpt lat="0" lon="0">
        <time>2021-02-28T08:39:52.579000+00:00</time>
      </trkpt>
      <trkpt lat="47.31968" lon="-1.40136">
        <ele>115</ele>
        <time>2021-02-28T08:39:53.501000+00:00</time>
      </trkpt>
      <trkpt lat="0" lon="0">
        <time>2021-02-28T08:39:53.512000+00:00</time>
      </trkpt>
      <trkpt lat="0" lon="0">
        <time>2021-02-28T08:39:53.518000+00:00</time>
      </trkpt>
      <trkpt lat="0" lon="0">
        <time>2021-02-28T08:39:53.523000+00:00</time>
      </trkpt>
      <trkpt lat="47.31973" lon="-1.40135">
        <ele>115</ele>
        <time>2021-02-28T08:39:54.504000+00:00</time>
      </trkpt>
      <trkpt lat="0" lon="0">
        <time>2021-02-28T08:39:54.509000+00:00</time>
      </trkpt>
      <trkpt lat="0" lon="0">
        <time>2021-02-28T08:39:54.513000+00:00</time>
      </trkpt>
      <trkpt lat="0" lon="0">
        <time>2021-02-28T08:39:54.515000+00:00</time>
      </trkpt>
      <trkpt lat="47.31978" lon="-1.40134">
        <ele>115</ele>
        <time>2021-02-28T08:39:55.539000+00:00</time>
      </trkpt>
      <trkpt lat="0" lon="0">
        <time>2021-02-28T08:39:55.546000+00:00</time>
      </trkpt>
      <trkpt lat="0" lon="0">
        <time>2021-02-28T08:39:55.550000+00:00</time>
      </trkpt>
      <trkpt lat="0" lon="0">
        <time>2021-02-28T08:39:55.553000+00:00</time>
      </trkpt>
      <trkpt lat="47.31983" lon="-1.40134">
        <ele>114</ele>
        <time>2021-02-28T08:39:56.511000+00:00</time>
      </trkpt>
      <trkpt lat="0" lon="0">
        <time>2021-02-28T08:39:56.519000+00:00</time>
      </trkpt>
      <trkpt lat="0" lon="0">
        <time>2021-02-28T08:39:56.523000+00:00</time>
      </trkpt>
      <trkpt lat="0" lon="0">
        <time>2021-02-28T08:39:56.527000+00:00</time>
      </trkpt>
      <trkpt lat="47.31987" lon="-1.40134">
        <ele>115</ele>
        <time>2021-02-28T08:39:57.527000+00:00</time>
      </trkpt>
      <trkpt lat="0" lon="0">
        <time>2021-02-28T08:39:57.533000+00:00</time>
      </trkpt>
      <trkpt lat="0" lon="0">
        <time>2021-02-28T08:39:57.539000+00:00</time>
      </trkpt>
      <trkpt lat="0" lon="0">
        <time>2021-02-28T08:39:57.542000+00:00</time>
      </trkpt>
      <trkpt lat="47.31992" lon="-1.40135">
        <ele>115</ele>
        <time>2021-02-28T08:39:58.508000+00:00</time>
      </trkpt>
      <trkpt lat="0" lon="0">
        <time>2021-02-28T08:39:58.518000+00:00</time>
      </trkpt>
      <trkpt lat="0" lon="0">
        <time>2021-02-28T08:39:58.524000+00:00</time>
      </trkpt>
      <trkpt lat="0" lon="0">
        <time>2021-02-28T08:39:58.527000+00:00</time>
      </trkpt>
      <trkpt lat="47.31997" lon="-1.40136">
        <ele>114</ele>
        <time>2021-02-28T08:39:59.535000+00:00</time>
      </trkpt>
      <trkpt lat="0" lon="0">
        <time>2021-02-28T08:39:59.542000+00:00</time>
      </trkpt>
      <trkpt lat="0" lon="0">
        <time>2021-02-28T08:39:59.548000+00:00</time>
      </trkpt>
      <trkpt lat="0" lon="0">
        <time>2021-02-28T08:39:59.550000+00:00</time>
      </trkpt>
      <trkpt lat="47.32001" lon="-1.40138">
        <ele>114</ele>
        <time>2021-02-28T08:40:00.514000+00:00</time>
      </trkpt>
      <trkpt lat="0" lon="0">
        <time>2021-02-28T08:40:00.520000+00:00</time>
      </trkpt>
      <trkpt lat="0" lon="0">
        <time>2021-02-28T08:40:00.526000+00:00</time>
      </trkpt>
      <trkpt lat="0" lon="0">
        <time>2021-02-28T08:40:00.529000+00:00</time>
      </trkpt>
      <trkpt lat="47.32006" lon="-1.4014">
        <ele>115</ele>
        <time>2021-02-28T08:40:01.519000+00:00</time>
      </trkpt>
      <trkpt lat="0" lon="0">
        <time>2021-02-28T08:40:01.527000+00:00</time>
      </trkpt>
      <trkpt lat="0" lon="0">
        <time>2021-02-28T08:40:01.532000+00:00</time>
      </trkpt>
      <trkpt lat="0" lon="0">
        <time>2021-02-28T08:40:01.535000+00:00</time>
      </trkpt>
      <trkpt lat="47.3201" lon="-1.40142">
        <ele>115</ele>
        <time>2021-02-28T08:40:02.549000+00:00</time>
      </trkpt>
      <trkpt lat="0" lon="0">
        <time>2021-02-28T08:40:02.561000+00:00</time>
      </trkpt>
      <trkpt lat="0" lon="0">
        <time>2021-02-28T08:40:02.565000+00:00</time>
      </trkpt>
      <trkpt lat="0" lon="0">
        <time>2021-02-28T08:40:02.568000+00:00</time>
      </trkpt>
      <trkpt lat="47.32015" lon="-1.40145">
        <ele>115</ele>
        <time>2021-02-28T08:40:03.531000+00:00</time>
      </trkpt>
      <trkpt lat="0" lon="0">
        <time>2021-02-28T08:40:03.545000+00:00</time>
      </trkpt>
      <trkpt lat="0" lon="0">
        <time>2021-02-28T08:40:03.552000+00:00</time>
      </trkpt>
      <trkpt lat="0" lon="0">
        <time>2021-02-28T08:40:03.555000+00:00</time>
      </trkpt>
      <trkpt lat="47.32019" lon="-1.40147">
        <ele>115</ele>
        <time>2021-02-28T08:40:04.467000+00:00</time>
      </trkpt>
      <trkpt lat="0" lon="0">
        <time>2021-02-28T08:40:04.478000+00:00</time>
      </trkpt>
      <trkpt lat="0" lon="0">
        <time>2021-02-28T08:40:04.483000+00:00</time>
      </trkpt>
      <trkpt lat="0" lon="0">
        <time>2021-02-28T08:40:04.485000+00:00</time>
      </trkpt>
      <trkpt lat="47.32023" lon="-1.4015">
        <ele>115</ele>
        <time>2021-02-28T08:40:05.409000+00:00</time>
      </trkpt>
      <trkpt lat="0" lon="0">
        <time>2021-02-28T08:40:05.414000+00:00</time>
      </trkpt>
      <trkpt lat="0" lon="0">
        <time>2021-02-28T08:40:05.420000+00:00</time>
      </trkpt>
      <trkpt lat="0" lon="0">
        <time>2021-02-28T08:40:05.422000+00:00</time>
      </trkpt>
      <trkpt lat="47.32027" lon="-1.40152">
        <ele>115</ele>
        <time>2021-02-28T08:40:06.512000+00:00</time>
      </trkpt>
      <trkpt lat="0" lon="0">
        <time>2021-02-28T08:40:06.519000+00:00</time>
      </trkpt>
      <trkpt lat="0" lon="0">
        <time>2021-02-28T08:40:06.521000+00:00</time>
      </trkpt>
      <trkpt lat="0" lon="0">
        <time>2021-02-28T08:40:06.522000+00:00</time>
      </trkpt>
      <trkpt lat="47.32035" lon="-1.40155">
        <ele>116</ele>
        <time>2021-02-28T08:40:08.372000+00:00</time>
      </trkpt>
      <trkpt lat="0" lon="0">
        <time>2021-02-28T08:40:08.378000+00:00</time>
      </trkpt>
      <trkpt lat="0" lon="0">
        <time>2021-02-28T08:40:08.379000+00:00</time>
      </trkpt>
      <trkpt lat="47.32038" lon="-1.40157">
        <ele>117</ele>
        <time>2021-02-28T08:40:09.376000+00:00</time>
      </trkpt>
      <trkpt lat="0" lon="0">
        <time>2021-02-28T08:40:09.384000+00:00</time>
      </trkpt>
      <trkpt lat="0" lon="0">
        <time>2021-02-28T08:40:09.398000+00:00</time>
      </trkpt>
      <trkpt lat="0" lon="0">
        <time>2021-02-28T08:40:09.401000+00:00</time>
      </trkpt>
      <trkpt lat="47.32042" lon="-1.40158">
        <ele>117</ele>
        <time>2021-02-28T08:40:10.426000+00:00</time>
      </trkpt>
      <trkpt lat="0" lon="0">
        <time>2021-02-28T08:40:10.427000+00:00</time>
      </trkpt>
      <trkpt lat="0" lon="0">
        <time>2021-02-28T08:40:10.428000+00:00</time>
      </trkpt>
      <trkpt lat="0" lon="0">
        <time>2021-02-28T08:40:10.429000+00:00</time>
      </trkpt>
      <trkpt lat="47.32046" lon="-1.40159">
        <ele>117</ele>
        <time>2021-02-28T08:40:11.368000+00:00</time>
      </trkpt>
      <trkpt lat="0" lon="0">
        <time>2021-02-28T08:40:11.369000+00:00</time>
      </trkpt>
      <trkpt lat="0" lon="0">
        <time>2021-02-28T08:40:11.370000+00:00</time>
      </trkpt>
      <trkpt lat="47.3205" lon="-1.40159">
        <ele>117</ele>
        <time>2021-02-28T08:40:12.442000+00:00</time>
      </trkpt>
      <trkpt lat="0" lon="0">
        <time>2021-02-28T08:40:12.445000+00:00</time>
      </trkpt>
      <trkpt lat="0" lon="0">
        <time>2021-02-28T08:40:12.447000+00:00</time>
      </trkpt>
      <trkpt lat="0" lon="0">
        <time>2021-02-28T08:40:12.448000+00:00</time>
      </trkpt>
      <trkpt lat="47.32055" lon="-1.4016">
        <ele>117</ele>
        <time>2021-02-28T08:40:13.419000+00:00</time>
      </trkpt>
      <trkpt lat="0" lon="0">
        <time>2021-02-28T08:40:13.431000+00:00</time>
      </trkpt>
      <trkpt lat="0" lon="0">
        <time>2021-02-28T08:40:13.435000+00:00</time>
      </trkpt>
      <trkpt lat="0" lon="0">
        <time>2021-02-28T08:40:13.439000+00:00</time>
      </trkpt>
      <trkpt lat="47.32059" lon="-1.4016">
        <ele>117</ele>
        <time>2021-02-28T08:40:14.403000+00:00</time>
      </trkpt>
      <trkpt lat="0" lon="0">
        <time>2021-02-28T08:40:14.406000+00:00</time>
      </trkpt>
      <trkpt lat="0" lon="0">
        <time>2021-02-28T08:40:14.415000+00:00</time>
      </trkpt>
      <trkpt lat="0" lon="0">
        <time>2021-02-28T08:40:14.416000+00:00</time>
      </trkpt>
      <trkpt lat="47.32064" lon="-1.4016">
        <ele>117</ele>
        <time>2021-02-28T08:40:15.506000+00:00</time>
      </trkpt>
      <trkpt lat="0" lon="0">
        <time>2021-02-28T08:40:15.515000+00:00</time>
      </trkpt>
      <trkpt lat="0" lon="0">
        <time>2021-02-28T08:40:15.520000+00:00</time>
      </trkpt>
      <trkpt lat="0" lon="0">
        <time>2021-02-28T08:40:15.522000+00:00</time>
      </trkpt>
      <trkpt lat="47.32069" lon="-1.40161">
        <ele>117</ele>
        <time>2021-02-28T08:40:16.473000+00:00</time>
      </trkpt>
      <trkpt lat="0" lon="0">
        <time>2021-02-28T08:40:16.480000+00:00</time>
      </trkpt>
      <trkpt lat="0" lon="0">
        <time>2021-02-28T08:40:16.485000+00:00</time>
      </trkpt>
      <trkpt lat="0" lon="0">
        <time>2021-02-28T08:40:16.489000+00:00</time>
      </trkpt>
      <trkpt lat="47.32074" lon="-1.40161">
        <ele>117</ele>
        <time>2021-02-28T08:40:17.472000+00:00</time>
      </trkpt>
      <trkpt lat="0" lon="0">
        <time>2021-02-28T08:40:17.487000+00:00</time>
      </trkpt>
      <trkpt lat="0" lon="0">
        <time>2021-02-28T08:40:17.493000+00:00</time>
      </trkpt>
      <trkpt lat="0" lon="0">
        <time>2021-02-28T08:40:17.495000+00:00</time>
      </trkpt>
      <trkpt lat="47.3208" lon="-1.40161">
        <ele>117</ele>
        <time>2021-02-28T08:40:18.484000+00:00</time>
      </trkpt>
      <trkpt lat="0" lon="0">
        <time>2021-02-28T08:40:18.491000+00:00</time>
      </trkpt>
      <trkpt lat="0" lon="0">
        <time>2021-02-28T08:40:18.499000+00:00</time>
      </trkpt>
      <trkpt lat="0" lon="0">
        <time>2021-02-28T08:40:18.503000+00:00</time>
      </trkpt>
      <trkpt lat="47.32086" lon="-1.40162">
        <ele>117</ele>
        <time>2021-02-28T08:40:19.537000+00:00</time>
      </trkpt>
      <trkpt lat="0" lon="0">
        <time>2021-02-28T08:40:19.542000+00:00</time>
      </trkpt>
      <trkpt lat="0" lon="0">
        <time>2021-02-28T08:40:19.552000+00:00</time>
      </trkpt>
      <trkpt lat="0" lon="0">
        <time>2021-02-28T08:40:19.555000+00:00</time>
      </trkpt>
      <trkpt lat="47.32092" lon="-1.40163">
        <ele>117</ele>
        <time>2021-02-28T08:40:20.517000+00:00</time>
      </trkpt>
      <trkpt lat="0" lon="0">
        <time>2021-02-28T08:40:20.530000+00:00</time>
      </trkpt>
      <trkpt lat="0" lon="0">
        <time>2021-02-28T08:40:20.535000+00:00</time>
      </trkpt>
      <trkpt lat="0" lon="0">
        <time>2021-02-28T08:40:20.537000+00:00</time>
      </trkpt>
      <trkpt lat="47.32098" lon="-1.40164">
        <ele>117</ele>
        <time>2021-02-28T08:40:21.509000+00:00</time>
      </trkpt>
      <trkpt lat="0" lon="0">
        <time>2021-02-28T08:40:21.516000+00:00</time>
      </trkpt>
      <trkpt lat="0" lon="0">
        <time>2021-02-28T08:40:21.521000+00:00</time>
      </trkpt>
      <trkpt lat="0" lon="0">
        <time>2021-02-28T08:40:21.525000+00:00</time>
      </trkpt>
      <trkpt lat="47.32104" lon="-1.40164">
        <ele>117</ele>
        <time>2021-02-28T08:40:22.518000+00:00</time>
      </trkpt>
      <trkpt lat="0" lon="0">
        <time>2021-02-28T08:40:22.525000+00:00</time>
      </trkpt>
      <trkpt lat="0" lon="0">
        <time>2021-02-28T08:40:22.530000+00:00</time>
      </trkpt>
      <trkpt lat="0" lon="0">
        <time>2021-02-28T08:40:22.533000+00:00</time>
      </trkpt>
      <trkpt lat="47.3211" lon="-1.40165">
        <ele>117</ele>
        <time>2021-02-28T08:40:23.508000+00:00</time>
      </trkpt>
      <trkpt lat="0" lon="0">
        <time>2021-02-28T08:40:23.510000+00:00</time>
      </trkpt>
      <trkpt lat="0" lon="0">
        <time>2021-02-28T08:40:23.513000+00:00</time>
      </trkpt>
      <trkpt lat="0" lon="0">
        <time>2021-02-28T08:40:23.514000+00:00</time>
      </trkpt>
      <trkpt lat="47.32116" lon="-1.40166">
        <ele>118</ele>
        <time>2021-02-28T08:40:24.489000+00:00</time>
      </trkpt>
      <trkpt lat="0" lon="0">
        <time>2021-02-28T08:40:24.503000+00:00</time>
      </trkpt>
      <trkpt lat="0" lon="0">
        <time>2021-02-28T08:40:24.507000+00:00</time>
      </trkpt>
      <trkpt lat="0" lon="0">
        <time>2021-02-28T08:40:24.509000+00:00</time>
      </trkpt>
      <trkpt lat="47.32122" lon="-1.40167">
        <ele>118</ele>
        <time>2021-02-28T08:40:25.531000+00:00</time>
      </trkpt>
      <trkpt lat="0" lon="0">
        <time>2021-02-28T08:40:25.537000+00:00</time>
      </trkpt>
      <trkpt lat="0" lon="0">
        <time>2021-02-28T08:40:25.542000+00:00</time>
      </trkpt>
      <trkpt lat="0" lon="0">
        <time>2021-02-28T08:40:25.546000+00:00</time>
      </trkpt>
      <trkpt lat="47.32128" lon="-1.40168">
        <ele>118</ele>
        <time>2021-02-28T08:40:26.522000+00:00</time>
      </trkpt>
      <trkpt lat="0" lon="0">
        <time>2021-02-28T08:40:26.532000+00:00</time>
      </trkpt>
      <trkpt lat="0" lon="0">
        <time>2021-02-28T08:40:26.536000+00:00</time>
      </trkpt>
      <trkpt lat="0" lon="0">
        <time>2021-02-28T08:40:26.538000+00:00</time>
      </trkpt>
      <trkpt lat="47.32134" lon="-1.40169">
        <ele>118</ele>
        <time>2021-02-28T08:40:27.529000+00:00</time>
      </trkpt>
      <trkpt lat="0" lon="0">
        <time>2021-02-28T08:40:27.534000+00:00</time>
      </trkpt>
      <trkpt lat="0" lon="0">
        <time>2021-02-28T08:40:27.540000+00:00</time>
      </trkpt>
      <trkpt lat="0" lon="0">
        <time>2021-02-28T08:40:27.542000+00:00</time>
      </trkpt>
      <trkpt lat="47.3214" lon="-1.4017">
        <ele>119</ele>
        <time>2021-02-28T08:40:28.516000+00:00</time>
      </trkpt>
      <trkpt lat="0" lon="0">
        <time>2021-02-28T08:40:28.524000+00:00</time>
      </trkpt>
      <trkpt lat="0" lon="0">
        <time>2021-02-28T08:40:28.528000+00:00</time>
      </trkpt>
      <trkpt lat="0" lon="0">
        <time>2021-02-28T08:40:28.531000+00:00</time>
      </trkpt>
      <trkpt lat="47.32146" lon="-1.40171">
        <ele>119</ele>
        <time>2021-02-28T08:40:29.535000+00:00</time>
      </trkpt>
      <trkpt lat="0" lon="0">
        <time>2021-02-28T08:40:29.541000+00:00</time>
      </trkpt>
      <trkpt lat="0" lon="0">
        <time>2021-02-28T08:40:29.546000+00:00</time>
      </trkpt>
      <trkpt lat="0" lon="0">
        <time>2021-02-28T08:40:29.548000+00:00</time>
      </trkpt>
      <trkpt lat="47.32152" lon="-1.40172">
        <ele>119</ele>
        <time>2021-02-28T08:40:30.514000+00:00</time>
      </trkpt>
      <trkpt lat="0" lon="0">
        <time>2021-02-28T08:40:30.522000+00:00</time>
      </trkpt>
      <trkpt lat="0" lon="0">
        <time>2021-02-28T08:40:30.528000+00:00</time>
      </trkpt>
      <trkpt lat="0" lon="0">
        <time>2021-02-28T08:40:30.531000+00:00</time>
      </trkpt>
      <trkpt lat="47.32158" lon="-1.40173">
        <ele>119</ele>
        <time>2021-02-28T08:40:31.518000+00:00</time>
      </trkpt>
      <trkpt lat="0" lon="0">
        <time>2021-02-28T08:40:31.529000+00:00</time>
      </trkpt>
      <trkpt lat="0" lon="0">
        <time>2021-02-28T08:40:31.534000+00:00</time>
      </trkpt>
      <trkpt lat="0" lon="0">
        <time>2021-02-28T08:40:31.537000+00:00</time>
      </trkpt>
      <trkpt lat="47.32163" lon="-1.40173">
        <ele>120</ele>
        <time>2021-02-28T08:40:32.517000+00:00</time>
      </trkpt>
      <trkpt lat="0" lon="0">
        <time>2021-02-28T08:40:32.523000+00:00</time>
      </trkpt>
      <trkpt lat="0" lon="0">
        <time>2021-02-28T08:40:32.530000+00:00</time>
      </trkpt>
      <trkpt lat="0" lon="0">
        <time>2021-02-28T08:40:32.534000+00:00</time>
      </trkpt>
      <trkpt lat="47.32169" lon="-1.40174">
        <ele>120</ele>
        <time>2021-02-28T08:40:33.502000+00:00</time>
      </trkpt>
      <trkpt lat="0" lon="0">
        <time>2021-02-28T08:40:33.516000+00:00</time>
      </trkpt>
      <trkpt lat="0" lon="0">
        <time>2021-02-28T08:40:33.526000+00:00</time>
      </trkpt>
      <trkpt lat="0" lon="0">
        <time>2021-02-28T08:40:33.528000+00:00</time>
      </trkpt>
      <trkpt lat="47.32174" lon="-1.40175">
        <ele>120</ele>
        <time>2021-02-28T08:40:34.482000+00:00</time>
      </trkpt>
      <trkpt lat="0" lon="0">
        <time>2021-02-28T08:40:34.493000+00:00</time>
      </trkpt>
      <trkpt lat="0" lon="0">
        <time>2021-02-28T08:40:34.497000+00:00</time>
      </trkpt>
      <trkpt lat="0" lon="0">
        <time>2021-02-28T08:40:34.500000+00:00</time>
      </trkpt>
      <trkpt lat="47.3218" lon="-1.40175">
        <ele>120</ele>
        <time>2021-02-28T08:40:35.515000+00:00</time>
      </trkpt>
      <trkpt lat="0" lon="0">
        <time>2021-02-28T08:40:35.528000+00:00</time>
      </trkpt>
      <trkpt lat="0" lon="0">
        <time>2021-02-28T08:40:35.532000+00:00</time>
      </trkpt>
      <trkpt lat="0" lon="0">
        <time>2021-02-28T08:40:35.538000+00:00</time>
      </trkpt>
      <trkpt lat="47.32185" lon="-1.40175">
        <ele>120</ele>
        <time>2021-02-28T08:40:36.514000+00:00</time>
      </trkpt>
      <trkpt lat="0" lon="0">
        <time>2021-02-28T08:40:36.523000+00:00</time>
      </trkpt>
      <trkpt lat="0" lon="0">
        <time>2021-02-28T08:40:36.529000+00:00</time>
      </trkpt>
      <trkpt lat="0" lon="0">
        <time>2021-02-28T08:40:36.532000+00:00</time>
      </trkpt>
      <trkpt lat="47.32191" lon="-1.40175">
        <ele>121</ele>
        <time>2021-02-28T08:40:37.526000+00:00</time>
      </trkpt>
      <trkpt lat="0" lon="0">
        <time>2021-02-28T08:40:37.531000+00:00</time>
      </trkpt>
      <trkpt lat="0" lon="0">
        <time>2021-02-28T08:40:37.537000+00:00</time>
      </trkpt>
      <trkpt lat="0" lon="0">
        <time>2021-02-28T08:40:37.540000+00:00</time>
      </trkpt>
      <trkpt lat="47.32196" lon="-1.40176">
        <ele>121</ele>
        <time>2021-02-28T08:40:38.533000+00:00</time>
      </trkpt>
      <trkpt lat="0" lon="0">
        <time>2021-02-28T08:40:38.540000+00:00</time>
      </trkpt>
      <trkpt lat="0" lon="0">
        <time>2021-02-28T08:40:38.549000+00:00</time>
      </trkpt>
      <trkpt lat="0" lon="0">
        <time>2021-02-28T08:40:38.553000+00:00</time>
      </trkpt>
      <trkpt lat="47.32201" lon="-1.40176">
        <ele>121</ele>
        <time>2021-02-28T08:40:39.524000+00:00</time>
      </trkpt>
      <trkpt lat="0" lon="0">
        <time>2021-02-28T08:40:39.536000+00:00</time>
      </trkpt>
      <trkpt lat="0" lon="0">
        <time>2021-02-28T08:40:39.547000+00:00</time>
      </trkpt>
      <trkpt lat="0" lon="0">
        <time>2021-02-28T08:40:39.550000+00:00</time>
      </trkpt>
      <trkpt lat="47.32206" lon="-1.40176">
        <ele>121</ele>
        <time>2021-02-28T08:40:40.536000+00:00</time>
      </trkpt>
      <trkpt lat="0" lon="0">
        <time>2021-02-28T08:40:40.543000+00:00</time>
      </trkpt>
      <trkpt lat="0" lon="0">
        <time>2021-02-28T08:40:40.549000+00:00</time>
      </trkpt>
      <trkpt lat="0" lon="0">
        <time>2021-02-28T08:40:40.552000+00:00</time>
      </trkpt>
      <trkpt lat="47.32211" lon="-1.40176">
        <ele>121</ele>
        <time>2021-02-28T08:40:41.514000+00:00</time>
      </trkpt>
      <trkpt lat="0" lon="0">
        <time>2021-02-28T08:40:41.524000+00:00</time>
      </trkpt>
      <trkpt lat="0" lon="0">
        <time>2021-02-28T08:40:41.529000+00:00</time>
      </trkpt>
      <trkpt lat="0" lon="0">
        <time>2021-02-28T08:40:41.532000+00:00</time>
      </trkpt>
      <trkpt lat="47.32216" lon="-1.40177">
        <ele>121</ele>
        <time>2021-02-28T08:40:42.495000+00:00</time>
      </trkpt>
      <trkpt lat="0" lon="0">
        <time>2021-02-28T08:40:42.517000+00:00</time>
      </trkpt>
      <trkpt lat="0" lon="0">
        <time>2021-02-28T08:40:42.521000+00:00</time>
      </trkpt>
      <trkpt lat="0" lon="0">
        <time>2021-02-28T08:40:42.523000+00:00</time>
      </trkpt>
      <trkpt lat="47.32221" lon="-1.40177">
        <ele>121</ele>
        <time>2021-02-28T08:40:43.497000+00:00</time>
      </trkpt>
      <trkpt lat="0" lon="0">
        <time>2021-02-28T08:40:43.503000+00:00</time>
      </trkpt>
      <trkpt lat="0" lon="0">
        <time>2021-02-28T08:40:43.509000+00:00</time>
      </trkpt>
      <trkpt lat="0" lon="0">
        <time>2021-02-28T08:40:43.511000+00:00</time>
      </trkpt>
      <trkpt lat="47.32226" lon="-1.40178">
        <ele>121</ele>
        <time>2021-02-28T08:40:44.527000+00:00</time>
      </trkpt>
      <trkpt lat="0" lon="0">
        <time>2021-02-28T08:40:44.542000+00:00</time>
      </trkpt>
      <trkpt lat="0" lon="0">
        <time>2021-02-28T08:40:44.547000+00:00</time>
      </trkpt>
      <trkpt lat="0" lon="0">
        <time>2021-02-28T08:40:44.550000+00:00</time>
      </trkpt>
      <trkpt lat="47.32231" lon="-1.40178">
        <ele>121</ele>
        <time>2021-02-28T08:40:45.542000+00:00</time>
      </trkpt>
      <trkpt lat="0" lon="0">
        <time>2021-02-28T08:40:45.552000+00:00</time>
      </trkpt>
      <trkpt lat="0" lon="0">
        <time>2021-02-28T08:40:45.559000+00:00</time>
      </trkpt>
      <trkpt lat="0" lon="0">
        <time>2021-02-28T08:40:45.562000+00:00</time>
      </trkpt>
      <trkpt lat="47.32236" lon="-1.40179">
        <ele>121</ele>
        <time>2021-02-28T08:40:46.482000+00:00</time>
      </trkpt>
      <trkpt lat="0" lon="0">
        <time>2021-02-28T08:40:46.486000+00:00</time>
      </trkpt>
      <trkpt lat="0" lon="0">
        <time>2021-02-28T08:40:46.487000+00:00</time>
      </trkpt>
      <trkpt lat="47.32241" lon="-1.4018">
        <ele>121</ele>
        <time>2021-02-28T08:40:47.513000+00:00</time>
      </trkpt>
      <trkpt lat="0" lon="0">
        <time>2021-02-28T08:40:47.524000+00:00</time>
      </trkpt>
      <trkpt lat="0" lon="0">
        <time>2021-02-28T08:40:47.531000+00:00</time>
      </trkpt>
      <trkpt lat="0" lon="0">
        <time>2021-02-28T08:40:47.533000+00:00</time>
      </trkpt>
      <trkpt lat="47.32245" lon="-1.40182">
        <ele>121</ele>
        <time>2021-02-28T08:40:48.506000+00:00</time>
      </trkpt>
      <trkpt lat="0" lon="0">
        <time>2021-02-28T08:40:48.517000+00:00</time>
      </trkpt>
      <trkpt lat="0" lon="0">
        <time>2021-02-28T08:40:48.523000+00:00</time>
      </trkpt>
      <trkpt lat="0" lon="0">
        <time>2021-02-28T08:40:48.526000+00:00</time>
      </trkpt>
      <trkpt lat="47.3225" lon="-1.40183">
        <ele>121</ele>
        <time>2021-02-28T08:40:49.497000+00:00</time>
      </trkpt>
      <trkpt lat="0" lon="0">
        <time>2021-02-28T08:40:49.507000+00:00</time>
      </trkpt>
      <trkpt lat="0" lon="0">
        <time>2021-02-28T08:40:49.514000+00:00</time>
      </trkpt>
      <trkpt lat="0" lon="0">
        <time>2021-02-28T08:40:49.517000+00:00</time>
      </trkpt>
      <trkpt lat="47.32255" lon="-1.40185">
        <ele>122</ele>
        <time>2021-02-28T08:40:50.546000+00:00</time>
      </trkpt>
      <trkpt lat="0" lon="0">
        <time>2021-02-28T08:40:50.553000+00:00</time>
      </trkpt>
      <trkpt lat="0" lon="0">
        <time>2021-02-28T08:40:50.558000+00:00</time>
      </trkpt>
      <trkpt lat="0" lon="0">
        <time>2021-02-28T08:40:50.561000+00:00</time>
      </trkpt>
      <trkpt lat="47.32259" lon="-1.40187">
        <ele>122</ele>
        <time>2021-02-28T08:40:51.526000+00:00</time>
      </trkpt>
      <trkpt lat="0" lon="0">
        <time>2021-02-28T08:40:51.533000+00:00</time>
      </trkpt>
      <trkpt lat="0" lon="0">
        <time>2021-02-28T08:40:51.539000+00:00</time>
      </trkpt>
      <trkpt lat="0" lon="0">
        <time>2021-02-28T08:40:51.541000+00:00</time>
      </trkpt>
      <trkpt lat="47.32264" lon="-1.40189">
        <ele>122</ele>
        <time>2021-02-28T08:40:52.523000+00:00</time>
      </trkpt>
      <trkpt lat="0" lon="0">
        <time>2021-02-28T08:40:52.525000+00:00</time>
      </trkpt>
      <trkpt lat="0" lon="0">
        <time>2021-02-28T08:40:52.526000+00:00</time>
      </trkpt>
      <trkpt lat="0" lon="0">
        <time>2021-02-28T08:40:52.528000+00:00</time>
      </trkpt>
      <trkpt lat="47.32268" lon="-1.40191">
        <ele>122</ele>
        <time>2021-02-28T08:40:53.521000+00:00</time>
      </trkpt>
      <trkpt lat="0" lon="0">
        <time>2021-02-28T08:40:53.532000+00:00</time>
      </trkpt>
      <trkpt lat="0" lon="0">
        <time>2021-02-28T08:40:53.540000+00:00</time>
      </trkpt>
      <trkpt lat="0" lon="0">
        <time>2021-02-28T08:40:53.543000+00:00</time>
      </trkpt>
      <trkpt lat="47.32272" lon="-1.40193">
        <ele>122</ele>
        <time>2021-02-28T08:40:54.504000+00:00</time>
      </trkpt>
      <trkpt lat="0" lon="0">
        <time>2021-02-28T08:40:54.514000+00:00</time>
      </trkpt>
      <trkpt lat="0" lon="0">
        <time>2021-02-28T08:40:54.518000+00:00</time>
      </trkpt>
      <trkpt lat="0" lon="0">
        <time>2021-02-28T08:40:54.520000+00:00</time>
      </trkpt>
      <trkpt lat="47.32277" lon="-1.40195">
        <ele>122</ele>
        <time>2021-02-28T08:40:55.528000+00:00</time>
      </trkpt>
      <trkpt lat="0" lon="0">
        <time>2021-02-28T08:40:55.536000+00:00</time>
      </trkpt>
      <trkpt lat="0" lon="0">
        <time>2021-02-28T08:40:55.542000+00:00</time>
      </trkpt>
      <trkpt lat="0" lon="0">
        <time>2021-02-28T08:40:55.544000+00:00</time>
      </trkpt>
      <trkpt lat="47.32281" lon="-1.40197">
        <ele>122</ele>
        <time>2021-02-28T08:40:56.504000+00:00</time>
      </trkpt>
      <trkpt lat="0" lon="0">
        <time>2021-02-28T08:40:56.509000+00:00</time>
      </trkpt>
      <trkpt lat="0" lon="0">
        <time>2021-02-28T08:40:56.514000+00:00</time>
      </trkpt>
      <trkpt lat="0" lon="0">
        <time>2021-02-28T08:40:56.518000+00:00</time>
      </trkpt>
      <trkpt lat="47.32286" lon="-1.40199">
        <ele>121</ele>
        <time>2021-02-28T08:40:57.517000+00:00</time>
      </trkpt>
      <trkpt lat="0" lon="0">
        <time>2021-02-28T08:40:57.522000+00:00</time>
      </trkpt>
      <trkpt lat="0" lon="0">
        <time>2021-02-28T08:40:57.527000+00:00</time>
      </trkpt>
      <trkpt lat="0" lon="0">
        <time>2021-02-28T08:40:57.531000+00:00</time>
      </trkpt>
      <trkpt lat="47.3229" lon="-1.40201">
        <ele>121</ele>
        <time>2021-02-28T08:40:58.512000+00:00</time>
      </trkpt>
      <trkpt lat="0" lon="0">
        <time>2021-02-28T08:40:58.519000+00:00</time>
      </trkpt>
      <trkpt lat="0" lon="0">
        <time>2021-02-28T08:40:58.524000+00:00</time>
      </trkpt>
      <trkpt lat="0" lon="0">
        <time>2021-02-28T08:40:58.527000+00:00</time>
      </trkpt>
      <trkpt lat="47.32295" lon="-1.40203">
        <ele>121</ele>
        <time>2021-02-28T08:40:59.514000+00:00</time>
      </trkpt>
      <trkpt lat="0" lon="0">
        <time>2021-02-28T08:40:59.520000+00:00</time>
      </trkpt>
      <trkpt lat="0" lon="0">
        <time>2021-02-28T08:40:59.530000+00:00</time>
      </trkpt>
      <trkpt lat="0" lon="0">
        <time>2021-02-28T08:40:59.533000+00:00</time>
      </trkpt>
      <trkpt lat="47.323" lon="-1.40206">
        <ele>121</ele>
        <time>2021-02-28T08:41:00.520000+00:00</time>
      </trkpt>
      <trkpt lat="0" lon="0">
        <time>2021-02-28T08:41:00.527000+00:00</time>
      </trkpt>
      <trkpt lat="0" lon="0">
        <time>2021-02-28T08:41:00.533000+00:00</time>
      </trkpt>
      <trkpt lat="0" lon="0">
        <time>2021-02-28T08:41:00.535000+00:00</time>
      </trkpt>
      <trkpt lat="47.32304" lon="-1.40208">
        <ele>121</ele>
        <time>2021-02-28T08:41:01.514000+00:00</time>
      </trkpt>
      <trkpt lat="0" lon="0">
        <time>2021-02-28T08:41:01.523000+00:00</time>
      </trkpt>
      <trkpt lat="0" lon="0">
        <time>2021-02-28T08:41:01.529000+00:00</time>
      </trkpt>
      <trkpt lat="0" lon="0">
        <time>2021-02-28T08:41:01.532000+00:00</time>
      </trkpt>
      <trkpt lat="47.32309" lon="-1.4021">
        <ele>121</ele>
        <time>2021-02-28T08:41:02.515000+00:00</time>
      </trkpt>
      <trkpt lat="0" lon="0">
        <time>2021-02-28T08:41:02.521000+00:00</time>
      </trkpt>
      <trkpt lat="0" lon="0">
        <time>2021-02-28T08:41:02.525000+00:00</time>
      </trkpt>
      <trkpt lat="0" lon="0">
        <time>2021-02-28T08:41:02.527000+00:00</time>
      </trkpt>
      <trkpt lat="47.32313" lon="-1.40213">
        <ele>121</ele>
        <time>2021-02-28T08:41:03.514000+00:00</time>
      </trkpt>
      <trkpt lat="0" lon="0">
        <time>2021-02-28T08:41:03.523000+00:00</time>
      </trkpt>
      <trkpt lat="0" lon="0">
        <time>2021-02-28T08:41:03.529000+00:00</time>
      </trkpt>
      <trkpt lat="0" lon="0">
        <time>2021-02-28T08:41:03.531000+00:00</time>
      </trkpt>
      <trkpt lat="47.32318" lon="-1.40215">
        <ele>121</ele>
        <time>2021-02-28T08:41:04.474000+00:00</time>
      </trkpt>
      <trkpt lat="0" lon="0">
        <time>2021-02-28T08:41:04.482000+00:00</time>
      </trkpt>
      <trkpt lat="0" lon="0">
        <time>2021-02-28T08:41:04.486000+00:00</time>
      </trkpt>
      <trkpt lat="0" lon="0">
        <time>2021-02-28T08:41:04.489000+00:00</time>
      </trkpt>
      <trkpt lat="47.32323" lon="-1.40217">
        <ele>121</ele>
        <time>2021-02-28T08:41:05.485000+00:00</time>
      </trkpt>
      <trkpt lat="0" lon="0">
        <time>2021-02-28T08:41:05.501000+00:00</time>
      </trkpt>
      <trkpt lat="0" lon="0">
        <time>2021-02-28T08:41:05.510000+00:00</time>
      </trkpt>
      <trkpt lat="0" lon="0">
        <time>2021-02-28T08:41:05.514000+00:00</time>
      </trkpt>
      <trkpt lat="47.32328" lon="-1.40219">
        <ele>121</ele>
        <time>2021-02-28T08:41:06.435000+00:00</time>
      </trkpt>
      <trkpt lat="0" lon="0">
        <time>2021-02-28T08:41:06.444000+00:00</time>
      </trkpt>
      <trkpt lat="0" lon="0">
        <time>2021-02-28T08:41:06.450000+00:00</time>
      </trkpt>
      <trkpt lat="0" lon="0">
        <time>2021-02-28T08:41:06.453000+00:00</time>
      </trkpt>
      <trkpt lat="47.32333" lon="-1.40221">
        <ele>121</ele>
        <time>2021-02-28T08:41:07.452000+00:00</time>
      </trkpt>
      <trkpt lat="0" lon="0">
        <time>2021-02-28T08:41:07.459000+00:00</time>
      </trkpt>
      <trkpt lat="0" lon="0">
        <time>2021-02-28T08:41:07.469000+00:00</time>
      </trkpt>
      <trkpt lat="0" lon="0">
        <time>2021-02-28T08:41:07.471000+00:00</time>
      </trkpt>
      <trkpt lat="47.32338" lon="-1.40223">
        <ele>121</ele>
        <time>2021-02-28T08:41:08.447000+00:00</time>
      </trkpt>
      <trkpt lat="0" lon="0">
        <time>2021-02-28T08:41:08.455000+00:00</time>
      </trkpt>
      <trkpt lat="0" lon="0">
        <time>2021-02-28T08:41:08.458000+00:00</time>
      </trkpt>
      <trkpt lat="0" lon="0">
        <time>2021-02-28T08:41:08.461000+00:00</time>
      </trkpt>
      <trkpt lat="47.32343" lon="-1.40225">
        <ele>120</ele>
        <time>2021-02-28T08:41:09.494000+00:00</time>
      </trkpt>
      <trkpt lat="0" lon="0">
        <time>2021-02-28T08:41:09.501000+00:00</time>
      </trkpt>
      <trkpt lat="0" lon="0">
        <time>2021-02-28T08:41:09.505000+00:00</time>
      </trkpt>
      <trkpt lat="0" lon="0">
        <time>2021-02-28T08:41:09.509000+00:00</time>
      </trkpt>
      <trkpt lat="47.32348" lon="-1.40227">
        <ele>121</ele>
        <time>2021-02-28T08:41:10.439000+00:00</time>
      </trkpt>
      <trkpt lat="0" lon="0">
        <time>2021-02-28T08:41:10.441000+00:00</time>
      </trkpt>
      <trkpt lat="0" lon="0">
        <time>2021-02-28T08:41:10.443000+00:00</time>
      </trkpt>
      <trkpt lat="0" lon="0">
        <time>2021-02-28T08:41:10.445000+00:00</time>
      </trkpt>
      <trkpt lat="47.32353" lon="-1.4023">
        <ele>120</ele>
        <time>2021-02-28T08:41:11.512000+00:00</time>
      </trkpt>
      <trkpt lat="0" lon="0">
        <time>2021-02-28T08:41:11.522000+00:00</time>
      </trkpt>
      <trkpt lat="0" lon="0">
        <time>2021-02-28T08:41:11.528000+00:00</time>
      </trkpt>
      <trkpt lat="0" lon="0">
        <time>2021-02-28T08:41:11.531000+00:00</time>
      </trkpt>
      <trkpt lat="47.32358" lon="-1.40234">
        <ele>120</ele>
        <time>2021-02-28T08:41:12.561000+00:00</time>
      </trkpt>
      <trkpt lat="0" lon="0">
        <time>2021-02-28T08:41:12.573000+00:00</time>
      </trkpt>
      <trkpt lat="0" lon="0">
        <time>2021-02-28T08:41:12.578000+00:00</time>
      </trkpt>
      <trkpt lat="0" lon="0">
        <time>2021-02-28T08:41:12.581000+00:00</time>
      </trkpt>
      <trkpt lat="47.32363" lon="-1.40238">
        <ele>120</ele>
        <time>2021-02-28T08:41:13.507000+00:00</time>
      </trkpt>
      <trkpt lat="0" lon="0">
        <time>2021-02-28T08:41:13.526000+00:00</time>
      </trkpt>
      <trkpt lat="0" lon="0">
        <time>2021-02-28T08:41:13.534000+00:00</time>
      </trkpt>
      <trkpt lat="0" lon="0">
        <time>2021-02-28T08:41:13.539000+00:00</time>
      </trkpt>
      <trkpt lat="47.32367" lon="-1.40243">
        <ele>120</ele>
        <time>2021-02-28T08:41:14.484000+00:00</time>
      </trkpt>
      <trkpt lat="0" lon="0">
        <time>2021-02-28T08:41:14.491000+00:00</time>
      </trkpt>
      <trkpt lat="0" lon="0">
        <time>2021-02-28T08:41:14.498000+00:00</time>
      </trkpt>
      <trkpt lat="0" lon="0">
        <time>2021-02-28T08:41:14.501000+00:00</time>
      </trkpt>
      <trkpt lat="47.3237" lon="-1.40249">
        <ele>120</ele>
        <time>2021-02-28T08:41:15.482000+00:00</time>
      </trkpt>
      <trkpt lat="0" lon="0">
        <time>2021-02-28T08:41:15.487000+00:00</time>
      </trkpt>
      <trkpt lat="0" lon="0">
        <time>2021-02-28T08:41:15.492000+00:00</time>
      </trkpt>
      <trkpt lat="0" lon="0">
        <time>2021-02-28T08:41:15.494000+00:00</time>
      </trkpt>
      <trkpt lat="47.32373" lon="-1.40255">
        <ele>120</ele>
        <time>2021-02-28T08:41:16.497000+00:00</time>
      </trkpt>
      <trkpt lat="0" lon="0">
        <time>2021-02-28T08:41:16.506000+00:00</time>
      </trkpt>
      <trkpt lat="0" lon="0">
        <time>2021-02-28T08:41:16.514000+00:00</time>
      </trkpt>
      <trkpt lat="0" lon="0">
        <time>2021-02-28T08:41:16.516000+00:00</time>
      </trkpt>
      <trkpt lat="47.32376" lon="-1.40262">
        <ele>120</ele>
        <time>2021-02-28T08:41:17.509000+00:00</time>
      </trkpt>
      <trkpt lat="0" lon="0">
        <time>2021-02-28T08:41:17.524000+00:00</time>
      </trkpt>
      <trkpt lat="0" lon="0">
        <time>2021-02-28T08:41:17.532000+00:00</time>
      </trkpt>
      <trkpt lat="0" lon="0">
        <time>2021-02-28T08:41:17.536000+00:00</time>
      </trkpt>
      <trkpt lat="47.32377" lon="-1.4027">
        <ele>120</ele>
        <time>2021-02-28T08:41:18.472000+00:00</time>
      </trkpt>
      <trkpt lat="0" lon="0">
        <time>2021-02-28T08:41:18.481000+00:00</time>
      </trkpt>
      <trkpt lat="0" lon="0">
        <time>2021-02-28T08:41:18.491000+00:00</time>
      </trkpt>
      <trkpt lat="0" lon="0">
        <time>2021-02-28T08:41:18.497000+00:00</time>
      </trkpt>
      <trkpt lat="47.32378" lon="-1.40279">
        <ele>120</ele>
        <time>2021-02-28T08:41:19.527000+00:00</time>
      </trkpt>
      <trkpt lat="0" lon="0">
        <time>2021-02-28T08:41:19.535000+00:00</time>
      </trkpt>
      <trkpt lat="0" lon="0">
        <time>2021-02-28T08:41:19.542000+00:00</time>
      </trkpt>
      <trkpt lat="0" lon="0">
        <time>2021-02-28T08:41:19.546000+00:00</time>
      </trkpt>
      <trkpt lat="47.32378" lon="-1.40287">
        <ele>120</ele>
        <time>2021-02-28T08:41:20.502000+00:00</time>
      </trkpt>
      <trkpt lat="0" lon="0">
        <time>2021-02-28T08:41:20.513000+00:00</time>
      </trkpt>
      <trkpt lat="0" lon="0">
        <time>2021-02-28T08:41:20.520000+00:00</time>
      </trkpt>
      <trkpt lat="0" lon="0">
        <time>2021-02-28T08:41:20.522000+00:00</time>
      </trkpt>
      <trkpt lat="47.32378" lon="-1.40296">
        <ele>120</ele>
        <time>2021-02-28T08:41:21.510000+00:00</time>
      </trkpt>
      <trkpt lat="0" lon="0">
        <time>2021-02-28T08:41:21.520000+00:00</time>
      </trkpt>
      <trkpt lat="0" lon="0">
        <time>2021-02-28T08:41:21.526000+00:00</time>
      </trkpt>
      <trkpt lat="0" lon="0">
        <time>2021-02-28T08:41:21.530000+00:00</time>
      </trkpt>
      <trkpt lat="47.32378" lon="-1.40304">
        <ele>120</ele>
        <time>2021-02-28T08:41:22.526000+00:00</time>
      </trkpt>
      <trkpt lat="0" lon="0">
        <time>2021-02-28T08:41:22.533000+00:00</time>
      </trkpt>
      <trkpt lat="0" lon="0">
        <time>2021-02-28T08:41:22.537000+00:00</time>
      </trkpt>
      <trkpt lat="0" lon="0">
        <time>2021-02-28T08:41:22.540000+00:00</time>
      </trkpt>
      <trkpt lat="47.32377" lon="-1.40313">
        <ele>120</ele>
        <time>2021-02-28T08:41:23.567000+00:00</time>
      </trkpt>
      <trkpt lat="0" lon="0">
        <time>2021-02-28T08:41:23.574000+00:00</time>
      </trkpt>
      <trkpt lat="0" lon="0">
        <time>2021-02-28T08:41:23.579000+00:00</time>
      </trkpt>
      <trkpt lat="0" lon="0">
        <time>2021-02-28T08:41:23.582000+00:00</time>
      </trkpt>
      <trkpt lat="47.32375" lon="-1.40321">
        <ele>121</ele>
        <time>2021-02-28T08:41:24.520000+00:00</time>
      </trkpt>
      <trkpt lat="0" lon="0">
        <time>2021-02-28T08:41:24.525000+00:00</time>
      </trkpt>
      <trkpt lat="0" lon="0">
        <time>2021-02-28T08:41:24.530000+00:00</time>
      </trkpt>
      <trkpt lat="0" lon="0">
        <time>2021-02-28T08:41:24.533000+00:00</time>
      </trkpt>
      <trkpt lat="47.32374" lon="-1.40329">
        <ele>121</ele>
        <time>2021-02-28T08:41:25.486000+00:00</time>
      </trkpt>
      <trkpt lat="0" lon="0">
        <time>2021-02-28T08:41:25.494000+00:00</time>
      </trkpt>
      <trkpt lat="0" lon="0">
        <time>2021-02-28T08:41:25.499000+00:00</time>
      </trkpt>
      <trkpt lat="0" lon="0">
        <time>2021-02-28T08:41:25.502000+00:00</time>
      </trkpt>
      <trkpt lat="47.32373" lon="-1.40337">
        <ele>121</ele>
        <time>2021-02-28T08:41:26.505000+00:00</time>
      </trkpt>
      <trkpt lat="0" lon="0">
        <time>2021-02-28T08:41:26.507000+00:00</time>
      </trkpt>
      <trkpt lat="0" lon="0">
        <time>2021-02-28T08:41:26.509000+00:00</time>
      </trkpt>
      <trkpt lat="0" lon="0">
        <time>2021-02-28T08:41:26.511000+00:00</time>
      </trkpt>
      <trkpt lat="47.32371" lon="-1.40345">
        <ele>121</ele>
        <time>2021-02-28T08:41:27.509000+00:00</time>
      </trkpt>
      <trkpt lat="0" lon="0">
        <time>2021-02-28T08:41:27.518000+00:00</time>
      </trkpt>
      <trkpt lat="0" lon="0">
        <time>2021-02-28T08:41:27.525000+00:00</time>
      </trkpt>
      <trkpt lat="0" lon="0">
        <time>2021-02-28T08:41:27.529000+00:00</time>
      </trkpt>
      <trkpt lat="47.32369" lon="-1.40353">
        <ele>121</ele>
        <time>2021-02-28T08:41:28.523000+00:00</time>
      </trkpt>
      <trkpt lat="0" lon="0">
        <time>2021-02-28T08:41:28.531000+00:00</time>
      </trkpt>
      <trkpt lat="0" lon="0">
        <time>2021-02-28T08:41:28.542000+00:00</time>
      </trkpt>
      <trkpt lat="0" lon="0">
        <time>2021-02-28T08:41:28.545000+00:00</time>
      </trkpt>
      <trkpt lat="47.32367" lon="-1.4036">
        <ele>121</ele>
        <time>2021-02-28T08:41:29.515000+00:00</time>
      </trkpt>
      <trkpt lat="0" lon="0">
        <time>2021-02-28T08:41:29.530000+00:00</time>
      </trkpt>
      <trkpt lat="0" lon="0">
        <time>2021-02-28T08:41:29.536000+00:00</time>
      </trkpt>
      <trkpt lat="0" lon="0">
        <time>2021-02-28T08:41:29.539000+00:00</time>
      </trkpt>
      <trkpt lat="47.32366" lon="-1.40367">
        <ele>121</ele>
        <time>2021-02-28T08:41:30.497000+00:00</time>
      </trkpt>
      <trkpt lat="0" lon="0">
        <time>2021-02-28T08:41:30.505000+00:00</time>
      </trkpt>
      <trkpt lat="0" lon="0">
        <time>2021-02-28T08:41:30.511000+00:00</time>
      </trkpt>
      <trkpt lat="0" lon="0">
        <time>2021-02-28T08:41:30.514000+00:00</time>
      </trkpt>
      <trkpt lat="47.32364" lon="-1.40375">
        <ele>121</ele>
        <time>2021-02-28T08:41:31.519000+00:00</time>
      </trkpt>
      <trkpt lat="0" lon="0">
        <time>2021-02-28T08:41:31.528000+00:00</time>
      </trkpt>
      <trkpt lat="0" lon="0">
        <time>2021-02-28T08:41:31.533000+00:00</time>
      </trkpt>
      <trkpt lat="0" lon="0">
        <time>2021-02-28T08:41:31.535000+00:00</time>
      </trkpt>
      <trkpt lat="47.32363" lon="-1.40382">
        <ele>121</ele>
        <time>2021-02-28T08:41:32.473000+00:00</time>
      </trkpt>
      <trkpt lat="0" lon="0">
        <time>2021-02-28T08:41:32.483000+00:00</time>
      </trkpt>
      <trkpt lat="0" lon="0">
        <time>2021-02-28T08:41:32.488000+00:00</time>
      </trkpt>
      <trkpt lat="0" lon="0">
        <time>2021-02-28T08:41:32.491000+00:00</time>
      </trkpt>
      <trkpt lat="47.32361" lon="-1.40389">
        <ele>121</ele>
        <time>2021-02-28T08:41:33.526000+00:00</time>
      </trkpt>
      <trkpt lat="0" lon="0">
        <time>2021-02-28T08:41:33.543000+00:00</time>
      </trkpt>
      <trkpt lat="0" lon="0">
        <time>2021-02-28T08:41:33.548000+00:00</time>
      </trkpt>
      <trkpt lat="0" lon="0">
        <time>2021-02-28T08:41:33.551000+00:00</time>
      </trkpt>
      <trkpt lat="47.3236" lon="-1.40397">
        <ele>122</ele>
        <time>2021-02-28T08:41:34.470000+00:00</time>
      </trkpt>
      <trkpt lat="0" lon="0">
        <time>2021-02-28T08:41:34.479000+00:00</time>
      </trkpt>
      <trkpt lat="0" lon="0">
        <time>2021-02-28T08:41:34.485000+00:00</time>
      </trkpt>
      <trkpt lat="0" lon="0">
        <time>2021-02-28T08:41:34.488000+00:00</time>
      </trkpt>
      <trkpt lat="47.32359" lon="-1.40404">
        <ele>122</ele>
        <time>2021-02-28T08:41:35.503000+00:00</time>
      </trkpt>
      <trkpt lat="0" lon="0">
        <time>2021-02-28T08:41:35.516000+00:00</time>
      </trkpt>
      <trkpt lat="0" lon="0">
        <time>2021-02-28T08:41:35.526000+00:00</time>
      </trkpt>
      <trkpt lat="0" lon="0">
        <time>2021-02-28T08:41:35.528000+00:00</time>
      </trkpt>
      <trkpt lat="47.32358" lon="-1.40412">
        <ele>122</ele>
        <time>2021-02-28T08:41:36.481000+00:00</time>
      </trkpt>
      <trkpt lat="0" lon="0">
        <time>2021-02-28T08:41:36.494000+00:00</time>
      </trkpt>
      <trkpt lat="0" lon="0">
        <time>2021-02-28T08:41:36.498000+00:00</time>
      </trkpt>
      <trkpt lat="0" lon="0">
        <time>2021-02-28T08:41:36.501000+00:00</time>
      </trkpt>
      <trkpt lat="47.32357" lon="-1.40419">
        <ele>123</ele>
        <time>2021-02-28T08:41:37.499000+00:00</time>
      </trkpt>
      <trkpt lat="0" lon="0">
        <time>2021-02-28T08:41:37.507000+00:00</time>
      </trkpt>
      <trkpt lat="0" lon="0">
        <time>2021-02-28T08:41:37.514000+00:00</time>
      </trkpt>
      <trkpt lat="0" lon="0">
        <time>2021-02-28T08:41:37.517000+00:00</time>
      </trkpt>
      <trkpt lat="47.32356" lon="-1.40427">
        <ele>123</ele>
        <time>2021-02-28T08:41:38.524000+00:00</time>
      </trkpt>
      <trkpt lat="0" lon="0">
        <time>2021-02-28T08:41:38.531000+00:00</time>
      </trkpt>
      <trkpt lat="0" lon="0">
        <time>2021-02-28T08:41:38.538000+00:00</time>
      </trkpt>
      <trkpt lat="0" lon="0">
        <time>2021-02-28T08:41:38.541000+00:00</time>
      </trkpt>
      <trkpt lat="47.32355" lon="-1.40434">
        <ele>123</ele>
        <time>2021-02-28T08:41:39.512000+00:00</time>
      </trkpt>
      <trkpt lat="0" lon="0">
        <time>2021-02-28T08:41:39.517000+00:00</time>
      </trkpt>
      <trkpt lat="0" lon="0">
        <time>2021-02-28T08:41:39.521000+00:00</time>
      </trkpt>
      <trkpt lat="0" lon="0">
        <time>2021-02-28T08:41:39.524000+00:00</time>
      </trkpt>
      <trkpt lat="47.32354" lon="-1.40442">
        <ele>123</ele>
        <time>2021-02-28T08:41:40.493000+00:00</time>
      </trkpt>
      <trkpt lat="0" lon="0">
        <time>2021-02-28T08:41:40.497000+00:00</time>
      </trkpt>
      <trkpt lat="0" lon="0">
        <time>2021-02-28T08:41:40.500000+00:00</time>
      </trkpt>
      <trkpt lat="0" lon="0">
        <time>2021-02-28T08:41:40.503000+00:00</time>
      </trkpt>
      <trkpt lat="47.32353" lon="-1.40449">
        <ele>123</ele>
        <time>2021-02-28T08:41:41.474000+00:00</time>
      </trkpt>
      <trkpt lat="0" lon="0">
        <time>2021-02-28T08:41:41.479000+00:00</time>
      </trkpt>
      <trkpt lat="0" lon="0">
        <time>2021-02-28T08:41:41.491000+00:00</time>
      </trkpt>
      <trkpt lat="0" lon="0">
        <time>2021-02-28T08:41:41.493000+00:00</time>
      </trkpt>
      <trkpt lat="47.32352" lon="-1.40457">
        <ele>123</ele>
        <time>2021-02-28T08:41:42.527000+00:00</time>
      </trkpt>
      <trkpt lat="0" lon="0">
        <time>2021-02-28T08:41:42.536000+00:00</time>
      </trkpt>
      <trkpt lat="0" lon="0">
        <time>2021-02-28T08:41:42.542000+00:00</time>
      </trkpt>
      <trkpt lat="0" lon="0">
        <time>2021-02-28T08:41:42.545000+00:00</time>
      </trkpt>
      <trkpt lat="47.32352" lon="-1.40464">
        <ele>123</ele>
        <time>2021-02-28T08:41:43.499000+00:00</time>
      </trkpt>
      <trkpt lat="0" lon="0">
        <time>2021-02-28T08:41:43.512000+00:00</time>
      </trkpt>
      <trkpt lat="0" lon="0">
        <time>2021-02-28T08:41:43.521000+00:00</time>
      </trkpt>
      <trkpt lat="0" lon="0">
        <time>2021-02-28T08:41:43.523000+00:00</time>
      </trkpt>
      <trkpt lat="47.32351" lon="-1.40472">
        <ele>123</ele>
        <time>2021-02-28T08:41:44.543000+00:00</time>
      </trkpt>
      <trkpt lat="0" lon="0">
        <time>2021-02-28T08:41:44.553000+00:00</time>
      </trkpt>
      <trkpt lat="0" lon="0">
        <time>2021-02-28T08:41:44.559000+00:00</time>
      </trkpt>
      <trkpt lat="0" lon="0">
        <time>2021-02-28T08:41:44.562000+00:00</time>
      </trkpt>
      <trkpt lat="47.3235" lon="-1.4048">
        <ele>123</ele>
        <time>2021-02-28T08:41:45.483000+00:00</time>
      </trkpt>
      <trkpt lat="0" lon="0">
        <time>2021-02-28T08:41:45.497000+00:00</time>
      </trkpt>
      <trkpt lat="0" lon="0">
        <time>2021-02-28T08:41:45.502000+00:00</time>
      </trkpt>
      <trkpt lat="0" lon="0">
        <time>2021-02-28T08:41:45.506000+00:00</time>
      </trkpt>
      <trkpt lat="47.3235" lon="-1.40487">
        <ele>123</ele>
        <time>2021-02-28T08:41:46.469000+00:00</time>
      </trkpt>
      <trkpt lat="0" lon="0">
        <time>2021-02-28T08:41:46.473000+00:00</time>
      </trkpt>
      <trkpt lat="0" lon="0">
        <time>2021-02-28T08:41:46.481000+00:00</time>
      </trkpt>
      <trkpt lat="0" lon="0">
        <time>2021-02-28T08:41:46.486000+00:00</time>
      </trkpt>
      <trkpt lat="47.32349" lon="-1.40495">
        <ele>123</ele>
        <time>2021-02-28T08:41:47.498000+00:00</time>
      </trkpt>
      <trkpt lat="0" lon="0">
        <time>2021-02-28T08:41:47.505000+00:00</time>
      </trkpt>
      <trkpt lat="0" lon="0">
        <time>2021-02-28T08:41:47.511000+00:00</time>
      </trkpt>
      <trkpt lat="0" lon="0">
        <time>2021-02-28T08:41:47.514000+00:00</time>
      </trkpt>
      <trkpt lat="47.32349" lon="-1.40503">
        <ele>123</ele>
        <time>2021-02-28T08:41:48.507000+00:00</time>
      </trkpt>
      <trkpt lat="0" lon="0">
        <time>2021-02-28T08:41:48.524000+00:00</time>
      </trkpt>
      <trkpt lat="0" lon="0">
        <time>2021-02-28T08:41:48.529000+00:00</time>
      </trkpt>
      <trkpt lat="0" lon="0">
        <time>2021-02-28T08:41:48.532000+00:00</time>
      </trkpt>
      <trkpt lat="47.32349" lon="-1.4051">
        <ele>123</ele>
        <time>2021-02-28T08:41:49.512000+00:00</time>
      </trkpt>
      <trkpt lat="0" lon="0">
        <time>2021-02-28T08:41:49.523000+00:00</time>
      </trkpt>
      <trkpt lat="0" lon="0">
        <time>2021-02-28T08:41:49.529000+00:00</time>
      </trkpt>
      <trkpt lat="0" lon="0">
        <time>2021-02-28T08:41:49.532000+00:00</time>
      </trkpt>
      <trkpt lat="47.32348" lon="-1.40517">
        <ele>124</ele>
        <time>2021-02-28T08:41:50.531000+00:00</time>
      </trkpt>
      <trkpt lat="0" lon="0">
        <time>2021-02-28T08:41:50.548000+00:00</time>
      </trkpt>
      <trkpt lat="0" lon="0">
        <time>2021-02-28T08:41:50.558000+00:00</time>
      </trkpt>
      <trkpt lat="0" lon="0">
        <time>2021-02-28T08:41:50.561000+00:00</time>
      </trkpt>
      <trkpt lat="47.32348" lon="-1.40525">
        <ele>124</ele>
        <time>2021-02-28T08:41:51.458000+00:00</time>
      </trkpt>
      <trkpt lat="0" lon="0">
        <time>2021-02-28T08:41:51.461000+00:00</time>
      </trkpt>
      <trkpt lat="0" lon="0">
        <time>2021-02-28T08:41:51.465000+00:00</time>
      </trkpt>
      <trkpt lat="0" lon="0">
        <time>2021-02-28T08:41:51.467000+00:00</time>
      </trkpt>
      <trkpt lat="47.32348" lon="-1.40532">
        <ele>124</ele>
        <time>2021-02-28T08:41:52.531000+00:00</time>
      </trkpt>
      <trkpt lat="0" lon="0">
        <time>2021-02-28T08:41:52.543000+00:00</time>
      </trkpt>
      <trkpt lat="0" lon="0">
        <time>2021-02-28T08:41:52.549000+00:00</time>
      </trkpt>
      <trkpt lat="0" lon="0">
        <time>2021-02-28T08:41:52.551000+00:00</time>
      </trkpt>
      <trkpt lat="47.32348" lon="-1.40539">
        <ele>125</ele>
        <time>2021-02-28T08:41:53.546000+00:00</time>
      </trkpt>
      <trkpt lat="0" lon="0">
        <time>2021-02-28T08:41:53.555000+00:00</time>
      </trkpt>
      <trkpt lat="0" lon="0">
        <time>2021-02-28T08:41:53.560000+00:00</time>
      </trkpt>
      <trkpt lat="0" lon="0">
        <time>2021-02-28T08:41:53.563000+00:00</time>
      </trkpt>
      <trkpt lat="47.32348" lon="-1.40546">
        <ele>125</ele>
        <time>2021-02-28T08:41:54.516000+00:00</time>
      </trkpt>
      <trkpt lat="0" lon="0">
        <time>2021-02-28T08:41:54.533000+00:00</time>
      </trkpt>
      <trkpt lat="0" lon="0">
        <time>2021-02-28T08:41:54.537000+00:00</time>
      </trkpt>
      <trkpt lat="0" lon="0">
        <time>2021-02-28T08:41:54.540000+00:00</time>
      </trkpt>
      <trkpt lat="47.32348" lon="-1.40553">
        <ele>125</ele>
        <time>2021-02-28T08:41:55.539000+00:00</time>
      </trkpt>
      <trkpt lat="0" lon="0">
        <time>2021-02-28T08:41:55.545000+00:00</time>
      </trkpt>
      <trkpt lat="0" lon="0">
        <time>2021-02-28T08:41:55.552000+00:00</time>
      </trkpt>
      <trkpt lat="0" lon="0">
        <time>2021-02-28T08:41:55.555000+00:00</time>
      </trkpt>
      <trkpt lat="47.32348" lon="-1.40559">
        <ele>125</ele>
        <time>2021-02-28T08:41:56.531000+00:00</time>
      </trkpt>
      <trkpt lat="0" lon="0">
        <time>2021-02-28T08:41:56.538000+00:00</time>
      </trkpt>
      <trkpt lat="0" lon="0">
        <time>2021-02-28T08:41:56.554000+00:00</time>
      </trkpt>
      <trkpt lat="0" lon="0">
        <time>2021-02-28T08:41:56.557000+00:00</time>
      </trkpt>
      <trkpt lat="47.32348" lon="-1.40566">
        <ele>125</ele>
        <time>2021-02-28T08:41:57.519000+00:00</time>
      </trkpt>
      <trkpt lat="0" lon="0">
        <time>2021-02-28T08:41:57.525000+00:00</time>
      </trkpt>
      <trkpt lat="0" lon="0">
        <time>2021-02-28T08:41:57.530000+00:00</time>
      </trkpt>
      <trkpt lat="0" lon="0">
        <time>2021-02-28T08:41:57.533000+00:00</time>
      </trkpt>
      <trkpt lat="47.32347" lon="-1.40573">
        <ele>125</ele>
        <time>2021-02-28T08:41:58.506000+00:00</time>
      </trkpt>
      <trkpt lat="0" lon="0">
        <time>2021-02-28T08:41:58.524000+00:00</time>
      </trkpt>
      <trkpt lat="0" lon="0">
        <time>2021-02-28T08:41:58.532000+00:00</time>
      </trkpt>
      <trkpt lat="0" lon="0">
        <time>2021-02-28T08:41:58.535000+00:00</time>
      </trkpt>
      <trkpt lat="47.32347" lon="-1.40579">
        <ele>125</ele>
        <time>2021-02-28T08:41:59.538000+00:00</time>
      </trkpt>
      <trkpt lat="0" lon="0">
        <time>2021-02-28T08:41:59.550000+00:00</time>
      </trkpt>
      <trkpt lat="0" lon="0">
        <time>2021-02-28T08:41:59.556000+00:00</time>
      </trkpt>
      <trkpt lat="0" lon="0">
        <time>2021-02-28T08:41:59.560000+00:00</time>
      </trkpt>
      <trkpt lat="47.32346" lon="-1.40585">
        <ele>125</ele>
        <time>2021-02-28T08:42:00.506000+00:00</time>
      </trkpt>
      <trkpt lat="0" lon="0">
        <time>2021-02-28T08:42:00.517000+00:00</time>
      </trkpt>
      <trkpt lat="0" lon="0">
        <time>2021-02-28T08:42:00.522000+00:00</time>
      </trkpt>
      <trkpt lat="0" lon="0">
        <time>2021-02-28T08:42:00.524000+00:00</time>
      </trkpt>
      <trkpt lat="47.32344" lon="-1.4059">
        <ele>126</ele>
        <time>2021-02-28T08:42:01.484000+00:00</time>
      </trkpt>
      <trkpt lat="0" lon="0">
        <time>2021-02-28T08:42:01.497000+00:00</time>
      </trkpt>
      <trkpt lat="0" lon="0">
        <time>2021-02-28T08:42:01.501000+00:00</time>
      </trkpt>
      <trkpt lat="0" lon="0">
        <time>2021-02-28T08:42:01.504000+00:00</time>
      </trkpt>
      <trkpt lat="47.32341" lon="-1.40593">
        <ele>125</ele>
        <time>2021-02-28T08:42:02.502000+00:00</time>
      </trkpt>
      <trkpt lat="0" lon="0">
        <time>2021-02-28T08:42:02.508000+00:00</time>
      </trkpt>
      <trkpt lat="0" lon="0">
        <time>2021-02-28T08:42:02.513000+00:00</time>
      </trkpt>
      <trkpt lat="0" lon="0">
        <time>2021-02-28T08:42:02.516000+00:00</time>
      </trkpt>
      <trkpt lat="47.32338" lon="-1.40595">
        <ele>125</ele>
        <time>2021-02-28T08:42:03.487000+00:00</time>
      </trkpt>
      <trkpt lat="0" lon="0">
        <time>2021-02-28T08:42:03.499000+00:00</time>
      </trkpt>
      <trkpt lat="0" lon="0">
        <time>2021-02-28T08:42:03.503000+00:00</time>
      </trkpt>
      <trkpt lat="0" lon="0">
        <time>2021-02-28T08:42:03.505000+00:00</time>
      </trkpt>
      <trkpt lat="47.32334" lon="-1.40597">
        <ele>125</ele>
        <time>2021-02-28T08:42:04.491000+00:00</time>
      </trkpt>
      <trkpt lat="0" lon="0">
        <time>2021-02-28T08:42:04.497000+00:00</time>
      </trkpt>
      <trkpt lat="0" lon="0">
        <time>2021-02-28T08:42:04.502000+00:00</time>
      </trkpt>
      <trkpt lat="0" lon="0">
        <time>2021-02-28T08:42:04.504000+00:00</time>
      </trkpt>
      <trkpt lat="47.3233" lon="-1.40597">
        <ele>125</ele>
        <time>2021-02-28T08:42:05.490000+00:00</time>
      </trkpt>
      <trkpt lat="0" lon="0">
        <time>2021-02-28T08:42:05.503000+00:00</time>
      </trkpt>
      <trkpt lat="0" lon="0">
        <time>2021-02-28T08:42:05.510000+00:00</time>
      </trkpt>
      <trkpt lat="0" lon="0">
        <time>2021-02-28T08:42:05.512000+00:00</time>
      </trkpt>
      <trkpt lat="47.32325" lon="-1.40597">
        <ele>124</ele>
        <time>2021-02-28T08:42:06.501000+00:00</time>
      </trkpt>
      <trkpt lat="0" lon="0">
        <time>2021-02-28T08:42:06.506000+00:00</time>
      </trkpt>
      <trkpt lat="0" lon="0">
        <time>2021-02-28T08:42:06.510000+00:00</time>
      </trkpt>
      <trkpt lat="0" lon="0">
        <time>2021-02-28T08:42:06.512000+00:00</time>
      </trkpt>
      <trkpt lat="47.32319" lon="-1.40597">
        <ele>124</ele>
        <time>2021-02-28T08:42:07.490000+00:00</time>
      </trkpt>
      <trkpt lat="0" lon="0">
        <time>2021-02-28T08:42:07.497000+00:00</time>
      </trkpt>
      <trkpt lat="0" lon="0">
        <time>2021-02-28T08:42:07.503000+00:00</time>
      </trkpt>
      <trkpt lat="0" lon="0">
        <time>2021-02-28T08:42:07.505000+00:00</time>
      </trkpt>
      <trkpt lat="47.32314" lon="-1.40597">
        <ele>124</ele>
        <time>2021-02-28T08:42:08.494000+00:00</time>
      </trkpt>
      <trkpt lat="0" lon="0">
        <time>2021-02-28T08:42:08.501000+00:00</time>
      </trkpt>
      <trkpt lat="0" lon="0">
        <time>2021-02-28T08:42:08.506000+00:00</time>
      </trkpt>
      <trkpt lat="0" lon="0">
        <time>2021-02-28T08:42:08.508000+00:00</time>
      </trkpt>
      <trkpt lat="47.32308" lon="-1.40596">
        <ele>124</ele>
        <time>2021-02-28T08:42:09.541000+00:00</time>
      </trkpt>
      <trkpt lat="0" lon="0">
        <time>2021-02-28T08:42:09.552000+00:00</time>
      </trkpt>
      <trkpt lat="0" lon="0">
        <time>2021-02-28T08:42:09.561000+00:00</time>
      </trkpt>
      <trkpt lat="0" lon="0">
        <time>2021-02-28T08:42:09.565000+00:00</time>
      </trkpt>
      <trkpt lat="47.32302" lon="-1.40595">
        <ele>123</ele>
        <time>2021-02-28T08:42:10.443000+00:00</time>
      </trkpt>
      <trkpt lat="0" lon="0">
        <time>2021-02-28T08:42:10.453000+00:00</time>
      </trkpt>
      <trkpt lat="0" lon="0">
        <time>2021-02-28T08:42:10.460000+00:00</time>
      </trkpt>
      <trkpt lat="0" lon="0">
        <time>2021-02-28T08:42:10.463000+00:00</time>
      </trkpt>
      <trkpt lat="47.32297" lon="-1.40595">
        <ele>123</ele>
        <time>2021-02-28T08:42:11.439000+00:00</time>
      </trkpt>
      <trkpt lat="0" lon="0">
        <time>2021-02-28T08:42:11.444000+00:00</time>
      </trkpt>
      <trkpt lat="0" lon="0">
        <time>2021-02-28T08:42:11.448000+00:00</time>
      </trkpt>
      <trkpt lat="0" lon="0">
        <time>2021-02-28T08:42:11.450000+00:00</time>
      </trkpt>
      <trkpt lat="47.32291" lon="-1.40594">
        <ele>123</ele>
        <time>2021-02-28T08:42:12.485000+00:00</time>
      </trkpt>
      <trkpt lat="0" lon="0">
        <time>2021-02-28T08:42:12.498000+00:00</time>
      </trkpt>
      <trkpt lat="0" lon="0">
        <time>2021-02-28T08:42:12.504000+00:00</time>
      </trkpt>
      <trkpt lat="0" lon="0">
        <time>2021-02-28T08:42:12.508000+00:00</time>
      </trkpt>
      <trkpt lat="47.32285" lon="-1.40594">
        <ele>122</ele>
        <time>2021-02-28T08:42:13.517000+00:00</time>
      </trkpt>
      <trkpt lat="0" lon="0">
        <time>2021-02-28T08:42:13.522000+00:00</time>
      </trkpt>
      <trkpt lat="0" lon="0">
        <time>2021-02-28T08:42:13.524000+00:00</time>
      </trkpt>
      <trkpt lat="0" lon="0">
        <time>2021-02-28T08:42:13.525000+00:00</time>
      </trkpt>
      <trkpt lat="47.32279" lon="-1.40594">
        <ele>122</ele>
        <time>2021-02-28T08:42:14.545000+00:00</time>
      </trkpt>
      <trkpt lat="0" lon="0">
        <time>2021-02-28T08:42:14.555000+00:00</time>
      </trkpt>
      <trkpt lat="0" lon="0">
        <time>2021-02-28T08:42:14.559000+00:00</time>
      </trkpt>
      <trkpt lat="0" lon="0">
        <time>2021-02-28T08:42:14.561000+00:00</time>
      </trkpt>
      <trkpt lat="47.32274" lon="-1.40594">
        <ele>122</ele>
        <time>2021-02-28T08:42:15.554000+00:00</time>
      </trkpt>
      <trkpt lat="0" lon="0">
        <time>2021-02-28T08:42:15.571000+00:00</time>
      </trkpt>
      <trkpt lat="0" lon="0">
        <time>2021-02-28T08:42:15.576000+00:00</time>
      </trkpt>
      <trkpt lat="0" lon="0">
        <time>2021-02-28T08:42:15.579000+00:00</time>
      </trkpt>
      <trkpt lat="47.32268" lon="-1.40595">
        <ele>122</ele>
        <time>2021-02-28T08:42:16.549000+00:00</time>
      </trkpt>
      <trkpt lat="0" lon="0">
        <time>2021-02-28T08:42:16.555000+00:00</time>
      </trkpt>
      <trkpt lat="0" lon="0">
        <time>2021-02-28T08:42:16.559000+00:00</time>
      </trkpt>
      <trkpt lat="0" lon="0">
        <time>2021-02-28T08:42:16.561000+00:00</time>
      </trkpt>
      <trkpt lat="47.32262" lon="-1.40595">
        <ele>122</ele>
        <time>2021-02-28T08:42:17.512000+00:00</time>
      </trkpt>
      <trkpt lat="0" lon="0">
        <time>2021-02-28T08:42:17.522000+00:00</time>
      </trkpt>
      <trkpt lat="0" lon="0">
        <time>2021-02-28T08:42:17.528000+00:00</time>
      </trkpt>
      <trkpt lat="0" lon="0">
        <time>2021-02-28T08:42:17.530000+00:00</time>
      </trkpt>
      <trkpt lat="47.32257" lon="-1.40596">
        <ele>123</ele>
        <time>2021-02-28T08:42:18.529000+00:00</time>
      </trkpt>
      <trkpt lat="0" lon="0">
        <time>2021-02-28T08:42:18.533000+00:00</time>
      </trkpt>
      <trkpt lat="0" lon="0">
        <time>2021-02-28T08:42:18.538000+00:00</time>
      </trkpt>
      <trkpt lat="0" lon="0">
        <time>2021-02-28T08:42:18.540000+00:00</time>
      </trkpt>
      <trkpt lat="47.32251" lon="-1.40597">
        <ele>123</ele>
        <time>2021-02-28T08:42:19.476000+00:00</time>
      </trkpt>
      <trkpt lat="0" lon="0">
        <time>2021-02-28T08:42:19.485000+00:00</time>
      </trkpt>
      <trkpt lat="0" lon="0">
        <time>2021-02-28T08:42:19.491000+00:00</time>
      </trkpt>
      <trkpt lat="0" lon="0">
        <time>2021-02-28T08:42:19.494000+00:00</time>
      </trkpt>
      <trkpt lat="47.32246" lon="-1.40598">
        <ele>123</ele>
        <time>2021-02-28T08:42:20.506000+00:00</time>
      </trkpt>
      <trkpt lat="0" lon="0">
        <time>2021-02-28T08:42:20.514000+00:00</time>
      </trkpt>
      <trkpt lat="0" lon="0">
        <time>2021-02-28T08:42:20.520000+00:00</time>
      </trkpt>
      <trkpt lat="0" lon="0">
        <time>2021-02-28T08:42:20.523000+00:00</time>
      </trkpt>
      <trkpt lat="47.3224" lon="-1.40598">
        <ele>124</ele>
        <time>2021-02-28T08:42:21.544000+00:00</time>
      </trkpt>
      <trkpt lat="0" lon="0">
        <time>2021-02-28T08:42:21.549000+00:00</time>
      </trkpt>
      <trkpt lat="0" lon="0">
        <time>2021-02-28T08:42:21.555000+00:00</time>
      </trkpt>
      <trkpt lat="0" lon="0">
        <time>2021-02-28T08:42:21.558000+00:00</time>
      </trkpt>
      <trkpt lat="47.32235" lon="-1.40598">
        <ele>124</ele>
        <time>2021-02-28T08:42:22.498000+00:00</time>
      </trkpt>
      <trkpt lat="0" lon="0">
        <time>2021-02-28T08:42:22.505000+00:00</time>
      </trkpt>
      <trkpt lat="0" lon="0">
        <time>2021-02-28T08:42:22.510000+00:00</time>
      </trkpt>
      <trkpt lat="0" lon="0">
        <time>2021-02-28T08:42:22.512000+00:00</time>
      </trkpt>
      <trkpt lat="47.3223" lon="-1.40598">
        <ele>124</ele>
        <time>2021-02-28T08:42:23.544000+00:00</time>
      </trkpt>
      <trkpt lat="0" lon="0">
        <time>2021-02-28T08:42:23.553000+00:00</time>
      </trkpt>
      <trkpt lat="0" lon="0">
        <time>2021-02-28T08:42:23.561000+00:00</time>
      </trkpt>
      <trkpt lat="0" lon="0">
        <time>2021-02-28T08:42:23.565000+00:00</time>
      </trkpt>
      <trkpt lat="47.32224" lon="-1.40598">
        <ele>124</ele>
        <time>2021-02-28T08:42:24.527000+00:00</time>
      </trkpt>
      <trkpt lat="0" lon="0">
        <time>2021-02-28T08:42:24.535000+00:00</time>
      </trkpt>
      <trkpt lat="0" lon="0">
        <time>2021-02-28T08:42:24.537000+00:00</time>
      </trkpt>
      <trkpt lat="0" lon="0">
        <time>2021-02-28T08:42:24.539000+00:00</time>
      </trkpt>
      <trkpt lat="47.32219" lon="-1.40597">
        <ele>123</ele>
        <time>2021-02-28T08:42:25.526000+00:00</time>
      </trkpt>
      <trkpt lat="0" lon="0">
        <time>2021-02-28T08:42:25.536000+00:00</time>
      </trkpt>
      <trkpt lat="0" lon="0">
        <time>2021-02-28T08:42:25.543000+00:00</time>
      </trkpt>
      <trkpt lat="0" lon="0">
        <time>2021-02-28T08:42:25.547000+00:00</time>
      </trkpt>
      <trkpt lat="47.32214" lon="-1.40596">
        <ele>123</ele>
        <time>2021-02-28T08:42:26.575000+00:00</time>
      </trkpt>
      <trkpt lat="0" lon="0">
        <time>2021-02-28T08:42:26.579000+00:00</time>
      </trkpt>
      <trkpt lat="0" lon="0">
        <time>2021-02-28T08:42:26.583000+00:00</time>
      </trkpt>
      <trkpt lat="0" lon="0">
        <time>2021-02-28T08:42:26.585000+00:00</time>
      </trkpt>
      <trkpt lat="47.32209" lon="-1.40595">
        <ele>123</ele>
        <time>2021-02-28T08:42:27.530000+00:00</time>
      </trkpt>
      <trkpt lat="0" lon="0">
        <time>2021-02-28T08:42:27.536000+00:00</time>
      </trkpt>
      <trkpt lat="0" lon="0">
        <time>2021-02-28T08:42:27.541000+00:00</time>
      </trkpt>
      <trkpt lat="0" lon="0">
        <time>2021-02-28T08:42:27.544000+00:00</time>
      </trkpt>
      <trkpt lat="47.32204" lon="-1.40593">
        <ele>123</ele>
        <time>2021-02-28T08:42:28.528000+00:00</time>
      </trkpt>
      <trkpt lat="0" lon="0">
        <time>2021-02-28T08:42:28.538000+00:00</time>
      </trkpt>
      <trkpt lat="0" lon="0">
        <time>2021-02-28T08:42:28.543000+00:00</time>
      </trkpt>
      <trkpt lat="0" lon="0">
        <time>2021-02-28T08:42:28.546000+00:00</time>
      </trkpt>
      <trkpt lat="47.322" lon="-1.40592">
        <ele>123</ele>
        <time>2021-02-28T08:42:29.519000+00:00</time>
      </trkpt>
      <trkpt lat="0" lon="0">
        <time>2021-02-28T08:42:29.526000+00:00</time>
      </trkpt>
      <trkpt lat="0" lon="0">
        <time>2021-02-28T08:42:29.532000+00:00</time>
      </trkpt>
      <trkpt lat="0" lon="0">
        <time>2021-02-28T08:42:29.535000+00:00</time>
      </trkpt>
      <trkpt lat="47.32195" lon="-1.4059">
        <ele>123</ele>
        <time>2021-02-28T08:42:30.511000+00:00</time>
      </trkpt>
      <trkpt lat="0" lon="0">
        <time>2021-02-28T08:42:30.517000+00:00</time>
      </trkpt>
      <trkpt lat="0" lon="0">
        <time>2021-02-28T08:42:30.521000+00:00</time>
      </trkpt>
      <trkpt lat="0" lon="0">
        <time>2021-02-28T08:42:30.524000+00:00</time>
      </trkpt>
      <trkpt lat="47.3219" lon="-1.40589">
        <ele>123</ele>
        <time>2021-02-28T08:42:31.553000+00:00</time>
      </trkpt>
      <trkpt lat="0" lon="0">
        <time>2021-02-28T08:42:31.561000+00:00</time>
      </trkpt>
      <trkpt lat="0" lon="0">
        <time>2021-02-28T08:42:31.567000+00:00</time>
      </trkpt>
      <trkpt lat="0" lon="0">
        <time>2021-02-28T08:42:31.571000+00:00</time>
      </trkpt>
      <trkpt lat="47.32185" lon="-1.40587">
        <ele>123</ele>
        <time>2021-02-28T08:42:32.556000+00:00</time>
      </trkpt>
      <trkpt lat="0" lon="0">
        <time>2021-02-28T08:42:32.569000+00:00</time>
      </trkpt>
      <trkpt lat="0" lon="0">
        <time>2021-02-28T08:42:32.574000+00:00</time>
      </trkpt>
      <trkpt lat="0" lon="0">
        <time>2021-02-28T08:42:32.577000+00:00</time>
      </trkpt>
      <trkpt lat="47.3218" lon="-1.40586">
        <ele>123</ele>
        <time>2021-02-28T08:42:33.509000+00:00</time>
      </trkpt>
      <trkpt lat="0" lon="0">
        <time>2021-02-28T08:42:33.516000+00:00</time>
      </trkpt>
      <trkpt lat="0" lon="0">
        <time>2021-02-28T08:42:33.520000+00:00</time>
      </trkpt>
      <trkpt lat="0" lon="0">
        <time>2021-02-28T08:42:33.522000+00:00</time>
      </trkpt>
      <trkpt lat="47.32175" lon="-1.40585">
        <ele>123</ele>
        <time>2021-02-28T08:42:34.473000+00:00</time>
      </trkpt>
      <trkpt lat="0" lon="0">
        <time>2021-02-28T08:42:34.478000+00:00</time>
      </trkpt>
      <trkpt lat="0" lon="0">
        <time>2021-02-28T08:42:34.484000+00:00</time>
      </trkpt>
      <trkpt lat="0" lon="0">
        <time>2021-02-28T08:42:34.487000+00:00</time>
      </trkpt>
      <trkpt lat="47.3217" lon="-1.40583">
        <ele>123</ele>
        <time>2021-02-28T08:42:35.542000+00:00</time>
      </trkpt>
      <trkpt lat="0" lon="0">
        <time>2021-02-28T08:42:35.549000+00:00</time>
      </trkpt>
      <trkpt lat="0" lon="0">
        <time>2021-02-28T08:42:35.554000+00:00</time>
      </trkpt>
      <trkpt lat="0" lon="0">
        <time>2021-02-28T08:42:35.558000+00:00</time>
      </trkpt>
      <trkpt lat="47.32165" lon="-1.40582">
        <ele>123</ele>
        <time>2021-02-28T08:42:36.515000+00:00</time>
      </trkpt>
      <trkpt lat="0" lon="0">
        <time>2021-02-28T08:42:36.519000+00:00</time>
      </trkpt>
      <trkpt lat="0" lon="0">
        <time>2021-02-28T08:42:36.524000+00:00</time>
      </trkpt>
      <trkpt lat="0" lon="0">
        <time>2021-02-28T08:42:36.527000+00:00</time>
      </trkpt>
      <trkpt lat="47.3216" lon="-1.4058">
        <ele>123</ele>
        <time>2021-02-28T08:42:37.538000+00:00</time>
      </trkpt>
      <trkpt lat="0" lon="0">
        <time>2021-02-28T08:42:37.545000+00:00</time>
      </trkpt>
      <trkpt lat="0" lon="0">
        <time>2021-02-28T08:42:37.550000+00:00</time>
      </trkpt>
      <trkpt lat="0" lon="0">
        <time>2021-02-28T08:42:37.553000+00:00</time>
      </trkpt>
      <trkpt lat="47.32155" lon="-1.40578">
        <ele>122</ele>
        <time>2021-02-28T08:42:38.502000+00:00</time>
      </trkpt>
      <trkpt lat="0" lon="0">
        <time>2021-02-28T08:42:38.510000+00:00</time>
      </trkpt>
      <trkpt lat="0" lon="0">
        <time>2021-02-28T08:42:38.515000+00:00</time>
      </trkpt>
      <trkpt lat="0" lon="0">
        <time>2021-02-28T08:42:38.518000+00:00</time>
      </trkpt>
      <trkpt lat="47.3215" lon="-1.40577">
        <ele>122</ele>
        <time>2021-02-28T08:42:39.485000+00:00</time>
      </trkpt>
      <trkpt lat="0" lon="0">
        <time>2021-02-28T08:42:39.492000+00:00</time>
      </trkpt>
      <trkpt lat="0" lon="0">
        <time>2021-02-28T08:42:39.496000+00:00</time>
      </trkpt>
      <trkpt lat="0" lon="0">
        <time>2021-02-28T08:42:39.499000+00:00</time>
      </trkpt>
      <trkpt lat="47.32144" lon="-1.40575">
        <ele>122</ele>
        <time>2021-02-28T08:42:40.527000+00:00</time>
      </trkpt>
      <trkpt lat="0" lon="0">
        <time>2021-02-28T08:42:40.540000+00:00</time>
      </trkpt>
      <trkpt lat="0" lon="0">
        <time>2021-02-28T08:42:40.546000+00:00</time>
      </trkpt>
      <trkpt lat="0" lon="0">
        <time>2021-02-28T08:42:40.550000+00:00</time>
      </trkpt>
      <trkpt lat="47.32139" lon="-1.40574">
        <ele>123</ele>
        <time>2021-02-28T08:42:41.527000+00:00</time>
      </trkpt>
      <trkpt lat="0" lon="0">
        <time>2021-02-28T08:42:41.546000+00:00</time>
      </trkpt>
      <trkpt lat="0" lon="0">
        <time>2021-02-28T08:42:41.552000+00:00</time>
      </trkpt>
      <trkpt lat="0" lon="0">
        <time>2021-02-28T08:42:41.559000+00:00</time>
      </trkpt>
      <trkpt lat="47.32134" lon="-1.40573">
        <ele>123</ele>
        <time>2021-02-28T08:42:42.537000+00:00</time>
      </trkpt>
      <trkpt lat="0" lon="0">
        <time>2021-02-28T08:42:42.547000+00:00</time>
      </trkpt>
      <trkpt lat="0" lon="0">
        <time>2021-02-28T08:42:42.552000+00:00</time>
      </trkpt>
      <trkpt lat="0" lon="0">
        <time>2021-02-28T08:42:42.555000+00:00</time>
      </trkpt>
      <trkpt lat="47.32129" lon="-1.40572">
        <ele>123</ele>
        <time>2021-02-28T08:42:43.510000+00:00</time>
      </trkpt>
      <trkpt lat="0" lon="0">
        <time>2021-02-28T08:42:43.515000+00:00</time>
      </trkpt>
      <trkpt lat="0" lon="0">
        <time>2021-02-28T08:42:43.519000+00:00</time>
      </trkpt>
      <trkpt lat="0" lon="0">
        <time>2021-02-28T08:42:43.522000+00:00</time>
      </trkpt>
      <trkpt lat="47.32124" lon="-1.40571">
        <ele>123</ele>
        <time>2021-02-28T08:42:44.506000+00:00</time>
      </trkpt>
      <trkpt lat="0" lon="0">
        <time>2021-02-28T08:42:44.513000+00:00</time>
      </trkpt>
      <trkpt lat="0" lon="0">
        <time>2021-02-28T08:42:44.518000+00:00</time>
      </trkpt>
      <trkpt lat="0" lon="0">
        <time>2021-02-28T08:42:44.521000+00:00</time>
      </trkpt>
      <trkpt lat="47.3212" lon="-1.4057">
        <ele>123</ele>
        <time>2021-02-28T08:42:45.499000+00:00</time>
      </trkpt>
      <trkpt lat="0" lon="0">
        <time>2021-02-28T08:42:45.505000+00:00</time>
      </trkpt>
      <trkpt lat="0" lon="0">
        <time>2021-02-28T08:42:45.511000+00:00</time>
      </trkpt>
      <trkpt lat="0" lon="0">
        <time>2021-02-28T08:42:45.514000+00:00</time>
      </trkpt>
      <trkpt lat="47.32115" lon="-1.40569">
        <ele>123</ele>
        <time>2021-02-28T08:42:46.466000+00:00</time>
      </trkpt>
      <trkpt lat="0" lon="0">
        <time>2021-02-28T08:42:46.478000+00:00</time>
      </trkpt>
      <trkpt lat="0" lon="0">
        <time>2021-02-28T08:42:46.483000+00:00</time>
      </trkpt>
      <trkpt lat="0" lon="0">
        <time>2021-02-28T08:42:46.486000+00:00</time>
      </trkpt>
      <trkpt lat="47.32111" lon="-1.40568">
        <ele>123</ele>
        <time>2021-02-28T08:42:47.528000+00:00</time>
      </trkpt>
      <trkpt lat="0" lon="0">
        <time>2021-02-28T08:42:47.539000+00:00</time>
      </trkpt>
      <trkpt lat="0" lon="0">
        <time>2021-02-28T08:42:47.543000+00:00</time>
      </trkpt>
      <trkpt lat="0" lon="0">
        <time>2021-02-28T08:42:47.545000+00:00</time>
      </trkpt>
      <trkpt lat="47.32107" lon="-1.40566">
        <ele>123</ele>
        <time>2021-02-28T08:42:48.511000+00:00</time>
      </trkpt>
      <trkpt lat="0" lon="0">
        <time>2021-02-28T08:42:48.523000+00:00</time>
      </trkpt>
      <trkpt lat="0" lon="0">
        <time>2021-02-28T08:42:48.531000+00:00</time>
      </trkpt>
      <trkpt lat="0" lon="0">
        <time>2021-02-28T08:42:48.533000+00:00</time>
      </trkpt>
      <trkpt lat="47.32104" lon="-1.40566">
        <ele>123</ele>
        <time>2021-02-28T08:42:49.522000+00:00</time>
      </trkpt>
      <trkpt lat="0" lon="0">
        <time>2021-02-28T08:42:49.529000+00:00</time>
      </trkpt>
      <trkpt lat="0" lon="0">
        <time>2021-02-28T08:42:49.535000+00:00</time>
      </trkpt>
      <trkpt lat="0" lon="0">
        <time>2021-02-28T08:42:49.538000+00:00</time>
      </trkpt>
      <trkpt lat="47.32101" lon="-1.40565">
        <ele>123</ele>
        <time>2021-02-28T08:42:50.519000+00:00</time>
      </trkpt>
      <trkpt lat="0" lon="0">
        <time>2021-02-28T08:42:50.523000+00:00</time>
      </trkpt>
      <trkpt lat="0" lon="0">
        <time>2021-02-28T08:42:50.528000+00:00</time>
      </trkpt>
      <trkpt lat="0" lon="0">
        <time>2021-02-28T08:42:50.530000+00:00</time>
      </trkpt>
      <trkpt lat="47.32099" lon="-1.40565">
        <ele>123</ele>
        <time>2021-02-28T08:42:51.491000+00:00</time>
      </trkpt>
      <trkpt lat="0" lon="0">
        <time>2021-02-28T08:42:51.503000+00:00</time>
      </trkpt>
      <trkpt lat="0" lon="0">
        <time>2021-02-28T08:42:51.511000+00:00</time>
      </trkpt>
      <trkpt lat="0" lon="0">
        <time>2021-02-28T08:42:51.516000+00:00</time>
      </trkpt>
      <trkpt lat="47.32097" lon="-1.40566">
        <ele>123</ele>
        <time>2021-02-28T08:42:52.511000+00:00</time>
      </trkpt>
      <trkpt lat="0" lon="0">
        <time>2021-02-28T08:42:52.522000+00:00</time>
      </trkpt>
      <trkpt lat="0" lon="0">
        <time>2021-02-28T08:42:52.527000+00:00</time>
      </trkpt>
      <trkpt lat="0" lon="0">
        <time>2021-02-28T08:42:52.530000+00:00</time>
      </trkpt>
      <trkpt lat="47.32095" lon="-1.40566">
        <ele>123</ele>
        <time>2021-02-28T08:42:53.518000+00:00</time>
      </trkpt>
      <trkpt lat="0" lon="0">
        <time>2021-02-28T08:42:53.526000+00:00</time>
      </trkpt>
      <trkpt lat="0" lon="0">
        <time>2021-02-28T08:42:53.531000+00:00</time>
      </trkpt>
      <trkpt lat="0" lon="0">
        <time>2021-02-28T08:42:53.533000+00:00</time>
      </trkpt>
      <trkpt lat="47.32094" lon="-1.40565">
        <ele>124</ele>
        <time>2021-02-28T08:42:54.488000+00:00</time>
      </trkpt>
      <trkpt lat="0" lon="0">
        <time>2021-02-28T08:42:54.493000+00:00</time>
      </trkpt>
      <trkpt lat="0" lon="0">
        <time>2021-02-28T08:42:54.498000+00:00</time>
      </trkpt>
      <trkpt lat="0" lon="0">
        <time>2021-02-28T08:42:54.500000+00:00</time>
      </trkpt>
      <trkpt lat="47.32094" lon="-1.40565">
        <ele>124</ele>
        <time>2021-02-28T08:42:55.528000+00:00</time>
      </trkpt>
      <trkpt lat="0" lon="0">
        <time>2021-02-28T08:42:55.536000+00:00</time>
      </trkpt>
      <trkpt lat="0" lon="0">
        <time>2021-02-28T08:42:55.542000+00:00</time>
      </trkpt>
      <trkpt lat="0" lon="0">
        <time>2021-02-28T08:42:55.545000+00:00</time>
      </trkpt>
      <trkpt lat="47.32095" lon="-1.40565">
        <ele>124</ele>
        <time>2021-02-28T08:42:56.497000+00:00</time>
      </trkpt>
      <trkpt lat="0" lon="0">
        <time>2021-02-28T08:42:56.504000+00:00</time>
      </trkpt>
      <trkpt lat="0" lon="0">
        <time>2021-02-28T08:42:56.509000+00:00</time>
      </trkpt>
      <trkpt lat="0" lon="0">
        <time>2021-02-28T08:42:56.512000+00:00</time>
      </trkpt>
      <trkpt lat="47.32096" lon="-1.40566">
        <ele>124</ele>
        <time>2021-02-28T08:42:57.499000+00:00</time>
      </trkpt>
      <trkpt lat="0" lon="0">
        <time>2021-02-28T08:42:57.505000+00:00</time>
      </trkpt>
      <trkpt lat="0" lon="0">
        <time>2021-02-28T08:42:57.511000+00:00</time>
      </trkpt>
      <trkpt lat="0" lon="0">
        <time>2021-02-28T08:42:57.513000+00:00</time>
      </trkpt>
      <trkpt lat="47.32099" lon="-1.40567">
        <ele>124</ele>
        <time>2021-02-28T08:42:58.492000+00:00</time>
      </trkpt>
      <trkpt lat="0" lon="0">
        <time>2021-02-28T08:42:58.497000+00:00</time>
      </trkpt>
      <trkpt lat="0" lon="0">
        <time>2021-02-28T08:42:58.502000+00:00</time>
      </trkpt>
      <trkpt lat="0" lon="0">
        <time>2021-02-28T08:42:58.504000+00:00</time>
      </trkpt>
      <trkpt lat="47.32101" lon="-1.40568">
        <ele>124</ele>
        <time>2021-02-28T08:42:59.480000+00:00</time>
      </trkpt>
      <trkpt lat="0" lon="0">
        <time>2021-02-28T08:42:59.491000+00:00</time>
      </trkpt>
      <trkpt lat="0" lon="0">
        <time>2021-02-28T08:42:59.496000+00:00</time>
      </trkpt>
      <trkpt lat="0" lon="0">
        <time>2021-02-28T08:42:59.498000+00:00</time>
      </trkpt>
      <trkpt lat="47.32105" lon="-1.4057">
        <ele>124</ele>
        <time>2021-02-28T08:43:00.538000+00:00</time>
      </trkpt>
      <trkpt lat="0" lon="0">
        <time>2021-02-28T08:43:00.546000+00:00</time>
      </trkpt>
      <trkpt lat="0" lon="0">
        <time>2021-02-28T08:43:00.551000+00:00</time>
      </trkpt>
      <trkpt lat="0" lon="0">
        <time>2021-02-28T08:43:00.555000+00:00</time>
      </trkpt>
      <trkpt lat="47.32108" lon="-1.40572">
        <ele>124</ele>
        <time>2021-02-28T08:43:01.533000+00:00</time>
      </trkpt>
      <trkpt lat="0" lon="0">
        <time>2021-02-28T08:43:01.545000+00:00</time>
      </trkpt>
      <trkpt lat="0" lon="0">
        <time>2021-02-28T08:43:01.551000+00:00</time>
      </trkpt>
      <trkpt lat="0" lon="0">
        <time>2021-02-28T08:43:01.561000+00:00</time>
      </trkpt>
      <trkpt lat="47.32129" lon="-1.4059">
        <ele>124</ele>
        <time>2021-02-28T08:43:02.579000+00:00</time>
      </trkpt>
      <trkpt lat="0" lon="0">
        <time>2021-02-28T08:43:02.583000+00:00</time>
      </trkpt>
      <trkpt lat="0" lon="0">
        <time>2021-02-28T08:43:02.588000+00:00</time>
      </trkpt>
      <trkpt lat="0" lon="0">
        <time>2021-02-28T08:43:02.590000+00:00</time>
      </trkpt>
      <trkpt lat="47.32134" lon="-1.40595">
        <ele>124</ele>
        <time>2021-02-28T08:43:03.523000+00:00</time>
      </trkpt>
      <trkpt lat="0" lon="0">
        <time>2021-02-28T08:43:03.528000+00:00</time>
      </trkpt>
      <trkpt lat="0" lon="0">
        <time>2021-02-28T08:43:03.533000+00:00</time>
      </trkpt>
      <trkpt lat="0" lon="0">
        <time>2021-02-28T08:43:03.538000+00:00</time>
      </trkpt>
      <trkpt lat="47.32138" lon="-1.406">
        <ele>124</ele>
        <time>2021-02-28T08:43:04.560000+00:00</time>
      </trkpt>
      <trkpt lat="0" lon="0">
        <time>2021-02-28T08:43:04.565000+00:00</time>
      </trkpt>
      <trkpt lat="0" lon="0">
        <time>2021-02-28T08:43:04.570000+00:00</time>
      </trkpt>
      <trkpt lat="0" lon="0">
        <time>2021-02-28T08:43:04.572000+00:00</time>
      </trkpt>
      <trkpt lat="47.32143" lon="-1.40606">
        <ele>125</ele>
        <time>2021-02-28T08:43:05.538000+00:00</time>
      </trkpt>
      <trkpt lat="0" lon="0">
        <time>2021-02-28T08:43:05.547000+00:00</time>
      </trkpt>
      <trkpt lat="0" lon="0">
        <time>2021-02-28T08:43:05.552000+00:00</time>
      </trkpt>
      <trkpt lat="0" lon="0">
        <time>2021-02-28T08:43:05.554000+00:00</time>
      </trkpt>
      <trkpt lat="47.32147" lon="-1.40611">
        <ele>125</ele>
        <time>2021-02-28T08:43:06.485000+00:00</time>
      </trkpt>
      <trkpt lat="0" lon="0">
        <time>2021-02-28T08:43:06.490000+00:00</time>
      </trkpt>
      <trkpt lat="0" lon="0">
        <time>2021-02-28T08:43:06.498000+00:00</time>
      </trkpt>
      <trkpt lat="0" lon="0">
        <time>2021-02-28T08:43:06.499000+00:00</time>
      </trkpt>
      <trkpt lat="47.32151" lon="-1.40617">
        <ele>125</ele>
        <time>2021-02-28T08:43:07.553000+00:00</time>
      </trkpt>
      <trkpt lat="0" lon="0">
        <time>2021-02-28T08:43:07.560000+00:00</time>
      </trkpt>
      <trkpt lat="0" lon="0">
        <time>2021-02-28T08:43:07.568000+00:00</time>
      </trkpt>
      <trkpt lat="0" lon="0">
        <time>2021-02-28T08:43:07.572000+00:00</time>
      </trkpt>
      <trkpt lat="47.32155" lon="-1.40623">
        <ele>126</ele>
        <time>2021-02-28T08:43:08.553000+00:00</time>
      </trkpt>
      <trkpt lat="0" lon="0">
        <time>2021-02-28T08:43:08.569000+00:00</time>
      </trkpt>
      <trkpt lat="0" lon="0">
        <time>2021-02-28T08:43:08.576000+00:00</time>
      </trkpt>
      <trkpt lat="0" lon="0">
        <time>2021-02-28T08:43:08.579000+00:00</time>
      </trkpt>
      <trkpt lat="47.32159" lon="-1.4063">
        <ele>126</ele>
        <time>2021-02-28T08:43:09.559000+00:00</time>
      </trkpt>
      <trkpt lat="0" lon="0">
        <time>2021-02-28T08:43:09.565000+00:00</time>
      </trkpt>
      <trkpt lat="0" lon="0">
        <time>2021-02-28T08:43:09.571000+00:00</time>
      </trkpt>
      <trkpt lat="0" lon="0">
        <time>2021-02-28T08:43:09.575000+00:00</time>
      </trkpt>
      <trkpt lat="47.32162" lon="-1.40636">
        <ele>126</ele>
        <time>2021-02-28T08:43:10.555000+00:00</time>
      </trkpt>
      <trkpt lat="0" lon="0">
        <time>2021-02-28T08:43:10.561000+00:00</time>
      </trkpt>
      <trkpt lat="0" lon="0">
        <time>2021-02-28T08:43:10.567000+00:00</time>
      </trkpt>
      <trkpt lat="0" lon="0">
        <time>2021-02-28T08:43:10.570000+00:00</time>
      </trkpt>
      <trkpt lat="47.32165" lon="-1.40643">
        <ele>126</ele>
        <time>2021-02-28T08:43:11.585000+00:00</time>
      </trkpt>
      <trkpt lat="0" lon="0">
        <time>2021-02-28T08:43:11.592000+00:00</time>
      </trkpt>
      <trkpt lat="0" lon="0">
        <time>2021-02-28T08:43:11.599000+00:00</time>
      </trkpt>
      <trkpt lat="0" lon="0">
        <time>2021-02-28T08:43:11.602000+00:00</time>
      </trkpt>
      <trkpt lat="47.32168" lon="-1.4065">
        <ele>125</ele>
        <time>2021-02-28T08:43:12.547000+00:00</time>
      </trkpt>
      <trkpt lat="0" lon="0">
        <time>2021-02-28T08:43:12.553000+00:00</time>
      </trkpt>
      <trkpt lat="0" lon="0">
        <time>2021-02-28T08:43:12.556000+00:00</time>
      </trkpt>
      <trkpt lat="0" lon="0">
        <time>2021-02-28T08:43:12.557000+00:00</time>
      </trkpt>
      <trkpt lat="47.32171" lon="-1.40657">
        <ele>126</ele>
        <time>2021-02-28T08:43:13.583000+00:00</time>
      </trkpt>
      <trkpt lat="0" lon="0">
        <time>2021-02-28T08:43:13.590000+00:00</time>
      </trkpt>
      <trkpt lat="0" lon="0">
        <time>2021-02-28T08:43:13.596000+00:00</time>
      </trkpt>
      <trkpt lat="0" lon="0">
        <time>2021-02-28T08:43:13.599000+00:00</time>
      </trkpt>
      <trkpt lat="47.32174" lon="-1.40664">
        <ele>126</ele>
        <time>2021-02-28T08:43:14.563000+00:00</time>
      </trkpt>
      <trkpt lat="0" lon="0">
        <time>2021-02-28T08:43:14.569000+00:00</time>
      </trkpt>
      <trkpt lat="0" lon="0">
        <time>2021-02-28T08:43:14.575000+00:00</time>
      </trkpt>
      <trkpt lat="0" lon="0">
        <time>2021-02-28T08:43:14.579000+00:00</time>
      </trkpt>
      <trkpt lat="47.32176" lon="-1.40671">
        <ele>125</ele>
        <time>2021-02-28T08:43:15.572000+00:00</time>
      </trkpt>
      <trkpt lat="0" lon="0">
        <time>2021-02-28T08:43:15.583000+00:00</time>
      </trkpt>
      <trkpt lat="0" lon="0">
        <time>2021-02-28T08:43:15.588000+00:00</time>
      </trkpt>
      <trkpt lat="0" lon="0">
        <time>2021-02-28T08:43:15.591000+00:00</time>
      </trkpt>
      <trkpt lat="47.32178" lon="-1.40679">
        <ele>125</ele>
        <time>2021-02-28T08:43:16.535000+00:00</time>
      </trkpt>
      <trkpt lat="0" lon="0">
        <time>2021-02-28T08:43:16.542000+00:00</time>
      </trkpt>
      <trkpt lat="0" lon="0">
        <time>2021-02-28T08:43:16.548000+00:00</time>
      </trkpt>
      <trkpt lat="0" lon="0">
        <time>2021-02-28T08:43:16.551000+00:00</time>
      </trkpt>
      <trkpt lat="47.3218" lon="-1.40687">
        <ele>125</ele>
        <time>2021-02-28T08:43:17.535000+00:00</time>
      </trkpt>
      <trkpt lat="0" lon="0">
        <time>2021-02-28T08:43:17.540000+00:00</time>
      </trkpt>
      <trkpt lat="0" lon="0">
        <time>2021-02-28T08:43:17.546000+00:00</time>
      </trkpt>
      <trkpt lat="0" lon="0">
        <time>2021-02-28T08:43:17.549000+00:00</time>
      </trkpt>
      <trkpt lat="47.32182" lon="-1.40694">
        <ele>125</ele>
        <time>2021-02-28T08:43:18.493000+00:00</time>
      </trkpt>
      <trkpt lat="0" lon="0">
        <time>2021-02-28T08:43:18.494000+00:00</time>
      </trkpt>
      <trkpt lat="0" lon="0">
        <time>2021-02-28T08:43:18.498000+00:00</time>
      </trkpt>
      <trkpt lat="0" lon="0">
        <time>2021-02-28T08:43:18.501000+00:00</time>
      </trkpt>
      <trkpt lat="47.32184" lon="-1.40701">
        <ele>125</ele>
        <time>2021-02-28T08:43:19.556000+00:00</time>
      </trkpt>
      <trkpt lat="0" lon="0">
        <time>2021-02-28T08:43:19.562000+00:00</time>
      </trkpt>
      <trkpt lat="0" lon="0">
        <time>2021-02-28T08:43:19.567000+00:00</time>
      </trkpt>
      <trkpt lat="0" lon="0">
        <time>2021-02-28T08:43:19.570000+00:00</time>
      </trkpt>
      <trkpt lat="47.32186" lon="-1.40708">
        <ele>125</ele>
        <time>2021-02-28T08:43:20.555000+00:00</time>
      </trkpt>
      <trkpt lat="0" lon="0">
        <time>2021-02-28T08:43:20.566000+00:00</time>
      </trkpt>
      <trkpt lat="0" lon="0">
        <time>2021-02-28T08:43:20.572000+00:00</time>
      </trkpt>
      <trkpt lat="0" lon="0">
        <time>2021-02-28T08:43:20.575000+00:00</time>
      </trkpt>
      <trkpt lat="47.32187" lon="-1.40716">
        <ele>125</ele>
        <time>2021-02-28T08:43:21.548000+00:00</time>
      </trkpt>
      <trkpt lat="0" lon="0">
        <time>2021-02-28T08:43:21.551000+00:00</time>
      </trkpt>
      <trkpt lat="0" lon="0">
        <time>2021-02-28T08:43:21.554000+00:00</time>
      </trkpt>
      <trkpt lat="0" lon="0">
        <time>2021-02-28T08:43:21.555000+00:00</time>
      </trkpt>
      <trkpt lat="47.32189" lon="-1.40723">
        <ele>125</ele>
        <time>2021-02-28T08:43:22.464000+00:00</time>
      </trkpt>
      <trkpt lat="0" lon="0">
        <time>2021-02-28T08:43:22.472000+00:00</time>
      </trkpt>
      <trkpt lat="0" lon="0">
        <time>2021-02-28T08:43:22.477000+00:00</time>
      </trkpt>
      <trkpt lat="0" lon="0">
        <time>2021-02-28T08:43:22.479000+00:00</time>
      </trkpt>
      <trkpt lat="47.32191" lon="-1.40729">
        <ele>124</ele>
        <time>2021-02-28T08:43:23.535000+00:00</time>
      </trkpt>
      <trkpt lat="0" lon="0">
        <time>2021-02-28T08:43:23.541000+00:00</time>
      </trkpt>
      <trkpt lat="0" lon="0">
        <time>2021-02-28T08:43:23.546000+00:00</time>
      </trkpt>
      <trkpt lat="0" lon="0">
        <time>2021-02-28T08:43:23.548000+00:00</time>
      </trkpt>
      <trkpt lat="47.32193" lon="-1.40736">
        <ele>125</ele>
        <time>2021-02-28T08:43:24.565000+00:00</time>
      </trkpt>
      <trkpt lat="0" lon="0">
        <time>2021-02-28T08:43:24.575000+00:00</time>
      </trkpt>
      <trkpt lat="0" lon="0">
        <time>2021-02-28T08:43:24.580000+00:00</time>
      </trkpt>
      <trkpt lat="0" lon="0">
        <time>2021-02-28T08:43:24.582000+00:00</time>
      </trkpt>
      <trkpt lat="47.32194" lon="-1.40743">
        <ele>125</ele>
        <time>2021-02-28T08:43:25.562000+00:00</time>
      </trkpt>
      <trkpt lat="0" lon="0">
        <time>2021-02-28T08:43:25.573000+00:00</time>
      </trkpt>
      <trkpt lat="0" lon="0">
        <time>2021-02-28T08:43:25.579000+00:00</time>
      </trkpt>
      <trkpt lat="0" lon="0">
        <time>2021-02-28T08:43:25.582000+00:00</time>
      </trkpt>
      <trkpt lat="47.32196" lon="-1.4075">
        <ele>125</ele>
        <time>2021-02-28T08:43:26.543000+00:00</time>
      </trkpt>
      <trkpt lat="0" lon="0">
        <time>2021-02-28T08:43:26.557000+00:00</time>
      </trkpt>
      <trkpt lat="0" lon="0">
        <time>2021-02-28T08:43:26.564000+00:00</time>
      </trkpt>
      <trkpt lat="0" lon="0">
        <time>2021-02-28T08:43:26.569000+00:00</time>
      </trkpt>
      <trkpt lat="47.32197" lon="-1.40757">
        <ele>125</ele>
        <time>2021-02-28T08:43:27.512000+00:00</time>
      </trkpt>
      <trkpt lat="0" lon="0">
        <time>2021-02-28T08:43:27.519000+00:00</time>
      </trkpt>
      <trkpt lat="0" lon="0">
        <time>2021-02-28T08:43:27.524000+00:00</time>
      </trkpt>
      <trkpt lat="0" lon="0">
        <time>2021-02-28T08:43:27.528000+00:00</time>
      </trkpt>
      <trkpt lat="47.32199" lon="-1.40764">
        <ele>124</ele>
        <time>2021-02-28T08:43:28.535000+00:00</time>
      </trkpt>
      <trkpt lat="0" lon="0">
        <time>2021-02-28T08:43:28.544000+00:00</time>
      </trkpt>
      <trkpt lat="0" lon="0">
        <time>2021-02-28T08:43:28.549000+00:00</time>
      </trkpt>
      <trkpt lat="0" lon="0">
        <time>2021-02-28T08:43:28.551000+00:00</time>
      </trkpt>
      <trkpt lat="47.322" lon="-1.40771">
        <ele>124</ele>
        <time>2021-02-28T08:43:29.567000+00:00</time>
      </trkpt>
      <trkpt lat="0" lon="0">
        <time>2021-02-28T08:43:29.573000+00:00</time>
      </trkpt>
      <trkpt lat="0" lon="0">
        <time>2021-02-28T08:43:29.578000+00:00</time>
      </trkpt>
      <trkpt lat="0" lon="0">
        <time>2021-02-28T08:43:29.580000+00:00</time>
      </trkpt>
      <trkpt lat="47.32202" lon="-1.40778">
        <ele>124</ele>
        <time>2021-02-28T08:43:30.552000+00:00</time>
      </trkpt>
      <trkpt lat="0" lon="0">
        <time>2021-02-28T08:43:30.563000+00:00</time>
      </trkpt>
      <trkpt lat="0" lon="0">
        <time>2021-02-28T08:43:30.568000+00:00</time>
      </trkpt>
      <trkpt lat="0" lon="0">
        <time>2021-02-28T08:43:30.573000+00:00</time>
      </trkpt>
      <trkpt lat="47.32204" lon="-1.40785">
        <ele>124</ele>
        <time>2021-02-28T08:43:31.533000+00:00</time>
      </trkpt>
      <trkpt lat="0" lon="0">
        <time>2021-02-28T08:43:31.547000+00:00</time>
      </trkpt>
      <trkpt lat="0" lon="0">
        <time>2021-02-28T08:43:31.555000+00:00</time>
      </trkpt>
      <trkpt lat="0" lon="0">
        <time>2021-02-28T08:43:31.557000+00:00</time>
      </trkpt>
      <trkpt lat="47.32206" lon="-1.40793">
        <ele>125</ele>
        <time>2021-02-28T08:43:32.531000+00:00</time>
      </trkpt>
      <trkpt lat="0" lon="0">
        <time>2021-02-28T08:43:32.540000+00:00</time>
      </trkpt>
      <trkpt lat="0" lon="0">
        <time>2021-02-28T08:43:32.548000+00:00</time>
      </trkpt>
      <trkpt lat="0" lon="0">
        <time>2021-02-28T08:43:32.550000+00:00</time>
      </trkpt>
      <trkpt lat="47.32208" lon="-1.40801">
        <ele>125</ele>
        <time>2021-02-28T08:43:33.570000+00:00</time>
      </trkpt>
      <trkpt lat="0" lon="0">
        <time>2021-02-28T08:43:33.578000+00:00</time>
      </trkpt>
      <trkpt lat="0" lon="0">
        <time>2021-02-28T08:43:33.587000+00:00</time>
      </trkpt>
      <trkpt lat="0" lon="0">
        <time>2021-02-28T08:43:33.590000+00:00</time>
      </trkpt>
      <trkpt lat="47.3221" lon="-1.40809">
        <ele>125</ele>
        <time>2021-02-28T08:43:34.551000+00:00</time>
      </trkpt>
      <trkpt lat="0" lon="0">
        <time>2021-02-28T08:43:34.553000+00:00</time>
      </trkpt>
      <trkpt lat="0" lon="0">
        <time>2021-02-28T08:43:34.556000+00:00</time>
      </trkpt>
      <trkpt lat="0" lon="0">
        <time>2021-02-28T08:43:34.557000+00:00</time>
      </trkpt>
      <trkpt lat="47.32212" lon="-1.40817">
        <ele>125</ele>
        <time>2021-02-28T08:43:35.523000+00:00</time>
      </trkpt>
      <trkpt lat="0" lon="0">
        <time>2021-02-28T08:43:35.534000+00:00</time>
      </trkpt>
      <trkpt lat="0" lon="0">
        <time>2021-02-28T08:43:35.539000+00:00</time>
      </trkpt>
      <trkpt lat="0" lon="0">
        <time>2021-02-28T08:43:35.542000+00:00</time>
      </trkpt>
      <trkpt lat="47.32214" lon="-1.40825">
        <ele>125</ele>
        <time>2021-02-28T08:43:36.578000+00:00</time>
      </trkpt>
      <trkpt lat="0" lon="0">
        <time>2021-02-28T08:43:36.590000+00:00</time>
      </trkpt>
      <trkpt lat="0" lon="0">
        <time>2021-02-28T08:43:36.594000+00:00</time>
      </trkpt>
      <trkpt lat="0" lon="0">
        <time>2021-02-28T08:43:36.596000+00:00</time>
      </trkpt>
      <trkpt lat="47.32216" lon="-1.40833">
        <ele>124</ele>
        <time>2021-02-28T08:43:37.523000+00:00</time>
      </trkpt>
      <trkpt lat="0" lon="0">
        <time>2021-02-28T08:43:37.535000+00:00</time>
      </trkpt>
      <trkpt lat="0" lon="0">
        <time>2021-02-28T08:43:37.542000+00:00</time>
      </trkpt>
      <trkpt lat="0" lon="0">
        <time>2021-02-28T08:43:37.544000+00:00</time>
      </trkpt>
      <trkpt lat="47.32219" lon="-1.40841">
        <ele>124</ele>
        <time>2021-02-28T08:43:38.530000+00:00</time>
      </trkpt>
      <trkpt lat="0" lon="0">
        <time>2021-02-28T08:43:38.537000+00:00</time>
      </trkpt>
      <trkpt lat="0" lon="0">
        <time>2021-02-28T08:43:38.543000+00:00</time>
      </trkpt>
      <trkpt lat="0" lon="0">
        <time>2021-02-28T08:43:38.545000+00:00</time>
      </trkpt>
      <trkpt lat="47.32222" lon="-1.4085">
        <ele>124</ele>
        <time>2021-02-28T08:43:39.514000+00:00</time>
      </trkpt>
      <trkpt lat="0" lon="0">
        <time>2021-02-28T08:43:39.534000+00:00</time>
      </trkpt>
      <trkpt lat="0" lon="0">
        <time>2021-02-28T08:43:39.540000+00:00</time>
      </trkpt>
      <trkpt lat="0" lon="0">
        <time>2021-02-28T08:43:39.543000+00:00</time>
      </trkpt>
      <trkpt lat="47.32224" lon="-1.40859">
        <ele>124</ele>
        <time>2021-02-28T08:43:40.461000+00:00</time>
      </trkpt>
      <trkpt lat="0" lon="0">
        <time>2021-02-28T08:43:40.471000+00:00</time>
      </trkpt>
      <trkpt lat="0" lon="0">
        <time>2021-02-28T08:43:40.475000+00:00</time>
      </trkpt>
      <trkpt lat="0" lon="0">
        <time>2021-02-28T08:43:40.477000+00:00</time>
      </trkpt>
      <trkpt lat="47.32227" lon="-1.40868">
        <ele>124</ele>
        <time>2021-02-28T08:43:41.510000+00:00</time>
      </trkpt>
      <trkpt lat="0" lon="0">
        <time>2021-02-28T08:43:41.517000+00:00</time>
      </trkpt>
      <trkpt lat="0" lon="0">
        <time>2021-02-28T08:43:41.521000+00:00</time>
      </trkpt>
      <trkpt lat="0" lon="0">
        <time>2021-02-28T08:43:41.523000+00:00</time>
      </trkpt>
      <trkpt lat="47.32231" lon="-1.40877">
        <ele>124</ele>
        <time>2021-02-28T08:43:42.523000+00:00</time>
      </trkpt>
      <trkpt lat="0" lon="0">
        <time>2021-02-28T08:43:42.528000+00:00</time>
      </trkpt>
      <trkpt lat="0" lon="0">
        <time>2021-02-28T08:43:42.532000+00:00</time>
      </trkpt>
      <trkpt lat="0" lon="0">
        <time>2021-02-28T08:43:42.535000+00:00</time>
      </trkpt>
      <trkpt lat="47.32234" lon="-1.40886">
        <ele>123</ele>
        <time>2021-02-28T08:43:43.519000+00:00</time>
      </trkpt>
      <trkpt lat="0" lon="0">
        <time>2021-02-28T08:43:43.530000+00:00</time>
      </trkpt>
      <trkpt lat="0" lon="0">
        <time>2021-02-28T08:43:43.535000+00:00</time>
      </trkpt>
      <trkpt lat="0" lon="0">
        <time>2021-02-28T08:43:43.538000+00:00</time>
      </trkpt>
      <trkpt lat="47.32237" lon="-1.40895">
        <ele>123</ele>
        <time>2021-02-28T08:43:44.520000+00:00</time>
      </trkpt>
      <trkpt lat="0" lon="0">
        <time>2021-02-28T08:43:44.525000+00:00</time>
      </trkpt>
      <trkpt lat="0" lon="0">
        <time>2021-02-28T08:43:44.530000+00:00</time>
      </trkpt>
      <trkpt lat="0" lon="0">
        <time>2021-02-28T08:43:44.533000+00:00</time>
      </trkpt>
      <trkpt lat="47.32241" lon="-1.40904">
        <ele>123</ele>
        <time>2021-02-28T08:43:45.563000+00:00</time>
      </trkpt>
      <trkpt lat="0" lon="0">
        <time>2021-02-28T08:43:45.570000+00:00</time>
      </trkpt>
      <trkpt lat="0" lon="0">
        <time>2021-02-28T08:43:45.577000+00:00</time>
      </trkpt>
      <trkpt lat="0" lon="0">
        <time>2021-02-28T08:43:45.581000+00:00</time>
      </trkpt>
      <trkpt lat="47.32244" lon="-1.40912">
        <ele>123</ele>
        <time>2021-02-28T08:43:46.564000+00:00</time>
      </trkpt>
      <trkpt lat="0" lon="0">
        <time>2021-02-28T08:43:46.576000+00:00</time>
      </trkpt>
      <trkpt lat="0" lon="0">
        <time>2021-02-28T08:43:46.580000+00:00</time>
      </trkpt>
      <trkpt lat="0" lon="0">
        <time>2021-02-28T08:43:46.582000+00:00</time>
      </trkpt>
      <trkpt lat="47.32247" lon="-1.4092">
        <ele>123</ele>
        <time>2021-02-28T08:43:47.569000+00:00</time>
      </trkpt>
      <trkpt lat="0" lon="0">
        <time>2021-02-28T08:43:47.575000+00:00</time>
      </trkpt>
      <trkpt lat="0" lon="0">
        <time>2021-02-28T08:43:47.582000+00:00</time>
      </trkpt>
      <trkpt lat="0" lon="0">
        <time>2021-02-28T08:43:47.586000+00:00</time>
      </trkpt>
      <trkpt lat="47.32249" lon="-1.40929">
        <ele>123</ele>
        <time>2021-02-28T08:43:48.527000+00:00</time>
      </trkpt>
      <trkpt lat="0" lon="0">
        <time>2021-02-28T08:43:48.538000+00:00</time>
      </trkpt>
      <trkpt lat="0" lon="0">
        <time>2021-02-28T08:43:48.544000+00:00</time>
      </trkpt>
      <trkpt lat="0" lon="0">
        <time>2021-02-28T08:43:48.547000+00:00</time>
      </trkpt>
      <trkpt lat="47.3225" lon="-1.40937">
        <ele>123</ele>
        <time>2021-02-28T08:43:49.543000+00:00</time>
      </trkpt>
      <trkpt lat="0" lon="0">
        <time>2021-02-28T08:43:49.558000+00:00</time>
      </trkpt>
      <trkpt lat="0" lon="0">
        <time>2021-02-28T08:43:49.564000+00:00</time>
      </trkpt>
      <trkpt lat="0" lon="0">
        <time>2021-02-28T08:43:49.567000+00:00</time>
      </trkpt>
      <trkpt lat="47.3225" lon="-1.40945">
        <ele>123</ele>
        <time>2021-02-28T08:43:50.559000+00:00</time>
      </trkpt>
      <trkpt lat="0" lon="0">
        <time>2021-02-28T08:43:50.565000+00:00</time>
      </trkpt>
      <trkpt lat="0" lon="0">
        <time>2021-02-28T08:43:50.567000+00:00</time>
      </trkpt>
      <trkpt lat="0" lon="0">
        <time>2021-02-28T08:43:50.568000+00:00</time>
      </trkpt>
      <trkpt lat="47.32249" lon="-1.40953">
        <ele>123</ele>
        <time>2021-02-28T08:43:51.543000+00:00</time>
      </trkpt>
      <trkpt lat="0" lon="0">
        <time>2021-02-28T08:43:51.551000+00:00</time>
      </trkpt>
      <trkpt lat="0" lon="0">
        <time>2021-02-28T08:43:51.556000+00:00</time>
      </trkpt>
      <trkpt lat="0" lon="0">
        <time>2021-02-28T08:43:51.559000+00:00</time>
      </trkpt>
      <trkpt lat="47.32247" lon="-1.40961">
        <ele>123</ele>
        <time>2021-02-28T08:43:52.549000+00:00</time>
      </trkpt>
      <trkpt lat="0" lon="0">
        <time>2021-02-28T08:43:52.558000+00:00</time>
      </trkpt>
      <trkpt lat="0" lon="0">
        <time>2021-02-28T08:43:52.564000+00:00</time>
      </trkpt>
      <trkpt lat="0" lon="0">
        <time>2021-02-28T08:43:52.566000+00:00</time>
      </trkpt>
      <trkpt lat="47.32243" lon="-1.40976">
        <ele>122</ele>
        <time>2021-02-28T08:43:54.545000+00:00</time>
      </trkpt>
      <trkpt lat="0" lon="0">
        <time>2021-02-28T08:43:54.551000+00:00</time>
      </trkpt>
      <trkpt lat="0" lon="0">
        <time>2021-02-28T08:43:54.556000+00:00</time>
      </trkpt>
      <trkpt lat="0" lon="0">
        <time>2021-02-28T08:43:54.561000+00:00</time>
      </trkpt>
      <trkpt lat="47.32238" lon="-1.40984">
        <ele>122</ele>
        <time>2021-02-28T08:43:55.543000+00:00</time>
      </trkpt>
      <trkpt lat="0" lon="0">
        <time>2021-02-28T08:43:55.551000+00:00</time>
      </trkpt>
      <trkpt lat="0" lon="0">
        <time>2021-02-28T08:43:55.555000+00:00</time>
      </trkpt>
      <trkpt lat="0" lon="0">
        <time>2021-02-28T08:43:55.557000+00:00</time>
      </trkpt>
      <trkpt lat="47.32233" lon="-1.40991">
        <ele>122</ele>
        <time>2021-02-28T08:43:56.564000+00:00</time>
      </trkpt>
      <trkpt lat="0" lon="0">
        <time>2021-02-28T08:43:56.569000+00:00</time>
      </trkpt>
      <trkpt lat="0" lon="0">
        <time>2021-02-28T08:43:56.573000+00:00</time>
      </trkpt>
      <trkpt lat="0" lon="0">
        <time>2021-02-28T08:43:56.581000+00:00</time>
      </trkpt>
      <trkpt lat="47.32228" lon="-1.40998">
        <ele>122</ele>
        <time>2021-02-28T08:43:57.553000+00:00</time>
      </trkpt>
      <trkpt lat="0" lon="0">
        <time>2021-02-28T08:43:57.559000+00:00</time>
      </trkpt>
      <trkpt lat="0" lon="0">
        <time>2021-02-28T08:43:57.563000+00:00</time>
      </trkpt>
      <trkpt lat="0" lon="0">
        <time>2021-02-28T08:43:57.565000+00:00</time>
      </trkpt>
      <trkpt lat="47.32224" lon="-1.41006">
        <ele>122</ele>
        <time>2021-02-28T08:43:58.527000+00:00</time>
      </trkpt>
      <trkpt lat="0" lon="0">
        <time>2021-02-28T08:43:58.535000+00:00</time>
      </trkpt>
      <trkpt lat="0" lon="0">
        <time>2021-02-28T08:43:58.542000+00:00</time>
      </trkpt>
      <trkpt lat="0" lon="0">
        <time>2021-02-28T08:43:58.546000+00:00</time>
      </trkpt>
      <trkpt lat="47.32219" lon="-1.41014">
        <ele>122</ele>
        <time>2021-02-28T08:43:59.553000+00:00</time>
      </trkpt>
      <trkpt lat="0" lon="0">
        <time>2021-02-28T08:43:59.564000+00:00</time>
      </trkpt>
      <trkpt lat="0" lon="0">
        <time>2021-02-28T08:43:59.569000+00:00</time>
      </trkpt>
      <trkpt lat="0" lon="0">
        <time>2021-02-28T08:43:59.571000+00:00</time>
      </trkpt>
      <trkpt lat="47.32215" lon="-1.41022">
        <ele>122</ele>
        <time>2021-02-28T08:44:00.529000+00:00</time>
      </trkpt>
      <trkpt lat="0" lon="0">
        <time>2021-02-28T08:44:00.544000+00:00</time>
      </trkpt>
      <trkpt lat="0" lon="0">
        <time>2021-02-28T08:44:00.547000+00:00</time>
      </trkpt>
      <trkpt lat="0" lon="0">
        <time>2021-02-28T08:44:00.549000+00:00</time>
      </trkpt>
      <trkpt lat="47.32211" lon="-1.4103">
        <ele>121</ele>
        <time>2021-02-28T08:44:01.549000+00:00</time>
      </trkpt>
      <trkpt lat="0" lon="0">
        <time>2021-02-28T08:44:01.557000+00:00</time>
      </trkpt>
      <trkpt lat="0" lon="0">
        <time>2021-02-28T08:44:01.562000+00:00</time>
      </trkpt>
      <trkpt lat="0" lon="0">
        <time>2021-02-28T08:44:01.565000+00:00</time>
      </trkpt>
      <trkpt lat="47.32207" lon="-1.41038">
        <ele>120</ele>
        <time>2021-02-28T08:44:02.569000+00:00</time>
      </trkpt>
      <trkpt lat="0" lon="0">
        <time>2021-02-28T08:44:02.574000+00:00</time>
      </trkpt>
      <trkpt lat="0" lon="0">
        <time>2021-02-28T08:44:02.579000+00:00</time>
      </trkpt>
      <trkpt lat="0" lon="0">
        <time>2021-02-28T08:44:02.581000+00:00</time>
      </trkpt>
      <trkpt lat="47.32203" lon="-1.41046">
        <ele>120</ele>
        <time>2021-02-28T08:44:03.542000+00:00</time>
      </trkpt>
      <trkpt lat="0" lon="0">
        <time>2021-02-28T08:44:03.550000+00:00</time>
      </trkpt>
      <trkpt lat="0" lon="0">
        <time>2021-02-28T08:44:03.555000+00:00</time>
      </trkpt>
      <trkpt lat="0" lon="0">
        <time>2021-02-28T08:44:03.558000+00:00</time>
      </trkpt>
      <trkpt lat="47.32199" lon="-1.41053">
        <ele>120</ele>
        <time>2021-02-28T08:44:04.557000+00:00</time>
      </trkpt>
      <trkpt lat="0" lon="0">
        <time>2021-02-28T08:44:04.572000+00:00</time>
      </trkpt>
      <trkpt lat="0" lon="0">
        <time>2021-02-28T08:44:04.577000+00:00</time>
      </trkpt>
      <trkpt lat="0" lon="0">
        <time>2021-02-28T08:44:04.580000+00:00</time>
      </trkpt>
      <trkpt lat="47.32196" lon="-1.4106">
        <ele>120</ele>
        <time>2021-02-28T08:44:05.549000+00:00</time>
      </trkpt>
      <trkpt lat="0" lon="0">
        <time>2021-02-28T08:44:05.559000+00:00</time>
      </trkpt>
      <trkpt lat="0" lon="0">
        <time>2021-02-28T08:44:05.564000+00:00</time>
      </trkpt>
      <trkpt lat="0" lon="0">
        <time>2021-02-28T08:44:05.567000+00:00</time>
      </trkpt>
      <trkpt lat="47.32192" lon="-1.41066">
        <ele>120</ele>
        <time>2021-02-28T08:44:06.542000+00:00</time>
      </trkpt>
      <trkpt lat="0" lon="0">
        <time>2021-02-28T08:44:06.552000+00:00</time>
      </trkpt>
      <trkpt lat="0" lon="0">
        <time>2021-02-28T08:44:06.560000+00:00</time>
      </trkpt>
      <trkpt lat="0" lon="0">
        <time>2021-02-28T08:44:06.566000+00:00</time>
      </trkpt>
      <trkpt lat="47.32188" lon="-1.41072">
        <ele>120</ele>
        <time>2021-02-28T08:44:07.580000+00:00</time>
      </trkpt>
      <trkpt lat="0" lon="0">
        <time>2021-02-28T08:44:07.588000+00:00</time>
      </trkpt>
      <trkpt lat="0" lon="0">
        <time>2021-02-28T08:44:07.594000+00:00</time>
      </trkpt>
      <trkpt lat="0" lon="0">
        <time>2021-02-28T08:44:07.597000+00:00</time>
      </trkpt>
      <trkpt lat="47.32184" lon="-1.41076">
        <ele>120</ele>
        <time>2021-02-28T08:44:08.562000+00:00</time>
      </trkpt>
      <trkpt lat="0" lon="0">
        <time>2021-02-28T08:44:08.568000+00:00</time>
      </trkpt>
      <trkpt lat="0" lon="0">
        <time>2021-02-28T08:44:08.574000+00:00</time>
      </trkpt>
      <trkpt lat="0" lon="0">
        <time>2021-02-28T08:44:08.576000+00:00</time>
      </trkpt>
      <trkpt lat="47.3218" lon="-1.4108">
        <ele>120</ele>
        <time>2021-02-28T08:44:09.550000+00:00</time>
      </trkpt>
      <trkpt lat="0" lon="0">
        <time>2021-02-28T08:44:09.563000+00:00</time>
      </trkpt>
      <trkpt lat="0" lon="0">
        <time>2021-02-28T08:44:09.567000+00:00</time>
      </trkpt>
      <trkpt lat="0" lon="0">
        <time>2021-02-28T08:44:09.569000+00:00</time>
      </trkpt>
      <trkpt lat="47.32175" lon="-1.41083">
        <ele>121</ele>
        <time>2021-02-28T08:44:10.541000+00:00</time>
      </trkpt>
      <trkpt lat="0" lon="0">
        <time>2021-02-28T08:44:10.546000+00:00</time>
      </trkpt>
      <trkpt lat="0" lon="0">
        <time>2021-02-28T08:44:10.550000+00:00</time>
      </trkpt>
      <trkpt lat="0" lon="0">
        <time>2021-02-28T08:44:10.553000+00:00</time>
      </trkpt>
      <trkpt lat="47.3217" lon="-1.41086">
        <ele>121</ele>
        <time>2021-02-28T08:44:11.556000+00:00</time>
      </trkpt>
      <trkpt lat="0" lon="0">
        <time>2021-02-28T08:44:11.568000+00:00</time>
      </trkpt>
      <trkpt lat="0" lon="0">
        <time>2021-02-28T08:44:11.576000+00:00</time>
      </trkpt>
      <trkpt lat="0" lon="0">
        <time>2021-02-28T08:44:11.580000+00:00</time>
      </trkpt>
      <trkpt lat="47.32165" lon="-1.41088">
        <ele>122</ele>
        <time>2021-02-28T08:44:12.559000+00:00</time>
      </trkpt>
      <trkpt lat="0" lon="0">
        <time>2021-02-28T08:44:12.571000+00:00</time>
      </trkpt>
      <trkpt lat="0" lon="0">
        <time>2021-02-28T08:44:12.577000+00:00</time>
      </trkpt>
      <trkpt lat="0" lon="0">
        <time>2021-02-28T08:44:12.580000+00:00</time>
      </trkpt>
      <trkpt lat="47.3216" lon="-1.41089">
        <ele>122</ele>
        <time>2021-02-28T08:44:13.531000+00:00</time>
      </trkpt>
      <trkpt lat="0" lon="0">
        <time>2021-02-28T08:44:13.539000+00:00</time>
      </trkpt>
      <trkpt lat="0" lon="0">
        <time>2021-02-28T08:44:13.544000+00:00</time>
      </trkpt>
      <trkpt lat="0" lon="0">
        <time>2021-02-28T08:44:13.548000+00:00</time>
      </trkpt>
      <trkpt lat="47.32155" lon="-1.41089">
        <ele>121</ele>
        <time>2021-02-28T08:44:14.559000+00:00</time>
      </trkpt>
      <trkpt lat="0" lon="0">
        <time>2021-02-28T08:44:14.564000+00:00</time>
      </trkpt>
      <trkpt lat="0" lon="0">
        <time>2021-02-28T08:44:14.571000+00:00</time>
      </trkpt>
      <trkpt lat="0" lon="0">
        <time>2021-02-28T08:44:14.574000+00:00</time>
      </trkpt>
      <trkpt lat="47.3215" lon="-1.41087">
        <ele>121</ele>
        <time>2021-02-28T08:44:15.523000+00:00</time>
      </trkpt>
      <trkpt lat="0" lon="0">
        <time>2021-02-28T08:44:15.530000+00:00</time>
      </trkpt>
      <trkpt lat="0" lon="0">
        <time>2021-02-28T08:44:15.535000+00:00</time>
      </trkpt>
      <trkpt lat="0" lon="0">
        <time>2021-02-28T08:44:15.538000+00:00</time>
      </trkpt>
      <trkpt lat="47.32145" lon="-1.41085">
        <ele>121</ele>
        <time>2021-02-28T08:44:16.548000+00:00</time>
      </trkpt>
      <trkpt lat="0" lon="0">
        <time>2021-02-28T08:44:16.559000+00:00</time>
      </trkpt>
      <trkpt lat="0" lon="0">
        <time>2021-02-28T08:44:16.563000+00:00</time>
      </trkpt>
      <trkpt lat="0" lon="0">
        <time>2021-02-28T08:44:16.565000+00:00</time>
      </trkpt>
      <trkpt lat="47.32141" lon="-1.41082">
        <ele>121</ele>
        <time>2021-02-28T08:44:17.532000+00:00</time>
      </trkpt>
      <trkpt lat="0" lon="0">
        <time>2021-02-28T08:44:17.538000+00:00</time>
      </trkpt>
      <trkpt lat="0" lon="0">
        <time>2021-02-28T08:44:17.542000+00:00</time>
      </trkpt>
      <trkpt lat="0" lon="0">
        <time>2021-02-28T08:44:17.545000+00:00</time>
      </trkpt>
      <trkpt lat="47.32136" lon="-1.41078">
        <ele>120</ele>
        <time>2021-02-28T08:44:18.499000+00:00</time>
      </trkpt>
      <trkpt lat="0" lon="0">
        <time>2021-02-28T08:44:18.505000+00:00</time>
      </trkpt>
      <trkpt lat="0" lon="0">
        <time>2021-02-28T08:44:18.509000+00:00</time>
      </trkpt>
      <trkpt lat="0" lon="0">
        <time>2021-02-28T08:44:18.512000+00:00</time>
      </trkpt>
      <trkpt lat="47.32131" lon="-1.41074">
        <ele>120</ele>
        <time>2021-02-28T08:44:19.523000+00:00</time>
      </trkpt>
      <trkpt lat="0" lon="0">
        <time>2021-02-28T08:44:19.530000+00:00</time>
      </trkpt>
      <trkpt lat="0" lon="0">
        <time>2021-02-28T08:44:19.535000+00:00</time>
      </trkpt>
      <trkpt lat="0" lon="0">
        <time>2021-02-28T08:44:19.538000+00:00</time>
      </trkpt>
      <trkpt lat="47.32127" lon="-1.4107">
        <ele>120</ele>
        <time>2021-02-28T08:44:20.531000+00:00</time>
      </trkpt>
      <trkpt lat="0" lon="0">
        <time>2021-02-28T08:44:20.536000+00:00</time>
      </trkpt>
      <trkpt lat="0" lon="0">
        <time>2021-02-28T08:44:20.540000+00:00</time>
      </trkpt>
      <trkpt lat="0" lon="0">
        <time>2021-02-28T08:44:20.543000+00:00</time>
      </trkpt>
      <trkpt lat="47.32122" lon="-1.41065">
        <ele>120</ele>
        <time>2021-02-28T08:44:21.558000+00:00</time>
      </trkpt>
      <trkpt lat="0" lon="0">
        <time>2021-02-28T08:44:21.563000+00:00</time>
      </trkpt>
      <trkpt lat="0" lon="0">
        <time>2021-02-28T08:44:21.567000+00:00</time>
      </trkpt>
      <trkpt lat="0" lon="0">
        <time>2021-02-28T08:44:21.570000+00:00</time>
      </trkpt>
      <trkpt lat="47.32118" lon="-1.4106">
        <ele>120</ele>
        <time>2021-02-28T08:44:22.552000+00:00</time>
      </trkpt>
      <trkpt lat="0" lon="0">
        <time>2021-02-28T08:44:22.563000+00:00</time>
      </trkpt>
      <trkpt lat="0" lon="0">
        <time>2021-02-28T08:44:22.568000+00:00</time>
      </trkpt>
      <trkpt lat="0" lon="0">
        <time>2021-02-28T08:44:22.570000+00:00</time>
      </trkpt>
      <trkpt lat="47.32114" lon="-1.41054">
        <ele>120</ele>
        <time>2021-02-28T08:44:23.526000+00:00</time>
      </trkpt>
      <trkpt lat="0" lon="0">
        <time>2021-02-28T08:44:23.533000+00:00</time>
      </trkpt>
      <trkpt lat="0" lon="0">
        <time>2021-02-28T08:44:23.538000+00:00</time>
      </trkpt>
      <trkpt lat="0" lon="0">
        <time>2021-02-28T08:44:23.541000+00:00</time>
      </trkpt>
      <trkpt lat="47.3211" lon="-1.41048">
        <ele>120</ele>
        <time>2021-02-28T08:44:24.530000+00:00</time>
      </trkpt>
      <trkpt lat="0" lon="0">
        <time>2021-02-28T08:44:24.536000+00:00</time>
      </trkpt>
      <trkpt lat="0" lon="0">
        <time>2021-02-28T08:44:24.541000+00:00</time>
      </trkpt>
      <trkpt lat="0" lon="0">
        <time>2021-02-28T08:44:24.543000+00:00</time>
      </trkpt>
      <trkpt lat="47.32106" lon="-1.41043">
        <ele>120</ele>
        <time>2021-02-28T08:44:25.558000+00:00</time>
      </trkpt>
      <trkpt lat="0" lon="0">
        <time>2021-02-28T08:44:25.567000+00:00</time>
      </trkpt>
      <trkpt lat="0" lon="0">
        <time>2021-02-28T08:44:25.572000+00:00</time>
      </trkpt>
      <trkpt lat="0" lon="0">
        <time>2021-02-28T08:44:25.575000+00:00</time>
      </trkpt>
      <trkpt lat="47.32102" lon="-1.41037">
        <ele>119</ele>
        <time>2021-02-28T08:44:26.580000+00:00</time>
      </trkpt>
      <trkpt lat="0" lon="0">
        <time>2021-02-28T08:44:26.585000+00:00</time>
      </trkpt>
      <trkpt lat="0" lon="0">
        <time>2021-02-28T08:44:26.590000+00:00</time>
      </trkpt>
      <trkpt lat="0" lon="0">
        <time>2021-02-28T08:44:26.592000+00:00</time>
      </trkpt>
      <trkpt lat="47.32098" lon="-1.41031">
        <ele>119</ele>
        <time>2021-02-28T08:44:27.551000+00:00</time>
      </trkpt>
      <trkpt lat="0" lon="0">
        <time>2021-02-28T08:44:27.561000+00:00</time>
      </trkpt>
      <trkpt lat="0" lon="0">
        <time>2021-02-28T08:44:27.566000+00:00</time>
      </trkpt>
      <trkpt lat="0" lon="0">
        <time>2021-02-28T08:44:27.569000+00:00</time>
      </trkpt>
      <trkpt lat="47.32095" lon="-1.41026">
        <ele>119</ele>
        <time>2021-02-28T08:44:28.549000+00:00</time>
      </trkpt>
      <trkpt lat="0" lon="0">
        <time>2021-02-28T08:44:28.559000+00:00</time>
      </trkpt>
      <trkpt lat="0" lon="0">
        <time>2021-02-28T08:44:28.563000+00:00</time>
      </trkpt>
      <trkpt lat="0" lon="0">
        <time>2021-02-28T08:44:28.565000+00:00</time>
      </trkpt>
      <trkpt lat="47.32091" lon="-1.4102">
        <ele>119</ele>
        <time>2021-02-28T08:44:29.519000+00:00</time>
      </trkpt>
      <trkpt lat="0" lon="0">
        <time>2021-02-28T08:44:29.530000+00:00</time>
      </trkpt>
      <trkpt lat="0" lon="0">
        <time>2021-02-28T08:44:29.538000+00:00</time>
      </trkpt>
      <trkpt lat="0" lon="0">
        <time>2021-02-28T08:44:29.540000+00:00</time>
      </trkpt>
      <trkpt lat="47.32088" lon="-1.41015">
        <ele>119</ele>
        <time>2021-02-28T08:44:30.510000+00:00</time>
      </trkpt>
      <trkpt lat="0" lon="0">
        <time>2021-02-28T08:44:30.513000+00:00</time>
      </trkpt>
      <trkpt lat="0" lon="0">
        <time>2021-02-28T08:44:30.516000+00:00</time>
      </trkpt>
      <trkpt lat="0" lon="0">
        <time>2021-02-28T08:44:30.518000+00:00</time>
      </trkpt>
      <trkpt lat="47.32084" lon="-1.41009">
        <ele>119</ele>
        <time>2021-02-28T08:44:31.560000+00:00</time>
      </trkpt>
      <trkpt lat="0" lon="0">
        <time>2021-02-28T08:44:31.568000+00:00</time>
      </trkpt>
      <trkpt lat="0" lon="0">
        <time>2021-02-28T08:44:31.574000+00:00</time>
      </trkpt>
      <trkpt lat="0" lon="0">
        <time>2021-02-28T08:44:31.579000+00:00</time>
      </trkpt>
      <trkpt lat="47.32081" lon="-1.41003">
        <ele>119</ele>
        <time>2021-02-28T08:44:32.519000+00:00</time>
      </trkpt>
      <trkpt lat="0" lon="0">
        <time>2021-02-28T08:44:32.524000+00:00</time>
      </trkpt>
      <trkpt lat="0" lon="0">
        <time>2021-02-28T08:44:32.528000+00:00</time>
      </trkpt>
      <trkpt lat="0" lon="0">
        <time>2021-02-28T08:44:32.530000+00:00</time>
      </trkpt>
      <trkpt lat="47.32077" lon="-1.40997">
        <ele>119</ele>
        <time>2021-02-28T08:44:33.498000+00:00</time>
      </trkpt>
      <trkpt lat="0" lon="0">
        <time>2021-02-28T08:44:33.506000+00:00</time>
      </trkpt>
      <trkpt lat="0" lon="0">
        <time>2021-02-28T08:44:33.511000+00:00</time>
      </trkpt>
      <trkpt lat="0" lon="0">
        <time>2021-02-28T08:44:33.512000+00:00</time>
      </trkpt>
      <trkpt lat="47.32074" lon="-1.40992">
        <ele>119</ele>
        <time>2021-02-28T08:44:34.481000+00:00</time>
      </trkpt>
      <trkpt lat="0" lon="0">
        <time>2021-02-28T08:44:34.486000+00:00</time>
      </trkpt>
      <trkpt lat="0" lon="0">
        <time>2021-02-28T08:44:34.491000+00:00</time>
      </trkpt>
      <trkpt lat="0" lon="0">
        <time>2021-02-28T08:44:34.493000+00:00</time>
      </trkpt>
      <trkpt lat="47.3207" lon="-1.40986">
        <ele>119</ele>
        <time>2021-02-28T08:44:35.572000+00:00</time>
      </trkpt>
      <trkpt lat="0" lon="0">
        <time>2021-02-28T08:44:35.580000+00:00</time>
      </trkpt>
      <trkpt lat="0" lon="0">
        <time>2021-02-28T08:44:35.586000+00:00</time>
      </trkpt>
      <trkpt lat="0" lon="0">
        <time>2021-02-28T08:44:35.590000+00:00</time>
      </trkpt>
      <trkpt lat="47.32067" lon="-1.4098">
        <ele>119</ele>
        <time>2021-02-28T08:44:36.512000+00:00</time>
      </trkpt>
      <trkpt lat="0" lon="0">
        <time>2021-02-28T08:44:36.520000+00:00</time>
      </trkpt>
      <trkpt lat="0" lon="0">
        <time>2021-02-28T08:44:36.531000+00:00</time>
      </trkpt>
      <trkpt lat="0" lon="0">
        <time>2021-02-28T08:44:36.534000+00:00</time>
      </trkpt>
      <trkpt lat="47.32063" lon="-1.40974">
        <ele>118</ele>
        <time>2021-02-28T08:44:37.498000+00:00</time>
      </trkpt>
      <trkpt lat="0" lon="0">
        <time>2021-02-28T08:44:37.509000+00:00</time>
      </trkpt>
      <trkpt lat="0" lon="0">
        <time>2021-02-28T08:44:37.516000+00:00</time>
      </trkpt>
      <trkpt lat="0" lon="0">
        <time>2021-02-28T08:44:37.519000+00:00</time>
      </trkpt>
      <trkpt lat="47.3206" lon="-1.40968">
        <ele>118</ele>
        <time>2021-02-28T08:44:38.506000+00:00</time>
      </trkpt>
      <trkpt lat="0" lon="0">
        <time>2021-02-28T08:44:38.513000+00:00</time>
      </trkpt>
      <trkpt lat="0" lon="0">
        <time>2021-02-28T08:44:38.519000+00:00</time>
      </trkpt>
      <trkpt lat="0" lon="0">
        <time>2021-02-28T08:44:38.522000+00:00</time>
      </trkpt>
      <trkpt lat="47.32056" lon="-1.40962">
        <ele>118</ele>
        <time>2021-02-28T08:44:39.552000+00:00</time>
      </trkpt>
      <trkpt lat="0" lon="0">
        <time>2021-02-28T08:44:39.569000+00:00</time>
      </trkpt>
      <trkpt lat="0" lon="0">
        <time>2021-02-28T08:44:39.578000+00:00</time>
      </trkpt>
      <trkpt lat="0" lon="0">
        <time>2021-02-28T08:44:39.579000+00:00</time>
      </trkpt>
      <trkpt lat="47.32053" lon="-1.40957">
        <ele>117</ele>
        <time>2021-02-28T08:44:40.559000+00:00</time>
      </trkpt>
      <trkpt lat="0" lon="0">
        <time>2021-02-28T08:44:40.572000+00:00</time>
      </trkpt>
      <trkpt lat="0" lon="0">
        <time>2021-02-28T08:44:40.576000+00:00</time>
      </trkpt>
      <trkpt lat="0" lon="0">
        <time>2021-02-28T08:44:40.579000+00:00</time>
      </trkpt>
      <trkpt lat="47.32049" lon="-1.40952">
        <ele>116</ele>
        <time>2021-02-28T08:44:41.559000+00:00</time>
      </trkpt>
      <trkpt lat="0" lon="0">
        <time>2021-02-28T08:44:41.566000+00:00</time>
      </trkpt>
      <trkpt lat="0" lon="0">
        <time>2021-02-28T08:44:41.572000+00:00</time>
      </trkpt>
      <trkpt lat="0" lon="0">
        <time>2021-02-28T08:44:41.574000+00:00</time>
      </trkpt>
      <trkpt lat="47.32045" lon="-1.40947">
        <ele>116</ele>
        <time>2021-02-28T08:44:42.511000+00:00</time>
      </trkpt>
      <trkpt lat="0" lon="0">
        <time>2021-02-28T08:44:42.515000+00:00</time>
      </trkpt>
      <trkpt lat="0" lon="0">
        <time>2021-02-28T08:44:42.521000+00:00</time>
      </trkpt>
      <trkpt lat="0" lon="0">
        <time>2021-02-28T08:44:42.530000+00:00</time>
      </trkpt>
      <trkpt lat="47.32042" lon="-1.40944">
        <ele>116</ele>
        <time>2021-02-28T08:44:43.475000+00:00</time>
      </trkpt>
      <trkpt lat="0" lon="0">
        <time>2021-02-28T08:44:43.480000+00:00</time>
      </trkpt>
      <trkpt lat="0" lon="0">
        <time>2021-02-28T08:44:43.486000+00:00</time>
      </trkpt>
      <trkpt lat="0" lon="0">
        <time>2021-02-28T08:44:43.488000+00:00</time>
      </trkpt>
      <trkpt lat="47.32038" lon="-1.40943">
        <ele>116</ele>
        <time>2021-02-28T08:44:44.497000+00:00</time>
      </trkpt>
      <trkpt lat="0" lon="0">
        <time>2021-02-28T08:44:44.501000+00:00</time>
      </trkpt>
      <trkpt lat="0" lon="0">
        <time>2021-02-28T08:44:44.510000+00:00</time>
      </trkpt>
      <trkpt lat="0" lon="0">
        <time>2021-02-28T08:44:44.512000+00:00</time>
      </trkpt>
      <trkpt lat="47.32035" lon="-1.40944">
        <ele>116</ele>
        <time>2021-02-28T08:44:45.502000+00:00</time>
      </trkpt>
      <trkpt lat="0" lon="0">
        <time>2021-02-28T08:44:45.513000+00:00</time>
      </trkpt>
      <trkpt lat="0" lon="0">
        <time>2021-02-28T08:44:45.519000+00:00</time>
      </trkpt>
      <trkpt lat="0" lon="0">
        <time>2021-02-28T08:44:45.522000+00:00</time>
      </trkpt>
      <trkpt lat="47.32032" lon="-1.40947">
        <ele>116</ele>
        <time>2021-02-28T08:44:46.510000+00:00</time>
      </trkpt>
      <trkpt lat="0" lon="0">
        <time>2021-02-28T08:44:46.517000+00:00</time>
      </trkpt>
      <trkpt lat="0" lon="0">
        <time>2021-02-28T08:44:46.524000+00:00</time>
      </trkpt>
      <trkpt lat="0" lon="0">
        <time>2021-02-28T08:44:46.529000+00:00</time>
      </trkpt>
      <trkpt lat="47.32029" lon="-1.40951">
        <ele>116</ele>
        <time>2021-02-28T08:44:47.531000+00:00</time>
      </trkpt>
      <trkpt lat="0" lon="0">
        <time>2021-02-28T08:44:47.539000+00:00</time>
      </trkpt>
      <trkpt lat="0" lon="0">
        <time>2021-02-28T08:44:47.545000+00:00</time>
      </trkpt>
      <trkpt lat="0" lon="0">
        <time>2021-02-28T08:44:47.547000+00:00</time>
      </trkpt>
      <trkpt lat="47.32027" lon="-1.40957">
        <ele>116</ele>
        <time>2021-02-28T08:44:48.576000+00:00</time>
      </trkpt>
      <trkpt lat="0" lon="0">
        <time>2021-02-28T08:44:48.582000+00:00</time>
      </trkpt>
      <trkpt lat="0" lon="0">
        <time>2021-02-28T08:44:48.587000+00:00</time>
      </trkpt>
      <trkpt lat="0" lon="0">
        <time>2021-02-28T08:44:48.590000+00:00</time>
      </trkpt>
      <trkpt lat="47.32025" lon="-1.40964">
        <ele>116</ele>
        <time>2021-02-28T08:44:49.550000+00:00</time>
      </trkpt>
      <trkpt lat="0" lon="0">
        <time>2021-02-28T08:44:49.557000+00:00</time>
      </trkpt>
      <trkpt lat="0" lon="0">
        <time>2021-02-28T08:44:49.562000+00:00</time>
      </trkpt>
      <trkpt lat="0" lon="0">
        <time>2021-02-28T08:44:49.565000+00:00</time>
      </trkpt>
      <trkpt lat="47.32023" lon="-1.40972">
        <ele>116</ele>
        <time>2021-02-28T08:44:50.577000+00:00</time>
      </trkpt>
      <trkpt lat="0" lon="0">
        <time>2021-02-28T08:44:50.585000+00:00</time>
      </trkpt>
      <trkpt lat="0" lon="0">
        <time>2021-02-28T08:44:50.593000+00:00</time>
      </trkpt>
      <trkpt lat="0" lon="0">
        <time>2021-02-28T08:44:50.595000+00:00</time>
      </trkpt>
      <trkpt lat="47.32021" lon="-1.4098">
        <ele>116</ele>
        <time>2021-02-28T08:44:51.574000+00:00</time>
      </trkpt>
      <trkpt lat="0" lon="0">
        <time>2021-02-28T08:44:51.582000+00:00</time>
      </trkpt>
      <trkpt lat="0" lon="0">
        <time>2021-02-28T08:44:51.588000+00:00</time>
      </trkpt>
      <trkpt lat="0" lon="0">
        <time>2021-02-28T08:44:51.591000+00:00</time>
      </trkpt>
      <trkpt lat="47.32019" lon="-1.40989">
        <ele>116</ele>
        <time>2021-02-28T08:44:52.557000+00:00</time>
      </trkpt>
      <trkpt lat="0" lon="0">
        <time>2021-02-28T08:44:52.574000+00:00</time>
      </trkpt>
      <trkpt lat="0" lon="0">
        <time>2021-02-28T08:44:52.578000+00:00</time>
      </trkpt>
      <trkpt lat="0" lon="0">
        <time>2021-02-28T08:44:52.580000+00:00</time>
      </trkpt>
      <trkpt lat="47.32017" lon="-1.40999">
        <ele>115</ele>
        <time>2021-02-28T08:44:53.500000+00:00</time>
      </trkpt>
      <trkpt lat="0" lon="0">
        <time>2021-02-28T08:44:53.510000+00:00</time>
      </trkpt>
      <trkpt lat="0" lon="0">
        <time>2021-02-28T08:44:53.520000+00:00</time>
      </trkpt>
      <trkpt lat="0" lon="0">
        <time>2021-02-28T08:44:53.523000+00:00</time>
      </trkpt>
      <trkpt lat="47.32014" lon="-1.41008">
        <ele>115</ele>
        <time>2021-02-28T08:44:54.560000+00:00</time>
      </trkpt>
      <trkpt lat="0" lon="0">
        <time>2021-02-28T08:44:54.568000+00:00</time>
      </trkpt>
      <trkpt lat="0" lon="0">
        <time>2021-02-28T08:44:54.574000+00:00</time>
      </trkpt>
      <trkpt lat="0" lon="0">
        <time>2021-02-28T08:44:54.576000+00:00</time>
      </trkpt>
      <trkpt lat="47.32011" lon="-1.41017">
        <ele>115</ele>
        <time>2021-02-28T08:44:55.566000+00:00</time>
      </trkpt>
      <trkpt lat="0" lon="0">
        <time>2021-02-28T08:44:55.573000+00:00</time>
      </trkpt>
      <trkpt lat="0" lon="0">
        <time>2021-02-28T08:44:55.578000+00:00</time>
      </trkpt>
      <trkpt lat="0" lon="0">
        <time>2021-02-28T08:44:55.581000+00:00</time>
      </trkpt>
      <trkpt lat="47.32008" lon="-1.41027">
        <ele>115</ele>
        <time>2021-02-28T08:44:56.574000+00:00</time>
      </trkpt>
      <trkpt lat="0" lon="0">
        <time>2021-02-28T08:44:56.583000+00:00</time>
      </trkpt>
      <trkpt lat="0" lon="0">
        <time>2021-02-28T08:44:56.587000+00:00</time>
      </trkpt>
      <trkpt lat="0" lon="0">
        <time>2021-02-28T08:44:56.590000+00:00</time>
      </trkpt>
      <trkpt lat="47.32004" lon="-1.41036">
        <ele>115</ele>
        <time>2021-02-28T08:44:57.575000+00:00</time>
      </trkpt>
      <trkpt lat="0" lon="0">
        <time>2021-02-28T08:44:57.583000+00:00</time>
      </trkpt>
      <trkpt lat="0" lon="0">
        <time>2021-02-28T08:44:57.588000+00:00</time>
      </trkpt>
      <trkpt lat="0" lon="0">
        <time>2021-02-28T08:44:57.591000+00:00</time>
      </trkpt>
      <trkpt lat="47.32" lon="-1.41046">
        <ele>115</ele>
        <time>2021-02-28T08:44:58.548000+00:00</time>
      </trkpt>
      <trkpt lat="0" lon="0">
        <time>2021-02-28T08:44:58.553000+00:00</time>
      </trkpt>
      <trkpt lat="0" lon="0">
        <time>2021-02-28T08:44:58.555000+00:00</time>
      </trkpt>
      <trkpt lat="0" lon="0">
        <time>2021-02-28T08:44:58.556000+00:00</time>
      </trkpt>
      <trkpt lat="47.31996" lon="-1.41055">
        <ele>115</ele>
        <time>2021-02-28T08:44:59.478000+00:00</time>
      </trkpt>
      <trkpt lat="0" lon="0">
        <time>2021-02-28T08:44:59.492000+00:00</time>
      </trkpt>
      <trkpt lat="0" lon="0">
        <time>2021-02-28T08:44:59.496000+00:00</time>
      </trkpt>
      <trkpt lat="0" lon="0">
        <time>2021-02-28T08:44:59.499000+00:00</time>
      </trkpt>
      <trkpt lat="47.31991" lon="-1.41064">
        <ele>115</ele>
        <time>2021-02-28T08:45:00.570000+00:00</time>
      </trkpt>
      <trkpt lat="0" lon="0">
        <time>2021-02-28T08:45:00.580000+00:00</time>
      </trkpt>
      <trkpt lat="0" lon="0">
        <time>2021-02-28T08:45:00.589000+00:00</time>
      </trkpt>
      <trkpt lat="0" lon="0">
        <time>2021-02-28T08:45:00.592000+00:00</time>
      </trkpt>
      <trkpt lat="47.31986" lon="-1.41072">
        <ele>114</ele>
        <time>2021-02-28T08:45:01.530000+00:00</time>
      </trkpt>
      <trkpt lat="0" lon="0">
        <time>2021-02-28T08:45:01.536000+00:00</time>
      </trkpt>
      <trkpt lat="0" lon="0">
        <time>2021-02-28T08:45:01.540000+00:00</time>
      </trkpt>
      <trkpt lat="0" lon="0">
        <time>2021-02-28T08:45:01.542000+00:00</time>
      </trkpt>
      <trkpt lat="47.31982" lon="-1.41079">
        <ele>114</ele>
        <time>2021-02-28T08:45:02.536000+00:00</time>
      </trkpt>
      <trkpt lat="0" lon="0">
        <time>2021-02-28T08:45:02.543000+00:00</time>
      </trkpt>
      <trkpt lat="0" lon="0">
        <time>2021-02-28T08:45:02.547000+00:00</time>
      </trkpt>
      <trkpt lat="0" lon="0">
        <time>2021-02-28T08:45:02.549000+00:00</time>
      </trkpt>
      <trkpt lat="47.31977" lon="-1.41085">
        <ele>115</ele>
        <time>2021-02-28T08:45:03.522000+00:00</time>
      </trkpt>
      <trkpt lat="0" lon="0">
        <time>2021-02-28T08:45:03.534000+00:00</time>
      </trkpt>
      <trkpt lat="0" lon="0">
        <time>2021-02-28T08:45:03.539000+00:00</time>
      </trkpt>
      <trkpt lat="0" lon="0">
        <time>2021-02-28T08:45:03.541000+00:00</time>
      </trkpt>
      <trkpt lat="47.31973" lon="-1.4109">
        <ele>114</ele>
        <time>2021-02-28T08:45:04.477000+00:00</time>
      </trkpt>
      <trkpt lat="0" lon="0">
        <time>2021-02-28T08:45:04.481000+00:00</time>
      </trkpt>
      <trkpt lat="0" lon="0">
        <time>2021-02-28T08:45:04.489000+00:00</time>
      </trkpt>
      <trkpt lat="0" lon="0">
        <time>2021-02-28T08:45:04.491000+00:00</time>
      </trkpt>
      <trkpt lat="47.3197" lon="-1.41094">
        <ele>114</ele>
        <time>2021-02-28T08:45:05.522000+00:00</time>
      </trkpt>
      <trkpt lat="0" lon="0">
        <time>2021-02-28T08:45:05.527000+00:00</time>
      </trkpt>
      <trkpt lat="0" lon="0">
        <time>2021-02-28T08:45:05.533000+00:00</time>
      </trkpt>
      <trkpt lat="0" lon="0">
        <time>2021-02-28T08:45:05.535000+00:00</time>
      </trkpt>
      <trkpt lat="47.31968" lon="-1.41096">
        <ele>114</ele>
        <time>2021-02-28T08:45:06.547000+00:00</time>
      </trkpt>
      <trkpt lat="0" lon="0">
        <time>2021-02-28T08:45:06.555000+00:00</time>
      </trkpt>
      <trkpt lat="0" lon="0">
        <time>2021-02-28T08:45:06.561000+00:00</time>
      </trkpt>
      <trkpt lat="0" lon="0">
        <time>2021-02-28T08:45:06.564000+00:00</time>
      </trkpt>
      <trkpt lat="47.31966" lon="-1.41098">
        <ele>114</ele>
        <time>2021-02-28T08:45:07.520000+00:00</time>
      </trkpt>
      <trkpt lat="0" lon="0">
        <time>2021-02-28T08:45:07.530000+00:00</time>
      </trkpt>
      <trkpt lat="0" lon="0">
        <time>2021-02-28T08:45:07.534000+00:00</time>
      </trkpt>
      <trkpt lat="0" lon="0">
        <time>2021-02-28T08:45:07.536000+00:00</time>
      </trkpt>
      <trkpt lat="47.31965" lon="-1.41098">
        <ele>114</ele>
        <time>2021-02-28T08:45:08.548000+00:00</time>
      </trkpt>
      <trkpt lat="0" lon="0">
        <time>2021-02-28T08:45:08.555000+00:00</time>
      </trkpt>
      <trkpt lat="0" lon="0">
        <time>2021-02-28T08:45:08.563000+00:00</time>
      </trkpt>
      <trkpt lat="0" lon="0">
        <time>2021-02-28T08:45:08.565000+00:00</time>
      </trkpt>
      <trkpt lat="47.31965" lon="-1.41099">
        <ele>114</ele>
        <time>2021-02-28T08:45:09.514000+00:00</time>
      </trkpt>
      <trkpt lat="0" lon="0">
        <time>2021-02-28T08:45:09.522000+00:00</time>
      </trkpt>
      <trkpt lat="0" lon="0">
        <time>2021-02-28T08:45:09.528000+00:00</time>
      </trkpt>
      <trkpt lat="0" lon="0">
        <time>2021-02-28T08:45:09.531000+00:00</time>
      </trkpt>
      <trkpt lat="47.31965" lon="-1.41098">
        <ele>114</ele>
        <time>2021-02-28T08:45:10.519000+00:00</time>
      </trkpt>
      <trkpt lat="0" lon="0">
        <time>2021-02-28T08:45:10.524000+00:00</time>
      </trkpt>
      <trkpt lat="0" lon="0">
        <time>2021-02-28T08:45:10.531000+00:00</time>
      </trkpt>
      <trkpt lat="0" lon="0">
        <time>2021-02-28T08:45:10.534000+00:00</time>
      </trkpt>
      <trkpt lat="47.31965" lon="-1.41098">
        <ele>114</ele>
        <time>2021-02-28T08:45:11.503000+00:00</time>
      </trkpt>
      <trkpt lat="0" lon="0">
        <time>2021-02-28T08:45:11.511000+00:00</time>
      </trkpt>
      <trkpt lat="0" lon="0">
        <time>2021-02-28T08:45:11.516000+00:00</time>
      </trkpt>
      <trkpt lat="0" lon="0">
        <time>2021-02-28T08:45:11.518000+00:00</time>
      </trkpt>
      <trkpt lat="47.31965" lon="-1.41097">
        <ele>114</ele>
        <time>2021-02-28T08:45:12.556000+00:00</time>
      </trkpt>
      <trkpt lat="0" lon="0">
        <time>2021-02-28T08:45:12.567000+00:00</time>
      </trkpt>
      <trkpt lat="0" lon="0">
        <time>2021-02-28T08:45:12.574000+00:00</time>
      </trkpt>
      <trkpt lat="0" lon="0">
        <time>2021-02-28T08:45:12.577000+00:00</time>
      </trkpt>
      <trkpt lat="47.31965" lon="-1.41095">
        <ele>114</ele>
        <time>2021-02-28T08:45:13.546000+00:00</time>
      </trkpt>
      <trkpt lat="0" lon="0">
        <time>2021-02-28T08:45:13.554000+00:00</time>
      </trkpt>
      <trkpt lat="0" lon="0">
        <time>2021-02-28T08:45:13.560000+00:00</time>
      </trkpt>
      <trkpt lat="0" lon="0">
        <time>2021-02-28T08:45:13.562000+00:00</time>
      </trkpt>
      <trkpt lat="47.31966" lon="-1.41094">
        <ele>114</ele>
        <time>2021-02-28T08:45:14.526000+00:00</time>
      </trkpt>
      <trkpt lat="0" lon="0">
        <time>2021-02-28T08:45:14.533000+00:00</time>
      </trkpt>
      <trkpt lat="0" lon="0">
        <time>2021-02-28T08:45:14.538000+00:00</time>
      </trkpt>
      <trkpt lat="0" lon="0">
        <time>2021-02-28T08:45:14.541000+00:00</time>
      </trkpt>
      <trkpt lat="47.31966" lon="-1.41093">
        <ele>114</ele>
        <time>2021-02-28T08:45:15.557000+00:00</time>
      </trkpt>
      <trkpt lat="0" lon="0">
        <time>2021-02-28T08:45:15.566000+00:00</time>
      </trkpt>
      <trkpt lat="0" lon="0">
        <time>2021-02-28T08:45:15.572000+00:00</time>
      </trkpt>
      <trkpt lat="0" lon="0">
        <time>2021-02-28T08:45:15.575000+00:00</time>
      </trkpt>
      <trkpt lat="47.31967" lon="-1.41092">
        <ele>114</ele>
        <time>2021-02-28T08:45:16.477000+00:00</time>
      </trkpt>
      <trkpt lat="0" lon="0">
        <time>2021-02-28T08:45:16.486000+00:00</time>
      </trkpt>
      <trkpt lat="0" lon="0">
        <time>2021-02-28T08:45:16.490000+00:00</time>
      </trkpt>
      <trkpt lat="0" lon="0">
        <time>2021-02-28T08:45:16.492000+00:00</time>
      </trkpt>
      <trkpt lat="47.31968" lon="-1.4109">
        <ele>114</ele>
        <time>2021-02-28T08:45:17.536000+00:00</time>
      </trkpt>
      <trkpt lat="0" lon="0">
        <time>2021-02-28T08:45:17.545000+00:00</time>
      </trkpt>
      <trkpt lat="0" lon="0">
        <time>2021-02-28T08:45:17.550000+00:00</time>
      </trkpt>
      <trkpt lat="0" lon="0">
        <time>2021-02-28T08:45:17.552000+00:00</time>
      </trkpt>
      <trkpt lat="47.31969" lon="-1.41089">
        <ele>114</ele>
        <time>2021-02-28T08:45:18.528000+00:00</time>
      </trkpt>
      <trkpt lat="0" lon="0">
        <time>2021-02-28T08:45:18.540000+00:00</time>
      </trkpt>
      <trkpt lat="0" lon="0">
        <time>2021-02-28T08:45:18.544000+00:00</time>
      </trkpt>
      <trkpt lat="0" lon="0">
        <time>2021-02-28T08:45:18.546000+00:00</time>
      </trkpt>
      <trkpt lat="47.31969" lon="-1.41088">
        <ele>114</ele>
        <time>2021-02-28T08:45:19.534000+00:00</time>
      </trkpt>
      <trkpt lat="0" lon="0">
        <time>2021-02-28T08:45:19.540000+00:00</time>
      </trkpt>
      <trkpt lat="0" lon="0">
        <time>2021-02-28T08:45:19.544000+00:00</time>
      </trkpt>
      <trkpt lat="0" lon="0">
        <time>2021-02-28T08:45:19.554000+00:00</time>
      </trkpt>
      <trkpt lat="47.3196" lon="-1.41091">
        <ele>114</ele>
        <time>2021-02-28T08:45:20.432000+00:00</time>
      </trkpt>
      <trkpt lat="0" lon="0">
        <time>2021-02-28T08:45:20.438000+00:00</time>
      </trkpt>
      <trkpt lat="0" lon="0">
        <time>2021-02-28T08:45:20.441000+00:00</time>
      </trkpt>
      <trkpt lat="0" lon="0">
        <time>2021-02-28T08:45:20.444000+00:00</time>
      </trkpt>
      <trkpt lat="47.31957" lon="-1.41096">
        <ele>114</ele>
        <time>2021-02-28T08:45:21.495000+00:00</time>
      </trkpt>
      <trkpt lat="0" lon="0">
        <time>2021-02-28T08:45:21.500000+00:00</time>
      </trkpt>
      <trkpt lat="0" lon="0">
        <time>2021-02-28T08:45:21.509000+00:00</time>
      </trkpt>
      <trkpt lat="0" lon="0">
        <time>2021-02-28T08:45:21.511000+00:00</time>
      </trkpt>
      <trkpt lat="47.31953" lon="-1.411">
        <ele>114</ele>
        <time>2021-02-28T08:45:22.521000+00:00</time>
      </trkpt>
      <trkpt lat="0" lon="0">
        <time>2021-02-28T08:45:22.529000+00:00</time>
      </trkpt>
      <trkpt lat="0" lon="0">
        <time>2021-02-28T08:45:22.533000+00:00</time>
      </trkpt>
      <trkpt lat="0" lon="0">
        <time>2021-02-28T08:45:22.535000+00:00</time>
      </trkpt>
      <trkpt lat="47.3195" lon="-1.41105">
        <ele>114</ele>
        <time>2021-02-28T08:45:23.517000+00:00</time>
      </trkpt>
      <trkpt lat="0" lon="0">
        <time>2021-02-28T08:45:23.525000+00:00</time>
      </trkpt>
      <trkpt lat="0" lon="0">
        <time>2021-02-28T08:45:23.530000+00:00</time>
      </trkpt>
      <trkpt lat="0" lon="0">
        <time>2021-02-28T08:45:23.533000+00:00</time>
      </trkpt>
      <trkpt lat="47.31946" lon="-1.4111">
        <ele>114</ele>
        <time>2021-02-28T08:45:24.499000+00:00</time>
      </trkpt>
      <trkpt lat="0" lon="0">
        <time>2021-02-28T08:45:24.510000+00:00</time>
      </trkpt>
      <trkpt lat="0" lon="0">
        <time>2021-02-28T08:45:24.514000+00:00</time>
      </trkpt>
      <trkpt lat="0" lon="0">
        <time>2021-02-28T08:45:24.517000+00:00</time>
      </trkpt>
      <trkpt lat="47.31943" lon="-1.41116">
        <ele>114</ele>
        <time>2021-02-28T08:45:25.474000+00:00</time>
      </trkpt>
      <trkpt lat="0" lon="0">
        <time>2021-02-28T08:45:25.484000+00:00</time>
      </trkpt>
      <trkpt lat="0" lon="0">
        <time>2021-02-28T08:45:25.491000+00:00</time>
      </trkpt>
      <trkpt lat="0" lon="0">
        <time>2021-02-28T08:45:25.496000+00:00</time>
      </trkpt>
      <trkpt lat="47.31939" lon="-1.41121">
        <ele>114</ele>
        <time>2021-02-28T08:45:26.508000+00:00</time>
      </trkpt>
      <trkpt lat="0" lon="0">
        <time>2021-02-28T08:45:26.517000+00:00</time>
      </trkpt>
      <trkpt lat="0" lon="0">
        <time>2021-02-28T08:45:26.522000+00:00</time>
      </trkpt>
      <trkpt lat="0" lon="0">
        <time>2021-02-28T08:45:26.525000+00:00</time>
      </trkpt>
      <trkpt lat="47.31936" lon="-1.41127">
        <ele>113</ele>
        <time>2021-02-28T08:45:27.525000+00:00</time>
      </trkpt>
      <trkpt lat="0" lon="0">
        <time>2021-02-28T08:45:27.533000+00:00</time>
      </trkpt>
      <trkpt lat="0" lon="0">
        <time>2021-02-28T08:45:27.538000+00:00</time>
      </trkpt>
      <trkpt lat="0" lon="0">
        <time>2021-02-28T08:45:27.540000+00:00</time>
      </trkpt>
      <trkpt lat="47.31933" lon="-1.41133">
        <ele>114</ele>
        <time>2021-02-28T08:45:28.504000+00:00</time>
      </trkpt>
      <trkpt lat="0" lon="0">
        <time>2021-02-28T08:45:28.515000+00:00</time>
      </trkpt>
      <trkpt lat="0" lon="0">
        <time>2021-02-28T08:45:28.519000+00:00</time>
      </trkpt>
      <trkpt lat="0" lon="0">
        <time>2021-02-28T08:45:28.522000+00:00</time>
      </trkpt>
      <trkpt lat="47.31931" lon="-1.41139">
        <ele>114</ele>
        <time>2021-02-28T08:45:29.523000+00:00</time>
      </trkpt>
      <trkpt lat="0" lon="0">
        <time>2021-02-28T08:45:29.531000+00:00</time>
      </trkpt>
      <trkpt lat="0" lon="0">
        <time>2021-02-28T08:45:29.535000+00:00</time>
      </trkpt>
      <trkpt lat="0" lon="0">
        <time>2021-02-28T08:45:29.538000+00:00</time>
      </trkpt>
      <trkpt lat="47.31928" lon="-1.41145">
        <ele>113</ele>
        <time>2021-02-28T08:45:30.530000+00:00</time>
      </trkpt>
      <trkpt lat="0" lon="0">
        <time>2021-02-28T08:45:30.538000+00:00</time>
      </trkpt>
      <trkpt lat="0" lon="0">
        <time>2021-02-28T08:45:30.544000+00:00</time>
      </trkpt>
      <trkpt lat="0" lon="0">
        <time>2021-02-28T08:45:30.547000+00:00</time>
      </trkpt>
      <trkpt lat="47.31925" lon="-1.41151">
        <ele>113</ele>
        <time>2021-02-28T08:45:31.490000+00:00</time>
      </trkpt>
      <trkpt lat="0" lon="0">
        <time>2021-02-28T08:45:31.495000+00:00</time>
      </trkpt>
      <trkpt lat="0" lon="0">
        <time>2021-02-28T08:45:31.502000+00:00</time>
      </trkpt>
      <trkpt lat="0" lon="0">
        <time>2021-02-28T08:45:31.505000+00:00</time>
      </trkpt>
      <trkpt lat="47.31922" lon="-1.41157">
        <ele>113</ele>
        <time>2021-02-28T08:45:32.530000+00:00</time>
      </trkpt>
      <trkpt lat="0" lon="0">
        <time>2021-02-28T08:45:32.542000+00:00</time>
      </trkpt>
      <trkpt lat="0" lon="0">
        <time>2021-02-28T08:45:32.547000+00:00</time>
      </trkpt>
      <trkpt lat="0" lon="0">
        <time>2021-02-28T08:45:32.551000+00:00</time>
      </trkpt>
      <trkpt lat="47.31919" lon="-1.41164">
        <ele>112</ele>
        <time>2021-02-28T08:45:33.497000+00:00</time>
      </trkpt>
      <trkpt lat="0" lon="0">
        <time>2021-02-28T08:45:33.505000+00:00</time>
      </trkpt>
      <trkpt lat="0" lon="0">
        <time>2021-02-28T08:45:33.514000+00:00</time>
      </trkpt>
      <trkpt lat="0" lon="0">
        <time>2021-02-28T08:45:33.517000+00:00</time>
      </trkpt>
      <trkpt lat="47.31916" lon="-1.4117">
        <ele>112</ele>
        <time>2021-02-28T08:45:34.516000+00:00</time>
      </trkpt>
      <trkpt lat="0" lon="0">
        <time>2021-02-28T08:45:34.522000+00:00</time>
      </trkpt>
      <trkpt lat="0" lon="0">
        <time>2021-02-28T08:45:34.527000+00:00</time>
      </trkpt>
      <trkpt lat="0" lon="0">
        <time>2021-02-28T08:45:34.529000+00:00</time>
      </trkpt>
      <trkpt lat="47.31913" lon="-1.41176">
        <ele>111</ele>
        <time>2021-02-28T08:45:35.506000+00:00</time>
      </trkpt>
      <trkpt lat="0" lon="0">
        <time>2021-02-28T08:45:35.511000+00:00</time>
      </trkpt>
      <trkpt lat="0" lon="0">
        <time>2021-02-28T08:45:35.516000+00:00</time>
      </trkpt>
      <trkpt lat="0" lon="0">
        <time>2021-02-28T08:45:35.519000+00:00</time>
      </trkpt>
      <trkpt lat="47.3191" lon="-1.41183">
        <ele>111</ele>
        <time>2021-02-28T08:45:36.507000+00:00</time>
      </trkpt>
      <trkpt lat="0" lon="0">
        <time>2021-02-28T08:45:36.523000+00:00</time>
      </trkpt>
      <trkpt lat="0" lon="0">
        <time>2021-02-28T08:45:36.532000+00:00</time>
      </trkpt>
      <trkpt lat="0" lon="0">
        <time>2021-02-28T08:45:36.535000+00:00</time>
      </trkpt>
      <trkpt lat="47.31907" lon="-1.41189">
        <ele>110</ele>
        <time>2021-02-28T08:45:37.493000+00:00</time>
      </trkpt>
      <trkpt lat="0" lon="0">
        <time>2021-02-28T08:45:37.502000+00:00</time>
      </trkpt>
      <trkpt lat="0" lon="0">
        <time>2021-02-28T08:45:37.509000+00:00</time>
      </trkpt>
      <trkpt lat="0" lon="0">
        <time>2021-02-28T08:45:37.515000+00:00</time>
      </trkpt>
      <trkpt lat="47.31904" lon="-1.41195">
        <ele>110</ele>
        <time>2021-02-28T08:45:38.535000+00:00</time>
      </trkpt>
      <trkpt lat="0" lon="0">
        <time>2021-02-28T08:45:38.544000+00:00</time>
      </trkpt>
      <trkpt lat="0" lon="0">
        <time>2021-02-28T08:45:38.550000+00:00</time>
      </trkpt>
      <trkpt lat="0" lon="0">
        <time>2021-02-28T08:45:38.553000+00:00</time>
      </trkpt>
      <trkpt lat="47.31901" lon="-1.41201">
        <ele>109</ele>
        <time>2021-02-28T08:45:39.518000+00:00</time>
      </trkpt>
      <trkpt lat="0" lon="0">
        <time>2021-02-28T08:45:39.526000+00:00</time>
      </trkpt>
      <trkpt lat="0" lon="0">
        <time>2021-02-28T08:45:39.529000+00:00</time>
      </trkpt>
      <trkpt lat="0" lon="0">
        <time>2021-02-28T08:45:39.531000+00:00</time>
      </trkpt>
      <trkpt lat="47.31898" lon="-1.41207">
        <ele>109</ele>
        <time>2021-02-28T08:45:40.512000+00:00</time>
      </trkpt>
      <trkpt lat="0" lon="0">
        <time>2021-02-28T08:45:40.520000+00:00</time>
      </trkpt>
      <trkpt lat="0" lon="0">
        <time>2021-02-28T08:45:40.526000+00:00</time>
      </trkpt>
      <trkpt lat="0" lon="0">
        <time>2021-02-28T08:45:40.528000+00:00</time>
      </trkpt>
      <trkpt lat="47.31894" lon="-1.41212">
        <ele>108</ele>
        <time>2021-02-28T08:45:41.433000+00:00</time>
      </trkpt>
      <trkpt lat="0" lon="0">
        <time>2021-02-28T08:45:41.434000+00:00</time>
      </trkpt>
      <trkpt lat="0" lon="0">
        <time>2021-02-28T08:45:41.435000+00:00</time>
      </trkpt>
      <trkpt lat="0" lon="0">
        <time>2021-02-28T08:45:41.436000+00:00</time>
      </trkpt>
      <trkpt lat="47.31891" lon="-1.41218">
        <ele>107</ele>
        <time>2021-02-28T08:45:42.498000+00:00</time>
      </trkpt>
      <trkpt lat="0" lon="0">
        <time>2021-02-28T08:45:42.507000+00:00</time>
      </trkpt>
      <trkpt lat="0" lon="0">
        <time>2021-02-28T08:45:42.511000+00:00</time>
      </trkpt>
      <trkpt lat="0" lon="0">
        <time>2021-02-28T08:45:42.513000+00:00</time>
      </trkpt>
      <trkpt lat="47.31887" lon="-1.41223">
        <ele>107</ele>
        <time>2021-02-28T08:45:43.458000+00:00</time>
      </trkpt>
      <trkpt lat="0" lon="0">
        <time>2021-02-28T08:45:43.464000+00:00</time>
      </trkpt>
      <trkpt lat="0" lon="0">
        <time>2021-02-28T08:45:43.469000+00:00</time>
      </trkpt>
      <trkpt lat="0" lon="0">
        <time>2021-02-28T08:45:43.472000+00:00</time>
      </trkpt>
      <trkpt lat="47.31884" lon="-1.41229">
        <ele>107</ele>
        <time>2021-02-28T08:45:44.521000+00:00</time>
      </trkpt>
      <trkpt lat="0" lon="0">
        <time>2021-02-28T08:45:44.533000+00:00</time>
      </trkpt>
      <trkpt lat="0" lon="0">
        <time>2021-02-28T08:45:44.537000+00:00</time>
      </trkpt>
      <trkpt lat="0" lon="0">
        <time>2021-02-28T08:45:44.539000+00:00</time>
      </trkpt>
      <trkpt lat="47.3188" lon="-1.41235">
        <ele>106</ele>
        <time>2021-02-28T08:45:45.527000+00:00</time>
      </trkpt>
      <trkpt lat="0" lon="0">
        <time>2021-02-28T08:45:45.536000+00:00</time>
      </trkpt>
      <trkpt lat="0" lon="0">
        <time>2021-02-28T08:45:45.546000+00:00</time>
      </trkpt>
      <trkpt lat="0" lon="0">
        <time>2021-02-28T08:45:45.550000+00:00</time>
      </trkpt>
      <trkpt lat="47.31876" lon="-1.4124">
        <ele>105</ele>
        <time>2021-02-28T08:45:46.464000+00:00</time>
      </trkpt>
      <trkpt lat="0" lon="0">
        <time>2021-02-28T08:45:46.474000+00:00</time>
      </trkpt>
      <trkpt lat="0" lon="0">
        <time>2021-02-28T08:45:46.482000+00:00</time>
      </trkpt>
      <trkpt lat="0" lon="0">
        <time>2021-02-28T08:45:46.485000+00:00</time>
      </trkpt>
      <trkpt lat="47.31871" lon="-1.41246">
        <ele>105</ele>
        <time>2021-02-28T08:45:47.523000+00:00</time>
      </trkpt>
      <trkpt lat="0" lon="0">
        <time>2021-02-28T08:45:47.527000+00:00</time>
      </trkpt>
      <trkpt lat="0" lon="0">
        <time>2021-02-28T08:45:47.533000+00:00</time>
      </trkpt>
      <trkpt lat="0" lon="0">
        <time>2021-02-28T08:45:47.535000+00:00</time>
      </trkpt>
      <trkpt lat="47.31867" lon="-1.41252">
        <ele>104</ele>
        <time>2021-02-28T08:45:48.529000+00:00</time>
      </trkpt>
      <trkpt lat="0" lon="0">
        <time>2021-02-28T08:45:48.537000+00:00</time>
      </trkpt>
      <trkpt lat="0" lon="0">
        <time>2021-02-28T08:45:48.544000+00:00</time>
      </trkpt>
      <trkpt lat="0" lon="0">
        <time>2021-02-28T08:45:48.548000+00:00</time>
      </trkpt>
      <trkpt lat="47.31862" lon="-1.41257">
        <ele>103</ele>
        <time>2021-02-28T08:45:49.523000+00:00</time>
      </trkpt>
      <trkpt lat="0" lon="0">
        <time>2021-02-28T08:45:49.525000+00:00</time>
      </trkpt>
      <trkpt lat="0" lon="0">
        <time>2021-02-28T08:45:49.527000+00:00</time>
      </trkpt>
      <trkpt lat="0" lon="0">
        <time>2021-02-28T08:45:49.530000+00:00</time>
      </trkpt>
      <trkpt lat="47.31858" lon="-1.41262">
        <ele>102</ele>
        <time>2021-02-28T08:45:50.510000+00:00</time>
      </trkpt>
      <trkpt lat="0" lon="0">
        <time>2021-02-28T08:45:50.520000+00:00</time>
      </trkpt>
      <trkpt lat="0" lon="0">
        <time>2021-02-28T08:45:50.526000+00:00</time>
      </trkpt>
      <trkpt lat="0" lon="0">
        <time>2021-02-28T08:45:50.529000+00:00</time>
      </trkpt>
      <trkpt lat="47.31853" lon="-1.41267">
        <ele>102</ele>
        <time>2021-02-28T08:45:51.513000+00:00</time>
      </trkpt>
      <trkpt lat="0" lon="0">
        <time>2021-02-28T08:45:51.522000+00:00</time>
      </trkpt>
      <trkpt lat="0" lon="0">
        <time>2021-02-28T08:45:51.524000+00:00</time>
      </trkpt>
      <trkpt lat="0" lon="0">
        <time>2021-02-28T08:45:51.526000+00:00</time>
      </trkpt>
      <trkpt lat="47.31849" lon="-1.41272">
        <ele>101</ele>
        <time>2021-02-28T08:45:52.513000+00:00</time>
      </trkpt>
      <trkpt lat="0" lon="0">
        <time>2021-02-28T08:45:52.521000+00:00</time>
      </trkpt>
      <trkpt lat="0" lon="0">
        <time>2021-02-28T08:45:52.527000+00:00</time>
      </trkpt>
      <trkpt lat="0" lon="0">
        <time>2021-02-28T08:45:52.531000+00:00</time>
      </trkpt>
      <trkpt lat="47.31844" lon="-1.41276">
        <ele>101</ele>
        <time>2021-02-28T08:45:53.505000+00:00</time>
      </trkpt>
      <trkpt lat="0" lon="0">
        <time>2021-02-28T08:45:53.507000+00:00</time>
      </trkpt>
      <trkpt lat="0" lon="0">
        <time>2021-02-28T08:45:53.510000+00:00</time>
      </trkpt>
      <trkpt lat="0" lon="0">
        <time>2021-02-28T08:45:53.512000+00:00</time>
      </trkpt>
      <trkpt lat="47.3184" lon="-1.41281">
        <ele>100</ele>
        <time>2021-02-28T08:45:54.526000+00:00</time>
      </trkpt>
      <trkpt lat="0" lon="0">
        <time>2021-02-28T08:45:54.537000+00:00</time>
      </trkpt>
      <trkpt lat="0" lon="0">
        <time>2021-02-28T08:45:54.542000+00:00</time>
      </trkpt>
      <trkpt lat="0" lon="0">
        <time>2021-02-28T08:45:54.547000+00:00</time>
      </trkpt>
      <trkpt lat="47.31835" lon="-1.41285">
        <ele>100</ele>
        <time>2021-02-28T08:45:55.511000+00:00</time>
      </trkpt>
      <trkpt lat="0" lon="0">
        <time>2021-02-28T08:45:55.519000+00:00</time>
      </trkpt>
      <trkpt lat="0" lon="0">
        <time>2021-02-28T08:45:55.524000+00:00</time>
      </trkpt>
      <trkpt lat="0" lon="0">
        <time>2021-02-28T08:45:55.526000+00:00</time>
      </trkpt>
      <trkpt lat="47.3183" lon="-1.41289">
        <ele>99</ele>
        <time>2021-02-28T08:45:56.527000+00:00</time>
      </trkpt>
      <trkpt lat="0" lon="0">
        <time>2021-02-28T08:45:56.544000+00:00</time>
      </trkpt>
      <trkpt lat="0" lon="0">
        <time>2021-02-28T08:45:56.550000+00:00</time>
      </trkpt>
      <trkpt lat="0" lon="0">
        <time>2021-02-28T08:45:56.553000+00:00</time>
      </trkpt>
      <trkpt lat="47.31826" lon="-1.41294">
        <ele>98</ele>
        <time>2021-02-28T08:45:57.492000+00:00</time>
      </trkpt>
      <trkpt lat="0" lon="0">
        <time>2021-02-28T08:45:57.499000+00:00</time>
      </trkpt>
      <trkpt lat="0" lon="0">
        <time>2021-02-28T08:45:57.505000+00:00</time>
      </trkpt>
      <trkpt lat="0" lon="0">
        <time>2021-02-28T08:45:57.507000+00:00</time>
      </trkpt>
      <trkpt lat="47.31821" lon="-1.41298">
        <ele>98</ele>
        <time>2021-02-28T08:45:58.508000+00:00</time>
      </trkpt>
      <trkpt lat="0" lon="0">
        <time>2021-02-28T08:45:58.518000+00:00</time>
      </trkpt>
      <trkpt lat="0" lon="0">
        <time>2021-02-28T08:45:58.524000+00:00</time>
      </trkpt>
      <trkpt lat="0" lon="0">
        <time>2021-02-28T08:45:58.527000+00:00</time>
      </trkpt>
      <trkpt lat="47.31816" lon="-1.41303">
        <ele>97</ele>
        <time>2021-02-28T08:45:59.483000+00:00</time>
      </trkpt>
      <trkpt lat="0" lon="0">
        <time>2021-02-28T08:45:59.493000+00:00</time>
      </trkpt>
      <trkpt lat="0" lon="0">
        <time>2021-02-28T08:45:59.497000+00:00</time>
      </trkpt>
      <trkpt lat="0" lon="0">
        <time>2021-02-28T08:45:59.499000+00:00</time>
      </trkpt>
      <trkpt lat="47.31812" lon="-1.41308">
        <ele>96</ele>
        <time>2021-02-28T08:46:00.507000+00:00</time>
      </trkpt>
      <trkpt lat="0" lon="0">
        <time>2021-02-28T08:46:00.518000+00:00</time>
      </trkpt>
      <trkpt lat="0" lon="0">
        <time>2021-02-28T08:46:00.523000+00:00</time>
      </trkpt>
      <trkpt lat="0" lon="0">
        <time>2021-02-28T08:46:00.526000+00:00</time>
      </trkpt>
      <trkpt lat="47.31807" lon="-1.41313">
        <ele>95</ele>
        <time>2021-02-28T08:46:01.495000+00:00</time>
      </trkpt>
      <trkpt lat="0" lon="0">
        <time>2021-02-28T08:46:01.504000+00:00</time>
      </trkpt>
      <trkpt lat="0" lon="0">
        <time>2021-02-28T08:46:01.510000+00:00</time>
      </trkpt>
      <trkpt lat="0" lon="0">
        <time>2021-02-28T08:46:01.513000+00:00</time>
      </trkpt>
      <trkpt lat="47.31803" lon="-1.41318">
        <ele>95</ele>
        <time>2021-02-28T08:46:02.525000+00:00</time>
      </trkpt>
      <trkpt lat="0" lon="0">
        <time>2021-02-28T08:46:02.531000+00:00</time>
      </trkpt>
      <trkpt lat="0" lon="0">
        <time>2021-02-28T08:46:02.536000+00:00</time>
      </trkpt>
      <trkpt lat="0" lon="0">
        <time>2021-02-28T08:46:02.539000+00:00</time>
      </trkpt>
      <trkpt lat="47.31799" lon="-1.41323">
        <ele>94</ele>
        <time>2021-02-28T08:46:03.443000+00:00</time>
      </trkpt>
      <trkpt lat="0" lon="0">
        <time>2021-02-28T08:46:03.451000+00:00</time>
      </trkpt>
      <trkpt lat="0" lon="0">
        <time>2021-02-28T08:46:03.458000+00:00</time>
      </trkpt>
      <trkpt lat="0" lon="0">
        <time>2021-02-28T08:46:03.460000+00:00</time>
      </trkpt>
      <trkpt lat="47.31796" lon="-1.41328">
        <ele>94</ele>
        <time>2021-02-28T08:46:04.494000+00:00</time>
      </trkpt>
      <trkpt lat="0" lon="0">
        <time>2021-02-28T08:46:04.506000+00:00</time>
      </trkpt>
      <trkpt lat="0" lon="0">
        <time>2021-02-28T08:46:04.513000+00:00</time>
      </trkpt>
      <trkpt lat="0" lon="0">
        <time>2021-02-28T08:46:04.516000+00:00</time>
      </trkpt>
      <trkpt lat="47.31792" lon="-1.41334">
        <ele>93</ele>
        <time>2021-02-28T08:46:05.506000+00:00</time>
      </trkpt>
      <trkpt lat="0" lon="0">
        <time>2021-02-28T08:46:05.508000+00:00</time>
      </trkpt>
      <trkpt lat="0" lon="0">
        <time>2021-02-28T08:46:05.509000+00:00</time>
      </trkpt>
      <trkpt lat="0" lon="0">
        <time>2021-02-28T08:46:05.511000+00:00</time>
      </trkpt>
      <trkpt lat="47.31789" lon="-1.41339">
        <ele>93</ele>
        <time>2021-02-28T08:46:06.512000+00:00</time>
      </trkpt>
      <trkpt lat="0" lon="0">
        <time>2021-02-28T08:46:06.520000+00:00</time>
      </trkpt>
      <trkpt lat="0" lon="0">
        <time>2021-02-28T08:46:06.525000+00:00</time>
      </trkpt>
      <trkpt lat="0" lon="0">
        <time>2021-02-28T08:46:06.527000+00:00</time>
      </trkpt>
      <trkpt lat="47.31786" lon="-1.41344">
        <ele>92</ele>
        <time>2021-02-28T08:46:07.546000+00:00</time>
      </trkpt>
      <trkpt lat="0" lon="0">
        <time>2021-02-28T08:46:07.558000+00:00</time>
      </trkpt>
      <trkpt lat="0" lon="0">
        <time>2021-02-28T08:46:07.563000+00:00</time>
      </trkpt>
      <trkpt lat="0" lon="0">
        <time>2021-02-28T08:46:07.566000+00:00</time>
      </trkpt>
      <trkpt lat="47.31783" lon="-1.4135">
        <ele>92</ele>
        <time>2021-02-28T08:46:08.499000+00:00</time>
      </trkpt>
      <trkpt lat="0" lon="0">
        <time>2021-02-28T08:46:08.505000+00:00</time>
      </trkpt>
      <trkpt lat="0" lon="0">
        <time>2021-02-28T08:46:08.510000+00:00</time>
      </trkpt>
      <trkpt lat="0" lon="0">
        <time>2021-02-28T08:46:08.513000+00:00</time>
      </trkpt>
      <trkpt lat="47.31781" lon="-1.41355">
        <ele>91</ele>
        <time>2021-02-28T08:46:09.490000+00:00</time>
      </trkpt>
      <trkpt lat="0" lon="0">
        <time>2021-02-28T08:46:09.496000+00:00</time>
      </trkpt>
      <trkpt lat="0" lon="0">
        <time>2021-02-28T08:46:09.502000+00:00</time>
      </trkpt>
      <trkpt lat="0" lon="0">
        <time>2021-02-28T08:46:09.505000+00:00</time>
      </trkpt>
      <trkpt lat="47.31779" lon="-1.41361">
        <ele>91</ele>
        <time>2021-02-28T08:46:10.506000+00:00</time>
      </trkpt>
      <trkpt lat="0" lon="0">
        <time>2021-02-28T08:46:10.515000+00:00</time>
      </trkpt>
      <trkpt lat="0" lon="0">
        <time>2021-02-28T08:46:10.525000+00:00</time>
      </trkpt>
      <trkpt lat="0" lon="0">
        <time>2021-02-28T08:46:10.527000+00:00</time>
      </trkpt>
      <trkpt lat="47.31777" lon="-1.41365">
        <ele>91</ele>
        <time>2021-02-28T08:46:11.521000+00:00</time>
      </trkpt>
      <trkpt lat="0" lon="0">
        <time>2021-02-28T08:46:11.530000+00:00</time>
      </trkpt>
      <trkpt lat="0" lon="0">
        <time>2021-02-28T08:46:11.534000+00:00</time>
      </trkpt>
      <trkpt lat="0" lon="0">
        <time>2021-02-28T08:46:11.537000+00:00</time>
      </trkpt>
      <trkpt lat="47.31776" lon="-1.41369">
        <ele>91</ele>
        <time>2021-02-28T08:46:12.514000+00:00</time>
      </trkpt>
      <trkpt lat="0" lon="0">
        <time>2021-02-28T08:46:12.524000+00:00</time>
      </trkpt>
      <trkpt lat="0" lon="0">
        <time>2021-02-28T08:46:12.529000+00:00</time>
      </trkpt>
      <trkpt lat="0" lon="0">
        <time>2021-02-28T08:46:12.532000+00:00</time>
      </trkpt>
      <trkpt lat="47.31775" lon="-1.41373">
        <ele>91</ele>
        <time>2021-02-28T08:46:13.488000+00:00</time>
      </trkpt>
      <trkpt lat="0" lon="0">
        <time>2021-02-28T08:46:13.491000+00:00</time>
      </trkpt>
      <trkpt lat="0" lon="0">
        <time>2021-02-28T08:46:13.496000+00:00</time>
      </trkpt>
      <trkpt lat="0" lon="0">
        <time>2021-02-28T08:46:13.499000+00:00</time>
      </trkpt>
      <trkpt lat="47.31774" lon="-1.41376">
        <ele>91</ele>
        <time>2021-02-28T08:46:14.507000+00:00</time>
      </trkpt>
      <trkpt lat="0" lon="0">
        <time>2021-02-28T08:46:14.517000+00:00</time>
      </trkpt>
      <trkpt lat="0" lon="0">
        <time>2021-02-28T08:46:14.524000+00:00</time>
      </trkpt>
      <trkpt lat="0" lon="0">
        <time>2021-02-28T08:46:14.527000+00:00</time>
      </trkpt>
      <trkpt lat="47.31773" lon="-1.41379">
        <ele>91</ele>
        <time>2021-02-28T08:46:15.525000+00:00</time>
      </trkpt>
      <trkpt lat="0" lon="0">
        <time>2021-02-28T08:46:15.529000+00:00</time>
      </trkpt>
      <trkpt lat="0" lon="0">
        <time>2021-02-28T08:46:15.534000+00:00</time>
      </trkpt>
      <trkpt lat="0" lon="0">
        <time>2021-02-28T08:46:15.536000+00:00</time>
      </trkpt>
      <trkpt lat="47.31773" lon="-1.41381">
        <ele>91</ele>
        <time>2021-02-28T08:46:16.548000+00:00</time>
      </trkpt>
      <trkpt lat="0" lon="0">
        <time>2021-02-28T08:46:16.555000+00:00</time>
      </trkpt>
      <trkpt lat="0" lon="0">
        <time>2021-02-28T08:46:16.559000+00:00</time>
      </trkpt>
      <trkpt lat="0" lon="0">
        <time>2021-02-28T08:46:16.563000+00:00</time>
      </trkpt>
      <trkpt lat="47.31773" lon="-1.41384">
        <ele>91</ele>
        <time>2021-02-28T08:46:17.482000+00:00</time>
      </trkpt>
      <trkpt lat="0" lon="0">
        <time>2021-02-28T08:46:17.484000+00:00</time>
      </trkpt>
      <trkpt lat="0" lon="0">
        <time>2021-02-28T08:46:17.486000+00:00</time>
      </trkpt>
      <trkpt lat="0" lon="0">
        <time>2021-02-28T08:46:17.487000+00:00</time>
      </trkpt>
      <trkpt lat="47.31772" lon="-1.41387">
        <ele>91</ele>
        <time>2021-02-28T08:46:18.529000+00:00</time>
      </trkpt>
      <trkpt lat="0" lon="0">
        <time>2021-02-28T08:46:18.538000+00:00</time>
      </trkpt>
      <trkpt lat="0" lon="0">
        <time>2021-02-28T08:46:18.543000+00:00</time>
      </trkpt>
      <trkpt lat="0" lon="0">
        <time>2021-02-28T08:46:18.546000+00:00</time>
      </trkpt>
      <trkpt lat="47.31772" lon="-1.41389">
        <ele>90</ele>
        <time>2021-02-28T08:46:19.472000+00:00</time>
      </trkpt>
      <trkpt lat="0" lon="0">
        <time>2021-02-28T08:46:19.481000+00:00</time>
      </trkpt>
      <trkpt lat="0" lon="0">
        <time>2021-02-28T08:46:19.486000+00:00</time>
      </trkpt>
      <trkpt lat="0" lon="0">
        <time>2021-02-28T08:46:19.488000+00:00</time>
      </trkpt>
      <trkpt lat="47.31772" lon="-1.41392">
        <ele>90</ele>
        <time>2021-02-28T08:46:20.527000+00:00</time>
      </trkpt>
      <trkpt lat="0" lon="0">
        <time>2021-02-28T08:46:20.532000+00:00</time>
      </trkpt>
      <trkpt lat="0" lon="0">
        <time>2021-02-28T08:46:20.535000+00:00</time>
      </trkpt>
      <trkpt lat="0" lon="0">
        <time>2021-02-28T08:46:20.538000+00:00</time>
      </trkpt>
      <trkpt lat="47.31772" lon="-1.41395">
        <ele>90</ele>
        <time>2021-02-28T08:46:21.503000+00:00</time>
      </trkpt>
      <trkpt lat="0" lon="0">
        <time>2021-02-28T08:46:21.512000+00:00</time>
      </trkpt>
      <trkpt lat="0" lon="0">
        <time>2021-02-28T08:46:21.516000+00:00</time>
      </trkpt>
      <trkpt lat="0" lon="0">
        <time>2021-02-28T08:46:21.519000+00:00</time>
      </trkpt>
      <trkpt lat="47.31772" lon="-1.41397">
        <ele>90</ele>
        <time>2021-02-28T08:46:22.500000+00:00</time>
      </trkpt>
      <trkpt lat="0" lon="0">
        <time>2021-02-28T08:46:22.511000+00:00</time>
      </trkpt>
      <trkpt lat="0" lon="0">
        <time>2021-02-28T08:46:22.514000+00:00</time>
      </trkpt>
      <trkpt lat="0" lon="0">
        <time>2021-02-28T08:46:22.517000+00:00</time>
      </trkpt>
      <trkpt lat="47.31771" lon="-1.414">
        <ele>90</ele>
        <time>2021-02-28T08:46:23.522000+00:00</time>
      </trkpt>
      <trkpt lat="0" lon="0">
        <time>2021-02-28T08:46:23.535000+00:00</time>
      </trkpt>
      <trkpt lat="0" lon="0">
        <time>2021-02-28T08:46:23.543000+00:00</time>
      </trkpt>
      <trkpt lat="0" lon="0">
        <time>2021-02-28T08:46:23.546000+00:00</time>
      </trkpt>
      <trkpt lat="47.31771" lon="-1.41403">
        <ele>90</ele>
        <time>2021-02-28T08:46:24.473000+00:00</time>
      </trkpt>
      <trkpt lat="0" lon="0">
        <time>2021-02-28T08:46:24.479000+00:00</time>
      </trkpt>
      <trkpt lat="0" lon="0">
        <time>2021-02-28T08:46:24.483000+00:00</time>
      </trkpt>
      <trkpt lat="0" lon="0">
        <time>2021-02-28T08:46:24.486000+00:00</time>
      </trkpt>
      <trkpt lat="47.3177" lon="-1.41405">
        <ele>90</ele>
        <time>2021-02-28T08:46:25.509000+00:00</time>
      </trkpt>
      <trkpt lat="0" lon="0">
        <time>2021-02-28T08:46:25.515000+00:00</time>
      </trkpt>
      <trkpt lat="0" lon="0">
        <time>2021-02-28T08:46:25.519000+00:00</time>
      </trkpt>
      <trkpt lat="0" lon="0">
        <time>2021-02-28T08:46:25.522000+00:00</time>
      </trkpt>
      <trkpt lat="47.31769" lon="-1.41407">
        <ele>90</ele>
        <time>2021-02-28T08:46:26.513000+00:00</time>
      </trkpt>
      <trkpt lat="0" lon="0">
        <time>2021-02-28T08:46:26.520000+00:00</time>
      </trkpt>
      <trkpt lat="0" lon="0">
        <time>2021-02-28T08:46:26.525000+00:00</time>
      </trkpt>
      <trkpt lat="0" lon="0">
        <time>2021-02-28T08:46:26.527000+00:00</time>
      </trkpt>
      <trkpt lat="47.31768" lon="-1.41409">
        <ele>90</ele>
        <time>2021-02-28T08:46:27.465000+00:00</time>
      </trkpt>
      <trkpt lat="0" lon="0">
        <time>2021-02-28T08:46:27.469000+00:00</time>
      </trkpt>
      <trkpt lat="0" lon="0">
        <time>2021-02-28T08:46:27.473000+00:00</time>
      </trkpt>
      <trkpt lat="0" lon="0">
        <time>2021-02-28T08:46:27.474000+00:00</time>
      </trkpt>
      <trkpt lat="47.31767" lon="-1.41411">
        <ele>90</ele>
        <time>2021-02-28T08:46:28.525000+00:00</time>
      </trkpt>
      <trkpt lat="0" lon="0">
        <time>2021-02-28T08:46:28.534000+00:00</time>
      </trkpt>
      <trkpt lat="0" lon="0">
        <time>2021-02-28T08:46:28.540000+00:00</time>
      </trkpt>
      <trkpt lat="0" lon="0">
        <time>2021-02-28T08:46:28.544000+00:00</time>
      </trkpt>
      <trkpt lat="47.31767" lon="-1.41412">
        <ele>90</ele>
        <time>2021-02-28T08:46:29.491000+00:00</time>
      </trkpt>
      <trkpt lat="0" lon="0">
        <time>2021-02-28T08:46:29.498000+00:00</time>
      </trkpt>
      <trkpt lat="0" lon="0">
        <time>2021-02-28T08:46:29.502000+00:00</time>
      </trkpt>
      <trkpt lat="0" lon="0">
        <time>2021-02-28T08:46:29.505000+00:00</time>
      </trkpt>
      <trkpt lat="47.31766" lon="-1.41413">
        <ele>89</ele>
        <time>2021-02-28T08:46:30.521000+00:00</time>
      </trkpt>
      <trkpt lat="0" lon="0">
        <time>2021-02-28T08:46:30.527000+00:00</time>
      </trkpt>
      <trkpt lat="0" lon="0">
        <time>2021-02-28T08:46:30.532000+00:00</time>
      </trkpt>
      <trkpt lat="0" lon="0">
        <time>2021-02-28T08:46:30.535000+00:00</time>
      </trkpt>
      <trkpt lat="47.31765" lon="-1.41414">
        <ele>89</ele>
        <time>2021-02-28T08:46:31.523000+00:00</time>
      </trkpt>
      <trkpt lat="0" lon="0">
        <time>2021-02-28T08:46:31.532000+00:00</time>
      </trkpt>
      <trkpt lat="0" lon="0">
        <time>2021-02-28T08:46:31.539000+00:00</time>
      </trkpt>
      <trkpt lat="0" lon="0">
        <time>2021-02-28T08:46:31.543000+00:00</time>
      </trkpt>
      <trkpt lat="47.31765" lon="-1.41415">
        <ele>89</ele>
        <time>2021-02-28T08:46:32.508000+00:00</time>
      </trkpt>
      <trkpt lat="0" lon="0">
        <time>2021-02-28T08:46:32.519000+00:00</time>
      </trkpt>
      <trkpt lat="0" lon="0">
        <time>2021-02-28T08:46:32.524000+00:00</time>
      </trkpt>
      <trkpt lat="0" lon="0">
        <time>2021-02-28T08:46:32.527000+00:00</time>
      </trkpt>
      <trkpt lat="47.31765" lon="-1.41416">
        <ele>89</ele>
        <time>2021-02-28T08:46:33.509000+00:00</time>
      </trkpt>
      <trkpt lat="0" lon="0">
        <time>2021-02-28T08:46:33.515000+00:00</time>
      </trkpt>
      <trkpt lat="0" lon="0">
        <time>2021-02-28T08:46:33.522000+00:00</time>
      </trkpt>
      <trkpt lat="0" lon="0">
        <time>2021-02-28T08:46:33.524000+00:00</time>
      </trkpt>
      <trkpt lat="47.31764" lon="-1.41417">
        <ele>89</ele>
        <time>2021-02-28T08:46:34.504000+00:00</time>
      </trkpt>
      <trkpt lat="0" lon="0">
        <time>2021-02-28T08:46:34.512000+00:00</time>
      </trkpt>
      <trkpt lat="0" lon="0">
        <time>2021-02-28T08:46:34.515000+00:00</time>
      </trkpt>
      <trkpt lat="0" lon="0">
        <time>2021-02-28T08:46:34.516000+00:00</time>
      </trkpt>
      <trkpt lat="47.31764" lon="-1.41418">
        <ele>88</ele>
        <time>2021-02-28T08:46:35.489000+00:00</time>
      </trkpt>
      <trkpt lat="0" lon="0">
        <time>2021-02-28T08:46:35.495000+00:00</time>
      </trkpt>
      <trkpt lat="0" lon="0">
        <time>2021-02-28T08:46:35.504000+00:00</time>
      </trkpt>
      <trkpt lat="0" lon="0">
        <time>2021-02-28T08:46:35.507000+00:00</time>
      </trkpt>
      <trkpt lat="47.31763" lon="-1.41419">
        <ele>88</ele>
        <time>2021-02-28T08:46:36.531000+00:00</time>
      </trkpt>
      <trkpt lat="0" lon="0">
        <time>2021-02-28T08:46:36.539000+00:00</time>
      </trkpt>
      <trkpt lat="0" lon="0">
        <time>2021-02-28T08:46:36.545000+00:00</time>
      </trkpt>
      <trkpt lat="0" lon="0">
        <time>2021-02-28T08:46:36.548000+00:00</time>
      </trkpt>
      <trkpt lat="47.31763" lon="-1.41419">
        <ele>88</ele>
        <time>2021-02-28T08:46:37.502000+00:00</time>
      </trkpt>
      <trkpt lat="0" lon="0">
        <time>2021-02-28T08:46:37.513000+00:00</time>
      </trkpt>
      <trkpt lat="0" lon="0">
        <time>2021-02-28T08:46:37.518000+00:00</time>
      </trkpt>
      <trkpt lat="0" lon="0">
        <time>2021-02-28T08:46:37.520000+00:00</time>
      </trkpt>
      <trkpt lat="47.31763" lon="-1.4142">
        <ele>88</ele>
        <time>2021-02-28T08:46:38.491000+00:00</time>
      </trkpt>
      <trkpt lat="0" lon="0">
        <time>2021-02-28T08:46:38.501000+00:00</time>
      </trkpt>
      <trkpt lat="0" lon="0">
        <time>2021-02-28T08:46:38.509000+00:00</time>
      </trkpt>
      <trkpt lat="0" lon="0">
        <time>2021-02-28T08:46:38.513000+00:00</time>
      </trkpt>
      <trkpt lat="47.31762" lon="-1.41421">
        <ele>87</ele>
        <time>2021-02-28T08:46:39.466000+00:00</time>
      </trkpt>
      <trkpt lat="0" lon="0">
        <time>2021-02-28T08:46:39.473000+00:00</time>
      </trkpt>
      <trkpt lat="0" lon="0">
        <time>2021-02-28T08:46:39.478000+00:00</time>
      </trkpt>
      <trkpt lat="0" lon="0">
        <time>2021-02-28T08:46:39.480000+00:00</time>
      </trkpt>
      <trkpt lat="47.31762" lon="-1.41422">
        <ele>87</ele>
        <time>2021-02-28T08:46:40.508000+00:00</time>
      </trkpt>
      <trkpt lat="0" lon="0">
        <time>2021-02-28T08:46:40.511000+00:00</time>
      </trkpt>
      <trkpt lat="0" lon="0">
        <time>2021-02-28T08:46:40.519000+00:00</time>
      </trkpt>
      <trkpt lat="0" lon="0">
        <time>2021-02-28T08:46:40.520000+00:00</time>
      </trkpt>
      <trkpt lat="47.31761" lon="-1.41424">
        <ele>87</ele>
        <time>2021-02-28T08:46:41.504000+00:00</time>
      </trkpt>
      <trkpt lat="0" lon="0">
        <time>2021-02-28T08:46:41.514000+00:00</time>
      </trkpt>
      <trkpt lat="0" lon="0">
        <time>2021-02-28T08:46:41.521000+00:00</time>
      </trkpt>
      <trkpt lat="0" lon="0">
        <time>2021-02-28T08:46:41.523000+00:00</time>
      </trkpt>
      <trkpt lat="47.31761" lon="-1.41425">
        <ele>87</ele>
        <time>2021-02-28T08:46:42.527000+00:00</time>
      </trkpt>
      <trkpt lat="0" lon="0">
        <time>2021-02-28T08:46:42.535000+00:00</time>
      </trkpt>
      <trkpt lat="0" lon="0">
        <time>2021-02-28T08:46:42.545000+00:00</time>
      </trkpt>
      <trkpt lat="0" lon="0">
        <time>2021-02-28T08:46:42.548000+00:00</time>
      </trkpt>
      <trkpt lat="47.3176" lon="-1.41427">
        <ele>87</ele>
        <time>2021-02-28T08:46:43.485000+00:00</time>
      </trkpt>
      <trkpt lat="0" lon="0">
        <time>2021-02-28T08:46:43.491000+00:00</time>
      </trkpt>
      <trkpt lat="0" lon="0">
        <time>2021-02-28T08:46:43.499000+00:00</time>
      </trkpt>
      <trkpt lat="0" lon="0">
        <time>2021-02-28T08:46:43.501000+00:00</time>
      </trkpt>
      <trkpt lat="47.31759" lon="-1.4143">
        <ele>87</ele>
        <time>2021-02-28T08:46:44.509000+00:00</time>
      </trkpt>
      <trkpt lat="0" lon="0">
        <time>2021-02-28T08:46:44.516000+00:00</time>
      </trkpt>
      <trkpt lat="0" lon="0">
        <time>2021-02-28T08:46:44.524000+00:00</time>
      </trkpt>
      <trkpt lat="0" lon="0">
        <time>2021-02-28T08:46:44.530000+00:00</time>
      </trkpt>
      <trkpt lat="47.31758" lon="-1.41433">
        <ele>86</ele>
        <time>2021-02-28T08:46:45.530000+00:00</time>
      </trkpt>
      <trkpt lat="0" lon="0">
        <time>2021-02-28T08:46:45.539000+00:00</time>
      </trkpt>
      <trkpt lat="0" lon="0">
        <time>2021-02-28T08:46:45.544000+00:00</time>
      </trkpt>
      <trkpt lat="0" lon="0">
        <time>2021-02-28T08:46:45.547000+00:00</time>
      </trkpt>
      <trkpt lat="47.31757" lon="-1.41436">
        <ele>86</ele>
        <time>2021-02-28T08:46:46.457000+00:00</time>
      </trkpt>
      <trkpt lat="0" lon="0">
        <time>2021-02-28T08:46:46.465000+00:00</time>
      </trkpt>
      <trkpt lat="0" lon="0">
        <time>2021-02-28T08:46:46.470000+00:00</time>
      </trkpt>
      <trkpt lat="0" lon="0">
        <time>2021-02-28T08:46:46.473000+00:00</time>
      </trkpt>
      <trkpt lat="47.31755" lon="-1.41439">
        <ele>86</ele>
        <time>2021-02-28T08:46:47.467000+00:00</time>
      </trkpt>
      <trkpt lat="0" lon="0">
        <time>2021-02-28T08:46:47.473000+00:00</time>
      </trkpt>
      <trkpt lat="0" lon="0">
        <time>2021-02-28T08:46:47.478000+00:00</time>
      </trkpt>
      <trkpt lat="0" lon="0">
        <time>2021-02-28T08:46:47.482000+00:00</time>
      </trkpt>
      <trkpt lat="47.31754" lon="-1.41442">
        <ele>86</ele>
        <time>2021-02-28T08:46:48.480000+00:00</time>
      </trkpt>
      <trkpt lat="0" lon="0">
        <time>2021-02-28T08:46:48.486000+00:00</time>
      </trkpt>
      <trkpt lat="0" lon="0">
        <time>2021-02-28T08:46:48.492000+00:00</time>
      </trkpt>
      <trkpt lat="0" lon="0">
        <time>2021-02-28T08:46:48.495000+00:00</time>
      </trkpt>
      <trkpt lat="47.31753" lon="-1.41445">
        <ele>86</ele>
        <time>2021-02-28T08:46:49.513000+00:00</time>
      </trkpt>
      <trkpt lat="0" lon="0">
        <time>2021-02-28T08:46:49.521000+00:00</time>
      </trkpt>
      <trkpt lat="0" lon="0">
        <time>2021-02-28T08:46:49.526000+00:00</time>
      </trkpt>
      <trkpt lat="0" lon="0">
        <time>2021-02-28T08:46:49.528000+00:00</time>
      </trkpt>
      <trkpt lat="47.31752" lon="-1.41448">
        <ele>86</ele>
        <time>2021-02-28T08:46:50.509000+00:00</time>
      </trkpt>
      <trkpt lat="0" lon="0">
        <time>2021-02-28T08:46:50.518000+00:00</time>
      </trkpt>
      <trkpt lat="0" lon="0">
        <time>2021-02-28T08:46:50.523000+00:00</time>
      </trkpt>
      <trkpt lat="0" lon="0">
        <time>2021-02-28T08:46:50.527000+00:00</time>
      </trkpt>
      <trkpt lat="47.3175" lon="-1.4145">
        <ele>86</ele>
        <time>2021-02-28T08:46:51.482000+00:00</time>
      </trkpt>
      <trkpt lat="0" lon="0">
        <time>2021-02-28T08:46:51.489000+00:00</time>
      </trkpt>
      <trkpt lat="0" lon="0">
        <time>2021-02-28T08:46:51.495000+00:00</time>
      </trkpt>
      <trkpt lat="0" lon="0">
        <time>2021-02-28T08:46:51.503000+00:00</time>
      </trkpt>
      <trkpt lat="47.31749" lon="-1.41453">
        <ele>86</ele>
        <time>2021-02-28T08:46:52.505000+00:00</time>
      </trkpt>
      <trkpt lat="0" lon="0">
        <time>2021-02-28T08:46:52.511000+00:00</time>
      </trkpt>
      <trkpt lat="0" lon="0">
        <time>2021-02-28T08:46:52.517000+00:00</time>
      </trkpt>
      <trkpt lat="0" lon="0">
        <time>2021-02-28T08:46:52.519000+00:00</time>
      </trkpt>
      <trkpt lat="47.31748" lon="-1.41455">
        <ele>85</ele>
        <time>2021-02-28T08:46:53.508000+00:00</time>
      </trkpt>
      <trkpt lat="0" lon="0">
        <time>2021-02-28T08:46:53.515000+00:00</time>
      </trkpt>
      <trkpt lat="0" lon="0">
        <time>2021-02-28T08:46:53.522000+00:00</time>
      </trkpt>
      <trkpt lat="0" lon="0">
        <time>2021-02-28T08:46:53.525000+00:00</time>
      </trkpt>
      <trkpt lat="47.31747" lon="-1.41457">
        <ele>85</ele>
        <time>2021-02-28T08:46:54.533000+00:00</time>
      </trkpt>
      <trkpt lat="0" lon="0">
        <time>2021-02-28T08:46:54.541000+00:00</time>
      </trkpt>
      <trkpt lat="0" lon="0">
        <time>2021-02-28T08:46:54.552000+00:00</time>
      </trkpt>
      <trkpt lat="0" lon="0">
        <time>2021-02-28T08:46:54.555000+00:00</time>
      </trkpt>
      <trkpt lat="47.31746" lon="-1.41459">
        <ele>85</ele>
        <time>2021-02-28T08:46:55.443000+00:00</time>
      </trkpt>
      <trkpt lat="0" lon="0">
        <time>2021-02-28T08:46:55.449000+00:00</time>
      </trkpt>
      <trkpt lat="0" lon="0">
        <time>2021-02-28T08:46:55.454000+00:00</time>
      </trkpt>
      <trkpt lat="0" lon="0">
        <time>2021-02-28T08:46:55.455000+00:00</time>
      </trkpt>
      <trkpt lat="47.31745" lon="-1.41461">
        <ele>85</ele>
        <time>2021-02-28T08:46:56.514000+00:00</time>
      </trkpt>
      <trkpt lat="0" lon="0">
        <time>2021-02-28T08:46:56.527000+00:00</time>
      </trkpt>
      <trkpt lat="0" lon="0">
        <time>2021-02-28T08:46:56.531000+00:00</time>
      </trkpt>
      <trkpt lat="0" lon="0">
        <time>2021-02-28T08:46:56.533000+00:00</time>
      </trkpt>
      <trkpt lat="47.31745" lon="-1.41463">
        <ele>85</ele>
        <time>2021-02-28T08:46:57.497000+00:00</time>
      </trkpt>
      <trkpt lat="0" lon="0">
        <time>2021-02-28T08:46:57.500000+00:00</time>
      </trkpt>
      <trkpt lat="0" lon="0">
        <time>2021-02-28T08:46:57.503000+00:00</time>
      </trkpt>
      <trkpt lat="0" lon="0">
        <time>2021-02-28T08:46:57.505000+00:00</time>
      </trkpt>
      <trkpt lat="47.31744" lon="-1.41465">
        <ele>84</ele>
        <time>2021-02-28T08:46:58.532000+00:00</time>
      </trkpt>
      <trkpt lat="0" lon="0">
        <time>2021-02-28T08:46:58.537000+00:00</time>
      </trkpt>
      <trkpt lat="0" lon="0">
        <time>2021-02-28T08:46:58.543000+00:00</time>
      </trkpt>
      <trkpt lat="0" lon="0">
        <time>2021-02-28T08:46:58.546000+00:00</time>
      </trkpt>
      <trkpt lat="47.31743" lon="-1.41466">
        <ele>85</ele>
        <time>2021-02-28T08:46:59.519000+00:00</time>
      </trkpt>
      <trkpt lat="0" lon="0">
        <time>2021-02-28T08:46:59.525000+00:00</time>
      </trkpt>
      <trkpt lat="0" lon="0">
        <time>2021-02-28T08:46:59.530000+00:00</time>
      </trkpt>
      <trkpt lat="0" lon="0">
        <time>2021-02-28T08:46:59.533000+00:00</time>
      </trkpt>
      <trkpt lat="47.31742" lon="-1.41468">
        <ele>84</ele>
        <time>2021-02-28T08:47:00.505000+00:00</time>
      </trkpt>
      <trkpt lat="0" lon="0">
        <time>2021-02-28T08:47:00.519000+00:00</time>
      </trkpt>
      <trkpt lat="0" lon="0">
        <time>2021-02-28T08:47:00.525000+00:00</time>
      </trkpt>
      <trkpt lat="0" lon="0">
        <time>2021-02-28T08:47:00.528000+00:00</time>
      </trkpt>
      <trkpt lat="47.31742" lon="-1.4147">
        <ele>84</ele>
        <time>2021-02-28T08:47:01.503000+00:00</time>
      </trkpt>
      <trkpt lat="0" lon="0">
        <time>2021-02-28T08:47:01.516000+00:00</time>
      </trkpt>
      <trkpt lat="0" lon="0">
        <time>2021-02-28T08:47:01.521000+00:00</time>
      </trkpt>
      <trkpt lat="0" lon="0">
        <time>2021-02-28T08:47:01.525000+00:00</time>
      </trkpt>
      <trkpt lat="47.31741" lon="-1.41473">
        <ele>84</ele>
        <time>2021-02-28T08:47:02.524000+00:00</time>
      </trkpt>
      <trkpt lat="0" lon="0">
        <time>2021-02-28T08:47:02.530000+00:00</time>
      </trkpt>
      <trkpt lat="0" lon="0">
        <time>2021-02-28T08:47:02.536000+00:00</time>
      </trkpt>
      <trkpt lat="0" lon="0">
        <time>2021-02-28T08:47:02.545000+00:00</time>
      </trkpt>
      <trkpt lat="47.31741" lon="-1.41475">
        <ele>84</ele>
        <time>2021-02-28T08:47:03.508000+00:00</time>
      </trkpt>
      <trkpt lat="0" lon="0">
        <time>2021-02-28T08:47:03.515000+00:00</time>
      </trkpt>
      <trkpt lat="0" lon="0">
        <time>2021-02-28T08:47:03.521000+00:00</time>
      </trkpt>
      <trkpt lat="0" lon="0">
        <time>2021-02-28T08:47:03.525000+00:00</time>
      </trkpt>
      <trkpt lat="47.31741" lon="-1.41478">
        <ele>84</ele>
        <time>2021-02-28T08:47:04.503000+00:00</time>
      </trkpt>
      <trkpt lat="0" lon="0">
        <time>2021-02-28T08:47:04.510000+00:00</time>
      </trkpt>
      <trkpt lat="0" lon="0">
        <time>2021-02-28T08:47:04.515000+00:00</time>
      </trkpt>
      <trkpt lat="0" lon="0">
        <time>2021-02-28T08:47:04.518000+00:00</time>
      </trkpt>
      <trkpt lat="47.31741" lon="-1.41482">
        <ele>84</ele>
        <time>2021-02-28T08:47:05.505000+00:00</time>
      </trkpt>
      <trkpt lat="0" lon="0">
        <time>2021-02-28T08:47:05.516000+00:00</time>
      </trkpt>
      <trkpt lat="0" lon="0">
        <time>2021-02-28T08:47:05.524000+00:00</time>
      </trkpt>
      <trkpt lat="0" lon="0">
        <time>2021-02-28T08:47:05.529000+00:00</time>
      </trkpt>
      <trkpt lat="47.31742" lon="-1.41485">
        <ele>84</ele>
        <time>2021-02-28T08:47:06.505000+00:00</time>
      </trkpt>
      <trkpt lat="0" lon="0">
        <time>2021-02-28T08:47:06.519000+00:00</time>
      </trkpt>
      <trkpt lat="0" lon="0">
        <time>2021-02-28T08:47:06.525000+00:00</time>
      </trkpt>
      <trkpt lat="0" lon="0">
        <time>2021-02-28T08:47:06.527000+00:00</time>
      </trkpt>
      <trkpt lat="47.31742" lon="-1.41489">
        <ele>84</ele>
        <time>2021-02-28T08:47:07.497000+00:00</time>
      </trkpt>
      <trkpt lat="0" lon="0">
        <time>2021-02-28T08:47:07.507000+00:00</time>
      </trkpt>
      <trkpt lat="0" lon="0">
        <time>2021-02-28T08:47:07.512000+00:00</time>
      </trkpt>
      <trkpt lat="0" lon="0">
        <time>2021-02-28T08:47:07.515000+00:00</time>
      </trkpt>
      <trkpt lat="47.31742" lon="-1.41492">
        <ele>84</ele>
        <time>2021-02-28T08:47:08.494000+00:00</time>
      </trkpt>
      <trkpt lat="0" lon="0">
        <time>2021-02-28T08:47:08.506000+00:00</time>
      </trkpt>
      <trkpt lat="0" lon="0">
        <time>2021-02-28T08:47:08.509000+00:00</time>
      </trkpt>
      <trkpt lat="0" lon="0">
        <time>2021-02-28T08:47:08.512000+00:00</time>
      </trkpt>
      <trkpt lat="47.31743" lon="-1.41496">
        <ele>83</ele>
        <time>2021-02-28T08:47:09.506000+00:00</time>
      </trkpt>
      <trkpt lat="0" lon="0">
        <time>2021-02-28T08:47:09.515000+00:00</time>
      </trkpt>
      <trkpt lat="0" lon="0">
        <time>2021-02-28T08:47:09.522000+00:00</time>
      </trkpt>
      <trkpt lat="0" lon="0">
        <time>2021-02-28T08:47:09.526000+00:00</time>
      </trkpt>
      <trkpt lat="47.31744" lon="-1.415">
        <ele>83</ele>
        <time>2021-02-28T08:47:10.508000+00:00</time>
      </trkpt>
      <trkpt lat="0" lon="0">
        <time>2021-02-28T08:47:10.518000+00:00</time>
      </trkpt>
      <trkpt lat="0" lon="0">
        <time>2021-02-28T08:47:10.528000+00:00</time>
      </trkpt>
      <trkpt lat="0" lon="0">
        <time>2021-02-28T08:47:10.532000+00:00</time>
      </trkpt>
      <trkpt lat="47.31744" lon="-1.41504">
        <ele>83</ele>
        <time>2021-02-28T08:47:11.491000+00:00</time>
      </trkpt>
      <trkpt lat="0" lon="0">
        <time>2021-02-28T08:47:11.504000+00:00</time>
      </trkpt>
      <trkpt lat="0" lon="0">
        <time>2021-02-28T08:47:11.510000+00:00</time>
      </trkpt>
      <trkpt lat="0" lon="0">
        <time>2021-02-28T08:47:11.513000+00:00</time>
      </trkpt>
      <trkpt lat="47.31745" lon="-1.41508">
        <ele>83</ele>
        <time>2021-02-28T08:47:12.503000+00:00</time>
      </trkpt>
      <trkpt lat="0" lon="0">
        <time>2021-02-28T08:47:12.518000+00:00</time>
      </trkpt>
      <trkpt lat="0" lon="0">
        <time>2021-02-28T08:47:12.522000+00:00</time>
      </trkpt>
      <trkpt lat="0" lon="0">
        <time>2021-02-28T08:47:12.525000+00:00</time>
      </trkpt>
      <trkpt lat="47.31745" lon="-1.41513">
        <ele>82</ele>
        <time>2021-02-28T08:47:13.508000+00:00</time>
      </trkpt>
      <trkpt lat="0" lon="0">
        <time>2021-02-28T08:47:13.514000+00:00</time>
      </trkpt>
      <trkpt lat="0" lon="0">
        <time>2021-02-28T08:47:13.519000+00:00</time>
      </trkpt>
      <trkpt lat="0" lon="0">
        <time>2021-02-28T08:47:13.522000+00:00</time>
      </trkpt>
      <trkpt lat="47.31746" lon="-1.41517">
        <ele>82</ele>
        <time>2021-02-28T08:47:14.472000+00:00</time>
      </trkpt>
      <trkpt lat="0" lon="0">
        <time>2021-02-28T08:47:14.477000+00:00</time>
      </trkpt>
      <trkpt lat="0" lon="0">
        <time>2021-02-28T08:47:14.483000+00:00</time>
      </trkpt>
      <trkpt lat="0" lon="0">
        <time>2021-02-28T08:47:14.485000+00:00</time>
      </trkpt>
      <trkpt lat="47.31747" lon="-1.41522">
        <ele>82</ele>
        <time>2021-02-28T08:47:15.487000+00:00</time>
      </trkpt>
      <trkpt lat="0" lon="0">
        <time>2021-02-28T08:47:15.492000+00:00</time>
      </trkpt>
      <trkpt lat="0" lon="0">
        <time>2021-02-28T08:47:15.497000+00:00</time>
      </trkpt>
      <trkpt lat="0" lon="0">
        <time>2021-02-28T08:47:15.499000+00:00</time>
      </trkpt>
      <trkpt lat="47.31748" lon="-1.41527">
        <ele>82</ele>
        <time>2021-02-28T08:47:16.501000+00:00</time>
      </trkpt>
      <trkpt lat="0" lon="0">
        <time>2021-02-28T08:47:16.508000+00:00</time>
      </trkpt>
      <trkpt lat="0" lon="0">
        <time>2021-02-28T08:47:16.516000+00:00</time>
      </trkpt>
      <trkpt lat="0" lon="0">
        <time>2021-02-28T08:47:16.519000+00:00</time>
      </trkpt>
      <trkpt lat="47.3175" lon="-1.41533">
        <ele>82</ele>
        <time>2021-02-28T08:47:17.530000+00:00</time>
      </trkpt>
      <trkpt lat="0" lon="0">
        <time>2021-02-28T08:47:17.542000+00:00</time>
      </trkpt>
      <trkpt lat="0" lon="0">
        <time>2021-02-28T08:47:17.550000+00:00</time>
      </trkpt>
      <trkpt lat="0" lon="0">
        <time>2021-02-28T08:47:17.552000+00:00</time>
      </trkpt>
      <trkpt lat="47.31751" lon="-1.41538">
        <ele>81</ele>
        <time>2021-02-28T08:47:18.514000+00:00</time>
      </trkpt>
      <trkpt lat="0" lon="0">
        <time>2021-02-28T08:47:18.522000+00:00</time>
      </trkpt>
      <trkpt lat="0" lon="0">
        <time>2021-02-28T08:47:18.527000+00:00</time>
      </trkpt>
      <trkpt lat="0" lon="0">
        <time>2021-02-28T08:47:18.530000+00:00</time>
      </trkpt>
      <trkpt lat="47.31753" lon="-1.41543">
        <ele>81</ele>
        <time>2021-02-28T08:47:19.516000+00:00</time>
      </trkpt>
      <trkpt lat="0" lon="0">
        <time>2021-02-28T08:47:19.521000+00:00</time>
      </trkpt>
      <trkpt lat="0" lon="0">
        <time>2021-02-28T08:47:19.525000+00:00</time>
      </trkpt>
      <trkpt lat="0" lon="0">
        <time>2021-02-28T08:47:19.527000+00:00</time>
      </trkpt>
      <trkpt lat="47.31754" lon="-1.41549">
        <ele>80</ele>
        <time>2021-02-28T08:47:20.491000+00:00</time>
      </trkpt>
      <trkpt lat="0" lon="0">
        <time>2021-02-28T08:47:20.505000+00:00</time>
      </trkpt>
      <trkpt lat="0" lon="0">
        <time>2021-02-28T08:47:20.517000+00:00</time>
      </trkpt>
      <trkpt lat="0" lon="0">
        <time>2021-02-28T08:47:20.521000+00:00</time>
      </trkpt>
      <trkpt lat="47.31755" lon="-1.41554">
        <ele>79</ele>
        <time>2021-02-28T08:47:21.475000+00:00</time>
      </trkpt>
      <trkpt lat="0" lon="0">
        <time>2021-02-28T08:47:21.489000+00:00</time>
      </trkpt>
      <trkpt lat="0" lon="0">
        <time>2021-02-28T08:47:21.498000+00:00</time>
      </trkpt>
      <trkpt lat="0" lon="0">
        <time>2021-02-28T08:47:21.500000+00:00</time>
      </trkpt>
      <trkpt lat="47.31756" lon="-1.41558">
        <ele>78</ele>
        <time>2021-02-28T08:47:22.484000+00:00</time>
      </trkpt>
      <trkpt lat="0" lon="0">
        <time>2021-02-28T08:47:22.496000+00:00</time>
      </trkpt>
      <trkpt lat="0" lon="0">
        <time>2021-02-28T08:47:22.502000+00:00</time>
      </trkpt>
      <trkpt lat="0" lon="0">
        <time>2021-02-28T08:47:22.505000+00:00</time>
      </trkpt>
      <trkpt lat="47.31757" lon="-1.41563">
        <ele>78</ele>
        <time>2021-02-28T08:47:23.522000+00:00</time>
      </trkpt>
      <trkpt lat="0" lon="0">
        <time>2021-02-28T08:47:23.534000+00:00</time>
      </trkpt>
      <trkpt lat="0" lon="0">
        <time>2021-02-28T08:47:23.544000+00:00</time>
      </trkpt>
      <trkpt lat="0" lon="0">
        <time>2021-02-28T08:47:23.551000+00:00</time>
      </trkpt>
      <trkpt lat="47.31757" lon="-1.41567">
        <ele>78</ele>
        <time>2021-02-28T08:47:24.559000+00:00</time>
      </trkpt>
      <trkpt lat="0" lon="0">
        <time>2021-02-28T08:47:24.573000+00:00</time>
      </trkpt>
      <trkpt lat="0" lon="0">
        <time>2021-02-28T08:47:24.579000+00:00</time>
      </trkpt>
      <trkpt lat="0" lon="0">
        <time>2021-02-28T08:47:24.582000+00:00</time>
      </trkpt>
      <trkpt lat="47.31758" lon="-1.41571">
        <ele>77</ele>
        <time>2021-02-28T08:47:25.502000+00:00</time>
      </trkpt>
      <trkpt lat="0" lon="0">
        <time>2021-02-28T08:47:25.504000+00:00</time>
      </trkpt>
      <trkpt lat="0" lon="0">
        <time>2021-02-28T08:47:25.506000+00:00</time>
      </trkpt>
      <trkpt lat="0" lon="0">
        <time>2021-02-28T08:47:25.508000+00:00</time>
      </trkpt>
      <trkpt lat="47.3176" lon="-1.41574">
        <ele>76</ele>
        <time>2021-02-28T08:47:26.479000+00:00</time>
      </trkpt>
      <trkpt lat="0" lon="0">
        <time>2021-02-28T08:47:26.495000+00:00</time>
      </trkpt>
      <trkpt lat="0" lon="0">
        <time>2021-02-28T08:47:26.505000+00:00</time>
      </trkpt>
      <trkpt lat="0" lon="0">
        <time>2021-02-28T08:47:26.507000+00:00</time>
      </trkpt>
      <trkpt lat="47.31761" lon="-1.41576">
        <ele>75</ele>
        <time>2021-02-28T08:47:27.483000+00:00</time>
      </trkpt>
      <trkpt lat="0" lon="0">
        <time>2021-02-28T08:47:27.489000+00:00</time>
      </trkpt>
      <trkpt lat="0" lon="0">
        <time>2021-02-28T08:47:27.494000+00:00</time>
      </trkpt>
      <trkpt lat="0" lon="0">
        <time>2021-02-28T08:47:27.497000+00:00</time>
      </trkpt>
      <trkpt lat="47.31763" lon="-1.41578">
        <ele>75</ele>
        <time>2021-02-28T08:47:28.507000+00:00</time>
      </trkpt>
      <trkpt lat="0" lon="0">
        <time>2021-02-28T08:47:28.514000+00:00</time>
      </trkpt>
      <trkpt lat="0" lon="0">
        <time>2021-02-28T08:47:28.521000+00:00</time>
      </trkpt>
      <trkpt lat="0" lon="0">
        <time>2021-02-28T08:47:28.524000+00:00</time>
      </trkpt>
      <trkpt lat="47.31765" lon="-1.4158">
        <ele>74</ele>
        <time>2021-02-28T08:47:29.527000+00:00</time>
      </trkpt>
      <trkpt lat="0" lon="0">
        <time>2021-02-28T08:47:29.539000+00:00</time>
      </trkpt>
      <trkpt lat="0" lon="0">
        <time>2021-02-28T08:47:29.545000+00:00</time>
      </trkpt>
      <trkpt lat="0" lon="0">
        <time>2021-02-28T08:47:29.547000+00:00</time>
      </trkpt>
      <trkpt lat="47.31767" lon="-1.41581">
        <ele>74</ele>
        <time>2021-02-28T08:47:30.511000+00:00</time>
      </trkpt>
      <trkpt lat="0" lon="0">
        <time>2021-02-28T08:47:30.518000+00:00</time>
      </trkpt>
      <trkpt lat="0" lon="0">
        <time>2021-02-28T08:47:30.523000+00:00</time>
      </trkpt>
      <trkpt lat="0" lon="0">
        <time>2021-02-28T08:47:30.526000+00:00</time>
      </trkpt>
      <trkpt lat="47.3177" lon="-1.41583">
        <ele>74</ele>
        <time>2021-02-28T08:47:31.473000+00:00</time>
      </trkpt>
      <trkpt lat="0" lon="0">
        <time>2021-02-28T08:47:31.475000+00:00</time>
      </trkpt>
      <trkpt lat="0" lon="0">
        <time>2021-02-28T08:47:31.478000+00:00</time>
      </trkpt>
      <trkpt lat="0" lon="0">
        <time>2021-02-28T08:47:31.479000+00:00</time>
      </trkpt>
      <trkpt lat="47.31773" lon="-1.41584">
        <ele>74</ele>
        <time>2021-02-28T08:47:32.508000+00:00</time>
      </trkpt>
      <trkpt lat="0" lon="0">
        <time>2021-02-28T08:47:32.518000+00:00</time>
      </trkpt>
      <trkpt lat="0" lon="0">
        <time>2021-02-28T08:47:32.524000+00:00</time>
      </trkpt>
      <trkpt lat="0" lon="0">
        <time>2021-02-28T08:47:32.527000+00:00</time>
      </trkpt>
      <trkpt lat="47.31775" lon="-1.41585">
        <ele>74</ele>
        <time>2021-02-28T08:47:33.510000+00:00</time>
      </trkpt>
      <trkpt lat="0" lon="0">
        <time>2021-02-28T08:47:33.520000+00:00</time>
      </trkpt>
      <trkpt lat="0" lon="0">
        <time>2021-02-28T08:47:33.526000+00:00</time>
      </trkpt>
      <trkpt lat="0" lon="0">
        <time>2021-02-28T08:47:33.529000+00:00</time>
      </trkpt>
      <trkpt lat="47.31778" lon="-1.41586">
        <ele>74</ele>
        <time>2021-02-28T08:47:34.527000+00:00</time>
      </trkpt>
      <trkpt lat="0" lon="0">
        <time>2021-02-28T08:47:34.546000+00:00</time>
      </trkpt>
      <trkpt lat="0" lon="0">
        <time>2021-02-28T08:47:34.555000+00:00</time>
      </trkpt>
      <trkpt lat="0" lon="0">
        <time>2021-02-28T08:47:34.557000+00:00</time>
      </trkpt>
      <trkpt lat="47.31781" lon="-1.41587">
        <ele>74</ele>
        <time>2021-02-28T08:47:35.527000+00:00</time>
      </trkpt>
      <trkpt lat="0" lon="0">
        <time>2021-02-28T08:47:35.533000+00:00</time>
      </trkpt>
      <trkpt lat="0" lon="0">
        <time>2021-02-28T08:47:35.544000+00:00</time>
      </trkpt>
      <trkpt lat="0" lon="0">
        <time>2021-02-28T08:47:35.546000+00:00</time>
      </trkpt>
      <trkpt lat="47.31785" lon="-1.41587">
        <ele>74</ele>
        <time>2021-02-28T08:47:36.506000+00:00</time>
      </trkpt>
      <trkpt lat="0" lon="0">
        <time>2021-02-28T08:47:36.518000+00:00</time>
      </trkpt>
      <trkpt lat="0" lon="0">
        <time>2021-02-28T08:47:36.525000+00:00</time>
      </trkpt>
      <trkpt lat="0" lon="0">
        <time>2021-02-28T08:47:36.527000+00:00</time>
      </trkpt>
      <trkpt lat="47.31788" lon="-1.41588">
        <ele>74</ele>
        <time>2021-02-28T08:47:37.480000+00:00</time>
      </trkpt>
      <trkpt lat="0" lon="0">
        <time>2021-02-28T08:47:37.482000+00:00</time>
      </trkpt>
      <trkpt lat="0" lon="0">
        <time>2021-02-28T08:47:37.485000+00:00</time>
      </trkpt>
      <trkpt lat="0" lon="0">
        <time>2021-02-28T08:47:37.486000+00:00</time>
      </trkpt>
      <trkpt lat="47.31791" lon="-1.41589">
        <ele>73</ele>
        <time>2021-02-28T08:47:38.489000+00:00</time>
      </trkpt>
      <trkpt lat="0" lon="0">
        <time>2021-02-28T08:47:38.499000+00:00</time>
      </trkpt>
      <trkpt lat="0" lon="0">
        <time>2021-02-28T08:47:38.504000+00:00</time>
      </trkpt>
      <trkpt lat="0" lon="0">
        <time>2021-02-28T08:47:38.507000+00:00</time>
      </trkpt>
      <trkpt lat="47.31794" lon="-1.41589">
        <ele>73</ele>
        <time>2021-02-28T08:47:39.480000+00:00</time>
      </trkpt>
      <trkpt lat="0" lon="0">
        <time>2021-02-28T08:47:39.491000+00:00</time>
      </trkpt>
      <trkpt lat="0" lon="0">
        <time>2021-02-28T08:47:39.499000+00:00</time>
      </trkpt>
      <trkpt lat="0" lon="0">
        <time>2021-02-28T08:47:39.502000+00:00</time>
      </trkpt>
      <trkpt lat="47.31797" lon="-1.4159">
        <ele>73</ele>
        <time>2021-02-28T08:47:40.504000+00:00</time>
      </trkpt>
      <trkpt lat="0" lon="0">
        <time>2021-02-28T08:47:40.521000+00:00</time>
      </trkpt>
      <trkpt lat="0" lon="0">
        <time>2021-02-28T08:47:40.527000+00:00</time>
      </trkpt>
      <trkpt lat="0" lon="0">
        <time>2021-02-28T08:47:40.530000+00:00</time>
      </trkpt>
      <trkpt lat="47.31801" lon="-1.41591">
        <ele>73</ele>
        <time>2021-02-28T08:47:41.444000+00:00</time>
      </trkpt>
      <trkpt lat="0" lon="0">
        <time>2021-02-28T08:47:41.452000+00:00</time>
      </trkpt>
      <trkpt lat="0" lon="0">
        <time>2021-02-28T08:47:41.458000+00:00</time>
      </trkpt>
      <trkpt lat="0" lon="0">
        <time>2021-02-28T08:47:41.461000+00:00</time>
      </trkpt>
      <trkpt lat="47.31804" lon="-1.41592">
        <ele>72</ele>
        <time>2021-02-28T08:47:42.493000+00:00</time>
      </trkpt>
      <trkpt lat="0" lon="0">
        <time>2021-02-28T08:47:42.503000+00:00</time>
      </trkpt>
      <trkpt lat="0" lon="0">
        <time>2021-02-28T08:47:42.508000+00:00</time>
      </trkpt>
      <trkpt lat="0" lon="0">
        <time>2021-02-28T08:47:42.511000+00:00</time>
      </trkpt>
      <trkpt lat="47.31808" lon="-1.41593">
        <ele>72</ele>
        <time>2021-02-28T08:47:43.474000+00:00</time>
      </trkpt>
      <trkpt lat="0" lon="0">
        <time>2021-02-28T08:47:43.484000+00:00</time>
      </trkpt>
      <trkpt lat="0" lon="0">
        <time>2021-02-28T08:47:43.493000+00:00</time>
      </trkpt>
      <trkpt lat="0" lon="0">
        <time>2021-02-28T08:47:43.495000+00:00</time>
      </trkpt>
      <trkpt lat="47.31811" lon="-1.41594">
        <ele>72</ele>
        <time>2021-02-28T08:47:44.505000+00:00</time>
      </trkpt>
      <trkpt lat="0" lon="0">
        <time>2021-02-28T08:47:44.515000+00:00</time>
      </trkpt>
      <trkpt lat="0" lon="0">
        <time>2021-02-28T08:47:44.523000+00:00</time>
      </trkpt>
      <trkpt lat="0" lon="0">
        <time>2021-02-28T08:47:44.526000+00:00</time>
      </trkpt>
      <trkpt lat="47.31815" lon="-1.41595">
        <ele>72</ele>
        <time>2021-02-28T08:47:45.537000+00:00</time>
      </trkpt>
      <trkpt lat="0" lon="0">
        <time>2021-02-28T08:47:45.545000+00:00</time>
      </trkpt>
      <trkpt lat="0" lon="0">
        <time>2021-02-28T08:47:45.551000+00:00</time>
      </trkpt>
      <trkpt lat="0" lon="0">
        <time>2021-02-28T08:47:45.554000+00:00</time>
      </trkpt>
      <trkpt lat="47.31818" lon="-1.41597">
        <ele>71</ele>
        <time>2021-02-28T08:47:46.519000+00:00</time>
      </trkpt>
      <trkpt lat="0" lon="0">
        <time>2021-02-28T08:47:46.529000+00:00</time>
      </trkpt>
      <trkpt lat="0" lon="0">
        <time>2021-02-28T08:47:46.539000+00:00</time>
      </trkpt>
      <trkpt lat="0" lon="0">
        <time>2021-02-28T08:47:46.542000+00:00</time>
      </trkpt>
      <trkpt lat="47.31822" lon="-1.41598">
        <ele>71</ele>
        <time>2021-02-28T08:47:47.510000+00:00</time>
      </trkpt>
      <trkpt lat="0" lon="0">
        <time>2021-02-28T08:47:47.517000+00:00</time>
      </trkpt>
      <trkpt lat="0" lon="0">
        <time>2021-02-28T08:47:47.521000+00:00</time>
      </trkpt>
      <trkpt lat="0" lon="0">
        <time>2021-02-28T08:47:47.523000+00:00</time>
      </trkpt>
      <trkpt lat="47.31825" lon="-1.41599">
        <ele>71</ele>
        <time>2021-02-28T08:47:48.480000+00:00</time>
      </trkpt>
      <trkpt lat="0" lon="0">
        <time>2021-02-28T08:47:48.498000+00:00</time>
      </trkpt>
      <trkpt lat="0" lon="0">
        <time>2021-02-28T08:47:48.510000+00:00</time>
      </trkpt>
      <trkpt lat="0" lon="0">
        <time>2021-02-28T08:47:48.511000+00:00</time>
      </trkpt>
      <trkpt lat="47.31828" lon="-1.41601">
        <ele>71</ele>
        <time>2021-02-28T08:47:49.515000+00:00</time>
      </trkpt>
      <trkpt lat="0" lon="0">
        <time>2021-02-28T08:47:49.523000+00:00</time>
      </trkpt>
      <trkpt lat="0" lon="0">
        <time>2021-02-28T08:47:49.528000+00:00</time>
      </trkpt>
      <trkpt lat="0" lon="0">
        <time>2021-02-28T08:47:49.530000+00:00</time>
      </trkpt>
      <trkpt lat="47.31832" lon="-1.41602">
        <ele>71</ele>
        <time>2021-02-28T08:47:50.542000+00:00</time>
      </trkpt>
      <trkpt lat="0" lon="0">
        <time>2021-02-28T08:47:50.552000+00:00</time>
      </trkpt>
      <trkpt lat="0" lon="0">
        <time>2021-02-28T08:47:50.560000+00:00</time>
      </trkpt>
      <trkpt lat="0" lon="0">
        <time>2021-02-28T08:47:50.563000+00:00</time>
      </trkpt>
      <trkpt lat="47.31835" lon="-1.41603">
        <ele>71</ele>
        <time>2021-02-28T08:47:51.517000+00:00</time>
      </trkpt>
      <trkpt lat="0" lon="0">
        <time>2021-02-28T08:47:51.525000+00:00</time>
      </trkpt>
      <trkpt lat="0" lon="0">
        <time>2021-02-28T08:47:51.531000+00:00</time>
      </trkpt>
      <trkpt lat="0" lon="0">
        <time>2021-02-28T08:47:51.536000+00:00</time>
      </trkpt>
      <trkpt lat="47.31839" lon="-1.41605">
        <ele>71</ele>
        <time>2021-02-28T08:47:52.524000+00:00</time>
      </trkpt>
      <trkpt lat="0" lon="0">
        <time>2021-02-28T08:47:52.530000+00:00</time>
      </trkpt>
      <trkpt lat="0" lon="0">
        <time>2021-02-28T08:47:52.535000+00:00</time>
      </trkpt>
      <trkpt lat="0" lon="0">
        <time>2021-02-28T08:47:52.538000+00:00</time>
      </trkpt>
      <trkpt lat="47.31842" lon="-1.41606">
        <ele>71</ele>
        <time>2021-02-28T08:47:53.516000+00:00</time>
      </trkpt>
      <trkpt lat="0" lon="0">
        <time>2021-02-28T08:47:53.523000+00:00</time>
      </trkpt>
      <trkpt lat="0" lon="0">
        <time>2021-02-28T08:47:53.529000+00:00</time>
      </trkpt>
      <trkpt lat="0" lon="0">
        <time>2021-02-28T08:47:53.531000+00:00</time>
      </trkpt>
      <trkpt lat="47.31845" lon="-1.41608">
        <ele>71</ele>
        <time>2021-02-28T08:47:54.531000+00:00</time>
      </trkpt>
      <trkpt lat="0" lon="0">
        <time>2021-02-28T08:47:54.536000+00:00</time>
      </trkpt>
      <trkpt lat="0" lon="0">
        <time>2021-02-28T08:47:54.541000+00:00</time>
      </trkpt>
      <trkpt lat="0" lon="0">
        <time>2021-02-28T08:47:54.543000+00:00</time>
      </trkpt>
      <trkpt lat="47.31848" lon="-1.41609">
        <ele>71</ele>
        <time>2021-02-28T08:47:55.504000+00:00</time>
      </trkpt>
      <trkpt lat="0" lon="0">
        <time>2021-02-28T08:47:55.509000+00:00</time>
      </trkpt>
      <trkpt lat="0" lon="0">
        <time>2021-02-28T08:47:55.517000+00:00</time>
      </trkpt>
      <trkpt lat="0" lon="0">
        <time>2021-02-28T08:47:55.519000+00:00</time>
      </trkpt>
      <trkpt lat="47.31852" lon="-1.4161">
        <ele>71</ele>
        <time>2021-02-28T08:47:56.510000+00:00</time>
      </trkpt>
      <trkpt lat="0" lon="0">
        <time>2021-02-28T08:47:56.520000+00:00</time>
      </trkpt>
      <trkpt lat="0" lon="0">
        <time>2021-02-28T08:47:56.523000+00:00</time>
      </trkpt>
      <trkpt lat="0" lon="0">
        <time>2021-02-28T08:47:56.526000+00:00</time>
      </trkpt>
      <trkpt lat="47.31855" lon="-1.41612">
        <ele>71</ele>
        <time>2021-02-28T08:47:57.490000+00:00</time>
      </trkpt>
      <trkpt lat="0" lon="0">
        <time>2021-02-28T08:47:57.502000+00:00</time>
      </trkpt>
      <trkpt lat="0" lon="0">
        <time>2021-02-28T08:47:57.507000+00:00</time>
      </trkpt>
      <trkpt lat="0" lon="0">
        <time>2021-02-28T08:47:57.511000+00:00</time>
      </trkpt>
      <trkpt lat="47.31858" lon="-1.41613">
        <ele>72</ele>
        <time>2021-02-28T08:47:58.522000+00:00</time>
      </trkpt>
      <trkpt lat="0" lon="0">
        <time>2021-02-28T08:47:58.534000+00:00</time>
      </trkpt>
      <trkpt lat="0" lon="0">
        <time>2021-02-28T08:47:58.540000+00:00</time>
      </trkpt>
      <trkpt lat="0" lon="0">
        <time>2021-02-28T08:47:58.545000+00:00</time>
      </trkpt>
      <trkpt lat="47.31861" lon="-1.41614">
        <ele>72</ele>
        <time>2021-02-28T08:47:59.507000+00:00</time>
      </trkpt>
      <trkpt lat="0" lon="0">
        <time>2021-02-28T08:47:59.523000+00:00</time>
      </trkpt>
      <trkpt lat="0" lon="0">
        <time>2021-02-28T08:47:59.531000+00:00</time>
      </trkpt>
      <trkpt lat="0" lon="0">
        <time>2021-02-28T08:47:59.534000+00:00</time>
      </trkpt>
      <trkpt lat="47.31865" lon="-1.41615">
        <ele>72</ele>
        <time>2021-02-28T08:48:00.496000+00:00</time>
      </trkpt>
      <trkpt lat="0" lon="0">
        <time>2021-02-28T08:48:00.509000+00:00</time>
      </trkpt>
      <trkpt lat="0" lon="0">
        <time>2021-02-28T08:48:00.514000+00:00</time>
      </trkpt>
      <trkpt lat="0" lon="0">
        <time>2021-02-28T08:48:00.517000+00:00</time>
      </trkpt>
      <trkpt lat="47.31868" lon="-1.41616">
        <ele>72</ele>
        <time>2021-02-28T08:48:01.502000+00:00</time>
      </trkpt>
      <trkpt lat="0" lon="0">
        <time>2021-02-28T08:48:01.510000+00:00</time>
      </trkpt>
      <trkpt lat="0" lon="0">
        <time>2021-02-28T08:48:01.516000+00:00</time>
      </trkpt>
      <trkpt lat="0" lon="0">
        <time>2021-02-28T08:48:01.519000+00:00</time>
      </trkpt>
      <trkpt lat="47.3187" lon="-1.41617">
        <ele>73</ele>
        <time>2021-02-28T08:48:02.514000+00:00</time>
      </trkpt>
      <trkpt lat="0" lon="0">
        <time>2021-02-28T08:48:02.523000+00:00</time>
      </trkpt>
      <trkpt lat="0" lon="0">
        <time>2021-02-28T08:48:02.529000+00:00</time>
      </trkpt>
      <trkpt lat="0" lon="0">
        <time>2021-02-28T08:48:02.532000+00:00</time>
      </trkpt>
      <trkpt lat="47.31873" lon="-1.41618">
        <ele>73</ele>
        <time>2021-02-28T08:48:03.497000+00:00</time>
      </trkpt>
      <trkpt lat="0" lon="0">
        <time>2021-02-28T08:48:03.503000+00:00</time>
      </trkpt>
      <trkpt lat="0" lon="0">
        <time>2021-02-28T08:48:03.510000+00:00</time>
      </trkpt>
      <trkpt lat="0" lon="0">
        <time>2021-02-28T08:48:03.514000+00:00</time>
      </trkpt>
      <trkpt lat="47.31876" lon="-1.41619">
        <ele>73</ele>
        <time>2021-02-28T08:48:04.529000+00:00</time>
      </trkpt>
      <trkpt lat="0" lon="0">
        <time>2021-02-28T08:48:04.534000+00:00</time>
      </trkpt>
      <trkpt lat="0" lon="0">
        <time>2021-02-28T08:48:04.542000+00:00</time>
      </trkpt>
      <trkpt lat="0" lon="0">
        <time>2021-02-28T08:48:04.544000+00:00</time>
      </trkpt>
      <trkpt lat="47.31878" lon="-1.41619">
        <ele>73</ele>
        <time>2021-02-28T08:48:05.494000+00:00</time>
      </trkpt>
      <trkpt lat="0" lon="0">
        <time>2021-02-28T08:48:05.499000+00:00</time>
      </trkpt>
      <trkpt lat="0" lon="0">
        <time>2021-02-28T08:48:05.506000+00:00</time>
      </trkpt>
      <trkpt lat="0" lon="0">
        <time>2021-02-28T08:48:05.509000+00:00</time>
      </trkpt>
      <trkpt lat="47.31881" lon="-1.4162">
        <ele>73</ele>
        <time>2021-02-28T08:48:06.539000+00:00</time>
      </trkpt>
      <trkpt lat="0" lon="0">
        <time>2021-02-28T08:48:06.545000+00:00</time>
      </trkpt>
      <trkpt lat="0" lon="0">
        <time>2021-02-28T08:48:06.551000+00:00</time>
      </trkpt>
      <trkpt lat="0" lon="0">
        <time>2021-02-28T08:48:06.554000+00:00</time>
      </trkpt>
      <trkpt lat="47.31884" lon="-1.41621">
        <ele>74</ele>
        <time>2021-02-28T08:48:07.499000+00:00</time>
      </trkpt>
      <trkpt lat="0" lon="0">
        <time>2021-02-28T08:48:07.508000+00:00</time>
      </trkpt>
      <trkpt lat="0" lon="0">
        <time>2021-02-28T08:48:07.513000+00:00</time>
      </trkpt>
      <trkpt lat="0" lon="0">
        <time>2021-02-28T08:48:07.516000+00:00</time>
      </trkpt>
      <trkpt lat="47.31886" lon="-1.41622">
        <ele>74</ele>
        <time>2021-02-28T08:48:08.527000+00:00</time>
      </trkpt>
      <trkpt lat="0" lon="0">
        <time>2021-02-28T08:48:08.538000+00:00</time>
      </trkpt>
      <trkpt lat="0" lon="0">
        <time>2021-02-28T08:48:08.545000+00:00</time>
      </trkpt>
      <trkpt lat="0" lon="0">
        <time>2021-02-28T08:48:08.548000+00:00</time>
      </trkpt>
      <trkpt lat="47.31889" lon="-1.41622">
        <ele>74</ele>
        <time>2021-02-28T08:48:09.554000+00:00</time>
      </trkpt>
      <trkpt lat="0" lon="0">
        <time>2021-02-28T08:48:09.561000+00:00</time>
      </trkpt>
      <trkpt lat="0" lon="0">
        <time>2021-02-28T08:48:09.567000+00:00</time>
      </trkpt>
      <trkpt lat="0" lon="0">
        <time>2021-02-28T08:48:09.570000+00:00</time>
      </trkpt>
      <trkpt lat="47.31892" lon="-1.41623">
        <ele>75</ele>
        <time>2021-02-28T08:48:10.491000+00:00</time>
      </trkpt>
      <trkpt lat="0" lon="0">
        <time>2021-02-28T08:48:10.495000+00:00</time>
      </trkpt>
      <trkpt lat="0" lon="0">
        <time>2021-02-28T08:48:10.499000+00:00</time>
      </trkpt>
      <trkpt lat="0" lon="0">
        <time>2021-02-28T08:48:10.502000+00:00</time>
      </trkpt>
      <trkpt lat="47.31895" lon="-1.41624">
        <ele>75</ele>
        <time>2021-02-28T08:48:11.501000+00:00</time>
      </trkpt>
      <trkpt lat="0" lon="0">
        <time>2021-02-28T08:48:11.509000+00:00</time>
      </trkpt>
      <trkpt lat="0" lon="0">
        <time>2021-02-28T08:48:11.511000+00:00</time>
      </trkpt>
      <trkpt lat="0" lon="0">
        <time>2021-02-28T08:48:11.512000+00:00</time>
      </trkpt>
      <trkpt lat="47.31898" lon="-1.41624">
        <ele>75</ele>
        <time>2021-02-28T08:48:12.494000+00:00</time>
      </trkpt>
      <trkpt lat="0" lon="0">
        <time>2021-02-28T08:48:12.505000+00:00</time>
      </trkpt>
      <trkpt lat="0" lon="0">
        <time>2021-02-28T08:48:12.514000+00:00</time>
      </trkpt>
      <trkpt lat="0" lon="0">
        <time>2021-02-28T08:48:12.520000+00:00</time>
      </trkpt>
      <trkpt lat="47.31901" lon="-1.41625">
        <ele>76</ele>
        <time>2021-02-28T08:48:13.525000+00:00</time>
      </trkpt>
      <trkpt lat="0" lon="0">
        <time>2021-02-28T08:48:13.533000+00:00</time>
      </trkpt>
      <trkpt lat="0" lon="0">
        <time>2021-02-28T08:48:13.540000+00:00</time>
      </trkpt>
      <trkpt lat="0" lon="0">
        <time>2021-02-28T08:48:13.542000+00:00</time>
      </trkpt>
      <trkpt lat="47.31904" lon="-1.41626">
        <ele>76</ele>
        <time>2021-02-28T08:48:14.562000+00:00</time>
      </trkpt>
      <trkpt lat="0" lon="0">
        <time>2021-02-28T08:48:14.570000+00:00</time>
      </trkpt>
      <trkpt lat="0" lon="0">
        <time>2021-02-28T08:48:14.577000+00:00</time>
      </trkpt>
      <trkpt lat="0" lon="0">
        <time>2021-02-28T08:48:14.581000+00:00</time>
      </trkpt>
      <trkpt lat="47.31907" lon="-1.41628">
        <ele>76</ele>
        <time>2021-02-28T08:48:15.507000+00:00</time>
      </trkpt>
      <trkpt lat="0" lon="0">
        <time>2021-02-28T08:48:15.513000+00:00</time>
      </trkpt>
      <trkpt lat="0" lon="0">
        <time>2021-02-28T08:48:15.518000+00:00</time>
      </trkpt>
      <trkpt lat="0" lon="0">
        <time>2021-02-28T08:48:15.521000+00:00</time>
      </trkpt>
      <trkpt lat="47.31911" lon="-1.41629">
        <ele>76</ele>
        <time>2021-02-28T08:48:16.517000+00:00</time>
      </trkpt>
      <trkpt lat="0" lon="0">
        <time>2021-02-28T08:48:16.530000+00:00</time>
      </trkpt>
      <trkpt lat="0" lon="0">
        <time>2021-02-28T08:48:16.539000+00:00</time>
      </trkpt>
      <trkpt lat="0" lon="0">
        <time>2021-02-28T08:48:16.543000+00:00</time>
      </trkpt>
      <trkpt lat="47.31914" lon="-1.41631">
        <ele>76</ele>
        <time>2021-02-28T08:48:17.529000+00:00</time>
      </trkpt>
      <trkpt lat="0" lon="0">
        <time>2021-02-28T08:48:17.537000+00:00</time>
      </trkpt>
      <trkpt lat="0" lon="0">
        <time>2021-02-28T08:48:17.545000+00:00</time>
      </trkpt>
      <trkpt lat="0" lon="0">
        <time>2021-02-28T08:48:17.548000+00:00</time>
      </trkpt>
      <trkpt lat="47.31917" lon="-1.41633">
        <ele>76</ele>
        <time>2021-02-28T08:48:18.528000+00:00</time>
      </trkpt>
      <trkpt lat="0" lon="0">
        <time>2021-02-28T08:48:18.534000+00:00</time>
      </trkpt>
      <trkpt lat="0" lon="0">
        <time>2021-02-28T08:48:18.539000+00:00</time>
      </trkpt>
      <trkpt lat="0" lon="0">
        <time>2021-02-28T08:48:18.543000+00:00</time>
      </trkpt>
      <trkpt lat="47.31921" lon="-1.41635">
        <ele>76</ele>
        <time>2021-02-28T08:48:19.497000+00:00</time>
      </trkpt>
      <trkpt lat="0" lon="0">
        <time>2021-02-28T08:48:19.514000+00:00</time>
      </trkpt>
      <trkpt lat="0" lon="0">
        <time>2021-02-28T08:48:19.518000+00:00</time>
      </trkpt>
      <trkpt lat="0" lon="0">
        <time>2021-02-28T08:48:19.522000+00:00</time>
      </trkpt>
      <trkpt lat="47.31924" lon="-1.41638">
        <ele>75</ele>
        <time>2021-02-28T08:48:20.518000+00:00</time>
      </trkpt>
      <trkpt lat="0" lon="0">
        <time>2021-02-28T08:48:20.526000+00:00</time>
      </trkpt>
      <trkpt lat="0" lon="0">
        <time>2021-02-28T08:48:20.532000+00:00</time>
      </trkpt>
      <trkpt lat="0" lon="0">
        <time>2021-02-28T08:48:20.535000+00:00</time>
      </trkpt>
      <trkpt lat="47.31928" lon="-1.4164">
        <ele>75</ele>
        <time>2021-02-28T08:48:21.549000+00:00</time>
      </trkpt>
      <trkpt lat="0" lon="0">
        <time>2021-02-28T08:48:21.561000+00:00</time>
      </trkpt>
      <trkpt lat="0" lon="0">
        <time>2021-02-28T08:48:21.567000+00:00</time>
      </trkpt>
      <trkpt lat="0" lon="0">
        <time>2021-02-28T08:48:21.571000+00:00</time>
      </trkpt>
      <trkpt lat="47.31931" lon="-1.41643">
        <ele>75</ele>
        <time>2021-02-28T08:48:22.559000+00:00</time>
      </trkpt>
      <trkpt lat="0" lon="0">
        <time>2021-02-28T08:48:22.567000+00:00</time>
      </trkpt>
      <trkpt lat="0" lon="0">
        <time>2021-02-28T08:48:22.573000+00:00</time>
      </trkpt>
      <trkpt lat="0" lon="0">
        <time>2021-02-28T08:48:22.576000+00:00</time>
      </trkpt>
      <trkpt lat="47.31934" lon="-1.41646">
        <ele>75</ele>
        <time>2021-02-28T08:48:23.511000+00:00</time>
      </trkpt>
      <trkpt lat="0" lon="0">
        <time>2021-02-28T08:48:23.513000+00:00</time>
      </trkpt>
      <trkpt lat="0" lon="0">
        <time>2021-02-28T08:48:23.515000+00:00</time>
      </trkpt>
      <trkpt lat="0" lon="0">
        <time>2021-02-28T08:48:23.516000+00:00</time>
      </trkpt>
      <trkpt lat="47.31937" lon="-1.4165">
        <ele>75</ele>
        <time>2021-02-28T08:48:24.548000+00:00</time>
      </trkpt>
      <trkpt lat="0" lon="0">
        <time>2021-02-28T08:48:24.559000+00:00</time>
      </trkpt>
      <trkpt lat="0" lon="0">
        <time>2021-02-28T08:48:24.565000+00:00</time>
      </trkpt>
      <trkpt lat="0" lon="0">
        <time>2021-02-28T08:48:24.568000+00:00</time>
      </trkpt>
      <trkpt lat="47.31941" lon="-1.41653">
        <ele>75</ele>
        <time>2021-02-28T08:48:25.519000+00:00</time>
      </trkpt>
      <trkpt lat="0" lon="0">
        <time>2021-02-28T08:48:25.525000+00:00</time>
      </trkpt>
      <trkpt lat="0" lon="0">
        <time>2021-02-28T08:48:25.531000+00:00</time>
      </trkpt>
      <trkpt lat="0" lon="0">
        <time>2021-02-28T08:48:25.535000+00:00</time>
      </trkpt>
      <trkpt lat="47.31944" lon="-1.41657">
        <ele>75</ele>
        <time>2021-02-28T08:48:26.520000+00:00</time>
      </trkpt>
      <trkpt lat="0" lon="0">
        <time>2021-02-28T08:48:26.527000+00:00</time>
      </trkpt>
      <trkpt lat="0" lon="0">
        <time>2021-02-28T08:48:26.533000+00:00</time>
      </trkpt>
      <trkpt lat="0" lon="0">
        <time>2021-02-28T08:48:26.537000+00:00</time>
      </trkpt>
      <trkpt lat="47.31947" lon="-1.4166">
        <ele>74</ele>
        <time>2021-02-28T08:48:27.473000+00:00</time>
      </trkpt>
      <trkpt lat="0" lon="0">
        <time>2021-02-28T08:48:27.478000+00:00</time>
      </trkpt>
      <trkpt lat="0" lon="0">
        <time>2021-02-28T08:48:27.480000+00:00</time>
      </trkpt>
      <trkpt lat="0" lon="0">
        <time>2021-02-28T08:48:27.481000+00:00</time>
      </trkpt>
      <trkpt lat="47.3195" lon="-1.41664">
        <ele>74</ele>
        <time>2021-02-28T08:48:28.505000+00:00</time>
      </trkpt>
      <trkpt lat="0" lon="0">
        <time>2021-02-28T08:48:28.515000+00:00</time>
      </trkpt>
      <trkpt lat="0" lon="0">
        <time>2021-02-28T08:48:28.520000+00:00</time>
      </trkpt>
      <trkpt lat="0" lon="0">
        <time>2021-02-28T08:48:28.523000+00:00</time>
      </trkpt>
      <trkpt lat="47.31952" lon="-1.41667">
        <ele>74</ele>
        <time>2021-02-28T08:48:29.473000+00:00</time>
      </trkpt>
      <trkpt lat="0" lon="0">
        <time>2021-02-28T08:48:29.486000+00:00</time>
      </trkpt>
      <trkpt lat="0" lon="0">
        <time>2021-02-28T08:48:29.491000+00:00</time>
      </trkpt>
      <trkpt lat="0" lon="0">
        <time>2021-02-28T08:48:29.495000+00:00</time>
      </trkpt>
      <trkpt lat="47.31955" lon="-1.41671">
        <ele>74</ele>
        <time>2021-02-28T08:48:30.529000+00:00</time>
      </trkpt>
      <trkpt lat="0" lon="0">
        <time>2021-02-28T08:48:30.543000+00:00</time>
      </trkpt>
      <trkpt lat="0" lon="0">
        <time>2021-02-28T08:48:30.549000+00:00</time>
      </trkpt>
      <trkpt lat="0" lon="0">
        <time>2021-02-28T08:48:30.552000+00:00</time>
      </trkpt>
      <trkpt lat="47.31958" lon="-1.41675">
        <ele>74</ele>
        <time>2021-02-28T08:48:31.572000+00:00</time>
      </trkpt>
      <trkpt lat="0" lon="0">
        <time>2021-02-28T08:48:31.578000+00:00</time>
      </trkpt>
      <trkpt lat="0" lon="0">
        <time>2021-02-28T08:48:31.584000+00:00</time>
      </trkpt>
      <trkpt lat="0" lon="0">
        <time>2021-02-28T08:48:31.587000+00:00</time>
      </trkpt>
      <trkpt lat="47.3196" lon="-1.41678">
        <ele>74</ele>
        <time>2021-02-28T08:48:32.550000+00:00</time>
      </trkpt>
      <trkpt lat="0" lon="0">
        <time>2021-02-28T08:48:32.558000+00:00</time>
      </trkpt>
      <trkpt lat="0" lon="0">
        <time>2021-02-28T08:48:32.566000+00:00</time>
      </trkpt>
      <trkpt lat="0" lon="0">
        <time>2021-02-28T08:48:32.571000+00:00</time>
      </trkpt>
      <trkpt lat="47.31963" lon="-1.41682">
        <ele>74</ele>
        <time>2021-02-28T08:48:33.494000+00:00</time>
      </trkpt>
      <trkpt lat="0" lon="0">
        <time>2021-02-28T08:48:33.499000+00:00</time>
      </trkpt>
      <trkpt lat="0" lon="0">
        <time>2021-02-28T08:48:33.504000+00:00</time>
      </trkpt>
      <trkpt lat="0" lon="0">
        <time>2021-02-28T08:48:33.507000+00:00</time>
      </trkpt>
      <trkpt lat="47.31965" lon="-1.41686">
        <ele>73</ele>
        <time>2021-02-28T08:48:34.538000+00:00</time>
      </trkpt>
      <trkpt lat="0" lon="0">
        <time>2021-02-28T08:48:34.540000+00:00</time>
      </trkpt>
      <trkpt lat="0" lon="0">
        <time>2021-02-28T08:48:34.544000+00:00</time>
      </trkpt>
      <trkpt lat="0" lon="0">
        <time>2021-02-28T08:48:34.545000+00:00</time>
      </trkpt>
      <trkpt lat="47.31967" lon="-1.4169">
        <ele>73</ele>
        <time>2021-02-28T08:48:35.527000+00:00</time>
      </trkpt>
      <trkpt lat="0" lon="0">
        <time>2021-02-28T08:48:35.539000+00:00</time>
      </trkpt>
      <trkpt lat="0" lon="0">
        <time>2021-02-28T08:48:35.544000+00:00</time>
      </trkpt>
      <trkpt lat="0" lon="0">
        <time>2021-02-28T08:48:35.546000+00:00</time>
      </trkpt>
      <trkpt lat="47.3197" lon="-1.41693">
        <ele>73</ele>
        <time>2021-02-28T08:48:36.512000+00:00</time>
      </trkpt>
      <trkpt lat="0" lon="0">
        <time>2021-02-28T08:48:36.519000+00:00</time>
      </trkpt>
      <trkpt lat="0" lon="0">
        <time>2021-02-28T08:48:36.525000+00:00</time>
      </trkpt>
      <trkpt lat="0" lon="0">
        <time>2021-02-28T08:48:36.527000+00:00</time>
      </trkpt>
      <trkpt lat="47.31972" lon="-1.41697">
        <ele>73</ele>
        <time>2021-02-28T08:48:37.486000+00:00</time>
      </trkpt>
      <trkpt lat="0" lon="0">
        <time>2021-02-28T08:48:37.497000+00:00</time>
      </trkpt>
      <trkpt lat="0" lon="0">
        <time>2021-02-28T08:48:37.501000+00:00</time>
      </trkpt>
      <trkpt lat="0" lon="0">
        <time>2021-02-28T08:48:37.503000+00:00</time>
      </trkpt>
      <trkpt lat="47.31974" lon="-1.41701">
        <ele>74</ele>
        <time>2021-02-28T08:48:38.518000+00:00</time>
      </trkpt>
      <trkpt lat="0" lon="0">
        <time>2021-02-28T08:48:38.525000+00:00</time>
      </trkpt>
      <trkpt lat="0" lon="0">
        <time>2021-02-28T08:48:38.531000+00:00</time>
      </trkpt>
      <trkpt lat="0" lon="0">
        <time>2021-02-28T08:48:38.535000+00:00</time>
      </trkpt>
      <trkpt lat="47.31976" lon="-1.41704">
        <ele>74</ele>
        <time>2021-02-28T08:48:39.528000+00:00</time>
      </trkpt>
      <trkpt lat="0" lon="0">
        <time>2021-02-28T08:48:39.534000+00:00</time>
      </trkpt>
      <trkpt lat="0" lon="0">
        <time>2021-02-28T08:48:39.541000+00:00</time>
      </trkpt>
      <trkpt lat="0" lon="0">
        <time>2021-02-28T08:48:39.544000+00:00</time>
      </trkpt>
      <trkpt lat="47.31979" lon="-1.41708">
        <ele>74</ele>
        <time>2021-02-28T08:48:40.440000+00:00</time>
      </trkpt>
      <trkpt lat="0" lon="0">
        <time>2021-02-28T08:48:40.446000+00:00</time>
      </trkpt>
      <trkpt lat="0" lon="0">
        <time>2021-02-28T08:48:40.450000+00:00</time>
      </trkpt>
      <trkpt lat="0" lon="0">
        <time>2021-02-28T08:48:40.453000+00:00</time>
      </trkpt>
      <trkpt lat="47.31981" lon="-1.41712">
        <ele>75</ele>
        <time>2021-02-28T08:48:41.496000+00:00</time>
      </trkpt>
      <trkpt lat="0" lon="0">
        <time>2021-02-28T08:48:41.502000+00:00</time>
      </trkpt>
      <trkpt lat="0" lon="0">
        <time>2021-02-28T08:48:41.507000+00:00</time>
      </trkpt>
      <trkpt lat="0" lon="0">
        <time>2021-02-28T08:48:41.510000+00:00</time>
      </trkpt>
      <trkpt lat="47.31983" lon="-1.41715">
        <ele>75</ele>
        <time>2021-02-28T08:48:42.531000+00:00</time>
      </trkpt>
      <trkpt lat="0" lon="0">
        <time>2021-02-28T08:48:42.542000+00:00</time>
      </trkpt>
      <trkpt lat="0" lon="0">
        <time>2021-02-28T08:48:42.551000+00:00</time>
      </trkpt>
      <trkpt lat="0" lon="0">
        <time>2021-02-28T08:48:42.554000+00:00</time>
      </trkpt>
      <trkpt lat="47.31986" lon="-1.41719">
        <ele>76</ele>
        <time>2021-02-28T08:48:43.500000+00:00</time>
      </trkpt>
      <trkpt lat="0" lon="0">
        <time>2021-02-28T08:48:43.508000+00:00</time>
      </trkpt>
      <trkpt lat="0" lon="0">
        <time>2021-02-28T08:48:43.512000+00:00</time>
      </trkpt>
      <trkpt lat="0" lon="0">
        <time>2021-02-28T08:48:43.514000+00:00</time>
      </trkpt>
      <trkpt lat="47.31988" lon="-1.41723">
        <ele>76</ele>
        <time>2021-02-28T08:48:44.509000+00:00</time>
      </trkpt>
      <trkpt lat="0" lon="0">
        <time>2021-02-28T08:48:44.516000+00:00</time>
      </trkpt>
      <trkpt lat="0" lon="0">
        <time>2021-02-28T08:48:44.520000+00:00</time>
      </trkpt>
      <trkpt lat="0" lon="0">
        <time>2021-02-28T08:48:44.523000+00:00</time>
      </trkpt>
      <trkpt lat="47.31991" lon="-1.41727">
        <ele>76</ele>
        <time>2021-02-28T08:48:45.422000+00:00</time>
      </trkpt>
      <trkpt lat="0" lon="0">
        <time>2021-02-28T08:48:45.433000+00:00</time>
      </trkpt>
      <trkpt lat="0" lon="0">
        <time>2021-02-28T08:48:45.444000+00:00</time>
      </trkpt>
      <trkpt lat="0" lon="0">
        <time>2021-02-28T08:48:45.446000+00:00</time>
      </trkpt>
      <trkpt lat="47.31993" lon="-1.41731">
        <ele>77</ele>
        <time>2021-02-28T08:48:46.516000+00:00</time>
      </trkpt>
      <trkpt lat="0" lon="0">
        <time>2021-02-28T08:48:46.530000+00:00</time>
      </trkpt>
      <trkpt lat="0" lon="0">
        <time>2021-02-28T08:48:46.535000+00:00</time>
      </trkpt>
      <trkpt lat="0" lon="0">
        <time>2021-02-28T08:48:46.541000+00:00</time>
      </trkpt>
      <trkpt lat="47.31995" lon="-1.41735">
        <ele>77</ele>
        <time>2021-02-28T08:48:47.510000+00:00</time>
      </trkpt>
      <trkpt lat="0" lon="0">
        <time>2021-02-28T08:48:47.524000+00:00</time>
      </trkpt>
      <trkpt lat="0" lon="0">
        <time>2021-02-28T08:48:47.534000+00:00</time>
      </trkpt>
      <trkpt lat="0" lon="0">
        <time>2021-02-28T08:48:47.539000+00:00</time>
      </trkpt>
      <trkpt lat="47.31997" lon="-1.41739">
        <ele>77</ele>
        <time>2021-02-28T08:48:48.407000+00:00</time>
      </trkpt>
      <trkpt lat="0" lon="0">
        <time>2021-02-28T08:48:48.413000+00:00</time>
      </trkpt>
      <trkpt lat="0" lon="0">
        <time>2021-02-28T08:48:48.418000+00:00</time>
      </trkpt>
      <trkpt lat="0" lon="0">
        <time>2021-02-28T08:48:48.426000+00:00</time>
      </trkpt>
      <trkpt lat="47.32" lon="-1.41743">
        <ele>77</ele>
        <time>2021-02-28T08:48:49.461000+00:00</time>
      </trkpt>
      <trkpt lat="0" lon="0">
        <time>2021-02-28T08:48:49.471000+00:00</time>
      </trkpt>
      <trkpt lat="0" lon="0">
        <time>2021-02-28T08:48:49.475000+00:00</time>
      </trkpt>
      <trkpt lat="0" lon="0">
        <time>2021-02-28T08:48:49.478000+00:00</time>
      </trkpt>
      <trkpt lat="47.32002" lon="-1.41747">
        <ele>77</ele>
        <time>2021-02-28T08:48:50.469000+00:00</time>
      </trkpt>
      <trkpt lat="0" lon="0">
        <time>2021-02-28T08:48:50.474000+00:00</time>
      </trkpt>
      <trkpt lat="0" lon="0">
        <time>2021-02-28T08:48:50.476000+00:00</time>
      </trkpt>
      <trkpt lat="0" lon="0">
        <time>2021-02-28T08:48:50.477000+00:00</time>
      </trkpt>
      <trkpt lat="47.32004" lon="-1.4175">
        <ele>77</ele>
        <time>2021-02-28T08:48:51.545000+00:00</time>
      </trkpt>
      <trkpt lat="0" lon="0">
        <time>2021-02-28T08:48:51.550000+00:00</time>
      </trkpt>
      <trkpt lat="0" lon="0">
        <time>2021-02-28T08:48:51.556000+00:00</time>
      </trkpt>
      <trkpt lat="0" lon="0">
        <time>2021-02-28T08:48:51.559000+00:00</time>
      </trkpt>
      <trkpt lat="47.32006" lon="-1.41754">
        <ele>77</ele>
        <time>2021-02-28T08:48:52.533000+00:00</time>
      </trkpt>
      <trkpt lat="0" lon="0">
        <time>2021-02-28T08:48:52.542000+00:00</time>
      </trkpt>
      <trkpt lat="0" lon="0">
        <time>2021-02-28T08:48:52.548000+00:00</time>
      </trkpt>
      <trkpt lat="0" lon="0">
        <time>2021-02-28T08:48:52.551000+00:00</time>
      </trkpt>
      <trkpt lat="47.32009" lon="-1.41758">
        <ele>78</ele>
        <time>2021-02-28T08:48:53.525000+00:00</time>
      </trkpt>
      <trkpt lat="0" lon="0">
        <time>2021-02-28T08:48:53.535000+00:00</time>
      </trkpt>
      <trkpt lat="0" lon="0">
        <time>2021-02-28T08:48:53.543000+00:00</time>
      </trkpt>
      <trkpt lat="0" lon="0">
        <time>2021-02-28T08:48:53.545000+00:00</time>
      </trkpt>
      <trkpt lat="47.32011" lon="-1.41761">
        <ele>78</ele>
        <time>2021-02-28T08:48:54.437000+00:00</time>
      </trkpt>
      <trkpt lat="0" lon="0">
        <time>2021-02-28T08:48:54.444000+00:00</time>
      </trkpt>
      <trkpt lat="0" lon="0">
        <time>2021-02-28T08:48:54.450000+00:00</time>
      </trkpt>
      <trkpt lat="0" lon="0">
        <time>2021-02-28T08:48:54.452000+00:00</time>
      </trkpt>
      <trkpt lat="47.32013" lon="-1.41765">
        <ele>78</ele>
        <time>2021-02-28T08:48:55.493000+00:00</time>
      </trkpt>
      <trkpt lat="0" lon="0">
        <time>2021-02-28T08:48:55.495000+00:00</time>
      </trkpt>
      <trkpt lat="0" lon="0">
        <time>2021-02-28T08:48:55.498000+00:00</time>
      </trkpt>
      <trkpt lat="0" lon="0">
        <time>2021-02-28T08:48:55.500000+00:00</time>
      </trkpt>
      <trkpt lat="47.32015" lon="-1.41768">
        <ele>78</ele>
        <time>2021-02-28T08:48:56.499000+00:00</time>
      </trkpt>
      <trkpt lat="0" lon="0">
        <time>2021-02-28T08:48:56.503000+00:00</time>
      </trkpt>
      <trkpt lat="0" lon="0">
        <time>2021-02-28T08:48:56.509000+00:00</time>
      </trkpt>
      <trkpt lat="0" lon="0">
        <time>2021-02-28T08:48:56.513000+00:00</time>
      </trkpt>
      <trkpt lat="47.32017" lon="-1.41772">
        <ele>78</ele>
        <time>2021-02-28T08:48:57.489000+00:00</time>
      </trkpt>
      <trkpt lat="0" lon="0">
        <time>2021-02-28T08:48:57.501000+00:00</time>
      </trkpt>
      <trkpt lat="0" lon="0">
        <time>2021-02-28T08:48:57.506000+00:00</time>
      </trkpt>
      <trkpt lat="0" lon="0">
        <time>2021-02-28T08:48:57.508000+00:00</time>
      </trkpt>
      <trkpt lat="47.32019" lon="-1.41775">
        <ele>78</ele>
        <time>2021-02-28T08:48:58.542000+00:00</time>
      </trkpt>
      <trkpt lat="0" lon="0">
        <time>2021-02-28T08:48:58.548000+00:00</time>
      </trkpt>
      <trkpt lat="0" lon="0">
        <time>2021-02-28T08:48:58.555000+00:00</time>
      </trkpt>
      <trkpt lat="0" lon="0">
        <time>2021-02-28T08:48:58.559000+00:00</time>
      </trkpt>
      <trkpt lat="47.32022" lon="-1.41779">
        <ele>78</ele>
        <time>2021-02-28T08:48:59.538000+00:00</time>
      </trkpt>
      <trkpt lat="0" lon="0">
        <time>2021-02-28T08:48:59.546000+00:00</time>
      </trkpt>
      <trkpt lat="0" lon="0">
        <time>2021-02-28T08:48:59.551000+00:00</time>
      </trkpt>
      <trkpt lat="0" lon="0">
        <time>2021-02-28T08:48:59.554000+00:00</time>
      </trkpt>
      <trkpt lat="47.32024" lon="-1.41782">
        <ele>79</ele>
        <time>2021-02-28T08:49:00.492000+00:00</time>
      </trkpt>
      <trkpt lat="0" lon="0">
        <time>2021-02-28T08:49:00.503000+00:00</time>
      </trkpt>
      <trkpt lat="0" lon="0">
        <time>2021-02-28T08:49:00.507000+00:00</time>
      </trkpt>
      <trkpt lat="0" lon="0">
        <time>2021-02-28T08:49:00.509000+00:00</time>
      </trkpt>
      <trkpt lat="47.32026" lon="-1.41785">
        <ele>79</ele>
        <time>2021-02-28T08:49:01.500000+00:00</time>
      </trkpt>
      <trkpt lat="0" lon="0">
        <time>2021-02-28T08:49:01.508000+00:00</time>
      </trkpt>
      <trkpt lat="0" lon="0">
        <time>2021-02-28T08:49:01.512000+00:00</time>
      </trkpt>
      <trkpt lat="0" lon="0">
        <time>2021-02-28T08:49:01.514000+00:00</time>
      </trkpt>
      <trkpt lat="47.32028" lon="-1.41788">
        <ele>80</ele>
        <time>2021-02-28T08:49:02.526000+00:00</time>
      </trkpt>
      <trkpt lat="0" lon="0">
        <time>2021-02-28T08:49:02.532000+00:00</time>
      </trkpt>
      <trkpt lat="0" lon="0">
        <time>2021-02-28T08:49:02.538000+00:00</time>
      </trkpt>
      <trkpt lat="0" lon="0">
        <time>2021-02-28T08:49:02.541000+00:00</time>
      </trkpt>
      <trkpt lat="47.32031" lon="-1.41792">
        <ele>80</ele>
        <time>2021-02-28T08:49:03.488000+00:00</time>
      </trkpt>
      <trkpt lat="0" lon="0">
        <time>2021-02-28T08:49:03.495000+00:00</time>
      </trkpt>
      <trkpt lat="0" lon="0">
        <time>2021-02-28T08:49:03.499000+00:00</time>
      </trkpt>
      <trkpt lat="0" lon="0">
        <time>2021-02-28T08:49:03.502000+00:00</time>
      </trkpt>
      <trkpt lat="47.32033" lon="-1.41795">
        <ele>81</ele>
        <time>2021-02-28T08:49:04.484000+00:00</time>
      </trkpt>
      <trkpt lat="0" lon="0">
        <time>2021-02-28T08:49:04.506000+00:00</time>
      </trkpt>
      <trkpt lat="0" lon="0">
        <time>2021-02-28T08:49:04.512000+00:00</time>
      </trkpt>
      <trkpt lat="0" lon="0">
        <time>2021-02-28T08:49:04.515000+00:00</time>
      </trkpt>
      <trkpt lat="47.32034" lon="-1.41797">
        <ele>82</ele>
        <time>2021-02-28T08:49:05.507000+00:00</time>
      </trkpt>
      <trkpt lat="0" lon="0">
        <time>2021-02-28T08:49:05.515000+00:00</time>
      </trkpt>
      <trkpt lat="0" lon="0">
        <time>2021-02-28T08:49:05.523000+00:00</time>
      </trkpt>
      <trkpt lat="0" lon="0">
        <time>2021-02-28T08:49:05.525000+00:00</time>
      </trkpt>
      <trkpt lat="47.32036" lon="-1.41799">
        <ele>82</ele>
        <time>2021-02-28T08:49:06.482000+00:00</time>
      </trkpt>
      <trkpt lat="0" lon="0">
        <time>2021-02-28T08:49:06.491000+00:00</time>
      </trkpt>
      <trkpt lat="0" lon="0">
        <time>2021-02-28T08:49:06.495000+00:00</time>
      </trkpt>
      <trkpt lat="0" lon="0">
        <time>2021-02-28T08:49:06.497000+00:00</time>
      </trkpt>
      <trkpt lat="47.32037" lon="-1.41802">
        <ele>83</ele>
        <time>2021-02-28T08:49:07.502000+00:00</time>
      </trkpt>
      <trkpt lat="0" lon="0">
        <time>2021-02-28T08:49:07.514000+00:00</time>
      </trkpt>
      <trkpt lat="0" lon="0">
        <time>2021-02-28T08:49:07.521000+00:00</time>
      </trkpt>
      <trkpt lat="0" lon="0">
        <time>2021-02-28T08:49:07.523000+00:00</time>
      </trkpt>
      <trkpt lat="47.32038" lon="-1.41803">
        <ele>83</ele>
        <time>2021-02-28T08:49:08.476000+00:00</time>
      </trkpt>
      <trkpt lat="0" lon="0">
        <time>2021-02-28T08:49:08.493000+00:00</time>
      </trkpt>
      <trkpt lat="0" lon="0">
        <time>2021-02-28T08:49:08.501000+00:00</time>
      </trkpt>
      <trkpt lat="0" lon="0">
        <time>2021-02-28T08:49:08.504000+00:00</time>
      </trkpt>
      <trkpt lat="47.32038" lon="-1.41804">
        <ele>83</ele>
        <time>2021-02-28T08:49:09.513000+00:00</time>
      </trkpt>
      <trkpt lat="0" lon="0">
        <time>2021-02-28T08:49:09.519000+00:00</time>
      </trkpt>
      <trkpt lat="0" lon="0">
        <time>2021-02-28T08:49:09.524000+00:00</time>
      </trkpt>
      <trkpt lat="0" lon="0">
        <time>2021-02-28T08:49:09.527000+00:00</time>
      </trkpt>
      <trkpt lat="47.32039" lon="-1.41806">
        <ele>81</ele>
        <time>2021-02-28T08:49:10.502000+00:00</time>
      </trkpt>
      <trkpt lat="0" lon="0">
        <time>2021-02-28T08:49:10.511000+00:00</time>
      </trkpt>
      <trkpt lat="0" lon="0">
        <time>2021-02-28T08:49:10.515000+00:00</time>
      </trkpt>
      <trkpt lat="0" lon="0">
        <time>2021-02-28T08:49:10.520000+00:00</time>
      </trkpt>
      <trkpt lat="47.32039" lon="-1.41808">
        <ele>81</ele>
        <time>2021-02-28T08:49:11.478000+00:00</time>
      </trkpt>
      <trkpt lat="0" lon="0">
        <time>2021-02-28T08:49:11.488000+00:00</time>
      </trkpt>
      <trkpt lat="0" lon="0">
        <time>2021-02-28T08:49:11.492000+00:00</time>
      </trkpt>
      <trkpt lat="0" lon="0">
        <time>2021-02-28T08:49:11.494000+00:00</time>
      </trkpt>
      <trkpt lat="47.32039" lon="-1.41809">
        <ele>81</ele>
        <time>2021-02-28T08:49:12.488000+00:00</time>
      </trkpt>
      <trkpt lat="0" lon="0">
        <time>2021-02-28T08:49:12.494000+00:00</time>
      </trkpt>
      <trkpt lat="0" lon="0">
        <time>2021-02-28T08:49:12.499000+00:00</time>
      </trkpt>
      <trkpt lat="0" lon="0">
        <time>2021-02-28T08:49:12.502000+00:00</time>
      </trkpt>
      <trkpt lat="47.32039" lon="-1.4181">
        <ele>81</ele>
        <time>2021-02-28T08:49:13.456000+00:00</time>
      </trkpt>
      <trkpt lat="0" lon="0">
        <time>2021-02-28T08:49:13.471000+00:00</time>
      </trkpt>
      <trkpt lat="0" lon="0">
        <time>2021-02-28T08:49:13.478000+00:00</time>
      </trkpt>
      <trkpt lat="0" lon="0">
        <time>2021-02-28T08:49:13.481000+00:00</time>
      </trkpt>
      <trkpt lat="47.32038" lon="-1.4181">
        <ele>81</ele>
        <time>2021-02-28T08:49:14.501000+00:00</time>
      </trkpt>
      <trkpt lat="0" lon="0">
        <time>2021-02-28T08:49:14.506000+00:00</time>
      </trkpt>
      <trkpt lat="0" lon="0">
        <time>2021-02-28T08:49:14.511000+00:00</time>
      </trkpt>
      <trkpt lat="0" lon="0">
        <time>2021-02-28T08:49:14.514000+00:00</time>
      </trkpt>
      <trkpt lat="47.32037" lon="-1.41809">
        <ele>81</ele>
        <time>2021-02-28T08:49:15.496000+00:00</time>
      </trkpt>
      <trkpt lat="0" lon="0">
        <time>2021-02-28T08:49:15.506000+00:00</time>
      </trkpt>
      <trkpt lat="0" lon="0">
        <time>2021-02-28T08:49:15.511000+00:00</time>
      </trkpt>
      <trkpt lat="0" lon="0">
        <time>2021-02-28T08:49:15.513000+00:00</time>
      </trkpt>
      <trkpt lat="47.32036" lon="-1.41808">
        <ele>81</ele>
        <time>2021-02-28T08:49:16.484000+00:00</time>
      </trkpt>
      <trkpt lat="0" lon="0">
        <time>2021-02-28T08:49:16.492000+00:00</time>
      </trkpt>
      <trkpt lat="0" lon="0">
        <time>2021-02-28T08:49:16.497000+00:00</time>
      </trkpt>
      <trkpt lat="0" lon="0">
        <time>2021-02-28T08:49:16.499000+00:00</time>
      </trkpt>
      <trkpt lat="47.32035" lon="-1.41807">
        <ele>81</ele>
        <time>2021-02-28T08:49:17.391000+00:00</time>
      </trkpt>
      <trkpt lat="0" lon="0">
        <time>2021-02-28T08:49:17.396000+00:00</time>
      </trkpt>
      <trkpt lat="0" lon="0">
        <time>2021-02-28T08:49:17.402000+00:00</time>
      </trkpt>
      <trkpt lat="0" lon="0">
        <time>2021-02-28T08:49:17.404000+00:00</time>
      </trkpt>
      <trkpt lat="47.32035" lon="-1.41806">
        <ele>81</ele>
        <time>2021-02-28T08:49:18.505000+00:00</time>
      </trkpt>
      <trkpt lat="0" lon="0">
        <time>2021-02-28T08:49:18.513000+00:00</time>
      </trkpt>
      <trkpt lat="0" lon="0">
        <time>2021-02-28T08:49:18.521000+00:00</time>
      </trkpt>
      <trkpt lat="0" lon="0">
        <time>2021-02-28T08:49:18.531000+00:00</time>
      </trkpt>
      <trkpt lat="47.32049" lon="-1.41811">
        <ele>82</ele>
        <time>2021-02-28T08:49:19.593000+00:00</time>
      </trkpt>
      <trkpt lat="0" lon="0">
        <time>2021-02-28T08:49:19.598000+00:00</time>
      </trkpt>
      <trkpt lat="0" lon="0">
        <time>2021-02-28T08:49:19.603000+00:00</time>
      </trkpt>
      <trkpt lat="0" lon="0">
        <time>2021-02-28T08:49:19.605000+00:00</time>
      </trkpt>
      <trkpt lat="47.3205" lon="-1.41813">
        <ele>82</ele>
        <time>2021-02-28T08:49:20.571000+00:00</time>
      </trkpt>
      <trkpt lat="0" lon="0">
        <time>2021-02-28T08:49:20.574000+00:00</time>
      </trkpt>
      <trkpt lat="0" lon="0">
        <time>2021-02-28T08:49:20.576000+00:00</time>
      </trkpt>
      <trkpt lat="0" lon="0">
        <time>2021-02-28T08:49:20.577000+00:00</time>
      </trkpt>
      <trkpt lat="47.32051" lon="-1.41814">
        <ele>82</ele>
        <time>2021-02-28T08:49:21.572000+00:00</time>
      </trkpt>
      <trkpt lat="0" lon="0">
        <time>2021-02-28T08:49:21.577000+00:00</time>
      </trkpt>
      <trkpt lat="0" lon="0">
        <time>2021-02-28T08:49:21.582000+00:00</time>
      </trkpt>
      <trkpt lat="0" lon="0">
        <time>2021-02-28T08:49:21.585000+00:00</time>
      </trkpt>
      <trkpt lat="47.32053" lon="-1.41815">
        <ele>83</ele>
        <time>2021-02-28T08:49:22.590000+00:00</time>
      </trkpt>
      <trkpt lat="0" lon="0">
        <time>2021-02-28T08:49:22.599000+00:00</time>
      </trkpt>
      <trkpt lat="0" lon="0">
        <time>2021-02-28T08:49:22.604000+00:00</time>
      </trkpt>
      <trkpt lat="0" lon="0">
        <time>2021-02-28T08:49:22.607000+00:00</time>
      </trkpt>
      <trkpt lat="47.32054" lon="-1.41816">
        <ele>83</ele>
        <time>2021-02-28T08:49:23.559000+00:00</time>
      </trkpt>
      <trkpt lat="0" lon="0">
        <time>2021-02-28T08:49:23.563000+00:00</time>
      </trkpt>
      <trkpt lat="0" lon="0">
        <time>2021-02-28T08:49:23.567000+00:00</time>
      </trkpt>
      <trkpt lat="0" lon="0">
        <time>2021-02-28T08:49:23.569000+00:00</time>
      </trkpt>
      <trkpt lat="47.32055" lon="-1.41816">
        <ele>83</ele>
        <time>2021-02-28T08:49:24.573000+00:00</time>
      </trkpt>
      <trkpt lat="0" lon="0">
        <time>2021-02-28T08:49:24.579000+00:00</time>
      </trkpt>
      <trkpt lat="0" lon="0">
        <time>2021-02-28T08:49:24.585000+00:00</time>
      </trkpt>
      <trkpt lat="0" lon="0">
        <time>2021-02-28T08:49:24.587000+00:00</time>
      </trkpt>
      <trkpt lat="47.32056" lon="-1.41817">
        <ele>83</ele>
        <time>2021-02-28T08:49:25.490000+00:00</time>
      </trkpt>
      <trkpt lat="0" lon="0">
        <time>2021-02-28T08:49:25.496000+00:00</time>
      </trkpt>
      <trkpt lat="0" lon="0">
        <time>2021-02-28T08:49:25.502000+00:00</time>
      </trkpt>
      <trkpt lat="0" lon="0">
        <time>2021-02-28T08:49:25.506000+00:00</time>
      </trkpt>
      <trkpt lat="47.32057" lon="-1.41818">
        <ele>83</ele>
        <time>2021-02-28T08:49:26.542000+00:00</time>
      </trkpt>
      <trkpt lat="0" lon="0">
        <time>2021-02-28T08:49:26.550000+00:00</time>
      </trkpt>
      <trkpt lat="0" lon="0">
        <time>2021-02-28T08:49:26.555000+00:00</time>
      </trkpt>
      <trkpt lat="0" lon="0">
        <time>2021-02-28T08:49:26.558000+00:00</time>
      </trkpt>
      <trkpt lat="47.32059" lon="-1.41819">
        <ele>83</ele>
        <time>2021-02-28T08:49:27.583000+00:00</time>
      </trkpt>
      <trkpt lat="0" lon="0">
        <time>2021-02-28T08:49:27.588000+00:00</time>
      </trkpt>
      <trkpt lat="0" lon="0">
        <time>2021-02-28T08:49:27.592000+00:00</time>
      </trkpt>
      <trkpt lat="0" lon="0">
        <time>2021-02-28T08:49:27.594000+00:00</time>
      </trkpt>
      <trkpt lat="47.3206" lon="-1.4182">
        <ele>84</ele>
        <time>2021-02-28T08:49:28.553000+00:00</time>
      </trkpt>
      <trkpt lat="0" lon="0">
        <time>2021-02-28T08:49:28.564000+00:00</time>
      </trkpt>
      <trkpt lat="0" lon="0">
        <time>2021-02-28T08:49:28.568000+00:00</time>
      </trkpt>
      <trkpt lat="0" lon="0">
        <time>2021-02-28T08:49:28.570000+00:00</time>
      </trkpt>
      <trkpt lat="47.32061" lon="-1.41821">
        <ele>84</ele>
        <time>2021-02-28T08:49:29.579000+00:00</time>
      </trkpt>
      <trkpt lat="0" lon="0">
        <time>2021-02-28T08:49:29.583000+00:00</time>
      </trkpt>
      <trkpt lat="0" lon="0">
        <time>2021-02-28T08:49:29.588000+00:00</time>
      </trkpt>
      <trkpt lat="0" lon="0">
        <time>2021-02-28T08:49:29.591000+00:00</time>
      </trkpt>
      <trkpt lat="47.32062" lon="-1.41822">
        <ele>84</ele>
        <time>2021-02-28T08:49:30.594000+00:00</time>
      </trkpt>
      <trkpt lat="0" lon="0">
        <time>2021-02-28T08:49:30.604000+00:00</time>
      </trkpt>
      <trkpt lat="0" lon="0">
        <time>2021-02-28T08:49:30.609000+00:00</time>
      </trkpt>
      <trkpt lat="0" lon="0">
        <time>2021-02-28T08:49:30.611000+00:00</time>
      </trkpt>
      <trkpt lat="47.32064" lon="-1.41824">
        <ele>84</ele>
        <time>2021-02-28T08:49:31.554000+00:00</time>
      </trkpt>
      <trkpt lat="0" lon="0">
        <time>2021-02-28T08:49:31.559000+00:00</time>
      </trkpt>
      <trkpt lat="0" lon="0">
        <time>2021-02-28T08:49:31.563000+00:00</time>
      </trkpt>
      <trkpt lat="0" lon="0">
        <time>2021-02-28T08:49:31.565000+00:00</time>
      </trkpt>
      <trkpt lat="47.32065" lon="-1.41825">
        <ele>84</ele>
        <time>2021-02-28T08:49:32.551000+00:00</time>
      </trkpt>
      <trkpt lat="0" lon="0">
        <time>2021-02-28T08:49:32.557000+00:00</time>
      </trkpt>
      <trkpt lat="0" lon="0">
        <time>2021-02-28T08:49:32.562000+00:00</time>
      </trkpt>
      <trkpt lat="0" lon="0">
        <time>2021-02-28T08:49:32.565000+00:00</time>
      </trkpt>
      <trkpt lat="47.32067" lon="-1.41827">
        <ele>84</ele>
        <time>2021-02-28T08:49:33.580000+00:00</time>
      </trkpt>
      <trkpt lat="0" lon="0">
        <time>2021-02-28T08:49:33.587000+00:00</time>
      </trkpt>
      <trkpt lat="0" lon="0">
        <time>2021-02-28T08:49:33.591000+00:00</time>
      </trkpt>
      <trkpt lat="0" lon="0">
        <time>2021-02-28T08:49:33.593000+00:00</time>
      </trkpt>
      <trkpt lat="47.32068" lon="-1.41828">
        <ele>84</ele>
        <time>2021-02-28T08:49:34.551000+00:00</time>
      </trkpt>
      <trkpt lat="0" lon="0">
        <time>2021-02-28T08:49:34.562000+00:00</time>
      </trkpt>
      <trkpt lat="0" lon="0">
        <time>2021-02-28T08:49:34.567000+00:00</time>
      </trkpt>
      <trkpt lat="0" lon="0">
        <time>2021-02-28T08:49:34.569000+00:00</time>
      </trkpt>
      <trkpt lat="47.3207" lon="-1.41829">
        <ele>84</ele>
        <time>2021-02-28T08:49:35.588000+00:00</time>
      </trkpt>
      <trkpt lat="0" lon="0">
        <time>2021-02-28T08:49:35.593000+00:00</time>
      </trkpt>
      <trkpt lat="0" lon="0">
        <time>2021-02-28T08:49:35.597000+00:00</time>
      </trkpt>
      <trkpt lat="0" lon="0">
        <time>2021-02-28T08:49:35.599000+00:00</time>
      </trkpt>
      <trkpt lat="47.32071" lon="-1.4183">
        <ele>84</ele>
        <time>2021-02-28T08:49:36.599000+00:00</time>
      </trkpt>
      <trkpt lat="0" lon="0">
        <time>2021-02-28T08:49:36.612000+00:00</time>
      </trkpt>
      <trkpt lat="0" lon="0">
        <time>2021-02-28T08:49:36.620000+00:00</time>
      </trkpt>
      <trkpt lat="0" lon="0">
        <time>2021-02-28T08:49:36.623000+00:00</time>
      </trkpt>
      <trkpt lat="47.32072" lon="-1.41832">
        <ele>85</ele>
        <time>2021-02-28T08:49:37.597000+00:00</time>
      </trkpt>
      <trkpt lat="0" lon="0">
        <time>2021-02-28T08:49:37.602000+00:00</time>
      </trkpt>
      <trkpt lat="0" lon="0">
        <time>2021-02-28T08:49:37.606000+00:00</time>
      </trkpt>
      <trkpt lat="0" lon="0">
        <time>2021-02-28T08:49:37.609000+00:00</time>
      </trkpt>
      <trkpt lat="47.32074" lon="-1.41833">
        <ele>85</ele>
        <time>2021-02-28T08:49:38.577000+00:00</time>
      </trkpt>
      <trkpt lat="0" lon="0">
        <time>2021-02-28T08:49:38.595000+00:00</time>
      </trkpt>
      <trkpt lat="0" lon="0">
        <time>2021-02-28T08:49:38.599000+00:00</time>
      </trkpt>
      <trkpt lat="0" lon="0">
        <time>2021-02-28T08:49:38.602000+00:00</time>
      </trkpt>
      <trkpt lat="47.32075" lon="-1.41835">
        <ele>85</ele>
        <time>2021-02-28T08:49:39.587000+00:00</time>
      </trkpt>
      <trkpt lat="0" lon="0">
        <time>2021-02-28T08:49:39.595000+00:00</time>
      </trkpt>
      <trkpt lat="0" lon="0">
        <time>2021-02-28T08:49:39.601000+00:00</time>
      </trkpt>
      <trkpt lat="0" lon="0">
        <time>2021-02-28T08:49:39.603000+00:00</time>
      </trkpt>
      <trkpt lat="47.32076" lon="-1.41836">
        <ele>85</ele>
        <time>2021-02-28T08:49:40.586000+00:00</time>
      </trkpt>
      <trkpt lat="0" lon="0">
        <time>2021-02-28T08:49:40.597000+00:00</time>
      </trkpt>
      <trkpt lat="0" lon="0">
        <time>2021-02-28T08:49:40.605000+00:00</time>
      </trkpt>
      <trkpt lat="0" lon="0">
        <time>2021-02-28T08:49:40.607000+00:00</time>
      </trkpt>
      <trkpt lat="47.32077" lon="-1.41838">
        <ele>85</ele>
        <time>2021-02-28T08:49:41.587000+00:00</time>
      </trkpt>
      <trkpt lat="0" lon="0">
        <time>2021-02-28T08:49:41.591000+00:00</time>
      </trkpt>
      <trkpt lat="0" lon="0">
        <time>2021-02-28T08:49:41.595000+00:00</time>
      </trkpt>
      <trkpt lat="0" lon="0">
        <time>2021-02-28T08:49:41.597000+00:00</time>
      </trkpt>
      <trkpt lat="47.32078" lon="-1.41839">
        <ele>85</ele>
        <time>2021-02-28T08:49:42.584000+00:00</time>
      </trkpt>
      <trkpt lat="0" lon="0">
        <time>2021-02-28T08:49:42.603000+00:00</time>
      </trkpt>
      <trkpt lat="0" lon="0">
        <time>2021-02-28T08:49:42.609000+00:00</time>
      </trkpt>
      <trkpt lat="0" lon="0">
        <time>2021-02-28T08:49:42.611000+00:00</time>
      </trkpt>
      <trkpt lat="47.32079" lon="-1.41841">
        <ele>86</ele>
        <time>2021-02-28T08:49:43.580000+00:00</time>
      </trkpt>
      <trkpt lat="0" lon="0">
        <time>2021-02-28T08:49:43.588000+00:00</time>
      </trkpt>
      <trkpt lat="0" lon="0">
        <time>2021-02-28T08:49:43.593000+00:00</time>
      </trkpt>
      <trkpt lat="0" lon="0">
        <time>2021-02-28T08:49:43.595000+00:00</time>
      </trkpt>
      <trkpt lat="47.3208" lon="-1.41843">
        <ele>86</ele>
        <time>2021-02-28T08:49:44.588000+00:00</time>
      </trkpt>
      <trkpt lat="0" lon="0">
        <time>2021-02-28T08:49:44.599000+00:00</time>
      </trkpt>
      <trkpt lat="0" lon="0">
        <time>2021-02-28T08:49:44.613000+00:00</time>
      </trkpt>
      <trkpt lat="0" lon="0">
        <time>2021-02-28T08:49:44.622000+00:00</time>
      </trkpt>
      <trkpt lat="47.32081" lon="-1.41844">
        <ele>86</ele>
        <time>2021-02-28T08:49:45.558000+00:00</time>
      </trkpt>
      <trkpt lat="0" lon="0">
        <time>2021-02-28T08:49:45.563000+00:00</time>
      </trkpt>
      <trkpt lat="0" lon="0">
        <time>2021-02-28T08:49:45.567000+00:00</time>
      </trkpt>
      <trkpt lat="0" lon="0">
        <time>2021-02-28T08:49:45.570000+00:00</time>
      </trkpt>
      <trkpt lat="47.32082" lon="-1.41846">
        <ele>87</ele>
        <time>2021-02-28T08:49:46.594000+00:00</time>
      </trkpt>
      <trkpt lat="0" lon="0">
        <time>2021-02-28T08:49:46.602000+00:00</time>
      </trkpt>
      <trkpt lat="0" lon="0">
        <time>2021-02-28T08:49:46.607000+00:00</time>
      </trkpt>
      <trkpt lat="0" lon="0">
        <time>2021-02-28T08:49:46.610000+00:00</time>
      </trkpt>
      <trkpt lat="47.32083" lon="-1.41847">
        <ele>87</ele>
        <time>2021-02-28T08:49:47.596000+00:00</time>
      </trkpt>
      <trkpt lat="0" lon="0">
        <time>2021-02-28T08:49:47.601000+00:00</time>
      </trkpt>
      <trkpt lat="0" lon="0">
        <time>2021-02-28T08:49:47.606000+00:00</time>
      </trkpt>
      <trkpt lat="0" lon="0">
        <time>2021-02-28T08:49:47.610000+00:00</time>
      </trkpt>
      <trkpt lat="47.32083" lon="-1.41849">
        <ele>88</ele>
        <time>2021-02-28T08:49:48.612000+00:00</time>
      </trkpt>
      <trkpt lat="0" lon="0">
        <time>2021-02-28T08:49:48.619000+00:00</time>
      </trkpt>
      <trkpt lat="0" lon="0">
        <time>2021-02-28T08:49:48.626000+00:00</time>
      </trkpt>
      <trkpt lat="0" lon="0">
        <time>2021-02-28T08:49:48.629000+00:00</time>
      </trkpt>
      <trkpt lat="47.32084" lon="-1.4185">
        <ele>88</ele>
        <time>2021-02-28T08:49:49.579000+00:00</time>
      </trkpt>
      <trkpt lat="0" lon="0">
        <time>2021-02-28T08:49:49.589000+00:00</time>
      </trkpt>
      <trkpt lat="0" lon="0">
        <time>2021-02-28T08:49:49.594000+00:00</time>
      </trkpt>
      <trkpt lat="0" lon="0">
        <time>2021-02-28T08:49:49.598000+00:00</time>
      </trkpt>
      <trkpt lat="47.32084" lon="-1.41851">
        <ele>88</ele>
        <time>2021-02-28T08:49:50.554000+00:00</time>
      </trkpt>
      <trkpt lat="0" lon="0">
        <time>2021-02-28T08:49:50.560000+00:00</time>
      </trkpt>
      <trkpt lat="0" lon="0">
        <time>2021-02-28T08:49:50.566000+00:00</time>
      </trkpt>
      <trkpt lat="0" lon="0">
        <time>2021-02-28T08:49:50.570000+00:00</time>
      </trkpt>
      <trkpt lat="47.32085" lon="-1.41852">
        <ele>89</ele>
        <time>2021-02-28T08:49:51.600000+00:00</time>
      </trkpt>
      <trkpt lat="0" lon="0">
        <time>2021-02-28T08:49:51.611000+00:00</time>
      </trkpt>
      <trkpt lat="0" lon="0">
        <time>2021-02-28T08:49:51.617000+00:00</time>
      </trkpt>
      <trkpt lat="0" lon="0">
        <time>2021-02-28T08:49:51.619000+00:00</time>
      </trkpt>
      <trkpt lat="47.32087" lon="-1.41854">
        <ele>89</ele>
        <time>2021-02-28T08:49:52.585000+00:00</time>
      </trkpt>
      <trkpt lat="0" lon="0">
        <time>2021-02-28T08:49:52.598000+00:00</time>
      </trkpt>
      <trkpt lat="0" lon="0">
        <time>2021-02-28T08:49:52.602000+00:00</time>
      </trkpt>
      <trkpt lat="0" lon="0">
        <time>2021-02-28T08:49:52.605000+00:00</time>
      </trkpt>
      <trkpt lat="47.32088" lon="-1.41855">
        <ele>89</ele>
        <time>2021-02-28T08:49:53.570000+00:00</time>
      </trkpt>
      <trkpt lat="0" lon="0">
        <time>2021-02-28T08:49:53.582000+00:00</time>
      </trkpt>
      <trkpt lat="0" lon="0">
        <time>2021-02-28T08:49:53.588000+00:00</time>
      </trkpt>
      <trkpt lat="0" lon="0">
        <time>2021-02-28T08:49:53.592000+00:00</time>
      </trkpt>
      <trkpt lat="47.32089" lon="-1.41857">
        <ele>89</ele>
        <time>2021-02-28T08:49:54.588000+00:00</time>
      </trkpt>
      <trkpt lat="0" lon="0">
        <time>2021-02-28T08:49:54.595000+00:00</time>
      </trkpt>
      <trkpt lat="0" lon="0">
        <time>2021-02-28T08:49:54.599000+00:00</time>
      </trkpt>
      <trkpt lat="0" lon="0">
        <time>2021-02-28T08:49:54.602000+00:00</time>
      </trkpt>
      <trkpt lat="47.3209" lon="-1.41858">
        <ele>89</ele>
        <time>2021-02-28T08:49:55.593000+00:00</time>
      </trkpt>
      <trkpt lat="0" lon="0">
        <time>2021-02-28T08:49:55.605000+00:00</time>
      </trkpt>
      <trkpt lat="0" lon="0">
        <time>2021-02-28T08:49:55.613000+00:00</time>
      </trkpt>
      <trkpt lat="0" lon="0">
        <time>2021-02-28T08:49:55.616000+00:00</time>
      </trkpt>
      <trkpt lat="47.3209" lon="-1.41859">
        <ele>89</ele>
        <time>2021-02-28T08:49:56.579000+00:00</time>
      </trkpt>
      <trkpt lat="0" lon="0">
        <time>2021-02-28T08:49:56.591000+00:00</time>
      </trkpt>
      <trkpt lat="0" lon="0">
        <time>2021-02-28T08:49:56.597000+00:00</time>
      </trkpt>
      <trkpt lat="0" lon="0">
        <time>2021-02-28T08:49:56.600000+00:00</time>
      </trkpt>
      <trkpt lat="47.32092" lon="-1.41861">
        <ele>89</ele>
        <time>2021-02-28T08:49:57.551000+00:00</time>
      </trkpt>
      <trkpt lat="0" lon="0">
        <time>2021-02-28T08:49:57.559000+00:00</time>
      </trkpt>
      <trkpt lat="0" lon="0">
        <time>2021-02-28T08:49:57.563000+00:00</time>
      </trkpt>
      <trkpt lat="0" lon="0">
        <time>2021-02-28T08:49:57.565000+00:00</time>
      </trkpt>
      <trkpt lat="47.32093" lon="-1.41863">
        <ele>89</ele>
        <time>2021-02-28T08:49:58.613000+00:00</time>
      </trkpt>
      <trkpt lat="0" lon="0">
        <time>2021-02-28T08:49:58.616000+00:00</time>
      </trkpt>
      <trkpt lat="0" lon="0">
        <time>2021-02-28T08:49:58.619000+00:00</time>
      </trkpt>
      <trkpt lat="0" lon="0">
        <time>2021-02-28T08:49:58.620000+00:00</time>
      </trkpt>
      <trkpt lat="47.32094" lon="-1.41864">
        <ele>90</ele>
        <time>2021-02-28T08:49:59.565000+00:00</time>
      </trkpt>
      <trkpt lat="0" lon="0">
        <time>2021-02-28T08:49:59.573000+00:00</time>
      </trkpt>
      <trkpt lat="0" lon="0">
        <time>2021-02-28T08:49:59.578000+00:00</time>
      </trkpt>
      <trkpt lat="0" lon="0">
        <time>2021-02-28T08:49:59.580000+00:00</time>
      </trkpt>
      <trkpt lat="47.32095" lon="-1.41866">
        <ele>91</ele>
        <time>2021-02-28T08:50:00.576000+00:00</time>
      </trkpt>
      <trkpt lat="0" lon="0">
        <time>2021-02-28T08:50:00.582000+00:00</time>
      </trkpt>
      <trkpt lat="0" lon="0">
        <time>2021-02-28T08:50:00.589000+00:00</time>
      </trkpt>
      <trkpt lat="0" lon="0">
        <time>2021-02-28T08:50:00.591000+00:00</time>
      </trkpt>
      <trkpt lat="47.32096" lon="-1.41868">
        <ele>91</ele>
        <time>2021-02-28T08:50:01.602000+00:00</time>
      </trkpt>
      <trkpt lat="0" lon="0">
        <time>2021-02-28T08:50:01.614000+00:00</time>
      </trkpt>
      <trkpt lat="0" lon="0">
        <time>2021-02-28T08:50:01.620000+00:00</time>
      </trkpt>
      <trkpt lat="0" lon="0">
        <time>2021-02-28T08:50:01.624000+00:00</time>
      </trkpt>
      <trkpt lat="47.32097" lon="-1.41869">
        <ele>91</ele>
        <time>2021-02-28T08:50:02.562000+00:00</time>
      </trkpt>
      <trkpt lat="0" lon="0">
        <time>2021-02-28T08:50:02.575000+00:00</time>
      </trkpt>
      <trkpt lat="0" lon="0">
        <time>2021-02-28T08:50:02.580000+00:00</time>
      </trkpt>
      <trkpt lat="0" lon="0">
        <time>2021-02-28T08:50:02.583000+00:00</time>
      </trkpt>
      <trkpt lat="47.32099" lon="-1.4187">
        <ele>91</ele>
        <time>2021-02-28T08:50:03.573000+00:00</time>
      </trkpt>
      <trkpt lat="0" lon="0">
        <time>2021-02-28T08:50:03.580000+00:00</time>
      </trkpt>
      <trkpt lat="0" lon="0">
        <time>2021-02-28T08:50:03.585000+00:00</time>
      </trkpt>
      <trkpt lat="0" lon="0">
        <time>2021-02-28T08:50:03.590000+00:00</time>
      </trkpt>
      <trkpt lat="47.321" lon="-1.41872">
        <ele>92</ele>
        <time>2021-02-28T08:50:04.581000+00:00</time>
      </trkpt>
      <trkpt lat="0" lon="0">
        <time>2021-02-28T08:50:04.586000+00:00</time>
      </trkpt>
      <trkpt lat="0" lon="0">
        <time>2021-02-28T08:50:04.593000+00:00</time>
      </trkpt>
      <trkpt lat="0" lon="0">
        <time>2021-02-28T08:50:04.596000+00:00</time>
      </trkpt>
      <trkpt lat="47.32101" lon="-1.41874">
        <ele>92</ele>
        <time>2021-02-28T08:50:05.586000+00:00</time>
      </trkpt>
      <trkpt lat="0" lon="0">
        <time>2021-02-28T08:50:05.594000+00:00</time>
      </trkpt>
      <trkpt lat="0" lon="0">
        <time>2021-02-28T08:50:05.600000+00:00</time>
      </trkpt>
      <trkpt lat="0" lon="0">
        <time>2021-02-28T08:50:05.603000+00:00</time>
      </trkpt>
      <trkpt lat="47.32102" lon="-1.41875">
        <ele>93</ele>
        <time>2021-02-28T08:50:06.559000+00:00</time>
      </trkpt>
      <trkpt lat="0" lon="0">
        <time>2021-02-28T08:50:06.566000+00:00</time>
      </trkpt>
      <trkpt lat="0" lon="0">
        <time>2021-02-28T08:50:06.571000+00:00</time>
      </trkpt>
      <trkpt lat="0" lon="0">
        <time>2021-02-28T08:50:06.573000+00:00</time>
      </trkpt>
      <trkpt lat="47.32103" lon="-1.41876">
        <ele>93</ele>
        <time>2021-02-28T08:50:07.571000+00:00</time>
      </trkpt>
      <trkpt lat="0" lon="0">
        <time>2021-02-28T08:50:07.580000+00:00</time>
      </trkpt>
      <trkpt lat="0" lon="0">
        <time>2021-02-28T08:50:07.586000+00:00</time>
      </trkpt>
      <trkpt lat="0" lon="0">
        <time>2021-02-28T08:50:07.590000+00:00</time>
      </trkpt>
      <trkpt lat="47.32103" lon="-1.41877">
        <ele>93</ele>
        <time>2021-02-28T08:50:08.523000+00:00</time>
      </trkpt>
      <trkpt lat="0" lon="0">
        <time>2021-02-28T08:50:08.531000+00:00</time>
      </trkpt>
      <trkpt lat="0" lon="0">
        <time>2021-02-28T08:50:08.534000+00:00</time>
      </trkpt>
      <trkpt lat="0" lon="0">
        <time>2021-02-28T08:50:08.537000+00:00</time>
      </trkpt>
      <trkpt lat="47.32105" lon="-1.41879">
        <ele>93</ele>
        <time>2021-02-28T08:50:09.477000+00:00</time>
      </trkpt>
      <trkpt lat="0" lon="0">
        <time>2021-02-28T08:50:09.481000+00:00</time>
      </trkpt>
      <trkpt lat="0" lon="0">
        <time>2021-02-28T08:50:09.482000+00:00</time>
      </trkpt>
      <trkpt lat="0" lon="0">
        <time>2021-02-28T08:50:09.483000+00:00</time>
      </trkpt>
      <trkpt lat="47.32106" lon="-1.4188">
        <ele>93</ele>
        <time>2021-02-28T08:50:10.490000+00:00</time>
      </trkpt>
      <trkpt lat="0" lon="0">
        <time>2021-02-28T08:50:10.498000+00:00</time>
      </trkpt>
      <trkpt lat="0" lon="0">
        <time>2021-02-28T08:50:10.502000+00:00</time>
      </trkpt>
      <trkpt lat="0" lon="0">
        <time>2021-02-28T08:50:10.504000+00:00</time>
      </trkpt>
      <trkpt lat="47.32107" lon="-1.41881">
        <ele>94</ele>
        <time>2021-02-28T08:50:11.544000+00:00</time>
      </trkpt>
      <trkpt lat="0" lon="0">
        <time>2021-02-28T08:50:11.549000+00:00</time>
      </trkpt>
      <trkpt lat="0" lon="0">
        <time>2021-02-28T08:50:11.553000+00:00</time>
      </trkpt>
      <trkpt lat="0" lon="0">
        <time>2021-02-28T08:50:11.556000+00:00</time>
      </trkpt>
      <trkpt lat="47.32108" lon="-1.41883">
        <ele>94</ele>
        <time>2021-02-28T08:50:12.550000+00:00</time>
      </trkpt>
      <trkpt lat="0" lon="0">
        <time>2021-02-28T08:50:12.558000+00:00</time>
      </trkpt>
      <trkpt lat="0" lon="0">
        <time>2021-02-28T08:50:12.562000+00:00</time>
      </trkpt>
      <trkpt lat="0" lon="0">
        <time>2021-02-28T08:50:12.565000+00:00</time>
      </trkpt>
      <trkpt lat="47.3211" lon="-1.41884">
        <ele>95</ele>
        <time>2021-02-28T08:50:13.582000+00:00</time>
      </trkpt>
      <trkpt lat="0" lon="0">
        <time>2021-02-28T08:50:13.590000+00:00</time>
      </trkpt>
      <trkpt lat="0" lon="0">
        <time>2021-02-28T08:50:13.595000+00:00</time>
      </trkpt>
      <trkpt lat="0" lon="0">
        <time>2021-02-28T08:50:13.598000+00:00</time>
      </trkpt>
      <trkpt lat="47.32111" lon="-1.41886">
        <ele>96</ele>
        <time>2021-02-28T08:50:14.587000+00:00</time>
      </trkpt>
      <trkpt lat="0" lon="0">
        <time>2021-02-28T08:50:14.593000+00:00</time>
      </trkpt>
      <trkpt lat="0" lon="0">
        <time>2021-02-28T08:50:14.599000+00:00</time>
      </trkpt>
      <trkpt lat="0" lon="0">
        <time>2021-02-28T08:50:14.602000+00:00</time>
      </trkpt>
      <trkpt lat="47.32113" lon="-1.41887">
        <ele>97</ele>
        <time>2021-02-28T08:50:15.565000+00:00</time>
      </trkpt>
      <trkpt lat="0" lon="0">
        <time>2021-02-28T08:50:15.570000+00:00</time>
      </trkpt>
      <trkpt lat="0" lon="0">
        <time>2021-02-28T08:50:15.575000+00:00</time>
      </trkpt>
      <trkpt lat="0" lon="0">
        <time>2021-02-28T08:50:15.577000+00:00</time>
      </trkpt>
      <trkpt lat="47.32114" lon="-1.41888">
        <ele>97</ele>
        <time>2021-02-28T08:50:16.582000+00:00</time>
      </trkpt>
      <trkpt lat="0" lon="0">
        <time>2021-02-28T08:50:16.589000+00:00</time>
      </trkpt>
      <trkpt lat="0" lon="0">
        <time>2021-02-28T08:50:16.594000+00:00</time>
      </trkpt>
      <trkpt lat="0" lon="0">
        <time>2021-02-28T08:50:16.597000+00:00</time>
      </trkpt>
      <trkpt lat="47.32115" lon="-1.41889">
        <ele>97</ele>
        <time>2021-02-28T08:50:17.594000+00:00</time>
      </trkpt>
      <trkpt lat="0" lon="0">
        <time>2021-02-28T08:50:17.602000+00:00</time>
      </trkpt>
      <trkpt lat="0" lon="0">
        <time>2021-02-28T08:50:17.609000+00:00</time>
      </trkpt>
      <trkpt lat="0" lon="0">
        <time>2021-02-28T08:50:17.611000+00:00</time>
      </trkpt>
      <trkpt lat="47.32116" lon="-1.4189">
        <ele>98</ele>
        <time>2021-02-28T08:50:18.597000+00:00</time>
      </trkpt>
      <trkpt lat="0" lon="0">
        <time>2021-02-28T08:50:18.607000+00:00</time>
      </trkpt>
      <trkpt lat="0" lon="0">
        <time>2021-02-28T08:50:18.612000+00:00</time>
      </trkpt>
      <trkpt lat="0" lon="0">
        <time>2021-02-28T08:50:18.615000+00:00</time>
      </trkpt>
      <trkpt lat="47.32118" lon="-1.41891">
        <ele>99</ele>
        <time>2021-02-28T08:50:19.565000+00:00</time>
      </trkpt>
      <trkpt lat="0" lon="0">
        <time>2021-02-28T08:50:19.571000+00:00</time>
      </trkpt>
      <trkpt lat="0" lon="0">
        <time>2021-02-28T08:50:19.576000+00:00</time>
      </trkpt>
      <trkpt lat="0" lon="0">
        <time>2021-02-28T08:50:19.579000+00:00</time>
      </trkpt>
      <trkpt lat="47.32119" lon="-1.41892">
        <ele>100</ele>
        <time>2021-02-28T08:50:20.579000+00:00</time>
      </trkpt>
      <trkpt lat="0" lon="0">
        <time>2021-02-28T08:50:20.584000+00:00</time>
      </trkpt>
      <trkpt lat="0" lon="0">
        <time>2021-02-28T08:50:20.588000+00:00</time>
      </trkpt>
      <trkpt lat="0" lon="0">
        <time>2021-02-28T08:50:20.590000+00:00</time>
      </trkpt>
      <trkpt lat="47.32121" lon="-1.41893">
        <ele>100</ele>
        <time>2021-02-28T08:50:21.587000+00:00</time>
      </trkpt>
      <trkpt lat="0" lon="0">
        <time>2021-02-28T08:50:21.599000+00:00</time>
      </trkpt>
      <trkpt lat="0" lon="0">
        <time>2021-02-28T08:50:21.603000+00:00</time>
      </trkpt>
      <trkpt lat="0" lon="0">
        <time>2021-02-28T08:50:21.606000+00:00</time>
      </trkpt>
      <trkpt lat="47.32122" lon="-1.41894">
        <ele>100</ele>
        <time>2021-02-28T08:50:22.600000+00:00</time>
      </trkpt>
      <trkpt lat="0" lon="0">
        <time>2021-02-28T08:50:22.609000+00:00</time>
      </trkpt>
      <trkpt lat="0" lon="0">
        <time>2021-02-28T08:50:22.613000+00:00</time>
      </trkpt>
      <trkpt lat="0" lon="0">
        <time>2021-02-28T08:50:22.616000+00:00</time>
      </trkpt>
      <trkpt lat="47.32123" lon="-1.41895">
        <ele>100</ele>
        <time>2021-02-28T08:50:23.580000+00:00</time>
      </trkpt>
      <trkpt lat="0" lon="0">
        <time>2021-02-28T08:50:23.584000+00:00</time>
      </trkpt>
      <trkpt lat="0" lon="0">
        <time>2021-02-28T08:50:23.586000+00:00</time>
      </trkpt>
      <trkpt lat="0" lon="0">
        <time>2021-02-28T08:50:23.587000+00:00</time>
      </trkpt>
      <trkpt lat="47.32124" lon="-1.41895">
        <ele>100</ele>
        <time>2021-02-28T08:50:24.616000+00:00</time>
      </trkpt>
      <trkpt lat="0" lon="0">
        <time>2021-02-28T08:50:24.622000+00:00</time>
      </trkpt>
      <trkpt lat="0" lon="0">
        <time>2021-02-28T08:50:24.628000+00:00</time>
      </trkpt>
      <trkpt lat="0" lon="0">
        <time>2021-02-28T08:50:24.631000+00:00</time>
      </trkpt>
      <trkpt lat="47.32125" lon="-1.41896">
        <ele>98</ele>
        <time>2021-02-28T08:50:25.572000+00:00</time>
      </trkpt>
      <trkpt lat="0" lon="0">
        <time>2021-02-28T08:50:25.582000+00:00</time>
      </trkpt>
      <trkpt lat="0" lon="0">
        <time>2021-02-28T08:50:25.590000+00:00</time>
      </trkpt>
      <trkpt lat="0" lon="0">
        <time>2021-02-28T08:50:25.592000+00:00</time>
      </trkpt>
      <trkpt lat="47.32127" lon="-1.41897">
        <ele>98</ele>
        <time>2021-02-28T08:50:26.596000+00:00</time>
      </trkpt>
      <trkpt lat="0" lon="0">
        <time>2021-02-28T08:50:26.606000+00:00</time>
      </trkpt>
      <trkpt lat="0" lon="0">
        <time>2021-02-28T08:50:26.617000+00:00</time>
      </trkpt>
      <trkpt lat="0" lon="0">
        <time>2021-02-28T08:50:26.619000+00:00</time>
      </trkpt>
      <trkpt lat="47.32128" lon="-1.41898">
        <ele>99</ele>
        <time>2021-02-28T08:50:27.559000+00:00</time>
      </trkpt>
      <trkpt lat="0" lon="0">
        <time>2021-02-28T08:50:27.564000+00:00</time>
      </trkpt>
      <trkpt lat="0" lon="0">
        <time>2021-02-28T08:50:27.568000+00:00</time>
      </trkpt>
      <trkpt lat="0" lon="0">
        <time>2021-02-28T08:50:27.570000+00:00</time>
      </trkpt>
      <trkpt lat="47.3213" lon="-1.41898">
        <ele>99</ele>
        <time>2021-02-28T08:50:28.507000+00:00</time>
      </trkpt>
      <trkpt lat="0" lon="0">
        <time>2021-02-28T08:50:28.513000+00:00</time>
      </trkpt>
      <trkpt lat="0" lon="0">
        <time>2021-02-28T08:50:28.518000+00:00</time>
      </trkpt>
      <trkpt lat="0" lon="0">
        <time>2021-02-28T08:50:28.521000+00:00</time>
      </trkpt>
      <trkpt lat="47.32131" lon="-1.41899">
        <ele>99</ele>
        <time>2021-02-28T08:50:29.569000+00:00</time>
      </trkpt>
      <trkpt lat="0" lon="0">
        <time>2021-02-28T08:50:29.573000+00:00</time>
      </trkpt>
      <trkpt lat="0" lon="0">
        <time>2021-02-28T08:50:29.577000+00:00</time>
      </trkpt>
      <trkpt lat="0" lon="0">
        <time>2021-02-28T08:50:29.580000+00:00</time>
      </trkpt>
      <trkpt lat="47.32132" lon="-1.41899">
        <ele>99</ele>
        <time>2021-02-28T08:50:30.586000+00:00</time>
      </trkpt>
      <trkpt lat="0" lon="0">
        <time>2021-02-28T08:50:30.593000+00:00</time>
      </trkpt>
      <trkpt lat="0" lon="0">
        <time>2021-02-28T08:50:30.600000+00:00</time>
      </trkpt>
      <trkpt lat="0" lon="0">
        <time>2021-02-28T08:50:30.603000+00:00</time>
      </trkpt>
      <trkpt lat="47.32134" lon="-1.419">
        <ele>100</ele>
        <time>2021-02-28T08:50:31.555000+00:00</time>
      </trkpt>
      <trkpt lat="0" lon="0">
        <time>2021-02-28T08:50:31.560000+00:00</time>
      </trkpt>
      <trkpt lat="0" lon="0">
        <time>2021-02-28T08:50:31.566000+00:00</time>
      </trkpt>
      <trkpt lat="0" lon="0">
        <time>2021-02-28T08:50:31.568000+00:00</time>
      </trkpt>
      <trkpt lat="47.32135" lon="-1.419">
        <ele>100</ele>
        <time>2021-02-28T08:50:32.509000+00:00</time>
      </trkpt>
      <trkpt lat="0" lon="0">
        <time>2021-02-28T08:50:32.521000+00:00</time>
      </trkpt>
      <trkpt lat="0" lon="0">
        <time>2021-02-28T08:50:32.525000+00:00</time>
      </trkpt>
      <trkpt lat="0" lon="0">
        <time>2021-02-28T08:50:32.528000+00:00</time>
      </trkpt>
      <trkpt lat="47.32137" lon="-1.419">
        <ele>101</ele>
        <time>2021-02-28T08:50:33.583000+00:00</time>
      </trkpt>
      <trkpt lat="0" lon="0">
        <time>2021-02-28T08:50:33.589000+00:00</time>
      </trkpt>
      <trkpt lat="0" lon="0">
        <time>2021-02-28T08:50:33.593000+00:00</time>
      </trkpt>
      <trkpt lat="0" lon="0">
        <time>2021-02-28T08:50:33.596000+00:00</time>
      </trkpt>
      <trkpt lat="47.32138" lon="-1.41901">
        <ele>101</ele>
        <time>2021-02-28T08:50:34.585000+00:00</time>
      </trkpt>
      <trkpt lat="0" lon="0">
        <time>2021-02-28T08:50:34.594000+00:00</time>
      </trkpt>
      <trkpt lat="0" lon="0">
        <time>2021-02-28T08:50:34.599000+00:00</time>
      </trkpt>
      <trkpt lat="0" lon="0">
        <time>2021-02-28T08:50:34.602000+00:00</time>
      </trkpt>
      <trkpt lat="47.32139" lon="-1.41901">
        <ele>101</ele>
        <time>2021-02-28T08:50:35.571000+00:00</time>
      </trkpt>
      <trkpt lat="0" lon="0">
        <time>2021-02-28T08:50:35.580000+00:00</time>
      </trkpt>
      <trkpt lat="0" lon="0">
        <time>2021-02-28T08:50:35.585000+00:00</time>
      </trkpt>
      <trkpt lat="0" lon="0">
        <time>2021-02-28T08:50:35.587000+00:00</time>
      </trkpt>
      <trkpt lat="47.3214" lon="-1.41901">
        <ele>101</ele>
        <time>2021-02-28T08:50:36.576000+00:00</time>
      </trkpt>
      <trkpt lat="0" lon="0">
        <time>2021-02-28T08:50:36.581000+00:00</time>
      </trkpt>
      <trkpt lat="0" lon="0">
        <time>2021-02-28T08:50:36.587000+00:00</time>
      </trkpt>
      <trkpt lat="0" lon="0">
        <time>2021-02-28T08:50:36.590000+00:00</time>
      </trkpt>
      <trkpt lat="47.32142" lon="-1.41902">
        <ele>102</ele>
        <time>2021-02-28T08:50:37.556000+00:00</time>
      </trkpt>
      <trkpt lat="0" lon="0">
        <time>2021-02-28T08:50:37.560000+00:00</time>
      </trkpt>
      <trkpt lat="0" lon="0">
        <time>2021-02-28T08:50:37.564000+00:00</time>
      </trkpt>
      <trkpt lat="0" lon="0">
        <time>2021-02-28T08:50:37.566000+00:00</time>
      </trkpt>
      <trkpt lat="47.32143" lon="-1.41902">
        <ele>102</ele>
        <time>2021-02-28T08:50:38.609000+00:00</time>
      </trkpt>
      <trkpt lat="0" lon="0">
        <time>2021-02-28T08:50:38.615000+00:00</time>
      </trkpt>
      <trkpt lat="0" lon="0">
        <time>2021-02-28T08:50:38.619000+00:00</time>
      </trkpt>
      <trkpt lat="0" lon="0">
        <time>2021-02-28T08:50:38.621000+00:00</time>
      </trkpt>
      <trkpt lat="47.32144" lon="-1.41903">
        <ele>102</ele>
        <time>2021-02-28T08:50:39.544000+00:00</time>
      </trkpt>
      <trkpt lat="0" lon="0">
        <time>2021-02-28T08:50:39.550000+00:00</time>
      </trkpt>
      <trkpt lat="0" lon="0">
        <time>2021-02-28T08:50:39.555000+00:00</time>
      </trkpt>
      <trkpt lat="0" lon="0">
        <time>2021-02-28T08:50:39.559000+00:00</time>
      </trkpt>
      <trkpt lat="47.32146" lon="-1.41903">
        <ele>102</ele>
        <time>2021-02-28T08:50:40.571000+00:00</time>
      </trkpt>
      <trkpt lat="0" lon="0">
        <time>2021-02-28T08:50:40.578000+00:00</time>
      </trkpt>
      <trkpt lat="0" lon="0">
        <time>2021-02-28T08:50:40.583000+00:00</time>
      </trkpt>
      <trkpt lat="0" lon="0">
        <time>2021-02-28T08:50:40.586000+00:00</time>
      </trkpt>
      <trkpt lat="47.32146" lon="-1.41904">
        <ele>102</ele>
        <time>2021-02-28T08:50:41.549000+00:00</time>
      </trkpt>
      <trkpt lat="0" lon="0">
        <time>2021-02-28T08:50:41.555000+00:00</time>
      </trkpt>
      <trkpt lat="0" lon="0">
        <time>2021-02-28T08:50:41.560000+00:00</time>
      </trkpt>
      <trkpt lat="0" lon="0">
        <time>2021-02-28T08:50:41.562000+00:00</time>
      </trkpt>
      <trkpt lat="47.32147" lon="-1.41904">
        <ele>102</ele>
        <time>2021-02-28T08:50:42.591000+00:00</time>
      </trkpt>
      <trkpt lat="0" lon="0">
        <time>2021-02-28T08:50:42.603000+00:00</time>
      </trkpt>
      <trkpt lat="0" lon="0">
        <time>2021-02-28T08:50:42.609000+00:00</time>
      </trkpt>
      <trkpt lat="0" lon="0">
        <time>2021-02-28T08:50:42.613000+00:00</time>
      </trkpt>
      <trkpt lat="47.32148" lon="-1.41904">
        <ele>102</ele>
        <time>2021-02-28T08:50:43.539000+00:00</time>
      </trkpt>
      <trkpt lat="0" lon="0">
        <time>2021-02-28T08:50:43.548000+00:00</time>
      </trkpt>
      <trkpt lat="0" lon="0">
        <time>2021-02-28T08:50:43.552000+00:00</time>
      </trkpt>
      <trkpt lat="0" lon="0">
        <time>2021-02-28T08:50:43.554000+00:00</time>
      </trkpt>
      <trkpt lat="47.32149" lon="-1.41904">
        <ele>102</ele>
        <time>2021-02-28T08:50:44.544000+00:00</time>
      </trkpt>
      <trkpt lat="0" lon="0">
        <time>2021-02-28T08:50:44.552000+00:00</time>
      </trkpt>
      <trkpt lat="0" lon="0">
        <time>2021-02-28T08:50:44.556000+00:00</time>
      </trkpt>
      <trkpt lat="0" lon="0">
        <time>2021-02-28T08:50:44.559000+00:00</time>
      </trkpt>
      <trkpt lat="47.3215" lon="-1.41903">
        <ele>102</ele>
        <time>2021-02-28T08:50:45.551000+00:00</time>
      </trkpt>
      <trkpt lat="0" lon="0">
        <time>2021-02-28T08:50:45.560000+00:00</time>
      </trkpt>
      <trkpt lat="0" lon="0">
        <time>2021-02-28T08:50:45.567000+00:00</time>
      </trkpt>
      <trkpt lat="0" lon="0">
        <time>2021-02-28T08:50:45.570000+00:00</time>
      </trkpt>
      <trkpt lat="47.3215" lon="-1.41903">
        <ele>102</ele>
        <time>2021-02-28T08:50:46.570000+00:00</time>
      </trkpt>
      <trkpt lat="0" lon="0">
        <time>2021-02-28T08:50:46.576000+00:00</time>
      </trkpt>
      <trkpt lat="0" lon="0">
        <time>2021-02-28T08:50:46.581000+00:00</time>
      </trkpt>
      <trkpt lat="0" lon="0">
        <time>2021-02-28T08:50:46.584000+00:00</time>
      </trkpt>
      <trkpt lat="47.32151" lon="-1.41903">
        <ele>102</ele>
        <time>2021-02-28T08:50:47.584000+00:00</time>
      </trkpt>
      <trkpt lat="0" lon="0">
        <time>2021-02-28T08:50:47.596000+00:00</time>
      </trkpt>
      <trkpt lat="0" lon="0">
        <time>2021-02-28T08:50:47.600000+00:00</time>
      </trkpt>
      <trkpt lat="0" lon="0">
        <time>2021-02-28T08:50:47.603000+00:00</time>
      </trkpt>
      <trkpt lat="47.32152" lon="-1.41903">
        <ele>102</ele>
        <time>2021-02-28T08:50:48.578000+00:00</time>
      </trkpt>
      <trkpt lat="0" lon="0">
        <time>2021-02-28T08:50:48.587000+00:00</time>
      </trkpt>
      <trkpt lat="0" lon="0">
        <time>2021-02-28T08:50:48.593000+00:00</time>
      </trkpt>
      <trkpt lat="0" lon="0">
        <time>2021-02-28T08:50:48.596000+00:00</time>
      </trkpt>
      <trkpt lat="47.32152" lon="-1.41902">
        <ele>102</ele>
        <time>2021-02-28T08:50:49.580000+00:00</time>
      </trkpt>
      <trkpt lat="0" lon="0">
        <time>2021-02-28T08:50:49.590000+00:00</time>
      </trkpt>
      <trkpt lat="0" lon="0">
        <time>2021-02-28T08:50:49.595000+00:00</time>
      </trkpt>
      <trkpt lat="0" lon="0">
        <time>2021-02-28T08:50:49.598000+00:00</time>
      </trkpt>
      <trkpt lat="47.32153" lon="-1.41901">
        <ele>102</ele>
        <time>2021-02-28T08:50:50.523000+00:00</time>
      </trkpt>
      <trkpt lat="0" lon="0">
        <time>2021-02-28T08:50:50.535000+00:00</time>
      </trkpt>
      <trkpt lat="0" lon="0">
        <time>2021-02-28T08:50:50.539000+00:00</time>
      </trkpt>
      <trkpt lat="0" lon="0">
        <time>2021-02-28T08:50:50.542000+00:00</time>
      </trkpt>
      <trkpt lat="47.32154" lon="-1.419">
        <ele>101</ele>
        <time>2021-02-28T08:50:51.585000+00:00</time>
      </trkpt>
      <trkpt lat="0" lon="0">
        <time>2021-02-28T08:50:51.589000+00:00</time>
      </trkpt>
      <trkpt lat="0" lon="0">
        <time>2021-02-28T08:50:51.594000+00:00</time>
      </trkpt>
      <trkpt lat="0" lon="0">
        <time>2021-02-28T08:50:51.597000+00:00</time>
      </trkpt>
      <trkpt lat="47.32155" lon="-1.419">
        <ele>101</ele>
        <time>2021-02-28T08:50:52.583000+00:00</time>
      </trkpt>
      <trkpt lat="0" lon="0">
        <time>2021-02-28T08:50:52.591000+00:00</time>
      </trkpt>
      <trkpt lat="0" lon="0">
        <time>2021-02-28T08:50:52.595000+00:00</time>
      </trkpt>
      <trkpt lat="0" lon="0">
        <time>2021-02-28T08:50:52.598000+00:00</time>
      </trkpt>
      <trkpt lat="47.32155" lon="-1.41899">
        <ele>101</ele>
        <time>2021-02-28T08:50:53.567000+00:00</time>
      </trkpt>
      <trkpt lat="0" lon="0">
        <time>2021-02-28T08:50:53.578000+00:00</time>
      </trkpt>
      <trkpt lat="0" lon="0">
        <time>2021-02-28T08:50:53.583000+00:00</time>
      </trkpt>
      <trkpt lat="0" lon="0">
        <time>2021-02-28T08:50:53.603000+00:00</time>
      </trkpt>
      <trkpt lat="47.32169" lon="-1.41878">
        <ele>109</ele>
        <time>2021-02-28T08:50:54.521000+00:00</time>
      </trkpt>
      <trkpt lat="0" lon="0">
        <time>2021-02-28T08:50:54.531000+00:00</time>
      </trkpt>
      <trkpt lat="0" lon="0">
        <time>2021-02-28T08:50:54.534000+00:00</time>
      </trkpt>
      <trkpt lat="0" lon="0">
        <time>2021-02-28T08:50:54.537000+00:00</time>
      </trkpt>
      <trkpt lat="47.3217" lon="-1.41876">
        <ele>109</ele>
        <time>2021-02-28T08:50:55.604000+00:00</time>
      </trkpt>
      <trkpt lat="0" lon="0">
        <time>2021-02-28T08:50:55.612000+00:00</time>
      </trkpt>
      <trkpt lat="0" lon="0">
        <time>2021-02-28T08:50:55.618000+00:00</time>
      </trkpt>
      <trkpt lat="0" lon="0">
        <time>2021-02-28T08:50:55.621000+00:00</time>
      </trkpt>
      <trkpt lat="47.32172" lon="-1.41875">
        <ele>109</ele>
        <time>2021-02-28T08:50:56.659000+00:00</time>
      </trkpt>
      <trkpt lat="0" lon="0">
        <time>2021-02-28T08:50:56.665000+00:00</time>
      </trkpt>
      <trkpt lat="0" lon="0">
        <time>2021-02-28T08:50:56.670000+00:00</time>
      </trkpt>
      <trkpt lat="0" lon="0">
        <time>2021-02-28T08:50:56.673000+00:00</time>
      </trkpt>
      <trkpt lat="47.32173" lon="-1.41873">
        <ele>109</ele>
        <time>2021-02-28T08:50:57.621000+00:00</time>
      </trkpt>
      <trkpt lat="0" lon="0">
        <time>2021-02-28T08:50:57.631000+00:00</time>
      </trkpt>
      <trkpt lat="0" lon="0">
        <time>2021-02-28T08:50:57.637000+00:00</time>
      </trkpt>
      <trkpt lat="0" lon="0">
        <time>2021-02-28T08:50:57.640000+00:00</time>
      </trkpt>
      <trkpt lat="47.32175" lon="-1.41871">
        <ele>109</ele>
        <time>2021-02-28T08:50:58.638000+00:00</time>
      </trkpt>
      <trkpt lat="0" lon="0">
        <time>2021-02-28T08:50:58.645000+00:00</time>
      </trkpt>
      <trkpt lat="0" lon="0">
        <time>2021-02-28T08:50:58.651000+00:00</time>
      </trkpt>
      <trkpt lat="0" lon="0">
        <time>2021-02-28T08:50:58.654000+00:00</time>
      </trkpt>
      <trkpt lat="47.32177" lon="-1.4187">
        <ele>109</ele>
        <time>2021-02-28T08:50:59.617000+00:00</time>
      </trkpt>
      <trkpt lat="0" lon="0">
        <time>2021-02-28T08:50:59.626000+00:00</time>
      </trkpt>
      <trkpt lat="0" lon="0">
        <time>2021-02-28T08:50:59.632000+00:00</time>
      </trkpt>
      <trkpt lat="0" lon="0">
        <time>2021-02-28T08:50:59.635000+00:00</time>
      </trkpt>
      <trkpt lat="47.32178" lon="-1.41868">
        <ele>109</ele>
        <time>2021-02-28T08:51:00.632000+00:00</time>
      </trkpt>
      <trkpt lat="0" lon="0">
        <time>2021-02-28T08:51:00.639000+00:00</time>
      </trkpt>
      <trkpt lat="0" lon="0">
        <time>2021-02-28T08:51:00.644000+00:00</time>
      </trkpt>
      <trkpt lat="0" lon="0">
        <time>2021-02-28T08:51:00.646000+00:00</time>
      </trkpt>
      <trkpt lat="47.3218" lon="-1.41865">
        <ele>109</ele>
        <time>2021-02-28T08:51:01.678000+00:00</time>
      </trkpt>
      <trkpt lat="0" lon="0">
        <time>2021-02-28T08:51:01.688000+00:00</time>
      </trkpt>
      <trkpt lat="0" lon="0">
        <time>2021-02-28T08:51:01.693000+00:00</time>
      </trkpt>
      <trkpt lat="0" lon="0">
        <time>2021-02-28T08:51:01.698000+00:00</time>
      </trkpt>
      <trkpt lat="47.32182" lon="-1.41863">
        <ele>109</ele>
        <time>2021-02-28T08:51:02.640000+00:00</time>
      </trkpt>
      <trkpt lat="0" lon="0">
        <time>2021-02-28T08:51:02.650000+00:00</time>
      </trkpt>
      <trkpt lat="0" lon="0">
        <time>2021-02-28T08:51:02.655000+00:00</time>
      </trkpt>
      <trkpt lat="0" lon="0">
        <time>2021-02-28T08:51:02.658000+00:00</time>
      </trkpt>
      <trkpt lat="47.32184" lon="-1.41861">
        <ele>109</ele>
        <time>2021-02-28T08:51:03.622000+00:00</time>
      </trkpt>
      <trkpt lat="0" lon="0">
        <time>2021-02-28T08:51:03.640000+00:00</time>
      </trkpt>
      <trkpt lat="0" lon="0">
        <time>2021-02-28T08:51:03.646000+00:00</time>
      </trkpt>
      <trkpt lat="0" lon="0">
        <time>2021-02-28T08:51:03.648000+00:00</time>
      </trkpt>
      <trkpt lat="47.32186" lon="-1.41859">
        <ele>110</ele>
        <time>2021-02-28T08:51:04.605000+00:00</time>
      </trkpt>
      <trkpt lat="0" lon="0">
        <time>2021-02-28T08:51:04.612000+00:00</time>
      </trkpt>
      <trkpt lat="0" lon="0">
        <time>2021-02-28T08:51:04.621000+00:00</time>
      </trkpt>
      <trkpt lat="0" lon="0">
        <time>2021-02-28T08:51:04.631000+00:00</time>
      </trkpt>
      <trkpt lat="47.32188" lon="-1.41856">
        <ele>109</ele>
        <time>2021-02-28T08:51:05.640000+00:00</time>
      </trkpt>
      <trkpt lat="0" lon="0">
        <time>2021-02-28T08:51:05.647000+00:00</time>
      </trkpt>
      <trkpt lat="0" lon="0">
        <time>2021-02-28T08:51:05.652000+00:00</time>
      </trkpt>
      <trkpt lat="0" lon="0">
        <time>2021-02-28T08:51:05.655000+00:00</time>
      </trkpt>
      <trkpt lat="47.3219" lon="-1.41853">
        <ele>109</ele>
        <time>2021-02-28T08:51:06.635000+00:00</time>
      </trkpt>
      <trkpt lat="0" lon="0">
        <time>2021-02-28T08:51:06.641000+00:00</time>
      </trkpt>
      <trkpt lat="0" lon="0">
        <time>2021-02-28T08:51:06.645000+00:00</time>
      </trkpt>
      <trkpt lat="0" lon="0">
        <time>2021-02-28T08:51:06.647000+00:00</time>
      </trkpt>
      <trkpt lat="47.32192" lon="-1.41851">
        <ele>109</ele>
        <time>2021-02-28T08:51:07.654000+00:00</time>
      </trkpt>
      <trkpt lat="0" lon="0">
        <time>2021-02-28T08:51:07.662000+00:00</time>
      </trkpt>
      <trkpt lat="0" lon="0">
        <time>2021-02-28T08:51:07.671000+00:00</time>
      </trkpt>
      <trkpt lat="0" lon="0">
        <time>2021-02-28T08:51:07.674000+00:00</time>
      </trkpt>
      <trkpt lat="47.32194" lon="-1.41848">
        <ele>109</ele>
        <time>2021-02-28T08:51:08.640000+00:00</time>
      </trkpt>
      <trkpt lat="0" lon="0">
        <time>2021-02-28T08:51:08.647000+00:00</time>
      </trkpt>
      <trkpt lat="0" lon="0">
        <time>2021-02-28T08:51:08.651000+00:00</time>
      </trkpt>
      <trkpt lat="0" lon="0">
        <time>2021-02-28T08:51:08.654000+00:00</time>
      </trkpt>
      <trkpt lat="47.32196" lon="-1.41846">
        <ele>109</ele>
        <time>2021-02-28T08:51:09.619000+00:00</time>
      </trkpt>
      <trkpt lat="0" lon="0">
        <time>2021-02-28T08:51:09.622000+00:00</time>
      </trkpt>
      <trkpt lat="0" lon="0">
        <time>2021-02-28T08:51:09.626000+00:00</time>
      </trkpt>
      <trkpt lat="0" lon="0">
        <time>2021-02-28T08:51:09.631000+00:00</time>
      </trkpt>
      <trkpt lat="47.32198" lon="-1.41844">
        <ele>108</ele>
        <time>2021-02-28T08:51:10.614000+00:00</time>
      </trkpt>
      <trkpt lat="0" lon="0">
        <time>2021-02-28T08:51:10.622000+00:00</time>
      </trkpt>
      <trkpt lat="0" lon="0">
        <time>2021-02-28T08:51:10.627000+00:00</time>
      </trkpt>
      <trkpt lat="0" lon="0">
        <time>2021-02-28T08:51:10.631000+00:00</time>
      </trkpt>
      <trkpt lat="47.32201" lon="-1.41842">
        <ele>108</ele>
        <time>2021-02-28T08:51:11.639000+00:00</time>
      </trkpt>
      <trkpt lat="0" lon="0">
        <time>2021-02-28T08:51:11.650000+00:00</time>
      </trkpt>
      <trkpt lat="0" lon="0">
        <time>2021-02-28T08:51:11.655000+00:00</time>
      </trkpt>
      <trkpt lat="0" lon="0">
        <time>2021-02-28T08:51:11.659000+00:00</time>
      </trkpt>
      <trkpt lat="47.32203" lon="-1.41841">
        <ele>108</ele>
        <time>2021-02-28T08:51:12.646000+00:00</time>
      </trkpt>
      <trkpt lat="0" lon="0">
        <time>2021-02-28T08:51:12.655000+00:00</time>
      </trkpt>
      <trkpt lat="0" lon="0">
        <time>2021-02-28T08:51:12.657000+00:00</time>
      </trkpt>
      <trkpt lat="0" lon="0">
        <time>2021-02-28T08:51:12.658000+00:00</time>
      </trkpt>
      <trkpt lat="47.32205" lon="-1.41839">
        <ele>108</ele>
        <time>2021-02-28T08:51:13.636000+00:00</time>
      </trkpt>
      <trkpt lat="0" lon="0">
        <time>2021-02-28T08:51:13.646000+00:00</time>
      </trkpt>
      <trkpt lat="0" lon="0">
        <time>2021-02-28T08:51:13.650000+00:00</time>
      </trkpt>
      <trkpt lat="0" lon="0">
        <time>2021-02-28T08:51:13.652000+00:00</time>
      </trkpt>
      <trkpt lat="47.32207" lon="-1.41838">
        <ele>108</ele>
        <time>2021-02-28T08:51:14.605000+00:00</time>
      </trkpt>
      <trkpt lat="0" lon="0">
        <time>2021-02-28T08:51:14.611000+00:00</time>
      </trkpt>
      <trkpt lat="0" lon="0">
        <time>2021-02-28T08:51:14.617000+00:00</time>
      </trkpt>
      <trkpt lat="0" lon="0">
        <time>2021-02-28T08:51:14.619000+00:00</time>
      </trkpt>
      <trkpt lat="47.32209" lon="-1.41836">
        <ele>109</ele>
        <time>2021-02-28T08:51:15.662000+00:00</time>
      </trkpt>
      <trkpt lat="0" lon="0">
        <time>2021-02-28T08:51:15.664000+00:00</time>
      </trkpt>
      <trkpt lat="0" lon="0">
        <time>2021-02-28T08:51:15.666000+00:00</time>
      </trkpt>
      <trkpt lat="0" lon="0">
        <time>2021-02-28T08:51:15.667000+00:00</time>
      </trkpt>
      <trkpt lat="47.32211" lon="-1.41834">
        <ele>109</ele>
        <time>2021-02-28T08:51:16.630000+00:00</time>
      </trkpt>
      <trkpt lat="0" lon="0">
        <time>2021-02-28T08:51:16.638000+00:00</time>
      </trkpt>
      <trkpt lat="0" lon="0">
        <time>2021-02-28T08:51:16.644000+00:00</time>
      </trkpt>
      <trkpt lat="0" lon="0">
        <time>2021-02-28T08:51:16.647000+00:00</time>
      </trkpt>
      <trkpt lat="47.32213" lon="-1.41833">
        <ele>109</ele>
        <time>2021-02-28T08:51:17.633000+00:00</time>
      </trkpt>
      <trkpt lat="0" lon="0">
        <time>2021-02-28T08:51:17.640000+00:00</time>
      </trkpt>
      <trkpt lat="0" lon="0">
        <time>2021-02-28T08:51:17.643000+00:00</time>
      </trkpt>
      <trkpt lat="0" lon="0">
        <time>2021-02-28T08:51:17.645000+00:00</time>
      </trkpt>
      <trkpt lat="47.32215" lon="-1.41831">
        <ele>109</ele>
        <time>2021-02-28T08:51:18.634000+00:00</time>
      </trkpt>
      <trkpt lat="0" lon="0">
        <time>2021-02-28T08:51:18.641000+00:00</time>
      </trkpt>
      <trkpt lat="0" lon="0">
        <time>2021-02-28T08:51:18.647000+00:00</time>
      </trkpt>
      <trkpt lat="0" lon="0">
        <time>2021-02-28T08:51:18.649000+00:00</time>
      </trkpt>
      <trkpt lat="47.32216" lon="-1.41828">
        <ele>110</ele>
        <time>2021-02-28T08:51:19.652000+00:00</time>
      </trkpt>
      <trkpt lat="0" lon="0">
        <time>2021-02-28T08:51:19.658000+00:00</time>
      </trkpt>
      <trkpt lat="0" lon="0">
        <time>2021-02-28T08:51:19.663000+00:00</time>
      </trkpt>
      <trkpt lat="0" lon="0">
        <time>2021-02-28T08:51:19.665000+00:00</time>
      </trkpt>
      <trkpt lat="47.32218" lon="-1.41826">
        <ele>110</ele>
        <time>2021-02-28T08:51:20.648000+00:00</time>
      </trkpt>
      <trkpt lat="0" lon="0">
        <time>2021-02-28T08:51:20.653000+00:00</time>
      </trkpt>
      <trkpt lat="0" lon="0">
        <time>2021-02-28T08:51:20.658000+00:00</time>
      </trkpt>
      <trkpt lat="0" lon="0">
        <time>2021-02-28T08:51:20.661000+00:00</time>
      </trkpt>
      <trkpt lat="47.32219" lon="-1.41823">
        <ele>110</ele>
        <time>2021-02-28T08:51:21.636000+00:00</time>
      </trkpt>
      <trkpt lat="0" lon="0">
        <time>2021-02-28T08:51:21.648000+00:00</time>
      </trkpt>
      <trkpt lat="0" lon="0">
        <time>2021-02-28T08:51:21.652000+00:00</time>
      </trkpt>
      <trkpt lat="0" lon="0">
        <time>2021-02-28T08:51:21.653000+00:00</time>
      </trkpt>
      <trkpt lat="47.32221" lon="-1.4182">
        <ele>110</ele>
        <time>2021-02-28T08:51:22.661000+00:00</time>
      </trkpt>
      <trkpt lat="0" lon="0">
        <time>2021-02-28T08:51:22.666000+00:00</time>
      </trkpt>
      <trkpt lat="0" lon="0">
        <time>2021-02-28T08:51:22.671000+00:00</time>
      </trkpt>
      <trkpt lat="0" lon="0">
        <time>2021-02-28T08:51:22.674000+00:00</time>
      </trkpt>
      <trkpt lat="47.32223" lon="-1.41816">
        <ele>110</ele>
        <time>2021-02-28T08:51:23.639000+00:00</time>
      </trkpt>
      <trkpt lat="0" lon="0">
        <time>2021-02-28T08:51:23.650000+00:00</time>
      </trkpt>
      <trkpt lat="0" lon="0">
        <time>2021-02-28T08:51:23.659000+00:00</time>
      </trkpt>
      <trkpt lat="0" lon="0">
        <time>2021-02-28T08:51:23.661000+00:00</time>
      </trkpt>
      <trkpt lat="47.32224" lon="-1.41812">
        <ele>111</ele>
        <time>2021-02-28T08:51:24.651000+00:00</time>
      </trkpt>
      <trkpt lat="0" lon="0">
        <time>2021-02-28T08:51:24.659000+00:00</time>
      </trkpt>
      <trkpt lat="0" lon="0">
        <time>2021-02-28T08:51:24.663000+00:00</time>
      </trkpt>
      <trkpt lat="0" lon="0">
        <time>2021-02-28T08:51:24.665000+00:00</time>
      </trkpt>
      <trkpt lat="47.32226" lon="-1.41809">
        <ele>110</ele>
        <time>2021-02-28T08:51:25.630000+00:00</time>
      </trkpt>
      <trkpt lat="0" lon="0">
        <time>2021-02-28T08:51:25.635000+00:00</time>
      </trkpt>
      <trkpt lat="0" lon="0">
        <time>2021-02-28T08:51:25.645000+00:00</time>
      </trkpt>
      <trkpt lat="0" lon="0">
        <time>2021-02-28T08:51:25.648000+00:00</time>
      </trkpt>
      <trkpt lat="47.32228" lon="-1.41804">
        <ele>110</ele>
        <time>2021-02-28T08:51:26.630000+00:00</time>
      </trkpt>
      <trkpt lat="0" lon="0">
        <time>2021-02-28T08:51:26.637000+00:00</time>
      </trkpt>
      <trkpt lat="0" lon="0">
        <time>2021-02-28T08:51:26.641000+00:00</time>
      </trkpt>
      <trkpt lat="0" lon="0">
        <time>2021-02-28T08:51:26.643000+00:00</time>
      </trkpt>
      <trkpt lat="47.3223" lon="-1.418">
        <ele>111</ele>
        <time>2021-02-28T08:51:27.596000+00:00</time>
      </trkpt>
      <trkpt lat="0" lon="0">
        <time>2021-02-28T08:51:27.598000+00:00</time>
      </trkpt>
      <trkpt lat="0" lon="0">
        <time>2021-02-28T08:51:27.600000+00:00</time>
      </trkpt>
      <trkpt lat="0" lon="0">
        <time>2021-02-28T08:51:27.601000+00:00</time>
      </trkpt>
      <trkpt lat="47.32233" lon="-1.41796">
        <ele>110</ele>
        <time>2021-02-28T08:51:28.629000+00:00</time>
      </trkpt>
      <trkpt lat="0" lon="0">
        <time>2021-02-28T08:51:28.641000+00:00</time>
      </trkpt>
      <trkpt lat="0" lon="0">
        <time>2021-02-28T08:51:28.646000+00:00</time>
      </trkpt>
      <trkpt lat="0" lon="0">
        <time>2021-02-28T08:51:28.650000+00:00</time>
      </trkpt>
      <trkpt lat="47.32235" lon="-1.41792">
        <ele>110</ele>
        <time>2021-02-28T08:51:29.680000+00:00</time>
      </trkpt>
      <trkpt lat="0" lon="0">
        <time>2021-02-28T08:51:29.693000+00:00</time>
      </trkpt>
      <trkpt lat="0" lon="0">
        <time>2021-02-28T08:51:29.699000+00:00</time>
      </trkpt>
      <trkpt lat="0" lon="0">
        <time>2021-02-28T08:51:29.702000+00:00</time>
      </trkpt>
      <trkpt lat="47.32237" lon="-1.41787">
        <ele>110</ele>
        <time>2021-02-28T08:51:30.607000+00:00</time>
      </trkpt>
      <trkpt lat="0" lon="0">
        <time>2021-02-28T08:51:30.613000+00:00</time>
      </trkpt>
      <trkpt lat="0" lon="0">
        <time>2021-02-28T08:51:30.617000+00:00</time>
      </trkpt>
      <trkpt lat="0" lon="0">
        <time>2021-02-28T08:51:30.619000+00:00</time>
      </trkpt>
      <trkpt lat="47.3224" lon="-1.41783">
        <ele>110</ele>
        <time>2021-02-28T08:51:31.573000+00:00</time>
      </trkpt>
      <trkpt lat="0" lon="0">
        <time>2021-02-28T08:51:31.575000+00:00</time>
      </trkpt>
      <trkpt lat="0" lon="0">
        <time>2021-02-28T08:51:31.579000+00:00</time>
      </trkpt>
      <trkpt lat="0" lon="0">
        <time>2021-02-28T08:51:31.581000+00:00</time>
      </trkpt>
      <trkpt lat="47.32242" lon="-1.41779">
        <ele>110</ele>
        <time>2021-02-28T08:51:32.627000+00:00</time>
      </trkpt>
      <trkpt lat="0" lon="0">
        <time>2021-02-28T08:51:32.634000+00:00</time>
      </trkpt>
      <trkpt lat="0" lon="0">
        <time>2021-02-28T08:51:32.639000+00:00</time>
      </trkpt>
      <trkpt lat="0" lon="0">
        <time>2021-02-28T08:51:32.641000+00:00</time>
      </trkpt>
      <trkpt lat="47.32245" lon="-1.41775">
        <ele>109</ele>
        <time>2021-02-28T08:51:33.645000+00:00</time>
      </trkpt>
      <trkpt lat="0" lon="0">
        <time>2021-02-28T08:51:33.647000+00:00</time>
      </trkpt>
      <trkpt lat="0" lon="0">
        <time>2021-02-28T08:51:33.650000+00:00</time>
      </trkpt>
      <trkpt lat="0" lon="0">
        <time>2021-02-28T08:51:33.651000+00:00</time>
      </trkpt>
      <trkpt lat="47.32247" lon="-1.41771">
        <ele>109</ele>
        <time>2021-02-28T08:51:34.627000+00:00</time>
      </trkpt>
      <trkpt lat="0" lon="0">
        <time>2021-02-28T08:51:34.633000+00:00</time>
      </trkpt>
      <trkpt lat="0" lon="0">
        <time>2021-02-28T08:51:34.638000+00:00</time>
      </trkpt>
      <trkpt lat="0" lon="0">
        <time>2021-02-28T08:51:34.640000+00:00</time>
      </trkpt>
      <trkpt lat="47.3225" lon="-1.41766">
        <ele>109</ele>
        <time>2021-02-28T08:51:35.691000+00:00</time>
      </trkpt>
      <trkpt lat="0" lon="0">
        <time>2021-02-28T08:51:35.704000+00:00</time>
      </trkpt>
      <trkpt lat="0" lon="0">
        <time>2021-02-28T08:51:35.711000+00:00</time>
      </trkpt>
      <trkpt lat="0" lon="0">
        <time>2021-02-28T08:51:35.714000+00:00</time>
      </trkpt>
      <trkpt lat="47.32253" lon="-1.41761">
        <ele>108</ele>
        <time>2021-02-28T08:51:36.669000+00:00</time>
      </trkpt>
      <trkpt lat="0" lon="0">
        <time>2021-02-28T08:51:36.676000+00:00</time>
      </trkpt>
      <trkpt lat="0" lon="0">
        <time>2021-02-28T08:51:36.686000+00:00</time>
      </trkpt>
      <trkpt lat="0" lon="0">
        <time>2021-02-28T08:51:36.689000+00:00</time>
      </trkpt>
      <trkpt lat="47.32256" lon="-1.41757">
        <ele>108</ele>
        <time>2021-02-28T08:51:37.663000+00:00</time>
      </trkpt>
      <trkpt lat="0" lon="0">
        <time>2021-02-28T08:51:37.669000+00:00</time>
      </trkpt>
      <trkpt lat="0" lon="0">
        <time>2021-02-28T08:51:37.673000+00:00</time>
      </trkpt>
      <trkpt lat="0" lon="0">
        <time>2021-02-28T08:51:37.675000+00:00</time>
      </trkpt>
      <trkpt lat="47.32259" lon="-1.41752">
        <ele>107</ele>
        <time>2021-02-28T08:51:38.642000+00:00</time>
      </trkpt>
      <trkpt lat="0" lon="0">
        <time>2021-02-28T08:51:38.653000+00:00</time>
      </trkpt>
      <trkpt lat="0" lon="0">
        <time>2021-02-28T08:51:38.659000+00:00</time>
      </trkpt>
      <trkpt lat="0" lon="0">
        <time>2021-02-28T08:51:38.661000+00:00</time>
      </trkpt>
      <trkpt lat="47.32263" lon="-1.41747">
        <ele>106</ele>
        <time>2021-02-28T08:51:39.663000+00:00</time>
      </trkpt>
      <trkpt lat="0" lon="0">
        <time>2021-02-28T08:51:39.665000+00:00</time>
      </trkpt>
      <trkpt lat="0" lon="0">
        <time>2021-02-28T08:51:39.667000+00:00</time>
      </trkpt>
      <trkpt lat="0" lon="0">
        <time>2021-02-28T08:51:39.668000+00:00</time>
      </trkpt>
      <trkpt lat="47.32266" lon="-1.41743">
        <ele>105</ele>
        <time>2021-02-28T08:51:40.642000+00:00</time>
      </trkpt>
      <trkpt lat="0" lon="0">
        <time>2021-02-28T08:51:40.651000+00:00</time>
      </trkpt>
      <trkpt lat="0" lon="0">
        <time>2021-02-28T08:51:40.657000+00:00</time>
      </trkpt>
      <trkpt lat="0" lon="0">
        <time>2021-02-28T08:51:40.659000+00:00</time>
      </trkpt>
      <trkpt lat="47.3227" lon="-1.41738">
        <ele>104</ele>
        <time>2021-02-28T08:51:41.598000+00:00</time>
      </trkpt>
      <trkpt lat="0" lon="0">
        <time>2021-02-28T08:51:41.606000+00:00</time>
      </trkpt>
      <trkpt lat="0" lon="0">
        <time>2021-02-28T08:51:41.610000+00:00</time>
      </trkpt>
      <trkpt lat="0" lon="0">
        <time>2021-02-28T08:51:41.612000+00:00</time>
      </trkpt>
      <trkpt lat="47.32273" lon="-1.41734">
        <ele>104</ele>
        <time>2021-02-28T08:51:42.627000+00:00</time>
      </trkpt>
      <trkpt lat="0" lon="0">
        <time>2021-02-28T08:51:42.632000+00:00</time>
      </trkpt>
      <trkpt lat="0" lon="0">
        <time>2021-02-28T08:51:42.636000+00:00</time>
      </trkpt>
      <trkpt lat="0" lon="0">
        <time>2021-02-28T08:51:42.638000+00:00</time>
      </trkpt>
      <trkpt lat="47.32276" lon="-1.4173">
        <ele>104</ele>
        <time>2021-02-28T08:51:43.628000+00:00</time>
      </trkpt>
      <trkpt lat="0" lon="0">
        <time>2021-02-28T08:51:43.636000+00:00</time>
      </trkpt>
      <trkpt lat="0" lon="0">
        <time>2021-02-28T08:51:43.641000+00:00</time>
      </trkpt>
      <trkpt lat="0" lon="0">
        <time>2021-02-28T08:51:43.643000+00:00</time>
      </trkpt>
      <trkpt lat="47.32279" lon="-1.41726">
        <ele>104</ele>
        <time>2021-02-28T08:51:44.655000+00:00</time>
      </trkpt>
      <trkpt lat="0" lon="0">
        <time>2021-02-28T08:51:44.659000+00:00</time>
      </trkpt>
      <trkpt lat="0" lon="0">
        <time>2021-02-28T08:51:44.663000+00:00</time>
      </trkpt>
      <trkpt lat="0" lon="0">
        <time>2021-02-28T08:51:44.665000+00:00</time>
      </trkpt>
      <trkpt lat="47.32282" lon="-1.41723">
        <ele>104</ele>
        <time>2021-02-28T08:51:45.639000+00:00</time>
      </trkpt>
      <trkpt lat="0" lon="0">
        <time>2021-02-28T08:51:45.645000+00:00</time>
      </trkpt>
      <trkpt lat="0" lon="0">
        <time>2021-02-28T08:51:45.650000+00:00</time>
      </trkpt>
      <trkpt lat="0" lon="0">
        <time>2021-02-28T08:51:45.653000+00:00</time>
      </trkpt>
      <trkpt lat="47.32284" lon="-1.41722">
        <ele>104</ele>
        <time>2021-02-28T08:51:46.624000+00:00</time>
      </trkpt>
      <trkpt lat="0" lon="0">
        <time>2021-02-28T08:51:46.635000+00:00</time>
      </trkpt>
      <trkpt lat="0" lon="0">
        <time>2021-02-28T08:51:46.638000+00:00</time>
      </trkpt>
      <trkpt lat="0" lon="0">
        <time>2021-02-28T08:51:46.641000+00:00</time>
      </trkpt>
      <trkpt lat="47.32287" lon="-1.41721">
        <ele>104</ele>
        <time>2021-02-28T08:51:47.666000+00:00</time>
      </trkpt>
      <trkpt lat="0" lon="0">
        <time>2021-02-28T08:51:47.678000+00:00</time>
      </trkpt>
      <trkpt lat="0" lon="0">
        <time>2021-02-28T08:51:47.684000+00:00</time>
      </trkpt>
      <trkpt lat="0" lon="0">
        <time>2021-02-28T08:51:47.687000+00:00</time>
      </trkpt>
      <trkpt lat="47.32288" lon="-1.41722">
        <ele>104</ele>
        <time>2021-02-28T08:51:48.633000+00:00</time>
      </trkpt>
      <trkpt lat="0" lon="0">
        <time>2021-02-28T08:51:48.638000+00:00</time>
      </trkpt>
      <trkpt lat="0" lon="0">
        <time>2021-02-28T08:51:48.644000+00:00</time>
      </trkpt>
      <trkpt lat="0" lon="0">
        <time>2021-02-28T08:51:48.647000+00:00</time>
      </trkpt>
      <trkpt lat="47.3229" lon="-1.41724">
        <ele>104</ele>
        <time>2021-02-28T08:51:49.612000+00:00</time>
      </trkpt>
      <trkpt lat="0" lon="0">
        <time>2021-02-28T08:51:49.618000+00:00</time>
      </trkpt>
      <trkpt lat="0" lon="0">
        <time>2021-02-28T08:51:49.623000+00:00</time>
      </trkpt>
      <trkpt lat="0" lon="0">
        <time>2021-02-28T08:51:49.625000+00:00</time>
      </trkpt>
      <trkpt lat="47.3229" lon="-1.41726">
        <ele>104</ele>
        <time>2021-02-28T08:51:50.608000+00:00</time>
      </trkpt>
      <trkpt lat="0" lon="0">
        <time>2021-02-28T08:51:50.625000+00:00</time>
      </trkpt>
      <trkpt lat="0" lon="0">
        <time>2021-02-28T08:51:50.629000+00:00</time>
      </trkpt>
      <trkpt lat="0" lon="0">
        <time>2021-02-28T08:51:50.631000+00:00</time>
      </trkpt>
      <trkpt lat="47.32291" lon="-1.4173">
        <ele>105</ele>
        <time>2021-02-28T08:51:51.606000+00:00</time>
      </trkpt>
      <trkpt lat="0" lon="0">
        <time>2021-02-28T08:51:51.611000+00:00</time>
      </trkpt>
      <trkpt lat="0" lon="0">
        <time>2021-02-28T08:51:51.616000+00:00</time>
      </trkpt>
      <trkpt lat="0" lon="0">
        <time>2021-02-28T08:51:51.619000+00:00</time>
      </trkpt>
      <trkpt lat="47.3229" lon="-1.41735">
        <ele>105</ele>
        <time>2021-02-28T08:51:52.678000+00:00</time>
      </trkpt>
      <trkpt lat="0" lon="0">
        <time>2021-02-28T08:51:52.683000+00:00</time>
      </trkpt>
      <trkpt lat="0" lon="0">
        <time>2021-02-28T08:51:52.688000+00:00</time>
      </trkpt>
      <trkpt lat="0" lon="0">
        <time>2021-02-28T08:51:52.691000+00:00</time>
      </trkpt>
      <trkpt lat="47.32289" lon="-1.4174">
        <ele>104</ele>
        <time>2021-02-28T08:51:53.628000+00:00</time>
      </trkpt>
      <trkpt lat="0" lon="0">
        <time>2021-02-28T08:51:53.637000+00:00</time>
      </trkpt>
      <trkpt lat="0" lon="0">
        <time>2021-02-28T08:51:53.641000+00:00</time>
      </trkpt>
      <trkpt lat="0" lon="0">
        <time>2021-02-28T08:51:53.644000+00:00</time>
      </trkpt>
      <trkpt lat="47.32289" lon="-1.41745">
        <ele>104</ele>
        <time>2021-02-28T08:51:54.635000+00:00</time>
      </trkpt>
      <trkpt lat="0" lon="0">
        <time>2021-02-28T08:51:54.641000+00:00</time>
      </trkpt>
      <trkpt lat="0" lon="0">
        <time>2021-02-28T08:51:54.646000+00:00</time>
      </trkpt>
      <trkpt lat="0" lon="0">
        <time>2021-02-28T08:51:54.649000+00:00</time>
      </trkpt>
      <trkpt lat="47.32288" lon="-1.41749">
        <ele>104</ele>
        <time>2021-02-28T08:51:55.614000+00:00</time>
      </trkpt>
      <trkpt lat="0" lon="0">
        <time>2021-02-28T08:51:55.625000+00:00</time>
      </trkpt>
      <trkpt lat="0" lon="0">
        <time>2021-02-28T08:51:55.629000+00:00</time>
      </trkpt>
      <trkpt lat="0" lon="0">
        <time>2021-02-28T08:51:55.633000+00:00</time>
      </trkpt>
      <trkpt lat="47.32287" lon="-1.41754">
        <ele>103</ele>
        <time>2021-02-28T08:51:56.645000+00:00</time>
      </trkpt>
      <trkpt lat="0" lon="0">
        <time>2021-02-28T08:51:56.655000+00:00</time>
      </trkpt>
      <trkpt lat="0" lon="0">
        <time>2021-02-28T08:51:56.659000+00:00</time>
      </trkpt>
      <trkpt lat="0" lon="0">
        <time>2021-02-28T08:51:56.662000+00:00</time>
      </trkpt>
      <trkpt lat="47.32286" lon="-1.41759">
        <ele>103</ele>
        <time>2021-02-28T08:51:57.660000+00:00</time>
      </trkpt>
      <trkpt lat="0" lon="0">
        <time>2021-02-28T08:51:57.671000+00:00</time>
      </trkpt>
      <trkpt lat="0" lon="0">
        <time>2021-02-28T08:51:57.676000+00:00</time>
      </trkpt>
      <trkpt lat="0" lon="0">
        <time>2021-02-28T08:51:57.679000+00:00</time>
      </trkpt>
      <trkpt lat="47.32285" lon="-1.41764">
        <ele>103</ele>
        <time>2021-02-28T08:51:58.657000+00:00</time>
      </trkpt>
      <trkpt lat="0" lon="0">
        <time>2021-02-28T08:51:58.665000+00:00</time>
      </trkpt>
      <trkpt lat="0" lon="0">
        <time>2021-02-28T08:51:58.670000+00:00</time>
      </trkpt>
      <trkpt lat="0" lon="0">
        <time>2021-02-28T08:51:58.672000+00:00</time>
      </trkpt>
      <trkpt lat="47.32284" lon="-1.41769">
        <ele>103</ele>
        <time>2021-02-28T08:51:59.644000+00:00</time>
      </trkpt>
      <trkpt lat="0" lon="0">
        <time>2021-02-28T08:51:59.651000+00:00</time>
      </trkpt>
      <trkpt lat="0" lon="0">
        <time>2021-02-28T08:51:59.656000+00:00</time>
      </trkpt>
      <trkpt lat="0" lon="0">
        <time>2021-02-28T08:51:59.659000+00:00</time>
      </trkpt>
      <trkpt lat="47.32283" lon="-1.41775">
        <ele>103</ele>
        <time>2021-02-28T08:52:00.681000+00:00</time>
      </trkpt>
      <trkpt lat="0" lon="0">
        <time>2021-02-28T08:52:00.686000+00:00</time>
      </trkpt>
      <trkpt lat="0" lon="0">
        <time>2021-02-28T08:52:00.692000+00:00</time>
      </trkpt>
      <trkpt lat="0" lon="0">
        <time>2021-02-28T08:52:00.695000+00:00</time>
      </trkpt>
      <trkpt lat="47.32282" lon="-1.4178">
        <ele>103</ele>
        <time>2021-02-28T08:52:01.658000+00:00</time>
      </trkpt>
      <trkpt lat="0" lon="0">
        <time>2021-02-28T08:52:01.666000+00:00</time>
      </trkpt>
      <trkpt lat="0" lon="0">
        <time>2021-02-28T08:52:01.672000+00:00</time>
      </trkpt>
      <trkpt lat="0" lon="0">
        <time>2021-02-28T08:52:01.675000+00:00</time>
      </trkpt>
      <trkpt lat="47.32281" lon="-1.41786">
        <ele>103</ele>
        <time>2021-02-28T08:52:02.654000+00:00</time>
      </trkpt>
      <trkpt lat="0" lon="0">
        <time>2021-02-28T08:52:02.660000+00:00</time>
      </trkpt>
      <trkpt lat="0" lon="0">
        <time>2021-02-28T08:52:02.665000+00:00</time>
      </trkpt>
      <trkpt lat="0" lon="0">
        <time>2021-02-28T08:52:02.668000+00:00</time>
      </trkpt>
      <trkpt lat="47.3228" lon="-1.41792">
        <ele>103</ele>
        <time>2021-02-28T08:52:03.643000+00:00</time>
      </trkpt>
      <trkpt lat="0" lon="0">
        <time>2021-02-28T08:52:03.647000+00:00</time>
      </trkpt>
      <trkpt lat="0" lon="0">
        <time>2021-02-28T08:52:03.653000+00:00</time>
      </trkpt>
      <trkpt lat="0" lon="0">
        <time>2021-02-28T08:52:03.655000+00:00</time>
      </trkpt>
      <trkpt lat="47.32279" lon="-1.41798">
        <ele>102</ele>
        <time>2021-02-28T08:52:04.643000+00:00</time>
      </trkpt>
      <trkpt lat="0" lon="0">
        <time>2021-02-28T08:52:04.657000+00:00</time>
      </trkpt>
      <trkpt lat="0" lon="0">
        <time>2021-02-28T08:52:04.665000+00:00</time>
      </trkpt>
      <trkpt lat="0" lon="0">
        <time>2021-02-28T08:52:04.668000+00:00</time>
      </trkpt>
      <trkpt lat="47.32277" lon="-1.41804">
        <ele>102</ele>
        <time>2021-02-28T08:52:05.676000+00:00</time>
      </trkpt>
      <trkpt lat="0" lon="0">
        <time>2021-02-28T08:52:05.690000+00:00</time>
      </trkpt>
      <trkpt lat="0" lon="0">
        <time>2021-02-28T08:52:05.699000+00:00</time>
      </trkpt>
      <trkpt lat="0" lon="0">
        <time>2021-02-28T08:52:05.703000+00:00</time>
      </trkpt>
      <trkpt lat="47.32276" lon="-1.4181">
        <ele>101</ele>
        <time>2021-02-28T08:52:06.650000+00:00</time>
      </trkpt>
      <trkpt lat="0" lon="0">
        <time>2021-02-28T08:52:06.657000+00:00</time>
      </trkpt>
      <trkpt lat="0" lon="0">
        <time>2021-02-28T08:52:06.666000+00:00</time>
      </trkpt>
      <trkpt lat="0" lon="0">
        <time>2021-02-28T08:52:06.670000+00:00</time>
      </trkpt>
      <trkpt lat="47.32275" lon="-1.41817">
        <ele>101</ele>
        <time>2021-02-28T08:52:07.663000+00:00</time>
      </trkpt>
      <trkpt lat="0" lon="0">
        <time>2021-02-28T08:52:07.669000+00:00</time>
      </trkpt>
      <trkpt lat="0" lon="0">
        <time>2021-02-28T08:52:07.676000+00:00</time>
      </trkpt>
      <trkpt lat="0" lon="0">
        <time>2021-02-28T08:52:07.679000+00:00</time>
      </trkpt>
      <trkpt lat="47.32275" lon="-1.41824">
        <ele>101</ele>
        <time>2021-02-28T08:52:08.685000+00:00</time>
      </trkpt>
      <trkpt lat="0" lon="0">
        <time>2021-02-28T08:52:08.692000+00:00</time>
      </trkpt>
      <trkpt lat="0" lon="0">
        <time>2021-02-28T08:52:08.696000+00:00</time>
      </trkpt>
      <trkpt lat="0" lon="0">
        <time>2021-02-28T08:52:08.699000+00:00</time>
      </trkpt>
      <trkpt lat="47.32274" lon="-1.4183">
        <ele>101</ele>
        <time>2021-02-28T08:52:09.653000+00:00</time>
      </trkpt>
      <trkpt lat="0" lon="0">
        <time>2021-02-28T08:52:09.661000+00:00</time>
      </trkpt>
      <trkpt lat="0" lon="0">
        <time>2021-02-28T08:52:09.666000+00:00</time>
      </trkpt>
      <trkpt lat="0" lon="0">
        <time>2021-02-28T08:52:09.669000+00:00</time>
      </trkpt>
      <trkpt lat="47.32273" lon="-1.41837">
        <ele>101</ele>
        <time>2021-02-28T08:52:10.631000+00:00</time>
      </trkpt>
      <trkpt lat="0" lon="0">
        <time>2021-02-28T08:52:10.639000+00:00</time>
      </trkpt>
      <trkpt lat="0" lon="0">
        <time>2021-02-28T08:52:10.643000+00:00</time>
      </trkpt>
      <trkpt lat="0" lon="0">
        <time>2021-02-28T08:52:10.646000+00:00</time>
      </trkpt>
      <trkpt lat="47.32272" lon="-1.41844">
        <ele>100</ele>
        <time>2021-02-28T08:52:11.652000+00:00</time>
      </trkpt>
      <trkpt lat="0" lon="0">
        <time>2021-02-28T08:52:11.657000+00:00</time>
      </trkpt>
      <trkpt lat="0" lon="0">
        <time>2021-02-28T08:52:11.664000+00:00</time>
      </trkpt>
      <trkpt lat="0" lon="0">
        <time>2021-02-28T08:52:11.667000+00:00</time>
      </trkpt>
      <trkpt lat="47.32271" lon="-1.41851">
        <ele>100</ele>
        <time>2021-02-28T08:52:12.658000+00:00</time>
      </trkpt>
      <trkpt lat="0" lon="0">
        <time>2021-02-28T08:52:12.663000+00:00</time>
      </trkpt>
      <trkpt lat="0" lon="0">
        <time>2021-02-28T08:52:12.667000+00:00</time>
      </trkpt>
      <trkpt lat="0" lon="0">
        <time>2021-02-28T08:52:12.670000+00:00</time>
      </trkpt>
      <trkpt lat="47.32269" lon="-1.41858">
        <ele>101</ele>
        <time>2021-02-28T08:52:13.676000+00:00</time>
      </trkpt>
      <trkpt lat="0" lon="0">
        <time>2021-02-28T08:52:13.681000+00:00</time>
      </trkpt>
      <trkpt lat="0" lon="0">
        <time>2021-02-28T08:52:13.686000+00:00</time>
      </trkpt>
      <trkpt lat="0" lon="0">
        <time>2021-02-28T08:52:13.690000+00:00</time>
      </trkpt>
      <trkpt lat="47.32268" lon="-1.41864">
        <ele>101</ele>
        <time>2021-02-28T08:52:14.652000+00:00</time>
      </trkpt>
      <trkpt lat="0" lon="0">
        <time>2021-02-28T08:52:14.660000+00:00</time>
      </trkpt>
      <trkpt lat="0" lon="0">
        <time>2021-02-28T08:52:14.662000+00:00</time>
      </trkpt>
      <trkpt lat="0" lon="0">
        <time>2021-02-28T08:52:14.664000+00:00</time>
      </trkpt>
      <trkpt lat="47.32267" lon="-1.41871">
        <ele>101</ele>
        <time>2021-02-28T08:52:15.655000+00:00</time>
      </trkpt>
      <trkpt lat="0" lon="0">
        <time>2021-02-28T08:52:15.661000+00:00</time>
      </trkpt>
      <trkpt lat="0" lon="0">
        <time>2021-02-28T08:52:15.669000+00:00</time>
      </trkpt>
      <trkpt lat="0" lon="0">
        <time>2021-02-28T08:52:15.672000+00:00</time>
      </trkpt>
      <trkpt lat="47.32267" lon="-1.41876">
        <ele>101</ele>
        <time>2021-02-28T08:52:16.639000+00:00</time>
      </trkpt>
      <trkpt lat="0" lon="0">
        <time>2021-02-28T08:52:16.646000+00:00</time>
      </trkpt>
      <trkpt lat="0" lon="0">
        <time>2021-02-28T08:52:16.653000+00:00</time>
      </trkpt>
      <trkpt lat="0" lon="0">
        <time>2021-02-28T08:52:16.656000+00:00</time>
      </trkpt>
      <trkpt lat="47.32266" lon="-1.41881">
        <ele>101</ele>
        <time>2021-02-28T08:52:17.623000+00:00</time>
      </trkpt>
      <trkpt lat="0" lon="0">
        <time>2021-02-28T08:52:17.635000+00:00</time>
      </trkpt>
      <trkpt lat="0" lon="0">
        <time>2021-02-28T08:52:17.640000+00:00</time>
      </trkpt>
      <trkpt lat="0" lon="0">
        <time>2021-02-28T08:52:17.642000+00:00</time>
      </trkpt>
      <trkpt lat="47.32266" lon="-1.41885">
        <ele>101</ele>
        <time>2021-02-28T08:52:18.655000+00:00</time>
      </trkpt>
      <trkpt lat="0" lon="0">
        <time>2021-02-28T08:52:18.667000+00:00</time>
      </trkpt>
      <trkpt lat="0" lon="0">
        <time>2021-02-28T08:52:18.672000+00:00</time>
      </trkpt>
      <trkpt lat="0" lon="0">
        <time>2021-02-28T08:52:18.675000+00:00</time>
      </trkpt>
      <trkpt lat="47.32266" lon="-1.41889">
        <ele>101</ele>
        <time>2021-02-28T08:52:19.619000+00:00</time>
      </trkpt>
      <trkpt lat="0" lon="0">
        <time>2021-02-28T08:52:19.627000+00:00</time>
      </trkpt>
      <trkpt lat="0" lon="0">
        <time>2021-02-28T08:52:19.631000+00:00</time>
      </trkpt>
      <trkpt lat="0" lon="0">
        <time>2021-02-28T08:52:19.634000+00:00</time>
      </trkpt>
      <trkpt lat="47.32266" lon="-1.41892">
        <ele>100</ele>
        <time>2021-02-28T08:52:20.598000+00:00</time>
      </trkpt>
      <trkpt lat="0" lon="0">
        <time>2021-02-28T08:52:20.609000+00:00</time>
      </trkpt>
      <trkpt lat="0" lon="0">
        <time>2021-02-28T08:52:20.615000+00:00</time>
      </trkpt>
      <trkpt lat="0" lon="0">
        <time>2021-02-28T08:52:20.618000+00:00</time>
      </trkpt>
      <trkpt lat="47.32268" lon="-1.41894">
        <ele>99</ele>
        <time>2021-02-28T08:52:21.628000+00:00</time>
      </trkpt>
      <trkpt lat="0" lon="0">
        <time>2021-02-28T08:52:21.634000+00:00</time>
      </trkpt>
      <trkpt lat="0" lon="0">
        <time>2021-02-28T08:52:21.639000+00:00</time>
      </trkpt>
      <trkpt lat="0" lon="0">
        <time>2021-02-28T08:52:21.642000+00:00</time>
      </trkpt>
      <trkpt lat="47.3227" lon="-1.41896">
        <ele>99</ele>
        <time>2021-02-28T08:52:22.631000+00:00</time>
      </trkpt>
      <trkpt lat="0" lon="0">
        <time>2021-02-28T08:52:22.641000+00:00</time>
      </trkpt>
      <trkpt lat="0" lon="0">
        <time>2021-02-28T08:52:22.648000+00:00</time>
      </trkpt>
      <trkpt lat="0" lon="0">
        <time>2021-02-28T08:52:22.651000+00:00</time>
      </trkpt>
      <trkpt lat="47.32274" lon="-1.41897">
        <ele>99</ele>
        <time>2021-02-28T08:52:23.662000+00:00</time>
      </trkpt>
      <trkpt lat="0" lon="0">
        <time>2021-02-28T08:52:23.669000+00:00</time>
      </trkpt>
      <trkpt lat="0" lon="0">
        <time>2021-02-28T08:52:23.675000+00:00</time>
      </trkpt>
      <trkpt lat="0" lon="0">
        <time>2021-02-28T08:52:23.678000+00:00</time>
      </trkpt>
      <trkpt lat="47.32278" lon="-1.41898">
        <ele>99</ele>
        <time>2021-02-28T08:52:24.649000+00:00</time>
      </trkpt>
      <trkpt lat="0" lon="0">
        <time>2021-02-28T08:52:24.659000+00:00</time>
      </trkpt>
      <trkpt lat="0" lon="0">
        <time>2021-02-28T08:52:24.664000+00:00</time>
      </trkpt>
      <trkpt lat="0" lon="0">
        <time>2021-02-28T08:52:24.668000+00:00</time>
      </trkpt>
      <trkpt lat="47.32282" lon="-1.419">
        <ele>98</ele>
        <time>2021-02-28T08:52:25.635000+00:00</time>
      </trkpt>
      <trkpt lat="0" lon="0">
        <time>2021-02-28T08:52:25.643000+00:00</time>
      </trkpt>
      <trkpt lat="0" lon="0">
        <time>2021-02-28T08:52:25.648000+00:00</time>
      </trkpt>
      <trkpt lat="0" lon="0">
        <time>2021-02-28T08:52:25.649000+00:00</time>
      </trkpt>
      <trkpt lat="47.32286" lon="-1.41902">
        <ele>98</ele>
        <time>2021-02-28T08:52:26.638000+00:00</time>
      </trkpt>
      <trkpt lat="0" lon="0">
        <time>2021-02-28T08:52:26.647000+00:00</time>
      </trkpt>
      <trkpt lat="0" lon="0">
        <time>2021-02-28T08:52:26.652000+00:00</time>
      </trkpt>
      <trkpt lat="0" lon="0">
        <time>2021-02-28T08:52:26.655000+00:00</time>
      </trkpt>
      <trkpt lat="47.3229" lon="-1.41904">
        <ele>98</ele>
        <time>2021-02-28T08:52:27.645000+00:00</time>
      </trkpt>
      <trkpt lat="0" lon="0">
        <time>2021-02-28T08:52:27.652000+00:00</time>
      </trkpt>
      <trkpt lat="0" lon="0">
        <time>2021-02-28T08:52:27.657000+00:00</time>
      </trkpt>
      <trkpt lat="0" lon="0">
        <time>2021-02-28T08:52:27.660000+00:00</time>
      </trkpt>
      <trkpt lat="47.32294" lon="-1.41905">
        <ele>98</ele>
        <time>2021-02-28T08:52:28.639000+00:00</time>
      </trkpt>
      <trkpt lat="0" lon="0">
        <time>2021-02-28T08:52:28.648000+00:00</time>
      </trkpt>
      <trkpt lat="0" lon="0">
        <time>2021-02-28T08:52:28.654000+00:00</time>
      </trkpt>
      <trkpt lat="0" lon="0">
        <time>2021-02-28T08:52:28.656000+00:00</time>
      </trkpt>
      <trkpt lat="47.32297" lon="-1.41907">
        <ele>98</ele>
        <time>2021-02-28T08:52:29.635000+00:00</time>
      </trkpt>
      <trkpt lat="0" lon="0">
        <time>2021-02-28T08:52:29.645000+00:00</time>
      </trkpt>
      <trkpt lat="0" lon="0">
        <time>2021-02-28T08:52:29.650000+00:00</time>
      </trkpt>
      <trkpt lat="0" lon="0">
        <time>2021-02-28T08:52:29.652000+00:00</time>
      </trkpt>
      <trkpt lat="47.323" lon="-1.41909">
        <ele>98</ele>
        <time>2021-02-28T08:52:30.622000+00:00</time>
      </trkpt>
      <trkpt lat="0" lon="0">
        <time>2021-02-28T08:52:30.627000+00:00</time>
      </trkpt>
      <trkpt lat="0" lon="0">
        <time>2021-02-28T08:52:30.631000+00:00</time>
      </trkpt>
      <trkpt lat="0" lon="0">
        <time>2021-02-28T08:52:30.634000+00:00</time>
      </trkpt>
      <trkpt lat="47.32303" lon="-1.41912">
        <ele>98</ele>
        <time>2021-02-28T08:52:31.621000+00:00</time>
      </trkpt>
      <trkpt lat="0" lon="0">
        <time>2021-02-28T08:52:31.626000+00:00</time>
      </trkpt>
      <trkpt lat="0" lon="0">
        <time>2021-02-28T08:52:31.630000+00:00</time>
      </trkpt>
      <trkpt lat="0" lon="0">
        <time>2021-02-28T08:52:31.633000+00:00</time>
      </trkpt>
      <trkpt lat="47.32305" lon="-1.41915">
        <ele>98</ele>
        <time>2021-02-28T08:52:32.639000+00:00</time>
      </trkpt>
      <trkpt lat="0" lon="0">
        <time>2021-02-28T08:52:32.645000+00:00</time>
      </trkpt>
      <trkpt lat="0" lon="0">
        <time>2021-02-28T08:52:32.651000+00:00</time>
      </trkpt>
      <trkpt lat="0" lon="0">
        <time>2021-02-28T08:52:32.654000+00:00</time>
      </trkpt>
      <trkpt lat="47.32307" lon="-1.41918">
        <ele>98</ele>
        <time>2021-02-28T08:52:33.638000+00:00</time>
      </trkpt>
      <trkpt lat="0" lon="0">
        <time>2021-02-28T08:52:33.648000+00:00</time>
      </trkpt>
      <trkpt lat="0" lon="0">
        <time>2021-02-28T08:52:33.652000+00:00</time>
      </trkpt>
      <trkpt lat="0" lon="0">
        <time>2021-02-28T08:52:33.654000+00:00</time>
      </trkpt>
      <trkpt lat="47.32308" lon="-1.41921">
        <ele>98</ele>
        <time>2021-02-28T08:52:34.660000+00:00</time>
      </trkpt>
      <trkpt lat="0" lon="0">
        <time>2021-02-28T08:52:34.672000+00:00</time>
      </trkpt>
      <trkpt lat="0" lon="0">
        <time>2021-02-28T08:52:34.678000+00:00</time>
      </trkpt>
      <trkpt lat="0" lon="0">
        <time>2021-02-28T08:52:34.681000+00:00</time>
      </trkpt>
      <trkpt lat="47.3231" lon="-1.41924">
        <ele>98</ele>
        <time>2021-02-28T08:52:35.641000+00:00</time>
      </trkpt>
      <trkpt lat="0" lon="0">
        <time>2021-02-28T08:52:35.654000+00:00</time>
      </trkpt>
      <trkpt lat="0" lon="0">
        <time>2021-02-28T08:52:35.661000+00:00</time>
      </trkpt>
      <trkpt lat="0" lon="0">
        <time>2021-02-28T08:52:35.665000+00:00</time>
      </trkpt>
      <trkpt lat="47.32311" lon="-1.41927">
        <ele>99</ele>
        <time>2021-02-28T08:52:36.636000+00:00</time>
      </trkpt>
      <trkpt lat="0" lon="0">
        <time>2021-02-28T08:52:36.638000+00:00</time>
      </trkpt>
      <trkpt lat="0" lon="0">
        <time>2021-02-28T08:52:36.640000+00:00</time>
      </trkpt>
      <trkpt lat="0" lon="0">
        <time>2021-02-28T08:52:36.643000+00:00</time>
      </trkpt>
      <trkpt lat="47.32312" lon="-1.4193">
        <ele>99</ele>
        <time>2021-02-28T08:52:37.635000+00:00</time>
      </trkpt>
      <trkpt lat="0" lon="0">
        <time>2021-02-28T08:52:37.642000+00:00</time>
      </trkpt>
      <trkpt lat="0" lon="0">
        <time>2021-02-28T08:52:37.646000+00:00</time>
      </trkpt>
      <trkpt lat="0" lon="0">
        <time>2021-02-28T08:52:37.648000+00:00</time>
      </trkpt>
      <trkpt lat="47.32312" lon="-1.41933">
        <ele>99</ele>
        <time>2021-02-28T08:52:38.641000+00:00</time>
      </trkpt>
      <trkpt lat="0" lon="0">
        <time>2021-02-28T08:52:38.648000+00:00</time>
      </trkpt>
      <trkpt lat="0" lon="0">
        <time>2021-02-28T08:52:38.653000+00:00</time>
      </trkpt>
      <trkpt lat="0" lon="0">
        <time>2021-02-28T08:52:38.656000+00:00</time>
      </trkpt>
      <trkpt lat="47.32313" lon="-1.41936">
        <ele>99</ele>
        <time>2021-02-28T08:52:39.666000+00:00</time>
      </trkpt>
      <trkpt lat="0" lon="0">
        <time>2021-02-28T08:52:39.670000+00:00</time>
      </trkpt>
      <trkpt lat="0" lon="0">
        <time>2021-02-28T08:52:39.676000+00:00</time>
      </trkpt>
      <trkpt lat="0" lon="0">
        <time>2021-02-28T08:52:39.679000+00:00</time>
      </trkpt>
      <trkpt lat="47.32314" lon="-1.41939">
        <ele>100</ele>
        <time>2021-02-28T08:52:40.653000+00:00</time>
      </trkpt>
      <trkpt lat="0" lon="0">
        <time>2021-02-28T08:52:40.664000+00:00</time>
      </trkpt>
      <trkpt lat="0" lon="0">
        <time>2021-02-28T08:52:40.669000+00:00</time>
      </trkpt>
      <trkpt lat="0" lon="0">
        <time>2021-02-28T08:52:40.672000+00:00</time>
      </trkpt>
      <trkpt lat="47.32314" lon="-1.41941">
        <ele>100</ele>
        <time>2021-02-28T08:52:41.627000+00:00</time>
      </trkpt>
      <trkpt lat="0" lon="0">
        <time>2021-02-28T08:52:41.635000+00:00</time>
      </trkpt>
      <trkpt lat="0" lon="0">
        <time>2021-02-28T08:52:41.644000+00:00</time>
      </trkpt>
      <trkpt lat="0" lon="0">
        <time>2021-02-28T08:52:41.648000+00:00</time>
      </trkpt>
      <trkpt lat="47.32315" lon="-1.41944">
        <ele>100</ele>
        <time>2021-02-28T08:52:42.650000+00:00</time>
      </trkpt>
      <trkpt lat="0" lon="0">
        <time>2021-02-28T08:52:42.663000+00:00</time>
      </trkpt>
      <trkpt lat="0" lon="0">
        <time>2021-02-28T08:52:42.668000+00:00</time>
      </trkpt>
      <trkpt lat="0" lon="0">
        <time>2021-02-28T08:52:42.670000+00:00</time>
      </trkpt>
      <trkpt lat="47.32315" lon="-1.41946">
        <ele>100</ele>
        <time>2021-02-28T08:52:43.673000+00:00</time>
      </trkpt>
      <trkpt lat="0" lon="0">
        <time>2021-02-28T08:52:43.680000+00:00</time>
      </trkpt>
      <trkpt lat="0" lon="0">
        <time>2021-02-28T08:52:43.685000+00:00</time>
      </trkpt>
      <trkpt lat="0" lon="0">
        <time>2021-02-28T08:52:43.688000+00:00</time>
      </trkpt>
      <trkpt lat="47.32316" lon="-1.41948">
        <ele>100</ele>
        <time>2021-02-28T08:52:44.687000+00:00</time>
      </trkpt>
      <trkpt lat="0" lon="0">
        <time>2021-02-28T08:52:44.695000+00:00</time>
      </trkpt>
      <trkpt lat="0" lon="0">
        <time>2021-02-28T08:52:44.704000+00:00</time>
      </trkpt>
      <trkpt lat="0" lon="0">
        <time>2021-02-28T08:52:44.707000+00:00</time>
      </trkpt>
      <trkpt lat="47.32316" lon="-1.4195">
        <ele>100</ele>
        <time>2021-02-28T08:52:45.629000+00:00</time>
      </trkpt>
      <trkpt lat="0" lon="0">
        <time>2021-02-28T08:52:45.636000+00:00</time>
      </trkpt>
      <trkpt lat="0" lon="0">
        <time>2021-02-28T08:52:45.642000+00:00</time>
      </trkpt>
      <trkpt lat="0" lon="0">
        <time>2021-02-28T08:52:45.645000+00:00</time>
      </trkpt>
      <trkpt lat="47.32317" lon="-1.41951">
        <ele>101</ele>
        <time>2021-02-28T08:52:46.670000+00:00</time>
      </trkpt>
      <trkpt lat="0" lon="0">
        <time>2021-02-28T08:52:46.678000+00:00</time>
      </trkpt>
      <trkpt lat="0" lon="0">
        <time>2021-02-28T08:52:46.684000+00:00</time>
      </trkpt>
      <trkpt lat="0" lon="0">
        <time>2021-02-28T08:52:46.687000+00:00</time>
      </trkpt>
      <trkpt lat="47.32318" lon="-1.41953">
        <ele>101</ele>
        <time>2021-02-28T08:52:47.644000+00:00</time>
      </trkpt>
      <trkpt lat="0" lon="0">
        <time>2021-02-28T08:52:47.653000+00:00</time>
      </trkpt>
      <trkpt lat="0" lon="0">
        <time>2021-02-28T08:52:47.659000+00:00</time>
      </trkpt>
      <trkpt lat="0" lon="0">
        <time>2021-02-28T08:52:47.662000+00:00</time>
      </trkpt>
      <trkpt lat="47.32319" lon="-1.41955">
        <ele>101</ele>
        <time>2021-02-28T08:52:48.619000+00:00</time>
      </trkpt>
      <trkpt lat="0" lon="0">
        <time>2021-02-28T08:52:48.630000+00:00</time>
      </trkpt>
      <trkpt lat="0" lon="0">
        <time>2021-02-28T08:52:48.635000+00:00</time>
      </trkpt>
      <trkpt lat="0" lon="0">
        <time>2021-02-28T08:52:48.637000+00:00</time>
      </trkpt>
      <trkpt lat="47.3232" lon="-1.41957">
        <ele>102</ele>
        <time>2021-02-28T08:52:49.674000+00:00</time>
      </trkpt>
      <trkpt lat="0" lon="0">
        <time>2021-02-28T08:52:49.681000+00:00</time>
      </trkpt>
      <trkpt lat="0" lon="0">
        <time>2021-02-28T08:52:49.686000+00:00</time>
      </trkpt>
      <trkpt lat="0" lon="0">
        <time>2021-02-28T08:52:49.688000+00:00</time>
      </trkpt>
      <trkpt lat="47.3232" lon="-1.41959">
        <ele>102</ele>
        <time>2021-02-28T08:52:50.671000+00:00</time>
      </trkpt>
      <trkpt lat="0" lon="0">
        <time>2021-02-28T08:52:50.681000+00:00</time>
      </trkpt>
      <trkpt lat="0" lon="0">
        <time>2021-02-28T08:52:50.687000+00:00</time>
      </trkpt>
      <trkpt lat="0" lon="0">
        <time>2021-02-28T08:52:50.690000+00:00</time>
      </trkpt>
      <trkpt lat="47.32321" lon="-1.41961">
        <ele>102</ele>
        <time>2021-02-28T08:52:51.652000+00:00</time>
      </trkpt>
      <trkpt lat="0" lon="0">
        <time>2021-02-28T08:52:51.665000+00:00</time>
      </trkpt>
      <trkpt lat="0" lon="0">
        <time>2021-02-28T08:52:51.669000+00:00</time>
      </trkpt>
      <trkpt lat="0" lon="0">
        <time>2021-02-28T08:52:51.671000+00:00</time>
      </trkpt>
      <trkpt lat="47.32322" lon="-1.41963">
        <ele>102</ele>
        <time>2021-02-28T08:52:52.635000+00:00</time>
      </trkpt>
      <trkpt lat="0" lon="0">
        <time>2021-02-28T08:52:52.644000+00:00</time>
      </trkpt>
      <trkpt lat="0" lon="0">
        <time>2021-02-28T08:52:52.650000+00:00</time>
      </trkpt>
      <trkpt lat="0" lon="0">
        <time>2021-02-28T08:52:52.653000+00:00</time>
      </trkpt>
      <trkpt lat="47.32323" lon="-1.41965">
        <ele>102</ele>
        <time>2021-02-28T08:52:53.627000+00:00</time>
      </trkpt>
      <trkpt lat="0" lon="0">
        <time>2021-02-28T08:52:53.637000+00:00</time>
      </trkpt>
      <trkpt lat="0" lon="0">
        <time>2021-02-28T08:52:53.642000+00:00</time>
      </trkpt>
      <trkpt lat="0" lon="0">
        <time>2021-02-28T08:52:53.645000+00:00</time>
      </trkpt>
      <trkpt lat="47.32324" lon="-1.41966">
        <ele>102</ele>
        <time>2021-02-28T08:52:54.670000+00:00</time>
      </trkpt>
      <trkpt lat="0" lon="0">
        <time>2021-02-28T08:52:54.675000+00:00</time>
      </trkpt>
      <trkpt lat="0" lon="0">
        <time>2021-02-28T08:52:54.679000+00:00</time>
      </trkpt>
      <trkpt lat="0" lon="0">
        <time>2021-02-28T08:52:54.682000+00:00</time>
      </trkpt>
      <trkpt lat="47.32325" lon="-1.41968">
        <ele>103</ele>
        <time>2021-02-28T08:52:55.632000+00:00</time>
      </trkpt>
      <trkpt lat="0" lon="0">
        <time>2021-02-28T08:52:55.641000+00:00</time>
      </trkpt>
      <trkpt lat="0" lon="0">
        <time>2021-02-28T08:52:55.646000+00:00</time>
      </trkpt>
      <trkpt lat="0" lon="0">
        <time>2021-02-28T08:52:55.649000+00:00</time>
      </trkpt>
      <trkpt lat="47.32326" lon="-1.41969">
        <ele>103</ele>
        <time>2021-02-28T08:52:56.631000+00:00</time>
      </trkpt>
      <trkpt lat="0" lon="0">
        <time>2021-02-28T08:52:56.646000+00:00</time>
      </trkpt>
      <trkpt lat="0" lon="0">
        <time>2021-02-28T08:52:56.651000+00:00</time>
      </trkpt>
      <trkpt lat="0" lon="0">
        <time>2021-02-28T08:52:56.653000+00:00</time>
      </trkpt>
      <trkpt lat="47.32327" lon="-1.4197">
        <ele>104</ele>
        <time>2021-02-28T08:52:57.633000+00:00</time>
      </trkpt>
      <trkpt lat="0" lon="0">
        <time>2021-02-28T08:52:57.645000+00:00</time>
      </trkpt>
      <trkpt lat="0" lon="0">
        <time>2021-02-28T08:52:57.649000+00:00</time>
      </trkpt>
      <trkpt lat="0" lon="0">
        <time>2021-02-28T08:52:57.655000+00:00</time>
      </trkpt>
      <trkpt lat="47.32328" lon="-1.41972">
        <ele>104</ele>
        <time>2021-02-28T08:52:58.615000+00:00</time>
      </trkpt>
      <trkpt lat="0" lon="0">
        <time>2021-02-28T08:52:58.619000+00:00</time>
      </trkpt>
      <trkpt lat="0" lon="0">
        <time>2021-02-28T08:52:58.621000+00:00</time>
      </trkpt>
      <trkpt lat="0" lon="0">
        <time>2021-02-28T08:52:58.622000+00:00</time>
      </trkpt>
      <trkpt lat="47.32329" lon="-1.41973">
        <ele>104</ele>
        <time>2021-02-28T08:52:59.601000+00:00</time>
      </trkpt>
      <trkpt lat="0" lon="0">
        <time>2021-02-28T08:52:59.605000+00:00</time>
      </trkpt>
      <trkpt lat="0" lon="0">
        <time>2021-02-28T08:52:59.610000+00:00</time>
      </trkpt>
      <trkpt lat="0" lon="0">
        <time>2021-02-28T08:52:59.613000+00:00</time>
      </trkpt>
      <trkpt lat="47.3233" lon="-1.41975">
        <ele>104</ele>
        <time>2021-02-28T08:53:00.524000+00:00</time>
      </trkpt>
      <trkpt lat="0" lon="0">
        <time>2021-02-28T08:53:00.532000+00:00</time>
      </trkpt>
      <trkpt lat="0" lon="0">
        <time>2021-02-28T08:53:00.535000+00:00</time>
      </trkpt>
      <trkpt lat="0" lon="0">
        <time>2021-02-28T08:53:00.537000+00:00</time>
      </trkpt>
      <trkpt lat="47.32331" lon="-1.41976">
        <ele>104</ele>
        <time>2021-02-28T08:53:01.657000+00:00</time>
      </trkpt>
      <trkpt lat="0" lon="0">
        <time>2021-02-28T08:53:01.662000+00:00</time>
      </trkpt>
      <trkpt lat="0" lon="0">
        <time>2021-02-28T08:53:01.667000+00:00</time>
      </trkpt>
      <trkpt lat="0" lon="0">
        <time>2021-02-28T08:53:01.670000+00:00</time>
      </trkpt>
      <trkpt lat="47.32331" lon="-1.41977">
        <ele>105</ele>
        <time>2021-02-28T08:53:02.657000+00:00</time>
      </trkpt>
      <trkpt lat="0" lon="0">
        <time>2021-02-28T08:53:02.667000+00:00</time>
      </trkpt>
      <trkpt lat="0" lon="0">
        <time>2021-02-28T08:53:02.673000+00:00</time>
      </trkpt>
      <trkpt lat="0" lon="0">
        <time>2021-02-28T08:53:02.675000+00:00</time>
      </trkpt>
      <trkpt lat="47.32332" lon="-1.41978">
        <ele>105</ele>
        <time>2021-02-28T08:53:03.667000+00:00</time>
      </trkpt>
      <trkpt lat="0" lon="0">
        <time>2021-02-28T08:53:03.675000+00:00</time>
      </trkpt>
      <trkpt lat="0" lon="0">
        <time>2021-02-28T08:53:03.682000+00:00</time>
      </trkpt>
      <trkpt lat="0" lon="0">
        <time>2021-02-28T08:53:03.685000+00:00</time>
      </trkpt>
      <trkpt lat="47.32333" lon="-1.4198">
        <ele>106</ele>
        <time>2021-02-28T08:53:04.656000+00:00</time>
      </trkpt>
      <trkpt lat="0" lon="0">
        <time>2021-02-28T08:53:04.664000+00:00</time>
      </trkpt>
      <trkpt lat="0" lon="0">
        <time>2021-02-28T08:53:04.670000+00:00</time>
      </trkpt>
      <trkpt lat="0" lon="0">
        <time>2021-02-28T08:53:04.673000+00:00</time>
      </trkpt>
      <trkpt lat="47.32334" lon="-1.41982">
        <ele>106</ele>
        <time>2021-02-28T08:53:05.599000+00:00</time>
      </trkpt>
      <trkpt lat="0" lon="0">
        <time>2021-02-28T08:53:05.605000+00:00</time>
      </trkpt>
      <trkpt lat="0" lon="0">
        <time>2021-02-28T08:53:05.611000+00:00</time>
      </trkpt>
      <trkpt lat="0" lon="0">
        <time>2021-02-28T08:53:05.613000+00:00</time>
      </trkpt>
      <trkpt lat="47.32334" lon="-1.41984">
        <ele>106</ele>
        <time>2021-02-28T08:53:06.627000+00:00</time>
      </trkpt>
      <trkpt lat="0" lon="0">
        <time>2021-02-28T08:53:06.644000+00:00</time>
      </trkpt>
      <trkpt lat="0" lon="0">
        <time>2021-02-28T08:53:06.650000+00:00</time>
      </trkpt>
      <trkpt lat="0" lon="0">
        <time>2021-02-28T08:53:06.653000+00:00</time>
      </trkpt>
      <trkpt lat="47.32335" lon="-1.41986">
        <ele>107</ele>
        <time>2021-02-28T08:53:07.625000+00:00</time>
      </trkpt>
      <trkpt lat="0" lon="0">
        <time>2021-02-28T08:53:07.630000+00:00</time>
      </trkpt>
      <trkpt lat="0" lon="0">
        <time>2021-02-28T08:53:07.635000+00:00</time>
      </trkpt>
      <trkpt lat="0" lon="0">
        <time>2021-02-28T08:53:07.637000+00:00</time>
      </trkpt>
      <trkpt lat="47.32336" lon="-1.41988">
        <ele>107</ele>
        <time>2021-02-28T08:53:08.641000+00:00</time>
      </trkpt>
      <trkpt lat="0" lon="0">
        <time>2021-02-28T08:53:08.649000+00:00</time>
      </trkpt>
      <trkpt lat="0" lon="0">
        <time>2021-02-28T08:53:08.653000+00:00</time>
      </trkpt>
      <trkpt lat="0" lon="0">
        <time>2021-02-28T08:53:08.656000+00:00</time>
      </trkpt>
      <trkpt lat="47.32337" lon="-1.41991">
        <ele>107</ele>
        <time>2021-02-28T08:53:09.639000+00:00</time>
      </trkpt>
      <trkpt lat="0" lon="0">
        <time>2021-02-28T08:53:09.644000+00:00</time>
      </trkpt>
      <trkpt lat="0" lon="0">
        <time>2021-02-28T08:53:09.651000+00:00</time>
      </trkpt>
      <trkpt lat="0" lon="0">
        <time>2021-02-28T08:53:09.654000+00:00</time>
      </trkpt>
      <trkpt lat="47.32337" lon="-1.41994">
        <ele>108</ele>
        <time>2021-02-28T08:53:10.643000+00:00</time>
      </trkpt>
      <trkpt lat="0" lon="0">
        <time>2021-02-28T08:53:10.651000+00:00</time>
      </trkpt>
      <trkpt lat="0" lon="0">
        <time>2021-02-28T08:53:10.657000+00:00</time>
      </trkpt>
      <trkpt lat="0" lon="0">
        <time>2021-02-28T08:53:10.660000+00:00</time>
      </trkpt>
      <trkpt lat="47.32338" lon="-1.41997">
        <ele>108</ele>
        <time>2021-02-28T08:53:11.610000+00:00</time>
      </trkpt>
      <trkpt lat="0" lon="0">
        <time>2021-02-28T08:53:11.614000+00:00</time>
      </trkpt>
      <trkpt lat="0" lon="0">
        <time>2021-02-28T08:53:11.619000+00:00</time>
      </trkpt>
      <trkpt lat="0" lon="0">
        <time>2021-02-28T08:53:11.621000+00:00</time>
      </trkpt>
      <trkpt lat="47.32338" lon="-1.42">
        <ele>109</ele>
        <time>2021-02-28T08:53:12.634000+00:00</time>
      </trkpt>
      <trkpt lat="0" lon="0">
        <time>2021-02-28T08:53:12.645000+00:00</time>
      </trkpt>
      <trkpt lat="0" lon="0">
        <time>2021-02-28T08:53:12.649000+00:00</time>
      </trkpt>
      <trkpt lat="0" lon="0">
        <time>2021-02-28T08:53:12.651000+00:00</time>
      </trkpt>
      <trkpt lat="47.32339" lon="-1.42003">
        <ele>109</ele>
        <time>2021-02-28T08:53:13.647000+00:00</time>
      </trkpt>
      <trkpt lat="0" lon="0">
        <time>2021-02-28T08:53:13.656000+00:00</time>
      </trkpt>
      <trkpt lat="0" lon="0">
        <time>2021-02-28T08:53:13.662000+00:00</time>
      </trkpt>
      <trkpt lat="0" lon="0">
        <time>2021-02-28T08:53:13.665000+00:00</time>
      </trkpt>
      <trkpt lat="47.32339" lon="-1.42006">
        <ele>109</ele>
        <time>2021-02-28T08:53:14.651000+00:00</time>
      </trkpt>
      <trkpt lat="0" lon="0">
        <time>2021-02-28T08:53:14.663000+00:00</time>
      </trkpt>
      <trkpt lat="0" lon="0">
        <time>2021-02-28T08:53:14.668000+00:00</time>
      </trkpt>
      <trkpt lat="0" lon="0">
        <time>2021-02-28T08:53:14.670000+00:00</time>
      </trkpt>
      <trkpt lat="47.3234" lon="-1.42009">
        <ele>110</ele>
        <time>2021-02-28T08:53:15.604000+00:00</time>
      </trkpt>
      <trkpt lat="0" lon="0">
        <time>2021-02-28T08:53:15.609000+00:00</time>
      </trkpt>
      <trkpt lat="0" lon="0">
        <time>2021-02-28T08:53:15.613000+00:00</time>
      </trkpt>
      <trkpt lat="0" lon="0">
        <time>2021-02-28T08:53:15.615000+00:00</time>
      </trkpt>
      <trkpt lat="47.3234" lon="-1.42012">
        <ele>110</ele>
        <time>2021-02-28T08:53:16.621000+00:00</time>
      </trkpt>
      <trkpt lat="0" lon="0">
        <time>2021-02-28T08:53:16.631000+00:00</time>
      </trkpt>
      <trkpt lat="0" lon="0">
        <time>2021-02-28T08:53:16.636000+00:00</time>
      </trkpt>
      <trkpt lat="0" lon="0">
        <time>2021-02-28T08:53:16.639000+00:00</time>
      </trkpt>
      <trkpt lat="47.3234" lon="-1.42015">
        <ele>110</ele>
        <time>2021-02-28T08:53:17.618000+00:00</time>
      </trkpt>
      <trkpt lat="0" lon="0">
        <time>2021-02-28T08:53:17.623000+00:00</time>
      </trkpt>
      <trkpt lat="0" lon="0">
        <time>2021-02-28T08:53:17.628000+00:00</time>
      </trkpt>
      <trkpt lat="0" lon="0">
        <time>2021-02-28T08:53:17.630000+00:00</time>
      </trkpt>
      <trkpt lat="47.3234" lon="-1.42018">
        <ele>110</ele>
        <time>2021-02-28T08:53:18.667000+00:00</time>
      </trkpt>
      <trkpt lat="0" lon="0">
        <time>2021-02-28T08:53:18.675000+00:00</time>
      </trkpt>
      <trkpt lat="0" lon="0">
        <time>2021-02-28T08:53:18.679000+00:00</time>
      </trkpt>
      <trkpt lat="0" lon="0">
        <time>2021-02-28T08:53:18.681000+00:00</time>
      </trkpt>
      <trkpt lat="47.32339" lon="-1.42022">
        <ele>109</ele>
        <time>2021-02-28T08:53:19.647000+00:00</time>
      </trkpt>
      <trkpt lat="0" lon="0">
        <time>2021-02-28T08:53:19.658000+00:00</time>
      </trkpt>
      <trkpt lat="0" lon="0">
        <time>2021-02-28T08:53:19.662000+00:00</time>
      </trkpt>
      <trkpt lat="0" lon="0">
        <time>2021-02-28T08:53:19.664000+00:00</time>
      </trkpt>
      <trkpt lat="47.32338" lon="-1.42025">
        <ele>109</ele>
        <time>2021-02-28T08:53:20.601000+00:00</time>
      </trkpt>
      <trkpt lat="0" lon="0">
        <time>2021-02-28T08:53:20.606000+00:00</time>
      </trkpt>
      <trkpt lat="0" lon="0">
        <time>2021-02-28T08:53:20.611000+00:00</time>
      </trkpt>
      <trkpt lat="0" lon="0">
        <time>2021-02-28T08:53:20.614000+00:00</time>
      </trkpt>
      <trkpt lat="47.32337" lon="-1.42029">
        <ele>110</ele>
        <time>2021-02-28T08:53:21.666000+00:00</time>
      </trkpt>
      <trkpt lat="0" lon="0">
        <time>2021-02-28T08:53:21.675000+00:00</time>
      </trkpt>
      <trkpt lat="0" lon="0">
        <time>2021-02-28T08:53:21.680000+00:00</time>
      </trkpt>
      <trkpt lat="0" lon="0">
        <time>2021-02-28T08:53:21.683000+00:00</time>
      </trkpt>
      <trkpt lat="47.32336" lon="-1.42032">
        <ele>110</ele>
        <time>2021-02-28T08:53:22.598000+00:00</time>
      </trkpt>
      <trkpt lat="0" lon="0">
        <time>2021-02-28T08:53:22.605000+00:00</time>
      </trkpt>
      <trkpt lat="0" lon="0">
        <time>2021-02-28T08:53:22.610000+00:00</time>
      </trkpt>
      <trkpt lat="0" lon="0">
        <time>2021-02-28T08:53:22.612000+00:00</time>
      </trkpt>
      <trkpt lat="47.32335" lon="-1.42036">
        <ele>110</ele>
        <time>2021-02-28T08:53:23.644000+00:00</time>
      </trkpt>
      <trkpt lat="0" lon="0">
        <time>2021-02-28T08:53:23.652000+00:00</time>
      </trkpt>
      <trkpt lat="0" lon="0">
        <time>2021-02-28T08:53:23.657000+00:00</time>
      </trkpt>
      <trkpt lat="0" lon="0">
        <time>2021-02-28T08:53:23.660000+00:00</time>
      </trkpt>
      <trkpt lat="47.32334" lon="-1.4204">
        <ele>110</ele>
        <time>2021-02-28T08:53:24.593000+00:00</time>
      </trkpt>
      <trkpt lat="0" lon="0">
        <time>2021-02-28T08:53:24.606000+00:00</time>
      </trkpt>
      <trkpt lat="0" lon="0">
        <time>2021-02-28T08:53:24.611000+00:00</time>
      </trkpt>
      <trkpt lat="0" lon="0">
        <time>2021-02-28T08:53:24.614000+00:00</time>
      </trkpt>
      <trkpt lat="47.32333" lon="-1.42044">
        <ele>110</ele>
        <time>2021-02-28T08:53:25.589000+00:00</time>
      </trkpt>
      <trkpt lat="0" lon="0">
        <time>2021-02-28T08:53:25.598000+00:00</time>
      </trkpt>
      <trkpt lat="0" lon="0">
        <time>2021-02-28T08:53:25.602000+00:00</time>
      </trkpt>
      <trkpt lat="0" lon="0">
        <time>2021-02-28T08:53:25.605000+00:00</time>
      </trkpt>
      <trkpt lat="47.32333" lon="-1.42048">
        <ele>109</ele>
        <time>2021-02-28T08:53:26.596000+00:00</time>
      </trkpt>
      <trkpt lat="0" lon="0">
        <time>2021-02-28T08:53:26.606000+00:00</time>
      </trkpt>
      <trkpt lat="0" lon="0">
        <time>2021-02-28T08:53:26.609000+00:00</time>
      </trkpt>
      <trkpt lat="0" lon="0">
        <time>2021-02-28T08:53:26.611000+00:00</time>
      </trkpt>
      <trkpt lat="47.32333" lon="-1.42052">
        <ele>109</ele>
        <time>2021-02-28T08:53:27.536000+00:00</time>
      </trkpt>
      <trkpt lat="0" lon="0">
        <time>2021-02-28T08:53:27.539000+00:00</time>
      </trkpt>
      <trkpt lat="0" lon="0">
        <time>2021-02-28T08:53:27.544000+00:00</time>
      </trkpt>
      <trkpt lat="0" lon="0">
        <time>2021-02-28T08:53:27.546000+00:00</time>
      </trkpt>
      <trkpt lat="47.32332" lon="-1.42057">
        <ele>109</ele>
        <time>2021-02-28T08:53:28.613000+00:00</time>
      </trkpt>
      <trkpt lat="0" lon="0">
        <time>2021-02-28T08:53:28.616000+00:00</time>
      </trkpt>
      <trkpt lat="0" lon="0">
        <time>2021-02-28T08:53:28.622000+00:00</time>
      </trkpt>
      <trkpt lat="0" lon="0">
        <time>2021-02-28T08:53:28.624000+00:00</time>
      </trkpt>
      <trkpt lat="47.32332" lon="-1.42062">
        <ele>110</ele>
        <time>2021-02-28T08:53:29.618000+00:00</time>
      </trkpt>
      <trkpt lat="0" lon="0">
        <time>2021-02-28T08:53:29.624000+00:00</time>
      </trkpt>
      <trkpt lat="0" lon="0">
        <time>2021-02-28T08:53:29.627000+00:00</time>
      </trkpt>
      <trkpt lat="0" lon="0">
        <time>2021-02-28T08:53:29.631000+00:00</time>
      </trkpt>
      <trkpt lat="47.32332" lon="-1.42066">
        <ele>110</ele>
        <time>2021-02-28T08:53:30.611000+00:00</time>
      </trkpt>
      <trkpt lat="0" lon="0">
        <time>2021-02-28T08:53:30.618000+00:00</time>
      </trkpt>
      <trkpt lat="0" lon="0">
        <time>2021-02-28T08:53:30.625000+00:00</time>
      </trkpt>
      <trkpt lat="0" lon="0">
        <time>2021-02-28T08:53:30.627000+00:00</time>
      </trkpt>
      <trkpt lat="47.32333" lon="-1.42071">
        <ele>110</ele>
        <time>2021-02-28T08:53:31.657000+00:00</time>
      </trkpt>
      <trkpt lat="0" lon="0">
        <time>2021-02-28T08:53:31.665000+00:00</time>
      </trkpt>
      <trkpt lat="0" lon="0">
        <time>2021-02-28T08:53:31.669000+00:00</time>
      </trkpt>
      <trkpt lat="0" lon="0">
        <time>2021-02-28T08:53:31.672000+00:00</time>
      </trkpt>
      <trkpt lat="47.32333" lon="-1.42076">
        <ele>110</ele>
        <time>2021-02-28T08:53:32.653000+00:00</time>
      </trkpt>
      <trkpt lat="0" lon="0">
        <time>2021-02-28T08:53:32.659000+00:00</time>
      </trkpt>
      <trkpt lat="0" lon="0">
        <time>2021-02-28T08:53:32.662000+00:00</time>
      </trkpt>
      <trkpt lat="0" lon="0">
        <time>2021-02-28T08:53:32.664000+00:00</time>
      </trkpt>
      <trkpt lat="47.32334" lon="-1.42081">
        <ele>110</ele>
        <time>2021-02-28T08:53:33.636000+00:00</time>
      </trkpt>
      <trkpt lat="0" lon="0">
        <time>2021-02-28T08:53:33.648000+00:00</time>
      </trkpt>
      <trkpt lat="0" lon="0">
        <time>2021-02-28T08:53:33.652000+00:00</time>
      </trkpt>
      <trkpt lat="0" lon="0">
        <time>2021-02-28T08:53:33.655000+00:00</time>
      </trkpt>
      <trkpt lat="47.32334" lon="-1.42086">
        <ele>111</ele>
        <time>2021-02-28T08:53:34.625000+00:00</time>
      </trkpt>
      <trkpt lat="0" lon="0">
        <time>2021-02-28T08:53:34.638000+00:00</time>
      </trkpt>
      <trkpt lat="0" lon="0">
        <time>2021-02-28T08:53:34.642000+00:00</time>
      </trkpt>
      <trkpt lat="0" lon="0">
        <time>2021-02-28T08:53:34.644000+00:00</time>
      </trkpt>
      <trkpt lat="47.32335" lon="-1.42091">
        <ele>111</ele>
        <time>2021-02-28T08:53:35.631000+00:00</time>
      </trkpt>
      <trkpt lat="0" lon="0">
        <time>2021-02-28T08:53:35.652000+00:00</time>
      </trkpt>
      <trkpt lat="0" lon="0">
        <time>2021-02-28T08:53:35.659000+00:00</time>
      </trkpt>
      <trkpt lat="0" lon="0">
        <time>2021-02-28T08:53:35.660000+00:00</time>
      </trkpt>
      <trkpt lat="47.32336" lon="-1.42096">
        <ele>111</ele>
        <time>2021-02-28T08:53:36.547000+00:00</time>
      </trkpt>
      <trkpt lat="0" lon="0">
        <time>2021-02-28T08:53:36.555000+00:00</time>
      </trkpt>
      <trkpt lat="0" lon="0">
        <time>2021-02-28T08:53:36.560000+00:00</time>
      </trkpt>
      <trkpt lat="0" lon="0">
        <time>2021-02-28T08:53:36.562000+00:00</time>
      </trkpt>
      <trkpt lat="47.32337" lon="-1.42102">
        <ele>112</ele>
        <time>2021-02-28T08:53:37.603000+00:00</time>
      </trkpt>
      <trkpt lat="0" lon="0">
        <time>2021-02-28T08:53:37.613000+00:00</time>
      </trkpt>
      <trkpt lat="0" lon="0">
        <time>2021-02-28T08:53:37.618000+00:00</time>
      </trkpt>
      <trkpt lat="0" lon="0">
        <time>2021-02-28T08:53:37.621000+00:00</time>
      </trkpt>
      <trkpt lat="47.32338" lon="-1.42107">
        <ele>112</ele>
        <time>2021-02-28T08:53:38.675000+00:00</time>
      </trkpt>
      <trkpt lat="0" lon="0">
        <time>2021-02-28T08:53:38.683000+00:00</time>
      </trkpt>
      <trkpt lat="0" lon="0">
        <time>2021-02-28T08:53:38.688000+00:00</time>
      </trkpt>
      <trkpt lat="0" lon="0">
        <time>2021-02-28T08:53:38.691000+00:00</time>
      </trkpt>
      <trkpt lat="47.3234" lon="-1.42112">
        <ele>112</ele>
        <time>2021-02-28T08:53:39.652000+00:00</time>
      </trkpt>
      <trkpt lat="0" lon="0">
        <time>2021-02-28T08:53:39.660000+00:00</time>
      </trkpt>
      <trkpt lat="0" lon="0">
        <time>2021-02-28T08:53:39.665000+00:00</time>
      </trkpt>
      <trkpt lat="0" lon="0">
        <time>2021-02-28T08:53:39.668000+00:00</time>
      </trkpt>
      <trkpt lat="47.32341" lon="-1.42117">
        <ele>112</ele>
        <time>2021-02-28T08:53:40.665000+00:00</time>
      </trkpt>
      <trkpt lat="0" lon="0">
        <time>2021-02-28T08:53:40.671000+00:00</time>
      </trkpt>
      <trkpt lat="0" lon="0">
        <time>2021-02-28T08:53:40.675000+00:00</time>
      </trkpt>
      <trkpt lat="0" lon="0">
        <time>2021-02-28T08:53:40.678000+00:00</time>
      </trkpt>
      <trkpt lat="47.32343" lon="-1.42122">
        <ele>112</ele>
        <time>2021-02-28T08:53:41.628000+00:00</time>
      </trkpt>
      <trkpt lat="0" lon="0">
        <time>2021-02-28T08:53:41.635000+00:00</time>
      </trkpt>
      <trkpt lat="0" lon="0">
        <time>2021-02-28T08:53:41.640000+00:00</time>
      </trkpt>
      <trkpt lat="0" lon="0">
        <time>2021-02-28T08:53:41.642000+00:00</time>
      </trkpt>
      <trkpt lat="47.32344" lon="-1.42127">
        <ele>112</ele>
        <time>2021-02-28T08:53:42.656000+00:00</time>
      </trkpt>
      <trkpt lat="0" lon="0">
        <time>2021-02-28T08:53:42.672000+00:00</time>
      </trkpt>
      <trkpt lat="0" lon="0">
        <time>2021-02-28T08:53:42.677000+00:00</time>
      </trkpt>
      <trkpt lat="0" lon="0">
        <time>2021-02-28T08:53:42.679000+00:00</time>
      </trkpt>
      <trkpt lat="47.32346" lon="-1.42132">
        <ele>112</ele>
        <time>2021-02-28T08:53:43.675000+00:00</time>
      </trkpt>
      <trkpt lat="0" lon="0">
        <time>2021-02-28T08:53:43.683000+00:00</time>
      </trkpt>
      <trkpt lat="0" lon="0">
        <time>2021-02-28T08:53:43.691000+00:00</time>
      </trkpt>
      <trkpt lat="0" lon="0">
        <time>2021-02-28T08:53:43.695000+00:00</time>
      </trkpt>
      <trkpt lat="47.32348" lon="-1.42137">
        <ele>112</ele>
        <time>2021-02-28T08:53:44.652000+00:00</time>
      </trkpt>
      <trkpt lat="0" lon="0">
        <time>2021-02-28T08:53:44.663000+00:00</time>
      </trkpt>
      <trkpt lat="0" lon="0">
        <time>2021-02-28T08:53:44.667000+00:00</time>
      </trkpt>
      <trkpt lat="0" lon="0">
        <time>2021-02-28T08:53:44.670000+00:00</time>
      </trkpt>
      <trkpt lat="47.3235" lon="-1.42143">
        <ele>111</ele>
        <time>2021-02-28T08:53:45.661000+00:00</time>
      </trkpt>
      <trkpt lat="0" lon="0">
        <time>2021-02-28T08:53:45.666000+00:00</time>
      </trkpt>
      <trkpt lat="0" lon="0">
        <time>2021-02-28T08:53:45.672000+00:00</time>
      </trkpt>
      <trkpt lat="0" lon="0">
        <time>2021-02-28T08:53:45.674000+00:00</time>
      </trkpt>
      <trkpt lat="47.32352" lon="-1.42149">
        <ele>112</ele>
        <time>2021-02-28T08:53:46.630000+00:00</time>
      </trkpt>
      <trkpt lat="0" lon="0">
        <time>2021-02-28T08:53:46.645000+00:00</time>
      </trkpt>
      <trkpt lat="0" lon="0">
        <time>2021-02-28T08:53:46.651000+00:00</time>
      </trkpt>
      <trkpt lat="0" lon="0">
        <time>2021-02-28T08:53:46.654000+00:00</time>
      </trkpt>
      <trkpt lat="47.32355" lon="-1.42155">
        <ele>112</ele>
        <time>2021-02-28T08:53:47.642000+00:00</time>
      </trkpt>
      <trkpt lat="0" lon="0">
        <time>2021-02-28T08:53:47.647000+00:00</time>
      </trkpt>
      <trkpt lat="0" lon="0">
        <time>2021-02-28T08:53:47.654000+00:00</time>
      </trkpt>
      <trkpt lat="0" lon="0">
        <time>2021-02-28T08:53:47.656000+00:00</time>
      </trkpt>
      <trkpt lat="47.32358" lon="-1.42161">
        <ele>112</ele>
        <time>2021-02-28T08:53:48.618000+00:00</time>
      </trkpt>
      <trkpt lat="0" lon="0">
        <time>2021-02-28T08:53:48.626000+00:00</time>
      </trkpt>
      <trkpt lat="0" lon="0">
        <time>2021-02-28T08:53:48.630000+00:00</time>
      </trkpt>
      <trkpt lat="0" lon="0">
        <time>2021-02-28T08:53:48.632000+00:00</time>
      </trkpt>
      <trkpt lat="47.3236" lon="-1.42167">
        <ele>112</ele>
        <time>2021-02-28T08:53:49.646000+00:00</time>
      </trkpt>
      <trkpt lat="0" lon="0">
        <time>2021-02-28T08:53:49.651000+00:00</time>
      </trkpt>
      <trkpt lat="0" lon="0">
        <time>2021-02-28T08:53:49.657000+00:00</time>
      </trkpt>
      <trkpt lat="0" lon="0">
        <time>2021-02-28T08:53:49.659000+00:00</time>
      </trkpt>
      <trkpt lat="47.32362" lon="-1.42174">
        <ele>112</ele>
        <time>2021-02-28T08:53:50.663000+00:00</time>
      </trkpt>
      <trkpt lat="0" lon="0">
        <time>2021-02-28T08:53:50.675000+00:00</time>
      </trkpt>
      <trkpt lat="0" lon="0">
        <time>2021-02-28T08:53:50.682000+00:00</time>
      </trkpt>
      <trkpt lat="0" lon="0">
        <time>2021-02-28T08:53:50.685000+00:00</time>
      </trkpt>
      <trkpt lat="47.32364" lon="-1.4218">
        <ele>112</ele>
        <time>2021-02-28T08:53:51.657000+00:00</time>
      </trkpt>
      <trkpt lat="0" lon="0">
        <time>2021-02-28T08:53:51.665000+00:00</time>
      </trkpt>
      <trkpt lat="0" lon="0">
        <time>2021-02-28T08:53:51.670000+00:00</time>
      </trkpt>
      <trkpt lat="0" lon="0">
        <time>2021-02-28T08:53:51.673000+00:00</time>
      </trkpt>
      <trkpt lat="47.32367" lon="-1.42186">
        <ele>111</ele>
        <time>2021-02-28T08:53:52.652000+00:00</time>
      </trkpt>
      <trkpt lat="0" lon="0">
        <time>2021-02-28T08:53:52.660000+00:00</time>
      </trkpt>
      <trkpt lat="0" lon="0">
        <time>2021-02-28T08:53:52.666000+00:00</time>
      </trkpt>
      <trkpt lat="0" lon="0">
        <time>2021-02-28T08:53:52.669000+00:00</time>
      </trkpt>
      <trkpt lat="47.32369" lon="-1.42192">
        <ele>111</ele>
        <time>2021-02-28T08:53:53.600000+00:00</time>
      </trkpt>
      <trkpt lat="0" lon="0">
        <time>2021-02-28T08:53:53.605000+00:00</time>
      </trkpt>
      <trkpt lat="0" lon="0">
        <time>2021-02-28T08:53:53.609000+00:00</time>
      </trkpt>
      <trkpt lat="0" lon="0">
        <time>2021-02-28T08:53:53.611000+00:00</time>
      </trkpt>
      <trkpt lat="47.32372" lon="-1.42199">
        <ele>111</ele>
        <time>2021-02-28T08:53:54.647000+00:00</time>
      </trkpt>
      <trkpt lat="0" lon="0">
        <time>2021-02-28T08:53:54.655000+00:00</time>
      </trkpt>
      <trkpt lat="0" lon="0">
        <time>2021-02-28T08:53:54.661000+00:00</time>
      </trkpt>
      <trkpt lat="0" lon="0">
        <time>2021-02-28T08:53:54.663000+00:00</time>
      </trkpt>
      <trkpt lat="47.32374" lon="-1.42204">
        <ele>111</ele>
        <time>2021-02-28T08:53:55.674000+00:00</time>
      </trkpt>
      <trkpt lat="0" lon="0">
        <time>2021-02-28T08:53:55.679000+00:00</time>
      </trkpt>
      <trkpt lat="0" lon="0">
        <time>2021-02-28T08:53:55.687000+00:00</time>
      </trkpt>
      <trkpt lat="0" lon="0">
        <time>2021-02-28T08:53:55.690000+00:00</time>
      </trkpt>
      <trkpt lat="47.32377" lon="-1.4221">
        <ele>110</ele>
        <time>2021-02-28T08:53:56.636000+00:00</time>
      </trkpt>
      <trkpt lat="0" lon="0">
        <time>2021-02-28T08:53:56.643000+00:00</time>
      </trkpt>
      <trkpt lat="0" lon="0">
        <time>2021-02-28T08:53:56.648000+00:00</time>
      </trkpt>
      <trkpt lat="0" lon="0">
        <time>2021-02-28T08:53:56.650000+00:00</time>
      </trkpt>
      <trkpt lat="47.32379" lon="-1.42216">
        <ele>111</ele>
        <time>2021-02-28T08:53:57.676000+00:00</time>
      </trkpt>
      <trkpt lat="0" lon="0">
        <time>2021-02-28T08:53:57.691000+00:00</time>
      </trkpt>
      <trkpt lat="0" lon="0">
        <time>2021-02-28T08:53:57.697000+00:00</time>
      </trkpt>
      <trkpt lat="0" lon="0">
        <time>2021-02-28T08:53:57.699000+00:00</time>
      </trkpt>
      <trkpt lat="47.32382" lon="-1.42222">
        <ele>110</ele>
        <time>2021-02-28T08:53:58.620000+00:00</time>
      </trkpt>
      <trkpt lat="0" lon="0">
        <time>2021-02-28T08:53:58.625000+00:00</time>
      </trkpt>
      <trkpt lat="0" lon="0">
        <time>2021-02-28T08:53:58.631000+00:00</time>
      </trkpt>
      <trkpt lat="0" lon="0">
        <time>2021-02-28T08:53:58.633000+00:00</time>
      </trkpt>
      <trkpt lat="47.32384" lon="-1.42228">
        <ele>110</ele>
        <time>2021-02-28T08:53:59.596000+00:00</time>
      </trkpt>
      <trkpt lat="0" lon="0">
        <time>2021-02-28T08:53:59.604000+00:00</time>
      </trkpt>
      <trkpt lat="0" lon="0">
        <time>2021-02-28T08:53:59.612000+00:00</time>
      </trkpt>
      <trkpt lat="0" lon="0">
        <time>2021-02-28T08:53:59.618000+00:00</time>
      </trkpt>
      <trkpt lat="47.32387" lon="-1.42234">
        <ele>110</ele>
        <time>2021-02-28T08:54:00.664000+00:00</time>
      </trkpt>
      <trkpt lat="0" lon="0">
        <time>2021-02-28T08:54:00.673000+00:00</time>
      </trkpt>
      <trkpt lat="0" lon="0">
        <time>2021-02-28T08:54:00.679000+00:00</time>
      </trkpt>
      <trkpt lat="0" lon="0">
        <time>2021-02-28T08:54:00.682000+00:00</time>
      </trkpt>
      <trkpt lat="47.32389" lon="-1.4224">
        <ele>110</ele>
        <time>2021-02-28T08:54:01.666000+00:00</time>
      </trkpt>
      <trkpt lat="0" lon="0">
        <time>2021-02-28T08:54:01.671000+00:00</time>
      </trkpt>
      <trkpt lat="0" lon="0">
        <time>2021-02-28T08:54:01.676000+00:00</time>
      </trkpt>
      <trkpt lat="0" lon="0">
        <time>2021-02-28T08:54:01.678000+00:00</time>
      </trkpt>
      <trkpt lat="47.32392" lon="-1.42246">
        <ele>110</ele>
        <time>2021-02-28T08:54:02.633000+00:00</time>
      </trkpt>
      <trkpt lat="0" lon="0">
        <time>2021-02-28T08:54:02.642000+00:00</time>
      </trkpt>
      <trkpt lat="0" lon="0">
        <time>2021-02-28T08:54:02.647000+00:00</time>
      </trkpt>
      <trkpt lat="0" lon="0">
        <time>2021-02-28T08:54:02.651000+00:00</time>
      </trkpt>
      <trkpt lat="47.32394" lon="-1.42253">
        <ele>109</ele>
        <time>2021-02-28T08:54:03.665000+00:00</time>
      </trkpt>
      <trkpt lat="0" lon="0">
        <time>2021-02-28T08:54:03.670000+00:00</time>
      </trkpt>
      <trkpt lat="0" lon="0">
        <time>2021-02-28T08:54:03.674000+00:00</time>
      </trkpt>
      <trkpt lat="0" lon="0">
        <time>2021-02-28T08:54:03.677000+00:00</time>
      </trkpt>
      <trkpt lat="47.32397" lon="-1.4226">
        <ele>108</ele>
        <time>2021-02-28T08:54:04.643000+00:00</time>
      </trkpt>
      <trkpt lat="0" lon="0">
        <time>2021-02-28T08:54:04.651000+00:00</time>
      </trkpt>
      <trkpt lat="0" lon="0">
        <time>2021-02-28T08:54:04.657000+00:00</time>
      </trkpt>
      <trkpt lat="0" lon="0">
        <time>2021-02-28T08:54:04.659000+00:00</time>
      </trkpt>
      <trkpt lat="47.324" lon="-1.42267">
        <ele>108</ele>
        <time>2021-02-28T08:54:05.615000+00:00</time>
      </trkpt>
      <trkpt lat="0" lon="0">
        <time>2021-02-28T08:54:05.621000+00:00</time>
      </trkpt>
      <trkpt lat="0" lon="0">
        <time>2021-02-28T08:54:05.627000+00:00</time>
      </trkpt>
      <trkpt lat="0" lon="0">
        <time>2021-02-28T08:54:05.632000+00:00</time>
      </trkpt>
      <trkpt lat="47.32403" lon="-1.42274">
        <ele>108</ele>
        <time>2021-02-28T08:54:06.671000+00:00</time>
      </trkpt>
      <trkpt lat="0" lon="0">
        <time>2021-02-28T08:54:06.678000+00:00</time>
      </trkpt>
      <trkpt lat="0" lon="0">
        <time>2021-02-28T08:54:06.684000+00:00</time>
      </trkpt>
      <trkpt lat="0" lon="0">
        <time>2021-02-28T08:54:06.687000+00:00</time>
      </trkpt>
      <trkpt lat="47.32406" lon="-1.42281">
        <ele>108</ele>
        <time>2021-02-28T08:54:07.639000+00:00</time>
      </trkpt>
      <trkpt lat="0" lon="0">
        <time>2021-02-28T08:54:07.649000+00:00</time>
      </trkpt>
      <trkpt lat="0" lon="0">
        <time>2021-02-28T08:54:07.654000+00:00</time>
      </trkpt>
      <trkpt lat="0" lon="0">
        <time>2021-02-28T08:54:07.657000+00:00</time>
      </trkpt>
      <trkpt lat="47.32408" lon="-1.42288">
        <ele>108</ele>
        <time>2021-02-28T08:54:08.653000+00:00</time>
      </trkpt>
      <trkpt lat="0" lon="0">
        <time>2021-02-28T08:54:08.662000+00:00</time>
      </trkpt>
      <trkpt lat="0" lon="0">
        <time>2021-02-28T08:54:08.667000+00:00</time>
      </trkpt>
      <trkpt lat="0" lon="0">
        <time>2021-02-28T08:54:08.673000+00:00</time>
      </trkpt>
      <trkpt lat="47.32411" lon="-1.42295">
        <ele>108</ele>
        <time>2021-02-28T08:54:09.614000+00:00</time>
      </trkpt>
      <trkpt lat="0" lon="0">
        <time>2021-02-28T08:54:09.623000+00:00</time>
      </trkpt>
      <trkpt lat="0" lon="0">
        <time>2021-02-28T08:54:09.629000+00:00</time>
      </trkpt>
      <trkpt lat="0" lon="0">
        <time>2021-02-28T08:54:09.632000+00:00</time>
      </trkpt>
      <trkpt lat="47.32414" lon="-1.42302">
        <ele>108</ele>
        <time>2021-02-28T08:54:10.657000+00:00</time>
      </trkpt>
      <trkpt lat="0" lon="0">
        <time>2021-02-28T08:54:10.663000+00:00</time>
      </trkpt>
      <trkpt lat="0" lon="0">
        <time>2021-02-28T08:54:10.667000+00:00</time>
      </trkpt>
      <trkpt lat="0" lon="0">
        <time>2021-02-28T08:54:10.670000+00:00</time>
      </trkpt>
      <trkpt lat="47.32417" lon="-1.42309">
        <ele>108</ele>
        <time>2021-02-28T08:54:11.618000+00:00</time>
      </trkpt>
      <trkpt lat="0" lon="0">
        <time>2021-02-28T08:54:11.628000+00:00</time>
      </trkpt>
      <trkpt lat="0" lon="0">
        <time>2021-02-28T08:54:11.632000+00:00</time>
      </trkpt>
      <trkpt lat="0" lon="0">
        <time>2021-02-28T08:54:11.634000+00:00</time>
      </trkpt>
      <trkpt lat="47.32419" lon="-1.42317">
        <ele>108</ele>
        <time>2021-02-28T08:54:12.664000+00:00</time>
      </trkpt>
      <trkpt lat="0" lon="0">
        <time>2021-02-28T08:54:12.672000+00:00</time>
      </trkpt>
      <trkpt lat="0" lon="0">
        <time>2021-02-28T08:54:12.677000+00:00</time>
      </trkpt>
      <trkpt lat="0" lon="0">
        <time>2021-02-28T08:54:12.680000+00:00</time>
      </trkpt>
      <trkpt lat="47.32422" lon="-1.42324">
        <ele>108</ele>
        <time>2021-02-28T08:54:13.638000+00:00</time>
      </trkpt>
      <trkpt lat="0" lon="0">
        <time>2021-02-28T08:54:13.643000+00:00</time>
      </trkpt>
      <trkpt lat="0" lon="0">
        <time>2021-02-28T08:54:13.648000+00:00</time>
      </trkpt>
      <trkpt lat="0" lon="0">
        <time>2021-02-28T08:54:13.650000+00:00</time>
      </trkpt>
      <trkpt lat="47.32425" lon="-1.4233">
        <ele>108</ele>
        <time>2021-02-28T08:54:14.605000+00:00</time>
      </trkpt>
      <trkpt lat="0" lon="0">
        <time>2021-02-28T08:54:14.616000+00:00</time>
      </trkpt>
      <trkpt lat="0" lon="0">
        <time>2021-02-28T08:54:14.625000+00:00</time>
      </trkpt>
      <trkpt lat="0" lon="0">
        <time>2021-02-28T08:54:14.628000+00:00</time>
      </trkpt>
      <trkpt lat="47.32427" lon="-1.42337">
        <ele>108</ele>
        <time>2021-02-28T08:54:15.618000+00:00</time>
      </trkpt>
      <trkpt lat="0" lon="0">
        <time>2021-02-28T08:54:15.623000+00:00</time>
      </trkpt>
      <trkpt lat="0" lon="0">
        <time>2021-02-28T08:54:15.629000+00:00</time>
      </trkpt>
      <trkpt lat="0" lon="0">
        <time>2021-02-28T08:54:15.632000+00:00</time>
      </trkpt>
      <trkpt lat="47.3243" lon="-1.42344">
        <ele>108</ele>
        <time>2021-02-28T08:54:16.621000+00:00</time>
      </trkpt>
      <trkpt lat="0" lon="0">
        <time>2021-02-28T08:54:16.630000+00:00</time>
      </trkpt>
      <trkpt lat="0" lon="0">
        <time>2021-02-28T08:54:16.636000+00:00</time>
      </trkpt>
      <trkpt lat="0" lon="0">
        <time>2021-02-28T08:54:16.639000+00:00</time>
      </trkpt>
      <trkpt lat="47.32432" lon="-1.4235">
        <ele>108</ele>
        <time>2021-02-28T08:54:17.673000+00:00</time>
      </trkpt>
      <trkpt lat="0" lon="0">
        <time>2021-02-28T08:54:17.679000+00:00</time>
      </trkpt>
      <trkpt lat="0" lon="0">
        <time>2021-02-28T08:54:17.684000+00:00</time>
      </trkpt>
      <trkpt lat="0" lon="0">
        <time>2021-02-28T08:54:17.687000+00:00</time>
      </trkpt>
      <trkpt lat="47.32434" lon="-1.42356">
        <ele>108</ele>
        <time>2021-02-28T08:54:18.643000+00:00</time>
      </trkpt>
      <trkpt lat="0" lon="0">
        <time>2021-02-28T08:54:18.651000+00:00</time>
      </trkpt>
      <trkpt lat="0" lon="0">
        <time>2021-02-28T08:54:18.658000+00:00</time>
      </trkpt>
      <trkpt lat="0" lon="0">
        <time>2021-02-28T08:54:18.661000+00:00</time>
      </trkpt>
      <trkpt lat="47.32435" lon="-1.42363">
        <ele>107</ele>
        <time>2021-02-28T08:54:19.640000+00:00</time>
      </trkpt>
      <trkpt lat="0" lon="0">
        <time>2021-02-28T08:54:19.648000+00:00</time>
      </trkpt>
      <trkpt lat="0" lon="0">
        <time>2021-02-28T08:54:19.653000+00:00</time>
      </trkpt>
      <trkpt lat="0" lon="0">
        <time>2021-02-28T08:54:19.656000+00:00</time>
      </trkpt>
      <trkpt lat="47.32437" lon="-1.42369">
        <ele>107</ele>
        <time>2021-02-28T08:54:20.650000+00:00</time>
      </trkpt>
      <trkpt lat="0" lon="0">
        <time>2021-02-28T08:54:20.656000+00:00</time>
      </trkpt>
      <trkpt lat="0" lon="0">
        <time>2021-02-28T08:54:20.662000+00:00</time>
      </trkpt>
      <trkpt lat="0" lon="0">
        <time>2021-02-28T08:54:20.664000+00:00</time>
      </trkpt>
      <trkpt lat="47.3244" lon="-1.42375">
        <ele>107</ele>
        <time>2021-02-28T08:54:21.644000+00:00</time>
      </trkpt>
      <trkpt lat="0" lon="0">
        <time>2021-02-28T08:54:21.653000+00:00</time>
      </trkpt>
      <trkpt lat="0" lon="0">
        <time>2021-02-28T08:54:21.662000+00:00</time>
      </trkpt>
      <trkpt lat="0" lon="0">
        <time>2021-02-28T08:54:21.665000+00:00</time>
      </trkpt>
      <trkpt lat="47.32442" lon="-1.42381">
        <ele>107</ele>
        <time>2021-02-28T08:54:22.629000+00:00</time>
      </trkpt>
      <trkpt lat="0" lon="0">
        <time>2021-02-28T08:54:22.638000+00:00</time>
      </trkpt>
      <trkpt lat="0" lon="0">
        <time>2021-02-28T08:54:22.643000+00:00</time>
      </trkpt>
      <trkpt lat="0" lon="0">
        <time>2021-02-28T08:54:22.646000+00:00</time>
      </trkpt>
      <trkpt lat="47.32444" lon="-1.42387">
        <ele>107</ele>
        <time>2021-02-28T08:54:23.665000+00:00</time>
      </trkpt>
      <trkpt lat="0" lon="0">
        <time>2021-02-28T08:54:23.673000+00:00</time>
      </trkpt>
      <trkpt lat="0" lon="0">
        <time>2021-02-28T08:54:23.678000+00:00</time>
      </trkpt>
      <trkpt lat="0" lon="0">
        <time>2021-02-28T08:54:23.682000+00:00</time>
      </trkpt>
      <trkpt lat="47.32447" lon="-1.42393">
        <ele>106</ele>
        <time>2021-02-28T08:54:24.614000+00:00</time>
      </trkpt>
      <trkpt lat="0" lon="0">
        <time>2021-02-28T08:54:24.629000+00:00</time>
      </trkpt>
      <trkpt lat="0" lon="0">
        <time>2021-02-28T08:54:24.633000+00:00</time>
      </trkpt>
      <trkpt lat="0" lon="0">
        <time>2021-02-28T08:54:24.635000+00:00</time>
      </trkpt>
      <trkpt lat="47.3245" lon="-1.424">
        <ele>106</ele>
        <time>2021-02-28T08:54:25.642000+00:00</time>
      </trkpt>
      <trkpt lat="0" lon="0">
        <time>2021-02-28T08:54:25.649000+00:00</time>
      </trkpt>
      <trkpt lat="0" lon="0">
        <time>2021-02-28T08:54:25.654000+00:00</time>
      </trkpt>
      <trkpt lat="0" lon="0">
        <time>2021-02-28T08:54:25.657000+00:00</time>
      </trkpt>
      <trkpt lat="47.32453" lon="-1.42406">
        <ele>106</ele>
        <time>2021-02-28T08:54:26.683000+00:00</time>
      </trkpt>
      <trkpt lat="0" lon="0">
        <time>2021-02-28T08:54:26.697000+00:00</time>
      </trkpt>
      <trkpt lat="0" lon="0">
        <time>2021-02-28T08:54:26.706000+00:00</time>
      </trkpt>
      <trkpt lat="0" lon="0">
        <time>2021-02-28T08:54:26.709000+00:00</time>
      </trkpt>
      <trkpt lat="47.32456" lon="-1.42413">
        <ele>106</ele>
        <time>2021-02-28T08:54:27.688000+00:00</time>
      </trkpt>
      <trkpt lat="0" lon="0">
        <time>2021-02-28T08:54:27.702000+00:00</time>
      </trkpt>
      <trkpt lat="0" lon="0">
        <time>2021-02-28T08:54:27.709000+00:00</time>
      </trkpt>
      <trkpt lat="0" lon="0">
        <time>2021-02-28T08:54:27.713000+00:00</time>
      </trkpt>
      <trkpt lat="47.32459" lon="-1.4242">
        <ele>105</ele>
        <time>2021-02-28T08:54:28.649000+00:00</time>
      </trkpt>
      <trkpt lat="0" lon="0">
        <time>2021-02-28T08:54:28.655000+00:00</time>
      </trkpt>
      <trkpt lat="0" lon="0">
        <time>2021-02-28T08:54:28.660000+00:00</time>
      </trkpt>
      <trkpt lat="0" lon="0">
        <time>2021-02-28T08:54:28.663000+00:00</time>
      </trkpt>
      <trkpt lat="47.32463" lon="-1.42427">
        <ele>105</ele>
        <time>2021-02-28T08:54:29.619000+00:00</time>
      </trkpt>
      <trkpt lat="0" lon="0">
        <time>2021-02-28T08:54:29.630000+00:00</time>
      </trkpt>
      <trkpt lat="0" lon="0">
        <time>2021-02-28T08:54:29.638000+00:00</time>
      </trkpt>
      <trkpt lat="0" lon="0">
        <time>2021-02-28T08:54:29.642000+00:00</time>
      </trkpt>
      <trkpt lat="47.32466" lon="-1.42434">
        <ele>104</ele>
        <time>2021-02-28T08:54:30.680000+00:00</time>
      </trkpt>
      <trkpt lat="0" lon="0">
        <time>2021-02-28T08:54:30.686000+00:00</time>
      </trkpt>
      <trkpt lat="0" lon="0">
        <time>2021-02-28T08:54:30.692000+00:00</time>
      </trkpt>
      <trkpt lat="0" lon="0">
        <time>2021-02-28T08:54:30.694000+00:00</time>
      </trkpt>
      <trkpt lat="47.32469" lon="-1.42443">
        <ele>104</ele>
        <time>2021-02-28T08:54:31.652000+00:00</time>
      </trkpt>
      <trkpt lat="0" lon="0">
        <time>2021-02-28T08:54:31.660000+00:00</time>
      </trkpt>
      <trkpt lat="0" lon="0">
        <time>2021-02-28T08:54:31.665000+00:00</time>
      </trkpt>
      <trkpt lat="0" lon="0">
        <time>2021-02-28T08:54:31.667000+00:00</time>
      </trkpt>
      <trkpt lat="47.32472" lon="-1.42451">
        <ele>104</ele>
        <time>2021-02-28T08:54:32.652000+00:00</time>
      </trkpt>
      <trkpt lat="0" lon="0">
        <time>2021-02-28T08:54:32.662000+00:00</time>
      </trkpt>
      <trkpt lat="0" lon="0">
        <time>2021-02-28T08:54:32.667000+00:00</time>
      </trkpt>
      <trkpt lat="0" lon="0">
        <time>2021-02-28T08:54:32.669000+00:00</time>
      </trkpt>
      <trkpt lat="47.32474" lon="-1.4246">
        <ele>103</ele>
        <time>2021-02-28T08:54:33.610000+00:00</time>
      </trkpt>
      <trkpt lat="0" lon="0">
        <time>2021-02-28T08:54:33.614000+00:00</time>
      </trkpt>
      <trkpt lat="0" lon="0">
        <time>2021-02-28T08:54:33.617000+00:00</time>
      </trkpt>
      <trkpt lat="47.32476" lon="-1.42469">
        <ele>103</ele>
        <time>2021-02-28T08:54:34.627000+00:00</time>
      </trkpt>
      <trkpt lat="0" lon="0">
        <time>2021-02-28T08:54:34.639000+00:00</time>
      </trkpt>
      <trkpt lat="0" lon="0">
        <time>2021-02-28T08:54:34.645000+00:00</time>
      </trkpt>
      <trkpt lat="0" lon="0">
        <time>2021-02-28T08:54:34.647000+00:00</time>
      </trkpt>
      <trkpt lat="47.32477" lon="-1.42478">
        <ele>102</ele>
        <time>2021-02-28T08:54:35.526000+00:00</time>
      </trkpt>
      <trkpt lat="0" lon="0">
        <time>2021-02-28T08:54:35.527000+00:00</time>
      </trkpt>
      <trkpt lat="0" lon="0">
        <time>2021-02-28T08:54:35.529000+00:00</time>
      </trkpt>
      <trkpt lat="0" lon="0">
        <time>2021-02-28T08:54:35.530000+00:00</time>
      </trkpt>
      <trkpt lat="47.32477" lon="-1.42487">
        <ele>102</ele>
        <time>2021-02-28T08:54:36.503000+00:00</time>
      </trkpt>
      <trkpt lat="0" lon="0">
        <time>2021-02-28T08:54:36.504000+00:00</time>
      </trkpt>
      <trkpt lat="0" lon="0">
        <time>2021-02-28T08:54:36.505000+00:00</time>
      </trkpt>
      <trkpt lat="0" lon="0">
        <time>2021-02-28T08:54:36.506000+00:00</time>
      </trkpt>
      <trkpt lat="47.32477" lon="-1.42495">
        <ele>102</ele>
        <time>2021-02-28T08:54:37.601000+00:00</time>
      </trkpt>
      <trkpt lat="0" lon="0">
        <time>2021-02-28T08:54:37.609000+00:00</time>
      </trkpt>
      <trkpt lat="0" lon="0">
        <time>2021-02-28T08:54:37.614000+00:00</time>
      </trkpt>
      <trkpt lat="0" lon="0">
        <time>2021-02-28T08:54:37.617000+00:00</time>
      </trkpt>
      <trkpt lat="47.32478" lon="-1.42502">
        <ele>102</ele>
        <time>2021-02-28T08:54:38.542000+00:00</time>
      </trkpt>
      <trkpt lat="0" lon="0">
        <time>2021-02-28T08:54:38.552000+00:00</time>
      </trkpt>
      <trkpt lat="0" lon="0">
        <time>2021-02-28T08:54:38.556000+00:00</time>
      </trkpt>
      <trkpt lat="0" lon="0">
        <time>2021-02-28T08:54:38.559000+00:00</time>
      </trkpt>
      <trkpt lat="47.32477" lon="-1.42507">
        <ele>102</ele>
        <time>2021-02-28T08:54:39.540000+00:00</time>
      </trkpt>
      <trkpt lat="0" lon="0">
        <time>2021-02-28T08:54:39.542000+00:00</time>
      </trkpt>
      <trkpt lat="0" lon="0">
        <time>2021-02-28T08:54:39.543000+00:00</time>
      </trkpt>
      <trkpt lat="0" lon="0">
        <time>2021-02-28T08:54:39.544000+00:00</time>
      </trkpt>
      <trkpt lat="47.32477" lon="-1.4251">
        <ele>101</ele>
        <time>2021-02-28T08:54:40.625000+00:00</time>
      </trkpt>
      <trkpt lat="0" lon="0">
        <time>2021-02-28T08:54:40.636000+00:00</time>
      </trkpt>
      <trkpt lat="0" lon="0">
        <time>2021-02-28T08:54:40.642000+00:00</time>
      </trkpt>
      <trkpt lat="0" lon="0">
        <time>2021-02-28T08:54:40.644000+00:00</time>
      </trkpt>
      <trkpt lat="47.32477" lon="-1.42513">
        <ele>101</ele>
        <time>2021-02-28T08:54:41.571000+00:00</time>
      </trkpt>
      <trkpt lat="0" lon="0">
        <time>2021-02-28T08:54:41.582000+00:00</time>
      </trkpt>
      <trkpt lat="0" lon="0">
        <time>2021-02-28T08:54:41.587000+00:00</time>
      </trkpt>
      <trkpt lat="0" lon="0">
        <time>2021-02-28T08:54:41.590000+00:00</time>
      </trkpt>
      <trkpt lat="47.32476" lon="-1.42515">
        <ele>101</ele>
        <time>2021-02-28T08:54:42.646000+00:00</time>
      </trkpt>
      <trkpt lat="0" lon="0">
        <time>2021-02-28T08:54:42.658000+00:00</time>
      </trkpt>
      <trkpt lat="0" lon="0">
        <time>2021-02-28T08:54:42.663000+00:00</time>
      </trkpt>
      <trkpt lat="0" lon="0">
        <time>2021-02-28T08:54:42.665000+00:00</time>
      </trkpt>
      <trkpt lat="47.32475" lon="-1.42516">
        <ele>101</ele>
        <time>2021-02-28T08:54:43.639000+00:00</time>
      </trkpt>
      <trkpt lat="0" lon="0">
        <time>2021-02-28T08:54:43.650000+00:00</time>
      </trkpt>
      <trkpt lat="0" lon="0">
        <time>2021-02-28T08:54:43.654000+00:00</time>
      </trkpt>
      <trkpt lat="0" lon="0">
        <time>2021-02-28T08:54:43.657000+00:00</time>
      </trkpt>
      <trkpt lat="47.32475" lon="-1.42516">
        <ele>101</ele>
        <time>2021-02-28T08:54:44.623000+00:00</time>
      </trkpt>
      <trkpt lat="0" lon="0">
        <time>2021-02-28T08:54:44.633000+00:00</time>
      </trkpt>
      <trkpt lat="0" lon="0">
        <time>2021-02-28T08:54:44.637000+00:00</time>
      </trkpt>
      <trkpt lat="0" lon="0">
        <time>2021-02-28T08:54:44.639000+00:00</time>
      </trkpt>
      <trkpt lat="47.32474" lon="-1.42516">
        <ele>101</ele>
        <time>2021-02-28T08:54:45.622000+00:00</time>
      </trkpt>
      <trkpt lat="0" lon="0">
        <time>2021-02-28T08:54:45.628000+00:00</time>
      </trkpt>
      <trkpt lat="0" lon="0">
        <time>2021-02-28T08:54:45.633000+00:00</time>
      </trkpt>
      <trkpt lat="0" lon="0">
        <time>2021-02-28T08:54:45.636000+00:00</time>
      </trkpt>
      <trkpt lat="47.32474" lon="-1.42516">
        <ele>101</ele>
        <time>2021-02-28T08:54:46.628000+00:00</time>
      </trkpt>
      <trkpt lat="0" lon="0">
        <time>2021-02-28T08:54:46.641000+00:00</time>
      </trkpt>
      <trkpt lat="0" lon="0">
        <time>2021-02-28T08:54:46.645000+00:00</time>
      </trkpt>
      <trkpt lat="0" lon="0">
        <time>2021-02-28T08:54:46.647000+00:00</time>
      </trkpt>
      <trkpt lat="47.32473" lon="-1.42515">
        <ele>101</ele>
        <time>2021-02-28T08:54:47.630000+00:00</time>
      </trkpt>
      <trkpt lat="0" lon="0">
        <time>2021-02-28T08:54:47.643000+00:00</time>
      </trkpt>
      <trkpt lat="0" lon="0">
        <time>2021-02-28T08:54:47.648000+00:00</time>
      </trkpt>
      <trkpt lat="0" lon="0">
        <time>2021-02-28T08:54:47.651000+00:00</time>
      </trkpt>
      <trkpt lat="47.32473" lon="-1.42514">
        <ele>100</ele>
        <time>2021-02-28T08:54:48.653000+00:00</time>
      </trkpt>
      <trkpt lat="0" lon="0">
        <time>2021-02-28T08:54:48.662000+00:00</time>
      </trkpt>
      <trkpt lat="0" lon="0">
        <time>2021-02-28T08:54:48.671000+00:00</time>
      </trkpt>
      <trkpt lat="0" lon="0">
        <time>2021-02-28T08:54:48.674000+00:00</time>
      </trkpt>
      <trkpt lat="47.32472" lon="-1.42513">
        <ele>100</ele>
        <time>2021-02-28T08:54:49.538000+00:00</time>
      </trkpt>
      <trkpt lat="0" lon="0">
        <time>2021-02-28T08:54:49.543000+00:00</time>
      </trkpt>
      <trkpt lat="0" lon="0">
        <time>2021-02-28T08:54:49.547000+00:00</time>
      </trkpt>
      <trkpt lat="0" lon="0">
        <time>2021-02-28T08:54:49.550000+00:00</time>
      </trkpt>
      <trkpt lat="47.32472" lon="-1.42512">
        <ele>100</ele>
        <time>2021-02-28T08:54:50.627000+00:00</time>
      </trkpt>
      <trkpt lat="0" lon="0">
        <time>2021-02-28T08:54:50.635000+00:00</time>
      </trkpt>
      <trkpt lat="0" lon="0">
        <time>2021-02-28T08:54:50.640000+00:00</time>
      </trkpt>
      <trkpt lat="0" lon="0">
        <time>2021-02-28T08:54:50.643000+00:00</time>
      </trkpt>
      <trkpt lat="47.32471" lon="-1.42511">
        <ele>100</ele>
        <time>2021-02-28T08:54:51.639000+00:00</time>
      </trkpt>
      <trkpt lat="0" lon="0">
        <time>2021-02-28T08:54:51.648000+00:00</time>
      </trkpt>
      <trkpt lat="0" lon="0">
        <time>2021-02-28T08:54:51.652000+00:00</time>
      </trkpt>
      <trkpt lat="0" lon="0">
        <time>2021-02-28T08:54:51.654000+00:00</time>
      </trkpt>
      <trkpt lat="47.32471" lon="-1.4251">
        <ele>100</ele>
        <time>2021-02-28T08:54:52.619000+00:00</time>
      </trkpt>
      <trkpt lat="0" lon="0">
        <time>2021-02-28T08:54:52.625000+00:00</time>
      </trkpt>
      <trkpt lat="0" lon="0">
        <time>2021-02-28T08:54:52.629000+00:00</time>
      </trkpt>
      <trkpt lat="0" lon="0">
        <time>2021-02-28T08:54:52.631000+00:00</time>
      </trkpt>
      <trkpt lat="47.32471" lon="-1.42509">
        <ele>100</ele>
        <time>2021-02-28T08:54:53.648000+00:00</time>
      </trkpt>
      <trkpt lat="0" lon="0">
        <time>2021-02-28T08:54:53.656000+00:00</time>
      </trkpt>
      <trkpt lat="0" lon="0">
        <time>2021-02-28T08:54:53.661000+00:00</time>
      </trkpt>
      <trkpt lat="0" lon="0">
        <time>2021-02-28T08:54:53.664000+00:00</time>
      </trkpt>
      <trkpt lat="47.3247" lon="-1.42508">
        <ele>100</ele>
        <time>2021-02-28T08:54:54.661000+00:00</time>
      </trkpt>
      <trkpt lat="0" lon="0">
        <time>2021-02-28T08:54:54.671000+00:00</time>
      </trkpt>
      <trkpt lat="0" lon="0">
        <time>2021-02-28T08:54:54.677000+00:00</time>
      </trkpt>
      <trkpt lat="0" lon="0">
        <time>2021-02-28T08:54:54.692000+00:00</time>
      </trkpt>
      <trkpt lat="47.32481" lon="-1.42522">
        <ele>97</ele>
        <time>2021-02-28T08:54:55.720000+00:00</time>
      </trkpt>
      <trkpt lat="0" lon="0">
        <time>2021-02-28T08:54:55.726000+00:00</time>
      </trkpt>
      <trkpt lat="0" lon="0">
        <time>2021-02-28T08:54:55.730000+00:00</time>
      </trkpt>
      <trkpt lat="0" lon="0">
        <time>2021-02-28T08:54:55.732000+00:00</time>
      </trkpt>
      <trkpt lat="47.32482" lon="-1.42524">
        <ele>97</ele>
        <time>2021-02-28T08:54:56.617000+00:00</time>
      </trkpt>
      <trkpt lat="0" lon="0">
        <time>2021-02-28T08:54:56.619000+00:00</time>
      </trkpt>
      <trkpt lat="0" lon="0">
        <time>2021-02-28T08:54:56.621000+00:00</time>
      </trkpt>
      <trkpt lat="47.32483" lon="-1.42526">
        <ele>97</ele>
        <time>2021-02-28T08:54:57.706000+00:00</time>
      </trkpt>
      <trkpt lat="0" lon="0">
        <time>2021-02-28T08:54:57.712000+00:00</time>
      </trkpt>
      <trkpt lat="0" lon="0">
        <time>2021-02-28T08:54:57.719000+00:00</time>
      </trkpt>
      <trkpt lat="0" lon="0">
        <time>2021-02-28T08:54:57.722000+00:00</time>
      </trkpt>
      <trkpt lat="47.32483" lon="-1.42528">
        <ele>97</ele>
        <time>2021-02-28T08:54:58.728000+00:00</time>
      </trkpt>
      <trkpt lat="0" lon="0">
        <time>2021-02-28T08:54:58.733000+00:00</time>
      </trkpt>
      <trkpt lat="0" lon="0">
        <time>2021-02-28T08:54:58.738000+00:00</time>
      </trkpt>
      <trkpt lat="0" lon="0">
        <time>2021-02-28T08:54:58.740000+00:00</time>
      </trkpt>
      <trkpt lat="47.32484" lon="-1.4253">
        <ele>98</ele>
        <time>2021-02-28T08:54:59.688000+00:00</time>
      </trkpt>
      <trkpt lat="0" lon="0">
        <time>2021-02-28T08:54:59.697000+00:00</time>
      </trkpt>
      <trkpt lat="0" lon="0">
        <time>2021-02-28T08:54:59.702000+00:00</time>
      </trkpt>
      <trkpt lat="0" lon="0">
        <time>2021-02-28T08:54:59.704000+00:00</time>
      </trkpt>
      <trkpt lat="47.32485" lon="-1.42531">
        <ele>98</ele>
        <time>2021-02-28T08:55:00.641000+00:00</time>
      </trkpt>
      <trkpt lat="0" lon="0">
        <time>2021-02-28T08:55:00.646000+00:00</time>
      </trkpt>
      <trkpt lat="0" lon="0">
        <time>2021-02-28T08:55:00.650000+00:00</time>
      </trkpt>
      <trkpt lat="0" lon="0">
        <time>2021-02-28T08:55:00.654000+00:00</time>
      </trkpt>
      <trkpt lat="47.32486" lon="-1.42532">
        <ele>98</ele>
        <time>2021-02-28T08:55:01.701000+00:00</time>
      </trkpt>
      <trkpt lat="0" lon="0">
        <time>2021-02-28T08:55:01.708000+00:00</time>
      </trkpt>
      <trkpt lat="0" lon="0">
        <time>2021-02-28T08:55:01.713000+00:00</time>
      </trkpt>
      <trkpt lat="0" lon="0">
        <time>2021-02-28T08:55:01.716000+00:00</time>
      </trkpt>
      <trkpt lat="47.32487" lon="-1.42533">
        <ele>98</ele>
        <time>2021-02-28T08:55:02.661000+00:00</time>
      </trkpt>
      <trkpt lat="0" lon="0">
        <time>2021-02-28T08:55:02.669000+00:00</time>
      </trkpt>
      <trkpt lat="0" lon="0">
        <time>2021-02-28T08:55:02.674000+00:00</time>
      </trkpt>
      <trkpt lat="0" lon="0">
        <time>2021-02-28T08:55:02.676000+00:00</time>
      </trkpt>
      <trkpt lat="47.32488" lon="-1.42534">
        <ele>99</ele>
        <time>2021-02-28T08:55:03.702000+00:00</time>
      </trkpt>
      <trkpt lat="0" lon="0">
        <time>2021-02-28T08:55:03.711000+00:00</time>
      </trkpt>
      <trkpt lat="0" lon="0">
        <time>2021-02-28T08:55:03.717000+00:00</time>
      </trkpt>
      <trkpt lat="0" lon="0">
        <time>2021-02-28T08:55:03.720000+00:00</time>
      </trkpt>
      <trkpt lat="47.32489" lon="-1.42535">
        <ele>99</ele>
        <time>2021-02-28T08:55:04.733000+00:00</time>
      </trkpt>
      <trkpt lat="0" lon="0">
        <time>2021-02-28T08:55:04.742000+00:00</time>
      </trkpt>
      <trkpt lat="0" lon="0">
        <time>2021-02-28T08:55:04.748000+00:00</time>
      </trkpt>
      <trkpt lat="0" lon="0">
        <time>2021-02-28T08:55:04.750000+00:00</time>
      </trkpt>
      <trkpt lat="47.32491" lon="-1.42536">
        <ele>99</ele>
        <time>2021-02-28T08:55:05.695000+00:00</time>
      </trkpt>
      <trkpt lat="0" lon="0">
        <time>2021-02-28T08:55:05.708000+00:00</time>
      </trkpt>
      <trkpt lat="0" lon="0">
        <time>2021-02-28T08:55:05.713000+00:00</time>
      </trkpt>
      <trkpt lat="0" lon="0">
        <time>2021-02-28T08:55:05.716000+00:00</time>
      </trkpt>
      <trkpt lat="47.32492" lon="-1.42537">
        <ele>99</ele>
        <time>2021-02-28T08:55:06.717000+00:00</time>
      </trkpt>
      <trkpt lat="0" lon="0">
        <time>2021-02-28T08:55:06.738000+00:00</time>
      </trkpt>
      <trkpt lat="0" lon="0">
        <time>2021-02-28T08:55:06.743000+00:00</time>
      </trkpt>
      <trkpt lat="0" lon="0">
        <time>2021-02-28T08:55:06.746000+00:00</time>
      </trkpt>
      <trkpt lat="47.32493" lon="-1.42537">
        <ele>99</ele>
        <time>2021-02-28T08:55:07.651000+00:00</time>
      </trkpt>
      <trkpt lat="0" lon="0">
        <time>2021-02-28T08:55:07.663000+00:00</time>
      </trkpt>
      <trkpt lat="0" lon="0">
        <time>2021-02-28T08:55:07.667000+00:00</time>
      </trkpt>
      <trkpt lat="0" lon="0">
        <time>2021-02-28T08:55:07.669000+00:00</time>
      </trkpt>
      <trkpt lat="47.32494" lon="-1.42537">
        <ele>99</ele>
        <time>2021-02-28T08:55:08.674000+00:00</time>
      </trkpt>
      <trkpt lat="0" lon="0">
        <time>2021-02-28T08:55:08.683000+00:00</time>
      </trkpt>
      <trkpt lat="0" lon="0">
        <time>2021-02-28T08:55:08.688000+00:00</time>
      </trkpt>
      <trkpt lat="0" lon="0">
        <time>2021-02-28T08:55:08.691000+00:00</time>
      </trkpt>
      <trkpt lat="47.32495" lon="-1.42537">
        <ele>100</ele>
        <time>2021-02-28T08:55:09.669000+00:00</time>
      </trkpt>
      <trkpt lat="0" lon="0">
        <time>2021-02-28T08:55:09.692000+00:00</time>
      </trkpt>
      <trkpt lat="0" lon="0">
        <time>2021-02-28T08:55:09.694000+00:00</time>
      </trkpt>
      <trkpt lat="0" lon="0">
        <time>2021-02-28T08:55:09.695000+00:00</time>
      </trkpt>
      <trkpt lat="47.32496" lon="-1.42537">
        <ele>100</ele>
        <time>2021-02-28T08:55:10.662000+00:00</time>
      </trkpt>
      <trkpt lat="0" lon="0">
        <time>2021-02-28T08:55:10.669000+00:00</time>
      </trkpt>
      <trkpt lat="0" lon="0">
        <time>2021-02-28T08:55:10.675000+00:00</time>
      </trkpt>
      <trkpt lat="0" lon="0">
        <time>2021-02-28T08:55:10.680000+00:00</time>
      </trkpt>
      <trkpt lat="47.32497" lon="-1.42536">
        <ele>100</ele>
        <time>2021-02-28T08:55:11.708000+00:00</time>
      </trkpt>
      <trkpt lat="0" lon="0">
        <time>2021-02-28T08:55:11.710000+00:00</time>
      </trkpt>
      <trkpt lat="0" lon="0">
        <time>2021-02-28T08:55:11.712000+00:00</time>
      </trkpt>
      <trkpt lat="0" lon="0">
        <time>2021-02-28T08:55:11.713000+00:00</time>
      </trkpt>
      <trkpt lat="47.32499" lon="-1.42536">
        <ele>101</ele>
        <time>2021-02-28T08:55:12.699000+00:00</time>
      </trkpt>
      <trkpt lat="0" lon="0">
        <time>2021-02-28T08:55:12.710000+00:00</time>
      </trkpt>
      <trkpt lat="0" lon="0">
        <time>2021-02-28T08:55:12.714000+00:00</time>
      </trkpt>
      <trkpt lat="0" lon="0">
        <time>2021-02-28T08:55:12.717000+00:00</time>
      </trkpt>
      <trkpt lat="47.325" lon="-1.42536">
        <ele>101</ele>
        <time>2021-02-28T08:55:13.709000+00:00</time>
      </trkpt>
      <trkpt lat="0" lon="0">
        <time>2021-02-28T08:55:13.717000+00:00</time>
      </trkpt>
      <trkpt lat="0" lon="0">
        <time>2021-02-28T08:55:13.724000+00:00</time>
      </trkpt>
      <trkpt lat="0" lon="0">
        <time>2021-02-28T08:55:13.726000+00:00</time>
      </trkpt>
      <trkpt lat="47.32501" lon="-1.42535">
        <ele>102</ele>
        <time>2021-02-28T08:55:14.705000+00:00</time>
      </trkpt>
      <trkpt lat="0" lon="0">
        <time>2021-02-28T08:55:14.717000+00:00</time>
      </trkpt>
      <trkpt lat="0" lon="0">
        <time>2021-02-28T08:55:14.722000+00:00</time>
      </trkpt>
      <trkpt lat="0" lon="0">
        <time>2021-02-28T08:55:14.725000+00:00</time>
      </trkpt>
      <trkpt lat="47.32502" lon="-1.42535">
        <ele>102</ele>
        <time>2021-02-28T08:55:15.695000+00:00</time>
      </trkpt>
      <trkpt lat="0" lon="0">
        <time>2021-02-28T08:55:15.700000+00:00</time>
      </trkpt>
      <trkpt lat="0" lon="0">
        <time>2021-02-28T08:55:15.705000+00:00</time>
      </trkpt>
      <trkpt lat="0" lon="0">
        <time>2021-02-28T08:55:15.708000+00:00</time>
      </trkpt>
      <trkpt lat="47.32504" lon="-1.42535">
        <ele>102</ele>
        <time>2021-02-28T08:55:16.706000+00:00</time>
      </trkpt>
      <trkpt lat="0" lon="0">
        <time>2021-02-28T08:55:16.718000+00:00</time>
      </trkpt>
      <trkpt lat="0" lon="0">
        <time>2021-02-28T08:55:16.722000+00:00</time>
      </trkpt>
      <trkpt lat="0" lon="0">
        <time>2021-02-28T08:55:16.724000+00:00</time>
      </trkpt>
      <trkpt lat="47.32505" lon="-1.42535">
        <ele>102</ele>
        <time>2021-02-28T08:55:17.668000+00:00</time>
      </trkpt>
      <trkpt lat="0" lon="0">
        <time>2021-02-28T08:55:17.674000+00:00</time>
      </trkpt>
      <trkpt lat="0" lon="0">
        <time>2021-02-28T08:55:17.682000+00:00</time>
      </trkpt>
      <trkpt lat="0" lon="0">
        <time>2021-02-28T08:55:17.685000+00:00</time>
      </trkpt>
      <trkpt lat="47.32507" lon="-1.42536">
        <ele>103</ele>
        <time>2021-02-28T08:55:18.713000+00:00</time>
      </trkpt>
      <trkpt lat="0" lon="0">
        <time>2021-02-28T08:55:18.717000+00:00</time>
      </trkpt>
      <trkpt lat="0" lon="0">
        <time>2021-02-28T08:55:18.720000+00:00</time>
      </trkpt>
      <trkpt lat="0" lon="0">
        <time>2021-02-28T08:55:18.721000+00:00</time>
      </trkpt>
      <trkpt lat="47.32508" lon="-1.42536">
        <ele>103</ele>
        <time>2021-02-28T08:55:19.705000+00:00</time>
      </trkpt>
      <trkpt lat="0" lon="0">
        <time>2021-02-28T08:55:19.716000+00:00</time>
      </trkpt>
      <trkpt lat="0" lon="0">
        <time>2021-02-28T08:55:19.721000+00:00</time>
      </trkpt>
      <trkpt lat="0" lon="0">
        <time>2021-02-28T08:55:19.723000+00:00</time>
      </trkpt>
      <trkpt lat="47.3251" lon="-1.42536">
        <ele>103</ele>
        <time>2021-02-28T08:55:20.653000+00:00</time>
      </trkpt>
      <trkpt lat="0" lon="0">
        <time>2021-02-28T08:55:20.666000+00:00</time>
      </trkpt>
      <trkpt lat="0" lon="0">
        <time>2021-02-28T08:55:20.670000+00:00</time>
      </trkpt>
      <trkpt lat="0" lon="0">
        <time>2021-02-28T08:55:20.672000+00:00</time>
      </trkpt>
      <trkpt lat="47.3251" lon="-1.42536">
        <ele>103</ele>
        <time>2021-02-28T08:55:21.718000+00:00</time>
      </trkpt>
      <trkpt lat="0" lon="0">
        <time>2021-02-28T08:55:21.727000+00:00</time>
      </trkpt>
      <trkpt lat="0" lon="0">
        <time>2021-02-28T08:55:21.733000+00:00</time>
      </trkpt>
      <trkpt lat="0" lon="0">
        <time>2021-02-28T08:55:21.736000+00:00</time>
      </trkpt>
      <trkpt lat="47.32511" lon="-1.42537">
        <ele>103</ele>
        <time>2021-02-28T08:55:22.699000+00:00</time>
      </trkpt>
      <trkpt lat="0" lon="0">
        <time>2021-02-28T08:55:22.706000+00:00</time>
      </trkpt>
      <trkpt lat="0" lon="0">
        <time>2021-02-28T08:55:22.708000+00:00</time>
      </trkpt>
      <trkpt lat="0" lon="0">
        <time>2021-02-28T08:55:22.710000+00:00</time>
      </trkpt>
      <trkpt lat="47.32512" lon="-1.42537">
        <ele>103</ele>
        <time>2021-02-28T08:55:23.698000+00:00</time>
      </trkpt>
      <trkpt lat="0" lon="0">
        <time>2021-02-28T08:55:23.713000+00:00</time>
      </trkpt>
      <trkpt lat="0" lon="0">
        <time>2021-02-28T08:55:23.722000+00:00</time>
      </trkpt>
      <trkpt lat="0" lon="0">
        <time>2021-02-28T08:55:23.725000+00:00</time>
      </trkpt>
      <trkpt lat="47.32512" lon="-1.42537">
        <ele>103</ele>
        <time>2021-02-28T08:55:24.691000+00:00</time>
      </trkpt>
      <trkpt lat="0" lon="0">
        <time>2021-02-28T08:55:24.702000+00:00</time>
      </trkpt>
      <trkpt lat="0" lon="0">
        <time>2021-02-28T08:55:24.709000+00:00</time>
      </trkpt>
      <trkpt lat="0" lon="0">
        <time>2021-02-28T08:55:24.712000+00:00</time>
      </trkpt>
      <trkpt lat="47.32513" lon="-1.42538">
        <ele>103</ele>
        <time>2021-02-28T08:55:25.728000+00:00</time>
      </trkpt>
      <trkpt lat="0" lon="0">
        <time>2021-02-28T08:55:25.735000+00:00</time>
      </trkpt>
      <trkpt lat="0" lon="0">
        <time>2021-02-28T08:55:25.742000+00:00</time>
      </trkpt>
      <trkpt lat="0" lon="0">
        <time>2021-02-28T08:55:25.744000+00:00</time>
      </trkpt>
      <trkpt lat="47.32514" lon="-1.42539">
        <ele>104</ele>
        <time>2021-02-28T08:55:26.722000+00:00</time>
      </trkpt>
      <trkpt lat="0" lon="0">
        <time>2021-02-28T08:55:26.728000+00:00</time>
      </trkpt>
      <trkpt lat="0" lon="0">
        <time>2021-02-28T08:55:26.734000+00:00</time>
      </trkpt>
      <trkpt lat="0" lon="0">
        <time>2021-02-28T08:55:26.737000+00:00</time>
      </trkpt>
      <trkpt lat="47.32514" lon="-1.4254">
        <ele>104</ele>
        <time>2021-02-28T08:55:27.739000+00:00</time>
      </trkpt>
      <trkpt lat="0" lon="0">
        <time>2021-02-28T08:55:27.749000+00:00</time>
      </trkpt>
      <trkpt lat="0" lon="0">
        <time>2021-02-28T08:55:27.755000+00:00</time>
      </trkpt>
      <trkpt lat="0" lon="0">
        <time>2021-02-28T08:55:27.758000+00:00</time>
      </trkpt>
      <trkpt lat="47.32515" lon="-1.42541">
        <ele>104</ele>
        <time>2021-02-28T08:55:28.678000+00:00</time>
      </trkpt>
      <trkpt lat="0" lon="0">
        <time>2021-02-28T08:55:28.684000+00:00</time>
      </trkpt>
      <trkpt lat="0" lon="0">
        <time>2021-02-28T08:55:28.689000+00:00</time>
      </trkpt>
      <trkpt lat="0" lon="0">
        <time>2021-02-28T08:55:28.692000+00:00</time>
      </trkpt>
      <trkpt lat="47.32515" lon="-1.42541">
        <ele>104</ele>
        <time>2021-02-28T08:55:29.686000+00:00</time>
      </trkpt>
      <trkpt lat="0" lon="0">
        <time>2021-02-28T08:55:29.693000+00:00</time>
      </trkpt>
      <trkpt lat="0" lon="0">
        <time>2021-02-28T08:55:29.697000+00:00</time>
      </trkpt>
      <trkpt lat="0" lon="0">
        <time>2021-02-28T08:55:29.700000+00:00</time>
      </trkpt>
      <trkpt lat="47.32515" lon="-1.42542">
        <ele>104</ele>
        <time>2021-02-28T08:55:30.752000+00:00</time>
      </trkpt>
      <trkpt lat="0" lon="0">
        <time>2021-02-28T08:55:30.759000+00:00</time>
      </trkpt>
      <trkpt lat="0" lon="0">
        <time>2021-02-28T08:55:30.763000+00:00</time>
      </trkpt>
      <trkpt lat="0" lon="0">
        <time>2021-02-28T08:55:30.766000+00:00</time>
      </trkpt>
      <trkpt lat="47.32516" lon="-1.42542">
        <ele>104</ele>
        <time>2021-02-28T08:55:31.708000+00:00</time>
      </trkpt>
      <trkpt lat="0" lon="0">
        <time>2021-02-28T08:55:31.714000+00:00</time>
      </trkpt>
      <trkpt lat="0" lon="0">
        <time>2021-02-28T08:55:31.718000+00:00</time>
      </trkpt>
      <trkpt lat="0" lon="0">
        <time>2021-02-28T08:55:31.733000+00:00</time>
      </trkpt>
      <trkpt lat="47.32525" lon="-1.42557">
        <ele>110</ele>
        <time>2021-02-28T08:55:32.776000+00:00</time>
      </trkpt>
      <trkpt lat="0" lon="0">
        <time>2021-02-28T08:55:32.778000+00:00</time>
      </trkpt>
      <trkpt lat="0" lon="0">
        <time>2021-02-28T08:55:32.779000+00:00</time>
      </trkpt>
      <trkpt lat="0" lon="0">
        <time>2021-02-28T08:55:32.781000+00:00</time>
      </trkpt>
      <trkpt lat="47.32526" lon="-1.42557">
        <ele>111</ele>
        <time>2021-02-28T08:55:33.690000+00:00</time>
      </trkpt>
      <trkpt lat="0" lon="0">
        <time>2021-02-28T08:55:33.697000+00:00</time>
      </trkpt>
      <trkpt lat="0" lon="0">
        <time>2021-02-28T08:55:33.699000+00:00</time>
      </trkpt>
      <trkpt lat="0" lon="0">
        <time>2021-02-28T08:55:33.701000+00:00</time>
      </trkpt>
      <trkpt lat="47.32527" lon="-1.42558">
        <ele>111</ele>
        <time>2021-02-28T08:55:34.724000+00:00</time>
      </trkpt>
      <trkpt lat="0" lon="0">
        <time>2021-02-28T08:55:34.740000+00:00</time>
      </trkpt>
      <trkpt lat="0" lon="0">
        <time>2021-02-28T08:55:34.744000+00:00</time>
      </trkpt>
      <trkpt lat="0" lon="0">
        <time>2021-02-28T08:55:34.747000+00:00</time>
      </trkpt>
      <trkpt lat="47.32528" lon="-1.42558">
        <ele>111</ele>
        <time>2021-02-28T08:55:35.749000+00:00</time>
      </trkpt>
      <trkpt lat="0" lon="0">
        <time>2021-02-28T08:55:35.754000+00:00</time>
      </trkpt>
      <trkpt lat="0" lon="0">
        <time>2021-02-28T08:55:35.759000+00:00</time>
      </trkpt>
      <trkpt lat="0" lon="0">
        <time>2021-02-28T08:55:35.763000+00:00</time>
      </trkpt>
      <trkpt lat="47.3253" lon="-1.42559">
        <ele>113</ele>
        <time>2021-02-28T08:55:36.747000+00:00</time>
      </trkpt>
      <trkpt lat="0" lon="0">
        <time>2021-02-28T08:55:36.752000+00:00</time>
      </trkpt>
      <trkpt lat="0" lon="0">
        <time>2021-02-28T08:55:36.758000+00:00</time>
      </trkpt>
      <trkpt lat="0" lon="0">
        <time>2021-02-28T08:55:36.763000+00:00</time>
      </trkpt>
      <trkpt lat="47.32532" lon="-1.4256">
        <ele>113</ele>
        <time>2021-02-28T08:55:37.717000+00:00</time>
      </trkpt>
      <trkpt lat="0" lon="0">
        <time>2021-02-28T08:55:37.723000+00:00</time>
      </trkpt>
      <trkpt lat="0" lon="0">
        <time>2021-02-28T08:55:37.727000+00:00</time>
      </trkpt>
      <trkpt lat="0" lon="0">
        <time>2021-02-28T08:55:37.729000+00:00</time>
      </trkpt>
      <trkpt lat="47.32533" lon="-1.4256">
        <ele>114</ele>
        <time>2021-02-28T08:55:38.767000+00:00</time>
      </trkpt>
      <trkpt lat="0" lon="0">
        <time>2021-02-28T08:55:38.776000+00:00</time>
      </trkpt>
      <trkpt lat="0" lon="0">
        <time>2021-02-28T08:55:38.780000+00:00</time>
      </trkpt>
      <trkpt lat="0" lon="0">
        <time>2021-02-28T08:55:38.783000+00:00</time>
      </trkpt>
      <trkpt lat="47.32535" lon="-1.4256">
        <ele>115</ele>
        <time>2021-02-28T08:55:39.763000+00:00</time>
      </trkpt>
      <trkpt lat="0" lon="0">
        <time>2021-02-28T08:55:39.771000+00:00</time>
      </trkpt>
      <trkpt lat="0" lon="0">
        <time>2021-02-28T08:55:39.776000+00:00</time>
      </trkpt>
      <trkpt lat="0" lon="0">
        <time>2021-02-28T08:55:39.778000+00:00</time>
      </trkpt>
      <trkpt lat="47.32538" lon="-1.4256">
        <ele>115</ele>
        <time>2021-02-28T08:55:40.743000+00:00</time>
      </trkpt>
      <trkpt lat="0" lon="0">
        <time>2021-02-28T08:55:40.750000+00:00</time>
      </trkpt>
      <trkpt lat="0" lon="0">
        <time>2021-02-28T08:55:40.755000+00:00</time>
      </trkpt>
      <trkpt lat="0" lon="0">
        <time>2021-02-28T08:55:40.758000+00:00</time>
      </trkpt>
      <trkpt lat="47.3254" lon="-1.4256">
        <ele>115</ele>
        <time>2021-02-28T08:55:41.744000+00:00</time>
      </trkpt>
      <trkpt lat="0" lon="0">
        <time>2021-02-28T08:55:41.751000+00:00</time>
      </trkpt>
      <trkpt lat="0" lon="0">
        <time>2021-02-28T08:55:41.756000+00:00</time>
      </trkpt>
      <trkpt lat="0" lon="0">
        <time>2021-02-28T08:55:41.758000+00:00</time>
      </trkpt>
      <trkpt lat="47.32542" lon="-1.4256">
        <ele>116</ele>
        <time>2021-02-28T08:55:42.693000+00:00</time>
      </trkpt>
      <trkpt lat="0" lon="0">
        <time>2021-02-28T08:55:42.697000+00:00</time>
      </trkpt>
      <trkpt lat="0" lon="0">
        <time>2021-02-28T08:55:42.701000+00:00</time>
      </trkpt>
      <trkpt lat="0" lon="0">
        <time>2021-02-28T08:55:42.703000+00:00</time>
      </trkpt>
      <trkpt lat="47.32544" lon="-1.4256">
        <ele>117</ele>
        <time>2021-02-28T08:55:43.742000+00:00</time>
      </trkpt>
      <trkpt lat="0" lon="0">
        <time>2021-02-28T08:55:43.754000+00:00</time>
      </trkpt>
      <trkpt lat="0" lon="0">
        <time>2021-02-28T08:55:43.758000+00:00</time>
      </trkpt>
      <trkpt lat="0" lon="0">
        <time>2021-02-28T08:55:43.760000+00:00</time>
      </trkpt>
      <trkpt lat="47.32546" lon="-1.42559">
        <ele>119</ele>
        <time>2021-02-28T08:55:44.796000+00:00</time>
      </trkpt>
      <trkpt lat="0" lon="0">
        <time>2021-02-28T08:55:44.805000+00:00</time>
      </trkpt>
      <trkpt lat="0" lon="0">
        <time>2021-02-28T08:55:44.811000+00:00</time>
      </trkpt>
      <trkpt lat="0" lon="0">
        <time>2021-02-28T08:55:44.814000+00:00</time>
      </trkpt>
      <trkpt lat="47.32548" lon="-1.42558">
        <ele>119</ele>
        <time>2021-02-28T08:55:45.755000+00:00</time>
      </trkpt>
      <trkpt lat="0" lon="0">
        <time>2021-02-28T08:55:45.763000+00:00</time>
      </trkpt>
      <trkpt lat="0" lon="0">
        <time>2021-02-28T08:55:45.767000+00:00</time>
      </trkpt>
      <trkpt lat="0" lon="0">
        <time>2021-02-28T08:55:45.770000+00:00</time>
      </trkpt>
      <trkpt lat="47.32549" lon="-1.42557">
        <ele>120</ele>
        <time>2021-02-28T08:55:46.756000+00:00</time>
      </trkpt>
      <trkpt lat="0" lon="0">
        <time>2021-02-28T08:55:46.763000+00:00</time>
      </trkpt>
      <trkpt lat="0" lon="0">
        <time>2021-02-28T08:55:46.767000+00:00</time>
      </trkpt>
      <trkpt lat="0" lon="0">
        <time>2021-02-28T08:55:46.770000+00:00</time>
      </trkpt>
      <trkpt lat="47.32551" lon="-1.42556">
        <ele>122</ele>
        <time>2021-02-28T08:55:47.735000+00:00</time>
      </trkpt>
      <trkpt lat="0" lon="0">
        <time>2021-02-28T08:55:47.741000+00:00</time>
      </trkpt>
      <trkpt lat="0" lon="0">
        <time>2021-02-28T08:55:47.746000+00:00</time>
      </trkpt>
      <trkpt lat="0" lon="0">
        <time>2021-02-28T08:55:47.749000+00:00</time>
      </trkpt>
      <trkpt lat="47.32553" lon="-1.42554">
        <ele>123</ele>
        <time>2021-02-28T08:55:48.754000+00:00</time>
      </trkpt>
      <trkpt lat="0" lon="0">
        <time>2021-02-28T08:55:48.760000+00:00</time>
      </trkpt>
      <trkpt lat="0" lon="0">
        <time>2021-02-28T08:55:48.765000+00:00</time>
      </trkpt>
      <trkpt lat="0" lon="0">
        <time>2021-02-28T08:55:48.767000+00:00</time>
      </trkpt>
      <trkpt lat="47.32555" lon="-1.42552">
        <ele>124</ele>
        <time>2021-02-28T08:55:49.740000+00:00</time>
      </trkpt>
      <trkpt lat="0" lon="0">
        <time>2021-02-28T08:55:49.750000+00:00</time>
      </trkpt>
      <trkpt lat="0" lon="0">
        <time>2021-02-28T08:55:49.755000+00:00</time>
      </trkpt>
      <trkpt lat="0" lon="0">
        <time>2021-02-28T08:55:49.758000+00:00</time>
      </trkpt>
      <trkpt lat="47.32556" lon="-1.4255">
        <ele>125</ele>
        <time>2021-02-28T08:55:50.759000+00:00</time>
      </trkpt>
      <trkpt lat="0" lon="0">
        <time>2021-02-28T08:55:50.763000+00:00</time>
      </trkpt>
      <trkpt lat="0" lon="0">
        <time>2021-02-28T08:55:50.765000+00:00</time>
      </trkpt>
      <trkpt lat="0" lon="0">
        <time>2021-02-28T08:55:50.766000+00:00</time>
      </trkpt>
      <trkpt lat="47.32558" lon="-1.42548">
        <ele>125</ele>
        <time>2021-02-28T08:55:51.791000+00:00</time>
      </trkpt>
      <trkpt lat="0" lon="0">
        <time>2021-02-28T08:55:51.797000+00:00</time>
      </trkpt>
      <trkpt lat="0" lon="0">
        <time>2021-02-28T08:55:51.802000+00:00</time>
      </trkpt>
      <trkpt lat="0" lon="0">
        <time>2021-02-28T08:55:51.804000+00:00</time>
      </trkpt>
      <trkpt lat="47.32559" lon="-1.42546">
        <ele>126</ele>
        <time>2021-02-28T08:55:52.782000+00:00</time>
      </trkpt>
      <trkpt lat="0" lon="0">
        <time>2021-02-28T08:55:52.789000+00:00</time>
      </trkpt>
      <trkpt lat="0" lon="0">
        <time>2021-02-28T08:55:52.795000+00:00</time>
      </trkpt>
      <trkpt lat="0" lon="0">
        <time>2021-02-28T08:55:52.797000+00:00</time>
      </trkpt>
      <trkpt lat="47.3256" lon="-1.42545">
        <ele>126</ele>
        <time>2021-02-28T08:55:53.727000+00:00</time>
      </trkpt>
      <trkpt lat="0" lon="0">
        <time>2021-02-28T08:55:53.733000+00:00</time>
      </trkpt>
      <trkpt lat="0" lon="0">
        <time>2021-02-28T08:55:53.736000+00:00</time>
      </trkpt>
      <trkpt lat="0" lon="0">
        <time>2021-02-28T08:55:53.738000+00:00</time>
      </trkpt>
      <trkpt lat="47.32561" lon="-1.42543">
        <ele>126</ele>
        <time>2021-02-28T08:55:54.748000+00:00</time>
      </trkpt>
      <trkpt lat="0" lon="0">
        <time>2021-02-28T08:55:54.759000+00:00</time>
      </trkpt>
      <trkpt lat="0" lon="0">
        <time>2021-02-28T08:55:54.772000+00:00</time>
      </trkpt>
      <trkpt lat="0" lon="0">
        <time>2021-02-28T08:55:54.774000+00:00</time>
      </trkpt>
      <trkpt lat="47.32563" lon="-1.42541">
        <ele>128</ele>
        <time>2021-02-28T08:55:55.762000+00:00</time>
      </trkpt>
      <trkpt lat="0" lon="0">
        <time>2021-02-28T08:55:55.769000+00:00</time>
      </trkpt>
      <trkpt lat="0" lon="0">
        <time>2021-02-28T08:55:55.774000+00:00</time>
      </trkpt>
      <trkpt lat="0" lon="0">
        <time>2021-02-28T08:55:55.777000+00:00</time>
      </trkpt>
      <trkpt lat="47.32564" lon="-1.42539">
        <ele>129</ele>
        <time>2021-02-28T08:55:56.778000+00:00</time>
      </trkpt>
      <trkpt lat="0" lon="0">
        <time>2021-02-28T08:55:56.780000+00:00</time>
      </trkpt>
      <trkpt lat="0" lon="0">
        <time>2021-02-28T08:55:56.782000+00:00</time>
      </trkpt>
      <trkpt lat="0" lon="0">
        <time>2021-02-28T08:55:56.785000+00:00</time>
      </trkpt>
      <trkpt lat="47.32566" lon="-1.42537">
        <ele>130</ele>
        <time>2021-02-28T08:55:57.718000+00:00</time>
      </trkpt>
      <trkpt lat="0" lon="0">
        <time>2021-02-28T08:55:57.724000+00:00</time>
      </trkpt>
      <trkpt lat="0" lon="0">
        <time>2021-02-28T08:55:57.729000+00:00</time>
      </trkpt>
      <trkpt lat="0" lon="0">
        <time>2021-02-28T08:55:57.731000+00:00</time>
      </trkpt>
      <trkpt lat="47.32567" lon="-1.42535">
        <ele>130</ele>
        <time>2021-02-28T08:55:58.772000+00:00</time>
      </trkpt>
      <trkpt lat="0" lon="0">
        <time>2021-02-28T08:55:58.781000+00:00</time>
      </trkpt>
      <trkpt lat="0" lon="0">
        <time>2021-02-28T08:55:58.787000+00:00</time>
      </trkpt>
      <trkpt lat="0" lon="0">
        <time>2021-02-28T08:55:58.790000+00:00</time>
      </trkpt>
      <trkpt lat="47.32569" lon="-1.42533">
        <ele>130</ele>
        <time>2021-02-28T08:55:59.724000+00:00</time>
      </trkpt>
      <trkpt lat="0" lon="0">
        <time>2021-02-28T08:55:59.737000+00:00</time>
      </trkpt>
      <trkpt lat="0" lon="0">
        <time>2021-02-28T08:55:59.742000+00:00</time>
      </trkpt>
      <trkpt lat="0" lon="0">
        <time>2021-02-28T08:55:59.744000+00:00</time>
      </trkpt>
      <trkpt lat="47.3257" lon="-1.42532">
        <ele>130</ele>
        <time>2021-02-28T08:56:00.684000+00:00</time>
      </trkpt>
      <trkpt lat="0" lon="0">
        <time>2021-02-28T08:56:00.693000+00:00</time>
      </trkpt>
      <trkpt lat="0" lon="0">
        <time>2021-02-28T08:56:00.698000+00:00</time>
      </trkpt>
      <trkpt lat="0" lon="0">
        <time>2021-02-28T08:56:00.701000+00:00</time>
      </trkpt>
      <trkpt lat="47.32571" lon="-1.4253">
        <ele>130</ele>
        <time>2021-02-28T08:56:01.766000+00:00</time>
      </trkpt>
      <trkpt lat="0" lon="0">
        <time>2021-02-28T08:56:01.768000+00:00</time>
      </trkpt>
      <trkpt lat="0" lon="0">
        <time>2021-02-28T08:56:01.770000+00:00</time>
      </trkpt>
      <trkpt lat="0" lon="0">
        <time>2021-02-28T08:56:01.771000+00:00</time>
      </trkpt>
      <trkpt lat="47.32573" lon="-1.42529">
        <ele>129</ele>
        <time>2021-02-28T08:56:02.768000+00:00</time>
      </trkpt>
      <trkpt lat="0" lon="0">
        <time>2021-02-28T08:56:02.774000+00:00</time>
      </trkpt>
      <trkpt lat="0" lon="0">
        <time>2021-02-28T08:56:02.779000+00:00</time>
      </trkpt>
      <trkpt lat="0" lon="0">
        <time>2021-02-28T08:56:02.781000+00:00</time>
      </trkpt>
      <trkpt lat="47.32574" lon="-1.42529">
        <ele>129</ele>
        <time>2021-02-28T08:56:03.750000+00:00</time>
      </trkpt>
      <trkpt lat="0" lon="0">
        <time>2021-02-28T08:56:03.760000+00:00</time>
      </trkpt>
      <trkpt lat="0" lon="0">
        <time>2021-02-28T08:56:03.765000+00:00</time>
      </trkpt>
      <trkpt lat="0" lon="0">
        <time>2021-02-28T08:56:03.768000+00:00</time>
      </trkpt>
      <trkpt lat="47.32575" lon="-1.42529">
        <ele>129</ele>
        <time>2021-02-28T08:56:04.737000+00:00</time>
      </trkpt>
      <trkpt lat="0" lon="0">
        <time>2021-02-28T08:56:04.746000+00:00</time>
      </trkpt>
      <trkpt lat="0" lon="0">
        <time>2021-02-28T08:56:04.752000+00:00</time>
      </trkpt>
      <trkpt lat="0" lon="0">
        <time>2021-02-28T08:56:04.756000+00:00</time>
      </trkpt>
      <trkpt lat="47.32576" lon="-1.4253">
        <ele>129</ele>
        <time>2021-02-28T08:56:05.750000+00:00</time>
      </trkpt>
      <trkpt lat="0" lon="0">
        <time>2021-02-28T08:56:05.757000+00:00</time>
      </trkpt>
      <trkpt lat="0" lon="0">
        <time>2021-02-28T08:56:05.762000+00:00</time>
      </trkpt>
      <trkpt lat="0" lon="0">
        <time>2021-02-28T08:56:05.765000+00:00</time>
      </trkpt>
      <trkpt lat="47.32577" lon="-1.42531">
        <ele>128</ele>
        <time>2021-02-28T08:56:06.762000+00:00</time>
      </trkpt>
      <trkpt lat="0" lon="0">
        <time>2021-02-28T08:56:06.770000+00:00</time>
      </trkpt>
      <trkpt lat="0" lon="0">
        <time>2021-02-28T08:56:06.776000+00:00</time>
      </trkpt>
      <trkpt lat="0" lon="0">
        <time>2021-02-28T08:56:06.780000+00:00</time>
      </trkpt>
      <trkpt lat="47.32578" lon="-1.42533">
        <ele>127</ele>
        <time>2021-02-28T08:56:07.719000+00:00</time>
      </trkpt>
      <trkpt lat="0" lon="0">
        <time>2021-02-28T08:56:07.722000+00:00</time>
      </trkpt>
      <trkpt lat="0" lon="0">
        <time>2021-02-28T08:56:07.724000+00:00</time>
      </trkpt>
      <trkpt lat="0" lon="0">
        <time>2021-02-28T08:56:07.725000+00:00</time>
      </trkpt>
      <trkpt lat="47.32579" lon="-1.42535">
        <ele>126</ele>
        <time>2021-02-28T08:56:08.760000+00:00</time>
      </trkpt>
      <trkpt lat="0" lon="0">
        <time>2021-02-28T08:56:08.765000+00:00</time>
      </trkpt>
      <trkpt lat="0" lon="0">
        <time>2021-02-28T08:56:08.770000+00:00</time>
      </trkpt>
      <trkpt lat="0" lon="0">
        <time>2021-02-28T08:56:08.773000+00:00</time>
      </trkpt>
      <trkpt lat="47.32579" lon="-1.42537">
        <ele>126</ele>
        <time>2021-02-28T08:56:09.770000+00:00</time>
      </trkpt>
      <trkpt lat="0" lon="0">
        <time>2021-02-28T08:56:09.775000+00:00</time>
      </trkpt>
      <trkpt lat="0" lon="0">
        <time>2021-02-28T08:56:09.779000+00:00</time>
      </trkpt>
      <trkpt lat="0" lon="0">
        <time>2021-02-28T08:56:09.782000+00:00</time>
      </trkpt>
      <trkpt lat="47.3258" lon="-1.42539">
        <ele>125</ele>
        <time>2021-02-28T08:56:10.740000+00:00</time>
      </trkpt>
      <trkpt lat="0" lon="0">
        <time>2021-02-28T08:56:10.751000+00:00</time>
      </trkpt>
      <trkpt lat="0" lon="0">
        <time>2021-02-28T08:56:10.756000+00:00</time>
      </trkpt>
      <trkpt lat="0" lon="0">
        <time>2021-02-28T08:56:10.761000+00:00</time>
      </trkpt>
      <trkpt lat="47.32581" lon="-1.42542">
        <ele>125</ele>
        <time>2021-02-28T08:56:11.769000+00:00</time>
      </trkpt>
      <trkpt lat="0" lon="0">
        <time>2021-02-28T08:56:11.776000+00:00</time>
      </trkpt>
      <trkpt lat="0" lon="0">
        <time>2021-02-28T08:56:11.781000+00:00</time>
      </trkpt>
      <trkpt lat="0" lon="0">
        <time>2021-02-28T08:56:11.783000+00:00</time>
      </trkpt>
      <trkpt lat="47.32581" lon="-1.42545">
        <ele>124</ele>
        <time>2021-02-28T08:56:12.727000+00:00</time>
      </trkpt>
      <trkpt lat="0" lon="0">
        <time>2021-02-28T08:56:12.738000+00:00</time>
      </trkpt>
      <trkpt lat="0" lon="0">
        <time>2021-02-28T08:56:12.748000+00:00</time>
      </trkpt>
      <trkpt lat="0" lon="0">
        <time>2021-02-28T08:56:12.755000+00:00</time>
      </trkpt>
      <trkpt lat="47.32582" lon="-1.42548">
        <ele>124</ele>
        <time>2021-02-28T08:56:13.774000+00:00</time>
      </trkpt>
      <trkpt lat="0" lon="0">
        <time>2021-02-28T08:56:13.792000+00:00</time>
      </trkpt>
      <trkpt lat="0" lon="0">
        <time>2021-02-28T08:56:13.797000+00:00</time>
      </trkpt>
      <trkpt lat="0" lon="0">
        <time>2021-02-28T08:56:13.799000+00:00</time>
      </trkpt>
      <trkpt lat="47.32583" lon="-1.42551">
        <ele>124</ele>
        <time>2021-02-28T08:56:14.774000+00:00</time>
      </trkpt>
      <trkpt lat="0" lon="0">
        <time>2021-02-28T08:56:14.779000+00:00</time>
      </trkpt>
      <trkpt lat="0" lon="0">
        <time>2021-02-28T08:56:14.784000+00:00</time>
      </trkpt>
      <trkpt lat="0" lon="0">
        <time>2021-02-28T08:56:14.786000+00:00</time>
      </trkpt>
      <trkpt lat="47.32584" lon="-1.42554">
        <ele>123</ele>
        <time>2021-02-28T08:56:15.773000+00:00</time>
      </trkpt>
      <trkpt lat="0" lon="0">
        <time>2021-02-28T08:56:15.780000+00:00</time>
      </trkpt>
      <trkpt lat="0" lon="0">
        <time>2021-02-28T08:56:15.785000+00:00</time>
      </trkpt>
      <trkpt lat="0" lon="0">
        <time>2021-02-28T08:56:15.788000+00:00</time>
      </trkpt>
      <trkpt lat="47.32585" lon="-1.42556">
        <ele>122</ele>
        <time>2021-02-28T08:56:16.784000+00:00</time>
      </trkpt>
      <trkpt lat="0" lon="0">
        <time>2021-02-28T08:56:16.790000+00:00</time>
      </trkpt>
      <trkpt lat="0" lon="0">
        <time>2021-02-28T08:56:16.796000+00:00</time>
      </trkpt>
      <trkpt lat="0" lon="0">
        <time>2021-02-28T08:56:16.799000+00:00</time>
      </trkpt>
      <trkpt lat="47.32586" lon="-1.42559">
        <ele>122</ele>
        <time>2021-02-28T08:56:17.758000+00:00</time>
      </trkpt>
      <trkpt lat="0" lon="0">
        <time>2021-02-28T08:56:17.770000+00:00</time>
      </trkpt>
      <trkpt lat="0" lon="0">
        <time>2021-02-28T08:56:17.778000+00:00</time>
      </trkpt>
      <trkpt lat="0" lon="0">
        <time>2021-02-28T08:56:17.780000+00:00</time>
      </trkpt>
      <trkpt lat="47.32587" lon="-1.42561">
        <ele>121</ele>
        <time>2021-02-28T08:56:18.797000+00:00</time>
      </trkpt>
      <trkpt lat="0" lon="0">
        <time>2021-02-28T08:56:18.803000+00:00</time>
      </trkpt>
      <trkpt lat="0" lon="0">
        <time>2021-02-28T08:56:18.810000+00:00</time>
      </trkpt>
      <trkpt lat="0" lon="0">
        <time>2021-02-28T08:56:18.814000+00:00</time>
      </trkpt>
      <trkpt lat="47.32587" lon="-1.42563">
        <ele>121</ele>
        <time>2021-02-28T08:56:19.770000+00:00</time>
      </trkpt>
      <trkpt lat="0" lon="0">
        <time>2021-02-28T08:56:19.777000+00:00</time>
      </trkpt>
      <trkpt lat="0" lon="0">
        <time>2021-02-28T08:56:19.779000+00:00</time>
      </trkpt>
      <trkpt lat="0" lon="0">
        <time>2021-02-28T08:56:19.780000+00:00</time>
      </trkpt>
      <trkpt lat="47.32588" lon="-1.42565">
        <ele>120</ele>
        <time>2021-02-28T08:56:20.665000+00:00</time>
      </trkpt>
      <trkpt lat="0" lon="0">
        <time>2021-02-28T08:56:20.670000+00:00</time>
      </trkpt>
      <trkpt lat="0" lon="0">
        <time>2021-02-28T08:56:20.672000+00:00</time>
      </trkpt>
      <trkpt lat="0" lon="0">
        <time>2021-02-28T08:56:20.674000+00:00</time>
      </trkpt>
      <trkpt lat="47.32589" lon="-1.42567">
        <ele>119</ele>
        <time>2021-02-28T08:56:21.667000+00:00</time>
      </trkpt>
      <trkpt lat="0" lon="0">
        <time>2021-02-28T08:56:21.670000+00:00</time>
      </trkpt>
      <trkpt lat="0" lon="0">
        <time>2021-02-28T08:56:21.672000+00:00</time>
      </trkpt>
      <trkpt lat="0" lon="0">
        <time>2021-02-28T08:56:21.673000+00:00</time>
      </trkpt>
      <trkpt lat="47.3259" lon="-1.42569">
        <ele>119</ele>
        <time>2021-02-28T08:56:22.768000+00:00</time>
      </trkpt>
      <trkpt lat="0" lon="0">
        <time>2021-02-28T08:56:22.774000+00:00</time>
      </trkpt>
      <trkpt lat="0" lon="0">
        <time>2021-02-28T08:56:22.781000+00:00</time>
      </trkpt>
      <trkpt lat="0" lon="0">
        <time>2021-02-28T08:56:22.784000+00:00</time>
      </trkpt>
      <trkpt lat="47.3259" lon="-1.42571">
        <ele>119</ele>
        <time>2021-02-28T08:56:23.725000+00:00</time>
      </trkpt>
      <trkpt lat="0" lon="0">
        <time>2021-02-28T08:56:23.733000+00:00</time>
      </trkpt>
      <trkpt lat="0" lon="0">
        <time>2021-02-28T08:56:23.739000+00:00</time>
      </trkpt>
      <trkpt lat="0" lon="0">
        <time>2021-02-28T08:56:23.741000+00:00</time>
      </trkpt>
      <trkpt lat="47.32591" lon="-1.42573">
        <ele>118</ele>
        <time>2021-02-28T08:56:24.711000+00:00</time>
      </trkpt>
      <trkpt lat="0" lon="0">
        <time>2021-02-28T08:56:24.719000+00:00</time>
      </trkpt>
      <trkpt lat="0" lon="0">
        <time>2021-02-28T08:56:24.722000+00:00</time>
      </trkpt>
      <trkpt lat="0" lon="0">
        <time>2021-02-28T08:56:24.724000+00:00</time>
      </trkpt>
      <trkpt lat="47.32592" lon="-1.42575">
        <ele>118</ele>
        <time>2021-02-28T08:56:25.698000+00:00</time>
      </trkpt>
      <trkpt lat="0" lon="0">
        <time>2021-02-28T08:56:25.711000+00:00</time>
      </trkpt>
      <trkpt lat="0" lon="0">
        <time>2021-02-28T08:56:25.715000+00:00</time>
      </trkpt>
      <trkpt lat="0" lon="0">
        <time>2021-02-28T08:56:25.717000+00:00</time>
      </trkpt>
      <trkpt lat="47.32592" lon="-1.42578">
        <ele>118</ele>
        <time>2021-02-28T08:56:26.692000+00:00</time>
      </trkpt>
      <trkpt lat="0" lon="0">
        <time>2021-02-28T08:56:26.700000+00:00</time>
      </trkpt>
      <trkpt lat="0" lon="0">
        <time>2021-02-28T08:56:26.703000+00:00</time>
      </trkpt>
      <trkpt lat="0" lon="0">
        <time>2021-02-28T08:56:26.705000+00:00</time>
      </trkpt>
      <trkpt lat="47.32593" lon="-1.4258">
        <ele>118</ele>
        <time>2021-02-28T08:56:27.698000+00:00</time>
      </trkpt>
      <trkpt lat="0" lon="0">
        <time>2021-02-28T08:56:27.708000+00:00</time>
      </trkpt>
      <trkpt lat="0" lon="0">
        <time>2021-02-28T08:56:27.712000+00:00</time>
      </trkpt>
      <trkpt lat="0" lon="0">
        <time>2021-02-28T08:56:27.714000+00:00</time>
      </trkpt>
      <trkpt lat="47.32594" lon="-1.42582">
        <ele>117</ele>
        <time>2021-02-28T08:56:28.700000+00:00</time>
      </trkpt>
      <trkpt lat="0" lon="0">
        <time>2021-02-28T08:56:28.708000+00:00</time>
      </trkpt>
      <trkpt lat="0" lon="0">
        <time>2021-02-28T08:56:28.713000+00:00</time>
      </trkpt>
      <trkpt lat="0" lon="0">
        <time>2021-02-28T08:56:28.715000+00:00</time>
      </trkpt>
      <trkpt lat="47.32595" lon="-1.42584">
        <ele>117</ele>
        <time>2021-02-28T08:56:29.792000+00:00</time>
      </trkpt>
      <trkpt lat="0" lon="0">
        <time>2021-02-28T08:56:29.806000+00:00</time>
      </trkpt>
      <trkpt lat="0" lon="0">
        <time>2021-02-28T08:56:29.811000+00:00</time>
      </trkpt>
      <trkpt lat="0" lon="0">
        <time>2021-02-28T08:56:29.813000+00:00</time>
      </trkpt>
      <trkpt lat="47.32595" lon="-1.42586">
        <ele>117</ele>
        <time>2021-02-28T08:56:30.695000+00:00</time>
      </trkpt>
      <trkpt lat="0" lon="0">
        <time>2021-02-28T08:56:30.701000+00:00</time>
      </trkpt>
      <trkpt lat="0" lon="0">
        <time>2021-02-28T08:56:30.705000+00:00</time>
      </trkpt>
      <trkpt lat="0" lon="0">
        <time>2021-02-28T08:56:30.707000+00:00</time>
      </trkpt>
      <trkpt lat="47.32595" lon="-1.42588">
        <ele>117</ele>
        <time>2021-02-28T08:56:31.740000+00:00</time>
      </trkpt>
      <trkpt lat="0" lon="0">
        <time>2021-02-28T08:56:31.745000+00:00</time>
      </trkpt>
      <trkpt lat="0" lon="0">
        <time>2021-02-28T08:56:31.750000+00:00</time>
      </trkpt>
      <trkpt lat="0" lon="0">
        <time>2021-02-28T08:56:31.752000+00:00</time>
      </trkpt>
      <trkpt lat="47.32595" lon="-1.42589">
        <ele>117</ele>
        <time>2021-02-28T08:56:32.778000+00:00</time>
      </trkpt>
      <trkpt lat="0" lon="0">
        <time>2021-02-28T08:56:32.790000+00:00</time>
      </trkpt>
      <trkpt lat="0" lon="0">
        <time>2021-02-28T08:56:32.803000+00:00</time>
      </trkpt>
      <trkpt lat="0" lon="0">
        <time>2021-02-28T08:56:32.806000+00:00</time>
      </trkpt>
      <trkpt lat="47.32596" lon="-1.42591">
        <ele>117</ele>
        <time>2021-02-28T08:56:33.770000+00:00</time>
      </trkpt>
      <trkpt lat="0" lon="0">
        <time>2021-02-28T08:56:33.774000+00:00</time>
      </trkpt>
      <trkpt lat="0" lon="0">
        <time>2021-02-28T08:56:33.778000+00:00</time>
      </trkpt>
      <trkpt lat="0" lon="0">
        <time>2021-02-28T08:56:33.780000+00:00</time>
      </trkpt>
      <trkpt lat="47.32596" lon="-1.42593">
        <ele>116</ele>
        <time>2021-02-28T08:56:34.789000+00:00</time>
      </trkpt>
      <trkpt lat="0" lon="0">
        <time>2021-02-28T08:56:34.801000+00:00</time>
      </trkpt>
      <trkpt lat="0" lon="0">
        <time>2021-02-28T08:56:34.810000+00:00</time>
      </trkpt>
      <trkpt lat="0" lon="0">
        <time>2021-02-28T08:56:34.813000+00:00</time>
      </trkpt>
      <trkpt lat="47.32595" lon="-1.42595">
        <ele>116</ele>
        <time>2021-02-28T08:56:35.737000+00:00</time>
      </trkpt>
      <trkpt lat="0" lon="0">
        <time>2021-02-28T08:56:35.748000+00:00</time>
      </trkpt>
      <trkpt lat="0" lon="0">
        <time>2021-02-28T08:56:35.751000+00:00</time>
      </trkpt>
      <trkpt lat="0" lon="0">
        <time>2021-02-28T08:56:35.753000+00:00</time>
      </trkpt>
      <trkpt lat="47.32595" lon="-1.42597">
        <ele>116</ele>
        <time>2021-02-28T08:56:36.775000+00:00</time>
      </trkpt>
      <trkpt lat="0" lon="0">
        <time>2021-02-28T08:56:36.780000+00:00</time>
      </trkpt>
      <trkpt lat="0" lon="0">
        <time>2021-02-28T08:56:36.785000+00:00</time>
      </trkpt>
      <trkpt lat="0" lon="0">
        <time>2021-02-28T08:56:36.787000+00:00</time>
      </trkpt>
      <trkpt lat="47.32595" lon="-1.426">
        <ele>115</ele>
        <time>2021-02-28T08:56:37.778000+00:00</time>
      </trkpt>
      <trkpt lat="0" lon="0">
        <time>2021-02-28T08:56:37.789000+00:00</time>
      </trkpt>
      <trkpt lat="0" lon="0">
        <time>2021-02-28T08:56:37.794000+00:00</time>
      </trkpt>
      <trkpt lat="0" lon="0">
        <time>2021-02-28T08:56:37.797000+00:00</time>
      </trkpt>
      <trkpt lat="47.32596" lon="-1.42601">
        <ele>114</ele>
        <time>2021-02-28T08:56:38.756000+00:00</time>
      </trkpt>
      <trkpt lat="0" lon="0">
        <time>2021-02-28T08:56:38.767000+00:00</time>
      </trkpt>
      <trkpt lat="0" lon="0">
        <time>2021-02-28T08:56:38.771000+00:00</time>
      </trkpt>
      <trkpt lat="0" lon="0">
        <time>2021-02-28T08:56:38.773000+00:00</time>
      </trkpt>
      <trkpt lat="47.32596" lon="-1.42603">
        <ele>114</ele>
        <time>2021-02-28T08:56:39.806000+00:00</time>
      </trkpt>
      <trkpt lat="0" lon="0">
        <time>2021-02-28T08:56:39.815000+00:00</time>
      </trkpt>
      <trkpt lat="0" lon="0">
        <time>2021-02-28T08:56:39.820000+00:00</time>
      </trkpt>
      <trkpt lat="0" lon="0">
        <time>2021-02-28T08:56:39.823000+00:00</time>
      </trkpt>
      <trkpt lat="47.32596" lon="-1.42605">
        <ele>113</ele>
        <time>2021-02-28T08:56:40.756000+00:00</time>
      </trkpt>
      <trkpt lat="0" lon="0">
        <time>2021-02-28T08:56:40.762000+00:00</time>
      </trkpt>
      <trkpt lat="0" lon="0">
        <time>2021-02-28T08:56:40.776000+00:00</time>
      </trkpt>
      <trkpt lat="0" lon="0">
        <time>2021-02-28T08:56:40.779000+00:00</time>
      </trkpt>
      <trkpt lat="47.32595" lon="-1.42607">
        <ele>113</ele>
        <time>2021-02-28T08:56:41.732000+00:00</time>
      </trkpt>
      <trkpt lat="0" lon="0">
        <time>2021-02-28T08:56:41.737000+00:00</time>
      </trkpt>
      <trkpt lat="0" lon="0">
        <time>2021-02-28T08:56:41.741000+00:00</time>
      </trkpt>
      <trkpt lat="0" lon="0">
        <time>2021-02-28T08:56:41.744000+00:00</time>
      </trkpt>
      <trkpt lat="47.32595" lon="-1.42608">
        <ele>113</ele>
        <time>2021-02-28T08:56:42.752000+00:00</time>
      </trkpt>
      <trkpt lat="0" lon="0">
        <time>2021-02-28T08:56:42.760000+00:00</time>
      </trkpt>
      <trkpt lat="0" lon="0">
        <time>2021-02-28T08:56:42.768000+00:00</time>
      </trkpt>
      <trkpt lat="0" lon="0">
        <time>2021-02-28T08:56:42.772000+00:00</time>
      </trkpt>
      <trkpt lat="47.32595" lon="-1.4261">
        <ele>112</ele>
        <time>2021-02-28T08:56:43.737000+00:00</time>
      </trkpt>
      <trkpt lat="0" lon="0">
        <time>2021-02-28T08:56:43.745000+00:00</time>
      </trkpt>
      <trkpt lat="0" lon="0">
        <time>2021-02-28T08:56:43.751000+00:00</time>
      </trkpt>
      <trkpt lat="0" lon="0">
        <time>2021-02-28T08:56:43.755000+00:00</time>
      </trkpt>
      <trkpt lat="47.32595" lon="-1.42611">
        <ele>111</ele>
        <time>2021-02-28T08:56:44.709000+00:00</time>
      </trkpt>
      <trkpt lat="0" lon="0">
        <time>2021-02-28T08:56:44.716000+00:00</time>
      </trkpt>
      <trkpt lat="0" lon="0">
        <time>2021-02-28T08:56:44.721000+00:00</time>
      </trkpt>
      <trkpt lat="0" lon="0">
        <time>2021-02-28T08:56:44.723000+00:00</time>
      </trkpt>
      <trkpt lat="47.32595" lon="-1.42612">
        <ele>111</ele>
        <time>2021-02-28T08:56:45.743000+00:00</time>
      </trkpt>
      <trkpt lat="0" lon="0">
        <time>2021-02-28T08:56:45.751000+00:00</time>
      </trkpt>
      <trkpt lat="0" lon="0">
        <time>2021-02-28T08:56:45.756000+00:00</time>
      </trkpt>
      <trkpt lat="0" lon="0">
        <time>2021-02-28T08:56:45.761000+00:00</time>
      </trkpt>
      <trkpt lat="47.32596" lon="-1.42613">
        <ele>110</ele>
        <time>2021-02-28T08:56:46.756000+00:00</time>
      </trkpt>
      <trkpt lat="0" lon="0">
        <time>2021-02-28T08:56:46.765000+00:00</time>
      </trkpt>
      <trkpt lat="0" lon="0">
        <time>2021-02-28T08:56:46.771000+00:00</time>
      </trkpt>
      <trkpt lat="0" lon="0">
        <time>2021-02-28T08:56:46.774000+00:00</time>
      </trkpt>
      <trkpt lat="47.32596" lon="-1.42614">
        <ele>109</ele>
        <time>2021-02-28T08:56:47.698000+00:00</time>
      </trkpt>
      <trkpt lat="0" lon="0">
        <time>2021-02-28T08:56:47.716000+00:00</time>
      </trkpt>
      <trkpt lat="0" lon="0">
        <time>2021-02-28T08:56:47.722000+00:00</time>
      </trkpt>
      <trkpt lat="0" lon="0">
        <time>2021-02-28T08:56:47.725000+00:00</time>
      </trkpt>
      <trkpt lat="47.32596" lon="-1.42614">
        <ele>109</ele>
        <time>2021-02-28T08:56:48.746000+00:00</time>
      </trkpt>
      <trkpt lat="0" lon="0">
        <time>2021-02-28T08:56:48.757000+00:00</time>
      </trkpt>
      <trkpt lat="0" lon="0">
        <time>2021-02-28T08:56:48.762000+00:00</time>
      </trkpt>
      <trkpt lat="0" lon="0">
        <time>2021-02-28T08:56:48.765000+00:00</time>
      </trkpt>
      <trkpt lat="47.32597" lon="-1.42615">
        <ele>109</ele>
        <time>2021-02-28T08:56:49.741000+00:00</time>
      </trkpt>
      <trkpt lat="0" lon="0">
        <time>2021-02-28T08:56:49.753000+00:00</time>
      </trkpt>
      <trkpt lat="0" lon="0">
        <time>2021-02-28T08:56:49.757000+00:00</time>
      </trkpt>
      <trkpt lat="0" lon="0">
        <time>2021-02-28T08:56:49.759000+00:00</time>
      </trkpt>
      <trkpt lat="47.32597" lon="-1.42615">
        <ele>109</ele>
        <time>2021-02-28T08:56:50.739000+00:00</time>
      </trkpt>
      <trkpt lat="0" lon="0">
        <time>2021-02-28T08:56:50.753000+00:00</time>
      </trkpt>
      <trkpt lat="0" lon="0">
        <time>2021-02-28T08:56:50.761000+00:00</time>
      </trkpt>
      <trkpt lat="0" lon="0">
        <time>2021-02-28T08:56:50.765000+00:00</time>
      </trkpt>
      <trkpt lat="47.32597" lon="-1.42615">
        <ele>109</ele>
        <time>2021-02-28T08:56:51.804000+00:00</time>
      </trkpt>
      <trkpt lat="0" lon="0">
        <time>2021-02-28T08:56:51.812000+00:00</time>
      </trkpt>
      <trkpt lat="0" lon="0">
        <time>2021-02-28T08:56:51.821000+00:00</time>
      </trkpt>
      <trkpt lat="0" lon="0">
        <time>2021-02-28T08:56:51.836000+00:00</time>
      </trkpt>
      <trkpt lat="47.32612" lon="-1.4258">
        <ele>107</ele>
        <time>2021-02-28T08:56:52.840000+00:00</time>
      </trkpt>
      <trkpt lat="0" lon="0">
        <time>2021-02-28T08:56:52.844000+00:00</time>
      </trkpt>
      <trkpt lat="0" lon="0">
        <time>2021-02-28T08:56:52.848000+00:00</time>
      </trkpt>
      <trkpt lat="0" lon="0">
        <time>2021-02-28T08:56:52.851000+00:00</time>
      </trkpt>
      <trkpt lat="47.32614" lon="-1.42579">
        <ele>107</ele>
        <time>2021-02-28T08:56:53.857000+00:00</time>
      </trkpt>
      <trkpt lat="0" lon="0">
        <time>2021-02-28T08:56:53.863000+00:00</time>
      </trkpt>
      <trkpt lat="0" lon="0">
        <time>2021-02-28T08:56:53.874000+00:00</time>
      </trkpt>
      <trkpt lat="0" lon="0">
        <time>2021-02-28T08:56:53.876000+00:00</time>
      </trkpt>
      <trkpt lat="47.32615" lon="-1.42579">
        <ele>107</ele>
        <time>2021-02-28T08:56:54.847000+00:00</time>
      </trkpt>
      <trkpt lat="0" lon="0">
        <time>2021-02-28T08:56:54.853000+00:00</time>
      </trkpt>
      <trkpt lat="0" lon="0">
        <time>2021-02-28T08:56:54.858000+00:00</time>
      </trkpt>
      <trkpt lat="0" lon="0">
        <time>2021-02-28T08:56:54.860000+00:00</time>
      </trkpt>
      <trkpt lat="47.32616" lon="-1.42579">
        <ele>108</ele>
        <time>2021-02-28T08:56:55.875000+00:00</time>
      </trkpt>
      <trkpt lat="0" lon="0">
        <time>2021-02-28T08:56:55.886000+00:00</time>
      </trkpt>
      <trkpt lat="0" lon="0">
        <time>2021-02-28T08:56:55.893000+00:00</time>
      </trkpt>
      <trkpt lat="0" lon="0">
        <time>2021-02-28T08:56:55.896000+00:00</time>
      </trkpt>
      <trkpt lat="47.32617" lon="-1.42579">
        <ele>108</ele>
        <time>2021-02-28T08:56:56.883000+00:00</time>
      </trkpt>
      <trkpt lat="0" lon="0">
        <time>2021-02-28T08:56:56.891000+00:00</time>
      </trkpt>
      <trkpt lat="0" lon="0">
        <time>2021-02-28T08:56:56.895000+00:00</time>
      </trkpt>
      <trkpt lat="0" lon="0">
        <time>2021-02-28T08:56:56.898000+00:00</time>
      </trkpt>
      <trkpt lat="47.32619" lon="-1.42579">
        <ele>107</ele>
        <time>2021-02-28T08:56:58.856000+00:00</time>
      </trkpt>
      <trkpt lat="0" lon="0">
        <time>2021-02-28T08:56:58.863000+00:00</time>
      </trkpt>
      <trkpt lat="0" lon="0">
        <time>2021-02-28T08:56:58.867000+00:00</time>
      </trkpt>
      <trkpt lat="0" lon="0">
        <time>2021-02-28T08:56:58.870000+00:00</time>
      </trkpt>
      <trkpt lat="47.3262" lon="-1.42579">
        <ele>107</ele>
        <time>2021-02-28T08:56:59.887000+00:00</time>
      </trkpt>
      <trkpt lat="0" lon="0">
        <time>2021-02-28T08:56:59.897000+00:00</time>
      </trkpt>
      <trkpt lat="0" lon="0">
        <time>2021-02-28T08:56:59.904000+00:00</time>
      </trkpt>
      <trkpt lat="0" lon="0">
        <time>2021-02-28T08:56:59.907000+00:00</time>
      </trkpt>
      <trkpt lat="47.32621" lon="-1.42579">
        <ele>107</ele>
        <time>2021-02-28T08:57:00.809000+00:00</time>
      </trkpt>
      <trkpt lat="0" lon="0">
        <time>2021-02-28T08:57:00.821000+00:00</time>
      </trkpt>
      <trkpt lat="0" lon="0">
        <time>2021-02-28T08:57:00.827000+00:00</time>
      </trkpt>
      <trkpt lat="0" lon="0">
        <time>2021-02-28T08:57:00.842000+00:00</time>
      </trkpt>
      <trkpt lat="47.32622" lon="-1.42579">
        <ele>107</ele>
        <time>2021-02-28T08:57:01.953000+00:00</time>
      </trkpt>
      <trkpt lat="0" lon="0">
        <time>2021-02-28T08:57:01.958000+00:00</time>
      </trkpt>
      <trkpt lat="0" lon="0">
        <time>2021-02-28T08:57:01.964000+00:00</time>
      </trkpt>
      <trkpt lat="0" lon="0">
        <time>2021-02-28T08:57:01.967000+00:00</time>
      </trkpt>
      <trkpt lat="47.32623" lon="-1.4258">
        <ele>106</ele>
        <time>2021-02-28T08:57:02.862000+00:00</time>
      </trkpt>
      <trkpt lat="0" lon="0">
        <time>2021-02-28T08:57:02.863000+00:00</time>
      </trkpt>
      <trkpt lat="0" lon="0">
        <time>2021-02-28T08:57:02.864000+00:00</time>
      </trkpt>
      <trkpt lat="47.32624" lon="-1.4258">
        <ele>106</ele>
        <time>2021-02-28T08:57:03.878000+00:00</time>
      </trkpt>
      <trkpt lat="0" lon="0">
        <time>2021-02-28T08:57:03.887000+00:00</time>
      </trkpt>
      <trkpt lat="0" lon="0">
        <time>2021-02-28T08:57:03.892000+00:00</time>
      </trkpt>
      <trkpt lat="0" lon="0">
        <time>2021-02-28T08:57:03.902000+00:00</time>
      </trkpt>
      <trkpt lat="47.32631" lon="-1.42597">
        <ele>112</ele>
        <time>2021-02-28T08:57:04.903000+00:00</time>
      </trkpt>
      <trkpt lat="0" lon="0">
        <time>2021-02-28T08:57:04.913000+00:00</time>
      </trkpt>
      <trkpt lat="0" lon="0">
        <time>2021-02-28T08:57:04.918000+00:00</time>
      </trkpt>
      <trkpt lat="0" lon="0">
        <time>2021-02-28T08:57:04.920000+00:00</time>
      </trkpt>
      <trkpt lat="47.32632" lon="-1.426">
        <ele>112</ele>
        <time>2021-02-28T08:57:05.955000+00:00</time>
      </trkpt>
      <trkpt lat="0" lon="0">
        <time>2021-02-28T08:57:05.959000+00:00</time>
      </trkpt>
      <trkpt lat="0" lon="0">
        <time>2021-02-28T08:57:05.963000+00:00</time>
      </trkpt>
      <trkpt lat="0" lon="0">
        <time>2021-02-28T08:57:05.966000+00:00</time>
      </trkpt>
      <trkpt lat="47.32632" lon="-1.42603">
        <ele>112</ele>
        <time>2021-02-28T08:57:06.925000+00:00</time>
      </trkpt>
      <trkpt lat="0" lon="0">
        <time>2021-02-28T08:57:06.934000+00:00</time>
      </trkpt>
      <trkpt lat="0" lon="0">
        <time>2021-02-28T08:57:06.939000+00:00</time>
      </trkpt>
      <trkpt lat="0" lon="0">
        <time>2021-02-28T08:57:06.942000+00:00</time>
      </trkpt>
      <trkpt lat="47.32632" lon="-1.42607">
        <ele>112</ele>
        <time>2021-02-28T08:57:07.887000+00:00</time>
      </trkpt>
      <trkpt lat="0" lon="0">
        <time>2021-02-28T08:57:07.894000+00:00</time>
      </trkpt>
      <trkpt lat="0" lon="0">
        <time>2021-02-28T08:57:07.899000+00:00</time>
      </trkpt>
      <trkpt lat="0" lon="0">
        <time>2021-02-28T08:57:07.902000+00:00</time>
      </trkpt>
      <trkpt lat="47.32633" lon="-1.4261">
        <ele>111</ele>
        <time>2021-02-28T08:57:08.942000+00:00</time>
      </trkpt>
      <trkpt lat="0" lon="0">
        <time>2021-02-28T08:57:08.948000+00:00</time>
      </trkpt>
      <trkpt lat="0" lon="0">
        <time>2021-02-28T08:57:08.952000+00:00</time>
      </trkpt>
      <trkpt lat="0" lon="0">
        <time>2021-02-28T08:57:08.954000+00:00</time>
      </trkpt>
      <trkpt lat="47.32633" lon="-1.42614">
        <ele>111</ele>
        <time>2021-02-28T08:57:09.934000+00:00</time>
      </trkpt>
      <trkpt lat="0" lon="0">
        <time>2021-02-28T08:57:09.944000+00:00</time>
      </trkpt>
      <trkpt lat="0" lon="0">
        <time>2021-02-28T08:57:09.951000+00:00</time>
      </trkpt>
      <trkpt lat="0" lon="0">
        <time>2021-02-28T08:57:09.954000+00:00</time>
      </trkpt>
      <trkpt lat="47.32633" lon="-1.42617">
        <ele>111</ele>
        <time>2021-02-28T08:57:10.955000+00:00</time>
      </trkpt>
      <trkpt lat="0" lon="0">
        <time>2021-02-28T08:57:10.965000+00:00</time>
      </trkpt>
      <trkpt lat="0" lon="0">
        <time>2021-02-28T08:57:10.969000+00:00</time>
      </trkpt>
      <trkpt lat="0" lon="0">
        <time>2021-02-28T08:57:10.971000+00:00</time>
      </trkpt>
      <trkpt lat="47.32634" lon="-1.4262">
        <ele>111</ele>
        <time>2021-02-28T08:57:11.938000+00:00</time>
      </trkpt>
      <trkpt lat="0" lon="0">
        <time>2021-02-28T08:57:11.948000+00:00</time>
      </trkpt>
      <trkpt lat="0" lon="0">
        <time>2021-02-28T08:57:11.953000+00:00</time>
      </trkpt>
      <trkpt lat="0" lon="0">
        <time>2021-02-28T08:57:11.955000+00:00</time>
      </trkpt>
      <trkpt lat="47.32634" lon="-1.42624">
        <ele>112</ele>
        <time>2021-02-28T08:57:12.932000+00:00</time>
      </trkpt>
      <trkpt lat="0" lon="0">
        <time>2021-02-28T08:57:12.941000+00:00</time>
      </trkpt>
      <trkpt lat="0" lon="0">
        <time>2021-02-28T08:57:12.949000+00:00</time>
      </trkpt>
      <trkpt lat="0" lon="0">
        <time>2021-02-28T08:57:12.954000+00:00</time>
      </trkpt>
      <trkpt lat="47.32635" lon="-1.42627">
        <ele>112</ele>
        <time>2021-02-28T08:57:13.939000+00:00</time>
      </trkpt>
      <trkpt lat="0" lon="0">
        <time>2021-02-28T08:57:13.947000+00:00</time>
      </trkpt>
      <trkpt lat="0" lon="0">
        <time>2021-02-28T08:57:13.952000+00:00</time>
      </trkpt>
      <trkpt lat="0" lon="0">
        <time>2021-02-28T08:57:13.955000+00:00</time>
      </trkpt>
      <trkpt lat="47.32636" lon="-1.4263">
        <ele>112</ele>
        <time>2021-02-28T08:57:14.958000+00:00</time>
      </trkpt>
      <trkpt lat="0" lon="0">
        <time>2021-02-28T08:57:14.965000+00:00</time>
      </trkpt>
      <trkpt lat="0" lon="0">
        <time>2021-02-28T08:57:14.970000+00:00</time>
      </trkpt>
      <trkpt lat="0" lon="0">
        <time>2021-02-28T08:57:14.973000+00:00</time>
      </trkpt>
      <trkpt lat="47.32637" lon="-1.42633">
        <ele>112</ele>
        <time>2021-02-28T08:57:15.910000+00:00</time>
      </trkpt>
      <trkpt lat="0" lon="0">
        <time>2021-02-28T08:57:15.919000+00:00</time>
      </trkpt>
      <trkpt lat="0" lon="0">
        <time>2021-02-28T08:57:15.924000+00:00</time>
      </trkpt>
      <trkpt lat="0" lon="0">
        <time>2021-02-28T08:57:15.927000+00:00</time>
      </trkpt>
      <trkpt lat="47.32638" lon="-1.42636">
        <ele>112</ele>
        <time>2021-02-28T08:57:16.824000+00:00</time>
      </trkpt>
      <trkpt lat="0" lon="0">
        <time>2021-02-28T08:57:16.831000+00:00</time>
      </trkpt>
      <trkpt lat="0" lon="0">
        <time>2021-02-28T08:57:16.837000+00:00</time>
      </trkpt>
      <trkpt lat="0" lon="0">
        <time>2021-02-28T08:57:16.839000+00:00</time>
      </trkpt>
      <trkpt lat="47.32639" lon="-1.42638">
        <ele>113</ele>
        <time>2021-02-28T08:57:17.912000+00:00</time>
      </trkpt>
      <trkpt lat="0" lon="0">
        <time>2021-02-28T08:57:17.925000+00:00</time>
      </trkpt>
      <trkpt lat="0" lon="0">
        <time>2021-02-28T08:57:17.929000+00:00</time>
      </trkpt>
      <trkpt lat="0" lon="0">
        <time>2021-02-28T08:57:17.932000+00:00</time>
      </trkpt>
      <trkpt lat="47.3264" lon="-1.4264">
        <ele>112</ele>
        <time>2021-02-28T08:57:18.934000+00:00</time>
      </trkpt>
      <trkpt lat="0" lon="0">
        <time>2021-02-28T08:57:18.942000+00:00</time>
      </trkpt>
      <trkpt lat="0" lon="0">
        <time>2021-02-28T08:57:18.944000+00:00</time>
      </trkpt>
      <trkpt lat="0" lon="0">
        <time>2021-02-28T08:57:18.945000+00:00</time>
      </trkpt>
      <trkpt lat="47.3264" lon="-1.42642">
        <ele>112</ele>
        <time>2021-02-28T08:57:19.834000+00:00</time>
      </trkpt>
      <trkpt lat="0" lon="0">
        <time>2021-02-28T08:57:19.842000+00:00</time>
      </trkpt>
      <trkpt lat="0" lon="0">
        <time>2021-02-28T08:57:19.846000+00:00</time>
      </trkpt>
      <trkpt lat="0" lon="0">
        <time>2021-02-28T08:57:19.849000+00:00</time>
      </trkpt>
      <trkpt lat="47.32641" lon="-1.42643">
        <ele>112</ele>
        <time>2021-02-28T08:57:20.915000+00:00</time>
      </trkpt>
      <trkpt lat="0" lon="0">
        <time>2021-02-28T08:57:20.920000+00:00</time>
      </trkpt>
      <trkpt lat="0" lon="0">
        <time>2021-02-28T08:57:20.924000+00:00</time>
      </trkpt>
      <trkpt lat="0" lon="0">
        <time>2021-02-28T08:57:20.926000+00:00</time>
      </trkpt>
      <trkpt lat="47.32641" lon="-1.42644">
        <ele>112</ele>
        <time>2021-02-28T08:57:21.913000+00:00</time>
      </trkpt>
      <trkpt lat="0" lon="0">
        <time>2021-02-28T08:57:21.922000+00:00</time>
      </trkpt>
      <trkpt lat="0" lon="0">
        <time>2021-02-28T08:57:21.926000+00:00</time>
      </trkpt>
      <trkpt lat="0" lon="0">
        <time>2021-02-28T08:57:21.928000+00:00</time>
      </trkpt>
      <trkpt lat="47.32641" lon="-1.42644">
        <ele>112</ele>
        <time>2021-02-28T08:57:22.921000+00:00</time>
      </trkpt>
      <trkpt lat="0" lon="0">
        <time>2021-02-28T08:57:22.929000+00:00</time>
      </trkpt>
      <trkpt lat="0" lon="0">
        <time>2021-02-28T08:57:22.934000+00:00</time>
      </trkpt>
      <trkpt lat="0" lon="0">
        <time>2021-02-28T08:57:22.936000+00:00</time>
      </trkpt>
      <trkpt lat="47.32641" lon="-1.42644">
        <ele>112</ele>
        <time>2021-02-28T08:57:23.902000+00:00</time>
      </trkpt>
      <trkpt lat="0" lon="0">
        <time>2021-02-28T08:57:23.907000+00:00</time>
      </trkpt>
      <trkpt lat="0" lon="0">
        <time>2021-02-28T08:57:23.911000+00:00</time>
      </trkpt>
      <trkpt lat="0" lon="0">
        <time>2021-02-28T08:57:23.913000+00:00</time>
      </trkpt>
      <trkpt lat="47.32641" lon="-1.42644">
        <ele>112</ele>
        <time>2021-02-28T08:57:24.886000+00:00</time>
      </trkpt>
      <trkpt lat="0" lon="0">
        <time>2021-02-28T08:57:24.894000+00:00</time>
      </trkpt>
      <trkpt lat="0" lon="0">
        <time>2021-02-28T08:57:24.900000+00:00</time>
      </trkpt>
      <trkpt lat="0" lon="0">
        <time>2021-02-28T08:57:24.902000+00:00</time>
      </trkpt>
      <trkpt lat="47.32641" lon="-1.42644">
        <ele>112</ele>
        <time>2021-02-28T08:57:25.914000+00:00</time>
      </trkpt>
      <trkpt lat="0" lon="0">
        <time>2021-02-28T08:57:25.921000+00:00</time>
      </trkpt>
      <trkpt lat="0" lon="0">
        <time>2021-02-28T08:57:25.925000+00:00</time>
      </trkpt>
      <trkpt lat="0" lon="0">
        <time>2021-02-28T08:57:25.927000+00:00</time>
      </trkpt>
      <trkpt lat="47.32641" lon="-1.42644">
        <ele>112</ele>
        <time>2021-02-28T08:57:26.936000+00:00</time>
      </trkpt>
      <trkpt lat="0" lon="0">
        <time>2021-02-28T08:57:26.943000+00:00</time>
      </trkpt>
      <trkpt lat="0" lon="0">
        <time>2021-02-28T08:57:26.946000+00:00</time>
      </trkpt>
      <trkpt lat="0" lon="0">
        <time>2021-02-28T08:57:26.948000+00:00</time>
      </trkpt>
      <trkpt lat="47.32641" lon="-1.42643">
        <ele>112</ele>
        <time>2021-02-28T08:57:27.866000+00:00</time>
      </trkpt>
      <trkpt lat="0" lon="0">
        <time>2021-02-28T08:57:27.874000+00:00</time>
      </trkpt>
      <trkpt lat="0" lon="0">
        <time>2021-02-28T08:57:27.879000+00:00</time>
      </trkpt>
      <trkpt lat="0" lon="0">
        <time>2021-02-28T08:57:27.881000+00:00</time>
      </trkpt>
      <trkpt lat="47.32641" lon="-1.42643">
        <ele>112</ele>
        <time>2021-02-28T08:57:28.891000+00:00</time>
      </trkpt>
      <trkpt lat="0" lon="0">
        <time>2021-02-28T08:57:28.899000+00:00</time>
      </trkpt>
      <trkpt lat="0" lon="0">
        <time>2021-02-28T08:57:28.904000+00:00</time>
      </trkpt>
      <trkpt lat="0" lon="0">
        <time>2021-02-28T08:57:28.914000+00:00</time>
      </trkpt>
      <trkpt lat="47.32644" lon="-1.42661">
        <ele>108</ele>
        <time>2021-02-28T08:57:29.827000+00:00</time>
      </trkpt>
      <trkpt lat="0" lon="0">
        <time>2021-02-28T08:57:29.835000+00:00</time>
      </trkpt>
      <trkpt lat="0" lon="0">
        <time>2021-02-28T08:57:29.839000+00:00</time>
      </trkpt>
      <trkpt lat="0" lon="0">
        <time>2021-02-28T08:57:29.841000+00:00</time>
      </trkpt>
      <trkpt lat="47.32644" lon="-1.42663">
        <ele>108</ele>
        <time>2021-02-28T08:57:30.926000+00:00</time>
      </trkpt>
      <trkpt lat="0" lon="0">
        <time>2021-02-28T08:57:30.940000+00:00</time>
      </trkpt>
      <trkpt lat="0" lon="0">
        <time>2021-02-28T08:57:30.960000+00:00</time>
      </trkpt>
      <trkpt lat="0" lon="0">
        <time>2021-02-28T08:57:30.962000+00:00</time>
      </trkpt>
      <trkpt lat="47.32645" lon="-1.42666">
        <ele>106</ele>
        <time>2021-02-28T08:57:31.933000+00:00</time>
      </trkpt>
      <trkpt lat="0" lon="0">
        <time>2021-02-28T08:57:31.942000+00:00</time>
      </trkpt>
      <trkpt lat="0" lon="0">
        <time>2021-02-28T08:57:31.948000+00:00</time>
      </trkpt>
      <trkpt lat="0" lon="0">
        <time>2021-02-28T08:57:31.952000+00:00</time>
      </trkpt>
      <trkpt lat="47.32645" lon="-1.42669">
        <ele>105</ele>
        <time>2021-02-28T08:57:32.930000+00:00</time>
      </trkpt>
      <trkpt lat="0" lon="0">
        <time>2021-02-28T08:57:32.938000+00:00</time>
      </trkpt>
      <trkpt lat="0" lon="0">
        <time>2021-02-28T08:57:32.943000+00:00</time>
      </trkpt>
      <trkpt lat="0" lon="0">
        <time>2021-02-28T08:57:32.947000+00:00</time>
      </trkpt>
      <trkpt lat="47.32646" lon="-1.42671">
        <ele>104</ele>
        <time>2021-02-28T08:57:33.920000+00:00</time>
      </trkpt>
      <trkpt lat="0" lon="0">
        <time>2021-02-28T08:57:33.925000+00:00</time>
      </trkpt>
      <trkpt lat="0" lon="0">
        <time>2021-02-28T08:57:33.929000+00:00</time>
      </trkpt>
      <trkpt lat="0" lon="0">
        <time>2021-02-28T08:57:33.932000+00:00</time>
      </trkpt>
      <trkpt lat="47.32647" lon="-1.42674">
        <ele>104</ele>
        <time>2021-02-28T08:57:34.900000+00:00</time>
      </trkpt>
      <trkpt lat="0" lon="0">
        <time>2021-02-28T08:57:34.911000+00:00</time>
      </trkpt>
      <trkpt lat="0" lon="0">
        <time>2021-02-28T08:57:34.919000+00:00</time>
      </trkpt>
      <trkpt lat="0" lon="0">
        <time>2021-02-28T08:57:34.925000+00:00</time>
      </trkpt>
      <trkpt lat="47.32648" lon="-1.42676">
        <ele>104</ele>
        <time>2021-02-28T08:57:35.911000+00:00</time>
      </trkpt>
      <trkpt lat="0" lon="0">
        <time>2021-02-28T08:57:35.917000+00:00</time>
      </trkpt>
      <trkpt lat="0" lon="0">
        <time>2021-02-28T08:57:35.922000+00:00</time>
      </trkpt>
      <trkpt lat="0" lon="0">
        <time>2021-02-28T08:57:35.924000+00:00</time>
      </trkpt>
      <trkpt lat="47.32648" lon="-1.42677">
        <ele>104</ele>
        <time>2021-02-28T08:57:36.960000+00:00</time>
      </trkpt>
      <trkpt lat="0" lon="0">
        <time>2021-02-28T08:57:36.970000+00:00</time>
      </trkpt>
      <trkpt lat="0" lon="0">
        <time>2021-02-28T08:57:36.976000+00:00</time>
      </trkpt>
      <trkpt lat="0" lon="0">
        <time>2021-02-28T08:57:36.979000+00:00</time>
      </trkpt>
      <trkpt lat="47.32649" lon="-1.4268">
        <ele>103</ele>
        <time>2021-02-28T08:57:37.938000+00:00</time>
      </trkpt>
      <trkpt lat="0" lon="0">
        <time>2021-02-28T08:57:37.951000+00:00</time>
      </trkpt>
      <trkpt lat="0" lon="0">
        <time>2021-02-28T08:57:37.959000+00:00</time>
      </trkpt>
      <trkpt lat="0" lon="0">
        <time>2021-02-28T08:57:37.963000+00:00</time>
      </trkpt>
      <trkpt lat="47.32651" lon="-1.42682">
        <ele>103</ele>
        <time>2021-02-28T08:57:38.933000+00:00</time>
      </trkpt>
      <trkpt lat="0" lon="0">
        <time>2021-02-28T08:57:38.939000+00:00</time>
      </trkpt>
      <trkpt lat="0" lon="0">
        <time>2021-02-28T08:57:38.943000+00:00</time>
      </trkpt>
      <trkpt lat="0" lon="0">
        <time>2021-02-28T08:57:38.946000+00:00</time>
      </trkpt>
      <trkpt lat="47.32652" lon="-1.42685">
        <ele>103</ele>
        <time>2021-02-28T08:57:39.898000+00:00</time>
      </trkpt>
      <trkpt lat="0" lon="0">
        <time>2021-02-28T08:57:39.905000+00:00</time>
      </trkpt>
      <trkpt lat="0" lon="0">
        <time>2021-02-28T08:57:39.911000+00:00</time>
      </trkpt>
      <trkpt lat="0" lon="0">
        <time>2021-02-28T08:57:39.914000+00:00</time>
      </trkpt>
      <trkpt lat="47.32653" lon="-1.42687">
        <ele>103</ele>
        <time>2021-02-28T08:57:40.940000+00:00</time>
      </trkpt>
      <trkpt lat="0" lon="0">
        <time>2021-02-28T08:57:40.946000+00:00</time>
      </trkpt>
      <trkpt lat="0" lon="0">
        <time>2021-02-28T08:57:40.952000+00:00</time>
      </trkpt>
      <trkpt lat="0" lon="0">
        <time>2021-02-28T08:57:40.955000+00:00</time>
      </trkpt>
      <trkpt lat="47.32654" lon="-1.42689">
        <ele>103</ele>
        <time>2021-02-28T08:57:41.909000+00:00</time>
      </trkpt>
      <trkpt lat="0" lon="0">
        <time>2021-02-28T08:57:41.917000+00:00</time>
      </trkpt>
      <trkpt lat="0" lon="0">
        <time>2021-02-28T08:57:41.922000+00:00</time>
      </trkpt>
      <trkpt lat="0" lon="0">
        <time>2021-02-28T08:57:41.926000+00:00</time>
      </trkpt>
      <trkpt lat="47.32655" lon="-1.42691">
        <ele>103</ele>
        <time>2021-02-28T08:57:42.876000+00:00</time>
      </trkpt>
      <trkpt lat="0" lon="0">
        <time>2021-02-28T08:57:42.884000+00:00</time>
      </trkpt>
      <trkpt lat="0" lon="0">
        <time>2021-02-28T08:57:42.889000+00:00</time>
      </trkpt>
      <trkpt lat="0" lon="0">
        <time>2021-02-28T08:57:42.892000+00:00</time>
      </trkpt>
      <trkpt lat="47.32657" lon="-1.42693">
        <ele>104</ele>
        <time>2021-02-28T08:57:43.887000+00:00</time>
      </trkpt>
      <trkpt lat="0" lon="0">
        <time>2021-02-28T08:57:43.895000+00:00</time>
      </trkpt>
      <trkpt lat="0" lon="0">
        <time>2021-02-28T08:57:43.901000+00:00</time>
      </trkpt>
      <trkpt lat="0" lon="0">
        <time>2021-02-28T08:57:43.904000+00:00</time>
      </trkpt>
      <trkpt lat="47.32658" lon="-1.42694">
        <ele>104</ele>
        <time>2021-02-28T08:57:44.886000+00:00</time>
      </trkpt>
      <trkpt lat="0" lon="0">
        <time>2021-02-28T08:57:44.898000+00:00</time>
      </trkpt>
      <trkpt lat="0" lon="0">
        <time>2021-02-28T08:57:44.903000+00:00</time>
      </trkpt>
      <trkpt lat="0" lon="0">
        <time>2021-02-28T08:57:44.907000+00:00</time>
      </trkpt>
      <trkpt lat="47.3266" lon="-1.42696">
        <ele>104</ele>
        <time>2021-02-28T08:57:45.900000+00:00</time>
      </trkpt>
      <trkpt lat="0" lon="0">
        <time>2021-02-28T08:57:45.904000+00:00</time>
      </trkpt>
      <trkpt lat="0" lon="0">
        <time>2021-02-28T08:57:45.907000+00:00</time>
      </trkpt>
      <trkpt lat="0" lon="0">
        <time>2021-02-28T08:57:45.910000+00:00</time>
      </trkpt>
      <trkpt lat="47.32661" lon="-1.42697">
        <ele>103</ele>
        <time>2021-02-28T08:57:46.929000+00:00</time>
      </trkpt>
      <trkpt lat="0" lon="0">
        <time>2021-02-28T08:57:46.939000+00:00</time>
      </trkpt>
      <trkpt lat="0" lon="0">
        <time>2021-02-28T08:57:46.946000+00:00</time>
      </trkpt>
      <trkpt lat="0" lon="0">
        <time>2021-02-28T08:57:46.948000+00:00</time>
      </trkpt>
      <trkpt lat="47.32662" lon="-1.42699">
        <ele>103</ele>
        <time>2021-02-28T08:57:47.950000+00:00</time>
      </trkpt>
      <trkpt lat="0" lon="0">
        <time>2021-02-28T08:57:47.956000+00:00</time>
      </trkpt>
      <trkpt lat="0" lon="0">
        <time>2021-02-28T08:57:47.961000+00:00</time>
      </trkpt>
      <trkpt lat="0" lon="0">
        <time>2021-02-28T08:57:47.963000+00:00</time>
      </trkpt>
      <trkpt lat="47.32663" lon="-1.427">
        <ele>103</ele>
        <time>2021-02-28T08:57:48.948000+00:00</time>
      </trkpt>
      <trkpt lat="0" lon="0">
        <time>2021-02-28T08:57:48.962000+00:00</time>
      </trkpt>
      <trkpt lat="0" lon="0">
        <time>2021-02-28T08:57:48.969000+00:00</time>
      </trkpt>
      <trkpt lat="0" lon="0">
        <time>2021-02-28T08:57:48.974000+00:00</time>
      </trkpt>
      <trkpt lat="47.32663" lon="-1.42701">
        <ele>103</ele>
        <time>2021-02-28T08:57:49.835000+00:00</time>
      </trkpt>
      <trkpt lat="0" lon="0">
        <time>2021-02-28T08:57:49.840000+00:00</time>
      </trkpt>
      <trkpt lat="0" lon="0">
        <time>2021-02-28T08:57:49.844000+00:00</time>
      </trkpt>
      <trkpt lat="0" lon="0">
        <time>2021-02-28T08:57:49.846000+00:00</time>
      </trkpt>
      <trkpt lat="47.32664" lon="-1.42703">
        <ele>103</ele>
        <time>2021-02-28T08:57:50.911000+00:00</time>
      </trkpt>
      <trkpt lat="0" lon="0">
        <time>2021-02-28T08:57:50.928000+00:00</time>
      </trkpt>
      <trkpt lat="0" lon="0">
        <time>2021-02-28T08:57:50.934000+00:00</time>
      </trkpt>
      <trkpt lat="0" lon="0">
        <time>2021-02-28T08:57:50.935000+00:00</time>
      </trkpt>
      <trkpt lat="47.32664" lon="-1.42704">
        <ele>103</ele>
        <time>2021-02-28T08:57:51.921000+00:00</time>
      </trkpt>
      <trkpt lat="0" lon="0">
        <time>2021-02-28T08:57:51.935000+00:00</time>
      </trkpt>
      <trkpt lat="0" lon="0">
        <time>2021-02-28T08:57:51.939000+00:00</time>
      </trkpt>
      <trkpt lat="0" lon="0">
        <time>2021-02-28T08:57:51.942000+00:00</time>
      </trkpt>
      <trkpt lat="47.32664" lon="-1.42705">
        <ele>102</ele>
        <time>2021-02-28T08:57:52.904000+00:00</time>
      </trkpt>
      <trkpt lat="0" lon="0">
        <time>2021-02-28T08:57:52.913000+00:00</time>
      </trkpt>
      <trkpt lat="0" lon="0">
        <time>2021-02-28T08:57:52.918000+00:00</time>
      </trkpt>
      <trkpt lat="0" lon="0">
        <time>2021-02-28T08:57:52.920000+00:00</time>
      </trkpt>
      <trkpt lat="47.32665" lon="-1.42705">
        <ele>101</ele>
        <time>2021-02-28T08:57:53.915000+00:00</time>
      </trkpt>
      <trkpt lat="0" lon="0">
        <time>2021-02-28T08:57:53.924000+00:00</time>
      </trkpt>
      <trkpt lat="0" lon="0">
        <time>2021-02-28T08:57:53.930000+00:00</time>
      </trkpt>
      <trkpt lat="0" lon="0">
        <time>2021-02-28T08:57:53.933000+00:00</time>
      </trkpt>
      <trkpt lat="47.32665" lon="-1.42705">
        <ele>101</ele>
        <time>2021-02-28T08:57:54.897000+00:00</time>
      </trkpt>
      <trkpt lat="0" lon="0">
        <time>2021-02-28T08:57:54.905000+00:00</time>
      </trkpt>
      <trkpt lat="0" lon="0">
        <time>2021-02-28T08:57:54.913000+00:00</time>
      </trkpt>
      <trkpt lat="0" lon="0">
        <time>2021-02-28T08:57:54.915000+00:00</time>
      </trkpt>
      <trkpt lat="47.32666" lon="-1.42705">
        <ele>100</ele>
        <time>2021-02-28T08:57:55.961000+00:00</time>
      </trkpt>
      <trkpt lat="0" lon="0">
        <time>2021-02-28T08:57:55.970000+00:00</time>
      </trkpt>
      <trkpt lat="0" lon="0">
        <time>2021-02-28T08:57:55.976000+00:00</time>
      </trkpt>
      <trkpt lat="0" lon="0">
        <time>2021-02-28T08:57:55.981000+00:00</time>
      </trkpt>
      <trkpt lat="47.32666" lon="-1.42705">
        <ele>100</ele>
        <time>2021-02-28T08:57:56.952000+00:00</time>
      </trkpt>
      <trkpt lat="0" lon="0">
        <time>2021-02-28T08:57:56.957000+00:00</time>
      </trkpt>
      <trkpt lat="0" lon="0">
        <time>2021-02-28T08:57:56.960000+00:00</time>
      </trkpt>
      <trkpt lat="0" lon="0">
        <time>2021-02-28T08:57:56.962000+00:00</time>
      </trkpt>
      <trkpt lat="47.32666" lon="-1.42705">
        <ele>100</ele>
        <time>2021-02-28T08:57:58.069000+00:00</time>
      </trkpt>
      <trkpt lat="0" lon="0">
        <time>2021-02-28T08:57:58.074000+00:00</time>
      </trkpt>
      <trkpt lat="0" lon="0">
        <time>2021-02-28T08:57:58.078000+00:00</time>
      </trkpt>
      <trkpt lat="0" lon="0">
        <time>2021-02-28T08:57:58.080000+00:00</time>
      </trkpt>
      <trkpt lat="47.32666" lon="-1.42705">
        <ele>100</ele>
        <time>2021-02-28T08:57:58.839000+00:00</time>
      </trkpt>
      <trkpt lat="0" lon="0">
        <time>2021-02-28T08:57:58.844000+00:00</time>
      </trkpt>
      <trkpt lat="0" lon="0">
        <time>2021-02-28T08:57:58.851000+00:00</time>
      </trkpt>
      <trkpt lat="0" lon="0">
        <time>2021-02-28T08:57:58.861000+00:00</time>
      </trkpt>
      <trkpt lat="47.32681" lon="-1.42741">
        <ele>96</ele>
        <time>2021-02-28T08:57:59.928000+00:00</time>
      </trkpt>
      <trkpt lat="0" lon="0">
        <time>2021-02-28T08:57:59.932000+00:00</time>
      </trkpt>
      <trkpt lat="0" lon="0">
        <time>2021-02-28T08:57:59.936000+00:00</time>
      </trkpt>
      <trkpt lat="0" lon="0">
        <time>2021-02-28T08:57:59.939000+00:00</time>
      </trkpt>
      <trkpt lat="47.32681" lon="-1.42743">
        <ele>96</ele>
        <time>2021-02-28T08:58:00.936000+00:00</time>
      </trkpt>
      <trkpt lat="0" lon="0">
        <time>2021-02-28T08:58:00.938000+00:00</time>
      </trkpt>
      <trkpt lat="0" lon="0">
        <time>2021-02-28T08:58:00.940000+00:00</time>
      </trkpt>
      <trkpt lat="0" lon="0">
        <time>2021-02-28T08:58:00.942000+00:00</time>
      </trkpt>
      <trkpt lat="47.32682" lon="-1.42744">
        <ele>96</ele>
        <time>2021-02-28T08:58:01.910000+00:00</time>
      </trkpt>
      <trkpt lat="0" lon="0">
        <time>2021-02-28T08:58:01.917000+00:00</time>
      </trkpt>
      <trkpt lat="0" lon="0">
        <time>2021-02-28T08:58:01.922000+00:00</time>
      </trkpt>
      <trkpt lat="0" lon="0">
        <time>2021-02-28T08:58:01.925000+00:00</time>
      </trkpt>
      <trkpt lat="47.32682" lon="-1.42746">
        <ele>95</ele>
        <time>2021-02-28T08:58:02.916000+00:00</time>
      </trkpt>
      <trkpt lat="0" lon="0">
        <time>2021-02-28T08:58:02.921000+00:00</time>
      </trkpt>
      <trkpt lat="0" lon="0">
        <time>2021-02-28T08:58:02.926000+00:00</time>
      </trkpt>
      <trkpt lat="0" lon="0">
        <time>2021-02-28T08:58:02.928000+00:00</time>
      </trkpt>
      <trkpt lat="47.32683" lon="-1.42748">
        <ele>95</ele>
        <time>2021-02-28T08:58:03.915000+00:00</time>
      </trkpt>
      <trkpt lat="0" lon="0">
        <time>2021-02-28T08:58:03.921000+00:00</time>
      </trkpt>
      <trkpt lat="0" lon="0">
        <time>2021-02-28T08:58:03.928000+00:00</time>
      </trkpt>
      <trkpt lat="0" lon="0">
        <time>2021-02-28T08:58:03.931000+00:00</time>
      </trkpt>
      <trkpt lat="47.32684" lon="-1.4275">
        <ele>95</ele>
        <time>2021-02-28T08:58:04.940000+00:00</time>
      </trkpt>
      <trkpt lat="0" lon="0">
        <time>2021-02-28T08:58:04.945000+00:00</time>
      </trkpt>
      <trkpt lat="0" lon="0">
        <time>2021-02-28T08:58:04.948000+00:00</time>
      </trkpt>
      <trkpt lat="0" lon="0">
        <time>2021-02-28T08:58:04.952000+00:00</time>
      </trkpt>
      <trkpt lat="47.32684" lon="-1.42752">
        <ele>95</ele>
        <time>2021-02-28T08:58:05.934000+00:00</time>
      </trkpt>
      <trkpt lat="0" lon="0">
        <time>2021-02-28T08:58:05.946000+00:00</time>
      </trkpt>
      <trkpt lat="0" lon="0">
        <time>2021-02-28T08:58:05.949000+00:00</time>
      </trkpt>
      <trkpt lat="0" lon="0">
        <time>2021-02-28T08:58:05.951000+00:00</time>
      </trkpt>
      <trkpt lat="47.32685" lon="-1.42755">
        <ele>95</ele>
        <time>2021-02-28T08:58:06.902000+00:00</time>
      </trkpt>
      <trkpt lat="0" lon="0">
        <time>2021-02-28T08:58:06.906000+00:00</time>
      </trkpt>
      <trkpt lat="0" lon="0">
        <time>2021-02-28T08:58:06.910000+00:00</time>
      </trkpt>
      <trkpt lat="0" lon="0">
        <time>2021-02-28T08:58:06.912000+00:00</time>
      </trkpt>
      <trkpt lat="47.32686" lon="-1.42757">
        <ele>96</ele>
        <time>2021-02-28T08:58:07.931000+00:00</time>
      </trkpt>
      <trkpt lat="0" lon="0">
        <time>2021-02-28T08:58:07.936000+00:00</time>
      </trkpt>
      <trkpt lat="0" lon="0">
        <time>2021-02-28T08:58:07.941000+00:00</time>
      </trkpt>
      <trkpt lat="0" lon="0">
        <time>2021-02-28T08:58:07.944000+00:00</time>
      </trkpt>
      <trkpt lat="47.32686" lon="-1.4276">
        <ele>96</ele>
        <time>2021-02-28T08:58:08.917000+00:00</time>
      </trkpt>
      <trkpt lat="0" lon="0">
        <time>2021-02-28T08:58:08.925000+00:00</time>
      </trkpt>
      <trkpt lat="0" lon="0">
        <time>2021-02-28T08:58:08.933000+00:00</time>
      </trkpt>
      <trkpt lat="0" lon="0">
        <time>2021-02-28T08:58:08.934000+00:00</time>
      </trkpt>
      <trkpt lat="47.32686" lon="-1.42763">
        <ele>97</ele>
        <time>2021-02-28T08:58:09.955000+00:00</time>
      </trkpt>
      <trkpt lat="0" lon="0">
        <time>2021-02-28T08:58:09.959000+00:00</time>
      </trkpt>
      <trkpt lat="0" lon="0">
        <time>2021-02-28T08:58:09.966000+00:00</time>
      </trkpt>
      <trkpt lat="0" lon="0">
        <time>2021-02-28T08:58:09.969000+00:00</time>
      </trkpt>
      <trkpt lat="47.32687" lon="-1.42766">
        <ele>98</ele>
        <time>2021-02-28T08:58:10.915000+00:00</time>
      </trkpt>
      <trkpt lat="0" lon="0">
        <time>2021-02-28T08:58:10.923000+00:00</time>
      </trkpt>
      <trkpt lat="0" lon="0">
        <time>2021-02-28T08:58:10.928000+00:00</time>
      </trkpt>
      <trkpt lat="0" lon="0">
        <time>2021-02-28T08:58:10.931000+00:00</time>
      </trkpt>
      <trkpt lat="47.32687" lon="-1.42769">
        <ele>97</ele>
        <time>2021-02-28T08:58:11.950000+00:00</time>
      </trkpt>
      <trkpt lat="0" lon="0">
        <time>2021-02-28T08:58:11.955000+00:00</time>
      </trkpt>
      <trkpt lat="0" lon="0">
        <time>2021-02-28T08:58:11.960000+00:00</time>
      </trkpt>
      <trkpt lat="0" lon="0">
        <time>2021-02-28T08:58:11.962000+00:00</time>
      </trkpt>
      <trkpt lat="47.32687" lon="-1.42772">
        <ele>98</ele>
        <time>2021-02-28T08:58:12.951000+00:00</time>
      </trkpt>
      <trkpt lat="0" lon="0">
        <time>2021-02-28T08:58:12.959000+00:00</time>
      </trkpt>
      <trkpt lat="0" lon="0">
        <time>2021-02-28T08:58:12.963000+00:00</time>
      </trkpt>
      <trkpt lat="0" lon="0">
        <time>2021-02-28T08:58:12.966000+00:00</time>
      </trkpt>
      <trkpt lat="47.32687" lon="-1.42775">
        <ele>98</ele>
        <time>2021-02-28T08:58:13.941000+00:00</time>
      </trkpt>
      <trkpt lat="0" lon="0">
        <time>2021-02-28T08:58:13.950000+00:00</time>
      </trkpt>
      <trkpt lat="0" lon="0">
        <time>2021-02-28T08:58:13.955000+00:00</time>
      </trkpt>
      <trkpt lat="0" lon="0">
        <time>2021-02-28T08:58:13.957000+00:00</time>
      </trkpt>
      <trkpt lat="47.32687" lon="-1.42777">
        <ele>99</ele>
        <time>2021-02-28T08:58:14.868000+00:00</time>
      </trkpt>
      <trkpt lat="0" lon="0">
        <time>2021-02-28T08:58:14.874000+00:00</time>
      </trkpt>
      <trkpt lat="0" lon="0">
        <time>2021-02-28T08:58:14.883000+00:00</time>
      </trkpt>
      <trkpt lat="0" lon="0">
        <time>2021-02-28T08:58:14.886000+00:00</time>
      </trkpt>
      <trkpt lat="47.32686" lon="-1.4278">
        <ele>99</ele>
        <time>2021-02-28T08:58:15.954000+00:00</time>
      </trkpt>
      <trkpt lat="0" lon="0">
        <time>2021-02-28T08:58:15.959000+00:00</time>
      </trkpt>
      <trkpt lat="0" lon="0">
        <time>2021-02-28T08:58:15.963000+00:00</time>
      </trkpt>
      <trkpt lat="0" lon="0">
        <time>2021-02-28T08:58:15.965000+00:00</time>
      </trkpt>
      <trkpt lat="47.32686" lon="-1.42782">
        <ele>99</ele>
        <time>2021-02-28T08:58:16.924000+00:00</time>
      </trkpt>
      <trkpt lat="0" lon="0">
        <time>2021-02-28T08:58:16.930000+00:00</time>
      </trkpt>
      <trkpt lat="0" lon="0">
        <time>2021-02-28T08:58:16.934000+00:00</time>
      </trkpt>
      <trkpt lat="0" lon="0">
        <time>2021-02-28T08:58:16.937000+00:00</time>
      </trkpt>
      <trkpt lat="47.32685" lon="-1.42784">
        <ele>100</ele>
        <time>2021-02-28T08:58:17.927000+00:00</time>
      </trkpt>
      <trkpt lat="0" lon="0">
        <time>2021-02-28T08:58:17.931000+00:00</time>
      </trkpt>
      <trkpt lat="0" lon="0">
        <time>2021-02-28T08:58:17.934000+00:00</time>
      </trkpt>
      <trkpt lat="0" lon="0">
        <time>2021-02-28T08:58:17.935000+00:00</time>
      </trkpt>
      <trkpt lat="47.32685" lon="-1.42786">
        <ele>100</ele>
        <time>2021-02-28T08:58:18.886000+00:00</time>
      </trkpt>
      <trkpt lat="0" lon="0">
        <time>2021-02-28T08:58:18.891000+00:00</time>
      </trkpt>
      <trkpt lat="0" lon="0">
        <time>2021-02-28T08:58:18.899000+00:00</time>
      </trkpt>
      <trkpt lat="0" lon="0">
        <time>2021-02-28T08:58:18.901000+00:00</time>
      </trkpt>
      <trkpt lat="47.32684" lon="-1.42788">
        <ele>101</ele>
        <time>2021-02-28T08:58:19.832000+00:00</time>
      </trkpt>
      <trkpt lat="0" lon="0">
        <time>2021-02-28T08:58:19.834000+00:00</time>
      </trkpt>
      <trkpt lat="0" lon="0">
        <time>2021-02-28T08:58:19.835000+00:00</time>
      </trkpt>
      <trkpt lat="0" lon="0">
        <time>2021-02-28T08:58:19.836000+00:00</time>
      </trkpt>
      <trkpt lat="47.32684" lon="-1.4279">
        <ele>100</ele>
        <time>2021-02-28T08:58:20.959000+00:00</time>
      </trkpt>
      <trkpt lat="0" lon="0">
        <time>2021-02-28T08:58:20.964000+00:00</time>
      </trkpt>
      <trkpt lat="0" lon="0">
        <time>2021-02-28T08:58:20.969000+00:00</time>
      </trkpt>
      <trkpt lat="0" lon="0">
        <time>2021-02-28T08:58:20.972000+00:00</time>
      </trkpt>
      <trkpt lat="47.32684" lon="-1.42792">
        <ele>100</ele>
        <time>2021-02-28T08:58:21.933000+00:00</time>
      </trkpt>
      <trkpt lat="0" lon="0">
        <time>2021-02-28T08:58:21.938000+00:00</time>
      </trkpt>
      <trkpt lat="0" lon="0">
        <time>2021-02-28T08:58:21.943000+00:00</time>
      </trkpt>
      <trkpt lat="0" lon="0">
        <time>2021-02-28T08:58:21.946000+00:00</time>
      </trkpt>
      <trkpt lat="47.32684" lon="-1.42793">
        <ele>100</ele>
        <time>2021-02-28T08:58:22.955000+00:00</time>
      </trkpt>
      <trkpt lat="0" lon="0">
        <time>2021-02-28T08:58:22.962000+00:00</time>
      </trkpt>
      <trkpt lat="0" lon="0">
        <time>2021-02-28T08:58:22.966000+00:00</time>
      </trkpt>
      <trkpt lat="0" lon="0">
        <time>2021-02-28T08:58:22.968000+00:00</time>
      </trkpt>
      <trkpt lat="47.32684" lon="-1.42794">
        <ele>100</ele>
        <time>2021-02-28T08:58:23.937000+00:00</time>
      </trkpt>
      <trkpt lat="0" lon="0">
        <time>2021-02-28T08:58:23.944000+00:00</time>
      </trkpt>
      <trkpt lat="0" lon="0">
        <time>2021-02-28T08:58:23.949000+00:00</time>
      </trkpt>
      <trkpt lat="0" lon="0">
        <time>2021-02-28T08:58:23.952000+00:00</time>
      </trkpt>
      <trkpt lat="47.32684" lon="-1.42796">
        <ele>101</ele>
        <time>2021-02-28T08:58:24.963000+00:00</time>
      </trkpt>
      <trkpt lat="0" lon="0">
        <time>2021-02-28T08:58:24.968000+00:00</time>
      </trkpt>
      <trkpt lat="0" lon="0">
        <time>2021-02-28T08:58:24.973000+00:00</time>
      </trkpt>
      <trkpt lat="0" lon="0">
        <time>2021-02-28T08:58:24.976000+00:00</time>
      </trkpt>
      <trkpt lat="47.32684" lon="-1.42798">
        <ele>101</ele>
        <time>2021-02-28T08:58:25.905000+00:00</time>
      </trkpt>
      <trkpt lat="0" lon="0">
        <time>2021-02-28T08:58:25.910000+00:00</time>
      </trkpt>
      <trkpt lat="0" lon="0">
        <time>2021-02-28T08:58:25.914000+00:00</time>
      </trkpt>
      <trkpt lat="0" lon="0">
        <time>2021-02-28T08:58:25.917000+00:00</time>
      </trkpt>
      <trkpt lat="47.32684" lon="-1.428">
        <ele>101</ele>
        <time>2021-02-28T08:58:26.904000+00:00</time>
      </trkpt>
      <trkpt lat="0" lon="0">
        <time>2021-02-28T08:58:26.916000+00:00</time>
      </trkpt>
      <trkpt lat="0" lon="0">
        <time>2021-02-28T08:58:26.924000+00:00</time>
      </trkpt>
      <trkpt lat="0" lon="0">
        <time>2021-02-28T08:58:26.929000+00:00</time>
      </trkpt>
      <trkpt lat="47.32684" lon="-1.42802">
        <ele>100</ele>
        <time>2021-02-28T08:58:27.952000+00:00</time>
      </trkpt>
      <trkpt lat="0" lon="0">
        <time>2021-02-28T08:58:27.958000+00:00</time>
      </trkpt>
      <trkpt lat="0" lon="0">
        <time>2021-02-28T08:58:27.962000+00:00</time>
      </trkpt>
      <trkpt lat="0" lon="0">
        <time>2021-02-28T08:58:27.965000+00:00</time>
      </trkpt>
      <trkpt lat="47.32684" lon="-1.42805">
        <ele>100</ele>
        <time>2021-02-28T08:58:28.934000+00:00</time>
      </trkpt>
      <trkpt lat="0" lon="0">
        <time>2021-02-28T08:58:28.939000+00:00</time>
      </trkpt>
      <trkpt lat="0" lon="0">
        <time>2021-02-28T08:58:28.943000+00:00</time>
      </trkpt>
      <trkpt lat="0" lon="0">
        <time>2021-02-28T08:58:28.946000+00:00</time>
      </trkpt>
      <trkpt lat="47.32683" lon="-1.42808">
        <ele>100</ele>
        <time>2021-02-28T08:58:29.929000+00:00</time>
      </trkpt>
      <trkpt lat="0" lon="0">
        <time>2021-02-28T08:58:29.939000+00:00</time>
      </trkpt>
      <trkpt lat="0" lon="0">
        <time>2021-02-28T08:58:29.943000+00:00</time>
      </trkpt>
      <trkpt lat="0" lon="0">
        <time>2021-02-28T08:58:29.946000+00:00</time>
      </trkpt>
      <trkpt lat="47.32683" lon="-1.42811">
        <ele>101</ele>
        <time>2021-02-28T08:58:30.980000+00:00</time>
      </trkpt>
      <trkpt lat="0" lon="0">
        <time>2021-02-28T08:58:30.989000+00:00</time>
      </trkpt>
      <trkpt lat="0" lon="0">
        <time>2021-02-28T08:58:30.996000+00:00</time>
      </trkpt>
      <trkpt lat="0" lon="0">
        <time>2021-02-28T08:58:31+00:00</time>
      </trkpt>
      <trkpt lat="47.32682" lon="-1.42814">
        <ele>100</ele>
        <time>2021-02-28T08:58:31.946000+00:00</time>
      </trkpt>
      <trkpt lat="0" lon="0">
        <time>2021-02-28T08:58:31.957000+00:00</time>
      </trkpt>
      <trkpt lat="0" lon="0">
        <time>2021-02-28T08:58:31.961000+00:00</time>
      </trkpt>
      <trkpt lat="0" lon="0">
        <time>2021-02-28T08:58:31.964000+00:00</time>
      </trkpt>
      <trkpt lat="47.32681" lon="-1.42817">
        <ele>101</ele>
        <time>2021-02-28T08:58:32.934000+00:00</time>
      </trkpt>
      <trkpt lat="0" lon="0">
        <time>2021-02-28T08:58:32.941000+00:00</time>
      </trkpt>
      <trkpt lat="0" lon="0">
        <time>2021-02-28T08:58:32.946000+00:00</time>
      </trkpt>
      <trkpt lat="0" lon="0">
        <time>2021-02-28T08:58:32.949000+00:00</time>
      </trkpt>
      <trkpt lat="47.3268" lon="-1.42821">
        <ele>101</ele>
        <time>2021-02-28T08:58:33.954000+00:00</time>
      </trkpt>
      <trkpt lat="0" lon="0">
        <time>2021-02-28T08:58:33.959000+00:00</time>
      </trkpt>
      <trkpt lat="0" lon="0">
        <time>2021-02-28T08:58:33.963000+00:00</time>
      </trkpt>
      <trkpt lat="0" lon="0">
        <time>2021-02-28T08:58:33.966000+00:00</time>
      </trkpt>
      <trkpt lat="47.32679" lon="-1.42825">
        <ele>102</ele>
        <time>2021-02-28T08:58:34.937000+00:00</time>
      </trkpt>
      <trkpt lat="0" lon="0">
        <time>2021-02-28T08:58:34.945000+00:00</time>
      </trkpt>
      <trkpt lat="0" lon="0">
        <time>2021-02-28T08:58:34.950000+00:00</time>
      </trkpt>
      <trkpt lat="0" lon="0">
        <time>2021-02-28T08:58:34.953000+00:00</time>
      </trkpt>
      <trkpt lat="47.32677" lon="-1.42828">
        <ele>102</ele>
        <time>2021-02-28T08:58:35.961000+00:00</time>
      </trkpt>
      <trkpt lat="0" lon="0">
        <time>2021-02-28T08:58:35.966000+00:00</time>
      </trkpt>
      <trkpt lat="0" lon="0">
        <time>2021-02-28T08:58:35.971000+00:00</time>
      </trkpt>
      <trkpt lat="0" lon="0">
        <time>2021-02-28T08:58:35.974000+00:00</time>
      </trkpt>
      <trkpt lat="47.32676" lon="-1.42832">
        <ele>101</ele>
        <time>2021-02-28T08:58:36.923000+00:00</time>
      </trkpt>
      <trkpt lat="0" lon="0">
        <time>2021-02-28T08:58:36.932000+00:00</time>
      </trkpt>
      <trkpt lat="0" lon="0">
        <time>2021-02-28T08:58:36.936000+00:00</time>
      </trkpt>
      <trkpt lat="0" lon="0">
        <time>2021-02-28T08:58:36.938000+00:00</time>
      </trkpt>
      <trkpt lat="47.32674" lon="-1.42836">
        <ele>101</ele>
        <time>2021-02-28T08:58:37.952000+00:00</time>
      </trkpt>
      <trkpt lat="0" lon="0">
        <time>2021-02-28T08:58:37.961000+00:00</time>
      </trkpt>
      <trkpt lat="0" lon="0">
        <time>2021-02-28T08:58:37.969000+00:00</time>
      </trkpt>
      <trkpt lat="0" lon="0">
        <time>2021-02-28T08:58:37.973000+00:00</time>
      </trkpt>
      <trkpt lat="47.32673" lon="-1.4284">
        <ele>100</ele>
        <time>2021-02-28T08:58:38.939000+00:00</time>
      </trkpt>
      <trkpt lat="0" lon="0">
        <time>2021-02-28T08:58:38.945000+00:00</time>
      </trkpt>
      <trkpt lat="0" lon="0">
        <time>2021-02-28T08:58:38.950000+00:00</time>
      </trkpt>
      <trkpt lat="0" lon="0">
        <time>2021-02-28T08:58:38.952000+00:00</time>
      </trkpt>
      <trkpt lat="47.32672" lon="-1.42844">
        <ele>99</ele>
        <time>2021-02-28T08:58:39.945000+00:00</time>
      </trkpt>
      <trkpt lat="0" lon="0">
        <time>2021-02-28T08:58:39.955000+00:00</time>
      </trkpt>
      <trkpt lat="0" lon="0">
        <time>2021-02-28T08:58:39.961000+00:00</time>
      </trkpt>
      <trkpt lat="0" lon="0">
        <time>2021-02-28T08:58:39.964000+00:00</time>
      </trkpt>
      <trkpt lat="47.32671" lon="-1.42848">
        <ele>98</ele>
        <time>2021-02-28T08:58:40.922000+00:00</time>
      </trkpt>
      <trkpt lat="0" lon="0">
        <time>2021-02-28T08:58:40.928000+00:00</time>
      </trkpt>
      <trkpt lat="0" lon="0">
        <time>2021-02-28T08:58:40.933000+00:00</time>
      </trkpt>
      <trkpt lat="0" lon="0">
        <time>2021-02-28T08:58:40.936000+00:00</time>
      </trkpt>
      <trkpt lat="47.32671" lon="-1.42851">
        <ele>97</ele>
        <time>2021-02-28T08:58:41.919000+00:00</time>
      </trkpt>
      <trkpt lat="0" lon="0">
        <time>2021-02-28T08:58:41.928000+00:00</time>
      </trkpt>
      <trkpt lat="0" lon="0">
        <time>2021-02-28T08:58:41.933000+00:00</time>
      </trkpt>
      <trkpt lat="0" lon="0">
        <time>2021-02-28T08:58:41.936000+00:00</time>
      </trkpt>
      <trkpt lat="47.32671" lon="-1.42856">
        <ele>96</ele>
        <time>2021-02-28T08:58:42.950000+00:00</time>
      </trkpt>
      <trkpt lat="0" lon="0">
        <time>2021-02-28T08:58:42.955000+00:00</time>
      </trkpt>
      <trkpt lat="0" lon="0">
        <time>2021-02-28T08:58:42.960000+00:00</time>
      </trkpt>
      <trkpt lat="0" lon="0">
        <time>2021-02-28T08:58:42.964000+00:00</time>
      </trkpt>
      <trkpt lat="47.32671" lon="-1.4286">
        <ele>95</ele>
        <time>2021-02-28T08:58:43.956000+00:00</time>
      </trkpt>
      <trkpt lat="0" lon="0">
        <time>2021-02-28T08:58:43.968000+00:00</time>
      </trkpt>
      <trkpt lat="0" lon="0">
        <time>2021-02-28T08:58:43.973000+00:00</time>
      </trkpt>
      <trkpt lat="0" lon="0">
        <time>2021-02-28T08:58:43.976000+00:00</time>
      </trkpt>
      <trkpt lat="47.32672" lon="-1.42864">
        <ele>94</ele>
        <time>2021-02-28T08:58:44.954000+00:00</time>
      </trkpt>
      <trkpt lat="0" lon="0">
        <time>2021-02-28T08:58:44.961000+00:00</time>
      </trkpt>
      <trkpt lat="0" lon="0">
        <time>2021-02-28T08:58:44.966000+00:00</time>
      </trkpt>
      <trkpt lat="0" lon="0">
        <time>2021-02-28T08:58:44.968000+00:00</time>
      </trkpt>
      <trkpt lat="47.32673" lon="-1.42867">
        <ele>94</ele>
        <time>2021-02-28T08:58:45.942000+00:00</time>
      </trkpt>
      <trkpt lat="0" lon="0">
        <time>2021-02-28T08:58:45.952000+00:00</time>
      </trkpt>
      <trkpt lat="0" lon="0">
        <time>2021-02-28T08:58:45.957000+00:00</time>
      </trkpt>
      <trkpt lat="0" lon="0">
        <time>2021-02-28T08:58:45.960000+00:00</time>
      </trkpt>
      <trkpt lat="47.32675" lon="-1.42871">
        <ele>93</ele>
        <time>2021-02-28T08:58:46.968000+00:00</time>
      </trkpt>
      <trkpt lat="0" lon="0">
        <time>2021-02-28T08:58:46.974000+00:00</time>
      </trkpt>
      <trkpt lat="0" lon="0">
        <time>2021-02-28T08:58:46.979000+00:00</time>
      </trkpt>
      <trkpt lat="0" lon="0">
        <time>2021-02-28T08:58:46.982000+00:00</time>
      </trkpt>
      <trkpt lat="47.32677" lon="-1.42874">
        <ele>94</ele>
        <time>2021-02-28T08:58:47.937000+00:00</time>
      </trkpt>
      <trkpt lat="0" lon="0">
        <time>2021-02-28T08:58:47.944000+00:00</time>
      </trkpt>
      <trkpt lat="0" lon="0">
        <time>2021-02-28T08:58:47.952000+00:00</time>
      </trkpt>
      <trkpt lat="0" lon="0">
        <time>2021-02-28T08:58:47.957000+00:00</time>
      </trkpt>
      <trkpt lat="47.32679" lon="-1.42877">
        <ele>94</ele>
        <time>2021-02-28T08:58:48.924000+00:00</time>
      </trkpt>
      <trkpt lat="0" lon="0">
        <time>2021-02-28T08:58:48.936000+00:00</time>
      </trkpt>
      <trkpt lat="0" lon="0">
        <time>2021-02-28T08:58:48.940000+00:00</time>
      </trkpt>
      <trkpt lat="0" lon="0">
        <time>2021-02-28T08:58:48.942000+00:00</time>
      </trkpt>
      <trkpt lat="47.32682" lon="-1.42879">
        <ele>94</ele>
        <time>2021-02-28T08:58:49.965000+00:00</time>
      </trkpt>
      <trkpt lat="0" lon="0">
        <time>2021-02-28T08:58:49.972000+00:00</time>
      </trkpt>
      <trkpt lat="0" lon="0">
        <time>2021-02-28T08:58:49.978000+00:00</time>
      </trkpt>
      <trkpt lat="0" lon="0">
        <time>2021-02-28T08:58:49.981000+00:00</time>
      </trkpt>
      <trkpt lat="47.32685" lon="-1.42881">
        <ele>93</ele>
        <time>2021-02-28T08:58:50.866000+00:00</time>
      </trkpt>
      <trkpt lat="0" lon="0">
        <time>2021-02-28T08:58:50.872000+00:00</time>
      </trkpt>
      <trkpt lat="0" lon="0">
        <time>2021-02-28T08:58:50.877000+00:00</time>
      </trkpt>
      <trkpt lat="0" lon="0">
        <time>2021-02-28T08:58:50.879000+00:00</time>
      </trkpt>
      <trkpt lat="47.32688" lon="-1.42883">
        <ele>93</ele>
        <time>2021-02-28T08:58:51.950000+00:00</time>
      </trkpt>
      <trkpt lat="0" lon="0">
        <time>2021-02-28T08:58:51.959000+00:00</time>
      </trkpt>
      <trkpt lat="0" lon="0">
        <time>2021-02-28T08:58:51.964000+00:00</time>
      </trkpt>
      <trkpt lat="0" lon="0">
        <time>2021-02-28T08:58:51.966000+00:00</time>
      </trkpt>
      <trkpt lat="47.32691" lon="-1.42884">
        <ele>92</ele>
        <time>2021-02-28T08:58:52.858000+00:00</time>
      </trkpt>
      <trkpt lat="0" lon="0">
        <time>2021-02-28T08:58:52.863000+00:00</time>
      </trkpt>
      <trkpt lat="0" lon="0">
        <time>2021-02-28T08:58:52.869000+00:00</time>
      </trkpt>
      <trkpt lat="0" lon="0">
        <time>2021-02-28T08:58:52.871000+00:00</time>
      </trkpt>
      <trkpt lat="47.32694" lon="-1.42886">
        <ele>93</ele>
        <time>2021-02-28T08:58:53.915000+00:00</time>
      </trkpt>
      <trkpt lat="0" lon="0">
        <time>2021-02-28T08:58:53.920000+00:00</time>
      </trkpt>
      <trkpt lat="0" lon="0">
        <time>2021-02-28T08:58:53.925000+00:00</time>
      </trkpt>
      <trkpt lat="0" lon="0">
        <time>2021-02-28T08:58:53.928000+00:00</time>
      </trkpt>
      <trkpt lat="47.32697" lon="-1.42887">
        <ele>92</ele>
        <time>2021-02-28T08:58:54.952000+00:00</time>
      </trkpt>
      <trkpt lat="0" lon="0">
        <time>2021-02-28T08:58:54.961000+00:00</time>
      </trkpt>
      <trkpt lat="0" lon="0">
        <time>2021-02-28T08:58:54.965000+00:00</time>
      </trkpt>
      <trkpt lat="0" lon="0">
        <time>2021-02-28T08:58:54.968000+00:00</time>
      </trkpt>
      <trkpt lat="47.327" lon="-1.42889">
        <ele>92</ele>
        <time>2021-02-28T08:58:55.909000+00:00</time>
      </trkpt>
      <trkpt lat="0" lon="0">
        <time>2021-02-28T08:58:55.914000+00:00</time>
      </trkpt>
      <trkpt lat="0" lon="0">
        <time>2021-02-28T08:58:55.918000+00:00</time>
      </trkpt>
      <trkpt lat="0" lon="0">
        <time>2021-02-28T08:58:55.920000+00:00</time>
      </trkpt>
      <trkpt lat="47.32703" lon="-1.42891">
        <ele>92</ele>
        <time>2021-02-28T08:58:56.976000+00:00</time>
      </trkpt>
      <trkpt lat="0" lon="0">
        <time>2021-02-28T08:58:56.987000+00:00</time>
      </trkpt>
      <trkpt lat="0" lon="0">
        <time>2021-02-28T08:58:56.993000+00:00</time>
      </trkpt>
      <trkpt lat="0" lon="0">
        <time>2021-02-28T08:58:56.995000+00:00</time>
      </trkpt>
      <trkpt lat="47.32706" lon="-1.42893">
        <ele>92</ele>
        <time>2021-02-28T08:58:57.936000+00:00</time>
      </trkpt>
      <trkpt lat="0" lon="0">
        <time>2021-02-28T08:58:57.942000+00:00</time>
      </trkpt>
      <trkpt lat="0" lon="0">
        <time>2021-02-28T08:58:57.948000+00:00</time>
      </trkpt>
      <trkpt lat="0" lon="0">
        <time>2021-02-28T08:58:57.950000+00:00</time>
      </trkpt>
      <trkpt lat="47.3271" lon="-1.42895">
        <ele>91</ele>
        <time>2021-02-28T08:58:58.958000+00:00</time>
      </trkpt>
      <trkpt lat="0" lon="0">
        <time>2021-02-28T08:58:58.974000+00:00</time>
      </trkpt>
      <trkpt lat="0" lon="0">
        <time>2021-02-28T08:58:58.979000+00:00</time>
      </trkpt>
      <trkpt lat="0" lon="0">
        <time>2021-02-28T08:58:58.982000+00:00</time>
      </trkpt>
      <trkpt lat="47.32713" lon="-1.42897">
        <ele>91</ele>
        <time>2021-02-28T08:58:59.966000+00:00</time>
      </trkpt>
      <trkpt lat="0" lon="0">
        <time>2021-02-28T08:58:59.974000+00:00</time>
      </trkpt>
      <trkpt lat="0" lon="0">
        <time>2021-02-28T08:58:59.979000+00:00</time>
      </trkpt>
      <trkpt lat="0" lon="0">
        <time>2021-02-28T08:58:59.982000+00:00</time>
      </trkpt>
      <trkpt lat="47.32716" lon="-1.429">
        <ele>92</ele>
        <time>2021-02-28T08:59:00.883000+00:00</time>
      </trkpt>
      <trkpt lat="0" lon="0">
        <time>2021-02-28T08:59:00.899000+00:00</time>
      </trkpt>
      <trkpt lat="0" lon="0">
        <time>2021-02-28T08:59:00.908000+00:00</time>
      </trkpt>
      <trkpt lat="0" lon="0">
        <time>2021-02-28T08:59:00.910000+00:00</time>
      </trkpt>
      <trkpt lat="47.32719" lon="-1.42903">
        <ele>91</ele>
        <time>2021-02-28T08:59:01.953000+00:00</time>
      </trkpt>
      <trkpt lat="0" lon="0">
        <time>2021-02-28T08:59:01.960000+00:00</time>
      </trkpt>
      <trkpt lat="0" lon="0">
        <time>2021-02-28T08:59:01.964000+00:00</time>
      </trkpt>
      <trkpt lat="0" lon="0">
        <time>2021-02-28T08:59:01.967000+00:00</time>
      </trkpt>
      <trkpt lat="47.32722" lon="-1.42906">
        <ele>90</ele>
        <time>2021-02-28T08:59:02.946000+00:00</time>
      </trkpt>
      <trkpt lat="0" lon="0">
        <time>2021-02-28T08:59:02.954000+00:00</time>
      </trkpt>
      <trkpt lat="0" lon="0">
        <time>2021-02-28T08:59:02.959000+00:00</time>
      </trkpt>
      <trkpt lat="0" lon="0">
        <time>2021-02-28T08:59:02.962000+00:00</time>
      </trkpt>
      <trkpt lat="47.32726" lon="-1.4291">
        <ele>89</ele>
        <time>2021-02-28T08:59:03.974000+00:00</time>
      </trkpt>
      <trkpt lat="0" lon="0">
        <time>2021-02-28T08:59:03.982000+00:00</time>
      </trkpt>
      <trkpt lat="0" lon="0">
        <time>2021-02-28T08:59:03.987000+00:00</time>
      </trkpt>
      <trkpt lat="0" lon="0">
        <time>2021-02-28T08:59:03.990000+00:00</time>
      </trkpt>
      <trkpt lat="47.32729" lon="-1.42914">
        <ele>89</ele>
        <time>2021-02-28T08:59:04.874000+00:00</time>
      </trkpt>
      <trkpt lat="0" lon="0">
        <time>2021-02-28T08:59:04.879000+00:00</time>
      </trkpt>
      <trkpt lat="0" lon="0">
        <time>2021-02-28T08:59:04.882000+00:00</time>
      </trkpt>
      <trkpt lat="0" lon="0">
        <time>2021-02-28T08:59:04.884000+00:00</time>
      </trkpt>
      <trkpt lat="47.32733" lon="-1.42919">
        <ele>88</ele>
        <time>2021-02-28T08:59:05.933000+00:00</time>
      </trkpt>
      <trkpt lat="0" lon="0">
        <time>2021-02-28T08:59:05.942000+00:00</time>
      </trkpt>
      <trkpt lat="0" lon="0">
        <time>2021-02-28T08:59:05.948000+00:00</time>
      </trkpt>
      <trkpt lat="0" lon="0">
        <time>2021-02-28T08:59:05.951000+00:00</time>
      </trkpt>
      <trkpt lat="47.32737" lon="-1.42923">
        <ele>88</ele>
        <time>2021-02-28T08:59:06.992000+00:00</time>
      </trkpt>
      <trkpt lat="0" lon="0">
        <time>2021-02-28T08:59:06.997000+00:00</time>
      </trkpt>
      <trkpt lat="0" lon="0">
        <time>2021-02-28T08:59:07.004000+00:00</time>
      </trkpt>
      <trkpt lat="0" lon="0">
        <time>2021-02-28T08:59:07.007000+00:00</time>
      </trkpt>
      <trkpt lat="47.32741" lon="-1.42928">
        <ele>88</ele>
        <time>2021-02-28T08:59:07.934000+00:00</time>
      </trkpt>
      <trkpt lat="0" lon="0">
        <time>2021-02-28T08:59:07.940000+00:00</time>
      </trkpt>
      <trkpt lat="0" lon="0">
        <time>2021-02-28T08:59:07.944000+00:00</time>
      </trkpt>
      <trkpt lat="0" lon="0">
        <time>2021-02-28T08:59:07.948000+00:00</time>
      </trkpt>
      <trkpt lat="47.32745" lon="-1.42932">
        <ele>87</ele>
        <time>2021-02-28T08:59:08.954000+00:00</time>
      </trkpt>
      <trkpt lat="0" lon="0">
        <time>2021-02-28T08:59:08.961000+00:00</time>
      </trkpt>
      <trkpt lat="0" lon="0">
        <time>2021-02-28T08:59:08.966000+00:00</time>
      </trkpt>
      <trkpt lat="0" lon="0">
        <time>2021-02-28T08:59:08.969000+00:00</time>
      </trkpt>
      <trkpt lat="47.3275" lon="-1.42936">
        <ele>87</ele>
        <time>2021-02-28T08:59:09.974000+00:00</time>
      </trkpt>
      <trkpt lat="0" lon="0">
        <time>2021-02-28T08:59:09.988000+00:00</time>
      </trkpt>
      <trkpt lat="0" lon="0">
        <time>2021-02-28T08:59:09.993000+00:00</time>
      </trkpt>
      <trkpt lat="0" lon="0">
        <time>2021-02-28T08:59:09.996000+00:00</time>
      </trkpt>
      <trkpt lat="47.32755" lon="-1.4294">
        <ele>87</ele>
        <time>2021-02-28T08:59:10.922000+00:00</time>
      </trkpt>
      <trkpt lat="0" lon="0">
        <time>2021-02-28T08:59:10.926000+00:00</time>
      </trkpt>
      <trkpt lat="0" lon="0">
        <time>2021-02-28T08:59:10.938000+00:00</time>
      </trkpt>
      <trkpt lat="0" lon="0">
        <time>2021-02-28T08:59:10.940000+00:00</time>
      </trkpt>
      <trkpt lat="47.3276" lon="-1.42944">
        <ele>88</ele>
        <time>2021-02-28T08:59:11.984000+00:00</time>
      </trkpt>
      <trkpt lat="0" lon="0">
        <time>2021-02-28T08:59:11.992000+00:00</time>
      </trkpt>
      <trkpt lat="0" lon="0">
        <time>2021-02-28T08:59:12+00:00</time>
      </trkpt>
      <trkpt lat="0" lon="0">
        <time>2021-02-28T08:59:12.006000+00:00</time>
      </trkpt>
      <trkpt lat="47.32765" lon="-1.42948">
        <ele>89</ele>
        <time>2021-02-28T08:59:12.929000+00:00</time>
      </trkpt>
      <trkpt lat="0" lon="0">
        <time>2021-02-28T08:59:12.933000+00:00</time>
      </trkpt>
      <trkpt lat="0" lon="0">
        <time>2021-02-28T08:59:12.942000+00:00</time>
      </trkpt>
      <trkpt lat="0" lon="0">
        <time>2021-02-28T08:59:12.944000+00:00</time>
      </trkpt>
      <trkpt lat="47.3277" lon="-1.42952">
        <ele>88</ele>
        <time>2021-02-28T08:59:13.946000+00:00</time>
      </trkpt>
      <trkpt lat="0" lon="0">
        <time>2021-02-28T08:59:13.955000+00:00</time>
      </trkpt>
      <trkpt lat="0" lon="0">
        <time>2021-02-28T08:59:13.960000+00:00</time>
      </trkpt>
      <trkpt lat="0" lon="0">
        <time>2021-02-28T08:59:13.962000+00:00</time>
      </trkpt>
      <trkpt lat="47.32776" lon="-1.42955">
        <ele>88</ele>
        <time>2021-02-28T08:59:14.955000+00:00</time>
      </trkpt>
      <trkpt lat="0" lon="0">
        <time>2021-02-28T08:59:14.961000+00:00</time>
      </trkpt>
      <trkpt lat="0" lon="0">
        <time>2021-02-28T08:59:14.966000+00:00</time>
      </trkpt>
      <trkpt lat="0" lon="0">
        <time>2021-02-28T08:59:14.970000+00:00</time>
      </trkpt>
      <trkpt lat="47.32781" lon="-1.42959">
        <ele>88</ele>
        <time>2021-02-28T08:59:15.935000+00:00</time>
      </trkpt>
      <trkpt lat="0" lon="0">
        <time>2021-02-28T08:59:15.941000+00:00</time>
      </trkpt>
      <trkpt lat="0" lon="0">
        <time>2021-02-28T08:59:15.946000+00:00</time>
      </trkpt>
      <trkpt lat="0" lon="0">
        <time>2021-02-28T08:59:15.948000+00:00</time>
      </trkpt>
      <trkpt lat="47.32786" lon="-1.42963">
        <ele>88</ele>
        <time>2021-02-28T08:59:16.943000+00:00</time>
      </trkpt>
      <trkpt lat="0" lon="0">
        <time>2021-02-28T08:59:16.949000+00:00</time>
      </trkpt>
      <trkpt lat="0" lon="0">
        <time>2021-02-28T08:59:16.953000+00:00</time>
      </trkpt>
      <trkpt lat="0" lon="0">
        <time>2021-02-28T08:59:16.956000+00:00</time>
      </trkpt>
      <trkpt lat="47.32792" lon="-1.42967">
        <ele>88</ele>
        <time>2021-02-28T08:59:17.994000+00:00</time>
      </trkpt>
      <trkpt lat="0" lon="0">
        <time>2021-02-28T08:59:18.001000+00:00</time>
      </trkpt>
      <trkpt lat="0" lon="0">
        <time>2021-02-28T08:59:18.009000+00:00</time>
      </trkpt>
      <trkpt lat="0" lon="0">
        <time>2021-02-28T08:59:18.013000+00:00</time>
      </trkpt>
      <trkpt lat="47.32797" lon="-1.42972">
        <ele>89</ele>
        <time>2021-02-28T08:59:18.960000+00:00</time>
      </trkpt>
      <trkpt lat="0" lon="0">
        <time>2021-02-28T08:59:18.976000+00:00</time>
      </trkpt>
      <trkpt lat="0" lon="0">
        <time>2021-02-28T08:59:18.980000+00:00</time>
      </trkpt>
      <trkpt lat="0" lon="0">
        <time>2021-02-28T08:59:18.982000+00:00</time>
      </trkpt>
      <trkpt lat="47.32803" lon="-1.42977">
        <ele>88</ele>
        <time>2021-02-28T08:59:19.955000+00:00</time>
      </trkpt>
      <trkpt lat="0" lon="0">
        <time>2021-02-28T08:59:19.962000+00:00</time>
      </trkpt>
      <trkpt lat="0" lon="0">
        <time>2021-02-28T08:59:19.968000+00:00</time>
      </trkpt>
      <trkpt lat="0" lon="0">
        <time>2021-02-28T08:59:19.970000+00:00</time>
      </trkpt>
      <trkpt lat="47.32808" lon="-1.42982">
        <ele>88</ele>
        <time>2021-02-28T08:59:20.974000+00:00</time>
      </trkpt>
      <trkpt lat="0" lon="0">
        <time>2021-02-28T08:59:20.985000+00:00</time>
      </trkpt>
      <trkpt lat="0" lon="0">
        <time>2021-02-28T08:59:20.990000+00:00</time>
      </trkpt>
      <trkpt lat="0" lon="0">
        <time>2021-02-28T08:59:20.994000+00:00</time>
      </trkpt>
      <trkpt lat="47.32813" lon="-1.42988">
        <ele>88</ele>
        <time>2021-02-28T08:59:21.988000+00:00</time>
      </trkpt>
      <trkpt lat="0" lon="0">
        <time>2021-02-28T08:59:21.995000+00:00</time>
      </trkpt>
      <trkpt lat="0" lon="0">
        <time>2021-02-28T08:59:22.001000+00:00</time>
      </trkpt>
      <trkpt lat="0" lon="0">
        <time>2021-02-28T08:59:22.005000+00:00</time>
      </trkpt>
      <trkpt lat="47.32818" lon="-1.42993">
        <ele>88</ele>
        <time>2021-02-28T08:59:22.940000+00:00</time>
      </trkpt>
      <trkpt lat="0" lon="0">
        <time>2021-02-28T08:59:22.951000+00:00</time>
      </trkpt>
      <trkpt lat="0" lon="0">
        <time>2021-02-28T08:59:22.956000+00:00</time>
      </trkpt>
      <trkpt lat="0" lon="0">
        <time>2021-02-28T08:59:22.959000+00:00</time>
      </trkpt>
      <trkpt lat="47.32823" lon="-1.42998">
        <ele>88</ele>
        <time>2021-02-28T08:59:23.941000+00:00</time>
      </trkpt>
      <trkpt lat="0" lon="0">
        <time>2021-02-28T08:59:23.950000+00:00</time>
      </trkpt>
      <trkpt lat="0" lon="0">
        <time>2021-02-28T08:59:23.955000+00:00</time>
      </trkpt>
      <trkpt lat="0" lon="0">
        <time>2021-02-28T08:59:23.958000+00:00</time>
      </trkpt>
      <trkpt lat="47.32828" lon="-1.43004">
        <ele>88</ele>
        <time>2021-02-28T08:59:24.940000+00:00</time>
      </trkpt>
      <trkpt lat="0" lon="0">
        <time>2021-02-28T08:59:24.943000+00:00</time>
      </trkpt>
      <trkpt lat="0" lon="0">
        <time>2021-02-28T08:59:24.946000+00:00</time>
      </trkpt>
      <trkpt lat="0" lon="0">
        <time>2021-02-28T08:59:24.947000+00:00</time>
      </trkpt>
      <trkpt lat="47.32832" lon="-1.43009">
        <ele>88</ele>
        <time>2021-02-28T08:59:25.962000+00:00</time>
      </trkpt>
      <trkpt lat="0" lon="0">
        <time>2021-02-28T08:59:25.968000+00:00</time>
      </trkpt>
      <trkpt lat="0" lon="0">
        <time>2021-02-28T08:59:25.971000+00:00</time>
      </trkpt>
      <trkpt lat="0" lon="0">
        <time>2021-02-28T08:59:25.972000+00:00</time>
      </trkpt>
      <trkpt lat="47.32836" lon="-1.43014">
        <ele>88</ele>
        <time>2021-02-28T08:59:26.973000+00:00</time>
      </trkpt>
      <trkpt lat="0" lon="0">
        <time>2021-02-28T08:59:26.983000+00:00</time>
      </trkpt>
      <trkpt lat="0" lon="0">
        <time>2021-02-28T08:59:26.988000+00:00</time>
      </trkpt>
      <trkpt lat="0" lon="0">
        <time>2021-02-28T08:59:26.990000+00:00</time>
      </trkpt>
      <trkpt lat="47.3284" lon="-1.43018">
        <ele>88</ele>
        <time>2021-02-28T08:59:27.964000+00:00</time>
      </trkpt>
      <trkpt lat="0" lon="0">
        <time>2021-02-28T08:59:27.977000+00:00</time>
      </trkpt>
      <trkpt lat="0" lon="0">
        <time>2021-02-28T08:59:27.982000+00:00</time>
      </trkpt>
      <trkpt lat="0" lon="0">
        <time>2021-02-28T08:59:27.985000+00:00</time>
      </trkpt>
      <trkpt lat="47.32844" lon="-1.43023">
        <ele>89</ele>
        <time>2021-02-28T08:59:28.979000+00:00</time>
      </trkpt>
      <trkpt lat="0" lon="0">
        <time>2021-02-28T08:59:28.992000+00:00</time>
      </trkpt>
      <trkpt lat="0" lon="0">
        <time>2021-02-28T08:59:28.998000+00:00</time>
      </trkpt>
      <trkpt lat="0" lon="0">
        <time>2021-02-28T08:59:29+00:00</time>
      </trkpt>
      <trkpt lat="47.32847" lon="-1.43027">
        <ele>89</ele>
        <time>2021-02-28T08:59:29.984000+00:00</time>
      </trkpt>
      <trkpt lat="0" lon="0">
        <time>2021-02-28T08:59:29.990000+00:00</time>
      </trkpt>
      <trkpt lat="0" lon="0">
        <time>2021-02-28T08:59:29.996000+00:00</time>
      </trkpt>
      <trkpt lat="0" lon="0">
        <time>2021-02-28T08:59:29.999000+00:00</time>
      </trkpt>
      <trkpt lat="47.3285" lon="-1.43032">
        <ele>89</ele>
        <time>2021-02-28T08:59:30.972000+00:00</time>
      </trkpt>
      <trkpt lat="0" lon="0">
        <time>2021-02-28T08:59:30.975000+00:00</time>
      </trkpt>
      <trkpt lat="0" lon="0">
        <time>2021-02-28T08:59:30.977000+00:00</time>
      </trkpt>
      <trkpt lat="0" lon="0">
        <time>2021-02-28T08:59:30.978000+00:00</time>
      </trkpt>
      <trkpt lat="47.32853" lon="-1.43036">
        <ele>89</ele>
        <time>2021-02-28T08:59:31.970000+00:00</time>
      </trkpt>
      <trkpt lat="0" lon="0">
        <time>2021-02-28T08:59:31.976000+00:00</time>
      </trkpt>
      <trkpt lat="0" lon="0">
        <time>2021-02-28T08:59:31.982000+00:00</time>
      </trkpt>
      <trkpt lat="0" lon="0">
        <time>2021-02-28T08:59:31.985000+00:00</time>
      </trkpt>
      <trkpt lat="47.32856" lon="-1.43041">
        <ele>89</ele>
        <time>2021-02-28T08:59:32.937000+00:00</time>
      </trkpt>
      <trkpt lat="0" lon="0">
        <time>2021-02-28T08:59:32.941000+00:00</time>
      </trkpt>
      <trkpt lat="0" lon="0">
        <time>2021-02-28T08:59:32.945000+00:00</time>
      </trkpt>
      <trkpt lat="0" lon="0">
        <time>2021-02-28T08:59:32.947000+00:00</time>
      </trkpt>
      <trkpt lat="47.3286" lon="-1.43045">
        <ele>89</ele>
        <time>2021-02-28T08:59:33.899000+00:00</time>
      </trkpt>
      <trkpt lat="0" lon="0">
        <time>2021-02-28T08:59:33.907000+00:00</time>
      </trkpt>
      <trkpt lat="0" lon="0">
        <time>2021-02-28T08:59:33.911000+00:00</time>
      </trkpt>
      <trkpt lat="0" lon="0">
        <time>2021-02-28T08:59:33.913000+00:00</time>
      </trkpt>
      <trkpt lat="47.32863" lon="-1.43049">
        <ele>88</ele>
        <time>2021-02-28T08:59:34.950000+00:00</time>
      </trkpt>
      <trkpt lat="0" lon="0">
        <time>2021-02-28T08:59:34.954000+00:00</time>
      </trkpt>
      <trkpt lat="0" lon="0">
        <time>2021-02-28T08:59:34.959000+00:00</time>
      </trkpt>
      <trkpt lat="0" lon="0">
        <time>2021-02-28T08:59:34.961000+00:00</time>
      </trkpt>
      <trkpt lat="47.32867" lon="-1.43053">
        <ele>89</ele>
        <time>2021-02-28T08:59:35.972000+00:00</time>
      </trkpt>
      <trkpt lat="0" lon="0">
        <time>2021-02-28T08:59:35.988000+00:00</time>
      </trkpt>
      <trkpt lat="0" lon="0">
        <time>2021-02-28T08:59:35.996000+00:00</time>
      </trkpt>
      <trkpt lat="0" lon="0">
        <time>2021-02-28T08:59:36.004000+00:00</time>
      </trkpt>
      <trkpt lat="47.32871" lon="-1.43056">
        <ele>89</ele>
        <time>2021-02-28T08:59:36.945000+00:00</time>
      </trkpt>
      <trkpt lat="0" lon="0">
        <time>2021-02-28T08:59:36.951000+00:00</time>
      </trkpt>
      <trkpt lat="0" lon="0">
        <time>2021-02-28T08:59:36.955000+00:00</time>
      </trkpt>
      <trkpt lat="0" lon="0">
        <time>2021-02-28T08:59:36.957000+00:00</time>
      </trkpt>
      <trkpt lat="47.32874" lon="-1.43058">
        <ele>89</ele>
        <time>2021-02-28T08:59:37.955000+00:00</time>
      </trkpt>
      <trkpt lat="0" lon="0">
        <time>2021-02-28T08:59:37.975000+00:00</time>
      </trkpt>
      <trkpt lat="0" lon="0">
        <time>2021-02-28T08:59:37.983000+00:00</time>
      </trkpt>
      <trkpt lat="0" lon="0">
        <time>2021-02-28T08:59:37.987000+00:00</time>
      </trkpt>
      <trkpt lat="47.32878" lon="-1.4306">
        <ele>89</ele>
        <time>2021-02-28T08:59:38.966000+00:00</time>
      </trkpt>
      <trkpt lat="0" lon="0">
        <time>2021-02-28T08:59:38.975000+00:00</time>
      </trkpt>
      <trkpt lat="0" lon="0">
        <time>2021-02-28T08:59:38.981000+00:00</time>
      </trkpt>
      <trkpt lat="0" lon="0">
        <time>2021-02-28T08:59:38.985000+00:00</time>
      </trkpt>
      <trkpt lat="47.32881" lon="-1.43062">
        <ele>88</ele>
        <time>2021-02-28T08:59:39.977000+00:00</time>
      </trkpt>
      <trkpt lat="0" lon="0">
        <time>2021-02-28T08:59:39.986000+00:00</time>
      </trkpt>
      <trkpt lat="0" lon="0">
        <time>2021-02-28T08:59:39.994000+00:00</time>
      </trkpt>
      <trkpt lat="0" lon="0">
        <time>2021-02-28T08:59:39.996000+00:00</time>
      </trkpt>
      <trkpt lat="47.32884" lon="-1.43062">
        <ele>88</ele>
        <time>2021-02-28T08:59:40.965000+00:00</time>
      </trkpt>
      <trkpt lat="0" lon="0">
        <time>2021-02-28T08:59:40.973000+00:00</time>
      </trkpt>
      <trkpt lat="0" lon="0">
        <time>2021-02-28T08:59:40.979000+00:00</time>
      </trkpt>
      <trkpt lat="0" lon="0">
        <time>2021-02-28T08:59:40.982000+00:00</time>
      </trkpt>
      <trkpt lat="47.32887" lon="-1.43063">
        <ele>88</ele>
        <time>2021-02-28T08:59:41.941000+00:00</time>
      </trkpt>
      <trkpt lat="0" lon="0">
        <time>2021-02-28T08:59:41.950000+00:00</time>
      </trkpt>
      <trkpt lat="0" lon="0">
        <time>2021-02-28T08:59:41.955000+00:00</time>
      </trkpt>
      <trkpt lat="0" lon="0">
        <time>2021-02-28T08:59:41.957000+00:00</time>
      </trkpt>
      <trkpt lat="47.3289" lon="-1.43063">
        <ele>88</ele>
        <time>2021-02-28T08:59:42.950000+00:00</time>
      </trkpt>
      <trkpt lat="0" lon="0">
        <time>2021-02-28T08:59:42.957000+00:00</time>
      </trkpt>
      <trkpt lat="0" lon="0">
        <time>2021-02-28T08:59:42.962000+00:00</time>
      </trkpt>
      <trkpt lat="0" lon="0">
        <time>2021-02-28T08:59:42.965000+00:00</time>
      </trkpt>
      <trkpt lat="47.32892" lon="-1.43064">
        <ele>89</ele>
        <time>2021-02-28T08:59:43.934000+00:00</time>
      </trkpt>
      <trkpt lat="0" lon="0">
        <time>2021-02-28T08:59:43.949000+00:00</time>
      </trkpt>
      <trkpt lat="0" lon="0">
        <time>2021-02-28T08:59:43.954000+00:00</time>
      </trkpt>
      <trkpt lat="0" lon="0">
        <time>2021-02-28T08:59:43.956000+00:00</time>
      </trkpt>
      <trkpt lat="47.32895" lon="-1.43065">
        <ele>88</ele>
        <time>2021-02-28T08:59:44.961000+00:00</time>
      </trkpt>
      <trkpt lat="0" lon="0">
        <time>2021-02-28T08:59:44.971000+00:00</time>
      </trkpt>
      <trkpt lat="0" lon="0">
        <time>2021-02-28T08:59:44.980000+00:00</time>
      </trkpt>
      <trkpt lat="0" lon="0">
        <time>2021-02-28T08:59:44.983000+00:00</time>
      </trkpt>
      <trkpt lat="47.32897" lon="-1.43065">
        <ele>89</ele>
        <time>2021-02-28T08:59:45.962000+00:00</time>
      </trkpt>
      <trkpt lat="0" lon="0">
        <time>2021-02-28T08:59:45.969000+00:00</time>
      </trkpt>
      <trkpt lat="0" lon="0">
        <time>2021-02-28T08:59:45.976000+00:00</time>
      </trkpt>
      <trkpt lat="0" lon="0">
        <time>2021-02-28T08:59:45.981000+00:00</time>
      </trkpt>
      <trkpt lat="47.329" lon="-1.43065">
        <ele>89</ele>
        <time>2021-02-28T08:59:46.963000+00:00</time>
      </trkpt>
      <trkpt lat="0" lon="0">
        <time>2021-02-28T08:59:46.974000+00:00</time>
      </trkpt>
      <trkpt lat="0" lon="0">
        <time>2021-02-28T08:59:46.982000+00:00</time>
      </trkpt>
      <trkpt lat="0" lon="0">
        <time>2021-02-28T08:59:46.985000+00:00</time>
      </trkpt>
      <trkpt lat="47.32903" lon="-1.43065">
        <ele>89</ele>
        <time>2021-02-28T08:59:47.917000+00:00</time>
      </trkpt>
      <trkpt lat="0" lon="0">
        <time>2021-02-28T08:59:47.923000+00:00</time>
      </trkpt>
      <trkpt lat="0" lon="0">
        <time>2021-02-28T08:59:47.928000+00:00</time>
      </trkpt>
      <trkpt lat="0" lon="0">
        <time>2021-02-28T08:59:47.931000+00:00</time>
      </trkpt>
      <trkpt lat="47.32905" lon="-1.43065">
        <ele>90</ele>
        <time>2021-02-28T08:59:48.909000+00:00</time>
      </trkpt>
      <trkpt lat="0" lon="0">
        <time>2021-02-28T08:59:48.916000+00:00</time>
      </trkpt>
      <trkpt lat="0" lon="0">
        <time>2021-02-28T08:59:48.920000+00:00</time>
      </trkpt>
      <trkpt lat="0" lon="0">
        <time>2021-02-28T08:59:48.922000+00:00</time>
      </trkpt>
      <trkpt lat="47.32908" lon="-1.43065">
        <ele>90</ele>
        <time>2021-02-28T08:59:49.958000+00:00</time>
      </trkpt>
      <trkpt lat="0" lon="0">
        <time>2021-02-28T08:59:49.968000+00:00</time>
      </trkpt>
      <trkpt lat="0" lon="0">
        <time>2021-02-28T08:59:49.972000+00:00</time>
      </trkpt>
      <trkpt lat="0" lon="0">
        <time>2021-02-28T08:59:49.974000+00:00</time>
      </trkpt>
      <trkpt lat="47.3291" lon="-1.43065">
        <ele>90</ele>
        <time>2021-02-28T08:59:50.887000+00:00</time>
      </trkpt>
      <trkpt lat="0" lon="0">
        <time>2021-02-28T08:59:50.900000+00:00</time>
      </trkpt>
      <trkpt lat="0" lon="0">
        <time>2021-02-28T08:59:50.907000+00:00</time>
      </trkpt>
      <trkpt lat="0" lon="0">
        <time>2021-02-28T08:59:50.909000+00:00</time>
      </trkpt>
      <trkpt lat="47.32912" lon="-1.43066">
        <ele>90</ele>
        <time>2021-02-28T08:59:51.914000+00:00</time>
      </trkpt>
      <trkpt lat="0" lon="0">
        <time>2021-02-28T08:59:51.919000+00:00</time>
      </trkpt>
      <trkpt lat="0" lon="0">
        <time>2021-02-28T08:59:51.924000+00:00</time>
      </trkpt>
      <trkpt lat="0" lon="0">
        <time>2021-02-28T08:59:51.928000+00:00</time>
      </trkpt>
      <trkpt lat="47.32915" lon="-1.43066">
        <ele>90</ele>
        <time>2021-02-28T08:59:52.911000+00:00</time>
      </trkpt>
      <trkpt lat="0" lon="0">
        <time>2021-02-28T08:59:52.925000+00:00</time>
      </trkpt>
      <trkpt lat="0" lon="0">
        <time>2021-02-28T08:59:52.931000+00:00</time>
      </trkpt>
      <trkpt lat="0" lon="0">
        <time>2021-02-28T08:59:52.934000+00:00</time>
      </trkpt>
      <trkpt lat="47.32917" lon="-1.43067">
        <ele>90</ele>
        <time>2021-02-28T08:59:53.947000+00:00</time>
      </trkpt>
      <trkpt lat="0" lon="0">
        <time>2021-02-28T08:59:53.957000+00:00</time>
      </trkpt>
      <trkpt lat="0" lon="0">
        <time>2021-02-28T08:59:53.965000+00:00</time>
      </trkpt>
      <trkpt lat="0" lon="0">
        <time>2021-02-28T08:59:53.968000+00:00</time>
      </trkpt>
      <trkpt lat="47.32919" lon="-1.43068">
        <ele>91</ele>
        <time>2021-02-28T08:59:54.951000+00:00</time>
      </trkpt>
      <trkpt lat="0" lon="0">
        <time>2021-02-28T08:59:54.962000+00:00</time>
      </trkpt>
      <trkpt lat="0" lon="0">
        <time>2021-02-28T08:59:54.968000+00:00</time>
      </trkpt>
      <trkpt lat="0" lon="0">
        <time>2021-02-28T08:59:54.971000+00:00</time>
      </trkpt>
      <trkpt lat="47.32921" lon="-1.43069">
        <ele>91</ele>
        <time>2021-02-28T08:59:55.953000+00:00</time>
      </trkpt>
      <trkpt lat="0" lon="0">
        <time>2021-02-28T08:59:55.974000+00:00</time>
      </trkpt>
      <trkpt lat="0" lon="0">
        <time>2021-02-28T08:59:55.980000+00:00</time>
      </trkpt>
      <trkpt lat="0" lon="0">
        <time>2021-02-28T08:59:55.984000+00:00</time>
      </trkpt>
      <trkpt lat="47.32924" lon="-1.43071">
        <ele>92</ele>
        <time>2021-02-28T08:59:56.951000+00:00</time>
      </trkpt>
      <trkpt lat="0" lon="0">
        <time>2021-02-28T08:59:56.961000+00:00</time>
      </trkpt>
      <trkpt lat="0" lon="0">
        <time>2021-02-28T08:59:56.968000+00:00</time>
      </trkpt>
      <trkpt lat="0" lon="0">
        <time>2021-02-28T08:59:56.971000+00:00</time>
      </trkpt>
      <trkpt lat="47.32926" lon="-1.43072">
        <ele>92</ele>
        <time>2021-02-28T08:59:57.961000+00:00</time>
      </trkpt>
      <trkpt lat="0" lon="0">
        <time>2021-02-28T08:59:57.966000+00:00</time>
      </trkpt>
      <trkpt lat="0" lon="0">
        <time>2021-02-28T08:59:57.970000+00:00</time>
      </trkpt>
      <trkpt lat="0" lon="0">
        <time>2021-02-28T08:59:57.973000+00:00</time>
      </trkpt>
      <trkpt lat="47.32928" lon="-1.43074">
        <ele>92</ele>
        <time>2021-02-28T08:59:58.920000+00:00</time>
      </trkpt>
      <trkpt lat="0" lon="0">
        <time>2021-02-28T08:59:58.926000+00:00</time>
      </trkpt>
      <trkpt lat="0" lon="0">
        <time>2021-02-28T08:59:58.931000+00:00</time>
      </trkpt>
      <trkpt lat="0" lon="0">
        <time>2021-02-28T08:59:58.934000+00:00</time>
      </trkpt>
      <trkpt lat="47.3293" lon="-1.43075">
        <ele>92</ele>
        <time>2021-02-28T08:59:59.919000+00:00</time>
      </trkpt>
      <trkpt lat="0" lon="0">
        <time>2021-02-28T08:59:59.926000+00:00</time>
      </trkpt>
      <trkpt lat="0" lon="0">
        <time>2021-02-28T08:59:59.932000+00:00</time>
      </trkpt>
      <trkpt lat="0" lon="0">
        <time>2021-02-28T08:59:59.935000+00:00</time>
      </trkpt>
      <trkpt lat="47.32932" lon="-1.43076">
        <ele>92</ele>
        <time>2021-02-28T09:00:00.912000+00:00</time>
      </trkpt>
      <trkpt lat="0" lon="0">
        <time>2021-02-28T09:00:00.920000+00:00</time>
      </trkpt>
      <trkpt lat="0" lon="0">
        <time>2021-02-28T09:00:00.926000+00:00</time>
      </trkpt>
      <trkpt lat="0" lon="0">
        <time>2021-02-28T09:00:00.929000+00:00</time>
      </trkpt>
      <trkpt lat="47.32934" lon="-1.43077">
        <ele>92</ele>
        <time>2021-02-28T09:00:01.935000+00:00</time>
      </trkpt>
      <trkpt lat="0" lon="0">
        <time>2021-02-28T09:00:01.945000+00:00</time>
      </trkpt>
      <trkpt lat="0" lon="0">
        <time>2021-02-28T09:00:01.950000+00:00</time>
      </trkpt>
      <trkpt lat="0" lon="0">
        <time>2021-02-28T09:00:01.953000+00:00</time>
      </trkpt>
      <trkpt lat="47.32935" lon="-1.43078">
        <ele>92</ele>
        <time>2021-02-28T09:00:02.933000+00:00</time>
      </trkpt>
      <trkpt lat="0" lon="0">
        <time>2021-02-28T09:00:02.948000+00:00</time>
      </trkpt>
      <trkpt lat="0" lon="0">
        <time>2021-02-28T09:00:02.953000+00:00</time>
      </trkpt>
      <trkpt lat="0" lon="0">
        <time>2021-02-28T09:00:02.956000+00:00</time>
      </trkpt>
      <trkpt lat="47.32936" lon="-1.43079">
        <ele>92</ele>
        <time>2021-02-28T09:00:03.930000+00:00</time>
      </trkpt>
      <trkpt lat="0" lon="0">
        <time>2021-02-28T09:00:03.936000+00:00</time>
      </trkpt>
      <trkpt lat="0" lon="0">
        <time>2021-02-28T09:00:03.942000+00:00</time>
      </trkpt>
      <trkpt lat="0" lon="0">
        <time>2021-02-28T09:00:03.945000+00:00</time>
      </trkpt>
      <trkpt lat="47.32937" lon="-1.4308">
        <ele>92</ele>
        <time>2021-02-28T09:00:04.952000+00:00</time>
      </trkpt>
      <trkpt lat="0" lon="0">
        <time>2021-02-28T09:00:04.964000+00:00</time>
      </trkpt>
      <trkpt lat="0" lon="0">
        <time>2021-02-28T09:00:04.971000+00:00</time>
      </trkpt>
      <trkpt lat="0" lon="0">
        <time>2021-02-28T09:00:04.976000+00:00</time>
      </trkpt>
      <trkpt lat="47.32938" lon="-1.43082">
        <ele>91</ele>
        <time>2021-02-28T09:00:05.956000+00:00</time>
      </trkpt>
      <trkpt lat="0" lon="0">
        <time>2021-02-28T09:00:05.964000+00:00</time>
      </trkpt>
      <trkpt lat="0" lon="0">
        <time>2021-02-28T09:00:05.969000+00:00</time>
      </trkpt>
      <trkpt lat="0" lon="0">
        <time>2021-02-28T09:00:05.971000+00:00</time>
      </trkpt>
      <trkpt lat="47.32939" lon="-1.43084">
        <ele>91</ele>
        <time>2021-02-28T09:00:06.964000+00:00</time>
      </trkpt>
      <trkpt lat="0" lon="0">
        <time>2021-02-28T09:00:06.977000+00:00</time>
      </trkpt>
      <trkpt lat="0" lon="0">
        <time>2021-02-28T09:00:06.987000+00:00</time>
      </trkpt>
      <trkpt lat="0" lon="0">
        <time>2021-02-28T09:00:06.991000+00:00</time>
      </trkpt>
      <trkpt lat="47.32939" lon="-1.43087">
        <ele>91</ele>
        <time>2021-02-28T09:00:07.923000+00:00</time>
      </trkpt>
      <trkpt lat="0" lon="0">
        <time>2021-02-28T09:00:07.931000+00:00</time>
      </trkpt>
      <trkpt lat="0" lon="0">
        <time>2021-02-28T09:00:07.936000+00:00</time>
      </trkpt>
      <trkpt lat="0" lon="0">
        <time>2021-02-28T09:00:07.940000+00:00</time>
      </trkpt>
      <trkpt lat="47.3294" lon="-1.4309">
        <ele>91</ele>
        <time>2021-02-28T09:00:08.957000+00:00</time>
      </trkpt>
      <trkpt lat="0" lon="0">
        <time>2021-02-28T09:00:08.962000+00:00</time>
      </trkpt>
      <trkpt lat="0" lon="0">
        <time>2021-02-28T09:00:08.967000+00:00</time>
      </trkpt>
      <trkpt lat="0" lon="0">
        <time>2021-02-28T09:00:08.970000+00:00</time>
      </trkpt>
      <trkpt lat="47.32942" lon="-1.43093">
        <ele>91</ele>
        <time>2021-02-28T09:00:09.938000+00:00</time>
      </trkpt>
      <trkpt lat="0" lon="0">
        <time>2021-02-28T09:00:09.945000+00:00</time>
      </trkpt>
      <trkpt lat="0" lon="0">
        <time>2021-02-28T09:00:09.952000+00:00</time>
      </trkpt>
      <trkpt lat="0" lon="0">
        <time>2021-02-28T09:00:09.956000+00:00</time>
      </trkpt>
      <trkpt lat="47.32944" lon="-1.43097">
        <ele>92</ele>
        <time>2021-02-28T09:00:10.925000+00:00</time>
      </trkpt>
      <trkpt lat="0" lon="0">
        <time>2021-02-28T09:00:10.929000+00:00</time>
      </trkpt>
      <trkpt lat="0" lon="0">
        <time>2021-02-28T09:00:10.933000+00:00</time>
      </trkpt>
      <trkpt lat="0" lon="0">
        <time>2021-02-28T09:00:10.936000+00:00</time>
      </trkpt>
      <trkpt lat="47.32946" lon="-1.43102">
        <ele>92</ele>
        <time>2021-02-28T09:00:11.934000+00:00</time>
      </trkpt>
      <trkpt lat="0" lon="0">
        <time>2021-02-28T09:00:11.939000+00:00</time>
      </trkpt>
      <trkpt lat="0" lon="0">
        <time>2021-02-28T09:00:11.952000+00:00</time>
      </trkpt>
      <trkpt lat="0" lon="0">
        <time>2021-02-28T09:00:11.954000+00:00</time>
      </trkpt>
      <trkpt lat="47.32948" lon="-1.43107">
        <ele>92</ele>
        <time>2021-02-28T09:00:12.919000+00:00</time>
      </trkpt>
      <trkpt lat="0" lon="0">
        <time>2021-02-28T09:00:12.926000+00:00</time>
      </trkpt>
      <trkpt lat="0" lon="0">
        <time>2021-02-28T09:00:12.930000+00:00</time>
      </trkpt>
      <trkpt lat="0" lon="0">
        <time>2021-02-28T09:00:12.932000+00:00</time>
      </trkpt>
      <trkpt lat="47.3295" lon="-1.43111">
        <ele>92</ele>
        <time>2021-02-28T09:00:13.975000+00:00</time>
      </trkpt>
      <trkpt lat="0" lon="0">
        <time>2021-02-28T09:00:13.984000+00:00</time>
      </trkpt>
      <trkpt lat="0" lon="0">
        <time>2021-02-28T09:00:13.988000+00:00</time>
      </trkpt>
      <trkpt lat="0" lon="0">
        <time>2021-02-28T09:00:13.990000+00:00</time>
      </trkpt>
      <trkpt lat="47.32953" lon="-1.43116">
        <ele>92</ele>
        <time>2021-02-28T09:00:14.961000+00:00</time>
      </trkpt>
      <trkpt lat="0" lon="0">
        <time>2021-02-28T09:00:14.966000+00:00</time>
      </trkpt>
      <trkpt lat="0" lon="0">
        <time>2021-02-28T09:00:14.970000+00:00</time>
      </trkpt>
      <trkpt lat="0" lon="0">
        <time>2021-02-28T09:00:14.973000+00:00</time>
      </trkpt>
      <trkpt lat="47.32956" lon="-1.43121">
        <ele>92</ele>
        <time>2021-02-28T09:00:15.964000+00:00</time>
      </trkpt>
      <trkpt lat="0" lon="0">
        <time>2021-02-28T09:00:15.971000+00:00</time>
      </trkpt>
      <trkpt lat="0" lon="0">
        <time>2021-02-28T09:00:15.976000+00:00</time>
      </trkpt>
      <trkpt lat="0" lon="0">
        <time>2021-02-28T09:00:15.979000+00:00</time>
      </trkpt>
      <trkpt lat="47.32959" lon="-1.43125">
        <ele>93</ele>
        <time>2021-02-28T09:00:16.902000+00:00</time>
      </trkpt>
      <trkpt lat="0" lon="0">
        <time>2021-02-28T09:00:16.907000+00:00</time>
      </trkpt>
      <trkpt lat="0" lon="0">
        <time>2021-02-28T09:00:16.915000+00:00</time>
      </trkpt>
      <trkpt lat="0" lon="0">
        <time>2021-02-28T09:00:16.917000+00:00</time>
      </trkpt>
      <trkpt lat="47.32962" lon="-1.4313">
        <ele>93</ele>
        <time>2021-02-28T09:00:17.930000+00:00</time>
      </trkpt>
      <trkpt lat="0" lon="0">
        <time>2021-02-28T09:00:17.938000+00:00</time>
      </trkpt>
      <trkpt lat="0" lon="0">
        <time>2021-02-28T09:00:17.944000+00:00</time>
      </trkpt>
      <trkpt lat="0" lon="0">
        <time>2021-02-28T09:00:17.946000+00:00</time>
      </trkpt>
      <trkpt lat="47.32965" lon="-1.43134">
        <ele>93</ele>
        <time>2021-02-28T09:00:18.949000+00:00</time>
      </trkpt>
      <trkpt lat="0" lon="0">
        <time>2021-02-28T09:00:18.954000+00:00</time>
      </trkpt>
      <trkpt lat="0" lon="0">
        <time>2021-02-28T09:00:18.959000+00:00</time>
      </trkpt>
      <trkpt lat="0" lon="0">
        <time>2021-02-28T09:00:18.961000+00:00</time>
      </trkpt>
      <trkpt lat="47.32968" lon="-1.43139">
        <ele>93</ele>
        <time>2021-02-28T09:00:19.969000+00:00</time>
      </trkpt>
      <trkpt lat="0" lon="0">
        <time>2021-02-28T09:00:19.979000+00:00</time>
      </trkpt>
      <trkpt lat="0" lon="0">
        <time>2021-02-28T09:00:19.986000+00:00</time>
      </trkpt>
      <trkpt lat="0" lon="0">
        <time>2021-02-28T09:00:19.989000+00:00</time>
      </trkpt>
      <trkpt lat="47.32971" lon="-1.43143">
        <ele>93</ele>
        <time>2021-02-28T09:00:20.985000+00:00</time>
      </trkpt>
      <trkpt lat="0" lon="0">
        <time>2021-02-28T09:00:20.997000+00:00</time>
      </trkpt>
      <trkpt lat="0" lon="0">
        <time>2021-02-28T09:00:21.006000+00:00</time>
      </trkpt>
      <trkpt lat="0" lon="0">
        <time>2021-02-28T09:00:21.009000+00:00</time>
      </trkpt>
      <trkpt lat="47.32974" lon="-1.43147">
        <ele>92</ele>
        <time>2021-02-28T09:00:21.956000+00:00</time>
      </trkpt>
      <trkpt lat="0" lon="0">
        <time>2021-02-28T09:00:21.964000+00:00</time>
      </trkpt>
      <trkpt lat="0" lon="0">
        <time>2021-02-28T09:00:21.967000+00:00</time>
      </trkpt>
      <trkpt lat="0" lon="0">
        <time>2021-02-28T09:00:21.970000+00:00</time>
      </trkpt>
      <trkpt lat="47.32977" lon="-1.4315">
        <ele>92</ele>
        <time>2021-02-28T09:00:22.958000+00:00</time>
      </trkpt>
      <trkpt lat="0" lon="0">
        <time>2021-02-28T09:00:22.965000+00:00</time>
      </trkpt>
      <trkpt lat="0" lon="0">
        <time>2021-02-28T09:00:22.970000+00:00</time>
      </trkpt>
      <trkpt lat="0" lon="0">
        <time>2021-02-28T09:00:22.973000+00:00</time>
      </trkpt>
      <trkpt lat="47.3298" lon="-1.43153">
        <ele>93</ele>
        <time>2021-02-28T09:00:23.943000+00:00</time>
      </trkpt>
      <trkpt lat="0" lon="0">
        <time>2021-02-28T09:00:23.948000+00:00</time>
      </trkpt>
      <trkpt lat="0" lon="0">
        <time>2021-02-28T09:00:23.953000+00:00</time>
      </trkpt>
      <trkpt lat="0" lon="0">
        <time>2021-02-28T09:00:23.956000+00:00</time>
      </trkpt>
      <trkpt lat="47.32983" lon="-1.43156">
        <ele>93</ele>
        <time>2021-02-28T09:00:24.978000+00:00</time>
      </trkpt>
      <trkpt lat="0" lon="0">
        <time>2021-02-28T09:00:24.989000+00:00</time>
      </trkpt>
      <trkpt lat="0" lon="0">
        <time>2021-02-28T09:00:24.994000+00:00</time>
      </trkpt>
      <trkpt lat="0" lon="0">
        <time>2021-02-28T09:00:24.997000+00:00</time>
      </trkpt>
      <trkpt lat="47.32986" lon="-1.4316">
        <ele>93</ele>
        <time>2021-02-28T09:00:25.951000+00:00</time>
      </trkpt>
      <trkpt lat="0" lon="0">
        <time>2021-02-28T09:00:25.958000+00:00</time>
      </trkpt>
      <trkpt lat="0" lon="0">
        <time>2021-02-28T09:00:25.963000+00:00</time>
      </trkpt>
      <trkpt lat="0" lon="0">
        <time>2021-02-28T09:00:25.966000+00:00</time>
      </trkpt>
      <trkpt lat="47.32989" lon="-1.43163">
        <ele>93</ele>
        <time>2021-02-28T09:00:26.961000+00:00</time>
      </trkpt>
      <trkpt lat="0" lon="0">
        <time>2021-02-28T09:00:26.969000+00:00</time>
      </trkpt>
      <trkpt lat="0" lon="0">
        <time>2021-02-28T09:00:26.974000+00:00</time>
      </trkpt>
      <trkpt lat="0" lon="0">
        <time>2021-02-28T09:00:26.977000+00:00</time>
      </trkpt>
      <trkpt lat="47.32992" lon="-1.43166">
        <ele>94</ele>
        <time>2021-02-28T09:00:27.962000+00:00</time>
      </trkpt>
      <trkpt lat="0" lon="0">
        <time>2021-02-28T09:00:27.964000+00:00</time>
      </trkpt>
      <trkpt lat="0" lon="0">
        <time>2021-02-28T09:00:27.967000+00:00</time>
      </trkpt>
      <trkpt lat="0" lon="0">
        <time>2021-02-28T09:00:27.968000+00:00</time>
      </trkpt>
      <trkpt lat="47.32996" lon="-1.4317">
        <ele>93</ele>
        <time>2021-02-28T09:00:28.940000+00:00</time>
      </trkpt>
      <trkpt lat="0" lon="0">
        <time>2021-02-28T09:00:28.947000+00:00</time>
      </trkpt>
      <trkpt lat="0" lon="0">
        <time>2021-02-28T09:00:28.952000+00:00</time>
      </trkpt>
      <trkpt lat="0" lon="0">
        <time>2021-02-28T09:00:28.954000+00:00</time>
      </trkpt>
      <trkpt lat="47.32999" lon="-1.43174">
        <ele>93</ele>
        <time>2021-02-28T09:00:29.966000+00:00</time>
      </trkpt>
      <trkpt lat="0" lon="0">
        <time>2021-02-28T09:00:29.974000+00:00</time>
      </trkpt>
      <trkpt lat="0" lon="0">
        <time>2021-02-28T09:00:29.981000+00:00</time>
      </trkpt>
      <trkpt lat="0" lon="0">
        <time>2021-02-28T09:00:29.984000+00:00</time>
      </trkpt>
      <trkpt lat="47.33002" lon="-1.43177">
        <ele>93</ele>
        <time>2021-02-28T09:00:30.946000+00:00</time>
      </trkpt>
      <trkpt lat="0" lon="0">
        <time>2021-02-28T09:00:30.952000+00:00</time>
      </trkpt>
      <trkpt lat="0" lon="0">
        <time>2021-02-28T09:00:30.956000+00:00</time>
      </trkpt>
      <trkpt lat="0" lon="0">
        <time>2021-02-28T09:00:30.958000+00:00</time>
      </trkpt>
      <trkpt lat="47.33005" lon="-1.43181">
        <ele>93</ele>
        <time>2021-02-28T09:00:31.958000+00:00</time>
      </trkpt>
      <trkpt lat="0" lon="0">
        <time>2021-02-28T09:00:31.969000+00:00</time>
      </trkpt>
      <trkpt lat="0" lon="0">
        <time>2021-02-28T09:00:31.975000+00:00</time>
      </trkpt>
      <trkpt lat="0" lon="0">
        <time>2021-02-28T09:00:31.977000+00:00</time>
      </trkpt>
      <trkpt lat="47.33007" lon="-1.43185">
        <ele>94</ele>
        <time>2021-02-28T09:00:32.981000+00:00</time>
      </trkpt>
      <trkpt lat="0" lon="0">
        <time>2021-02-28T09:00:32.989000+00:00</time>
      </trkpt>
      <trkpt lat="0" lon="0">
        <time>2021-02-28T09:00:32.999000+00:00</time>
      </trkpt>
      <trkpt lat="0" lon="0">
        <time>2021-02-28T09:00:33.002000+00:00</time>
      </trkpt>
      <trkpt lat="47.33009" lon="-1.43188">
        <ele>94</ele>
        <time>2021-02-28T09:00:33.904000+00:00</time>
      </trkpt>
      <trkpt lat="0" lon="0">
        <time>2021-02-28T09:00:33.909000+00:00</time>
      </trkpt>
      <trkpt lat="0" lon="0">
        <time>2021-02-28T09:00:33.917000+00:00</time>
      </trkpt>
      <trkpt lat="0" lon="0">
        <time>2021-02-28T09:00:33.919000+00:00</time>
      </trkpt>
      <trkpt lat="47.33012" lon="-1.43191">
        <ele>94</ele>
        <time>2021-02-28T09:00:34.915000+00:00</time>
      </trkpt>
      <trkpt lat="0" lon="0">
        <time>2021-02-28T09:00:34.926000+00:00</time>
      </trkpt>
      <trkpt lat="0" lon="0">
        <time>2021-02-28T09:00:34.932000+00:00</time>
      </trkpt>
      <trkpt lat="0" lon="0">
        <time>2021-02-28T09:00:34.934000+00:00</time>
      </trkpt>
      <trkpt lat="47.33014" lon="-1.43194">
        <ele>94</ele>
        <time>2021-02-28T09:00:35.956000+00:00</time>
      </trkpt>
      <trkpt lat="0" lon="0">
        <time>2021-02-28T09:00:35.963000+00:00</time>
      </trkpt>
      <trkpt lat="0" lon="0">
        <time>2021-02-28T09:00:35.968000+00:00</time>
      </trkpt>
      <trkpt lat="0" lon="0">
        <time>2021-02-28T09:00:35.970000+00:00</time>
      </trkpt>
      <trkpt lat="47.33016" lon="-1.43198">
        <ele>94</ele>
        <time>2021-02-28T09:00:36.873000+00:00</time>
      </trkpt>
      <trkpt lat="0" lon="0">
        <time>2021-02-28T09:00:36.875000+00:00</time>
      </trkpt>
      <trkpt lat="0" lon="0">
        <time>2021-02-28T09:00:36.877000+00:00</time>
      </trkpt>
      <trkpt lat="0" lon="0">
        <time>2021-02-28T09:00:36.878000+00:00</time>
      </trkpt>
      <trkpt lat="47.33017" lon="-1.43201">
        <ele>94</ele>
        <time>2021-02-28T09:00:37.932000+00:00</time>
      </trkpt>
      <trkpt lat="0" lon="0">
        <time>2021-02-28T09:00:37.941000+00:00</time>
      </trkpt>
      <trkpt lat="0" lon="0">
        <time>2021-02-28T09:00:37.946000+00:00</time>
      </trkpt>
      <trkpt lat="0" lon="0">
        <time>2021-02-28T09:00:37.948000+00:00</time>
      </trkpt>
      <trkpt lat="47.33019" lon="-1.43205">
        <ele>94</ele>
        <time>2021-02-28T09:00:38.917000+00:00</time>
      </trkpt>
      <trkpt lat="0" lon="0">
        <time>2021-02-28T09:00:38.929000+00:00</time>
      </trkpt>
      <trkpt lat="0" lon="0">
        <time>2021-02-28T09:00:38.934000+00:00</time>
      </trkpt>
      <trkpt lat="0" lon="0">
        <time>2021-02-28T09:00:38.939000+00:00</time>
      </trkpt>
      <trkpt lat="47.33021" lon="-1.43208">
        <ele>94</ele>
        <time>2021-02-28T09:00:39.952000+00:00</time>
      </trkpt>
      <trkpt lat="0" lon="0">
        <time>2021-02-28T09:00:39.957000+00:00</time>
      </trkpt>
      <trkpt lat="0" lon="0">
        <time>2021-02-28T09:00:39.962000+00:00</time>
      </trkpt>
      <trkpt lat="0" lon="0">
        <time>2021-02-28T09:00:39.965000+00:00</time>
      </trkpt>
      <trkpt lat="47.33023" lon="-1.43212">
        <ele>94</ele>
        <time>2021-02-28T09:00:40.950000+00:00</time>
      </trkpt>
      <trkpt lat="0" lon="0">
        <time>2021-02-28T09:00:40.958000+00:00</time>
      </trkpt>
      <trkpt lat="0" lon="0">
        <time>2021-02-28T09:00:40.963000+00:00</time>
      </trkpt>
      <trkpt lat="0" lon="0">
        <time>2021-02-28T09:00:40.965000+00:00</time>
      </trkpt>
      <trkpt lat="47.33024" lon="-1.43215">
        <ele>94</ele>
        <time>2021-02-28T09:00:41.975000+00:00</time>
      </trkpt>
      <trkpt lat="0" lon="0">
        <time>2021-02-28T09:00:41.980000+00:00</time>
      </trkpt>
      <trkpt lat="0" lon="0">
        <time>2021-02-28T09:00:41.985000+00:00</time>
      </trkpt>
      <trkpt lat="0" lon="0">
        <time>2021-02-28T09:00:41.987000+00:00</time>
      </trkpt>
      <trkpt lat="47.33026" lon="-1.43219">
        <ele>94</ele>
        <time>2021-02-28T09:00:42.958000+00:00</time>
      </trkpt>
      <trkpt lat="0" lon="0">
        <time>2021-02-28T09:00:42.967000+00:00</time>
      </trkpt>
      <trkpt lat="0" lon="0">
        <time>2021-02-28T09:00:42.971000+00:00</time>
      </trkpt>
      <trkpt lat="0" lon="0">
        <time>2021-02-28T09:00:42.973000+00:00</time>
      </trkpt>
      <trkpt lat="47.33027" lon="-1.43222">
        <ele>94</ele>
        <time>2021-02-28T09:00:43.966000+00:00</time>
      </trkpt>
      <trkpt lat="0" lon="0">
        <time>2021-02-28T09:00:43.974000+00:00</time>
      </trkpt>
      <trkpt lat="0" lon="0">
        <time>2021-02-28T09:00:43.979000+00:00</time>
      </trkpt>
      <trkpt lat="0" lon="0">
        <time>2021-02-28T09:00:43.982000+00:00</time>
      </trkpt>
      <trkpt lat="47.33029" lon="-1.43225">
        <ele>94</ele>
        <time>2021-02-28T09:00:44.943000+00:00</time>
      </trkpt>
      <trkpt lat="0" lon="0">
        <time>2021-02-28T09:00:44.950000+00:00</time>
      </trkpt>
      <trkpt lat="0" lon="0">
        <time>2021-02-28T09:00:44.954000+00:00</time>
      </trkpt>
      <trkpt lat="0" lon="0">
        <time>2021-02-28T09:00:44.956000+00:00</time>
      </trkpt>
      <trkpt lat="47.3303" lon="-1.43228">
        <ele>94</ele>
        <time>2021-02-28T09:00:45.952000+00:00</time>
      </trkpt>
      <trkpt lat="0" lon="0">
        <time>2021-02-28T09:00:45.960000+00:00</time>
      </trkpt>
      <trkpt lat="0" lon="0">
        <time>2021-02-28T09:00:45.965000+00:00</time>
      </trkpt>
      <trkpt lat="0" lon="0">
        <time>2021-02-28T09:00:45.967000+00:00</time>
      </trkpt>
      <trkpt lat="47.33032" lon="-1.43232">
        <ele>95</ele>
        <time>2021-02-28T09:00:46.873000+00:00</time>
      </trkpt>
      <trkpt lat="0" lon="0">
        <time>2021-02-28T09:00:46.883000+00:00</time>
      </trkpt>
      <trkpt lat="0" lon="0">
        <time>2021-02-28T09:00:46.891000+00:00</time>
      </trkpt>
      <trkpt lat="0" lon="0">
        <time>2021-02-28T09:00:46.894000+00:00</time>
      </trkpt>
      <trkpt lat="47.33034" lon="-1.43235">
        <ele>96</ele>
        <time>2021-02-28T09:00:47.900000+00:00</time>
      </trkpt>
      <trkpt lat="0" lon="0">
        <time>2021-02-28T09:00:47.907000+00:00</time>
      </trkpt>
      <trkpt lat="0" lon="0">
        <time>2021-02-28T09:00:47.911000+00:00</time>
      </trkpt>
      <trkpt lat="0" lon="0">
        <time>2021-02-28T09:00:47.914000+00:00</time>
      </trkpt>
      <trkpt lat="47.33035" lon="-1.43239">
        <ele>96</ele>
        <time>2021-02-28T09:00:48.922000+00:00</time>
      </trkpt>
      <trkpt lat="0" lon="0">
        <time>2021-02-28T09:00:48.936000+00:00</time>
      </trkpt>
      <trkpt lat="0" lon="0">
        <time>2021-02-28T09:00:48.943000+00:00</time>
      </trkpt>
      <trkpt lat="0" lon="0">
        <time>2021-02-28T09:00:48.948000+00:00</time>
      </trkpt>
      <trkpt lat="47.33037" lon="-1.43243">
        <ele>96</ele>
        <time>2021-02-28T09:00:49.894000+00:00</time>
      </trkpt>
      <trkpt lat="0" lon="0">
        <time>2021-02-28T09:00:49.902000+00:00</time>
      </trkpt>
      <trkpt lat="0" lon="0">
        <time>2021-02-28T09:00:49.910000+00:00</time>
      </trkpt>
      <trkpt lat="0" lon="0">
        <time>2021-02-28T09:00:49.912000+00:00</time>
      </trkpt>
      <trkpt lat="47.33038" lon="-1.43247">
        <ele>96</ele>
        <time>2021-02-28T09:00:50.893000+00:00</time>
      </trkpt>
      <trkpt lat="0" lon="0">
        <time>2021-02-28T09:00:50.903000+00:00</time>
      </trkpt>
      <trkpt lat="0" lon="0">
        <time>2021-02-28T09:00:50.907000+00:00</time>
      </trkpt>
      <trkpt lat="0" lon="0">
        <time>2021-02-28T09:00:50.910000+00:00</time>
      </trkpt>
      <trkpt lat="47.3304" lon="-1.43251">
        <ele>96</ele>
        <time>2021-02-28T09:00:51.897000+00:00</time>
      </trkpt>
      <trkpt lat="0" lon="0">
        <time>2021-02-28T09:00:51.909000+00:00</time>
      </trkpt>
      <trkpt lat="0" lon="0">
        <time>2021-02-28T09:00:51.914000+00:00</time>
      </trkpt>
      <trkpt lat="0" lon="0">
        <time>2021-02-28T09:00:51.916000+00:00</time>
      </trkpt>
      <trkpt lat="47.33042" lon="-1.43254">
        <ele>96</ele>
        <time>2021-02-28T09:00:52.889000+00:00</time>
      </trkpt>
      <trkpt lat="0" lon="0">
        <time>2021-02-28T09:00:52.896000+00:00</time>
      </trkpt>
      <trkpt lat="0" lon="0">
        <time>2021-02-28T09:00:52.901000+00:00</time>
      </trkpt>
      <trkpt lat="0" lon="0">
        <time>2021-02-28T09:00:52.903000+00:00</time>
      </trkpt>
      <trkpt lat="47.33043" lon="-1.43258">
        <ele>96</ele>
        <time>2021-02-28T09:00:53.883000+00:00</time>
      </trkpt>
      <trkpt lat="0" lon="0">
        <time>2021-02-28T09:00:53.896000+00:00</time>
      </trkpt>
      <trkpt lat="0" lon="0">
        <time>2021-02-28T09:00:53.901000+00:00</time>
      </trkpt>
      <trkpt lat="0" lon="0">
        <time>2021-02-28T09:00:53.904000+00:00</time>
      </trkpt>
      <trkpt lat="47.33045" lon="-1.43262">
        <ele>96</ele>
        <time>2021-02-28T09:00:54.894000+00:00</time>
      </trkpt>
      <trkpt lat="0" lon="0">
        <time>2021-02-28T09:00:54.905000+00:00</time>
      </trkpt>
      <trkpt lat="0" lon="0">
        <time>2021-02-28T09:00:54.910000+00:00</time>
      </trkpt>
      <trkpt lat="0" lon="0">
        <time>2021-02-28T09:00:54.914000+00:00</time>
      </trkpt>
      <trkpt lat="47.33047" lon="-1.43265">
        <ele>95</ele>
        <time>2021-02-28T09:00:55.881000+00:00</time>
      </trkpt>
      <trkpt lat="0" lon="0">
        <time>2021-02-28T09:00:55.891000+00:00</time>
      </trkpt>
      <trkpt lat="0" lon="0">
        <time>2021-02-28T09:00:55.898000+00:00</time>
      </trkpt>
      <trkpt lat="0" lon="0">
        <time>2021-02-28T09:00:55.900000+00:00</time>
      </trkpt>
      <trkpt lat="47.33048" lon="-1.43269">
        <ele>95</ele>
        <time>2021-02-28T09:00:56.889000+00:00</time>
      </trkpt>
      <trkpt lat="0" lon="0">
        <time>2021-02-28T09:00:56.898000+00:00</time>
      </trkpt>
      <trkpt lat="0" lon="0">
        <time>2021-02-28T09:00:56.903000+00:00</time>
      </trkpt>
      <trkpt lat="0" lon="0">
        <time>2021-02-28T09:00:56.906000+00:00</time>
      </trkpt>
      <trkpt lat="47.3305" lon="-1.43272">
        <ele>95</ele>
        <time>2021-02-28T09:00:57.864000+00:00</time>
      </trkpt>
      <trkpt lat="0" lon="0">
        <time>2021-02-28T09:00:57.876000+00:00</time>
      </trkpt>
      <trkpt lat="0" lon="0">
        <time>2021-02-28T09:00:57.884000+00:00</time>
      </trkpt>
      <trkpt lat="0" lon="0">
        <time>2021-02-28T09:00:57.893000+00:00</time>
      </trkpt>
      <trkpt lat="47.33052" lon="-1.43275">
        <ele>94</ele>
        <time>2021-02-28T09:00:58.909000+00:00</time>
      </trkpt>
      <trkpt lat="0" lon="0">
        <time>2021-02-28T09:00:58.916000+00:00</time>
      </trkpt>
      <trkpt lat="0" lon="0">
        <time>2021-02-28T09:00:58.920000+00:00</time>
      </trkpt>
      <trkpt lat="0" lon="0">
        <time>2021-02-28T09:00:58.923000+00:00</time>
      </trkpt>
      <trkpt lat="47.33053" lon="-1.43277">
        <ele>94</ele>
        <time>2021-02-28T09:00:59.872000+00:00</time>
      </trkpt>
      <trkpt lat="0" lon="0">
        <time>2021-02-28T09:00:59.881000+00:00</time>
      </trkpt>
      <trkpt lat="0" lon="0">
        <time>2021-02-28T09:00:59.887000+00:00</time>
      </trkpt>
      <trkpt lat="0" lon="0">
        <time>2021-02-28T09:00:59.890000+00:00</time>
      </trkpt>
      <trkpt lat="47.33054" lon="-1.43279">
        <ele>94</ele>
        <time>2021-02-28T09:01:00.921000+00:00</time>
      </trkpt>
      <trkpt lat="0" lon="0">
        <time>2021-02-28T09:01:00.930000+00:00</time>
      </trkpt>
      <trkpt lat="0" lon="0">
        <time>2021-02-28T09:01:00.938000+00:00</time>
      </trkpt>
      <trkpt lat="0" lon="0">
        <time>2021-02-28T09:01:00.940000+00:00</time>
      </trkpt>
      <trkpt lat="47.33055" lon="-1.43282">
        <ele>94</ele>
        <time>2021-02-28T09:01:01.902000+00:00</time>
      </trkpt>
      <trkpt lat="0" lon="0">
        <time>2021-02-28T09:01:01.916000+00:00</time>
      </trkpt>
      <trkpt lat="0" lon="0">
        <time>2021-02-28T09:01:01.922000+00:00</time>
      </trkpt>
      <trkpt lat="0" lon="0">
        <time>2021-02-28T09:01:01.930000+00:00</time>
      </trkpt>
      <trkpt lat="47.33057" lon="-1.43285">
        <ele>95</ele>
        <time>2021-02-28T09:01:02.884000+00:00</time>
      </trkpt>
      <trkpt lat="0" lon="0">
        <time>2021-02-28T09:01:02.890000+00:00</time>
      </trkpt>
      <trkpt lat="0" lon="0">
        <time>2021-02-28T09:01:02.897000+00:00</time>
      </trkpt>
      <trkpt lat="0" lon="0">
        <time>2021-02-28T09:01:02.899000+00:00</time>
      </trkpt>
      <trkpt lat="47.33058" lon="-1.43288">
        <ele>98</ele>
        <time>2021-02-28T09:01:03.903000+00:00</time>
      </trkpt>
      <trkpt lat="0" lon="0">
        <time>2021-02-28T09:01:03.913000+00:00</time>
      </trkpt>
      <trkpt lat="0" lon="0">
        <time>2021-02-28T09:01:03.919000+00:00</time>
      </trkpt>
      <trkpt lat="0" lon="0">
        <time>2021-02-28T09:01:03.922000+00:00</time>
      </trkpt>
      <trkpt lat="47.3306" lon="-1.4329">
        <ele>99</ele>
        <time>2021-02-28T09:01:04.890000+00:00</time>
      </trkpt>
      <trkpt lat="0" lon="0">
        <time>2021-02-28T09:01:04.897000+00:00</time>
      </trkpt>
      <trkpt lat="0" lon="0">
        <time>2021-02-28T09:01:04.901000+00:00</time>
      </trkpt>
      <trkpt lat="0" lon="0">
        <time>2021-02-28T09:01:04.903000+00:00</time>
      </trkpt>
      <trkpt lat="47.33061" lon="-1.43292">
        <ele>99</ele>
        <time>2021-02-28T09:01:05.889000+00:00</time>
      </trkpt>
      <trkpt lat="0" lon="0">
        <time>2021-02-28T09:01:05.899000+00:00</time>
      </trkpt>
      <trkpt lat="0" lon="0">
        <time>2021-02-28T09:01:05.902000+00:00</time>
      </trkpt>
      <trkpt lat="0" lon="0">
        <time>2021-02-28T09:01:05.904000+00:00</time>
      </trkpt>
      <trkpt lat="47.33062" lon="-1.43293">
        <ele>99</ele>
        <time>2021-02-28T09:01:06.879000+00:00</time>
      </trkpt>
      <trkpt lat="0" lon="0">
        <time>2021-02-28T09:01:06.886000+00:00</time>
      </trkpt>
      <trkpt lat="0" lon="0">
        <time>2021-02-28T09:01:06.890000+00:00</time>
      </trkpt>
      <trkpt lat="0" lon="0">
        <time>2021-02-28T09:01:06.893000+00:00</time>
      </trkpt>
      <trkpt lat="47.33063" lon="-1.43295">
        <ele>98</ele>
        <time>2021-02-28T09:01:07.880000+00:00</time>
      </trkpt>
      <trkpt lat="0" lon="0">
        <time>2021-02-28T09:01:07.889000+00:00</time>
      </trkpt>
      <trkpt lat="0" lon="0">
        <time>2021-02-28T09:01:07.894000+00:00</time>
      </trkpt>
      <trkpt lat="0" lon="0">
        <time>2021-02-28T09:01:07.897000+00:00</time>
      </trkpt>
      <trkpt lat="47.33065" lon="-1.43296">
        <ele>97</ele>
        <time>2021-02-28T09:01:08.881000+00:00</time>
      </trkpt>
      <trkpt lat="0" lon="0">
        <time>2021-02-28T09:01:08.887000+00:00</time>
      </trkpt>
      <trkpt lat="0" lon="0">
        <time>2021-02-28T09:01:08.892000+00:00</time>
      </trkpt>
      <trkpt lat="0" lon="0">
        <time>2021-02-28T09:01:08.896000+00:00</time>
      </trkpt>
      <trkpt lat="47.33066" lon="-1.43297">
        <ele>96</ele>
        <time>2021-02-28T09:01:09.877000+00:00</time>
      </trkpt>
      <trkpt lat="0" lon="0">
        <time>2021-02-28T09:01:09.883000+00:00</time>
      </trkpt>
      <trkpt lat="0" lon="0">
        <time>2021-02-28T09:01:09.888000+00:00</time>
      </trkpt>
      <trkpt lat="0" lon="0">
        <time>2021-02-28T09:01:09.891000+00:00</time>
      </trkpt>
      <trkpt lat="47.33067" lon="-1.43298">
        <ele>95</ele>
        <time>2021-02-28T09:01:10.904000+00:00</time>
      </trkpt>
      <trkpt lat="0" lon="0">
        <time>2021-02-28T09:01:10.916000+00:00</time>
      </trkpt>
      <trkpt lat="0" lon="0">
        <time>2021-02-28T09:01:10.921000+00:00</time>
      </trkpt>
      <trkpt lat="0" lon="0">
        <time>2021-02-28T09:01:10.924000+00:00</time>
      </trkpt>
      <trkpt lat="47.33068" lon="-1.43299">
        <ele>95</ele>
        <time>2021-02-28T09:01:11.886000+00:00</time>
      </trkpt>
      <trkpt lat="0" lon="0">
        <time>2021-02-28T09:01:11.897000+00:00</time>
      </trkpt>
      <trkpt lat="0" lon="0">
        <time>2021-02-28T09:01:11.909000+00:00</time>
      </trkpt>
      <trkpt lat="0" lon="0">
        <time>2021-02-28T09:01:11.912000+00:00</time>
      </trkpt>
      <trkpt lat="47.33069" lon="-1.433">
        <ele>95</ele>
        <time>2021-02-28T09:01:12.881000+00:00</time>
      </trkpt>
      <trkpt lat="0" lon="0">
        <time>2021-02-28T09:01:12.885000+00:00</time>
      </trkpt>
      <trkpt lat="0" lon="0">
        <time>2021-02-28T09:01:12.890000+00:00</time>
      </trkpt>
      <trkpt lat="0" lon="0">
        <time>2021-02-28T09:01:12.892000+00:00</time>
      </trkpt>
      <trkpt lat="47.3307" lon="-1.43301">
        <ele>96</ele>
        <time>2021-02-28T09:01:13.896000+00:00</time>
      </trkpt>
      <trkpt lat="0" lon="0">
        <time>2021-02-28T09:01:13.904000+00:00</time>
      </trkpt>
      <trkpt lat="0" lon="0">
        <time>2021-02-28T09:01:13.914000+00:00</time>
      </trkpt>
      <trkpt lat="0" lon="0">
        <time>2021-02-28T09:01:13.918000+00:00</time>
      </trkpt>
      <trkpt lat="47.3307" lon="-1.43302">
        <ele>97</ele>
        <time>2021-02-28T09:01:14.916000+00:00</time>
      </trkpt>
      <trkpt lat="0" lon="0">
        <time>2021-02-28T09:01:14.922000+00:00</time>
      </trkpt>
      <trkpt lat="0" lon="0">
        <time>2021-02-28T09:01:14.928000+00:00</time>
      </trkpt>
      <trkpt lat="0" lon="0">
        <time>2021-02-28T09:01:14.930000+00:00</time>
      </trkpt>
      <trkpt lat="47.33071" lon="-1.43304">
        <ele>98</ele>
        <time>2021-02-28T09:01:15.880000+00:00</time>
      </trkpt>
      <trkpt lat="0" lon="0">
        <time>2021-02-28T09:01:15.886000+00:00</time>
      </trkpt>
      <trkpt lat="0" lon="0">
        <time>2021-02-28T09:01:15.891000+00:00</time>
      </trkpt>
      <trkpt lat="0" lon="0">
        <time>2021-02-28T09:01:15.893000+00:00</time>
      </trkpt>
      <trkpt lat="47.33072" lon="-1.43306">
        <ele>98</ele>
        <time>2021-02-28T09:01:16.892000+00:00</time>
      </trkpt>
      <trkpt lat="0" lon="0">
        <time>2021-02-28T09:01:16.899000+00:00</time>
      </trkpt>
      <trkpt lat="0" lon="0">
        <time>2021-02-28T09:01:16.904000+00:00</time>
      </trkpt>
      <trkpt lat="0" lon="0">
        <time>2021-02-28T09:01:16.907000+00:00</time>
      </trkpt>
      <trkpt lat="47.33073" lon="-1.43308">
        <ele>100</ele>
        <time>2021-02-28T09:01:17.888000+00:00</time>
      </trkpt>
      <trkpt lat="0" lon="0">
        <time>2021-02-28T09:01:17.902000+00:00</time>
      </trkpt>
      <trkpt lat="0" lon="0">
        <time>2021-02-28T09:01:17.909000+00:00</time>
      </trkpt>
      <trkpt lat="0" lon="0">
        <time>2021-02-28T09:01:17.912000+00:00</time>
      </trkpt>
      <trkpt lat="47.33074" lon="-1.4331">
        <ele>100</ele>
        <time>2021-02-28T09:01:18.876000+00:00</time>
      </trkpt>
      <trkpt lat="0" lon="0">
        <time>2021-02-28T09:01:18.886000+00:00</time>
      </trkpt>
      <trkpt lat="0" lon="0">
        <time>2021-02-28T09:01:18.891000+00:00</time>
      </trkpt>
      <trkpt lat="0" lon="0">
        <time>2021-02-28T09:01:18.894000+00:00</time>
      </trkpt>
      <trkpt lat="47.33076" lon="-1.43312">
        <ele>100</ele>
        <time>2021-02-28T09:01:19.896000+00:00</time>
      </trkpt>
      <trkpt lat="0" lon="0">
        <time>2021-02-28T09:01:19.903000+00:00</time>
      </trkpt>
      <trkpt lat="0" lon="0">
        <time>2021-02-28T09:01:19.907000+00:00</time>
      </trkpt>
      <trkpt lat="0" lon="0">
        <time>2021-02-28T09:01:19.910000+00:00</time>
      </trkpt>
      <trkpt lat="47.33077" lon="-1.43314">
        <ele>101</ele>
        <time>2021-02-28T09:01:20.878000+00:00</time>
      </trkpt>
      <trkpt lat="0" lon="0">
        <time>2021-02-28T09:01:20.889000+00:00</time>
      </trkpt>
      <trkpt lat="0" lon="0">
        <time>2021-02-28T09:01:20.893000+00:00</time>
      </trkpt>
      <trkpt lat="0" lon="0">
        <time>2021-02-28T09:01:20.895000+00:00</time>
      </trkpt>
      <trkpt lat="47.33079" lon="-1.43315">
        <ele>102</ele>
        <time>2021-02-28T09:01:21.878000+00:00</time>
      </trkpt>
      <trkpt lat="0" lon="0">
        <time>2021-02-28T09:01:21.892000+00:00</time>
      </trkpt>
      <trkpt lat="0" lon="0">
        <time>2021-02-28T09:01:21.900000+00:00</time>
      </trkpt>
      <trkpt lat="0" lon="0">
        <time>2021-02-28T09:01:21.902000+00:00</time>
      </trkpt>
      <trkpt lat="47.33081" lon="-1.43317">
        <ele>101</ele>
        <time>2021-02-28T09:01:22.894000+00:00</time>
      </trkpt>
      <trkpt lat="0" lon="0">
        <time>2021-02-28T09:01:22.898000+00:00</time>
      </trkpt>
      <trkpt lat="0" lon="0">
        <time>2021-02-28T09:01:22.901000+00:00</time>
      </trkpt>
      <trkpt lat="0" lon="0">
        <time>2021-02-28T09:01:22.903000+00:00</time>
      </trkpt>
      <trkpt lat="47.33082" lon="-1.43319">
        <ele>101</ele>
        <time>2021-02-28T09:01:23.873000+00:00</time>
      </trkpt>
      <trkpt lat="0" lon="0">
        <time>2021-02-28T09:01:23.882000+00:00</time>
      </trkpt>
      <trkpt lat="0" lon="0">
        <time>2021-02-28T09:01:23.886000+00:00</time>
      </trkpt>
      <trkpt lat="0" lon="0">
        <time>2021-02-28T09:01:23.888000+00:00</time>
      </trkpt>
      <trkpt lat="47.33084" lon="-1.43321">
        <ele>100</ele>
        <time>2021-02-28T09:01:24.884000+00:00</time>
      </trkpt>
      <trkpt lat="0" lon="0">
        <time>2021-02-28T09:01:24.890000+00:00</time>
      </trkpt>
      <trkpt lat="0" lon="0">
        <time>2021-02-28T09:01:24.895000+00:00</time>
      </trkpt>
      <trkpt lat="0" lon="0">
        <time>2021-02-28T09:01:24.898000+00:00</time>
      </trkpt>
      <trkpt lat="47.33086" lon="-1.43324">
        <ele>100</ele>
        <time>2021-02-28T09:01:25.893000+00:00</time>
      </trkpt>
      <trkpt lat="0" lon="0">
        <time>2021-02-28T09:01:25.904000+00:00</time>
      </trkpt>
      <trkpt lat="0" lon="0">
        <time>2021-02-28T09:01:25.908000+00:00</time>
      </trkpt>
      <trkpt lat="0" lon="0">
        <time>2021-02-28T09:01:25.910000+00:00</time>
      </trkpt>
      <trkpt lat="47.33088" lon="-1.43326">
        <ele>101</ele>
        <time>2021-02-28T09:01:26.886000+00:00</time>
      </trkpt>
      <trkpt lat="0" lon="0">
        <time>2021-02-28T09:01:26.891000+00:00</time>
      </trkpt>
      <trkpt lat="0" lon="0">
        <time>2021-02-28T09:01:26.897000+00:00</time>
      </trkpt>
      <trkpt lat="0" lon="0">
        <time>2021-02-28T09:01:26.899000+00:00</time>
      </trkpt>
      <trkpt lat="47.33091" lon="-1.43329">
        <ele>101</ele>
        <time>2021-02-28T09:01:27.898000+00:00</time>
      </trkpt>
      <trkpt lat="0" lon="0">
        <time>2021-02-28T09:01:27.904000+00:00</time>
      </trkpt>
      <trkpt lat="0" lon="0">
        <time>2021-02-28T09:01:27.910000+00:00</time>
      </trkpt>
      <trkpt lat="0" lon="0">
        <time>2021-02-28T09:01:27.914000+00:00</time>
      </trkpt>
      <trkpt lat="47.33093" lon="-1.43332">
        <ele>102</ele>
        <time>2021-02-28T09:01:28.872000+00:00</time>
      </trkpt>
      <trkpt lat="0" lon="0">
        <time>2021-02-28T09:01:28.877000+00:00</time>
      </trkpt>
      <trkpt lat="0" lon="0">
        <time>2021-02-28T09:01:28.880000+00:00</time>
      </trkpt>
      <trkpt lat="0" lon="0">
        <time>2021-02-28T09:01:28.882000+00:00</time>
      </trkpt>
      <trkpt lat="47.33095" lon="-1.43335">
        <ele>102</ele>
        <time>2021-02-28T09:01:29.880000+00:00</time>
      </trkpt>
      <trkpt lat="0" lon="0">
        <time>2021-02-28T09:01:29.889000+00:00</time>
      </trkpt>
      <trkpt lat="0" lon="0">
        <time>2021-02-28T09:01:29.895000+00:00</time>
      </trkpt>
      <trkpt lat="0" lon="0">
        <time>2021-02-28T09:01:29.898000+00:00</time>
      </trkpt>
      <trkpt lat="47.33098" lon="-1.43338">
        <ele>102</ele>
        <time>2021-02-28T09:01:30.890000+00:00</time>
      </trkpt>
      <trkpt lat="0" lon="0">
        <time>2021-02-28T09:01:30.902000+00:00</time>
      </trkpt>
      <trkpt lat="0" lon="0">
        <time>2021-02-28T09:01:30.905000+00:00</time>
      </trkpt>
      <trkpt lat="0" lon="0">
        <time>2021-02-28T09:01:30.907000+00:00</time>
      </trkpt>
      <trkpt lat="47.331" lon="-1.43342">
        <ele>103</ele>
        <time>2021-02-28T09:01:31.869000+00:00</time>
      </trkpt>
      <trkpt lat="0" lon="0">
        <time>2021-02-28T09:01:31.874000+00:00</time>
      </trkpt>
      <trkpt lat="0" lon="0">
        <time>2021-02-28T09:01:31.881000+00:00</time>
      </trkpt>
      <trkpt lat="0" lon="0">
        <time>2021-02-28T09:01:31.884000+00:00</time>
      </trkpt>
      <trkpt lat="47.33102" lon="-1.43346">
        <ele>103</ele>
        <time>2021-02-28T09:01:32.866000+00:00</time>
      </trkpt>
      <trkpt lat="0" lon="0">
        <time>2021-02-28T09:01:32.873000+00:00</time>
      </trkpt>
      <trkpt lat="0" lon="0">
        <time>2021-02-28T09:01:32.879000+00:00</time>
      </trkpt>
      <trkpt lat="0" lon="0">
        <time>2021-02-28T09:01:32.882000+00:00</time>
      </trkpt>
      <trkpt lat="47.33103" lon="-1.4335">
        <ele>102</ele>
        <time>2021-02-28T09:01:33.900000+00:00</time>
      </trkpt>
      <trkpt lat="0" lon="0">
        <time>2021-02-28T09:01:33.909000+00:00</time>
      </trkpt>
      <trkpt lat="0" lon="0">
        <time>2021-02-28T09:01:33.914000+00:00</time>
      </trkpt>
      <trkpt lat="0" lon="0">
        <time>2021-02-28T09:01:33.916000+00:00</time>
      </trkpt>
      <trkpt lat="47.33105" lon="-1.43355">
        <ele>102</ele>
        <time>2021-02-28T09:01:34.910000+00:00</time>
      </trkpt>
      <trkpt lat="0" lon="0">
        <time>2021-02-28T09:01:34.916000+00:00</time>
      </trkpt>
      <trkpt lat="0" lon="0">
        <time>2021-02-28T09:01:34.921000+00:00</time>
      </trkpt>
      <trkpt lat="0" lon="0">
        <time>2021-02-28T09:01:34.923000+00:00</time>
      </trkpt>
      <trkpt lat="47.33106" lon="-1.43359">
        <ele>102</ele>
        <time>2021-02-28T09:01:35.909000+00:00</time>
      </trkpt>
      <trkpt lat="0" lon="0">
        <time>2021-02-28T09:01:35.917000+00:00</time>
      </trkpt>
      <trkpt lat="0" lon="0">
        <time>2021-02-28T09:01:35.922000+00:00</time>
      </trkpt>
      <trkpt lat="0" lon="0">
        <time>2021-02-28T09:01:35.927000+00:00</time>
      </trkpt>
      <trkpt lat="47.33106" lon="-1.43364">
        <ele>102</ele>
        <time>2021-02-28T09:01:36.865000+00:00</time>
      </trkpt>
      <trkpt lat="0" lon="0">
        <time>2021-02-28T09:01:36.875000+00:00</time>
      </trkpt>
      <trkpt lat="0" lon="0">
        <time>2021-02-28T09:01:36.884000+00:00</time>
      </trkpt>
      <trkpt lat="0" lon="0">
        <time>2021-02-28T09:01:36.886000+00:00</time>
      </trkpt>
      <trkpt lat="47.33106" lon="-1.43368">
        <ele>103</ele>
        <time>2021-02-28T09:01:37.850000+00:00</time>
      </trkpt>
      <trkpt lat="0" lon="0">
        <time>2021-02-28T09:01:37.858000+00:00</time>
      </trkpt>
      <trkpt lat="0" lon="0">
        <time>2021-02-28T09:01:37.864000+00:00</time>
      </trkpt>
      <trkpt lat="0" lon="0">
        <time>2021-02-28T09:01:37.866000+00:00</time>
      </trkpt>
      <trkpt lat="47.33106" lon="-1.43372">
        <ele>102</ele>
        <time>2021-02-28T09:01:38.911000+00:00</time>
      </trkpt>
      <trkpt lat="0" lon="0">
        <time>2021-02-28T09:01:38.921000+00:00</time>
      </trkpt>
      <trkpt lat="0" lon="0">
        <time>2021-02-28T09:01:38.925000+00:00</time>
      </trkpt>
      <trkpt lat="0" lon="0">
        <time>2021-02-28T09:01:38.928000+00:00</time>
      </trkpt>
      <trkpt lat="47.33105" lon="-1.43376">
        <ele>102</ele>
        <time>2021-02-28T09:01:39.881000+00:00</time>
      </trkpt>
      <trkpt lat="0" lon="0">
        <time>2021-02-28T09:01:39.887000+00:00</time>
      </trkpt>
      <trkpt lat="0" lon="0">
        <time>2021-02-28T09:01:39.892000+00:00</time>
      </trkpt>
      <trkpt lat="0" lon="0">
        <time>2021-02-28T09:01:39.894000+00:00</time>
      </trkpt>
      <trkpt lat="47.33105" lon="-1.43381">
        <ele>102</ele>
        <time>2021-02-28T09:01:40.881000+00:00</time>
      </trkpt>
      <trkpt lat="0" lon="0">
        <time>2021-02-28T09:01:40.886000+00:00</time>
      </trkpt>
      <trkpt lat="0" lon="0">
        <time>2021-02-28T09:01:40.891000+00:00</time>
      </trkpt>
      <trkpt lat="0" lon="0">
        <time>2021-02-28T09:01:40.894000+00:00</time>
      </trkpt>
      <trkpt lat="47.33103" lon="-1.43385">
        <ele>101</ele>
        <time>2021-02-28T09:01:41.917000+00:00</time>
      </trkpt>
      <trkpt lat="0" lon="0">
        <time>2021-02-28T09:01:41.927000+00:00</time>
      </trkpt>
      <trkpt lat="0" lon="0">
        <time>2021-02-28T09:01:41.933000+00:00</time>
      </trkpt>
      <trkpt lat="0" lon="0">
        <time>2021-02-28T09:01:41.935000+00:00</time>
      </trkpt>
      <trkpt lat="47.33102" lon="-1.43389">
        <ele>101</ele>
        <time>2021-02-28T09:01:42.861000+00:00</time>
      </trkpt>
      <trkpt lat="0" lon="0">
        <time>2021-02-28T09:01:42.871000+00:00</time>
      </trkpt>
      <trkpt lat="0" lon="0">
        <time>2021-02-28T09:01:42.875000+00:00</time>
      </trkpt>
      <trkpt lat="0" lon="0">
        <time>2021-02-28T09:01:42.877000+00:00</time>
      </trkpt>
      <trkpt lat="47.33101" lon="-1.43393">
        <ele>100</ele>
        <time>2021-02-28T09:01:43.889000+00:00</time>
      </trkpt>
      <trkpt lat="0" lon="0">
        <time>2021-02-28T09:01:43.894000+00:00</time>
      </trkpt>
      <trkpt lat="0" lon="0">
        <time>2021-02-28T09:01:43.898000+00:00</time>
      </trkpt>
      <trkpt lat="0" lon="0">
        <time>2021-02-28T09:01:43.901000+00:00</time>
      </trkpt>
      <trkpt lat="47.33099" lon="-1.43397">
        <ele>100</ele>
        <time>2021-02-28T09:01:44.890000+00:00</time>
      </trkpt>
      <trkpt lat="0" lon="0">
        <time>2021-02-28T09:01:44.904000+00:00</time>
      </trkpt>
      <trkpt lat="0" lon="0">
        <time>2021-02-28T09:01:44.908000+00:00</time>
      </trkpt>
      <trkpt lat="0" lon="0">
        <time>2021-02-28T09:01:44.910000+00:00</time>
      </trkpt>
      <trkpt lat="47.33098" lon="-1.434">
        <ele>99</ele>
        <time>2021-02-28T09:01:45.915000+00:00</time>
      </trkpt>
      <trkpt lat="0" lon="0">
        <time>2021-02-28T09:01:45.924000+00:00</time>
      </trkpt>
      <trkpt lat="0" lon="0">
        <time>2021-02-28T09:01:45.930000+00:00</time>
      </trkpt>
      <trkpt lat="0" lon="0">
        <time>2021-02-28T09:01:45.934000+00:00</time>
      </trkpt>
      <trkpt lat="47.33096" lon="-1.43404">
        <ele>98</ele>
        <time>2021-02-28T09:01:46.895000+00:00</time>
      </trkpt>
      <trkpt lat="0" lon="0">
        <time>2021-02-28T09:01:46.910000+00:00</time>
      </trkpt>
      <trkpt lat="0" lon="0">
        <time>2021-02-28T09:01:46.917000+00:00</time>
      </trkpt>
      <trkpt lat="0" lon="0">
        <time>2021-02-28T09:01:46.919000+00:00</time>
      </trkpt>
      <trkpt lat="47.33094" lon="-1.43407">
        <ele>99</ele>
        <time>2021-02-28T09:01:47.882000+00:00</time>
      </trkpt>
      <trkpt lat="0" lon="0">
        <time>2021-02-28T09:01:47.889000+00:00</time>
      </trkpt>
      <trkpt lat="0" lon="0">
        <time>2021-02-28T09:01:47.894000+00:00</time>
      </trkpt>
      <trkpt lat="0" lon="0">
        <time>2021-02-28T09:01:47.897000+00:00</time>
      </trkpt>
      <trkpt lat="47.33093" lon="-1.4341">
        <ele>99</ele>
        <time>2021-02-28T09:01:48.870000+00:00</time>
      </trkpt>
      <trkpt lat="0" lon="0">
        <time>2021-02-28T09:01:48.878000+00:00</time>
      </trkpt>
      <trkpt lat="0" lon="0">
        <time>2021-02-28T09:01:48.882000+00:00</time>
      </trkpt>
      <trkpt lat="0" lon="0">
        <time>2021-02-28T09:01:48.884000+00:00</time>
      </trkpt>
      <trkpt lat="47.33092" lon="-1.43413">
        <ele>99</ele>
        <time>2021-02-28T09:01:49.895000+00:00</time>
      </trkpt>
      <trkpt lat="0" lon="0">
        <time>2021-02-28T09:01:49.903000+00:00</time>
      </trkpt>
      <trkpt lat="0" lon="0">
        <time>2021-02-28T09:01:49.910000+00:00</time>
      </trkpt>
      <trkpt lat="0" lon="0">
        <time>2021-02-28T09:01:49.913000+00:00</time>
      </trkpt>
      <trkpt lat="47.3309" lon="-1.43415">
        <ele>99</ele>
        <time>2021-02-28T09:01:50.905000+00:00</time>
      </trkpt>
      <trkpt lat="0" lon="0">
        <time>2021-02-28T09:01:50.911000+00:00</time>
      </trkpt>
      <trkpt lat="0" lon="0">
        <time>2021-02-28T09:01:50.916000+00:00</time>
      </trkpt>
      <trkpt lat="0" lon="0">
        <time>2021-02-28T09:01:50.918000+00:00</time>
      </trkpt>
      <trkpt lat="47.33089" lon="-1.43417">
        <ele>98</ele>
        <time>2021-02-28T09:01:51.869000+00:00</time>
      </trkpt>
      <trkpt lat="0" lon="0">
        <time>2021-02-28T09:01:51.874000+00:00</time>
      </trkpt>
      <trkpt lat="0" lon="0">
        <time>2021-02-28T09:01:51.880000+00:00</time>
      </trkpt>
      <trkpt lat="0" lon="0">
        <time>2021-02-28T09:01:51.883000+00:00</time>
      </trkpt>
      <trkpt lat="47.33088" lon="-1.4342">
        <ele>97</ele>
        <time>2021-02-28T09:01:52.881000+00:00</time>
      </trkpt>
      <trkpt lat="0" lon="0">
        <time>2021-02-28T09:01:52.889000+00:00</time>
      </trkpt>
      <trkpt lat="0" lon="0">
        <time>2021-02-28T09:01:52.893000+00:00</time>
      </trkpt>
      <trkpt lat="0" lon="0">
        <time>2021-02-28T09:01:52.895000+00:00</time>
      </trkpt>
      <trkpt lat="47.33087" lon="-1.43421">
        <ele>97</ele>
        <time>2021-02-28T09:01:53.879000+00:00</time>
      </trkpt>
      <trkpt lat="0" lon="0">
        <time>2021-02-28T09:01:53.892000+00:00</time>
      </trkpt>
      <trkpt lat="0" lon="0">
        <time>2021-02-28T09:01:53.896000+00:00</time>
      </trkpt>
      <trkpt lat="0" lon="0">
        <time>2021-02-28T09:01:53.897000+00:00</time>
      </trkpt>
      <trkpt lat="47.33086" lon="-1.43423">
        <ele>97</ele>
        <time>2021-02-28T09:01:54.881000+00:00</time>
      </trkpt>
      <trkpt lat="0" lon="0">
        <time>2021-02-28T09:01:54.888000+00:00</time>
      </trkpt>
      <trkpt lat="0" lon="0">
        <time>2021-02-28T09:01:54.892000+00:00</time>
      </trkpt>
      <trkpt lat="0" lon="0">
        <time>2021-02-28T09:01:54.894000+00:00</time>
      </trkpt>
      <trkpt lat="47.33085" lon="-1.43424">
        <ele>96</ele>
        <time>2021-02-28T09:01:55.890000+00:00</time>
      </trkpt>
      <trkpt lat="0" lon="0">
        <time>2021-02-28T09:01:55.895000+00:00</time>
      </trkpt>
      <trkpt lat="0" lon="0">
        <time>2021-02-28T09:01:55.901000+00:00</time>
      </trkpt>
      <trkpt lat="0" lon="0">
        <time>2021-02-28T09:01:55.906000+00:00</time>
      </trkpt>
      <trkpt lat="47.33085" lon="-1.43425">
        <ele>96</ele>
        <time>2021-02-28T09:01:56.877000+00:00</time>
      </trkpt>
      <trkpt lat="0" lon="0">
        <time>2021-02-28T09:01:56.883000+00:00</time>
      </trkpt>
      <trkpt lat="0" lon="0">
        <time>2021-02-28T09:01:56.886000+00:00</time>
      </trkpt>
      <trkpt lat="0" lon="0">
        <time>2021-02-28T09:01:56.888000+00:00</time>
      </trkpt>
      <trkpt lat="47.33085" lon="-1.43426">
        <ele>95</ele>
        <time>2021-02-28T09:01:57.893000+00:00</time>
      </trkpt>
      <trkpt lat="0" lon="0">
        <time>2021-02-28T09:01:57.901000+00:00</time>
      </trkpt>
      <trkpt lat="0" lon="0">
        <time>2021-02-28T09:01:57.906000+00:00</time>
      </trkpt>
      <trkpt lat="0" lon="0">
        <time>2021-02-28T09:01:57.909000+00:00</time>
      </trkpt>
      <trkpt lat="47.33085" lon="-1.43426">
        <ele>95</ele>
        <time>2021-02-28T09:01:58.882000+00:00</time>
      </trkpt>
      <trkpt lat="0" lon="0">
        <time>2021-02-28T09:01:58.891000+00:00</time>
      </trkpt>
      <trkpt lat="0" lon="0">
        <time>2021-02-28T09:01:58.895000+00:00</time>
      </trkpt>
      <trkpt lat="0" lon="0">
        <time>2021-02-28T09:01:58.897000+00:00</time>
      </trkpt>
      <trkpt lat="47.33085" lon="-1.43427">
        <ele>94</ele>
        <time>2021-02-28T09:01:59.856000+00:00</time>
      </trkpt>
      <trkpt lat="0" lon="0">
        <time>2021-02-28T09:01:59.867000+00:00</time>
      </trkpt>
      <trkpt lat="0" lon="0">
        <time>2021-02-28T09:01:59.872000+00:00</time>
      </trkpt>
      <trkpt lat="0" lon="0">
        <time>2021-02-28T09:01:59.874000+00:00</time>
      </trkpt>
      <trkpt lat="47.33086" lon="-1.43427">
        <ele>94</ele>
        <time>2021-02-28T09:02:00.886000+00:00</time>
      </trkpt>
      <trkpt lat="0" lon="0">
        <time>2021-02-28T09:02:00.891000+00:00</time>
      </trkpt>
      <trkpt lat="0" lon="0">
        <time>2021-02-28T09:02:00.899000+00:00</time>
      </trkpt>
      <trkpt lat="0" lon="0">
        <time>2021-02-28T09:02:00.902000+00:00</time>
      </trkpt>
      <trkpt lat="47.33087" lon="-1.43427">
        <ele>94</ele>
        <time>2021-02-28T09:02:01.881000+00:00</time>
      </trkpt>
      <trkpt lat="0" lon="0">
        <time>2021-02-28T09:02:01.889000+00:00</time>
      </trkpt>
      <trkpt lat="0" lon="0">
        <time>2021-02-28T09:02:01.893000+00:00</time>
      </trkpt>
      <trkpt lat="0" lon="0">
        <time>2021-02-28T09:02:01.895000+00:00</time>
      </trkpt>
      <trkpt lat="47.33089" lon="-1.43428">
        <ele>94</ele>
        <time>2021-02-28T09:02:02.881000+00:00</time>
      </trkpt>
      <trkpt lat="0" lon="0">
        <time>2021-02-28T09:02:02.891000+00:00</time>
      </trkpt>
      <trkpt lat="0" lon="0">
        <time>2021-02-28T09:02:02.895000+00:00</time>
      </trkpt>
      <trkpt lat="0" lon="0">
        <time>2021-02-28T09:02:02.898000+00:00</time>
      </trkpt>
      <trkpt lat="47.33091" lon="-1.43429">
        <ele>95</ele>
        <time>2021-02-28T09:02:03.894000+00:00</time>
      </trkpt>
      <trkpt lat="0" lon="0">
        <time>2021-02-28T09:02:03.898000+00:00</time>
      </trkpt>
      <trkpt lat="0" lon="0">
        <time>2021-02-28T09:02:03.902000+00:00</time>
      </trkpt>
      <trkpt lat="0" lon="0">
        <time>2021-02-28T09:02:03.905000+00:00</time>
      </trkpt>
      <trkpt lat="47.33092" lon="-1.43429">
        <ele>96</ele>
        <time>2021-02-28T09:02:04.913000+00:00</time>
      </trkpt>
      <trkpt lat="0" lon="0">
        <time>2021-02-28T09:02:04.922000+00:00</time>
      </trkpt>
      <trkpt lat="0" lon="0">
        <time>2021-02-28T09:02:04.926000+00:00</time>
      </trkpt>
      <trkpt lat="0" lon="0">
        <time>2021-02-28T09:02:04.929000+00:00</time>
      </trkpt>
      <trkpt lat="47.33094" lon="-1.4343">
        <ele>97</ele>
        <time>2021-02-28T09:02:05.899000+00:00</time>
      </trkpt>
      <trkpt lat="0" lon="0">
        <time>2021-02-28T09:02:05.910000+00:00</time>
      </trkpt>
      <trkpt lat="0" lon="0">
        <time>2021-02-28T09:02:05.915000+00:00</time>
      </trkpt>
      <trkpt lat="0" lon="0">
        <time>2021-02-28T09:02:05.918000+00:00</time>
      </trkpt>
      <trkpt lat="47.33096" lon="-1.43431">
        <ele>97</ele>
        <time>2021-02-28T09:02:06.884000+00:00</time>
      </trkpt>
      <trkpt lat="0" lon="0">
        <time>2021-02-28T09:02:06.889000+00:00</time>
      </trkpt>
      <trkpt lat="0" lon="0">
        <time>2021-02-28T09:02:06.893000+00:00</time>
      </trkpt>
      <trkpt lat="0" lon="0">
        <time>2021-02-28T09:02:06.895000+00:00</time>
      </trkpt>
      <trkpt lat="47.33098" lon="-1.43433">
        <ele>97</ele>
        <time>2021-02-28T09:02:07.904000+00:00</time>
      </trkpt>
      <trkpt lat="0" lon="0">
        <time>2021-02-28T09:02:07.908000+00:00</time>
      </trkpt>
      <trkpt lat="0" lon="0">
        <time>2021-02-28T09:02:07.913000+00:00</time>
      </trkpt>
      <trkpt lat="0" lon="0">
        <time>2021-02-28T09:02:07.915000+00:00</time>
      </trkpt>
      <trkpt lat="47.33099" lon="-1.43434">
        <ele>96</ele>
        <time>2021-02-28T09:02:08.900000+00:00</time>
      </trkpt>
      <trkpt lat="0" lon="0">
        <time>2021-02-28T09:02:08.906000+00:00</time>
      </trkpt>
      <trkpt lat="0" lon="0">
        <time>2021-02-28T09:02:08.911000+00:00</time>
      </trkpt>
      <trkpt lat="0" lon="0">
        <time>2021-02-28T09:02:08.914000+00:00</time>
      </trkpt>
      <trkpt lat="47.33101" lon="-1.43435">
        <ele>96</ele>
        <time>2021-02-28T09:02:09.850000+00:00</time>
      </trkpt>
      <trkpt lat="0" lon="0">
        <time>2021-02-28T09:02:09.855000+00:00</time>
      </trkpt>
      <trkpt lat="0" lon="0">
        <time>2021-02-28T09:02:09.859000+00:00</time>
      </trkpt>
      <trkpt lat="0" lon="0">
        <time>2021-02-28T09:02:09.861000+00:00</time>
      </trkpt>
      <trkpt lat="47.33103" lon="-1.43436">
        <ele>96</ele>
        <time>2021-02-28T09:02:10.887000+00:00</time>
      </trkpt>
      <trkpt lat="0" lon="0">
        <time>2021-02-28T09:02:10.892000+00:00</time>
      </trkpt>
      <trkpt lat="0" lon="0">
        <time>2021-02-28T09:02:10.901000+00:00</time>
      </trkpt>
      <trkpt lat="0" lon="0">
        <time>2021-02-28T09:02:10.905000+00:00</time>
      </trkpt>
      <trkpt lat="47.33104" lon="-1.43436">
        <ele>96</ele>
        <time>2021-02-28T09:02:11.902000+00:00</time>
      </trkpt>
      <trkpt lat="0" lon="0">
        <time>2021-02-28T09:02:11.908000+00:00</time>
      </trkpt>
      <trkpt lat="0" lon="0">
        <time>2021-02-28T09:02:11.918000+00:00</time>
      </trkpt>
      <trkpt lat="0" lon="0">
        <time>2021-02-28T09:02:11.921000+00:00</time>
      </trkpt>
      <trkpt lat="47.33105" lon="-1.43437">
        <ele>95</ele>
        <time>2021-02-28T09:02:12.881000+00:00</time>
      </trkpt>
      <trkpt lat="0" lon="0">
        <time>2021-02-28T09:02:12.886000+00:00</time>
      </trkpt>
      <trkpt lat="0" lon="0">
        <time>2021-02-28T09:02:12.891000+00:00</time>
      </trkpt>
      <trkpt lat="0" lon="0">
        <time>2021-02-28T09:02:12.894000+00:00</time>
      </trkpt>
      <trkpt lat="47.33107" lon="-1.43438">
        <ele>95</ele>
        <time>2021-02-28T09:02:13.838000+00:00</time>
      </trkpt>
      <trkpt lat="0" lon="0">
        <time>2021-02-28T09:02:13.849000+00:00</time>
      </trkpt>
      <trkpt lat="0" lon="0">
        <time>2021-02-28T09:02:13.862000+00:00</time>
      </trkpt>
      <trkpt lat="0" lon="0">
        <time>2021-02-28T09:02:13.863000+00:00</time>
      </trkpt>
      <trkpt lat="47.33109" lon="-1.43439">
        <ele>95</ele>
        <time>2021-02-28T09:02:14.893000+00:00</time>
      </trkpt>
      <trkpt lat="0" lon="0">
        <time>2021-02-28T09:02:14.900000+00:00</time>
      </trkpt>
      <trkpt lat="0" lon="0">
        <time>2021-02-28T09:02:14.905000+00:00</time>
      </trkpt>
      <trkpt lat="0" lon="0">
        <time>2021-02-28T09:02:14.907000+00:00</time>
      </trkpt>
      <trkpt lat="47.3311" lon="-1.4344">
        <ele>94</ele>
        <time>2021-02-28T09:02:15.916000+00:00</time>
      </trkpt>
      <trkpt lat="0" lon="0">
        <time>2021-02-28T09:02:15.921000+00:00</time>
      </trkpt>
      <trkpt lat="0" lon="0">
        <time>2021-02-28T09:02:15.924000+00:00</time>
      </trkpt>
      <trkpt lat="0" lon="0">
        <time>2021-02-28T09:02:15.926000+00:00</time>
      </trkpt>
      <trkpt lat="47.33112" lon="-1.43441">
        <ele>94</ele>
        <time>2021-02-28T09:02:16.906000+00:00</time>
      </trkpt>
      <trkpt lat="0" lon="0">
        <time>2021-02-28T09:02:16.916000+00:00</time>
      </trkpt>
      <trkpt lat="0" lon="0">
        <time>2021-02-28T09:02:16.924000+00:00</time>
      </trkpt>
      <trkpt lat="0" lon="0">
        <time>2021-02-28T09:02:16.925000+00:00</time>
      </trkpt>
      <trkpt lat="47.33113" lon="-1.43443">
        <ele>94</ele>
        <time>2021-02-28T09:02:17.913000+00:00</time>
      </trkpt>
      <trkpt lat="0" lon="0">
        <time>2021-02-28T09:02:17.921000+00:00</time>
      </trkpt>
      <trkpt lat="0" lon="0">
        <time>2021-02-28T09:02:17.927000+00:00</time>
      </trkpt>
      <trkpt lat="0" lon="0">
        <time>2021-02-28T09:02:17.930000+00:00</time>
      </trkpt>
      <trkpt lat="47.33115" lon="-1.43445">
        <ele>93</ele>
        <time>2021-02-28T09:02:18.894000+00:00</time>
      </trkpt>
      <trkpt lat="0" lon="0">
        <time>2021-02-28T09:02:18.905000+00:00</time>
      </trkpt>
      <trkpt lat="0" lon="0">
        <time>2021-02-28T09:02:18.909000+00:00</time>
      </trkpt>
      <trkpt lat="0" lon="0">
        <time>2021-02-28T09:02:18.911000+00:00</time>
      </trkpt>
      <trkpt lat="47.33117" lon="-1.43447">
        <ele>94</ele>
        <time>2021-02-28T09:02:19.879000+00:00</time>
      </trkpt>
      <trkpt lat="0" lon="0">
        <time>2021-02-28T09:02:19.889000+00:00</time>
      </trkpt>
      <trkpt lat="0" lon="0">
        <time>2021-02-28T09:02:19.893000+00:00</time>
      </trkpt>
      <trkpt lat="0" lon="0">
        <time>2021-02-28T09:02:19.895000+00:00</time>
      </trkpt>
      <trkpt lat="47.33119" lon="-1.43449">
        <ele>94</ele>
        <time>2021-02-28T09:02:20.908000+00:00</time>
      </trkpt>
      <trkpt lat="0" lon="0">
        <time>2021-02-28T09:02:20.915000+00:00</time>
      </trkpt>
      <trkpt lat="0" lon="0">
        <time>2021-02-28T09:02:20.920000+00:00</time>
      </trkpt>
      <trkpt lat="0" lon="0">
        <time>2021-02-28T09:02:20.922000+00:00</time>
      </trkpt>
      <trkpt lat="47.33121" lon="-1.43452">
        <ele>93</ele>
        <time>2021-02-28T09:02:21.908000+00:00</time>
      </trkpt>
      <trkpt lat="0" lon="0">
        <time>2021-02-28T09:02:21.912000+00:00</time>
      </trkpt>
      <trkpt lat="0" lon="0">
        <time>2021-02-28T09:02:21.916000+00:00</time>
      </trkpt>
      <trkpt lat="0" lon="0">
        <time>2021-02-28T09:02:21.918000+00:00</time>
      </trkpt>
      <trkpt lat="47.33122" lon="-1.43454">
        <ele>93</ele>
        <time>2021-02-28T09:02:22.887000+00:00</time>
      </trkpt>
      <trkpt lat="0" lon="0">
        <time>2021-02-28T09:02:22.894000+00:00</time>
      </trkpt>
      <trkpt lat="0" lon="0">
        <time>2021-02-28T09:02:22.898000+00:00</time>
      </trkpt>
      <trkpt lat="0" lon="0">
        <time>2021-02-28T09:02:22.900000+00:00</time>
      </trkpt>
      <trkpt lat="47.33125" lon="-1.43456">
        <ele>93</ele>
        <time>2021-02-28T09:02:23.905000+00:00</time>
      </trkpt>
      <trkpt lat="0" lon="0">
        <time>2021-02-28T09:02:23.915000+00:00</time>
      </trkpt>
      <trkpt lat="0" lon="0">
        <time>2021-02-28T09:02:23.921000+00:00</time>
      </trkpt>
      <trkpt lat="0" lon="0">
        <time>2021-02-28T09:02:23.924000+00:00</time>
      </trkpt>
      <trkpt lat="47.33127" lon="-1.43458">
        <ele>93</ele>
        <time>2021-02-28T09:02:24.878000+00:00</time>
      </trkpt>
      <trkpt lat="0" lon="0">
        <time>2021-02-28T09:02:24.884000+00:00</time>
      </trkpt>
      <trkpt lat="0" lon="0">
        <time>2021-02-28T09:02:24.888000+00:00</time>
      </trkpt>
      <trkpt lat="0" lon="0">
        <time>2021-02-28T09:02:24.890000+00:00</time>
      </trkpt>
      <trkpt lat="47.33129" lon="-1.4346">
        <ele>93</ele>
        <time>2021-02-28T09:02:25.900000+00:00</time>
      </trkpt>
      <trkpt lat="0" lon="0">
        <time>2021-02-28T09:02:25.917000+00:00</time>
      </trkpt>
      <trkpt lat="0" lon="0">
        <time>2021-02-28T09:02:25.922000+00:00</time>
      </trkpt>
      <trkpt lat="0" lon="0">
        <time>2021-02-28T09:02:25.924000+00:00</time>
      </trkpt>
      <trkpt lat="47.33132" lon="-1.43463">
        <ele>93</ele>
        <time>2021-02-28T09:02:26.909000+00:00</time>
      </trkpt>
      <trkpt lat="0" lon="0">
        <time>2021-02-28T09:02:26.920000+00:00</time>
      </trkpt>
      <trkpt lat="0" lon="0">
        <time>2021-02-28T09:02:26.925000+00:00</time>
      </trkpt>
      <trkpt lat="0" lon="0">
        <time>2021-02-28T09:02:26.928000+00:00</time>
      </trkpt>
      <trkpt lat="47.33135" lon="-1.43465">
        <ele>93</ele>
        <time>2021-02-28T09:02:27.898000+00:00</time>
      </trkpt>
      <trkpt lat="0" lon="0">
        <time>2021-02-28T09:02:27.902000+00:00</time>
      </trkpt>
      <trkpt lat="0" lon="0">
        <time>2021-02-28T09:02:27.905000+00:00</time>
      </trkpt>
      <trkpt lat="0" lon="0">
        <time>2021-02-28T09:02:27.908000+00:00</time>
      </trkpt>
      <trkpt lat="47.33138" lon="-1.43469">
        <ele>93</ele>
        <time>2021-02-28T09:02:28.911000+00:00</time>
      </trkpt>
      <trkpt lat="0" lon="0">
        <time>2021-02-28T09:02:28.918000+00:00</time>
      </trkpt>
      <trkpt lat="0" lon="0">
        <time>2021-02-28T09:02:28.923000+00:00</time>
      </trkpt>
      <trkpt lat="0" lon="0">
        <time>2021-02-28T09:02:28.926000+00:00</time>
      </trkpt>
      <trkpt lat="47.33141" lon="-1.43473">
        <ele>94</ele>
        <time>2021-02-28T09:02:29.878000+00:00</time>
      </trkpt>
      <trkpt lat="0" lon="0">
        <time>2021-02-28T09:02:29.901000+00:00</time>
      </trkpt>
      <trkpt lat="0" lon="0">
        <time>2021-02-28T09:02:29.907000+00:00</time>
      </trkpt>
      <trkpt lat="0" lon="0">
        <time>2021-02-28T09:02:29.911000+00:00</time>
      </trkpt>
      <trkpt lat="47.33144" lon="-1.43477">
        <ele>93</ele>
        <time>2021-02-28T09:02:30.869000+00:00</time>
      </trkpt>
      <trkpt lat="0" lon="0">
        <time>2021-02-28T09:02:30.876000+00:00</time>
      </trkpt>
      <trkpt lat="0" lon="0">
        <time>2021-02-28T09:02:30.879000+00:00</time>
      </trkpt>
      <trkpt lat="0" lon="0">
        <time>2021-02-28T09:02:30.881000+00:00</time>
      </trkpt>
      <trkpt lat="47.33148" lon="-1.43482">
        <ele>94</ele>
        <time>2021-02-28T09:02:31.910000+00:00</time>
      </trkpt>
      <trkpt lat="0" lon="0">
        <time>2021-02-28T09:02:31.919000+00:00</time>
      </trkpt>
      <trkpt lat="0" lon="0">
        <time>2021-02-28T09:02:31.922000+00:00</time>
      </trkpt>
      <trkpt lat="0" lon="0">
        <time>2021-02-28T09:02:31.925000+00:00</time>
      </trkpt>
      <trkpt lat="47.33151" lon="-1.43487">
        <ele>94</ele>
        <time>2021-02-28T09:02:32.927000+00:00</time>
      </trkpt>
      <trkpt lat="0" lon="0">
        <time>2021-02-28T09:02:32.933000+00:00</time>
      </trkpt>
      <trkpt lat="0" lon="0">
        <time>2021-02-28T09:02:32.937000+00:00</time>
      </trkpt>
      <trkpt lat="0" lon="0">
        <time>2021-02-28T09:02:32.940000+00:00</time>
      </trkpt>
      <trkpt lat="47.33155" lon="-1.43492">
        <ele>95</ele>
        <time>2021-02-28T09:02:33.922000+00:00</time>
      </trkpt>
      <trkpt lat="0" lon="0">
        <time>2021-02-28T09:02:33.929000+00:00</time>
      </trkpt>
      <trkpt lat="0" lon="0">
        <time>2021-02-28T09:02:33.935000+00:00</time>
      </trkpt>
      <trkpt lat="0" lon="0">
        <time>2021-02-28T09:02:33.938000+00:00</time>
      </trkpt>
      <trkpt lat="47.33159" lon="-1.43496">
        <ele>95</ele>
        <time>2021-02-28T09:02:34.908000+00:00</time>
      </trkpt>
      <trkpt lat="0" lon="0">
        <time>2021-02-28T09:02:34.913000+00:00</time>
      </trkpt>
      <trkpt lat="0" lon="0">
        <time>2021-02-28T09:02:34.918000+00:00</time>
      </trkpt>
      <trkpt lat="0" lon="0">
        <time>2021-02-28T09:02:34.920000+00:00</time>
      </trkpt>
      <trkpt lat="47.33162" lon="-1.43501">
        <ele>95</ele>
        <time>2021-02-28T09:02:35.890000+00:00</time>
      </trkpt>
      <trkpt lat="0" lon="0">
        <time>2021-02-28T09:02:35.899000+00:00</time>
      </trkpt>
      <trkpt lat="0" lon="0">
        <time>2021-02-28T09:02:35.903000+00:00</time>
      </trkpt>
      <trkpt lat="0" lon="0">
        <time>2021-02-28T09:02:35.905000+00:00</time>
      </trkpt>
      <trkpt lat="47.33166" lon="-1.43505">
        <ele>95</ele>
        <time>2021-02-28T09:02:36.887000+00:00</time>
      </trkpt>
      <trkpt lat="0" lon="0">
        <time>2021-02-28T09:02:36.889000+00:00</time>
      </trkpt>
      <trkpt lat="0" lon="0">
        <time>2021-02-28T09:02:36.892000+00:00</time>
      </trkpt>
      <trkpt lat="0" lon="0">
        <time>2021-02-28T09:02:36.893000+00:00</time>
      </trkpt>
      <trkpt lat="47.33169" lon="-1.43508">
        <ele>95</ele>
        <time>2021-02-28T09:02:37.901000+00:00</time>
      </trkpt>
      <trkpt lat="0" lon="0">
        <time>2021-02-28T09:02:37.910000+00:00</time>
      </trkpt>
      <trkpt lat="0" lon="0">
        <time>2021-02-28T09:02:37.913000+00:00</time>
      </trkpt>
      <trkpt lat="0" lon="0">
        <time>2021-02-28T09:02:37.916000+00:00</time>
      </trkpt>
      <trkpt lat="47.33171" lon="-1.43512">
        <ele>95</ele>
        <time>2021-02-28T09:02:38.907000+00:00</time>
      </trkpt>
      <trkpt lat="0" lon="0">
        <time>2021-02-28T09:02:38.917000+00:00</time>
      </trkpt>
      <trkpt lat="0" lon="0">
        <time>2021-02-28T09:02:38.922000+00:00</time>
      </trkpt>
      <trkpt lat="0" lon="0">
        <time>2021-02-28T09:02:38.925000+00:00</time>
      </trkpt>
      <trkpt lat="47.33173" lon="-1.43516">
        <ele>95</ele>
        <time>2021-02-28T09:02:39.908000+00:00</time>
      </trkpt>
      <trkpt lat="0" lon="0">
        <time>2021-02-28T09:02:39.913000+00:00</time>
      </trkpt>
      <trkpt lat="0" lon="0">
        <time>2021-02-28T09:02:39.917000+00:00</time>
      </trkpt>
      <trkpt lat="0" lon="0">
        <time>2021-02-28T09:02:39.920000+00:00</time>
      </trkpt>
      <trkpt lat="47.33175" lon="-1.43519">
        <ele>95</ele>
        <time>2021-02-28T09:02:40.891000+00:00</time>
      </trkpt>
      <trkpt lat="0" lon="0">
        <time>2021-02-28T09:02:40.897000+00:00</time>
      </trkpt>
      <trkpt lat="0" lon="0">
        <time>2021-02-28T09:02:40.902000+00:00</time>
      </trkpt>
      <trkpt lat="0" lon="0">
        <time>2021-02-28T09:02:40.905000+00:00</time>
      </trkpt>
      <trkpt lat="47.33177" lon="-1.43523">
        <ele>95</ele>
        <time>2021-02-28T09:02:41.896000+00:00</time>
      </trkpt>
      <trkpt lat="0" lon="0">
        <time>2021-02-28T09:02:41.900000+00:00</time>
      </trkpt>
      <trkpt lat="0" lon="0">
        <time>2021-02-28T09:02:41.906000+00:00</time>
      </trkpt>
      <trkpt lat="0" lon="0">
        <time>2021-02-28T09:02:41.909000+00:00</time>
      </trkpt>
      <trkpt lat="47.33179" lon="-1.43526">
        <ele>96</ele>
        <time>2021-02-28T09:02:42.875000+00:00</time>
      </trkpt>
      <trkpt lat="0" lon="0">
        <time>2021-02-28T09:02:42.885000+00:00</time>
      </trkpt>
      <trkpt lat="0" lon="0">
        <time>2021-02-28T09:02:42.893000+00:00</time>
      </trkpt>
      <trkpt lat="0" lon="0">
        <time>2021-02-28T09:02:42.897000+00:00</time>
      </trkpt>
      <trkpt lat="47.3318" lon="-1.43529">
        <ele>95</ele>
        <time>2021-02-28T09:02:43.898000+00:00</time>
      </trkpt>
      <trkpt lat="0" lon="0">
        <time>2021-02-28T09:02:43.903000+00:00</time>
      </trkpt>
      <trkpt lat="0" lon="0">
        <time>2021-02-28T09:02:43.912000+00:00</time>
      </trkpt>
      <trkpt lat="0" lon="0">
        <time>2021-02-28T09:02:43.914000+00:00</time>
      </trkpt>
      <trkpt lat="47.33182" lon="-1.43532">
        <ele>95</ele>
        <time>2021-02-28T09:02:44.901000+00:00</time>
      </trkpt>
      <trkpt lat="0" lon="0">
        <time>2021-02-28T09:02:44.911000+00:00</time>
      </trkpt>
      <trkpt lat="0" lon="0">
        <time>2021-02-28T09:02:44.918000+00:00</time>
      </trkpt>
      <trkpt lat="0" lon="0">
        <time>2021-02-28T09:02:44.920000+00:00</time>
      </trkpt>
      <trkpt lat="47.33184" lon="-1.43535">
        <ele>95</ele>
        <time>2021-02-28T09:02:45.913000+00:00</time>
      </trkpt>
      <trkpt lat="0" lon="0">
        <time>2021-02-28T09:02:45.924000+00:00</time>
      </trkpt>
      <trkpt lat="0" lon="0">
        <time>2021-02-28T09:02:45.929000+00:00</time>
      </trkpt>
      <trkpt lat="0" lon="0">
        <time>2021-02-28T09:02:45.931000+00:00</time>
      </trkpt>
      <trkpt lat="47.33187" lon="-1.43538">
        <ele>95</ele>
        <time>2021-02-28T09:02:46.914000+00:00</time>
      </trkpt>
      <trkpt lat="0" lon="0">
        <time>2021-02-28T09:02:46.921000+00:00</time>
      </trkpt>
      <trkpt lat="0" lon="0">
        <time>2021-02-28T09:02:46.925000+00:00</time>
      </trkpt>
      <trkpt lat="0" lon="0">
        <time>2021-02-28T09:02:46.927000+00:00</time>
      </trkpt>
      <trkpt lat="47.33189" lon="-1.43541">
        <ele>95</ele>
        <time>2021-02-28T09:02:47.889000+00:00</time>
      </trkpt>
      <trkpt lat="0" lon="0">
        <time>2021-02-28T09:02:47.897000+00:00</time>
      </trkpt>
      <trkpt lat="0" lon="0">
        <time>2021-02-28T09:02:47.902000+00:00</time>
      </trkpt>
      <trkpt lat="0" lon="0">
        <time>2021-02-28T09:02:47.904000+00:00</time>
      </trkpt>
      <trkpt lat="47.33192" lon="-1.43544">
        <ele>95</ele>
        <time>2021-02-28T09:02:48.891000+00:00</time>
      </trkpt>
      <trkpt lat="0" lon="0">
        <time>2021-02-28T09:02:48.896000+00:00</time>
      </trkpt>
      <trkpt lat="0" lon="0">
        <time>2021-02-28T09:02:48.900000+00:00</time>
      </trkpt>
      <trkpt lat="0" lon="0">
        <time>2021-02-28T09:02:48.902000+00:00</time>
      </trkpt>
      <trkpt lat="47.33194" lon="-1.43546">
        <ele>95</ele>
        <time>2021-02-28T09:02:49.874000+00:00</time>
      </trkpt>
      <trkpt lat="0" lon="0">
        <time>2021-02-28T09:02:49.885000+00:00</time>
      </trkpt>
      <trkpt lat="0" lon="0">
        <time>2021-02-28T09:02:49.889000+00:00</time>
      </trkpt>
      <trkpt lat="0" lon="0">
        <time>2021-02-28T09:02:49.891000+00:00</time>
      </trkpt>
      <trkpt lat="47.33197" lon="-1.43549">
        <ele>95</ele>
        <time>2021-02-28T09:02:50.821000+00:00</time>
      </trkpt>
      <trkpt lat="0" lon="0">
        <time>2021-02-28T09:02:50.826000+00:00</time>
      </trkpt>
      <trkpt lat="0" lon="0">
        <time>2021-02-28T09:02:50.829000+00:00</time>
      </trkpt>
      <trkpt lat="0" lon="0">
        <time>2021-02-28T09:02:50.832000+00:00</time>
      </trkpt>
      <trkpt lat="47.33199" lon="-1.43551">
        <ele>95</ele>
        <time>2021-02-28T09:02:51.897000+00:00</time>
      </trkpt>
      <trkpt lat="0" lon="0">
        <time>2021-02-28T09:02:51.906000+00:00</time>
      </trkpt>
      <trkpt lat="0" lon="0">
        <time>2021-02-28T09:02:51.911000+00:00</time>
      </trkpt>
      <trkpt lat="0" lon="0">
        <time>2021-02-28T09:02:51.914000+00:00</time>
      </trkpt>
      <trkpt lat="47.33202" lon="-1.43554">
        <ele>95</ele>
        <time>2021-02-28T09:02:52.893000+00:00</time>
      </trkpt>
      <trkpt lat="0" lon="0">
        <time>2021-02-28T09:02:52.901000+00:00</time>
      </trkpt>
      <trkpt lat="0" lon="0">
        <time>2021-02-28T09:02:52.906000+00:00</time>
      </trkpt>
      <trkpt lat="0" lon="0">
        <time>2021-02-28T09:02:52.908000+00:00</time>
      </trkpt>
      <trkpt lat="47.33204" lon="-1.43557">
        <ele>95</ele>
        <time>2021-02-28T09:02:53.904000+00:00</time>
      </trkpt>
      <trkpt lat="0" lon="0">
        <time>2021-02-28T09:02:53.910000+00:00</time>
      </trkpt>
      <trkpt lat="0" lon="0">
        <time>2021-02-28T09:02:53.915000+00:00</time>
      </trkpt>
      <trkpt lat="0" lon="0">
        <time>2021-02-28T09:02:53.918000+00:00</time>
      </trkpt>
      <trkpt lat="47.33206" lon="-1.4356">
        <ele>94</ele>
        <time>2021-02-28T09:02:54.915000+00:00</time>
      </trkpt>
      <trkpt lat="0" lon="0">
        <time>2021-02-28T09:02:54.919000+00:00</time>
      </trkpt>
      <trkpt lat="0" lon="0">
        <time>2021-02-28T09:02:54.922000+00:00</time>
      </trkpt>
      <trkpt lat="0" lon="0">
        <time>2021-02-28T09:02:54.924000+00:00</time>
      </trkpt>
      <trkpt lat="47.33208" lon="-1.43563">
        <ele>95</ele>
        <time>2021-02-28T09:02:55.888000+00:00</time>
      </trkpt>
      <trkpt lat="0" lon="0">
        <time>2021-02-28T09:02:55.891000+00:00</time>
      </trkpt>
      <trkpt lat="0" lon="0">
        <time>2021-02-28T09:02:55.895000+00:00</time>
      </trkpt>
      <trkpt lat="0" lon="0">
        <time>2021-02-28T09:02:55.904000+00:00</time>
      </trkpt>
      <trkpt lat="47.3321" lon="-1.43566">
        <ele>95</ele>
        <time>2021-02-28T09:02:56.865000+00:00</time>
      </trkpt>
      <trkpt lat="0" lon="0">
        <time>2021-02-28T09:02:56.873000+00:00</time>
      </trkpt>
      <trkpt lat="0" lon="0">
        <time>2021-02-28T09:02:56.877000+00:00</time>
      </trkpt>
      <trkpt lat="0" lon="0">
        <time>2021-02-28T09:02:56.879000+00:00</time>
      </trkpt>
      <trkpt lat="47.33212" lon="-1.43568">
        <ele>95</ele>
        <time>2021-02-28T09:02:57.901000+00:00</time>
      </trkpt>
      <trkpt lat="0" lon="0">
        <time>2021-02-28T09:02:57.912000+00:00</time>
      </trkpt>
      <trkpt lat="0" lon="0">
        <time>2021-02-28T09:02:57.918000+00:00</time>
      </trkpt>
      <trkpt lat="0" lon="0">
        <time>2021-02-28T09:02:57.920000+00:00</time>
      </trkpt>
      <trkpt lat="47.33214" lon="-1.43572">
        <ele>94</ele>
        <time>2021-02-28T09:02:58.910000+00:00</time>
      </trkpt>
      <trkpt lat="0" lon="0">
        <time>2021-02-28T09:02:58.922000+00:00</time>
      </trkpt>
      <trkpt lat="0" lon="0">
        <time>2021-02-28T09:02:58.928000+00:00</time>
      </trkpt>
      <trkpt lat="0" lon="0">
        <time>2021-02-28T09:02:58.931000+00:00</time>
      </trkpt>
      <trkpt lat="47.33215" lon="-1.43575">
        <ele>94</ele>
        <time>2021-02-28T09:02:59.881000+00:00</time>
      </trkpt>
      <trkpt lat="0" lon="0">
        <time>2021-02-28T09:02:59.886000+00:00</time>
      </trkpt>
      <trkpt lat="0" lon="0">
        <time>2021-02-28T09:02:59.890000+00:00</time>
      </trkpt>
      <trkpt lat="0" lon="0">
        <time>2021-02-28T09:02:59.892000+00:00</time>
      </trkpt>
      <trkpt lat="47.33217" lon="-1.43578">
        <ele>94</ele>
        <time>2021-02-28T09:03:00.904000+00:00</time>
      </trkpt>
      <trkpt lat="0" lon="0">
        <time>2021-02-28T09:03:00.914000+00:00</time>
      </trkpt>
      <trkpt lat="0" lon="0">
        <time>2021-02-28T09:03:00.918000+00:00</time>
      </trkpt>
      <trkpt lat="0" lon="0">
        <time>2021-02-28T09:03:00.920000+00:00</time>
      </trkpt>
      <trkpt lat="47.33219" lon="-1.43582">
        <ele>94</ele>
        <time>2021-02-28T09:03:01.832000+00:00</time>
      </trkpt>
      <trkpt lat="0" lon="0">
        <time>2021-02-28T09:03:01.833000+00:00</time>
      </trkpt>
      <trkpt lat="0" lon="0">
        <time>2021-02-28T09:03:01.834000+00:00</time>
      </trkpt>
      <trkpt lat="0" lon="0">
        <time>2021-02-28T09:03:01.835000+00:00</time>
      </trkpt>
      <trkpt lat="47.33221" lon="-1.43585">
        <ele>95</ele>
        <time>2021-02-28T09:03:02.809000+00:00</time>
      </trkpt>
      <trkpt lat="0" lon="0">
        <time>2021-02-28T09:03:02.810000+00:00</time>
      </trkpt>
      <trkpt lat="0" lon="0">
        <time>2021-02-28T09:03:02.811000+00:00</time>
      </trkpt>
      <trkpt lat="0" lon="0">
        <time>2021-02-28T09:03:02.812000+00:00</time>
      </trkpt>
      <trkpt lat="47.33223" lon="-1.43588">
        <ele>94</ele>
        <time>2021-02-28T09:03:03.890000+00:00</time>
      </trkpt>
      <trkpt lat="0" lon="0">
        <time>2021-02-28T09:03:03.904000+00:00</time>
      </trkpt>
      <trkpt lat="0" lon="0">
        <time>2021-02-28T09:03:03.909000+00:00</time>
      </trkpt>
      <trkpt lat="0" lon="0">
        <time>2021-02-28T09:03:03.911000+00:00</time>
      </trkpt>
      <trkpt lat="47.33225" lon="-1.43591">
        <ele>94</ele>
        <time>2021-02-28T09:03:04.891000+00:00</time>
      </trkpt>
      <trkpt lat="0" lon="0">
        <time>2021-02-28T09:03:04.899000+00:00</time>
      </trkpt>
      <trkpt lat="0" lon="0">
        <time>2021-02-28T09:03:04.902000+00:00</time>
      </trkpt>
      <trkpt lat="0" lon="0">
        <time>2021-02-28T09:03:04.905000+00:00</time>
      </trkpt>
      <trkpt lat="47.33228" lon="-1.43594">
        <ele>94</ele>
        <time>2021-02-28T09:03:05.908000+00:00</time>
      </trkpt>
      <trkpt lat="0" lon="0">
        <time>2021-02-28T09:03:05.916000+00:00</time>
      </trkpt>
      <trkpt lat="0" lon="0">
        <time>2021-02-28T09:03:05.920000+00:00</time>
      </trkpt>
      <trkpt lat="0" lon="0">
        <time>2021-02-28T09:03:05.925000+00:00</time>
      </trkpt>
      <trkpt lat="47.33231" lon="-1.43596">
        <ele>95</ele>
        <time>2021-02-28T09:03:06.885000+00:00</time>
      </trkpt>
      <trkpt lat="0" lon="0">
        <time>2021-02-28T09:03:06.889000+00:00</time>
      </trkpt>
      <trkpt lat="0" lon="0">
        <time>2021-02-28T09:03:06.894000+00:00</time>
      </trkpt>
      <trkpt lat="0" lon="0">
        <time>2021-02-28T09:03:06.900000+00:00</time>
      </trkpt>
      <trkpt lat="47.33233" lon="-1.43599">
        <ele>95</ele>
        <time>2021-02-28T09:03:07.890000+00:00</time>
      </trkpt>
      <trkpt lat="0" lon="0">
        <time>2021-02-28T09:03:07.895000+00:00</time>
      </trkpt>
      <trkpt lat="0" lon="0">
        <time>2021-02-28T09:03:07.900000+00:00</time>
      </trkpt>
      <trkpt lat="0" lon="0">
        <time>2021-02-28T09:03:07.903000+00:00</time>
      </trkpt>
      <trkpt lat="47.33235" lon="-1.43602">
        <ele>95</ele>
        <time>2021-02-28T09:03:08.883000+00:00</time>
      </trkpt>
      <trkpt lat="0" lon="0">
        <time>2021-02-28T09:03:08.891000+00:00</time>
      </trkpt>
      <trkpt lat="0" lon="0">
        <time>2021-02-28T09:03:08.895000+00:00</time>
      </trkpt>
      <trkpt lat="0" lon="0">
        <time>2021-02-28T09:03:08.898000+00:00</time>
      </trkpt>
      <trkpt lat="47.33238" lon="-1.43604">
        <ele>95</ele>
        <time>2021-02-28T09:03:09.864000+00:00</time>
      </trkpt>
      <trkpt lat="0" lon="0">
        <time>2021-02-28T09:03:09.879000+00:00</time>
      </trkpt>
      <trkpt lat="0" lon="0">
        <time>2021-02-28T09:03:09.883000+00:00</time>
      </trkpt>
      <trkpt lat="0" lon="0">
        <time>2021-02-28T09:03:09.885000+00:00</time>
      </trkpt>
      <trkpt lat="47.3324" lon="-1.43607">
        <ele>95</ele>
        <time>2021-02-28T09:03:10.866000+00:00</time>
      </trkpt>
      <trkpt lat="0" lon="0">
        <time>2021-02-28T09:03:10.872000+00:00</time>
      </trkpt>
      <trkpt lat="0" lon="0">
        <time>2021-02-28T09:03:10.878000+00:00</time>
      </trkpt>
      <trkpt lat="0" lon="0">
        <time>2021-02-28T09:03:10.881000+00:00</time>
      </trkpt>
      <trkpt lat="47.33242" lon="-1.43609">
        <ele>95</ele>
        <time>2021-02-28T09:03:11.871000+00:00</time>
      </trkpt>
      <trkpt lat="0" lon="0">
        <time>2021-02-28T09:03:11.883000+00:00</time>
      </trkpt>
      <trkpt lat="0" lon="0">
        <time>2021-02-28T09:03:11.889000+00:00</time>
      </trkpt>
      <trkpt lat="0" lon="0">
        <time>2021-02-28T09:03:11.893000+00:00</time>
      </trkpt>
      <trkpt lat="47.33245" lon="-1.43611">
        <ele>96</ele>
        <time>2021-02-28T09:03:12.893000+00:00</time>
      </trkpt>
      <trkpt lat="0" lon="0">
        <time>2021-02-28T09:03:12.903000+00:00</time>
      </trkpt>
      <trkpt lat="0" lon="0">
        <time>2021-02-28T09:03:12.907000+00:00</time>
      </trkpt>
      <trkpt lat="0" lon="0">
        <time>2021-02-28T09:03:12.910000+00:00</time>
      </trkpt>
      <trkpt lat="47.33247" lon="-1.43612">
        <ele>96</ele>
        <time>2021-02-28T09:03:13.878000+00:00</time>
      </trkpt>
      <trkpt lat="0" lon="0">
        <time>2021-02-28T09:03:13.889000+00:00</time>
      </trkpt>
      <trkpt lat="0" lon="0">
        <time>2021-02-28T09:03:13.893000+00:00</time>
      </trkpt>
      <trkpt lat="0" lon="0">
        <time>2021-02-28T09:03:13.896000+00:00</time>
      </trkpt>
      <trkpt lat="47.3325" lon="-1.43614">
        <ele>96</ele>
        <time>2021-02-28T09:03:14.863000+00:00</time>
      </trkpt>
      <trkpt lat="0" lon="0">
        <time>2021-02-28T09:03:14.877000+00:00</time>
      </trkpt>
      <trkpt lat="0" lon="0">
        <time>2021-02-28T09:03:14.884000+00:00</time>
      </trkpt>
      <trkpt lat="0" lon="0">
        <time>2021-02-28T09:03:14.886000+00:00</time>
      </trkpt>
      <trkpt lat="47.33252" lon="-1.43615">
        <ele>96</ele>
        <time>2021-02-28T09:03:15.888000+00:00</time>
      </trkpt>
      <trkpt lat="0" lon="0">
        <time>2021-02-28T09:03:15.893000+00:00</time>
      </trkpt>
      <trkpt lat="0" lon="0">
        <time>2021-02-28T09:03:15.898000+00:00</time>
      </trkpt>
      <trkpt lat="0" lon="0">
        <time>2021-02-28T09:03:15.901000+00:00</time>
      </trkpt>
      <trkpt lat="47.33255" lon="-1.43615">
        <ele>96</ele>
        <time>2021-02-28T09:03:16.893000+00:00</time>
      </trkpt>
      <trkpt lat="0" lon="0">
        <time>2021-02-28T09:03:16.910000+00:00</time>
      </trkpt>
      <trkpt lat="0" lon="0">
        <time>2021-02-28T09:03:16.917000+00:00</time>
      </trkpt>
      <trkpt lat="0" lon="0">
        <time>2021-02-28T09:03:16.919000+00:00</time>
      </trkpt>
      <trkpt lat="47.33257" lon="-1.43616">
        <ele>96</ele>
        <time>2021-02-28T09:03:17.900000+00:00</time>
      </trkpt>
      <trkpt lat="0" lon="0">
        <time>2021-02-28T09:03:17.915000+00:00</time>
      </trkpt>
      <trkpt lat="0" lon="0">
        <time>2021-02-28T09:03:17.921000+00:00</time>
      </trkpt>
      <trkpt lat="0" lon="0">
        <time>2021-02-28T09:03:17.924000+00:00</time>
      </trkpt>
      <trkpt lat="47.33259" lon="-1.43616">
        <ele>96</ele>
        <time>2021-02-28T09:03:18.881000+00:00</time>
      </trkpt>
      <trkpt lat="0" lon="0">
        <time>2021-02-28T09:03:18.888000+00:00</time>
      </trkpt>
      <trkpt lat="0" lon="0">
        <time>2021-02-28T09:03:18.893000+00:00</time>
      </trkpt>
      <trkpt lat="0" lon="0">
        <time>2021-02-28T09:03:18.895000+00:00</time>
      </trkpt>
      <trkpt lat="47.33261" lon="-1.43616">
        <ele>96</ele>
        <time>2021-02-28T09:03:19.838000+00:00</time>
      </trkpt>
      <trkpt lat="0" lon="0">
        <time>2021-02-28T09:03:19.847000+00:00</time>
      </trkpt>
      <trkpt lat="0" lon="0">
        <time>2021-02-28T09:03:19.851000+00:00</time>
      </trkpt>
      <trkpt lat="0" lon="0">
        <time>2021-02-28T09:03:19.853000+00:00</time>
      </trkpt>
      <trkpt lat="47.33262" lon="-1.43616">
        <ele>96</ele>
        <time>2021-02-28T09:03:20.852000+00:00</time>
      </trkpt>
      <trkpt lat="0" lon="0">
        <time>2021-02-28T09:03:20.860000+00:00</time>
      </trkpt>
      <trkpt lat="0" lon="0">
        <time>2021-02-28T09:03:20.866000+00:00</time>
      </trkpt>
      <trkpt lat="0" lon="0">
        <time>2021-02-28T09:03:20.868000+00:00</time>
      </trkpt>
      <trkpt lat="47.33264" lon="-1.43615">
        <ele>96</ele>
        <time>2021-02-28T09:03:21.854000+00:00</time>
      </trkpt>
      <trkpt lat="0" lon="0">
        <time>2021-02-28T09:03:21.864000+00:00</time>
      </trkpt>
      <trkpt lat="0" lon="0">
        <time>2021-02-28T09:03:21.868000+00:00</time>
      </trkpt>
      <trkpt lat="0" lon="0">
        <time>2021-02-28T09:03:21.870000+00:00</time>
      </trkpt>
      <trkpt lat="47.33266" lon="-1.43615">
        <ele>97</ele>
        <time>2021-02-28T09:03:22.875000+00:00</time>
      </trkpt>
      <trkpt lat="0" lon="0">
        <time>2021-02-28T09:03:22.880000+00:00</time>
      </trkpt>
      <trkpt lat="0" lon="0">
        <time>2021-02-28T09:03:22.886000+00:00</time>
      </trkpt>
      <trkpt lat="0" lon="0">
        <time>2021-02-28T09:03:22.888000+00:00</time>
      </trkpt>
      <trkpt lat="47.33267" lon="-1.43614">
        <ele>97</ele>
        <time>2021-02-28T09:03:23.881000+00:00</time>
      </trkpt>
      <trkpt lat="0" lon="0">
        <time>2021-02-28T09:03:23.892000+00:00</time>
      </trkpt>
      <trkpt lat="0" lon="0">
        <time>2021-02-28T09:03:23.896000+00:00</time>
      </trkpt>
      <trkpt lat="0" lon="0">
        <time>2021-02-28T09:03:23.899000+00:00</time>
      </trkpt>
      <trkpt lat="47.33269" lon="-1.43614">
        <ele>97</ele>
        <time>2021-02-28T09:03:24.899000+00:00</time>
      </trkpt>
      <trkpt lat="0" lon="0">
        <time>2021-02-28T09:03:24.903000+00:00</time>
      </trkpt>
      <trkpt lat="0" lon="0">
        <time>2021-02-28T09:03:24.907000+00:00</time>
      </trkpt>
      <trkpt lat="0" lon="0">
        <time>2021-02-28T09:03:24.909000+00:00</time>
      </trkpt>
      <trkpt lat="47.3327" lon="-1.43614">
        <ele>97</ele>
        <time>2021-02-28T09:03:25.867000+00:00</time>
      </trkpt>
      <trkpt lat="0" lon="0">
        <time>2021-02-28T09:03:25.876000+00:00</time>
      </trkpt>
      <trkpt lat="0" lon="0">
        <time>2021-02-28T09:03:25.882000+00:00</time>
      </trkpt>
      <trkpt lat="0" lon="0">
        <time>2021-02-28T09:03:25.885000+00:00</time>
      </trkpt>
      <trkpt lat="47.33271" lon="-1.43613">
        <ele>97</ele>
        <time>2021-02-28T09:03:26.879000+00:00</time>
      </trkpt>
      <trkpt lat="0" lon="0">
        <time>2021-02-28T09:03:26.885000+00:00</time>
      </trkpt>
      <trkpt lat="0" lon="0">
        <time>2021-02-28T09:03:26.893000+00:00</time>
      </trkpt>
      <trkpt lat="0" lon="0">
        <time>2021-02-28T09:03:26.895000+00:00</time>
      </trkpt>
      <trkpt lat="47.33273" lon="-1.43613">
        <ele>97</ele>
        <time>2021-02-28T09:03:27.888000+00:00</time>
      </trkpt>
      <trkpt lat="0" lon="0">
        <time>2021-02-28T09:03:27.897000+00:00</time>
      </trkpt>
      <trkpt lat="0" lon="0">
        <time>2021-02-28T09:03:27.901000+00:00</time>
      </trkpt>
      <trkpt lat="0" lon="0">
        <time>2021-02-28T09:03:27.904000+00:00</time>
      </trkpt>
      <trkpt lat="47.33274" lon="-1.43612">
        <ele>96</ele>
        <time>2021-02-28T09:03:28.872000+00:00</time>
      </trkpt>
      <trkpt lat="0" lon="0">
        <time>2021-02-28T09:03:28.881000+00:00</time>
      </trkpt>
      <trkpt lat="0" lon="0">
        <time>2021-02-28T09:03:28.885000+00:00</time>
      </trkpt>
      <trkpt lat="0" lon="0">
        <time>2021-02-28T09:03:28.886000+00:00</time>
      </trkpt>
      <trkpt lat="47.33275" lon="-1.43612">
        <ele>97</ele>
        <time>2021-02-28T09:03:29.891000+00:00</time>
      </trkpt>
      <trkpt lat="0" lon="0">
        <time>2021-02-28T09:03:29.896000+00:00</time>
      </trkpt>
      <trkpt lat="0" lon="0">
        <time>2021-02-28T09:03:29.902000+00:00</time>
      </trkpt>
      <trkpt lat="0" lon="0">
        <time>2021-02-28T09:03:29.904000+00:00</time>
      </trkpt>
      <trkpt lat="47.33277" lon="-1.43612">
        <ele>97</ele>
        <time>2021-02-28T09:03:30.888000+00:00</time>
      </trkpt>
      <trkpt lat="0" lon="0">
        <time>2021-02-28T09:03:30.893000+00:00</time>
      </trkpt>
      <trkpt lat="0" lon="0">
        <time>2021-02-28T09:03:30.899000+00:00</time>
      </trkpt>
      <trkpt lat="0" lon="0">
        <time>2021-02-28T09:03:30.901000+00:00</time>
      </trkpt>
      <trkpt lat="47.33278" lon="-1.43612">
        <ele>97</ele>
        <time>2021-02-28T09:03:31.877000+00:00</time>
      </trkpt>
      <trkpt lat="0" lon="0">
        <time>2021-02-28T09:03:31.882000+00:00</time>
      </trkpt>
      <trkpt lat="0" lon="0">
        <time>2021-02-28T09:03:31.890000+00:00</time>
      </trkpt>
      <trkpt lat="0" lon="0">
        <time>2021-02-28T09:03:31.892000+00:00</time>
      </trkpt>
      <trkpt lat="47.3328" lon="-1.43612">
        <ele>98</ele>
        <time>2021-02-28T09:03:32.864000+00:00</time>
      </trkpt>
      <trkpt lat="0" lon="0">
        <time>2021-02-28T09:03:32.868000+00:00</time>
      </trkpt>
      <trkpt lat="0" lon="0">
        <time>2021-02-28T09:03:32.873000+00:00</time>
      </trkpt>
      <trkpt lat="0" lon="0">
        <time>2021-02-28T09:03:32.876000+00:00</time>
      </trkpt>
      <trkpt lat="47.33281" lon="-1.43612">
        <ele>98</ele>
        <time>2021-02-28T09:03:33.835000+00:00</time>
      </trkpt>
      <trkpt lat="0" lon="0">
        <time>2021-02-28T09:03:33.843000+00:00</time>
      </trkpt>
      <trkpt lat="0" lon="0">
        <time>2021-02-28T09:03:33.849000+00:00</time>
      </trkpt>
      <trkpt lat="0" lon="0">
        <time>2021-02-28T09:03:33.851000+00:00</time>
      </trkpt>
      <trkpt lat="47.33283" lon="-1.43612">
        <ele>99</ele>
        <time>2021-02-28T09:03:34.867000+00:00</time>
      </trkpt>
      <trkpt lat="0" lon="0">
        <time>2021-02-28T09:03:34.880000+00:00</time>
      </trkpt>
      <trkpt lat="0" lon="0">
        <time>2021-02-28T09:03:34.888000+00:00</time>
      </trkpt>
      <trkpt lat="0" lon="0">
        <time>2021-02-28T09:03:34.891000+00:00</time>
      </trkpt>
      <trkpt lat="47.33284" lon="-1.43612">
        <ele>99</ele>
        <time>2021-02-28T09:03:35.870000+00:00</time>
      </trkpt>
      <trkpt lat="0" lon="0">
        <time>2021-02-28T09:03:35.875000+00:00</time>
      </trkpt>
      <trkpt lat="0" lon="0">
        <time>2021-02-28T09:03:35.883000+00:00</time>
      </trkpt>
      <trkpt lat="0" lon="0">
        <time>2021-02-28T09:03:35.886000+00:00</time>
      </trkpt>
      <trkpt lat="47.33285" lon="-1.43612">
        <ele>99</ele>
        <time>2021-02-28T09:03:36.889000+00:00</time>
      </trkpt>
      <trkpt lat="0" lon="0">
        <time>2021-02-28T09:03:36.896000+00:00</time>
      </trkpt>
      <trkpt lat="0" lon="0">
        <time>2021-02-28T09:03:36.902000+00:00</time>
      </trkpt>
      <trkpt lat="0" lon="0">
        <time>2021-02-28T09:03:36.905000+00:00</time>
      </trkpt>
      <trkpt lat="47.33286" lon="-1.43612">
        <ele>100</ele>
        <time>2021-02-28T09:03:37.863000+00:00</time>
      </trkpt>
      <trkpt lat="0" lon="0">
        <time>2021-02-28T09:03:37.875000+00:00</time>
      </trkpt>
      <trkpt lat="0" lon="0">
        <time>2021-02-28T09:03:37.883000+00:00</time>
      </trkpt>
      <trkpt lat="0" lon="0">
        <time>2021-02-28T09:03:37.890000+00:00</time>
      </trkpt>
      <trkpt lat="47.33288" lon="-1.43612">
        <ele>100</ele>
        <time>2021-02-28T09:03:38.891000+00:00</time>
      </trkpt>
      <trkpt lat="0" lon="0">
        <time>2021-02-28T09:03:38.897000+00:00</time>
      </trkpt>
      <trkpt lat="0" lon="0">
        <time>2021-02-28T09:03:38.902000+00:00</time>
      </trkpt>
      <trkpt lat="0" lon="0">
        <time>2021-02-28T09:03:38.905000+00:00</time>
      </trkpt>
      <trkpt lat="47.33289" lon="-1.43611">
        <ele>100</ele>
        <time>2021-02-28T09:03:39.881000+00:00</time>
      </trkpt>
      <trkpt lat="0" lon="0">
        <time>2021-02-28T09:03:39.884000+00:00</time>
      </trkpt>
      <trkpt lat="0" lon="0">
        <time>2021-02-28T09:03:39.889000+00:00</time>
      </trkpt>
      <trkpt lat="0" lon="0">
        <time>2021-02-28T09:03:39.890000+00:00</time>
      </trkpt>
      <trkpt lat="47.33291" lon="-1.43611">
        <ele>99</ele>
        <time>2021-02-28T09:03:40.880000+00:00</time>
      </trkpt>
      <trkpt lat="0" lon="0">
        <time>2021-02-28T09:03:40.886000+00:00</time>
      </trkpt>
      <trkpt lat="0" lon="0">
        <time>2021-02-28T09:03:40.891000+00:00</time>
      </trkpt>
      <trkpt lat="0" lon="0">
        <time>2021-02-28T09:03:40.893000+00:00</time>
      </trkpt>
      <trkpt lat="47.33293" lon="-1.43611">
        <ele>99</ele>
        <time>2021-02-28T09:03:41.877000+00:00</time>
      </trkpt>
      <trkpt lat="0" lon="0">
        <time>2021-02-28T09:03:41.882000+00:00</time>
      </trkpt>
      <trkpt lat="0" lon="0">
        <time>2021-02-28T09:03:41.887000+00:00</time>
      </trkpt>
      <trkpt lat="0" lon="0">
        <time>2021-02-28T09:03:41.890000+00:00</time>
      </trkpt>
      <trkpt lat="47.33294" lon="-1.43611">
        <ele>99</ele>
        <time>2021-02-28T09:03:42.871000+00:00</time>
      </trkpt>
      <trkpt lat="0" lon="0">
        <time>2021-02-28T09:03:42.885000+00:00</time>
      </trkpt>
      <trkpt lat="0" lon="0">
        <time>2021-02-28T09:03:42.890000+00:00</time>
      </trkpt>
      <trkpt lat="0" lon="0">
        <time>2021-02-28T09:03:42.893000+00:00</time>
      </trkpt>
      <trkpt lat="47.33295" lon="-1.43611">
        <ele>99</ele>
        <time>2021-02-28T09:03:43.887000+00:00</time>
      </trkpt>
      <trkpt lat="0" lon="0">
        <time>2021-02-28T09:03:43.896000+00:00</time>
      </trkpt>
      <trkpt lat="0" lon="0">
        <time>2021-02-28T09:03:43.900000+00:00</time>
      </trkpt>
      <trkpt lat="0" lon="0">
        <time>2021-02-28T09:03:43.903000+00:00</time>
      </trkpt>
      <trkpt lat="47.33296" lon="-1.43611">
        <ele>99</ele>
        <time>2021-02-28T09:03:44.883000+00:00</time>
      </trkpt>
      <trkpt lat="0" lon="0">
        <time>2021-02-28T09:03:44.893000+00:00</time>
      </trkpt>
      <trkpt lat="0" lon="0">
        <time>2021-02-28T09:03:44.896000+00:00</time>
      </trkpt>
      <trkpt lat="0" lon="0">
        <time>2021-02-28T09:03:44.899000+00:00</time>
      </trkpt>
      <trkpt lat="47.33298" lon="-1.43611">
        <ele>98</ele>
        <time>2021-02-28T09:03:45.887000+00:00</time>
      </trkpt>
      <trkpt lat="0" lon="0">
        <time>2021-02-28T09:03:45.895000+00:00</time>
      </trkpt>
      <trkpt lat="0" lon="0">
        <time>2021-02-28T09:03:45.900000+00:00</time>
      </trkpt>
      <trkpt lat="0" lon="0">
        <time>2021-02-28T09:03:45.902000+00:00</time>
      </trkpt>
      <trkpt lat="47.333" lon="-1.43611">
        <ele>98</ele>
        <time>2021-02-28T09:03:46.855000+00:00</time>
      </trkpt>
      <trkpt lat="0" lon="0">
        <time>2021-02-28T09:03:46.863000+00:00</time>
      </trkpt>
      <trkpt lat="0" lon="0">
        <time>2021-02-28T09:03:46.871000+00:00</time>
      </trkpt>
      <trkpt lat="0" lon="0">
        <time>2021-02-28T09:03:46.873000+00:00</time>
      </trkpt>
      <trkpt lat="47.33301" lon="-1.43611">
        <ele>98</ele>
        <time>2021-02-28T09:03:47.887000+00:00</time>
      </trkpt>
      <trkpt lat="0" lon="0">
        <time>2021-02-28T09:03:47.897000+00:00</time>
      </trkpt>
      <trkpt lat="0" lon="0">
        <time>2021-02-28T09:03:47.901000+00:00</time>
      </trkpt>
      <trkpt lat="0" lon="0">
        <time>2021-02-28T09:03:47.904000+00:00</time>
      </trkpt>
      <trkpt lat="47.33303" lon="-1.43611">
        <ele>97</ele>
        <time>2021-02-28T09:03:48.887000+00:00</time>
      </trkpt>
      <trkpt lat="0" lon="0">
        <time>2021-02-28T09:03:48.897000+00:00</time>
      </trkpt>
      <trkpt lat="0" lon="0">
        <time>2021-02-28T09:03:48.903000+00:00</time>
      </trkpt>
      <trkpt lat="0" lon="0">
        <time>2021-02-28T09:03:48.906000+00:00</time>
      </trkpt>
      <trkpt lat="47.33304" lon="-1.4361">
        <ele>97</ele>
        <time>2021-02-28T09:03:49.870000+00:00</time>
      </trkpt>
      <trkpt lat="0" lon="0">
        <time>2021-02-28T09:03:49.875000+00:00</time>
      </trkpt>
      <trkpt lat="0" lon="0">
        <time>2021-02-28T09:03:49.881000+00:00</time>
      </trkpt>
      <trkpt lat="0" lon="0">
        <time>2021-02-28T09:03:49.884000+00:00</time>
      </trkpt>
      <trkpt lat="47.33305" lon="-1.4361">
        <ele>97</ele>
        <time>2021-02-28T09:03:50.842000+00:00</time>
      </trkpt>
      <trkpt lat="0" lon="0">
        <time>2021-02-28T09:03:50.852000+00:00</time>
      </trkpt>
      <trkpt lat="0" lon="0">
        <time>2021-02-28T09:03:50.856000+00:00</time>
      </trkpt>
      <trkpt lat="0" lon="0">
        <time>2021-02-28T09:03:50.859000+00:00</time>
      </trkpt>
      <trkpt lat="47.33306" lon="-1.43609">
        <ele>98</ele>
        <time>2021-02-28T09:03:51.857000+00:00</time>
      </trkpt>
      <trkpt lat="0" lon="0">
        <time>2021-02-28T09:03:51.859000+00:00</time>
      </trkpt>
      <trkpt lat="0" lon="0">
        <time>2021-02-28T09:03:51.861000+00:00</time>
      </trkpt>
      <trkpt lat="0" lon="0">
        <time>2021-02-28T09:03:51.863000+00:00</time>
      </trkpt>
      <trkpt lat="47.33307" lon="-1.43609">
        <ele>98</ele>
        <time>2021-02-28T09:03:52.870000+00:00</time>
      </trkpt>
      <trkpt lat="0" lon="0">
        <time>2021-02-28T09:03:52.872000+00:00</time>
      </trkpt>
      <trkpt lat="0" lon="0">
        <time>2021-02-28T09:03:52.874000+00:00</time>
      </trkpt>
      <trkpt lat="0" lon="0">
        <time>2021-02-28T09:03:52.875000+00:00</time>
      </trkpt>
      <trkpt lat="47.33308" lon="-1.43608">
        <ele>99</ele>
        <time>2021-02-28T09:03:53.861000+00:00</time>
      </trkpt>
      <trkpt lat="0" lon="0">
        <time>2021-02-28T09:03:53.869000+00:00</time>
      </trkpt>
      <trkpt lat="0" lon="0">
        <time>2021-02-28T09:03:53.875000+00:00</time>
      </trkpt>
      <trkpt lat="0" lon="0">
        <time>2021-02-28T09:03:53.879000+00:00</time>
      </trkpt>
      <trkpt lat="47.33309" lon="-1.43607">
        <ele>100</ele>
        <time>2021-02-28T09:03:54.886000+00:00</time>
      </trkpt>
      <trkpt lat="0" lon="0">
        <time>2021-02-28T09:03:54.892000+00:00</time>
      </trkpt>
      <trkpt lat="0" lon="0">
        <time>2021-02-28T09:03:54.897000+00:00</time>
      </trkpt>
      <trkpt lat="0" lon="0">
        <time>2021-02-28T09:03:54.900000+00:00</time>
      </trkpt>
      <trkpt lat="47.3331" lon="-1.43606">
        <ele>100</ele>
        <time>2021-02-28T09:03:55.874000+00:00</time>
      </trkpt>
      <trkpt lat="0" lon="0">
        <time>2021-02-28T09:03:55.881000+00:00</time>
      </trkpt>
      <trkpt lat="0" lon="0">
        <time>2021-02-28T09:03:55.886000+00:00</time>
      </trkpt>
      <trkpt lat="0" lon="0">
        <time>2021-02-28T09:03:55.889000+00:00</time>
      </trkpt>
      <trkpt lat="47.3331" lon="-1.43606">
        <ele>100</ele>
        <time>2021-02-28T09:03:56.875000+00:00</time>
      </trkpt>
      <trkpt lat="0" lon="0">
        <time>2021-02-28T09:03:56.884000+00:00</time>
      </trkpt>
      <trkpt lat="0" lon="0">
        <time>2021-02-28T09:03:56.888000+00:00</time>
      </trkpt>
      <trkpt lat="0" lon="0">
        <time>2021-02-28T09:03:56.890000+00:00</time>
      </trkpt>
      <trkpt lat="47.33311" lon="-1.43605">
        <ele>101</ele>
        <time>2021-02-28T09:03:57.879000+00:00</time>
      </trkpt>
      <trkpt lat="0" lon="0">
        <time>2021-02-28T09:03:57.890000+00:00</time>
      </trkpt>
      <trkpt lat="0" lon="0">
        <time>2021-02-28T09:03:57.897000+00:00</time>
      </trkpt>
      <trkpt lat="0" lon="0">
        <time>2021-02-28T09:03:57.900000+00:00</time>
      </trkpt>
      <trkpt lat="47.33312" lon="-1.43603">
        <ele>100</ele>
        <time>2021-02-28T09:03:58.877000+00:00</time>
      </trkpt>
      <trkpt lat="0" lon="0">
        <time>2021-02-28T09:03:58.883000+00:00</time>
      </trkpt>
      <trkpt lat="0" lon="0">
        <time>2021-02-28T09:03:58.888000+00:00</time>
      </trkpt>
      <trkpt lat="0" lon="0">
        <time>2021-02-28T09:03:58.890000+00:00</time>
      </trkpt>
      <trkpt lat="47.33313" lon="-1.43602">
        <ele>100</ele>
        <time>2021-02-28T09:03:59.873000+00:00</time>
      </trkpt>
      <trkpt lat="0" lon="0">
        <time>2021-02-28T09:03:59.887000+00:00</time>
      </trkpt>
      <trkpt lat="0" lon="0">
        <time>2021-02-28T09:03:59.892000+00:00</time>
      </trkpt>
      <trkpt lat="0" lon="0">
        <time>2021-02-28T09:03:59.895000+00:00</time>
      </trkpt>
      <trkpt lat="47.33313" lon="-1.43601">
        <ele>100</ele>
        <time>2021-02-28T09:04:00.872000+00:00</time>
      </trkpt>
      <trkpt lat="0" lon="0">
        <time>2021-02-28T09:04:00.880000+00:00</time>
      </trkpt>
      <trkpt lat="0" lon="0">
        <time>2021-02-28T09:04:00.885000+00:00</time>
      </trkpt>
      <trkpt lat="0" lon="0">
        <time>2021-02-28T09:04:00.887000+00:00</time>
      </trkpt>
      <trkpt lat="47.33314" lon="-1.43599">
        <ele>100</ele>
        <time>2021-02-28T09:04:01.812000+00:00</time>
      </trkpt>
      <trkpt lat="0" lon="0">
        <time>2021-02-28T09:04:01.817000+00:00</time>
      </trkpt>
      <trkpt lat="0" lon="0">
        <time>2021-02-28T09:04:01.822000+00:00</time>
      </trkpt>
      <trkpt lat="0" lon="0">
        <time>2021-02-28T09:04:01.823000+00:00</time>
      </trkpt>
      <trkpt lat="47.33314" lon="-1.43598">
        <ele>100</ele>
        <time>2021-02-28T09:04:02.863000+00:00</time>
      </trkpt>
      <trkpt lat="0" lon="0">
        <time>2021-02-28T09:04:02.876000+00:00</time>
      </trkpt>
      <trkpt lat="0" lon="0">
        <time>2021-02-28T09:04:02.880000+00:00</time>
      </trkpt>
      <trkpt lat="0" lon="0">
        <time>2021-02-28T09:04:02.882000+00:00</time>
      </trkpt>
      <trkpt lat="47.33315" lon="-1.43598">
        <ele>100</ele>
        <time>2021-02-28T09:04:03.863000+00:00</time>
      </trkpt>
      <trkpt lat="0" lon="0">
        <time>2021-02-28T09:04:03.872000+00:00</time>
      </trkpt>
      <trkpt lat="0" lon="0">
        <time>2021-02-28T09:04:03.881000+00:00</time>
      </trkpt>
      <trkpt lat="0" lon="0">
        <time>2021-02-28T09:04:03.883000+00:00</time>
      </trkpt>
      <trkpt lat="47.33315" lon="-1.43597">
        <ele>100</ele>
        <time>2021-02-28T09:04:04.843000+00:00</time>
      </trkpt>
      <trkpt lat="0" lon="0">
        <time>2021-02-28T09:04:04.851000+00:00</time>
      </trkpt>
      <trkpt lat="0" lon="0">
        <time>2021-02-28T09:04:04.855000+00:00</time>
      </trkpt>
      <trkpt lat="0" lon="0">
        <time>2021-02-28T09:04:04.857000+00:00</time>
      </trkpt>
      <trkpt lat="47.33315" lon="-1.43596">
        <ele>100</ele>
        <time>2021-02-28T09:04:05.881000+00:00</time>
      </trkpt>
      <trkpt lat="0" lon="0">
        <time>2021-02-28T09:04:05.885000+00:00</time>
      </trkpt>
      <trkpt lat="0" lon="0">
        <time>2021-02-28T09:04:05.891000+00:00</time>
      </trkpt>
      <trkpt lat="0" lon="0">
        <time>2021-02-28T09:04:05.895000+00:00</time>
      </trkpt>
      <trkpt lat="47.33316" lon="-1.43595">
        <ele>100</ele>
        <time>2021-02-28T09:04:06.873000+00:00</time>
      </trkpt>
      <trkpt lat="0" lon="0">
        <time>2021-02-28T09:04:06.883000+00:00</time>
      </trkpt>
      <trkpt lat="0" lon="0">
        <time>2021-02-28T09:04:06.892000+00:00</time>
      </trkpt>
      <trkpt lat="0" lon="0">
        <time>2021-02-28T09:04:06.895000+00:00</time>
      </trkpt>
      <trkpt lat="47.33316" lon="-1.43594">
        <ele>101</ele>
        <time>2021-02-28T09:04:07.861000+00:00</time>
      </trkpt>
      <trkpt lat="0" lon="0">
        <time>2021-02-28T09:04:07.865000+00:00</time>
      </trkpt>
      <trkpt lat="0" lon="0">
        <time>2021-02-28T09:04:07.869000+00:00</time>
      </trkpt>
      <trkpt lat="0" lon="0">
        <time>2021-02-28T09:04:07.878000+00:00</time>
      </trkpt>
      <trkpt lat="47.3333" lon="-1.43585">
        <ele>104</ele>
        <time>2021-02-28T09:04:08.913000+00:00</time>
      </trkpt>
      <trkpt lat="0" lon="0">
        <time>2021-02-28T09:04:08.918000+00:00</time>
      </trkpt>
      <trkpt lat="0" lon="0">
        <time>2021-02-28T09:04:08.922000+00:00</time>
      </trkpt>
      <trkpt lat="0" lon="0">
        <time>2021-02-28T09:04:08.925000+00:00</time>
      </trkpt>
      <trkpt lat="47.33331" lon="-1.43585">
        <ele>104</ele>
        <time>2021-02-28T09:04:09.913000+00:00</time>
      </trkpt>
      <trkpt lat="0" lon="0">
        <time>2021-02-28T09:04:09.921000+00:00</time>
      </trkpt>
      <trkpt lat="0" lon="0">
        <time>2021-02-28T09:04:09.925000+00:00</time>
      </trkpt>
      <trkpt lat="0" lon="0">
        <time>2021-02-28T09:04:09.927000+00:00</time>
      </trkpt>
      <trkpt lat="47.33332" lon="-1.43584">
        <ele>104</ele>
        <time>2021-02-28T09:04:10.910000+00:00</time>
      </trkpt>
      <trkpt lat="0" lon="0">
        <time>2021-02-28T09:04:10.917000+00:00</time>
      </trkpt>
      <trkpt lat="0" lon="0">
        <time>2021-02-28T09:04:10.921000+00:00</time>
      </trkpt>
      <trkpt lat="0" lon="0">
        <time>2021-02-28T09:04:10.924000+00:00</time>
      </trkpt>
      <trkpt lat="47.33333" lon="-1.43583">
        <ele>103</ele>
        <time>2021-02-28T09:04:11.874000+00:00</time>
      </trkpt>
      <trkpt lat="0" lon="0">
        <time>2021-02-28T09:04:11.884000+00:00</time>
      </trkpt>
      <trkpt lat="0" lon="0">
        <time>2021-02-28T09:04:11.889000+00:00</time>
      </trkpt>
      <trkpt lat="0" lon="0">
        <time>2021-02-28T09:04:11.892000+00:00</time>
      </trkpt>
      <trkpt lat="47.33334" lon="-1.43582">
        <ele>103</ele>
        <time>2021-02-28T09:04:12.906000+00:00</time>
      </trkpt>
      <trkpt lat="0" lon="0">
        <time>2021-02-28T09:04:12.912000+00:00</time>
      </trkpt>
      <trkpt lat="0" lon="0">
        <time>2021-02-28T09:04:12.916000+00:00</time>
      </trkpt>
      <trkpt lat="0" lon="0">
        <time>2021-02-28T09:04:12.919000+00:00</time>
      </trkpt>
      <trkpt lat="47.33336" lon="-1.43582">
        <ele>103</ele>
        <time>2021-02-28T09:04:13.930000+00:00</time>
      </trkpt>
      <trkpt lat="0" lon="0">
        <time>2021-02-28T09:04:13.941000+00:00</time>
      </trkpt>
      <trkpt lat="0" lon="0">
        <time>2021-02-28T09:04:13.947000+00:00</time>
      </trkpt>
      <trkpt lat="0" lon="0">
        <time>2021-02-28T09:04:13.949000+00:00</time>
      </trkpt>
      <trkpt lat="47.33337" lon="-1.43581">
        <ele>102</ele>
        <time>2021-02-28T09:04:14.914000+00:00</time>
      </trkpt>
      <trkpt lat="0" lon="0">
        <time>2021-02-28T09:04:14.920000+00:00</time>
      </trkpt>
      <trkpt lat="0" lon="0">
        <time>2021-02-28T09:04:14.926000+00:00</time>
      </trkpt>
      <trkpt lat="0" lon="0">
        <time>2021-02-28T09:04:14.929000+00:00</time>
      </trkpt>
      <trkpt lat="47.33338" lon="-1.4358">
        <ele>102</ele>
        <time>2021-02-28T09:04:15.922000+00:00</time>
      </trkpt>
      <trkpt lat="0" lon="0">
        <time>2021-02-28T09:04:15.927000+00:00</time>
      </trkpt>
      <trkpt lat="0" lon="0">
        <time>2021-02-28T09:04:15.931000+00:00</time>
      </trkpt>
      <trkpt lat="0" lon="0">
        <time>2021-02-28T09:04:15.934000+00:00</time>
      </trkpt>
      <trkpt lat="47.33338" lon="-1.4358">
        <ele>102</ele>
        <time>2021-02-28T09:04:16.930000+00:00</time>
      </trkpt>
      <trkpt lat="0" lon="0">
        <time>2021-02-28T09:04:16.943000+00:00</time>
      </trkpt>
      <trkpt lat="0" lon="0">
        <time>2021-02-28T09:04:16.951000+00:00</time>
      </trkpt>
      <trkpt lat="0" lon="0">
        <time>2021-02-28T09:04:16.953000+00:00</time>
      </trkpt>
      <trkpt lat="47.33339" lon="-1.4358">
        <ele>102</ele>
        <time>2021-02-28T09:04:17.877000+00:00</time>
      </trkpt>
      <trkpt lat="0" lon="0">
        <time>2021-02-28T09:04:17.888000+00:00</time>
      </trkpt>
      <trkpt lat="0" lon="0">
        <time>2021-02-28T09:04:17.893000+00:00</time>
      </trkpt>
      <trkpt lat="0" lon="0">
        <time>2021-02-28T09:04:17.895000+00:00</time>
      </trkpt>
      <trkpt lat="47.33339" lon="-1.4358">
        <ele>102</ele>
        <time>2021-02-28T09:04:18.923000+00:00</time>
      </trkpt>
      <trkpt lat="0" lon="0">
        <time>2021-02-28T09:04:18.928000+00:00</time>
      </trkpt>
      <trkpt lat="0" lon="0">
        <time>2021-02-28T09:04:18.933000+00:00</time>
      </trkpt>
      <trkpt lat="0" lon="0">
        <time>2021-02-28T09:04:18.935000+00:00</time>
      </trkpt>
      <trkpt lat="47.33339" lon="-1.4358">
        <ele>102</ele>
        <time>2021-02-28T09:04:19.925000+00:00</time>
      </trkpt>
      <trkpt lat="0" lon="0">
        <time>2021-02-28T09:04:19.935000+00:00</time>
      </trkpt>
      <trkpt lat="0" lon="0">
        <time>2021-02-28T09:04:19.941000+00:00</time>
      </trkpt>
      <trkpt lat="0" lon="0">
        <time>2021-02-28T09:04:19.944000+00:00</time>
      </trkpt>
      <trkpt lat="47.3334" lon="-1.43579">
        <ele>103</ele>
        <time>2021-02-28T09:04:20.920000+00:00</time>
      </trkpt>
      <trkpt lat="0" lon="0">
        <time>2021-02-28T09:04:20.934000+00:00</time>
      </trkpt>
      <trkpt lat="0" lon="0">
        <time>2021-02-28T09:04:20.938000+00:00</time>
      </trkpt>
      <trkpt lat="0" lon="0">
        <time>2021-02-28T09:04:20.941000+00:00</time>
      </trkpt>
      <trkpt lat="47.33341" lon="-1.43579">
        <ele>102</ele>
        <time>2021-02-28T09:04:21.926000+00:00</time>
      </trkpt>
      <trkpt lat="0" lon="0">
        <time>2021-02-28T09:04:21.933000+00:00</time>
      </trkpt>
      <trkpt lat="0" lon="0">
        <time>2021-02-28T09:04:21.938000+00:00</time>
      </trkpt>
      <trkpt lat="0" lon="0">
        <time>2021-02-28T09:04:21.951000+00:00</time>
      </trkpt>
      <trkpt lat="47.33367" lon="-1.43553">
        <ele>104</ele>
        <time>2021-02-28T09:04:22.929000+00:00</time>
      </trkpt>
      <trkpt lat="0" lon="0">
        <time>2021-02-28T09:04:22.935000+00:00</time>
      </trkpt>
      <trkpt lat="0" lon="0">
        <time>2021-02-28T09:04:22.939000+00:00</time>
      </trkpt>
      <trkpt lat="0" lon="0">
        <time>2021-02-28T09:04:22.942000+00:00</time>
      </trkpt>
      <trkpt lat="47.33368" lon="-1.43552">
        <ele>104</ele>
        <time>2021-02-28T09:04:23.927000+00:00</time>
      </trkpt>
      <trkpt lat="0" lon="0">
        <time>2021-02-28T09:04:23.939000+00:00</time>
      </trkpt>
      <trkpt lat="0" lon="0">
        <time>2021-02-28T09:04:23.943000+00:00</time>
      </trkpt>
      <trkpt lat="0" lon="0">
        <time>2021-02-28T09:04:23.945000+00:00</time>
      </trkpt>
      <trkpt lat="47.33368" lon="-1.43551">
        <ele>104</ele>
        <time>2021-02-28T09:04:24.937000+00:00</time>
      </trkpt>
      <trkpt lat="0" lon="0">
        <time>2021-02-28T09:04:24.954000+00:00</time>
      </trkpt>
      <trkpt lat="0" lon="0">
        <time>2021-02-28T09:04:24.961000+00:00</time>
      </trkpt>
      <trkpt lat="0" lon="0">
        <time>2021-02-28T09:04:24.968000+00:00</time>
      </trkpt>
      <trkpt lat="47.33369" lon="-1.43549">
        <ele>104</ele>
        <time>2021-02-28T09:04:25.865000+00:00</time>
      </trkpt>
      <trkpt lat="0" lon="0">
        <time>2021-02-28T09:04:25.868000+00:00</time>
      </trkpt>
      <trkpt lat="0" lon="0">
        <time>2021-02-28T09:04:25.873000+00:00</time>
      </trkpt>
      <trkpt lat="0" lon="0">
        <time>2021-02-28T09:04:25.874000+00:00</time>
      </trkpt>
      <trkpt lat="47.33369" lon="-1.43548">
        <ele>104</ele>
        <time>2021-02-28T09:04:26.863000+00:00</time>
      </trkpt>
      <trkpt lat="0" lon="0">
        <time>2021-02-28T09:04:26.868000+00:00</time>
      </trkpt>
      <trkpt lat="0" lon="0">
        <time>2021-02-28T09:04:26.869000+00:00</time>
      </trkpt>
      <trkpt lat="0" lon="0">
        <time>2021-02-28T09:04:26.870000+00:00</time>
      </trkpt>
      <trkpt lat="47.33369" lon="-1.43547">
        <ele>104</ele>
        <time>2021-02-28T09:04:27.868000+00:00</time>
      </trkpt>
      <trkpt lat="0" lon="0">
        <time>2021-02-28T09:04:27.869000+00:00</time>
      </trkpt>
      <trkpt lat="0" lon="0">
        <time>2021-02-28T09:04:27.870000+00:00</time>
      </trkpt>
      <trkpt lat="0" lon="0">
        <time>2021-02-28T09:04:27.871000+00:00</time>
      </trkpt>
      <trkpt lat="47.33369" lon="-1.43546">
        <ele>104</ele>
        <time>2021-02-28T09:04:28.903000+00:00</time>
      </trkpt>
      <trkpt lat="0" lon="0">
        <time>2021-02-28T09:04:28.905000+00:00</time>
      </trkpt>
      <trkpt lat="0" lon="0">
        <time>2021-02-28T09:04:28.906000+00:00</time>
      </trkpt>
      <trkpt lat="0" lon="0">
        <time>2021-02-28T09:04:28.907000+00:00</time>
      </trkpt>
      <trkpt lat="47.33369" lon="-1.43545">
        <ele>105</ele>
        <time>2021-02-28T09:04:29.912000+00:00</time>
      </trkpt>
      <trkpt lat="0" lon="0">
        <time>2021-02-28T09:04:29.915000+00:00</time>
      </trkpt>
      <trkpt lat="0" lon="0">
        <time>2021-02-28T09:04:29.920000+00:00</time>
      </trkpt>
      <trkpt lat="0" lon="0">
        <time>2021-02-28T09:04:29.924000+00:00</time>
      </trkpt>
      <trkpt lat="47.33369" lon="-1.43544">
        <ele>105</ele>
        <time>2021-02-28T09:04:30.929000+00:00</time>
      </trkpt>
      <trkpt lat="0" lon="0">
        <time>2021-02-28T09:04:30.935000+00:00</time>
      </trkpt>
      <trkpt lat="0" lon="0">
        <time>2021-02-28T09:04:30.941000+00:00</time>
      </trkpt>
      <trkpt lat="0" lon="0">
        <time>2021-02-28T09:04:30.960000+00:00</time>
      </trkpt>
      <trkpt lat="47.33381" lon="-1.43524">
        <ele>106</ele>
        <time>2021-02-28T09:04:31.966000+00:00</time>
      </trkpt>
      <trkpt lat="0" lon="0">
        <time>2021-02-28T09:04:31.972000+00:00</time>
      </trkpt>
      <trkpt lat="0" lon="0">
        <time>2021-02-28T09:04:31.978000+00:00</time>
      </trkpt>
      <trkpt lat="0" lon="0">
        <time>2021-02-28T09:04:31.980000+00:00</time>
      </trkpt>
      <trkpt lat="47.33382" lon="-1.43524">
        <ele>106</ele>
        <time>2021-02-28T09:04:32.981000+00:00</time>
      </trkpt>
      <trkpt lat="0" lon="0">
        <time>2021-02-28T09:04:32.987000+00:00</time>
      </trkpt>
      <trkpt lat="0" lon="0">
        <time>2021-02-28T09:04:32.989000+00:00</time>
      </trkpt>
      <trkpt lat="0" lon="0">
        <time>2021-02-28T09:04:32.990000+00:00</time>
      </trkpt>
      <trkpt lat="47.33383" lon="-1.43522">
        <ele>105</ele>
        <time>2021-02-28T09:04:33.987000+00:00</time>
      </trkpt>
      <trkpt lat="0" lon="0">
        <time>2021-02-28T09:04:33.999000+00:00</time>
      </trkpt>
      <trkpt lat="0" lon="0">
        <time>2021-02-28T09:04:34.005000+00:00</time>
      </trkpt>
      <trkpt lat="0" lon="0">
        <time>2021-02-28T09:04:34.007000+00:00</time>
      </trkpt>
      <trkpt lat="47.33384" lon="-1.43521">
        <ele>105</ele>
        <time>2021-02-28T09:04:34.974000+00:00</time>
      </trkpt>
      <trkpt lat="0" lon="0">
        <time>2021-02-28T09:04:34.984000+00:00</time>
      </trkpt>
      <trkpt lat="0" lon="0">
        <time>2021-02-28T09:04:34.989000+00:00</time>
      </trkpt>
      <trkpt lat="0" lon="0">
        <time>2021-02-28T09:04:34.992000+00:00</time>
      </trkpt>
      <trkpt lat="47.33385" lon="-1.4352">
        <ele>106</ele>
        <time>2021-02-28T09:04:36.002000+00:00</time>
      </trkpt>
      <trkpt lat="0" lon="0">
        <time>2021-02-28T09:04:36.011000+00:00</time>
      </trkpt>
      <trkpt lat="0" lon="0">
        <time>2021-02-28T09:04:36.015000+00:00</time>
      </trkpt>
      <trkpt lat="0" lon="0">
        <time>2021-02-28T09:04:36.018000+00:00</time>
      </trkpt>
      <trkpt lat="47.33385" lon="-1.43519">
        <ele>107</ele>
        <time>2021-02-28T09:04:36.970000+00:00</time>
      </trkpt>
      <trkpt lat="0" lon="0">
        <time>2021-02-28T09:04:36.979000+00:00</time>
      </trkpt>
      <trkpt lat="0" lon="0">
        <time>2021-02-28T09:04:36.985000+00:00</time>
      </trkpt>
      <trkpt lat="0" lon="0">
        <time>2021-02-28T09:04:36.988000+00:00</time>
      </trkpt>
      <trkpt lat="47.33386" lon="-1.43518">
        <ele>107</ele>
        <time>2021-02-28T09:04:37.979000+00:00</time>
      </trkpt>
      <trkpt lat="0" lon="0">
        <time>2021-02-28T09:04:37.987000+00:00</time>
      </trkpt>
      <trkpt lat="0" lon="0">
        <time>2021-02-28T09:04:37.991000+00:00</time>
      </trkpt>
      <trkpt lat="0" lon="0">
        <time>2021-02-28T09:04:37.994000+00:00</time>
      </trkpt>
      <trkpt lat="47.33386" lon="-1.43517">
        <ele>108</ele>
        <time>2021-02-28T09:04:38.967000+00:00</time>
      </trkpt>
      <trkpt lat="0" lon="0">
        <time>2021-02-28T09:04:38.976000+00:00</time>
      </trkpt>
      <trkpt lat="0" lon="0">
        <time>2021-02-28T09:04:38.980000+00:00</time>
      </trkpt>
      <trkpt lat="0" lon="0">
        <time>2021-02-28T09:04:38.981000+00:00</time>
      </trkpt>
      <trkpt lat="47.33387" lon="-1.43516">
        <ele>108</ele>
        <time>2021-02-28T09:04:39.966000+00:00</time>
      </trkpt>
      <trkpt lat="0" lon="0">
        <time>2021-02-28T09:04:39.972000+00:00</time>
      </trkpt>
      <trkpt lat="0" lon="0">
        <time>2021-02-28T09:04:39.976000+00:00</time>
      </trkpt>
      <trkpt lat="0" lon="0">
        <time>2021-02-28T09:04:39.980000+00:00</time>
      </trkpt>
      <trkpt lat="47.33387" lon="-1.43515">
        <ele>107</ele>
        <time>2021-02-28T09:04:40.966000+00:00</time>
      </trkpt>
      <trkpt lat="0" lon="0">
        <time>2021-02-28T09:04:40.973000+00:00</time>
      </trkpt>
      <trkpt lat="0" lon="0">
        <time>2021-02-28T09:04:40.977000+00:00</time>
      </trkpt>
      <trkpt lat="0" lon="0">
        <time>2021-02-28T09:04:40.979000+00:00</time>
      </trkpt>
      <trkpt lat="47.33388" lon="-1.43514">
        <ele>107</ele>
        <time>2021-02-28T09:04:41.981000+00:00</time>
      </trkpt>
      <trkpt lat="0" lon="0">
        <time>2021-02-28T09:04:41.986000+00:00</time>
      </trkpt>
      <trkpt lat="0" lon="0">
        <time>2021-02-28T09:04:41.990000+00:00</time>
      </trkpt>
      <trkpt lat="0" lon="0">
        <time>2021-02-28T09:04:41.992000+00:00</time>
      </trkpt>
      <trkpt lat="47.33388" lon="-1.43513">
        <ele>107</ele>
        <time>2021-02-28T09:04:42.989000+00:00</time>
      </trkpt>
      <trkpt lat="0" lon="0">
        <time>2021-02-28T09:04:42.993000+00:00</time>
      </trkpt>
      <trkpt lat="0" lon="0">
        <time>2021-02-28T09:04:42.999000+00:00</time>
      </trkpt>
      <trkpt lat="0" lon="0">
        <time>2021-02-28T09:04:43.002000+00:00</time>
      </trkpt>
      <trkpt lat="47.33389" lon="-1.43513">
        <ele>107</ele>
        <time>2021-02-28T09:04:43.962000+00:00</time>
      </trkpt>
      <trkpt lat="0" lon="0">
        <time>2021-02-28T09:04:43.977000+00:00</time>
      </trkpt>
      <trkpt lat="0" lon="0">
        <time>2021-02-28T09:04:43.982000+00:00</time>
      </trkpt>
      <trkpt lat="0" lon="0">
        <time>2021-02-28T09:04:43.985000+00:00</time>
      </trkpt>
      <trkpt lat="47.33389" lon="-1.43512">
        <ele>107</ele>
        <time>2021-02-28T09:04:44.985000+00:00</time>
      </trkpt>
      <trkpt lat="0" lon="0">
        <time>2021-02-28T09:04:44.996000+00:00</time>
      </trkpt>
      <trkpt lat="0" lon="0">
        <time>2021-02-28T09:04:45+00:00</time>
      </trkpt>
      <trkpt lat="0" lon="0">
        <time>2021-02-28T09:04:45.017000+00:00</time>
      </trkpt>
      <trkpt lat="47.33403" lon="-1.43492">
        <ele>105</ele>
        <time>2021-02-28T09:04:45.978000+00:00</time>
      </trkpt>
      <trkpt lat="0" lon="0">
        <time>2021-02-28T09:04:45.986000+00:00</time>
      </trkpt>
      <trkpt lat="0" lon="0">
        <time>2021-02-28T09:04:45.990000+00:00</time>
      </trkpt>
      <trkpt lat="0" lon="0">
        <time>2021-02-28T09:04:45.992000+00:00</time>
      </trkpt>
      <trkpt lat="47.33404" lon="-1.43491">
        <ele>106</ele>
        <time>2021-02-28T09:04:46.999000+00:00</time>
      </trkpt>
      <trkpt lat="0" lon="0">
        <time>2021-02-28T09:04:47.003000+00:00</time>
      </trkpt>
      <trkpt lat="0" lon="0">
        <time>2021-02-28T09:04:47.008000+00:00</time>
      </trkpt>
      <trkpt lat="0" lon="0">
        <time>2021-02-28T09:04:47.010000+00:00</time>
      </trkpt>
      <trkpt lat="47.33405" lon="-1.43491">
        <ele>106</ele>
        <time>2021-02-28T09:04:48+00:00</time>
      </trkpt>
      <trkpt lat="0" lon="0">
        <time>2021-02-28T09:04:48.001000+00:00</time>
      </trkpt>
      <trkpt lat="0" lon="0">
        <time>2021-02-28T09:04:48.003000+00:00</time>
      </trkpt>
      <trkpt lat="0" lon="0">
        <time>2021-02-28T09:04:48.004000+00:00</time>
      </trkpt>
      <trkpt lat="47.33406" lon="-1.4349">
        <ele>106</ele>
        <time>2021-02-28T09:04:48.962000+00:00</time>
      </trkpt>
      <trkpt lat="0" lon="0">
        <time>2021-02-28T09:04:48.967000+00:00</time>
      </trkpt>
      <trkpt lat="0" lon="0">
        <time>2021-02-28T09:04:48.969000+00:00</time>
      </trkpt>
      <trkpt lat="0" lon="0">
        <time>2021-02-28T09:04:48.970000+00:00</time>
      </trkpt>
      <trkpt lat="47.33407" lon="-1.43489">
        <ele>106</ele>
        <time>2021-02-28T09:04:49.980000+00:00</time>
      </trkpt>
      <trkpt lat="0" lon="0">
        <time>2021-02-28T09:04:49.992000+00:00</time>
      </trkpt>
      <trkpt lat="0" lon="0">
        <time>2021-02-28T09:04:49.996000+00:00</time>
      </trkpt>
      <trkpt lat="0" lon="0">
        <time>2021-02-28T09:04:49.997000+00:00</time>
      </trkpt>
      <trkpt lat="47.33408" lon="-1.43489">
        <ele>106</ele>
        <time>2021-02-28T09:04:51.009000+00:00</time>
      </trkpt>
      <trkpt lat="0" lon="0">
        <time>2021-02-28T09:04:51.013000+00:00</time>
      </trkpt>
      <trkpt lat="0" lon="0">
        <time>2021-02-28T09:04:51.016000+00:00</time>
      </trkpt>
      <trkpt lat="0" lon="0">
        <time>2021-02-28T09:04:51.019000+00:00</time>
      </trkpt>
      <trkpt lat="47.33409" lon="-1.43488">
        <ele>106</ele>
        <time>2021-02-28T09:04:52.018000+00:00</time>
      </trkpt>
      <trkpt lat="0" lon="0">
        <time>2021-02-28T09:04:52.030000+00:00</time>
      </trkpt>
      <trkpt lat="0" lon="0">
        <time>2021-02-28T09:04:52.034000+00:00</time>
      </trkpt>
      <trkpt lat="0" lon="0">
        <time>2021-02-28T09:04:52.036000+00:00</time>
      </trkpt>
      <trkpt lat="47.3341" lon="-1.43487">
        <ele>106</ele>
        <time>2021-02-28T09:04:52.978000+00:00</time>
      </trkpt>
      <trkpt lat="0" lon="0">
        <time>2021-02-28T09:04:52.982000+00:00</time>
      </trkpt>
      <trkpt lat="0" lon="0">
        <time>2021-02-28T09:04:52.988000+00:00</time>
      </trkpt>
      <trkpt lat="0" lon="0">
        <time>2021-02-28T09:04:52.990000+00:00</time>
      </trkpt>
      <trkpt lat="47.33411" lon="-1.43487">
        <ele>105</ele>
        <time>2021-02-28T09:04:54.026000+00:00</time>
      </trkpt>
      <trkpt lat="0" lon="0">
        <time>2021-02-28T09:04:54.028000+00:00</time>
      </trkpt>
      <trkpt lat="0" lon="0">
        <time>2021-02-28T09:04:54.030000+00:00</time>
      </trkpt>
      <trkpt lat="0" lon="0">
        <time>2021-02-28T09:04:54.031000+00:00</time>
      </trkpt>
      <trkpt lat="47.33412" lon="-1.43486">
        <ele>105</ele>
        <time>2021-02-28T09:04:55.029000+00:00</time>
      </trkpt>
      <trkpt lat="0" lon="0">
        <time>2021-02-28T09:04:55.036000+00:00</time>
      </trkpt>
      <trkpt lat="0" lon="0">
        <time>2021-02-28T09:04:55.042000+00:00</time>
      </trkpt>
      <trkpt lat="0" lon="0">
        <time>2021-02-28T09:04:55.045000+00:00</time>
      </trkpt>
      <trkpt lat="47.33413" lon="-1.43486">
        <ele>106</ele>
        <time>2021-02-28T09:04:56.048000+00:00</time>
      </trkpt>
      <trkpt lat="0" lon="0">
        <time>2021-02-28T09:04:56.053000+00:00</time>
      </trkpt>
      <trkpt lat="0" lon="0">
        <time>2021-02-28T09:04:56.057000+00:00</time>
      </trkpt>
      <trkpt lat="0" lon="0">
        <time>2021-02-28T09:04:56.059000+00:00</time>
      </trkpt>
      <trkpt lat="47.33414" lon="-1.43485">
        <ele>106</ele>
        <time>2021-02-28T09:04:57.066000+00:00</time>
      </trkpt>
      <trkpt lat="0" lon="0">
        <time>2021-02-28T09:04:57.070000+00:00</time>
      </trkpt>
      <trkpt lat="0" lon="0">
        <time>2021-02-28T09:04:57.076000+00:00</time>
      </trkpt>
      <trkpt lat="0" lon="0">
        <time>2021-02-28T09:04:57.078000+00:00</time>
      </trkpt>
      <trkpt lat="47.33415" lon="-1.43484">
        <ele>107</ele>
        <time>2021-02-28T09:04:58.016000+00:00</time>
      </trkpt>
      <trkpt lat="0" lon="0">
        <time>2021-02-28T09:04:58.026000+00:00</time>
      </trkpt>
      <trkpt lat="0" lon="0">
        <time>2021-02-28T09:04:58.032000+00:00</time>
      </trkpt>
      <trkpt lat="0" lon="0">
        <time>2021-02-28T09:04:58.033000+00:00</time>
      </trkpt>
      <trkpt lat="47.33416" lon="-1.43484">
        <ele>107</ele>
        <time>2021-02-28T09:04:59.032000+00:00</time>
      </trkpt>
      <trkpt lat="0" lon="0">
        <time>2021-02-28T09:04:59.039000+00:00</time>
      </trkpt>
      <trkpt lat="0" lon="0">
        <time>2021-02-28T09:04:59.044000+00:00</time>
      </trkpt>
      <trkpt lat="0" lon="0">
        <time>2021-02-28T09:04:59.046000+00:00</time>
      </trkpt>
      <trkpt lat="47.33416" lon="-1.43483">
        <ele>107</ele>
        <time>2021-02-28T09:05:00.036000+00:00</time>
      </trkpt>
      <trkpt lat="0" lon="0">
        <time>2021-02-28T09:05:00.038000+00:00</time>
      </trkpt>
      <trkpt lat="0" lon="0">
        <time>2021-02-28T09:05:00.040000+00:00</time>
      </trkpt>
      <trkpt lat="0" lon="0">
        <time>2021-02-28T09:05:00.041000+00:00</time>
      </trkpt>
      <trkpt lat="47.33417" lon="-1.43482">
        <ele>107</ele>
        <time>2021-02-28T09:05:01.028000+00:00</time>
      </trkpt>
      <trkpt lat="0" lon="0">
        <time>2021-02-28T09:05:01.037000+00:00</time>
      </trkpt>
      <trkpt lat="0" lon="0">
        <time>2021-02-28T09:05:01.042000+00:00</time>
      </trkpt>
      <trkpt lat="0" lon="0">
        <time>2021-02-28T09:05:01.045000+00:00</time>
      </trkpt>
      <trkpt lat="47.33417" lon="-1.43482">
        <ele>107</ele>
        <time>2021-02-28T09:05:02.046000+00:00</time>
      </trkpt>
      <trkpt lat="0" lon="0">
        <time>2021-02-28T09:05:02.053000+00:00</time>
      </trkpt>
      <trkpt lat="0" lon="0">
        <time>2021-02-28T09:05:02.057000+00:00</time>
      </trkpt>
      <trkpt lat="0" lon="0">
        <time>2021-02-28T09:05:02.059000+00:00</time>
      </trkpt>
      <trkpt lat="47.33418" lon="-1.43481">
        <ele>106</ele>
        <time>2021-02-28T09:05:03.042000+00:00</time>
      </trkpt>
      <trkpt lat="0" lon="0">
        <time>2021-02-28T09:05:03.052000+00:00</time>
      </trkpt>
      <trkpt lat="0" lon="0">
        <time>2021-02-28T09:05:03.056000+00:00</time>
      </trkpt>
      <trkpt lat="0" lon="0">
        <time>2021-02-28T09:05:03.058000+00:00</time>
      </trkpt>
      <trkpt lat="47.33419" lon="-1.4348">
        <ele>106</ele>
        <time>2021-02-28T09:05:04.034000+00:00</time>
      </trkpt>
      <trkpt lat="0" lon="0">
        <time>2021-02-28T09:05:04.039000+00:00</time>
      </trkpt>
      <trkpt lat="0" lon="0">
        <time>2021-02-28T09:05:04.044000+00:00</time>
      </trkpt>
      <trkpt lat="0" lon="0">
        <time>2021-02-28T09:05:04.046000+00:00</time>
      </trkpt>
      <trkpt lat="47.33419" lon="-1.43479">
        <ele>106</ele>
        <time>2021-02-28T09:05:05.029000+00:00</time>
      </trkpt>
      <trkpt lat="0" lon="0">
        <time>2021-02-28T09:05:05.036000+00:00</time>
      </trkpt>
      <trkpt lat="0" lon="0">
        <time>2021-02-28T09:05:05.046000+00:00</time>
      </trkpt>
      <trkpt lat="0" lon="0">
        <time>2021-02-28T09:05:05.058000+00:00</time>
      </trkpt>
      <trkpt lat="47.33434" lon="-1.43458">
        <ele>107</ele>
        <time>2021-02-28T09:05:06.061000+00:00</time>
      </trkpt>
      <trkpt lat="0" lon="0">
        <time>2021-02-28T09:05:06.066000+00:00</time>
      </trkpt>
      <trkpt lat="0" lon="0">
        <time>2021-02-28T09:05:06.074000+00:00</time>
      </trkpt>
      <trkpt lat="0" lon="0">
        <time>2021-02-28T09:05:06.076000+00:00</time>
      </trkpt>
      <trkpt lat="47.33435" lon="-1.43457">
        <ele>107</ele>
        <time>2021-02-28T09:05:07.067000+00:00</time>
      </trkpt>
      <trkpt lat="0" lon="0">
        <time>2021-02-28T09:05:07.070000+00:00</time>
      </trkpt>
      <trkpt lat="0" lon="0">
        <time>2021-02-28T09:05:07.075000+00:00</time>
      </trkpt>
      <trkpt lat="0" lon="0">
        <time>2021-02-28T09:05:07.079000+00:00</time>
      </trkpt>
      <trkpt lat="47.33436" lon="-1.43456">
        <ele>107</ele>
        <time>2021-02-28T09:05:08.082000+00:00</time>
      </trkpt>
      <trkpt lat="0" lon="0">
        <time>2021-02-28T09:05:08.091000+00:00</time>
      </trkpt>
      <trkpt lat="0" lon="0">
        <time>2021-02-28T09:05:08.096000+00:00</time>
      </trkpt>
      <trkpt lat="0" lon="0">
        <time>2021-02-28T09:05:08.105000+00:00</time>
      </trkpt>
      <trkpt lat="47.33436" lon="-1.43455">
        <ele>107</ele>
        <time>2021-02-28T09:05:09.090000+00:00</time>
      </trkpt>
      <trkpt lat="0" lon="0">
        <time>2021-02-28T09:05:09.096000+00:00</time>
      </trkpt>
      <trkpt lat="0" lon="0">
        <time>2021-02-28T09:05:09.101000+00:00</time>
      </trkpt>
      <trkpt lat="0" lon="0">
        <time>2021-02-28T09:05:09.104000+00:00</time>
      </trkpt>
      <trkpt lat="47.33437" lon="-1.43455">
        <ele>108</ele>
        <time>2021-02-28T09:05:10.085000+00:00</time>
      </trkpt>
      <trkpt lat="0" lon="0">
        <time>2021-02-28T09:05:10.100000+00:00</time>
      </trkpt>
      <trkpt lat="0" lon="0">
        <time>2021-02-28T09:05:10.105000+00:00</time>
      </trkpt>
      <trkpt lat="0" lon="0">
        <time>2021-02-28T09:05:10.107000+00:00</time>
      </trkpt>
      <trkpt lat="47.33437" lon="-1.43454">
        <ele>108</ele>
        <time>2021-02-28T09:05:11.072000+00:00</time>
      </trkpt>
      <trkpt lat="0" lon="0">
        <time>2021-02-28T09:05:11.080000+00:00</time>
      </trkpt>
      <trkpt lat="0" lon="0">
        <time>2021-02-28T09:05:11.084000+00:00</time>
      </trkpt>
      <trkpt lat="0" lon="0">
        <time>2021-02-28T09:05:11.085000+00:00</time>
      </trkpt>
      <trkpt lat="47.33438" lon="-1.43453">
        <ele>108</ele>
        <time>2021-02-28T09:05:12.086000+00:00</time>
      </trkpt>
      <trkpt lat="0" lon="0">
        <time>2021-02-28T09:05:12.091000+00:00</time>
      </trkpt>
      <trkpt lat="0" lon="0">
        <time>2021-02-28T09:05:12.100000+00:00</time>
      </trkpt>
      <trkpt lat="0" lon="0">
        <time>2021-02-28T09:05:12.102000+00:00</time>
      </trkpt>
      <trkpt lat="47.33438" lon="-1.43452">
        <ele>108</ele>
        <time>2021-02-28T09:05:13.081000+00:00</time>
      </trkpt>
      <trkpt lat="0" lon="0">
        <time>2021-02-28T09:05:13.092000+00:00</time>
      </trkpt>
      <trkpt lat="0" lon="0">
        <time>2021-02-28T09:05:13.096000+00:00</time>
      </trkpt>
      <trkpt lat="0" lon="0">
        <time>2021-02-28T09:05:13.097000+00:00</time>
      </trkpt>
      <trkpt lat="47.33439" lon="-1.43452">
        <ele>107</ele>
        <time>2021-02-28T09:05:14.076000+00:00</time>
      </trkpt>
      <trkpt lat="0" lon="0">
        <time>2021-02-28T09:05:14.082000+00:00</time>
      </trkpt>
      <trkpt lat="0" lon="0">
        <time>2021-02-28T09:05:14.086000+00:00</time>
      </trkpt>
      <trkpt lat="0" lon="0">
        <time>2021-02-28T09:05:14.097000+00:00</time>
      </trkpt>
      <trkpt lat="47.33449" lon="-1.43406">
        <ele>108</ele>
        <time>2021-02-28T09:05:15.134000+00:00</time>
      </trkpt>
      <trkpt lat="0" lon="0">
        <time>2021-02-28T09:05:15.139000+00:00</time>
      </trkpt>
      <trkpt lat="0" lon="0">
        <time>2021-02-28T09:05:15.143000+00:00</time>
      </trkpt>
      <trkpt lat="0" lon="0">
        <time>2021-02-28T09:05:15.145000+00:00</time>
      </trkpt>
      <trkpt lat="47.33449" lon="-1.43404">
        <ele>109</ele>
        <time>2021-02-28T09:05:16.121000+00:00</time>
      </trkpt>
      <trkpt lat="0" lon="0">
        <time>2021-02-28T09:05:16.125000+00:00</time>
      </trkpt>
      <trkpt lat="0" lon="0">
        <time>2021-02-28T09:05:16.129000+00:00</time>
      </trkpt>
      <trkpt lat="0" lon="0">
        <time>2021-02-28T09:05:16.131000+00:00</time>
      </trkpt>
      <trkpt lat="47.3345" lon="-1.43402">
        <ele>109</ele>
        <time>2021-02-28T09:05:17.121000+00:00</time>
      </trkpt>
      <trkpt lat="0" lon="0">
        <time>2021-02-28T09:05:17.127000+00:00</time>
      </trkpt>
      <trkpt lat="0" lon="0">
        <time>2021-02-28T09:05:17.131000+00:00</time>
      </trkpt>
      <trkpt lat="0" lon="0">
        <time>2021-02-28T09:05:17.134000+00:00</time>
      </trkpt>
      <trkpt lat="47.3345" lon="-1.43401">
        <ele>109</ele>
        <time>2021-02-28T09:05:18.104000+00:00</time>
      </trkpt>
      <trkpt lat="0" lon="0">
        <time>2021-02-28T09:05:18.109000+00:00</time>
      </trkpt>
      <trkpt lat="0" lon="0">
        <time>2021-02-28T09:05:18.115000+00:00</time>
      </trkpt>
      <trkpt lat="0" lon="0">
        <time>2021-02-28T09:05:18.118000+00:00</time>
      </trkpt>
      <trkpt lat="47.3345" lon="-1.43399">
        <ele>110</ele>
        <time>2021-02-28T09:05:19.147000+00:00</time>
      </trkpt>
      <trkpt lat="0" lon="0">
        <time>2021-02-28T09:05:19.158000+00:00</time>
      </trkpt>
      <trkpt lat="0" lon="0">
        <time>2021-02-28T09:05:19.164000+00:00</time>
      </trkpt>
      <trkpt lat="0" lon="0">
        <time>2021-02-28T09:05:19.167000+00:00</time>
      </trkpt>
      <trkpt lat="47.3345" lon="-1.43397">
        <ele>110</ele>
        <time>2021-02-28T09:05:20.109000+00:00</time>
      </trkpt>
      <trkpt lat="0" lon="0">
        <time>2021-02-28T09:05:20.115000+00:00</time>
      </trkpt>
      <trkpt lat="0" lon="0">
        <time>2021-02-28T09:05:20.120000+00:00</time>
      </trkpt>
      <trkpt lat="0" lon="0">
        <time>2021-02-28T09:05:20.124000+00:00</time>
      </trkpt>
      <trkpt lat="47.33451" lon="-1.43396">
        <ele>110</ele>
        <time>2021-02-28T09:05:21.146000+00:00</time>
      </trkpt>
      <trkpt lat="0" lon="0">
        <time>2021-02-28T09:05:21.152000+00:00</time>
      </trkpt>
      <trkpt lat="0" lon="0">
        <time>2021-02-28T09:05:21.157000+00:00</time>
      </trkpt>
      <trkpt lat="0" lon="0">
        <time>2021-02-28T09:05:21.159000+00:00</time>
      </trkpt>
      <trkpt lat="47.33451" lon="-1.43394">
        <ele>110</ele>
        <time>2021-02-28T09:05:22.099000+00:00</time>
      </trkpt>
      <trkpt lat="0" lon="0">
        <time>2021-02-28T09:05:22.103000+00:00</time>
      </trkpt>
      <trkpt lat="0" lon="0">
        <time>2021-02-28T09:05:22.109000+00:00</time>
      </trkpt>
      <trkpt lat="0" lon="0">
        <time>2021-02-28T09:05:22.113000+00:00</time>
      </trkpt>
      <trkpt lat="47.33452" lon="-1.43392">
        <ele>110</ele>
        <time>2021-02-28T09:05:23.112000+00:00</time>
      </trkpt>
      <trkpt lat="0" lon="0">
        <time>2021-02-28T09:05:23.118000+00:00</time>
      </trkpt>
      <trkpt lat="0" lon="0">
        <time>2021-02-28T09:05:23.125000+00:00</time>
      </trkpt>
      <trkpt lat="0" lon="0">
        <time>2021-02-28T09:05:23.127000+00:00</time>
      </trkpt>
      <trkpt lat="47.33452" lon="-1.4339">
        <ele>110</ele>
        <time>2021-02-28T09:05:24.098000+00:00</time>
      </trkpt>
      <trkpt lat="0" lon="0">
        <time>2021-02-28T09:05:24.106000+00:00</time>
      </trkpt>
      <trkpt lat="0" lon="0">
        <time>2021-02-28T09:05:24.113000+00:00</time>
      </trkpt>
      <trkpt lat="0" lon="0">
        <time>2021-02-28T09:05:24.115000+00:00</time>
      </trkpt>
      <trkpt lat="47.33453" lon="-1.43388">
        <ele>111</ele>
        <time>2021-02-28T09:05:25.050000+00:00</time>
      </trkpt>
      <trkpt lat="0" lon="0">
        <time>2021-02-28T09:05:25.063000+00:00</time>
      </trkpt>
      <trkpt lat="0" lon="0">
        <time>2021-02-28T09:05:25.067000+00:00</time>
      </trkpt>
      <trkpt lat="0" lon="0">
        <time>2021-02-28T09:05:25.070000+00:00</time>
      </trkpt>
      <trkpt lat="47.33453" lon="-1.43386">
        <ele>111</ele>
        <time>2021-02-28T09:05:26.118000+00:00</time>
      </trkpt>
      <trkpt lat="0" lon="0">
        <time>2021-02-28T09:05:26.128000+00:00</time>
      </trkpt>
      <trkpt lat="0" lon="0">
        <time>2021-02-28T09:05:26.134000+00:00</time>
      </trkpt>
      <trkpt lat="0" lon="0">
        <time>2021-02-28T09:05:26.137000+00:00</time>
      </trkpt>
      <trkpt lat="47.33454" lon="-1.43384">
        <ele>111</ele>
        <time>2021-02-28T09:05:27.103000+00:00</time>
      </trkpt>
      <trkpt lat="0" lon="0">
        <time>2021-02-28T09:05:27.116000+00:00</time>
      </trkpt>
      <trkpt lat="0" lon="0">
        <time>2021-02-28T09:05:27.123000+00:00</time>
      </trkpt>
      <trkpt lat="0" lon="0">
        <time>2021-02-28T09:05:27.125000+00:00</time>
      </trkpt>
      <trkpt lat="47.33454" lon="-1.43382">
        <ele>112</ele>
        <time>2021-02-28T09:05:28.125000+00:00</time>
      </trkpt>
      <trkpt lat="0" lon="0">
        <time>2021-02-28T09:05:28.132000+00:00</time>
      </trkpt>
      <trkpt lat="0" lon="0">
        <time>2021-02-28T09:05:28.138000+00:00</time>
      </trkpt>
      <trkpt lat="0" lon="0">
        <time>2021-02-28T09:05:28.140000+00:00</time>
      </trkpt>
      <trkpt lat="47.33455" lon="-1.4338">
        <ele>113</ele>
        <time>2021-02-28T09:05:29.119000+00:00</time>
      </trkpt>
      <trkpt lat="0" lon="0">
        <time>2021-02-28T09:05:29.133000+00:00</time>
      </trkpt>
      <trkpt lat="0" lon="0">
        <time>2021-02-28T09:05:29.138000+00:00</time>
      </trkpt>
      <trkpt lat="0" lon="0">
        <time>2021-02-28T09:05:29.142000+00:00</time>
      </trkpt>
      <trkpt lat="47.33456" lon="-1.43378">
        <ele>112</ele>
        <time>2021-02-28T09:05:30.062000+00:00</time>
      </trkpt>
      <trkpt lat="0" lon="0">
        <time>2021-02-28T09:05:30.070000+00:00</time>
      </trkpt>
      <trkpt lat="0" lon="0">
        <time>2021-02-28T09:05:30.078000+00:00</time>
      </trkpt>
      <trkpt lat="0" lon="0">
        <time>2021-02-28T09:05:30.081000+00:00</time>
      </trkpt>
      <trkpt lat="47.33457" lon="-1.43375">
        <ele>112</ele>
        <time>2021-02-28T09:05:31.104000+00:00</time>
      </trkpt>
      <trkpt lat="0" lon="0">
        <time>2021-02-28T09:05:31.113000+00:00</time>
      </trkpt>
      <trkpt lat="0" lon="0">
        <time>2021-02-28T09:05:31.117000+00:00</time>
      </trkpt>
      <trkpt lat="0" lon="0">
        <time>2021-02-28T09:05:31.118000+00:00</time>
      </trkpt>
      <trkpt lat="47.33458" lon="-1.43373">
        <ele>112</ele>
        <time>2021-02-28T09:05:32.119000+00:00</time>
      </trkpt>
      <trkpt lat="0" lon="0">
        <time>2021-02-28T09:05:32.126000+00:00</time>
      </trkpt>
      <trkpt lat="0" lon="0">
        <time>2021-02-28T09:05:32.131000+00:00</time>
      </trkpt>
      <trkpt lat="0" lon="0">
        <time>2021-02-28T09:05:32.134000+00:00</time>
      </trkpt>
      <trkpt lat="47.33459" lon="-1.4337">
        <ele>112</ele>
        <time>2021-02-28T09:05:33.125000+00:00</time>
      </trkpt>
      <trkpt lat="0" lon="0">
        <time>2021-02-28T09:05:33.137000+00:00</time>
      </trkpt>
      <trkpt lat="0" lon="0">
        <time>2021-02-28T09:05:33.142000+00:00</time>
      </trkpt>
      <trkpt lat="0" lon="0">
        <time>2021-02-28T09:05:33.147000+00:00</time>
      </trkpt>
      <trkpt lat="47.33459" lon="-1.43368">
        <ele>112</ele>
        <time>2021-02-28T09:05:34.096000+00:00</time>
      </trkpt>
      <trkpt lat="0" lon="0">
        <time>2021-02-28T09:05:34.100000+00:00</time>
      </trkpt>
      <trkpt lat="0" lon="0">
        <time>2021-02-28T09:05:34.104000+00:00</time>
      </trkpt>
      <trkpt lat="0" lon="0">
        <time>2021-02-28T09:05:34.107000+00:00</time>
      </trkpt>
      <trkpt lat="47.33461" lon="-1.43366">
        <ele>111</ele>
        <time>2021-02-28T09:05:35.076000+00:00</time>
      </trkpt>
      <trkpt lat="0" lon="0">
        <time>2021-02-28T09:05:35.082000+00:00</time>
      </trkpt>
      <trkpt lat="0" lon="0">
        <time>2021-02-28T09:05:35.088000+00:00</time>
      </trkpt>
      <trkpt lat="0" lon="0">
        <time>2021-02-28T09:05:35.090000+00:00</time>
      </trkpt>
      <trkpt lat="47.33462" lon="-1.43364">
        <ele>111</ele>
        <time>2021-02-28T09:05:36.065000+00:00</time>
      </trkpt>
      <trkpt lat="0" lon="0">
        <time>2021-02-28T09:05:36.072000+00:00</time>
      </trkpt>
      <trkpt lat="0" lon="0">
        <time>2021-02-28T09:05:36.080000+00:00</time>
      </trkpt>
      <trkpt lat="0" lon="0">
        <time>2021-02-28T09:05:36.082000+00:00</time>
      </trkpt>
      <trkpt lat="47.33463" lon="-1.43362">
        <ele>111</ele>
        <time>2021-02-28T09:05:37.095000+00:00</time>
      </trkpt>
      <trkpt lat="0" lon="0">
        <time>2021-02-28T09:05:37.105000+00:00</time>
      </trkpt>
      <trkpt lat="0" lon="0">
        <time>2021-02-28T09:05:37.110000+00:00</time>
      </trkpt>
      <trkpt lat="0" lon="0">
        <time>2021-02-28T09:05:37.112000+00:00</time>
      </trkpt>
      <trkpt lat="47.33464" lon="-1.43359">
        <ele>111</ele>
        <time>2021-02-28T09:05:38.102000+00:00</time>
      </trkpt>
      <trkpt lat="0" lon="0">
        <time>2021-02-28T09:05:38.113000+00:00</time>
      </trkpt>
      <trkpt lat="0" lon="0">
        <time>2021-02-28T09:05:38.118000+00:00</time>
      </trkpt>
      <trkpt lat="0" lon="0">
        <time>2021-02-28T09:05:38.121000+00:00</time>
      </trkpt>
      <trkpt lat="47.33465" lon="-1.43356">
        <ele>112</ele>
        <time>2021-02-28T09:05:39.110000+00:00</time>
      </trkpt>
      <trkpt lat="0" lon="0">
        <time>2021-02-28T09:05:39.118000+00:00</time>
      </trkpt>
      <trkpt lat="0" lon="0">
        <time>2021-02-28T09:05:39.122000+00:00</time>
      </trkpt>
      <trkpt lat="0" lon="0">
        <time>2021-02-28T09:05:39.124000+00:00</time>
      </trkpt>
      <trkpt lat="47.33467" lon="-1.43354">
        <ele>112</ele>
        <time>2021-02-28T09:05:40.110000+00:00</time>
      </trkpt>
      <trkpt lat="0" lon="0">
        <time>2021-02-28T09:05:40.118000+00:00</time>
      </trkpt>
      <trkpt lat="0" lon="0">
        <time>2021-02-28T09:05:40.122000+00:00</time>
      </trkpt>
      <trkpt lat="0" lon="0">
        <time>2021-02-28T09:05:40.123000+00:00</time>
      </trkpt>
      <trkpt lat="47.33468" lon="-1.43351">
        <ele>112</ele>
        <time>2021-02-28T09:05:41.111000+00:00</time>
      </trkpt>
      <trkpt lat="0" lon="0">
        <time>2021-02-28T09:05:41.125000+00:00</time>
      </trkpt>
      <trkpt lat="0" lon="0">
        <time>2021-02-28T09:05:41.130000+00:00</time>
      </trkpt>
      <trkpt lat="0" lon="0">
        <time>2021-02-28T09:05:41.133000+00:00</time>
      </trkpt>
      <trkpt lat="47.33469" lon="-1.43348">
        <ele>111</ele>
        <time>2021-02-28T09:05:42.091000+00:00</time>
      </trkpt>
      <trkpt lat="0" lon="0">
        <time>2021-02-28T09:05:42.096000+00:00</time>
      </trkpt>
      <trkpt lat="0" lon="0">
        <time>2021-02-28T09:05:42.100000+00:00</time>
      </trkpt>
      <trkpt lat="0" lon="0">
        <time>2021-02-28T09:05:42.102000+00:00</time>
      </trkpt>
      <trkpt lat="47.33471" lon="-1.43345">
        <ele>110</ele>
        <time>2021-02-28T09:05:43.111000+00:00</time>
      </trkpt>
      <trkpt lat="0" lon="0">
        <time>2021-02-28T09:05:43.124000+00:00</time>
      </trkpt>
      <trkpt lat="0" lon="0">
        <time>2021-02-28T09:05:43.129000+00:00</time>
      </trkpt>
      <trkpt lat="0" lon="0">
        <time>2021-02-28T09:05:43.131000+00:00</time>
      </trkpt>
      <trkpt lat="47.33472" lon="-1.43342">
        <ele>111</ele>
        <time>2021-02-28T09:05:44.128000+00:00</time>
      </trkpt>
      <trkpt lat="0" lon="0">
        <time>2021-02-28T09:05:44.134000+00:00</time>
      </trkpt>
      <trkpt lat="0" lon="0">
        <time>2021-02-28T09:05:44.139000+00:00</time>
      </trkpt>
      <trkpt lat="0" lon="0">
        <time>2021-02-28T09:05:44.142000+00:00</time>
      </trkpt>
      <trkpt lat="47.33473" lon="-1.43339">
        <ele>111</ele>
        <time>2021-02-28T09:05:45.120000+00:00</time>
      </trkpt>
      <trkpt lat="0" lon="0">
        <time>2021-02-28T09:05:45.125000+00:00</time>
      </trkpt>
      <trkpt lat="0" lon="0">
        <time>2021-02-28T09:05:45.129000+00:00</time>
      </trkpt>
      <trkpt lat="0" lon="0">
        <time>2021-02-28T09:05:45.131000+00:00</time>
      </trkpt>
      <trkpt lat="47.33475" lon="-1.43336">
        <ele>112</ele>
        <time>2021-02-28T09:05:46.127000+00:00</time>
      </trkpt>
      <trkpt lat="0" lon="0">
        <time>2021-02-28T09:05:46.136000+00:00</time>
      </trkpt>
      <trkpt lat="0" lon="0">
        <time>2021-02-28T09:05:46.140000+00:00</time>
      </trkpt>
      <trkpt lat="0" lon="0">
        <time>2021-02-28T09:05:46.143000+00:00</time>
      </trkpt>
      <trkpt lat="47.33476" lon="-1.43333">
        <ele>112</ele>
        <time>2021-02-28T09:05:47.108000+00:00</time>
      </trkpt>
      <trkpt lat="0" lon="0">
        <time>2021-02-28T09:05:47.118000+00:00</time>
      </trkpt>
      <trkpt lat="0" lon="0">
        <time>2021-02-28T09:05:47.122000+00:00</time>
      </trkpt>
      <trkpt lat="0" lon="0">
        <time>2021-02-28T09:05:47.125000+00:00</time>
      </trkpt>
      <trkpt lat="47.33477" lon="-1.4333">
        <ele>112</ele>
        <time>2021-02-28T09:05:48.081000+00:00</time>
      </trkpt>
      <trkpt lat="0" lon="0">
        <time>2021-02-28T09:05:48.086000+00:00</time>
      </trkpt>
      <trkpt lat="0" lon="0">
        <time>2021-02-28T09:05:48.091000+00:00</time>
      </trkpt>
      <trkpt lat="0" lon="0">
        <time>2021-02-28T09:05:48.093000+00:00</time>
      </trkpt>
      <trkpt lat="47.33478" lon="-1.43327">
        <ele>112</ele>
        <time>2021-02-28T09:05:49.098000+00:00</time>
      </trkpt>
      <trkpt lat="0" lon="0">
        <time>2021-02-28T09:05:49.103000+00:00</time>
      </trkpt>
      <trkpt lat="0" lon="0">
        <time>2021-02-28T09:05:49.108000+00:00</time>
      </trkpt>
      <trkpt lat="0" lon="0">
        <time>2021-02-28T09:05:49.110000+00:00</time>
      </trkpt>
      <trkpt lat="47.3348" lon="-1.43324">
        <ele>112</ele>
        <time>2021-02-28T09:05:50.099000+00:00</time>
      </trkpt>
      <trkpt lat="0" lon="0">
        <time>2021-02-28T09:05:50.112000+00:00</time>
      </trkpt>
      <trkpt lat="0" lon="0">
        <time>2021-02-28T09:05:50.116000+00:00</time>
      </trkpt>
      <trkpt lat="0" lon="0">
        <time>2021-02-28T09:05:50.118000+00:00</time>
      </trkpt>
      <trkpt lat="47.33481" lon="-1.43321">
        <ele>111</ele>
        <time>2021-02-28T09:05:51.089000+00:00</time>
      </trkpt>
      <trkpt lat="0" lon="0">
        <time>2021-02-28T09:05:51.096000+00:00</time>
      </trkpt>
      <trkpt lat="0" lon="0">
        <time>2021-02-28T09:05:51.100000+00:00</time>
      </trkpt>
      <trkpt lat="0" lon="0">
        <time>2021-02-28T09:05:51.103000+00:00</time>
      </trkpt>
      <trkpt lat="47.33482" lon="-1.43318">
        <ele>111</ele>
        <time>2021-02-28T09:05:52.118000+00:00</time>
      </trkpt>
      <trkpt lat="0" lon="0">
        <time>2021-02-28T09:05:52.126000+00:00</time>
      </trkpt>
      <trkpt lat="0" lon="0">
        <time>2021-02-28T09:05:52.134000+00:00</time>
      </trkpt>
      <trkpt lat="0" lon="0">
        <time>2021-02-28T09:05:52.138000+00:00</time>
      </trkpt>
      <trkpt lat="47.33483" lon="-1.43314">
        <ele>111</ele>
        <time>2021-02-28T09:05:53.099000+00:00</time>
      </trkpt>
      <trkpt lat="0" lon="0">
        <time>2021-02-28T09:05:53.106000+00:00</time>
      </trkpt>
      <trkpt lat="0" lon="0">
        <time>2021-02-28T09:05:53.114000+00:00</time>
      </trkpt>
      <trkpt lat="0" lon="0">
        <time>2021-02-28T09:05:53.116000+00:00</time>
      </trkpt>
      <trkpt lat="47.33484" lon="-1.43311">
        <ele>111</ele>
        <time>2021-02-28T09:05:54.092000+00:00</time>
      </trkpt>
      <trkpt lat="0" lon="0">
        <time>2021-02-28T09:05:54.099000+00:00</time>
      </trkpt>
      <trkpt lat="0" lon="0">
        <time>2021-02-28T09:05:54.104000+00:00</time>
      </trkpt>
      <trkpt lat="0" lon="0">
        <time>2021-02-28T09:05:54.107000+00:00</time>
      </trkpt>
      <trkpt lat="47.33485" lon="-1.43308">
        <ele>112</ele>
        <time>2021-02-28T09:05:55.065000+00:00</time>
      </trkpt>
      <trkpt lat="0" lon="0">
        <time>2021-02-28T09:05:55.074000+00:00</time>
      </trkpt>
      <trkpt lat="0" lon="0">
        <time>2021-02-28T09:05:55.078000+00:00</time>
      </trkpt>
      <trkpt lat="0" lon="0">
        <time>2021-02-28T09:05:55.080000+00:00</time>
      </trkpt>
      <trkpt lat="47.33486" lon="-1.43305">
        <ele>112</ele>
        <time>2021-02-28T09:05:56.128000+00:00</time>
      </trkpt>
      <trkpt lat="0" lon="0">
        <time>2021-02-28T09:05:56.134000+00:00</time>
      </trkpt>
      <trkpt lat="0" lon="0">
        <time>2021-02-28T09:05:56.137000+00:00</time>
      </trkpt>
      <trkpt lat="0" lon="0">
        <time>2021-02-28T09:05:56.139000+00:00</time>
      </trkpt>
      <trkpt lat="47.33487" lon="-1.43302">
        <ele>112</ele>
        <time>2021-02-28T09:05:57.113000+00:00</time>
      </trkpt>
      <trkpt lat="0" lon="0">
        <time>2021-02-28T09:05:57.121000+00:00</time>
      </trkpt>
      <trkpt lat="0" lon="0">
        <time>2021-02-28T09:05:57.126000+00:00</time>
      </trkpt>
      <trkpt lat="0" lon="0">
        <time>2021-02-28T09:05:57.128000+00:00</time>
      </trkpt>
      <trkpt lat="47.33488" lon="-1.43299">
        <ele>112</ele>
        <time>2021-02-28T09:05:58.112000+00:00</time>
      </trkpt>
      <trkpt lat="0" lon="0">
        <time>2021-02-28T09:05:58.118000+00:00</time>
      </trkpt>
      <trkpt lat="0" lon="0">
        <time>2021-02-28T09:05:58.122000+00:00</time>
      </trkpt>
      <trkpt lat="0" lon="0">
        <time>2021-02-28T09:05:58.124000+00:00</time>
      </trkpt>
      <trkpt lat="47.33489" lon="-1.43297">
        <ele>113</ele>
        <time>2021-02-28T09:05:59.117000+00:00</time>
      </trkpt>
      <trkpt lat="0" lon="0">
        <time>2021-02-28T09:05:59.122000+00:00</time>
      </trkpt>
      <trkpt lat="0" lon="0">
        <time>2021-02-28T09:05:59.127000+00:00</time>
      </trkpt>
      <trkpt lat="0" lon="0">
        <time>2021-02-28T09:05:59.130000+00:00</time>
      </trkpt>
      <trkpt lat="47.3349" lon="-1.43294">
        <ele>112</ele>
        <time>2021-02-28T09:06:00.111000+00:00</time>
      </trkpt>
      <trkpt lat="0" lon="0">
        <time>2021-02-28T09:06:00.117000+00:00</time>
      </trkpt>
      <trkpt lat="0" lon="0">
        <time>2021-02-28T09:06:00.120000+00:00</time>
      </trkpt>
      <trkpt lat="0" lon="0">
        <time>2021-02-28T09:06:00.123000+00:00</time>
      </trkpt>
      <trkpt lat="47.3349" lon="-1.43291">
        <ele>112</ele>
        <time>2021-02-28T09:06:01.104000+00:00</time>
      </trkpt>
      <trkpt lat="0" lon="0">
        <time>2021-02-28T09:06:01.113000+00:00</time>
      </trkpt>
      <trkpt lat="0" lon="0">
        <time>2021-02-28T09:06:01.119000+00:00</time>
      </trkpt>
      <trkpt lat="0" lon="0">
        <time>2021-02-28T09:06:01.122000+00:00</time>
      </trkpt>
      <trkpt lat="47.33491" lon="-1.43289">
        <ele>112</ele>
        <time>2021-02-28T09:06:02.089000+00:00</time>
      </trkpt>
      <trkpt lat="0" lon="0">
        <time>2021-02-28T09:06:02.094000+00:00</time>
      </trkpt>
      <trkpt lat="0" lon="0">
        <time>2021-02-28T09:06:02.098000+00:00</time>
      </trkpt>
      <trkpt lat="0" lon="0">
        <time>2021-02-28T09:06:02.100000+00:00</time>
      </trkpt>
      <trkpt lat="47.33492" lon="-1.43286">
        <ele>112</ele>
        <time>2021-02-28T09:06:03.099000+00:00</time>
      </trkpt>
      <trkpt lat="0" lon="0">
        <time>2021-02-28T09:06:03.104000+00:00</time>
      </trkpt>
      <trkpt lat="0" lon="0">
        <time>2021-02-28T09:06:03.109000+00:00</time>
      </trkpt>
      <trkpt lat="0" lon="0">
        <time>2021-02-28T09:06:03.112000+00:00</time>
      </trkpt>
      <trkpt lat="47.33492" lon="-1.43284">
        <ele>113</ele>
        <time>2021-02-28T09:06:04.177000+00:00</time>
      </trkpt>
      <trkpt lat="0" lon="0">
        <time>2021-02-28T09:06:04.179000+00:00</time>
      </trkpt>
      <trkpt lat="0" lon="0">
        <time>2021-02-28T09:06:04.181000+00:00</time>
      </trkpt>
      <trkpt lat="0" lon="0">
        <time>2021-02-28T09:06:04.183000+00:00</time>
      </trkpt>
      <trkpt lat="47.33495" lon="-1.43279">
        <ele>113</ele>
        <time>2021-02-28T09:06:06.139000+00:00</time>
      </trkpt>
      <trkpt lat="0" lon="0">
        <time>2021-02-28T09:06:06.147000+00:00</time>
      </trkpt>
      <trkpt lat="0" lon="0">
        <time>2021-02-28T09:06:06.150000+00:00</time>
      </trkpt>
      <trkpt lat="0" lon="0">
        <time>2021-02-28T09:06:06.153000+00:00</time>
      </trkpt>
      <trkpt lat="47.33496" lon="-1.43277">
        <ele>114</ele>
        <time>2021-02-28T09:06:07.197000+00:00</time>
      </trkpt>
      <trkpt lat="0" lon="0">
        <time>2021-02-28T09:06:07.202000+00:00</time>
      </trkpt>
      <trkpt lat="0" lon="0">
        <time>2021-02-28T09:06:07.206000+00:00</time>
      </trkpt>
      <trkpt lat="0" lon="0">
        <time>2021-02-28T09:06:07.208000+00:00</time>
      </trkpt>
      <trkpt lat="47.33497" lon="-1.43275">
        <ele>114</ele>
        <time>2021-02-28T09:06:08.152000+00:00</time>
      </trkpt>
      <trkpt lat="0" lon="0">
        <time>2021-02-28T09:06:08.161000+00:00</time>
      </trkpt>
      <trkpt lat="0" lon="0">
        <time>2021-02-28T09:06:08.165000+00:00</time>
      </trkpt>
      <trkpt lat="0" lon="0">
        <time>2021-02-28T09:06:08.169000+00:00</time>
      </trkpt>
      <trkpt lat="47.33498" lon="-1.43274">
        <ele>114</ele>
        <time>2021-02-28T09:06:09.099000+00:00</time>
      </trkpt>
      <trkpt lat="0" lon="0">
        <time>2021-02-28T09:06:09.101000+00:00</time>
      </trkpt>
      <trkpt lat="0" lon="0">
        <time>2021-02-28T09:06:09.103000+00:00</time>
      </trkpt>
      <trkpt lat="0" lon="0">
        <time>2021-02-28T09:06:09.105000+00:00</time>
      </trkpt>
      <trkpt lat="47.33499" lon="-1.43272">
        <ele>114</ele>
        <time>2021-02-28T09:06:10.071000+00:00</time>
      </trkpt>
      <trkpt lat="0" lon="0">
        <time>2021-02-28T09:06:10.078000+00:00</time>
      </trkpt>
      <trkpt lat="0" lon="0">
        <time>2021-02-28T09:06:10.083000+00:00</time>
      </trkpt>
      <trkpt lat="0" lon="0">
        <time>2021-02-28T09:06:10.086000+00:00</time>
      </trkpt>
      <trkpt lat="47.335" lon="-1.43271">
        <ele>115</ele>
        <time>2021-02-28T09:06:11.157000+00:00</time>
      </trkpt>
      <trkpt lat="0" lon="0">
        <time>2021-02-28T09:06:11.161000+00:00</time>
      </trkpt>
      <trkpt lat="0" lon="0">
        <time>2021-02-28T09:06:11.166000+00:00</time>
      </trkpt>
      <trkpt lat="0" lon="0">
        <time>2021-02-28T09:06:11.176000+00:00</time>
      </trkpt>
      <trkpt lat="47.33501" lon="-1.43269">
        <ele>116</ele>
        <time>2021-02-28T09:06:12.146000+00:00</time>
      </trkpt>
      <trkpt lat="0" lon="0">
        <time>2021-02-28T09:06:12.155000+00:00</time>
      </trkpt>
      <trkpt lat="0" lon="0">
        <time>2021-02-28T09:06:12.159000+00:00</time>
      </trkpt>
      <trkpt lat="0" lon="0">
        <time>2021-02-28T09:06:12.162000+00:00</time>
      </trkpt>
      <trkpt lat="47.33502" lon="-1.43268">
        <ele>116</ele>
        <time>2021-02-28T09:06:13.164000+00:00</time>
      </trkpt>
      <trkpt lat="0" lon="0">
        <time>2021-02-28T09:06:13.175000+00:00</time>
      </trkpt>
      <trkpt lat="0" lon="0">
        <time>2021-02-28T09:06:13.182000+00:00</time>
      </trkpt>
      <trkpt lat="0" lon="0">
        <time>2021-02-28T09:06:13.185000+00:00</time>
      </trkpt>
      <trkpt lat="47.33503" lon="-1.43266">
        <ele>116</ele>
        <time>2021-02-28T09:06:14.192000+00:00</time>
      </trkpt>
      <trkpt lat="0" lon="0">
        <time>2021-02-28T09:06:14.199000+00:00</time>
      </trkpt>
      <trkpt lat="0" lon="0">
        <time>2021-02-28T09:06:14.206000+00:00</time>
      </trkpt>
      <trkpt lat="0" lon="0">
        <time>2021-02-28T09:06:14.210000+00:00</time>
      </trkpt>
      <trkpt lat="47.33505" lon="-1.43265">
        <ele>115</ele>
        <time>2021-02-28T09:06:15.140000+00:00</time>
      </trkpt>
      <trkpt lat="0" lon="0">
        <time>2021-02-28T09:06:15.146000+00:00</time>
      </trkpt>
      <trkpt lat="0" lon="0">
        <time>2021-02-28T09:06:15.151000+00:00</time>
      </trkpt>
      <trkpt lat="0" lon="0">
        <time>2021-02-28T09:06:15.154000+00:00</time>
      </trkpt>
      <trkpt lat="47.33507" lon="-1.43264">
        <ele>115</ele>
        <time>2021-02-28T09:06:16.154000+00:00</time>
      </trkpt>
      <trkpt lat="0" lon="0">
        <time>2021-02-28T09:06:16.163000+00:00</time>
      </trkpt>
      <trkpt lat="0" lon="0">
        <time>2021-02-28T09:06:16.167000+00:00</time>
      </trkpt>
      <trkpt lat="0" lon="0">
        <time>2021-02-28T09:06:16.170000+00:00</time>
      </trkpt>
      <trkpt lat="47.33509" lon="-1.43263">
        <ele>115</ele>
        <time>2021-02-28T09:06:17.110000+00:00</time>
      </trkpt>
      <trkpt lat="0" lon="0">
        <time>2021-02-28T09:06:17.121000+00:00</time>
      </trkpt>
      <trkpt lat="0" lon="0">
        <time>2021-02-28T09:06:17.126000+00:00</time>
      </trkpt>
      <trkpt lat="0" lon="0">
        <time>2021-02-28T09:06:17.127000+00:00</time>
      </trkpt>
      <trkpt lat="47.3351" lon="-1.43262">
        <ele>114</ele>
        <time>2021-02-28T09:06:18.061000+00:00</time>
      </trkpt>
      <trkpt lat="0" lon="0">
        <time>2021-02-28T09:06:18.080000+00:00</time>
      </trkpt>
      <trkpt lat="0" lon="0">
        <time>2021-02-28T09:06:18.082000+00:00</time>
      </trkpt>
      <trkpt lat="0" lon="0">
        <time>2021-02-28T09:06:18.084000+00:00</time>
      </trkpt>
      <trkpt lat="47.33512" lon="-1.43262">
        <ele>113</ele>
        <time>2021-02-28T09:06:19.145000+00:00</time>
      </trkpt>
      <trkpt lat="0" lon="0">
        <time>2021-02-28T09:06:19.153000+00:00</time>
      </trkpt>
      <trkpt lat="0" lon="0">
        <time>2021-02-28T09:06:19.158000+00:00</time>
      </trkpt>
      <trkpt lat="0" lon="0">
        <time>2021-02-28T09:06:19.160000+00:00</time>
      </trkpt>
      <trkpt lat="47.33514" lon="-1.43263">
        <ele>113</ele>
        <time>2021-02-28T09:06:20.150000+00:00</time>
      </trkpt>
      <trkpt lat="0" lon="0">
        <time>2021-02-28T09:06:20.164000+00:00</time>
      </trkpt>
      <trkpt lat="0" lon="0">
        <time>2021-02-28T09:06:20.169000+00:00</time>
      </trkpt>
      <trkpt lat="0" lon="0">
        <time>2021-02-28T09:06:20.172000+00:00</time>
      </trkpt>
      <trkpt lat="47.33516" lon="-1.43264">
        <ele>113</ele>
        <time>2021-02-28T09:06:21.153000+00:00</time>
      </trkpt>
      <trkpt lat="0" lon="0">
        <time>2021-02-28T09:06:21.159000+00:00</time>
      </trkpt>
      <trkpt lat="0" lon="0">
        <time>2021-02-28T09:06:21.166000+00:00</time>
      </trkpt>
      <trkpt lat="0" lon="0">
        <time>2021-02-28T09:06:21.168000+00:00</time>
      </trkpt>
      <trkpt lat="47.33517" lon="-1.43265">
        <ele>113</ele>
        <time>2021-02-28T09:06:22.167000+00:00</time>
      </trkpt>
      <trkpt lat="0" lon="0">
        <time>2021-02-28T09:06:22.182000+00:00</time>
      </trkpt>
      <trkpt lat="0" lon="0">
        <time>2021-02-28T09:06:22.186000+00:00</time>
      </trkpt>
      <trkpt lat="0" lon="0">
        <time>2021-02-28T09:06:22.188000+00:00</time>
      </trkpt>
      <trkpt lat="47.33518" lon="-1.43268">
        <ele>113</ele>
        <time>2021-02-28T09:06:23.125000+00:00</time>
      </trkpt>
      <trkpt lat="0" lon="0">
        <time>2021-02-28T09:06:23.134000+00:00</time>
      </trkpt>
      <trkpt lat="0" lon="0">
        <time>2021-02-28T09:06:23.140000+00:00</time>
      </trkpt>
      <trkpt lat="0" lon="0">
        <time>2021-02-28T09:06:23.142000+00:00</time>
      </trkpt>
      <trkpt lat="47.33519" lon="-1.4327">
        <ele>114</ele>
        <time>2021-02-28T09:06:24.117000+00:00</time>
      </trkpt>
      <trkpt lat="0" lon="0">
        <time>2021-02-28T09:06:24.127000+00:00</time>
      </trkpt>
      <trkpt lat="0" lon="0">
        <time>2021-02-28T09:06:24.134000+00:00</time>
      </trkpt>
      <trkpt lat="0" lon="0">
        <time>2021-02-28T09:06:24.137000+00:00</time>
      </trkpt>
      <trkpt lat="47.3352" lon="-1.43274">
        <ele>114</ele>
        <time>2021-02-28T09:06:25.188000+00:00</time>
      </trkpt>
      <trkpt lat="0" lon="0">
        <time>2021-02-28T09:06:25.197000+00:00</time>
      </trkpt>
      <trkpt lat="0" lon="0">
        <time>2021-02-28T09:06:25.202000+00:00</time>
      </trkpt>
      <trkpt lat="0" lon="0">
        <time>2021-02-28T09:06:25.204000+00:00</time>
      </trkpt>
      <trkpt lat="47.33521" lon="-1.43277">
        <ele>113</ele>
        <time>2021-02-28T09:06:26.173000+00:00</time>
      </trkpt>
      <trkpt lat="0" lon="0">
        <time>2021-02-28T09:06:26.179000+00:00</time>
      </trkpt>
      <trkpt lat="0" lon="0">
        <time>2021-02-28T09:06:26.185000+00:00</time>
      </trkpt>
      <trkpt lat="0" lon="0">
        <time>2021-02-28T09:06:26.188000+00:00</time>
      </trkpt>
      <trkpt lat="47.33522" lon="-1.43281">
        <ele>113</ele>
        <time>2021-02-28T09:06:27.111000+00:00</time>
      </trkpt>
      <trkpt lat="0" lon="0">
        <time>2021-02-28T09:06:27.119000+00:00</time>
      </trkpt>
      <trkpt lat="0" lon="0">
        <time>2021-02-28T09:06:27.128000+00:00</time>
      </trkpt>
      <trkpt lat="0" lon="0">
        <time>2021-02-28T09:06:27.131000+00:00</time>
      </trkpt>
      <trkpt lat="47.33522" lon="-1.43286">
        <ele>113</ele>
        <time>2021-02-28T09:06:28.167000+00:00</time>
      </trkpt>
      <trkpt lat="0" lon="0">
        <time>2021-02-28T09:06:28.177000+00:00</time>
      </trkpt>
      <trkpt lat="0" lon="0">
        <time>2021-02-28T09:06:28.181000+00:00</time>
      </trkpt>
      <trkpt lat="0" lon="0">
        <time>2021-02-28T09:06:28.183000+00:00</time>
      </trkpt>
      <trkpt lat="47.33523" lon="-1.4329">
        <ele>113</ele>
        <time>2021-02-28T09:06:29.213000+00:00</time>
      </trkpt>
      <trkpt lat="0" lon="0">
        <time>2021-02-28T09:06:29.219000+00:00</time>
      </trkpt>
      <trkpt lat="0" lon="0">
        <time>2021-02-28T09:06:29.225000+00:00</time>
      </trkpt>
      <trkpt lat="0" lon="0">
        <time>2021-02-28T09:06:29.228000+00:00</time>
      </trkpt>
      <trkpt lat="47.33525" lon="-1.43298">
        <ele>112</ele>
        <time>2021-02-28T09:06:31.056000+00:00</time>
      </trkpt>
      <trkpt lat="0" lon="0">
        <time>2021-02-28T09:06:31.057000+00:00</time>
      </trkpt>
      <trkpt lat="0" lon="0">
        <time>2021-02-28T09:06:31.059000+00:00</time>
      </trkpt>
      <trkpt lat="0" lon="0">
        <time>2021-02-28T09:06:31.060000+00:00</time>
      </trkpt>
      <trkpt lat="47.33525" lon="-1.43304">
        <ele>112</ele>
        <time>2021-02-28T09:06:32.195000+00:00</time>
      </trkpt>
      <trkpt lat="0" lon="0">
        <time>2021-02-28T09:06:32.205000+00:00</time>
      </trkpt>
      <trkpt lat="0" lon="0">
        <time>2021-02-28T09:06:32.212000+00:00</time>
      </trkpt>
      <trkpt lat="0" lon="0">
        <time>2021-02-28T09:06:32.215000+00:00</time>
      </trkpt>
      <trkpt lat="47.33526" lon="-1.43309">
        <ele>110</ele>
        <time>2021-02-28T09:06:33.153000+00:00</time>
      </trkpt>
      <trkpt lat="0" lon="0">
        <time>2021-02-28T09:06:33.162000+00:00</time>
      </trkpt>
      <trkpt lat="0" lon="0">
        <time>2021-02-28T09:06:33.166000+00:00</time>
      </trkpt>
      <trkpt lat="0" lon="0">
        <time>2021-02-28T09:06:33.168000+00:00</time>
      </trkpt>
      <trkpt lat="47.33527" lon="-1.43315">
        <ele>110</ele>
        <time>2021-02-28T09:06:34.149000+00:00</time>
      </trkpt>
      <trkpt lat="0" lon="0">
        <time>2021-02-28T09:06:34.161000+00:00</time>
      </trkpt>
      <trkpt lat="0" lon="0">
        <time>2021-02-28T09:06:34.164000+00:00</time>
      </trkpt>
      <trkpt lat="0" lon="0">
        <time>2021-02-28T09:06:34.166000+00:00</time>
      </trkpt>
      <trkpt lat="47.33528" lon="-1.43321">
        <ele>109</ele>
        <time>2021-02-28T09:06:35.149000+00:00</time>
      </trkpt>
      <trkpt lat="0" lon="0">
        <time>2021-02-28T09:06:35.154000+00:00</time>
      </trkpt>
      <trkpt lat="0" lon="0">
        <time>2021-02-28T09:06:35.160000+00:00</time>
      </trkpt>
      <trkpt lat="0" lon="0">
        <time>2021-02-28T09:06:35.162000+00:00</time>
      </trkpt>
      <trkpt lat="47.3353" lon="-1.43327">
        <ele>110</ele>
        <time>2021-02-28T09:06:36.195000+00:00</time>
      </trkpt>
      <trkpt lat="0" lon="0">
        <time>2021-02-28T09:06:36.208000+00:00</time>
      </trkpt>
      <trkpt lat="0" lon="0">
        <time>2021-02-28T09:06:36.212000+00:00</time>
      </trkpt>
      <trkpt lat="0" lon="0">
        <time>2021-02-28T09:06:36.216000+00:00</time>
      </trkpt>
      <trkpt lat="47.33532" lon="-1.43333">
        <ele>110</ele>
        <time>2021-02-28T09:06:37.150000+00:00</time>
      </trkpt>
      <trkpt lat="0" lon="0">
        <time>2021-02-28T09:06:37.162000+00:00</time>
      </trkpt>
      <trkpt lat="0" lon="0">
        <time>2021-02-28T09:06:37.168000+00:00</time>
      </trkpt>
      <trkpt lat="0" lon="0">
        <time>2021-02-28T09:06:37.171000+00:00</time>
      </trkpt>
      <trkpt lat="47.33533" lon="-1.43339">
        <ele>111</ele>
        <time>2021-02-28T09:06:38.174000+00:00</time>
      </trkpt>
      <trkpt lat="0" lon="0">
        <time>2021-02-28T09:06:38.180000+00:00</time>
      </trkpt>
      <trkpt lat="0" lon="0">
        <time>2021-02-28T09:06:38.184000+00:00</time>
      </trkpt>
      <trkpt lat="0" lon="0">
        <time>2021-02-28T09:06:38.187000+00:00</time>
      </trkpt>
      <trkpt lat="47.33535" lon="-1.43345">
        <ele>110</ele>
        <time>2021-02-28T09:06:39.178000+00:00</time>
      </trkpt>
      <trkpt lat="0" lon="0">
        <time>2021-02-28T09:06:39.185000+00:00</time>
      </trkpt>
      <trkpt lat="0" lon="0">
        <time>2021-02-28T09:06:39.190000+00:00</time>
      </trkpt>
      <trkpt lat="0" lon="0">
        <time>2021-02-28T09:06:39.193000+00:00</time>
      </trkpt>
      <trkpt lat="47.33537" lon="-1.43351">
        <ele>110</ele>
        <time>2021-02-28T09:06:40.181000+00:00</time>
      </trkpt>
      <trkpt lat="0" lon="0">
        <time>2021-02-28T09:06:40.186000+00:00</time>
      </trkpt>
      <trkpt lat="0" lon="0">
        <time>2021-02-28T09:06:40.188000+00:00</time>
      </trkpt>
      <trkpt lat="0" lon="0">
        <time>2021-02-28T09:06:40.189000+00:00</time>
      </trkpt>
      <trkpt lat="47.33539" lon="-1.43357">
        <ele>111</ele>
        <time>2021-02-28T09:06:41.143000+00:00</time>
      </trkpt>
      <trkpt lat="0" lon="0">
        <time>2021-02-28T09:06:41.150000+00:00</time>
      </trkpt>
      <trkpt lat="0" lon="0">
        <time>2021-02-28T09:06:41.154000+00:00</time>
      </trkpt>
      <trkpt lat="0" lon="0">
        <time>2021-02-28T09:06:41.157000+00:00</time>
      </trkpt>
      <trkpt lat="47.33541" lon="-1.43364">
        <ele>111</ele>
        <time>2021-02-28T09:06:42.133000+00:00</time>
      </trkpt>
      <trkpt lat="0" lon="0">
        <time>2021-02-28T09:06:42.138000+00:00</time>
      </trkpt>
      <trkpt lat="0" lon="0">
        <time>2021-02-28T09:06:42.146000+00:00</time>
      </trkpt>
      <trkpt lat="0" lon="0">
        <time>2021-02-28T09:06:42.147000+00:00</time>
      </trkpt>
      <trkpt lat="47.33543" lon="-1.4337">
        <ele>112</ele>
        <time>2021-02-28T09:06:43.154000+00:00</time>
      </trkpt>
      <trkpt lat="0" lon="0">
        <time>2021-02-28T09:06:43.163000+00:00</time>
      </trkpt>
      <trkpt lat="0" lon="0">
        <time>2021-02-28T09:06:43.168000+00:00</time>
      </trkpt>
      <trkpt lat="0" lon="0">
        <time>2021-02-28T09:06:43.170000+00:00</time>
      </trkpt>
      <trkpt lat="47.33544" lon="-1.43377">
        <ele>112</ele>
        <time>2021-02-28T09:06:44.198000+00:00</time>
      </trkpt>
      <trkpt lat="0" lon="0">
        <time>2021-02-28T09:06:44.204000+00:00</time>
      </trkpt>
      <trkpt lat="0" lon="0">
        <time>2021-02-28T09:06:44.211000+00:00</time>
      </trkpt>
      <trkpt lat="0" lon="0">
        <time>2021-02-28T09:06:44.213000+00:00</time>
      </trkpt>
      <trkpt lat="47.33547" lon="-1.43384">
        <ele>112</ele>
        <time>2021-02-28T09:06:45.136000+00:00</time>
      </trkpt>
      <trkpt lat="0" lon="0">
        <time>2021-02-28T09:06:45.146000+00:00</time>
      </trkpt>
      <trkpt lat="0" lon="0">
        <time>2021-02-28T09:06:45.150000+00:00</time>
      </trkpt>
      <trkpt lat="0" lon="0">
        <time>2021-02-28T09:06:45.153000+00:00</time>
      </trkpt>
      <trkpt lat="47.33549" lon="-1.43391">
        <ele>112</ele>
        <time>2021-02-28T09:06:46.187000+00:00</time>
      </trkpt>
      <trkpt lat="0" lon="0">
        <time>2021-02-28T09:06:46.193000+00:00</time>
      </trkpt>
      <trkpt lat="0" lon="0">
        <time>2021-02-28T09:06:46.198000+00:00</time>
      </trkpt>
      <trkpt lat="0" lon="0">
        <time>2021-02-28T09:06:46.202000+00:00</time>
      </trkpt>
      <trkpt lat="47.33551" lon="-1.43398">
        <ele>112</ele>
        <time>2021-02-28T09:06:47.145000+00:00</time>
      </trkpt>
      <trkpt lat="0" lon="0">
        <time>2021-02-28T09:06:47.153000+00:00</time>
      </trkpt>
      <trkpt lat="0" lon="0">
        <time>2021-02-28T09:06:47.159000+00:00</time>
      </trkpt>
      <trkpt lat="0" lon="0">
        <time>2021-02-28T09:06:47.162000+00:00</time>
      </trkpt>
      <trkpt lat="47.33553" lon="-1.43405">
        <ele>112</ele>
        <time>2021-02-28T09:06:48.165000+00:00</time>
      </trkpt>
      <trkpt lat="0" lon="0">
        <time>2021-02-28T09:06:48.178000+00:00</time>
      </trkpt>
      <trkpt lat="0" lon="0">
        <time>2021-02-28T09:06:48.182000+00:00</time>
      </trkpt>
      <trkpt lat="0" lon="0">
        <time>2021-02-28T09:06:48.184000+00:00</time>
      </trkpt>
      <trkpt lat="47.33555" lon="-1.43413">
        <ele>112</ele>
        <time>2021-02-28T09:06:49.185000+00:00</time>
      </trkpt>
      <trkpt lat="0" lon="0">
        <time>2021-02-28T09:06:49.192000+00:00</time>
      </trkpt>
      <trkpt lat="0" lon="0">
        <time>2021-02-28T09:06:49.198000+00:00</time>
      </trkpt>
      <trkpt lat="0" lon="0">
        <time>2021-02-28T09:06:49.201000+00:00</time>
      </trkpt>
      <trkpt lat="47.33557" lon="-1.4342">
        <ele>112</ele>
        <time>2021-02-28T09:06:50.163000+00:00</time>
      </trkpt>
      <trkpt lat="0" lon="0">
        <time>2021-02-28T09:06:50.173000+00:00</time>
      </trkpt>
      <trkpt lat="0" lon="0">
        <time>2021-02-28T09:06:50.178000+00:00</time>
      </trkpt>
      <trkpt lat="0" lon="0">
        <time>2021-02-28T09:06:50.180000+00:00</time>
      </trkpt>
      <trkpt lat="47.33559" lon="-1.43427">
        <ele>112</ele>
        <time>2021-02-28T09:06:51.174000+00:00</time>
      </trkpt>
      <trkpt lat="0" lon="0">
        <time>2021-02-28T09:06:51.181000+00:00</time>
      </trkpt>
      <trkpt lat="0" lon="0">
        <time>2021-02-28T09:06:51.185000+00:00</time>
      </trkpt>
      <trkpt lat="0" lon="0">
        <time>2021-02-28T09:06:51.188000+00:00</time>
      </trkpt>
      <trkpt lat="47.33561" lon="-1.43433">
        <ele>112</ele>
        <time>2021-02-28T09:06:52.130000+00:00</time>
      </trkpt>
      <trkpt lat="0" lon="0">
        <time>2021-02-28T09:06:52.137000+00:00</time>
      </trkpt>
      <trkpt lat="0" lon="0">
        <time>2021-02-28T09:06:52.142000+00:00</time>
      </trkpt>
      <trkpt lat="0" lon="0">
        <time>2021-02-28T09:06:52.144000+00:00</time>
      </trkpt>
      <trkpt lat="47.33563" lon="-1.4344">
        <ele>112</ele>
        <time>2021-02-28T09:06:53.169000+00:00</time>
      </trkpt>
      <trkpt lat="0" lon="0">
        <time>2021-02-28T09:06:53.173000+00:00</time>
      </trkpt>
      <trkpt lat="0" lon="0">
        <time>2021-02-28T09:06:53.177000+00:00</time>
      </trkpt>
      <trkpt lat="0" lon="0">
        <time>2021-02-28T09:06:53.180000+00:00</time>
      </trkpt>
      <trkpt lat="47.33566" lon="-1.43447">
        <ele>111</ele>
        <time>2021-02-28T09:06:54.158000+00:00</time>
      </trkpt>
      <trkpt lat="0" lon="0">
        <time>2021-02-28T09:06:54.165000+00:00</time>
      </trkpt>
      <trkpt lat="0" lon="0">
        <time>2021-02-28T09:06:54.171000+00:00</time>
      </trkpt>
      <trkpt lat="0" lon="0">
        <time>2021-02-28T09:06:54.174000+00:00</time>
      </trkpt>
      <trkpt lat="47.33568" lon="-1.43454">
        <ele>111</ele>
        <time>2021-02-28T09:06:55.153000+00:00</time>
      </trkpt>
      <trkpt lat="0" lon="0">
        <time>2021-02-28T09:06:55.166000+00:00</time>
      </trkpt>
      <trkpt lat="0" lon="0">
        <time>2021-02-28T09:06:55.172000+00:00</time>
      </trkpt>
      <trkpt lat="0" lon="0">
        <time>2021-02-28T09:06:55.174000+00:00</time>
      </trkpt>
      <trkpt lat="47.3357" lon="-1.4346">
        <ele>111</ele>
        <time>2021-02-28T09:06:56.148000+00:00</time>
      </trkpt>
      <trkpt lat="0" lon="0">
        <time>2021-02-28T09:06:56.155000+00:00</time>
      </trkpt>
      <trkpt lat="0" lon="0">
        <time>2021-02-28T09:06:56.159000+00:00</time>
      </trkpt>
      <trkpt lat="0" lon="0">
        <time>2021-02-28T09:06:56.162000+00:00</time>
      </trkpt>
      <trkpt lat="47.33572" lon="-1.43466">
        <ele>111</ele>
        <time>2021-02-28T09:06:57.179000+00:00</time>
      </trkpt>
      <trkpt lat="0" lon="0">
        <time>2021-02-28T09:06:57.187000+00:00</time>
      </trkpt>
      <trkpt lat="0" lon="0">
        <time>2021-02-28T09:06:57.192000+00:00</time>
      </trkpt>
      <trkpt lat="0" lon="0">
        <time>2021-02-28T09:06:57.194000+00:00</time>
      </trkpt>
      <trkpt lat="47.33574" lon="-1.43472">
        <ele>111</ele>
        <time>2021-02-28T09:06:58.208000+00:00</time>
      </trkpt>
      <trkpt lat="0" lon="0">
        <time>2021-02-28T09:06:58.218000+00:00</time>
      </trkpt>
      <trkpt lat="0" lon="0">
        <time>2021-02-28T09:06:58.227000+00:00</time>
      </trkpt>
      <trkpt lat="0" lon="0">
        <time>2021-02-28T09:06:58.230000+00:00</time>
      </trkpt>
      <trkpt lat="47.33576" lon="-1.43478">
        <ele>111</ele>
        <time>2021-02-28T09:06:59.156000+00:00</time>
      </trkpt>
      <trkpt lat="0" lon="0">
        <time>2021-02-28T09:06:59.160000+00:00</time>
      </trkpt>
      <trkpt lat="0" lon="0">
        <time>2021-02-28T09:06:59.164000+00:00</time>
      </trkpt>
      <trkpt lat="0" lon="0">
        <time>2021-02-28T09:06:59.167000+00:00</time>
      </trkpt>
      <trkpt lat="47.33578" lon="-1.43484">
        <ele>110</ele>
        <time>2021-02-28T09:07:00.192000+00:00</time>
      </trkpt>
      <trkpt lat="0" lon="0">
        <time>2021-02-28T09:07:00.197000+00:00</time>
      </trkpt>
      <trkpt lat="0" lon="0">
        <time>2021-02-28T09:07:00.201000+00:00</time>
      </trkpt>
      <trkpt lat="0" lon="0">
        <time>2021-02-28T09:07:00.204000+00:00</time>
      </trkpt>
      <trkpt lat="47.33579" lon="-1.43489">
        <ele>110</ele>
        <time>2021-02-28T09:07:01.187000+00:00</time>
      </trkpt>
      <trkpt lat="0" lon="0">
        <time>2021-02-28T09:07:01.201000+00:00</time>
      </trkpt>
      <trkpt lat="0" lon="0">
        <time>2021-02-28T09:07:01.207000+00:00</time>
      </trkpt>
      <trkpt lat="0" lon="0">
        <time>2021-02-28T09:07:01.210000+00:00</time>
      </trkpt>
      <trkpt lat="47.33581" lon="-1.43495">
        <ele>110</ele>
        <time>2021-02-28T09:07:02.146000+00:00</time>
      </trkpt>
      <trkpt lat="0" lon="0">
        <time>2021-02-28T09:07:02.152000+00:00</time>
      </trkpt>
      <trkpt lat="0" lon="0">
        <time>2021-02-28T09:07:02.159000+00:00</time>
      </trkpt>
      <trkpt lat="0" lon="0">
        <time>2021-02-28T09:07:02.161000+00:00</time>
      </trkpt>
      <trkpt lat="47.33582" lon="-1.43501">
        <ele>109</ele>
        <time>2021-02-28T09:07:03.178000+00:00</time>
      </trkpt>
      <trkpt lat="0" lon="0">
        <time>2021-02-28T09:07:03.187000+00:00</time>
      </trkpt>
      <trkpt lat="0" lon="0">
        <time>2021-02-28T09:07:03.191000+00:00</time>
      </trkpt>
      <trkpt lat="0" lon="0">
        <time>2021-02-28T09:07:03.193000+00:00</time>
      </trkpt>
      <trkpt lat="47.33584" lon="-1.43507">
        <ele>109</ele>
        <time>2021-02-28T09:07:04.147000+00:00</time>
      </trkpt>
      <trkpt lat="0" lon="0">
        <time>2021-02-28T09:07:04.164000+00:00</time>
      </trkpt>
      <trkpt lat="0" lon="0">
        <time>2021-02-28T09:07:04.174000+00:00</time>
      </trkpt>
      <trkpt lat="0" lon="0">
        <time>2021-02-28T09:07:04.177000+00:00</time>
      </trkpt>
      <trkpt lat="47.33586" lon="-1.43513">
        <ele>109</ele>
        <time>2021-02-28T09:07:05.166000+00:00</time>
      </trkpt>
      <trkpt lat="0" lon="0">
        <time>2021-02-28T09:07:05.174000+00:00</time>
      </trkpt>
      <trkpt lat="0" lon="0">
        <time>2021-02-28T09:07:05.181000+00:00</time>
      </trkpt>
      <trkpt lat="0" lon="0">
        <time>2021-02-28T09:07:05.185000+00:00</time>
      </trkpt>
      <trkpt lat="47.33587" lon="-1.43519">
        <ele>109</ele>
        <time>2021-02-28T09:07:06.154000+00:00</time>
      </trkpt>
      <trkpt lat="0" lon="0">
        <time>2021-02-28T09:07:06.162000+00:00</time>
      </trkpt>
      <trkpt lat="0" lon="0">
        <time>2021-02-28T09:07:06.170000+00:00</time>
      </trkpt>
      <trkpt lat="0" lon="0">
        <time>2021-02-28T09:07:06.173000+00:00</time>
      </trkpt>
      <trkpt lat="47.33589" lon="-1.43525">
        <ele>109</ele>
        <time>2021-02-28T09:07:07.159000+00:00</time>
      </trkpt>
      <trkpt lat="0" lon="0">
        <time>2021-02-28T09:07:07.173000+00:00</time>
      </trkpt>
      <trkpt lat="0" lon="0">
        <time>2021-02-28T09:07:07.180000+00:00</time>
      </trkpt>
      <trkpt lat="0" lon="0">
        <time>2021-02-28T09:07:07.183000+00:00</time>
      </trkpt>
      <trkpt lat="47.33591" lon="-1.43531">
        <ele>109</ele>
        <time>2021-02-28T09:07:08.136000+00:00</time>
      </trkpt>
      <trkpt lat="0" lon="0">
        <time>2021-02-28T09:07:08.143000+00:00</time>
      </trkpt>
      <trkpt lat="0" lon="0">
        <time>2021-02-28T09:07:08.148000+00:00</time>
      </trkpt>
      <trkpt lat="0" lon="0">
        <time>2021-02-28T09:07:08.150000+00:00</time>
      </trkpt>
      <trkpt lat="47.33592" lon="-1.43537">
        <ele>109</ele>
        <time>2021-02-28T09:07:09.186000+00:00</time>
      </trkpt>
      <trkpt lat="0" lon="0">
        <time>2021-02-28T09:07:09.194000+00:00</time>
      </trkpt>
      <trkpt lat="0" lon="0">
        <time>2021-02-28T09:07:09.199000+00:00</time>
      </trkpt>
      <trkpt lat="0" lon="0">
        <time>2021-02-28T09:07:09.202000+00:00</time>
      </trkpt>
      <trkpt lat="47.33594" lon="-1.43544">
        <ele>110</ele>
        <time>2021-02-28T09:07:10.141000+00:00</time>
      </trkpt>
      <trkpt lat="0" lon="0">
        <time>2021-02-28T09:07:10.152000+00:00</time>
      </trkpt>
      <trkpt lat="0" lon="0">
        <time>2021-02-28T09:07:10.158000+00:00</time>
      </trkpt>
      <trkpt lat="0" lon="0">
        <time>2021-02-28T09:07:10.161000+00:00</time>
      </trkpt>
      <trkpt lat="47.33596" lon="-1.4355">
        <ele>110</ele>
        <time>2021-02-28T09:07:11.157000+00:00</time>
      </trkpt>
      <trkpt lat="0" lon="0">
        <time>2021-02-28T09:07:11.163000+00:00</time>
      </trkpt>
      <trkpt lat="0" lon="0">
        <time>2021-02-28T09:07:11.169000+00:00</time>
      </trkpt>
      <trkpt lat="0" lon="0">
        <time>2021-02-28T09:07:11.171000+00:00</time>
      </trkpt>
      <trkpt lat="47.33598" lon="-1.43557">
        <ele>110</ele>
        <time>2021-02-28T09:07:12.165000+00:00</time>
      </trkpt>
      <trkpt lat="0" lon="0">
        <time>2021-02-28T09:07:12.171000+00:00</time>
      </trkpt>
      <trkpt lat="0" lon="0">
        <time>2021-02-28T09:07:12.176000+00:00</time>
      </trkpt>
      <trkpt lat="0" lon="0">
        <time>2021-02-28T09:07:12.179000+00:00</time>
      </trkpt>
      <trkpt lat="47.336" lon="-1.43563">
        <ele>109</ele>
        <time>2021-02-28T09:07:13.174000+00:00</time>
      </trkpt>
      <trkpt lat="0" lon="0">
        <time>2021-02-28T09:07:13.182000+00:00</time>
      </trkpt>
      <trkpt lat="0" lon="0">
        <time>2021-02-28T09:07:13.187000+00:00</time>
      </trkpt>
      <trkpt lat="0" lon="0">
        <time>2021-02-28T09:07:13.190000+00:00</time>
      </trkpt>
      <trkpt lat="47.33602" lon="-1.4357">
        <ele>110</ele>
        <time>2021-02-28T09:07:14.156000+00:00</time>
      </trkpt>
      <trkpt lat="0" lon="0">
        <time>2021-02-28T09:07:14.168000+00:00</time>
      </trkpt>
      <trkpt lat="0" lon="0">
        <time>2021-02-28T09:07:14.173000+00:00</time>
      </trkpt>
      <trkpt lat="0" lon="0">
        <time>2021-02-28T09:07:14.175000+00:00</time>
      </trkpt>
      <trkpt lat="47.33603" lon="-1.43577">
        <ele>110</ele>
        <time>2021-02-28T09:07:15.165000+00:00</time>
      </trkpt>
      <trkpt lat="0" lon="0">
        <time>2021-02-28T09:07:15.170000+00:00</time>
      </trkpt>
      <trkpt lat="0" lon="0">
        <time>2021-02-28T09:07:15.174000+00:00</time>
      </trkpt>
      <trkpt lat="0" lon="0">
        <time>2021-02-28T09:07:15.176000+00:00</time>
      </trkpt>
      <trkpt lat="47.33605" lon="-1.43583">
        <ele>110</ele>
        <time>2021-02-28T09:07:16.135000+00:00</time>
      </trkpt>
      <trkpt lat="0" lon="0">
        <time>2021-02-28T09:07:16.144000+00:00</time>
      </trkpt>
      <trkpt lat="0" lon="0">
        <time>2021-02-28T09:07:16.149000+00:00</time>
      </trkpt>
      <trkpt lat="0" lon="0">
        <time>2021-02-28T09:07:16.151000+00:00</time>
      </trkpt>
      <trkpt lat="47.33607" lon="-1.4359">
        <ele>110</ele>
        <time>2021-02-28T09:07:17.189000+00:00</time>
      </trkpt>
      <trkpt lat="0" lon="0">
        <time>2021-02-28T09:07:17.197000+00:00</time>
      </trkpt>
      <trkpt lat="0" lon="0">
        <time>2021-02-28T09:07:17.203000+00:00</time>
      </trkpt>
      <trkpt lat="0" lon="0">
        <time>2021-02-28T09:07:17.206000+00:00</time>
      </trkpt>
      <trkpt lat="47.33609" lon="-1.43597">
        <ele>110</ele>
        <time>2021-02-28T09:07:18.173000+00:00</time>
      </trkpt>
      <trkpt lat="0" lon="0">
        <time>2021-02-28T09:07:18.180000+00:00</time>
      </trkpt>
      <trkpt lat="0" lon="0">
        <time>2021-02-28T09:07:18.187000+00:00</time>
      </trkpt>
      <trkpt lat="0" lon="0">
        <time>2021-02-28T09:07:18.190000+00:00</time>
      </trkpt>
      <trkpt lat="47.33611" lon="-1.43604">
        <ele>110</ele>
        <time>2021-02-28T09:07:19.162000+00:00</time>
      </trkpt>
      <trkpt lat="0" lon="0">
        <time>2021-02-28T09:07:19.177000+00:00</time>
      </trkpt>
      <trkpt lat="0" lon="0">
        <time>2021-02-28T09:07:19.184000+00:00</time>
      </trkpt>
      <trkpt lat="0" lon="0">
        <time>2021-02-28T09:07:19.186000+00:00</time>
      </trkpt>
      <trkpt lat="47.33612" lon="-1.4361">
        <ele>110</ele>
        <time>2021-02-28T09:07:20.202000+00:00</time>
      </trkpt>
      <trkpt lat="0" lon="0">
        <time>2021-02-28T09:07:20.208000+00:00</time>
      </trkpt>
      <trkpt lat="0" lon="0">
        <time>2021-02-28T09:07:20.213000+00:00</time>
      </trkpt>
      <trkpt lat="0" lon="0">
        <time>2021-02-28T09:07:20.216000+00:00</time>
      </trkpt>
      <trkpt lat="47.33614" lon="-1.43617">
        <ele>110</ele>
        <time>2021-02-28T09:07:21.180000+00:00</time>
      </trkpt>
      <trkpt lat="0" lon="0">
        <time>2021-02-28T09:07:21.186000+00:00</time>
      </trkpt>
      <trkpt lat="0" lon="0">
        <time>2021-02-28T09:07:21.192000+00:00</time>
      </trkpt>
      <trkpt lat="0" lon="0">
        <time>2021-02-28T09:07:21.195000+00:00</time>
      </trkpt>
      <trkpt lat="47.33616" lon="-1.43624">
        <ele>110</ele>
        <time>2021-02-28T09:07:22.175000+00:00</time>
      </trkpt>
      <trkpt lat="0" lon="0">
        <time>2021-02-28T09:07:22.190000+00:00</time>
      </trkpt>
      <trkpt lat="0" lon="0">
        <time>2021-02-28T09:07:22.193000+00:00</time>
      </trkpt>
      <trkpt lat="0" lon="0">
        <time>2021-02-28T09:07:22.195000+00:00</time>
      </trkpt>
      <trkpt lat="47.33618" lon="-1.43631">
        <ele>111</ele>
        <time>2021-02-28T09:07:23.174000+00:00</time>
      </trkpt>
      <trkpt lat="0" lon="0">
        <time>2021-02-28T09:07:23.182000+00:00</time>
      </trkpt>
      <trkpt lat="0" lon="0">
        <time>2021-02-28T09:07:23.188000+00:00</time>
      </trkpt>
      <trkpt lat="0" lon="0">
        <time>2021-02-28T09:07:23.191000+00:00</time>
      </trkpt>
      <trkpt lat="47.3362" lon="-1.43637">
        <ele>111</ele>
        <time>2021-02-28T09:07:24.177000+00:00</time>
      </trkpt>
      <trkpt lat="0" lon="0">
        <time>2021-02-28T09:07:24.183000+00:00</time>
      </trkpt>
      <trkpt lat="0" lon="0">
        <time>2021-02-28T09:07:24.190000+00:00</time>
      </trkpt>
      <trkpt lat="0" lon="0">
        <time>2021-02-28T09:07:24.193000+00:00</time>
      </trkpt>
      <trkpt lat="47.33621" lon="-1.43644">
        <ele>111</ele>
        <time>2021-02-28T09:07:25.170000+00:00</time>
      </trkpt>
      <trkpt lat="0" lon="0">
        <time>2021-02-28T09:07:25.181000+00:00</time>
      </trkpt>
      <trkpt lat="0" lon="0">
        <time>2021-02-28T09:07:25.190000+00:00</time>
      </trkpt>
      <trkpt lat="0" lon="0">
        <time>2021-02-28T09:07:25.193000+00:00</time>
      </trkpt>
      <trkpt lat="47.33623" lon="-1.43651">
        <ele>112</ele>
        <time>2021-02-28T09:07:26.194000+00:00</time>
      </trkpt>
      <trkpt lat="0" lon="0">
        <time>2021-02-28T09:07:26.201000+00:00</time>
      </trkpt>
      <trkpt lat="0" lon="0">
        <time>2021-02-28T09:07:26.207000+00:00</time>
      </trkpt>
      <trkpt lat="0" lon="0">
        <time>2021-02-28T09:07:26.210000+00:00</time>
      </trkpt>
      <trkpt lat="47.33625" lon="-1.43658">
        <ele>112</ele>
        <time>2021-02-28T09:07:27.202000+00:00</time>
      </trkpt>
      <trkpt lat="0" lon="0">
        <time>2021-02-28T09:07:27.206000+00:00</time>
      </trkpt>
      <trkpt lat="0" lon="0">
        <time>2021-02-28T09:07:27.210000+00:00</time>
      </trkpt>
      <trkpt lat="0" lon="0">
        <time>2021-02-28T09:07:27.212000+00:00</time>
      </trkpt>
      <trkpt lat="47.33626" lon="-1.43665">
        <ele>111</ele>
        <time>2021-02-28T09:07:28.174000+00:00</time>
      </trkpt>
      <trkpt lat="0" lon="0">
        <time>2021-02-28T09:07:28.179000+00:00</time>
      </trkpt>
      <trkpt lat="0" lon="0">
        <time>2021-02-28T09:07:28.183000+00:00</time>
      </trkpt>
      <trkpt lat="0" lon="0">
        <time>2021-02-28T09:07:28.186000+00:00</time>
      </trkpt>
      <trkpt lat="47.33628" lon="-1.43672">
        <ele>111</ele>
        <time>2021-02-28T09:07:29.178000+00:00</time>
      </trkpt>
      <trkpt lat="0" lon="0">
        <time>2021-02-28T09:07:29.185000+00:00</time>
      </trkpt>
      <trkpt lat="0" lon="0">
        <time>2021-02-28T09:07:29.189000+00:00</time>
      </trkpt>
      <trkpt lat="0" lon="0">
        <time>2021-02-28T09:07:29.192000+00:00</time>
      </trkpt>
      <trkpt lat="47.33629" lon="-1.43678">
        <ele>111</ele>
        <time>2021-02-28T09:07:30.185000+00:00</time>
      </trkpt>
      <trkpt lat="0" lon="0">
        <time>2021-02-28T09:07:30.201000+00:00</time>
      </trkpt>
      <trkpt lat="0" lon="0">
        <time>2021-02-28T09:07:30.206000+00:00</time>
      </trkpt>
      <trkpt lat="0" lon="0">
        <time>2021-02-28T09:07:30.209000+00:00</time>
      </trkpt>
      <trkpt lat="47.33631" lon="-1.43685">
        <ele>111</ele>
        <time>2021-02-28T09:07:31.176000+00:00</time>
      </trkpt>
      <trkpt lat="0" lon="0">
        <time>2021-02-28T09:07:31.185000+00:00</time>
      </trkpt>
      <trkpt lat="0" lon="0">
        <time>2021-02-28T09:07:31.189000+00:00</time>
      </trkpt>
      <trkpt lat="0" lon="0">
        <time>2021-02-28T09:07:31.192000+00:00</time>
      </trkpt>
      <trkpt lat="47.33633" lon="-1.43692">
        <ele>111</ele>
        <time>2021-02-28T09:07:32.178000+00:00</time>
      </trkpt>
      <trkpt lat="0" lon="0">
        <time>2021-02-28T09:07:32.186000+00:00</time>
      </trkpt>
      <trkpt lat="0" lon="0">
        <time>2021-02-28T09:07:32.191000+00:00</time>
      </trkpt>
      <trkpt lat="0" lon="0">
        <time>2021-02-28T09:07:32.194000+00:00</time>
      </trkpt>
      <trkpt lat="47.33635" lon="-1.43699">
        <ele>112</ele>
        <time>2021-02-28T09:07:33.168000+00:00</time>
      </trkpt>
      <trkpt lat="0" lon="0">
        <time>2021-02-28T09:07:33.174000+00:00</time>
      </trkpt>
      <trkpt lat="0" lon="0">
        <time>2021-02-28T09:07:33.182000+00:00</time>
      </trkpt>
      <trkpt lat="0" lon="0">
        <time>2021-02-28T09:07:33.184000+00:00</time>
      </trkpt>
      <trkpt lat="47.33637" lon="-1.43706">
        <ele>112</ele>
        <time>2021-02-28T09:07:34.134000+00:00</time>
      </trkpt>
      <trkpt lat="0" lon="0">
        <time>2021-02-28T09:07:34.139000+00:00</time>
      </trkpt>
      <trkpt lat="0" lon="0">
        <time>2021-02-28T09:07:34.144000+00:00</time>
      </trkpt>
      <trkpt lat="0" lon="0">
        <time>2021-02-28T09:07:34.146000+00:00</time>
      </trkpt>
      <trkpt lat="47.33638" lon="-1.43713">
        <ele>112</ele>
        <time>2021-02-28T09:07:35.167000+00:00</time>
      </trkpt>
      <trkpt lat="0" lon="0">
        <time>2021-02-28T09:07:35.173000+00:00</time>
      </trkpt>
      <trkpt lat="0" lon="0">
        <time>2021-02-28T09:07:35.179000+00:00</time>
      </trkpt>
      <trkpt lat="0" lon="0">
        <time>2021-02-28T09:07:35.183000+00:00</time>
      </trkpt>
      <trkpt lat="47.3364" lon="-1.4372">
        <ele>112</ele>
        <time>2021-02-28T09:07:36.141000+00:00</time>
      </trkpt>
      <trkpt lat="0" lon="0">
        <time>2021-02-28T09:07:36.152000+00:00</time>
      </trkpt>
      <trkpt lat="0" lon="0">
        <time>2021-02-28T09:07:36.156000+00:00</time>
      </trkpt>
      <trkpt lat="0" lon="0">
        <time>2021-02-28T09:07:36.159000+00:00</time>
      </trkpt>
      <trkpt lat="47.33642" lon="-1.43727">
        <ele>112</ele>
        <time>2021-02-28T09:07:37.145000+00:00</time>
      </trkpt>
      <trkpt lat="0" lon="0">
        <time>2021-02-28T09:07:37.150000+00:00</time>
      </trkpt>
      <trkpt lat="0" lon="0">
        <time>2021-02-28T09:07:37.153000+00:00</time>
      </trkpt>
      <trkpt lat="0" lon="0">
        <time>2021-02-28T09:07:37.156000+00:00</time>
      </trkpt>
      <trkpt lat="47.33644" lon="-1.43735">
        <ele>112</ele>
        <time>2021-02-28T09:07:38.173000+00:00</time>
      </trkpt>
      <trkpt lat="0" lon="0">
        <time>2021-02-28T09:07:38.184000+00:00</time>
      </trkpt>
      <trkpt lat="0" lon="0">
        <time>2021-02-28T09:07:38.194000+00:00</time>
      </trkpt>
      <trkpt lat="0" lon="0">
        <time>2021-02-28T09:07:38.197000+00:00</time>
      </trkpt>
      <trkpt lat="47.33645" lon="-1.43742">
        <ele>112</ele>
        <time>2021-02-28T09:07:39.165000+00:00</time>
      </trkpt>
      <trkpt lat="0" lon="0">
        <time>2021-02-28T09:07:39.175000+00:00</time>
      </trkpt>
      <trkpt lat="0" lon="0">
        <time>2021-02-28T09:07:39.181000+00:00</time>
      </trkpt>
      <trkpt lat="0" lon="0">
        <time>2021-02-28T09:07:39.184000+00:00</time>
      </trkpt>
      <trkpt lat="47.33647" lon="-1.4375">
        <ele>112</ele>
        <time>2021-02-28T09:07:40.172000+00:00</time>
      </trkpt>
      <trkpt lat="0" lon="0">
        <time>2021-02-28T09:07:40.184000+00:00</time>
      </trkpt>
      <trkpt lat="0" lon="0">
        <time>2021-02-28T09:07:40.190000+00:00</time>
      </trkpt>
      <trkpt lat="0" lon="0">
        <time>2021-02-28T09:07:40.194000+00:00</time>
      </trkpt>
      <trkpt lat="47.33649" lon="-1.43758">
        <ele>113</ele>
        <time>2021-02-28T09:07:41.169000+00:00</time>
      </trkpt>
      <trkpt lat="0" lon="0">
        <time>2021-02-28T09:07:41.174000+00:00</time>
      </trkpt>
      <trkpt lat="0" lon="0">
        <time>2021-02-28T09:07:41.181000+00:00</time>
      </trkpt>
      <trkpt lat="0" lon="0">
        <time>2021-02-28T09:07:41.183000+00:00</time>
      </trkpt>
      <trkpt lat="47.3365" lon="-1.43765">
        <ele>113</ele>
        <time>2021-02-28T09:07:42.129000+00:00</time>
      </trkpt>
      <trkpt lat="0" lon="0">
        <time>2021-02-28T09:07:42.142000+00:00</time>
      </trkpt>
      <trkpt lat="0" lon="0">
        <time>2021-02-28T09:07:42.146000+00:00</time>
      </trkpt>
      <trkpt lat="0" lon="0">
        <time>2021-02-28T09:07:42.148000+00:00</time>
      </trkpt>
      <trkpt lat="47.33651" lon="-1.43773">
        <ele>112</ele>
        <time>2021-02-28T09:07:43.195000+00:00</time>
      </trkpt>
      <trkpt lat="0" lon="0">
        <time>2021-02-28T09:07:43.206000+00:00</time>
      </trkpt>
      <trkpt lat="0" lon="0">
        <time>2021-02-28T09:07:43.214000+00:00</time>
      </trkpt>
      <trkpt lat="0" lon="0">
        <time>2021-02-28T09:07:43.218000+00:00</time>
      </trkpt>
      <trkpt lat="47.33652" lon="-1.43781">
        <ele>112</ele>
        <time>2021-02-28T09:07:44.172000+00:00</time>
      </trkpt>
      <trkpt lat="0" lon="0">
        <time>2021-02-28T09:07:44.178000+00:00</time>
      </trkpt>
      <trkpt lat="0" lon="0">
        <time>2021-02-28T09:07:44.185000+00:00</time>
      </trkpt>
      <trkpt lat="0" lon="0">
        <time>2021-02-28T09:07:44.187000+00:00</time>
      </trkpt>
      <trkpt lat="47.33653" lon="-1.43789">
        <ele>112</ele>
        <time>2021-02-28T09:07:45.204000+00:00</time>
      </trkpt>
      <trkpt lat="0" lon="0">
        <time>2021-02-28T09:07:45.217000+00:00</time>
      </trkpt>
      <trkpt lat="0" lon="0">
        <time>2021-02-28T09:07:45.222000+00:00</time>
      </trkpt>
      <trkpt lat="0" lon="0">
        <time>2021-02-28T09:07:45.225000+00:00</time>
      </trkpt>
      <trkpt lat="47.33654" lon="-1.43797">
        <ele>112</ele>
        <time>2021-02-28T09:07:46.182000+00:00</time>
      </trkpt>
      <trkpt lat="0" lon="0">
        <time>2021-02-28T09:07:46.188000+00:00</time>
      </trkpt>
      <trkpt lat="0" lon="0">
        <time>2021-02-28T09:07:46.192000+00:00</time>
      </trkpt>
      <trkpt lat="0" lon="0">
        <time>2021-02-28T09:07:46.195000+00:00</time>
      </trkpt>
      <trkpt lat="47.33655" lon="-1.43806">
        <ele>112</ele>
        <time>2021-02-28T09:07:47.181000+00:00</time>
      </trkpt>
      <trkpt lat="0" lon="0">
        <time>2021-02-28T09:07:47.187000+00:00</time>
      </trkpt>
      <trkpt lat="0" lon="0">
        <time>2021-02-28T09:07:47.196000+00:00</time>
      </trkpt>
      <trkpt lat="0" lon="0">
        <time>2021-02-28T09:07:47.198000+00:00</time>
      </trkpt>
      <trkpt lat="47.33657" lon="-1.43813">
        <ele>113</ele>
        <time>2021-02-28T09:07:48.169000+00:00</time>
      </trkpt>
      <trkpt lat="0" lon="0">
        <time>2021-02-28T09:07:48.182000+00:00</time>
      </trkpt>
      <trkpt lat="0" lon="0">
        <time>2021-02-28T09:07:48.189000+00:00</time>
      </trkpt>
      <trkpt lat="0" lon="0">
        <time>2021-02-28T09:07:48.191000+00:00</time>
      </trkpt>
      <trkpt lat="47.33658" lon="-1.43821">
        <ele>113</ele>
        <time>2021-02-28T09:07:49.199000+00:00</time>
      </trkpt>
      <trkpt lat="0" lon="0">
        <time>2021-02-28T09:07:49.210000+00:00</time>
      </trkpt>
      <trkpt lat="0" lon="0">
        <time>2021-02-28T09:07:49.215000+00:00</time>
      </trkpt>
      <trkpt lat="0" lon="0">
        <time>2021-02-28T09:07:49.217000+00:00</time>
      </trkpt>
      <trkpt lat="47.3366" lon="-1.43828">
        <ele>113</ele>
        <time>2021-02-28T09:07:50.196000+00:00</time>
      </trkpt>
      <trkpt lat="0" lon="0">
        <time>2021-02-28T09:07:50.206000+00:00</time>
      </trkpt>
      <trkpt lat="0" lon="0">
        <time>2021-02-28T09:07:50.212000+00:00</time>
      </trkpt>
      <trkpt lat="0" lon="0">
        <time>2021-02-28T09:07:50.215000+00:00</time>
      </trkpt>
      <trkpt lat="47.33662" lon="-1.43835">
        <ele>112</ele>
        <time>2021-02-28T09:07:51.197000+00:00</time>
      </trkpt>
      <trkpt lat="0" lon="0">
        <time>2021-02-28T09:07:51.205000+00:00</time>
      </trkpt>
      <trkpt lat="0" lon="0">
        <time>2021-02-28T09:07:51.210000+00:00</time>
      </trkpt>
      <trkpt lat="0" lon="0">
        <time>2021-02-28T09:07:51.213000+00:00</time>
      </trkpt>
      <trkpt lat="47.33664" lon="-1.43842">
        <ele>112</ele>
        <time>2021-02-28T09:07:52.188000+00:00</time>
      </trkpt>
      <trkpt lat="0" lon="0">
        <time>2021-02-28T09:07:52.196000+00:00</time>
      </trkpt>
      <trkpt lat="0" lon="0">
        <time>2021-02-28T09:07:52.202000+00:00</time>
      </trkpt>
      <trkpt lat="0" lon="0">
        <time>2021-02-28T09:07:52.205000+00:00</time>
      </trkpt>
      <trkpt lat="47.33666" lon="-1.43848">
        <ele>113</ele>
        <time>2021-02-28T09:07:53.146000+00:00</time>
      </trkpt>
      <trkpt lat="0" lon="0">
        <time>2021-02-28T09:07:53.156000+00:00</time>
      </trkpt>
      <trkpt lat="0" lon="0">
        <time>2021-02-28T09:07:53.161000+00:00</time>
      </trkpt>
      <trkpt lat="0" lon="0">
        <time>2021-02-28T09:07:53.164000+00:00</time>
      </trkpt>
      <trkpt lat="47.33667" lon="-1.43854">
        <ele>113</ele>
        <time>2021-02-28T09:07:54.177000+00:00</time>
      </trkpt>
      <trkpt lat="0" lon="0">
        <time>2021-02-28T09:07:54.180000+00:00</time>
      </trkpt>
      <trkpt lat="0" lon="0">
        <time>2021-02-28T09:07:54.182000+00:00</time>
      </trkpt>
      <trkpt lat="0" lon="0">
        <time>2021-02-28T09:07:54.183000+00:00</time>
      </trkpt>
      <trkpt lat="47.33669" lon="-1.43859">
        <ele>113</ele>
        <time>2021-02-28T09:07:55.199000+00:00</time>
      </trkpt>
      <trkpt lat="0" lon="0">
        <time>2021-02-28T09:07:55.207000+00:00</time>
      </trkpt>
      <trkpt lat="0" lon="0">
        <time>2021-02-28T09:07:55.213000+00:00</time>
      </trkpt>
      <trkpt lat="0" lon="0">
        <time>2021-02-28T09:07:55.216000+00:00</time>
      </trkpt>
      <trkpt lat="47.3367" lon="-1.43863">
        <ele>112</ele>
        <time>2021-02-28T09:07:56.202000+00:00</time>
      </trkpt>
      <trkpt lat="0" lon="0">
        <time>2021-02-28T09:07:56.208000+00:00</time>
      </trkpt>
      <trkpt lat="0" lon="0">
        <time>2021-02-28T09:07:56.212000+00:00</time>
      </trkpt>
      <trkpt lat="0" lon="0">
        <time>2021-02-28T09:07:56.216000+00:00</time>
      </trkpt>
      <trkpt lat="47.3367" lon="-1.43867">
        <ele>112</ele>
        <time>2021-02-28T09:07:57.200000+00:00</time>
      </trkpt>
      <trkpt lat="0" lon="0">
        <time>2021-02-28T09:07:57.210000+00:00</time>
      </trkpt>
      <trkpt lat="0" lon="0">
        <time>2021-02-28T09:07:57.215000+00:00</time>
      </trkpt>
      <trkpt lat="0" lon="0">
        <time>2021-02-28T09:07:57.218000+00:00</time>
      </trkpt>
      <trkpt lat="47.3367" lon="-1.43871">
        <ele>112</ele>
        <time>2021-02-28T09:07:58.214000+00:00</time>
      </trkpt>
      <trkpt lat="0" lon="0">
        <time>2021-02-28T09:07:58.222000+00:00</time>
      </trkpt>
      <trkpt lat="0" lon="0">
        <time>2021-02-28T09:07:58.228000+00:00</time>
      </trkpt>
      <trkpt lat="0" lon="0">
        <time>2021-02-28T09:07:58.231000+00:00</time>
      </trkpt>
      <trkpt lat="47.3367" lon="-1.43874">
        <ele>112</ele>
        <time>2021-02-28T09:07:59.181000+00:00</time>
      </trkpt>
      <trkpt lat="0" lon="0">
        <time>2021-02-28T09:07:59.189000+00:00</time>
      </trkpt>
      <trkpt lat="0" lon="0">
        <time>2021-02-28T09:07:59.191000+00:00</time>
      </trkpt>
      <trkpt lat="0" lon="0">
        <time>2021-02-28T09:07:59.193000+00:00</time>
      </trkpt>
      <trkpt lat="47.3367" lon="-1.43876">
        <ele>112</ele>
        <time>2021-02-28T09:08:00.194000+00:00</time>
      </trkpt>
      <trkpt lat="0" lon="0">
        <time>2021-02-28T09:08:00.202000+00:00</time>
      </trkpt>
      <trkpt lat="0" lon="0">
        <time>2021-02-28T09:08:00.209000+00:00</time>
      </trkpt>
      <trkpt lat="0" lon="0">
        <time>2021-02-28T09:08:00.212000+00:00</time>
      </trkpt>
      <trkpt lat="47.3367" lon="-1.43879">
        <ele>113</ele>
        <time>2021-02-28T09:08:01.165000+00:00</time>
      </trkpt>
      <trkpt lat="0" lon="0">
        <time>2021-02-28T09:08:01.178000+00:00</time>
      </trkpt>
      <trkpt lat="0" lon="0">
        <time>2021-02-28T09:08:01.182000+00:00</time>
      </trkpt>
      <trkpt lat="0" lon="0">
        <time>2021-02-28T09:08:01.186000+00:00</time>
      </trkpt>
      <trkpt lat="47.33669" lon="-1.4388">
        <ele>113</ele>
        <time>2021-02-28T09:08:02.169000+00:00</time>
      </trkpt>
      <trkpt lat="0" lon="0">
        <time>2021-02-28T09:08:02.176000+00:00</time>
      </trkpt>
      <trkpt lat="0" lon="0">
        <time>2021-02-28T09:08:02.182000+00:00</time>
      </trkpt>
      <trkpt lat="0" lon="0">
        <time>2021-02-28T09:08:02.185000+00:00</time>
      </trkpt>
      <trkpt lat="47.33669" lon="-1.43882">
        <ele>113</ele>
        <time>2021-02-28T09:08:03.190000+00:00</time>
      </trkpt>
      <trkpt lat="0" lon="0">
        <time>2021-02-28T09:08:03.202000+00:00</time>
      </trkpt>
      <trkpt lat="0" lon="0">
        <time>2021-02-28T09:08:03.208000+00:00</time>
      </trkpt>
      <trkpt lat="0" lon="0">
        <time>2021-02-28T09:08:03.211000+00:00</time>
      </trkpt>
      <trkpt lat="47.33668" lon="-1.43883">
        <ele>113</ele>
        <time>2021-02-28T09:08:04.188000+00:00</time>
      </trkpt>
      <trkpt lat="0" lon="0">
        <time>2021-02-28T09:08:04.195000+00:00</time>
      </trkpt>
      <trkpt lat="0" lon="0">
        <time>2021-02-28T09:08:04.203000+00:00</time>
      </trkpt>
      <trkpt lat="0" lon="0">
        <time>2021-02-28T09:08:04.206000+00:00</time>
      </trkpt>
      <trkpt lat="47.33668" lon="-1.43883">
        <ele>113</ele>
        <time>2021-02-28T09:08:05.191000+00:00</time>
      </trkpt>
      <trkpt lat="0" lon="0">
        <time>2021-02-28T09:08:05.198000+00:00</time>
      </trkpt>
      <trkpt lat="0" lon="0">
        <time>2021-02-28T09:08:05.203000+00:00</time>
      </trkpt>
      <trkpt lat="0" lon="0">
        <time>2021-02-28T09:08:05.205000+00:00</time>
      </trkpt>
      <trkpt lat="47.33667" lon="-1.43883">
        <ele>114</ele>
        <time>2021-02-28T09:08:06.164000+00:00</time>
      </trkpt>
      <trkpt lat="0" lon="0">
        <time>2021-02-28T09:08:06.172000+00:00</time>
      </trkpt>
      <trkpt lat="0" lon="0">
        <time>2021-02-28T09:08:06.177000+00:00</time>
      </trkpt>
      <trkpt lat="0" lon="0">
        <time>2021-02-28T09:08:06.180000+00:00</time>
      </trkpt>
      <trkpt lat="47.33666" lon="-1.43883">
        <ele>114</ele>
        <time>2021-02-28T09:08:07.150000+00:00</time>
      </trkpt>
      <trkpt lat="0" lon="0">
        <time>2021-02-28T09:08:07.162000+00:00</time>
      </trkpt>
      <trkpt lat="0" lon="0">
        <time>2021-02-28T09:08:07.167000+00:00</time>
      </trkpt>
      <trkpt lat="0" lon="0">
        <time>2021-02-28T09:08:07.170000+00:00</time>
      </trkpt>
      <trkpt lat="47.33666" lon="-1.43882">
        <ele>114</ele>
        <time>2021-02-28T09:08:08.178000+00:00</time>
      </trkpt>
      <trkpt lat="0" lon="0">
        <time>2021-02-28T09:08:08.194000+00:00</time>
      </trkpt>
      <trkpt lat="0" lon="0">
        <time>2021-02-28T09:08:08.201000+00:00</time>
      </trkpt>
      <trkpt lat="0" lon="0">
        <time>2021-02-28T09:08:08.205000+00:00</time>
      </trkpt>
      <trkpt lat="47.33665" lon="-1.43881">
        <ele>114</ele>
        <time>2021-02-28T09:08:09.170000+00:00</time>
      </trkpt>
      <trkpt lat="0" lon="0">
        <time>2021-02-28T09:08:09.176000+00:00</time>
      </trkpt>
      <trkpt lat="0" lon="0">
        <time>2021-02-28T09:08:09.181000+00:00</time>
      </trkpt>
      <trkpt lat="0" lon="0">
        <time>2021-02-28T09:08:09.184000+00:00</time>
      </trkpt>
      <trkpt lat="47.33665" lon="-1.4388">
        <ele>114</ele>
        <time>2021-02-28T09:08:10.159000+00:00</time>
      </trkpt>
      <trkpt lat="0" lon="0">
        <time>2021-02-28T09:08:10.166000+00:00</time>
      </trkpt>
      <trkpt lat="0" lon="0">
        <time>2021-02-28T09:08:10.170000+00:00</time>
      </trkpt>
      <trkpt lat="0" lon="0">
        <time>2021-02-28T09:08:10.172000+00:00</time>
      </trkpt>
      <trkpt lat="47.33665" lon="-1.43879">
        <ele>114</ele>
        <time>2021-02-28T09:08:11.152000+00:00</time>
      </trkpt>
      <trkpt lat="0" lon="0">
        <time>2021-02-28T09:08:11.157000+00:00</time>
      </trkpt>
      <trkpt lat="0" lon="0">
        <time>2021-02-28T09:08:11.162000+00:00</time>
      </trkpt>
      <trkpt lat="0" lon="0">
        <time>2021-02-28T09:08:11.164000+00:00</time>
      </trkpt>
      <trkpt lat="47.33664" lon="-1.43878">
        <ele>114</ele>
        <time>2021-02-28T09:08:12.156000+00:00</time>
      </trkpt>
      <trkpt lat="0" lon="0">
        <time>2021-02-28T09:08:12.165000+00:00</time>
      </trkpt>
      <trkpt lat="0" lon="0">
        <time>2021-02-28T09:08:12.170000+00:00</time>
      </trkpt>
      <trkpt lat="0" lon="0">
        <time>2021-02-28T09:08:12.173000+00:00</time>
      </trkpt>
      <trkpt lat="47.33664" lon="-1.43877">
        <ele>114</ele>
        <time>2021-02-28T09:08:13.147000+00:00</time>
      </trkpt>
      <trkpt lat="0" lon="0">
        <time>2021-02-28T09:08:13.156000+00:00</time>
      </trkpt>
      <trkpt lat="0" lon="0">
        <time>2021-02-28T09:08:13.162000+00:00</time>
      </trkpt>
      <trkpt lat="0" lon="0">
        <time>2021-02-28T09:08:13.173000+00:00</time>
      </trkpt>
      <trkpt lat="47.33666" lon="-1.43847">
        <ele>113</ele>
        <time>2021-02-28T09:08:14.217000+00:00</time>
      </trkpt>
      <trkpt lat="0" lon="0">
        <time>2021-02-28T09:08:14.221000+00:00</time>
      </trkpt>
      <trkpt lat="0" lon="0">
        <time>2021-02-28T09:08:14.225000+00:00</time>
      </trkpt>
      <trkpt lat="0" lon="0">
        <time>2021-02-28T09:08:14.227000+00:00</time>
      </trkpt>
      <trkpt lat="47.33666" lon="-1.43844">
        <ele>113</ele>
        <time>2021-02-28T09:08:15.155000+00:00</time>
      </trkpt>
      <trkpt lat="0" lon="0">
        <time>2021-02-28T09:08:15.157000+00:00</time>
      </trkpt>
      <trkpt lat="0" lon="0">
        <time>2021-02-28T09:08:15.159000+00:00</time>
      </trkpt>
      <trkpt lat="0" lon="0">
        <time>2021-02-28T09:08:15.160000+00:00</time>
      </trkpt>
      <trkpt lat="47.33665" lon="-1.4384">
        <ele>112</ele>
        <time>2021-02-28T09:08:16.158000+00:00</time>
      </trkpt>
      <trkpt lat="0" lon="0">
        <time>2021-02-28T09:08:16.171000+00:00</time>
      </trkpt>
      <trkpt lat="0" lon="0">
        <time>2021-02-28T09:08:16.175000+00:00</time>
      </trkpt>
      <trkpt lat="0" lon="0">
        <time>2021-02-28T09:08:16.177000+00:00</time>
      </trkpt>
      <trkpt lat="47.33663" lon="-1.43836">
        <ele>112</ele>
        <time>2021-02-28T09:08:17.214000+00:00</time>
      </trkpt>
      <trkpt lat="0" lon="0">
        <time>2021-02-28T09:08:17.222000+00:00</time>
      </trkpt>
      <trkpt lat="0" lon="0">
        <time>2021-02-28T09:08:17.226000+00:00</time>
      </trkpt>
      <trkpt lat="0" lon="0">
        <time>2021-02-28T09:08:17.229000+00:00</time>
      </trkpt>
      <trkpt lat="47.33662" lon="-1.43832">
        <ele>112</ele>
        <time>2021-02-28T09:08:18.174000+00:00</time>
      </trkpt>
      <trkpt lat="0" lon="0">
        <time>2021-02-28T09:08:18.176000+00:00</time>
      </trkpt>
      <trkpt lat="0" lon="0">
        <time>2021-02-28T09:08:18.179000+00:00</time>
      </trkpt>
      <trkpt lat="0" lon="0">
        <time>2021-02-28T09:08:18.180000+00:00</time>
      </trkpt>
      <trkpt lat="47.3366" lon="-1.43827">
        <ele>112</ele>
        <time>2021-02-28T09:08:19.187000+00:00</time>
      </trkpt>
      <trkpt lat="0" lon="0">
        <time>2021-02-28T09:08:19.200000+00:00</time>
      </trkpt>
      <trkpt lat="0" lon="0">
        <time>2021-02-28T09:08:19.207000+00:00</time>
      </trkpt>
      <trkpt lat="0" lon="0">
        <time>2021-02-28T09:08:19.209000+00:00</time>
      </trkpt>
      <trkpt lat="47.33658" lon="-1.43823">
        <ele>112</ele>
        <time>2021-02-28T09:08:20.135000+00:00</time>
      </trkpt>
      <trkpt lat="0" lon="0">
        <time>2021-02-28T09:08:20.137000+00:00</time>
      </trkpt>
      <trkpt lat="0" lon="0">
        <time>2021-02-28T09:08:20.139000+00:00</time>
      </trkpt>
      <trkpt lat="0" lon="0">
        <time>2021-02-28T09:08:20.140000+00:00</time>
      </trkpt>
      <trkpt lat="47.33657" lon="-1.43818">
        <ele>112</ele>
        <time>2021-02-28T09:08:21.189000+00:00</time>
      </trkpt>
      <trkpt lat="0" lon="0">
        <time>2021-02-28T09:08:21.200000+00:00</time>
      </trkpt>
      <trkpt lat="0" lon="0">
        <time>2021-02-28T09:08:21.206000+00:00</time>
      </trkpt>
      <trkpt lat="0" lon="0">
        <time>2021-02-28T09:08:21.208000+00:00</time>
      </trkpt>
      <trkpt lat="47.33655" lon="-1.43812">
        <ele>112</ele>
        <time>2021-02-28T09:08:22.221000+00:00</time>
      </trkpt>
      <trkpt lat="0" lon="0">
        <time>2021-02-28T09:08:22.223000+00:00</time>
      </trkpt>
      <trkpt lat="0" lon="0">
        <time>2021-02-28T09:08:22.225000+00:00</time>
      </trkpt>
      <trkpt lat="0" lon="0">
        <time>2021-02-28T09:08:22.227000+00:00</time>
      </trkpt>
      <trkpt lat="47.33653" lon="-1.43807">
        <ele>112</ele>
        <time>2021-02-28T09:08:23.257000+00:00</time>
      </trkpt>
      <trkpt lat="0" lon="0">
        <time>2021-02-28T09:08:23.270000+00:00</time>
      </trkpt>
      <trkpt lat="0" lon="0">
        <time>2021-02-28T09:08:23.276000+00:00</time>
      </trkpt>
      <trkpt lat="0" lon="0">
        <time>2021-02-28T09:08:23.278000+00:00</time>
      </trkpt>
      <trkpt lat="47.33652" lon="-1.43801">
        <ele>113</ele>
        <time>2021-02-28T09:08:24.129000+00:00</time>
      </trkpt>
      <trkpt lat="0" lon="0">
        <time>2021-02-28T09:08:24.131000+00:00</time>
      </trkpt>
      <trkpt lat="0" lon="0">
        <time>2021-02-28T09:08:24.134000+00:00</time>
      </trkpt>
      <trkpt lat="0" lon="0">
        <time>2021-02-28T09:08:24.135000+00:00</time>
      </trkpt>
      <trkpt lat="47.33651" lon="-1.43796">
        <ele>113</ele>
        <time>2021-02-28T09:08:25.204000+00:00</time>
      </trkpt>
      <trkpt lat="0" lon="0">
        <time>2021-02-28T09:08:25.209000+00:00</time>
      </trkpt>
      <trkpt lat="0" lon="0">
        <time>2021-02-28T09:08:25.214000+00:00</time>
      </trkpt>
      <trkpt lat="0" lon="0">
        <time>2021-02-28T09:08:25.217000+00:00</time>
      </trkpt>
      <trkpt lat="47.3365" lon="-1.43789">
        <ele>113</ele>
        <time>2021-02-28T09:08:26.206000+00:00</time>
      </trkpt>
      <trkpt lat="0" lon="0">
        <time>2021-02-28T09:08:26.215000+00:00</time>
      </trkpt>
      <trkpt lat="0" lon="0">
        <time>2021-02-28T09:08:26.220000+00:00</time>
      </trkpt>
      <trkpt lat="0" lon="0">
        <time>2021-02-28T09:08:26.222000+00:00</time>
      </trkpt>
      <trkpt lat="47.33649" lon="-1.43783">
        <ele>114</ele>
        <time>2021-02-28T09:08:27.194000+00:00</time>
      </trkpt>
      <trkpt lat="0" lon="0">
        <time>2021-02-28T09:08:27.203000+00:00</time>
      </trkpt>
      <trkpt lat="0" lon="0">
        <time>2021-02-28T09:08:27.210000+00:00</time>
      </trkpt>
      <trkpt lat="0" lon="0">
        <time>2021-02-28T09:08:27.212000+00:00</time>
      </trkpt>
      <trkpt lat="47.33648" lon="-1.43776">
        <ele>113</ele>
        <time>2021-02-28T09:08:28.206000+00:00</time>
      </trkpt>
      <trkpt lat="0" lon="0">
        <time>2021-02-28T09:08:28.212000+00:00</time>
      </trkpt>
      <trkpt lat="0" lon="0">
        <time>2021-02-28T09:08:28.214000+00:00</time>
      </trkpt>
      <trkpt lat="0" lon="0">
        <time>2021-02-28T09:08:28.215000+00:00</time>
      </trkpt>
      <trkpt lat="47.33647" lon="-1.43769">
        <ele>113</ele>
        <time>2021-02-28T09:08:29.223000+00:00</time>
      </trkpt>
      <trkpt lat="0" lon="0">
        <time>2021-02-28T09:08:29.228000+00:00</time>
      </trkpt>
      <trkpt lat="0" lon="0">
        <time>2021-02-28T09:08:29.233000+00:00</time>
      </trkpt>
      <trkpt lat="0" lon="0">
        <time>2021-02-28T09:08:29.236000+00:00</time>
      </trkpt>
      <trkpt lat="47.33646" lon="-1.43762">
        <ele>113</ele>
        <time>2021-02-28T09:08:30.211000+00:00</time>
      </trkpt>
      <trkpt lat="0" lon="0">
        <time>2021-02-28T09:08:30.217000+00:00</time>
      </trkpt>
      <trkpt lat="0" lon="0">
        <time>2021-02-28T09:08:30.221000+00:00</time>
      </trkpt>
      <trkpt lat="0" lon="0">
        <time>2021-02-28T09:08:30.227000+00:00</time>
      </trkpt>
      <trkpt lat="47.33645" lon="-1.43755">
        <ele>112</ele>
        <time>2021-02-28T09:08:31.236000+00:00</time>
      </trkpt>
      <trkpt lat="0" lon="0">
        <time>2021-02-28T09:08:31.242000+00:00</time>
      </trkpt>
      <trkpt lat="0" lon="0">
        <time>2021-02-28T09:08:31.248000+00:00</time>
      </trkpt>
      <trkpt lat="0" lon="0">
        <time>2021-02-28T09:08:31.251000+00:00</time>
      </trkpt>
      <trkpt lat="47.33644" lon="-1.43747">
        <ele>112</ele>
        <time>2021-02-28T09:08:32.265000+00:00</time>
      </trkpt>
      <trkpt lat="0" lon="0">
        <time>2021-02-28T09:08:32.275000+00:00</time>
      </trkpt>
      <trkpt lat="0" lon="0">
        <time>2021-02-28T09:08:32.280000+00:00</time>
      </trkpt>
      <trkpt lat="0" lon="0">
        <time>2021-02-28T09:08:32.282000+00:00</time>
      </trkpt>
      <trkpt lat="47.33643" lon="-1.4374">
        <ele>111</ele>
        <time>2021-02-28T09:08:33.264000+00:00</time>
      </trkpt>
      <trkpt lat="0" lon="0">
        <time>2021-02-28T09:08:33.269000+00:00</time>
      </trkpt>
      <trkpt lat="0" lon="0">
        <time>2021-02-28T09:08:33.273000+00:00</time>
      </trkpt>
      <trkpt lat="0" lon="0">
        <time>2021-02-28T09:08:33.275000+00:00</time>
      </trkpt>
      <trkpt lat="47.33642" lon="-1.43733">
        <ele>112</ele>
        <time>2021-02-28T09:08:34.219000+00:00</time>
      </trkpt>
      <trkpt lat="0" lon="0">
        <time>2021-02-28T09:08:34.223000+00:00</time>
      </trkpt>
      <trkpt lat="0" lon="0">
        <time>2021-02-28T09:08:34.227000+00:00</time>
      </trkpt>
      <trkpt lat="0" lon="0">
        <time>2021-02-28T09:08:34.230000+00:00</time>
      </trkpt>
      <trkpt lat="47.3364" lon="-1.43725">
        <ele>111</ele>
        <time>2021-02-28T09:08:35.227000+00:00</time>
      </trkpt>
      <trkpt lat="0" lon="0">
        <time>2021-02-28T09:08:35.240000+00:00</time>
      </trkpt>
      <trkpt lat="0" lon="0">
        <time>2021-02-28T09:08:35.245000+00:00</time>
      </trkpt>
      <trkpt lat="0" lon="0">
        <time>2021-02-28T09:08:35.248000+00:00</time>
      </trkpt>
      <trkpt lat="47.33639" lon="-1.43718">
        <ele>111</ele>
        <time>2021-02-28T09:08:36.204000+00:00</time>
      </trkpt>
      <trkpt lat="0" lon="0">
        <time>2021-02-28T09:08:36.211000+00:00</time>
      </trkpt>
      <trkpt lat="0" lon="0">
        <time>2021-02-28T09:08:36.217000+00:00</time>
      </trkpt>
      <trkpt lat="0" lon="0">
        <time>2021-02-28T09:08:36.219000+00:00</time>
      </trkpt>
      <trkpt lat="47.33637" lon="-1.43711">
        <ele>111</ele>
        <time>2021-02-28T09:08:37.234000+00:00</time>
      </trkpt>
      <trkpt lat="0" lon="0">
        <time>2021-02-28T09:08:37.244000+00:00</time>
      </trkpt>
      <trkpt lat="0" lon="0">
        <time>2021-02-28T09:08:37.248000+00:00</time>
      </trkpt>
      <trkpt lat="0" lon="0">
        <time>2021-02-28T09:08:37.251000+00:00</time>
      </trkpt>
      <trkpt lat="47.33636" lon="-1.43704">
        <ele>110</ele>
        <time>2021-02-28T09:08:38.220000+00:00</time>
      </trkpt>
      <trkpt lat="0" lon="0">
        <time>2021-02-28T09:08:38.231000+00:00</time>
      </trkpt>
      <trkpt lat="0" lon="0">
        <time>2021-02-28T09:08:38.236000+00:00</time>
      </trkpt>
      <trkpt lat="0" lon="0">
        <time>2021-02-28T09:08:38.238000+00:00</time>
      </trkpt>
      <trkpt lat="47.33634" lon="-1.43697">
        <ele>110</ele>
        <time>2021-02-28T09:08:39.212000+00:00</time>
      </trkpt>
      <trkpt lat="0" lon="0">
        <time>2021-02-28T09:08:39.218000+00:00</time>
      </trkpt>
      <trkpt lat="0" lon="0">
        <time>2021-02-28T09:08:39.220000+00:00</time>
      </trkpt>
      <trkpt lat="0" lon="0">
        <time>2021-02-28T09:08:39.221000+00:00</time>
      </trkpt>
      <trkpt lat="47.33633" lon="-1.4369">
        <ele>110</ele>
        <time>2021-02-28T09:08:40.254000+00:00</time>
      </trkpt>
      <trkpt lat="0" lon="0">
        <time>2021-02-28T09:08:40.265000+00:00</time>
      </trkpt>
      <trkpt lat="0" lon="0">
        <time>2021-02-28T09:08:40.270000+00:00</time>
      </trkpt>
      <trkpt lat="0" lon="0">
        <time>2021-02-28T09:08:40.272000+00:00</time>
      </trkpt>
      <trkpt lat="47.33631" lon="-1.43683">
        <ele>110</ele>
        <time>2021-02-28T09:08:41.216000+00:00</time>
      </trkpt>
      <trkpt lat="0" lon="0">
        <time>2021-02-28T09:08:41.221000+00:00</time>
      </trkpt>
      <trkpt lat="0" lon="0">
        <time>2021-02-28T09:08:41.226000+00:00</time>
      </trkpt>
      <trkpt lat="0" lon="0">
        <time>2021-02-28T09:08:41.229000+00:00</time>
      </trkpt>
      <trkpt lat="47.3363" lon="-1.43677">
        <ele>110</ele>
        <time>2021-02-28T09:08:42.225000+00:00</time>
      </trkpt>
      <trkpt lat="0" lon="0">
        <time>2021-02-28T09:08:42.231000+00:00</time>
      </trkpt>
      <trkpt lat="0" lon="0">
        <time>2021-02-28T09:08:42.236000+00:00</time>
      </trkpt>
      <trkpt lat="0" lon="0">
        <time>2021-02-28T09:08:42.239000+00:00</time>
      </trkpt>
      <trkpt lat="47.33628" lon="-1.4367">
        <ele>110</ele>
        <time>2021-02-28T09:08:43.232000+00:00</time>
      </trkpt>
      <trkpt lat="0" lon="0">
        <time>2021-02-28T09:08:43.240000+00:00</time>
      </trkpt>
      <trkpt lat="0" lon="0">
        <time>2021-02-28T09:08:43.245000+00:00</time>
      </trkpt>
      <trkpt lat="0" lon="0">
        <time>2021-02-28T09:08:43.248000+00:00</time>
      </trkpt>
      <trkpt lat="47.33626" lon="-1.43663">
        <ele>110</ele>
        <time>2021-02-28T09:08:44.184000+00:00</time>
      </trkpt>
      <trkpt lat="0" lon="0">
        <time>2021-02-28T09:08:44.194000+00:00</time>
      </trkpt>
      <trkpt lat="0" lon="0">
        <time>2021-02-28T09:08:44.199000+00:00</time>
      </trkpt>
      <trkpt lat="0" lon="0">
        <time>2021-02-28T09:08:44.202000+00:00</time>
      </trkpt>
      <trkpt lat="47.33624" lon="-1.43656">
        <ele>110</ele>
        <time>2021-02-28T09:08:45.228000+00:00</time>
      </trkpt>
      <trkpt lat="0" lon="0">
        <time>2021-02-28T09:08:45.239000+00:00</time>
      </trkpt>
      <trkpt lat="0" lon="0">
        <time>2021-02-28T09:08:45.247000+00:00</time>
      </trkpt>
      <trkpt lat="0" lon="0">
        <time>2021-02-28T09:08:45.251000+00:00</time>
      </trkpt>
      <trkpt lat="47.33622" lon="-1.4365">
        <ele>110</ele>
        <time>2021-02-28T09:08:46.200000+00:00</time>
      </trkpt>
      <trkpt lat="0" lon="0">
        <time>2021-02-28T09:08:46.207000+00:00</time>
      </trkpt>
      <trkpt lat="0" lon="0">
        <time>2021-02-28T09:08:46.213000+00:00</time>
      </trkpt>
      <trkpt lat="0" lon="0">
        <time>2021-02-28T09:08:46.215000+00:00</time>
      </trkpt>
      <trkpt lat="47.33621" lon="-1.43643">
        <ele>110</ele>
        <time>2021-02-28T09:08:47.236000+00:00</time>
      </trkpt>
      <trkpt lat="0" lon="0">
        <time>2021-02-28T09:08:47.242000+00:00</time>
      </trkpt>
      <trkpt lat="0" lon="0">
        <time>2021-02-28T09:08:47.246000+00:00</time>
      </trkpt>
      <trkpt lat="0" lon="0">
        <time>2021-02-28T09:08:47.249000+00:00</time>
      </trkpt>
      <trkpt lat="47.33619" lon="-1.43637">
        <ele>110</ele>
        <time>2021-02-28T09:08:48.200000+00:00</time>
      </trkpt>
      <trkpt lat="0" lon="0">
        <time>2021-02-28T09:08:48.210000+00:00</time>
      </trkpt>
      <trkpt lat="0" lon="0">
        <time>2021-02-28T09:08:48.215000+00:00</time>
      </trkpt>
      <trkpt lat="0" lon="0">
        <time>2021-02-28T09:08:48.218000+00:00</time>
      </trkpt>
      <trkpt lat="47.33617" lon="-1.43631">
        <ele>110</ele>
        <time>2021-02-28T09:08:49.212000+00:00</time>
      </trkpt>
      <trkpt lat="0" lon="0">
        <time>2021-02-28T09:08:49.218000+00:00</time>
      </trkpt>
      <trkpt lat="0" lon="0">
        <time>2021-02-28T09:08:49.228000+00:00</time>
      </trkpt>
      <trkpt lat="0" lon="0">
        <time>2021-02-28T09:08:49.234000+00:00</time>
      </trkpt>
      <trkpt lat="47.33615" lon="-1.43624">
        <ele>110</ele>
        <time>2021-02-28T09:08:50.225000+00:00</time>
      </trkpt>
      <trkpt lat="0" lon="0">
        <time>2021-02-28T09:08:50.235000+00:00</time>
      </trkpt>
      <trkpt lat="0" lon="0">
        <time>2021-02-28T09:08:50.240000+00:00</time>
      </trkpt>
      <trkpt lat="0" lon="0">
        <time>2021-02-28T09:08:50.242000+00:00</time>
      </trkpt>
      <trkpt lat="47.33613" lon="-1.43618">
        <ele>110</ele>
        <time>2021-02-28T09:08:51.203000+00:00</time>
      </trkpt>
      <trkpt lat="0" lon="0">
        <time>2021-02-28T09:08:51.210000+00:00</time>
      </trkpt>
      <trkpt lat="0" lon="0">
        <time>2021-02-28T09:08:51.215000+00:00</time>
      </trkpt>
      <trkpt lat="0" lon="0">
        <time>2021-02-28T09:08:51.217000+00:00</time>
      </trkpt>
      <trkpt lat="47.33611" lon="-1.43611">
        <ele>110</ele>
        <time>2021-02-28T09:08:52.219000+00:00</time>
      </trkpt>
      <trkpt lat="0" lon="0">
        <time>2021-02-28T09:08:52.228000+00:00</time>
      </trkpt>
      <trkpt lat="0" lon="0">
        <time>2021-02-28T09:08:52.233000+00:00</time>
      </trkpt>
      <trkpt lat="0" lon="0">
        <time>2021-02-28T09:08:52.235000+00:00</time>
      </trkpt>
      <trkpt lat="47.33609" lon="-1.43605">
        <ele>110</ele>
        <time>2021-02-28T09:08:53.259000+00:00</time>
      </trkpt>
      <trkpt lat="0" lon="0">
        <time>2021-02-28T09:08:53.267000+00:00</time>
      </trkpt>
      <trkpt lat="0" lon="0">
        <time>2021-02-28T09:08:53.271000+00:00</time>
      </trkpt>
      <trkpt lat="0" lon="0">
        <time>2021-02-28T09:08:53.274000+00:00</time>
      </trkpt>
      <trkpt lat="47.33607" lon="-1.43598">
        <ele>110</ele>
        <time>2021-02-28T09:08:54.213000+00:00</time>
      </trkpt>
      <trkpt lat="0" lon="0">
        <time>2021-02-28T09:08:54.222000+00:00</time>
      </trkpt>
      <trkpt lat="0" lon="0">
        <time>2021-02-28T09:08:54.226000+00:00</time>
      </trkpt>
      <trkpt lat="0" lon="0">
        <time>2021-02-28T09:08:54.228000+00:00</time>
      </trkpt>
      <trkpt lat="47.33605" lon="-1.43591">
        <ele>110</ele>
        <time>2021-02-28T09:08:55.221000+00:00</time>
      </trkpt>
      <trkpt lat="0" lon="0">
        <time>2021-02-28T09:08:55.233000+00:00</time>
      </trkpt>
      <trkpt lat="0" lon="0">
        <time>2021-02-28T09:08:55.238000+00:00</time>
      </trkpt>
      <trkpt lat="0" lon="0">
        <time>2021-02-28T09:08:55.241000+00:00</time>
      </trkpt>
      <trkpt lat="47.33603" lon="-1.43583">
        <ele>109</ele>
        <time>2021-02-28T09:08:56.175000+00:00</time>
      </trkpt>
      <trkpt lat="0" lon="0">
        <time>2021-02-28T09:08:56.183000+00:00</time>
      </trkpt>
      <trkpt lat="0" lon="0">
        <time>2021-02-28T09:08:56.185000+00:00</time>
      </trkpt>
      <trkpt lat="0" lon="0">
        <time>2021-02-28T09:08:56.186000+00:00</time>
      </trkpt>
      <trkpt lat="47.33601" lon="-1.43576">
        <ele>109</ele>
        <time>2021-02-28T09:08:57.161000+00:00</time>
      </trkpt>
      <trkpt lat="0" lon="0">
        <time>2021-02-28T09:08:57.173000+00:00</time>
      </trkpt>
      <trkpt lat="0" lon="0">
        <time>2021-02-28T09:08:57.178000+00:00</time>
      </trkpt>
      <trkpt lat="0" lon="0">
        <time>2021-02-28T09:08:57.181000+00:00</time>
      </trkpt>
      <trkpt lat="47.33599" lon="-1.43568">
        <ele>109</ele>
        <time>2021-02-28T09:08:58.226000+00:00</time>
      </trkpt>
      <trkpt lat="0" lon="0">
        <time>2021-02-28T09:08:58.238000+00:00</time>
      </trkpt>
      <trkpt lat="0" lon="0">
        <time>2021-02-28T09:08:58.242000+00:00</time>
      </trkpt>
      <trkpt lat="0" lon="0">
        <time>2021-02-28T09:08:58.249000+00:00</time>
      </trkpt>
      <trkpt lat="47.33597" lon="-1.43561">
        <ele>109</ele>
        <time>2021-02-28T09:08:59.213000+00:00</time>
      </trkpt>
      <trkpt lat="0" lon="0">
        <time>2021-02-28T09:08:59.218000+00:00</time>
      </trkpt>
      <trkpt lat="0" lon="0">
        <time>2021-02-28T09:08:59.224000+00:00</time>
      </trkpt>
      <trkpt lat="0" lon="0">
        <time>2021-02-28T09:08:59.227000+00:00</time>
      </trkpt>
      <trkpt lat="47.33595" lon="-1.43553">
        <ele>109</ele>
        <time>2021-02-28T09:09:00.221000+00:00</time>
      </trkpt>
      <trkpt lat="0" lon="0">
        <time>2021-02-28T09:09:00.229000+00:00</time>
      </trkpt>
      <trkpt lat="0" lon="0">
        <time>2021-02-28T09:09:00.234000+00:00</time>
      </trkpt>
      <trkpt lat="0" lon="0">
        <time>2021-02-28T09:09:00.238000+00:00</time>
      </trkpt>
      <trkpt lat="47.33593" lon="-1.43545">
        <ele>109</ele>
        <time>2021-02-28T09:09:01.196000+00:00</time>
      </trkpt>
      <trkpt lat="0" lon="0">
        <time>2021-02-28T09:09:01.204000+00:00</time>
      </trkpt>
      <trkpt lat="0" lon="0">
        <time>2021-02-28T09:09:01.208000+00:00</time>
      </trkpt>
      <trkpt lat="0" lon="0">
        <time>2021-02-28T09:09:01.210000+00:00</time>
      </trkpt>
      <trkpt lat="47.3359" lon="-1.43538">
        <ele>109</ele>
        <time>2021-02-28T09:09:02.188000+00:00</time>
      </trkpt>
      <trkpt lat="0" lon="0">
        <time>2021-02-28T09:09:02.195000+00:00</time>
      </trkpt>
      <trkpt lat="0" lon="0">
        <time>2021-02-28T09:09:02.201000+00:00</time>
      </trkpt>
      <trkpt lat="0" lon="0">
        <time>2021-02-28T09:09:02.208000+00:00</time>
      </trkpt>
      <trkpt lat="47.33588" lon="-1.4353">
        <ele>109</ele>
        <time>2021-02-28T09:09:03.207000+00:00</time>
      </trkpt>
      <trkpt lat="0" lon="0">
        <time>2021-02-28T09:09:03.214000+00:00</time>
      </trkpt>
      <trkpt lat="0" lon="0">
        <time>2021-02-28T09:09:03.220000+00:00</time>
      </trkpt>
      <trkpt lat="0" lon="0">
        <time>2021-02-28T09:09:03.224000+00:00</time>
      </trkpt>
      <trkpt lat="47.33586" lon="-1.43522">
        <ele>109</ele>
        <time>2021-02-28T09:09:04.181000+00:00</time>
      </trkpt>
      <trkpt lat="0" lon="0">
        <time>2021-02-28T09:09:04.189000+00:00</time>
      </trkpt>
      <trkpt lat="0" lon="0">
        <time>2021-02-28T09:09:04.195000+00:00</time>
      </trkpt>
      <trkpt lat="0" lon="0">
        <time>2021-02-28T09:09:04.197000+00:00</time>
      </trkpt>
      <trkpt lat="47.33584" lon="-1.43514">
        <ele>109</ele>
        <time>2021-02-28T09:09:05.201000+00:00</time>
      </trkpt>
      <trkpt lat="0" lon="0">
        <time>2021-02-28T09:09:05.217000+00:00</time>
      </trkpt>
      <trkpt lat="0" lon="0">
        <time>2021-02-28T09:09:05.223000+00:00</time>
      </trkpt>
      <trkpt lat="0" lon="0">
        <time>2021-02-28T09:09:05.226000+00:00</time>
      </trkpt>
      <trkpt lat="47.33582" lon="-1.43506">
        <ele>109</ele>
        <time>2021-02-28T09:09:06.223000+00:00</time>
      </trkpt>
      <trkpt lat="0" lon="0">
        <time>2021-02-28T09:09:06.231000+00:00</time>
      </trkpt>
      <trkpt lat="0" lon="0">
        <time>2021-02-28T09:09:06.235000+00:00</time>
      </trkpt>
      <trkpt lat="0" lon="0">
        <time>2021-02-28T09:09:06.237000+00:00</time>
      </trkpt>
      <trkpt lat="47.3358" lon="-1.43499">
        <ele>109</ele>
        <time>2021-02-28T09:09:07.225000+00:00</time>
      </trkpt>
      <trkpt lat="0" lon="0">
        <time>2021-02-28T09:09:07.238000+00:00</time>
      </trkpt>
      <trkpt lat="0" lon="0">
        <time>2021-02-28T09:09:07.243000+00:00</time>
      </trkpt>
      <trkpt lat="0" lon="0">
        <time>2021-02-28T09:09:07.246000+00:00</time>
      </trkpt>
      <trkpt lat="47.33578" lon="-1.43491">
        <ele>109</ele>
        <time>2021-02-28T09:09:08.218000+00:00</time>
      </trkpt>
      <trkpt lat="0" lon="0">
        <time>2021-02-28T09:09:08.223000+00:00</time>
      </trkpt>
      <trkpt lat="0" lon="0">
        <time>2021-02-28T09:09:08.230000+00:00</time>
      </trkpt>
      <trkpt lat="0" lon="0">
        <time>2021-02-28T09:09:08.232000+00:00</time>
      </trkpt>
      <trkpt lat="47.33576" lon="-1.43483">
        <ele>109</ele>
        <time>2021-02-28T09:09:09.202000+00:00</time>
      </trkpt>
      <trkpt lat="0" lon="0">
        <time>2021-02-28T09:09:09.210000+00:00</time>
      </trkpt>
      <trkpt lat="0" lon="0">
        <time>2021-02-28T09:09:09.215000+00:00</time>
      </trkpt>
      <trkpt lat="0" lon="0">
        <time>2021-02-28T09:09:09.219000+00:00</time>
      </trkpt>
      <trkpt lat="47.33574" lon="-1.43476">
        <ele>110</ele>
        <time>2021-02-28T09:09:10.181000+00:00</time>
      </trkpt>
      <trkpt lat="0" lon="0">
        <time>2021-02-28T09:09:10.184000+00:00</time>
      </trkpt>
      <trkpt lat="0" lon="0">
        <time>2021-02-28T09:09:10.187000+00:00</time>
      </trkpt>
      <trkpt lat="0" lon="0">
        <time>2021-02-28T09:09:10.188000+00:00</time>
      </trkpt>
      <trkpt lat="47.33571" lon="-1.43468">
        <ele>110</ele>
        <time>2021-02-28T09:09:11.210000+00:00</time>
      </trkpt>
      <trkpt lat="0" lon="0">
        <time>2021-02-28T09:09:11.220000+00:00</time>
      </trkpt>
      <trkpt lat="0" lon="0">
        <time>2021-02-28T09:09:11.225000+00:00</time>
      </trkpt>
      <trkpt lat="0" lon="0">
        <time>2021-02-28T09:09:11.229000+00:00</time>
      </trkpt>
      <trkpt lat="47.33569" lon="-1.4346">
        <ele>110</ele>
        <time>2021-02-28T09:09:12.246000+00:00</time>
      </trkpt>
      <trkpt lat="0" lon="0">
        <time>2021-02-28T09:09:12.257000+00:00</time>
      </trkpt>
      <trkpt lat="0" lon="0">
        <time>2021-02-28T09:09:12.262000+00:00</time>
      </trkpt>
      <trkpt lat="0" lon="0">
        <time>2021-02-28T09:09:12.265000+00:00</time>
      </trkpt>
      <trkpt lat="47.33567" lon="-1.43452">
        <ele>110</ele>
        <time>2021-02-28T09:09:13.190000+00:00</time>
      </trkpt>
      <trkpt lat="0" lon="0">
        <time>2021-02-28T09:09:13.197000+00:00</time>
      </trkpt>
      <trkpt lat="0" lon="0">
        <time>2021-02-28T09:09:13.206000+00:00</time>
      </trkpt>
      <trkpt lat="0" lon="0">
        <time>2021-02-28T09:09:13.208000+00:00</time>
      </trkpt>
      <trkpt lat="47.33565" lon="-1.43444">
        <ele>110</ele>
        <time>2021-02-28T09:09:14.206000+00:00</time>
      </trkpt>
      <trkpt lat="0" lon="0">
        <time>2021-02-28T09:09:14.221000+00:00</time>
      </trkpt>
      <trkpt lat="0" lon="0">
        <time>2021-02-28T09:09:14.227000+00:00</time>
      </trkpt>
      <trkpt lat="0" lon="0">
        <time>2021-02-28T09:09:14.230000+00:00</time>
      </trkpt>
      <trkpt lat="47.33563" lon="-1.43436">
        <ele>110</ele>
        <time>2021-02-28T09:09:15.219000+00:00</time>
      </trkpt>
      <trkpt lat="0" lon="0">
        <time>2021-02-28T09:09:15.228000+00:00</time>
      </trkpt>
      <trkpt lat="0" lon="0">
        <time>2021-02-28T09:09:15.236000+00:00</time>
      </trkpt>
      <trkpt lat="0" lon="0">
        <time>2021-02-28T09:09:15.243000+00:00</time>
      </trkpt>
      <trkpt lat="47.33561" lon="-1.43428">
        <ele>109</ele>
        <time>2021-02-28T09:09:16.196000+00:00</time>
      </trkpt>
      <trkpt lat="0" lon="0">
        <time>2021-02-28T09:09:16.201000+00:00</time>
      </trkpt>
      <trkpt lat="0" lon="0">
        <time>2021-02-28T09:09:16.206000+00:00</time>
      </trkpt>
      <trkpt lat="0" lon="0">
        <time>2021-02-28T09:09:16.208000+00:00</time>
      </trkpt>
      <trkpt lat="47.33559" lon="-1.4342">
        <ele>109</ele>
        <time>2021-02-28T09:09:17.216000+00:00</time>
      </trkpt>
      <trkpt lat="0" lon="0">
        <time>2021-02-28T09:09:17.225000+00:00</time>
      </trkpt>
      <trkpt lat="0" lon="0">
        <time>2021-02-28T09:09:17.229000+00:00</time>
      </trkpt>
      <trkpt lat="0" lon="0">
        <time>2021-02-28T09:09:17.233000+00:00</time>
      </trkpt>
      <trkpt lat="47.33556" lon="-1.43413">
        <ele>109</ele>
        <time>2021-02-28T09:09:18.178000+00:00</time>
      </trkpt>
      <trkpt lat="0" lon="0">
        <time>2021-02-28T09:09:18.191000+00:00</time>
      </trkpt>
      <trkpt lat="0" lon="0">
        <time>2021-02-28T09:09:18.198000+00:00</time>
      </trkpt>
      <trkpt lat="0" lon="0">
        <time>2021-02-28T09:09:18.203000+00:00</time>
      </trkpt>
      <trkpt lat="47.33554" lon="-1.43405">
        <ele>109</ele>
        <time>2021-02-28T09:09:19.191000+00:00</time>
      </trkpt>
      <trkpt lat="0" lon="0">
        <time>2021-02-28T09:09:19.200000+00:00</time>
      </trkpt>
      <trkpt lat="0" lon="0">
        <time>2021-02-28T09:09:19.204000+00:00</time>
      </trkpt>
      <trkpt lat="0" lon="0">
        <time>2021-02-28T09:09:19.207000+00:00</time>
      </trkpt>
      <trkpt lat="47.33552" lon="-1.43397">
        <ele>109</ele>
        <time>2021-02-28T09:09:20.222000+00:00</time>
      </trkpt>
      <trkpt lat="0" lon="0">
        <time>2021-02-28T09:09:20.232000+00:00</time>
      </trkpt>
      <trkpt lat="0" lon="0">
        <time>2021-02-28T09:09:20.239000+00:00</time>
      </trkpt>
      <trkpt lat="0" lon="0">
        <time>2021-02-28T09:09:20.242000+00:00</time>
      </trkpt>
      <trkpt lat="47.3355" lon="-1.4339">
        <ele>109</ele>
        <time>2021-02-28T09:09:21.230000+00:00</time>
      </trkpt>
      <trkpt lat="0" lon="0">
        <time>2021-02-28T09:09:21.240000+00:00</time>
      </trkpt>
      <trkpt lat="0" lon="0">
        <time>2021-02-28T09:09:21.249000+00:00</time>
      </trkpt>
      <trkpt lat="0" lon="0">
        <time>2021-02-28T09:09:21.252000+00:00</time>
      </trkpt>
      <trkpt lat="47.33548" lon="-1.43382">
        <ele>109</ele>
        <time>2021-02-28T09:09:22.218000+00:00</time>
      </trkpt>
      <trkpt lat="0" lon="0">
        <time>2021-02-28T09:09:22.235000+00:00</time>
      </trkpt>
      <trkpt lat="0" lon="0">
        <time>2021-02-28T09:09:22.238000+00:00</time>
      </trkpt>
      <trkpt lat="0" lon="0">
        <time>2021-02-28T09:09:22.240000+00:00</time>
      </trkpt>
      <trkpt lat="47.33546" lon="-1.43374">
        <ele>109</ele>
        <time>2021-02-28T09:09:23.217000+00:00</time>
      </trkpt>
      <trkpt lat="0" lon="0">
        <time>2021-02-28T09:09:23.221000+00:00</time>
      </trkpt>
      <trkpt lat="0" lon="0">
        <time>2021-02-28T09:09:23.229000+00:00</time>
      </trkpt>
      <trkpt lat="0" lon="0">
        <time>2021-02-28T09:09:23.232000+00:00</time>
      </trkpt>
      <trkpt lat="47.33543" lon="-1.43367">
        <ele>109</ele>
        <time>2021-02-28T09:09:24.211000+00:00</time>
      </trkpt>
      <trkpt lat="0" lon="0">
        <time>2021-02-28T09:09:24.218000+00:00</time>
      </trkpt>
      <trkpt lat="0" lon="0">
        <time>2021-02-28T09:09:24.223000+00:00</time>
      </trkpt>
      <trkpt lat="0" lon="0">
        <time>2021-02-28T09:09:24.226000+00:00</time>
      </trkpt>
      <trkpt lat="47.33541" lon="-1.43359">
        <ele>109</ele>
        <time>2021-02-28T09:09:25.231000+00:00</time>
      </trkpt>
      <trkpt lat="0" lon="0">
        <time>2021-02-28T09:09:25.239000+00:00</time>
      </trkpt>
      <trkpt lat="0" lon="0">
        <time>2021-02-28T09:09:25.246000+00:00</time>
      </trkpt>
      <trkpt lat="0" lon="0">
        <time>2021-02-28T09:09:25.249000+00:00</time>
      </trkpt>
      <trkpt lat="47.33539" lon="-1.43351">
        <ele>109</ele>
        <time>2021-02-28T09:09:26.251000+00:00</time>
      </trkpt>
      <trkpt lat="0" lon="0">
        <time>2021-02-28T09:09:26.265000+00:00</time>
      </trkpt>
      <trkpt lat="0" lon="0">
        <time>2021-02-28T09:09:26.271000+00:00</time>
      </trkpt>
      <trkpt lat="0" lon="0">
        <time>2021-02-28T09:09:26.275000+00:00</time>
      </trkpt>
      <trkpt lat="47.33537" lon="-1.43344">
        <ele>109</ele>
        <time>2021-02-28T09:09:27.231000+00:00</time>
      </trkpt>
      <trkpt lat="0" lon="0">
        <time>2021-02-28T09:09:27.244000+00:00</time>
      </trkpt>
      <trkpt lat="0" lon="0">
        <time>2021-02-28T09:09:27.251000+00:00</time>
      </trkpt>
      <trkpt lat="0" lon="0">
        <time>2021-02-28T09:09:27.255000+00:00</time>
      </trkpt>
      <trkpt lat="47.33535" lon="-1.43336">
        <ele>109</ele>
        <time>2021-02-28T09:09:28.178000+00:00</time>
      </trkpt>
      <trkpt lat="0" lon="0">
        <time>2021-02-28T09:09:28.190000+00:00</time>
      </trkpt>
      <trkpt lat="0" lon="0">
        <time>2021-02-28T09:09:28.195000+00:00</time>
      </trkpt>
      <trkpt lat="0" lon="0">
        <time>2021-02-28T09:09:28.197000+00:00</time>
      </trkpt>
      <trkpt lat="47.33533" lon="-1.43328">
        <ele>109</ele>
        <time>2021-02-28T09:09:29.211000+00:00</time>
      </trkpt>
      <trkpt lat="0" lon="0">
        <time>2021-02-28T09:09:29.221000+00:00</time>
      </trkpt>
      <trkpt lat="0" lon="0">
        <time>2021-02-28T09:09:29.225000+00:00</time>
      </trkpt>
      <trkpt lat="0" lon="0">
        <time>2021-02-28T09:09:29.227000+00:00</time>
      </trkpt>
      <trkpt lat="47.33531" lon="-1.43321">
        <ele>109</ele>
        <time>2021-02-28T09:09:30.214000+00:00</time>
      </trkpt>
      <trkpt lat="0" lon="0">
        <time>2021-02-28T09:09:30.217000+00:00</time>
      </trkpt>
      <trkpt lat="0" lon="0">
        <time>2021-02-28T09:09:30.220000+00:00</time>
      </trkpt>
      <trkpt lat="0" lon="0">
        <time>2021-02-28T09:09:30.223000+00:00</time>
      </trkpt>
      <trkpt lat="47.33528" lon="-1.43313">
        <ele>109</ele>
        <time>2021-02-28T09:09:31.191000+00:00</time>
      </trkpt>
      <trkpt lat="0" lon="0">
        <time>2021-02-28T09:09:31.201000+00:00</time>
      </trkpt>
      <trkpt lat="0" lon="0">
        <time>2021-02-28T09:09:31.207000+00:00</time>
      </trkpt>
      <trkpt lat="0" lon="0">
        <time>2021-02-28T09:09:31.210000+00:00</time>
      </trkpt>
      <trkpt lat="47.33527" lon="-1.43306">
        <ele>109</ele>
        <time>2021-02-28T09:09:32.217000+00:00</time>
      </trkpt>
      <trkpt lat="0" lon="0">
        <time>2021-02-28T09:09:32.225000+00:00</time>
      </trkpt>
      <trkpt lat="0" lon="0">
        <time>2021-02-28T09:09:32.233000+00:00</time>
      </trkpt>
      <trkpt lat="0" lon="0">
        <time>2021-02-28T09:09:32.237000+00:00</time>
      </trkpt>
      <trkpt lat="47.33525" lon="-1.43298">
        <ele>109</ele>
        <time>2021-02-28T09:09:33.160000+00:00</time>
      </trkpt>
      <trkpt lat="0" lon="0">
        <time>2021-02-28T09:09:33.164000+00:00</time>
      </trkpt>
      <trkpt lat="0" lon="0">
        <time>2021-02-28T09:09:33.169000+00:00</time>
      </trkpt>
      <trkpt lat="0" lon="0">
        <time>2021-02-28T09:09:33.176000+00:00</time>
      </trkpt>
      <trkpt lat="47.33524" lon="-1.4329">
        <ele>108</ele>
        <time>2021-02-28T09:09:34.240000+00:00</time>
      </trkpt>
      <trkpt lat="0" lon="0">
        <time>2021-02-28T09:09:34.246000+00:00</time>
      </trkpt>
      <trkpt lat="0" lon="0">
        <time>2021-02-28T09:09:34.251000+00:00</time>
      </trkpt>
      <trkpt lat="0" lon="0">
        <time>2021-02-28T09:09:34.254000+00:00</time>
      </trkpt>
      <trkpt lat="47.33522" lon="-1.43283">
        <ele>108</ele>
        <time>2021-02-28T09:09:35.203000+00:00</time>
      </trkpt>
      <trkpt lat="0" lon="0">
        <time>2021-02-28T09:09:35.209000+00:00</time>
      </trkpt>
      <trkpt lat="0" lon="0">
        <time>2021-02-28T09:09:35.215000+00:00</time>
      </trkpt>
      <trkpt lat="0" lon="0">
        <time>2021-02-28T09:09:35.218000+00:00</time>
      </trkpt>
      <trkpt lat="47.33521" lon="-1.43275">
        <ele>108</ele>
        <time>2021-02-28T09:09:36.191000+00:00</time>
      </trkpt>
      <trkpt lat="0" lon="0">
        <time>2021-02-28T09:09:36.196000+00:00</time>
      </trkpt>
      <trkpt lat="0" lon="0">
        <time>2021-02-28T09:09:36.198000+00:00</time>
      </trkpt>
      <trkpt lat="0" lon="0">
        <time>2021-02-28T09:09:36.199000+00:00</time>
      </trkpt>
      <trkpt lat="47.3352" lon="-1.43268">
        <ele>109</ele>
        <time>2021-02-28T09:09:37.203000+00:00</time>
      </trkpt>
      <trkpt lat="0" lon="0">
        <time>2021-02-28T09:09:37.212000+00:00</time>
      </trkpt>
      <trkpt lat="0" lon="0">
        <time>2021-02-28T09:09:37.219000+00:00</time>
      </trkpt>
      <trkpt lat="0" lon="0">
        <time>2021-02-28T09:09:37.222000+00:00</time>
      </trkpt>
      <trkpt lat="47.33519" lon="-1.43262">
        <ele>109</ele>
        <time>2021-02-28T09:09:38.221000+00:00</time>
      </trkpt>
      <trkpt lat="0" lon="0">
        <time>2021-02-28T09:09:38.227000+00:00</time>
      </trkpt>
      <trkpt lat="0" lon="0">
        <time>2021-02-28T09:09:38.232000+00:00</time>
      </trkpt>
      <trkpt lat="0" lon="0">
        <time>2021-02-28T09:09:38.234000+00:00</time>
      </trkpt>
      <trkpt lat="47.33519" lon="-1.43255">
        <ele>109</ele>
        <time>2021-02-28T09:09:39.195000+00:00</time>
      </trkpt>
      <trkpt lat="0" lon="0">
        <time>2021-02-28T09:09:39.205000+00:00</time>
      </trkpt>
      <trkpt lat="0" lon="0">
        <time>2021-02-28T09:09:39.213000+00:00</time>
      </trkpt>
      <trkpt lat="0" lon="0">
        <time>2021-02-28T09:09:39.215000+00:00</time>
      </trkpt>
      <trkpt lat="47.33518" lon="-1.43249">
        <ele>109</ele>
        <time>2021-02-28T09:09:40.215000+00:00</time>
      </trkpt>
      <trkpt lat="0" lon="0">
        <time>2021-02-28T09:09:40.220000+00:00</time>
      </trkpt>
      <trkpt lat="0" lon="0">
        <time>2021-02-28T09:09:40.224000+00:00</time>
      </trkpt>
      <trkpt lat="0" lon="0">
        <time>2021-02-28T09:09:40.226000+00:00</time>
      </trkpt>
      <trkpt lat="47.33516" lon="-1.43244">
        <ele>109</ele>
        <time>2021-02-28T09:09:41.232000+00:00</time>
      </trkpt>
      <trkpt lat="0" lon="0">
        <time>2021-02-28T09:09:41.240000+00:00</time>
      </trkpt>
      <trkpt lat="0" lon="0">
        <time>2021-02-28T09:09:41.243000+00:00</time>
      </trkpt>
      <trkpt lat="0" lon="0">
        <time>2021-02-28T09:09:41.245000+00:00</time>
      </trkpt>
      <trkpt lat="47.33515" lon="-1.4324">
        <ele>109</ele>
        <time>2021-02-28T09:09:42.241000+00:00</time>
      </trkpt>
      <trkpt lat="0" lon="0">
        <time>2021-02-28T09:09:42.248000+00:00</time>
      </trkpt>
      <trkpt lat="0" lon="0">
        <time>2021-02-28T09:09:42.252000+00:00</time>
      </trkpt>
      <trkpt lat="0" lon="0">
        <time>2021-02-28T09:09:42.260000+00:00</time>
      </trkpt>
      <trkpt lat="47.33513" lon="-1.43237">
        <ele>110</ele>
        <time>2021-02-28T09:09:43.165000+00:00</time>
      </trkpt>
      <trkpt lat="0" lon="0">
        <time>2021-02-28T09:09:43.174000+00:00</time>
      </trkpt>
      <trkpt lat="0" lon="0">
        <time>2021-02-28T09:09:43.177000+00:00</time>
      </trkpt>
      <trkpt lat="0" lon="0">
        <time>2021-02-28T09:09:43.179000+00:00</time>
      </trkpt>
      <trkpt lat="47.33511" lon="-1.43236">
        <ele>110</ele>
        <time>2021-02-28T09:09:44.220000+00:00</time>
      </trkpt>
      <trkpt lat="0" lon="0">
        <time>2021-02-28T09:09:44.226000+00:00</time>
      </trkpt>
      <trkpt lat="0" lon="0">
        <time>2021-02-28T09:09:44.232000+00:00</time>
      </trkpt>
      <trkpt lat="0" lon="0">
        <time>2021-02-28T09:09:44.235000+00:00</time>
      </trkpt>
      <trkpt lat="47.33508" lon="-1.43236">
        <ele>110</ele>
        <time>2021-02-28T09:09:45.191000+00:00</time>
      </trkpt>
      <trkpt lat="0" lon="0">
        <time>2021-02-28T09:09:45.200000+00:00</time>
      </trkpt>
      <trkpt lat="0" lon="0">
        <time>2021-02-28T09:09:45.206000+00:00</time>
      </trkpt>
      <trkpt lat="0" lon="0">
        <time>2021-02-28T09:09:45.209000+00:00</time>
      </trkpt>
      <trkpt lat="47.33506" lon="-1.43238">
        <ele>110</ele>
        <time>2021-02-28T09:09:46.175000+00:00</time>
      </trkpt>
      <trkpt lat="0" lon="0">
        <time>2021-02-28T09:09:46.179000+00:00</time>
      </trkpt>
      <trkpt lat="0" lon="0">
        <time>2021-02-28T09:09:46.185000+00:00</time>
      </trkpt>
      <trkpt lat="0" lon="0">
        <time>2021-02-28T09:09:46.189000+00:00</time>
      </trkpt>
      <trkpt lat="47.33503" lon="-1.43241">
        <ele>110</ele>
        <time>2021-02-28T09:09:47.205000+00:00</time>
      </trkpt>
      <trkpt lat="0" lon="0">
        <time>2021-02-28T09:09:47.213000+00:00</time>
      </trkpt>
      <trkpt lat="0" lon="0">
        <time>2021-02-28T09:09:47.219000+00:00</time>
      </trkpt>
      <trkpt lat="0" lon="0">
        <time>2021-02-28T09:09:47.223000+00:00</time>
      </trkpt>
      <trkpt lat="47.335" lon="-1.43244">
        <ele>110</ele>
        <time>2021-02-28T09:09:48.187000+00:00</time>
      </trkpt>
      <trkpt lat="0" lon="0">
        <time>2021-02-28T09:09:48.195000+00:00</time>
      </trkpt>
      <trkpt lat="0" lon="0">
        <time>2021-02-28T09:09:48.202000+00:00</time>
      </trkpt>
      <trkpt lat="0" lon="0">
        <time>2021-02-28T09:09:48.204000+00:00</time>
      </trkpt>
      <trkpt lat="47.33497" lon="-1.43248">
        <ele>111</ele>
        <time>2021-02-28T09:09:49.239000+00:00</time>
      </trkpt>
      <trkpt lat="0" lon="0">
        <time>2021-02-28T09:09:49.251000+00:00</time>
      </trkpt>
      <trkpt lat="0" lon="0">
        <time>2021-02-28T09:09:49.256000+00:00</time>
      </trkpt>
      <trkpt lat="0" lon="0">
        <time>2021-02-28T09:09:49.258000+00:00</time>
      </trkpt>
      <trkpt lat="47.33494" lon="-1.43253">
        <ele>111</ele>
        <time>2021-02-28T09:09:50.197000+00:00</time>
      </trkpt>
      <trkpt lat="0" lon="0">
        <time>2021-02-28T09:09:50.202000+00:00</time>
      </trkpt>
      <trkpt lat="0" lon="0">
        <time>2021-02-28T09:09:50.206000+00:00</time>
      </trkpt>
      <trkpt lat="0" lon="0">
        <time>2021-02-28T09:09:50.209000+00:00</time>
      </trkpt>
      <trkpt lat="47.33491" lon="-1.43257">
        <ele>111</ele>
        <time>2021-02-28T09:09:51.223000+00:00</time>
      </trkpt>
      <trkpt lat="0" lon="0">
        <time>2021-02-28T09:09:51.230000+00:00</time>
      </trkpt>
      <trkpt lat="0" lon="0">
        <time>2021-02-28T09:09:51.234000+00:00</time>
      </trkpt>
      <trkpt lat="0" lon="0">
        <time>2021-02-28T09:09:51.237000+00:00</time>
      </trkpt>
      <trkpt lat="47.33488" lon="-1.43261">
        <ele>112</ele>
        <time>2021-02-28T09:09:52.215000+00:00</time>
      </trkpt>
      <trkpt lat="0" lon="0">
        <time>2021-02-28T09:09:52.222000+00:00</time>
      </trkpt>
      <trkpt lat="0" lon="0">
        <time>2021-02-28T09:09:52.226000+00:00</time>
      </trkpt>
      <trkpt lat="0" lon="0">
        <time>2021-02-28T09:09:52.229000+00:00</time>
      </trkpt>
      <trkpt lat="47.33485" lon="-1.43265">
        <ele>112</ele>
        <time>2021-02-28T09:09:53.265000+00:00</time>
      </trkpt>
      <trkpt lat="0" lon="0">
        <time>2021-02-28T09:09:53.267000+00:00</time>
      </trkpt>
      <trkpt lat="0" lon="0">
        <time>2021-02-28T09:09:53.269000+00:00</time>
      </trkpt>
      <trkpt lat="0" lon="0">
        <time>2021-02-28T09:09:53.270000+00:00</time>
      </trkpt>
      <trkpt lat="47.33482" lon="-1.43269">
        <ele>112</ele>
        <time>2021-02-28T09:09:54.218000+00:00</time>
      </trkpt>
      <trkpt lat="0" lon="0">
        <time>2021-02-28T09:09:54.227000+00:00</time>
      </trkpt>
      <trkpt lat="0" lon="0">
        <time>2021-02-28T09:09:54.232000+00:00</time>
      </trkpt>
      <trkpt lat="0" lon="0">
        <time>2021-02-28T09:09:54.234000+00:00</time>
      </trkpt>
      <trkpt lat="47.33478" lon="-1.43273">
        <ele>112</ele>
        <time>2021-02-28T09:09:55.220000+00:00</time>
      </trkpt>
      <trkpt lat="0" lon="0">
        <time>2021-02-28T09:09:55.229000+00:00</time>
      </trkpt>
      <trkpt lat="0" lon="0">
        <time>2021-02-28T09:09:55.234000+00:00</time>
      </trkpt>
      <trkpt lat="0" lon="0">
        <time>2021-02-28T09:09:55.237000+00:00</time>
      </trkpt>
      <trkpt lat="47.33474" lon="-1.43277">
        <ele>112</ele>
        <time>2021-02-28T09:09:56.191000+00:00</time>
      </trkpt>
      <trkpt lat="0" lon="0">
        <time>2021-02-28T09:09:56.202000+00:00</time>
      </trkpt>
      <trkpt lat="0" lon="0">
        <time>2021-02-28T09:09:56.207000+00:00</time>
      </trkpt>
      <trkpt lat="0" lon="0">
        <time>2021-02-28T09:09:56.210000+00:00</time>
      </trkpt>
      <trkpt lat="47.3347" lon="-1.4328">
        <ele>112</ele>
        <time>2021-02-28T09:09:57.186000+00:00</time>
      </trkpt>
      <trkpt lat="0" lon="0">
        <time>2021-02-28T09:09:57.194000+00:00</time>
      </trkpt>
      <trkpt lat="0" lon="0">
        <time>2021-02-28T09:09:57.199000+00:00</time>
      </trkpt>
      <trkpt lat="0" lon="0">
        <time>2021-02-28T09:09:57.202000+00:00</time>
      </trkpt>
      <trkpt lat="47.33465" lon="-1.43284">
        <ele>112</ele>
        <time>2021-02-28T09:09:58.196000+00:00</time>
      </trkpt>
      <trkpt lat="0" lon="0">
        <time>2021-02-28T09:09:58.212000+00:00</time>
      </trkpt>
      <trkpt lat="0" lon="0">
        <time>2021-02-28T09:09:58.216000+00:00</time>
      </trkpt>
      <trkpt lat="0" lon="0">
        <time>2021-02-28T09:09:58.219000+00:00</time>
      </trkpt>
      <trkpt lat="47.33461" lon="-1.43287">
        <ele>112</ele>
        <time>2021-02-28T09:09:59.242000+00:00</time>
      </trkpt>
      <trkpt lat="0" lon="0">
        <time>2021-02-28T09:09:59.249000+00:00</time>
      </trkpt>
      <trkpt lat="0" lon="0">
        <time>2021-02-28T09:09:59.254000+00:00</time>
      </trkpt>
      <trkpt lat="0" lon="0">
        <time>2021-02-28T09:09:59.257000+00:00</time>
      </trkpt>
      <trkpt lat="47.33456" lon="-1.4329">
        <ele>112</ele>
        <time>2021-02-28T09:10:00.240000+00:00</time>
      </trkpt>
      <trkpt lat="0" lon="0">
        <time>2021-02-28T09:10:00.248000+00:00</time>
      </trkpt>
      <trkpt lat="0" lon="0">
        <time>2021-02-28T09:10:00.253000+00:00</time>
      </trkpt>
      <trkpt lat="0" lon="0">
        <time>2021-02-28T09:10:00.255000+00:00</time>
      </trkpt>
      <trkpt lat="47.33451" lon="-1.43292">
        <ele>112</ele>
        <time>2021-02-28T09:10:01.228000+00:00</time>
      </trkpt>
      <trkpt lat="0" lon="0">
        <time>2021-02-28T09:10:01.234000+00:00</time>
      </trkpt>
      <trkpt lat="0" lon="0">
        <time>2021-02-28T09:10:01.239000+00:00</time>
      </trkpt>
      <trkpt lat="0" lon="0">
        <time>2021-02-28T09:10:01.242000+00:00</time>
      </trkpt>
      <trkpt lat="47.33446" lon="-1.43292">
        <ele>112</ele>
        <time>2021-02-28T09:10:02.196000+00:00</time>
      </trkpt>
      <trkpt lat="0" lon="0">
        <time>2021-02-28T09:10:02.201000+00:00</time>
      </trkpt>
      <trkpt lat="0" lon="0">
        <time>2021-02-28T09:10:02.206000+00:00</time>
      </trkpt>
      <trkpt lat="0" lon="0">
        <time>2021-02-28T09:10:02.209000+00:00</time>
      </trkpt>
      <trkpt lat="47.33442" lon="-1.43291">
        <ele>112</ele>
        <time>2021-02-28T09:10:03.203000+00:00</time>
      </trkpt>
      <trkpt lat="0" lon="0">
        <time>2021-02-28T09:10:03.212000+00:00</time>
      </trkpt>
      <trkpt lat="0" lon="0">
        <time>2021-02-28T09:10:03.217000+00:00</time>
      </trkpt>
      <trkpt lat="0" lon="0">
        <time>2021-02-28T09:10:03.220000+00:00</time>
      </trkpt>
      <trkpt lat="47.33437" lon="-1.43289">
        <ele>113</ele>
        <time>2021-02-28T09:10:04.150000+00:00</time>
      </trkpt>
      <trkpt lat="0" lon="0">
        <time>2021-02-28T09:10:04.159000+00:00</time>
      </trkpt>
      <trkpt lat="0" lon="0">
        <time>2021-02-28T09:10:04.165000+00:00</time>
      </trkpt>
      <trkpt lat="0" lon="0">
        <time>2021-02-28T09:10:04.168000+00:00</time>
      </trkpt>
      <trkpt lat="47.33433" lon="-1.43286">
        <ele>113</ele>
        <time>2021-02-28T09:10:05.235000+00:00</time>
      </trkpt>
      <trkpt lat="0" lon="0">
        <time>2021-02-28T09:10:05.251000+00:00</time>
      </trkpt>
      <trkpt lat="0" lon="0">
        <time>2021-02-28T09:10:05.264000+00:00</time>
      </trkpt>
      <trkpt lat="0" lon="0">
        <time>2021-02-28T09:10:05.270000+00:00</time>
      </trkpt>
      <trkpt lat="47.33429" lon="-1.43282">
        <ele>113</ele>
        <time>2021-02-28T09:10:06.204000+00:00</time>
      </trkpt>
      <trkpt lat="0" lon="0">
        <time>2021-02-28T09:10:06.214000+00:00</time>
      </trkpt>
      <trkpt lat="0" lon="0">
        <time>2021-02-28T09:10:06.218000+00:00</time>
      </trkpt>
      <trkpt lat="0" lon="0">
        <time>2021-02-28T09:10:06.221000+00:00</time>
      </trkpt>
      <trkpt lat="47.33425" lon="-1.43276">
        <ele>114</ele>
        <time>2021-02-28T09:10:07.214000+00:00</time>
      </trkpt>
      <trkpt lat="0" lon="0">
        <time>2021-02-28T09:10:07.222000+00:00</time>
      </trkpt>
      <trkpt lat="0" lon="0">
        <time>2021-02-28T09:10:07.226000+00:00</time>
      </trkpt>
      <trkpt lat="0" lon="0">
        <time>2021-02-28T09:10:07.229000+00:00</time>
      </trkpt>
      <trkpt lat="47.33422" lon="-1.43271">
        <ele>114</ele>
        <time>2021-02-28T09:10:08.221000+00:00</time>
      </trkpt>
      <trkpt lat="0" lon="0">
        <time>2021-02-28T09:10:08.233000+00:00</time>
      </trkpt>
      <trkpt lat="0" lon="0">
        <time>2021-02-28T09:10:08.240000+00:00</time>
      </trkpt>
      <trkpt lat="0" lon="0">
        <time>2021-02-28T09:10:08.243000+00:00</time>
      </trkpt>
      <trkpt lat="47.33418" lon="-1.43265">
        <ele>113</ele>
        <time>2021-02-28T09:10:09.193000+00:00</time>
      </trkpt>
      <trkpt lat="0" lon="0">
        <time>2021-02-28T09:10:09.203000+00:00</time>
      </trkpt>
      <trkpt lat="0" lon="0">
        <time>2021-02-28T09:10:09.208000+00:00</time>
      </trkpt>
      <trkpt lat="0" lon="0">
        <time>2021-02-28T09:10:09.212000+00:00</time>
      </trkpt>
      <trkpt lat="47.33415" lon="-1.43259">
        <ele>113</ele>
        <time>2021-02-28T09:10:10.179000+00:00</time>
      </trkpt>
      <trkpt lat="0" lon="0">
        <time>2021-02-28T09:10:10.192000+00:00</time>
      </trkpt>
      <trkpt lat="0" lon="0">
        <time>2021-02-28T09:10:10.197000+00:00</time>
      </trkpt>
      <trkpt lat="0" lon="0">
        <time>2021-02-28T09:10:10.200000+00:00</time>
      </trkpt>
      <trkpt lat="47.33412" lon="-1.43253">
        <ele>113</ele>
        <time>2021-02-28T09:10:11.161000+00:00</time>
      </trkpt>
      <trkpt lat="0" lon="0">
        <time>2021-02-28T09:10:11.172000+00:00</time>
      </trkpt>
      <trkpt lat="0" lon="0">
        <time>2021-02-28T09:10:11.179000+00:00</time>
      </trkpt>
      <trkpt lat="0" lon="0">
        <time>2021-02-28T09:10:11.182000+00:00</time>
      </trkpt>
      <trkpt lat="47.33409" lon="-1.43249">
        <ele>113</ele>
        <time>2021-02-28T09:10:12.095000+00:00</time>
      </trkpt>
      <trkpt lat="0" lon="0">
        <time>2021-02-28T09:10:12.097000+00:00</time>
      </trkpt>
      <trkpt lat="0" lon="0">
        <time>2021-02-28T09:10:12.100000+00:00</time>
      </trkpt>
      <trkpt lat="0" lon="0">
        <time>2021-02-28T09:10:12.101000+00:00</time>
      </trkpt>
      <trkpt lat="47.33407" lon="-1.43247">
        <ele>113</ele>
        <time>2021-02-28T09:10:13.146000+00:00</time>
      </trkpt>
      <trkpt lat="0" lon="0">
        <time>2021-02-28T09:10:13.152000+00:00</time>
      </trkpt>
      <trkpt lat="0" lon="0">
        <time>2021-02-28T09:10:13.157000+00:00</time>
      </trkpt>
      <trkpt lat="0" lon="0">
        <time>2021-02-28T09:10:13.160000+00:00</time>
      </trkpt>
      <trkpt lat="47.33404" lon="-1.43246">
        <ele>114</ele>
        <time>2021-02-28T09:10:14.136000+00:00</time>
      </trkpt>
      <trkpt lat="0" lon="0">
        <time>2021-02-28T09:10:14.149000+00:00</time>
      </trkpt>
      <trkpt lat="0" lon="0">
        <time>2021-02-28T09:10:14.154000+00:00</time>
      </trkpt>
      <trkpt lat="0" lon="0">
        <time>2021-02-28T09:10:14.159000+00:00</time>
      </trkpt>
      <trkpt lat="47.33401" lon="-1.43246">
        <ele>114</ele>
        <time>2021-02-28T09:10:15.106000+00:00</time>
      </trkpt>
      <trkpt lat="0" lon="0">
        <time>2021-02-28T09:10:15.113000+00:00</time>
      </trkpt>
      <trkpt lat="0" lon="0">
        <time>2021-02-28T09:10:15.119000+00:00</time>
      </trkpt>
      <trkpt lat="0" lon="0">
        <time>2021-02-28T09:10:15.122000+00:00</time>
      </trkpt>
      <trkpt lat="47.33398" lon="-1.43247">
        <ele>113</ele>
        <time>2021-02-28T09:10:16.174000+00:00</time>
      </trkpt>
      <trkpt lat="0" lon="0">
        <time>2021-02-28T09:10:16.183000+00:00</time>
      </trkpt>
      <trkpt lat="0" lon="0">
        <time>2021-02-28T09:10:16.187000+00:00</time>
      </trkpt>
      <trkpt lat="0" lon="0">
        <time>2021-02-28T09:10:16.190000+00:00</time>
      </trkpt>
      <trkpt lat="47.33395" lon="-1.43248">
        <ele>113</ele>
        <time>2021-02-28T09:10:17.154000+00:00</time>
      </trkpt>
      <trkpt lat="0" lon="0">
        <time>2021-02-28T09:10:17.161000+00:00</time>
      </trkpt>
      <trkpt lat="0" lon="0">
        <time>2021-02-28T09:10:17.169000+00:00</time>
      </trkpt>
      <trkpt lat="0" lon="0">
        <time>2021-02-28T09:10:17.171000+00:00</time>
      </trkpt>
      <trkpt lat="47.33392" lon="-1.43251">
        <ele>113</ele>
        <time>2021-02-28T09:10:18.216000+00:00</time>
      </trkpt>
      <trkpt lat="0" lon="0">
        <time>2021-02-28T09:10:18.223000+00:00</time>
      </trkpt>
      <trkpt lat="0" lon="0">
        <time>2021-02-28T09:10:18.228000+00:00</time>
      </trkpt>
      <trkpt lat="0" lon="0">
        <time>2021-02-28T09:10:18.230000+00:00</time>
      </trkpt>
      <trkpt lat="47.33389" lon="-1.43255">
        <ele>113</ele>
        <time>2021-02-28T09:10:19.116000+00:00</time>
      </trkpt>
      <trkpt lat="0" lon="0">
        <time>2021-02-28T09:10:19.118000+00:00</time>
      </trkpt>
      <trkpt lat="0" lon="0">
        <time>2021-02-28T09:10:19.120000+00:00</time>
      </trkpt>
      <trkpt lat="0" lon="0">
        <time>2021-02-28T09:10:19.122000+00:00</time>
      </trkpt>
      <trkpt lat="47.33385" lon="-1.43259">
        <ele>112</ele>
        <time>2021-02-28T09:10:20.259000+00:00</time>
      </trkpt>
      <trkpt lat="0" lon="0">
        <time>2021-02-28T09:10:20.270000+00:00</time>
      </trkpt>
      <trkpt lat="0" lon="0">
        <time>2021-02-28T09:10:20.276000+00:00</time>
      </trkpt>
      <trkpt lat="0" lon="0">
        <time>2021-02-28T09:10:20.279000+00:00</time>
      </trkpt>
      <trkpt lat="47.33382" lon="-1.43263">
        <ele>112</ele>
        <time>2021-02-28T09:10:21.205000+00:00</time>
      </trkpt>
      <trkpt lat="0" lon="0">
        <time>2021-02-28T09:10:21.214000+00:00</time>
      </trkpt>
      <trkpt lat="0" lon="0">
        <time>2021-02-28T09:10:21.218000+00:00</time>
      </trkpt>
      <trkpt lat="0" lon="0">
        <time>2021-02-28T09:10:21.220000+00:00</time>
      </trkpt>
      <trkpt lat="47.33378" lon="-1.43268">
        <ele>112</ele>
        <time>2021-02-28T09:10:22.208000+00:00</time>
      </trkpt>
      <trkpt lat="0" lon="0">
        <time>2021-02-28T09:10:22.214000+00:00</time>
      </trkpt>
      <trkpt lat="0" lon="0">
        <time>2021-02-28T09:10:22.219000+00:00</time>
      </trkpt>
      <trkpt lat="0" lon="0">
        <time>2021-02-28T09:10:22.221000+00:00</time>
      </trkpt>
      <trkpt lat="47.33374" lon="-1.43272">
        <ele>111</ele>
        <time>2021-02-28T09:10:23.200000+00:00</time>
      </trkpt>
      <trkpt lat="0" lon="0">
        <time>2021-02-28T09:10:23.209000+00:00</time>
      </trkpt>
      <trkpt lat="0" lon="0">
        <time>2021-02-28T09:10:23.213000+00:00</time>
      </trkpt>
      <trkpt lat="0" lon="0">
        <time>2021-02-28T09:10:23.215000+00:00</time>
      </trkpt>
      <trkpt lat="47.3337" lon="-1.43278">
        <ele>111</ele>
        <time>2021-02-28T09:10:24.209000+00:00</time>
      </trkpt>
      <trkpt lat="0" lon="0">
        <time>2021-02-28T09:10:24.220000+00:00</time>
      </trkpt>
      <trkpt lat="0" lon="0">
        <time>2021-02-28T09:10:24.224000+00:00</time>
      </trkpt>
      <trkpt lat="0" lon="0">
        <time>2021-02-28T09:10:24.226000+00:00</time>
      </trkpt>
      <trkpt lat="47.33366" lon="-1.43283">
        <ele>111</ele>
        <time>2021-02-28T09:10:25.225000+00:00</time>
      </trkpt>
      <trkpt lat="0" lon="0">
        <time>2021-02-28T09:10:25.233000+00:00</time>
      </trkpt>
      <trkpt lat="0" lon="0">
        <time>2021-02-28T09:10:25.238000+00:00</time>
      </trkpt>
      <trkpt lat="0" lon="0">
        <time>2021-02-28T09:10:25.240000+00:00</time>
      </trkpt>
      <trkpt lat="47.33361" lon="-1.43288">
        <ele>111</ele>
        <time>2021-02-28T09:10:26.227000+00:00</time>
      </trkpt>
      <trkpt lat="0" lon="0">
        <time>2021-02-28T09:10:26.234000+00:00</time>
      </trkpt>
      <trkpt lat="0" lon="0">
        <time>2021-02-28T09:10:26.241000+00:00</time>
      </trkpt>
      <trkpt lat="0" lon="0">
        <time>2021-02-28T09:10:26.244000+00:00</time>
      </trkpt>
      <trkpt lat="47.33357" lon="-1.43293">
        <ele>111</ele>
        <time>2021-02-28T09:10:27.228000+00:00</time>
      </trkpt>
      <trkpt lat="0" lon="0">
        <time>2021-02-28T09:10:27.233000+00:00</time>
      </trkpt>
      <trkpt lat="0" lon="0">
        <time>2021-02-28T09:10:27.238000+00:00</time>
      </trkpt>
      <trkpt lat="0" lon="0">
        <time>2021-02-28T09:10:27.240000+00:00</time>
      </trkpt>
      <trkpt lat="47.33353" lon="-1.43298">
        <ele>110</ele>
        <time>2021-02-28T09:10:28.213000+00:00</time>
      </trkpt>
      <trkpt lat="0" lon="0">
        <time>2021-02-28T09:10:28.219000+00:00</time>
      </trkpt>
      <trkpt lat="0" lon="0">
        <time>2021-02-28T09:10:28.225000+00:00</time>
      </trkpt>
      <trkpt lat="0" lon="0">
        <time>2021-02-28T09:10:28.228000+00:00</time>
      </trkpt>
      <trkpt lat="47.33348" lon="-1.43303">
        <ele>110</ele>
        <time>2021-02-28T09:10:29.198000+00:00</time>
      </trkpt>
      <trkpt lat="0" lon="0">
        <time>2021-02-28T09:10:29.207000+00:00</time>
      </trkpt>
      <trkpt lat="0" lon="0">
        <time>2021-02-28T09:10:29.215000+00:00</time>
      </trkpt>
      <trkpt lat="0" lon="0">
        <time>2021-02-28T09:10:29.217000+00:00</time>
      </trkpt>
      <trkpt lat="47.33344" lon="-1.43308">
        <ele>110</ele>
        <time>2021-02-28T09:10:30.215000+00:00</time>
      </trkpt>
      <trkpt lat="0" lon="0">
        <time>2021-02-28T09:10:30.221000+00:00</time>
      </trkpt>
      <trkpt lat="0" lon="0">
        <time>2021-02-28T09:10:30.226000+00:00</time>
      </trkpt>
      <trkpt lat="0" lon="0">
        <time>2021-02-28T09:10:30.231000+00:00</time>
      </trkpt>
      <trkpt lat="47.3334" lon="-1.43313">
        <ele>111</ele>
        <time>2021-02-28T09:10:31.209000+00:00</time>
      </trkpt>
      <trkpt lat="0" lon="0">
        <time>2021-02-28T09:10:31.217000+00:00</time>
      </trkpt>
      <trkpt lat="0" lon="0">
        <time>2021-02-28T09:10:31.222000+00:00</time>
      </trkpt>
      <trkpt lat="0" lon="0">
        <time>2021-02-28T09:10:31.226000+00:00</time>
      </trkpt>
      <trkpt lat="47.33336" lon="-1.43318">
        <ele>111</ele>
        <time>2021-02-28T09:10:32.242000+00:00</time>
      </trkpt>
      <trkpt lat="0" lon="0">
        <time>2021-02-28T09:10:32.247000+00:00</time>
      </trkpt>
      <trkpt lat="0" lon="0">
        <time>2021-02-28T09:10:32.250000+00:00</time>
      </trkpt>
      <trkpt lat="0" lon="0">
        <time>2021-02-28T09:10:32.251000+00:00</time>
      </trkpt>
      <trkpt lat="47.33332" lon="-1.43323">
        <ele>111</ele>
        <time>2021-02-28T09:10:33.231000+00:00</time>
      </trkpt>
      <trkpt lat="0" lon="0">
        <time>2021-02-28T09:10:33.239000+00:00</time>
      </trkpt>
      <trkpt lat="0" lon="0">
        <time>2021-02-28T09:10:33.248000+00:00</time>
      </trkpt>
      <trkpt lat="0" lon="0">
        <time>2021-02-28T09:10:33.250000+00:00</time>
      </trkpt>
      <trkpt lat="47.33328" lon="-1.43327">
        <ele>111</ele>
        <time>2021-02-28T09:10:34.192000+00:00</time>
      </trkpt>
      <trkpt lat="0" lon="0">
        <time>2021-02-28T09:10:34.197000+00:00</time>
      </trkpt>
      <trkpt lat="0" lon="0">
        <time>2021-02-28T09:10:34.201000+00:00</time>
      </trkpt>
      <trkpt lat="0" lon="0">
        <time>2021-02-28T09:10:34.203000+00:00</time>
      </trkpt>
      <trkpt lat="47.33324" lon="-1.43331">
        <ele>111</ele>
        <time>2021-02-28T09:10:35.255000+00:00</time>
      </trkpt>
      <trkpt lat="0" lon="0">
        <time>2021-02-28T09:10:35.265000+00:00</time>
      </trkpt>
      <trkpt lat="0" lon="0">
        <time>2021-02-28T09:10:35.273000+00:00</time>
      </trkpt>
      <trkpt lat="0" lon="0">
        <time>2021-02-28T09:10:35.277000+00:00</time>
      </trkpt>
      <trkpt lat="47.3332" lon="-1.43336">
        <ele>111</ele>
        <time>2021-02-28T09:10:36.216000+00:00</time>
      </trkpt>
      <trkpt lat="0" lon="0">
        <time>2021-02-28T09:10:36.220000+00:00</time>
      </trkpt>
      <trkpt lat="0" lon="0">
        <time>2021-02-28T09:10:36.225000+00:00</time>
      </trkpt>
      <trkpt lat="0" lon="0">
        <time>2021-02-28T09:10:36.228000+00:00</time>
      </trkpt>
      <trkpt lat="47.33317" lon="-1.4334">
        <ele>110</ele>
        <time>2021-02-28T09:10:37.216000+00:00</time>
      </trkpt>
      <trkpt lat="0" lon="0">
        <time>2021-02-28T09:10:37.224000+00:00</time>
      </trkpt>
      <trkpt lat="0" lon="0">
        <time>2021-02-28T09:10:37.229000+00:00</time>
      </trkpt>
      <trkpt lat="0" lon="0">
        <time>2021-02-28T09:10:37.232000+00:00</time>
      </trkpt>
      <trkpt lat="47.33313" lon="-1.43344">
        <ele>110</ele>
        <time>2021-02-28T09:10:38.226000+00:00</time>
      </trkpt>
      <trkpt lat="0" lon="0">
        <time>2021-02-28T09:10:38.234000+00:00</time>
      </trkpt>
      <trkpt lat="0" lon="0">
        <time>2021-02-28T09:10:38.238000+00:00</time>
      </trkpt>
      <trkpt lat="0" lon="0">
        <time>2021-02-28T09:10:38.241000+00:00</time>
      </trkpt>
      <trkpt lat="47.3331" lon="-1.43349">
        <ele>109</ele>
        <time>2021-02-28T09:10:39.219000+00:00</time>
      </trkpt>
      <trkpt lat="0" lon="0">
        <time>2021-02-28T09:10:39.228000+00:00</time>
      </trkpt>
      <trkpt lat="0" lon="0">
        <time>2021-02-28T09:10:39.234000+00:00</time>
      </trkpt>
      <trkpt lat="0" lon="0">
        <time>2021-02-28T09:10:39.237000+00:00</time>
      </trkpt>
      <trkpt lat="47.33307" lon="-1.43353">
        <ele>109</ele>
        <time>2021-02-28T09:10:40.236000+00:00</time>
      </trkpt>
      <trkpt lat="0" lon="0">
        <time>2021-02-28T09:10:40.242000+00:00</time>
      </trkpt>
      <trkpt lat="0" lon="0">
        <time>2021-02-28T09:10:40.247000+00:00</time>
      </trkpt>
      <trkpt lat="0" lon="0">
        <time>2021-02-28T09:10:40.250000+00:00</time>
      </trkpt>
      <trkpt lat="47.33304" lon="-1.43357">
        <ele>109</ele>
        <time>2021-02-28T09:10:41.226000+00:00</time>
      </trkpt>
      <trkpt lat="0" lon="0">
        <time>2021-02-28T09:10:41.238000+00:00</time>
      </trkpt>
      <trkpt lat="0" lon="0">
        <time>2021-02-28T09:10:41.245000+00:00</time>
      </trkpt>
      <trkpt lat="0" lon="0">
        <time>2021-02-28T09:10:41.248000+00:00</time>
      </trkpt>
      <trkpt lat="47.33301" lon="-1.43361">
        <ele>109</ele>
        <time>2021-02-28T09:10:42.210000+00:00</time>
      </trkpt>
      <trkpt lat="0" lon="0">
        <time>2021-02-28T09:10:42.220000+00:00</time>
      </trkpt>
      <trkpt lat="0" lon="0">
        <time>2021-02-28T09:10:42.225000+00:00</time>
      </trkpt>
      <trkpt lat="0" lon="0">
        <time>2021-02-28T09:10:42.228000+00:00</time>
      </trkpt>
      <trkpt lat="47.33299" lon="-1.43364">
        <ele>109</ele>
        <time>2021-02-28T09:10:43.223000+00:00</time>
      </trkpt>
      <trkpt lat="0" lon="0">
        <time>2021-02-28T09:10:43.226000+00:00</time>
      </trkpt>
      <trkpt lat="0" lon="0">
        <time>2021-02-28T09:10:43.229000+00:00</time>
      </trkpt>
      <trkpt lat="0" lon="0">
        <time>2021-02-28T09:10:43.230000+00:00</time>
      </trkpt>
      <trkpt lat="47.33298" lon="-1.43366">
        <ele>110</ele>
        <time>2021-02-28T09:10:44.244000+00:00</time>
      </trkpt>
      <trkpt lat="0" lon="0">
        <time>2021-02-28T09:10:44.251000+00:00</time>
      </trkpt>
      <trkpt lat="0" lon="0">
        <time>2021-02-28T09:10:44.259000+00:00</time>
      </trkpt>
      <trkpt lat="0" lon="0">
        <time>2021-02-28T09:10:44.262000+00:00</time>
      </trkpt>
      <trkpt lat="47.33296" lon="-1.43369">
        <ele>110</ele>
        <time>2021-02-28T09:10:45.226000+00:00</time>
      </trkpt>
      <trkpt lat="0" lon="0">
        <time>2021-02-28T09:10:45.235000+00:00</time>
      </trkpt>
      <trkpt lat="0" lon="0">
        <time>2021-02-28T09:10:45.240000+00:00</time>
      </trkpt>
      <trkpt lat="0" lon="0">
        <time>2021-02-28T09:10:45.243000+00:00</time>
      </trkpt>
      <trkpt lat="47.33295" lon="-1.43371">
        <ele>110</ele>
        <time>2021-02-28T09:10:46.206000+00:00</time>
      </trkpt>
      <trkpt lat="0" lon="0">
        <time>2021-02-28T09:10:46.218000+00:00</time>
      </trkpt>
      <trkpt lat="0" lon="0">
        <time>2021-02-28T09:10:46.222000+00:00</time>
      </trkpt>
      <trkpt lat="0" lon="0">
        <time>2021-02-28T09:10:46.224000+00:00</time>
      </trkpt>
      <trkpt lat="47.33293" lon="-1.43372">
        <ele>110</ele>
        <time>2021-02-28T09:10:47.208000+00:00</time>
      </trkpt>
      <trkpt lat="0" lon="0">
        <time>2021-02-28T09:10:47.222000+00:00</time>
      </trkpt>
      <trkpt lat="0" lon="0">
        <time>2021-02-28T09:10:47.227000+00:00</time>
      </trkpt>
      <trkpt lat="0" lon="0">
        <time>2021-02-28T09:10:47.230000+00:00</time>
      </trkpt>
      <trkpt lat="47.33292" lon="-1.43373">
        <ele>110</ele>
        <time>2021-02-28T09:10:48.180000+00:00</time>
      </trkpt>
      <trkpt lat="0" lon="0">
        <time>2021-02-28T09:10:48.185000+00:00</time>
      </trkpt>
      <trkpt lat="0" lon="0">
        <time>2021-02-28T09:10:48.189000+00:00</time>
      </trkpt>
      <trkpt lat="0" lon="0">
        <time>2021-02-28T09:10:48.192000+00:00</time>
      </trkpt>
      <trkpt lat="47.3329" lon="-1.43374">
        <ele>110</ele>
        <time>2021-02-28T09:10:49.183000+00:00</time>
      </trkpt>
      <trkpt lat="0" lon="0">
        <time>2021-02-28T09:10:49.193000+00:00</time>
      </trkpt>
      <trkpt lat="0" lon="0">
        <time>2021-02-28T09:10:49.198000+00:00</time>
      </trkpt>
      <trkpt lat="0" lon="0">
        <time>2021-02-28T09:10:49.200000+00:00</time>
      </trkpt>
      <trkpt lat="47.33288" lon="-1.43374">
        <ele>109</ele>
        <time>2021-02-28T09:10:50.146000+00:00</time>
      </trkpt>
      <trkpt lat="0" lon="0">
        <time>2021-02-28T09:10:50.167000+00:00</time>
      </trkpt>
      <trkpt lat="0" lon="0">
        <time>2021-02-28T09:10:50.170000+00:00</time>
      </trkpt>
      <trkpt lat="0" lon="0">
        <time>2021-02-28T09:10:50.171000+00:00</time>
      </trkpt>
      <trkpt lat="47.33286" lon="-1.43374">
        <ele>109</ele>
        <time>2021-02-28T09:10:51.216000+00:00</time>
      </trkpt>
      <trkpt lat="0" lon="0">
        <time>2021-02-28T09:10:51.224000+00:00</time>
      </trkpt>
      <trkpt lat="0" lon="0">
        <time>2021-02-28T09:10:51.229000+00:00</time>
      </trkpt>
      <trkpt lat="0" lon="0">
        <time>2021-02-28T09:10:51.233000+00:00</time>
      </trkpt>
      <trkpt lat="47.33284" lon="-1.43373">
        <ele>110</ele>
        <time>2021-02-28T09:10:52.203000+00:00</time>
      </trkpt>
      <trkpt lat="0" lon="0">
        <time>2021-02-28T09:10:52.210000+00:00</time>
      </trkpt>
      <trkpt lat="0" lon="0">
        <time>2021-02-28T09:10:52.214000+00:00</time>
      </trkpt>
      <trkpt lat="0" lon="0">
        <time>2021-02-28T09:10:52.216000+00:00</time>
      </trkpt>
      <trkpt lat="47.33282" lon="-1.43371">
        <ele>110</ele>
        <time>2021-02-28T09:10:53.212000+00:00</time>
      </trkpt>
      <trkpt lat="0" lon="0">
        <time>2021-02-28T09:10:53.217000+00:00</time>
      </trkpt>
      <trkpt lat="0" lon="0">
        <time>2021-02-28T09:10:53.222000+00:00</time>
      </trkpt>
      <trkpt lat="0" lon="0">
        <time>2021-02-28T09:10:53.224000+00:00</time>
      </trkpt>
      <trkpt lat="47.3328" lon="-1.43368">
        <ele>109</ele>
        <time>2021-02-28T09:10:54.134000+00:00</time>
      </trkpt>
      <trkpt lat="0" lon="0">
        <time>2021-02-28T09:10:54.135000+00:00</time>
      </trkpt>
      <trkpt lat="0" lon="0">
        <time>2021-02-28T09:10:54.136000+00:00</time>
      </trkpt>
      <trkpt lat="47.33279" lon="-1.43365">
        <ele>109</ele>
        <time>2021-02-28T09:10:55.229000+00:00</time>
      </trkpt>
      <trkpt lat="0" lon="0">
        <time>2021-02-28T09:10:55.242000+00:00</time>
      </trkpt>
      <trkpt lat="0" lon="0">
        <time>2021-02-28T09:10:55.247000+00:00</time>
      </trkpt>
      <trkpt lat="0" lon="0">
        <time>2021-02-28T09:10:55.250000+00:00</time>
      </trkpt>
      <trkpt lat="47.33277" lon="-1.43361">
        <ele>109</ele>
        <time>2021-02-28T09:10:56.214000+00:00</time>
      </trkpt>
      <trkpt lat="0" lon="0">
        <time>2021-02-28T09:10:56.220000+00:00</time>
      </trkpt>
      <trkpt lat="0" lon="0">
        <time>2021-02-28T09:10:56.225000+00:00</time>
      </trkpt>
      <trkpt lat="0" lon="0">
        <time>2021-02-28T09:10:56.227000+00:00</time>
      </trkpt>
      <trkpt lat="47.33276" lon="-1.43358">
        <ele>109</ele>
        <time>2021-02-28T09:10:57.207000+00:00</time>
      </trkpt>
      <trkpt lat="0" lon="0">
        <time>2021-02-28T09:10:57.224000+00:00</time>
      </trkpt>
      <trkpt lat="0" lon="0">
        <time>2021-02-28T09:10:57.229000+00:00</time>
      </trkpt>
      <trkpt lat="0" lon="0">
        <time>2021-02-28T09:10:57.231000+00:00</time>
      </trkpt>
      <trkpt lat="47.33274" lon="-1.43354">
        <ele>109</ele>
        <time>2021-02-28T09:10:58.219000+00:00</time>
      </trkpt>
      <trkpt lat="0" lon="0">
        <time>2021-02-28T09:10:58.227000+00:00</time>
      </trkpt>
      <trkpt lat="0" lon="0">
        <time>2021-02-28T09:10:58.232000+00:00</time>
      </trkpt>
      <trkpt lat="0" lon="0">
        <time>2021-02-28T09:10:58.234000+00:00</time>
      </trkpt>
      <trkpt lat="47.33273" lon="-1.4335">
        <ele>109</ele>
        <time>2021-02-28T09:10:59.170000+00:00</time>
      </trkpt>
      <trkpt lat="0" lon="0">
        <time>2021-02-28T09:10:59.184000+00:00</time>
      </trkpt>
      <trkpt lat="0" lon="0">
        <time>2021-02-28T09:10:59.189000+00:00</time>
      </trkpt>
      <trkpt lat="0" lon="0">
        <time>2021-02-28T09:10:59.191000+00:00</time>
      </trkpt>
      <trkpt lat="47.33272" lon="-1.43346">
        <ele>109</ele>
        <time>2021-02-28T09:11:00.156000+00:00</time>
      </trkpt>
      <trkpt lat="0" lon="0">
        <time>2021-02-28T09:11:00.160000+00:00</time>
      </trkpt>
      <trkpt lat="0" lon="0">
        <time>2021-02-28T09:11:00.164000+00:00</time>
      </trkpt>
      <trkpt lat="0" lon="0">
        <time>2021-02-28T09:11:00.166000+00:00</time>
      </trkpt>
      <trkpt lat="47.3327" lon="-1.43343">
        <ele>109</ele>
        <time>2021-02-28T09:11:01.218000+00:00</time>
      </trkpt>
      <trkpt lat="0" lon="0">
        <time>2021-02-28T09:11:01.231000+00:00</time>
      </trkpt>
      <trkpt lat="0" lon="0">
        <time>2021-02-28T09:11:01.239000+00:00</time>
      </trkpt>
      <trkpt lat="0" lon="0">
        <time>2021-02-28T09:11:01.242000+00:00</time>
      </trkpt>
      <trkpt lat="47.33269" lon="-1.43341">
        <ele>109</ele>
        <time>2021-02-28T09:11:02.187000+00:00</time>
      </trkpt>
      <trkpt lat="0" lon="0">
        <time>2021-02-28T09:11:02.197000+00:00</time>
      </trkpt>
      <trkpt lat="0" lon="0">
        <time>2021-02-28T09:11:02.202000+00:00</time>
      </trkpt>
      <trkpt lat="0" lon="0">
        <time>2021-02-28T09:11:02.204000+00:00</time>
      </trkpt>
      <trkpt lat="47.33267" lon="-1.4334">
        <ele>109</ele>
        <time>2021-02-28T09:11:03.153000+00:00</time>
      </trkpt>
      <trkpt lat="0" lon="0">
        <time>2021-02-28T09:11:03.156000+00:00</time>
      </trkpt>
      <trkpt lat="0" lon="0">
        <time>2021-02-28T09:11:03.162000+00:00</time>
      </trkpt>
      <trkpt lat="0" lon="0">
        <time>2021-02-28T09:11:03.163000+00:00</time>
      </trkpt>
      <trkpt lat="47.33265" lon="-1.4334">
        <ele>109</ele>
        <time>2021-02-28T09:11:04.185000+00:00</time>
      </trkpt>
      <trkpt lat="0" lon="0">
        <time>2021-02-28T09:11:04.194000+00:00</time>
      </trkpt>
      <trkpt lat="0" lon="0">
        <time>2021-02-28T09:11:04.198000+00:00</time>
      </trkpt>
      <trkpt lat="0" lon="0">
        <time>2021-02-28T09:11:04.201000+00:00</time>
      </trkpt>
      <trkpt lat="47.33262" lon="-1.43341">
        <ele>108</ele>
        <time>2021-02-28T09:11:05.197000+00:00</time>
      </trkpt>
      <trkpt lat="0" lon="0">
        <time>2021-02-28T09:11:05.201000+00:00</time>
      </trkpt>
      <trkpt lat="0" lon="0">
        <time>2021-02-28T09:11:05.204000+00:00</time>
      </trkpt>
      <trkpt lat="0" lon="0">
        <time>2021-02-28T09:11:05.205000+00:00</time>
      </trkpt>
      <trkpt lat="47.3326" lon="-1.43342">
        <ele>108</ele>
        <time>2021-02-28T09:11:06.206000+00:00</time>
      </trkpt>
      <trkpt lat="0" lon="0">
        <time>2021-02-28T09:11:06.211000+00:00</time>
      </trkpt>
      <trkpt lat="0" lon="0">
        <time>2021-02-28T09:11:06.215000+00:00</time>
      </trkpt>
      <trkpt lat="0" lon="0">
        <time>2021-02-28T09:11:06.217000+00:00</time>
      </trkpt>
      <trkpt lat="47.33257" lon="-1.43344">
        <ele>107</ele>
        <time>2021-02-28T09:11:07.193000+00:00</time>
      </trkpt>
      <trkpt lat="0" lon="0">
        <time>2021-02-28T09:11:07.200000+00:00</time>
      </trkpt>
      <trkpt lat="0" lon="0">
        <time>2021-02-28T09:11:07.206000+00:00</time>
      </trkpt>
      <trkpt lat="0" lon="0">
        <time>2021-02-28T09:11:07.208000+00:00</time>
      </trkpt>
      <trkpt lat="47.33254" lon="-1.43346">
        <ele>107</ele>
        <time>2021-02-28T09:11:08.204000+00:00</time>
      </trkpt>
      <trkpt lat="0" lon="0">
        <time>2021-02-28T09:11:08.217000+00:00</time>
      </trkpt>
      <trkpt lat="0" lon="0">
        <time>2021-02-28T09:11:08.221000+00:00</time>
      </trkpt>
      <trkpt lat="0" lon="0">
        <time>2021-02-28T09:11:08.224000+00:00</time>
      </trkpt>
      <trkpt lat="47.3325" lon="-1.43348">
        <ele>108</ele>
        <time>2021-02-28T09:11:09.202000+00:00</time>
      </trkpt>
      <trkpt lat="0" lon="0">
        <time>2021-02-28T09:11:09.206000+00:00</time>
      </trkpt>
      <trkpt lat="0" lon="0">
        <time>2021-02-28T09:11:09.216000+00:00</time>
      </trkpt>
      <trkpt lat="0" lon="0">
        <time>2021-02-28T09:11:09.220000+00:00</time>
      </trkpt>
      <trkpt lat="47.33247" lon="-1.43351">
        <ele>108</ele>
        <time>2021-02-28T09:11:10.217000+00:00</time>
      </trkpt>
      <trkpt lat="0" lon="0">
        <time>2021-02-28T09:11:10.224000+00:00</time>
      </trkpt>
      <trkpt lat="0" lon="0">
        <time>2021-02-28T09:11:10.231000+00:00</time>
      </trkpt>
      <trkpt lat="0" lon="0">
        <time>2021-02-28T09:11:10.233000+00:00</time>
      </trkpt>
      <trkpt lat="47.33244" lon="-1.43353">
        <ele>107</ele>
        <time>2021-02-28T09:11:11.149000+00:00</time>
      </trkpt>
      <trkpt lat="0" lon="0">
        <time>2021-02-28T09:11:11.157000+00:00</time>
      </trkpt>
      <trkpt lat="0" lon="0">
        <time>2021-02-28T09:11:11.162000+00:00</time>
      </trkpt>
      <trkpt lat="0" lon="0">
        <time>2021-02-28T09:11:11.164000+00:00</time>
      </trkpt>
      <trkpt lat="47.33241" lon="-1.43356">
        <ele>107</ele>
        <time>2021-02-28T09:11:12.219000+00:00</time>
      </trkpt>
      <trkpt lat="0" lon="0">
        <time>2021-02-28T09:11:12.226000+00:00</time>
      </trkpt>
      <trkpt lat="0" lon="0">
        <time>2021-02-28T09:11:12.231000+00:00</time>
      </trkpt>
      <trkpt lat="0" lon="0">
        <time>2021-02-28T09:11:12.234000+00:00</time>
      </trkpt>
      <trkpt lat="47.33239" lon="-1.43359">
        <ele>107</ele>
        <time>2021-02-28T09:11:13.227000+00:00</time>
      </trkpt>
      <trkpt lat="0" lon="0">
        <time>2021-02-28T09:11:13.241000+00:00</time>
      </trkpt>
      <trkpt lat="0" lon="0">
        <time>2021-02-28T09:11:13.246000+00:00</time>
      </trkpt>
      <trkpt lat="0" lon="0">
        <time>2021-02-28T09:11:13.249000+00:00</time>
      </trkpt>
      <trkpt lat="47.33236" lon="-1.43362">
        <ele>107</ele>
        <time>2021-02-28T09:11:14.191000+00:00</time>
      </trkpt>
      <trkpt lat="0" lon="0">
        <time>2021-02-28T09:11:14.198000+00:00</time>
      </trkpt>
      <trkpt lat="0" lon="0">
        <time>2021-02-28T09:11:14.205000+00:00</time>
      </trkpt>
      <trkpt lat="0" lon="0">
        <time>2021-02-28T09:11:14.208000+00:00</time>
      </trkpt>
      <trkpt lat="47.33234" lon="-1.43364">
        <ele>107</ele>
        <time>2021-02-28T09:11:15.206000+00:00</time>
      </trkpt>
      <trkpt lat="0" lon="0">
        <time>2021-02-28T09:11:15.214000+00:00</time>
      </trkpt>
      <trkpt lat="0" lon="0">
        <time>2021-02-28T09:11:15.218000+00:00</time>
      </trkpt>
      <trkpt lat="0" lon="0">
        <time>2021-02-28T09:11:15.222000+00:00</time>
      </trkpt>
      <trkpt lat="47.33231" lon="-1.43367">
        <ele>106</ele>
        <time>2021-02-28T09:11:16.192000+00:00</time>
      </trkpt>
      <trkpt lat="0" lon="0">
        <time>2021-02-28T09:11:16.204000+00:00</time>
      </trkpt>
      <trkpt lat="0" lon="0">
        <time>2021-02-28T09:11:16.210000+00:00</time>
      </trkpt>
      <trkpt lat="0" lon="0">
        <time>2021-02-28T09:11:16.213000+00:00</time>
      </trkpt>
      <trkpt lat="47.33229" lon="-1.43369">
        <ele>106</ele>
        <time>2021-02-28T09:11:17.199000+00:00</time>
      </trkpt>
      <trkpt lat="0" lon="0">
        <time>2021-02-28T09:11:17.211000+00:00</time>
      </trkpt>
      <trkpt lat="0" lon="0">
        <time>2021-02-28T09:11:17.217000+00:00</time>
      </trkpt>
      <trkpt lat="0" lon="0">
        <time>2021-02-28T09:11:17.221000+00:00</time>
      </trkpt>
      <trkpt lat="47.33227" lon="-1.43372">
        <ele>106</ele>
        <time>2021-02-28T09:11:18.231000+00:00</time>
      </trkpt>
      <trkpt lat="0" lon="0">
        <time>2021-02-28T09:11:18.240000+00:00</time>
      </trkpt>
      <trkpt lat="0" lon="0">
        <time>2021-02-28T09:11:18.245000+00:00</time>
      </trkpt>
      <trkpt lat="0" lon="0">
        <time>2021-02-28T09:11:18.248000+00:00</time>
      </trkpt>
      <trkpt lat="47.33226" lon="-1.43373">
        <ele>106</ele>
        <time>2021-02-28T09:11:19.222000+00:00</time>
      </trkpt>
      <trkpt lat="0" lon="0">
        <time>2021-02-28T09:11:19.227000+00:00</time>
      </trkpt>
      <trkpt lat="0" lon="0">
        <time>2021-02-28T09:11:19.233000+00:00</time>
      </trkpt>
      <trkpt lat="0" lon="0">
        <time>2021-02-28T09:11:19.241000+00:00</time>
      </trkpt>
      <trkpt lat="47.33224" lon="-1.43374">
        <ele>105</ele>
        <time>2021-02-28T09:11:20.216000+00:00</time>
      </trkpt>
      <trkpt lat="0" lon="0">
        <time>2021-02-28T09:11:20.231000+00:00</time>
      </trkpt>
      <trkpt lat="0" lon="0">
        <time>2021-02-28T09:11:20.237000+00:00</time>
      </trkpt>
      <trkpt lat="0" lon="0">
        <time>2021-02-28T09:11:20.241000+00:00</time>
      </trkpt>
      <trkpt lat="47.33223" lon="-1.43375">
        <ele>105</ele>
        <time>2021-02-28T09:11:21.211000+00:00</time>
      </trkpt>
      <trkpt lat="0" lon="0">
        <time>2021-02-28T09:11:21.220000+00:00</time>
      </trkpt>
      <trkpt lat="0" lon="0">
        <time>2021-02-28T09:11:21.226000+00:00</time>
      </trkpt>
      <trkpt lat="0" lon="0">
        <time>2021-02-28T09:11:21.229000+00:00</time>
      </trkpt>
      <trkpt lat="47.33222" lon="-1.43376">
        <ele>105</ele>
        <time>2021-02-28T09:11:22.193000+00:00</time>
      </trkpt>
      <trkpt lat="0" lon="0">
        <time>2021-02-28T09:11:22.197000+00:00</time>
      </trkpt>
      <trkpt lat="0" lon="0">
        <time>2021-02-28T09:11:22.200000+00:00</time>
      </trkpt>
      <trkpt lat="0" lon="0">
        <time>2021-02-28T09:11:22.201000+00:00</time>
      </trkpt>
      <trkpt lat="47.33222" lon="-1.43376">
        <ele>105</ele>
        <time>2021-02-28T09:11:23.208000+00:00</time>
      </trkpt>
      <trkpt lat="0" lon="0">
        <time>2021-02-28T09:11:23.214000+00:00</time>
      </trkpt>
      <trkpt lat="0" lon="0">
        <time>2021-02-28T09:11:23.219000+00:00</time>
      </trkpt>
      <trkpt lat="0" lon="0">
        <time>2021-02-28T09:11:23.222000+00:00</time>
      </trkpt>
      <trkpt lat="47.33222" lon="-1.43377">
        <ele>104</ele>
        <time>2021-02-28T09:11:24.207000+00:00</time>
      </trkpt>
      <trkpt lat="0" lon="0">
        <time>2021-02-28T09:11:24.214000+00:00</time>
      </trkpt>
      <trkpt lat="0" lon="0">
        <time>2021-02-28T09:11:24.217000+00:00</time>
      </trkpt>
      <trkpt lat="0" lon="0">
        <time>2021-02-28T09:11:24.219000+00:00</time>
      </trkpt>
      <trkpt lat="47.33222" lon="-1.43377">
        <ele>104</ele>
        <time>2021-02-28T09:11:25.210000+00:00</time>
      </trkpt>
      <trkpt lat="0" lon="0">
        <time>2021-02-28T09:11:25.220000+00:00</time>
      </trkpt>
      <trkpt lat="0" lon="0">
        <time>2021-02-28T09:11:25.226000+00:00</time>
      </trkpt>
      <trkpt lat="0" lon="0">
        <time>2021-02-28T09:11:25.229000+00:00</time>
      </trkpt>
      <trkpt lat="47.33222" lon="-1.43377">
        <ele>104</ele>
        <time>2021-02-28T09:11:26.204000+00:00</time>
      </trkpt>
      <trkpt lat="0" lon="0">
        <time>2021-02-28T09:11:26.216000+00:00</time>
      </trkpt>
      <trkpt lat="0" lon="0">
        <time>2021-02-28T09:11:26.220000+00:00</time>
      </trkpt>
      <trkpt lat="0" lon="0">
        <time>2021-02-28T09:11:26.223000+00:00</time>
      </trkpt>
      <trkpt lat="47.33222" lon="-1.43377">
        <ele>103</ele>
        <time>2021-02-28T09:11:27.200000+00:00</time>
      </trkpt>
      <trkpt lat="0" lon="0">
        <time>2021-02-28T09:11:27.208000+00:00</time>
      </trkpt>
      <trkpt lat="0" lon="0">
        <time>2021-02-28T09:11:27.214000+00:00</time>
      </trkpt>
      <trkpt lat="0" lon="0">
        <time>2021-02-28T09:11:27.217000+00:00</time>
      </trkpt>
      <trkpt lat="47.33222" lon="-1.43377">
        <ele>103</ele>
        <time>2021-02-28T09:11:28.204000+00:00</time>
      </trkpt>
      <trkpt lat="0" lon="0">
        <time>2021-02-28T09:11:28.217000+00:00</time>
      </trkpt>
      <trkpt lat="0" lon="0">
        <time>2021-02-28T09:11:28.224000+00:00</time>
      </trkpt>
      <trkpt lat="0" lon="0">
        <time>2021-02-28T09:11:28.227000+00:00</time>
      </trkpt>
      <trkpt lat="47.33222" lon="-1.43378">
        <ele>103</ele>
        <time>2021-02-28T09:11:29.211000+00:00</time>
      </trkpt>
      <trkpt lat="0" lon="0">
        <time>2021-02-28T09:11:29.223000+00:00</time>
      </trkpt>
      <trkpt lat="0" lon="0">
        <time>2021-02-28T09:11:29.230000+00:00</time>
      </trkpt>
      <trkpt lat="0" lon="0">
        <time>2021-02-28T09:11:29.232000+00:00</time>
      </trkpt>
      <trkpt lat="47.33222" lon="-1.43378">
        <ele>103</ele>
        <time>2021-02-28T09:11:30.250000+00:00</time>
      </trkpt>
      <trkpt lat="0" lon="0">
        <time>2021-02-28T09:11:30.261000+00:00</time>
      </trkpt>
      <trkpt lat="0" lon="0">
        <time>2021-02-28T09:11:30.266000+00:00</time>
      </trkpt>
      <trkpt lat="0" lon="0">
        <time>2021-02-28T09:11:30.269000+00:00</time>
      </trkpt>
      <trkpt lat="47.33222" lon="-1.43378">
        <ele>103</ele>
        <time>2021-02-28T09:11:31.203000+00:00</time>
      </trkpt>
      <trkpt lat="0" lon="0">
        <time>2021-02-28T09:11:31.212000+00:00</time>
      </trkpt>
      <trkpt lat="0" lon="0">
        <time>2021-02-28T09:11:31.216000+00:00</time>
      </trkpt>
      <trkpt lat="0" lon="0">
        <time>2021-02-28T09:11:31.219000+00:00</time>
      </trkpt>
      <trkpt lat="47.33222" lon="-1.43379">
        <ele>103</ele>
        <time>2021-02-28T09:11:32.199000+00:00</time>
      </trkpt>
      <trkpt lat="0" lon="0">
        <time>2021-02-28T09:11:32.207000+00:00</time>
      </trkpt>
      <trkpt lat="0" lon="0">
        <time>2021-02-28T09:11:32.211000+00:00</time>
      </trkpt>
      <trkpt lat="0" lon="0">
        <time>2021-02-28T09:11:32.223000+00:00</time>
      </trkpt>
      <trkpt lat="47.33214" lon="-1.43352">
        <ele>103</ele>
        <time>2021-02-28T09:11:33.239000+00:00</time>
      </trkpt>
      <trkpt lat="0" lon="0">
        <time>2021-02-28T09:11:33.248000+00:00</time>
      </trkpt>
      <trkpt lat="0" lon="0">
        <time>2021-02-28T09:11:33.253000+00:00</time>
      </trkpt>
      <trkpt lat="0" lon="0">
        <time>2021-02-28T09:11:33.255000+00:00</time>
      </trkpt>
      <trkpt lat="47.33213" lon="-1.43348">
        <ele>103</ele>
        <time>2021-02-28T09:11:34.240000+00:00</time>
      </trkpt>
      <trkpt lat="0" lon="0">
        <time>2021-02-28T09:11:34.242000+00:00</time>
      </trkpt>
      <trkpt lat="0" lon="0">
        <time>2021-02-28T09:11:34.244000+00:00</time>
      </trkpt>
      <trkpt lat="0" lon="0">
        <time>2021-02-28T09:11:34.245000+00:00</time>
      </trkpt>
      <trkpt lat="47.33211" lon="-1.43344">
        <ele>103</ele>
        <time>2021-02-28T09:11:35.239000+00:00</time>
      </trkpt>
      <trkpt lat="0" lon="0">
        <time>2021-02-28T09:11:35.243000+00:00</time>
      </trkpt>
      <trkpt lat="0" lon="0">
        <time>2021-02-28T09:11:35.251000+00:00</time>
      </trkpt>
      <trkpt lat="0" lon="0">
        <time>2021-02-28T09:11:35.253000+00:00</time>
      </trkpt>
      <trkpt lat="47.3321" lon="-1.4334">
        <ele>103</ele>
        <time>2021-02-28T09:11:36.181000+00:00</time>
      </trkpt>
      <trkpt lat="0" lon="0">
        <time>2021-02-28T09:11:36.190000+00:00</time>
      </trkpt>
      <trkpt lat="0" lon="0">
        <time>2021-02-28T09:11:36.197000+00:00</time>
      </trkpt>
      <trkpt lat="0" lon="0">
        <time>2021-02-28T09:11:36.200000+00:00</time>
      </trkpt>
      <trkpt lat="47.33209" lon="-1.43335">
        <ele>103</ele>
        <time>2021-02-28T09:11:37.254000+00:00</time>
      </trkpt>
      <trkpt lat="0" lon="0">
        <time>2021-02-28T09:11:37.256000+00:00</time>
      </trkpt>
      <trkpt lat="0" lon="0">
        <time>2021-02-28T09:11:37.258000+00:00</time>
      </trkpt>
      <trkpt lat="0" lon="0">
        <time>2021-02-28T09:11:37.259000+00:00</time>
      </trkpt>
      <trkpt lat="47.33208" lon="-1.43331">
        <ele>103</ele>
        <time>2021-02-28T09:11:38.215000+00:00</time>
      </trkpt>
      <trkpt lat="0" lon="0">
        <time>2021-02-28T09:11:38.220000+00:00</time>
      </trkpt>
      <trkpt lat="0" lon="0">
        <time>2021-02-28T09:11:38.225000+00:00</time>
      </trkpt>
      <trkpt lat="0" lon="0">
        <time>2021-02-28T09:11:38.227000+00:00</time>
      </trkpt>
      <trkpt lat="47.33207" lon="-1.43327">
        <ele>103</ele>
        <time>2021-02-28T09:11:39.241000+00:00</time>
      </trkpt>
      <trkpt lat="0" lon="0">
        <time>2021-02-28T09:11:39.250000+00:00</time>
      </trkpt>
      <trkpt lat="0" lon="0">
        <time>2021-02-28T09:11:39.255000+00:00</time>
      </trkpt>
      <trkpt lat="0" lon="0">
        <time>2021-02-28T09:11:39.257000+00:00</time>
      </trkpt>
      <trkpt lat="47.33206" lon="-1.43323">
        <ele>103</ele>
        <time>2021-02-28T09:11:40.223000+00:00</time>
      </trkpt>
      <trkpt lat="0" lon="0">
        <time>2021-02-28T09:11:40.232000+00:00</time>
      </trkpt>
      <trkpt lat="0" lon="0">
        <time>2021-02-28T09:11:40.235000+00:00</time>
      </trkpt>
      <trkpt lat="0" lon="0">
        <time>2021-02-28T09:11:40.238000+00:00</time>
      </trkpt>
      <trkpt lat="47.33205" lon="-1.43319">
        <ele>103</ele>
        <time>2021-02-28T09:11:41.241000+00:00</time>
      </trkpt>
      <trkpt lat="0" lon="0">
        <time>2021-02-28T09:11:41.249000+00:00</time>
      </trkpt>
      <trkpt lat="0" lon="0">
        <time>2021-02-28T09:11:41.255000+00:00</time>
      </trkpt>
      <trkpt lat="0" lon="0">
        <time>2021-02-28T09:11:41.257000+00:00</time>
      </trkpt>
      <trkpt lat="47.33204" lon="-1.43316">
        <ele>103</ele>
        <time>2021-02-28T09:11:42.219000+00:00</time>
      </trkpt>
      <trkpt lat="0" lon="0">
        <time>2021-02-28T09:11:42.225000+00:00</time>
      </trkpt>
      <trkpt lat="0" lon="0">
        <time>2021-02-28T09:11:42.230000+00:00</time>
      </trkpt>
      <trkpt lat="0" lon="0">
        <time>2021-02-28T09:11:42.233000+00:00</time>
      </trkpt>
      <trkpt lat="47.33203" lon="-1.43312">
        <ele>103</ele>
        <time>2021-02-28T09:11:43.233000+00:00</time>
      </trkpt>
      <trkpt lat="0" lon="0">
        <time>2021-02-28T09:11:43.237000+00:00</time>
      </trkpt>
      <trkpt lat="0" lon="0">
        <time>2021-02-28T09:11:43.242000+00:00</time>
      </trkpt>
      <trkpt lat="0" lon="0">
        <time>2021-02-28T09:11:43.244000+00:00</time>
      </trkpt>
      <trkpt lat="47.33202" lon="-1.43309">
        <ele>104</ele>
        <time>2021-02-28T09:11:44.204000+00:00</time>
      </trkpt>
      <trkpt lat="0" lon="0">
        <time>2021-02-28T09:11:44.211000+00:00</time>
      </trkpt>
      <trkpt lat="0" lon="0">
        <time>2021-02-28T09:11:44.215000+00:00</time>
      </trkpt>
      <trkpt lat="0" lon="0">
        <time>2021-02-28T09:11:44.222000+00:00</time>
      </trkpt>
      <trkpt lat="47.33201" lon="-1.43306">
        <ele>104</ele>
        <time>2021-02-28T09:11:45.211000+00:00</time>
      </trkpt>
      <trkpt lat="0" lon="0">
        <time>2021-02-28T09:11:45.217000+00:00</time>
      </trkpt>
      <trkpt lat="0" lon="0">
        <time>2021-02-28T09:11:45.221000+00:00</time>
      </trkpt>
      <trkpt lat="0" lon="0">
        <time>2021-02-28T09:11:45.223000+00:00</time>
      </trkpt>
      <trkpt lat="47.332" lon="-1.43304">
        <ele>103</ele>
        <time>2021-02-28T09:11:46.225000+00:00</time>
      </trkpt>
      <trkpt lat="0" lon="0">
        <time>2021-02-28T09:11:46.232000+00:00</time>
      </trkpt>
      <trkpt lat="0" lon="0">
        <time>2021-02-28T09:11:46.238000+00:00</time>
      </trkpt>
      <trkpt lat="0" lon="0">
        <time>2021-02-28T09:11:46.242000+00:00</time>
      </trkpt>
      <trkpt lat="47.33199" lon="-1.43302">
        <ele>103</ele>
        <time>2021-02-28T09:11:47.235000+00:00</time>
      </trkpt>
      <trkpt lat="0" lon="0">
        <time>2021-02-28T09:11:47.241000+00:00</time>
      </trkpt>
      <trkpt lat="0" lon="0">
        <time>2021-02-28T09:11:47.247000+00:00</time>
      </trkpt>
      <trkpt lat="0" lon="0">
        <time>2021-02-28T09:11:47.249000+00:00</time>
      </trkpt>
      <trkpt lat="47.33198" lon="-1.433">
        <ele>103</ele>
        <time>2021-02-28T09:11:48.204000+00:00</time>
      </trkpt>
      <trkpt lat="0" lon="0">
        <time>2021-02-28T09:11:48.214000+00:00</time>
      </trkpt>
      <trkpt lat="0" lon="0">
        <time>2021-02-28T09:11:48.221000+00:00</time>
      </trkpt>
      <trkpt lat="0" lon="0">
        <time>2021-02-28T09:11:48.224000+00:00</time>
      </trkpt>
      <trkpt lat="47.33198" lon="-1.43299">
        <ele>102</ele>
        <time>2021-02-28T09:11:49.210000+00:00</time>
      </trkpt>
      <trkpt lat="0" lon="0">
        <time>2021-02-28T09:11:49.229000+00:00</time>
      </trkpt>
      <trkpt lat="0" lon="0">
        <time>2021-02-28T09:11:49.235000+00:00</time>
      </trkpt>
      <trkpt lat="0" lon="0">
        <time>2021-02-28T09:11:49.238000+00:00</time>
      </trkpt>
      <trkpt lat="47.33197" lon="-1.43298">
        <ele>102</ele>
        <time>2021-02-28T09:11:50.210000+00:00</time>
      </trkpt>
      <trkpt lat="0" lon="0">
        <time>2021-02-28T09:11:50.219000+00:00</time>
      </trkpt>
      <trkpt lat="0" lon="0">
        <time>2021-02-28T09:11:50.225000+00:00</time>
      </trkpt>
      <trkpt lat="0" lon="0">
        <time>2021-02-28T09:11:50.228000+00:00</time>
      </trkpt>
      <trkpt lat="47.33197" lon="-1.43297">
        <ele>102</ele>
        <time>2021-02-28T09:11:51.225000+00:00</time>
      </trkpt>
      <trkpt lat="0" lon="0">
        <time>2021-02-28T09:11:51.239000+00:00</time>
      </trkpt>
      <trkpt lat="0" lon="0">
        <time>2021-02-28T09:11:51.247000+00:00</time>
      </trkpt>
      <trkpt lat="0" lon="0">
        <time>2021-02-28T09:11:51.254000+00:00</time>
      </trkpt>
      <trkpt lat="47.33196" lon="-1.43297">
        <ele>103</ele>
        <time>2021-02-28T09:11:52.220000+00:00</time>
      </trkpt>
      <trkpt lat="0" lon="0">
        <time>2021-02-28T09:11:52.225000+00:00</time>
      </trkpt>
      <trkpt lat="0" lon="0">
        <time>2021-02-28T09:11:52.233000+00:00</time>
      </trkpt>
      <trkpt lat="0" lon="0">
        <time>2021-02-28T09:11:52.236000+00:00</time>
      </trkpt>
      <trkpt lat="47.33196" lon="-1.43297">
        <ele>103</ele>
        <time>2021-02-28T09:11:53.205000+00:00</time>
      </trkpt>
      <trkpt lat="0" lon="0">
        <time>2021-02-28T09:11:53.220000+00:00</time>
      </trkpt>
      <trkpt lat="0" lon="0">
        <time>2021-02-28T09:11:53.225000+00:00</time>
      </trkpt>
      <trkpt lat="0" lon="0">
        <time>2021-02-28T09:11:53.228000+00:00</time>
      </trkpt>
      <trkpt lat="47.33196" lon="-1.43297">
        <ele>103</ele>
        <time>2021-02-28T09:11:54.221000+00:00</time>
      </trkpt>
      <trkpt lat="0" lon="0">
        <time>2021-02-28T09:11:54.232000+00:00</time>
      </trkpt>
      <trkpt lat="0" lon="0">
        <time>2021-02-28T09:11:54.237000+00:00</time>
      </trkpt>
      <trkpt lat="0" lon="0">
        <time>2021-02-28T09:11:54.239000+00:00</time>
      </trkpt>
      <trkpt lat="47.33195" lon="-1.43297">
        <ele>103</ele>
        <time>2021-02-28T09:11:55.237000+00:00</time>
      </trkpt>
      <trkpt lat="0" lon="0">
        <time>2021-02-28T09:11:55.250000+00:00</time>
      </trkpt>
      <trkpt lat="0" lon="0">
        <time>2021-02-28T09:11:55.254000+00:00</time>
      </trkpt>
      <trkpt lat="0" lon="0">
        <time>2021-02-28T09:11:55.260000+00:00</time>
      </trkpt>
      <trkpt lat="47.33195" lon="-1.43298">
        <ele>103</ele>
        <time>2021-02-28T09:11:56.231000+00:00</time>
      </trkpt>
      <trkpt lat="0" lon="0">
        <time>2021-02-28T09:11:56.239000+00:00</time>
      </trkpt>
      <trkpt lat="0" lon="0">
        <time>2021-02-28T09:11:56.243000+00:00</time>
      </trkpt>
      <trkpt lat="0" lon="0">
        <time>2021-02-28T09:11:56.245000+00:00</time>
      </trkpt>
      <trkpt lat="47.33194" lon="-1.43298">
        <ele>103</ele>
        <time>2021-02-28T09:11:57.249000+00:00</time>
      </trkpt>
      <trkpt lat="0" lon="0">
        <time>2021-02-28T09:11:57.260000+00:00</time>
      </trkpt>
      <trkpt lat="0" lon="0">
        <time>2021-02-28T09:11:57.267000+00:00</time>
      </trkpt>
      <trkpt lat="0" lon="0">
        <time>2021-02-28T09:11:57.272000+00:00</time>
      </trkpt>
      <trkpt lat="47.33194" lon="-1.43298">
        <ele>103</ele>
        <time>2021-02-28T09:11:58.174000+00:00</time>
      </trkpt>
      <trkpt lat="0" lon="0">
        <time>2021-02-28T09:11:58.180000+00:00</time>
      </trkpt>
      <trkpt lat="0" lon="0">
        <time>2021-02-28T09:11:58.184000+00:00</time>
      </trkpt>
      <trkpt lat="0" lon="0">
        <time>2021-02-28T09:11:58.189000+00:00</time>
      </trkpt>
      <trkpt lat="47.33194" lon="-1.43299">
        <ele>103</ele>
        <time>2021-02-28T09:11:59.187000+00:00</time>
      </trkpt>
      <trkpt lat="0" lon="0">
        <time>2021-02-28T09:11:59.196000+00:00</time>
      </trkpt>
      <trkpt lat="0" lon="0">
        <time>2021-02-28T09:11:59.199000+00:00</time>
      </trkpt>
      <trkpt lat="0" lon="0">
        <time>2021-02-28T09:11:59.208000+00:00</time>
      </trkpt>
      <trkpt lat="47.33171" lon="-1.43318">
        <ele>103</ele>
        <time>2021-02-28T09:12:00.251000+00:00</time>
      </trkpt>
      <trkpt lat="0" lon="0">
        <time>2021-02-28T09:12:00.258000+00:00</time>
      </trkpt>
      <trkpt lat="0" lon="0">
        <time>2021-02-28T09:12:00.261000+00:00</time>
      </trkpt>
      <trkpt lat="0" lon="0">
        <time>2021-02-28T09:12:00.263000+00:00</time>
      </trkpt>
      <trkpt lat="47.33169" lon="-1.4332">
        <ele>103</ele>
        <time>2021-02-28T09:12:01.208000+00:00</time>
      </trkpt>
      <trkpt lat="0" lon="0">
        <time>2021-02-28T09:12:01.213000+00:00</time>
      </trkpt>
      <trkpt lat="0" lon="0">
        <time>2021-02-28T09:12:01.220000+00:00</time>
      </trkpt>
      <trkpt lat="0" lon="0">
        <time>2021-02-28T09:12:01.223000+00:00</time>
      </trkpt>
      <trkpt lat="47.33166" lon="-1.43322">
        <ele>103</ele>
        <time>2021-02-28T09:12:02.236000+00:00</time>
      </trkpt>
      <trkpt lat="0" lon="0">
        <time>2021-02-28T09:12:02.243000+00:00</time>
      </trkpt>
      <trkpt lat="0" lon="0">
        <time>2021-02-28T09:12:02.248000+00:00</time>
      </trkpt>
      <trkpt lat="0" lon="0">
        <time>2021-02-28T09:12:02.250000+00:00</time>
      </trkpt>
      <trkpt lat="47.33164" lon="-1.43324">
        <ele>103</ele>
        <time>2021-02-28T09:12:03.227000+00:00</time>
      </trkpt>
      <trkpt lat="0" lon="0">
        <time>2021-02-28T09:12:03.235000+00:00</time>
      </trkpt>
      <trkpt lat="0" lon="0">
        <time>2021-02-28T09:12:03.240000+00:00</time>
      </trkpt>
      <trkpt lat="0" lon="0">
        <time>2021-02-28T09:12:03.242000+00:00</time>
      </trkpt>
      <trkpt lat="47.33161" lon="-1.43326">
        <ele>103</ele>
        <time>2021-02-28T09:12:04.223000+00:00</time>
      </trkpt>
      <trkpt lat="0" lon="0">
        <time>2021-02-28T09:12:04.228000+00:00</time>
      </trkpt>
      <trkpt lat="0" lon="0">
        <time>2021-02-28T09:12:04.233000+00:00</time>
      </trkpt>
      <trkpt lat="0" lon="0">
        <time>2021-02-28T09:12:04.236000+00:00</time>
      </trkpt>
      <trkpt lat="47.33158" lon="-1.43327">
        <ele>102</ele>
        <time>2021-02-28T09:12:05.246000+00:00</time>
      </trkpt>
      <trkpt lat="0" lon="0">
        <time>2021-02-28T09:12:05.252000+00:00</time>
      </trkpt>
      <trkpt lat="0" lon="0">
        <time>2021-02-28T09:12:05.259000+00:00</time>
      </trkpt>
      <trkpt lat="0" lon="0">
        <time>2021-02-28T09:12:05.263000+00:00</time>
      </trkpt>
      <trkpt lat="47.33156" lon="-1.43329">
        <ele>102</ele>
        <time>2021-02-28T09:12:06.201000+00:00</time>
      </trkpt>
      <trkpt lat="0" lon="0">
        <time>2021-02-28T09:12:06.205000+00:00</time>
      </trkpt>
      <trkpt lat="0" lon="0">
        <time>2021-02-28T09:12:06.210000+00:00</time>
      </trkpt>
      <trkpt lat="0" lon="0">
        <time>2021-02-28T09:12:06.213000+00:00</time>
      </trkpt>
      <trkpt lat="47.33153" lon="-1.43331">
        <ele>102</ele>
        <time>2021-02-28T09:12:07.157000+00:00</time>
      </trkpt>
      <trkpt lat="0" lon="0">
        <time>2021-02-28T09:12:07.160000+00:00</time>
      </trkpt>
      <trkpt lat="0" lon="0">
        <time>2021-02-28T09:12:07.171000+00:00</time>
      </trkpt>
      <trkpt lat="0" lon="0">
        <time>2021-02-28T09:12:07.173000+00:00</time>
      </trkpt>
      <trkpt lat="47.3315" lon="-1.43332">
        <ele>102</ele>
        <time>2021-02-28T09:12:08.227000+00:00</time>
      </trkpt>
      <trkpt lat="0" lon="0">
        <time>2021-02-28T09:12:08.237000+00:00</time>
      </trkpt>
      <trkpt lat="0" lon="0">
        <time>2021-02-28T09:12:08.242000+00:00</time>
      </trkpt>
      <trkpt lat="0" lon="0">
        <time>2021-02-28T09:12:08.245000+00:00</time>
      </trkpt>
      <trkpt lat="47.33148" lon="-1.43335">
        <ele>102</ele>
        <time>2021-02-28T09:12:09.224000+00:00</time>
      </trkpt>
      <trkpt lat="0" lon="0">
        <time>2021-02-28T09:12:09.229000+00:00</time>
      </trkpt>
      <trkpt lat="0" lon="0">
        <time>2021-02-28T09:12:09.233000+00:00</time>
      </trkpt>
      <trkpt lat="0" lon="0">
        <time>2021-02-28T09:12:09.235000+00:00</time>
      </trkpt>
      <trkpt lat="47.33146" lon="-1.43337">
        <ele>101</ele>
        <time>2021-02-28T09:12:10.234000+00:00</time>
      </trkpt>
      <trkpt lat="0" lon="0">
        <time>2021-02-28T09:12:10.240000+00:00</time>
      </trkpt>
      <trkpt lat="0" lon="0">
        <time>2021-02-28T09:12:10.242000+00:00</time>
      </trkpt>
      <trkpt lat="0" lon="0">
        <time>2021-02-28T09:12:10.243000+00:00</time>
      </trkpt>
      <trkpt lat="47.33144" lon="-1.4334">
        <ele>101</ele>
        <time>2021-02-28T09:12:11.196000+00:00</time>
      </trkpt>
      <trkpt lat="0" lon="0">
        <time>2021-02-28T09:12:11.204000+00:00</time>
      </trkpt>
      <trkpt lat="0" lon="0">
        <time>2021-02-28T09:12:11.209000+00:00</time>
      </trkpt>
      <trkpt lat="0" lon="0">
        <time>2021-02-28T09:12:11.212000+00:00</time>
      </trkpt>
      <trkpt lat="47.33142" lon="-1.43342">
        <ele>101</ele>
        <time>2021-02-28T09:12:12.238000+00:00</time>
      </trkpt>
      <trkpt lat="0" lon="0">
        <time>2021-02-28T09:12:12.240000+00:00</time>
      </trkpt>
      <trkpt lat="0" lon="0">
        <time>2021-02-28T09:12:12.245000+00:00</time>
      </trkpt>
      <trkpt lat="0" lon="0">
        <time>2021-02-28T09:12:12.248000+00:00</time>
      </trkpt>
      <trkpt lat="47.3314" lon="-1.43344">
        <ele>101</ele>
        <time>2021-02-28T09:12:13.224000+00:00</time>
      </trkpt>
      <trkpt lat="0" lon="0">
        <time>2021-02-28T09:12:13.231000+00:00</time>
      </trkpt>
      <trkpt lat="0" lon="0">
        <time>2021-02-28T09:12:13.235000+00:00</time>
      </trkpt>
      <trkpt lat="0" lon="0">
        <time>2021-02-28T09:12:13.237000+00:00</time>
      </trkpt>
      <trkpt lat="47.33139" lon="-1.43346">
        <ele>101</ele>
        <time>2021-02-28T09:12:14.229000+00:00</time>
      </trkpt>
      <trkpt lat="0" lon="0">
        <time>2021-02-28T09:12:14.240000+00:00</time>
      </trkpt>
      <trkpt lat="0" lon="0">
        <time>2021-02-28T09:12:14.247000+00:00</time>
      </trkpt>
      <trkpt lat="0" lon="0">
        <time>2021-02-28T09:12:14.250000+00:00</time>
      </trkpt>
      <trkpt lat="47.33138" lon="-1.43348">
        <ele>101</ele>
        <time>2021-02-28T09:12:15.220000+00:00</time>
      </trkpt>
      <trkpt lat="0" lon="0">
        <time>2021-02-28T09:12:15.236000+00:00</time>
      </trkpt>
      <trkpt lat="0" lon="0">
        <time>2021-02-28T09:12:15.242000+00:00</time>
      </trkpt>
      <trkpt lat="0" lon="0">
        <time>2021-02-28T09:12:15.244000+00:00</time>
      </trkpt>
      <trkpt lat="47.33137" lon="-1.4335">
        <ele>101</ele>
        <time>2021-02-28T09:12:16.225000+00:00</time>
      </trkpt>
      <trkpt lat="0" lon="0">
        <time>2021-02-28T09:12:16.230000+00:00</time>
      </trkpt>
      <trkpt lat="0" lon="0">
        <time>2021-02-28T09:12:16.236000+00:00</time>
      </trkpt>
      <trkpt lat="0" lon="0">
        <time>2021-02-28T09:12:16.238000+00:00</time>
      </trkpt>
      <trkpt lat="47.33136" lon="-1.43353">
        <ele>102</ele>
        <time>2021-02-28T09:12:17.225000+00:00</time>
      </trkpt>
      <trkpt lat="0" lon="0">
        <time>2021-02-28T09:12:17.237000+00:00</time>
      </trkpt>
      <trkpt lat="0" lon="0">
        <time>2021-02-28T09:12:17.242000+00:00</time>
      </trkpt>
      <trkpt lat="0" lon="0">
        <time>2021-02-28T09:12:17.245000+00:00</time>
      </trkpt>
      <trkpt lat="47.33135" lon="-1.43357">
        <ele>102</ele>
        <time>2021-02-28T09:12:18.221000+00:00</time>
      </trkpt>
      <trkpt lat="0" lon="0">
        <time>2021-02-28T09:12:18.229000+00:00</time>
      </trkpt>
      <trkpt lat="0" lon="0">
        <time>2021-02-28T09:12:18.236000+00:00</time>
      </trkpt>
      <trkpt lat="0" lon="0">
        <time>2021-02-28T09:12:18.239000+00:00</time>
      </trkpt>
      <trkpt lat="47.33134" lon="-1.4336">
        <ele>101</ele>
        <time>2021-02-28T09:12:19.193000+00:00</time>
      </trkpt>
      <trkpt lat="0" lon="0">
        <time>2021-02-28T09:12:19.197000+00:00</time>
      </trkpt>
      <trkpt lat="0" lon="0">
        <time>2021-02-28T09:12:19.202000+00:00</time>
      </trkpt>
      <trkpt lat="0" lon="0">
        <time>2021-02-28T09:12:19.203000+00:00</time>
      </trkpt>
      <trkpt lat="47.33134" lon="-1.43363">
        <ele>101</ele>
        <time>2021-02-28T09:12:20.195000+00:00</time>
      </trkpt>
      <trkpt lat="0" lon="0">
        <time>2021-02-28T09:12:20.208000+00:00</time>
      </trkpt>
      <trkpt lat="0" lon="0">
        <time>2021-02-28T09:12:20.215000+00:00</time>
      </trkpt>
      <trkpt lat="0" lon="0">
        <time>2021-02-28T09:12:20.220000+00:00</time>
      </trkpt>
      <trkpt lat="47.33133" lon="-1.43366">
        <ele>100</ele>
        <time>2021-02-28T09:12:21.199000+00:00</time>
      </trkpt>
      <trkpt lat="0" lon="0">
        <time>2021-02-28T09:12:21.210000+00:00</time>
      </trkpt>
      <trkpt lat="0" lon="0">
        <time>2021-02-28T09:12:21.217000+00:00</time>
      </trkpt>
      <trkpt lat="0" lon="0">
        <time>2021-02-28T09:12:21.219000+00:00</time>
      </trkpt>
      <trkpt lat="47.33132" lon="-1.43368">
        <ele>100</ele>
        <time>2021-02-28T09:12:22.207000+00:00</time>
      </trkpt>
      <trkpt lat="0" lon="0">
        <time>2021-02-28T09:12:22.213000+00:00</time>
      </trkpt>
      <trkpt lat="0" lon="0">
        <time>2021-02-28T09:12:22.218000+00:00</time>
      </trkpt>
      <trkpt lat="0" lon="0">
        <time>2021-02-28T09:12:22.220000+00:00</time>
      </trkpt>
      <trkpt lat="47.33131" lon="-1.43369">
        <ele>99</ele>
        <time>2021-02-28T09:12:23.194000+00:00</time>
      </trkpt>
      <trkpt lat="0" lon="0">
        <time>2021-02-28T09:12:23.208000+00:00</time>
      </trkpt>
      <trkpt lat="0" lon="0">
        <time>2021-02-28T09:12:23.215000+00:00</time>
      </trkpt>
      <trkpt lat="0" lon="0">
        <time>2021-02-28T09:12:23.218000+00:00</time>
      </trkpt>
      <trkpt lat="47.3313" lon="-1.43371">
        <ele>99</ele>
        <time>2021-02-28T09:12:24.190000+00:00</time>
      </trkpt>
      <trkpt lat="0" lon="0">
        <time>2021-02-28T09:12:24.196000+00:00</time>
      </trkpt>
      <trkpt lat="0" lon="0">
        <time>2021-02-28T09:12:24.199000+00:00</time>
      </trkpt>
      <trkpt lat="0" lon="0">
        <time>2021-02-28T09:12:24.202000+00:00</time>
      </trkpt>
      <trkpt lat="47.33128" lon="-1.43373">
        <ele>98</ele>
        <time>2021-02-28T09:12:25.219000+00:00</time>
      </trkpt>
      <trkpt lat="0" lon="0">
        <time>2021-02-28T09:12:25.231000+00:00</time>
      </trkpt>
      <trkpt lat="0" lon="0">
        <time>2021-02-28T09:12:25.237000+00:00</time>
      </trkpt>
      <trkpt lat="0" lon="0">
        <time>2021-02-28T09:12:25.239000+00:00</time>
      </trkpt>
      <trkpt lat="47.33127" lon="-1.43374">
        <ele>98</ele>
        <time>2021-02-28T09:12:26.226000+00:00</time>
      </trkpt>
      <trkpt lat="0" lon="0">
        <time>2021-02-28T09:12:26.230000+00:00</time>
      </trkpt>
      <trkpt lat="0" lon="0">
        <time>2021-02-28T09:12:26.235000+00:00</time>
      </trkpt>
      <trkpt lat="0" lon="0">
        <time>2021-02-28T09:12:26.237000+00:00</time>
      </trkpt>
      <trkpt lat="47.33125" lon="-1.43376">
        <ele>98</ele>
        <time>2021-02-28T09:12:27.197000+00:00</time>
      </trkpt>
      <trkpt lat="0" lon="0">
        <time>2021-02-28T09:12:27.199000+00:00</time>
      </trkpt>
      <trkpt lat="0" lon="0">
        <time>2021-02-28T09:12:27.201000+00:00</time>
      </trkpt>
      <trkpt lat="0" lon="0">
        <time>2021-02-28T09:12:27.203000+00:00</time>
      </trkpt>
      <trkpt lat="47.33123" lon="-1.43377">
        <ele>98</ele>
        <time>2021-02-28T09:12:28.207000+00:00</time>
      </trkpt>
      <trkpt lat="0" lon="0">
        <time>2021-02-28T09:12:28.217000+00:00</time>
      </trkpt>
      <trkpt lat="0" lon="0">
        <time>2021-02-28T09:12:28.222000+00:00</time>
      </trkpt>
      <trkpt lat="0" lon="0">
        <time>2021-02-28T09:12:28.225000+00:00</time>
      </trkpt>
      <trkpt lat="47.33121" lon="-1.43378">
        <ele>97</ele>
        <time>2021-02-28T09:12:29.221000+00:00</time>
      </trkpt>
      <trkpt lat="0" lon="0">
        <time>2021-02-28T09:12:29.223000+00:00</time>
      </trkpt>
      <trkpt lat="0" lon="0">
        <time>2021-02-28T09:12:29.227000+00:00</time>
      </trkpt>
      <trkpt lat="0" lon="0">
        <time>2021-02-28T09:12:29.229000+00:00</time>
      </trkpt>
      <trkpt lat="47.33119" lon="-1.43378">
        <ele>97</ele>
        <time>2021-02-28T09:12:30.204000+00:00</time>
      </trkpt>
      <trkpt lat="0" lon="0">
        <time>2021-02-28T09:12:30.211000+00:00</time>
      </trkpt>
      <trkpt lat="0" lon="0">
        <time>2021-02-28T09:12:30.220000+00:00</time>
      </trkpt>
      <trkpt lat="0" lon="0">
        <time>2021-02-28T09:12:30.223000+00:00</time>
      </trkpt>
      <trkpt lat="47.33117" lon="-1.43378">
        <ele>97</ele>
        <time>2021-02-28T09:12:31.201000+00:00</time>
      </trkpt>
      <trkpt lat="0" lon="0">
        <time>2021-02-28T09:12:31.209000+00:00</time>
      </trkpt>
      <trkpt lat="0" lon="0">
        <time>2021-02-28T09:12:31.216000+00:00</time>
      </trkpt>
      <trkpt lat="0" lon="0">
        <time>2021-02-28T09:12:31.218000+00:00</time>
      </trkpt>
      <trkpt lat="47.33115" lon="-1.43377">
        <ele>96</ele>
        <time>2021-02-28T09:12:32.222000+00:00</time>
      </trkpt>
      <trkpt lat="0" lon="0">
        <time>2021-02-28T09:12:32.230000+00:00</time>
      </trkpt>
      <trkpt lat="0" lon="0">
        <time>2021-02-28T09:12:32.234000+00:00</time>
      </trkpt>
      <trkpt lat="0" lon="0">
        <time>2021-02-28T09:12:32.237000+00:00</time>
      </trkpt>
      <trkpt lat="47.33112" lon="-1.43376">
        <ele>95</ele>
        <time>2021-02-28T09:12:33.183000+00:00</time>
      </trkpt>
      <trkpt lat="0" lon="0">
        <time>2021-02-28T09:12:33.191000+00:00</time>
      </trkpt>
      <trkpt lat="0" lon="0">
        <time>2021-02-28T09:12:33.196000+00:00</time>
      </trkpt>
      <trkpt lat="0" lon="0">
        <time>2021-02-28T09:12:33.199000+00:00</time>
      </trkpt>
      <trkpt lat="47.33109" lon="-1.43376">
        <ele>96</ele>
        <time>2021-02-28T09:12:34.194000+00:00</time>
      </trkpt>
      <trkpt lat="0" lon="0">
        <time>2021-02-28T09:12:34.199000+00:00</time>
      </trkpt>
      <trkpt lat="0" lon="0">
        <time>2021-02-28T09:12:34.203000+00:00</time>
      </trkpt>
      <trkpt lat="0" lon="0">
        <time>2021-02-28T09:12:34.206000+00:00</time>
      </trkpt>
      <trkpt lat="47.33106" lon="-1.43377">
        <ele>96</ele>
        <time>2021-02-28T09:12:35.202000+00:00</time>
      </trkpt>
      <trkpt lat="0" lon="0">
        <time>2021-02-28T09:12:35.209000+00:00</time>
      </trkpt>
      <trkpt lat="0" lon="0">
        <time>2021-02-28T09:12:35.214000+00:00</time>
      </trkpt>
      <trkpt lat="0" lon="0">
        <time>2021-02-28T09:12:35.219000+00:00</time>
      </trkpt>
      <trkpt lat="47.33103" lon="-1.43378">
        <ele>95</ele>
        <time>2021-02-28T09:12:36.184000+00:00</time>
      </trkpt>
      <trkpt lat="0" lon="0">
        <time>2021-02-28T09:12:36.188000+00:00</time>
      </trkpt>
      <trkpt lat="0" lon="0">
        <time>2021-02-28T09:12:36.193000+00:00</time>
      </trkpt>
      <trkpt lat="0" lon="0">
        <time>2021-02-28T09:12:36.195000+00:00</time>
      </trkpt>
      <trkpt lat="47.33101" lon="-1.43379">
        <ele>95</ele>
        <time>2021-02-28T09:12:37.190000+00:00</time>
      </trkpt>
      <trkpt lat="0" lon="0">
        <time>2021-02-28T09:12:37.195000+00:00</time>
      </trkpt>
      <trkpt lat="0" lon="0">
        <time>2021-02-28T09:12:37.200000+00:00</time>
      </trkpt>
      <trkpt lat="0" lon="0">
        <time>2021-02-28T09:12:37.203000+00:00</time>
      </trkpt>
      <trkpt lat="47.33098" lon="-1.43381">
        <ele>96</ele>
        <time>2021-02-28T09:12:38.197000+00:00</time>
      </trkpt>
      <trkpt lat="0" lon="0">
        <time>2021-02-28T09:12:38.207000+00:00</time>
      </trkpt>
      <trkpt lat="0" lon="0">
        <time>2021-02-28T09:12:38.212000+00:00</time>
      </trkpt>
      <trkpt lat="0" lon="0">
        <time>2021-02-28T09:12:38.215000+00:00</time>
      </trkpt>
      <trkpt lat="47.33096" lon="-1.43383">
        <ele>96</ele>
        <time>2021-02-28T09:12:39.198000+00:00</time>
      </trkpt>
      <trkpt lat="0" lon="0">
        <time>2021-02-28T09:12:39.205000+00:00</time>
      </trkpt>
      <trkpt lat="0" lon="0">
        <time>2021-02-28T09:12:39.209000+00:00</time>
      </trkpt>
      <trkpt lat="0" lon="0">
        <time>2021-02-28T09:12:39.212000+00:00</time>
      </trkpt>
      <trkpt lat="47.33094" lon="-1.43385">
        <ele>96</ele>
        <time>2021-02-28T09:12:40.258000+00:00</time>
      </trkpt>
      <trkpt lat="0" lon="0">
        <time>2021-02-28T09:12:40.266000+00:00</time>
      </trkpt>
      <trkpt lat="0" lon="0">
        <time>2021-02-28T09:12:40.271000+00:00</time>
      </trkpt>
      <trkpt lat="0" lon="0">
        <time>2021-02-28T09:12:40.273000+00:00</time>
      </trkpt>
      <trkpt lat="47.33092" lon="-1.43388">
        <ele>96</ele>
        <time>2021-02-28T09:12:41.211000+00:00</time>
      </trkpt>
      <trkpt lat="0" lon="0">
        <time>2021-02-28T09:12:41.224000+00:00</time>
      </trkpt>
      <trkpt lat="0" lon="0">
        <time>2021-02-28T09:12:41.231000+00:00</time>
      </trkpt>
      <trkpt lat="0" lon="0">
        <time>2021-02-28T09:12:41.234000+00:00</time>
      </trkpt>
      <trkpt lat="47.33091" lon="-1.43391">
        <ele>96</ele>
        <time>2021-02-28T09:12:42.211000+00:00</time>
      </trkpt>
      <trkpt lat="0" lon="0">
        <time>2021-02-28T09:12:42.220000+00:00</time>
      </trkpt>
      <trkpt lat="0" lon="0">
        <time>2021-02-28T09:12:42.224000+00:00</time>
      </trkpt>
      <trkpt lat="0" lon="0">
        <time>2021-02-28T09:12:42.226000+00:00</time>
      </trkpt>
      <trkpt lat="47.3309" lon="-1.43394">
        <ele>96</ele>
        <time>2021-02-28T09:12:43.223000+00:00</time>
      </trkpt>
      <trkpt lat="0" lon="0">
        <time>2021-02-28T09:12:43.236000+00:00</time>
      </trkpt>
      <trkpt lat="0" lon="0">
        <time>2021-02-28T09:12:43.240000+00:00</time>
      </trkpt>
      <trkpt lat="0" lon="0">
        <time>2021-02-28T09:12:43.243000+00:00</time>
      </trkpt>
      <trkpt lat="47.33088" lon="-1.43397">
        <ele>96</ele>
        <time>2021-02-28T09:12:44.225000+00:00</time>
      </trkpt>
      <trkpt lat="0" lon="0">
        <time>2021-02-28T09:12:44.236000+00:00</time>
      </trkpt>
      <trkpt lat="0" lon="0">
        <time>2021-02-28T09:12:44.243000+00:00</time>
      </trkpt>
      <trkpt lat="0" lon="0">
        <time>2021-02-28T09:12:44.245000+00:00</time>
      </trkpt>
      <trkpt lat="47.33088" lon="-1.434">
        <ele>97</ele>
        <time>2021-02-28T09:12:45.182000+00:00</time>
      </trkpt>
      <trkpt lat="0" lon="0">
        <time>2021-02-28T09:12:45.187000+00:00</time>
      </trkpt>
      <trkpt lat="0" lon="0">
        <time>2021-02-28T09:12:45.191000+00:00</time>
      </trkpt>
      <trkpt lat="0" lon="0">
        <time>2021-02-28T09:12:45.195000+00:00</time>
      </trkpt>
      <trkpt lat="47.33087" lon="-1.43403">
        <ele>97</ele>
        <time>2021-02-28T09:12:46.204000+00:00</time>
      </trkpt>
      <trkpt lat="0" lon="0">
        <time>2021-02-28T09:12:46.211000+00:00</time>
      </trkpt>
      <trkpt lat="0" lon="0">
        <time>2021-02-28T09:12:46.215000+00:00</time>
      </trkpt>
      <trkpt lat="0" lon="0">
        <time>2021-02-28T09:12:46.218000+00:00</time>
      </trkpt>
      <trkpt lat="47.33088" lon="-1.43406">
        <ele>96</ele>
        <time>2021-02-28T09:12:47.206000+00:00</time>
      </trkpt>
      <trkpt lat="0" lon="0">
        <time>2021-02-28T09:12:47.216000+00:00</time>
      </trkpt>
      <trkpt lat="0" lon="0">
        <time>2021-02-28T09:12:47.223000+00:00</time>
      </trkpt>
      <trkpt lat="0" lon="0">
        <time>2021-02-28T09:12:47.227000+00:00</time>
      </trkpt>
      <trkpt lat="47.33089" lon="-1.43409">
        <ele>96</ele>
        <time>2021-02-28T09:12:48.209000+00:00</time>
      </trkpt>
      <trkpt lat="0" lon="0">
        <time>2021-02-28T09:12:48.215000+00:00</time>
      </trkpt>
      <trkpt lat="0" lon="0">
        <time>2021-02-28T09:12:48.222000+00:00</time>
      </trkpt>
      <trkpt lat="0" lon="0">
        <time>2021-02-28T09:12:48.225000+00:00</time>
      </trkpt>
      <trkpt lat="47.3309" lon="-1.43412">
        <ele>96</ele>
        <time>2021-02-28T09:12:49.212000+00:00</time>
      </trkpt>
      <trkpt lat="0" lon="0">
        <time>2021-02-28T09:12:49.220000+00:00</time>
      </trkpt>
      <trkpt lat="0" lon="0">
        <time>2021-02-28T09:12:49.225000+00:00</time>
      </trkpt>
      <trkpt lat="0" lon="0">
        <time>2021-02-28T09:12:49.228000+00:00</time>
      </trkpt>
      <trkpt lat="47.33092" lon="-1.43416">
        <ele>96</ele>
        <time>2021-02-28T09:12:50.236000+00:00</time>
      </trkpt>
      <trkpt lat="0" lon="0">
        <time>2021-02-28T09:12:50.248000+00:00</time>
      </trkpt>
      <trkpt lat="0" lon="0">
        <time>2021-02-28T09:12:50.253000+00:00</time>
      </trkpt>
      <trkpt lat="0" lon="0">
        <time>2021-02-28T09:12:50.255000+00:00</time>
      </trkpt>
      <trkpt lat="47.33094" lon="-1.43419">
        <ele>96</ele>
        <time>2021-02-28T09:12:51.223000+00:00</time>
      </trkpt>
      <trkpt lat="0" lon="0">
        <time>2021-02-28T09:12:51.229000+00:00</time>
      </trkpt>
      <trkpt lat="0" lon="0">
        <time>2021-02-28T09:12:51.233000+00:00</time>
      </trkpt>
      <trkpt lat="0" lon="0">
        <time>2021-02-28T09:12:51.235000+00:00</time>
      </trkpt>
      <trkpt lat="47.33096" lon="-1.43424">
        <ele>95</ele>
        <time>2021-02-28T09:12:52.242000+00:00</time>
      </trkpt>
      <trkpt lat="0" lon="0">
        <time>2021-02-28T09:12:52.250000+00:00</time>
      </trkpt>
      <trkpt lat="0" lon="0">
        <time>2021-02-28T09:12:52.254000+00:00</time>
      </trkpt>
      <trkpt lat="0" lon="0">
        <time>2021-02-28T09:12:52.257000+00:00</time>
      </trkpt>
      <trkpt lat="47.33098" lon="-1.43428">
        <ele>95</ele>
        <time>2021-02-28T09:12:53.174000+00:00</time>
      </trkpt>
      <trkpt lat="0" lon="0">
        <time>2021-02-28T09:12:53.179000+00:00</time>
      </trkpt>
      <trkpt lat="0" lon="0">
        <time>2021-02-28T09:12:53.185000+00:00</time>
      </trkpt>
      <trkpt lat="0" lon="0">
        <time>2021-02-28T09:12:53.189000+00:00</time>
      </trkpt>
      <trkpt lat="47.33101" lon="-1.43433">
        <ele>95</ele>
        <time>2021-02-28T09:12:54.232000+00:00</time>
      </trkpt>
      <trkpt lat="0" lon="0">
        <time>2021-02-28T09:12:54.238000+00:00</time>
      </trkpt>
      <trkpt lat="0" lon="0">
        <time>2021-02-28T09:12:54.242000+00:00</time>
      </trkpt>
      <trkpt lat="0" lon="0">
        <time>2021-02-28T09:12:54.244000+00:00</time>
      </trkpt>
      <trkpt lat="47.33104" lon="-1.43437">
        <ele>94</ele>
        <time>2021-02-28T09:12:55.214000+00:00</time>
      </trkpt>
      <trkpt lat="0" lon="0">
        <time>2021-02-28T09:12:55.225000+00:00</time>
      </trkpt>
      <trkpt lat="0" lon="0">
        <time>2021-02-28T09:12:55.229000+00:00</time>
      </trkpt>
      <trkpt lat="0" lon="0">
        <time>2021-02-28T09:12:55.232000+00:00</time>
      </trkpt>
      <trkpt lat="47.33107" lon="-1.43442">
        <ele>94</ele>
        <time>2021-02-28T09:12:56.214000+00:00</time>
      </trkpt>
      <trkpt lat="0" lon="0">
        <time>2021-02-28T09:12:56.220000+00:00</time>
      </trkpt>
      <trkpt lat="0" lon="0">
        <time>2021-02-28T09:12:56.225000+00:00</time>
      </trkpt>
      <trkpt lat="0" lon="0">
        <time>2021-02-28T09:12:56.227000+00:00</time>
      </trkpt>
      <trkpt lat="47.33111" lon="-1.43446">
        <ele>94</ele>
        <time>2021-02-28T09:12:57.250000+00:00</time>
      </trkpt>
      <trkpt lat="0" lon="0">
        <time>2021-02-28T09:12:57.255000+00:00</time>
      </trkpt>
      <trkpt lat="0" lon="0">
        <time>2021-02-28T09:12:57.261000+00:00</time>
      </trkpt>
      <trkpt lat="0" lon="0">
        <time>2021-02-28T09:12:57.263000+00:00</time>
      </trkpt>
      <trkpt lat="47.33114" lon="-1.43449">
        <ele>94</ele>
        <time>2021-02-28T09:12:58.177000+00:00</time>
      </trkpt>
      <trkpt lat="0" lon="0">
        <time>2021-02-28T09:12:58.185000+00:00</time>
      </trkpt>
      <trkpt lat="0" lon="0">
        <time>2021-02-28T09:12:58.190000+00:00</time>
      </trkpt>
      <trkpt lat="0" lon="0">
        <time>2021-02-28T09:12:58.193000+00:00</time>
      </trkpt>
      <trkpt lat="47.33118" lon="-1.43453">
        <ele>94</ele>
        <time>2021-02-28T09:12:59.212000+00:00</time>
      </trkpt>
      <trkpt lat="0" lon="0">
        <time>2021-02-28T09:12:59.219000+00:00</time>
      </trkpt>
      <trkpt lat="0" lon="0">
        <time>2021-02-28T09:12:59.223000+00:00</time>
      </trkpt>
      <trkpt lat="0" lon="0">
        <time>2021-02-28T09:12:59.226000+00:00</time>
      </trkpt>
      <trkpt lat="47.33122" lon="-1.43456">
        <ele>95</ele>
        <time>2021-02-28T09:13:00.213000+00:00</time>
      </trkpt>
      <trkpt lat="0" lon="0">
        <time>2021-02-28T09:13:00.219000+00:00</time>
      </trkpt>
      <trkpt lat="0" lon="0">
        <time>2021-02-28T09:13:00.226000+00:00</time>
      </trkpt>
      <trkpt lat="0" lon="0">
        <time>2021-02-28T09:13:00.228000+00:00</time>
      </trkpt>
      <trkpt lat="47.33126" lon="-1.43459">
        <ele>96</ele>
        <time>2021-02-28T09:13:01.239000+00:00</time>
      </trkpt>
      <trkpt lat="0" lon="0">
        <time>2021-02-28T09:13:01.244000+00:00</time>
      </trkpt>
      <trkpt lat="0" lon="0">
        <time>2021-02-28T09:13:01.248000+00:00</time>
      </trkpt>
      <trkpt lat="0" lon="0">
        <time>2021-02-28T09:13:01.251000+00:00</time>
      </trkpt>
      <trkpt lat="47.3313" lon="-1.43463">
        <ele>97</ele>
        <time>2021-02-28T09:13:02.232000+00:00</time>
      </trkpt>
      <trkpt lat="0" lon="0">
        <time>2021-02-28T09:13:02.236000+00:00</time>
      </trkpt>
      <trkpt lat="0" lon="0">
        <time>2021-02-28T09:13:02.240000+00:00</time>
      </trkpt>
      <trkpt lat="0" lon="0">
        <time>2021-02-28T09:13:02.241000+00:00</time>
      </trkpt>
      <trkpt lat="47.33135" lon="-1.43466">
        <ele>98</ele>
        <time>2021-02-28T09:13:03.199000+00:00</time>
      </trkpt>
      <trkpt lat="0" lon="0">
        <time>2021-02-28T09:13:03.207000+00:00</time>
      </trkpt>
      <trkpt lat="0" lon="0">
        <time>2021-02-28T09:13:03.211000+00:00</time>
      </trkpt>
      <trkpt lat="0" lon="0">
        <time>2021-02-28T09:13:03.213000+00:00</time>
      </trkpt>
      <trkpt lat="47.33139" lon="-1.4347">
        <ele>100</ele>
        <time>2021-02-28T09:13:04.220000+00:00</time>
      </trkpt>
      <trkpt lat="0" lon="0">
        <time>2021-02-28T09:13:04.226000+00:00</time>
      </trkpt>
      <trkpt lat="0" lon="0">
        <time>2021-02-28T09:13:04.230000+00:00</time>
      </trkpt>
      <trkpt lat="0" lon="0">
        <time>2021-02-28T09:13:04.233000+00:00</time>
      </trkpt>
      <trkpt lat="47.33144" lon="-1.43474">
        <ele>102</ele>
        <time>2021-02-28T09:13:05.207000+00:00</time>
      </trkpt>
      <trkpt lat="0" lon="0">
        <time>2021-02-28T09:13:05.213000+00:00</time>
      </trkpt>
      <trkpt lat="0" lon="0">
        <time>2021-02-28T09:13:05.220000+00:00</time>
      </trkpt>
      <trkpt lat="0" lon="0">
        <time>2021-02-28T09:13:05.222000+00:00</time>
      </trkpt>
      <trkpt lat="47.33149" lon="-1.43478">
        <ele>103</ele>
        <time>2021-02-28T09:13:06.203000+00:00</time>
      </trkpt>
      <trkpt lat="0" lon="0">
        <time>2021-02-28T09:13:06.218000+00:00</time>
      </trkpt>
      <trkpt lat="0" lon="0">
        <time>2021-02-28T09:13:06.222000+00:00</time>
      </trkpt>
      <trkpt lat="0" lon="0">
        <time>2021-02-28T09:13:06.226000+00:00</time>
      </trkpt>
      <trkpt lat="47.33153" lon="-1.43483">
        <ele>102</ele>
        <time>2021-02-28T09:13:07.244000+00:00</time>
      </trkpt>
      <trkpt lat="0" lon="0">
        <time>2021-02-28T09:13:07.247000+00:00</time>
      </trkpt>
      <trkpt lat="0" lon="0">
        <time>2021-02-28T09:13:07.251000+00:00</time>
      </trkpt>
      <trkpt lat="0" lon="0">
        <time>2021-02-28T09:13:07.254000+00:00</time>
      </trkpt>
      <trkpt lat="47.33157" lon="-1.43487">
        <ele>102</ele>
        <time>2021-02-28T09:13:08.216000+00:00</time>
      </trkpt>
      <trkpt lat="0" lon="0">
        <time>2021-02-28T09:13:08.221000+00:00</time>
      </trkpt>
      <trkpt lat="0" lon="0">
        <time>2021-02-28T09:13:08.226000+00:00</time>
      </trkpt>
      <trkpt lat="0" lon="0">
        <time>2021-02-28T09:13:08.228000+00:00</time>
      </trkpt>
      <trkpt lat="47.33161" lon="-1.43492">
        <ele>101</ele>
        <time>2021-02-28T09:13:09.230000+00:00</time>
      </trkpt>
      <trkpt lat="0" lon="0">
        <time>2021-02-28T09:13:09.235000+00:00</time>
      </trkpt>
      <trkpt lat="0" lon="0">
        <time>2021-02-28T09:13:09.240000+00:00</time>
      </trkpt>
      <trkpt lat="0" lon="0">
        <time>2021-02-28T09:13:09.242000+00:00</time>
      </trkpt>
      <trkpt lat="47.33164" lon="-1.43497">
        <ele>101</ele>
        <time>2021-02-28T09:13:10.227000+00:00</time>
      </trkpt>
      <trkpt lat="0" lon="0">
        <time>2021-02-28T09:13:10.236000+00:00</time>
      </trkpt>
      <trkpt lat="0" lon="0">
        <time>2021-02-28T09:13:10.240000+00:00</time>
      </trkpt>
      <trkpt lat="0" lon="0">
        <time>2021-02-28T09:13:10.243000+00:00</time>
      </trkpt>
      <trkpt lat="47.33167" lon="-1.43502">
        <ele>101</ele>
        <time>2021-02-28T09:13:11.217000+00:00</time>
      </trkpt>
      <trkpt lat="0" lon="0">
        <time>2021-02-28T09:13:11.226000+00:00</time>
      </trkpt>
      <trkpt lat="0" lon="0">
        <time>2021-02-28T09:13:11.230000+00:00</time>
      </trkpt>
      <trkpt lat="0" lon="0">
        <time>2021-02-28T09:13:11.233000+00:00</time>
      </trkpt>
      <trkpt lat="47.33169" lon="-1.43506">
        <ele>101</ele>
        <time>2021-02-28T09:13:12.220000+00:00</time>
      </trkpt>
      <trkpt lat="0" lon="0">
        <time>2021-02-28T09:13:12.227000+00:00</time>
      </trkpt>
      <trkpt lat="0" lon="0">
        <time>2021-02-28T09:13:12.234000+00:00</time>
      </trkpt>
      <trkpt lat="0" lon="0">
        <time>2021-02-28T09:13:12.238000+00:00</time>
      </trkpt>
      <trkpt lat="47.33171" lon="-1.43511">
        <ele>101</ele>
        <time>2021-02-28T09:13:13.207000+00:00</time>
      </trkpt>
      <trkpt lat="0" lon="0">
        <time>2021-02-28T09:13:13.214000+00:00</time>
      </trkpt>
      <trkpt lat="0" lon="0">
        <time>2021-02-28T09:13:13.219000+00:00</time>
      </trkpt>
      <trkpt lat="0" lon="0">
        <time>2021-02-28T09:13:13.222000+00:00</time>
      </trkpt>
      <trkpt lat="47.33174" lon="-1.43516">
        <ele>100</ele>
        <time>2021-02-28T09:13:14.191000+00:00</time>
      </trkpt>
      <trkpt lat="0" lon="0">
        <time>2021-02-28T09:13:14.193000+00:00</time>
      </trkpt>
      <trkpt lat="0" lon="0">
        <time>2021-02-28T09:13:14.195000+00:00</time>
      </trkpt>
      <trkpt lat="0" lon="0">
        <time>2021-02-28T09:13:14.197000+00:00</time>
      </trkpt>
      <trkpt lat="47.33176" lon="-1.43521">
        <ele>100</ele>
        <time>2021-02-28T09:13:15.208000+00:00</time>
      </trkpt>
      <trkpt lat="0" lon="0">
        <time>2021-02-28T09:13:15.217000+00:00</time>
      </trkpt>
      <trkpt lat="0" lon="0">
        <time>2021-02-28T09:13:15.221000+00:00</time>
      </trkpt>
      <trkpt lat="0" lon="0">
        <time>2021-02-28T09:13:15.224000+00:00</time>
      </trkpt>
      <trkpt lat="47.33179" lon="-1.43526">
        <ele>100</ele>
        <time>2021-02-28T09:13:16.246000+00:00</time>
      </trkpt>
      <trkpt lat="0" lon="0">
        <time>2021-02-28T09:13:16.254000+00:00</time>
      </trkpt>
      <trkpt lat="0" lon="0">
        <time>2021-02-28T09:13:16.259000+00:00</time>
      </trkpt>
      <trkpt lat="0" lon="0">
        <time>2021-02-28T09:13:16.261000+00:00</time>
      </trkpt>
      <trkpt lat="47.33182" lon="-1.43531">
        <ele>100</ele>
        <time>2021-02-28T09:13:17.211000+00:00</time>
      </trkpt>
      <trkpt lat="0" lon="0">
        <time>2021-02-28T09:13:17.223000+00:00</time>
      </trkpt>
      <trkpt lat="0" lon="0">
        <time>2021-02-28T09:13:17.231000+00:00</time>
      </trkpt>
      <trkpt lat="0" lon="0">
        <time>2021-02-28T09:13:17.234000+00:00</time>
      </trkpt>
      <trkpt lat="47.33184" lon="-1.43535">
        <ele>100</ele>
        <time>2021-02-28T09:13:18.212000+00:00</time>
      </trkpt>
      <trkpt lat="0" lon="0">
        <time>2021-02-28T09:13:18.224000+00:00</time>
      </trkpt>
      <trkpt lat="0" lon="0">
        <time>2021-02-28T09:13:18.228000+00:00</time>
      </trkpt>
      <trkpt lat="0" lon="0">
        <time>2021-02-28T09:13:18.230000+00:00</time>
      </trkpt>
      <trkpt lat="47.33187" lon="-1.43539">
        <ele>100</ele>
        <time>2021-02-28T09:13:19.224000+00:00</time>
      </trkpt>
      <trkpt lat="0" lon="0">
        <time>2021-02-28T09:13:19.231000+00:00</time>
      </trkpt>
      <trkpt lat="0" lon="0">
        <time>2021-02-28T09:13:19.240000+00:00</time>
      </trkpt>
      <trkpt lat="0" lon="0">
        <time>2021-02-28T09:13:19.243000+00:00</time>
      </trkpt>
      <trkpt lat="47.3319" lon="-1.43544">
        <ele>100</ele>
        <time>2021-02-28T09:13:20.213000+00:00</time>
      </trkpt>
      <trkpt lat="0" lon="0">
        <time>2021-02-28T09:13:20.218000+00:00</time>
      </trkpt>
      <trkpt lat="0" lon="0">
        <time>2021-02-28T09:13:20.223000+00:00</time>
      </trkpt>
      <trkpt lat="0" lon="0">
        <time>2021-02-28T09:13:20.225000+00:00</time>
      </trkpt>
      <trkpt lat="47.33192" lon="-1.43548">
        <ele>99</ele>
        <time>2021-02-28T09:13:21.244000+00:00</time>
      </trkpt>
      <trkpt lat="0" lon="0">
        <time>2021-02-28T09:13:21.257000+00:00</time>
      </trkpt>
      <trkpt lat="0" lon="0">
        <time>2021-02-28T09:13:21.262000+00:00</time>
      </trkpt>
      <trkpt lat="0" lon="0">
        <time>2021-02-28T09:13:21.265000+00:00</time>
      </trkpt>
      <trkpt lat="47.33194" lon="-1.43553">
        <ele>99</ele>
        <time>2021-02-28T09:13:22.230000+00:00</time>
      </trkpt>
      <trkpt lat="0" lon="0">
        <time>2021-02-28T09:13:22.241000+00:00</time>
      </trkpt>
      <trkpt lat="0" lon="0">
        <time>2021-02-28T09:13:22.244000+00:00</time>
      </trkpt>
      <trkpt lat="0" lon="0">
        <time>2021-02-28T09:13:22.246000+00:00</time>
      </trkpt>
      <trkpt lat="47.33196" lon="-1.43557">
        <ele>99</ele>
        <time>2021-02-28T09:13:23.209000+00:00</time>
      </trkpt>
      <trkpt lat="0" lon="0">
        <time>2021-02-28T09:13:23.215000+00:00</time>
      </trkpt>
      <trkpt lat="0" lon="0">
        <time>2021-02-28T09:13:23.219000+00:00</time>
      </trkpt>
      <trkpt lat="0" lon="0">
        <time>2021-02-28T09:13:23.223000+00:00</time>
      </trkpt>
      <trkpt lat="47.33198" lon="-1.43562">
        <ele>99</ele>
        <time>2021-02-28T09:13:24.201000+00:00</time>
      </trkpt>
      <trkpt lat="0" lon="0">
        <time>2021-02-28T09:13:24.206000+00:00</time>
      </trkpt>
      <trkpt lat="0" lon="0">
        <time>2021-02-28T09:13:24.210000+00:00</time>
      </trkpt>
      <trkpt lat="0" lon="0">
        <time>2021-02-28T09:13:24.213000+00:00</time>
      </trkpt>
      <trkpt lat="47.332" lon="-1.43566">
        <ele>100</ele>
        <time>2021-02-28T09:13:25.206000+00:00</time>
      </trkpt>
      <trkpt lat="0" lon="0">
        <time>2021-02-28T09:13:25.209000+00:00</time>
      </trkpt>
      <trkpt lat="0" lon="0">
        <time>2021-02-28T09:13:25.211000+00:00</time>
      </trkpt>
      <trkpt lat="0" lon="0">
        <time>2021-02-28T09:13:25.213000+00:00</time>
      </trkpt>
      <trkpt lat="47.33201" lon="-1.4357">
        <ele>99</ele>
        <time>2021-02-28T09:13:26.234000+00:00</time>
      </trkpt>
      <trkpt lat="0" lon="0">
        <time>2021-02-28T09:13:26.242000+00:00</time>
      </trkpt>
      <trkpt lat="0" lon="0">
        <time>2021-02-28T09:13:26.247000+00:00</time>
      </trkpt>
      <trkpt lat="0" lon="0">
        <time>2021-02-28T09:13:26.250000+00:00</time>
      </trkpt>
      <trkpt lat="47.33203" lon="-1.43574">
        <ele>99</ele>
        <time>2021-02-28T09:13:27.183000+00:00</time>
      </trkpt>
      <trkpt lat="0" lon="0">
        <time>2021-02-28T09:13:27.188000+00:00</time>
      </trkpt>
      <trkpt lat="0" lon="0">
        <time>2021-02-28T09:13:27.193000+00:00</time>
      </trkpt>
      <trkpt lat="0" lon="0">
        <time>2021-02-28T09:13:27.197000+00:00</time>
      </trkpt>
      <trkpt lat="47.33205" lon="-1.43579">
        <ele>98</ele>
        <time>2021-02-28T09:13:28.213000+00:00</time>
      </trkpt>
      <trkpt lat="0" lon="0">
        <time>2021-02-28T09:13:28.222000+00:00</time>
      </trkpt>
      <trkpt lat="0" lon="0">
        <time>2021-02-28T09:13:28.230000+00:00</time>
      </trkpt>
      <trkpt lat="0" lon="0">
        <time>2021-02-28T09:13:28.233000+00:00</time>
      </trkpt>
      <trkpt lat="47.33206" lon="-1.43583">
        <ele>98</ele>
        <time>2021-02-28T09:13:29.221000+00:00</time>
      </trkpt>
      <trkpt lat="0" lon="0">
        <time>2021-02-28T09:13:29.232000+00:00</time>
      </trkpt>
      <trkpt lat="0" lon="0">
        <time>2021-02-28T09:13:29.237000+00:00</time>
      </trkpt>
      <trkpt lat="0" lon="0">
        <time>2021-02-28T09:13:29.240000+00:00</time>
      </trkpt>
      <trkpt lat="47.33208" lon="-1.43587">
        <ele>98</ele>
        <time>2021-02-28T09:13:30.213000+00:00</time>
      </trkpt>
      <trkpt lat="0" lon="0">
        <time>2021-02-28T09:13:30.228000+00:00</time>
      </trkpt>
      <trkpt lat="0" lon="0">
        <time>2021-02-28T09:13:30.237000+00:00</time>
      </trkpt>
      <trkpt lat="0" lon="0">
        <time>2021-02-28T09:13:30.239000+00:00</time>
      </trkpt>
      <trkpt lat="47.3321" lon="-1.43591">
        <ele>97</ele>
        <time>2021-02-28T09:13:31.205000+00:00</time>
      </trkpt>
      <trkpt lat="0" lon="0">
        <time>2021-02-28T09:13:31.214000+00:00</time>
      </trkpt>
      <trkpt lat="0" lon="0">
        <time>2021-02-28T09:13:31.218000+00:00</time>
      </trkpt>
      <trkpt lat="0" lon="0">
        <time>2021-02-28T09:13:31.221000+00:00</time>
      </trkpt>
      <trkpt lat="47.33212" lon="-1.43594">
        <ele>97</ele>
        <time>2021-02-28T09:13:32.196000+00:00</time>
      </trkpt>
      <trkpt lat="0" lon="0">
        <time>2021-02-28T09:13:32.206000+00:00</time>
      </trkpt>
      <trkpt lat="0" lon="0">
        <time>2021-02-28T09:13:32.212000+00:00</time>
      </trkpt>
      <trkpt lat="0" lon="0">
        <time>2021-02-28T09:13:32.214000+00:00</time>
      </trkpt>
      <trkpt lat="47.33215" lon="-1.43597">
        <ele>96</ele>
        <time>2021-02-28T09:13:33.202000+00:00</time>
      </trkpt>
      <trkpt lat="0" lon="0">
        <time>2021-02-28T09:13:33.207000+00:00</time>
      </trkpt>
      <trkpt lat="0" lon="0">
        <time>2021-02-28T09:13:33.215000+00:00</time>
      </trkpt>
      <trkpt lat="0" lon="0">
        <time>2021-02-28T09:13:33.217000+00:00</time>
      </trkpt>
      <trkpt lat="47.33218" lon="-1.436">
        <ele>95</ele>
        <time>2021-02-28T09:13:34.222000+00:00</time>
      </trkpt>
      <trkpt lat="0" lon="0">
        <time>2021-02-28T09:13:34.231000+00:00</time>
      </trkpt>
      <trkpt lat="0" lon="0">
        <time>2021-02-28T09:13:34.235000+00:00</time>
      </trkpt>
      <trkpt lat="0" lon="0">
        <time>2021-02-28T09:13:34.237000+00:00</time>
      </trkpt>
      <trkpt lat="47.33221" lon="-1.43603">
        <ele>95</ele>
        <time>2021-02-28T09:13:35.218000+00:00</time>
      </trkpt>
      <trkpt lat="0" lon="0">
        <time>2021-02-28T09:13:35.226000+00:00</time>
      </trkpt>
      <trkpt lat="0" lon="0">
        <time>2021-02-28T09:13:35.232000+00:00</time>
      </trkpt>
      <trkpt lat="0" lon="0">
        <time>2021-02-28T09:13:35.235000+00:00</time>
      </trkpt>
      <trkpt lat="47.33223" lon="-1.43606">
        <ele>94</ele>
        <time>2021-02-28T09:13:36.211000+00:00</time>
      </trkpt>
      <trkpt lat="0" lon="0">
        <time>2021-02-28T09:13:36.217000+00:00</time>
      </trkpt>
      <trkpt lat="0" lon="0">
        <time>2021-02-28T09:13:36.222000+00:00</time>
      </trkpt>
      <trkpt lat="0" lon="0">
        <time>2021-02-28T09:13:36.224000+00:00</time>
      </trkpt>
      <trkpt lat="47.33227" lon="-1.43608">
        <ele>94</ele>
        <time>2021-02-28T09:13:37.205000+00:00</time>
      </trkpt>
      <trkpt lat="0" lon="0">
        <time>2021-02-28T09:13:37.211000+00:00</time>
      </trkpt>
      <trkpt lat="0" lon="0">
        <time>2021-02-28T09:13:37.214000+00:00</time>
      </trkpt>
      <trkpt lat="0" lon="0">
        <time>2021-02-28T09:13:37.215000+00:00</time>
      </trkpt>
      <trkpt lat="47.3323" lon="-1.4361">
        <ele>94</ele>
        <time>2021-02-28T09:13:38.223000+00:00</time>
      </trkpt>
      <trkpt lat="0" lon="0">
        <time>2021-02-28T09:13:38.232000+00:00</time>
      </trkpt>
      <trkpt lat="0" lon="0">
        <time>2021-02-28T09:13:38.238000+00:00</time>
      </trkpt>
      <trkpt lat="0" lon="0">
        <time>2021-02-28T09:13:38.240000+00:00</time>
      </trkpt>
      <trkpt lat="47.33232" lon="-1.43611">
        <ele>94</ele>
        <time>2021-02-28T09:13:39.187000+00:00</time>
      </trkpt>
      <trkpt lat="0" lon="0">
        <time>2021-02-28T09:13:39.193000+00:00</time>
      </trkpt>
      <trkpt lat="0" lon="0">
        <time>2021-02-28T09:13:39.198000+00:00</time>
      </trkpt>
      <trkpt lat="0" lon="0">
        <time>2021-02-28T09:13:39.201000+00:00</time>
      </trkpt>
      <trkpt lat="47.33235" lon="-1.43613">
        <ele>94</ele>
        <time>2021-02-28T09:13:40.196000+00:00</time>
      </trkpt>
      <trkpt lat="0" lon="0">
        <time>2021-02-28T09:13:40.203000+00:00</time>
      </trkpt>
      <trkpt lat="0" lon="0">
        <time>2021-02-28T09:13:40.208000+00:00</time>
      </trkpt>
      <trkpt lat="0" lon="0">
        <time>2021-02-28T09:13:40.210000+00:00</time>
      </trkpt>
      <trkpt lat="47.33238" lon="-1.43614">
        <ele>94</ele>
        <time>2021-02-28T09:13:41.229000+00:00</time>
      </trkpt>
      <trkpt lat="0" lon="0">
        <time>2021-02-28T09:13:41.237000+00:00</time>
      </trkpt>
      <trkpt lat="0" lon="0">
        <time>2021-02-28T09:13:41.242000+00:00</time>
      </trkpt>
      <trkpt lat="0" lon="0">
        <time>2021-02-28T09:13:41.245000+00:00</time>
      </trkpt>
      <trkpt lat="47.3324" lon="-1.43615">
        <ele>94</ele>
        <time>2021-02-28T09:13:42.199000+00:00</time>
      </trkpt>
      <trkpt lat="0" lon="0">
        <time>2021-02-28T09:13:42.207000+00:00</time>
      </trkpt>
      <trkpt lat="0" lon="0">
        <time>2021-02-28T09:13:42.211000+00:00</time>
      </trkpt>
      <trkpt lat="0" lon="0">
        <time>2021-02-28T09:13:42.214000+00:00</time>
      </trkpt>
      <trkpt lat="47.33242" lon="-1.43616">
        <ele>94</ele>
        <time>2021-02-28T09:13:43.207000+00:00</time>
      </trkpt>
      <trkpt lat="0" lon="0">
        <time>2021-02-28T09:13:43.215000+00:00</time>
      </trkpt>
      <trkpt lat="0" lon="0">
        <time>2021-02-28T09:13:43.219000+00:00</time>
      </trkpt>
      <trkpt lat="47.33244" lon="-1.43617">
        <ele>94</ele>
        <time>2021-02-28T09:13:44.210000+00:00</time>
      </trkpt>
      <trkpt lat="0" lon="0">
        <time>2021-02-28T09:13:44.218000+00:00</time>
      </trkpt>
      <trkpt lat="0" lon="0">
        <time>2021-02-28T09:13:44.222000+00:00</time>
      </trkpt>
      <trkpt lat="0" lon="0">
        <time>2021-02-28T09:13:44.224000+00:00</time>
      </trkpt>
      <trkpt lat="47.33246" lon="-1.43618">
        <ele>94</ele>
        <time>2021-02-28T09:13:45.210000+00:00</time>
      </trkpt>
      <trkpt lat="0" lon="0">
        <time>2021-02-28T09:13:45.217000+00:00</time>
      </trkpt>
      <trkpt lat="0" lon="0">
        <time>2021-02-28T09:13:45.221000+00:00</time>
      </trkpt>
      <trkpt lat="0" lon="0">
        <time>2021-02-28T09:13:45.222000+00:00</time>
      </trkpt>
      <trkpt lat="47.33248" lon="-1.43619">
        <ele>95</ele>
        <time>2021-02-28T09:13:46.185000+00:00</time>
      </trkpt>
      <trkpt lat="0" lon="0">
        <time>2021-02-28T09:13:46.189000+00:00</time>
      </trkpt>
      <trkpt lat="0" lon="0">
        <time>2021-02-28T09:13:46.194000+00:00</time>
      </trkpt>
      <trkpt lat="0" lon="0">
        <time>2021-02-28T09:13:46.197000+00:00</time>
      </trkpt>
      <trkpt lat="47.3325" lon="-1.43619">
        <ele>95</ele>
        <time>2021-02-28T09:13:47.233000+00:00</time>
      </trkpt>
      <trkpt lat="0" lon="0">
        <time>2021-02-28T09:13:47.242000+00:00</time>
      </trkpt>
      <trkpt lat="0" lon="0">
        <time>2021-02-28T09:13:47.246000+00:00</time>
      </trkpt>
      <trkpt lat="0" lon="0">
        <time>2021-02-28T09:13:47.249000+00:00</time>
      </trkpt>
      <trkpt lat="47.33251" lon="-1.4362">
        <ele>95</ele>
        <time>2021-02-28T09:13:48.222000+00:00</time>
      </trkpt>
      <trkpt lat="0" lon="0">
        <time>2021-02-28T09:13:48.229000+00:00</time>
      </trkpt>
      <trkpt lat="0" lon="0">
        <time>2021-02-28T09:13:48.234000+00:00</time>
      </trkpt>
      <trkpt lat="0" lon="0">
        <time>2021-02-28T09:13:48.237000+00:00</time>
      </trkpt>
      <trkpt lat="47.33253" lon="-1.4362">
        <ele>95</ele>
        <time>2021-02-28T09:13:49.228000+00:00</time>
      </trkpt>
      <trkpt lat="0" lon="0">
        <time>2021-02-28T09:13:49.237000+00:00</time>
      </trkpt>
      <trkpt lat="0" lon="0">
        <time>2021-02-28T09:13:49.242000+00:00</time>
      </trkpt>
      <trkpt lat="0" lon="0">
        <time>2021-02-28T09:13:49.244000+00:00</time>
      </trkpt>
      <trkpt lat="47.33254" lon="-1.43621">
        <ele>95</ele>
        <time>2021-02-28T09:13:50.232000+00:00</time>
      </trkpt>
      <trkpt lat="0" lon="0">
        <time>2021-02-28T09:13:50.241000+00:00</time>
      </trkpt>
      <trkpt lat="0" lon="0">
        <time>2021-02-28T09:13:50.249000+00:00</time>
      </trkpt>
      <trkpt lat="0" lon="0">
        <time>2021-02-28T09:13:50.251000+00:00</time>
      </trkpt>
      <trkpt lat="47.33255" lon="-1.43622">
        <ele>96</ele>
        <time>2021-02-28T09:13:51.196000+00:00</time>
      </trkpt>
      <trkpt lat="0" lon="0">
        <time>2021-02-28T09:13:51.207000+00:00</time>
      </trkpt>
      <trkpt lat="0" lon="0">
        <time>2021-02-28T09:13:51.210000+00:00</time>
      </trkpt>
      <trkpt lat="0" lon="0">
        <time>2021-02-28T09:13:51.212000+00:00</time>
      </trkpt>
      <trkpt lat="47.33257" lon="-1.43622">
        <ele>97</ele>
        <time>2021-02-28T09:13:52.203000+00:00</time>
      </trkpt>
      <trkpt lat="0" lon="0">
        <time>2021-02-28T09:13:52.211000+00:00</time>
      </trkpt>
      <trkpt lat="0" lon="0">
        <time>2021-02-28T09:13:52.216000+00:00</time>
      </trkpt>
      <trkpt lat="0" lon="0">
        <time>2021-02-28T09:13:52.218000+00:00</time>
      </trkpt>
      <trkpt lat="47.33258" lon="-1.43623">
        <ele>97</ele>
        <time>2021-02-28T09:13:53.190000+00:00</time>
      </trkpt>
      <trkpt lat="0" lon="0">
        <time>2021-02-28T09:13:53.200000+00:00</time>
      </trkpt>
      <trkpt lat="0" lon="0">
        <time>2021-02-28T09:13:53.204000+00:00</time>
      </trkpt>
      <trkpt lat="0" lon="0">
        <time>2021-02-28T09:13:53.207000+00:00</time>
      </trkpt>
      <trkpt lat="47.3326" lon="-1.43623">
        <ele>97</ele>
        <time>2021-02-28T09:13:54.143000+00:00</time>
      </trkpt>
      <trkpt lat="0" lon="0">
        <time>2021-02-28T09:13:54.151000+00:00</time>
      </trkpt>
      <trkpt lat="0" lon="0">
        <time>2021-02-28T09:13:54.155000+00:00</time>
      </trkpt>
      <trkpt lat="0" lon="0">
        <time>2021-02-28T09:13:54.161000+00:00</time>
      </trkpt>
      <trkpt lat="47.33261" lon="-1.43624">
        <ele>97</ele>
        <time>2021-02-28T09:13:55.203000+00:00</time>
      </trkpt>
      <trkpt lat="0" lon="0">
        <time>2021-02-28T09:13:55.212000+00:00</time>
      </trkpt>
      <trkpt lat="0" lon="0">
        <time>2021-02-28T09:13:55.217000+00:00</time>
      </trkpt>
      <trkpt lat="0" lon="0">
        <time>2021-02-28T09:13:55.220000+00:00</time>
      </trkpt>
      <trkpt lat="47.33263" lon="-1.43624">
        <ele>97</ele>
        <time>2021-02-28T09:13:56.197000+00:00</time>
      </trkpt>
      <trkpt lat="0" lon="0">
        <time>2021-02-28T09:13:56.204000+00:00</time>
      </trkpt>
      <trkpt lat="0" lon="0">
        <time>2021-02-28T09:13:56.208000+00:00</time>
      </trkpt>
      <trkpt lat="0" lon="0">
        <time>2021-02-28T09:13:56.212000+00:00</time>
      </trkpt>
      <trkpt lat="47.33264" lon="-1.43624">
        <ele>97</ele>
        <time>2021-02-28T09:13:57.192000+00:00</time>
      </trkpt>
      <trkpt lat="0" lon="0">
        <time>2021-02-28T09:13:57.210000+00:00</time>
      </trkpt>
      <trkpt lat="0" lon="0">
        <time>2021-02-28T09:13:57.218000+00:00</time>
      </trkpt>
      <trkpt lat="0" lon="0">
        <time>2021-02-28T09:13:57.221000+00:00</time>
      </trkpt>
      <trkpt lat="47.33265" lon="-1.43625">
        <ele>98</ele>
        <time>2021-02-28T09:13:58.177000+00:00</time>
      </trkpt>
      <trkpt lat="0" lon="0">
        <time>2021-02-28T09:13:58.187000+00:00</time>
      </trkpt>
      <trkpt lat="0" lon="0">
        <time>2021-02-28T09:13:58.192000+00:00</time>
      </trkpt>
      <trkpt lat="0" lon="0">
        <time>2021-02-28T09:13:58.196000+00:00</time>
      </trkpt>
      <trkpt lat="47.33267" lon="-1.43626">
        <ele>99</ele>
        <time>2021-02-28T09:13:59.191000+00:00</time>
      </trkpt>
      <trkpt lat="0" lon="0">
        <time>2021-02-28T09:13:59.200000+00:00</time>
      </trkpt>
      <trkpt lat="0" lon="0">
        <time>2021-02-28T09:13:59.204000+00:00</time>
      </trkpt>
      <trkpt lat="0" lon="0">
        <time>2021-02-28T09:13:59.207000+00:00</time>
      </trkpt>
      <trkpt lat="47.33269" lon="-1.43626">
        <ele>99</ele>
        <time>2021-02-28T09:14:00.155000+00:00</time>
      </trkpt>
      <trkpt lat="0" lon="0">
        <time>2021-02-28T09:14:00.158000+00:00</time>
      </trkpt>
      <trkpt lat="0" lon="0">
        <time>2021-02-28T09:14:00.161000+00:00</time>
      </trkpt>
      <trkpt lat="0" lon="0">
        <time>2021-02-28T09:14:00.162000+00:00</time>
      </trkpt>
      <trkpt lat="47.33271" lon="-1.43627">
        <ele>99</ele>
        <time>2021-02-28T09:14:01.182000+00:00</time>
      </trkpt>
      <trkpt lat="0" lon="0">
        <time>2021-02-28T09:14:01.192000+00:00</time>
      </trkpt>
      <trkpt lat="0" lon="0">
        <time>2021-02-28T09:14:01.199000+00:00</time>
      </trkpt>
      <trkpt lat="0" lon="0">
        <time>2021-02-28T09:14:01.203000+00:00</time>
      </trkpt>
      <trkpt lat="47.33273" lon="-1.43627">
        <ele>99</ele>
        <time>2021-02-28T09:14:02.196000+00:00</time>
      </trkpt>
      <trkpt lat="0" lon="0">
        <time>2021-02-28T09:14:02.205000+00:00</time>
      </trkpt>
      <trkpt lat="0" lon="0">
        <time>2021-02-28T09:14:02.209000+00:00</time>
      </trkpt>
      <trkpt lat="0" lon="0">
        <time>2021-02-28T09:14:02.211000+00:00</time>
      </trkpt>
      <trkpt lat="47.33274" lon="-1.43627">
        <ele>99</ele>
        <time>2021-02-28T09:14:03.198000+00:00</time>
      </trkpt>
      <trkpt lat="0" lon="0">
        <time>2021-02-28T09:14:03.204000+00:00</time>
      </trkpt>
      <trkpt lat="0" lon="0">
        <time>2021-02-28T09:14:03.209000+00:00</time>
      </trkpt>
      <trkpt lat="0" lon="0">
        <time>2021-02-28T09:14:03.211000+00:00</time>
      </trkpt>
      <trkpt lat="47.33275" lon="-1.43628">
        <ele>100</ele>
        <time>2021-02-28T09:14:04.193000+00:00</time>
      </trkpt>
      <trkpt lat="0" lon="0">
        <time>2021-02-28T09:14:04.203000+00:00</time>
      </trkpt>
      <trkpt lat="0" lon="0">
        <time>2021-02-28T09:14:04.207000+00:00</time>
      </trkpt>
      <trkpt lat="0" lon="0">
        <time>2021-02-28T09:14:04.211000+00:00</time>
      </trkpt>
      <trkpt lat="47.33277" lon="-1.43628">
        <ele>100</ele>
        <time>2021-02-28T09:14:05.210000+00:00</time>
      </trkpt>
      <trkpt lat="0" lon="0">
        <time>2021-02-28T09:14:05.214000+00:00</time>
      </trkpt>
      <trkpt lat="0" lon="0">
        <time>2021-02-28T09:14:05.218000+00:00</time>
      </trkpt>
      <trkpt lat="0" lon="0">
        <time>2021-02-28T09:14:05.219000+00:00</time>
      </trkpt>
      <trkpt lat="47.33278" lon="-1.43628">
        <ele>98</ele>
        <time>2021-02-28T09:14:06.149000+00:00</time>
      </trkpt>
      <trkpt lat="0" lon="0">
        <time>2021-02-28T09:14:06.163000+00:00</time>
      </trkpt>
      <trkpt lat="0" lon="0">
        <time>2021-02-28T09:14:06.169000+00:00</time>
      </trkpt>
      <trkpt lat="0" lon="0">
        <time>2021-02-28T09:14:06.171000+00:00</time>
      </trkpt>
      <trkpt lat="47.3328" lon="-1.43628">
        <ele>97</ele>
        <time>2021-02-28T09:14:07.199000+00:00</time>
      </trkpt>
      <trkpt lat="0" lon="0">
        <time>2021-02-28T09:14:07.206000+00:00</time>
      </trkpt>
      <trkpt lat="0" lon="0">
        <time>2021-02-28T09:14:07.211000+00:00</time>
      </trkpt>
      <trkpt lat="0" lon="0">
        <time>2021-02-28T09:14:07.215000+00:00</time>
      </trkpt>
      <trkpt lat="47.33281" lon="-1.43627">
        <ele>97</ele>
        <time>2021-02-28T09:14:08.195000+00:00</time>
      </trkpt>
      <trkpt lat="0" lon="0">
        <time>2021-02-28T09:14:08.203000+00:00</time>
      </trkpt>
      <trkpt lat="0" lon="0">
        <time>2021-02-28T09:14:08.208000+00:00</time>
      </trkpt>
      <trkpt lat="0" lon="0">
        <time>2021-02-28T09:14:08.211000+00:00</time>
      </trkpt>
      <trkpt lat="47.33282" lon="-1.43627">
        <ele>97</ele>
        <time>2021-02-28T09:14:09.188000+00:00</time>
      </trkpt>
      <trkpt lat="0" lon="0">
        <time>2021-02-28T09:14:09.193000+00:00</time>
      </trkpt>
      <trkpt lat="0" lon="0">
        <time>2021-02-28T09:14:09.197000+00:00</time>
      </trkpt>
      <trkpt lat="0" lon="0">
        <time>2021-02-28T09:14:09.201000+00:00</time>
      </trkpt>
      <trkpt lat="47.33283" lon="-1.43627">
        <ele>95</ele>
        <time>2021-02-28T09:14:10.155000+00:00</time>
      </trkpt>
      <trkpt lat="0" lon="0">
        <time>2021-02-28T09:14:10.162000+00:00</time>
      </trkpt>
      <trkpt lat="0" lon="0">
        <time>2021-02-28T09:14:10.167000+00:00</time>
      </trkpt>
      <trkpt lat="0" lon="0">
        <time>2021-02-28T09:14:10.170000+00:00</time>
      </trkpt>
      <trkpt lat="47.33285" lon="-1.43627">
        <ele>95</ele>
        <time>2021-02-28T09:14:11.194000+00:00</time>
      </trkpt>
      <trkpt lat="0" lon="0">
        <time>2021-02-28T09:14:11.200000+00:00</time>
      </trkpt>
      <trkpt lat="0" lon="0">
        <time>2021-02-28T09:14:11.207000+00:00</time>
      </trkpt>
      <trkpt lat="0" lon="0">
        <time>2021-02-28T09:14:11.211000+00:00</time>
      </trkpt>
      <trkpt lat="47.33286" lon="-1.43626">
        <ele>93</ele>
        <time>2021-02-28T09:14:12.194000+00:00</time>
      </trkpt>
      <trkpt lat="0" lon="0">
        <time>2021-02-28T09:14:12.200000+00:00</time>
      </trkpt>
      <trkpt lat="0" lon="0">
        <time>2021-02-28T09:14:12.206000+00:00</time>
      </trkpt>
      <trkpt lat="0" lon="0">
        <time>2021-02-28T09:14:12.208000+00:00</time>
      </trkpt>
      <trkpt lat="47.33288" lon="-1.43626">
        <ele>92</ele>
        <time>2021-02-28T09:14:13.175000+00:00</time>
      </trkpt>
      <trkpt lat="0" lon="0">
        <time>2021-02-28T09:14:13.183000+00:00</time>
      </trkpt>
      <trkpt lat="0" lon="0">
        <time>2021-02-28T09:14:13.186000+00:00</time>
      </trkpt>
      <trkpt lat="0" lon="0">
        <time>2021-02-28T09:14:13.187000+00:00</time>
      </trkpt>
      <trkpt lat="47.33289" lon="-1.43626">
        <ele>92</ele>
        <time>2021-02-28T09:14:14.176000+00:00</time>
      </trkpt>
      <trkpt lat="0" lon="0">
        <time>2021-02-28T09:14:14.181000+00:00</time>
      </trkpt>
      <trkpt lat="0" lon="0">
        <time>2021-02-28T09:14:14.186000+00:00</time>
      </trkpt>
      <trkpt lat="0" lon="0">
        <time>2021-02-28T09:14:14.188000+00:00</time>
      </trkpt>
      <trkpt lat="47.3329" lon="-1.43626">
        <ele>92</ele>
        <time>2021-02-28T09:14:15.204000+00:00</time>
      </trkpt>
      <trkpt lat="0" lon="0">
        <time>2021-02-28T09:14:15.212000+00:00</time>
      </trkpt>
      <trkpt lat="0" lon="0">
        <time>2021-02-28T09:14:15.217000+00:00</time>
      </trkpt>
      <trkpt lat="0" lon="0">
        <time>2021-02-28T09:14:15.219000+00:00</time>
      </trkpt>
      <trkpt lat="47.33291" lon="-1.43625">
        <ele>92</ele>
        <time>2021-02-28T09:14:16.166000+00:00</time>
      </trkpt>
      <trkpt lat="0" lon="0">
        <time>2021-02-28T09:14:16.174000+00:00</time>
      </trkpt>
      <trkpt lat="0" lon="0">
        <time>2021-02-28T09:14:16.179000+00:00</time>
      </trkpt>
      <trkpt lat="0" lon="0">
        <time>2021-02-28T09:14:16.182000+00:00</time>
      </trkpt>
      <trkpt lat="47.33291" lon="-1.43625">
        <ele>92</ele>
        <time>2021-02-28T09:14:17.199000+00:00</time>
      </trkpt>
      <trkpt lat="0" lon="0">
        <time>2021-02-28T09:14:17.206000+00:00</time>
      </trkpt>
      <trkpt lat="0" lon="0">
        <time>2021-02-28T09:14:17.211000+00:00</time>
      </trkpt>
      <trkpt lat="0" lon="0">
        <time>2021-02-28T09:14:17.214000+00:00</time>
      </trkpt>
      <trkpt lat="47.33292" lon="-1.43625">
        <ele>92</ele>
        <time>2021-02-28T09:14:18.203000+00:00</time>
      </trkpt>
      <trkpt lat="0" lon="0">
        <time>2021-02-28T09:14:18.208000+00:00</time>
      </trkpt>
      <trkpt lat="0" lon="0">
        <time>2021-02-28T09:14:18.212000+00:00</time>
      </trkpt>
      <trkpt lat="0" lon="0">
        <time>2021-02-28T09:14:18.214000+00:00</time>
      </trkpt>
      <trkpt lat="47.33292" lon="-1.43625">
        <ele>92</ele>
        <time>2021-02-28T09:14:19.209000+00:00</time>
      </trkpt>
      <trkpt lat="0" lon="0">
        <time>2021-02-28T09:14:19.217000+00:00</time>
      </trkpt>
      <trkpt lat="0" lon="0">
        <time>2021-02-28T09:14:19.221000+00:00</time>
      </trkpt>
      <trkpt lat="0" lon="0">
        <time>2021-02-28T09:14:19.223000+00:00</time>
      </trkpt>
      <trkpt lat="47.33292" lon="-1.43625">
        <ele>92</ele>
        <time>2021-02-28T09:14:20.225000+00:00</time>
      </trkpt>
      <trkpt lat="0" lon="0">
        <time>2021-02-28T09:14:20.235000+00:00</time>
      </trkpt>
      <trkpt lat="0" lon="0">
        <time>2021-02-28T09:14:20.239000+00:00</time>
      </trkpt>
      <trkpt lat="0" lon="0">
        <time>2021-02-28T09:14:20.241000+00:00</time>
      </trkpt>
      <trkpt lat="47.33292" lon="-1.43625">
        <ele>91</ele>
        <time>2021-02-28T09:14:21.211000+00:00</time>
      </trkpt>
      <trkpt lat="0" lon="0">
        <time>2021-02-28T09:14:21.222000+00:00</time>
      </trkpt>
      <trkpt lat="0" lon="0">
        <time>2021-02-28T09:14:21.225000+00:00</time>
      </trkpt>
      <trkpt lat="0" lon="0">
        <time>2021-02-28T09:14:21.227000+00:00</time>
      </trkpt>
      <trkpt lat="47.33292" lon="-1.43625">
        <ele>90</ele>
        <time>2021-02-28T09:14:22.207000+00:00</time>
      </trkpt>
      <trkpt lat="0" lon="0">
        <time>2021-02-28T09:14:22.219000+00:00</time>
      </trkpt>
      <trkpt lat="0" lon="0">
        <time>2021-02-28T09:14:22.225000+00:00</time>
      </trkpt>
      <trkpt lat="0" lon="0">
        <time>2021-02-28T09:14:22.239000+00:00</time>
      </trkpt>
      <trkpt lat="47.33279" lon="-1.43641">
        <ele>85</ele>
        <time>2021-02-28T09:14:23.237000+00:00</time>
      </trkpt>
      <trkpt lat="0" lon="0">
        <time>2021-02-28T09:14:23.244000+00:00</time>
      </trkpt>
      <trkpt lat="0" lon="0">
        <time>2021-02-28T09:14:23.254000+00:00</time>
      </trkpt>
      <trkpt lat="0" lon="0">
        <time>2021-02-28T09:14:23.256000+00:00</time>
      </trkpt>
      <trkpt lat="47.33276" lon="-1.43643">
        <ele>85</ele>
        <time>2021-02-28T09:14:24.220000+00:00</time>
      </trkpt>
      <trkpt lat="0" lon="0">
        <time>2021-02-28T09:14:24.229000+00:00</time>
      </trkpt>
      <trkpt lat="0" lon="0">
        <time>2021-02-28T09:14:24.233000+00:00</time>
      </trkpt>
      <trkpt lat="0" lon="0">
        <time>2021-02-28T09:14:24.235000+00:00</time>
      </trkpt>
      <trkpt lat="47.33273" lon="-1.43645">
        <ele>86</ele>
        <time>2021-02-28T09:14:25.223000+00:00</time>
      </trkpt>
      <trkpt lat="0" lon="0">
        <time>2021-02-28T09:14:25.229000+00:00</time>
      </trkpt>
      <trkpt lat="0" lon="0">
        <time>2021-02-28T09:14:25.236000+00:00</time>
      </trkpt>
      <trkpt lat="0" lon="0">
        <time>2021-02-28T09:14:25.238000+00:00</time>
      </trkpt>
      <trkpt lat="47.3327" lon="-1.43647">
        <ele>86</ele>
        <time>2021-02-28T09:14:26.233000+00:00</time>
      </trkpt>
      <trkpt lat="0" lon="0">
        <time>2021-02-28T09:14:26.248000+00:00</time>
      </trkpt>
      <trkpt lat="0" lon="0">
        <time>2021-02-28T09:14:26.261000+00:00</time>
      </trkpt>
      <trkpt lat="0" lon="0">
        <time>2021-02-28T09:14:26.263000+00:00</time>
      </trkpt>
      <trkpt lat="47.33267" lon="-1.43648">
        <ele>86</ele>
        <time>2021-02-28T09:14:27.214000+00:00</time>
      </trkpt>
      <trkpt lat="0" lon="0">
        <time>2021-02-28T09:14:27.227000+00:00</time>
      </trkpt>
      <trkpt lat="0" lon="0">
        <time>2021-02-28T09:14:27.232000+00:00</time>
      </trkpt>
      <trkpt lat="0" lon="0">
        <time>2021-02-28T09:14:27.234000+00:00</time>
      </trkpt>
      <trkpt lat="47.33263" lon="-1.43648">
        <ele>86</ele>
        <time>2021-02-28T09:14:28.210000+00:00</time>
      </trkpt>
      <trkpt lat="0" lon="0">
        <time>2021-02-28T09:14:28.215000+00:00</time>
      </trkpt>
      <trkpt lat="0" lon="0">
        <time>2021-02-28T09:14:28.220000+00:00</time>
      </trkpt>
      <trkpt lat="0" lon="0">
        <time>2021-02-28T09:14:28.222000+00:00</time>
      </trkpt>
      <trkpt lat="47.3326" lon="-1.43648">
        <ele>86</ele>
        <time>2021-02-28T09:14:29.233000+00:00</time>
      </trkpt>
      <trkpt lat="0" lon="0">
        <time>2021-02-28T09:14:29.241000+00:00</time>
      </trkpt>
      <trkpt lat="0" lon="0">
        <time>2021-02-28T09:14:29.247000+00:00</time>
      </trkpt>
      <trkpt lat="0" lon="0">
        <time>2021-02-28T09:14:29.249000+00:00</time>
      </trkpt>
      <trkpt lat="47.33257" lon="-1.43648">
        <ele>85</ele>
        <time>2021-02-28T09:14:30.227000+00:00</time>
      </trkpt>
      <trkpt lat="0" lon="0">
        <time>2021-02-28T09:14:30.239000+00:00</time>
      </trkpt>
      <trkpt lat="0" lon="0">
        <time>2021-02-28T09:14:30.245000+00:00</time>
      </trkpt>
      <trkpt lat="0" lon="0">
        <time>2021-02-28T09:14:30.247000+00:00</time>
      </trkpt>
      <trkpt lat="47.33254" lon="-1.43648">
        <ele>86</ele>
        <time>2021-02-28T09:14:31.238000+00:00</time>
      </trkpt>
      <trkpt lat="0" lon="0">
        <time>2021-02-28T09:14:31.254000+00:00</time>
      </trkpt>
      <trkpt lat="0" lon="0">
        <time>2021-02-28T09:14:31.257000+00:00</time>
      </trkpt>
      <trkpt lat="0" lon="0">
        <time>2021-02-28T09:14:31.262000+00:00</time>
      </trkpt>
      <trkpt lat="47.33252" lon="-1.43647">
        <ele>86</ele>
        <time>2021-02-28T09:14:32.206000+00:00</time>
      </trkpt>
      <trkpt lat="0" lon="0">
        <time>2021-02-28T09:14:32.211000+00:00</time>
      </trkpt>
      <trkpt lat="0" lon="0">
        <time>2021-02-28T09:14:32.215000+00:00</time>
      </trkpt>
      <trkpt lat="0" lon="0">
        <time>2021-02-28T09:14:32.217000+00:00</time>
      </trkpt>
      <trkpt lat="47.33249" lon="-1.43647">
        <ele>86</ele>
        <time>2021-02-28T09:14:33.244000+00:00</time>
      </trkpt>
      <trkpt lat="0" lon="0">
        <time>2021-02-28T09:14:33.262000+00:00</time>
      </trkpt>
      <trkpt lat="0" lon="0">
        <time>2021-02-28T09:14:33.272000+00:00</time>
      </trkpt>
      <trkpt lat="0" lon="0">
        <time>2021-02-28T09:14:33.275000+00:00</time>
      </trkpt>
      <trkpt lat="47.33246" lon="-1.43646">
        <ele>87</ele>
        <time>2021-02-28T09:14:34.233000+00:00</time>
      </trkpt>
      <trkpt lat="0" lon="0">
        <time>2021-02-28T09:14:34.241000+00:00</time>
      </trkpt>
      <trkpt lat="0" lon="0">
        <time>2021-02-28T09:14:34.247000+00:00</time>
      </trkpt>
      <trkpt lat="0" lon="0">
        <time>2021-02-28T09:14:34.249000+00:00</time>
      </trkpt>
      <trkpt lat="47.33243" lon="-1.43645">
        <ele>87</ele>
        <time>2021-02-28T09:14:35.246000+00:00</time>
      </trkpt>
      <trkpt lat="0" lon="0">
        <time>2021-02-28T09:14:35.254000+00:00</time>
      </trkpt>
      <trkpt lat="0" lon="0">
        <time>2021-02-28T09:14:35.259000+00:00</time>
      </trkpt>
      <trkpt lat="0" lon="0">
        <time>2021-02-28T09:14:35.261000+00:00</time>
      </trkpt>
      <trkpt lat="47.3324" lon="-1.43643">
        <ele>89</ele>
        <time>2021-02-28T09:14:36.249000+00:00</time>
      </trkpt>
      <trkpt lat="0" lon="0">
        <time>2021-02-28T09:14:36.259000+00:00</time>
      </trkpt>
      <trkpt lat="0" lon="0">
        <time>2021-02-28T09:14:36.263000+00:00</time>
      </trkpt>
      <trkpt lat="0" lon="0">
        <time>2021-02-28T09:14:36.265000+00:00</time>
      </trkpt>
      <trkpt lat="47.33236" lon="-1.43641">
        <ele>89</ele>
        <time>2021-02-28T09:14:37.224000+00:00</time>
      </trkpt>
      <trkpt lat="0" lon="0">
        <time>2021-02-28T09:14:37.229000+00:00</time>
      </trkpt>
      <trkpt lat="0" lon="0">
        <time>2021-02-28T09:14:37.233000+00:00</time>
      </trkpt>
      <trkpt lat="0" lon="0">
        <time>2021-02-28T09:14:37.237000+00:00</time>
      </trkpt>
      <trkpt lat="47.33233" lon="-1.4364">
        <ele>90</ele>
        <time>2021-02-28T09:14:38.211000+00:00</time>
      </trkpt>
      <trkpt lat="0" lon="0">
        <time>2021-02-28T09:14:38.218000+00:00</time>
      </trkpt>
      <trkpt lat="0" lon="0">
        <time>2021-02-28T09:14:38.223000+00:00</time>
      </trkpt>
      <trkpt lat="0" lon="0">
        <time>2021-02-28T09:14:38.225000+00:00</time>
      </trkpt>
      <trkpt lat="47.33229" lon="-1.43638">
        <ele>91</ele>
        <time>2021-02-28T09:14:39.211000+00:00</time>
      </trkpt>
      <trkpt lat="0" lon="0">
        <time>2021-02-28T09:14:39.224000+00:00</time>
      </trkpt>
      <trkpt lat="0" lon="0">
        <time>2021-02-28T09:14:39.229000+00:00</time>
      </trkpt>
      <trkpt lat="0" lon="0">
        <time>2021-02-28T09:14:39.233000+00:00</time>
      </trkpt>
      <trkpt lat="47.33226" lon="-1.43636">
        <ele>92</ele>
        <time>2021-02-28T09:14:40.234000+00:00</time>
      </trkpt>
      <trkpt lat="0" lon="0">
        <time>2021-02-28T09:14:40.249000+00:00</time>
      </trkpt>
      <trkpt lat="0" lon="0">
        <time>2021-02-28T09:14:40.253000+00:00</time>
      </trkpt>
      <trkpt lat="0" lon="0">
        <time>2021-02-28T09:14:40.256000+00:00</time>
      </trkpt>
      <trkpt lat="47.33222" lon="-1.43634">
        <ele>92</ele>
        <time>2021-02-28T09:14:41.191000+00:00</time>
      </trkpt>
      <trkpt lat="0" lon="0">
        <time>2021-02-28T09:14:41.205000+00:00</time>
      </trkpt>
      <trkpt lat="0" lon="0">
        <time>2021-02-28T09:14:41.208000+00:00</time>
      </trkpt>
      <trkpt lat="0" lon="0">
        <time>2021-02-28T09:14:41.210000+00:00</time>
      </trkpt>
      <trkpt lat="47.33219" lon="-1.43631">
        <ele>92</ele>
        <time>2021-02-28T09:14:42.241000+00:00</time>
      </trkpt>
      <trkpt lat="0" lon="0">
        <time>2021-02-28T09:14:42.249000+00:00</time>
      </trkpt>
      <trkpt lat="0" lon="0">
        <time>2021-02-28T09:14:42.256000+00:00</time>
      </trkpt>
      <trkpt lat="0" lon="0">
        <time>2021-02-28T09:14:42.258000+00:00</time>
      </trkpt>
      <trkpt lat="47.33215" lon="-1.43628">
        <ele>92</ele>
        <time>2021-02-28T09:14:43.246000+00:00</time>
      </trkpt>
      <trkpt lat="0" lon="0">
        <time>2021-02-28T09:14:43.256000+00:00</time>
      </trkpt>
      <trkpt lat="0" lon="0">
        <time>2021-02-28T09:14:43.261000+00:00</time>
      </trkpt>
      <trkpt lat="0" lon="0">
        <time>2021-02-28T09:14:43.263000+00:00</time>
      </trkpt>
      <trkpt lat="47.33212" lon="-1.43625">
        <ele>93</ele>
        <time>2021-02-28T09:14:44.253000+00:00</time>
      </trkpt>
      <trkpt lat="0" lon="0">
        <time>2021-02-28T09:14:44.262000+00:00</time>
      </trkpt>
      <trkpt lat="0" lon="0">
        <time>2021-02-28T09:14:44.267000+00:00</time>
      </trkpt>
      <trkpt lat="0" lon="0">
        <time>2021-02-28T09:14:44.269000+00:00</time>
      </trkpt>
      <trkpt lat="47.33208" lon="-1.43622">
        <ele>93</ele>
        <time>2021-02-28T09:14:45.253000+00:00</time>
      </trkpt>
      <trkpt lat="0" lon="0">
        <time>2021-02-28T09:14:45.263000+00:00</time>
      </trkpt>
      <trkpt lat="0" lon="0">
        <time>2021-02-28T09:14:45.268000+00:00</time>
      </trkpt>
      <trkpt lat="0" lon="0">
        <time>2021-02-28T09:14:45.270000+00:00</time>
      </trkpt>
      <trkpt lat="47.33205" lon="-1.43618">
        <ele>94</ele>
        <time>2021-02-28T09:14:46.229000+00:00</time>
      </trkpt>
      <trkpt lat="0" lon="0">
        <time>2021-02-28T09:14:46.237000+00:00</time>
      </trkpt>
      <trkpt lat="0" lon="0">
        <time>2021-02-28T09:14:46.245000+00:00</time>
      </trkpt>
      <trkpt lat="0" lon="0">
        <time>2021-02-28T09:14:46.247000+00:00</time>
      </trkpt>
      <trkpt lat="47.33201" lon="-1.43615">
        <ele>94</ele>
        <time>2021-02-28T09:14:47.217000+00:00</time>
      </trkpt>
      <trkpt lat="0" lon="0">
        <time>2021-02-28T09:14:47.225000+00:00</time>
      </trkpt>
      <trkpt lat="0" lon="0">
        <time>2021-02-28T09:14:47.229000+00:00</time>
      </trkpt>
      <trkpt lat="0" lon="0">
        <time>2021-02-28T09:14:47.232000+00:00</time>
      </trkpt>
      <trkpt lat="47.33198" lon="-1.43611">
        <ele>94</ele>
        <time>2021-02-28T09:14:48.236000+00:00</time>
      </trkpt>
      <trkpt lat="0" lon="0">
        <time>2021-02-28T09:14:48.241000+00:00</time>
      </trkpt>
      <trkpt lat="0" lon="0">
        <time>2021-02-28T09:14:48.247000+00:00</time>
      </trkpt>
      <trkpt lat="0" lon="0">
        <time>2021-02-28T09:14:48.249000+00:00</time>
      </trkpt>
      <trkpt lat="47.33195" lon="-1.43607">
        <ele>95</ele>
        <time>2021-02-28T09:14:49.235000+00:00</time>
      </trkpt>
      <trkpt lat="0" lon="0">
        <time>2021-02-28T09:14:49.243000+00:00</time>
      </trkpt>
      <trkpt lat="0" lon="0">
        <time>2021-02-28T09:14:49.247000+00:00</time>
      </trkpt>
      <trkpt lat="0" lon="0">
        <time>2021-02-28T09:14:49.249000+00:00</time>
      </trkpt>
      <trkpt lat="47.33193" lon="-1.43603">
        <ele>95</ele>
        <time>2021-02-28T09:14:50.237000+00:00</time>
      </trkpt>
      <trkpt lat="0" lon="0">
        <time>2021-02-28T09:14:50.242000+00:00</time>
      </trkpt>
      <trkpt lat="0" lon="0">
        <time>2021-02-28T09:14:50.248000+00:00</time>
      </trkpt>
      <trkpt lat="0" lon="0">
        <time>2021-02-28T09:14:50.250000+00:00</time>
      </trkpt>
      <trkpt lat="47.3319" lon="-1.43599">
        <ele>95</ele>
        <time>2021-02-28T09:14:51.215000+00:00</time>
      </trkpt>
      <trkpt lat="0" lon="0">
        <time>2021-02-28T09:14:51.222000+00:00</time>
      </trkpt>
      <trkpt lat="0" lon="0">
        <time>2021-02-28T09:14:51.227000+00:00</time>
      </trkpt>
      <trkpt lat="0" lon="0">
        <time>2021-02-28T09:14:51.230000+00:00</time>
      </trkpt>
      <trkpt lat="47.33187" lon="-1.43594">
        <ele>96</ele>
        <time>2021-02-28T09:14:52.230000+00:00</time>
      </trkpt>
      <trkpt lat="0" lon="0">
        <time>2021-02-28T09:14:52.235000+00:00</time>
      </trkpt>
      <trkpt lat="0" lon="0">
        <time>2021-02-28T09:14:52.241000+00:00</time>
      </trkpt>
      <trkpt lat="0" lon="0">
        <time>2021-02-28T09:14:52.243000+00:00</time>
      </trkpt>
      <trkpt lat="47.33185" lon="-1.4359">
        <ele>96</ele>
        <time>2021-02-28T09:14:53.224000+00:00</time>
      </trkpt>
      <trkpt lat="0" lon="0">
        <time>2021-02-28T09:14:53.231000+00:00</time>
      </trkpt>
      <trkpt lat="0" lon="0">
        <time>2021-02-28T09:14:53.235000+00:00</time>
      </trkpt>
      <trkpt lat="0" lon="0">
        <time>2021-02-28T09:14:53.238000+00:00</time>
      </trkpt>
      <trkpt lat="47.33183" lon="-1.43586">
        <ele>97</ele>
        <time>2021-02-28T09:14:54.228000+00:00</time>
      </trkpt>
      <trkpt lat="0" lon="0">
        <time>2021-02-28T09:14:54.234000+00:00</time>
      </trkpt>
      <trkpt lat="0" lon="0">
        <time>2021-02-28T09:14:54.241000+00:00</time>
      </trkpt>
      <trkpt lat="0" lon="0">
        <time>2021-02-28T09:14:54.245000+00:00</time>
      </trkpt>
      <trkpt lat="47.33181" lon="-1.43582">
        <ele>97</ele>
        <time>2021-02-28T09:14:55.229000+00:00</time>
      </trkpt>
      <trkpt lat="0" lon="0">
        <time>2021-02-28T09:14:55.234000+00:00</time>
      </trkpt>
      <trkpt lat="0" lon="0">
        <time>2021-02-28T09:14:55.240000+00:00</time>
      </trkpt>
      <trkpt lat="0" lon="0">
        <time>2021-02-28T09:14:55.244000+00:00</time>
      </trkpt>
      <trkpt lat="47.3318" lon="-1.43577">
        <ele>97</ele>
        <time>2021-02-28T09:14:56.233000+00:00</time>
      </trkpt>
      <trkpt lat="0" lon="0">
        <time>2021-02-28T09:14:56.246000+00:00</time>
      </trkpt>
      <trkpt lat="0" lon="0">
        <time>2021-02-28T09:14:56.250000+00:00</time>
      </trkpt>
      <trkpt lat="0" lon="0">
        <time>2021-02-28T09:14:56.253000+00:00</time>
      </trkpt>
      <trkpt lat="47.33178" lon="-1.43573">
        <ele>97</ele>
        <time>2021-02-28T09:14:57.220000+00:00</time>
      </trkpt>
      <trkpt lat="0" lon="0">
        <time>2021-02-28T09:14:57.226000+00:00</time>
      </trkpt>
      <trkpt lat="0" lon="0">
        <time>2021-02-28T09:14:57.231000+00:00</time>
      </trkpt>
      <trkpt lat="0" lon="0">
        <time>2021-02-28T09:14:57.233000+00:00</time>
      </trkpt>
      <trkpt lat="47.33176" lon="-1.43569">
        <ele>98</ele>
        <time>2021-02-28T09:14:58.245000+00:00</time>
      </trkpt>
      <trkpt lat="0" lon="0">
        <time>2021-02-28T09:14:58.251000+00:00</time>
      </trkpt>
      <trkpt lat="0" lon="0">
        <time>2021-02-28T09:14:58.256000+00:00</time>
      </trkpt>
      <trkpt lat="0" lon="0">
        <time>2021-02-28T09:14:58.260000+00:00</time>
      </trkpt>
      <trkpt lat="47.33174" lon="-1.43565">
        <ele>99</ele>
        <time>2021-02-28T09:14:59.229000+00:00</time>
      </trkpt>
      <trkpt lat="0" lon="0">
        <time>2021-02-28T09:14:59.240000+00:00</time>
      </trkpt>
      <trkpt lat="0" lon="0">
        <time>2021-02-28T09:14:59.244000+00:00</time>
      </trkpt>
      <trkpt lat="0" lon="0">
        <time>2021-02-28T09:14:59.245000+00:00</time>
      </trkpt>
      <trkpt lat="47.33172" lon="-1.43561">
        <ele>99</ele>
        <time>2021-02-28T09:15:00.217000+00:00</time>
      </trkpt>
      <trkpt lat="0" lon="0">
        <time>2021-02-28T09:15:00.222000+00:00</time>
      </trkpt>
      <trkpt lat="0" lon="0">
        <time>2021-02-28T09:15:00.228000+00:00</time>
      </trkpt>
      <trkpt lat="0" lon="0">
        <time>2021-02-28T09:15:00.231000+00:00</time>
      </trkpt>
      <trkpt lat="47.3317" lon="-1.43557">
        <ele>100</ele>
        <time>2021-02-28T09:15:01.231000+00:00</time>
      </trkpt>
      <trkpt lat="0" lon="0">
        <time>2021-02-28T09:15:01.233000+00:00</time>
      </trkpt>
      <trkpt lat="0" lon="0">
        <time>2021-02-28T09:15:01.236000+00:00</time>
      </trkpt>
      <trkpt lat="0" lon="0">
        <time>2021-02-28T09:15:01.237000+00:00</time>
      </trkpt>
      <trkpt lat="47.33167" lon="-1.43554">
        <ele>100</ele>
        <time>2021-02-28T09:15:02.229000+00:00</time>
      </trkpt>
      <trkpt lat="0" lon="0">
        <time>2021-02-28T09:15:02.235000+00:00</time>
      </trkpt>
      <trkpt lat="0" lon="0">
        <time>2021-02-28T09:15:02.241000+00:00</time>
      </trkpt>
      <trkpt lat="0" lon="0">
        <time>2021-02-28T09:15:02.244000+00:00</time>
      </trkpt>
      <trkpt lat="47.33164" lon="-1.4355">
        <ele>100</ele>
        <time>2021-02-28T09:15:03.240000+00:00</time>
      </trkpt>
      <trkpt lat="0" lon="0">
        <time>2021-02-28T09:15:03.245000+00:00</time>
      </trkpt>
      <trkpt lat="0" lon="0">
        <time>2021-02-28T09:15:03.250000+00:00</time>
      </trkpt>
      <trkpt lat="0" lon="0">
        <time>2021-02-28T09:15:03.253000+00:00</time>
      </trkpt>
      <trkpt lat="47.33161" lon="-1.43546">
        <ele>101</ele>
        <time>2021-02-28T09:15:04.213000+00:00</time>
      </trkpt>
      <trkpt lat="0" lon="0">
        <time>2021-02-28T09:15:04.221000+00:00</time>
      </trkpt>
      <trkpt lat="0" lon="0">
        <time>2021-02-28T09:15:04.225000+00:00</time>
      </trkpt>
      <trkpt lat="0" lon="0">
        <time>2021-02-28T09:15:04.228000+00:00</time>
      </trkpt>
      <trkpt lat="47.33159" lon="-1.43542">
        <ele>101</ele>
        <time>2021-02-28T09:15:05.246000+00:00</time>
      </trkpt>
      <trkpt lat="0" lon="0">
        <time>2021-02-28T09:15:05.257000+00:00</time>
      </trkpt>
      <trkpt lat="0" lon="0">
        <time>2021-02-28T09:15:05.261000+00:00</time>
      </trkpt>
      <trkpt lat="0" lon="0">
        <time>2021-02-28T09:15:05.263000+00:00</time>
      </trkpt>
      <trkpt lat="47.33156" lon="-1.43537">
        <ele>102</ele>
        <time>2021-02-28T09:15:06.246000+00:00</time>
      </trkpt>
      <trkpt lat="0" lon="0">
        <time>2021-02-28T09:15:06.250000+00:00</time>
      </trkpt>
      <trkpt lat="0" lon="0">
        <time>2021-02-28T09:15:06.260000+00:00</time>
      </trkpt>
      <trkpt lat="0" lon="0">
        <time>2021-02-28T09:15:06.261000+00:00</time>
      </trkpt>
      <trkpt lat="47.33153" lon="-1.43532">
        <ele>102</ele>
        <time>2021-02-28T09:15:07.233000+00:00</time>
      </trkpt>
      <trkpt lat="0" lon="0">
        <time>2021-02-28T09:15:07.246000+00:00</time>
      </trkpt>
      <trkpt lat="0" lon="0">
        <time>2021-02-28T09:15:07.252000+00:00</time>
      </trkpt>
      <trkpt lat="0" lon="0">
        <time>2021-02-28T09:15:07.254000+00:00</time>
      </trkpt>
      <trkpt lat="47.3315" lon="-1.43528">
        <ele>103</ele>
        <time>2021-02-28T09:15:08.233000+00:00</time>
      </trkpt>
      <trkpt lat="0" lon="0">
        <time>2021-02-28T09:15:08.238000+00:00</time>
      </trkpt>
      <trkpt lat="0" lon="0">
        <time>2021-02-28T09:15:08.244000+00:00</time>
      </trkpt>
      <trkpt lat="0" lon="0">
        <time>2021-02-28T09:15:08.247000+00:00</time>
      </trkpt>
      <trkpt lat="47.33148" lon="-1.43523">
        <ele>103</ele>
        <time>2021-02-28T09:15:09.216000+00:00</time>
      </trkpt>
      <trkpt lat="0" lon="0">
        <time>2021-02-28T09:15:09.221000+00:00</time>
      </trkpt>
      <trkpt lat="0" lon="0">
        <time>2021-02-28T09:15:09.225000+00:00</time>
      </trkpt>
      <trkpt lat="0" lon="0">
        <time>2021-02-28T09:15:09.229000+00:00</time>
      </trkpt>
      <trkpt lat="47.33145" lon="-1.43519">
        <ele>103</ele>
        <time>2021-02-28T09:15:10.239000+00:00</time>
      </trkpt>
      <trkpt lat="0" lon="0">
        <time>2021-02-28T09:15:10.245000+00:00</time>
      </trkpt>
      <trkpt lat="0" lon="0">
        <time>2021-02-28T09:15:10.250000+00:00</time>
      </trkpt>
      <trkpt lat="0" lon="0">
        <time>2021-02-28T09:15:10.253000+00:00</time>
      </trkpt>
      <trkpt lat="47.33142" lon="-1.43515">
        <ele>102</ele>
        <time>2021-02-28T09:15:11.250000+00:00</time>
      </trkpt>
      <trkpt lat="0" lon="0">
        <time>2021-02-28T09:15:11.257000+00:00</time>
      </trkpt>
      <trkpt lat="0" lon="0">
        <time>2021-02-28T09:15:11.262000+00:00</time>
      </trkpt>
      <trkpt lat="0" lon="0">
        <time>2021-02-28T09:15:11.265000+00:00</time>
      </trkpt>
      <trkpt lat="47.3314" lon="-1.43511">
        <ele>102</ele>
        <time>2021-02-28T09:15:12.225000+00:00</time>
      </trkpt>
      <trkpt lat="0" lon="0">
        <time>2021-02-28T09:15:12.236000+00:00</time>
      </trkpt>
      <trkpt lat="0" lon="0">
        <time>2021-02-28T09:15:12.240000+00:00</time>
      </trkpt>
      <trkpt lat="0" lon="0">
        <time>2021-02-28T09:15:12.242000+00:00</time>
      </trkpt>
      <trkpt lat="47.33137" lon="-1.43507">
        <ele>102</ele>
        <time>2021-02-28T09:15:13.188000+00:00</time>
      </trkpt>
      <trkpt lat="0" lon="0">
        <time>2021-02-28T09:15:13.196000+00:00</time>
      </trkpt>
      <trkpt lat="0" lon="0">
        <time>2021-02-28T09:15:13.200000+00:00</time>
      </trkpt>
      <trkpt lat="0" lon="0">
        <time>2021-02-28T09:15:13.202000+00:00</time>
      </trkpt>
      <trkpt lat="47.33135" lon="-1.43504">
        <ele>102</ele>
        <time>2021-02-28T09:15:14.257000+00:00</time>
      </trkpt>
      <trkpt lat="0" lon="0">
        <time>2021-02-28T09:15:14.262000+00:00</time>
      </trkpt>
      <trkpt lat="0" lon="0">
        <time>2021-02-28T09:15:14.267000+00:00</time>
      </trkpt>
      <trkpt lat="0" lon="0">
        <time>2021-02-28T09:15:14.269000+00:00</time>
      </trkpt>
      <trkpt lat="47.33132" lon="-1.43501">
        <ele>102</ele>
        <time>2021-02-28T09:15:15.230000+00:00</time>
      </trkpt>
      <trkpt lat="0" lon="0">
        <time>2021-02-28T09:15:15.246000+00:00</time>
      </trkpt>
      <trkpt lat="0" lon="0">
        <time>2021-02-28T09:15:15.253000+00:00</time>
      </trkpt>
      <trkpt lat="0" lon="0">
        <time>2021-02-28T09:15:15.255000+00:00</time>
      </trkpt>
      <trkpt lat="47.3313" lon="-1.43498">
        <ele>102</ele>
        <time>2021-02-28T09:15:16.226000+00:00</time>
      </trkpt>
      <trkpt lat="0" lon="0">
        <time>2021-02-28T09:15:16.231000+00:00</time>
      </trkpt>
      <trkpt lat="0" lon="0">
        <time>2021-02-28T09:15:16.236000+00:00</time>
      </trkpt>
      <trkpt lat="0" lon="0">
        <time>2021-02-28T09:15:16.238000+00:00</time>
      </trkpt>
      <trkpt lat="47.33127" lon="-1.43495">
        <ele>102</ele>
        <time>2021-02-28T09:15:17.206000+00:00</time>
      </trkpt>
      <trkpt lat="0" lon="0">
        <time>2021-02-28T09:15:17.215000+00:00</time>
      </trkpt>
      <trkpt lat="0" lon="0">
        <time>2021-02-28T09:15:17.220000+00:00</time>
      </trkpt>
      <trkpt lat="0" lon="0">
        <time>2021-02-28T09:15:17.224000+00:00</time>
      </trkpt>
      <trkpt lat="47.33124" lon="-1.43491">
        <ele>102</ele>
        <time>2021-02-28T09:15:18.232000+00:00</time>
      </trkpt>
      <trkpt lat="0" lon="0">
        <time>2021-02-28T09:15:18.237000+00:00</time>
      </trkpt>
      <trkpt lat="0" lon="0">
        <time>2021-02-28T09:15:18.240000+00:00</time>
      </trkpt>
      <trkpt lat="0" lon="0">
        <time>2021-02-28T09:15:18.243000+00:00</time>
      </trkpt>
      <trkpt lat="47.33121" lon="-1.43487">
        <ele>102</ele>
        <time>2021-02-28T09:15:19.185000+00:00</time>
      </trkpt>
      <trkpt lat="0" lon="0">
        <time>2021-02-28T09:15:19.196000+00:00</time>
      </trkpt>
      <trkpt lat="0" lon="0">
        <time>2021-02-28T09:15:19.200000+00:00</time>
      </trkpt>
      <trkpt lat="0" lon="0">
        <time>2021-02-28T09:15:19.202000+00:00</time>
      </trkpt>
      <trkpt lat="47.33119" lon="-1.43484">
        <ele>102</ele>
        <time>2021-02-28T09:15:20.220000+00:00</time>
      </trkpt>
      <trkpt lat="0" lon="0">
        <time>2021-02-28T09:15:20.227000+00:00</time>
      </trkpt>
      <trkpt lat="0" lon="0">
        <time>2021-02-28T09:15:20.233000+00:00</time>
      </trkpt>
      <trkpt lat="0" lon="0">
        <time>2021-02-28T09:15:20.237000+00:00</time>
      </trkpt>
      <trkpt lat="47.33116" lon="-1.4348">
        <ele>102</ele>
        <time>2021-02-28T09:15:21.232000+00:00</time>
      </trkpt>
      <trkpt lat="0" lon="0">
        <time>2021-02-28T09:15:21.243000+00:00</time>
      </trkpt>
      <trkpt lat="0" lon="0">
        <time>2021-02-28T09:15:21.254000+00:00</time>
      </trkpt>
      <trkpt lat="0" lon="0">
        <time>2021-02-28T09:15:21.257000+00:00</time>
      </trkpt>
      <trkpt lat="47.33114" lon="-1.43476">
        <ele>102</ele>
        <time>2021-02-28T09:15:22.233000+00:00</time>
      </trkpt>
      <trkpt lat="0" lon="0">
        <time>2021-02-28T09:15:22.245000+00:00</time>
      </trkpt>
      <trkpt lat="0" lon="0">
        <time>2021-02-28T09:15:22.248000+00:00</time>
      </trkpt>
      <trkpt lat="0" lon="0">
        <time>2021-02-28T09:15:22.250000+00:00</time>
      </trkpt>
      <trkpt lat="47.33112" lon="-1.43471">
        <ele>102</ele>
        <time>2021-02-28T09:15:23.226000+00:00</time>
      </trkpt>
      <trkpt lat="0" lon="0">
        <time>2021-02-28T09:15:23.233000+00:00</time>
      </trkpt>
      <trkpt lat="0" lon="0">
        <time>2021-02-28T09:15:23.238000+00:00</time>
      </trkpt>
      <trkpt lat="0" lon="0">
        <time>2021-02-28T09:15:23.240000+00:00</time>
      </trkpt>
      <trkpt lat="47.3311" lon="-1.43467">
        <ele>103</ele>
        <time>2021-02-28T09:15:24.158000+00:00</time>
      </trkpt>
      <trkpt lat="0" lon="0">
        <time>2021-02-28T09:15:24.166000+00:00</time>
      </trkpt>
      <trkpt lat="0" lon="0">
        <time>2021-02-28T09:15:24.172000+00:00</time>
      </trkpt>
      <trkpt lat="0" lon="0">
        <time>2021-02-28T09:15:24.177000+00:00</time>
      </trkpt>
      <trkpt lat="47.33108" lon="-1.43463">
        <ele>103</ele>
        <time>2021-02-28T09:15:25.196000+00:00</time>
      </trkpt>
      <trkpt lat="0" lon="0">
        <time>2021-02-28T09:15:25.204000+00:00</time>
      </trkpt>
      <trkpt lat="0" lon="0">
        <time>2021-02-28T09:15:25.211000+00:00</time>
      </trkpt>
      <trkpt lat="0" lon="0">
        <time>2021-02-28T09:15:25.214000+00:00</time>
      </trkpt>
      <trkpt lat="47.33106" lon="-1.43459">
        <ele>103</ele>
        <time>2021-02-28T09:15:26.246000+00:00</time>
      </trkpt>
      <trkpt lat="0" lon="0">
        <time>2021-02-28T09:15:26.257000+00:00</time>
      </trkpt>
      <trkpt lat="0" lon="0">
        <time>2021-02-28T09:15:26.261000+00:00</time>
      </trkpt>
      <trkpt lat="0" lon="0">
        <time>2021-02-28T09:15:26.264000+00:00</time>
      </trkpt>
      <trkpt lat="47.33104" lon="-1.43455">
        <ele>104</ele>
        <time>2021-02-28T09:15:27.256000+00:00</time>
      </trkpt>
      <trkpt lat="0" lon="0">
        <time>2021-02-28T09:15:27.261000+00:00</time>
      </trkpt>
      <trkpt lat="0" lon="0">
        <time>2021-02-28T09:15:27.265000+00:00</time>
      </trkpt>
      <trkpt lat="0" lon="0">
        <time>2021-02-28T09:15:27.267000+00:00</time>
      </trkpt>
      <trkpt lat="47.33102" lon="-1.43452">
        <ele>104</ele>
        <time>2021-02-28T09:15:28.206000+00:00</time>
      </trkpt>
      <trkpt lat="0" lon="0">
        <time>2021-02-28T09:15:28.212000+00:00</time>
      </trkpt>
      <trkpt lat="0" lon="0">
        <time>2021-02-28T09:15:28.216000+00:00</time>
      </trkpt>
      <trkpt lat="0" lon="0">
        <time>2021-02-28T09:15:28.218000+00:00</time>
      </trkpt>
      <trkpt lat="47.331" lon="-1.43448">
        <ele>104</ele>
        <time>2021-02-28T09:15:29.177000+00:00</time>
      </trkpt>
      <trkpt lat="0" lon="0">
        <time>2021-02-28T09:15:29.184000+00:00</time>
      </trkpt>
      <trkpt lat="0" lon="0">
        <time>2021-02-28T09:15:29.187000+00:00</time>
      </trkpt>
      <trkpt lat="0" lon="0">
        <time>2021-02-28T09:15:29.189000+00:00</time>
      </trkpt>
      <trkpt lat="47.33099" lon="-1.43445">
        <ele>104</ele>
        <time>2021-02-28T09:15:30.198000+00:00</time>
      </trkpt>
      <trkpt lat="0" lon="0">
        <time>2021-02-28T09:15:30.208000+00:00</time>
      </trkpt>
      <trkpt lat="0" lon="0">
        <time>2021-02-28T09:15:30.216000+00:00</time>
      </trkpt>
      <trkpt lat="0" lon="0">
        <time>2021-02-28T09:15:30.218000+00:00</time>
      </trkpt>
      <trkpt lat="47.33097" lon="-1.43441">
        <ele>104</ele>
        <time>2021-02-28T09:15:31.262000+00:00</time>
      </trkpt>
      <trkpt lat="0" lon="0">
        <time>2021-02-28T09:15:31.268000+00:00</time>
      </trkpt>
      <trkpt lat="0" lon="0">
        <time>2021-02-28T09:15:31.275000+00:00</time>
      </trkpt>
      <trkpt lat="0" lon="0">
        <time>2021-02-28T09:15:31.278000+00:00</time>
      </trkpt>
      <trkpt lat="47.33096" lon="-1.43438">
        <ele>104</ele>
        <time>2021-02-28T09:15:32.248000+00:00</time>
      </trkpt>
      <trkpt lat="0" lon="0">
        <time>2021-02-28T09:15:32.257000+00:00</time>
      </trkpt>
      <trkpt lat="0" lon="0">
        <time>2021-02-28T09:15:32.261000+00:00</time>
      </trkpt>
      <trkpt lat="0" lon="0">
        <time>2021-02-28T09:15:32.264000+00:00</time>
      </trkpt>
      <trkpt lat="47.33095" lon="-1.43436">
        <ele>103</ele>
        <time>2021-02-28T09:15:33.211000+00:00</time>
      </trkpt>
      <trkpt lat="0" lon="0">
        <time>2021-02-28T09:15:33.213000+00:00</time>
      </trkpt>
      <trkpt lat="0" lon="0">
        <time>2021-02-28T09:15:33.215000+00:00</time>
      </trkpt>
      <trkpt lat="0" lon="0">
        <time>2021-02-28T09:15:33.218000+00:00</time>
      </trkpt>
      <trkpt lat="47.33094" lon="-1.43434">
        <ele>102</ele>
        <time>2021-02-28T09:15:34.193000+00:00</time>
      </trkpt>
      <trkpt lat="0" lon="0">
        <time>2021-02-28T09:15:34.201000+00:00</time>
      </trkpt>
      <trkpt lat="0" lon="0">
        <time>2021-02-28T09:15:34.211000+00:00</time>
      </trkpt>
      <trkpt lat="0" lon="0">
        <time>2021-02-28T09:15:34.214000+00:00</time>
      </trkpt>
      <trkpt lat="47.33093" lon="-1.43433">
        <ele>102</ele>
        <time>2021-02-28T09:15:35.203000+00:00</time>
      </trkpt>
      <trkpt lat="0" lon="0">
        <time>2021-02-28T09:15:35.209000+00:00</time>
      </trkpt>
      <trkpt lat="0" lon="0">
        <time>2021-02-28T09:15:35.213000+00:00</time>
      </trkpt>
      <trkpt lat="0" lon="0">
        <time>2021-02-28T09:15:35.215000+00:00</time>
      </trkpt>
      <trkpt lat="47.33092" lon="-1.43432">
        <ele>101</ele>
        <time>2021-02-28T09:15:36.226000+00:00</time>
      </trkpt>
      <trkpt lat="0" lon="0">
        <time>2021-02-28T09:15:36.232000+00:00</time>
      </trkpt>
      <trkpt lat="0" lon="0">
        <time>2021-02-28T09:15:36.238000+00:00</time>
      </trkpt>
      <trkpt lat="0" lon="0">
        <time>2021-02-28T09:15:36.240000+00:00</time>
      </trkpt>
      <trkpt lat="47.33091" lon="-1.43432">
        <ele>100</ele>
        <time>2021-02-28T09:15:37.231000+00:00</time>
      </trkpt>
      <trkpt lat="0" lon="0">
        <time>2021-02-28T09:15:37.239000+00:00</time>
      </trkpt>
      <trkpt lat="0" lon="0">
        <time>2021-02-28T09:15:37.248000+00:00</time>
      </trkpt>
      <trkpt lat="0" lon="0">
        <time>2021-02-28T09:15:37.251000+00:00</time>
      </trkpt>
      <trkpt lat="47.3309" lon="-1.43432">
        <ele>99</ele>
        <time>2021-02-28T09:15:38.240000+00:00</time>
      </trkpt>
      <trkpt lat="0" lon="0">
        <time>2021-02-28T09:15:38.245000+00:00</time>
      </trkpt>
      <trkpt lat="0" lon="0">
        <time>2021-02-28T09:15:38.248000+00:00</time>
      </trkpt>
      <trkpt lat="0" lon="0">
        <time>2021-02-28T09:15:38.251000+00:00</time>
      </trkpt>
      <trkpt lat="47.33089" lon="-1.43432">
        <ele>98</ele>
        <time>2021-02-28T09:15:39.230000+00:00</time>
      </trkpt>
      <trkpt lat="0" lon="0">
        <time>2021-02-28T09:15:39.236000+00:00</time>
      </trkpt>
      <trkpt lat="0" lon="0">
        <time>2021-02-28T09:15:39.240000+00:00</time>
      </trkpt>
      <trkpt lat="0" lon="0">
        <time>2021-02-28T09:15:39.244000+00:00</time>
      </trkpt>
      <trkpt lat="47.33088" lon="-1.43432">
        <ele>97</ele>
        <time>2021-02-28T09:15:40.225000+00:00</time>
      </trkpt>
      <trkpt lat="0" lon="0">
        <time>2021-02-28T09:15:40.230000+00:00</time>
      </trkpt>
      <trkpt lat="0" lon="0">
        <time>2021-02-28T09:15:40.234000+00:00</time>
      </trkpt>
      <trkpt lat="0" lon="0">
        <time>2021-02-28T09:15:40.237000+00:00</time>
      </trkpt>
      <trkpt lat="47.33087" lon="-1.43432">
        <ele>98</ele>
        <time>2021-02-28T09:15:41.226000+00:00</time>
      </trkpt>
      <trkpt lat="0" lon="0">
        <time>2021-02-28T09:15:41.231000+00:00</time>
      </trkpt>
      <trkpt lat="0" lon="0">
        <time>2021-02-28T09:15:41.238000+00:00</time>
      </trkpt>
      <trkpt lat="0" lon="0">
        <time>2021-02-28T09:15:41.241000+00:00</time>
      </trkpt>
      <trkpt lat="47.33086" lon="-1.43432">
        <ele>98</ele>
        <time>2021-02-28T09:15:42.237000+00:00</time>
      </trkpt>
      <trkpt lat="0" lon="0">
        <time>2021-02-28T09:15:42.248000+00:00</time>
      </trkpt>
      <trkpt lat="0" lon="0">
        <time>2021-02-28T09:15:42.253000+00:00</time>
      </trkpt>
      <trkpt lat="0" lon="0">
        <time>2021-02-28T09:15:42.255000+00:00</time>
      </trkpt>
      <trkpt lat="47.33085" lon="-1.43431">
        <ele>97</ele>
        <time>2021-02-28T09:15:43.205000+00:00</time>
      </trkpt>
      <trkpt lat="0" lon="0">
        <time>2021-02-28T09:15:43.212000+00:00</time>
      </trkpt>
      <trkpt lat="0" lon="0">
        <time>2021-02-28T09:15:43.215000+00:00</time>
      </trkpt>
      <trkpt lat="0" lon="0">
        <time>2021-02-28T09:15:43.217000+00:00</time>
      </trkpt>
      <trkpt lat="47.33083" lon="-1.43431">
        <ele>97</ele>
        <time>2021-02-28T09:15:44.238000+00:00</time>
      </trkpt>
      <trkpt lat="0" lon="0">
        <time>2021-02-28T09:15:44.245000+00:00</time>
      </trkpt>
      <trkpt lat="0" lon="0">
        <time>2021-02-28T09:15:44.250000+00:00</time>
      </trkpt>
      <trkpt lat="0" lon="0">
        <time>2021-02-28T09:15:44.254000+00:00</time>
      </trkpt>
      <trkpt lat="47.33082" lon="-1.4343">
        <ele>97</ele>
        <time>2021-02-28T09:15:45.234000+00:00</time>
      </trkpt>
      <trkpt lat="0" lon="0">
        <time>2021-02-28T09:15:45.241000+00:00</time>
      </trkpt>
      <trkpt lat="0" lon="0">
        <time>2021-02-28T09:15:45.245000+00:00</time>
      </trkpt>
      <trkpt lat="0" lon="0">
        <time>2021-02-28T09:15:45.246000+00:00</time>
      </trkpt>
      <trkpt lat="47.33081" lon="-1.4343">
        <ele>98</ele>
        <time>2021-02-28T09:15:46.212000+00:00</time>
      </trkpt>
      <trkpt lat="0" lon="0">
        <time>2021-02-28T09:15:46.216000+00:00</time>
      </trkpt>
      <trkpt lat="0" lon="0">
        <time>2021-02-28T09:15:46.220000+00:00</time>
      </trkpt>
      <trkpt lat="0" lon="0">
        <time>2021-02-28T09:15:46.223000+00:00</time>
      </trkpt>
      <trkpt lat="47.3308" lon="-1.4343">
        <ele>98</ele>
        <time>2021-02-28T09:15:47.268000+00:00</time>
      </trkpt>
      <trkpt lat="0" lon="0">
        <time>2021-02-28T09:15:47.276000+00:00</time>
      </trkpt>
      <trkpt lat="0" lon="0">
        <time>2021-02-28T09:15:47.281000+00:00</time>
      </trkpt>
      <trkpt lat="0" lon="0">
        <time>2021-02-28T09:15:47.284000+00:00</time>
      </trkpt>
      <trkpt lat="47.33079" lon="-1.43431">
        <ele>98</ele>
        <time>2021-02-28T09:15:48.254000+00:00</time>
      </trkpt>
      <trkpt lat="0" lon="0">
        <time>2021-02-28T09:15:48.266000+00:00</time>
      </trkpt>
      <trkpt lat="0" lon="0">
        <time>2021-02-28T09:15:48.269000+00:00</time>
      </trkpt>
      <trkpt lat="0" lon="0">
        <time>2021-02-28T09:15:48.271000+00:00</time>
      </trkpt>
      <trkpt lat="47.33078" lon="-1.43431">
        <ele>98</ele>
        <time>2021-02-28T09:15:49.219000+00:00</time>
      </trkpt>
      <trkpt lat="0" lon="0">
        <time>2021-02-28T09:15:49.226000+00:00</time>
      </trkpt>
      <trkpt lat="0" lon="0">
        <time>2021-02-28T09:15:49.235000+00:00</time>
      </trkpt>
      <trkpt lat="0" lon="0">
        <time>2021-02-28T09:15:49.237000+00:00</time>
      </trkpt>
      <trkpt lat="47.33076" lon="-1.43431">
        <ele>97</ele>
        <time>2021-02-28T09:15:50.234000+00:00</time>
      </trkpt>
      <trkpt lat="0" lon="0">
        <time>2021-02-28T09:15:50.241000+00:00</time>
      </trkpt>
      <trkpt lat="0" lon="0">
        <time>2021-02-28T09:15:50.245000+00:00</time>
      </trkpt>
      <trkpt lat="0" lon="0">
        <time>2021-02-28T09:15:50.247000+00:00</time>
      </trkpt>
      <trkpt lat="47.33075" lon="-1.43431">
        <ele>97</ele>
        <time>2021-02-28T09:15:51.227000+00:00</time>
      </trkpt>
      <trkpt lat="0" lon="0">
        <time>2021-02-28T09:15:51.234000+00:00</time>
      </trkpt>
      <trkpt lat="0" lon="0">
        <time>2021-02-28T09:15:51.240000+00:00</time>
      </trkpt>
      <trkpt lat="0" lon="0">
        <time>2021-02-28T09:15:51.242000+00:00</time>
      </trkpt>
      <trkpt lat="47.33073" lon="-1.43431">
        <ele>97</ele>
        <time>2021-02-28T09:15:52.232000+00:00</time>
      </trkpt>
      <trkpt lat="0" lon="0">
        <time>2021-02-28T09:15:52.237000+00:00</time>
      </trkpt>
      <trkpt lat="0" lon="0">
        <time>2021-02-28T09:15:52.239000+00:00</time>
      </trkpt>
      <trkpt lat="0" lon="0">
        <time>2021-02-28T09:15:52.240000+00:00</time>
      </trkpt>
      <trkpt lat="47.33072" lon="-1.43431">
        <ele>97</ele>
        <time>2021-02-28T09:15:53.244000+00:00</time>
      </trkpt>
      <trkpt lat="0" lon="0">
        <time>2021-02-28T09:15:53.252000+00:00</time>
      </trkpt>
      <trkpt lat="0" lon="0">
        <time>2021-02-28T09:15:53.256000+00:00</time>
      </trkpt>
      <trkpt lat="0" lon="0">
        <time>2021-02-28T09:15:53.259000+00:00</time>
      </trkpt>
      <trkpt lat="47.33071" lon="-1.4343">
        <ele>96</ele>
        <time>2021-02-28T09:15:54.247000+00:00</time>
      </trkpt>
      <trkpt lat="0" lon="0">
        <time>2021-02-28T09:15:54.253000+00:00</time>
      </trkpt>
      <trkpt lat="0" lon="0">
        <time>2021-02-28T09:15:54.265000+00:00</time>
      </trkpt>
      <trkpt lat="0" lon="0">
        <time>2021-02-28T09:15:54.267000+00:00</time>
      </trkpt>
      <trkpt lat="47.3307" lon="-1.4343">
        <ele>96</ele>
        <time>2021-02-28T09:15:55.247000+00:00</time>
      </trkpt>
      <trkpt lat="0" lon="0">
        <time>2021-02-28T09:15:55.258000+00:00</time>
      </trkpt>
      <trkpt lat="0" lon="0">
        <time>2021-02-28T09:15:55.263000+00:00</time>
      </trkpt>
      <trkpt lat="0" lon="0">
        <time>2021-02-28T09:15:55.265000+00:00</time>
      </trkpt>
      <trkpt lat="47.33069" lon="-1.43431">
        <ele>95</ele>
        <time>2021-02-28T09:15:56.227000+00:00</time>
      </trkpt>
      <trkpt lat="0" lon="0">
        <time>2021-02-28T09:15:56.235000+00:00</time>
      </trkpt>
      <trkpt lat="0" lon="0">
        <time>2021-02-28T09:15:56.242000+00:00</time>
      </trkpt>
      <trkpt lat="0" lon="0">
        <time>2021-02-28T09:15:56.245000+00:00</time>
      </trkpt>
      <trkpt lat="47.33068" lon="-1.43431">
        <ele>94</ele>
        <time>2021-02-28T09:15:57.221000+00:00</time>
      </trkpt>
      <trkpt lat="0" lon="0">
        <time>2021-02-28T09:15:57.229000+00:00</time>
      </trkpt>
      <trkpt lat="0" lon="0">
        <time>2021-02-28T09:15:57.233000+00:00</time>
      </trkpt>
      <trkpt lat="0" lon="0">
        <time>2021-02-28T09:15:57.235000+00:00</time>
      </trkpt>
      <trkpt lat="47.33067" lon="-1.43432">
        <ele>94</ele>
        <time>2021-02-28T09:15:58.199000+00:00</time>
      </trkpt>
      <trkpt lat="0" lon="0">
        <time>2021-02-28T09:15:58.205000+00:00</time>
      </trkpt>
      <trkpt lat="0" lon="0">
        <time>2021-02-28T09:15:58.209000+00:00</time>
      </trkpt>
      <trkpt lat="0" lon="0">
        <time>2021-02-28T09:15:58.211000+00:00</time>
      </trkpt>
      <trkpt lat="47.33066" lon="-1.43433">
        <ele>94</ele>
        <time>2021-02-28T09:15:59.240000+00:00</time>
      </trkpt>
      <trkpt lat="0" lon="0">
        <time>2021-02-28T09:15:59.255000+00:00</time>
      </trkpt>
      <trkpt lat="0" lon="0">
        <time>2021-02-28T09:15:59.262000+00:00</time>
      </trkpt>
      <trkpt lat="0" lon="0">
        <time>2021-02-28T09:15:59.265000+00:00</time>
      </trkpt>
      <trkpt lat="47.33065" lon="-1.43433">
        <ele>93</ele>
        <time>2021-02-28T09:16:00.225000+00:00</time>
      </trkpt>
      <trkpt lat="0" lon="0">
        <time>2021-02-28T09:16:00.232000+00:00</time>
      </trkpt>
      <trkpt lat="0" lon="0">
        <time>2021-02-28T09:16:00.239000+00:00</time>
      </trkpt>
      <trkpt lat="0" lon="0">
        <time>2021-02-28T09:16:00.242000+00:00</time>
      </trkpt>
      <trkpt lat="47.33064" lon="-1.43433">
        <ele>93</ele>
        <time>2021-02-28T09:16:01.252000+00:00</time>
      </trkpt>
      <trkpt lat="0" lon="0">
        <time>2021-02-28T09:16:01.257000+00:00</time>
      </trkpt>
      <trkpt lat="0" lon="0">
        <time>2021-02-28T09:16:01.263000+00:00</time>
      </trkpt>
      <trkpt lat="0" lon="0">
        <time>2021-02-28T09:16:01.268000+00:00</time>
      </trkpt>
      <trkpt lat="47.33063" lon="-1.43434">
        <ele>93</ele>
        <time>2021-02-28T09:16:02.240000+00:00</time>
      </trkpt>
      <trkpt lat="0" lon="0">
        <time>2021-02-28T09:16:02.245000+00:00</time>
      </trkpt>
      <trkpt lat="0" lon="0">
        <time>2021-02-28T09:16:02.249000+00:00</time>
      </trkpt>
      <trkpt lat="0" lon="0">
        <time>2021-02-28T09:16:02.252000+00:00</time>
      </trkpt>
      <trkpt lat="47.33062" lon="-1.43434">
        <ele>92</ele>
        <time>2021-02-28T09:16:03.251000+00:00</time>
      </trkpt>
      <trkpt lat="0" lon="0">
        <time>2021-02-28T09:16:03.260000+00:00</time>
      </trkpt>
      <trkpt lat="0" lon="0">
        <time>2021-02-28T09:16:03.265000+00:00</time>
      </trkpt>
      <trkpt lat="0" lon="0">
        <time>2021-02-28T09:16:03.266000+00:00</time>
      </trkpt>
      <trkpt lat="47.33061" lon="-1.43434">
        <ele>92</ele>
        <time>2021-02-28T09:16:04.196000+00:00</time>
      </trkpt>
      <trkpt lat="0" lon="0">
        <time>2021-02-28T09:16:04.202000+00:00</time>
      </trkpt>
      <trkpt lat="0" lon="0">
        <time>2021-02-28T09:16:04.208000+00:00</time>
      </trkpt>
      <trkpt lat="0" lon="0">
        <time>2021-02-28T09:16:04.210000+00:00</time>
      </trkpt>
      <trkpt lat="47.3306" lon="-1.43434">
        <ele>91</ele>
        <time>2021-02-28T09:16:05.230000+00:00</time>
      </trkpt>
      <trkpt lat="0" lon="0">
        <time>2021-02-28T09:16:05.238000+00:00</time>
      </trkpt>
      <trkpt lat="0" lon="0">
        <time>2021-02-28T09:16:05.244000+00:00</time>
      </trkpt>
      <trkpt lat="0" lon="0">
        <time>2021-02-28T09:16:05.246000+00:00</time>
      </trkpt>
      <trkpt lat="47.3306" lon="-1.43434">
        <ele>90</ele>
        <time>2021-02-28T09:16:06.234000+00:00</time>
      </trkpt>
      <trkpt lat="0" lon="0">
        <time>2021-02-28T09:16:06.255000+00:00</time>
      </trkpt>
      <trkpt lat="0" lon="0">
        <time>2021-02-28T09:16:06.261000+00:00</time>
      </trkpt>
      <trkpt lat="0" lon="0">
        <time>2021-02-28T09:16:06.265000+00:00</time>
      </trkpt>
      <trkpt lat="47.33059" lon="-1.43434">
        <ele>89</ele>
        <time>2021-02-28T09:16:07.227000+00:00</time>
      </trkpt>
      <trkpt lat="0" lon="0">
        <time>2021-02-28T09:16:07.231000+00:00</time>
      </trkpt>
      <trkpt lat="0" lon="0">
        <time>2021-02-28T09:16:07.238000+00:00</time>
      </trkpt>
      <trkpt lat="0" lon="0">
        <time>2021-02-28T09:16:07.240000+00:00</time>
      </trkpt>
      <trkpt lat="47.33059" lon="-1.43434">
        <ele>89</ele>
        <time>2021-02-28T09:16:08.224000+00:00</time>
      </trkpt>
      <trkpt lat="0" lon="0">
        <time>2021-02-28T09:16:08.235000+00:00</time>
      </trkpt>
      <trkpt lat="0" lon="0">
        <time>2021-02-28T09:16:08.242000+00:00</time>
      </trkpt>
      <trkpt lat="0" lon="0">
        <time>2021-02-28T09:16:08.245000+00:00</time>
      </trkpt>
      <trkpt lat="47.33059" lon="-1.43434">
        <ele>89</ele>
        <time>2021-02-28T09:16:09.242000+00:00</time>
      </trkpt>
      <trkpt lat="0" lon="0">
        <time>2021-02-28T09:16:09.248000+00:00</time>
      </trkpt>
      <trkpt lat="0" lon="0">
        <time>2021-02-28T09:16:09.253000+00:00</time>
      </trkpt>
      <trkpt lat="0" lon="0">
        <time>2021-02-28T09:16:09.255000+00:00</time>
      </trkpt>
      <trkpt lat="47.33058" lon="-1.43434">
        <ele>86</ele>
        <time>2021-02-28T09:16:10.227000+00:00</time>
      </trkpt>
      <trkpt lat="0" lon="0">
        <time>2021-02-28T09:16:10.237000+00:00</time>
      </trkpt>
      <trkpt lat="0" lon="0">
        <time>2021-02-28T09:16:10.242000+00:00</time>
      </trkpt>
      <trkpt lat="0" lon="0">
        <time>2021-02-28T09:16:10.251000+00:00</time>
      </trkpt>
      <trkpt lat="47.33077" lon="-1.43409">
        <ele>86</ele>
        <time>2021-02-28T09:16:11.281000+00:00</time>
      </trkpt>
      <trkpt lat="0" lon="0">
        <time>2021-02-28T09:16:11.295000+00:00</time>
      </trkpt>
      <trkpt lat="0" lon="0">
        <time>2021-02-28T09:16:11.298000+00:00</time>
      </trkpt>
      <trkpt lat="0" lon="0">
        <time>2021-02-28T09:16:11.300000+00:00</time>
      </trkpt>
      <trkpt lat="47.33078" lon="-1.43407">
        <ele>86</ele>
        <time>2021-02-28T09:16:12.303000+00:00</time>
      </trkpt>
      <trkpt lat="0" lon="0">
        <time>2021-02-28T09:16:12.309000+00:00</time>
      </trkpt>
      <trkpt lat="0" lon="0">
        <time>2021-02-28T09:16:12.313000+00:00</time>
      </trkpt>
      <trkpt lat="0" lon="0">
        <time>2021-02-28T09:16:12.315000+00:00</time>
      </trkpt>
      <trkpt lat="47.33079" lon="-1.43404">
        <ele>86</ele>
        <time>2021-02-28T09:16:13.276000+00:00</time>
      </trkpt>
      <trkpt lat="0" lon="0">
        <time>2021-02-28T09:16:13.282000+00:00</time>
      </trkpt>
      <trkpt lat="0" lon="0">
        <time>2021-02-28T09:16:13.287000+00:00</time>
      </trkpt>
      <trkpt lat="0" lon="0">
        <time>2021-02-28T09:16:13.289000+00:00</time>
      </trkpt>
      <trkpt lat="47.3308" lon="-1.43402">
        <ele>87</ele>
        <time>2021-02-28T09:16:14.294000+00:00</time>
      </trkpt>
      <trkpt lat="0" lon="0">
        <time>2021-02-28T09:16:14.300000+00:00</time>
      </trkpt>
      <trkpt lat="0" lon="0">
        <time>2021-02-28T09:16:14.303000+00:00</time>
      </trkpt>
      <trkpt lat="0" lon="0">
        <time>2021-02-28T09:16:14.305000+00:00</time>
      </trkpt>
      <trkpt lat="47.33081" lon="-1.43399">
        <ele>87</ele>
        <time>2021-02-28T09:16:15.284000+00:00</time>
      </trkpt>
      <trkpt lat="0" lon="0">
        <time>2021-02-28T09:16:15.291000+00:00</time>
      </trkpt>
      <trkpt lat="0" lon="0">
        <time>2021-02-28T09:16:15.295000+00:00</time>
      </trkpt>
      <trkpt lat="0" lon="0">
        <time>2021-02-28T09:16:15.298000+00:00</time>
      </trkpt>
      <trkpt lat="47.33082" lon="-1.43396">
        <ele>88</ele>
        <time>2021-02-28T09:16:16.247000+00:00</time>
      </trkpt>
      <trkpt lat="0" lon="0">
        <time>2021-02-28T09:16:16.255000+00:00</time>
      </trkpt>
      <trkpt lat="0" lon="0">
        <time>2021-02-28T09:16:16.260000+00:00</time>
      </trkpt>
      <trkpt lat="0" lon="0">
        <time>2021-02-28T09:16:16.263000+00:00</time>
      </trkpt>
      <trkpt lat="47.33082" lon="-1.43394">
        <ele>89</ele>
        <time>2021-02-28T09:16:17.267000+00:00</time>
      </trkpt>
      <trkpt lat="0" lon="0">
        <time>2021-02-28T09:16:17.273000+00:00</time>
      </trkpt>
      <trkpt lat="0" lon="0">
        <time>2021-02-28T09:16:17.278000+00:00</time>
      </trkpt>
      <trkpt lat="0" lon="0">
        <time>2021-02-28T09:16:17.283000+00:00</time>
      </trkpt>
      <trkpt lat="47.33083" lon="-1.43392">
        <ele>89</ele>
        <time>2021-02-28T09:16:18.306000+00:00</time>
      </trkpt>
      <trkpt lat="0" lon="0">
        <time>2021-02-28T09:16:18.311000+00:00</time>
      </trkpt>
      <trkpt lat="0" lon="0">
        <time>2021-02-28T09:16:18.315000+00:00</time>
      </trkpt>
      <trkpt lat="0" lon="0">
        <time>2021-02-28T09:16:18.317000+00:00</time>
      </trkpt>
      <trkpt lat="47.33085" lon="-1.43389">
        <ele>89</ele>
        <time>2021-02-28T09:16:19.280000+00:00</time>
      </trkpt>
      <trkpt lat="0" lon="0">
        <time>2021-02-28T09:16:19.286000+00:00</time>
      </trkpt>
      <trkpt lat="0" lon="0">
        <time>2021-02-28T09:16:19.291000+00:00</time>
      </trkpt>
      <trkpt lat="0" lon="0">
        <time>2021-02-28T09:16:19.294000+00:00</time>
      </trkpt>
      <trkpt lat="47.33086" lon="-1.43388">
        <ele>90</ele>
        <time>2021-02-28T09:16:20.291000+00:00</time>
      </trkpt>
      <trkpt lat="0" lon="0">
        <time>2021-02-28T09:16:20.297000+00:00</time>
      </trkpt>
      <trkpt lat="0" lon="0">
        <time>2021-02-28T09:16:20.303000+00:00</time>
      </trkpt>
      <trkpt lat="0" lon="0">
        <time>2021-02-28T09:16:20.305000+00:00</time>
      </trkpt>
      <trkpt lat="47.33087" lon="-1.43386">
        <ele>91</ele>
        <time>2021-02-28T09:16:21.284000+00:00</time>
      </trkpt>
      <trkpt lat="0" lon="0">
        <time>2021-02-28T09:16:21.288000+00:00</time>
      </trkpt>
      <trkpt lat="0" lon="0">
        <time>2021-02-28T09:16:21.292000+00:00</time>
      </trkpt>
      <trkpt lat="0" lon="0">
        <time>2021-02-28T09:16:21.294000+00:00</time>
      </trkpt>
      <trkpt lat="47.33089" lon="-1.43385">
        <ele>91</ele>
        <time>2021-02-28T09:16:22.293000+00:00</time>
      </trkpt>
      <trkpt lat="0" lon="0">
        <time>2021-02-28T09:16:22.304000+00:00</time>
      </trkpt>
      <trkpt lat="0" lon="0">
        <time>2021-02-28T09:16:22.308000+00:00</time>
      </trkpt>
      <trkpt lat="0" lon="0">
        <time>2021-02-28T09:16:22.310000+00:00</time>
      </trkpt>
      <trkpt lat="47.3309" lon="-1.43384">
        <ele>91</ele>
        <time>2021-02-28T09:16:23.303000+00:00</time>
      </trkpt>
      <trkpt lat="0" lon="0">
        <time>2021-02-28T09:16:23.308000+00:00</time>
      </trkpt>
      <trkpt lat="0" lon="0">
        <time>2021-02-28T09:16:23.313000+00:00</time>
      </trkpt>
      <trkpt lat="0" lon="0">
        <time>2021-02-28T09:16:23.315000+00:00</time>
      </trkpt>
      <trkpt lat="47.33092" lon="-1.43383">
        <ele>91</ele>
        <time>2021-02-28T09:16:24.304000+00:00</time>
      </trkpt>
      <trkpt lat="0" lon="0">
        <time>2021-02-28T09:16:24.315000+00:00</time>
      </trkpt>
      <trkpt lat="0" lon="0">
        <time>2021-02-28T09:16:24.319000+00:00</time>
      </trkpt>
      <trkpt lat="0" lon="0">
        <time>2021-02-28T09:16:24.322000+00:00</time>
      </trkpt>
      <trkpt lat="47.33094" lon="-1.43383">
        <ele>90</ele>
        <time>2021-02-28T09:16:25.312000+00:00</time>
      </trkpt>
      <trkpt lat="0" lon="0">
        <time>2021-02-28T09:16:25.319000+00:00</time>
      </trkpt>
      <trkpt lat="0" lon="0">
        <time>2021-02-28T09:16:25.322000+00:00</time>
      </trkpt>
      <trkpt lat="0" lon="0">
        <time>2021-02-28T09:16:25.325000+00:00</time>
      </trkpt>
      <trkpt lat="47.33096" lon="-1.43382">
        <ele>89</ele>
        <time>2021-02-28T09:16:26.305000+00:00</time>
      </trkpt>
      <trkpt lat="0" lon="0">
        <time>2021-02-28T09:16:26.311000+00:00</time>
      </trkpt>
      <trkpt lat="0" lon="0">
        <time>2021-02-28T09:16:26.315000+00:00</time>
      </trkpt>
      <trkpt lat="0" lon="0">
        <time>2021-02-28T09:16:26.318000+00:00</time>
      </trkpt>
      <trkpt lat="47.33098" lon="-1.43382">
        <ele>88</ele>
        <time>2021-02-28T09:16:27.268000+00:00</time>
      </trkpt>
      <trkpt lat="0" lon="0">
        <time>2021-02-28T09:16:27.283000+00:00</time>
      </trkpt>
      <trkpt lat="0" lon="0">
        <time>2021-02-28T09:16:27.287000+00:00</time>
      </trkpt>
      <trkpt lat="0" lon="0">
        <time>2021-02-28T09:16:27.290000+00:00</time>
      </trkpt>
      <trkpt lat="47.331" lon="-1.43382">
        <ele>88</ele>
        <time>2021-02-28T09:16:28.295000+00:00</time>
      </trkpt>
      <trkpt lat="0" lon="0">
        <time>2021-02-28T09:16:28.306000+00:00</time>
      </trkpt>
      <trkpt lat="0" lon="0">
        <time>2021-02-28T09:16:28.311000+00:00</time>
      </trkpt>
      <trkpt lat="0" lon="0">
        <time>2021-02-28T09:16:28.315000+00:00</time>
      </trkpt>
      <trkpt lat="47.33102" lon="-1.43382">
        <ele>88</ele>
        <time>2021-02-28T09:16:29.308000+00:00</time>
      </trkpt>
      <trkpt lat="0" lon="0">
        <time>2021-02-28T09:16:29.317000+00:00</time>
      </trkpt>
      <trkpt lat="0" lon="0">
        <time>2021-02-28T09:16:29.322000+00:00</time>
      </trkpt>
      <trkpt lat="0" lon="0">
        <time>2021-02-28T09:16:29.324000+00:00</time>
      </trkpt>
      <trkpt lat="47.33103" lon="-1.43382">
        <ele>88</ele>
        <time>2021-02-28T09:16:30.331000+00:00</time>
      </trkpt>
      <trkpt lat="0" lon="0">
        <time>2021-02-28T09:16:30.338000+00:00</time>
      </trkpt>
      <trkpt lat="0" lon="0">
        <time>2021-02-28T09:16:30.343000+00:00</time>
      </trkpt>
      <trkpt lat="0" lon="0">
        <time>2021-02-28T09:16:30.346000+00:00</time>
      </trkpt>
      <trkpt lat="47.33105" lon="-1.43381">
        <ele>88</ele>
        <time>2021-02-28T09:16:31.269000+00:00</time>
      </trkpt>
      <trkpt lat="0" lon="0">
        <time>2021-02-28T09:16:31.276000+00:00</time>
      </trkpt>
      <trkpt lat="0" lon="0">
        <time>2021-02-28T09:16:31.280000+00:00</time>
      </trkpt>
      <trkpt lat="0" lon="0">
        <time>2021-02-28T09:16:31.283000+00:00</time>
      </trkpt>
      <trkpt lat="47.33107" lon="-1.4338">
        <ele>88</ele>
        <time>2021-02-28T09:16:32.285000+00:00</time>
      </trkpt>
      <trkpt lat="0" lon="0">
        <time>2021-02-28T09:16:32.295000+00:00</time>
      </trkpt>
      <trkpt lat="0" lon="0">
        <time>2021-02-28T09:16:32.299000+00:00</time>
      </trkpt>
      <trkpt lat="0" lon="0">
        <time>2021-02-28T09:16:32.302000+00:00</time>
      </trkpt>
      <trkpt lat="47.33108" lon="-1.43379">
        <ele>88</ele>
        <time>2021-02-28T09:16:33.288000+00:00</time>
      </trkpt>
      <trkpt lat="0" lon="0">
        <time>2021-02-28T09:16:33.303000+00:00</time>
      </trkpt>
      <trkpt lat="0" lon="0">
        <time>2021-02-28T09:16:33.309000+00:00</time>
      </trkpt>
      <trkpt lat="0" lon="0">
        <time>2021-02-28T09:16:33.314000+00:00</time>
      </trkpt>
      <trkpt lat="47.33109" lon="-1.43377">
        <ele>89</ele>
        <time>2021-02-28T09:16:34.261000+00:00</time>
      </trkpt>
      <trkpt lat="0" lon="0">
        <time>2021-02-28T09:16:34.273000+00:00</time>
      </trkpt>
      <trkpt lat="0" lon="0">
        <time>2021-02-28T09:16:34.276000+00:00</time>
      </trkpt>
      <trkpt lat="0" lon="0">
        <time>2021-02-28T09:16:34.278000+00:00</time>
      </trkpt>
      <trkpt lat="47.3311" lon="-1.43375">
        <ele>89</ele>
        <time>2021-02-28T09:16:35.292000+00:00</time>
      </trkpt>
      <trkpt lat="0" lon="0">
        <time>2021-02-28T09:16:35.300000+00:00</time>
      </trkpt>
      <trkpt lat="0" lon="0">
        <time>2021-02-28T09:16:35.306000+00:00</time>
      </trkpt>
      <trkpt lat="0" lon="0">
        <time>2021-02-28T09:16:35.307000+00:00</time>
      </trkpt>
      <trkpt lat="47.3311" lon="-1.43372">
        <ele>88</ele>
        <time>2021-02-28T09:16:36.320000+00:00</time>
      </trkpt>
      <trkpt lat="0" lon="0">
        <time>2021-02-28T09:16:36.331000+00:00</time>
      </trkpt>
      <trkpt lat="0" lon="0">
        <time>2021-02-28T09:16:36.336000+00:00</time>
      </trkpt>
      <trkpt lat="0" lon="0">
        <time>2021-02-28T09:16:36.339000+00:00</time>
      </trkpt>
      <trkpt lat="47.33111" lon="-1.4337">
        <ele>87</ele>
        <time>2021-02-28T09:16:37.327000+00:00</time>
      </trkpt>
      <trkpt lat="0" lon="0">
        <time>2021-02-28T09:16:37.332000+00:00</time>
      </trkpt>
      <trkpt lat="0" lon="0">
        <time>2021-02-28T09:16:37.337000+00:00</time>
      </trkpt>
      <trkpt lat="0" lon="0">
        <time>2021-02-28T09:16:37.340000+00:00</time>
      </trkpt>
      <trkpt lat="47.33111" lon="-1.43367">
        <ele>87</ele>
        <time>2021-02-28T09:16:38.335000+00:00</time>
      </trkpt>
      <trkpt lat="0" lon="0">
        <time>2021-02-28T09:16:38.344000+00:00</time>
      </trkpt>
      <trkpt lat="0" lon="0">
        <time>2021-02-28T09:16:38.349000+00:00</time>
      </trkpt>
      <trkpt lat="0" lon="0">
        <time>2021-02-28T09:16:38.352000+00:00</time>
      </trkpt>
      <trkpt lat="47.33111" lon="-1.43365">
        <ele>86</ele>
        <time>2021-02-28T09:16:39.296000+00:00</time>
      </trkpt>
      <trkpt lat="0" lon="0">
        <time>2021-02-28T09:16:39.305000+00:00</time>
      </trkpt>
      <trkpt lat="0" lon="0">
        <time>2021-02-28T09:16:39.309000+00:00</time>
      </trkpt>
      <trkpt lat="0" lon="0">
        <time>2021-02-28T09:16:39.311000+00:00</time>
      </trkpt>
      <trkpt lat="47.33111" lon="-1.43362">
        <ele>85</ele>
        <time>2021-02-28T09:16:40.285000+00:00</time>
      </trkpt>
      <trkpt lat="0" lon="0">
        <time>2021-02-28T09:16:40.293000+00:00</time>
      </trkpt>
      <trkpt lat="0" lon="0">
        <time>2021-02-28T09:16:40.298000+00:00</time>
      </trkpt>
      <trkpt lat="0" lon="0">
        <time>2021-02-28T09:16:40.301000+00:00</time>
      </trkpt>
      <trkpt lat="47.3311" lon="-1.43359">
        <ele>85</ele>
        <time>2021-02-28T09:16:41.266000+00:00</time>
      </trkpt>
      <trkpt lat="0" lon="0">
        <time>2021-02-28T09:16:41.269000+00:00</time>
      </trkpt>
      <trkpt lat="0" lon="0">
        <time>2021-02-28T09:16:41.274000+00:00</time>
      </trkpt>
      <trkpt lat="0" lon="0">
        <time>2021-02-28T09:16:41.276000+00:00</time>
      </trkpt>
      <trkpt lat="47.33108" lon="-1.43356">
        <ele>85</ele>
        <time>2021-02-28T09:16:42.288000+00:00</time>
      </trkpt>
      <trkpt lat="0" lon="0">
        <time>2021-02-28T09:16:42.294000+00:00</time>
      </trkpt>
      <trkpt lat="0" lon="0">
        <time>2021-02-28T09:16:42.301000+00:00</time>
      </trkpt>
      <trkpt lat="0" lon="0">
        <time>2021-02-28T09:16:42.303000+00:00</time>
      </trkpt>
      <trkpt lat="47.33106" lon="-1.43353">
        <ele>84</ele>
        <time>2021-02-28T09:16:43.280000+00:00</time>
      </trkpt>
      <trkpt lat="0" lon="0">
        <time>2021-02-28T09:16:43.289000+00:00</time>
      </trkpt>
      <trkpt lat="0" lon="0">
        <time>2021-02-28T09:16:43.294000+00:00</time>
      </trkpt>
      <trkpt lat="0" lon="0">
        <time>2021-02-28T09:16:43.298000+00:00</time>
      </trkpt>
      <trkpt lat="47.33104" lon="-1.43349">
        <ele>84</ele>
        <time>2021-02-28T09:16:44.308000+00:00</time>
      </trkpt>
      <trkpt lat="0" lon="0">
        <time>2021-02-28T09:16:44.314000+00:00</time>
      </trkpt>
      <trkpt lat="0" lon="0">
        <time>2021-02-28T09:16:44.318000+00:00</time>
      </trkpt>
      <trkpt lat="0" lon="0">
        <time>2021-02-28T09:16:44.321000+00:00</time>
      </trkpt>
      <trkpt lat="47.33101" lon="-1.43346">
        <ele>83</ele>
        <time>2021-02-28T09:16:45.323000+00:00</time>
      </trkpt>
      <trkpt lat="0" lon="0">
        <time>2021-02-28T09:16:45.331000+00:00</time>
      </trkpt>
      <trkpt lat="0" lon="0">
        <time>2021-02-28T09:16:45.335000+00:00</time>
      </trkpt>
      <trkpt lat="0" lon="0">
        <time>2021-02-28T09:16:45.338000+00:00</time>
      </trkpt>
      <trkpt lat="47.33097" lon="-1.43343">
        <ele>83</ele>
        <time>2021-02-28T09:16:46.281000+00:00</time>
      </trkpt>
      <trkpt lat="0" lon="0">
        <time>2021-02-28T09:16:46.294000+00:00</time>
      </trkpt>
      <trkpt lat="0" lon="0">
        <time>2021-02-28T09:16:46.301000+00:00</time>
      </trkpt>
      <trkpt lat="0" lon="0">
        <time>2021-02-28T09:16:46.304000+00:00</time>
      </trkpt>
      <trkpt lat="47.33094" lon="-1.4334">
        <ele>83</ele>
        <time>2021-02-28T09:16:47.291000+00:00</time>
      </trkpt>
      <trkpt lat="0" lon="0">
        <time>2021-02-28T09:16:47.296000+00:00</time>
      </trkpt>
      <trkpt lat="0" lon="0">
        <time>2021-02-28T09:16:47.310000+00:00</time>
      </trkpt>
      <trkpt lat="0" lon="0">
        <time>2021-02-28T09:16:47.312000+00:00</time>
      </trkpt>
      <trkpt lat="47.3309" lon="-1.43337">
        <ele>83</ele>
        <time>2021-02-28T09:16:48.284000+00:00</time>
      </trkpt>
      <trkpt lat="0" lon="0">
        <time>2021-02-28T09:16:48.291000+00:00</time>
      </trkpt>
      <trkpt lat="0" lon="0">
        <time>2021-02-28T09:16:48.295000+00:00</time>
      </trkpt>
      <trkpt lat="0" lon="0">
        <time>2021-02-28T09:16:48.299000+00:00</time>
      </trkpt>
      <trkpt lat="47.33086" lon="-1.43334">
        <ele>83</ele>
        <time>2021-02-28T09:16:49.314000+00:00</time>
      </trkpt>
      <trkpt lat="0" lon="0">
        <time>2021-02-28T09:16:49.323000+00:00</time>
      </trkpt>
      <trkpt lat="0" lon="0">
        <time>2021-02-28T09:16:49.331000+00:00</time>
      </trkpt>
      <trkpt lat="0" lon="0">
        <time>2021-02-28T09:16:49.333000+00:00</time>
      </trkpt>
      <trkpt lat="47.33083" lon="-1.43331">
        <ele>83</ele>
        <time>2021-02-28T09:16:50.313000+00:00</time>
      </trkpt>
      <trkpt lat="0" lon="0">
        <time>2021-02-28T09:16:50.322000+00:00</time>
      </trkpt>
      <trkpt lat="0" lon="0">
        <time>2021-02-28T09:16:50.325000+00:00</time>
      </trkpt>
      <trkpt lat="0" lon="0">
        <time>2021-02-28T09:16:50.327000+00:00</time>
      </trkpt>
      <trkpt lat="47.3308" lon="-1.43328">
        <ele>83</ele>
        <time>2021-02-28T09:16:51.296000+00:00</time>
      </trkpt>
      <trkpt lat="0" lon="0">
        <time>2021-02-28T09:16:51.306000+00:00</time>
      </trkpt>
      <trkpt lat="0" lon="0">
        <time>2021-02-28T09:16:51.311000+00:00</time>
      </trkpt>
      <trkpt lat="0" lon="0">
        <time>2021-02-28T09:16:51.313000+00:00</time>
      </trkpt>
      <trkpt lat="47.33077" lon="-1.43325">
        <ele>83</ele>
        <time>2021-02-28T09:16:52.299000+00:00</time>
      </trkpt>
      <trkpt lat="0" lon="0">
        <time>2021-02-28T09:16:52.311000+00:00</time>
      </trkpt>
      <trkpt lat="0" lon="0">
        <time>2021-02-28T09:16:52.316000+00:00</time>
      </trkpt>
      <trkpt lat="0" lon="0">
        <time>2021-02-28T09:16:52.318000+00:00</time>
      </trkpt>
      <trkpt lat="47.33074" lon="-1.43322">
        <ele>83</ele>
        <time>2021-02-28T09:16:53.289000+00:00</time>
      </trkpt>
      <trkpt lat="0" lon="0">
        <time>2021-02-28T09:16:53.299000+00:00</time>
      </trkpt>
      <trkpt lat="0" lon="0">
        <time>2021-02-28T09:16:53.306000+00:00</time>
      </trkpt>
      <trkpt lat="0" lon="0">
        <time>2021-02-28T09:16:53.308000+00:00</time>
      </trkpt>
      <trkpt lat="47.33072" lon="-1.4332">
        <ele>83</ele>
        <time>2021-02-28T09:16:54.296000+00:00</time>
      </trkpt>
      <trkpt lat="0" lon="0">
        <time>2021-02-28T09:16:54.309000+00:00</time>
      </trkpt>
      <trkpt lat="0" lon="0">
        <time>2021-02-28T09:16:54.315000+00:00</time>
      </trkpt>
      <trkpt lat="0" lon="0">
        <time>2021-02-28T09:16:54.319000+00:00</time>
      </trkpt>
      <trkpt lat="47.3307" lon="-1.43317">
        <ele>84</ele>
        <time>2021-02-28T09:16:55.295000+00:00</time>
      </trkpt>
      <trkpt lat="0" lon="0">
        <time>2021-02-28T09:16:55.303000+00:00</time>
      </trkpt>
      <trkpt lat="0" lon="0">
        <time>2021-02-28T09:16:55.305000+00:00</time>
      </trkpt>
      <trkpt lat="0" lon="0">
        <time>2021-02-28T09:16:55.307000+00:00</time>
      </trkpt>
      <trkpt lat="47.33068" lon="-1.43315">
        <ele>84</ele>
        <time>2021-02-28T09:16:56.296000+00:00</time>
      </trkpt>
      <trkpt lat="0" lon="0">
        <time>2021-02-28T09:16:56.306000+00:00</time>
      </trkpt>
      <trkpt lat="0" lon="0">
        <time>2021-02-28T09:16:56.313000+00:00</time>
      </trkpt>
      <trkpt lat="0" lon="0">
        <time>2021-02-28T09:16:56.316000+00:00</time>
      </trkpt>
      <trkpt lat="47.33066" lon="-1.43313">
        <ele>84</ele>
        <time>2021-02-28T09:16:57.292000+00:00</time>
      </trkpt>
      <trkpt lat="0" lon="0">
        <time>2021-02-28T09:16:57.299000+00:00</time>
      </trkpt>
      <trkpt lat="0" lon="0">
        <time>2021-02-28T09:16:57.304000+00:00</time>
      </trkpt>
      <trkpt lat="0" lon="0">
        <time>2021-02-28T09:16:57.306000+00:00</time>
      </trkpt>
      <trkpt lat="47.33064" lon="-1.43311">
        <ele>84</ele>
        <time>2021-02-28T09:16:58.300000+00:00</time>
      </trkpt>
      <trkpt lat="0" lon="0">
        <time>2021-02-28T09:16:58.309000+00:00</time>
      </trkpt>
      <trkpt lat="0" lon="0">
        <time>2021-02-28T09:16:58.313000+00:00</time>
      </trkpt>
      <trkpt lat="0" lon="0">
        <time>2021-02-28T09:16:58.316000+00:00</time>
      </trkpt>
      <trkpt lat="47.33063" lon="-1.43308">
        <ele>84</ele>
        <time>2021-02-28T09:16:59.305000+00:00</time>
      </trkpt>
      <trkpt lat="0" lon="0">
        <time>2021-02-28T09:16:59.314000+00:00</time>
      </trkpt>
      <trkpt lat="0" lon="0">
        <time>2021-02-28T09:16:59.319000+00:00</time>
      </trkpt>
      <trkpt lat="0" lon="0">
        <time>2021-02-28T09:16:59.322000+00:00</time>
      </trkpt>
      <trkpt lat="47.33062" lon="-1.43306">
        <ele>84</ele>
        <time>2021-02-28T09:17:00.276000+00:00</time>
      </trkpt>
      <trkpt lat="0" lon="0">
        <time>2021-02-28T09:17:00.284000+00:00</time>
      </trkpt>
      <trkpt lat="0" lon="0">
        <time>2021-02-28T09:17:00.288000+00:00</time>
      </trkpt>
      <trkpt lat="0" lon="0">
        <time>2021-02-28T09:17:00.290000+00:00</time>
      </trkpt>
      <trkpt lat="47.33061" lon="-1.43304">
        <ele>85</ele>
        <time>2021-02-28T09:17:01.289000+00:00</time>
      </trkpt>
      <trkpt lat="0" lon="0">
        <time>2021-02-28T09:17:01.299000+00:00</time>
      </trkpt>
      <trkpt lat="0" lon="0">
        <time>2021-02-28T09:17:01.304000+00:00</time>
      </trkpt>
      <trkpt lat="0" lon="0">
        <time>2021-02-28T09:17:01.306000+00:00</time>
      </trkpt>
      <trkpt lat="47.3306" lon="-1.43301">
        <ele>85</ele>
        <time>2021-02-28T09:17:02.264000+00:00</time>
      </trkpt>
      <trkpt lat="0" lon="0">
        <time>2021-02-28T09:17:02.269000+00:00</time>
      </trkpt>
      <trkpt lat="0" lon="0">
        <time>2021-02-28T09:17:02.273000+00:00</time>
      </trkpt>
      <trkpt lat="0" lon="0">
        <time>2021-02-28T09:17:02.275000+00:00</time>
      </trkpt>
      <trkpt lat="47.3306" lon="-1.43299">
        <ele>85</ele>
        <time>2021-02-28T09:17:03.285000+00:00</time>
      </trkpt>
      <trkpt lat="0" lon="0">
        <time>2021-02-28T09:17:03.292000+00:00</time>
      </trkpt>
      <trkpt lat="0" lon="0">
        <time>2021-02-28T09:17:03.297000+00:00</time>
      </trkpt>
      <trkpt lat="0" lon="0">
        <time>2021-02-28T09:17:03.303000+00:00</time>
      </trkpt>
      <trkpt lat="47.33059" lon="-1.43297">
        <ele>85</ele>
        <time>2021-02-28T09:17:04.309000+00:00</time>
      </trkpt>
      <trkpt lat="0" lon="0">
        <time>2021-02-28T09:17:04.316000+00:00</time>
      </trkpt>
      <trkpt lat="0" lon="0">
        <time>2021-02-28T09:17:04.320000+00:00</time>
      </trkpt>
      <trkpt lat="0" lon="0">
        <time>2021-02-28T09:17:04.322000+00:00</time>
      </trkpt>
      <trkpt lat="47.33058" lon="-1.43294">
        <ele>85</ele>
        <time>2021-02-28T09:17:05.277000+00:00</time>
      </trkpt>
      <trkpt lat="0" lon="0">
        <time>2021-02-28T09:17:05.283000+00:00</time>
      </trkpt>
      <trkpt lat="0" lon="0">
        <time>2021-02-28T09:17:05.288000+00:00</time>
      </trkpt>
      <trkpt lat="0" lon="0">
        <time>2021-02-28T09:17:05.290000+00:00</time>
      </trkpt>
      <trkpt lat="47.33057" lon="-1.43292">
        <ele>85</ele>
        <time>2021-02-28T09:17:06.294000+00:00</time>
      </trkpt>
      <trkpt lat="0" lon="0">
        <time>2021-02-28T09:17:06.304000+00:00</time>
      </trkpt>
      <trkpt lat="0" lon="0">
        <time>2021-02-28T09:17:06.308000+00:00</time>
      </trkpt>
      <trkpt lat="0" lon="0">
        <time>2021-02-28T09:17:06.312000+00:00</time>
      </trkpt>
      <trkpt lat="47.33056" lon="-1.43289">
        <ele>86</ele>
        <time>2021-02-28T09:17:07.271000+00:00</time>
      </trkpt>
      <trkpt lat="0" lon="0">
        <time>2021-02-28T09:17:07.275000+00:00</time>
      </trkpt>
      <trkpt lat="0" lon="0">
        <time>2021-02-28T09:17:07.278000+00:00</time>
      </trkpt>
      <trkpt lat="0" lon="0">
        <time>2021-02-28T09:17:07.279000+00:00</time>
      </trkpt>
      <trkpt lat="47.33054" lon="-1.43287">
        <ele>86</ele>
        <time>2021-02-28T09:17:08.285000+00:00</time>
      </trkpt>
      <trkpt lat="0" lon="0">
        <time>2021-02-28T09:17:08.296000+00:00</time>
      </trkpt>
      <trkpt lat="0" lon="0">
        <time>2021-02-28T09:17:08.304000+00:00</time>
      </trkpt>
      <trkpt lat="0" lon="0">
        <time>2021-02-28T09:17:08.307000+00:00</time>
      </trkpt>
      <trkpt lat="47.33053" lon="-1.43284">
        <ele>86</ele>
        <time>2021-02-28T09:17:09.290000+00:00</time>
      </trkpt>
      <trkpt lat="0" lon="0">
        <time>2021-02-28T09:17:09.303000+00:00</time>
      </trkpt>
      <trkpt lat="0" lon="0">
        <time>2021-02-28T09:17:09.306000+00:00</time>
      </trkpt>
      <trkpt lat="0" lon="0">
        <time>2021-02-28T09:17:09.308000+00:00</time>
      </trkpt>
      <trkpt lat="47.33051" lon="-1.43282">
        <ele>87</ele>
        <time>2021-02-28T09:17:10.259000+00:00</time>
      </trkpt>
      <trkpt lat="0" lon="0">
        <time>2021-02-28T09:17:10.264000+00:00</time>
      </trkpt>
      <trkpt lat="0" lon="0">
        <time>2021-02-28T09:17:10.269000+00:00</time>
      </trkpt>
      <trkpt lat="0" lon="0">
        <time>2021-02-28T09:17:10.272000+00:00</time>
      </trkpt>
      <trkpt lat="47.33049" lon="-1.4328">
        <ele>87</ele>
        <time>2021-02-28T09:17:11.288000+00:00</time>
      </trkpt>
      <trkpt lat="0" lon="0">
        <time>2021-02-28T09:17:11.295000+00:00</time>
      </trkpt>
      <trkpt lat="0" lon="0">
        <time>2021-02-28T09:17:11.300000+00:00</time>
      </trkpt>
      <trkpt lat="0" lon="0">
        <time>2021-02-28T09:17:11.303000+00:00</time>
      </trkpt>
      <trkpt lat="47.33047" lon="-1.43277">
        <ele>87</ele>
        <time>2021-02-28T09:17:12.295000+00:00</time>
      </trkpt>
      <trkpt lat="0" lon="0">
        <time>2021-02-28T09:17:12.303000+00:00</time>
      </trkpt>
      <trkpt lat="0" lon="0">
        <time>2021-02-28T09:17:12.309000+00:00</time>
      </trkpt>
      <trkpt lat="0" lon="0">
        <time>2021-02-28T09:17:12.312000+00:00</time>
      </trkpt>
      <trkpt lat="47.33045" lon="-1.43275">
        <ele>88</ele>
        <time>2021-02-28T09:17:13.290000+00:00</time>
      </trkpt>
      <trkpt lat="0" lon="0">
        <time>2021-02-28T09:17:13.293000+00:00</time>
      </trkpt>
      <trkpt lat="0" lon="0">
        <time>2021-02-28T09:17:13.296000+00:00</time>
      </trkpt>
      <trkpt lat="0" lon="0">
        <time>2021-02-28T09:17:13.299000+00:00</time>
      </trkpt>
      <trkpt lat="47.33044" lon="-1.43273">
        <ele>89</ele>
        <time>2021-02-28T09:17:14.288000+00:00</time>
      </trkpt>
      <trkpt lat="0" lon="0">
        <time>2021-02-28T09:17:14.295000+00:00</time>
      </trkpt>
      <trkpt lat="0" lon="0">
        <time>2021-02-28T09:17:14.302000+00:00</time>
      </trkpt>
      <trkpt lat="0" lon="0">
        <time>2021-02-28T09:17:14.304000+00:00</time>
      </trkpt>
      <trkpt lat="47.33043" lon="-1.43271">
        <ele>89</ele>
        <time>2021-02-28T09:17:15.287000+00:00</time>
      </trkpt>
      <trkpt lat="0" lon="0">
        <time>2021-02-28T09:17:15.294000+00:00</time>
      </trkpt>
      <trkpt lat="0" lon="0">
        <time>2021-02-28T09:17:15.304000+00:00</time>
      </trkpt>
      <trkpt lat="0" lon="0">
        <time>2021-02-28T09:17:15.308000+00:00</time>
      </trkpt>
      <trkpt lat="47.33042" lon="-1.4327">
        <ele>89</ele>
        <time>2021-02-28T09:17:16.303000+00:00</time>
      </trkpt>
      <trkpt lat="0" lon="0">
        <time>2021-02-28T09:17:16.317000+00:00</time>
      </trkpt>
      <trkpt lat="0" lon="0">
        <time>2021-02-28T09:17:16.321000+00:00</time>
      </trkpt>
      <trkpt lat="0" lon="0">
        <time>2021-02-28T09:17:16.323000+00:00</time>
      </trkpt>
      <trkpt lat="47.33042" lon="-1.43268">
        <ele>89</ele>
        <time>2021-02-28T09:17:17.283000+00:00</time>
      </trkpt>
      <trkpt lat="0" lon="0">
        <time>2021-02-28T09:17:17.289000+00:00</time>
      </trkpt>
      <trkpt lat="0" lon="0">
        <time>2021-02-28T09:17:17.294000+00:00</time>
      </trkpt>
      <trkpt lat="0" lon="0">
        <time>2021-02-28T09:17:17.296000+00:00</time>
      </trkpt>
      <trkpt lat="47.33042" lon="-1.43267">
        <ele>89</ele>
        <time>2021-02-28T09:17:18.291000+00:00</time>
      </trkpt>
      <trkpt lat="0" lon="0">
        <time>2021-02-28T09:17:18.299000+00:00</time>
      </trkpt>
      <trkpt lat="0" lon="0">
        <time>2021-02-28T09:17:18.305000+00:00</time>
      </trkpt>
      <trkpt lat="0" lon="0">
        <time>2021-02-28T09:17:18.308000+00:00</time>
      </trkpt>
      <trkpt lat="47.33042" lon="-1.43266">
        <ele>89</ele>
        <time>2021-02-28T09:17:19.277000+00:00</time>
      </trkpt>
      <trkpt lat="0" lon="0">
        <time>2021-02-28T09:17:19.279000+00:00</time>
      </trkpt>
      <trkpt lat="0" lon="0">
        <time>2021-02-28T09:17:19.281000+00:00</time>
      </trkpt>
      <trkpt lat="0" lon="0">
        <time>2021-02-28T09:17:19.282000+00:00</time>
      </trkpt>
      <trkpt lat="47.33042" lon="-1.43266">
        <ele>89</ele>
        <time>2021-02-28T09:17:20.286000+00:00</time>
      </trkpt>
      <trkpt lat="0" lon="0">
        <time>2021-02-28T09:17:20.298000+00:00</time>
      </trkpt>
      <trkpt lat="0" lon="0">
        <time>2021-02-28T09:17:20.302000+00:00</time>
      </trkpt>
      <trkpt lat="0" lon="0">
        <time>2021-02-28T09:17:20.305000+00:00</time>
      </trkpt>
      <trkpt lat="47.33042" lon="-1.43265">
        <ele>89</ele>
        <time>2021-02-28T09:17:21.272000+00:00</time>
      </trkpt>
      <trkpt lat="0" lon="0">
        <time>2021-02-28T09:17:21.276000+00:00</time>
      </trkpt>
      <trkpt lat="0" lon="0">
        <time>2021-02-28T09:17:21.284000+00:00</time>
      </trkpt>
      <trkpt lat="0" lon="0">
        <time>2021-02-28T09:17:21.286000+00:00</time>
      </trkpt>
      <trkpt lat="47.33042" lon="-1.43264">
        <ele>89</ele>
        <time>2021-02-28T09:17:22.295000+00:00</time>
      </trkpt>
      <trkpt lat="0" lon="0">
        <time>2021-02-28T09:17:22.300000+00:00</time>
      </trkpt>
      <trkpt lat="0" lon="0">
        <time>2021-02-28T09:17:22.304000+00:00</time>
      </trkpt>
      <trkpt lat="0" lon="0">
        <time>2021-02-28T09:17:22.306000+00:00</time>
      </trkpt>
      <trkpt lat="47.33042" lon="-1.43263">
        <ele>90</ele>
        <time>2021-02-28T09:17:23.292000+00:00</time>
      </trkpt>
      <trkpt lat="0" lon="0">
        <time>2021-02-28T09:17:23.296000+00:00</time>
      </trkpt>
      <trkpt lat="0" lon="0">
        <time>2021-02-28T09:17:23.308000+00:00</time>
      </trkpt>
      <trkpt lat="0" lon="0">
        <time>2021-02-28T09:17:23.310000+00:00</time>
      </trkpt>
      <trkpt lat="47.33042" lon="-1.43262">
        <ele>90</ele>
        <time>2021-02-28T09:17:24.311000+00:00</time>
      </trkpt>
      <trkpt lat="0" lon="0">
        <time>2021-02-28T09:17:24.319000+00:00</time>
      </trkpt>
      <trkpt lat="0" lon="0">
        <time>2021-02-28T09:17:24.326000+00:00</time>
      </trkpt>
      <trkpt lat="0" lon="0">
        <time>2021-02-28T09:17:24.331000+00:00</time>
      </trkpt>
      <trkpt lat="47.33042" lon="-1.4326">
        <ele>90</ele>
        <time>2021-02-28T09:17:25.282000+00:00</time>
      </trkpt>
      <trkpt lat="0" lon="0">
        <time>2021-02-28T09:17:25.293000+00:00</time>
      </trkpt>
      <trkpt lat="0" lon="0">
        <time>2021-02-28T09:17:25.299000+00:00</time>
      </trkpt>
      <trkpt lat="0" lon="0">
        <time>2021-02-28T09:17:25.301000+00:00</time>
      </trkpt>
      <trkpt lat="47.33042" lon="-1.43258">
        <ele>90</ele>
        <time>2021-02-28T09:17:26.283000+00:00</time>
      </trkpt>
      <trkpt lat="0" lon="0">
        <time>2021-02-28T09:17:26.293000+00:00</time>
      </trkpt>
      <trkpt lat="0" lon="0">
        <time>2021-02-28T09:17:26.298000+00:00</time>
      </trkpt>
      <trkpt lat="0" lon="0">
        <time>2021-02-28T09:17:26.299000+00:00</time>
      </trkpt>
      <trkpt lat="47.33042" lon="-1.43255">
        <ele>90</ele>
        <time>2021-02-28T09:17:27.273000+00:00</time>
      </trkpt>
      <trkpt lat="0" lon="0">
        <time>2021-02-28T09:17:27.280000+00:00</time>
      </trkpt>
      <trkpt lat="0" lon="0">
        <time>2021-02-28T09:17:27.284000+00:00</time>
      </trkpt>
      <trkpt lat="0" lon="0">
        <time>2021-02-28T09:17:27.286000+00:00</time>
      </trkpt>
      <trkpt lat="47.33041" lon="-1.43253">
        <ele>90</ele>
        <time>2021-02-28T09:17:28.294000+00:00</time>
      </trkpt>
      <trkpt lat="0" lon="0">
        <time>2021-02-28T09:17:28.304000+00:00</time>
      </trkpt>
      <trkpt lat="0" lon="0">
        <time>2021-02-28T09:17:28.308000+00:00</time>
      </trkpt>
      <trkpt lat="0" lon="0">
        <time>2021-02-28T09:17:28.311000+00:00</time>
      </trkpt>
      <trkpt lat="47.33039" lon="-1.4325">
        <ele>90</ele>
        <time>2021-02-28T09:17:29.279000+00:00</time>
      </trkpt>
      <trkpt lat="0" lon="0">
        <time>2021-02-28T09:17:29.291000+00:00</time>
      </trkpt>
      <trkpt lat="0" lon="0">
        <time>2021-02-28T09:17:29.294000+00:00</time>
      </trkpt>
      <trkpt lat="0" lon="0">
        <time>2021-02-28T09:17:29.297000+00:00</time>
      </trkpt>
      <trkpt lat="47.33037" lon="-1.43248">
        <ele>90</ele>
        <time>2021-02-28T09:17:30.282000+00:00</time>
      </trkpt>
      <trkpt lat="0" lon="0">
        <time>2021-02-28T09:17:30.290000+00:00</time>
      </trkpt>
      <trkpt lat="0" lon="0">
        <time>2021-02-28T09:17:30.297000+00:00</time>
      </trkpt>
      <trkpt lat="0" lon="0">
        <time>2021-02-28T09:17:30.299000+00:00</time>
      </trkpt>
      <trkpt lat="47.33035" lon="-1.43245">
        <ele>90</ele>
        <time>2021-02-28T09:17:31.284000+00:00</time>
      </trkpt>
      <trkpt lat="0" lon="0">
        <time>2021-02-28T09:17:31.290000+00:00</time>
      </trkpt>
      <trkpt lat="0" lon="0">
        <time>2021-02-28T09:17:31.294000+00:00</time>
      </trkpt>
      <trkpt lat="0" lon="0">
        <time>2021-02-28T09:17:31.297000+00:00</time>
      </trkpt>
      <trkpt lat="47.33032" lon="-1.43243">
        <ele>89</ele>
        <time>2021-02-28T09:17:32.287000+00:00</time>
      </trkpt>
      <trkpt lat="0" lon="0">
        <time>2021-02-28T09:17:32.297000+00:00</time>
      </trkpt>
      <trkpt lat="0" lon="0">
        <time>2021-02-28T09:17:32.301000+00:00</time>
      </trkpt>
      <trkpt lat="0" lon="0">
        <time>2021-02-28T09:17:32.304000+00:00</time>
      </trkpt>
      <trkpt lat="47.3303" lon="-1.43241">
        <ele>89</ele>
        <time>2021-02-28T09:17:33.284000+00:00</time>
      </trkpt>
      <trkpt lat="0" lon="0">
        <time>2021-02-28T09:17:33.294000+00:00</time>
      </trkpt>
      <trkpt lat="0" lon="0">
        <time>2021-02-28T09:17:33.298000+00:00</time>
      </trkpt>
      <trkpt lat="0" lon="0">
        <time>2021-02-28T09:17:33.301000+00:00</time>
      </trkpt>
      <trkpt lat="47.33028" lon="-1.43239">
        <ele>90</ele>
        <time>2021-02-28T09:17:34.300000+00:00</time>
      </trkpt>
      <trkpt lat="0" lon="0">
        <time>2021-02-28T09:17:34.310000+00:00</time>
      </trkpt>
      <trkpt lat="0" lon="0">
        <time>2021-02-28T09:17:34.315000+00:00</time>
      </trkpt>
      <trkpt lat="0" lon="0">
        <time>2021-02-28T09:17:34.317000+00:00</time>
      </trkpt>
      <trkpt lat="47.33026" lon="-1.43237">
        <ele>90</ele>
        <time>2021-02-28T09:17:35.287000+00:00</time>
      </trkpt>
      <trkpt lat="0" lon="0">
        <time>2021-02-28T09:17:35.293000+00:00</time>
      </trkpt>
      <trkpt lat="0" lon="0">
        <time>2021-02-28T09:17:35.296000+00:00</time>
      </trkpt>
      <trkpt lat="0" lon="0">
        <time>2021-02-28T09:17:35.298000+00:00</time>
      </trkpt>
      <trkpt lat="47.33024" lon="-1.43235">
        <ele>90</ele>
        <time>2021-02-28T09:17:36.260000+00:00</time>
      </trkpt>
      <trkpt lat="0" lon="0">
        <time>2021-02-28T09:17:36.271000+00:00</time>
      </trkpt>
      <trkpt lat="0" lon="0">
        <time>2021-02-28T09:17:36.276000+00:00</time>
      </trkpt>
      <trkpt lat="0" lon="0">
        <time>2021-02-28T09:17:36.278000+00:00</time>
      </trkpt>
      <trkpt lat="47.33023" lon="-1.43233">
        <ele>89</ele>
        <time>2021-02-28T09:17:37.278000+00:00</time>
      </trkpt>
      <trkpt lat="0" lon="0">
        <time>2021-02-28T09:17:37.292000+00:00</time>
      </trkpt>
      <trkpt lat="0" lon="0">
        <time>2021-02-28T09:17:37.298000+00:00</time>
      </trkpt>
      <trkpt lat="0" lon="0">
        <time>2021-02-28T09:17:37.303000+00:00</time>
      </trkpt>
      <trkpt lat="47.33022" lon="-1.43232">
        <ele>89</ele>
        <time>2021-02-28T09:17:38.286000+00:00</time>
      </trkpt>
      <trkpt lat="0" lon="0">
        <time>2021-02-28T09:17:38.296000+00:00</time>
      </trkpt>
      <trkpt lat="0" lon="0">
        <time>2021-02-28T09:17:38.302000+00:00</time>
      </trkpt>
      <trkpt lat="0" lon="0">
        <time>2021-02-28T09:17:38.304000+00:00</time>
      </trkpt>
      <trkpt lat="47.33021" lon="-1.4323">
        <ele>89</ele>
        <time>2021-02-28T09:17:39.295000+00:00</time>
      </trkpt>
      <trkpt lat="0" lon="0">
        <time>2021-02-28T09:17:39.299000+00:00</time>
      </trkpt>
      <trkpt lat="0" lon="0">
        <time>2021-02-28T09:17:39.304000+00:00</time>
      </trkpt>
      <trkpt lat="0" lon="0">
        <time>2021-02-28T09:17:39.307000+00:00</time>
      </trkpt>
      <trkpt lat="47.33021" lon="-1.43228">
        <ele>89</ele>
        <time>2021-02-28T09:17:40.264000+00:00</time>
      </trkpt>
      <trkpt lat="0" lon="0">
        <time>2021-02-28T09:17:40.275000+00:00</time>
      </trkpt>
      <trkpt lat="0" lon="0">
        <time>2021-02-28T09:17:40.281000+00:00</time>
      </trkpt>
      <trkpt lat="0" lon="0">
        <time>2021-02-28T09:17:40.284000+00:00</time>
      </trkpt>
      <trkpt lat="47.33021" lon="-1.43227">
        <ele>89</ele>
        <time>2021-02-28T09:17:41.261000+00:00</time>
      </trkpt>
      <trkpt lat="0" lon="0">
        <time>2021-02-28T09:17:41.271000+00:00</time>
      </trkpt>
      <trkpt lat="0" lon="0">
        <time>2021-02-28T09:17:41.273000+00:00</time>
      </trkpt>
      <trkpt lat="0" lon="0">
        <time>2021-02-28T09:17:41.275000+00:00</time>
      </trkpt>
      <trkpt lat="47.33022" lon="-1.43227">
        <ele>89</ele>
        <time>2021-02-28T09:17:42.281000+00:00</time>
      </trkpt>
      <trkpt lat="0" lon="0">
        <time>2021-02-28T09:17:42.289000+00:00</time>
      </trkpt>
      <trkpt lat="0" lon="0">
        <time>2021-02-28T09:17:42.293000+00:00</time>
      </trkpt>
      <trkpt lat="0" lon="0">
        <time>2021-02-28T09:17:42.295000+00:00</time>
      </trkpt>
      <trkpt lat="47.33022" lon="-1.43226">
        <ele>89</ele>
        <time>2021-02-28T09:17:43.274000+00:00</time>
      </trkpt>
      <trkpt lat="0" lon="0">
        <time>2021-02-28T09:17:43.280000+00:00</time>
      </trkpt>
      <trkpt lat="0" lon="0">
        <time>2021-02-28T09:17:43.284000+00:00</time>
      </trkpt>
      <trkpt lat="0" lon="0">
        <time>2021-02-28T09:17:43.286000+00:00</time>
      </trkpt>
      <trkpt lat="47.33022" lon="-1.43226">
        <ele>89</ele>
        <time>2021-02-28T09:17:44.281000+00:00</time>
      </trkpt>
      <trkpt lat="0" lon="0">
        <time>2021-02-28T09:17:44.290000+00:00</time>
      </trkpt>
      <trkpt lat="0" lon="0">
        <time>2021-02-28T09:17:44.295000+00:00</time>
      </trkpt>
      <trkpt lat="0" lon="0">
        <time>2021-02-28T09:17:44.297000+00:00</time>
      </trkpt>
      <trkpt lat="47.33022" lon="-1.43226">
        <ele>89</ele>
        <time>2021-02-28T09:17:45.297000+00:00</time>
      </trkpt>
      <trkpt lat="0" lon="0">
        <time>2021-02-28T09:17:45.307000+00:00</time>
      </trkpt>
      <trkpt lat="0" lon="0">
        <time>2021-02-28T09:17:45.313000+00:00</time>
      </trkpt>
      <trkpt lat="0" lon="0">
        <time>2021-02-28T09:17:45.315000+00:00</time>
      </trkpt>
      <trkpt lat="47.33023" lon="-1.43226">
        <ele>89</ele>
        <time>2021-02-28T09:17:46.246000+00:00</time>
      </trkpt>
      <trkpt lat="0" lon="0">
        <time>2021-02-28T09:17:46.255000+00:00</time>
      </trkpt>
      <trkpt lat="0" lon="0">
        <time>2021-02-28T09:17:46.265000+00:00</time>
      </trkpt>
      <trkpt lat="0" lon="0">
        <time>2021-02-28T09:17:46.269000+00:00</time>
      </trkpt>
      <trkpt lat="47.33023" lon="-1.43226">
        <ele>89</ele>
        <time>2021-02-28T09:17:47.302000+00:00</time>
      </trkpt>
      <trkpt lat="0" lon="0">
        <time>2021-02-28T09:17:47.307000+00:00</time>
      </trkpt>
      <trkpt lat="0" lon="0">
        <time>2021-02-28T09:17:47.312000+00:00</time>
      </trkpt>
      <trkpt lat="0" lon="0">
        <time>2021-02-28T09:17:47.314000+00:00</time>
      </trkpt>
      <trkpt lat="47.33023" lon="-1.43226">
        <ele>89</ele>
        <time>2021-02-28T09:17:48.282000+00:00</time>
      </trkpt>
      <trkpt lat="0" lon="0">
        <time>2021-02-28T09:17:48.287000+00:00</time>
      </trkpt>
      <trkpt lat="0" lon="0">
        <time>2021-02-28T09:17:48.292000+00:00</time>
      </trkpt>
      <trkpt lat="0" lon="0">
        <time>2021-02-28T09:17:48.300000+00:00</time>
      </trkpt>
      <trkpt lat="47.33036" lon="-1.43241">
        <ele>89</ele>
        <time>2021-02-28T09:17:49.341000+00:00</time>
      </trkpt>
      <trkpt lat="0" lon="0">
        <time>2021-02-28T09:17:49.345000+00:00</time>
      </trkpt>
      <trkpt lat="0" lon="0">
        <time>2021-02-28T09:17:49.350000+00:00</time>
      </trkpt>
      <trkpt lat="0" lon="0">
        <time>2021-02-28T09:17:49.355000+00:00</time>
      </trkpt>
      <trkpt lat="47.33036" lon="-1.43243">
        <ele>89</ele>
        <time>2021-02-28T09:17:50.327000+00:00</time>
      </trkpt>
      <trkpt lat="0" lon="0">
        <time>2021-02-28T09:17:50.332000+00:00</time>
      </trkpt>
      <trkpt lat="0" lon="0">
        <time>2021-02-28T09:17:50.339000+00:00</time>
      </trkpt>
      <trkpt lat="0" lon="0">
        <time>2021-02-28T09:17:50.342000+00:00</time>
      </trkpt>
      <trkpt lat="47.33035" lon="-1.43245">
        <ele>89</ele>
        <time>2021-02-28T09:17:51.349000+00:00</time>
      </trkpt>
      <trkpt lat="0" lon="0">
        <time>2021-02-28T09:17:51.357000+00:00</time>
      </trkpt>
      <trkpt lat="0" lon="0">
        <time>2021-02-28T09:17:51.364000+00:00</time>
      </trkpt>
      <trkpt lat="0" lon="0">
        <time>2021-02-28T09:17:51.366000+00:00</time>
      </trkpt>
      <trkpt lat="47.33035" lon="-1.43248">
        <ele>89</ele>
        <time>2021-02-28T09:17:52.342000+00:00</time>
      </trkpt>
      <trkpt lat="0" lon="0">
        <time>2021-02-28T09:17:52.351000+00:00</time>
      </trkpt>
      <trkpt lat="0" lon="0">
        <time>2021-02-28T09:17:52.355000+00:00</time>
      </trkpt>
      <trkpt lat="0" lon="0">
        <time>2021-02-28T09:17:52.357000+00:00</time>
      </trkpt>
      <trkpt lat="47.33034" lon="-1.43251">
        <ele>89</ele>
        <time>2021-02-28T09:17:53.338000+00:00</time>
      </trkpt>
      <trkpt lat="0" lon="0">
        <time>2021-02-28T09:17:53.345000+00:00</time>
      </trkpt>
      <trkpt lat="0" lon="0">
        <time>2021-02-28T09:17:53.348000+00:00</time>
      </trkpt>
      <trkpt lat="0" lon="0">
        <time>2021-02-28T09:17:53.350000+00:00</time>
      </trkpt>
      <trkpt lat="47.33033" lon="-1.43253">
        <ele>90</ele>
        <time>2021-02-28T09:17:54.331000+00:00</time>
      </trkpt>
      <trkpt lat="0" lon="0">
        <time>2021-02-28T09:17:54.339000+00:00</time>
      </trkpt>
      <trkpt lat="0" lon="0">
        <time>2021-02-28T09:17:54.343000+00:00</time>
      </trkpt>
      <trkpt lat="0" lon="0">
        <time>2021-02-28T09:17:54.345000+00:00</time>
      </trkpt>
      <trkpt lat="47.33032" lon="-1.43256">
        <ele>91</ele>
        <time>2021-02-28T09:17:55.296000+00:00</time>
      </trkpt>
      <trkpt lat="0" lon="0">
        <time>2021-02-28T09:17:55.301000+00:00</time>
      </trkpt>
      <trkpt lat="0" lon="0">
        <time>2021-02-28T09:17:55.304000+00:00</time>
      </trkpt>
      <trkpt lat="0" lon="0">
        <time>2021-02-28T09:17:55.307000+00:00</time>
      </trkpt>
      <trkpt lat="47.33031" lon="-1.43258">
        <ele>92</ele>
        <time>2021-02-28T09:17:56.354000+00:00</time>
      </trkpt>
      <trkpt lat="0" lon="0">
        <time>2021-02-28T09:17:56.359000+00:00</time>
      </trkpt>
      <trkpt lat="0" lon="0">
        <time>2021-02-28T09:17:56.364000+00:00</time>
      </trkpt>
      <trkpt lat="0" lon="0">
        <time>2021-02-28T09:17:56.367000+00:00</time>
      </trkpt>
      <trkpt lat="47.3303" lon="-1.4326">
        <ele>93</ele>
        <time>2021-02-28T09:17:57.379000+00:00</time>
      </trkpt>
      <trkpt lat="0" lon="0">
        <time>2021-02-28T09:17:57.385000+00:00</time>
      </trkpt>
      <trkpt lat="0" lon="0">
        <time>2021-02-28T09:17:57.390000+00:00</time>
      </trkpt>
      <trkpt lat="0" lon="0">
        <time>2021-02-28T09:17:57.392000+00:00</time>
      </trkpt>
      <trkpt lat="47.33028" lon="-1.43263">
        <ele>95</ele>
        <time>2021-02-28T09:17:58.328000+00:00</time>
      </trkpt>
      <trkpt lat="0" lon="0">
        <time>2021-02-28T09:17:58.333000+00:00</time>
      </trkpt>
      <trkpt lat="0" lon="0">
        <time>2021-02-28T09:17:58.338000+00:00</time>
      </trkpt>
      <trkpt lat="0" lon="0">
        <time>2021-02-28T09:17:58.340000+00:00</time>
      </trkpt>
      <trkpt lat="47.33027" lon="-1.43265">
        <ele>96</ele>
        <time>2021-02-28T09:17:59.334000+00:00</time>
      </trkpt>
      <trkpt lat="0" lon="0">
        <time>2021-02-28T09:17:59.338000+00:00</time>
      </trkpt>
      <trkpt lat="0" lon="0">
        <time>2021-02-28T09:17:59.342000+00:00</time>
      </trkpt>
      <trkpt lat="0" lon="0">
        <time>2021-02-28T09:17:59.344000+00:00</time>
      </trkpt>
      <trkpt lat="47.33025" lon="-1.43268">
        <ele>98</ele>
        <time>2021-02-28T09:18:00.343000+00:00</time>
      </trkpt>
      <trkpt lat="0" lon="0">
        <time>2021-02-28T09:18:00.349000+00:00</time>
      </trkpt>
      <trkpt lat="0" lon="0">
        <time>2021-02-28T09:18:00.352000+00:00</time>
      </trkpt>
      <trkpt lat="0" lon="0">
        <time>2021-02-28T09:18:00.355000+00:00</time>
      </trkpt>
      <trkpt lat="47.33023" lon="-1.4327">
        <ele>101</ele>
        <time>2021-02-28T09:18:01.336000+00:00</time>
      </trkpt>
      <trkpt lat="0" lon="0">
        <time>2021-02-28T09:18:01.340000+00:00</time>
      </trkpt>
      <trkpt lat="0" lon="0">
        <time>2021-02-28T09:18:01.341000+00:00</time>
      </trkpt>
      <trkpt lat="0" lon="0">
        <time>2021-02-28T09:18:01.343000+00:00</time>
      </trkpt>
      <trkpt lat="47.33021" lon="-1.43272">
        <ele>102</ele>
        <time>2021-02-28T09:18:02.337000+00:00</time>
      </trkpt>
      <trkpt lat="0" lon="0">
        <time>2021-02-28T09:18:02.344000+00:00</time>
      </trkpt>
      <trkpt lat="0" lon="0">
        <time>2021-02-28T09:18:02.348000+00:00</time>
      </trkpt>
      <trkpt lat="0" lon="0">
        <time>2021-02-28T09:18:02.350000+00:00</time>
      </trkpt>
      <trkpt lat="47.33018" lon="-1.43274">
        <ele>103</ele>
        <time>2021-02-28T09:18:03.343000+00:00</time>
      </trkpt>
      <trkpt lat="0" lon="0">
        <time>2021-02-28T09:18:03.354000+00:00</time>
      </trkpt>
      <trkpt lat="0" lon="0">
        <time>2021-02-28T09:18:03.358000+00:00</time>
      </trkpt>
      <trkpt lat="0" lon="0">
        <time>2021-02-28T09:18:03.360000+00:00</time>
      </trkpt>
      <trkpt lat="47.33015" lon="-1.43276">
        <ele>105</ele>
        <time>2021-02-28T09:18:04.351000+00:00</time>
      </trkpt>
      <trkpt lat="0" lon="0">
        <time>2021-02-28T09:18:04.360000+00:00</time>
      </trkpt>
      <trkpt lat="0" lon="0">
        <time>2021-02-28T09:18:04.364000+00:00</time>
      </trkpt>
      <trkpt lat="0" lon="0">
        <time>2021-02-28T09:18:04.366000+00:00</time>
      </trkpt>
      <trkpt lat="47.33013" lon="-1.43278">
        <ele>106</ele>
        <time>2021-02-28T09:18:05.337000+00:00</time>
      </trkpt>
      <trkpt lat="0" lon="0">
        <time>2021-02-28T09:18:05.342000+00:00</time>
      </trkpt>
      <trkpt lat="0" lon="0">
        <time>2021-02-28T09:18:05.347000+00:00</time>
      </trkpt>
      <trkpt lat="0" lon="0">
        <time>2021-02-28T09:18:05.350000+00:00</time>
      </trkpt>
      <trkpt lat="47.3301" lon="-1.4328">
        <ele>107</ele>
        <time>2021-02-28T09:18:06.350000+00:00</time>
      </trkpt>
      <trkpt lat="0" lon="0">
        <time>2021-02-28T09:18:06.359000+00:00</time>
      </trkpt>
      <trkpt lat="0" lon="0">
        <time>2021-02-28T09:18:06.365000+00:00</time>
      </trkpt>
      <trkpt lat="0" lon="0">
        <time>2021-02-28T09:18:06.368000+00:00</time>
      </trkpt>
      <trkpt lat="47.33008" lon="-1.43282">
        <ele>107</ele>
        <time>2021-02-28T09:18:07.341000+00:00</time>
      </trkpt>
      <trkpt lat="0" lon="0">
        <time>2021-02-28T09:18:07.345000+00:00</time>
      </trkpt>
      <trkpt lat="0" lon="0">
        <time>2021-02-28T09:18:07.349000+00:00</time>
      </trkpt>
      <trkpt lat="0" lon="0">
        <time>2021-02-28T09:18:07.355000+00:00</time>
      </trkpt>
      <trkpt lat="47.33005" lon="-1.43284">
        <ele>108</ele>
        <time>2021-02-28T09:18:08.334000+00:00</time>
      </trkpt>
      <trkpt lat="0" lon="0">
        <time>2021-02-28T09:18:08.341000+00:00</time>
      </trkpt>
      <trkpt lat="0" lon="0">
        <time>2021-02-28T09:18:08.345000+00:00</time>
      </trkpt>
      <trkpt lat="0" lon="0">
        <time>2021-02-28T09:18:08.347000+00:00</time>
      </trkpt>
      <trkpt lat="47.33003" lon="-1.43285">
        <ele>108</ele>
        <time>2021-02-28T09:18:09.339000+00:00</time>
      </trkpt>
      <trkpt lat="0" lon="0">
        <time>2021-02-28T09:18:09.343000+00:00</time>
      </trkpt>
      <trkpt lat="0" lon="0">
        <time>2021-02-28T09:18:09.347000+00:00</time>
      </trkpt>
      <trkpt lat="0" lon="0">
        <time>2021-02-28T09:18:09.349000+00:00</time>
      </trkpt>
      <trkpt lat="47.33002" lon="-1.43286">
        <ele>108</ele>
        <time>2021-02-28T09:18:10.343000+00:00</time>
      </trkpt>
      <trkpt lat="0" lon="0">
        <time>2021-02-28T09:18:10.357000+00:00</time>
      </trkpt>
      <trkpt lat="0" lon="0">
        <time>2021-02-28T09:18:10.363000+00:00</time>
      </trkpt>
      <trkpt lat="0" lon="0">
        <time>2021-02-28T09:18:10.367000+00:00</time>
      </trkpt>
      <trkpt lat="47.33" lon="-1.43288">
        <ele>111</ele>
        <time>2021-02-28T09:18:11.358000+00:00</time>
      </trkpt>
      <trkpt lat="0" lon="0">
        <time>2021-02-28T09:18:11.374000+00:00</time>
      </trkpt>
      <trkpt lat="0" lon="0">
        <time>2021-02-28T09:18:11.376000+00:00</time>
      </trkpt>
      <trkpt lat="0" lon="0">
        <time>2021-02-28T09:18:11.378000+00:00</time>
      </trkpt>
      <trkpt lat="47.32998" lon="-1.43291">
        <ele>112</ele>
        <time>2021-02-28T09:18:12.318000+00:00</time>
      </trkpt>
      <trkpt lat="0" lon="0">
        <time>2021-02-28T09:18:12.322000+00:00</time>
      </trkpt>
      <trkpt lat="0" lon="0">
        <time>2021-02-28T09:18:12.324000+00:00</time>
      </trkpt>
      <trkpt lat="0" lon="0">
        <time>2021-02-28T09:18:12.326000+00:00</time>
      </trkpt>
      <trkpt lat="47.32996" lon="-1.43293">
        <ele>112</ele>
        <time>2021-02-28T09:18:13.351000+00:00</time>
      </trkpt>
      <trkpt lat="0" lon="0">
        <time>2021-02-28T09:18:13.354000+00:00</time>
      </trkpt>
      <trkpt lat="0" lon="0">
        <time>2021-02-28T09:18:13.358000+00:00</time>
      </trkpt>
      <trkpt lat="0" lon="0">
        <time>2021-02-28T09:18:13.360000+00:00</time>
      </trkpt>
      <trkpt lat="47.32995" lon="-1.43295">
        <ele>111</ele>
        <time>2021-02-28T09:18:14.326000+00:00</time>
      </trkpt>
      <trkpt lat="0" lon="0">
        <time>2021-02-28T09:18:14.339000+00:00</time>
      </trkpt>
      <trkpt lat="0" lon="0">
        <time>2021-02-28T09:18:14.343000+00:00</time>
      </trkpt>
      <trkpt lat="0" lon="0">
        <time>2021-02-28T09:18:14.347000+00:00</time>
      </trkpt>
      <trkpt lat="47.32995" lon="-1.43297">
        <ele>111</ele>
        <time>2021-02-28T09:18:15.332000+00:00</time>
      </trkpt>
      <trkpt lat="0" lon="0">
        <time>2021-02-28T09:18:15.340000+00:00</time>
      </trkpt>
      <trkpt lat="0" lon="0">
        <time>2021-02-28T09:18:15.346000+00:00</time>
      </trkpt>
      <trkpt lat="0" lon="0">
        <time>2021-02-28T09:18:15.348000+00:00</time>
      </trkpt>
      <trkpt lat="47.32994" lon="-1.43299">
        <ele>111</ele>
        <time>2021-02-28T09:18:16.331000+00:00</time>
      </trkpt>
      <trkpt lat="0" lon="0">
        <time>2021-02-28T09:18:16.340000+00:00</time>
      </trkpt>
      <trkpt lat="0" lon="0">
        <time>2021-02-28T09:18:16.347000+00:00</time>
      </trkpt>
      <trkpt lat="0" lon="0">
        <time>2021-02-28T09:18:16.354000+00:00</time>
      </trkpt>
      <trkpt lat="47.32994" lon="-1.43301">
        <ele>111</ele>
        <time>2021-02-28T09:18:17.343000+00:00</time>
      </trkpt>
      <trkpt lat="0" lon="0">
        <time>2021-02-28T09:18:17.351000+00:00</time>
      </trkpt>
      <trkpt lat="0" lon="0">
        <time>2021-02-28T09:18:17.355000+00:00</time>
      </trkpt>
      <trkpt lat="0" lon="0">
        <time>2021-02-28T09:18:17.359000+00:00</time>
      </trkpt>
      <trkpt lat="47.32993" lon="-1.43303">
        <ele>111</ele>
        <time>2021-02-28T09:18:18.337000+00:00</time>
      </trkpt>
      <trkpt lat="0" lon="0">
        <time>2021-02-28T09:18:18.342000+00:00</time>
      </trkpt>
      <trkpt lat="0" lon="0">
        <time>2021-02-28T09:18:18.352000+00:00</time>
      </trkpt>
      <trkpt lat="0" lon="0">
        <time>2021-02-28T09:18:18.359000+00:00</time>
      </trkpt>
      <trkpt lat="47.32993" lon="-1.43306">
        <ele>109</ele>
        <time>2021-02-28T09:18:19.334000+00:00</time>
      </trkpt>
      <trkpt lat="0" lon="0">
        <time>2021-02-28T09:18:19.341000+00:00</time>
      </trkpt>
      <trkpt lat="0" lon="0">
        <time>2021-02-28T09:18:19.346000+00:00</time>
      </trkpt>
      <trkpt lat="0" lon="0">
        <time>2021-02-28T09:18:19.349000+00:00</time>
      </trkpt>
      <trkpt lat="47.32992" lon="-1.43309">
        <ele>108</ele>
        <time>2021-02-28T09:18:20.312000+00:00</time>
      </trkpt>
      <trkpt lat="0" lon="0">
        <time>2021-02-28T09:18:20.323000+00:00</time>
      </trkpt>
      <trkpt lat="0" lon="0">
        <time>2021-02-28T09:18:20.327000+00:00</time>
      </trkpt>
      <trkpt lat="0" lon="0">
        <time>2021-02-28T09:18:20.330000+00:00</time>
      </trkpt>
      <trkpt lat="47.32992" lon="-1.43313">
        <ele>108</ele>
        <time>2021-02-28T09:18:21.352000+00:00</time>
      </trkpt>
      <trkpt lat="0" lon="0">
        <time>2021-02-28T09:18:21.361000+00:00</time>
      </trkpt>
      <trkpt lat="0" lon="0">
        <time>2021-02-28T09:18:21.368000+00:00</time>
      </trkpt>
      <trkpt lat="0" lon="0">
        <time>2021-02-28T09:18:21.372000+00:00</time>
      </trkpt>
      <trkpt lat="47.32991" lon="-1.43316">
        <ele>107</ele>
        <time>2021-02-28T09:18:22.345000+00:00</time>
      </trkpt>
      <trkpt lat="0" lon="0">
        <time>2021-02-28T09:18:22.352000+00:00</time>
      </trkpt>
      <trkpt lat="0" lon="0">
        <time>2021-02-28T09:18:22.356000+00:00</time>
      </trkpt>
      <trkpt lat="0" lon="0">
        <time>2021-02-28T09:18:22.359000+00:00</time>
      </trkpt>
      <trkpt lat="47.32991" lon="-1.43318">
        <ele>107</ele>
        <time>2021-02-28T09:18:23.356000+00:00</time>
      </trkpt>
      <trkpt lat="0" lon="0">
        <time>2021-02-28T09:18:23.364000+00:00</time>
      </trkpt>
      <trkpt lat="0" lon="0">
        <time>2021-02-28T09:18:23.368000+00:00</time>
      </trkpt>
      <trkpt lat="0" lon="0">
        <time>2021-02-28T09:18:23.371000+00:00</time>
      </trkpt>
      <trkpt lat="47.3299" lon="-1.4332">
        <ele>107</ele>
        <time>2021-02-28T09:18:24.346000+00:00</time>
      </trkpt>
      <trkpt lat="0" lon="0">
        <time>2021-02-28T09:18:24.353000+00:00</time>
      </trkpt>
      <trkpt lat="0" lon="0">
        <time>2021-02-28T09:18:24.357000+00:00</time>
      </trkpt>
      <trkpt lat="0" lon="0">
        <time>2021-02-28T09:18:24.360000+00:00</time>
      </trkpt>
      <trkpt lat="47.32989" lon="-1.43322">
        <ele>106</ele>
        <time>2021-02-28T09:18:25.334000+00:00</time>
      </trkpt>
      <trkpt lat="0" lon="0">
        <time>2021-02-28T09:18:25.342000+00:00</time>
      </trkpt>
      <trkpt lat="0" lon="0">
        <time>2021-02-28T09:18:25.348000+00:00</time>
      </trkpt>
      <trkpt lat="0" lon="0">
        <time>2021-02-28T09:18:25.351000+00:00</time>
      </trkpt>
      <trkpt lat="47.32988" lon="-1.43323">
        <ele>105</ele>
        <time>2021-02-28T09:18:26.321000+00:00</time>
      </trkpt>
      <trkpt lat="0" lon="0">
        <time>2021-02-28T09:18:26.331000+00:00</time>
      </trkpt>
      <trkpt lat="0" lon="0">
        <time>2021-02-28T09:18:26.334000+00:00</time>
      </trkpt>
      <trkpt lat="0" lon="0">
        <time>2021-02-28T09:18:26.336000+00:00</time>
      </trkpt>
      <trkpt lat="47.32987" lon="-1.43325">
        <ele>104</ele>
        <time>2021-02-28T09:18:27.369000+00:00</time>
      </trkpt>
      <trkpt lat="0" lon="0">
        <time>2021-02-28T09:18:27.375000+00:00</time>
      </trkpt>
      <trkpt lat="0" lon="0">
        <time>2021-02-28T09:18:27.379000+00:00</time>
      </trkpt>
      <trkpt lat="0" lon="0">
        <time>2021-02-28T09:18:27.381000+00:00</time>
      </trkpt>
      <trkpt lat="47.32986" lon="-1.43326">
        <ele>104</ele>
        <time>2021-02-28T09:18:28.297000+00:00</time>
      </trkpt>
      <trkpt lat="0" lon="0">
        <time>2021-02-28T09:18:28.302000+00:00</time>
      </trkpt>
      <trkpt lat="0" lon="0">
        <time>2021-02-28T09:18:28.306000+00:00</time>
      </trkpt>
      <trkpt lat="0" lon="0">
        <time>2021-02-28T09:18:28.309000+00:00</time>
      </trkpt>
      <trkpt lat="47.32986" lon="-1.43327">
        <ele>104</ele>
        <time>2021-02-28T09:18:29.370000+00:00</time>
      </trkpt>
      <trkpt lat="0" lon="0">
        <time>2021-02-28T09:18:29.375000+00:00</time>
      </trkpt>
      <trkpt lat="0" lon="0">
        <time>2021-02-28T09:18:29.379000+00:00</time>
      </trkpt>
      <trkpt lat="0" lon="0">
        <time>2021-02-28T09:18:29.381000+00:00</time>
      </trkpt>
      <trkpt lat="47.32985" lon="-1.43328">
        <ele>102</ele>
        <time>2021-02-28T09:18:30.320000+00:00</time>
      </trkpt>
      <trkpt lat="0" lon="0">
        <time>2021-02-28T09:18:30.326000+00:00</time>
      </trkpt>
      <trkpt lat="0" lon="0">
        <time>2021-02-28T09:18:30.333000+00:00</time>
      </trkpt>
      <trkpt lat="0" lon="0">
        <time>2021-02-28T09:18:30.335000+00:00</time>
      </trkpt>
      <trkpt lat="47.32984" lon="-1.43329">
        <ele>101</ele>
        <time>2021-02-28T09:18:31.323000+00:00</time>
      </trkpt>
      <trkpt lat="0" lon="0">
        <time>2021-02-28T09:18:31.328000+00:00</time>
      </trkpt>
      <trkpt lat="0" lon="0">
        <time>2021-02-28T09:18:31.333000+00:00</time>
      </trkpt>
      <trkpt lat="0" lon="0">
        <time>2021-02-28T09:18:31.335000+00:00</time>
      </trkpt>
      <trkpt lat="47.32982" lon="-1.4333">
        <ele>99</ele>
        <time>2021-02-28T09:18:32.327000+00:00</time>
      </trkpt>
      <trkpt lat="0" lon="0">
        <time>2021-02-28T09:18:32.340000+00:00</time>
      </trkpt>
      <trkpt lat="0" lon="0">
        <time>2021-02-28T09:18:32.346000+00:00</time>
      </trkpt>
      <trkpt lat="0" lon="0">
        <time>2021-02-28T09:18:32.353000+00:00</time>
      </trkpt>
      <trkpt lat="47.32981" lon="-1.43331">
        <ele>97</ele>
        <time>2021-02-28T09:18:33.355000+00:00</time>
      </trkpt>
      <trkpt lat="0" lon="0">
        <time>2021-02-28T09:18:33.366000+00:00</time>
      </trkpt>
      <trkpt lat="0" lon="0">
        <time>2021-02-28T09:18:33.371000+00:00</time>
      </trkpt>
      <trkpt lat="0" lon="0">
        <time>2021-02-28T09:18:33.373000+00:00</time>
      </trkpt>
      <trkpt lat="47.3298" lon="-1.43332">
        <ele>97</ele>
        <time>2021-02-28T09:18:34.348000+00:00</time>
      </trkpt>
      <trkpt lat="0" lon="0">
        <time>2021-02-28T09:18:34.352000+00:00</time>
      </trkpt>
      <trkpt lat="0" lon="0">
        <time>2021-02-28T09:18:34.363000+00:00</time>
      </trkpt>
      <trkpt lat="0" lon="0">
        <time>2021-02-28T09:18:34.365000+00:00</time>
      </trkpt>
      <trkpt lat="47.32979" lon="-1.43332">
        <ele>97</ele>
        <time>2021-02-28T09:18:35.329000+00:00</time>
      </trkpt>
      <trkpt lat="0" lon="0">
        <time>2021-02-28T09:18:35.333000+00:00</time>
      </trkpt>
      <trkpt lat="0" lon="0">
        <time>2021-02-28T09:18:35.337000+00:00</time>
      </trkpt>
      <trkpt lat="0" lon="0">
        <time>2021-02-28T09:18:35.339000+00:00</time>
      </trkpt>
      <trkpt lat="47.32977" lon="-1.43333">
        <ele>94</ele>
        <time>2021-02-28T09:18:36.330000+00:00</time>
      </trkpt>
      <trkpt lat="0" lon="0">
        <time>2021-02-28T09:18:36.335000+00:00</time>
      </trkpt>
      <trkpt lat="0" lon="0">
        <time>2021-02-28T09:18:36.339000+00:00</time>
      </trkpt>
      <trkpt lat="0" lon="0">
        <time>2021-02-28T09:18:36.341000+00:00</time>
      </trkpt>
      <trkpt lat="47.32976" lon="-1.43334">
        <ele>94</ele>
        <time>2021-02-28T09:18:37.328000+00:00</time>
      </trkpt>
      <trkpt lat="0" lon="0">
        <time>2021-02-28T09:18:37.333000+00:00</time>
      </trkpt>
      <trkpt lat="0" lon="0">
        <time>2021-02-28T09:18:37.338000+00:00</time>
      </trkpt>
      <trkpt lat="0" lon="0">
        <time>2021-02-28T09:18:37.340000+00:00</time>
      </trkpt>
      <trkpt lat="47.32974" lon="-1.43335">
        <ele>93</ele>
        <time>2021-02-28T09:18:38.332000+00:00</time>
      </trkpt>
      <trkpt lat="0" lon="0">
        <time>2021-02-28T09:18:38.344000+00:00</time>
      </trkpt>
      <trkpt lat="0" lon="0">
        <time>2021-02-28T09:18:38.348000+00:00</time>
      </trkpt>
      <trkpt lat="0" lon="0">
        <time>2021-02-28T09:18:38.350000+00:00</time>
      </trkpt>
      <trkpt lat="47.32973" lon="-1.43336">
        <ele>93</ele>
        <time>2021-02-28T09:18:39.323000+00:00</time>
      </trkpt>
      <trkpt lat="0" lon="0">
        <time>2021-02-28T09:18:39.333000+00:00</time>
      </trkpt>
      <trkpt lat="0" lon="0">
        <time>2021-02-28T09:18:39.338000+00:00</time>
      </trkpt>
      <trkpt lat="0" lon="0">
        <time>2021-02-28T09:18:39.340000+00:00</time>
      </trkpt>
      <trkpt lat="47.32971" lon="-1.43336">
        <ele>92</ele>
        <time>2021-02-28T09:18:40.334000+00:00</time>
      </trkpt>
      <trkpt lat="0" lon="0">
        <time>2021-02-28T09:18:40.338000+00:00</time>
      </trkpt>
      <trkpt lat="0" lon="0">
        <time>2021-02-28T09:18:40.343000+00:00</time>
      </trkpt>
      <trkpt lat="0" lon="0">
        <time>2021-02-28T09:18:40.346000+00:00</time>
      </trkpt>
      <trkpt lat="47.3297" lon="-1.43337">
        <ele>92</ele>
        <time>2021-02-28T09:18:41.305000+00:00</time>
      </trkpt>
      <trkpt lat="0" lon="0">
        <time>2021-02-28T09:18:41.309000+00:00</time>
      </trkpt>
      <trkpt lat="0" lon="0">
        <time>2021-02-28T09:18:41.314000+00:00</time>
      </trkpt>
      <trkpt lat="0" lon="0">
        <time>2021-02-28T09:18:41.316000+00:00</time>
      </trkpt>
      <trkpt lat="47.32969" lon="-1.43337">
        <ele>92</ele>
        <time>2021-02-28T09:18:42.339000+00:00</time>
      </trkpt>
      <trkpt lat="0" lon="0">
        <time>2021-02-28T09:18:42.345000+00:00</time>
      </trkpt>
      <trkpt lat="0" lon="0">
        <time>2021-02-28T09:18:42.350000+00:00</time>
      </trkpt>
      <trkpt lat="0" lon="0">
        <time>2021-02-28T09:18:42.353000+00:00</time>
      </trkpt>
      <trkpt lat="47.32967" lon="-1.43338">
        <ele>90</ele>
        <time>2021-02-28T09:18:43.341000+00:00</time>
      </trkpt>
      <trkpt lat="0" lon="0">
        <time>2021-02-28T09:18:43.349000+00:00</time>
      </trkpt>
      <trkpt lat="0" lon="0">
        <time>2021-02-28T09:18:43.354000+00:00</time>
      </trkpt>
      <trkpt lat="0" lon="0">
        <time>2021-02-28T09:18:43.356000+00:00</time>
      </trkpt>
      <trkpt lat="47.32966" lon="-1.43339">
        <ele>89</ele>
        <time>2021-02-28T09:18:44.325000+00:00</time>
      </trkpt>
      <trkpt lat="0" lon="0">
        <time>2021-02-28T09:18:44.336000+00:00</time>
      </trkpt>
      <trkpt lat="0" lon="0">
        <time>2021-02-28T09:18:44.340000+00:00</time>
      </trkpt>
      <trkpt lat="0" lon="0">
        <time>2021-02-28T09:18:44.343000+00:00</time>
      </trkpt>
      <trkpt lat="47.32965" lon="-1.43339">
        <ele>89</ele>
        <time>2021-02-28T09:18:45.352000+00:00</time>
      </trkpt>
      <trkpt lat="0" lon="0">
        <time>2021-02-28T09:18:45.363000+00:00</time>
      </trkpt>
      <trkpt lat="0" lon="0">
        <time>2021-02-28T09:18:45.369000+00:00</time>
      </trkpt>
      <trkpt lat="0" lon="0">
        <time>2021-02-28T09:18:45.371000+00:00</time>
      </trkpt>
      <trkpt lat="47.32964" lon="-1.4334">
        <ele>89</ele>
        <time>2021-02-28T09:18:46.348000+00:00</time>
      </trkpt>
      <trkpt lat="0" lon="0">
        <time>2021-02-28T09:18:46.357000+00:00</time>
      </trkpt>
      <trkpt lat="0" lon="0">
        <time>2021-02-28T09:18:46.363000+00:00</time>
      </trkpt>
      <trkpt lat="0" lon="0">
        <time>2021-02-28T09:18:46.366000+00:00</time>
      </trkpt>
      <trkpt lat="47.32962" lon="-1.4334">
        <ele>90</ele>
        <time>2021-02-28T09:18:47.332000+00:00</time>
      </trkpt>
      <trkpt lat="0" lon="0">
        <time>2021-02-28T09:18:47.338000+00:00</time>
      </trkpt>
      <trkpt lat="0" lon="0">
        <time>2021-02-28T09:18:47.343000+00:00</time>
      </trkpt>
      <trkpt lat="0" lon="0">
        <time>2021-02-28T09:18:47.346000+00:00</time>
      </trkpt>
      <trkpt lat="47.32961" lon="-1.43341">
        <ele>89</ele>
        <time>2021-02-28T09:18:48.310000+00:00</time>
      </trkpt>
      <trkpt lat="0" lon="0">
        <time>2021-02-28T09:18:48.317000+00:00</time>
      </trkpt>
      <trkpt lat="0" lon="0">
        <time>2021-02-28T09:18:48.322000+00:00</time>
      </trkpt>
      <trkpt lat="0" lon="0">
        <time>2021-02-28T09:18:48.325000+00:00</time>
      </trkpt>
      <trkpt lat="47.3296" lon="-1.43342">
        <ele>89</ele>
        <time>2021-02-28T09:18:49.267000+00:00</time>
      </trkpt>
      <trkpt lat="0" lon="0">
        <time>2021-02-28T09:18:49.272000+00:00</time>
      </trkpt>
      <trkpt lat="0" lon="0">
        <time>2021-02-28T09:18:49.273000+00:00</time>
      </trkpt>
      <trkpt lat="0" lon="0">
        <time>2021-02-28T09:18:49.274000+00:00</time>
      </trkpt>
      <trkpt lat="47.32959" lon="-1.43343">
        <ele>88</ele>
        <time>2021-02-28T09:18:50.312000+00:00</time>
      </trkpt>
      <trkpt lat="0" lon="0">
        <time>2021-02-28T09:18:50.316000+00:00</time>
      </trkpt>
      <trkpt lat="0" lon="0">
        <time>2021-02-28T09:18:50.320000+00:00</time>
      </trkpt>
      <trkpt lat="0" lon="0">
        <time>2021-02-28T09:18:50.322000+00:00</time>
      </trkpt>
      <trkpt lat="47.32959" lon="-1.43343">
        <ele>88</ele>
        <time>2021-02-28T09:18:51.356000+00:00</time>
      </trkpt>
      <trkpt lat="0" lon="0">
        <time>2021-02-28T09:18:51.362000+00:00</time>
      </trkpt>
      <trkpt lat="0" lon="0">
        <time>2021-02-28T09:18:51.367000+00:00</time>
      </trkpt>
      <trkpt lat="0" lon="0">
        <time>2021-02-28T09:18:51.369000+00:00</time>
      </trkpt>
      <trkpt lat="47.32958" lon="-1.43344">
        <ele>88</ele>
        <time>2021-02-28T09:18:52.350000+00:00</time>
      </trkpt>
      <trkpt lat="0" lon="0">
        <time>2021-02-28T09:18:52.358000+00:00</time>
      </trkpt>
      <trkpt lat="0" lon="0">
        <time>2021-02-28T09:18:52.363000+00:00</time>
      </trkpt>
      <trkpt lat="0" lon="0">
        <time>2021-02-28T09:18:52.367000+00:00</time>
      </trkpt>
      <trkpt lat="47.32958" lon="-1.43344">
        <ele>88</ele>
        <time>2021-02-28T09:18:53.346000+00:00</time>
      </trkpt>
      <trkpt lat="0" lon="0">
        <time>2021-02-28T09:18:53.362000+00:00</time>
      </trkpt>
      <trkpt lat="0" lon="0">
        <time>2021-02-28T09:18:53.367000+00:00</time>
      </trkpt>
      <trkpt lat="0" lon="0">
        <time>2021-02-28T09:18:53.369000+00:00</time>
      </trkpt>
      <trkpt lat="47.32958" lon="-1.43345">
        <ele>88</ele>
        <time>2021-02-28T09:18:54.362000+00:00</time>
      </trkpt>
      <trkpt lat="0" lon="0">
        <time>2021-02-28T09:18:54.367000+00:00</time>
      </trkpt>
      <trkpt lat="0" lon="0">
        <time>2021-02-28T09:18:54.372000+00:00</time>
      </trkpt>
      <trkpt lat="0" lon="0">
        <time>2021-02-28T09:18:54.375000+00:00</time>
      </trkpt>
      <trkpt lat="47.32958" lon="-1.43345">
        <ele>88</ele>
        <time>2021-02-28T09:18:55.334000+00:00</time>
      </trkpt>
      <trkpt lat="0" lon="0">
        <time>2021-02-28T09:18:55.339000+00:00</time>
      </trkpt>
      <trkpt lat="0" lon="0">
        <time>2021-02-28T09:18:55.343000+00:00</time>
      </trkpt>
      <trkpt lat="0" lon="0">
        <time>2021-02-28T09:18:55.346000+00:00</time>
      </trkpt>
      <trkpt lat="47.32957" lon="-1.43345">
        <ele>86</ele>
        <time>2021-02-28T09:18:56.349000+00:00</time>
      </trkpt>
      <trkpt lat="0" lon="0">
        <time>2021-02-28T09:18:56.365000+00:00</time>
      </trkpt>
      <trkpt lat="0" lon="0">
        <time>2021-02-28T09:18:56.370000+00:00</time>
      </trkpt>
      <trkpt lat="0" lon="0">
        <time>2021-02-28T09:18:56.373000+00:00</time>
      </trkpt>
      <trkpt lat="47.32957" lon="-1.43345">
        <ele>85</ele>
        <time>2021-02-28T09:18:57.382000+00:00</time>
      </trkpt>
      <trkpt lat="0" lon="0">
        <time>2021-02-28T09:18:57.389000+00:00</time>
      </trkpt>
      <trkpt lat="0" lon="0">
        <time>2021-02-28T09:18:57.391000+00:00</time>
      </trkpt>
      <trkpt lat="0" lon="0">
        <time>2021-02-28T09:18:57.408000+00:00</time>
      </trkpt>
      <trkpt lat="47.32941" lon="-1.43376">
        <ele>77</ele>
        <time>2021-02-28T09:18:58.366000+00:00</time>
      </trkpt>
      <trkpt lat="0" lon="0">
        <time>2021-02-28T09:18:58.367000+00:00</time>
      </trkpt>
      <trkpt lat="0" lon="0">
        <time>2021-02-28T09:18:58.369000+00:00</time>
      </trkpt>
      <trkpt lat="47.3294" lon="-1.43378">
        <ele>77</ele>
        <time>2021-02-28T09:18:59.404000+00:00</time>
      </trkpt>
      <trkpt lat="0" lon="0">
        <time>2021-02-28T09:18:59.413000+00:00</time>
      </trkpt>
      <trkpt lat="0" lon="0">
        <time>2021-02-28T09:18:59.418000+00:00</time>
      </trkpt>
      <trkpt lat="0" lon="0">
        <time>2021-02-28T09:18:59.421000+00:00</time>
      </trkpt>
      <trkpt lat="47.3294" lon="-1.4338">
        <ele>77</ele>
        <time>2021-02-28T09:19:00.393000+00:00</time>
      </trkpt>
      <trkpt lat="0" lon="0">
        <time>2021-02-28T09:19:00.399000+00:00</time>
      </trkpt>
      <trkpt lat="0" lon="0">
        <time>2021-02-28T09:19:00.403000+00:00</time>
      </trkpt>
      <trkpt lat="0" lon="0">
        <time>2021-02-28T09:19:00.405000+00:00</time>
      </trkpt>
      <trkpt lat="47.3294" lon="-1.43382">
        <ele>77</ele>
        <time>2021-02-28T09:19:01.377000+00:00</time>
      </trkpt>
      <trkpt lat="0" lon="0">
        <time>2021-02-28T09:19:01.392000+00:00</time>
      </trkpt>
      <trkpt lat="0" lon="0">
        <time>2021-02-28T09:19:01.396000+00:00</time>
      </trkpt>
      <trkpt lat="0" lon="0">
        <time>2021-02-28T09:19:01.399000+00:00</time>
      </trkpt>
      <trkpt lat="47.32939" lon="-1.43384">
        <ele>78</ele>
        <time>2021-02-28T09:19:02.376000+00:00</time>
      </trkpt>
      <trkpt lat="0" lon="0">
        <time>2021-02-28T09:19:02.386000+00:00</time>
      </trkpt>
      <trkpt lat="0" lon="0">
        <time>2021-02-28T09:19:02.390000+00:00</time>
      </trkpt>
      <trkpt lat="0" lon="0">
        <time>2021-02-28T09:19:02.393000+00:00</time>
      </trkpt>
      <trkpt lat="47.32939" lon="-1.43386">
        <ele>78</ele>
        <time>2021-02-28T09:19:03.424000+00:00</time>
      </trkpt>
      <trkpt lat="0" lon="0">
        <time>2021-02-28T09:19:03.430000+00:00</time>
      </trkpt>
      <trkpt lat="0" lon="0">
        <time>2021-02-28T09:19:03.434000+00:00</time>
      </trkpt>
      <trkpt lat="0" lon="0">
        <time>2021-02-28T09:19:03.437000+00:00</time>
      </trkpt>
      <trkpt lat="47.32938" lon="-1.43388">
        <ele>78</ele>
        <time>2021-02-28T09:19:04.377000+00:00</time>
      </trkpt>
      <trkpt lat="0" lon="0">
        <time>2021-02-28T09:19:04.382000+00:00</time>
      </trkpt>
      <trkpt lat="0" lon="0">
        <time>2021-02-28T09:19:04.387000+00:00</time>
      </trkpt>
      <trkpt lat="0" lon="0">
        <time>2021-02-28T09:19:04.390000+00:00</time>
      </trkpt>
      <trkpt lat="47.32938" lon="-1.4339">
        <ele>79</ele>
        <time>2021-02-28T09:19:05.419000+00:00</time>
      </trkpt>
      <trkpt lat="0" lon="0">
        <time>2021-02-28T09:19:05.427000+00:00</time>
      </trkpt>
      <trkpt lat="0" lon="0">
        <time>2021-02-28T09:19:05.431000+00:00</time>
      </trkpt>
      <trkpt lat="0" lon="0">
        <time>2021-02-28T09:19:05.434000+00:00</time>
      </trkpt>
      <trkpt lat="47.32937" lon="-1.43392">
        <ele>79</ele>
        <time>2021-02-28T09:19:06.425000+00:00</time>
      </trkpt>
      <trkpt lat="0" lon="0">
        <time>2021-02-28T09:19:06.432000+00:00</time>
      </trkpt>
      <trkpt lat="0" lon="0">
        <time>2021-02-28T09:19:06.436000+00:00</time>
      </trkpt>
      <trkpt lat="0" lon="0">
        <time>2021-02-28T09:19:06.438000+00:00</time>
      </trkpt>
      <trkpt lat="47.32936" lon="-1.43394">
        <ele>79</ele>
        <time>2021-02-28T09:19:07.393000+00:00</time>
      </trkpt>
      <trkpt lat="0" lon="0">
        <time>2021-02-28T09:19:07.397000+00:00</time>
      </trkpt>
      <trkpt lat="0" lon="0">
        <time>2021-02-28T09:19:07.402000+00:00</time>
      </trkpt>
      <trkpt lat="0" lon="0">
        <time>2021-02-28T09:19:07.407000+00:00</time>
      </trkpt>
      <trkpt lat="47.32935" lon="-1.43396">
        <ele>79</ele>
        <time>2021-02-28T09:19:08.445000+00:00</time>
      </trkpt>
      <trkpt lat="0" lon="0">
        <time>2021-02-28T09:19:08.455000+00:00</time>
      </trkpt>
      <trkpt lat="0" lon="0">
        <time>2021-02-28T09:19:08.459000+00:00</time>
      </trkpt>
      <trkpt lat="0" lon="0">
        <time>2021-02-28T09:19:08.461000+00:00</time>
      </trkpt>
      <trkpt lat="47.32934" lon="-1.43398">
        <ele>80</ele>
        <time>2021-02-28T09:19:09.441000+00:00</time>
      </trkpt>
      <trkpt lat="0" lon="0">
        <time>2021-02-28T09:19:09.452000+00:00</time>
      </trkpt>
      <trkpt lat="0" lon="0">
        <time>2021-02-28T09:19:09.458000+00:00</time>
      </trkpt>
      <trkpt lat="0" lon="0">
        <time>2021-02-28T09:19:09.461000+00:00</time>
      </trkpt>
      <trkpt lat="47.32933" lon="-1.434">
        <ele>80</ele>
        <time>2021-02-28T09:19:10.426000+00:00</time>
      </trkpt>
      <trkpt lat="0" lon="0">
        <time>2021-02-28T09:19:10.432000+00:00</time>
      </trkpt>
      <trkpt lat="0" lon="0">
        <time>2021-02-28T09:19:10.435000+00:00</time>
      </trkpt>
      <trkpt lat="0" lon="0">
        <time>2021-02-28T09:19:10.437000+00:00</time>
      </trkpt>
      <trkpt lat="47.32932" lon="-1.43402">
        <ele>80</ele>
        <time>2021-02-28T09:19:11.425000+00:00</time>
      </trkpt>
      <trkpt lat="0" lon="0">
        <time>2021-02-28T09:19:11.436000+00:00</time>
      </trkpt>
      <trkpt lat="0" lon="0">
        <time>2021-02-28T09:19:11.444000+00:00</time>
      </trkpt>
      <trkpt lat="0" lon="0">
        <time>2021-02-28T09:19:11.452000+00:00</time>
      </trkpt>
      <trkpt lat="47.32931" lon="-1.43405">
        <ele>81</ele>
        <time>2021-02-28T09:19:12.437000+00:00</time>
      </trkpt>
      <trkpt lat="0" lon="0">
        <time>2021-02-28T09:19:12.442000+00:00</time>
      </trkpt>
      <trkpt lat="0" lon="0">
        <time>2021-02-28T09:19:12.447000+00:00</time>
      </trkpt>
      <trkpt lat="0" lon="0">
        <time>2021-02-28T09:19:12.449000+00:00</time>
      </trkpt>
      <trkpt lat="47.3293" lon="-1.43407">
        <ele>81</ele>
        <time>2021-02-28T09:19:13.385000+00:00</time>
      </trkpt>
      <trkpt lat="0" lon="0">
        <time>2021-02-28T09:19:13.389000+00:00</time>
      </trkpt>
      <trkpt lat="0" lon="0">
        <time>2021-02-28T09:19:13.393000+00:00</time>
      </trkpt>
      <trkpt lat="0" lon="0">
        <time>2021-02-28T09:19:13.395000+00:00</time>
      </trkpt>
      <trkpt lat="47.32929" lon="-1.43409">
        <ele>81</ele>
        <time>2021-02-28T09:19:14.437000+00:00</time>
      </trkpt>
      <trkpt lat="0" lon="0">
        <time>2021-02-28T09:19:14.442000+00:00</time>
      </trkpt>
      <trkpt lat="0" lon="0">
        <time>2021-02-28T09:19:14.447000+00:00</time>
      </trkpt>
      <trkpt lat="0" lon="0">
        <time>2021-02-28T09:19:14.450000+00:00</time>
      </trkpt>
      <trkpt lat="47.32928" lon="-1.43411">
        <ele>81</ele>
        <time>2021-02-28T09:19:15.424000+00:00</time>
      </trkpt>
      <trkpt lat="0" lon="0">
        <time>2021-02-28T09:19:15.436000+00:00</time>
      </trkpt>
      <trkpt lat="0" lon="0">
        <time>2021-02-28T09:19:15.441000+00:00</time>
      </trkpt>
      <trkpt lat="0" lon="0">
        <time>2021-02-28T09:19:15.444000+00:00</time>
      </trkpt>
      <trkpt lat="47.32927" lon="-1.43412">
        <ele>82</ele>
        <time>2021-02-28T09:19:16.426000+00:00</time>
      </trkpt>
      <trkpt lat="0" lon="0">
        <time>2021-02-28T09:19:16.438000+00:00</time>
      </trkpt>
      <trkpt lat="0" lon="0">
        <time>2021-02-28T09:19:16.444000+00:00</time>
      </trkpt>
      <trkpt lat="0" lon="0">
        <time>2021-02-28T09:19:16.447000+00:00</time>
      </trkpt>
      <trkpt lat="47.32926" lon="-1.43414">
        <ele>83</ele>
        <time>2021-02-28T09:19:17.433000+00:00</time>
      </trkpt>
      <trkpt lat="0" lon="0">
        <time>2021-02-28T09:19:17.440000+00:00</time>
      </trkpt>
      <trkpt lat="0" lon="0">
        <time>2021-02-28T09:19:17.445000+00:00</time>
      </trkpt>
      <trkpt lat="0" lon="0">
        <time>2021-02-28T09:19:17.447000+00:00</time>
      </trkpt>
      <trkpt lat="47.32925" lon="-1.43416">
        <ele>83</ele>
        <time>2021-02-28T09:19:18.430000+00:00</time>
      </trkpt>
      <trkpt lat="0" lon="0">
        <time>2021-02-28T09:19:18.438000+00:00</time>
      </trkpt>
      <trkpt lat="0" lon="0">
        <time>2021-02-28T09:19:18.443000+00:00</time>
      </trkpt>
      <trkpt lat="0" lon="0">
        <time>2021-02-28T09:19:18.445000+00:00</time>
      </trkpt>
      <trkpt lat="47.32924" lon="-1.43418">
        <ele>84</ele>
        <time>2021-02-28T09:19:19.436000+00:00</time>
      </trkpt>
      <trkpt lat="0" lon="0">
        <time>2021-02-28T09:19:19.442000+00:00</time>
      </trkpt>
      <trkpt lat="0" lon="0">
        <time>2021-02-28T09:19:19.447000+00:00</time>
      </trkpt>
      <trkpt lat="0" lon="0">
        <time>2021-02-28T09:19:19.449000+00:00</time>
      </trkpt>
      <trkpt lat="47.32922" lon="-1.4342">
        <ele>84</ele>
        <time>2021-02-28T09:19:20.437000+00:00</time>
      </trkpt>
      <trkpt lat="0" lon="0">
        <time>2021-02-28T09:19:20.442000+00:00</time>
      </trkpt>
      <trkpt lat="0" lon="0">
        <time>2021-02-28T09:19:20.452000+00:00</time>
      </trkpt>
      <trkpt lat="0" lon="0">
        <time>2021-02-28T09:19:20.454000+00:00</time>
      </trkpt>
      <trkpt lat="47.32921" lon="-1.43422">
        <ele>84</ele>
        <time>2021-02-28T09:19:21.407000+00:00</time>
      </trkpt>
      <trkpt lat="0" lon="0">
        <time>2021-02-28T09:19:21.417000+00:00</time>
      </trkpt>
      <trkpt lat="0" lon="0">
        <time>2021-02-28T09:19:21.424000+00:00</time>
      </trkpt>
      <trkpt lat="0" lon="0">
        <time>2021-02-28T09:19:21.426000+00:00</time>
      </trkpt>
      <trkpt lat="47.3292" lon="-1.43423">
        <ele>85</ele>
        <time>2021-02-28T09:19:22.414000+00:00</time>
      </trkpt>
      <trkpt lat="0" lon="0">
        <time>2021-02-28T09:19:22.422000+00:00</time>
      </trkpt>
      <trkpt lat="0" lon="0">
        <time>2021-02-28T09:19:22.426000+00:00</time>
      </trkpt>
      <trkpt lat="0" lon="0">
        <time>2021-02-28T09:19:22.428000+00:00</time>
      </trkpt>
      <trkpt lat="47.32919" lon="-1.43425">
        <ele>86</ele>
        <time>2021-02-28T09:19:23.438000+00:00</time>
      </trkpt>
      <trkpt lat="0" lon="0">
        <time>2021-02-28T09:19:23.445000+00:00</time>
      </trkpt>
      <trkpt lat="0" lon="0">
        <time>2021-02-28T09:19:23.453000+00:00</time>
      </trkpt>
      <trkpt lat="0" lon="0">
        <time>2021-02-28T09:19:23.457000+00:00</time>
      </trkpt>
      <trkpt lat="47.32917" lon="-1.43426">
        <ele>86</ele>
        <time>2021-02-28T09:19:24.427000+00:00</time>
      </trkpt>
      <trkpt lat="0" lon="0">
        <time>2021-02-28T09:19:24.446000+00:00</time>
      </trkpt>
      <trkpt lat="0" lon="0">
        <time>2021-02-28T09:19:24.452000+00:00</time>
      </trkpt>
      <trkpt lat="0" lon="0">
        <time>2021-02-28T09:19:24.454000+00:00</time>
      </trkpt>
      <trkpt lat="47.32916" lon="-1.43428">
        <ele>86</ele>
        <time>2021-02-28T09:19:25.429000+00:00</time>
      </trkpt>
      <trkpt lat="0" lon="0">
        <time>2021-02-28T09:19:25.440000+00:00</time>
      </trkpt>
      <trkpt lat="0" lon="0">
        <time>2021-02-28T09:19:25.446000+00:00</time>
      </trkpt>
      <trkpt lat="0" lon="0">
        <time>2021-02-28T09:19:25.449000+00:00</time>
      </trkpt>
      <trkpt lat="47.32915" lon="-1.43429">
        <ele>86</ele>
        <time>2021-02-28T09:19:26.429000+00:00</time>
      </trkpt>
      <trkpt lat="0" lon="0">
        <time>2021-02-28T09:19:26.434000+00:00</time>
      </trkpt>
      <trkpt lat="0" lon="0">
        <time>2021-02-28T09:19:26.438000+00:00</time>
      </trkpt>
      <trkpt lat="0" lon="0">
        <time>2021-02-28T09:19:26.441000+00:00</time>
      </trkpt>
      <trkpt lat="47.32914" lon="-1.43431">
        <ele>86</ele>
        <time>2021-02-28T09:19:27.424000+00:00</time>
      </trkpt>
      <trkpt lat="0" lon="0">
        <time>2021-02-28T09:19:27.431000+00:00</time>
      </trkpt>
      <trkpt lat="0" lon="0">
        <time>2021-02-28T09:19:27.436000+00:00</time>
      </trkpt>
      <trkpt lat="0" lon="0">
        <time>2021-02-28T09:19:27.439000+00:00</time>
      </trkpt>
      <trkpt lat="47.32913" lon="-1.43432">
        <ele>87</ele>
        <time>2021-02-28T09:19:28.441000+00:00</time>
      </trkpt>
      <trkpt lat="0" lon="0">
        <time>2021-02-28T09:19:28.449000+00:00</time>
      </trkpt>
      <trkpt lat="0" lon="0">
        <time>2021-02-28T09:19:28.454000+00:00</time>
      </trkpt>
      <trkpt lat="0" lon="0">
        <time>2021-02-28T09:19:28.456000+00:00</time>
      </trkpt>
      <trkpt lat="47.32912" lon="-1.43434">
        <ele>88</ele>
        <time>2021-02-28T09:19:29.449000+00:00</time>
      </trkpt>
      <trkpt lat="0" lon="0">
        <time>2021-02-28T09:19:29.459000+00:00</time>
      </trkpt>
      <trkpt lat="0" lon="0">
        <time>2021-02-28T09:19:29.463000+00:00</time>
      </trkpt>
      <trkpt lat="0" lon="0">
        <time>2021-02-28T09:19:29.465000+00:00</time>
      </trkpt>
      <trkpt lat="47.32911" lon="-1.43435">
        <ele>89</ele>
        <time>2021-02-28T09:19:30.444000+00:00</time>
      </trkpt>
      <trkpt lat="0" lon="0">
        <time>2021-02-28T09:19:30.449000+00:00</time>
      </trkpt>
      <trkpt lat="0" lon="0">
        <time>2021-02-28T09:19:30.454000+00:00</time>
      </trkpt>
      <trkpt lat="0" lon="0">
        <time>2021-02-28T09:19:30.457000+00:00</time>
      </trkpt>
      <trkpt lat="47.3291" lon="-1.43437">
        <ele>89</ele>
        <time>2021-02-28T09:19:31.426000+00:00</time>
      </trkpt>
      <trkpt lat="0" lon="0">
        <time>2021-02-28T09:19:31.441000+00:00</time>
      </trkpt>
      <trkpt lat="0" lon="0">
        <time>2021-02-28T09:19:31.446000+00:00</time>
      </trkpt>
      <trkpt lat="0" lon="0">
        <time>2021-02-28T09:19:31.449000+00:00</time>
      </trkpt>
      <trkpt lat="47.3291" lon="-1.43439">
        <ele>89</ele>
        <time>2021-02-28T09:19:32.411000+00:00</time>
      </trkpt>
      <trkpt lat="0" lon="0">
        <time>2021-02-28T09:19:32.426000+00:00</time>
      </trkpt>
      <trkpt lat="0" lon="0">
        <time>2021-02-28T09:19:32.430000+00:00</time>
      </trkpt>
      <trkpt lat="0" lon="0">
        <time>2021-02-28T09:19:32.433000+00:00</time>
      </trkpt>
      <trkpt lat="47.32909" lon="-1.4344">
        <ele>89</ele>
        <time>2021-02-28T09:19:33.426000+00:00</time>
      </trkpt>
      <trkpt lat="0" lon="0">
        <time>2021-02-28T09:19:33.432000+00:00</time>
      </trkpt>
      <trkpt lat="0" lon="0">
        <time>2021-02-28T09:19:33.438000+00:00</time>
      </trkpt>
      <trkpt lat="0" lon="0">
        <time>2021-02-28T09:19:33.442000+00:00</time>
      </trkpt>
      <trkpt lat="47.32908" lon="-1.43442">
        <ele>89</ele>
        <time>2021-02-28T09:19:34.440000+00:00</time>
      </trkpt>
      <trkpt lat="0" lon="0">
        <time>2021-02-28T09:19:34.445000+00:00</time>
      </trkpt>
      <trkpt lat="0" lon="0">
        <time>2021-02-28T09:19:34.450000+00:00</time>
      </trkpt>
      <trkpt lat="0" lon="0">
        <time>2021-02-28T09:19:34.454000+00:00</time>
      </trkpt>
      <trkpt lat="47.32907" lon="-1.43443">
        <ele>89</ele>
        <time>2021-02-28T09:19:35.426000+00:00</time>
      </trkpt>
      <trkpt lat="0" lon="0">
        <time>2021-02-28T09:19:35.434000+00:00</time>
      </trkpt>
      <trkpt lat="0" lon="0">
        <time>2021-02-28T09:19:35.438000+00:00</time>
      </trkpt>
      <trkpt lat="0" lon="0">
        <time>2021-02-28T09:19:35.441000+00:00</time>
      </trkpt>
      <trkpt lat="47.32906" lon="-1.43445">
        <ele>89</ele>
        <time>2021-02-28T09:19:36.416000+00:00</time>
      </trkpt>
      <trkpt lat="0" lon="0">
        <time>2021-02-28T09:19:36.421000+00:00</time>
      </trkpt>
      <trkpt lat="0" lon="0">
        <time>2021-02-28T09:19:36.425000+00:00</time>
      </trkpt>
      <trkpt lat="0" lon="0">
        <time>2021-02-28T09:19:36.428000+00:00</time>
      </trkpt>
      <trkpt lat="47.32905" lon="-1.43446">
        <ele>89</ele>
        <time>2021-02-28T09:19:37.433000+00:00</time>
      </trkpt>
      <trkpt lat="0" lon="0">
        <time>2021-02-28T09:19:37.439000+00:00</time>
      </trkpt>
      <trkpt lat="0" lon="0">
        <time>2021-02-28T09:19:37.443000+00:00</time>
      </trkpt>
      <trkpt lat="0" lon="0">
        <time>2021-02-28T09:19:37.448000+00:00</time>
      </trkpt>
      <trkpt lat="47.32904" lon="-1.43448">
        <ele>89</ele>
        <time>2021-02-28T09:19:38.433000+00:00</time>
      </trkpt>
      <trkpt lat="0" lon="0">
        <time>2021-02-28T09:19:38.439000+00:00</time>
      </trkpt>
      <trkpt lat="0" lon="0">
        <time>2021-02-28T09:19:38.444000+00:00</time>
      </trkpt>
      <trkpt lat="0" lon="0">
        <time>2021-02-28T09:19:38.447000+00:00</time>
      </trkpt>
      <trkpt lat="47.32903" lon="-1.43449">
        <ele>90</ele>
        <time>2021-02-28T09:19:39.450000+00:00</time>
      </trkpt>
      <trkpt lat="0" lon="0">
        <time>2021-02-28T09:19:39.464000+00:00</time>
      </trkpt>
      <trkpt lat="0" lon="0">
        <time>2021-02-28T09:19:39.468000+00:00</time>
      </trkpt>
      <trkpt lat="0" lon="0">
        <time>2021-02-28T09:19:39.470000+00:00</time>
      </trkpt>
      <trkpt lat="47.32902" lon="-1.43451">
        <ele>90</ele>
        <time>2021-02-28T09:19:40.432000+00:00</time>
      </trkpt>
      <trkpt lat="0" lon="0">
        <time>2021-02-28T09:19:40.436000+00:00</time>
      </trkpt>
      <trkpt lat="0" lon="0">
        <time>2021-02-28T09:19:40.442000+00:00</time>
      </trkpt>
      <trkpt lat="0" lon="0">
        <time>2021-02-28T09:19:40.445000+00:00</time>
      </trkpt>
      <trkpt lat="47.32901" lon="-1.43452">
        <ele>90</ele>
        <time>2021-02-28T09:19:41.432000+00:00</time>
      </trkpt>
      <trkpt lat="0" lon="0">
        <time>2021-02-28T09:19:41.440000+00:00</time>
      </trkpt>
      <trkpt lat="0" lon="0">
        <time>2021-02-28T09:19:41.444000+00:00</time>
      </trkpt>
      <trkpt lat="0" lon="0">
        <time>2021-02-28T09:19:41.446000+00:00</time>
      </trkpt>
      <trkpt lat="47.329" lon="-1.43454">
        <ele>90</ele>
        <time>2021-02-28T09:19:42.423000+00:00</time>
      </trkpt>
      <trkpt lat="0" lon="0">
        <time>2021-02-28T09:19:42.433000+00:00</time>
      </trkpt>
      <trkpt lat="0" lon="0">
        <time>2021-02-28T09:19:42.437000+00:00</time>
      </trkpt>
      <trkpt lat="0" lon="0">
        <time>2021-02-28T09:19:42.440000+00:00</time>
      </trkpt>
      <trkpt lat="47.32899" lon="-1.43455">
        <ele>91</ele>
        <time>2021-02-28T09:19:43.447000+00:00</time>
      </trkpt>
      <trkpt lat="0" lon="0">
        <time>2021-02-28T09:19:43.456000+00:00</time>
      </trkpt>
      <trkpt lat="0" lon="0">
        <time>2021-02-28T09:19:43.461000+00:00</time>
      </trkpt>
      <trkpt lat="0" lon="0">
        <time>2021-02-28T09:19:43.463000+00:00</time>
      </trkpt>
      <trkpt lat="47.32898" lon="-1.43457">
        <ele>90</ele>
        <time>2021-02-28T09:19:44.449000+00:00</time>
      </trkpt>
      <trkpt lat="0" lon="0">
        <time>2021-02-28T09:19:44.460000+00:00</time>
      </trkpt>
      <trkpt lat="0" lon="0">
        <time>2021-02-28T09:19:44.466000+00:00</time>
      </trkpt>
      <trkpt lat="0" lon="0">
        <time>2021-02-28T09:19:44.468000+00:00</time>
      </trkpt>
      <trkpt lat="47.32897" lon="-1.43459">
        <ele>90</ele>
        <time>2021-02-28T09:19:45.407000+00:00</time>
      </trkpt>
      <trkpt lat="0" lon="0">
        <time>2021-02-28T09:19:45.418000+00:00</time>
      </trkpt>
      <trkpt lat="0" lon="0">
        <time>2021-02-28T09:19:45.424000+00:00</time>
      </trkpt>
      <trkpt lat="0" lon="0">
        <time>2021-02-28T09:19:45.426000+00:00</time>
      </trkpt>
      <trkpt lat="47.32896" lon="-1.43461">
        <ele>91</ele>
        <time>2021-02-28T09:19:46.401000+00:00</time>
      </trkpt>
      <trkpt lat="0" lon="0">
        <time>2021-02-28T09:19:46.405000+00:00</time>
      </trkpt>
      <trkpt lat="0" lon="0">
        <time>2021-02-28T09:19:46.407000+00:00</time>
      </trkpt>
      <trkpt lat="0" lon="0">
        <time>2021-02-28T09:19:46.408000+00:00</time>
      </trkpt>
      <trkpt lat="47.32895" lon="-1.43462">
        <ele>91</ele>
        <time>2021-02-28T09:19:47.416000+00:00</time>
      </trkpt>
      <trkpt lat="0" lon="0">
        <time>2021-02-28T09:19:47.422000+00:00</time>
      </trkpt>
      <trkpt lat="0" lon="0">
        <time>2021-02-28T09:19:47.428000+00:00</time>
      </trkpt>
      <trkpt lat="0" lon="0">
        <time>2021-02-28T09:19:47.431000+00:00</time>
      </trkpt>
      <trkpt lat="47.32894" lon="-1.43464">
        <ele>92</ele>
        <time>2021-02-28T09:19:48.442000+00:00</time>
      </trkpt>
      <trkpt lat="0" lon="0">
        <time>2021-02-28T09:19:48.448000+00:00</time>
      </trkpt>
      <trkpt lat="0" lon="0">
        <time>2021-02-28T09:19:48.454000+00:00</time>
      </trkpt>
      <trkpt lat="0" lon="0">
        <time>2021-02-28T09:19:48.456000+00:00</time>
      </trkpt>
      <trkpt lat="47.32893" lon="-1.43466">
        <ele>92</ele>
        <time>2021-02-28T09:19:49.410000+00:00</time>
      </trkpt>
      <trkpt lat="0" lon="0">
        <time>2021-02-28T09:19:49.420000+00:00</time>
      </trkpt>
      <trkpt lat="0" lon="0">
        <time>2021-02-28T09:19:49.424000+00:00</time>
      </trkpt>
      <trkpt lat="0" lon="0">
        <time>2021-02-28T09:19:49.426000+00:00</time>
      </trkpt>
      <trkpt lat="47.32892" lon="-1.43468">
        <ele>92</ele>
        <time>2021-02-28T09:19:50.434000+00:00</time>
      </trkpt>
      <trkpt lat="0" lon="0">
        <time>2021-02-28T09:19:50.439000+00:00</time>
      </trkpt>
      <trkpt lat="0" lon="0">
        <time>2021-02-28T09:19:50.445000+00:00</time>
      </trkpt>
      <trkpt lat="0" lon="0">
        <time>2021-02-28T09:19:50.448000+00:00</time>
      </trkpt>
      <trkpt lat="47.32891" lon="-1.4347">
        <ele>93</ele>
        <time>2021-02-28T09:19:51.400000+00:00</time>
      </trkpt>
      <trkpt lat="0" lon="0">
        <time>2021-02-28T09:19:51.406000+00:00</time>
      </trkpt>
      <trkpt lat="0" lon="0">
        <time>2021-02-28T09:19:51.411000+00:00</time>
      </trkpt>
      <trkpt lat="0" lon="0">
        <time>2021-02-28T09:19:51.414000+00:00</time>
      </trkpt>
      <trkpt lat="47.3289" lon="-1.43472">
        <ele>94</ele>
        <time>2021-02-28T09:19:52.389000+00:00</time>
      </trkpt>
      <trkpt lat="0" lon="0">
        <time>2021-02-28T09:19:52.394000+00:00</time>
      </trkpt>
      <trkpt lat="0" lon="0">
        <time>2021-02-28T09:19:52.398000+00:00</time>
      </trkpt>
      <trkpt lat="0" lon="0">
        <time>2021-02-28T09:19:52.400000+00:00</time>
      </trkpt>
      <trkpt lat="47.3289" lon="-1.43474">
        <ele>93</ele>
        <time>2021-02-28T09:19:53.415000+00:00</time>
      </trkpt>
      <trkpt lat="0" lon="0">
        <time>2021-02-28T09:19:53.421000+00:00</time>
      </trkpt>
      <trkpt lat="0" lon="0">
        <time>2021-02-28T09:19:53.426000+00:00</time>
      </trkpt>
      <trkpt lat="0" lon="0">
        <time>2021-02-28T09:19:53.429000+00:00</time>
      </trkpt>
      <trkpt lat="47.32889" lon="-1.43476">
        <ele>93</ele>
        <time>2021-02-28T09:19:54.427000+00:00</time>
      </trkpt>
      <trkpt lat="0" lon="0">
        <time>2021-02-28T09:19:54.433000+00:00</time>
      </trkpt>
      <trkpt lat="0" lon="0">
        <time>2021-02-28T09:19:54.437000+00:00</time>
      </trkpt>
      <trkpt lat="0" lon="0">
        <time>2021-02-28T09:19:54.439000+00:00</time>
      </trkpt>
      <trkpt lat="47.32888" lon="-1.43477">
        <ele>94</ele>
        <time>2021-02-28T09:19:55.423000+00:00</time>
      </trkpt>
      <trkpt lat="0" lon="0">
        <time>2021-02-28T09:19:55.429000+00:00</time>
      </trkpt>
      <trkpt lat="0" lon="0">
        <time>2021-02-28T09:19:55.434000+00:00</time>
      </trkpt>
      <trkpt lat="0" lon="0">
        <time>2021-02-28T09:19:55.437000+00:00</time>
      </trkpt>
      <trkpt lat="47.32887" lon="-1.43479">
        <ele>94</ele>
        <time>2021-02-28T09:19:56.435000+00:00</time>
      </trkpt>
      <trkpt lat="0" lon="0">
        <time>2021-02-28T09:19:56.442000+00:00</time>
      </trkpt>
      <trkpt lat="0" lon="0">
        <time>2021-02-28T09:19:56.447000+00:00</time>
      </trkpt>
      <trkpt lat="0" lon="0">
        <time>2021-02-28T09:19:56.450000+00:00</time>
      </trkpt>
      <trkpt lat="47.32886" lon="-1.4348">
        <ele>94</ele>
        <time>2021-02-28T09:19:57.429000+00:00</time>
      </trkpt>
      <trkpt lat="0" lon="0">
        <time>2021-02-28T09:19:57.439000+00:00</time>
      </trkpt>
      <trkpt lat="0" lon="0">
        <time>2021-02-28T09:19:57.444000+00:00</time>
      </trkpt>
      <trkpt lat="0" lon="0">
        <time>2021-02-28T09:19:57.446000+00:00</time>
      </trkpt>
      <trkpt lat="47.32885" lon="-1.43481">
        <ele>94</ele>
        <time>2021-02-28T09:19:58.441000+00:00</time>
      </trkpt>
      <trkpt lat="0" lon="0">
        <time>2021-02-28T09:19:58.452000+00:00</time>
      </trkpt>
      <trkpt lat="0" lon="0">
        <time>2021-02-28T09:19:58.456000+00:00</time>
      </trkpt>
      <trkpt lat="0" lon="0">
        <time>2021-02-28T09:19:58.459000+00:00</time>
      </trkpt>
      <trkpt lat="47.32884" lon="-1.43482">
        <ele>94</ele>
        <time>2021-02-28T09:19:59.412000+00:00</time>
      </trkpt>
      <trkpt lat="0" lon="0">
        <time>2021-02-28T09:19:59.417000+00:00</time>
      </trkpt>
      <trkpt lat="0" lon="0">
        <time>2021-02-28T09:19:59.420000+00:00</time>
      </trkpt>
      <trkpt lat="0" lon="0">
        <time>2021-02-28T09:19:59.422000+00:00</time>
      </trkpt>
      <trkpt lat="47.32882" lon="-1.43482">
        <ele>95</ele>
        <time>2021-02-28T09:20:00.453000+00:00</time>
      </trkpt>
      <trkpt lat="0" lon="0">
        <time>2021-02-28T09:20:00.458000+00:00</time>
      </trkpt>
      <trkpt lat="0" lon="0">
        <time>2021-02-28T09:20:00.464000+00:00</time>
      </trkpt>
      <trkpt lat="0" lon="0">
        <time>2021-02-28T09:20:00.467000+00:00</time>
      </trkpt>
      <trkpt lat="47.32881" lon="-1.43483">
        <ele>95</ele>
        <time>2021-02-28T09:20:01.430000+00:00</time>
      </trkpt>
      <trkpt lat="0" lon="0">
        <time>2021-02-28T09:20:01.437000+00:00</time>
      </trkpt>
      <trkpt lat="0" lon="0">
        <time>2021-02-28T09:20:01.446000+00:00</time>
      </trkpt>
      <trkpt lat="0" lon="0">
        <time>2021-02-28T09:20:01.448000+00:00</time>
      </trkpt>
      <trkpt lat="47.3288" lon="-1.43484">
        <ele>95</ele>
        <time>2021-02-28T09:20:02.419000+00:00</time>
      </trkpt>
      <trkpt lat="0" lon="0">
        <time>2021-02-28T09:20:02.432000+00:00</time>
      </trkpt>
      <trkpt lat="0" lon="0">
        <time>2021-02-28T09:20:02.435000+00:00</time>
      </trkpt>
      <trkpt lat="0" lon="0">
        <time>2021-02-28T09:20:02.439000+00:00</time>
      </trkpt>
      <trkpt lat="47.3288" lon="-1.43485">
        <ele>96</ele>
        <time>2021-02-28T09:20:03.419000+00:00</time>
      </trkpt>
      <trkpt lat="0" lon="0">
        <time>2021-02-28T09:20:03.424000+00:00</time>
      </trkpt>
      <trkpt lat="0" lon="0">
        <time>2021-02-28T09:20:03.428000+00:00</time>
      </trkpt>
      <trkpt lat="0" lon="0">
        <time>2021-02-28T09:20:03.430000+00:00</time>
      </trkpt>
      <trkpt lat="47.32879" lon="-1.43486">
        <ele>96</ele>
        <time>2021-02-28T09:20:04.445000+00:00</time>
      </trkpt>
      <trkpt lat="0" lon="0">
        <time>2021-02-28T09:20:04.451000+00:00</time>
      </trkpt>
      <trkpt lat="0" lon="0">
        <time>2021-02-28T09:20:04.455000+00:00</time>
      </trkpt>
      <trkpt lat="0" lon="0">
        <time>2021-02-28T09:20:04.458000+00:00</time>
      </trkpt>
      <trkpt lat="47.32878" lon="-1.43487">
        <ele>96</ele>
        <time>2021-02-28T09:20:05.419000+00:00</time>
      </trkpt>
      <trkpt lat="0" lon="0">
        <time>2021-02-28T09:20:05.424000+00:00</time>
      </trkpt>
      <trkpt lat="0" lon="0">
        <time>2021-02-28T09:20:05.432000+00:00</time>
      </trkpt>
      <trkpt lat="0" lon="0">
        <time>2021-02-28T09:20:05.435000+00:00</time>
      </trkpt>
      <trkpt lat="47.32877" lon="-1.43489">
        <ele>96</ele>
        <time>2021-02-28T09:20:06.471000+00:00</time>
      </trkpt>
      <trkpt lat="0" lon="0">
        <time>2021-02-28T09:20:06.477000+00:00</time>
      </trkpt>
      <trkpt lat="0" lon="0">
        <time>2021-02-28T09:20:06.482000+00:00</time>
      </trkpt>
      <trkpt lat="0" lon="0">
        <time>2021-02-28T09:20:06.484000+00:00</time>
      </trkpt>
      <trkpt lat="47.32876" lon="-1.4349">
        <ele>96</ele>
        <time>2021-02-28T09:20:07.412000+00:00</time>
      </trkpt>
      <trkpt lat="0" lon="0">
        <time>2021-02-28T09:20:07.417000+00:00</time>
      </trkpt>
      <trkpt lat="0" lon="0">
        <time>2021-02-28T09:20:07.422000+00:00</time>
      </trkpt>
      <trkpt lat="0" lon="0">
        <time>2021-02-28T09:20:07.424000+00:00</time>
      </trkpt>
      <trkpt lat="47.32875" lon="-1.43491">
        <ele>96</ele>
        <time>2021-02-28T09:20:08.415000+00:00</time>
      </trkpt>
      <trkpt lat="0" lon="0">
        <time>2021-02-28T09:20:08.422000+00:00</time>
      </trkpt>
      <trkpt lat="0" lon="0">
        <time>2021-02-28T09:20:08.427000+00:00</time>
      </trkpt>
      <trkpt lat="0" lon="0">
        <time>2021-02-28T09:20:08.430000+00:00</time>
      </trkpt>
      <trkpt lat="47.32874" lon="-1.43493">
        <ele>96</ele>
        <time>2021-02-28T09:20:09.433000+00:00</time>
      </trkpt>
      <trkpt lat="0" lon="0">
        <time>2021-02-28T09:20:09.437000+00:00</time>
      </trkpt>
      <trkpt lat="0" lon="0">
        <time>2021-02-28T09:20:09.441000+00:00</time>
      </trkpt>
      <trkpt lat="0" lon="0">
        <time>2021-02-28T09:20:09.442000+00:00</time>
      </trkpt>
      <trkpt lat="47.32873" lon="-1.43494">
        <ele>97</ele>
        <time>2021-02-28T09:20:10.431000+00:00</time>
      </trkpt>
      <trkpt lat="0" lon="0">
        <time>2021-02-28T09:20:10.437000+00:00</time>
      </trkpt>
      <trkpt lat="0" lon="0">
        <time>2021-02-28T09:20:10.443000+00:00</time>
      </trkpt>
      <trkpt lat="0" lon="0">
        <time>2021-02-28T09:20:10.446000+00:00</time>
      </trkpt>
      <trkpt lat="47.32872" lon="-1.43495">
        <ele>98</ele>
        <time>2021-02-28T09:20:11.428000+00:00</time>
      </trkpt>
      <trkpt lat="0" lon="0">
        <time>2021-02-28T09:20:11.438000+00:00</time>
      </trkpt>
      <trkpt lat="0" lon="0">
        <time>2021-02-28T09:20:11.443000+00:00</time>
      </trkpt>
      <trkpt lat="0" lon="0">
        <time>2021-02-28T09:20:11.445000+00:00</time>
      </trkpt>
      <trkpt lat="47.3287" lon="-1.43496">
        <ele>98</ele>
        <time>2021-02-28T09:20:12.436000+00:00</time>
      </trkpt>
      <trkpt lat="0" lon="0">
        <time>2021-02-28T09:20:12.443000+00:00</time>
      </trkpt>
      <trkpt lat="0" lon="0">
        <time>2021-02-28T09:20:12.448000+00:00</time>
      </trkpt>
      <trkpt lat="0" lon="0">
        <time>2021-02-28T09:20:12.450000+00:00</time>
      </trkpt>
      <trkpt lat="47.32869" lon="-1.43497">
        <ele>98</ele>
        <time>2021-02-28T09:20:13.439000+00:00</time>
      </trkpt>
      <trkpt lat="0" lon="0">
        <time>2021-02-28T09:20:13.447000+00:00</time>
      </trkpt>
      <trkpt lat="0" lon="0">
        <time>2021-02-28T09:20:13.451000+00:00</time>
      </trkpt>
      <trkpt lat="0" lon="0">
        <time>2021-02-28T09:20:13.454000+00:00</time>
      </trkpt>
      <trkpt lat="47.32867" lon="-1.43498">
        <ele>99</ele>
        <time>2021-02-28T09:20:14.438000+00:00</time>
      </trkpt>
      <trkpt lat="0" lon="0">
        <time>2021-02-28T09:20:14.440000+00:00</time>
      </trkpt>
      <trkpt lat="0" lon="0">
        <time>2021-02-28T09:20:14.442000+00:00</time>
      </trkpt>
      <trkpt lat="0" lon="0">
        <time>2021-02-28T09:20:14.443000+00:00</time>
      </trkpt>
      <trkpt lat="47.32866" lon="-1.43499">
        <ele>99</ele>
        <time>2021-02-28T09:20:15.439000+00:00</time>
      </trkpt>
      <trkpt lat="0" lon="0">
        <time>2021-02-28T09:20:15.446000+00:00</time>
      </trkpt>
      <trkpt lat="0" lon="0">
        <time>2021-02-28T09:20:15.453000+00:00</time>
      </trkpt>
      <trkpt lat="0" lon="0">
        <time>2021-02-28T09:20:15.455000+00:00</time>
      </trkpt>
      <trkpt lat="47.32864" lon="-1.435">
        <ele>99</ele>
        <time>2021-02-28T09:20:16.435000+00:00</time>
      </trkpt>
      <trkpt lat="0" lon="0">
        <time>2021-02-28T09:20:16.443000+00:00</time>
      </trkpt>
      <trkpt lat="0" lon="0">
        <time>2021-02-28T09:20:16.447000+00:00</time>
      </trkpt>
      <trkpt lat="0" lon="0">
        <time>2021-02-28T09:20:16.450000+00:00</time>
      </trkpt>
      <trkpt lat="47.32863" lon="-1.43502">
        <ele>99</ele>
        <time>2021-02-28T09:20:17.402000+00:00</time>
      </trkpt>
      <trkpt lat="0" lon="0">
        <time>2021-02-28T09:20:17.406000+00:00</time>
      </trkpt>
      <trkpt lat="0" lon="0">
        <time>2021-02-28T09:20:17.412000+00:00</time>
      </trkpt>
      <trkpt lat="0" lon="0">
        <time>2021-02-28T09:20:17.414000+00:00</time>
      </trkpt>
      <trkpt lat="47.32861" lon="-1.43503">
        <ele>99</ele>
        <time>2021-02-28T09:20:18.425000+00:00</time>
      </trkpt>
      <trkpt lat="0" lon="0">
        <time>2021-02-28T09:20:18.433000+00:00</time>
      </trkpt>
      <trkpt lat="0" lon="0">
        <time>2021-02-28T09:20:18.439000+00:00</time>
      </trkpt>
      <trkpt lat="0" lon="0">
        <time>2021-02-28T09:20:18.447000+00:00</time>
      </trkpt>
      <trkpt lat="47.3286" lon="-1.43504">
        <ele>100</ele>
        <time>2021-02-28T09:20:19.377000+00:00</time>
      </trkpt>
      <trkpt lat="0" lon="0">
        <time>2021-02-28T09:20:19.385000+00:00</time>
      </trkpt>
      <trkpt lat="0" lon="0">
        <time>2021-02-28T09:20:19.390000+00:00</time>
      </trkpt>
      <trkpt lat="0" lon="0">
        <time>2021-02-28T09:20:19.394000+00:00</time>
      </trkpt>
      <trkpt lat="47.32858" lon="-1.43505">
        <ele>100</ele>
        <time>2021-02-28T09:20:20.429000+00:00</time>
      </trkpt>
      <trkpt lat="0" lon="0">
        <time>2021-02-28T09:20:20.434000+00:00</time>
      </trkpt>
      <trkpt lat="0" lon="0">
        <time>2021-02-28T09:20:20.439000+00:00</time>
      </trkpt>
      <trkpt lat="0" lon="0">
        <time>2021-02-28T09:20:20.442000+00:00</time>
      </trkpt>
      <trkpt lat="47.32856" lon="-1.43506">
        <ele>100</ele>
        <time>2021-02-28T09:20:21.411000+00:00</time>
      </trkpt>
      <trkpt lat="0" lon="0">
        <time>2021-02-28T09:20:21.422000+00:00</time>
      </trkpt>
      <trkpt lat="0" lon="0">
        <time>2021-02-28T09:20:21.429000+00:00</time>
      </trkpt>
      <trkpt lat="0" lon="0">
        <time>2021-02-28T09:20:21.431000+00:00</time>
      </trkpt>
      <trkpt lat="47.32855" lon="-1.43507">
        <ele>101</ele>
        <time>2021-02-28T09:20:22.418000+00:00</time>
      </trkpt>
      <trkpt lat="0" lon="0">
        <time>2021-02-28T09:20:22.422000+00:00</time>
      </trkpt>
      <trkpt lat="0" lon="0">
        <time>2021-02-28T09:20:22.429000+00:00</time>
      </trkpt>
      <trkpt lat="0" lon="0">
        <time>2021-02-28T09:20:22.432000+00:00</time>
      </trkpt>
      <trkpt lat="47.32853" lon="-1.43508">
        <ele>101</ele>
        <time>2021-02-28T09:20:23.430000+00:00</time>
      </trkpt>
      <trkpt lat="0" lon="0">
        <time>2021-02-28T09:20:23.436000+00:00</time>
      </trkpt>
      <trkpt lat="0" lon="0">
        <time>2021-02-28T09:20:23.441000+00:00</time>
      </trkpt>
      <trkpt lat="0" lon="0">
        <time>2021-02-28T09:20:23.444000+00:00</time>
      </trkpt>
      <trkpt lat="47.32852" lon="-1.43509">
        <ele>101</ele>
        <time>2021-02-28T09:20:24.429000+00:00</time>
      </trkpt>
      <trkpt lat="0" lon="0">
        <time>2021-02-28T09:20:24.436000+00:00</time>
      </trkpt>
      <trkpt lat="0" lon="0">
        <time>2021-02-28T09:20:24.441000+00:00</time>
      </trkpt>
      <trkpt lat="0" lon="0">
        <time>2021-02-28T09:20:24.443000+00:00</time>
      </trkpt>
      <trkpt lat="47.32851" lon="-1.43509">
        <ele>102</ele>
        <time>2021-02-28T09:20:25.445000+00:00</time>
      </trkpt>
      <trkpt lat="0" lon="0">
        <time>2021-02-28T09:20:25.447000+00:00</time>
      </trkpt>
      <trkpt lat="0" lon="0">
        <time>2021-02-28T09:20:25.450000+00:00</time>
      </trkpt>
      <trkpt lat="0" lon="0">
        <time>2021-02-28T09:20:25.451000+00:00</time>
      </trkpt>
      <trkpt lat="47.32849" lon="-1.4351">
        <ele>102</ele>
        <time>2021-02-28T09:20:26.450000+00:00</time>
      </trkpt>
      <trkpt lat="0" lon="0">
        <time>2021-02-28T09:20:26.464000+00:00</time>
      </trkpt>
      <trkpt lat="0" lon="0">
        <time>2021-02-28T09:20:26.468000+00:00</time>
      </trkpt>
      <trkpt lat="0" lon="0">
        <time>2021-02-28T09:20:26.470000+00:00</time>
      </trkpt>
      <trkpt lat="47.32848" lon="-1.43511">
        <ele>102</ele>
        <time>2021-02-28T09:20:27.407000+00:00</time>
      </trkpt>
      <trkpt lat="0" lon="0">
        <time>2021-02-28T09:20:27.413000+00:00</time>
      </trkpt>
      <trkpt lat="0" lon="0">
        <time>2021-02-28T09:20:27.417000+00:00</time>
      </trkpt>
      <trkpt lat="0" lon="0">
        <time>2021-02-28T09:20:27.419000+00:00</time>
      </trkpt>
      <trkpt lat="47.32846" lon="-1.43512">
        <ele>102</ele>
        <time>2021-02-28T09:20:28.409000+00:00</time>
      </trkpt>
      <trkpt lat="0" lon="0">
        <time>2021-02-28T09:20:28.422000+00:00</time>
      </trkpt>
      <trkpt lat="0" lon="0">
        <time>2021-02-28T09:20:28.427000+00:00</time>
      </trkpt>
      <trkpt lat="0" lon="0">
        <time>2021-02-28T09:20:28.430000+00:00</time>
      </trkpt>
      <trkpt lat="47.32844" lon="-1.43513">
        <ele>103</ele>
        <time>2021-02-28T09:20:29.412000+00:00</time>
      </trkpt>
      <trkpt lat="0" lon="0">
        <time>2021-02-28T09:20:29.417000+00:00</time>
      </trkpt>
      <trkpt lat="0" lon="0">
        <time>2021-02-28T09:20:29.422000+00:00</time>
      </trkpt>
      <trkpt lat="0" lon="0">
        <time>2021-02-28T09:20:29.425000+00:00</time>
      </trkpt>
      <trkpt lat="47.32843" lon="-1.43514">
        <ele>103</ele>
        <time>2021-02-28T09:20:30.429000+00:00</time>
      </trkpt>
      <trkpt lat="0" lon="0">
        <time>2021-02-28T09:20:30.437000+00:00</time>
      </trkpt>
      <trkpt lat="0" lon="0">
        <time>2021-02-28T09:20:30.442000+00:00</time>
      </trkpt>
      <trkpt lat="0" lon="0">
        <time>2021-02-28T09:20:30.444000+00:00</time>
      </trkpt>
      <trkpt lat="47.32841" lon="-1.43515">
        <ele>103</ele>
        <time>2021-02-28T09:20:31.431000+00:00</time>
      </trkpt>
      <trkpt lat="0" lon="0">
        <time>2021-02-28T09:20:31.436000+00:00</time>
      </trkpt>
      <trkpt lat="0" lon="0">
        <time>2021-02-28T09:20:31.441000+00:00</time>
      </trkpt>
      <trkpt lat="0" lon="0">
        <time>2021-02-28T09:20:31.444000+00:00</time>
      </trkpt>
      <trkpt lat="47.3284" lon="-1.43516">
        <ele>103</ele>
        <time>2021-02-28T09:20:32.401000+00:00</time>
      </trkpt>
      <trkpt lat="0" lon="0">
        <time>2021-02-28T09:20:32.415000+00:00</time>
      </trkpt>
      <trkpt lat="0" lon="0">
        <time>2021-02-28T09:20:32.420000+00:00</time>
      </trkpt>
      <trkpt lat="0" lon="0">
        <time>2021-02-28T09:20:32.422000+00:00</time>
      </trkpt>
      <trkpt lat="47.32838" lon="-1.43516">
        <ele>103</ele>
        <time>2021-02-28T09:20:33.411000+00:00</time>
      </trkpt>
      <trkpt lat="0" lon="0">
        <time>2021-02-28T09:20:33.420000+00:00</time>
      </trkpt>
      <trkpt lat="0" lon="0">
        <time>2021-02-28T09:20:33.424000+00:00</time>
      </trkpt>
      <trkpt lat="0" lon="0">
        <time>2021-02-28T09:20:33.427000+00:00</time>
      </trkpt>
      <trkpt lat="47.32837" lon="-1.43517">
        <ele>104</ele>
        <time>2021-02-28T09:20:34.446000+00:00</time>
      </trkpt>
      <trkpt lat="0" lon="0">
        <time>2021-02-28T09:20:34.450000+00:00</time>
      </trkpt>
      <trkpt lat="0" lon="0">
        <time>2021-02-28T09:20:34.454000+00:00</time>
      </trkpt>
      <trkpt lat="0" lon="0">
        <time>2021-02-28T09:20:34.457000+00:00</time>
      </trkpt>
      <trkpt lat="47.32835" lon="-1.43518">
        <ele>105</ele>
        <time>2021-02-28T09:20:35.442000+00:00</time>
      </trkpt>
      <trkpt lat="0" lon="0">
        <time>2021-02-28T09:20:35.451000+00:00</time>
      </trkpt>
      <trkpt lat="0" lon="0">
        <time>2021-02-28T09:20:35.455000+00:00</time>
      </trkpt>
      <trkpt lat="0" lon="0">
        <time>2021-02-28T09:20:35.457000+00:00</time>
      </trkpt>
      <trkpt lat="47.32834" lon="-1.43518">
        <ele>105</ele>
        <time>2021-02-28T09:20:36.457000+00:00</time>
      </trkpt>
      <trkpt lat="0" lon="0">
        <time>2021-02-28T09:20:36.464000+00:00</time>
      </trkpt>
      <trkpt lat="0" lon="0">
        <time>2021-02-28T09:20:36.468000+00:00</time>
      </trkpt>
      <trkpt lat="0" lon="0">
        <time>2021-02-28T09:20:36.470000+00:00</time>
      </trkpt>
      <trkpt lat="47.32832" lon="-1.43519">
        <ele>105</ele>
        <time>2021-02-28T09:20:37.420000+00:00</time>
      </trkpt>
      <trkpt lat="0" lon="0">
        <time>2021-02-28T09:20:37.425000+00:00</time>
      </trkpt>
      <trkpt lat="0" lon="0">
        <time>2021-02-28T09:20:37.429000+00:00</time>
      </trkpt>
      <trkpt lat="0" lon="0">
        <time>2021-02-28T09:20:37.432000+00:00</time>
      </trkpt>
      <trkpt lat="47.3283" lon="-1.43519">
        <ele>105</ele>
        <time>2021-02-28T09:20:38.374000+00:00</time>
      </trkpt>
      <trkpt lat="0" lon="0">
        <time>2021-02-28T09:20:38.382000+00:00</time>
      </trkpt>
      <trkpt lat="0" lon="0">
        <time>2021-02-28T09:20:38.386000+00:00</time>
      </trkpt>
      <trkpt lat="0" lon="0">
        <time>2021-02-28T09:20:38.388000+00:00</time>
      </trkpt>
      <trkpt lat="47.32828" lon="-1.4352">
        <ele>105</ele>
        <time>2021-02-28T09:20:39.418000+00:00</time>
      </trkpt>
      <trkpt lat="0" lon="0">
        <time>2021-02-28T09:20:39.425000+00:00</time>
      </trkpt>
      <trkpt lat="0" lon="0">
        <time>2021-02-28T09:20:39.429000+00:00</time>
      </trkpt>
      <trkpt lat="0" lon="0">
        <time>2021-02-28T09:20:39.432000+00:00</time>
      </trkpt>
      <trkpt lat="47.32827" lon="-1.4352">
        <ele>106</ele>
        <time>2021-02-28T09:20:40.397000+00:00</time>
      </trkpt>
      <trkpt lat="0" lon="0">
        <time>2021-02-28T09:20:40.403000+00:00</time>
      </trkpt>
      <trkpt lat="0" lon="0">
        <time>2021-02-28T09:20:40.407000+00:00</time>
      </trkpt>
      <trkpt lat="0" lon="0">
        <time>2021-02-28T09:20:40.410000+00:00</time>
      </trkpt>
      <trkpt lat="47.32825" lon="-1.4352">
        <ele>106</ele>
        <time>2021-02-28T09:20:41.427000+00:00</time>
      </trkpt>
      <trkpt lat="0" lon="0">
        <time>2021-02-28T09:20:41.436000+00:00</time>
      </trkpt>
      <trkpt lat="0" lon="0">
        <time>2021-02-28T09:20:41.440000+00:00</time>
      </trkpt>
      <trkpt lat="0" lon="0">
        <time>2021-02-28T09:20:41.442000+00:00</time>
      </trkpt>
      <trkpt lat="47.32823" lon="-1.4352">
        <ele>107</ele>
        <time>2021-02-28T09:20:42.425000+00:00</time>
      </trkpt>
      <trkpt lat="0" lon="0">
        <time>2021-02-28T09:20:42.433000+00:00</time>
      </trkpt>
      <trkpt lat="0" lon="0">
        <time>2021-02-28T09:20:42.440000+00:00</time>
      </trkpt>
      <trkpt lat="0" lon="0">
        <time>2021-02-28T09:20:42.442000+00:00</time>
      </trkpt>
      <trkpt lat="47.32821" lon="-1.43521">
        <ele>107</ele>
        <time>2021-02-28T09:20:43.432000+00:00</time>
      </trkpt>
      <trkpt lat="0" lon="0">
        <time>2021-02-28T09:20:43.438000+00:00</time>
      </trkpt>
      <trkpt lat="0" lon="0">
        <time>2021-02-28T09:20:43.445000+00:00</time>
      </trkpt>
      <trkpt lat="0" lon="0">
        <time>2021-02-28T09:20:43.448000+00:00</time>
      </trkpt>
      <trkpt lat="47.32819" lon="-1.43521">
        <ele>107</ele>
        <time>2021-02-28T09:20:44.431000+00:00</time>
      </trkpt>
      <trkpt lat="0" lon="0">
        <time>2021-02-28T09:20:44.440000+00:00</time>
      </trkpt>
      <trkpt lat="0" lon="0">
        <time>2021-02-28T09:20:44.445000+00:00</time>
      </trkpt>
      <trkpt lat="0" lon="0">
        <time>2021-02-28T09:20:44.447000+00:00</time>
      </trkpt>
      <trkpt lat="47.32817" lon="-1.43521">
        <ele>107</ele>
        <time>2021-02-28T09:20:45.433000+00:00</time>
      </trkpt>
      <trkpt lat="0" lon="0">
        <time>2021-02-28T09:20:45.437000+00:00</time>
      </trkpt>
      <trkpt lat="0" lon="0">
        <time>2021-02-28T09:20:45.441000+00:00</time>
      </trkpt>
      <trkpt lat="0" lon="0">
        <time>2021-02-28T09:20:45.444000+00:00</time>
      </trkpt>
      <trkpt lat="47.32815" lon="-1.43522">
        <ele>108</ele>
        <time>2021-02-28T09:20:46.413000+00:00</time>
      </trkpt>
      <trkpt lat="0" lon="0">
        <time>2021-02-28T09:20:46.424000+00:00</time>
      </trkpt>
      <trkpt lat="0" lon="0">
        <time>2021-02-28T09:20:46.429000+00:00</time>
      </trkpt>
      <trkpt lat="0" lon="0">
        <time>2021-02-28T09:20:46.431000+00:00</time>
      </trkpt>
      <trkpt lat="47.32813" lon="-1.43523">
        <ele>108</ele>
        <time>2021-02-28T09:20:47.408000+00:00</time>
      </trkpt>
      <trkpt lat="0" lon="0">
        <time>2021-02-28T09:20:47.414000+00:00</time>
      </trkpt>
      <trkpt lat="0" lon="0">
        <time>2021-02-28T09:20:47.420000+00:00</time>
      </trkpt>
      <trkpt lat="0" lon="0">
        <time>2021-02-28T09:20:47.422000+00:00</time>
      </trkpt>
      <trkpt lat="47.32811" lon="-1.43524">
        <ele>108</ele>
        <time>2021-02-28T09:20:48.420000+00:00</time>
      </trkpt>
      <trkpt lat="0" lon="0">
        <time>2021-02-28T09:20:48.428000+00:00</time>
      </trkpt>
      <trkpt lat="0" lon="0">
        <time>2021-02-28T09:20:48.433000+00:00</time>
      </trkpt>
      <trkpt lat="0" lon="0">
        <time>2021-02-28T09:20:48.436000+00:00</time>
      </trkpt>
      <trkpt lat="47.32809" lon="-1.43524">
        <ele>108</ele>
        <time>2021-02-28T09:20:49.405000+00:00</time>
      </trkpt>
      <trkpt lat="0" lon="0">
        <time>2021-02-28T09:20:49.414000+00:00</time>
      </trkpt>
      <trkpt lat="0" lon="0">
        <time>2021-02-28T09:20:49.419000+00:00</time>
      </trkpt>
      <trkpt lat="0" lon="0">
        <time>2021-02-28T09:20:49.422000+00:00</time>
      </trkpt>
      <trkpt lat="47.32807" lon="-1.43525">
        <ele>109</ele>
        <time>2021-02-28T09:20:50.427000+00:00</time>
      </trkpt>
      <trkpt lat="0" lon="0">
        <time>2021-02-28T09:20:50.439000+00:00</time>
      </trkpt>
      <trkpt lat="0" lon="0">
        <time>2021-02-28T09:20:50.445000+00:00</time>
      </trkpt>
      <trkpt lat="0" lon="0">
        <time>2021-02-28T09:20:50.448000+00:00</time>
      </trkpt>
      <trkpt lat="47.32805" lon="-1.43526">
        <ele>109</ele>
        <time>2021-02-28T09:20:51.421000+00:00</time>
      </trkpt>
      <trkpt lat="0" lon="0">
        <time>2021-02-28T09:20:51.427000+00:00</time>
      </trkpt>
      <trkpt lat="0" lon="0">
        <time>2021-02-28T09:20:51.433000+00:00</time>
      </trkpt>
      <trkpt lat="0" lon="0">
        <time>2021-02-28T09:20:51.436000+00:00</time>
      </trkpt>
      <trkpt lat="47.32803" lon="-1.43527">
        <ele>109</ele>
        <time>2021-02-28T09:20:52.413000+00:00</time>
      </trkpt>
      <trkpt lat="0" lon="0">
        <time>2021-02-28T09:20:52.418000+00:00</time>
      </trkpt>
      <trkpt lat="0" lon="0">
        <time>2021-02-28T09:20:52.424000+00:00</time>
      </trkpt>
      <trkpt lat="0" lon="0">
        <time>2021-02-28T09:20:52.427000+00:00</time>
      </trkpt>
      <trkpt lat="47.32802" lon="-1.43528">
        <ele>109</ele>
        <time>2021-02-28T09:20:53.410000+00:00</time>
      </trkpt>
      <trkpt lat="0" lon="0">
        <time>2021-02-28T09:20:53.412000+00:00</time>
      </trkpt>
      <trkpt lat="0" lon="0">
        <time>2021-02-28T09:20:53.417000+00:00</time>
      </trkpt>
      <trkpt lat="0" lon="0">
        <time>2021-02-28T09:20:53.418000+00:00</time>
      </trkpt>
      <trkpt lat="47.328" lon="-1.4353">
        <ele>109</ele>
        <time>2021-02-28T09:20:54.397000+00:00</time>
      </trkpt>
      <trkpt lat="0" lon="0">
        <time>2021-02-28T09:20:54.404000+00:00</time>
      </trkpt>
      <trkpt lat="0" lon="0">
        <time>2021-02-28T09:20:54.407000+00:00</time>
      </trkpt>
      <trkpt lat="0" lon="0">
        <time>2021-02-28T09:20:54.408000+00:00</time>
      </trkpt>
      <trkpt lat="47.32798" lon="-1.43531">
        <ele>109</ele>
        <time>2021-02-28T09:20:55.436000+00:00</time>
      </trkpt>
      <trkpt lat="0" lon="0">
        <time>2021-02-28T09:20:55.446000+00:00</time>
      </trkpt>
      <trkpt lat="0" lon="0">
        <time>2021-02-28T09:20:55.451000+00:00</time>
      </trkpt>
      <trkpt lat="0" lon="0">
        <time>2021-02-28T09:20:55.453000+00:00</time>
      </trkpt>
      <trkpt lat="47.32796" lon="-1.43533">
        <ele>109</ele>
        <time>2021-02-28T09:20:56.419000+00:00</time>
      </trkpt>
      <trkpt lat="0" lon="0">
        <time>2021-02-28T09:20:56.435000+00:00</time>
      </trkpt>
      <trkpt lat="0" lon="0">
        <time>2021-02-28T09:20:56.444000+00:00</time>
      </trkpt>
      <trkpt lat="0" lon="0">
        <time>2021-02-28T09:20:56.448000+00:00</time>
      </trkpt>
      <trkpt lat="47.32794" lon="-1.43535">
        <ele>109</ele>
        <time>2021-02-28T09:20:57.427000+00:00</time>
      </trkpt>
      <trkpt lat="0" lon="0">
        <time>2021-02-28T09:20:57.440000+00:00</time>
      </trkpt>
      <trkpt lat="0" lon="0">
        <time>2021-02-28T09:20:57.444000+00:00</time>
      </trkpt>
      <trkpt lat="0" lon="0">
        <time>2021-02-28T09:20:57.446000+00:00</time>
      </trkpt>
      <trkpt lat="47.32792" lon="-1.43537">
        <ele>110</ele>
        <time>2021-02-28T09:20:58.395000+00:00</time>
      </trkpt>
      <trkpt lat="0" lon="0">
        <time>2021-02-28T09:20:58.400000+00:00</time>
      </trkpt>
      <trkpt lat="0" lon="0">
        <time>2021-02-28T09:20:58.406000+00:00</time>
      </trkpt>
      <trkpt lat="0" lon="0">
        <time>2021-02-28T09:20:58.409000+00:00</time>
      </trkpt>
      <trkpt lat="47.3279" lon="-1.43539">
        <ele>111</ele>
        <time>2021-02-28T09:20:59.381000+00:00</time>
      </trkpt>
      <trkpt lat="0" lon="0">
        <time>2021-02-28T09:20:59.384000+00:00</time>
      </trkpt>
      <trkpt lat="0" lon="0">
        <time>2021-02-28T09:20:59.386000+00:00</time>
      </trkpt>
      <trkpt lat="0" lon="0">
        <time>2021-02-28T09:20:59.387000+00:00</time>
      </trkpt>
      <trkpt lat="47.32788" lon="-1.43541">
        <ele>111</ele>
        <time>2021-02-28T09:21:00.413000+00:00</time>
      </trkpt>
      <trkpt lat="0" lon="0">
        <time>2021-02-28T09:21:00.419000+00:00</time>
      </trkpt>
      <trkpt lat="0" lon="0">
        <time>2021-02-28T09:21:00.423000+00:00</time>
      </trkpt>
      <trkpt lat="0" lon="0">
        <time>2021-02-28T09:21:00.425000+00:00</time>
      </trkpt>
      <trkpt lat="47.32786" lon="-1.43542">
        <ele>111</ele>
        <time>2021-02-28T09:21:01.436000+00:00</time>
      </trkpt>
      <trkpt lat="0" lon="0">
        <time>2021-02-28T09:21:01.442000+00:00</time>
      </trkpt>
      <trkpt lat="0" lon="0">
        <time>2021-02-28T09:21:01.449000+00:00</time>
      </trkpt>
      <trkpt lat="0" lon="0">
        <time>2021-02-28T09:21:01.454000+00:00</time>
      </trkpt>
      <trkpt lat="47.32784" lon="-1.43544">
        <ele>111</ele>
        <time>2021-02-28T09:21:02.435000+00:00</time>
      </trkpt>
      <trkpt lat="0" lon="0">
        <time>2021-02-28T09:21:02.441000+00:00</time>
      </trkpt>
      <trkpt lat="0" lon="0">
        <time>2021-02-28T09:21:02.446000+00:00</time>
      </trkpt>
      <trkpt lat="0" lon="0">
        <time>2021-02-28T09:21:02.448000+00:00</time>
      </trkpt>
      <trkpt lat="47.32782" lon="-1.43546">
        <ele>112</ele>
        <time>2021-02-28T09:21:03.413000+00:00</time>
      </trkpt>
      <trkpt lat="0" lon="0">
        <time>2021-02-28T09:21:03.426000+00:00</time>
      </trkpt>
      <trkpt lat="0" lon="0">
        <time>2021-02-28T09:21:03.431000+00:00</time>
      </trkpt>
      <trkpt lat="0" lon="0">
        <time>2021-02-28T09:21:03.434000+00:00</time>
      </trkpt>
      <trkpt lat="47.3278" lon="-1.43549">
        <ele>112</ele>
        <time>2021-02-28T09:21:04.379000+00:00</time>
      </trkpt>
      <trkpt lat="0" lon="0">
        <time>2021-02-28T09:21:04.381000+00:00</time>
      </trkpt>
      <trkpt lat="0" lon="0">
        <time>2021-02-28T09:21:04.383000+00:00</time>
      </trkpt>
      <trkpt lat="0" lon="0">
        <time>2021-02-28T09:21:04.384000+00:00</time>
      </trkpt>
      <trkpt lat="47.32778" lon="-1.43551">
        <ele>112</ele>
        <time>2021-02-28T09:21:05.427000+00:00</time>
      </trkpt>
      <trkpt lat="0" lon="0">
        <time>2021-02-28T09:21:05.435000+00:00</time>
      </trkpt>
      <trkpt lat="0" lon="0">
        <time>2021-02-28T09:21:05.439000+00:00</time>
      </trkpt>
      <trkpt lat="0" lon="0">
        <time>2021-02-28T09:21:05.444000+00:00</time>
      </trkpt>
      <trkpt lat="47.32776" lon="-1.43553">
        <ele>112</ele>
        <time>2021-02-28T09:21:06.431000+00:00</time>
      </trkpt>
      <trkpt lat="0" lon="0">
        <time>2021-02-28T09:21:06.436000+00:00</time>
      </trkpt>
      <trkpt lat="0" lon="0">
        <time>2021-02-28T09:21:06.442000+00:00</time>
      </trkpt>
      <trkpt lat="0" lon="0">
        <time>2021-02-28T09:21:06.445000+00:00</time>
      </trkpt>
      <trkpt lat="47.32774" lon="-1.43555">
        <ele>113</ele>
        <time>2021-02-28T09:21:07.442000+00:00</time>
      </trkpt>
      <trkpt lat="0" lon="0">
        <time>2021-02-28T09:21:07.450000+00:00</time>
      </trkpt>
      <trkpt lat="0" lon="0">
        <time>2021-02-28T09:21:07.456000+00:00</time>
      </trkpt>
      <trkpt lat="0" lon="0">
        <time>2021-02-28T09:21:07.459000+00:00</time>
      </trkpt>
      <trkpt lat="47.32772" lon="-1.43558">
        <ele>114</ele>
        <time>2021-02-28T09:21:08.449000+00:00</time>
      </trkpt>
      <trkpt lat="0" lon="0">
        <time>2021-02-28T09:21:08.455000+00:00</time>
      </trkpt>
      <trkpt lat="0" lon="0">
        <time>2021-02-28T09:21:08.459000+00:00</time>
      </trkpt>
      <trkpt lat="0" lon="0">
        <time>2021-02-28T09:21:08.462000+00:00</time>
      </trkpt>
      <trkpt lat="47.3277" lon="-1.4356">
        <ele>115</ele>
        <time>2021-02-28T09:21:09.429000+00:00</time>
      </trkpt>
      <trkpt lat="0" lon="0">
        <time>2021-02-28T09:21:09.437000+00:00</time>
      </trkpt>
      <trkpt lat="0" lon="0">
        <time>2021-02-28T09:21:09.441000+00:00</time>
      </trkpt>
      <trkpt lat="0" lon="0">
        <time>2021-02-28T09:21:09.444000+00:00</time>
      </trkpt>
      <trkpt lat="47.32768" lon="-1.43563">
        <ele>115</ele>
        <time>2021-02-28T09:21:10.433000+00:00</time>
      </trkpt>
      <trkpt lat="0" lon="0">
        <time>2021-02-28T09:21:10.442000+00:00</time>
      </trkpt>
      <trkpt lat="0" lon="0">
        <time>2021-02-28T09:21:10.448000+00:00</time>
      </trkpt>
      <trkpt lat="0" lon="0">
        <time>2021-02-28T09:21:10.451000+00:00</time>
      </trkpt>
      <trkpt lat="47.32766" lon="-1.43565">
        <ele>115</ele>
        <time>2021-02-28T09:21:11.428000+00:00</time>
      </trkpt>
      <trkpt lat="0" lon="0">
        <time>2021-02-28T09:21:11.438000+00:00</time>
      </trkpt>
      <trkpt lat="0" lon="0">
        <time>2021-02-28T09:21:11.442000+00:00</time>
      </trkpt>
      <trkpt lat="0" lon="0">
        <time>2021-02-28T09:21:11.445000+00:00</time>
      </trkpt>
      <trkpt lat="47.32764" lon="-1.43568">
        <ele>115</ele>
        <time>2021-02-28T09:21:12.435000+00:00</time>
      </trkpt>
      <trkpt lat="0" lon="0">
        <time>2021-02-28T09:21:12.440000+00:00</time>
      </trkpt>
      <trkpt lat="0" lon="0">
        <time>2021-02-28T09:21:12.445000+00:00</time>
      </trkpt>
      <trkpt lat="0" lon="0">
        <time>2021-02-28T09:21:12.448000+00:00</time>
      </trkpt>
      <trkpt lat="47.32762" lon="-1.4357">
        <ele>115</ele>
        <time>2021-02-28T09:21:13.445000+00:00</time>
      </trkpt>
      <trkpt lat="0" lon="0">
        <time>2021-02-28T09:21:13.456000+00:00</time>
      </trkpt>
      <trkpt lat="0" lon="0">
        <time>2021-02-28T09:21:13.461000+00:00</time>
      </trkpt>
      <trkpt lat="0" lon="0">
        <time>2021-02-28T09:21:13.463000+00:00</time>
      </trkpt>
      <trkpt lat="47.32759" lon="-1.43572">
        <ele>116</ele>
        <time>2021-02-28T09:21:14.413000+00:00</time>
      </trkpt>
      <trkpt lat="0" lon="0">
        <time>2021-02-28T09:21:14.421000+00:00</time>
      </trkpt>
      <trkpt lat="0" lon="0">
        <time>2021-02-28T09:21:14.425000+00:00</time>
      </trkpt>
      <trkpt lat="0" lon="0">
        <time>2021-02-28T09:21:14.428000+00:00</time>
      </trkpt>
      <trkpt lat="47.32757" lon="-1.43574">
        <ele>117</ele>
        <time>2021-02-28T09:21:15.412000+00:00</time>
      </trkpt>
      <trkpt lat="0" lon="0">
        <time>2021-02-28T09:21:15.424000+00:00</time>
      </trkpt>
      <trkpt lat="0" lon="0">
        <time>2021-02-28T09:21:15.428000+00:00</time>
      </trkpt>
      <trkpt lat="0" lon="0">
        <time>2021-02-28T09:21:15.430000+00:00</time>
      </trkpt>
      <trkpt lat="47.32755" lon="-1.43576">
        <ele>118</ele>
        <time>2021-02-28T09:21:16.414000+00:00</time>
      </trkpt>
      <trkpt lat="0" lon="0">
        <time>2021-02-28T09:21:16.423000+00:00</time>
      </trkpt>
      <trkpt lat="0" lon="0">
        <time>2021-02-28T09:21:16.429000+00:00</time>
      </trkpt>
      <trkpt lat="0" lon="0">
        <time>2021-02-28T09:21:16.431000+00:00</time>
      </trkpt>
      <trkpt lat="47.32753" lon="-1.43579">
        <ele>118</ele>
        <time>2021-02-28T09:21:17.406000+00:00</time>
      </trkpt>
      <trkpt lat="0" lon="0">
        <time>2021-02-28T09:21:17.415000+00:00</time>
      </trkpt>
      <trkpt lat="0" lon="0">
        <time>2021-02-28T09:21:17.419000+00:00</time>
      </trkpt>
      <trkpt lat="0" lon="0">
        <time>2021-02-28T09:21:17.423000+00:00</time>
      </trkpt>
      <trkpt lat="47.32751" lon="-1.43581">
        <ele>118</ele>
        <time>2021-02-28T09:21:18.427000+00:00</time>
      </trkpt>
      <trkpt lat="0" lon="0">
        <time>2021-02-28T09:21:18.434000+00:00</time>
      </trkpt>
      <trkpt lat="0" lon="0">
        <time>2021-02-28T09:21:18.441000+00:00</time>
      </trkpt>
      <trkpt lat="0" lon="0">
        <time>2021-02-28T09:21:18.443000+00:00</time>
      </trkpt>
      <trkpt lat="47.3275" lon="-1.43583">
        <ele>118</ele>
        <time>2021-02-28T09:21:19.425000+00:00</time>
      </trkpt>
      <trkpt lat="0" lon="0">
        <time>2021-02-28T09:21:19.432000+00:00</time>
      </trkpt>
      <trkpt lat="0" lon="0">
        <time>2021-02-28T09:21:19.436000+00:00</time>
      </trkpt>
      <trkpt lat="0" lon="0">
        <time>2021-02-28T09:21:19.438000+00:00</time>
      </trkpt>
      <trkpt lat="47.32748" lon="-1.43585">
        <ele>118</ele>
        <time>2021-02-28T09:21:20.428000+00:00</time>
      </trkpt>
      <trkpt lat="0" lon="0">
        <time>2021-02-28T09:21:20.434000+00:00</time>
      </trkpt>
      <trkpt lat="0" lon="0">
        <time>2021-02-28T09:21:20.439000+00:00</time>
      </trkpt>
      <trkpt lat="0" lon="0">
        <time>2021-02-28T09:21:20.441000+00:00</time>
      </trkpt>
      <trkpt lat="47.32747" lon="-1.43586">
        <ele>119</ele>
        <time>2021-02-28T09:21:21.424000+00:00</time>
      </trkpt>
      <trkpt lat="0" lon="0">
        <time>2021-02-28T09:21:21.430000+00:00</time>
      </trkpt>
      <trkpt lat="0" lon="0">
        <time>2021-02-28T09:21:21.435000+00:00</time>
      </trkpt>
      <trkpt lat="0" lon="0">
        <time>2021-02-28T09:21:21.438000+00:00</time>
      </trkpt>
      <trkpt lat="47.32745" lon="-1.43588">
        <ele>119</ele>
        <time>2021-02-28T09:21:22.406000+00:00</time>
      </trkpt>
      <trkpt lat="0" lon="0">
        <time>2021-02-28T09:21:22.416000+00:00</time>
      </trkpt>
      <trkpt lat="0" lon="0">
        <time>2021-02-28T09:21:22.422000+00:00</time>
      </trkpt>
      <trkpt lat="0" lon="0">
        <time>2021-02-28T09:21:22.425000+00:00</time>
      </trkpt>
      <trkpt lat="47.32744" lon="-1.4359">
        <ele>119</ele>
        <time>2021-02-28T09:21:23.423000+00:00</time>
      </trkpt>
      <trkpt lat="0" lon="0">
        <time>2021-02-28T09:21:23.434000+00:00</time>
      </trkpt>
      <trkpt lat="0" lon="0">
        <time>2021-02-28T09:21:23.439000+00:00</time>
      </trkpt>
      <trkpt lat="0" lon="0">
        <time>2021-02-28T09:21:23.441000+00:00</time>
      </trkpt>
      <trkpt lat="47.32742" lon="-1.43592">
        <ele>119</ele>
        <time>2021-02-28T09:21:24.396000+00:00</time>
      </trkpt>
      <trkpt lat="0" lon="0">
        <time>2021-02-28T09:21:24.414000+00:00</time>
      </trkpt>
      <trkpt lat="0" lon="0">
        <time>2021-02-28T09:21:24.420000+00:00</time>
      </trkpt>
      <trkpt lat="0" lon="0">
        <time>2021-02-28T09:21:24.427000+00:00</time>
      </trkpt>
      <trkpt lat="47.32741" lon="-1.43594">
        <ele>120</ele>
        <time>2021-02-28T09:21:25.419000+00:00</time>
      </trkpt>
      <trkpt lat="0" lon="0">
        <time>2021-02-28T09:21:25.429000+00:00</time>
      </trkpt>
      <trkpt lat="0" lon="0">
        <time>2021-02-28T09:21:25.435000+00:00</time>
      </trkpt>
      <trkpt lat="0" lon="0">
        <time>2021-02-28T09:21:25.438000+00:00</time>
      </trkpt>
      <trkpt lat="47.3274" lon="-1.43595">
        <ele>120</ele>
        <time>2021-02-28T09:21:26.408000+00:00</time>
      </trkpt>
      <trkpt lat="0" lon="0">
        <time>2021-02-28T09:21:26.416000+00:00</time>
      </trkpt>
      <trkpt lat="0" lon="0">
        <time>2021-02-28T09:21:26.421000+00:00</time>
      </trkpt>
      <trkpt lat="0" lon="0">
        <time>2021-02-28T09:21:26.424000+00:00</time>
      </trkpt>
      <trkpt lat="47.32739" lon="-1.43597">
        <ele>120</ele>
        <time>2021-02-28T09:21:27.388000+00:00</time>
      </trkpt>
      <trkpt lat="0" lon="0">
        <time>2021-02-28T09:21:27.390000+00:00</time>
      </trkpt>
      <trkpt lat="0" lon="0">
        <time>2021-02-28T09:21:27.392000+00:00</time>
      </trkpt>
      <trkpt lat="0" lon="0">
        <time>2021-02-28T09:21:27.393000+00:00</time>
      </trkpt>
      <trkpt lat="47.32738" lon="-1.43599">
        <ele>120</ele>
        <time>2021-02-28T09:21:28.405000+00:00</time>
      </trkpt>
      <trkpt lat="0" lon="0">
        <time>2021-02-28T09:21:28.409000+00:00</time>
      </trkpt>
      <trkpt lat="0" lon="0">
        <time>2021-02-28T09:21:28.414000+00:00</time>
      </trkpt>
      <trkpt lat="0" lon="0">
        <time>2021-02-28T09:21:28.417000+00:00</time>
      </trkpt>
      <trkpt lat="47.32737" lon="-1.43601">
        <ele>120</ele>
        <time>2021-02-28T09:21:29.451000+00:00</time>
      </trkpt>
      <trkpt lat="0" lon="0">
        <time>2021-02-28T09:21:29.459000+00:00</time>
      </trkpt>
      <trkpt lat="0" lon="0">
        <time>2021-02-28T09:21:29.463000+00:00</time>
      </trkpt>
      <trkpt lat="0" lon="0">
        <time>2021-02-28T09:21:29.465000+00:00</time>
      </trkpt>
      <trkpt lat="47.32736" lon="-1.43603">
        <ele>121</ele>
        <time>2021-02-28T09:21:30.413000+00:00</time>
      </trkpt>
      <trkpt lat="0" lon="0">
        <time>2021-02-28T09:21:30.425000+00:00</time>
      </trkpt>
      <trkpt lat="0" lon="0">
        <time>2021-02-28T09:21:30.432000+00:00</time>
      </trkpt>
      <trkpt lat="0" lon="0">
        <time>2021-02-28T09:21:30.434000+00:00</time>
      </trkpt>
      <trkpt lat="47.32735" lon="-1.43605">
        <ele>121</ele>
        <time>2021-02-28T09:21:31.443000+00:00</time>
      </trkpt>
      <trkpt lat="0" lon="0">
        <time>2021-02-28T09:21:31.448000+00:00</time>
      </trkpt>
      <trkpt lat="0" lon="0">
        <time>2021-02-28T09:21:31.454000+00:00</time>
      </trkpt>
      <trkpt lat="0" lon="0">
        <time>2021-02-28T09:21:31.457000+00:00</time>
      </trkpt>
      <trkpt lat="47.32734" lon="-1.43607">
        <ele>120</ele>
        <time>2021-02-28T09:21:32.405000+00:00</time>
      </trkpt>
      <trkpt lat="0" lon="0">
        <time>2021-02-28T09:21:32.412000+00:00</time>
      </trkpt>
      <trkpt lat="0" lon="0">
        <time>2021-02-28T09:21:32.417000+00:00</time>
      </trkpt>
      <trkpt lat="0" lon="0">
        <time>2021-02-28T09:21:32.419000+00:00</time>
      </trkpt>
      <trkpt lat="47.32733" lon="-1.43609">
        <ele>121</ele>
        <time>2021-02-28T09:21:33.441000+00:00</time>
      </trkpt>
      <trkpt lat="0" lon="0">
        <time>2021-02-28T09:21:33.447000+00:00</time>
      </trkpt>
      <trkpt lat="0" lon="0">
        <time>2021-02-28T09:21:33.452000+00:00</time>
      </trkpt>
      <trkpt lat="0" lon="0">
        <time>2021-02-28T09:21:33.454000+00:00</time>
      </trkpt>
      <trkpt lat="47.32732" lon="-1.43611">
        <ele>120</ele>
        <time>2021-02-28T09:21:34.371000+00:00</time>
      </trkpt>
      <trkpt lat="0" lon="0">
        <time>2021-02-28T09:21:34.375000+00:00</time>
      </trkpt>
      <trkpt lat="0" lon="0">
        <time>2021-02-28T09:21:34.381000+00:00</time>
      </trkpt>
      <trkpt lat="0" lon="0">
        <time>2021-02-28T09:21:34.384000+00:00</time>
      </trkpt>
      <trkpt lat="47.32731" lon="-1.43614">
        <ele>120</ele>
        <time>2021-02-28T09:21:35.409000+00:00</time>
      </trkpt>
      <trkpt lat="0" lon="0">
        <time>2021-02-28T09:21:35.416000+00:00</time>
      </trkpt>
      <trkpt lat="0" lon="0">
        <time>2021-02-28T09:21:35.420000+00:00</time>
      </trkpt>
      <trkpt lat="0" lon="0">
        <time>2021-02-28T09:21:35.422000+00:00</time>
      </trkpt>
      <trkpt lat="47.3273" lon="-1.43616">
        <ele>120</ele>
        <time>2021-02-28T09:21:36.411000+00:00</time>
      </trkpt>
      <trkpt lat="0" lon="0">
        <time>2021-02-28T09:21:36.419000+00:00</time>
      </trkpt>
      <trkpt lat="0" lon="0">
        <time>2021-02-28T09:21:36.425000+00:00</time>
      </trkpt>
      <trkpt lat="0" lon="0">
        <time>2021-02-28T09:21:36.428000+00:00</time>
      </trkpt>
      <trkpt lat="47.32728" lon="-1.43619">
        <ele>120</ele>
        <time>2021-02-28T09:21:37.425000+00:00</time>
      </trkpt>
      <trkpt lat="0" lon="0">
        <time>2021-02-28T09:21:37.437000+00:00</time>
      </trkpt>
      <trkpt lat="0" lon="0">
        <time>2021-02-28T09:21:37.441000+00:00</time>
      </trkpt>
      <trkpt lat="0" lon="0">
        <time>2021-02-28T09:21:37.444000+00:00</time>
      </trkpt>
      <trkpt lat="47.32727" lon="-1.43621">
        <ele>120</ele>
        <time>2021-02-28T09:21:38.457000+00:00</time>
      </trkpt>
      <trkpt lat="0" lon="0">
        <time>2021-02-28T09:21:38.467000+00:00</time>
      </trkpt>
      <trkpt lat="0" lon="0">
        <time>2021-02-28T09:21:38.473000+00:00</time>
      </trkpt>
      <trkpt lat="0" lon="0">
        <time>2021-02-28T09:21:38.477000+00:00</time>
      </trkpt>
      <trkpt lat="47.32725" lon="-1.43624">
        <ele>120</ele>
        <time>2021-02-28T09:21:39.375000+00:00</time>
      </trkpt>
      <trkpt lat="0" lon="0">
        <time>2021-02-28T09:21:39.382000+00:00</time>
      </trkpt>
      <trkpt lat="0" lon="0">
        <time>2021-02-28T09:21:39.386000+00:00</time>
      </trkpt>
      <trkpt lat="0" lon="0">
        <time>2021-02-28T09:21:39.388000+00:00</time>
      </trkpt>
      <trkpt lat="47.32724" lon="-1.43626">
        <ele>120</ele>
        <time>2021-02-28T09:21:40.416000+00:00</time>
      </trkpt>
      <trkpt lat="0" lon="0">
        <time>2021-02-28T09:21:40.422000+00:00</time>
      </trkpt>
      <trkpt lat="0" lon="0">
        <time>2021-02-28T09:21:40.426000+00:00</time>
      </trkpt>
      <trkpt lat="0" lon="0">
        <time>2021-02-28T09:21:40.429000+00:00</time>
      </trkpt>
      <trkpt lat="47.32722" lon="-1.43629">
        <ele>119</ele>
        <time>2021-02-28T09:21:41.429000+00:00</time>
      </trkpt>
      <trkpt lat="0" lon="0">
        <time>2021-02-28T09:21:41.439000+00:00</time>
      </trkpt>
      <trkpt lat="0" lon="0">
        <time>2021-02-28T09:21:41.448000+00:00</time>
      </trkpt>
      <trkpt lat="0" lon="0">
        <time>2021-02-28T09:21:41.451000+00:00</time>
      </trkpt>
      <trkpt lat="47.32721" lon="-1.43631">
        <ele>119</ele>
        <time>2021-02-28T09:21:42.423000+00:00</time>
      </trkpt>
      <trkpt lat="0" lon="0">
        <time>2021-02-28T09:21:42.431000+00:00</time>
      </trkpt>
      <trkpt lat="0" lon="0">
        <time>2021-02-28T09:21:42.436000+00:00</time>
      </trkpt>
      <trkpt lat="0" lon="0">
        <time>2021-02-28T09:21:42.439000+00:00</time>
      </trkpt>
      <trkpt lat="47.32719" lon="-1.43634">
        <ele>117</ele>
        <time>2021-02-28T09:21:43.410000+00:00</time>
      </trkpt>
      <trkpt lat="0" lon="0">
        <time>2021-02-28T09:21:43.417000+00:00</time>
      </trkpt>
      <trkpt lat="0" lon="0">
        <time>2021-02-28T09:21:43.422000+00:00</time>
      </trkpt>
      <trkpt lat="0" lon="0">
        <time>2021-02-28T09:21:43.425000+00:00</time>
      </trkpt>
      <trkpt lat="47.32717" lon="-1.43637">
        <ele>117</ele>
        <time>2021-02-28T09:21:44.417000+00:00</time>
      </trkpt>
      <trkpt lat="0" lon="0">
        <time>2021-02-28T09:21:44.428000+00:00</time>
      </trkpt>
      <trkpt lat="0" lon="0">
        <time>2021-02-28T09:21:44.432000+00:00</time>
      </trkpt>
      <trkpt lat="0" lon="0">
        <time>2021-02-28T09:21:44.435000+00:00</time>
      </trkpt>
      <trkpt lat="47.32716" lon="-1.4364">
        <ele>116</ele>
        <time>2021-02-28T09:21:45.400000+00:00</time>
      </trkpt>
      <trkpt lat="0" lon="0">
        <time>2021-02-28T09:21:45.410000+00:00</time>
      </trkpt>
      <trkpt lat="0" lon="0">
        <time>2021-02-28T09:21:45.415000+00:00</time>
      </trkpt>
      <trkpt lat="0" lon="0">
        <time>2021-02-28T09:21:45.418000+00:00</time>
      </trkpt>
      <trkpt lat="47.32714" lon="-1.43642">
        <ele>115</ele>
        <time>2021-02-28T09:21:46.440000+00:00</time>
      </trkpt>
      <trkpt lat="0" lon="0">
        <time>2021-02-28T09:21:46.450000+00:00</time>
      </trkpt>
      <trkpt lat="0" lon="0">
        <time>2021-02-28T09:21:46.455000+00:00</time>
      </trkpt>
      <trkpt lat="0" lon="0">
        <time>2021-02-28T09:21:46.457000+00:00</time>
      </trkpt>
      <trkpt lat="47.32712" lon="-1.43645">
        <ele>115</ele>
        <time>2021-02-28T09:21:47.395000+00:00</time>
      </trkpt>
      <trkpt lat="0" lon="0">
        <time>2021-02-28T09:21:47.408000+00:00</time>
      </trkpt>
      <trkpt lat="0" lon="0">
        <time>2021-02-28T09:21:47.412000+00:00</time>
      </trkpt>
      <trkpt lat="0" lon="0">
        <time>2021-02-28T09:21:47.415000+00:00</time>
      </trkpt>
      <trkpt lat="47.32711" lon="-1.43648">
        <ele>114</ele>
        <time>2021-02-28T09:21:48.416000+00:00</time>
      </trkpt>
      <trkpt lat="0" lon="0">
        <time>2021-02-28T09:21:48.427000+00:00</time>
      </trkpt>
      <trkpt lat="0" lon="0">
        <time>2021-02-28T09:21:48.431000+00:00</time>
      </trkpt>
      <trkpt lat="0" lon="0">
        <time>2021-02-28T09:21:48.433000+00:00</time>
      </trkpt>
      <trkpt lat="47.32709" lon="-1.43651">
        <ele>113</ele>
        <time>2021-02-28T09:21:49.416000+00:00</time>
      </trkpt>
      <trkpt lat="0" lon="0">
        <time>2021-02-28T09:21:49.422000+00:00</time>
      </trkpt>
      <trkpt lat="0" lon="0">
        <time>2021-02-28T09:21:49.429000+00:00</time>
      </trkpt>
      <trkpt lat="0" lon="0">
        <time>2021-02-28T09:21:49.431000+00:00</time>
      </trkpt>
      <trkpt lat="47.32708" lon="-1.43653">
        <ele>113</ele>
        <time>2021-02-28T09:21:50.416000+00:00</time>
      </trkpt>
      <trkpt lat="0" lon="0">
        <time>2021-02-28T09:21:50.420000+00:00</time>
      </trkpt>
      <trkpt lat="0" lon="0">
        <time>2021-02-28T09:21:50.424000+00:00</time>
      </trkpt>
      <trkpt lat="0" lon="0">
        <time>2021-02-28T09:21:50.426000+00:00</time>
      </trkpt>
      <trkpt lat="47.32706" lon="-1.43656">
        <ele>113</ele>
        <time>2021-02-28T09:21:51.436000+00:00</time>
      </trkpt>
      <trkpt lat="0" lon="0">
        <time>2021-02-28T09:21:51.445000+00:00</time>
      </trkpt>
      <trkpt lat="0" lon="0">
        <time>2021-02-28T09:21:51.450000+00:00</time>
      </trkpt>
      <trkpt lat="0" lon="0">
        <time>2021-02-28T09:21:51.452000+00:00</time>
      </trkpt>
      <trkpt lat="47.32704" lon="-1.43658">
        <ele>113</ele>
        <time>2021-02-28T09:21:52.420000+00:00</time>
      </trkpt>
      <trkpt lat="0" lon="0">
        <time>2021-02-28T09:21:52.429000+00:00</time>
      </trkpt>
      <trkpt lat="0" lon="0">
        <time>2021-02-28T09:21:52.434000+00:00</time>
      </trkpt>
      <trkpt lat="0" lon="0">
        <time>2021-02-28T09:21:52.437000+00:00</time>
      </trkpt>
      <trkpt lat="47.32703" lon="-1.43661">
        <ele>113</ele>
        <time>2021-02-28T09:21:53.414000+00:00</time>
      </trkpt>
      <trkpt lat="0" lon="0">
        <time>2021-02-28T09:21:53.424000+00:00</time>
      </trkpt>
      <trkpt lat="0" lon="0">
        <time>2021-02-28T09:21:53.428000+00:00</time>
      </trkpt>
      <trkpt lat="0" lon="0">
        <time>2021-02-28T09:21:53.430000+00:00</time>
      </trkpt>
      <trkpt lat="47.32701" lon="-1.43663">
        <ele>112</ele>
        <time>2021-02-28T09:21:54.427000+00:00</time>
      </trkpt>
      <trkpt lat="0" lon="0">
        <time>2021-02-28T09:21:54.433000+00:00</time>
      </trkpt>
      <trkpt lat="0" lon="0">
        <time>2021-02-28T09:21:54.437000+00:00</time>
      </trkpt>
      <trkpt lat="0" lon="0">
        <time>2021-02-28T09:21:54.440000+00:00</time>
      </trkpt>
      <trkpt lat="47.327" lon="-1.43666">
        <ele>113</ele>
        <time>2021-02-28T09:21:55.421000+00:00</time>
      </trkpt>
      <trkpt lat="0" lon="0">
        <time>2021-02-28T09:21:55.425000+00:00</time>
      </trkpt>
      <trkpt lat="0" lon="0">
        <time>2021-02-28T09:21:55.429000+00:00</time>
      </trkpt>
      <trkpt lat="0" lon="0">
        <time>2021-02-28T09:21:55.430000+00:00</time>
      </trkpt>
      <trkpt lat="47.32698" lon="-1.43668">
        <ele>112</ele>
        <time>2021-02-28T09:21:56.488000+00:00</time>
      </trkpt>
      <trkpt lat="0" lon="0">
        <time>2021-02-28T09:21:56.496000+00:00</time>
      </trkpt>
      <trkpt lat="0" lon="0">
        <time>2021-02-28T09:21:56.500000+00:00</time>
      </trkpt>
      <trkpt lat="0" lon="0">
        <time>2021-02-28T09:21:56.502000+00:00</time>
      </trkpt>
      <trkpt lat="47.32696" lon="-1.4367">
        <ele>113</ele>
        <time>2021-02-28T09:21:57.497000+00:00</time>
      </trkpt>
      <trkpt lat="0" lon="0">
        <time>2021-02-28T09:21:57.511000+00:00</time>
      </trkpt>
      <trkpt lat="0" lon="0">
        <time>2021-02-28T09:21:57.518000+00:00</time>
      </trkpt>
      <trkpt lat="0" lon="0">
        <time>2021-02-28T09:21:57.522000+00:00</time>
      </trkpt>
      <trkpt lat="47.32695" lon="-1.43671">
        <ele>113</ele>
        <time>2021-02-28T09:21:58.453000+00:00</time>
      </trkpt>
      <trkpt lat="0" lon="0">
        <time>2021-02-28T09:21:58.462000+00:00</time>
      </trkpt>
      <trkpt lat="0" lon="0">
        <time>2021-02-28T09:21:58.466000+00:00</time>
      </trkpt>
      <trkpt lat="0" lon="0">
        <time>2021-02-28T09:21:58.469000+00:00</time>
      </trkpt>
      <trkpt lat="47.32693" lon="-1.43673">
        <ele>113</ele>
        <time>2021-02-28T09:21:59.406000+00:00</time>
      </trkpt>
      <trkpt lat="0" lon="0">
        <time>2021-02-28T09:21:59.409000+00:00</time>
      </trkpt>
      <trkpt lat="0" lon="0">
        <time>2021-02-28T09:21:59.410000+00:00</time>
      </trkpt>
      <trkpt lat="0" lon="0">
        <time>2021-02-28T09:21:59.411000+00:00</time>
      </trkpt>
      <trkpt lat="47.32692" lon="-1.43674">
        <ele>113</ele>
        <time>2021-02-28T09:22:00.463000+00:00</time>
      </trkpt>
      <trkpt lat="0" lon="0">
        <time>2021-02-28T09:22:00.471000+00:00</time>
      </trkpt>
      <trkpt lat="0" lon="0">
        <time>2021-02-28T09:22:00.475000+00:00</time>
      </trkpt>
      <trkpt lat="0" lon="0">
        <time>2021-02-28T09:22:00.478000+00:00</time>
      </trkpt>
      <trkpt lat="47.3269" lon="-1.43674">
        <ele>113</ele>
        <time>2021-02-28T09:22:01.445000+00:00</time>
      </trkpt>
      <trkpt lat="0" lon="0">
        <time>2021-02-28T09:22:01.453000+00:00</time>
      </trkpt>
      <trkpt lat="0" lon="0">
        <time>2021-02-28T09:22:01.457000+00:00</time>
      </trkpt>
      <trkpt lat="0" lon="0">
        <time>2021-02-28T09:22:01.459000+00:00</time>
      </trkpt>
      <trkpt lat="47.32689" lon="-1.43674">
        <ele>113</ele>
        <time>2021-02-28T09:22:02.478000+00:00</time>
      </trkpt>
      <trkpt lat="0" lon="0">
        <time>2021-02-28T09:22:02.484000+00:00</time>
      </trkpt>
      <trkpt lat="0" lon="0">
        <time>2021-02-28T09:22:02.488000+00:00</time>
      </trkpt>
      <trkpt lat="0" lon="0">
        <time>2021-02-28T09:22:02.491000+00:00</time>
      </trkpt>
      <trkpt lat="47.32687" lon="-1.43674">
        <ele>113</ele>
        <time>2021-02-28T09:22:03.443000+00:00</time>
      </trkpt>
      <trkpt lat="0" lon="0">
        <time>2021-02-28T09:22:03.450000+00:00</time>
      </trkpt>
      <trkpt lat="0" lon="0">
        <time>2021-02-28T09:22:03.454000+00:00</time>
      </trkpt>
      <trkpt lat="0" lon="0">
        <time>2021-02-28T09:22:03.459000+00:00</time>
      </trkpt>
      <trkpt lat="47.32685" lon="-1.43674">
        <ele>113</ele>
        <time>2021-02-28T09:22:04.401000+00:00</time>
      </trkpt>
      <trkpt lat="0" lon="0">
        <time>2021-02-28T09:22:04.414000+00:00</time>
      </trkpt>
      <trkpt lat="0" lon="0">
        <time>2021-02-28T09:22:04.417000+00:00</time>
      </trkpt>
      <trkpt lat="0" lon="0">
        <time>2021-02-28T09:22:04.419000+00:00</time>
      </trkpt>
      <trkpt lat="47.32684" lon="-1.43674">
        <ele>114</ele>
        <time>2021-02-28T09:22:05.403000+00:00</time>
      </trkpt>
      <trkpt lat="0" lon="0">
        <time>2021-02-28T09:22:05.408000+00:00</time>
      </trkpt>
      <trkpt lat="0" lon="0">
        <time>2021-02-28T09:22:05.414000+00:00</time>
      </trkpt>
      <trkpt lat="0" lon="0">
        <time>2021-02-28T09:22:05.417000+00:00</time>
      </trkpt>
      <trkpt lat="47.32682" lon="-1.43673">
        <ele>113</ele>
        <time>2021-02-28T09:22:06.410000+00:00</time>
      </trkpt>
      <trkpt lat="0" lon="0">
        <time>2021-02-28T09:22:06.422000+00:00</time>
      </trkpt>
      <trkpt lat="0" lon="0">
        <time>2021-02-28T09:22:06.428000+00:00</time>
      </trkpt>
      <trkpt lat="0" lon="0">
        <time>2021-02-28T09:22:06.431000+00:00</time>
      </trkpt>
      <trkpt lat="47.3268" lon="-1.43673">
        <ele>113</ele>
        <time>2021-02-28T09:22:07.460000+00:00</time>
      </trkpt>
      <trkpt lat="0" lon="0">
        <time>2021-02-28T09:22:07.468000+00:00</time>
      </trkpt>
      <trkpt lat="0" lon="0">
        <time>2021-02-28T09:22:07.474000+00:00</time>
      </trkpt>
      <trkpt lat="0" lon="0">
        <time>2021-02-28T09:22:07.477000+00:00</time>
      </trkpt>
      <trkpt lat="47.32677" lon="-1.43672">
        <ele>114</ele>
        <time>2021-02-28T09:22:08.475000+00:00</time>
      </trkpt>
      <trkpt lat="0" lon="0">
        <time>2021-02-28T09:22:08.487000+00:00</time>
      </trkpt>
      <trkpt lat="0" lon="0">
        <time>2021-02-28T09:22:08.491000+00:00</time>
      </trkpt>
      <trkpt lat="0" lon="0">
        <time>2021-02-28T09:22:08.494000+00:00</time>
      </trkpt>
      <trkpt lat="47.32675" lon="-1.43672">
        <ele>114</ele>
        <time>2021-02-28T09:22:09.470000+00:00</time>
      </trkpt>
      <trkpt lat="0" lon="0">
        <time>2021-02-28T09:22:09.480000+00:00</time>
      </trkpt>
      <trkpt lat="0" lon="0">
        <time>2021-02-28T09:22:09.489000+00:00</time>
      </trkpt>
      <trkpt lat="0" lon="0">
        <time>2021-02-28T09:22:09.492000+00:00</time>
      </trkpt>
      <trkpt lat="47.32673" lon="-1.43672">
        <ele>114</ele>
        <time>2021-02-28T09:22:10.454000+00:00</time>
      </trkpt>
      <trkpt lat="0" lon="0">
        <time>2021-02-28T09:22:10.465000+00:00</time>
      </trkpt>
      <trkpt lat="0" lon="0">
        <time>2021-02-28T09:22:10.472000+00:00</time>
      </trkpt>
      <trkpt lat="0" lon="0">
        <time>2021-02-28T09:22:10.475000+00:00</time>
      </trkpt>
      <trkpt lat="47.3267" lon="-1.43672">
        <ele>113</ele>
        <time>2021-02-28T09:22:11.481000+00:00</time>
      </trkpt>
      <trkpt lat="0" lon="0">
        <time>2021-02-28T09:22:11.486000+00:00</time>
      </trkpt>
      <trkpt lat="0" lon="0">
        <time>2021-02-28T09:22:11.494000+00:00</time>
      </trkpt>
      <trkpt lat="0" lon="0">
        <time>2021-02-28T09:22:11.497000+00:00</time>
      </trkpt>
      <trkpt lat="47.32667" lon="-1.43671">
        <ele>113</ele>
        <time>2021-02-28T09:22:12.440000+00:00</time>
      </trkpt>
      <trkpt lat="0" lon="0">
        <time>2021-02-28T09:22:12.450000+00:00</time>
      </trkpt>
      <trkpt lat="0" lon="0">
        <time>2021-02-28T09:22:12.456000+00:00</time>
      </trkpt>
      <trkpt lat="0" lon="0">
        <time>2021-02-28T09:22:12.460000+00:00</time>
      </trkpt>
      <trkpt lat="47.32664" lon="-1.43671">
        <ele>113</ele>
        <time>2021-02-28T09:22:13.468000+00:00</time>
      </trkpt>
      <trkpt lat="0" lon="0">
        <time>2021-02-28T09:22:13.476000+00:00</time>
      </trkpt>
      <trkpt lat="0" lon="0">
        <time>2021-02-28T09:22:13.480000+00:00</time>
      </trkpt>
      <trkpt lat="0" lon="0">
        <time>2021-02-28T09:22:13.483000+00:00</time>
      </trkpt>
      <trkpt lat="47.32661" lon="-1.43671">
        <ele>113</ele>
        <time>2021-02-28T09:22:14.450000+00:00</time>
      </trkpt>
      <trkpt lat="0" lon="0">
        <time>2021-02-28T09:22:14.458000+00:00</time>
      </trkpt>
      <trkpt lat="0" lon="0">
        <time>2021-02-28T09:22:14.462000+00:00</time>
      </trkpt>
      <trkpt lat="0" lon="0">
        <time>2021-02-28T09:22:14.466000+00:00</time>
      </trkpt>
      <trkpt lat="47.32658" lon="-1.43672">
        <ele>113</ele>
        <time>2021-02-28T09:22:15.481000+00:00</time>
      </trkpt>
      <trkpt lat="0" lon="0">
        <time>2021-02-28T09:22:15.490000+00:00</time>
      </trkpt>
      <trkpt lat="0" lon="0">
        <time>2021-02-28T09:22:15.494000+00:00</time>
      </trkpt>
      <trkpt lat="0" lon="0">
        <time>2021-02-28T09:22:15.497000+00:00</time>
      </trkpt>
      <trkpt lat="47.32655" lon="-1.43672">
        <ele>112</ele>
        <time>2021-02-28T09:22:16.462000+00:00</time>
      </trkpt>
      <trkpt lat="0" lon="0">
        <time>2021-02-28T09:22:16.469000+00:00</time>
      </trkpt>
      <trkpt lat="0" lon="0">
        <time>2021-02-28T09:22:16.473000+00:00</time>
      </trkpt>
      <trkpt lat="0" lon="0">
        <time>2021-02-28T09:22:16.476000+00:00</time>
      </trkpt>
      <trkpt lat="47.32652" lon="-1.43672">
        <ele>112</ele>
        <time>2021-02-28T09:22:17.488000+00:00</time>
      </trkpt>
      <trkpt lat="0" lon="0">
        <time>2021-02-28T09:22:17.500000+00:00</time>
      </trkpt>
      <trkpt lat="0" lon="0">
        <time>2021-02-28T09:22:17.507000+00:00</time>
      </trkpt>
      <trkpt lat="0" lon="0">
        <time>2021-02-28T09:22:17.510000+00:00</time>
      </trkpt>
      <trkpt lat="47.32649" lon="-1.43673">
        <ele>112</ele>
        <time>2021-02-28T09:22:18.486000+00:00</time>
      </trkpt>
      <trkpt lat="0" lon="0">
        <time>2021-02-28T09:22:18.488000+00:00</time>
      </trkpt>
      <trkpt lat="0" lon="0">
        <time>2021-02-28T09:22:18.490000+00:00</time>
      </trkpt>
      <trkpt lat="0" lon="0">
        <time>2021-02-28T09:22:18.492000+00:00</time>
      </trkpt>
      <trkpt lat="47.32646" lon="-1.43674">
        <ele>112</ele>
        <time>2021-02-28T09:22:19.465000+00:00</time>
      </trkpt>
      <trkpt lat="0" lon="0">
        <time>2021-02-28T09:22:19.474000+00:00</time>
      </trkpt>
      <trkpt lat="0" lon="0">
        <time>2021-02-28T09:22:19.481000+00:00</time>
      </trkpt>
      <trkpt lat="0" lon="0">
        <time>2021-02-28T09:22:19.484000+00:00</time>
      </trkpt>
      <trkpt lat="47.32643" lon="-1.43674">
        <ele>112</ele>
        <time>2021-02-28T09:22:20.464000+00:00</time>
      </trkpt>
      <trkpt lat="0" lon="0">
        <time>2021-02-28T09:22:20.473000+00:00</time>
      </trkpt>
      <trkpt lat="0" lon="0">
        <time>2021-02-28T09:22:20.478000+00:00</time>
      </trkpt>
      <trkpt lat="0" lon="0">
        <time>2021-02-28T09:22:20.481000+00:00</time>
      </trkpt>
      <trkpt lat="47.3264" lon="-1.43674">
        <ele>112</ele>
        <time>2021-02-28T09:22:21.472000+00:00</time>
      </trkpt>
      <trkpt lat="0" lon="0">
        <time>2021-02-28T09:22:21.479000+00:00</time>
      </trkpt>
      <trkpt lat="0" lon="0">
        <time>2021-02-28T09:22:21.482000+00:00</time>
      </trkpt>
      <trkpt lat="0" lon="0">
        <time>2021-02-28T09:22:21.485000+00:00</time>
      </trkpt>
      <trkpt lat="47.32637" lon="-1.43675">
        <ele>112</ele>
        <time>2021-02-28T09:22:22.500000+00:00</time>
      </trkpt>
      <trkpt lat="0" lon="0">
        <time>2021-02-28T09:22:22.506000+00:00</time>
      </trkpt>
      <trkpt lat="0" lon="0">
        <time>2021-02-28T09:22:22.511000+00:00</time>
      </trkpt>
      <trkpt lat="0" lon="0">
        <time>2021-02-28T09:22:22.514000+00:00</time>
      </trkpt>
      <trkpt lat="47.32634" lon="-1.43675">
        <ele>113</ele>
        <time>2021-02-28T09:22:23.425000+00:00</time>
      </trkpt>
      <trkpt lat="0" lon="0">
        <time>2021-02-28T09:22:23.433000+00:00</time>
      </trkpt>
      <trkpt lat="0" lon="0">
        <time>2021-02-28T09:22:23.444000+00:00</time>
      </trkpt>
      <trkpt lat="0" lon="0">
        <time>2021-02-28T09:22:23.446000+00:00</time>
      </trkpt>
      <trkpt lat="47.32631" lon="-1.43676">
        <ele>112</ele>
        <time>2021-02-28T09:22:24.497000+00:00</time>
      </trkpt>
      <trkpt lat="0" lon="0">
        <time>2021-02-28T09:22:24.504000+00:00</time>
      </trkpt>
      <trkpt lat="0" lon="0">
        <time>2021-02-28T09:22:24.508000+00:00</time>
      </trkpt>
      <trkpt lat="0" lon="0">
        <time>2021-02-28T09:22:24.511000+00:00</time>
      </trkpt>
      <trkpt lat="47.32628" lon="-1.43676">
        <ele>112</ele>
        <time>2021-02-28T09:22:25.489000+00:00</time>
      </trkpt>
      <trkpt lat="0" lon="0">
        <time>2021-02-28T09:22:25.501000+00:00</time>
      </trkpt>
      <trkpt lat="0" lon="0">
        <time>2021-02-28T09:22:25.512000+00:00</time>
      </trkpt>
      <trkpt lat="0" lon="0">
        <time>2021-02-28T09:22:25.514000+00:00</time>
      </trkpt>
      <trkpt lat="47.32625" lon="-1.43676">
        <ele>112</ele>
        <time>2021-02-28T09:22:26.489000+00:00</time>
      </trkpt>
      <trkpt lat="0" lon="0">
        <time>2021-02-28T09:22:26.494000+00:00</time>
      </trkpt>
      <trkpt lat="0" lon="0">
        <time>2021-02-28T09:22:26.500000+00:00</time>
      </trkpt>
      <trkpt lat="0" lon="0">
        <time>2021-02-28T09:22:26.502000+00:00</time>
      </trkpt>
      <trkpt lat="47.32622" lon="-1.43677">
        <ele>112</ele>
        <time>2021-02-28T09:22:27.530000+00:00</time>
      </trkpt>
      <trkpt lat="0" lon="0">
        <time>2021-02-28T09:22:27.536000+00:00</time>
      </trkpt>
      <trkpt lat="0" lon="0">
        <time>2021-02-28T09:22:27.545000+00:00</time>
      </trkpt>
      <trkpt lat="0" lon="0">
        <time>2021-02-28T09:22:27.548000+00:00</time>
      </trkpt>
      <trkpt lat="47.32618" lon="-1.43677">
        <ele>112</ele>
        <time>2021-02-28T09:22:28.480000+00:00</time>
      </trkpt>
      <trkpt lat="0" lon="0">
        <time>2021-02-28T09:22:28.485000+00:00</time>
      </trkpt>
      <trkpt lat="0" lon="0">
        <time>2021-02-28T09:22:28.492000+00:00</time>
      </trkpt>
      <trkpt lat="0" lon="0">
        <time>2021-02-28T09:22:28.494000+00:00</time>
      </trkpt>
      <trkpt lat="47.32615" lon="-1.43677">
        <ele>113</ele>
        <time>2021-02-28T09:22:29.501000+00:00</time>
      </trkpt>
      <trkpt lat="0" lon="0">
        <time>2021-02-28T09:22:29.513000+00:00</time>
      </trkpt>
      <trkpt lat="0" lon="0">
        <time>2021-02-28T09:22:29.518000+00:00</time>
      </trkpt>
      <trkpt lat="0" lon="0">
        <time>2021-02-28T09:22:29.522000+00:00</time>
      </trkpt>
      <trkpt lat="47.32612" lon="-1.43678">
        <ele>113</ele>
        <time>2021-02-28T09:22:30.402000+00:00</time>
      </trkpt>
      <trkpt lat="0" lon="0">
        <time>2021-02-28T09:22:30.407000+00:00</time>
      </trkpt>
      <trkpt lat="0" lon="0">
        <time>2021-02-28T09:22:30.416000+00:00</time>
      </trkpt>
      <trkpt lat="0" lon="0">
        <time>2021-02-28T09:22:30.418000+00:00</time>
      </trkpt>
      <trkpt lat="47.32609" lon="-1.43678">
        <ele>113</ele>
        <time>2021-02-28T09:22:31.454000+00:00</time>
      </trkpt>
      <trkpt lat="0" lon="0">
        <time>2021-02-28T09:22:31.461000+00:00</time>
      </trkpt>
      <trkpt lat="0" lon="0">
        <time>2021-02-28T09:22:31.468000+00:00</time>
      </trkpt>
      <trkpt lat="0" lon="0">
        <time>2021-02-28T09:22:31.470000+00:00</time>
      </trkpt>
      <trkpt lat="47.32606" lon="-1.43679">
        <ele>113</ele>
        <time>2021-02-28T09:22:32.449000+00:00</time>
      </trkpt>
      <trkpt lat="0" lon="0">
        <time>2021-02-28T09:22:32.457000+00:00</time>
      </trkpt>
      <trkpt lat="0" lon="0">
        <time>2021-02-28T09:22:32.461000+00:00</time>
      </trkpt>
      <trkpt lat="0" lon="0">
        <time>2021-02-28T09:22:32.463000+00:00</time>
      </trkpt>
      <trkpt lat="47.32603" lon="-1.43681">
        <ele>113</ele>
        <time>2021-02-28T09:22:33.481000+00:00</time>
      </trkpt>
      <trkpt lat="0" lon="0">
        <time>2021-02-28T09:22:33.498000+00:00</time>
      </trkpt>
      <trkpt lat="0" lon="0">
        <time>2021-02-28T09:22:33.504000+00:00</time>
      </trkpt>
      <trkpt lat="0" lon="0">
        <time>2021-02-28T09:22:33.507000+00:00</time>
      </trkpt>
      <trkpt lat="47.326" lon="-1.43682">
        <ele>113</ele>
        <time>2021-02-28T09:22:34.486000+00:00</time>
      </trkpt>
      <trkpt lat="0" lon="0">
        <time>2021-02-28T09:22:34.491000+00:00</time>
      </trkpt>
      <trkpt lat="0" lon="0">
        <time>2021-02-28T09:22:34.497000+00:00</time>
      </trkpt>
      <trkpt lat="0" lon="0">
        <time>2021-02-28T09:22:34.499000+00:00</time>
      </trkpt>
      <trkpt lat="47.32598" lon="-1.43684">
        <ele>113</ele>
        <time>2021-02-28T09:22:35.431000+00:00</time>
      </trkpt>
      <trkpt lat="0" lon="0">
        <time>2021-02-28T09:22:35.438000+00:00</time>
      </trkpt>
      <trkpt lat="0" lon="0">
        <time>2021-02-28T09:22:35.440000+00:00</time>
      </trkpt>
      <trkpt lat="0" lon="0">
        <time>2021-02-28T09:22:35.441000+00:00</time>
      </trkpt>
      <trkpt lat="47.32595" lon="-1.43686">
        <ele>113</ele>
        <time>2021-02-28T09:22:36.481000+00:00</time>
      </trkpt>
      <trkpt lat="0" lon="0">
        <time>2021-02-28T09:22:36.487000+00:00</time>
      </trkpt>
      <trkpt lat="0" lon="0">
        <time>2021-02-28T09:22:36.491000+00:00</time>
      </trkpt>
      <trkpt lat="0" lon="0">
        <time>2021-02-28T09:22:36.493000+00:00</time>
      </trkpt>
      <trkpt lat="47.32593" lon="-1.43688">
        <ele>112</ele>
        <time>2021-02-28T09:22:37.485000+00:00</time>
      </trkpt>
      <trkpt lat="0" lon="0">
        <time>2021-02-28T09:22:37.501000+00:00</time>
      </trkpt>
      <trkpt lat="0" lon="0">
        <time>2021-02-28T09:22:37.505000+00:00</time>
      </trkpt>
      <trkpt lat="0" lon="0">
        <time>2021-02-28T09:22:37.507000+00:00</time>
      </trkpt>
      <trkpt lat="47.32591" lon="-1.4369">
        <ele>112</ele>
        <time>2021-02-28T09:22:38.479000+00:00</time>
      </trkpt>
      <trkpt lat="0" lon="0">
        <time>2021-02-28T09:22:38.485000+00:00</time>
      </trkpt>
      <trkpt lat="0" lon="0">
        <time>2021-02-28T09:22:38.492000+00:00</time>
      </trkpt>
      <trkpt lat="0" lon="0">
        <time>2021-02-28T09:22:38.495000+00:00</time>
      </trkpt>
      <trkpt lat="47.32589" lon="-1.43692">
        <ele>112</ele>
        <time>2021-02-28T09:22:39.509000+00:00</time>
      </trkpt>
      <trkpt lat="0" lon="0">
        <time>2021-02-28T09:22:39.521000+00:00</time>
      </trkpt>
      <trkpt lat="0" lon="0">
        <time>2021-02-28T09:22:39.526000+00:00</time>
      </trkpt>
      <trkpt lat="0" lon="0">
        <time>2021-02-28T09:22:39.528000+00:00</time>
      </trkpt>
      <trkpt lat="47.32587" lon="-1.43694">
        <ele>112</ele>
        <time>2021-02-28T09:22:40.436000+00:00</time>
      </trkpt>
      <trkpt lat="0" lon="0">
        <time>2021-02-28T09:22:40.442000+00:00</time>
      </trkpt>
      <trkpt lat="0" lon="0">
        <time>2021-02-28T09:22:40.446000+00:00</time>
      </trkpt>
      <trkpt lat="0" lon="0">
        <time>2021-02-28T09:22:40.448000+00:00</time>
      </trkpt>
      <trkpt lat="47.32585" lon="-1.43696">
        <ele>113</ele>
        <time>2021-02-28T09:22:41.482000+00:00</time>
      </trkpt>
      <trkpt lat="0" lon="0">
        <time>2021-02-28T09:22:41.489000+00:00</time>
      </trkpt>
      <trkpt lat="0" lon="0">
        <time>2021-02-28T09:22:41.493000+00:00</time>
      </trkpt>
      <trkpt lat="0" lon="0">
        <time>2021-02-28T09:22:41.495000+00:00</time>
      </trkpt>
      <trkpt lat="47.32584" lon="-1.43698">
        <ele>113</ele>
        <time>2021-02-28T09:22:42.496000+00:00</time>
      </trkpt>
      <trkpt lat="0" lon="0">
        <time>2021-02-28T09:22:42.508000+00:00</time>
      </trkpt>
      <trkpt lat="0" lon="0">
        <time>2021-02-28T09:22:42.512000+00:00</time>
      </trkpt>
      <trkpt lat="0" lon="0">
        <time>2021-02-28T09:22:42.514000+00:00</time>
      </trkpt>
      <trkpt lat="47.32582" lon="-1.437">
        <ele>113</ele>
        <time>2021-02-28T09:22:43.468000+00:00</time>
      </trkpt>
      <trkpt lat="0" lon="0">
        <time>2021-02-28T09:22:43.477000+00:00</time>
      </trkpt>
      <trkpt lat="0" lon="0">
        <time>2021-02-28T09:22:43.486000+00:00</time>
      </trkpt>
      <trkpt lat="0" lon="0">
        <time>2021-02-28T09:22:43.489000+00:00</time>
      </trkpt>
      <trkpt lat="47.3258" lon="-1.43703">
        <ele>114</ele>
        <time>2021-02-28T09:22:44.438000+00:00</time>
      </trkpt>
      <trkpt lat="0" lon="0">
        <time>2021-02-28T09:22:44.444000+00:00</time>
      </trkpt>
      <trkpt lat="0" lon="0">
        <time>2021-02-28T09:22:44.449000+00:00</time>
      </trkpt>
      <trkpt lat="0" lon="0">
        <time>2021-02-28T09:22:44.453000+00:00</time>
      </trkpt>
      <trkpt lat="47.32578" lon="-1.43705">
        <ele>114</ele>
        <time>2021-02-28T09:22:45.469000+00:00</time>
      </trkpt>
      <trkpt lat="0" lon="0">
        <time>2021-02-28T09:22:45.478000+00:00</time>
      </trkpt>
      <trkpt lat="0" lon="0">
        <time>2021-02-28T09:22:45.484000+00:00</time>
      </trkpt>
      <trkpt lat="0" lon="0">
        <time>2021-02-28T09:22:45.488000+00:00</time>
      </trkpt>
      <trkpt lat="47.32576" lon="-1.43707">
        <ele>114</ele>
        <time>2021-02-28T09:22:46.465000+00:00</time>
      </trkpt>
      <trkpt lat="0" lon="0">
        <time>2021-02-28T09:22:46.472000+00:00</time>
      </trkpt>
      <trkpt lat="0" lon="0">
        <time>2021-02-28T09:22:46.478000+00:00</time>
      </trkpt>
      <trkpt lat="0" lon="0">
        <time>2021-02-28T09:22:46.482000+00:00</time>
      </trkpt>
      <trkpt lat="47.32573" lon="-1.43709">
        <ele>114</ele>
        <time>2021-02-28T09:22:47.496000+00:00</time>
      </trkpt>
      <trkpt lat="0" lon="0">
        <time>2021-02-28T09:22:47.509000+00:00</time>
      </trkpt>
      <trkpt lat="0" lon="0">
        <time>2021-02-28T09:22:47.513000+00:00</time>
      </trkpt>
      <trkpt lat="0" lon="0">
        <time>2021-02-28T09:22:47.521000+00:00</time>
      </trkpt>
      <trkpt lat="47.32571" lon="-1.43711">
        <ele>115</ele>
        <time>2021-02-28T09:22:48.473000+00:00</time>
      </trkpt>
      <trkpt lat="0" lon="0">
        <time>2021-02-28T09:22:48.482000+00:00</time>
      </trkpt>
      <trkpt lat="0" lon="0">
        <time>2021-02-28T09:22:48.489000+00:00</time>
      </trkpt>
      <trkpt lat="0" lon="0">
        <time>2021-02-28T09:22:48.492000+00:00</time>
      </trkpt>
      <trkpt lat="47.32567" lon="-1.43712">
        <ele>116</ele>
        <time>2021-02-28T09:22:49.482000+00:00</time>
      </trkpt>
      <trkpt lat="0" lon="0">
        <time>2021-02-28T09:22:49.489000+00:00</time>
      </trkpt>
      <trkpt lat="0" lon="0">
        <time>2021-02-28T09:22:49.494000+00:00</time>
      </trkpt>
      <trkpt lat="0" lon="0">
        <time>2021-02-28T09:22:49.496000+00:00</time>
      </trkpt>
      <trkpt lat="47.32564" lon="-1.43713">
        <ele>117</ele>
        <time>2021-02-28T09:22:50.483000+00:00</time>
      </trkpt>
      <trkpt lat="0" lon="0">
        <time>2021-02-28T09:22:50.503000+00:00</time>
      </trkpt>
      <trkpt lat="0" lon="0">
        <time>2021-02-28T09:22:50.512000+00:00</time>
      </trkpt>
      <trkpt lat="0" lon="0">
        <time>2021-02-28T09:22:50.514000+00:00</time>
      </trkpt>
      <trkpt lat="47.3256" lon="-1.43713">
        <ele>117</ele>
        <time>2021-02-28T09:22:51.450000+00:00</time>
      </trkpt>
      <trkpt lat="0" lon="0">
        <time>2021-02-28T09:22:51.459000+00:00</time>
      </trkpt>
      <trkpt lat="0" lon="0">
        <time>2021-02-28T09:22:51.465000+00:00</time>
      </trkpt>
      <trkpt lat="0" lon="0">
        <time>2021-02-28T09:22:51.468000+00:00</time>
      </trkpt>
      <trkpt lat="47.32556" lon="-1.43712">
        <ele>118</ele>
        <time>2021-02-28T09:22:52.465000+00:00</time>
      </trkpt>
      <trkpt lat="0" lon="0">
        <time>2021-02-28T09:22:52.476000+00:00</time>
      </trkpt>
      <trkpt lat="0" lon="0">
        <time>2021-02-28T09:22:52.482000+00:00</time>
      </trkpt>
      <trkpt lat="0" lon="0">
        <time>2021-02-28T09:22:52.485000+00:00</time>
      </trkpt>
      <trkpt lat="47.32552" lon="-1.43712">
        <ele>119</ele>
        <time>2021-02-28T09:22:53.514000+00:00</time>
      </trkpt>
      <trkpt lat="0" lon="0">
        <time>2021-02-28T09:22:53.524000+00:00</time>
      </trkpt>
      <trkpt lat="0" lon="0">
        <time>2021-02-28T09:22:53.530000+00:00</time>
      </trkpt>
      <trkpt lat="0" lon="0">
        <time>2021-02-28T09:22:53.533000+00:00</time>
      </trkpt>
      <trkpt lat="47.32548" lon="-1.43711">
        <ele>119</ele>
        <time>2021-02-28T09:22:54.437000+00:00</time>
      </trkpt>
      <trkpt lat="0" lon="0">
        <time>2021-02-28T09:22:54.445000+00:00</time>
      </trkpt>
      <trkpt lat="0" lon="0">
        <time>2021-02-28T09:22:54.451000+00:00</time>
      </trkpt>
      <trkpt lat="0" lon="0">
        <time>2021-02-28T09:22:54.454000+00:00</time>
      </trkpt>
      <trkpt lat="47.32543" lon="-1.4371">
        <ele>119</ele>
        <time>2021-02-28T09:22:55.505000+00:00</time>
      </trkpt>
      <trkpt lat="0" lon="0">
        <time>2021-02-28T09:22:55.511000+00:00</time>
      </trkpt>
      <trkpt lat="0" lon="0">
        <time>2021-02-28T09:22:55.517000+00:00</time>
      </trkpt>
      <trkpt lat="0" lon="0">
        <time>2021-02-28T09:22:55.520000+00:00</time>
      </trkpt>
      <trkpt lat="47.32538" lon="-1.4371">
        <ele>119</ele>
        <time>2021-02-28T09:22:56.401000+00:00</time>
      </trkpt>
      <trkpt lat="0" lon="0">
        <time>2021-02-28T09:22:56.403000+00:00</time>
      </trkpt>
      <trkpt lat="0" lon="0">
        <time>2021-02-28T09:22:56.407000+00:00</time>
      </trkpt>
      <trkpt lat="0" lon="0">
        <time>2021-02-28T09:22:56.409000+00:00</time>
      </trkpt>
      <trkpt lat="47.32532" lon="-1.43709">
        <ele>120</ele>
        <time>2021-02-28T09:22:57.484000+00:00</time>
      </trkpt>
      <trkpt lat="0" lon="0">
        <time>2021-02-28T09:22:57.488000+00:00</time>
      </trkpt>
      <trkpt lat="0" lon="0">
        <time>2021-02-28T09:22:57.492000+00:00</time>
      </trkpt>
      <trkpt lat="0" lon="0">
        <time>2021-02-28T09:22:57.494000+00:00</time>
      </trkpt>
      <trkpt lat="47.32527" lon="-1.43708">
        <ele>119</ele>
        <time>2021-02-28T09:22:58.523000+00:00</time>
      </trkpt>
      <trkpt lat="0" lon="0">
        <time>2021-02-28T09:22:58.531000+00:00</time>
      </trkpt>
      <trkpt lat="0" lon="0">
        <time>2021-02-28T09:22:58.537000+00:00</time>
      </trkpt>
      <trkpt lat="0" lon="0">
        <time>2021-02-28T09:22:58.540000+00:00</time>
      </trkpt>
      <trkpt lat="47.32522" lon="-1.43707">
        <ele>118</ele>
        <time>2021-02-28T09:22:59.520000+00:00</time>
      </trkpt>
      <trkpt lat="0" lon="0">
        <time>2021-02-28T09:22:59.529000+00:00</time>
      </trkpt>
      <trkpt lat="0" lon="0">
        <time>2021-02-28T09:22:59.536000+00:00</time>
      </trkpt>
      <trkpt lat="0" lon="0">
        <time>2021-02-28T09:22:59.539000+00:00</time>
      </trkpt>
      <trkpt lat="47.32517" lon="-1.43706">
        <ele>117</ele>
        <time>2021-02-28T09:23:00.467000+00:00</time>
      </trkpt>
      <trkpt lat="0" lon="0">
        <time>2021-02-28T09:23:00.480000+00:00</time>
      </trkpt>
      <trkpt lat="0" lon="0">
        <time>2021-02-28T09:23:00.485000+00:00</time>
      </trkpt>
      <trkpt lat="0" lon="0">
        <time>2021-02-28T09:23:00.488000+00:00</time>
      </trkpt>
      <trkpt lat="47.32512" lon="-1.43706">
        <ele>117</ele>
        <time>2021-02-28T09:23:01.495000+00:00</time>
      </trkpt>
      <trkpt lat="0" lon="0">
        <time>2021-02-28T09:23:01.509000+00:00</time>
      </trkpt>
      <trkpt lat="0" lon="0">
        <time>2021-02-28T09:23:01.516000+00:00</time>
      </trkpt>
      <trkpt lat="0" lon="0">
        <time>2021-02-28T09:23:01.519000+00:00</time>
      </trkpt>
      <trkpt lat="47.32508" lon="-1.43705">
        <ele>117</ele>
        <time>2021-02-28T09:23:02.500000+00:00</time>
      </trkpt>
      <trkpt lat="0" lon="0">
        <time>2021-02-28T09:23:02.511000+00:00</time>
      </trkpt>
      <trkpt lat="0" lon="0">
        <time>2021-02-28T09:23:02.518000+00:00</time>
      </trkpt>
      <trkpt lat="0" lon="0">
        <time>2021-02-28T09:23:02.522000+00:00</time>
      </trkpt>
      <trkpt lat="47.32503" lon="-1.43705">
        <ele>117</ele>
        <time>2021-02-28T09:23:03.478000+00:00</time>
      </trkpt>
      <trkpt lat="0" lon="0">
        <time>2021-02-28T09:23:03.486000+00:00</time>
      </trkpt>
      <trkpt lat="0" lon="0">
        <time>2021-02-28T09:23:03.492000+00:00</time>
      </trkpt>
      <trkpt lat="0" lon="0">
        <time>2021-02-28T09:23:03.495000+00:00</time>
      </trkpt>
      <trkpt lat="47.32499" lon="-1.43705">
        <ele>117</ele>
        <time>2021-02-28T09:23:04.495000+00:00</time>
      </trkpt>
      <trkpt lat="0" lon="0">
        <time>2021-02-28T09:23:04.506000+00:00</time>
      </trkpt>
      <trkpt lat="0" lon="0">
        <time>2021-02-28T09:23:04.511000+00:00</time>
      </trkpt>
      <trkpt lat="0" lon="0">
        <time>2021-02-28T09:23:04.514000+00:00</time>
      </trkpt>
      <trkpt lat="47.32495" lon="-1.43706">
        <ele>117</ele>
        <time>2021-02-28T09:23:05.444000+00:00</time>
      </trkpt>
      <trkpt lat="0" lon="0">
        <time>2021-02-28T09:23:05.450000+00:00</time>
      </trkpt>
      <trkpt lat="0" lon="0">
        <time>2021-02-28T09:23:05.460000+00:00</time>
      </trkpt>
      <trkpt lat="0" lon="0">
        <time>2021-02-28T09:23:05.463000+00:00</time>
      </trkpt>
      <trkpt lat="47.32491" lon="-1.43706">
        <ele>117</ele>
        <time>2021-02-28T09:23:06.470000+00:00</time>
      </trkpt>
      <trkpt lat="0" lon="0">
        <time>2021-02-28T09:23:06.483000+00:00</time>
      </trkpt>
      <trkpt lat="0" lon="0">
        <time>2021-02-28T09:23:06.489000+00:00</time>
      </trkpt>
      <trkpt lat="0" lon="0">
        <time>2021-02-28T09:23:06.492000+00:00</time>
      </trkpt>
      <trkpt lat="47.32486" lon="-1.43706">
        <ele>117</ele>
        <time>2021-02-28T09:23:07.477000+00:00</time>
      </trkpt>
      <trkpt lat="0" lon="0">
        <time>2021-02-28T09:23:07.485000+00:00</time>
      </trkpt>
      <trkpt lat="0" lon="0">
        <time>2021-02-28T09:23:07.490000+00:00</time>
      </trkpt>
      <trkpt lat="0" lon="0">
        <time>2021-02-28T09:23:07.492000+00:00</time>
      </trkpt>
      <trkpt lat="47.32482" lon="-1.43705">
        <ele>117</ele>
        <time>2021-02-28T09:23:08.473000+00:00</time>
      </trkpt>
      <trkpt lat="0" lon="0">
        <time>2021-02-28T09:23:08.481000+00:00</time>
      </trkpt>
      <trkpt lat="0" lon="0">
        <time>2021-02-28T09:23:08.485000+00:00</time>
      </trkpt>
      <trkpt lat="0" lon="0">
        <time>2021-02-28T09:23:08.487000+00:00</time>
      </trkpt>
      <trkpt lat="47.32478" lon="-1.43704">
        <ele>117</ele>
        <time>2021-02-28T09:23:09.448000+00:00</time>
      </trkpt>
      <trkpt lat="0" lon="0">
        <time>2021-02-28T09:23:09.461000+00:00</time>
      </trkpt>
      <trkpt lat="0" lon="0">
        <time>2021-02-28T09:23:09.470000+00:00</time>
      </trkpt>
      <trkpt lat="0" lon="0">
        <time>2021-02-28T09:23:09.476000+00:00</time>
      </trkpt>
      <trkpt lat="47.32474" lon="-1.43704">
        <ele>117</ele>
        <time>2021-02-28T09:23:10.486000+00:00</time>
      </trkpt>
      <trkpt lat="0" lon="0">
        <time>2021-02-28T09:23:10.495000+00:00</time>
      </trkpt>
      <trkpt lat="0" lon="0">
        <time>2021-02-28T09:23:10.501000+00:00</time>
      </trkpt>
      <trkpt lat="0" lon="0">
        <time>2021-02-28T09:23:10.504000+00:00</time>
      </trkpt>
      <trkpt lat="47.3247" lon="-1.43703">
        <ele>116</ele>
        <time>2021-02-28T09:23:11.458000+00:00</time>
      </trkpt>
      <trkpt lat="0" lon="0">
        <time>2021-02-28T09:23:11.468000+00:00</time>
      </trkpt>
      <trkpt lat="0" lon="0">
        <time>2021-02-28T09:23:11.475000+00:00</time>
      </trkpt>
      <trkpt lat="0" lon="0">
        <time>2021-02-28T09:23:11.478000+00:00</time>
      </trkpt>
      <trkpt lat="47.32466" lon="-1.43703">
        <ele>116</ele>
        <time>2021-02-28T09:23:12.444000+00:00</time>
      </trkpt>
      <trkpt lat="0" lon="0">
        <time>2021-02-28T09:23:12.455000+00:00</time>
      </trkpt>
      <trkpt lat="0" lon="0">
        <time>2021-02-28T09:23:12.463000+00:00</time>
      </trkpt>
      <trkpt lat="0" lon="0">
        <time>2021-02-28T09:23:12.465000+00:00</time>
      </trkpt>
      <trkpt lat="47.32462" lon="-1.43703">
        <ele>117</ele>
        <time>2021-02-28T09:23:13.465000+00:00</time>
      </trkpt>
      <trkpt lat="0" lon="0">
        <time>2021-02-28T09:23:13.477000+00:00</time>
      </trkpt>
      <trkpt lat="0" lon="0">
        <time>2021-02-28T09:23:13.484000+00:00</time>
      </trkpt>
      <trkpt lat="0" lon="0">
        <time>2021-02-28T09:23:13.487000+00:00</time>
      </trkpt>
      <trkpt lat="47.32459" lon="-1.43704">
        <ele>116</ele>
        <time>2021-02-28T09:23:14.486000+00:00</time>
      </trkpt>
      <trkpt lat="0" lon="0">
        <time>2021-02-28T09:23:14.494000+00:00</time>
      </trkpt>
      <trkpt lat="0" lon="0">
        <time>2021-02-28T09:23:14.500000+00:00</time>
      </trkpt>
      <trkpt lat="0" lon="0">
        <time>2021-02-28T09:23:14.503000+00:00</time>
      </trkpt>
      <trkpt lat="47.32456" lon="-1.43706">
        <ele>116</ele>
        <time>2021-02-28T09:23:15.486000+00:00</time>
      </trkpt>
      <trkpt lat="0" lon="0">
        <time>2021-02-28T09:23:15.494000+00:00</time>
      </trkpt>
      <trkpt lat="0" lon="0">
        <time>2021-02-28T09:23:15.498000+00:00</time>
      </trkpt>
      <trkpt lat="0" lon="0">
        <time>2021-02-28T09:23:15.500000+00:00</time>
      </trkpt>
      <trkpt lat="47.32454" lon="-1.43709">
        <ele>115</ele>
        <time>2021-02-28T09:23:16.456000+00:00</time>
      </trkpt>
      <trkpt lat="0" lon="0">
        <time>2021-02-28T09:23:16.467000+00:00</time>
      </trkpt>
      <trkpt lat="0" lon="0">
        <time>2021-02-28T09:23:16.477000+00:00</time>
      </trkpt>
      <trkpt lat="0" lon="0">
        <time>2021-02-28T09:23:16.484000+00:00</time>
      </trkpt>
      <trkpt lat="47.32452" lon="-1.43712">
        <ele>115</ele>
        <time>2021-02-28T09:23:17.414000+00:00</time>
      </trkpt>
      <trkpt lat="0" lon="0">
        <time>2021-02-28T09:23:17.421000+00:00</time>
      </trkpt>
      <trkpt lat="0" lon="0">
        <time>2021-02-28T09:23:17.426000+00:00</time>
      </trkpt>
      <trkpt lat="0" lon="0">
        <time>2021-02-28T09:23:17.428000+00:00</time>
      </trkpt>
      <trkpt lat="47.3245" lon="-1.43716">
        <ele>114</ele>
        <time>2021-02-28T09:23:18.468000+00:00</time>
      </trkpt>
      <trkpt lat="0" lon="0">
        <time>2021-02-28T09:23:18.486000+00:00</time>
      </trkpt>
      <trkpt lat="0" lon="0">
        <time>2021-02-28T09:23:18.493000+00:00</time>
      </trkpt>
      <trkpt lat="0" lon="0">
        <time>2021-02-28T09:23:18.495000+00:00</time>
      </trkpt>
      <trkpt lat="47.32449" lon="-1.43721">
        <ele>113</ele>
        <time>2021-02-28T09:23:19.376000+00:00</time>
      </trkpt>
      <trkpt lat="0" lon="0">
        <time>2021-02-28T09:23:19.384000+00:00</time>
      </trkpt>
      <trkpt lat="0" lon="0">
        <time>2021-02-28T09:23:19.390000+00:00</time>
      </trkpt>
      <trkpt lat="0" lon="0">
        <time>2021-02-28T09:23:19.393000+00:00</time>
      </trkpt>
      <trkpt lat="47.32447" lon="-1.43726">
        <ele>113</ele>
        <time>2021-02-28T09:23:20.454000+00:00</time>
      </trkpt>
      <trkpt lat="0" lon="0">
        <time>2021-02-28T09:23:20.465000+00:00</time>
      </trkpt>
      <trkpt lat="0" lon="0">
        <time>2021-02-28T09:23:20.471000+00:00</time>
      </trkpt>
      <trkpt lat="0" lon="0">
        <time>2021-02-28T09:23:20.474000+00:00</time>
      </trkpt>
      <trkpt lat="47.32446" lon="-1.43731">
        <ele>113</ele>
        <time>2021-02-28T09:23:21.448000+00:00</time>
      </trkpt>
      <trkpt lat="0" lon="0">
        <time>2021-02-28T09:23:21.454000+00:00</time>
      </trkpt>
      <trkpt lat="0" lon="0">
        <time>2021-02-28T09:23:21.461000+00:00</time>
      </trkpt>
      <trkpt lat="0" lon="0">
        <time>2021-02-28T09:23:21.465000+00:00</time>
      </trkpt>
      <trkpt lat="47.32444" lon="-1.43737">
        <ele>114</ele>
        <time>2021-02-28T09:23:22.467000+00:00</time>
      </trkpt>
      <trkpt lat="0" lon="0">
        <time>2021-02-28T09:23:22.474000+00:00</time>
      </trkpt>
      <trkpt lat="0" lon="0">
        <time>2021-02-28T09:23:22.481000+00:00</time>
      </trkpt>
      <trkpt lat="0" lon="0">
        <time>2021-02-28T09:23:22.486000+00:00</time>
      </trkpt>
      <trkpt lat="47.32443" lon="-1.43743">
        <ele>113</ele>
        <time>2021-02-28T09:23:23.459000+00:00</time>
      </trkpt>
      <trkpt lat="0" lon="0">
        <time>2021-02-28T09:23:23.469000+00:00</time>
      </trkpt>
      <trkpt lat="0" lon="0">
        <time>2021-02-28T09:23:23.473000+00:00</time>
      </trkpt>
      <trkpt lat="0" lon="0">
        <time>2021-02-28T09:23:23.476000+00:00</time>
      </trkpt>
      <trkpt lat="47.32441" lon="-1.43749">
        <ele>112</ele>
        <time>2021-02-28T09:23:24.503000+00:00</time>
      </trkpt>
      <trkpt lat="0" lon="0">
        <time>2021-02-28T09:23:24.510000+00:00</time>
      </trkpt>
      <trkpt lat="0" lon="0">
        <time>2021-02-28T09:23:24.517000+00:00</time>
      </trkpt>
      <trkpt lat="0" lon="0">
        <time>2021-02-28T09:23:24.520000+00:00</time>
      </trkpt>
      <trkpt lat="47.32439" lon="-1.43755">
        <ele>111</ele>
        <time>2021-02-28T09:23:25.520000+00:00</time>
      </trkpt>
      <trkpt lat="0" lon="0">
        <time>2021-02-28T09:23:25.530000+00:00</time>
      </trkpt>
      <trkpt lat="0" lon="0">
        <time>2021-02-28T09:23:25.540000+00:00</time>
      </trkpt>
      <trkpt lat="0" lon="0">
        <time>2021-02-28T09:23:25.543000+00:00</time>
      </trkpt>
      <trkpt lat="47.32437" lon="-1.43761">
        <ele>111</ele>
        <time>2021-02-28T09:23:26.421000+00:00</time>
      </trkpt>
      <trkpt lat="0" lon="0">
        <time>2021-02-28T09:23:26.426000+00:00</time>
      </trkpt>
      <trkpt lat="0" lon="0">
        <time>2021-02-28T09:23:26.431000+00:00</time>
      </trkpt>
      <trkpt lat="0" lon="0">
        <time>2021-02-28T09:23:26.433000+00:00</time>
      </trkpt>
      <trkpt lat="47.32435" lon="-1.43767">
        <ele>110</ele>
        <time>2021-02-28T09:23:27.480000+00:00</time>
      </trkpt>
      <trkpt lat="0" lon="0">
        <time>2021-02-28T09:23:27.487000+00:00</time>
      </trkpt>
      <trkpt lat="0" lon="0">
        <time>2021-02-28T09:23:27.493000+00:00</time>
      </trkpt>
      <trkpt lat="0" lon="0">
        <time>2021-02-28T09:23:27.496000+00:00</time>
      </trkpt>
      <trkpt lat="47.32432" lon="-1.43773">
        <ele>110</ele>
        <time>2021-02-28T09:23:28.501000+00:00</time>
      </trkpt>
      <trkpt lat="0" lon="0">
        <time>2021-02-28T09:23:28.511000+00:00</time>
      </trkpt>
      <trkpt lat="0" lon="0">
        <time>2021-02-28T09:23:28.516000+00:00</time>
      </trkpt>
      <trkpt lat="0" lon="0">
        <time>2021-02-28T09:23:28.518000+00:00</time>
      </trkpt>
      <trkpt lat="47.3243" lon="-1.43779">
        <ele>110</ele>
        <time>2021-02-28T09:23:29.468000+00:00</time>
      </trkpt>
      <trkpt lat="0" lon="0">
        <time>2021-02-28T09:23:29.486000+00:00</time>
      </trkpt>
      <trkpt lat="0" lon="0">
        <time>2021-02-28T09:23:29.495000+00:00</time>
      </trkpt>
      <trkpt lat="0" lon="0">
        <time>2021-02-28T09:23:29.499000+00:00</time>
      </trkpt>
      <trkpt lat="47.32428" lon="-1.43785">
        <ele>110</ele>
        <time>2021-02-28T09:23:30.491000+00:00</time>
      </trkpt>
      <trkpt lat="0" lon="0">
        <time>2021-02-28T09:23:30.498000+00:00</time>
      </trkpt>
      <trkpt lat="0" lon="0">
        <time>2021-02-28T09:23:30.502000+00:00</time>
      </trkpt>
      <trkpt lat="0" lon="0">
        <time>2021-02-28T09:23:30.505000+00:00</time>
      </trkpt>
      <trkpt lat="47.32425" lon="-1.43791">
        <ele>110</ele>
        <time>2021-02-28T09:23:31.517000+00:00</time>
      </trkpt>
      <trkpt lat="0" lon="0">
        <time>2021-02-28T09:23:31.522000+00:00</time>
      </trkpt>
      <trkpt lat="0" lon="0">
        <time>2021-02-28T09:23:31.527000+00:00</time>
      </trkpt>
      <trkpt lat="0" lon="0">
        <time>2021-02-28T09:23:31.529000+00:00</time>
      </trkpt>
      <trkpt lat="47.32422" lon="-1.43797">
        <ele>110</ele>
        <time>2021-02-28T09:23:32.458000+00:00</time>
      </trkpt>
      <trkpt lat="0" lon="0">
        <time>2021-02-28T09:23:32.466000+00:00</time>
      </trkpt>
      <trkpt lat="0" lon="0">
        <time>2021-02-28T09:23:32.472000+00:00</time>
      </trkpt>
      <trkpt lat="0" lon="0">
        <time>2021-02-28T09:23:32.475000+00:00</time>
      </trkpt>
      <trkpt lat="47.3242" lon="-1.43803">
        <ele>110</ele>
        <time>2021-02-28T09:23:33.505000+00:00</time>
      </trkpt>
      <trkpt lat="0" lon="0">
        <time>2021-02-28T09:23:33.519000+00:00</time>
      </trkpt>
      <trkpt lat="0" lon="0">
        <time>2021-02-28T09:23:33.527000+00:00</time>
      </trkpt>
      <trkpt lat="0" lon="0">
        <time>2021-02-28T09:23:33.529000+00:00</time>
      </trkpt>
      <trkpt lat="47.32417" lon="-1.43809">
        <ele>110</ele>
        <time>2021-02-28T09:23:34.480000+00:00</time>
      </trkpt>
      <trkpt lat="0" lon="0">
        <time>2021-02-28T09:23:34.489000+00:00</time>
      </trkpt>
      <trkpt lat="0" lon="0">
        <time>2021-02-28T09:23:34.493000+00:00</time>
      </trkpt>
      <trkpt lat="0" lon="0">
        <time>2021-02-28T09:23:34.499000+00:00</time>
      </trkpt>
      <trkpt lat="47.32415" lon="-1.43814">
        <ele>110</ele>
        <time>2021-02-28T09:23:35.480000+00:00</time>
      </trkpt>
      <trkpt lat="0" lon="0">
        <time>2021-02-28T09:23:35.493000+00:00</time>
      </trkpt>
      <trkpt lat="0" lon="0">
        <time>2021-02-28T09:23:35.502000+00:00</time>
      </trkpt>
      <trkpt lat="0" lon="0">
        <time>2021-02-28T09:23:35.505000+00:00</time>
      </trkpt>
      <trkpt lat="47.32412" lon="-1.43819">
        <ele>111</ele>
        <time>2021-02-28T09:23:36.475000+00:00</time>
      </trkpt>
      <trkpt lat="0" lon="0">
        <time>2021-02-28T09:23:36.480000+00:00</time>
      </trkpt>
      <trkpt lat="0" lon="0">
        <time>2021-02-28T09:23:36.485000+00:00</time>
      </trkpt>
      <trkpt lat="0" lon="0">
        <time>2021-02-28T09:23:36.487000+00:00</time>
      </trkpt>
      <trkpt lat="47.32409" lon="-1.43824">
        <ele>110</ele>
        <time>2021-02-28T09:23:37.495000+00:00</time>
      </trkpt>
      <trkpt lat="0" lon="0">
        <time>2021-02-28T09:23:37.501000+00:00</time>
      </trkpt>
      <trkpt lat="0" lon="0">
        <time>2021-02-28T09:23:37.506000+00:00</time>
      </trkpt>
      <trkpt lat="0" lon="0">
        <time>2021-02-28T09:23:37.508000+00:00</time>
      </trkpt>
      <trkpt lat="47.32407" lon="-1.43829">
        <ele>110</ele>
        <time>2021-02-28T09:23:38.487000+00:00</time>
      </trkpt>
      <trkpt lat="0" lon="0">
        <time>2021-02-28T09:23:38.502000+00:00</time>
      </trkpt>
      <trkpt lat="0" lon="0">
        <time>2021-02-28T09:23:38.508000+00:00</time>
      </trkpt>
      <trkpt lat="0" lon="0">
        <time>2021-02-28T09:23:38.511000+00:00</time>
      </trkpt>
      <trkpt lat="47.32404" lon="-1.43834">
        <ele>110</ele>
        <time>2021-02-28T09:23:39.499000+00:00</time>
      </trkpt>
      <trkpt lat="0" lon="0">
        <time>2021-02-28T09:23:39.511000+00:00</time>
      </trkpt>
      <trkpt lat="0" lon="0">
        <time>2021-02-28T09:23:39.519000+00:00</time>
      </trkpt>
      <trkpt lat="0" lon="0">
        <time>2021-02-28T09:23:39.523000+00:00</time>
      </trkpt>
      <trkpt lat="47.32402" lon="-1.43839">
        <ele>111</ele>
        <time>2021-02-28T09:23:40.487000+00:00</time>
      </trkpt>
      <trkpt lat="0" lon="0">
        <time>2021-02-28T09:23:40.497000+00:00</time>
      </trkpt>
      <trkpt lat="0" lon="0">
        <time>2021-02-28T09:23:40.501000+00:00</time>
      </trkpt>
      <trkpt lat="0" lon="0">
        <time>2021-02-28T09:23:40.503000+00:00</time>
      </trkpt>
      <trkpt lat="47.32399" lon="-1.43844">
        <ele>111</ele>
        <time>2021-02-28T09:23:41.467000+00:00</time>
      </trkpt>
      <trkpt lat="0" lon="0">
        <time>2021-02-28T09:23:41.476000+00:00</time>
      </trkpt>
      <trkpt lat="0" lon="0">
        <time>2021-02-28T09:23:41.482000+00:00</time>
      </trkpt>
      <trkpt lat="0" lon="0">
        <time>2021-02-28T09:23:41.485000+00:00</time>
      </trkpt>
      <trkpt lat="47.32396" lon="-1.43849">
        <ele>111</ele>
        <time>2021-02-28T09:23:42.472000+00:00</time>
      </trkpt>
      <trkpt lat="0" lon="0">
        <time>2021-02-28T09:23:42.478000+00:00</time>
      </trkpt>
      <trkpt lat="0" lon="0">
        <time>2021-02-28T09:23:42.485000+00:00</time>
      </trkpt>
      <trkpt lat="0" lon="0">
        <time>2021-02-28T09:23:42.487000+00:00</time>
      </trkpt>
      <trkpt lat="47.32394" lon="-1.43854">
        <ele>111</ele>
        <time>2021-02-28T09:23:43.489000+00:00</time>
      </trkpt>
      <trkpt lat="0" lon="0">
        <time>2021-02-28T09:23:43.497000+00:00</time>
      </trkpt>
      <trkpt lat="0" lon="0">
        <time>2021-02-28T09:23:43.503000+00:00</time>
      </trkpt>
      <trkpt lat="0" lon="0">
        <time>2021-02-28T09:23:43.506000+00:00</time>
      </trkpt>
      <trkpt lat="47.32391" lon="-1.43859">
        <ele>111</ele>
        <time>2021-02-28T09:23:44.480000+00:00</time>
      </trkpt>
      <trkpt lat="0" lon="0">
        <time>2021-02-28T09:23:44.489000+00:00</time>
      </trkpt>
      <trkpt lat="0" lon="0">
        <time>2021-02-28T09:23:44.497000+00:00</time>
      </trkpt>
      <trkpt lat="0" lon="0">
        <time>2021-02-28T09:23:44.500000+00:00</time>
      </trkpt>
      <trkpt lat="47.32388" lon="-1.43864">
        <ele>111</ele>
        <time>2021-02-28T09:23:45.452000+00:00</time>
      </trkpt>
      <trkpt lat="0" lon="0">
        <time>2021-02-28T09:23:45.461000+00:00</time>
      </trkpt>
      <trkpt lat="0" lon="0">
        <time>2021-02-28T09:23:45.467000+00:00</time>
      </trkpt>
      <trkpt lat="0" lon="0">
        <time>2021-02-28T09:23:45.470000+00:00</time>
      </trkpt>
      <trkpt lat="47.32386" lon="-1.4387">
        <ele>111</ele>
        <time>2021-02-28T09:23:46.488000+00:00</time>
      </trkpt>
      <trkpt lat="0" lon="0">
        <time>2021-02-28T09:23:46.501000+00:00</time>
      </trkpt>
      <trkpt lat="0" lon="0">
        <time>2021-02-28T09:23:46.510000+00:00</time>
      </trkpt>
      <trkpt lat="0" lon="0">
        <time>2021-02-28T09:23:46.513000+00:00</time>
      </trkpt>
      <trkpt lat="47.32383" lon="-1.43875">
        <ele>110</ele>
        <time>2021-02-28T09:23:47.467000+00:00</time>
      </trkpt>
      <trkpt lat="0" lon="0">
        <time>2021-02-28T09:23:47.475000+00:00</time>
      </trkpt>
      <trkpt lat="0" lon="0">
        <time>2021-02-28T09:23:47.481000+00:00</time>
      </trkpt>
      <trkpt lat="0" lon="0">
        <time>2021-02-28T09:23:47.485000+00:00</time>
      </trkpt>
      <trkpt lat="47.3238" lon="-1.43881">
        <ele>110</ele>
        <time>2021-02-28T09:23:48.458000+00:00</time>
      </trkpt>
      <trkpt lat="0" lon="0">
        <time>2021-02-28T09:23:48.461000+00:00</time>
      </trkpt>
      <trkpt lat="0" lon="0">
        <time>2021-02-28T09:23:48.467000+00:00</time>
      </trkpt>
      <trkpt lat="0" lon="0">
        <time>2021-02-28T09:23:48.470000+00:00</time>
      </trkpt>
      <trkpt lat="47.32377" lon="-1.43887">
        <ele>110</ele>
        <time>2021-02-28T09:23:49.502000+00:00</time>
      </trkpt>
      <trkpt lat="0" lon="0">
        <time>2021-02-28T09:23:49.512000+00:00</time>
      </trkpt>
      <trkpt lat="0" lon="0">
        <time>2021-02-28T09:23:49.519000+00:00</time>
      </trkpt>
      <trkpt lat="0" lon="0">
        <time>2021-02-28T09:23:49.522000+00:00</time>
      </trkpt>
      <trkpt lat="47.32374" lon="-1.43892">
        <ele>110</ele>
        <time>2021-02-28T09:23:50.447000+00:00</time>
      </trkpt>
      <trkpt lat="0" lon="0">
        <time>2021-02-28T09:23:50.454000+00:00</time>
      </trkpt>
      <trkpt lat="0" lon="0">
        <time>2021-02-28T09:23:50.462000+00:00</time>
      </trkpt>
      <trkpt lat="0" lon="0">
        <time>2021-02-28T09:23:50.465000+00:00</time>
      </trkpt>
      <trkpt lat="47.32372" lon="-1.43898">
        <ele>110</ele>
        <time>2021-02-28T09:23:51.472000+00:00</time>
      </trkpt>
      <trkpt lat="0" lon="0">
        <time>2021-02-28T09:23:51.480000+00:00</time>
      </trkpt>
      <trkpt lat="0" lon="0">
        <time>2021-02-28T09:23:51.486000+00:00</time>
      </trkpt>
      <trkpt lat="0" lon="0">
        <time>2021-02-28T09:23:51.489000+00:00</time>
      </trkpt>
      <trkpt lat="47.32369" lon="-1.43904">
        <ele>111</ele>
        <time>2021-02-28T09:23:52.478000+00:00</time>
      </trkpt>
      <trkpt lat="0" lon="0">
        <time>2021-02-28T09:23:52.485000+00:00</time>
      </trkpt>
      <trkpt lat="0" lon="0">
        <time>2021-02-28T09:23:52.490000+00:00</time>
      </trkpt>
      <trkpt lat="0" lon="0">
        <time>2021-02-28T09:23:52.494000+00:00</time>
      </trkpt>
      <trkpt lat="47.32366" lon="-1.43909">
        <ele>110</ele>
        <time>2021-02-28T09:23:53.485000+00:00</time>
      </trkpt>
      <trkpt lat="0" lon="0">
        <time>2021-02-28T09:23:53.494000+00:00</time>
      </trkpt>
      <trkpt lat="0" lon="0">
        <time>2021-02-28T09:23:53.501000+00:00</time>
      </trkpt>
      <trkpt lat="0" lon="0">
        <time>2021-02-28T09:23:53.505000+00:00</time>
      </trkpt>
      <trkpt lat="47.32363" lon="-1.43915">
        <ele>110</ele>
        <time>2021-02-28T09:23:54.479000+00:00</time>
      </trkpt>
      <trkpt lat="0" lon="0">
        <time>2021-02-28T09:23:54.488000+00:00</time>
      </trkpt>
      <trkpt lat="0" lon="0">
        <time>2021-02-28T09:23:54.493000+00:00</time>
      </trkpt>
      <trkpt lat="0" lon="0">
        <time>2021-02-28T09:23:54.496000+00:00</time>
      </trkpt>
      <trkpt lat="47.3236" lon="-1.4392">
        <ele>111</ele>
        <time>2021-02-28T09:23:55.432000+00:00</time>
      </trkpt>
      <trkpt lat="0" lon="0">
        <time>2021-02-28T09:23:55.444000+00:00</time>
      </trkpt>
      <trkpt lat="0" lon="0">
        <time>2021-02-28T09:23:55.448000+00:00</time>
      </trkpt>
      <trkpt lat="0" lon="0">
        <time>2021-02-28T09:23:55.451000+00:00</time>
      </trkpt>
      <trkpt lat="47.32357" lon="-1.43926">
        <ele>111</ele>
        <time>2021-02-28T09:23:56.456000+00:00</time>
      </trkpt>
      <trkpt lat="0" lon="0">
        <time>2021-02-28T09:23:56.463000+00:00</time>
      </trkpt>
      <trkpt lat="0" lon="0">
        <time>2021-02-28T09:23:56.468000+00:00</time>
      </trkpt>
      <trkpt lat="0" lon="0">
        <time>2021-02-28T09:23:56.470000+00:00</time>
      </trkpt>
      <trkpt lat="47.32354" lon="-1.43932">
        <ele>111</ele>
        <time>2021-02-28T09:23:57.501000+00:00</time>
      </trkpt>
      <trkpt lat="0" lon="0">
        <time>2021-02-28T09:23:57.509000+00:00</time>
      </trkpt>
      <trkpt lat="0" lon="0">
        <time>2021-02-28T09:23:57.514000+00:00</time>
      </trkpt>
      <trkpt lat="0" lon="0">
        <time>2021-02-28T09:23:57.517000+00:00</time>
      </trkpt>
      <trkpt lat="47.3235" lon="-1.43938">
        <ele>111</ele>
        <time>2021-02-28T09:23:58.460000+00:00</time>
      </trkpt>
      <trkpt lat="0" lon="0">
        <time>2021-02-28T09:23:58.471000+00:00</time>
      </trkpt>
      <trkpt lat="0" lon="0">
        <time>2021-02-28T09:23:58.476000+00:00</time>
      </trkpt>
      <trkpt lat="0" lon="0">
        <time>2021-02-28T09:23:58.479000+00:00</time>
      </trkpt>
      <trkpt lat="47.32347" lon="-1.43944">
        <ele>111</ele>
        <time>2021-02-28T09:23:59.472000+00:00</time>
      </trkpt>
      <trkpt lat="0" lon="0">
        <time>2021-02-28T09:23:59.478000+00:00</time>
      </trkpt>
      <trkpt lat="0" lon="0">
        <time>2021-02-28T09:23:59.484000+00:00</time>
      </trkpt>
      <trkpt lat="0" lon="0">
        <time>2021-02-28T09:23:59.488000+00:00</time>
      </trkpt>
      <trkpt lat="47.32344" lon="-1.4395">
        <ele>111</ele>
        <time>2021-02-28T09:24:00.448000+00:00</time>
      </trkpt>
      <trkpt lat="0" lon="0">
        <time>2021-02-28T09:24:00.453000+00:00</time>
      </trkpt>
      <trkpt lat="0" lon="0">
        <time>2021-02-28T09:24:00.458000+00:00</time>
      </trkpt>
      <trkpt lat="0" lon="0">
        <time>2021-02-28T09:24:00.461000+00:00</time>
      </trkpt>
      <trkpt lat="47.3234" lon="-1.43956">
        <ele>112</ele>
        <time>2021-02-28T09:24:01.464000+00:00</time>
      </trkpt>
      <trkpt lat="0" lon="0">
        <time>2021-02-28T09:24:01.470000+00:00</time>
      </trkpt>
      <trkpt lat="0" lon="0">
        <time>2021-02-28T09:24:01.476000+00:00</time>
      </trkpt>
      <trkpt lat="0" lon="0">
        <time>2021-02-28T09:24:01.478000+00:00</time>
      </trkpt>
      <trkpt lat="47.32337" lon="-1.43962">
        <ele>112</ele>
        <time>2021-02-28T09:24:02.457000+00:00</time>
      </trkpt>
      <trkpt lat="0" lon="0">
        <time>2021-02-28T09:24:02.473000+00:00</time>
      </trkpt>
      <trkpt lat="0" lon="0">
        <time>2021-02-28T09:24:02.478000+00:00</time>
      </trkpt>
      <trkpt lat="0" lon="0">
        <time>2021-02-28T09:24:02.481000+00:00</time>
      </trkpt>
      <trkpt lat="47.32334" lon="-1.43969">
        <ele>112</ele>
        <time>2021-02-28T09:24:03.492000+00:00</time>
      </trkpt>
      <trkpt lat="0" lon="0">
        <time>2021-02-28T09:24:03.503000+00:00</time>
      </trkpt>
      <trkpt lat="0" lon="0">
        <time>2021-02-28T09:24:03.511000+00:00</time>
      </trkpt>
      <trkpt lat="0" lon="0">
        <time>2021-02-28T09:24:03.515000+00:00</time>
      </trkpt>
      <trkpt lat="47.32331" lon="-1.43975">
        <ele>112</ele>
        <time>2021-02-28T09:24:04.480000+00:00</time>
      </trkpt>
      <trkpt lat="0" lon="0">
        <time>2021-02-28T09:24:04.493000+00:00</time>
      </trkpt>
      <trkpt lat="0" lon="0">
        <time>2021-02-28T09:24:04.501000+00:00</time>
      </trkpt>
      <trkpt lat="0" lon="0">
        <time>2021-02-28T09:24:04.504000+00:00</time>
      </trkpt>
      <trkpt lat="47.32327" lon="-1.43982">
        <ele>112</ele>
        <time>2021-02-28T09:24:05.463000+00:00</time>
      </trkpt>
      <trkpt lat="0" lon="0">
        <time>2021-02-28T09:24:05.470000+00:00</time>
      </trkpt>
      <trkpt lat="0" lon="0">
        <time>2021-02-28T09:24:05.475000+00:00</time>
      </trkpt>
      <trkpt lat="0" lon="0">
        <time>2021-02-28T09:24:05.480000+00:00</time>
      </trkpt>
      <trkpt lat="47.32324" lon="-1.43988">
        <ele>112</ele>
        <time>2021-02-28T09:24:06.470000+00:00</time>
      </trkpt>
      <trkpt lat="0" lon="0">
        <time>2021-02-28T09:24:06.475000+00:00</time>
      </trkpt>
      <trkpt lat="0" lon="0">
        <time>2021-02-28T09:24:06.480000+00:00</time>
      </trkpt>
      <trkpt lat="0" lon="0">
        <time>2021-02-28T09:24:06.483000+00:00</time>
      </trkpt>
      <trkpt lat="47.3232" lon="-1.43994">
        <ele>112</ele>
        <time>2021-02-28T09:24:07.473000+00:00</time>
      </trkpt>
      <trkpt lat="0" lon="0">
        <time>2021-02-28T09:24:07.483000+00:00</time>
      </trkpt>
      <trkpt lat="0" lon="0">
        <time>2021-02-28T09:24:07.488000+00:00</time>
      </trkpt>
      <trkpt lat="0" lon="0">
        <time>2021-02-28T09:24:07.491000+00:00</time>
      </trkpt>
      <trkpt lat="47.32317" lon="-1.44">
        <ele>112</ele>
        <time>2021-02-28T09:24:08.439000+00:00</time>
      </trkpt>
      <trkpt lat="0" lon="0">
        <time>2021-02-28T09:24:08.445000+00:00</time>
      </trkpt>
      <trkpt lat="0" lon="0">
        <time>2021-02-28T09:24:08.455000+00:00</time>
      </trkpt>
      <trkpt lat="0" lon="0">
        <time>2021-02-28T09:24:08.458000+00:00</time>
      </trkpt>
      <trkpt lat="47.32313" lon="-1.44006">
        <ele>111</ele>
        <time>2021-02-28T09:24:09.476000+00:00</time>
      </trkpt>
      <trkpt lat="0" lon="0">
        <time>2021-02-28T09:24:09.486000+00:00</time>
      </trkpt>
      <trkpt lat="0" lon="0">
        <time>2021-02-28T09:24:09.490000+00:00</time>
      </trkpt>
      <trkpt lat="0" lon="0">
        <time>2021-02-28T09:24:09.492000+00:00</time>
      </trkpt>
      <trkpt lat="47.3231" lon="-1.44012">
        <ele>112</ele>
        <time>2021-02-28T09:24:10.469000+00:00</time>
      </trkpt>
      <trkpt lat="0" lon="0">
        <time>2021-02-28T09:24:10.471000+00:00</time>
      </trkpt>
      <trkpt lat="0" lon="0">
        <time>2021-02-28T09:24:10.474000+00:00</time>
      </trkpt>
      <trkpt lat="0" lon="0">
        <time>2021-02-28T09:24:10.475000+00:00</time>
      </trkpt>
      <trkpt lat="47.32306" lon="-1.44018">
        <ele>112</ele>
        <time>2021-02-28T09:24:11.514000+00:00</time>
      </trkpt>
      <trkpt lat="0" lon="0">
        <time>2021-02-28T09:24:11.522000+00:00</time>
      </trkpt>
      <trkpt lat="0" lon="0">
        <time>2021-02-28T09:24:11.526000+00:00</time>
      </trkpt>
      <trkpt lat="0" lon="0">
        <time>2021-02-28T09:24:11.528000+00:00</time>
      </trkpt>
      <trkpt lat="47.32302" lon="-1.44024">
        <ele>112</ele>
        <time>2021-02-28T09:24:12.441000+00:00</time>
      </trkpt>
      <trkpt lat="0" lon="0">
        <time>2021-02-28T09:24:12.447000+00:00</time>
      </trkpt>
      <trkpt lat="0" lon="0">
        <time>2021-02-28T09:24:12.452000+00:00</time>
      </trkpt>
      <trkpt lat="0" lon="0">
        <time>2021-02-28T09:24:12.454000+00:00</time>
      </trkpt>
      <trkpt lat="47.32298" lon="-1.4403">
        <ele>112</ele>
        <time>2021-02-28T09:24:13.478000+00:00</time>
      </trkpt>
      <trkpt lat="0" lon="0">
        <time>2021-02-28T09:24:13.486000+00:00</time>
      </trkpt>
      <trkpt lat="0" lon="0">
        <time>2021-02-28T09:24:13.495000+00:00</time>
      </trkpt>
      <trkpt lat="0" lon="0">
        <time>2021-02-28T09:24:13.498000+00:00</time>
      </trkpt>
      <trkpt lat="47.32295" lon="-1.44037">
        <ele>112</ele>
        <time>2021-02-28T09:24:14.478000+00:00</time>
      </trkpt>
      <trkpt lat="0" lon="0">
        <time>2021-02-28T09:24:14.483000+00:00</time>
      </trkpt>
      <trkpt lat="0" lon="0">
        <time>2021-02-28T09:24:14.485000+00:00</time>
      </trkpt>
      <trkpt lat="0" lon="0">
        <time>2021-02-28T09:24:14.486000+00:00</time>
      </trkpt>
      <trkpt lat="47.32291" lon="-1.44044">
        <ele>112</ele>
        <time>2021-02-28T09:24:15.486000+00:00</time>
      </trkpt>
      <trkpt lat="0" lon="0">
        <time>2021-02-28T09:24:15.491000+00:00</time>
      </trkpt>
      <trkpt lat="0" lon="0">
        <time>2021-02-28T09:24:15.497000+00:00</time>
      </trkpt>
      <trkpt lat="0" lon="0">
        <time>2021-02-28T09:24:15.502000+00:00</time>
      </trkpt>
      <trkpt lat="47.32287" lon="-1.44051">
        <ele>111</ele>
        <time>2021-02-28T09:24:16.498000+00:00</time>
      </trkpt>
      <trkpt lat="0" lon="0">
        <time>2021-02-28T09:24:16.509000+00:00</time>
      </trkpt>
      <trkpt lat="0" lon="0">
        <time>2021-02-28T09:24:16.516000+00:00</time>
      </trkpt>
      <trkpt lat="0" lon="0">
        <time>2021-02-28T09:24:16.520000+00:00</time>
      </trkpt>
      <trkpt lat="47.32283" lon="-1.44058">
        <ele>111</ele>
        <time>2021-02-28T09:24:17.499000+00:00</time>
      </trkpt>
      <trkpt lat="0" lon="0">
        <time>2021-02-28T09:24:17.504000+00:00</time>
      </trkpt>
      <trkpt lat="0" lon="0">
        <time>2021-02-28T09:24:17.509000+00:00</time>
      </trkpt>
      <trkpt lat="0" lon="0">
        <time>2021-02-28T09:24:17.514000+00:00</time>
      </trkpt>
      <trkpt lat="47.32279" lon="-1.44064">
        <ele>112</ele>
        <time>2021-02-28T09:24:18.485000+00:00</time>
      </trkpt>
      <trkpt lat="0" lon="0">
        <time>2021-02-28T09:24:18.492000+00:00</time>
      </trkpt>
      <trkpt lat="0" lon="0">
        <time>2021-02-28T09:24:18.498000+00:00</time>
      </trkpt>
      <trkpt lat="0" lon="0">
        <time>2021-02-28T09:24:18.501000+00:00</time>
      </trkpt>
      <trkpt lat="47.32275" lon="-1.44071">
        <ele>112</ele>
        <time>2021-02-28T09:24:19.514000+00:00</time>
      </trkpt>
      <trkpt lat="0" lon="0">
        <time>2021-02-28T09:24:19.521000+00:00</time>
      </trkpt>
      <trkpt lat="0" lon="0">
        <time>2021-02-28T09:24:19.526000+00:00</time>
      </trkpt>
      <trkpt lat="0" lon="0">
        <time>2021-02-28T09:24:19.529000+00:00</time>
      </trkpt>
      <trkpt lat="47.32271" lon="-1.44078">
        <ele>112</ele>
        <time>2021-02-28T09:24:20.501000+00:00</time>
      </trkpt>
      <trkpt lat="0" lon="0">
        <time>2021-02-28T09:24:20.503000+00:00</time>
      </trkpt>
      <trkpt lat="0" lon="0">
        <time>2021-02-28T09:24:20.505000+00:00</time>
      </trkpt>
      <trkpt lat="0" lon="0">
        <time>2021-02-28T09:24:20.507000+00:00</time>
      </trkpt>
      <trkpt lat="47.32268" lon="-1.44085">
        <ele>113</ele>
        <time>2021-02-28T09:24:21.444000+00:00</time>
      </trkpt>
      <trkpt lat="0" lon="0">
        <time>2021-02-28T09:24:21.454000+00:00</time>
      </trkpt>
      <trkpt lat="0" lon="0">
        <time>2021-02-28T09:24:21.459000+00:00</time>
      </trkpt>
      <trkpt lat="0" lon="0">
        <time>2021-02-28T09:24:21.462000+00:00</time>
      </trkpt>
      <trkpt lat="47.32264" lon="-1.44091">
        <ele>113</ele>
        <time>2021-02-28T09:24:22.477000+00:00</time>
      </trkpt>
      <trkpt lat="0" lon="0">
        <time>2021-02-28T09:24:22.489000+00:00</time>
      </trkpt>
      <trkpt lat="0" lon="0">
        <time>2021-02-28T09:24:22.498000+00:00</time>
      </trkpt>
      <trkpt lat="0" lon="0">
        <time>2021-02-28T09:24:22.501000+00:00</time>
      </trkpt>
      <trkpt lat="47.3226" lon="-1.44098">
        <ele>113</ele>
        <time>2021-02-28T09:24:23.479000+00:00</time>
      </trkpt>
      <trkpt lat="0" lon="0">
        <time>2021-02-28T09:24:23.498000+00:00</time>
      </trkpt>
      <trkpt lat="0" lon="0">
        <time>2021-02-28T09:24:23.504000+00:00</time>
      </trkpt>
      <trkpt lat="0" lon="0">
        <time>2021-02-28T09:24:23.508000+00:00</time>
      </trkpt>
      <trkpt lat="47.32257" lon="-1.44105">
        <ele>113</ele>
        <time>2021-02-28T09:24:24.459000+00:00</time>
      </trkpt>
      <trkpt lat="0" lon="0">
        <time>2021-02-28T09:24:24.471000+00:00</time>
      </trkpt>
      <trkpt lat="0" lon="0">
        <time>2021-02-28T09:24:24.476000+00:00</time>
      </trkpt>
      <trkpt lat="0" lon="0">
        <time>2021-02-28T09:24:24.479000+00:00</time>
      </trkpt>
      <trkpt lat="47.32253" lon="-1.44111">
        <ele>114</ele>
        <time>2021-02-28T09:24:25.451000+00:00</time>
      </trkpt>
      <trkpt lat="0" lon="0">
        <time>2021-02-28T09:24:25.466000+00:00</time>
      </trkpt>
      <trkpt lat="0" lon="0">
        <time>2021-02-28T09:24:25.472000+00:00</time>
      </trkpt>
      <trkpt lat="0" lon="0">
        <time>2021-02-28T09:24:25.476000+00:00</time>
      </trkpt>
      <trkpt lat="47.32249" lon="-1.44118">
        <ele>114</ele>
        <time>2021-02-28T09:24:26.459000+00:00</time>
      </trkpt>
      <trkpt lat="0" lon="0">
        <time>2021-02-28T09:24:26.469000+00:00</time>
      </trkpt>
      <trkpt lat="0" lon="0">
        <time>2021-02-28T09:24:26.478000+00:00</time>
      </trkpt>
      <trkpt lat="0" lon="0">
        <time>2021-02-28T09:24:26.480000+00:00</time>
      </trkpt>
      <trkpt lat="47.32245" lon="-1.44125">
        <ele>114</ele>
        <time>2021-02-28T09:24:27.488000+00:00</time>
      </trkpt>
      <trkpt lat="0" lon="0">
        <time>2021-02-28T09:24:27.495000+00:00</time>
      </trkpt>
      <trkpt lat="0" lon="0">
        <time>2021-02-28T09:24:27.500000+00:00</time>
      </trkpt>
      <trkpt lat="0" lon="0">
        <time>2021-02-28T09:24:27.502000+00:00</time>
      </trkpt>
      <trkpt lat="47.32241" lon="-1.44131">
        <ele>114</ele>
        <time>2021-02-28T09:24:28.461000+00:00</time>
      </trkpt>
      <trkpt lat="0" lon="0">
        <time>2021-02-28T09:24:28.468000+00:00</time>
      </trkpt>
      <trkpt lat="0" lon="0">
        <time>2021-02-28T09:24:28.472000+00:00</time>
      </trkpt>
      <trkpt lat="0" lon="0">
        <time>2021-02-28T09:24:28.474000+00:00</time>
      </trkpt>
      <trkpt lat="47.32237" lon="-1.44138">
        <ele>114</ele>
        <time>2021-02-28T09:24:29.456000+00:00</time>
      </trkpt>
      <trkpt lat="0" lon="0">
        <time>2021-02-28T09:24:29.479000+00:00</time>
      </trkpt>
      <trkpt lat="0" lon="0">
        <time>2021-02-28T09:24:29.482000+00:00</time>
      </trkpt>
      <trkpt lat="0" lon="0">
        <time>2021-02-28T09:24:29.485000+00:00</time>
      </trkpt>
      <trkpt lat="47.32234" lon="-1.44144">
        <ele>114</ele>
        <time>2021-02-28T09:24:30.477000+00:00</time>
      </trkpt>
      <trkpt lat="0" lon="0">
        <time>2021-02-28T09:24:30.482000+00:00</time>
      </trkpt>
      <trkpt lat="0" lon="0">
        <time>2021-02-28T09:24:30.486000+00:00</time>
      </trkpt>
      <trkpt lat="0" lon="0">
        <time>2021-02-28T09:24:30.489000+00:00</time>
      </trkpt>
      <trkpt lat="47.3223" lon="-1.4415">
        <ele>113</ele>
        <time>2021-02-28T09:24:31.470000+00:00</time>
      </trkpt>
      <trkpt lat="0" lon="0">
        <time>2021-02-28T09:24:31.472000+00:00</time>
      </trkpt>
      <trkpt lat="0" lon="0">
        <time>2021-02-28T09:24:31.477000+00:00</time>
      </trkpt>
      <trkpt lat="0" lon="0">
        <time>2021-02-28T09:24:31.480000+00:00</time>
      </trkpt>
      <trkpt lat="47.32226" lon="-1.44156">
        <ele>114</ele>
        <time>2021-02-28T09:24:32.492000+00:00</time>
      </trkpt>
      <trkpt lat="0" lon="0">
        <time>2021-02-28T09:24:32.496000+00:00</time>
      </trkpt>
      <trkpt lat="0" lon="0">
        <time>2021-02-28T09:24:32.501000+00:00</time>
      </trkpt>
      <trkpt lat="0" lon="0">
        <time>2021-02-28T09:24:32.502000+00:00</time>
      </trkpt>
      <trkpt lat="47.32222" lon="-1.44162">
        <ele>114</ele>
        <time>2021-02-28T09:24:33.483000+00:00</time>
      </trkpt>
      <trkpt lat="0" lon="0">
        <time>2021-02-28T09:24:33.493000+00:00</time>
      </trkpt>
      <trkpt lat="0" lon="0">
        <time>2021-02-28T09:24:33.498000+00:00</time>
      </trkpt>
      <trkpt lat="0" lon="0">
        <time>2021-02-28T09:24:33.501000+00:00</time>
      </trkpt>
      <trkpt lat="47.32218" lon="-1.44169">
        <ele>114</ele>
        <time>2021-02-28T09:24:34.461000+00:00</time>
      </trkpt>
      <trkpt lat="0" lon="0">
        <time>2021-02-28T09:24:34.465000+00:00</time>
      </trkpt>
      <trkpt lat="0" lon="0">
        <time>2021-02-28T09:24:34.472000+00:00</time>
      </trkpt>
      <trkpt lat="0" lon="0">
        <time>2021-02-28T09:24:34.474000+00:00</time>
      </trkpt>
      <trkpt lat="47.32214" lon="-1.44175">
        <ele>114</ele>
        <time>2021-02-28T09:24:35.473000+00:00</time>
      </trkpt>
      <trkpt lat="0" lon="0">
        <time>2021-02-28T09:24:35.480000+00:00</time>
      </trkpt>
      <trkpt lat="0" lon="0">
        <time>2021-02-28T09:24:35.488000+00:00</time>
      </trkpt>
      <trkpt lat="0" lon="0">
        <time>2021-02-28T09:24:35.496000+00:00</time>
      </trkpt>
      <trkpt lat="47.3221" lon="-1.44182">
        <ele>114</ele>
        <time>2021-02-28T09:24:36.474000+00:00</time>
      </trkpt>
      <trkpt lat="0" lon="0">
        <time>2021-02-28T09:24:36.485000+00:00</time>
      </trkpt>
      <trkpt lat="0" lon="0">
        <time>2021-02-28T09:24:36.489000+00:00</time>
      </trkpt>
      <trkpt lat="0" lon="0">
        <time>2021-02-28T09:24:36.492000+00:00</time>
      </trkpt>
      <trkpt lat="47.32206" lon="-1.44188">
        <ele>114</ele>
        <time>2021-02-28T09:24:37.465000+00:00</time>
      </trkpt>
      <trkpt lat="0" lon="0">
        <time>2021-02-28T09:24:37.468000+00:00</time>
      </trkpt>
      <trkpt lat="0" lon="0">
        <time>2021-02-28T09:24:37.474000+00:00</time>
      </trkpt>
      <trkpt lat="0" lon="0">
        <time>2021-02-28T09:24:37.476000+00:00</time>
      </trkpt>
      <trkpt lat="47.32202" lon="-1.44194">
        <ele>114</ele>
        <time>2021-02-28T09:24:38.460000+00:00</time>
      </trkpt>
      <trkpt lat="0" lon="0">
        <time>2021-02-28T09:24:38.469000+00:00</time>
      </trkpt>
      <trkpt lat="0" lon="0">
        <time>2021-02-28T09:24:38.474000+00:00</time>
      </trkpt>
      <trkpt lat="0" lon="0">
        <time>2021-02-28T09:24:38.477000+00:00</time>
      </trkpt>
      <trkpt lat="47.32198" lon="-1.44201">
        <ele>114</ele>
        <time>2021-02-28T09:24:39.456000+00:00</time>
      </trkpt>
      <trkpt lat="0" lon="0">
        <time>2021-02-28T09:24:39.460000+00:00</time>
      </trkpt>
      <trkpt lat="0" lon="0">
        <time>2021-02-28T09:24:39.464000+00:00</time>
      </trkpt>
      <trkpt lat="0" lon="0">
        <time>2021-02-28T09:24:39.467000+00:00</time>
      </trkpt>
      <trkpt lat="47.32194" lon="-1.44208">
        <ele>114</ele>
        <time>2021-02-28T09:24:40.464000+00:00</time>
      </trkpt>
      <trkpt lat="0" lon="0">
        <time>2021-02-28T09:24:40.479000+00:00</time>
      </trkpt>
      <trkpt lat="0" lon="0">
        <time>2021-02-28T09:24:40.484000+00:00</time>
      </trkpt>
      <trkpt lat="0" lon="0">
        <time>2021-02-28T09:24:40.488000+00:00</time>
      </trkpt>
      <trkpt lat="47.3219" lon="-1.44214">
        <ele>114</ele>
        <time>2021-02-28T09:24:41.445000+00:00</time>
      </trkpt>
      <trkpt lat="0" lon="0">
        <time>2021-02-28T09:24:41.452000+00:00</time>
      </trkpt>
      <trkpt lat="0" lon="0">
        <time>2021-02-28T09:24:41.457000+00:00</time>
      </trkpt>
      <trkpt lat="0" lon="0">
        <time>2021-02-28T09:24:41.460000+00:00</time>
      </trkpt>
      <trkpt lat="47.32186" lon="-1.44221">
        <ele>114</ele>
        <time>2021-02-28T09:24:42.460000+00:00</time>
      </trkpt>
      <trkpt lat="0" lon="0">
        <time>2021-02-28T09:24:42.468000+00:00</time>
      </trkpt>
      <trkpt lat="0" lon="0">
        <time>2021-02-28T09:24:42.474000+00:00</time>
      </trkpt>
      <trkpt lat="0" lon="0">
        <time>2021-02-28T09:24:42.477000+00:00</time>
      </trkpt>
      <trkpt lat="47.32182" lon="-1.44228">
        <ele>114</ele>
        <time>2021-02-28T09:24:43.484000+00:00</time>
      </trkpt>
      <trkpt lat="0" lon="0">
        <time>2021-02-28T09:24:43.502000+00:00</time>
      </trkpt>
      <trkpt lat="0" lon="0">
        <time>2021-02-28T09:24:43.509000+00:00</time>
      </trkpt>
      <trkpt lat="0" lon="0">
        <time>2021-02-28T09:24:43.512000+00:00</time>
      </trkpt>
      <trkpt lat="47.32178" lon="-1.44234">
        <ele>114</ele>
        <time>2021-02-28T09:24:44.462000+00:00</time>
      </trkpt>
      <trkpt lat="0" lon="0">
        <time>2021-02-28T09:24:44.482000+00:00</time>
      </trkpt>
      <trkpt lat="0" lon="0">
        <time>2021-02-28T09:24:44.486000+00:00</time>
      </trkpt>
      <trkpt lat="0" lon="0">
        <time>2021-02-28T09:24:44.489000+00:00</time>
      </trkpt>
      <trkpt lat="47.32174" lon="-1.44241">
        <ele>114</ele>
        <time>2021-02-28T09:24:45.487000+00:00</time>
      </trkpt>
      <trkpt lat="0" lon="0">
        <time>2021-02-28T09:24:45.494000+00:00</time>
      </trkpt>
      <trkpt lat="0" lon="0">
        <time>2021-02-28T09:24:45.499000+00:00</time>
      </trkpt>
      <trkpt lat="0" lon="0">
        <time>2021-02-28T09:24:45.502000+00:00</time>
      </trkpt>
      <trkpt lat="47.3217" lon="-1.44247">
        <ele>114</ele>
        <time>2021-02-28T09:24:46.481000+00:00</time>
      </trkpt>
      <trkpt lat="0" lon="0">
        <time>2021-02-28T09:24:46.491000+00:00</time>
      </trkpt>
      <trkpt lat="0" lon="0">
        <time>2021-02-28T09:24:46.497000+00:00</time>
      </trkpt>
      <trkpt lat="0" lon="0">
        <time>2021-02-28T09:24:46.500000+00:00</time>
      </trkpt>
      <trkpt lat="47.32166" lon="-1.44254">
        <ele>114</ele>
        <time>2021-02-28T09:24:47.484000+00:00</time>
      </trkpt>
      <trkpt lat="0" lon="0">
        <time>2021-02-28T09:24:47.486000+00:00</time>
      </trkpt>
      <trkpt lat="0" lon="0">
        <time>2021-02-28T09:24:47.488000+00:00</time>
      </trkpt>
      <trkpt lat="0" lon="0">
        <time>2021-02-28T09:24:47.489000+00:00</time>
      </trkpt>
      <trkpt lat="47.32162" lon="-1.4426">
        <ele>114</ele>
        <time>2021-02-28T09:24:48.452000+00:00</time>
      </trkpt>
      <trkpt lat="0" lon="0">
        <time>2021-02-28T09:24:48.473000+00:00</time>
      </trkpt>
      <trkpt lat="0" lon="0">
        <time>2021-02-28T09:24:48.477000+00:00</time>
      </trkpt>
      <trkpt lat="0" lon="0">
        <time>2021-02-28T09:24:48.480000+00:00</time>
      </trkpt>
      <trkpt lat="47.32158" lon="-1.44266">
        <ele>114</ele>
        <time>2021-02-28T09:24:49.486000+00:00</time>
      </trkpt>
      <trkpt lat="0" lon="0">
        <time>2021-02-28T09:24:49.489000+00:00</time>
      </trkpt>
      <trkpt lat="0" lon="0">
        <time>2021-02-28T09:24:49.491000+00:00</time>
      </trkpt>
      <trkpt lat="0" lon="0">
        <time>2021-02-28T09:24:49.494000+00:00</time>
      </trkpt>
      <trkpt lat="47.32154" lon="-1.44273">
        <ele>114</ele>
        <time>2021-02-28T09:24:50.498000+00:00</time>
      </trkpt>
      <trkpt lat="0" lon="0">
        <time>2021-02-28T09:24:50.507000+00:00</time>
      </trkpt>
      <trkpt lat="0" lon="0">
        <time>2021-02-28T09:24:50.513000+00:00</time>
      </trkpt>
      <trkpt lat="0" lon="0">
        <time>2021-02-28T09:24:50.516000+00:00</time>
      </trkpt>
      <trkpt lat="47.3215" lon="-1.4428">
        <ele>114</ele>
        <time>2021-02-28T09:24:51.478000+00:00</time>
      </trkpt>
      <trkpt lat="0" lon="0">
        <time>2021-02-28T09:24:51.493000+00:00</time>
      </trkpt>
      <trkpt lat="0" lon="0">
        <time>2021-02-28T09:24:51.498000+00:00</time>
      </trkpt>
      <trkpt lat="0" lon="0">
        <time>2021-02-28T09:24:51.502000+00:00</time>
      </trkpt>
      <trkpt lat="47.32147" lon="-1.44286">
        <ele>114</ele>
        <time>2021-02-28T09:24:52.486000+00:00</time>
      </trkpt>
      <trkpt lat="0" lon="0">
        <time>2021-02-28T09:24:52.498000+00:00</time>
      </trkpt>
      <trkpt lat="0" lon="0">
        <time>2021-02-28T09:24:52.503000+00:00</time>
      </trkpt>
      <trkpt lat="0" lon="0">
        <time>2021-02-28T09:24:52.505000+00:00</time>
      </trkpt>
      <trkpt lat="47.32143" lon="-1.44293">
        <ele>114</ele>
        <time>2021-02-28T09:24:53.492000+00:00</time>
      </trkpt>
      <trkpt lat="0" lon="0">
        <time>2021-02-28T09:24:53.498000+00:00</time>
      </trkpt>
      <trkpt lat="0" lon="0">
        <time>2021-02-28T09:24:53.504000+00:00</time>
      </trkpt>
      <trkpt lat="0" lon="0">
        <time>2021-02-28T09:24:53.506000+00:00</time>
      </trkpt>
      <trkpt lat="47.32139" lon="-1.44299">
        <ele>115</ele>
        <time>2021-02-28T09:24:54.419000+00:00</time>
      </trkpt>
      <trkpt lat="0" lon="0">
        <time>2021-02-28T09:24:54.426000+00:00</time>
      </trkpt>
      <trkpt lat="0" lon="0">
        <time>2021-02-28T09:24:54.430000+00:00</time>
      </trkpt>
      <trkpt lat="0" lon="0">
        <time>2021-02-28T09:24:54.433000+00:00</time>
      </trkpt>
      <trkpt lat="47.32135" lon="-1.44306">
        <ele>115</ele>
        <time>2021-02-28T09:24:55.484000+00:00</time>
      </trkpt>
      <trkpt lat="0" lon="0">
        <time>2021-02-28T09:24:55.488000+00:00</time>
      </trkpt>
      <trkpt lat="0" lon="0">
        <time>2021-02-28T09:24:55.493000+00:00</time>
      </trkpt>
      <trkpt lat="0" lon="0">
        <time>2021-02-28T09:24:55.497000+00:00</time>
      </trkpt>
      <trkpt lat="47.32131" lon="-1.44312">
        <ele>115</ele>
        <time>2021-02-28T09:24:56.463000+00:00</time>
      </trkpt>
      <trkpt lat="0" lon="0">
        <time>2021-02-28T09:24:56.471000+00:00</time>
      </trkpt>
      <trkpt lat="0" lon="0">
        <time>2021-02-28T09:24:56.476000+00:00</time>
      </trkpt>
      <trkpt lat="0" lon="0">
        <time>2021-02-28T09:24:56.480000+00:00</time>
      </trkpt>
      <trkpt lat="47.32127" lon="-1.44318">
        <ele>115</ele>
        <time>2021-02-28T09:24:57.479000+00:00</time>
      </trkpt>
      <trkpt lat="0" lon="0">
        <time>2021-02-28T09:24:57.485000+00:00</time>
      </trkpt>
      <trkpt lat="0" lon="0">
        <time>2021-02-28T09:24:57.491000+00:00</time>
      </trkpt>
      <trkpt lat="0" lon="0">
        <time>2021-02-28T09:24:57.493000+00:00</time>
      </trkpt>
      <trkpt lat="47.32123" lon="-1.44325">
        <ele>115</ele>
        <time>2021-02-28T09:24:58.437000+00:00</time>
      </trkpt>
      <trkpt lat="0" lon="0">
        <time>2021-02-28T09:24:58.443000+00:00</time>
      </trkpt>
      <trkpt lat="0" lon="0">
        <time>2021-02-28T09:24:58.448000+00:00</time>
      </trkpt>
      <trkpt lat="0" lon="0">
        <time>2021-02-28T09:24:58.450000+00:00</time>
      </trkpt>
      <trkpt lat="47.32119" lon="-1.44331">
        <ele>115</ele>
        <time>2021-02-28T09:24:59.505000+00:00</time>
      </trkpt>
      <trkpt lat="0" lon="0">
        <time>2021-02-28T09:24:59.518000+00:00</time>
      </trkpt>
      <trkpt lat="0" lon="0">
        <time>2021-02-28T09:24:59.527000+00:00</time>
      </trkpt>
      <trkpt lat="0" lon="0">
        <time>2021-02-28T09:24:59.531000+00:00</time>
      </trkpt>
      <trkpt lat="47.32115" lon="-1.44337">
        <ele>115</ele>
        <time>2021-02-28T09:25:00.486000+00:00</time>
      </trkpt>
      <trkpt lat="0" lon="0">
        <time>2021-02-28T09:25:00.494000+00:00</time>
      </trkpt>
      <trkpt lat="0" lon="0">
        <time>2021-02-28T09:25:00.499000+00:00</time>
      </trkpt>
      <trkpt lat="0" lon="0">
        <time>2021-02-28T09:25:00.502000+00:00</time>
      </trkpt>
      <trkpt lat="47.32111" lon="-1.44344">
        <ele>115</ele>
        <time>2021-02-28T09:25:01.495000+00:00</time>
      </trkpt>
      <trkpt lat="0" lon="0">
        <time>2021-02-28T09:25:01.502000+00:00</time>
      </trkpt>
      <trkpt lat="0" lon="0">
        <time>2021-02-28T09:25:01.507000+00:00</time>
      </trkpt>
      <trkpt lat="0" lon="0">
        <time>2021-02-28T09:25:01.510000+00:00</time>
      </trkpt>
      <trkpt lat="47.32108" lon="-1.4435">
        <ele>115</ele>
        <time>2021-02-28T09:25:02.508000+00:00</time>
      </trkpt>
      <trkpt lat="0" lon="0">
        <time>2021-02-28T09:25:02.522000+00:00</time>
      </trkpt>
      <trkpt lat="0" lon="0">
        <time>2021-02-28T09:25:02.528000+00:00</time>
      </trkpt>
      <trkpt lat="0" lon="0">
        <time>2021-02-28T09:25:02.532000+00:00</time>
      </trkpt>
      <trkpt lat="47.32104" lon="-1.44356">
        <ele>115</ele>
        <time>2021-02-28T09:25:03.479000+00:00</time>
      </trkpt>
      <trkpt lat="0" lon="0">
        <time>2021-02-28T09:25:03.485000+00:00</time>
      </trkpt>
      <trkpt lat="0" lon="0">
        <time>2021-02-28T09:25:03.489000+00:00</time>
      </trkpt>
      <trkpt lat="0" lon="0">
        <time>2021-02-28T09:25:03.492000+00:00</time>
      </trkpt>
      <trkpt lat="47.32101" lon="-1.44362">
        <ele>115</ele>
        <time>2021-02-28T09:25:04.461000+00:00</time>
      </trkpt>
      <trkpt lat="0" lon="0">
        <time>2021-02-28T09:25:04.468000+00:00</time>
      </trkpt>
      <trkpt lat="0" lon="0">
        <time>2021-02-28T09:25:04.474000+00:00</time>
      </trkpt>
      <trkpt lat="0" lon="0">
        <time>2021-02-28T09:25:04.477000+00:00</time>
      </trkpt>
      <trkpt lat="47.32098" lon="-1.44367">
        <ele>115</ele>
        <time>2021-02-28T09:25:05.496000+00:00</time>
      </trkpt>
      <trkpt lat="0" lon="0">
        <time>2021-02-28T09:25:05.504000+00:00</time>
      </trkpt>
      <trkpt lat="0" lon="0">
        <time>2021-02-28T09:25:05.515000+00:00</time>
      </trkpt>
      <trkpt lat="0" lon="0">
        <time>2021-02-28T09:25:05.518000+00:00</time>
      </trkpt>
      <trkpt lat="47.32095" lon="-1.44372">
        <ele>116</ele>
        <time>2021-02-28T09:25:06.462000+00:00</time>
      </trkpt>
      <trkpt lat="0" lon="0">
        <time>2021-02-28T09:25:06.468000+00:00</time>
      </trkpt>
      <trkpt lat="0" lon="0">
        <time>2021-02-28T09:25:06.473000+00:00</time>
      </trkpt>
      <trkpt lat="0" lon="0">
        <time>2021-02-28T09:25:06.476000+00:00</time>
      </trkpt>
      <trkpt lat="47.32092" lon="-1.44377">
        <ele>115</ele>
        <time>2021-02-28T09:25:07.483000+00:00</time>
      </trkpt>
      <trkpt lat="0" lon="0">
        <time>2021-02-28T09:25:07.493000+00:00</time>
      </trkpt>
      <trkpt lat="0" lon="0">
        <time>2021-02-28T09:25:07.498000+00:00</time>
      </trkpt>
      <trkpt lat="0" lon="0">
        <time>2021-02-28T09:25:07.501000+00:00</time>
      </trkpt>
      <trkpt lat="47.3209" lon="-1.44381">
        <ele>116</ele>
        <time>2021-02-28T09:25:08.500000+00:00</time>
      </trkpt>
      <trkpt lat="0" lon="0">
        <time>2021-02-28T09:25:08.512000+00:00</time>
      </trkpt>
      <trkpt lat="0" lon="0">
        <time>2021-02-28T09:25:08.520000+00:00</time>
      </trkpt>
      <trkpt lat="0" lon="0">
        <time>2021-02-28T09:25:08.522000+00:00</time>
      </trkpt>
      <trkpt lat="47.32088" lon="-1.44385">
        <ele>115</ele>
        <time>2021-02-28T09:25:09.475000+00:00</time>
      </trkpt>
      <trkpt lat="0" lon="0">
        <time>2021-02-28T09:25:09.479000+00:00</time>
      </trkpt>
      <trkpt lat="0" lon="0">
        <time>2021-02-28T09:25:09.482000+00:00</time>
      </trkpt>
      <trkpt lat="0" lon="0">
        <time>2021-02-28T09:25:09.485000+00:00</time>
      </trkpt>
      <trkpt lat="47.32087" lon="-1.44388">
        <ele>115</ele>
        <time>2021-02-28T09:25:10.491000+00:00</time>
      </trkpt>
      <trkpt lat="0" lon="0">
        <time>2021-02-28T09:25:10.497000+00:00</time>
      </trkpt>
      <trkpt lat="0" lon="0">
        <time>2021-02-28T09:25:10.502000+00:00</time>
      </trkpt>
      <trkpt lat="0" lon="0">
        <time>2021-02-28T09:25:10.505000+00:00</time>
      </trkpt>
      <trkpt lat="47.32086" lon="-1.44391">
        <ele>115</ele>
        <time>2021-02-28T09:25:11.494000+00:00</time>
      </trkpt>
      <trkpt lat="0" lon="0">
        <time>2021-02-28T09:25:11.507000+00:00</time>
      </trkpt>
      <trkpt lat="0" lon="0">
        <time>2021-02-28T09:25:11.514000+00:00</time>
      </trkpt>
      <trkpt lat="0" lon="0">
        <time>2021-02-28T09:25:11.518000+00:00</time>
      </trkpt>
      <trkpt lat="47.32085" lon="-1.44393">
        <ele>115</ele>
        <time>2021-02-28T09:25:12.491000+00:00</time>
      </trkpt>
      <trkpt lat="0" lon="0">
        <time>2021-02-28T09:25:12.499000+00:00</time>
      </trkpt>
      <trkpt lat="0" lon="0">
        <time>2021-02-28T09:25:12.504000+00:00</time>
      </trkpt>
      <trkpt lat="0" lon="0">
        <time>2021-02-28T09:25:12.507000+00:00</time>
      </trkpt>
      <trkpt lat="47.32084" lon="-1.44395">
        <ele>116</ele>
        <time>2021-02-28T09:25:13.494000+00:00</time>
      </trkpt>
      <trkpt lat="0" lon="0">
        <time>2021-02-28T09:25:13.505000+00:00</time>
      </trkpt>
      <trkpt lat="0" lon="0">
        <time>2021-02-28T09:25:13.510000+00:00</time>
      </trkpt>
      <trkpt lat="0" lon="0">
        <time>2021-02-28T09:25:13.513000+00:00</time>
      </trkpt>
      <trkpt lat="47.32084" lon="-1.44397">
        <ele>116</ele>
        <time>2021-02-28T09:25:14.495000+00:00</time>
      </trkpt>
      <trkpt lat="0" lon="0">
        <time>2021-02-28T09:25:14.511000+00:00</time>
      </trkpt>
      <trkpt lat="0" lon="0">
        <time>2021-02-28T09:25:14.516000+00:00</time>
      </trkpt>
      <trkpt lat="0" lon="0">
        <time>2021-02-28T09:25:14.521000+00:00</time>
      </trkpt>
      <trkpt lat="47.32083" lon="-1.444">
        <ele>116</ele>
        <time>2021-02-28T09:25:15.459000+00:00</time>
      </trkpt>
      <trkpt lat="0" lon="0">
        <time>2021-02-28T09:25:15.470000+00:00</time>
      </trkpt>
      <trkpt lat="0" lon="0">
        <time>2021-02-28T09:25:15.479000+00:00</time>
      </trkpt>
      <trkpt lat="0" lon="0">
        <time>2021-02-28T09:25:15.482000+00:00</time>
      </trkpt>
      <trkpt lat="47.32082" lon="-1.44402">
        <ele>116</ele>
        <time>2021-02-28T09:25:16.496000+00:00</time>
      </trkpt>
      <trkpt lat="0" lon="0">
        <time>2021-02-28T09:25:16.510000+00:00</time>
      </trkpt>
      <trkpt lat="0" lon="0">
        <time>2021-02-28T09:25:16.517000+00:00</time>
      </trkpt>
      <trkpt lat="0" lon="0">
        <time>2021-02-28T09:25:16.520000+00:00</time>
      </trkpt>
      <trkpt lat="47.32081" lon="-1.44406">
        <ele>116</ele>
        <time>2021-02-28T09:25:17.458000+00:00</time>
      </trkpt>
      <trkpt lat="0" lon="0">
        <time>2021-02-28T09:25:17.467000+00:00</time>
      </trkpt>
      <trkpt lat="0" lon="0">
        <time>2021-02-28T09:25:17.474000+00:00</time>
      </trkpt>
      <trkpt lat="0" lon="0">
        <time>2021-02-28T09:25:17.478000+00:00</time>
      </trkpt>
      <trkpt lat="47.3208" lon="-1.4441">
        <ele>116</ele>
        <time>2021-02-28T09:25:18.480000+00:00</time>
      </trkpt>
      <trkpt lat="0" lon="0">
        <time>2021-02-28T09:25:18.482000+00:00</time>
      </trkpt>
      <trkpt lat="0" lon="0">
        <time>2021-02-28T09:25:18.485000+00:00</time>
      </trkpt>
      <trkpt lat="0" lon="0">
        <time>2021-02-28T09:25:18.486000+00:00</time>
      </trkpt>
      <trkpt lat="47.32079" lon="-1.44415">
        <ele>116</ele>
        <time>2021-02-28T09:25:19.500000+00:00</time>
      </trkpt>
      <trkpt lat="0" lon="0">
        <time>2021-02-28T09:25:19.511000+00:00</time>
      </trkpt>
      <trkpt lat="0" lon="0">
        <time>2021-02-28T09:25:19.520000+00:00</time>
      </trkpt>
      <trkpt lat="0" lon="0">
        <time>2021-02-28T09:25:19.524000+00:00</time>
      </trkpt>
      <trkpt lat="47.32078" lon="-1.4442">
        <ele>116</ele>
        <time>2021-02-28T09:25:20.464000+00:00</time>
      </trkpt>
      <trkpt lat="0" lon="0">
        <time>2021-02-28T09:25:20.473000+00:00</time>
      </trkpt>
      <trkpt lat="0" lon="0">
        <time>2021-02-28T09:25:20.478000+00:00</time>
      </trkpt>
      <trkpt lat="0" lon="0">
        <time>2021-02-28T09:25:20.481000+00:00</time>
      </trkpt>
      <trkpt lat="47.32077" lon="-1.44426">
        <ele>116</ele>
        <time>2021-02-28T09:25:21.473000+00:00</time>
      </trkpt>
      <trkpt lat="0" lon="0">
        <time>2021-02-28T09:25:21.481000+00:00</time>
      </trkpt>
      <trkpt lat="0" lon="0">
        <time>2021-02-28T09:25:21.488000+00:00</time>
      </trkpt>
      <trkpt lat="0" lon="0">
        <time>2021-02-28T09:25:21.493000+00:00</time>
      </trkpt>
      <trkpt lat="47.32076" lon="-1.44433">
        <ele>115</ele>
        <time>2021-02-28T09:25:22.492000+00:00</time>
      </trkpt>
      <trkpt lat="0" lon="0">
        <time>2021-02-28T09:25:22.500000+00:00</time>
      </trkpt>
      <trkpt lat="0" lon="0">
        <time>2021-02-28T09:25:22.506000+00:00</time>
      </trkpt>
      <trkpt lat="0" lon="0">
        <time>2021-02-28T09:25:22.509000+00:00</time>
      </trkpt>
      <trkpt lat="47.32074" lon="-1.4444">
        <ele>115</ele>
        <time>2021-02-28T09:25:23.414000+00:00</time>
      </trkpt>
      <trkpt lat="0" lon="0">
        <time>2021-02-28T09:25:23.419000+00:00</time>
      </trkpt>
      <trkpt lat="0" lon="0">
        <time>2021-02-28T09:25:23.424000+00:00</time>
      </trkpt>
      <trkpt lat="0" lon="0">
        <time>2021-02-28T09:25:23.425000+00:00</time>
      </trkpt>
      <trkpt lat="47.32073" lon="-1.44447">
        <ele>115</ele>
        <time>2021-02-28T09:25:24.424000+00:00</time>
      </trkpt>
      <trkpt lat="0" lon="0">
        <time>2021-02-28T09:25:24.431000+00:00</time>
      </trkpt>
      <trkpt lat="0" lon="0">
        <time>2021-02-28T09:25:24.433000+00:00</time>
      </trkpt>
      <trkpt lat="0" lon="0">
        <time>2021-02-28T09:25:24.434000+00:00</time>
      </trkpt>
      <trkpt lat="47.32072" lon="-1.44454">
        <ele>115</ele>
        <time>2021-02-28T09:25:25.468000+00:00</time>
      </trkpt>
      <trkpt lat="0" lon="0">
        <time>2021-02-28T09:25:25.474000+00:00</time>
      </trkpt>
      <trkpt lat="0" lon="0">
        <time>2021-02-28T09:25:25.479000+00:00</time>
      </trkpt>
      <trkpt lat="0" lon="0">
        <time>2021-02-28T09:25:25.482000+00:00</time>
      </trkpt>
      <trkpt lat="47.3207" lon="-1.44463">
        <ele>115</ele>
        <time>2021-02-28T09:25:26.391000+00:00</time>
      </trkpt>
      <trkpt lat="0" lon="0">
        <time>2021-02-28T09:25:26.399000+00:00</time>
      </trkpt>
      <trkpt lat="0" lon="0">
        <time>2021-02-28T09:25:26.403000+00:00</time>
      </trkpt>
      <trkpt lat="0" lon="0">
        <time>2021-02-28T09:25:26.405000+00:00</time>
      </trkpt>
      <trkpt lat="47.32069" lon="-1.44471">
        <ele>115</ele>
        <time>2021-02-28T09:25:27.413000+00:00</time>
      </trkpt>
      <trkpt lat="0" lon="0">
        <time>2021-02-28T09:25:27.421000+00:00</time>
      </trkpt>
      <trkpt lat="0" lon="0">
        <time>2021-02-28T09:25:27.424000+00:00</time>
      </trkpt>
      <trkpt lat="0" lon="0">
        <time>2021-02-28T09:25:27.427000+00:00</time>
      </trkpt>
      <trkpt lat="47.32067" lon="-1.4448">
        <ele>115</ele>
        <time>2021-02-28T09:25:28.442000+00:00</time>
      </trkpt>
      <trkpt lat="0" lon="0">
        <time>2021-02-28T09:25:28.447000+00:00</time>
      </trkpt>
      <trkpt lat="0" lon="0">
        <time>2021-02-28T09:25:28.451000+00:00</time>
      </trkpt>
      <trkpt lat="0" lon="0">
        <time>2021-02-28T09:25:28.453000+00:00</time>
      </trkpt>
      <trkpt lat="47.32066" lon="-1.44489">
        <ele>115</ele>
        <time>2021-02-28T09:25:29.447000+00:00</time>
      </trkpt>
      <trkpt lat="0" lon="0">
        <time>2021-02-28T09:25:29.466000+00:00</time>
      </trkpt>
      <trkpt lat="0" lon="0">
        <time>2021-02-28T09:25:29.472000+00:00</time>
      </trkpt>
      <trkpt lat="0" lon="0">
        <time>2021-02-28T09:25:29.474000+00:00</time>
      </trkpt>
      <trkpt lat="47.32064" lon="-1.44498">
        <ele>115</ele>
        <time>2021-02-28T09:25:30.482000+00:00</time>
      </trkpt>
      <trkpt lat="0" lon="0">
        <time>2021-02-28T09:25:30.487000+00:00</time>
      </trkpt>
      <trkpt lat="0" lon="0">
        <time>2021-02-28T09:25:30.496000+00:00</time>
      </trkpt>
      <trkpt lat="0" lon="0">
        <time>2021-02-28T09:25:30.499000+00:00</time>
      </trkpt>
      <trkpt lat="47.32063" lon="-1.44507">
        <ele>115</ele>
        <time>2021-02-28T09:25:31.474000+00:00</time>
      </trkpt>
      <trkpt lat="0" lon="0">
        <time>2021-02-28T09:25:31.480000+00:00</time>
      </trkpt>
      <trkpt lat="0" lon="0">
        <time>2021-02-28T09:25:31.486000+00:00</time>
      </trkpt>
      <trkpt lat="0" lon="0">
        <time>2021-02-28T09:25:31.490000+00:00</time>
      </trkpt>
      <trkpt lat="47.32062" lon="-1.44516">
        <ele>115</ele>
        <time>2021-02-28T09:25:32.472000+00:00</time>
      </trkpt>
      <trkpt lat="0" lon="0">
        <time>2021-02-28T09:25:32.481000+00:00</time>
      </trkpt>
      <trkpt lat="0" lon="0">
        <time>2021-02-28T09:25:32.486000+00:00</time>
      </trkpt>
      <trkpt lat="0" lon="0">
        <time>2021-02-28T09:25:32.489000+00:00</time>
      </trkpt>
      <trkpt lat="47.3206" lon="-1.44526">
        <ele>115</ele>
        <time>2021-02-28T09:25:33.477000+00:00</time>
      </trkpt>
      <trkpt lat="0" lon="0">
        <time>2021-02-28T09:25:33.489000+00:00</time>
      </trkpt>
      <trkpt lat="0" lon="0">
        <time>2021-02-28T09:25:33.498000+00:00</time>
      </trkpt>
      <trkpt lat="0" lon="0">
        <time>2021-02-28T09:25:33.501000+00:00</time>
      </trkpt>
      <trkpt lat="47.32058" lon="-1.44536">
        <ele>115</ele>
        <time>2021-02-28T09:25:34.517000+00:00</time>
      </trkpt>
      <trkpt lat="0" lon="0">
        <time>2021-02-28T09:25:34.524000+00:00</time>
      </trkpt>
      <trkpt lat="0" lon="0">
        <time>2021-02-28T09:25:34.530000+00:00</time>
      </trkpt>
      <trkpt lat="0" lon="0">
        <time>2021-02-28T09:25:34.534000+00:00</time>
      </trkpt>
      <trkpt lat="47.32056" lon="-1.44545">
        <ele>115</ele>
        <time>2021-02-28T09:25:35.477000+00:00</time>
      </trkpt>
      <trkpt lat="0" lon="0">
        <time>2021-02-28T09:25:35.491000+00:00</time>
      </trkpt>
      <trkpt lat="0" lon="0">
        <time>2021-02-28T09:25:35.496000+00:00</time>
      </trkpt>
      <trkpt lat="0" lon="0">
        <time>2021-02-28T09:25:35.498000+00:00</time>
      </trkpt>
      <trkpt lat="47.32054" lon="-1.44555">
        <ele>115</ele>
        <time>2021-02-28T09:25:36.483000+00:00</time>
      </trkpt>
      <trkpt lat="0" lon="0">
        <time>2021-02-28T09:25:36.500000+00:00</time>
      </trkpt>
      <trkpt lat="0" lon="0">
        <time>2021-02-28T09:25:36.504000+00:00</time>
      </trkpt>
      <trkpt lat="0" lon="0">
        <time>2021-02-28T09:25:36.507000+00:00</time>
      </trkpt>
      <trkpt lat="47.32052" lon="-1.44564">
        <ele>115</ele>
        <time>2021-02-28T09:25:37.516000+00:00</time>
      </trkpt>
      <trkpt lat="0" lon="0">
        <time>2021-02-28T09:25:37.521000+00:00</time>
      </trkpt>
      <trkpt lat="0" lon="0">
        <time>2021-02-28T09:25:37.526000+00:00</time>
      </trkpt>
      <trkpt lat="0" lon="0">
        <time>2021-02-28T09:25:37.529000+00:00</time>
      </trkpt>
      <trkpt lat="47.32051" lon="-1.44572">
        <ele>115</ele>
        <time>2021-02-28T09:25:38.474000+00:00</time>
      </trkpt>
      <trkpt lat="0" lon="0">
        <time>2021-02-28T09:25:38.482000+00:00</time>
      </trkpt>
      <trkpt lat="0" lon="0">
        <time>2021-02-28T09:25:38.486000+00:00</time>
      </trkpt>
      <trkpt lat="0" lon="0">
        <time>2021-02-28T09:25:38.489000+00:00</time>
      </trkpt>
      <trkpt lat="47.32049" lon="-1.44581">
        <ele>115</ele>
        <time>2021-02-28T09:25:39.490000+00:00</time>
      </trkpt>
      <trkpt lat="0" lon="0">
        <time>2021-02-28T09:25:39.493000+00:00</time>
      </trkpt>
      <trkpt lat="0" lon="0">
        <time>2021-02-28T09:25:39.498000+00:00</time>
      </trkpt>
      <trkpt lat="0" lon="0">
        <time>2021-02-28T09:25:39.501000+00:00</time>
      </trkpt>
      <trkpt lat="47.32048" lon="-1.4459">
        <ele>115</ele>
        <time>2021-02-28T09:25:40.453000+00:00</time>
      </trkpt>
      <trkpt lat="0" lon="0">
        <time>2021-02-28T09:25:40.460000+00:00</time>
      </trkpt>
      <trkpt lat="0" lon="0">
        <time>2021-02-28T09:25:40.470000+00:00</time>
      </trkpt>
      <trkpt lat="0" lon="0">
        <time>2021-02-28T09:25:40.471000+00:00</time>
      </trkpt>
      <trkpt lat="47.32046" lon="-1.44599">
        <ele>115</ele>
        <time>2021-02-28T09:25:41.458000+00:00</time>
      </trkpt>
      <trkpt lat="0" lon="0">
        <time>2021-02-28T09:25:41.470000+00:00</time>
      </trkpt>
      <trkpt lat="0" lon="0">
        <time>2021-02-28T09:25:41.475000+00:00</time>
      </trkpt>
      <trkpt lat="0" lon="0">
        <time>2021-02-28T09:25:41.478000+00:00</time>
      </trkpt>
      <trkpt lat="47.32045" lon="-1.44608">
        <ele>115</ele>
        <time>2021-02-28T09:25:42.493000+00:00</time>
      </trkpt>
      <trkpt lat="0" lon="0">
        <time>2021-02-28T09:25:42.509000+00:00</time>
      </trkpt>
      <trkpt lat="0" lon="0">
        <time>2021-02-28T09:25:42.514000+00:00</time>
      </trkpt>
      <trkpt lat="0" lon="0">
        <time>2021-02-28T09:25:42.521000+00:00</time>
      </trkpt>
      <trkpt lat="47.32043" lon="-1.44617">
        <ele>115</ele>
        <time>2021-02-28T09:25:43.490000+00:00</time>
      </trkpt>
      <trkpt lat="0" lon="0">
        <time>2021-02-28T09:25:43.504000+00:00</time>
      </trkpt>
      <trkpt lat="0" lon="0">
        <time>2021-02-28T09:25:43.510000+00:00</time>
      </trkpt>
      <trkpt lat="0" lon="0">
        <time>2021-02-28T09:25:43.512000+00:00</time>
      </trkpt>
      <trkpt lat="47.32042" lon="-1.44626">
        <ele>115</ele>
        <time>2021-02-28T09:25:44.473000+00:00</time>
      </trkpt>
      <trkpt lat="0" lon="0">
        <time>2021-02-28T09:25:44.481000+00:00</time>
      </trkpt>
      <trkpt lat="0" lon="0">
        <time>2021-02-28T09:25:44.487000+00:00</time>
      </trkpt>
      <trkpt lat="0" lon="0">
        <time>2021-02-28T09:25:44.490000+00:00</time>
      </trkpt>
      <trkpt lat="47.3204" lon="-1.44636">
        <ele>115</ele>
        <time>2021-02-28T09:25:45.497000+00:00</time>
      </trkpt>
      <trkpt lat="0" lon="0">
        <time>2021-02-28T09:25:45.503000+00:00</time>
      </trkpt>
      <trkpt lat="0" lon="0">
        <time>2021-02-28T09:25:45.509000+00:00</time>
      </trkpt>
      <trkpt lat="0" lon="0">
        <time>2021-02-28T09:25:45.512000+00:00</time>
      </trkpt>
      <trkpt lat="47.32038" lon="-1.44646">
        <ele>115</ele>
        <time>2021-02-28T09:25:46.497000+00:00</time>
      </trkpt>
      <trkpt lat="0" lon="0">
        <time>2021-02-28T09:25:46.499000+00:00</time>
      </trkpt>
      <trkpt lat="0" lon="0">
        <time>2021-02-28T09:25:46.501000+00:00</time>
      </trkpt>
      <trkpt lat="0" lon="0">
        <time>2021-02-28T09:25:46.504000+00:00</time>
      </trkpt>
      <trkpt lat="47.32037" lon="-1.44655">
        <ele>115</ele>
        <time>2021-02-28T09:25:47.480000+00:00</time>
      </trkpt>
      <trkpt lat="0" lon="0">
        <time>2021-02-28T09:25:47.488000+00:00</time>
      </trkpt>
      <trkpt lat="0" lon="0">
        <time>2021-02-28T09:25:47.493000+00:00</time>
      </trkpt>
      <trkpt lat="0" lon="0">
        <time>2021-02-28T09:25:47.495000+00:00</time>
      </trkpt>
      <trkpt lat="47.32035" lon="-1.44665">
        <ele>115</ele>
        <time>2021-02-28T09:25:48.491000+00:00</time>
      </trkpt>
      <trkpt lat="0" lon="0">
        <time>2021-02-28T09:25:48.501000+00:00</time>
      </trkpt>
      <trkpt lat="0" lon="0">
        <time>2021-02-28T09:25:48.506000+00:00</time>
      </trkpt>
      <trkpt lat="0" lon="0">
        <time>2021-02-28T09:25:48.509000+00:00</time>
      </trkpt>
      <trkpt lat="47.32033" lon="-1.44674">
        <ele>115</ele>
        <time>2021-02-28T09:25:49.517000+00:00</time>
      </trkpt>
      <trkpt lat="0" lon="0">
        <time>2021-02-28T09:25:49.529000+00:00</time>
      </trkpt>
      <trkpt lat="0" lon="0">
        <time>2021-02-28T09:25:49.536000+00:00</time>
      </trkpt>
      <trkpt lat="0" lon="0">
        <time>2021-02-28T09:25:49.543000+00:00</time>
      </trkpt>
      <trkpt lat="47.32032" lon="-1.44683">
        <ele>115</ele>
        <time>2021-02-28T09:25:50.498000+00:00</time>
      </trkpt>
      <trkpt lat="0" lon="0">
        <time>2021-02-28T09:25:50.509000+00:00</time>
      </trkpt>
      <trkpt lat="0" lon="0">
        <time>2021-02-28T09:25:50.515000+00:00</time>
      </trkpt>
      <trkpt lat="0" lon="0">
        <time>2021-02-28T09:25:50.518000+00:00</time>
      </trkpt>
      <trkpt lat="47.3203" lon="-1.44693">
        <ele>115</ele>
        <time>2021-02-28T09:25:51.496000+00:00</time>
      </trkpt>
      <trkpt lat="0" lon="0">
        <time>2021-02-28T09:25:51.506000+00:00</time>
      </trkpt>
      <trkpt lat="0" lon="0">
        <time>2021-02-28T09:25:51.512000+00:00</time>
      </trkpt>
      <trkpt lat="0" lon="0">
        <time>2021-02-28T09:25:51.516000+00:00</time>
      </trkpt>
      <trkpt lat="47.32029" lon="-1.44702">
        <ele>115</ele>
        <time>2021-02-28T09:25:52.478000+00:00</time>
      </trkpt>
      <trkpt lat="0" lon="0">
        <time>2021-02-28T09:25:52.490000+00:00</time>
      </trkpt>
      <trkpt lat="0" lon="0">
        <time>2021-02-28T09:25:52.496000+00:00</time>
      </trkpt>
      <trkpt lat="0" lon="0">
        <time>2021-02-28T09:25:52.499000+00:00</time>
      </trkpt>
      <trkpt lat="47.32027" lon="-1.44712">
        <ele>115</ele>
        <time>2021-02-28T09:25:53.466000+00:00</time>
      </trkpt>
      <trkpt lat="0" lon="0">
        <time>2021-02-28T09:25:53.477000+00:00</time>
      </trkpt>
      <trkpt lat="0" lon="0">
        <time>2021-02-28T09:25:53.482000+00:00</time>
      </trkpt>
      <trkpt lat="0" lon="0">
        <time>2021-02-28T09:25:53.485000+00:00</time>
      </trkpt>
      <trkpt lat="47.32025" lon="-1.44721">
        <ele>115</ele>
        <time>2021-02-28T09:25:54.507000+00:00</time>
      </trkpt>
      <trkpt lat="0" lon="0">
        <time>2021-02-28T09:25:54.520000+00:00</time>
      </trkpt>
      <trkpt lat="0" lon="0">
        <time>2021-02-28T09:25:54.524000+00:00</time>
      </trkpt>
      <trkpt lat="0" lon="0">
        <time>2021-02-28T09:25:54.527000+00:00</time>
      </trkpt>
      <trkpt lat="47.32023" lon="-1.44731">
        <ele>115</ele>
        <time>2021-02-28T09:25:55.493000+00:00</time>
      </trkpt>
      <trkpt lat="0" lon="0">
        <time>2021-02-28T09:25:55.499000+00:00</time>
      </trkpt>
      <trkpt lat="0" lon="0">
        <time>2021-02-28T09:25:55.504000+00:00</time>
      </trkpt>
      <trkpt lat="0" lon="0">
        <time>2021-02-28T09:25:55.510000+00:00</time>
      </trkpt>
      <trkpt lat="47.32021" lon="-1.44741">
        <ele>115</ele>
        <time>2021-02-28T09:25:56.500000+00:00</time>
      </trkpt>
      <trkpt lat="0" lon="0">
        <time>2021-02-28T09:25:56.509000+00:00</time>
      </trkpt>
      <trkpt lat="0" lon="0">
        <time>2021-02-28T09:25:56.517000+00:00</time>
      </trkpt>
      <trkpt lat="0" lon="0">
        <time>2021-02-28T09:25:56.522000+00:00</time>
      </trkpt>
      <trkpt lat="47.32019" lon="-1.4475">
        <ele>115</ele>
        <time>2021-02-28T09:25:57.479000+00:00</time>
      </trkpt>
      <trkpt lat="0" lon="0">
        <time>2021-02-28T09:25:57.484000+00:00</time>
      </trkpt>
      <trkpt lat="0" lon="0">
        <time>2021-02-28T09:25:57.490000+00:00</time>
      </trkpt>
      <trkpt lat="0" lon="0">
        <time>2021-02-28T09:25:57.493000+00:00</time>
      </trkpt>
      <trkpt lat="47.32017" lon="-1.4476">
        <ele>116</ele>
        <time>2021-02-28T09:25:58.434000+00:00</time>
      </trkpt>
      <trkpt lat="0" lon="0">
        <time>2021-02-28T09:25:58.437000+00:00</time>
      </trkpt>
      <trkpt lat="0" lon="0">
        <time>2021-02-28T09:25:58.441000+00:00</time>
      </trkpt>
      <trkpt lat="0" lon="0">
        <time>2021-02-28T09:25:58.446000+00:00</time>
      </trkpt>
      <trkpt lat="47.32015" lon="-1.4477">
        <ele>115</ele>
        <time>2021-02-28T09:25:59.451000+00:00</time>
      </trkpt>
      <trkpt lat="0" lon="0">
        <time>2021-02-28T09:25:59.458000+00:00</time>
      </trkpt>
      <trkpt lat="0" lon="0">
        <time>2021-02-28T09:25:59.463000+00:00</time>
      </trkpt>
      <trkpt lat="0" lon="0">
        <time>2021-02-28T09:25:59.466000+00:00</time>
      </trkpt>
      <trkpt lat="47.32013" lon="-1.44781">
        <ele>115</ele>
        <time>2021-02-28T09:26:00.489000+00:00</time>
      </trkpt>
      <trkpt lat="0" lon="0">
        <time>2021-02-28T09:26:00.498000+00:00</time>
      </trkpt>
      <trkpt lat="0" lon="0">
        <time>2021-02-28T09:26:00.504000+00:00</time>
      </trkpt>
      <trkpt lat="0" lon="0">
        <time>2021-02-28T09:26:00.506000+00:00</time>
      </trkpt>
      <trkpt lat="47.32012" lon="-1.44791">
        <ele>115</ele>
        <time>2021-02-28T09:26:01.483000+00:00</time>
      </trkpt>
      <trkpt lat="0" lon="0">
        <time>2021-02-28T09:26:01.489000+00:00</time>
      </trkpt>
      <trkpt lat="0" lon="0">
        <time>2021-02-28T09:26:01.497000+00:00</time>
      </trkpt>
      <trkpt lat="0" lon="0">
        <time>2021-02-28T09:26:01.500000+00:00</time>
      </trkpt>
      <trkpt lat="47.3201" lon="-1.44802">
        <ele>115</ele>
        <time>2021-02-28T09:26:02.481000+00:00</time>
      </trkpt>
      <trkpt lat="0" lon="0">
        <time>2021-02-28T09:26:02.489000+00:00</time>
      </trkpt>
      <trkpt lat="0" lon="0">
        <time>2021-02-28T09:26:02.494000+00:00</time>
      </trkpt>
      <trkpt lat="0" lon="0">
        <time>2021-02-28T09:26:02.497000+00:00</time>
      </trkpt>
      <trkpt lat="47.32008" lon="-1.44812">
        <ele>115</ele>
        <time>2021-02-28T09:26:03.432000+00:00</time>
      </trkpt>
      <trkpt lat="0" lon="0">
        <time>2021-02-28T09:26:03.441000+00:00</time>
      </trkpt>
      <trkpt lat="0" lon="0">
        <time>2021-02-28T09:26:03.446000+00:00</time>
      </trkpt>
      <trkpt lat="0" lon="0">
        <time>2021-02-28T09:26:03.448000+00:00</time>
      </trkpt>
      <trkpt lat="47.32006" lon="-1.44823">
        <ele>115</ele>
        <time>2021-02-28T09:26:04.443000+00:00</time>
      </trkpt>
      <trkpt lat="0" lon="0">
        <time>2021-02-28T09:26:04.453000+00:00</time>
      </trkpt>
      <trkpt lat="0" lon="0">
        <time>2021-02-28T09:26:04.455000+00:00</time>
      </trkpt>
      <trkpt lat="0" lon="0">
        <time>2021-02-28T09:26:04.457000+00:00</time>
      </trkpt>
      <trkpt lat="47.32005" lon="-1.44834">
        <ele>115</ele>
        <time>2021-02-28T09:26:05.465000+00:00</time>
      </trkpt>
      <trkpt lat="0" lon="0">
        <time>2021-02-28T09:26:05.478000+00:00</time>
      </trkpt>
      <trkpt lat="0" lon="0">
        <time>2021-02-28T09:26:05.484000+00:00</time>
      </trkpt>
      <trkpt lat="0" lon="0">
        <time>2021-02-28T09:26:05.487000+00:00</time>
      </trkpt>
      <trkpt lat="47.32003" lon="-1.44845">
        <ele>115</ele>
        <time>2021-02-28T09:26:06.476000+00:00</time>
      </trkpt>
      <trkpt lat="0" lon="0">
        <time>2021-02-28T09:26:06.481000+00:00</time>
      </trkpt>
      <trkpt lat="0" lon="0">
        <time>2021-02-28T09:26:06.487000+00:00</time>
      </trkpt>
      <trkpt lat="0" lon="0">
        <time>2021-02-28T09:26:06.489000+00:00</time>
      </trkpt>
      <trkpt lat="47.32001" lon="-1.44856">
        <ele>115</ele>
        <time>2021-02-28T09:26:07.477000+00:00</time>
      </trkpt>
      <trkpt lat="0" lon="0">
        <time>2021-02-28T09:26:07.488000+00:00</time>
      </trkpt>
      <trkpt lat="0" lon="0">
        <time>2021-02-28T09:26:07.493000+00:00</time>
      </trkpt>
      <trkpt lat="0" lon="0">
        <time>2021-02-28T09:26:07.495000+00:00</time>
      </trkpt>
      <trkpt lat="47.31999" lon="-1.44867">
        <ele>115</ele>
        <time>2021-02-28T09:26:08.495000+00:00</time>
      </trkpt>
      <trkpt lat="0" lon="0">
        <time>2021-02-28T09:26:08.502000+00:00</time>
      </trkpt>
      <trkpt lat="0" lon="0">
        <time>2021-02-28T09:26:08.509000+00:00</time>
      </trkpt>
      <trkpt lat="0" lon="0">
        <time>2021-02-28T09:26:08.511000+00:00</time>
      </trkpt>
      <trkpt lat="47.31997" lon="-1.44877">
        <ele>114</ele>
        <time>2021-02-28T09:26:09.496000+00:00</time>
      </trkpt>
      <trkpt lat="0" lon="0">
        <time>2021-02-28T09:26:09.500000+00:00</time>
      </trkpt>
      <trkpt lat="0" lon="0">
        <time>2021-02-28T09:26:09.504000+00:00</time>
      </trkpt>
      <trkpt lat="0" lon="0">
        <time>2021-02-28T09:26:09.507000+00:00</time>
      </trkpt>
      <trkpt lat="47.31995" lon="-1.44888">
        <ele>114</ele>
        <time>2021-02-28T09:26:10.476000+00:00</time>
      </trkpt>
      <trkpt lat="0" lon="0">
        <time>2021-02-28T09:26:10.481000+00:00</time>
      </trkpt>
      <trkpt lat="0" lon="0">
        <time>2021-02-28T09:26:10.487000+00:00</time>
      </trkpt>
      <trkpt lat="0" lon="0">
        <time>2021-02-28T09:26:10.492000+00:00</time>
      </trkpt>
      <trkpt lat="47.31993" lon="-1.44899">
        <ele>114</ele>
        <time>2021-02-28T09:26:11.470000+00:00</time>
      </trkpt>
      <trkpt lat="0" lon="0">
        <time>2021-02-28T09:26:11.477000+00:00</time>
      </trkpt>
      <trkpt lat="0" lon="0">
        <time>2021-02-28T09:26:11.483000+00:00</time>
      </trkpt>
      <trkpt lat="0" lon="0">
        <time>2021-02-28T09:26:11.488000+00:00</time>
      </trkpt>
      <trkpt lat="47.31991" lon="-1.44909">
        <ele>114</ele>
        <time>2021-02-28T09:26:12.445000+00:00</time>
      </trkpt>
      <trkpt lat="0" lon="0">
        <time>2021-02-28T09:26:12.450000+00:00</time>
      </trkpt>
      <trkpt lat="0" lon="0">
        <time>2021-02-28T09:26:12.455000+00:00</time>
      </trkpt>
      <trkpt lat="0" lon="0">
        <time>2021-02-28T09:26:12.458000+00:00</time>
      </trkpt>
      <trkpt lat="47.3199" lon="-1.44919">
        <ele>114</ele>
        <time>2021-02-28T09:26:13.509000+00:00</time>
      </trkpt>
      <trkpt lat="0" lon="0">
        <time>2021-02-28T09:26:13.518000+00:00</time>
      </trkpt>
      <trkpt lat="0" lon="0">
        <time>2021-02-28T09:26:13.522000+00:00</time>
      </trkpt>
      <trkpt lat="0" lon="0">
        <time>2021-02-28T09:26:13.525000+00:00</time>
      </trkpt>
      <trkpt lat="47.31988" lon="-1.44929">
        <ele>114</ele>
        <time>2021-02-28T09:26:14.472000+00:00</time>
      </trkpt>
      <trkpt lat="0" lon="0">
        <time>2021-02-28T09:26:14.486000+00:00</time>
      </trkpt>
      <trkpt lat="0" lon="0">
        <time>2021-02-28T09:26:14.492000+00:00</time>
      </trkpt>
      <trkpt lat="0" lon="0">
        <time>2021-02-28T09:26:14.494000+00:00</time>
      </trkpt>
      <trkpt lat="47.31987" lon="-1.44937">
        <ele>114</ele>
        <time>2021-02-28T09:26:15.494000+00:00</time>
      </trkpt>
      <trkpt lat="0" lon="0">
        <time>2021-02-28T09:26:15.496000+00:00</time>
      </trkpt>
      <trkpt lat="0" lon="0">
        <time>2021-02-28T09:26:15.505000+00:00</time>
      </trkpt>
      <trkpt lat="0" lon="0">
        <time>2021-02-28T09:26:15.506000+00:00</time>
      </trkpt>
      <trkpt lat="47.31986" lon="-1.44944">
        <ele>114</ele>
        <time>2021-02-28T09:26:16.506000+00:00</time>
      </trkpt>
      <trkpt lat="0" lon="0">
        <time>2021-02-28T09:26:16.516000+00:00</time>
      </trkpt>
      <trkpt lat="0" lon="0">
        <time>2021-02-28T09:26:16.522000+00:00</time>
      </trkpt>
      <trkpt lat="0" lon="0">
        <time>2021-02-28T09:26:16.525000+00:00</time>
      </trkpt>
      <trkpt lat="47.31985" lon="-1.44951">
        <ele>114</ele>
        <time>2021-02-28T09:26:17.523000+00:00</time>
      </trkpt>
      <trkpt lat="0" lon="0">
        <time>2021-02-28T09:26:17.528000+00:00</time>
      </trkpt>
      <trkpt lat="0" lon="0">
        <time>2021-02-28T09:26:17.534000+00:00</time>
      </trkpt>
      <trkpt lat="0" lon="0">
        <time>2021-02-28T09:26:17.537000+00:00</time>
      </trkpt>
      <trkpt lat="47.31984" lon="-1.44957">
        <ele>114</ele>
        <time>2021-02-28T09:26:18.464000+00:00</time>
      </trkpt>
      <trkpt lat="0" lon="0">
        <time>2021-02-28T09:26:18.475000+00:00</time>
      </trkpt>
      <trkpt lat="0" lon="0">
        <time>2021-02-28T09:26:18.480000+00:00</time>
      </trkpt>
      <trkpt lat="0" lon="0">
        <time>2021-02-28T09:26:18.484000+00:00</time>
      </trkpt>
      <trkpt lat="47.31983" lon="-1.44962">
        <ele>114</ele>
        <time>2021-02-28T09:26:19.500000+00:00</time>
      </trkpt>
      <trkpt lat="0" lon="0">
        <time>2021-02-28T09:26:19.505000+00:00</time>
      </trkpt>
      <trkpt lat="0" lon="0">
        <time>2021-02-28T09:26:19.509000+00:00</time>
      </trkpt>
      <trkpt lat="0" lon="0">
        <time>2021-02-28T09:26:19.511000+00:00</time>
      </trkpt>
      <trkpt lat="47.31982" lon="-1.44966">
        <ele>114</ele>
        <time>2021-02-28T09:26:20.490000+00:00</time>
      </trkpt>
      <trkpt lat="0" lon="0">
        <time>2021-02-28T09:26:20.496000+00:00</time>
      </trkpt>
      <trkpt lat="0" lon="0">
        <time>2021-02-28T09:26:20.501000+00:00</time>
      </trkpt>
      <trkpt lat="0" lon="0">
        <time>2021-02-28T09:26:20.505000+00:00</time>
      </trkpt>
      <trkpt lat="47.31981" lon="-1.4497">
        <ele>114</ele>
        <time>2021-02-28T09:26:21.437000+00:00</time>
      </trkpt>
      <trkpt lat="0" lon="0">
        <time>2021-02-28T09:26:21.441000+00:00</time>
      </trkpt>
      <trkpt lat="0" lon="0">
        <time>2021-02-28T09:26:21.445000+00:00</time>
      </trkpt>
      <trkpt lat="0" lon="0">
        <time>2021-02-28T09:26:21.448000+00:00</time>
      </trkpt>
      <trkpt lat="47.31981" lon="-1.44972">
        <ele>114</ele>
        <time>2021-02-28T09:26:22.470000+00:00</time>
      </trkpt>
      <trkpt lat="0" lon="0">
        <time>2021-02-28T09:26:22.475000+00:00</time>
      </trkpt>
      <trkpt lat="0" lon="0">
        <time>2021-02-28T09:26:22.480000+00:00</time>
      </trkpt>
      <trkpt lat="0" lon="0">
        <time>2021-02-28T09:26:22.482000+00:00</time>
      </trkpt>
      <trkpt lat="47.31981" lon="-1.44975">
        <ele>114</ele>
        <time>2021-02-28T09:26:23.475000+00:00</time>
      </trkpt>
      <trkpt lat="0" lon="0">
        <time>2021-02-28T09:26:23.483000+00:00</time>
      </trkpt>
      <trkpt lat="0" lon="0">
        <time>2021-02-28T09:26:23.489000+00:00</time>
      </trkpt>
      <trkpt lat="0" lon="0">
        <time>2021-02-28T09:26:23.492000+00:00</time>
      </trkpt>
      <trkpt lat="47.31981" lon="-1.44976">
        <ele>114</ele>
        <time>2021-02-28T09:26:24.474000+00:00</time>
      </trkpt>
      <trkpt lat="0" lon="0">
        <time>2021-02-28T09:26:24.485000+00:00</time>
      </trkpt>
      <trkpt lat="0" lon="0">
        <time>2021-02-28T09:26:24.491000+00:00</time>
      </trkpt>
      <trkpt lat="0" lon="0">
        <time>2021-02-28T09:26:24.494000+00:00</time>
      </trkpt>
      <trkpt lat="47.31981" lon="-1.44977">
        <ele>114</ele>
        <time>2021-02-28T09:26:25.486000+00:00</time>
      </trkpt>
      <trkpt lat="0" lon="0">
        <time>2021-02-28T09:26:25.495000+00:00</time>
      </trkpt>
      <trkpt lat="0" lon="0">
        <time>2021-02-28T09:26:25.502000+00:00</time>
      </trkpt>
      <trkpt lat="0" lon="0">
        <time>2021-02-28T09:26:25.505000+00:00</time>
      </trkpt>
      <trkpt lat="47.31981" lon="-1.44978">
        <ele>114</ele>
        <time>2021-02-28T09:26:26.374000+00:00</time>
      </trkpt>
      <trkpt lat="0" lon="0">
        <time>2021-02-28T09:26:26.381000+00:00</time>
      </trkpt>
      <trkpt lat="0" lon="0">
        <time>2021-02-28T09:26:26.385000+00:00</time>
      </trkpt>
      <trkpt lat="0" lon="0">
        <time>2021-02-28T09:26:26.388000+00:00</time>
      </trkpt>
      <trkpt lat="47.31981" lon="-1.44978">
        <ele>114</ele>
        <time>2021-02-28T09:26:27.447000+00:00</time>
      </trkpt>
      <trkpt lat="0" lon="0">
        <time>2021-02-28T09:26:27.454000+00:00</time>
      </trkpt>
      <trkpt lat="0" lon="0">
        <time>2021-02-28T09:26:27.466000+00:00</time>
      </trkpt>
      <trkpt lat="0" lon="0">
        <time>2021-02-28T09:26:27.468000+00:00</time>
      </trkpt>
      <trkpt lat="47.31981" lon="-1.44978">
        <ele>114</ele>
        <time>2021-02-28T09:26:28.460000+00:00</time>
      </trkpt>
      <trkpt lat="0" lon="0">
        <time>2021-02-28T09:26:28.468000+00:00</time>
      </trkpt>
      <trkpt lat="0" lon="0">
        <time>2021-02-28T09:26:28.472000+00:00</time>
      </trkpt>
      <trkpt lat="0" lon="0">
        <time>2021-02-28T09:26:28.475000+00:00</time>
      </trkpt>
      <trkpt lat="47.31981" lon="-1.44976">
        <ele>114</ele>
        <time>2021-02-28T09:26:29.449000+00:00</time>
      </trkpt>
      <trkpt lat="0" lon="0">
        <time>2021-02-28T09:26:29.456000+00:00</time>
      </trkpt>
      <trkpt lat="0" lon="0">
        <time>2021-02-28T09:26:29.463000+00:00</time>
      </trkpt>
      <trkpt lat="0" lon="0">
        <time>2021-02-28T09:26:29.465000+00:00</time>
      </trkpt>
      <trkpt lat="47.31981" lon="-1.44974">
        <ele>114</ele>
        <time>2021-02-28T09:26:30.427000+00:00</time>
      </trkpt>
      <trkpt lat="0" lon="0">
        <time>2021-02-28T09:26:30.440000+00:00</time>
      </trkpt>
      <trkpt lat="0" lon="0">
        <time>2021-02-28T09:26:30.444000+00:00</time>
      </trkpt>
      <trkpt lat="0" lon="0">
        <time>2021-02-28T09:26:30.447000+00:00</time>
      </trkpt>
      <trkpt lat="47.31981" lon="-1.44973">
        <ele>114</ele>
        <time>2021-02-28T09:26:31.434000+00:00</time>
      </trkpt>
      <trkpt lat="0" lon="0">
        <time>2021-02-28T09:26:31.449000+00:00</time>
      </trkpt>
      <trkpt lat="0" lon="0">
        <time>2021-02-28T09:26:31.453000+00:00</time>
      </trkpt>
      <trkpt lat="0" lon="0">
        <time>2021-02-28T09:26:31.456000+00:00</time>
      </trkpt>
      <trkpt lat="47.31981" lon="-1.44972">
        <ele>114</ele>
        <time>2021-02-28T09:26:32.453000+00:00</time>
      </trkpt>
      <trkpt lat="0" lon="0">
        <time>2021-02-28T09:26:32.466000+00:00</time>
      </trkpt>
      <trkpt lat="0" lon="0">
        <time>2021-02-28T09:26:32.471000+00:00</time>
      </trkpt>
      <trkpt lat="0" lon="0">
        <time>2021-02-28T09:26:32.474000+00:00</time>
      </trkpt>
      <trkpt lat="47.31981" lon="-1.44973">
        <ele>114</ele>
        <time>2021-02-28T09:26:33.475000+00:00</time>
      </trkpt>
      <trkpt lat="0" lon="0">
        <time>2021-02-28T09:26:33.488000+00:00</time>
      </trkpt>
      <trkpt lat="0" lon="0">
        <time>2021-02-28T09:26:33.497000+00:00</time>
      </trkpt>
      <trkpt lat="0" lon="0">
        <time>2021-02-28T09:26:33.500000+00:00</time>
      </trkpt>
      <trkpt lat="47.31981" lon="-1.44973">
        <ele>114</ele>
        <time>2021-02-28T09:26:34.450000+00:00</time>
      </trkpt>
      <trkpt lat="0" lon="0">
        <time>2021-02-28T09:26:34.461000+00:00</time>
      </trkpt>
      <trkpt lat="0" lon="0">
        <time>2021-02-28T09:26:34.467000+00:00</time>
      </trkpt>
      <trkpt lat="0" lon="0">
        <time>2021-02-28T09:26:34.470000+00:00</time>
      </trkpt>
      <trkpt lat="47.3198" lon="-1.44974">
        <ele>114</ele>
        <time>2021-02-28T09:26:35.466000+00:00</time>
      </trkpt>
      <trkpt lat="0" lon="0">
        <time>2021-02-28T09:26:35.473000+00:00</time>
      </trkpt>
      <trkpt lat="0" lon="0">
        <time>2021-02-28T09:26:35.480000+00:00</time>
      </trkpt>
      <trkpt lat="0" lon="0">
        <time>2021-02-28T09:26:35.483000+00:00</time>
      </trkpt>
      <trkpt lat="47.3198" lon="-1.44976">
        <ele>114</ele>
        <time>2021-02-28T09:26:36.482000+00:00</time>
      </trkpt>
      <trkpt lat="0" lon="0">
        <time>2021-02-28T09:26:36.491000+00:00</time>
      </trkpt>
      <trkpt lat="0" lon="0">
        <time>2021-02-28T09:26:36.497000+00:00</time>
      </trkpt>
      <trkpt lat="0" lon="0">
        <time>2021-02-28T09:26:36.498000+00:00</time>
      </trkpt>
      <trkpt lat="47.31979" lon="-1.44978">
        <ele>114</ele>
        <time>2021-02-28T09:26:37.459000+00:00</time>
      </trkpt>
      <trkpt lat="0" lon="0">
        <time>2021-02-28T09:26:37.474000+00:00</time>
      </trkpt>
      <trkpt lat="0" lon="0">
        <time>2021-02-28T09:26:37.476000+00:00</time>
      </trkpt>
      <trkpt lat="0" lon="0">
        <time>2021-02-28T09:26:37.478000+00:00</time>
      </trkpt>
      <trkpt lat="47.31979" lon="-1.44981">
        <ele>114</ele>
        <time>2021-02-28T09:26:38.508000+00:00</time>
      </trkpt>
      <trkpt lat="0" lon="0">
        <time>2021-02-28T09:26:38.514000+00:00</time>
      </trkpt>
      <trkpt lat="0" lon="0">
        <time>2021-02-28T09:26:38.520000+00:00</time>
      </trkpt>
      <trkpt lat="0" lon="0">
        <time>2021-02-28T09:26:38.524000+00:00</time>
      </trkpt>
      <trkpt lat="47.31978" lon="-1.44984">
        <ele>114</ele>
        <time>2021-02-28T09:26:39.509000+00:00</time>
      </trkpt>
      <trkpt lat="0" lon="0">
        <time>2021-02-28T09:26:39.516000+00:00</time>
      </trkpt>
      <trkpt lat="0" lon="0">
        <time>2021-02-28T09:26:39.522000+00:00</time>
      </trkpt>
      <trkpt lat="0" lon="0">
        <time>2021-02-28T09:26:39.525000+00:00</time>
      </trkpt>
      <trkpt lat="47.31977" lon="-1.44987">
        <ele>114</ele>
        <time>2021-02-28T09:26:40.527000+00:00</time>
      </trkpt>
      <trkpt lat="0" lon="0">
        <time>2021-02-28T09:26:40.553000+00:00</time>
      </trkpt>
      <trkpt lat="0" lon="0">
        <time>2021-02-28T09:26:40.561000+00:00</time>
      </trkpt>
      <trkpt lat="0" lon="0">
        <time>2021-02-28T09:26:40.567000+00:00</time>
      </trkpt>
      <trkpt lat="47.31976" lon="-1.44992">
        <ele>114</ele>
        <time>2021-02-28T09:26:41.452000+00:00</time>
      </trkpt>
      <trkpt lat="0" lon="0">
        <time>2021-02-28T09:26:41.460000+00:00</time>
      </trkpt>
      <trkpt lat="0" lon="0">
        <time>2021-02-28T09:26:41.464000+00:00</time>
      </trkpt>
      <trkpt lat="0" lon="0">
        <time>2021-02-28T09:26:41.466000+00:00</time>
      </trkpt>
      <trkpt lat="47.31976" lon="-1.44996">
        <ele>114</ele>
        <time>2021-02-28T09:26:42.452000+00:00</time>
      </trkpt>
      <trkpt lat="0" lon="0">
        <time>2021-02-28T09:26:42.469000+00:00</time>
      </trkpt>
      <trkpt lat="0" lon="0">
        <time>2021-02-28T09:26:42.474000+00:00</time>
      </trkpt>
      <trkpt lat="0" lon="0">
        <time>2021-02-28T09:26:42.477000+00:00</time>
      </trkpt>
      <trkpt lat="47.31976" lon="-1.45">
        <ele>114</ele>
        <time>2021-02-28T09:26:43.444000+00:00</time>
      </trkpt>
      <trkpt lat="0" lon="0">
        <time>2021-02-28T09:26:43.450000+00:00</time>
      </trkpt>
      <trkpt lat="0" lon="0">
        <time>2021-02-28T09:26:43.456000+00:00</time>
      </trkpt>
      <trkpt lat="0" lon="0">
        <time>2021-02-28T09:26:43.459000+00:00</time>
      </trkpt>
      <trkpt lat="47.31977" lon="-1.45004">
        <ele>113</ele>
        <time>2021-02-28T09:26:44.440000+00:00</time>
      </trkpt>
      <trkpt lat="0" lon="0">
        <time>2021-02-28T09:26:44.455000+00:00</time>
      </trkpt>
      <trkpt lat="0" lon="0">
        <time>2021-02-28T09:26:44.461000+00:00</time>
      </trkpt>
      <trkpt lat="0" lon="0">
        <time>2021-02-28T09:26:44.463000+00:00</time>
      </trkpt>
      <trkpt lat="47.31979" lon="-1.45008">
        <ele>113</ele>
        <time>2021-02-28T09:26:45.460000+00:00</time>
      </trkpt>
      <trkpt lat="0" lon="0">
        <time>2021-02-28T09:26:45.465000+00:00</time>
      </trkpt>
      <trkpt lat="0" lon="0">
        <time>2021-02-28T09:26:45.470000+00:00</time>
      </trkpt>
      <trkpt lat="0" lon="0">
        <time>2021-02-28T09:26:45.473000+00:00</time>
      </trkpt>
      <trkpt lat="47.31981" lon="-1.45012">
        <ele>113</ele>
        <time>2021-02-28T09:26:46.445000+00:00</time>
      </trkpt>
      <trkpt lat="0" lon="0">
        <time>2021-02-28T09:26:46.450000+00:00</time>
      </trkpt>
      <trkpt lat="0" lon="0">
        <time>2021-02-28T09:26:46.455000+00:00</time>
      </trkpt>
      <trkpt lat="0" lon="0">
        <time>2021-02-28T09:26:46.458000+00:00</time>
      </trkpt>
      <trkpt lat="47.31983" lon="-1.45015">
        <ele>113</ele>
        <time>2021-02-28T09:26:47.469000+00:00</time>
      </trkpt>
      <trkpt lat="0" lon="0">
        <time>2021-02-28T09:26:47.474000+00:00</time>
      </trkpt>
      <trkpt lat="0" lon="0">
        <time>2021-02-28T09:26:47.479000+00:00</time>
      </trkpt>
      <trkpt lat="0" lon="0">
        <time>2021-02-28T09:26:47.482000+00:00</time>
      </trkpt>
      <trkpt lat="47.31986" lon="-1.45018">
        <ele>113</ele>
        <time>2021-02-28T09:26:48.478000+00:00</time>
      </trkpt>
      <trkpt lat="0" lon="0">
        <time>2021-02-28T09:26:48.490000+00:00</time>
      </trkpt>
      <trkpt lat="0" lon="0">
        <time>2021-02-28T09:26:48.496000+00:00</time>
      </trkpt>
      <trkpt lat="0" lon="0">
        <time>2021-02-28T09:26:48.499000+00:00</time>
      </trkpt>
      <trkpt lat="47.3199" lon="-1.45021">
        <ele>113</ele>
        <time>2021-02-28T09:26:49.457000+00:00</time>
      </trkpt>
      <trkpt lat="0" lon="0">
        <time>2021-02-28T09:26:49.462000+00:00</time>
      </trkpt>
      <trkpt lat="0" lon="0">
        <time>2021-02-28T09:26:49.467000+00:00</time>
      </trkpt>
      <trkpt lat="0" lon="0">
        <time>2021-02-28T09:26:49.470000+00:00</time>
      </trkpt>
      <trkpt lat="47.31993" lon="-1.45025">
        <ele>113</ele>
        <time>2021-02-28T09:26:50.461000+00:00</time>
      </trkpt>
      <trkpt lat="0" lon="0">
        <time>2021-02-28T09:26:50.463000+00:00</time>
      </trkpt>
      <trkpt lat="0" lon="0">
        <time>2021-02-28T09:26:50.466000+00:00</time>
      </trkpt>
      <trkpt lat="0" lon="0">
        <time>2021-02-28T09:26:50.467000+00:00</time>
      </trkpt>
      <trkpt lat="47.31997" lon="-1.45028">
        <ele>113</ele>
        <time>2021-02-28T09:26:51.453000+00:00</time>
      </trkpt>
      <trkpt lat="0" lon="0">
        <time>2021-02-28T09:26:51.461000+00:00</time>
      </trkpt>
      <trkpt lat="0" lon="0">
        <time>2021-02-28T09:26:51.465000+00:00</time>
      </trkpt>
      <trkpt lat="0" lon="0">
        <time>2021-02-28T09:26:51.467000+00:00</time>
      </trkpt>
      <trkpt lat="47.32001" lon="-1.4503">
        <ele>112</ele>
        <time>2021-02-28T09:26:52.465000+00:00</time>
      </trkpt>
      <trkpt lat="0" lon="0">
        <time>2021-02-28T09:26:52.470000+00:00</time>
      </trkpt>
      <trkpt lat="0" lon="0">
        <time>2021-02-28T09:26:52.477000+00:00</time>
      </trkpt>
      <trkpt lat="0" lon="0">
        <time>2021-02-28T09:26:52.478000+00:00</time>
      </trkpt>
      <trkpt lat="47.32005" lon="-1.45032">
        <ele>112</ele>
        <time>2021-02-28T09:26:53.517000+00:00</time>
      </trkpt>
      <trkpt lat="0" lon="0">
        <time>2021-02-28T09:26:53.524000+00:00</time>
      </trkpt>
      <trkpt lat="0" lon="0">
        <time>2021-02-28T09:26:53.531000+00:00</time>
      </trkpt>
      <trkpt lat="0" lon="0">
        <time>2021-02-28T09:26:53.537000+00:00</time>
      </trkpt>
      <trkpt lat="47.32009" lon="-1.45034">
        <ele>112</ele>
        <time>2021-02-28T09:26:54.486000+00:00</time>
      </trkpt>
      <trkpt lat="0" lon="0">
        <time>2021-02-28T09:26:54.497000+00:00</time>
      </trkpt>
      <trkpt lat="0" lon="0">
        <time>2021-02-28T09:26:54.505000+00:00</time>
      </trkpt>
      <trkpt lat="0" lon="0">
        <time>2021-02-28T09:26:54.511000+00:00</time>
      </trkpt>
      <trkpt lat="47.32013" lon="-1.45034">
        <ele>112</ele>
        <time>2021-02-28T09:26:55.491000+00:00</time>
      </trkpt>
      <trkpt lat="0" lon="0">
        <time>2021-02-28T09:26:55.497000+00:00</time>
      </trkpt>
      <trkpt lat="0" lon="0">
        <time>2021-02-28T09:26:55.503000+00:00</time>
      </trkpt>
      <trkpt lat="0" lon="0">
        <time>2021-02-28T09:26:55.507000+00:00</time>
      </trkpt>
      <trkpt lat="47.32017" lon="-1.45033">
        <ele>112</ele>
        <time>2021-02-28T09:26:56.456000+00:00</time>
      </trkpt>
      <trkpt lat="0" lon="0">
        <time>2021-02-28T09:26:56.465000+00:00</time>
      </trkpt>
      <trkpt lat="0" lon="0">
        <time>2021-02-28T09:26:56.470000+00:00</time>
      </trkpt>
      <trkpt lat="0" lon="0">
        <time>2021-02-28T09:26:56.472000+00:00</time>
      </trkpt>
      <trkpt lat="47.32021" lon="-1.45032">
        <ele>112</ele>
        <time>2021-02-28T09:26:57.419000+00:00</time>
      </trkpt>
      <trkpt lat="0" lon="0">
        <time>2021-02-28T09:26:57.429000+00:00</time>
      </trkpt>
      <trkpt lat="0" lon="0">
        <time>2021-02-28T09:26:57.434000+00:00</time>
      </trkpt>
      <trkpt lat="0" lon="0">
        <time>2021-02-28T09:26:57.437000+00:00</time>
      </trkpt>
      <trkpt lat="47.32025" lon="-1.45029">
        <ele>113</ele>
        <time>2021-02-28T09:26:58.430000+00:00</time>
      </trkpt>
      <trkpt lat="0" lon="0">
        <time>2021-02-28T09:26:58.438000+00:00</time>
      </trkpt>
      <trkpt lat="0" lon="0">
        <time>2021-02-28T09:26:58.443000+00:00</time>
      </trkpt>
      <trkpt lat="0" lon="0">
        <time>2021-02-28T09:26:58.446000+00:00</time>
      </trkpt>
      <trkpt lat="47.32029" lon="-1.45026">
        <ele>113</ele>
        <time>2021-02-28T09:26:59.431000+00:00</time>
      </trkpt>
      <trkpt lat="0" lon="0">
        <time>2021-02-28T09:26:59.440000+00:00</time>
      </trkpt>
      <trkpt lat="0" lon="0">
        <time>2021-02-28T09:26:59.445000+00:00</time>
      </trkpt>
      <trkpt lat="0" lon="0">
        <time>2021-02-28T09:26:59.448000+00:00</time>
      </trkpt>
      <trkpt lat="47.32032" lon="-1.45023">
        <ele>113</ele>
        <time>2021-02-28T09:27:00.482000+00:00</time>
      </trkpt>
      <trkpt lat="0" lon="0">
        <time>2021-02-28T09:27:00.489000+00:00</time>
      </trkpt>
      <trkpt lat="0" lon="0">
        <time>2021-02-28T09:27:00.493000+00:00</time>
      </trkpt>
      <trkpt lat="0" lon="0">
        <time>2021-02-28T09:27:00.495000+00:00</time>
      </trkpt>
      <trkpt lat="47.32036" lon="-1.45018">
        <ele>113</ele>
        <time>2021-02-28T09:27:01.426000+00:00</time>
      </trkpt>
      <trkpt lat="0" lon="0">
        <time>2021-02-28T09:27:01.439000+00:00</time>
      </trkpt>
      <trkpt lat="0" lon="0">
        <time>2021-02-28T09:27:01.445000+00:00</time>
      </trkpt>
      <trkpt lat="0" lon="0">
        <time>2021-02-28T09:27:01.448000+00:00</time>
      </trkpt>
      <trkpt lat="47.32039" lon="-1.45014">
        <ele>113</ele>
        <time>2021-02-28T09:27:02.472000+00:00</time>
      </trkpt>
      <trkpt lat="0" lon="0">
        <time>2021-02-28T09:27:02.478000+00:00</time>
      </trkpt>
      <trkpt lat="0" lon="0">
        <time>2021-02-28T09:27:02.483000+00:00</time>
      </trkpt>
      <trkpt lat="0" lon="0">
        <time>2021-02-28T09:27:02.486000+00:00</time>
      </trkpt>
      <trkpt lat="47.32042" lon="-1.45008">
        <ele>113</ele>
        <time>2021-02-28T09:27:03.502000+00:00</time>
      </trkpt>
      <trkpt lat="0" lon="0">
        <time>2021-02-28T09:27:03.510000+00:00</time>
      </trkpt>
      <trkpt lat="0" lon="0">
        <time>2021-02-28T09:27:03.515000+00:00</time>
      </trkpt>
      <trkpt lat="0" lon="0">
        <time>2021-02-28T09:27:03.518000+00:00</time>
      </trkpt>
      <trkpt lat="47.32045" lon="-1.45003">
        <ele>113</ele>
        <time>2021-02-28T09:27:04.476000+00:00</time>
      </trkpt>
      <trkpt lat="0" lon="0">
        <time>2021-02-28T09:27:04.482000+00:00</time>
      </trkpt>
      <trkpt lat="0" lon="0">
        <time>2021-02-28T09:27:04.487000+00:00</time>
      </trkpt>
      <trkpt lat="0" lon="0">
        <time>2021-02-28T09:27:04.490000+00:00</time>
      </trkpt>
      <trkpt lat="47.32048" lon="-1.44998">
        <ele>114</ele>
        <time>2021-02-28T09:27:05.503000+00:00</time>
      </trkpt>
      <trkpt lat="0" lon="0">
        <time>2021-02-28T09:27:05.513000+00:00</time>
      </trkpt>
      <trkpt lat="0" lon="0">
        <time>2021-02-28T09:27:05.518000+00:00</time>
      </trkpt>
      <trkpt lat="0" lon="0">
        <time>2021-02-28T09:27:05.521000+00:00</time>
      </trkpt>
      <trkpt lat="47.32052" lon="-1.44992">
        <ele>114</ele>
        <time>2021-02-28T09:27:06.470000+00:00</time>
      </trkpt>
      <trkpt lat="0" lon="0">
        <time>2021-02-28T09:27:06.475000+00:00</time>
      </trkpt>
      <trkpt lat="0" lon="0">
        <time>2021-02-28T09:27:06.477000+00:00</time>
      </trkpt>
      <trkpt lat="0" lon="0">
        <time>2021-02-28T09:27:06.478000+00:00</time>
      </trkpt>
      <trkpt lat="47.32055" lon="-1.44987">
        <ele>114</ele>
        <time>2021-02-28T09:27:07.469000+00:00</time>
      </trkpt>
      <trkpt lat="0" lon="0">
        <time>2021-02-28T09:27:07.474000+00:00</time>
      </trkpt>
      <trkpt lat="0" lon="0">
        <time>2021-02-28T09:27:07.480000+00:00</time>
      </trkpt>
      <trkpt lat="0" lon="0">
        <time>2021-02-28T09:27:07.482000+00:00</time>
      </trkpt>
      <trkpt lat="47.32058" lon="-1.44981">
        <ele>113</ele>
        <time>2021-02-28T09:27:08.480000+00:00</time>
      </trkpt>
      <trkpt lat="0" lon="0">
        <time>2021-02-28T09:27:08.493000+00:00</time>
      </trkpt>
      <trkpt lat="0" lon="0">
        <time>2021-02-28T09:27:08.501000+00:00</time>
      </trkpt>
      <trkpt lat="0" lon="0">
        <time>2021-02-28T09:27:08.505000+00:00</time>
      </trkpt>
      <trkpt lat="47.32061" lon="-1.44976">
        <ele>113</ele>
        <time>2021-02-28T09:27:09.464000+00:00</time>
      </trkpt>
      <trkpt lat="0" lon="0">
        <time>2021-02-28T09:27:09.469000+00:00</time>
      </trkpt>
      <trkpt lat="0" lon="0">
        <time>2021-02-28T09:27:09.474000+00:00</time>
      </trkpt>
      <trkpt lat="0" lon="0">
        <time>2021-02-28T09:27:09.477000+00:00</time>
      </trkpt>
      <trkpt lat="47.32065" lon="-1.4497">
        <ele>114</ele>
        <time>2021-02-28T09:27:10.447000+00:00</time>
      </trkpt>
      <trkpt lat="0" lon="0">
        <time>2021-02-28T09:27:10.461000+00:00</time>
      </trkpt>
      <trkpt lat="0" lon="0">
        <time>2021-02-28T09:27:10.464000+00:00</time>
      </trkpt>
      <trkpt lat="0" lon="0">
        <time>2021-02-28T09:27:10.468000+00:00</time>
      </trkpt>
      <trkpt lat="47.32068" lon="-1.44965">
        <ele>114</ele>
        <time>2021-02-28T09:27:11.476000+00:00</time>
      </trkpt>
      <trkpt lat="0" lon="0">
        <time>2021-02-28T09:27:11.487000+00:00</time>
      </trkpt>
      <trkpt lat="0" lon="0">
        <time>2021-02-28T09:27:11.494000+00:00</time>
      </trkpt>
      <trkpt lat="0" lon="0">
        <time>2021-02-28T09:27:11.496000+00:00</time>
      </trkpt>
      <trkpt lat="47.32071" lon="-1.44959">
        <ele>114</ele>
        <time>2021-02-28T09:27:12.506000+00:00</time>
      </trkpt>
      <trkpt lat="0" lon="0">
        <time>2021-02-28T09:27:12.516000+00:00</time>
      </trkpt>
      <trkpt lat="0" lon="0">
        <time>2021-02-28T09:27:12.521000+00:00</time>
      </trkpt>
      <trkpt lat="0" lon="0">
        <time>2021-02-28T09:27:12.523000+00:00</time>
      </trkpt>
      <trkpt lat="47.32075" lon="-1.44952">
        <ele>115</ele>
        <time>2021-02-28T09:27:13.500000+00:00</time>
      </trkpt>
      <trkpt lat="0" lon="0">
        <time>2021-02-28T09:27:13.512000+00:00</time>
      </trkpt>
      <trkpt lat="0" lon="0">
        <time>2021-02-28T09:27:13.517000+00:00</time>
      </trkpt>
      <trkpt lat="0" lon="0">
        <time>2021-02-28T09:27:13.520000+00:00</time>
      </trkpt>
      <trkpt lat="47.32078" lon="-1.44946">
        <ele>115</ele>
        <time>2021-02-28T09:27:14.475000+00:00</time>
      </trkpt>
      <trkpt lat="0" lon="0">
        <time>2021-02-28T09:27:14.479000+00:00</time>
      </trkpt>
      <trkpt lat="0" lon="0">
        <time>2021-02-28T09:27:14.486000+00:00</time>
      </trkpt>
      <trkpt lat="0" lon="0">
        <time>2021-02-28T09:27:14.489000+00:00</time>
      </trkpt>
      <trkpt lat="47.32082" lon="-1.4494">
        <ele>115</ele>
        <time>2021-02-28T09:27:15.456000+00:00</time>
      </trkpt>
      <trkpt lat="0" lon="0">
        <time>2021-02-28T09:27:15.457000+00:00</time>
      </trkpt>
      <trkpt lat="0" lon="0">
        <time>2021-02-28T09:27:15.459000+00:00</time>
      </trkpt>
      <trkpt lat="0" lon="0">
        <time>2021-02-28T09:27:15.460000+00:00</time>
      </trkpt>
      <trkpt lat="47.32086" lon="-1.44934">
        <ele>115</ele>
        <time>2021-02-28T09:27:16.491000+00:00</time>
      </trkpt>
      <trkpt lat="0" lon="0">
        <time>2021-02-28T09:27:16.504000+00:00</time>
      </trkpt>
      <trkpt lat="0" lon="0">
        <time>2021-02-28T09:27:16.510000+00:00</time>
      </trkpt>
      <trkpt lat="0" lon="0">
        <time>2021-02-28T09:27:16.514000+00:00</time>
      </trkpt>
      <trkpt lat="47.32089" lon="-1.44928">
        <ele>115</ele>
        <time>2021-02-28T09:27:17.477000+00:00</time>
      </trkpt>
      <trkpt lat="0" lon="0">
        <time>2021-02-28T09:27:17.483000+00:00</time>
      </trkpt>
      <trkpt lat="0" lon="0">
        <time>2021-02-28T09:27:17.492000+00:00</time>
      </trkpt>
      <trkpt lat="0" lon="0">
        <time>2021-02-28T09:27:17.494000+00:00</time>
      </trkpt>
      <trkpt lat="47.32093" lon="-1.44922">
        <ele>115</ele>
        <time>2021-02-28T09:27:18.506000+00:00</time>
      </trkpt>
      <trkpt lat="0" lon="0">
        <time>2021-02-28T09:27:18.512000+00:00</time>
      </trkpt>
      <trkpt lat="0" lon="0">
        <time>2021-02-28T09:27:18.517000+00:00</time>
      </trkpt>
      <trkpt lat="0" lon="0">
        <time>2021-02-28T09:27:18.519000+00:00</time>
      </trkpt>
      <trkpt lat="47.32097" lon="-1.44917">
        <ele>115</ele>
        <time>2021-02-28T09:27:19.480000+00:00</time>
      </trkpt>
      <trkpt lat="0" lon="0">
        <time>2021-02-28T09:27:19.492000+00:00</time>
      </trkpt>
      <trkpt lat="0" lon="0">
        <time>2021-02-28T09:27:19.504000+00:00</time>
      </trkpt>
      <trkpt lat="0" lon="0">
        <time>2021-02-28T09:27:19.508000+00:00</time>
      </trkpt>
      <trkpt lat="47.321" lon="-1.44912">
        <ele>115</ele>
        <time>2021-02-28T09:27:20.487000+00:00</time>
      </trkpt>
      <trkpt lat="0" lon="0">
        <time>2021-02-28T09:27:20.493000+00:00</time>
      </trkpt>
      <trkpt lat="0" lon="0">
        <time>2021-02-28T09:27:20.498000+00:00</time>
      </trkpt>
      <trkpt lat="0" lon="0">
        <time>2021-02-28T09:27:20.501000+00:00</time>
      </trkpt>
      <trkpt lat="47.32104" lon="-1.44906">
        <ele>115</ele>
        <time>2021-02-28T09:27:21.453000+00:00</time>
      </trkpt>
      <trkpt lat="0" lon="0">
        <time>2021-02-28T09:27:21.458000+00:00</time>
      </trkpt>
      <trkpt lat="0" lon="0">
        <time>2021-02-28T09:27:21.462000+00:00</time>
      </trkpt>
      <trkpt lat="0" lon="0">
        <time>2021-02-28T09:27:21.466000+00:00</time>
      </trkpt>
      <trkpt lat="47.32108" lon="-1.449">
        <ele>115</ele>
        <time>2021-02-28T09:27:22.466000+00:00</time>
      </trkpt>
      <trkpt lat="0" lon="0">
        <time>2021-02-28T09:27:22.477000+00:00</time>
      </trkpt>
      <trkpt lat="0" lon="0">
        <time>2021-02-28T09:27:22.482000+00:00</time>
      </trkpt>
      <trkpt lat="0" lon="0">
        <time>2021-02-28T09:27:22.484000+00:00</time>
      </trkpt>
      <trkpt lat="47.32112" lon="-1.44895">
        <ele>115</ele>
        <time>2021-02-28T09:27:23.452000+00:00</time>
      </trkpt>
      <trkpt lat="0" lon="0">
        <time>2021-02-28T09:27:23.458000+00:00</time>
      </trkpt>
      <trkpt lat="0" lon="0">
        <time>2021-02-28T09:27:23.465000+00:00</time>
      </trkpt>
      <trkpt lat="0" lon="0">
        <time>2021-02-28T09:27:23.474000+00:00</time>
      </trkpt>
      <trkpt lat="47.32116" lon="-1.44889">
        <ele>116</ele>
        <time>2021-02-28T09:27:24.469000+00:00</time>
      </trkpt>
      <trkpt lat="0" lon="0">
        <time>2021-02-28T09:27:24.477000+00:00</time>
      </trkpt>
      <trkpt lat="0" lon="0">
        <time>2021-02-28T09:27:24.483000+00:00</time>
      </trkpt>
      <trkpt lat="0" lon="0">
        <time>2021-02-28T09:27:24.485000+00:00</time>
      </trkpt>
      <trkpt lat="47.3212" lon="-1.44884">
        <ele>115</ele>
        <time>2021-02-28T09:27:25.480000+00:00</time>
      </trkpt>
      <trkpt lat="0" lon="0">
        <time>2021-02-28T09:27:25.488000+00:00</time>
      </trkpt>
      <trkpt lat="0" lon="0">
        <time>2021-02-28T09:27:25.494000+00:00</time>
      </trkpt>
      <trkpt lat="0" lon="0">
        <time>2021-02-28T09:27:25.498000+00:00</time>
      </trkpt>
      <trkpt lat="47.32124" lon="-1.44878">
        <ele>115</ele>
        <time>2021-02-28T09:27:26.483000+00:00</time>
      </trkpt>
      <trkpt lat="0" lon="0">
        <time>2021-02-28T09:27:26.489000+00:00</time>
      </trkpt>
      <trkpt lat="0" lon="0">
        <time>2021-02-28T09:27:26.500000+00:00</time>
      </trkpt>
      <trkpt lat="0" lon="0">
        <time>2021-02-28T09:27:26.503000+00:00</time>
      </trkpt>
      <trkpt lat="47.32128" lon="-1.44873">
        <ele>115</ele>
        <time>2021-02-28T09:27:27.505000+00:00</time>
      </trkpt>
      <trkpt lat="0" lon="0">
        <time>2021-02-28T09:27:27.513000+00:00</time>
      </trkpt>
      <trkpt lat="0" lon="0">
        <time>2021-02-28T09:27:27.520000+00:00</time>
      </trkpt>
      <trkpt lat="0" lon="0">
        <time>2021-02-28T09:27:27.523000+00:00</time>
      </trkpt>
      <trkpt lat="47.32132" lon="-1.44867">
        <ele>116</ele>
        <time>2021-02-28T09:27:28.506000+00:00</time>
      </trkpt>
      <trkpt lat="0" lon="0">
        <time>2021-02-28T09:27:28.521000+00:00</time>
      </trkpt>
      <trkpt lat="0" lon="0">
        <time>2021-02-28T09:27:28.527000+00:00</time>
      </trkpt>
      <trkpt lat="0" lon="0">
        <time>2021-02-28T09:27:28.530000+00:00</time>
      </trkpt>
      <trkpt lat="47.32135" lon="-1.44862">
        <ele>116</ele>
        <time>2021-02-28T09:27:29.461000+00:00</time>
      </trkpt>
      <trkpt lat="0" lon="0">
        <time>2021-02-28T09:27:29.480000+00:00</time>
      </trkpt>
      <trkpt lat="0" lon="0">
        <time>2021-02-28T09:27:29.488000+00:00</time>
      </trkpt>
      <trkpt lat="0" lon="0">
        <time>2021-02-28T09:27:29.490000+00:00</time>
      </trkpt>
      <trkpt lat="47.32139" lon="-1.44857">
        <ele>116</ele>
        <time>2021-02-28T09:27:30.430000+00:00</time>
      </trkpt>
      <trkpt lat="0" lon="0">
        <time>2021-02-28T09:27:30.434000+00:00</time>
      </trkpt>
      <trkpt lat="0" lon="0">
        <time>2021-02-28T09:27:30.443000+00:00</time>
      </trkpt>
      <trkpt lat="0" lon="0">
        <time>2021-02-28T09:27:30.445000+00:00</time>
      </trkpt>
      <trkpt lat="47.32143" lon="-1.44852">
        <ele>116</ele>
        <time>2021-02-28T09:27:31.477000+00:00</time>
      </trkpt>
      <trkpt lat="0" lon="0">
        <time>2021-02-28T09:27:31.483000+00:00</time>
      </trkpt>
      <trkpt lat="0" lon="0">
        <time>2021-02-28T09:27:31.490000+00:00</time>
      </trkpt>
      <trkpt lat="0" lon="0">
        <time>2021-02-28T09:27:31.493000+00:00</time>
      </trkpt>
      <trkpt lat="47.32146" lon="-1.44847">
        <ele>115</ele>
        <time>2021-02-28T09:27:32.493000+00:00</time>
      </trkpt>
      <trkpt lat="0" lon="0">
        <time>2021-02-28T09:27:32.497000+00:00</time>
      </trkpt>
      <trkpt lat="0" lon="0">
        <time>2021-02-28T09:27:32.500000+00:00</time>
      </trkpt>
      <trkpt lat="0" lon="0">
        <time>2021-02-28T09:27:32.501000+00:00</time>
      </trkpt>
      <trkpt lat="47.3215" lon="-1.44843">
        <ele>115</ele>
        <time>2021-02-28T09:27:33.483000+00:00</time>
      </trkpt>
      <trkpt lat="0" lon="0">
        <time>2021-02-28T09:27:33.492000+00:00</time>
      </trkpt>
      <trkpt lat="0" lon="0">
        <time>2021-02-28T09:27:33.498000+00:00</time>
      </trkpt>
      <trkpt lat="0" lon="0">
        <time>2021-02-28T09:27:33.502000+00:00</time>
      </trkpt>
      <trkpt lat="47.32153" lon="-1.44838">
        <ele>116</ele>
        <time>2021-02-28T09:27:34.466000+00:00</time>
      </trkpt>
      <trkpt lat="0" lon="0">
        <time>2021-02-28T09:27:34.483000+00:00</time>
      </trkpt>
      <trkpt lat="0" lon="0">
        <time>2021-02-28T09:27:34.488000+00:00</time>
      </trkpt>
      <trkpt lat="0" lon="0">
        <time>2021-02-28T09:27:34.490000+00:00</time>
      </trkpt>
      <trkpt lat="47.32157" lon="-1.44834">
        <ele>116</ele>
        <time>2021-02-28T09:27:35.377000+00:00</time>
      </trkpt>
      <trkpt lat="0" lon="0">
        <time>2021-02-28T09:27:35.383000+00:00</time>
      </trkpt>
      <trkpt lat="0" lon="0">
        <time>2021-02-28T09:27:35.385000+00:00</time>
      </trkpt>
      <trkpt lat="0" lon="0">
        <time>2021-02-28T09:27:35.386000+00:00</time>
      </trkpt>
      <trkpt lat="47.3216" lon="-1.44829">
        <ele>116</ele>
        <time>2021-02-28T09:27:36.467000+00:00</time>
      </trkpt>
      <trkpt lat="0" lon="0">
        <time>2021-02-28T09:27:36.472000+00:00</time>
      </trkpt>
      <trkpt lat="0" lon="0">
        <time>2021-02-28T09:27:36.478000+00:00</time>
      </trkpt>
      <trkpt lat="0" lon="0">
        <time>2021-02-28T09:27:36.481000+00:00</time>
      </trkpt>
      <trkpt lat="47.32163" lon="-1.44825">
        <ele>116</ele>
        <time>2021-02-28T09:27:37.492000+00:00</time>
      </trkpt>
      <trkpt lat="0" lon="0">
        <time>2021-02-28T09:27:37.506000+00:00</time>
      </trkpt>
      <trkpt lat="0" lon="0">
        <time>2021-02-28T09:27:37.515000+00:00</time>
      </trkpt>
      <trkpt lat="0" lon="0">
        <time>2021-02-28T09:27:37.518000+00:00</time>
      </trkpt>
      <trkpt lat="47.32166" lon="-1.44821">
        <ele>117</ele>
        <time>2021-02-28T09:27:38.480000+00:00</time>
      </trkpt>
      <trkpt lat="0" lon="0">
        <time>2021-02-28T09:27:38.485000+00:00</time>
      </trkpt>
      <trkpt lat="0" lon="0">
        <time>2021-02-28T09:27:38.491000+00:00</time>
      </trkpt>
      <trkpt lat="0" lon="0">
        <time>2021-02-28T09:27:38.494000+00:00</time>
      </trkpt>
      <trkpt lat="47.32169" lon="-1.44816">
        <ele>117</ele>
        <time>2021-02-28T09:27:39.502000+00:00</time>
      </trkpt>
      <trkpt lat="0" lon="0">
        <time>2021-02-28T09:27:39.516000+00:00</time>
      </trkpt>
      <trkpt lat="0" lon="0">
        <time>2021-02-28T09:27:39.521000+00:00</time>
      </trkpt>
      <trkpt lat="0" lon="0">
        <time>2021-02-28T09:27:39.524000+00:00</time>
      </trkpt>
      <trkpt lat="47.32173" lon="-1.44812">
        <ele>117</ele>
        <time>2021-02-28T09:27:40.505000+00:00</time>
      </trkpt>
      <trkpt lat="0" lon="0">
        <time>2021-02-28T09:27:40.518000+00:00</time>
      </trkpt>
      <trkpt lat="0" lon="0">
        <time>2021-02-28T09:27:40.526000+00:00</time>
      </trkpt>
      <trkpt lat="0" lon="0">
        <time>2021-02-28T09:27:40.530000+00:00</time>
      </trkpt>
      <trkpt lat="47.32176" lon="-1.44808">
        <ele>117</ele>
        <time>2021-02-28T09:27:41.450000+00:00</time>
      </trkpt>
      <trkpt lat="0" lon="0">
        <time>2021-02-28T09:27:41.455000+00:00</time>
      </trkpt>
      <trkpt lat="0" lon="0">
        <time>2021-02-28T09:27:41.461000+00:00</time>
      </trkpt>
      <trkpt lat="0" lon="0">
        <time>2021-02-28T09:27:41.464000+00:00</time>
      </trkpt>
      <trkpt lat="47.32179" lon="-1.44804">
        <ele>117</ele>
        <time>2021-02-28T09:27:42.478000+00:00</time>
      </trkpt>
      <trkpt lat="0" lon="0">
        <time>2021-02-28T09:27:42.493000+00:00</time>
      </trkpt>
      <trkpt lat="0" lon="0">
        <time>2021-02-28T09:27:42.498000+00:00</time>
      </trkpt>
      <trkpt lat="0" lon="0">
        <time>2021-02-28T09:27:42.500000+00:00</time>
      </trkpt>
      <trkpt lat="47.32182" lon="-1.44801">
        <ele>118</ele>
        <time>2021-02-28T09:27:43.517000+00:00</time>
      </trkpt>
      <trkpt lat="0" lon="0">
        <time>2021-02-28T09:27:43.535000+00:00</time>
      </trkpt>
      <trkpt lat="0" lon="0">
        <time>2021-02-28T09:27:43.546000+00:00</time>
      </trkpt>
      <trkpt lat="0" lon="0">
        <time>2021-02-28T09:27:43.550000+00:00</time>
      </trkpt>
      <trkpt lat="47.32186" lon="-1.44797">
        <ele>119</ele>
        <time>2021-02-28T09:27:44.436000+00:00</time>
      </trkpt>
      <trkpt lat="0" lon="0">
        <time>2021-02-28T09:27:44.442000+00:00</time>
      </trkpt>
      <trkpt lat="0" lon="0">
        <time>2021-02-28T09:27:44.448000+00:00</time>
      </trkpt>
      <trkpt lat="0" lon="0">
        <time>2021-02-28T09:27:44.450000+00:00</time>
      </trkpt>
      <trkpt lat="47.32189" lon="-1.44794">
        <ele>119</ele>
        <time>2021-02-28T09:27:45.476000+00:00</time>
      </trkpt>
      <trkpt lat="0" lon="0">
        <time>2021-02-28T09:27:45.483000+00:00</time>
      </trkpt>
      <trkpt lat="0" lon="0">
        <time>2021-02-28T09:27:45.488000+00:00</time>
      </trkpt>
      <trkpt lat="0" lon="0">
        <time>2021-02-28T09:27:45.491000+00:00</time>
      </trkpt>
      <trkpt lat="47.32193" lon="-1.44791">
        <ele>119</ele>
        <time>2021-02-28T09:27:46.470000+00:00</time>
      </trkpt>
      <trkpt lat="0" lon="0">
        <time>2021-02-28T09:27:46.481000+00:00</time>
      </trkpt>
      <trkpt lat="0" lon="0">
        <time>2021-02-28T09:27:46.487000+00:00</time>
      </trkpt>
      <trkpt lat="0" lon="0">
        <time>2021-02-28T09:27:46.490000+00:00</time>
      </trkpt>
      <trkpt lat="47.32197" lon="-1.44789">
        <ele>120</ele>
        <time>2021-02-28T09:27:47.413000+00:00</time>
      </trkpt>
      <trkpt lat="0" lon="0">
        <time>2021-02-28T09:27:47.422000+00:00</time>
      </trkpt>
      <trkpt lat="0" lon="0">
        <time>2021-02-28T09:27:47.426000+00:00</time>
      </trkpt>
      <trkpt lat="0" lon="0">
        <time>2021-02-28T09:27:47.428000+00:00</time>
      </trkpt>
      <trkpt lat="47.32201" lon="-1.44786">
        <ele>120</ele>
        <time>2021-02-28T09:27:48.466000+00:00</time>
      </trkpt>
      <trkpt lat="0" lon="0">
        <time>2021-02-28T09:27:48.475000+00:00</time>
      </trkpt>
      <trkpt lat="0" lon="0">
        <time>2021-02-28T09:27:48.480000+00:00</time>
      </trkpt>
      <trkpt lat="0" lon="0">
        <time>2021-02-28T09:27:48.483000+00:00</time>
      </trkpt>
      <trkpt lat="47.32205" lon="-1.44783">
        <ele>120</ele>
        <time>2021-02-28T09:27:49.469000+00:00</time>
      </trkpt>
      <trkpt lat="0" lon="0">
        <time>2021-02-28T09:27:49.481000+00:00</time>
      </trkpt>
      <trkpt lat="0" lon="0">
        <time>2021-02-28T09:27:49.487000+00:00</time>
      </trkpt>
      <trkpt lat="0" lon="0">
        <time>2021-02-28T09:27:49.490000+00:00</time>
      </trkpt>
      <trkpt lat="47.32209" lon="-1.44781">
        <ele>120</ele>
        <time>2021-02-28T09:27:50.482000+00:00</time>
      </trkpt>
      <trkpt lat="0" lon="0">
        <time>2021-02-28T09:27:50.494000+00:00</time>
      </trkpt>
      <trkpt lat="0" lon="0">
        <time>2021-02-28T09:27:50.505000+00:00</time>
      </trkpt>
      <trkpt lat="0" lon="0">
        <time>2021-02-28T09:27:50.509000+00:00</time>
      </trkpt>
      <trkpt lat="47.32213" lon="-1.44778">
        <ele>120</ele>
        <time>2021-02-28T09:27:51.485000+00:00</time>
      </trkpt>
      <trkpt lat="0" lon="0">
        <time>2021-02-28T09:27:51.491000+00:00</time>
      </trkpt>
      <trkpt lat="0" lon="0">
        <time>2021-02-28T09:27:51.496000+00:00</time>
      </trkpt>
      <trkpt lat="0" lon="0">
        <time>2021-02-28T09:27:51.501000+00:00</time>
      </trkpt>
      <trkpt lat="47.32217" lon="-1.44775">
        <ele>120</ele>
        <time>2021-02-28T09:27:52.471000+00:00</time>
      </trkpt>
      <trkpt lat="0" lon="0">
        <time>2021-02-28T09:27:52.480000+00:00</time>
      </trkpt>
      <trkpt lat="0" lon="0">
        <time>2021-02-28T09:27:52.487000+00:00</time>
      </trkpt>
      <trkpt lat="0" lon="0">
        <time>2021-02-28T09:27:52.490000+00:00</time>
      </trkpt>
      <trkpt lat="47.32221" lon="-1.44773">
        <ele>121</ele>
        <time>2021-02-28T09:27:53.477000+00:00</time>
      </trkpt>
      <trkpt lat="0" lon="0">
        <time>2021-02-28T09:27:53.483000+00:00</time>
      </trkpt>
      <trkpt lat="0" lon="0">
        <time>2021-02-28T09:27:53.487000+00:00</time>
      </trkpt>
      <trkpt lat="0" lon="0">
        <time>2021-02-28T09:27:53.490000+00:00</time>
      </trkpt>
      <trkpt lat="47.32225" lon="-1.44772">
        <ele>121</ele>
        <time>2021-02-28T09:27:54.483000+00:00</time>
      </trkpt>
      <trkpt lat="0" lon="0">
        <time>2021-02-28T09:27:54.490000+00:00</time>
      </trkpt>
      <trkpt lat="0" lon="0">
        <time>2021-02-28T09:27:54.495000+00:00</time>
      </trkpt>
      <trkpt lat="0" lon="0">
        <time>2021-02-28T09:27:54.497000+00:00</time>
      </trkpt>
      <trkpt lat="47.32229" lon="-1.4477">
        <ele>121</ele>
        <time>2021-02-28T09:27:55.499000+00:00</time>
      </trkpt>
      <trkpt lat="0" lon="0">
        <time>2021-02-28T09:27:55.502000+00:00</time>
      </trkpt>
      <trkpt lat="0" lon="0">
        <time>2021-02-28T09:27:55.505000+00:00</time>
      </trkpt>
      <trkpt lat="0" lon="0">
        <time>2021-02-28T09:27:55.506000+00:00</time>
      </trkpt>
      <trkpt lat="47.32233" lon="-1.4477">
        <ele>122</ele>
        <time>2021-02-28T09:27:56.483000+00:00</time>
      </trkpt>
      <trkpt lat="0" lon="0">
        <time>2021-02-28T09:27:56.491000+00:00</time>
      </trkpt>
      <trkpt lat="0" lon="0">
        <time>2021-02-28T09:27:56.495000+00:00</time>
      </trkpt>
      <trkpt lat="0" lon="0">
        <time>2021-02-28T09:27:56.498000+00:00</time>
      </trkpt>
      <trkpt lat="47.32237" lon="-1.44771">
        <ele>123</ele>
        <time>2021-02-28T09:27:57.460000+00:00</time>
      </trkpt>
      <trkpt lat="0" lon="0">
        <time>2021-02-28T09:27:57.467000+00:00</time>
      </trkpt>
      <trkpt lat="0" lon="0">
        <time>2021-02-28T09:27:57.472000+00:00</time>
      </trkpt>
      <trkpt lat="0" lon="0">
        <time>2021-02-28T09:27:57.475000+00:00</time>
      </trkpt>
      <trkpt lat="47.3224" lon="-1.44773">
        <ele>124</ele>
        <time>2021-02-28T09:27:58.416000+00:00</time>
      </trkpt>
      <trkpt lat="0" lon="0">
        <time>2021-02-28T09:27:58.424000+00:00</time>
      </trkpt>
      <trkpt lat="0" lon="0">
        <time>2021-02-28T09:27:58.430000+00:00</time>
      </trkpt>
      <trkpt lat="0" lon="0">
        <time>2021-02-28T09:27:58.432000+00:00</time>
      </trkpt>
      <trkpt lat="47.32244" lon="-1.44777">
        <ele>124</ele>
        <time>2021-02-28T09:27:59.486000+00:00</time>
      </trkpt>
      <trkpt lat="0" lon="0">
        <time>2021-02-28T09:27:59.497000+00:00</time>
      </trkpt>
      <trkpt lat="0" lon="0">
        <time>2021-02-28T09:27:59.502000+00:00</time>
      </trkpt>
      <trkpt lat="0" lon="0">
        <time>2021-02-28T09:27:59.505000+00:00</time>
      </trkpt>
      <trkpt lat="47.32248" lon="-1.44782">
        <ele>124</ele>
        <time>2021-02-28T09:28:00.478000+00:00</time>
      </trkpt>
      <trkpt lat="0" lon="0">
        <time>2021-02-28T09:28:00.488000+00:00</time>
      </trkpt>
      <trkpt lat="0" lon="0">
        <time>2021-02-28T09:28:00.493000+00:00</time>
      </trkpt>
      <trkpt lat="0" lon="0">
        <time>2021-02-28T09:28:00.495000+00:00</time>
      </trkpt>
      <trkpt lat="47.32252" lon="-1.44788">
        <ele>124</ele>
        <time>2021-02-28T09:28:01.504000+00:00</time>
      </trkpt>
      <trkpt lat="0" lon="0">
        <time>2021-02-28T09:28:01.509000+00:00</time>
      </trkpt>
      <trkpt lat="0" lon="0">
        <time>2021-02-28T09:28:01.514000+00:00</time>
      </trkpt>
      <trkpt lat="0" lon="0">
        <time>2021-02-28T09:28:01.516000+00:00</time>
      </trkpt>
      <trkpt lat="47.32256" lon="-1.44795">
        <ele>124</ele>
        <time>2021-02-28T09:28:02.504000+00:00</time>
      </trkpt>
      <trkpt lat="0" lon="0">
        <time>2021-02-28T09:28:02.511000+00:00</time>
      </trkpt>
      <trkpt lat="0" lon="0">
        <time>2021-02-28T09:28:02.517000+00:00</time>
      </trkpt>
      <trkpt lat="0" lon="0">
        <time>2021-02-28T09:28:02.520000+00:00</time>
      </trkpt>
      <trkpt lat="47.32259" lon="-1.44802">
        <ele>124</ele>
        <time>2021-02-28T09:28:03.520000+00:00</time>
      </trkpt>
      <trkpt lat="0" lon="0">
        <time>2021-02-28T09:28:03.527000+00:00</time>
      </trkpt>
      <trkpt lat="0" lon="0">
        <time>2021-02-28T09:28:03.533000+00:00</time>
      </trkpt>
      <trkpt lat="0" lon="0">
        <time>2021-02-28T09:28:03.537000+00:00</time>
      </trkpt>
      <trkpt lat="47.32263" lon="-1.4481">
        <ele>124</ele>
        <time>2021-02-28T09:28:04.493000+00:00</time>
      </trkpt>
      <trkpt lat="0" lon="0">
        <time>2021-02-28T09:28:04.502000+00:00</time>
      </trkpt>
      <trkpt lat="0" lon="0">
        <time>2021-02-28T09:28:04.506000+00:00</time>
      </trkpt>
      <trkpt lat="0" lon="0">
        <time>2021-02-28T09:28:04.509000+00:00</time>
      </trkpt>
      <trkpt lat="47.32266" lon="-1.44818">
        <ele>124</ele>
        <time>2021-02-28T09:28:05.475000+00:00</time>
      </trkpt>
      <trkpt lat="0" lon="0">
        <time>2021-02-28T09:28:05.488000+00:00</time>
      </trkpt>
      <trkpt lat="0" lon="0">
        <time>2021-02-28T09:28:05.493000+00:00</time>
      </trkpt>
      <trkpt lat="0" lon="0">
        <time>2021-02-28T09:28:05.497000+00:00</time>
      </trkpt>
      <trkpt lat="47.3227" lon="-1.44826">
        <ele>123</ele>
        <time>2021-02-28T09:28:06.487000+00:00</time>
      </trkpt>
      <trkpt lat="0" lon="0">
        <time>2021-02-28T09:28:06.502000+00:00</time>
      </trkpt>
      <trkpt lat="0" lon="0">
        <time>2021-02-28T09:28:06.507000+00:00</time>
      </trkpt>
      <trkpt lat="0" lon="0">
        <time>2021-02-28T09:28:06.509000+00:00</time>
      </trkpt>
      <trkpt lat="47.32273" lon="-1.44834">
        <ele>123</ele>
        <time>2021-02-28T09:28:07.491000+00:00</time>
      </trkpt>
      <trkpt lat="0" lon="0">
        <time>2021-02-28T09:28:07.505000+00:00</time>
      </trkpt>
      <trkpt lat="0" lon="0">
        <time>2021-02-28T09:28:07.511000+00:00</time>
      </trkpt>
      <trkpt lat="0" lon="0">
        <time>2021-02-28T09:28:07.514000+00:00</time>
      </trkpt>
      <trkpt lat="47.32276" lon="-1.44842">
        <ele>122</ele>
        <time>2021-02-28T09:28:08.359000+00:00</time>
      </trkpt>
      <trkpt lat="0" lon="0">
        <time>2021-02-28T09:28:08.373000+00:00</time>
      </trkpt>
      <trkpt lat="0" lon="0">
        <time>2021-02-28T09:28:08.376000+00:00</time>
      </trkpt>
      <trkpt lat="0" lon="0">
        <time>2021-02-28T09:28:08.378000+00:00</time>
      </trkpt>
      <trkpt lat="47.32279" lon="-1.44851">
        <ele>121</ele>
        <time>2021-02-28T09:28:09.409000+00:00</time>
      </trkpt>
      <trkpt lat="0" lon="0">
        <time>2021-02-28T09:28:09.415000+00:00</time>
      </trkpt>
      <trkpt lat="0" lon="0">
        <time>2021-02-28T09:28:09.419000+00:00</time>
      </trkpt>
      <trkpt lat="0" lon="0">
        <time>2021-02-28T09:28:09.422000+00:00</time>
      </trkpt>
      <trkpt lat="47.32282" lon="-1.44859">
        <ele>121</ele>
        <time>2021-02-28T09:28:10.410000+00:00</time>
      </trkpt>
      <trkpt lat="0" lon="0">
        <time>2021-02-28T09:28:10.418000+00:00</time>
      </trkpt>
      <trkpt lat="0" lon="0">
        <time>2021-02-28T09:28:10.422000+00:00</time>
      </trkpt>
      <trkpt lat="0" lon="0">
        <time>2021-02-28T09:28:10.424000+00:00</time>
      </trkpt>
      <trkpt lat="47.32284" lon="-1.44867">
        <ele>121</ele>
        <time>2021-02-28T09:28:11.461000+00:00</time>
      </trkpt>
      <trkpt lat="0" lon="0">
        <time>2021-02-28T09:28:11.467000+00:00</time>
      </trkpt>
      <trkpt lat="0" lon="0">
        <time>2021-02-28T09:28:11.474000+00:00</time>
      </trkpt>
      <trkpt lat="0" lon="0">
        <time>2021-02-28T09:28:11.477000+00:00</time>
      </trkpt>
      <trkpt lat="47.32287" lon="-1.44875">
        <ele>120</ele>
        <time>2021-02-28T09:28:12.468000+00:00</time>
      </trkpt>
      <trkpt lat="0" lon="0">
        <time>2021-02-28T09:28:12.480000+00:00</time>
      </trkpt>
      <trkpt lat="0" lon="0">
        <time>2021-02-28T09:28:12.485000+00:00</time>
      </trkpt>
      <trkpt lat="0" lon="0">
        <time>2021-02-28T09:28:12.488000+00:00</time>
      </trkpt>
      <trkpt lat="47.3229" lon="-1.44883">
        <ele>120</ele>
        <time>2021-02-28T09:28:13.512000+00:00</time>
      </trkpt>
      <trkpt lat="0" lon="0">
        <time>2021-02-28T09:28:13.517000+00:00</time>
      </trkpt>
      <trkpt lat="0" lon="0">
        <time>2021-02-28T09:28:13.522000+00:00</time>
      </trkpt>
      <trkpt lat="0" lon="0">
        <time>2021-02-28T09:28:13.525000+00:00</time>
      </trkpt>
      <trkpt lat="47.32293" lon="-1.44891">
        <ele>120</ele>
        <time>2021-02-28T09:28:14.503000+00:00</time>
      </trkpt>
      <trkpt lat="0" lon="0">
        <time>2021-02-28T09:28:14.510000+00:00</time>
      </trkpt>
      <trkpt lat="0" lon="0">
        <time>2021-02-28T09:28:14.515000+00:00</time>
      </trkpt>
      <trkpt lat="0" lon="0">
        <time>2021-02-28T09:28:14.518000+00:00</time>
      </trkpt>
      <trkpt lat="47.32296" lon="-1.44899">
        <ele>120</ele>
        <time>2021-02-28T09:28:15.502000+00:00</time>
      </trkpt>
      <trkpt lat="0" lon="0">
        <time>2021-02-28T09:28:15.509000+00:00</time>
      </trkpt>
      <trkpt lat="0" lon="0">
        <time>2021-02-28T09:28:15.515000+00:00</time>
      </trkpt>
      <trkpt lat="0" lon="0">
        <time>2021-02-28T09:28:15.518000+00:00</time>
      </trkpt>
      <trkpt lat="47.32298" lon="-1.44906">
        <ele>120</ele>
        <time>2021-02-28T09:28:16.461000+00:00</time>
      </trkpt>
      <trkpt lat="0" lon="0">
        <time>2021-02-28T09:28:16.466000+00:00</time>
      </trkpt>
      <trkpt lat="0" lon="0">
        <time>2021-02-28T09:28:16.471000+00:00</time>
      </trkpt>
      <trkpt lat="0" lon="0">
        <time>2021-02-28T09:28:16.473000+00:00</time>
      </trkpt>
      <trkpt lat="47.32301" lon="-1.44913">
        <ele>119</ele>
        <time>2021-02-28T09:28:17.406000+00:00</time>
      </trkpt>
      <trkpt lat="0" lon="0">
        <time>2021-02-28T09:28:17.418000+00:00</time>
      </trkpt>
      <trkpt lat="0" lon="0">
        <time>2021-02-28T09:28:17.433000+00:00</time>
      </trkpt>
      <trkpt lat="0" lon="0">
        <time>2021-02-28T09:28:17.442000+00:00</time>
      </trkpt>
      <trkpt lat="47.32304" lon="-1.4492">
        <ele>118</ele>
        <time>2021-02-28T09:28:18.471000+00:00</time>
      </trkpt>
      <trkpt lat="0" lon="0">
        <time>2021-02-28T09:28:18.473000+00:00</time>
      </trkpt>
      <trkpt lat="0" lon="0">
        <time>2021-02-28T09:28:18.476000+00:00</time>
      </trkpt>
      <trkpt lat="0" lon="0">
        <time>2021-02-28T09:28:18.479000+00:00</time>
      </trkpt>
      <trkpt lat="47.32307" lon="-1.44926">
        <ele>118</ele>
        <time>2021-02-28T09:28:19.521000+00:00</time>
      </trkpt>
      <trkpt lat="0" lon="0">
        <time>2021-02-28T09:28:19.535000+00:00</time>
      </trkpt>
      <trkpt lat="0" lon="0">
        <time>2021-02-28T09:28:19.543000+00:00</time>
      </trkpt>
      <trkpt lat="0" lon="0">
        <time>2021-02-28T09:28:19.546000+00:00</time>
      </trkpt>
      <trkpt lat="47.32311" lon="-1.44933">
        <ele>118</ele>
        <time>2021-02-28T09:28:20.492000+00:00</time>
      </trkpt>
      <trkpt lat="0" lon="0">
        <time>2021-02-28T09:28:20.497000+00:00</time>
      </trkpt>
      <trkpt lat="0" lon="0">
        <time>2021-02-28T09:28:20.503000+00:00</time>
      </trkpt>
      <trkpt lat="0" lon="0">
        <time>2021-02-28T09:28:20.506000+00:00</time>
      </trkpt>
      <trkpt lat="47.32314" lon="-1.44939">
        <ele>117</ele>
        <time>2021-02-28T09:28:21.484000+00:00</time>
      </trkpt>
      <trkpt lat="0" lon="0">
        <time>2021-02-28T09:28:21.490000+00:00</time>
      </trkpt>
      <trkpt lat="0" lon="0">
        <time>2021-02-28T09:28:21.496000+00:00</time>
      </trkpt>
      <trkpt lat="0" lon="0">
        <time>2021-02-28T09:28:21.499000+00:00</time>
      </trkpt>
      <trkpt lat="47.32317" lon="-1.44945">
        <ele>117</ele>
        <time>2021-02-28T09:28:22.477000+00:00</time>
      </trkpt>
      <trkpt lat="0" lon="0">
        <time>2021-02-28T09:28:22.489000+00:00</time>
      </trkpt>
      <trkpt lat="0" lon="0">
        <time>2021-02-28T09:28:22.493000+00:00</time>
      </trkpt>
      <trkpt lat="0" lon="0">
        <time>2021-02-28T09:28:22.496000+00:00</time>
      </trkpt>
      <trkpt lat="47.32321" lon="-1.4495">
        <ele>117</ele>
        <time>2021-02-28T09:28:23.464000+00:00</time>
      </trkpt>
      <trkpt lat="0" lon="0">
        <time>2021-02-28T09:28:23.473000+00:00</time>
      </trkpt>
      <trkpt lat="0" lon="0">
        <time>2021-02-28T09:28:23.477000+00:00</time>
      </trkpt>
      <trkpt lat="0" lon="0">
        <time>2021-02-28T09:28:23.480000+00:00</time>
      </trkpt>
      <trkpt lat="47.32325" lon="-1.44955">
        <ele>117</ele>
        <time>2021-02-28T09:28:24.477000+00:00</time>
      </trkpt>
      <trkpt lat="0" lon="0">
        <time>2021-02-28T09:28:24.488000+00:00</time>
      </trkpt>
      <trkpt lat="0" lon="0">
        <time>2021-02-28T09:28:24.495000+00:00</time>
      </trkpt>
      <trkpt lat="0" lon="0">
        <time>2021-02-28T09:28:24.497000+00:00</time>
      </trkpt>
      <trkpt lat="47.32328" lon="-1.44961">
        <ele>117</ele>
        <time>2021-02-28T09:28:25.465000+00:00</time>
      </trkpt>
      <trkpt lat="0" lon="0">
        <time>2021-02-28T09:28:25.474000+00:00</time>
      </trkpt>
      <trkpt lat="0" lon="0">
        <time>2021-02-28T09:28:25.479000+00:00</time>
      </trkpt>
      <trkpt lat="0" lon="0">
        <time>2021-02-28T09:28:25.482000+00:00</time>
      </trkpt>
      <trkpt lat="47.32332" lon="-1.44966">
        <ele>117</ele>
        <time>2021-02-28T09:28:26.488000+00:00</time>
      </trkpt>
      <trkpt lat="0" lon="0">
        <time>2021-02-28T09:28:26.502000+00:00</time>
      </trkpt>
      <trkpt lat="0" lon="0">
        <time>2021-02-28T09:28:26.510000+00:00</time>
      </trkpt>
      <trkpt lat="0" lon="0">
        <time>2021-02-28T09:28:26.512000+00:00</time>
      </trkpt>
      <trkpt lat="47.32336" lon="-1.44971">
        <ele>117</ele>
        <time>2021-02-28T09:28:27.481000+00:00</time>
      </trkpt>
      <trkpt lat="0" lon="0">
        <time>2021-02-28T09:28:27.494000+00:00</time>
      </trkpt>
      <trkpt lat="0" lon="0">
        <time>2021-02-28T09:28:27.501000+00:00</time>
      </trkpt>
      <trkpt lat="0" lon="0">
        <time>2021-02-28T09:28:27.504000+00:00</time>
      </trkpt>
      <trkpt lat="47.3234" lon="-1.44976">
        <ele>117</ele>
        <time>2021-02-28T09:28:28.458000+00:00</time>
      </trkpt>
      <trkpt lat="0" lon="0">
        <time>2021-02-28T09:28:28.468000+00:00</time>
      </trkpt>
      <trkpt lat="0" lon="0">
        <time>2021-02-28T09:28:28.475000+00:00</time>
      </trkpt>
      <trkpt lat="0" lon="0">
        <time>2021-02-28T09:28:28.477000+00:00</time>
      </trkpt>
      <trkpt lat="47.32344" lon="-1.44982">
        <ele>117</ele>
        <time>2021-02-28T09:28:29.423000+00:00</time>
      </trkpt>
      <trkpt lat="0" lon="0">
        <time>2021-02-28T09:28:29.436000+00:00</time>
      </trkpt>
      <trkpt lat="0" lon="0">
        <time>2021-02-28T09:28:29.443000+00:00</time>
      </trkpt>
      <trkpt lat="0" lon="0">
        <time>2021-02-28T09:28:29.445000+00:00</time>
      </trkpt>
      <trkpt lat="47.32348" lon="-1.44987">
        <ele>117</ele>
        <time>2021-02-28T09:28:30.478000+00:00</time>
      </trkpt>
      <trkpt lat="0" lon="0">
        <time>2021-02-28T09:28:30.486000+00:00</time>
      </trkpt>
      <trkpt lat="0" lon="0">
        <time>2021-02-28T09:28:30.488000+00:00</time>
      </trkpt>
      <trkpt lat="0" lon="0">
        <time>2021-02-28T09:28:30.489000+00:00</time>
      </trkpt>
      <trkpt lat="47.32352" lon="-1.44992">
        <ele>117</ele>
        <time>2021-02-28T09:28:31.466000+00:00</time>
      </trkpt>
      <trkpt lat="0" lon="0">
        <time>2021-02-28T09:28:31.474000+00:00</time>
      </trkpt>
      <trkpt lat="0" lon="0">
        <time>2021-02-28T09:28:31.479000+00:00</time>
      </trkpt>
      <trkpt lat="0" lon="0">
        <time>2021-02-28T09:28:31.482000+00:00</time>
      </trkpt>
      <trkpt lat="47.32356" lon="-1.44996">
        <ele>117</ele>
        <time>2021-02-28T09:28:32.452000+00:00</time>
      </trkpt>
      <trkpt lat="0" lon="0">
        <time>2021-02-28T09:28:32.462000+00:00</time>
      </trkpt>
      <trkpt lat="0" lon="0">
        <time>2021-02-28T09:28:32.467000+00:00</time>
      </trkpt>
      <trkpt lat="0" lon="0">
        <time>2021-02-28T09:28:32.469000+00:00</time>
      </trkpt>
      <trkpt lat="47.3236" lon="-1.45001">
        <ele>117</ele>
        <time>2021-02-28T09:28:33.474000+00:00</time>
      </trkpt>
      <trkpt lat="0" lon="0">
        <time>2021-02-28T09:28:33.481000+00:00</time>
      </trkpt>
      <trkpt lat="0" lon="0">
        <time>2021-02-28T09:28:33.488000+00:00</time>
      </trkpt>
      <trkpt lat="0" lon="0">
        <time>2021-02-28T09:28:33.491000+00:00</time>
      </trkpt>
      <trkpt lat="47.32364" lon="-1.45006">
        <ele>117</ele>
        <time>2021-02-28T09:28:34.483000+00:00</time>
      </trkpt>
      <trkpt lat="0" lon="0">
        <time>2021-02-28T09:28:34.491000+00:00</time>
      </trkpt>
      <trkpt lat="0" lon="0">
        <time>2021-02-28T09:28:34.497000+00:00</time>
      </trkpt>
      <trkpt lat="0" lon="0">
        <time>2021-02-28T09:28:34.503000+00:00</time>
      </trkpt>
      <trkpt lat="47.32368" lon="-1.45011">
        <ele>117</ele>
        <time>2021-02-28T09:28:35.487000+00:00</time>
      </trkpt>
      <trkpt lat="0" lon="0">
        <time>2021-02-28T09:28:35.495000+00:00</time>
      </trkpt>
      <trkpt lat="0" lon="0">
        <time>2021-02-28T09:28:35.500000+00:00</time>
      </trkpt>
      <trkpt lat="0" lon="0">
        <time>2021-02-28T09:28:35.503000+00:00</time>
      </trkpt>
      <trkpt lat="47.32372" lon="-1.45016">
        <ele>117</ele>
        <time>2021-02-28T09:28:36.456000+00:00</time>
      </trkpt>
      <trkpt lat="0" lon="0">
        <time>2021-02-28T09:28:36.474000+00:00</time>
      </trkpt>
      <trkpt lat="0" lon="0">
        <time>2021-02-28T09:28:36.478000+00:00</time>
      </trkpt>
      <trkpt lat="0" lon="0">
        <time>2021-02-28T09:28:36.480000+00:00</time>
      </trkpt>
      <trkpt lat="47.32377" lon="-1.45021">
        <ele>117</ele>
        <time>2021-02-28T09:28:37.493000+00:00</time>
      </trkpt>
      <trkpt lat="0" lon="0">
        <time>2021-02-28T09:28:37.506000+00:00</time>
      </trkpt>
      <trkpt lat="0" lon="0">
        <time>2021-02-28T09:28:37.515000+00:00</time>
      </trkpt>
      <trkpt lat="0" lon="0">
        <time>2021-02-28T09:28:37.518000+00:00</time>
      </trkpt>
      <trkpt lat="47.32381" lon="-1.45026">
        <ele>116</ele>
        <time>2021-02-28T09:28:38.481000+00:00</time>
      </trkpt>
      <trkpt lat="0" lon="0">
        <time>2021-02-28T09:28:38.494000+00:00</time>
      </trkpt>
      <trkpt lat="0" lon="0">
        <time>2021-02-28T09:28:38.500000+00:00</time>
      </trkpt>
      <trkpt lat="0" lon="0">
        <time>2021-02-28T09:28:38.504000+00:00</time>
      </trkpt>
      <trkpt lat="47.32385" lon="-1.45032">
        <ele>116</ele>
        <time>2021-02-28T09:28:39.480000+00:00</time>
      </trkpt>
      <trkpt lat="0" lon="0">
        <time>2021-02-28T09:28:39.490000+00:00</time>
      </trkpt>
      <trkpt lat="0" lon="0">
        <time>2021-02-28T09:28:39.496000+00:00</time>
      </trkpt>
      <trkpt lat="0" lon="0">
        <time>2021-02-28T09:28:39.502000+00:00</time>
      </trkpt>
      <trkpt lat="47.3239" lon="-1.45037">
        <ele>117</ele>
        <time>2021-02-28T09:28:40.478000+00:00</time>
      </trkpt>
      <trkpt lat="0" lon="0">
        <time>2021-02-28T09:28:40.488000+00:00</time>
      </trkpt>
      <trkpt lat="0" lon="0">
        <time>2021-02-28T09:28:40.493000+00:00</time>
      </trkpt>
      <trkpt lat="0" lon="0">
        <time>2021-02-28T09:28:40.495000+00:00</time>
      </trkpt>
      <trkpt lat="47.32394" lon="-1.45043">
        <ele>117</ele>
        <time>2021-02-28T09:28:41.478000+00:00</time>
      </trkpt>
      <trkpt lat="0" lon="0">
        <time>2021-02-28T09:28:41.491000+00:00</time>
      </trkpt>
      <trkpt lat="0" lon="0">
        <time>2021-02-28T09:28:41.499000+00:00</time>
      </trkpt>
      <trkpt lat="0" lon="0">
        <time>2021-02-28T09:28:41.501000+00:00</time>
      </trkpt>
      <trkpt lat="47.32398" lon="-1.45049">
        <ele>117</ele>
        <time>2021-02-28T09:28:42.442000+00:00</time>
      </trkpt>
      <trkpt lat="0" lon="0">
        <time>2021-02-28T09:28:42.450000+00:00</time>
      </trkpt>
      <trkpt lat="0" lon="0">
        <time>2021-02-28T09:28:42.453000+00:00</time>
      </trkpt>
      <trkpt lat="0" lon="0">
        <time>2021-02-28T09:28:42.455000+00:00</time>
      </trkpt>
      <trkpt lat="47.32403" lon="-1.45054">
        <ele>116</ele>
        <time>2021-02-28T09:28:43.487000+00:00</time>
      </trkpt>
      <trkpt lat="0" lon="0">
        <time>2021-02-28T09:28:43.496000+00:00</time>
      </trkpt>
      <trkpt lat="0" lon="0">
        <time>2021-02-28T09:28:43.505000+00:00</time>
      </trkpt>
      <trkpt lat="0" lon="0">
        <time>2021-02-28T09:28:43.507000+00:00</time>
      </trkpt>
      <trkpt lat="47.32407" lon="-1.4506">
        <ele>116</ele>
        <time>2021-02-28T09:28:44.461000+00:00</time>
      </trkpt>
      <trkpt lat="0" lon="0">
        <time>2021-02-28T09:28:44.467000+00:00</time>
      </trkpt>
      <trkpt lat="0" lon="0">
        <time>2021-02-28T09:28:44.472000+00:00</time>
      </trkpt>
      <trkpt lat="0" lon="0">
        <time>2021-02-28T09:28:44.476000+00:00</time>
      </trkpt>
      <trkpt lat="47.32412" lon="-1.45066">
        <ele>116</ele>
        <time>2021-02-28T09:28:45.442000+00:00</time>
      </trkpt>
      <trkpt lat="0" lon="0">
        <time>2021-02-28T09:28:45.447000+00:00</time>
      </trkpt>
      <trkpt lat="0" lon="0">
        <time>2021-02-28T09:28:45.452000+00:00</time>
      </trkpt>
      <trkpt lat="0" lon="0">
        <time>2021-02-28T09:28:45.454000+00:00</time>
      </trkpt>
      <trkpt lat="47.32417" lon="-1.45071">
        <ele>116</ele>
        <time>2021-02-28T09:28:46.483000+00:00</time>
      </trkpt>
      <trkpt lat="0" lon="0">
        <time>2021-02-28T09:28:46.490000+00:00</time>
      </trkpt>
      <trkpt lat="0" lon="0">
        <time>2021-02-28T09:28:46.494000+00:00</time>
      </trkpt>
      <trkpt lat="0" lon="0">
        <time>2021-02-28T09:28:46.496000+00:00</time>
      </trkpt>
      <trkpt lat="47.32421" lon="-1.45077">
        <ele>116</ele>
        <time>2021-02-28T09:28:47.470000+00:00</time>
      </trkpt>
      <trkpt lat="0" lon="0">
        <time>2021-02-28T09:28:47.480000+00:00</time>
      </trkpt>
      <trkpt lat="0" lon="0">
        <time>2021-02-28T09:28:47.485000+00:00</time>
      </trkpt>
      <trkpt lat="0" lon="0">
        <time>2021-02-28T09:28:47.488000+00:00</time>
      </trkpt>
      <trkpt lat="47.32426" lon="-1.45082">
        <ele>116</ele>
        <time>2021-02-28T09:28:48.464000+00:00</time>
      </trkpt>
      <trkpt lat="0" lon="0">
        <time>2021-02-28T09:28:48.475000+00:00</time>
      </trkpt>
      <trkpt lat="0" lon="0">
        <time>2021-02-28T09:28:48.480000+00:00</time>
      </trkpt>
      <trkpt lat="0" lon="0">
        <time>2021-02-28T09:28:48.483000+00:00</time>
      </trkpt>
      <trkpt lat="47.3243" lon="-1.45087">
        <ele>116</ele>
        <time>2021-02-28T09:28:49.488000+00:00</time>
      </trkpt>
      <trkpt lat="0" lon="0">
        <time>2021-02-28T09:28:49.497000+00:00</time>
      </trkpt>
      <trkpt lat="0" lon="0">
        <time>2021-02-28T09:28:49.504000+00:00</time>
      </trkpt>
      <trkpt lat="0" lon="0">
        <time>2021-02-28T09:28:49.507000+00:00</time>
      </trkpt>
      <trkpt lat="47.32434" lon="-1.45092">
        <ele>116</ele>
        <time>2021-02-28T09:28:50.472000+00:00</time>
      </trkpt>
      <trkpt lat="0" lon="0">
        <time>2021-02-28T09:28:50.480000+00:00</time>
      </trkpt>
      <trkpt lat="0" lon="0">
        <time>2021-02-28T09:28:50.488000+00:00</time>
      </trkpt>
      <trkpt lat="0" lon="0">
        <time>2021-02-28T09:28:50.491000+00:00</time>
      </trkpt>
      <trkpt lat="47.32437" lon="-1.45096">
        <ele>116</ele>
        <time>2021-02-28T09:28:51.468000+00:00</time>
      </trkpt>
      <trkpt lat="0" lon="0">
        <time>2021-02-28T09:28:51.473000+00:00</time>
      </trkpt>
      <trkpt lat="0" lon="0">
        <time>2021-02-28T09:28:51.479000+00:00</time>
      </trkpt>
      <trkpt lat="0" lon="0">
        <time>2021-02-28T09:28:51.483000+00:00</time>
      </trkpt>
      <trkpt lat="47.3244" lon="-1.451">
        <ele>116</ele>
        <time>2021-02-28T09:28:52.461000+00:00</time>
      </trkpt>
      <trkpt lat="0" lon="0">
        <time>2021-02-28T09:28:52.471000+00:00</time>
      </trkpt>
      <trkpt lat="0" lon="0">
        <time>2021-02-28T09:28:52.475000+00:00</time>
      </trkpt>
      <trkpt lat="0" lon="0">
        <time>2021-02-28T09:28:52.477000+00:00</time>
      </trkpt>
      <trkpt lat="47.32442" lon="-1.45103">
        <ele>116</ele>
        <time>2021-02-28T09:28:53.435000+00:00</time>
      </trkpt>
      <trkpt lat="0" lon="0">
        <time>2021-02-28T09:28:53.446000+00:00</time>
      </trkpt>
      <trkpt lat="0" lon="0">
        <time>2021-02-28T09:28:53.455000+00:00</time>
      </trkpt>
      <trkpt lat="0" lon="0">
        <time>2021-02-28T09:28:53.463000+00:00</time>
      </trkpt>
      <trkpt lat="47.32444" lon="-1.45107">
        <ele>116</ele>
        <time>2021-02-28T09:28:54.373000+00:00</time>
      </trkpt>
      <trkpt lat="0" lon="0">
        <time>2021-02-28T09:28:54.382000+00:00</time>
      </trkpt>
      <trkpt lat="0" lon="0">
        <time>2021-02-28T09:28:54.389000+00:00</time>
      </trkpt>
      <trkpt lat="0" lon="0">
        <time>2021-02-28T09:28:54.391000+00:00</time>
      </trkpt>
      <trkpt lat="47.32445" lon="-1.4511">
        <ele>116</ele>
        <time>2021-02-28T09:28:55.348000+00:00</time>
      </trkpt>
      <trkpt lat="0" lon="0">
        <time>2021-02-28T09:28:55.354000+00:00</time>
      </trkpt>
      <trkpt lat="0" lon="0">
        <time>2021-02-28T09:28:55.358000+00:00</time>
      </trkpt>
      <trkpt lat="0" lon="0">
        <time>2021-02-28T09:28:55.361000+00:00</time>
      </trkpt>
      <trkpt lat="47.32445" lon="-1.45113">
        <ele>117</ele>
        <time>2021-02-28T09:28:56.354000+00:00</time>
      </trkpt>
      <trkpt lat="0" lon="0">
        <time>2021-02-28T09:28:56.360000+00:00</time>
      </trkpt>
      <trkpt lat="0" lon="0">
        <time>2021-02-28T09:28:56.365000+00:00</time>
      </trkpt>
      <trkpt lat="0" lon="0">
        <time>2021-02-28T09:28:56.368000+00:00</time>
      </trkpt>
      <trkpt lat="47.32445" lon="-1.45116">
        <ele>116</ele>
        <time>2021-02-28T09:28:57.425000+00:00</time>
      </trkpt>
      <trkpt lat="0" lon="0">
        <time>2021-02-28T09:28:57.440000+00:00</time>
      </trkpt>
      <trkpt lat="0" lon="0">
        <time>2021-02-28T09:28:57.444000+00:00</time>
      </trkpt>
      <trkpt lat="0" lon="0">
        <time>2021-02-28T09:28:57.446000+00:00</time>
      </trkpt>
      <trkpt lat="47.32444" lon="-1.4512">
        <ele>116</ele>
        <time>2021-02-28T09:28:58.449000+00:00</time>
      </trkpt>
      <trkpt lat="0" lon="0">
        <time>2021-02-28T09:28:58.457000+00:00</time>
      </trkpt>
      <trkpt lat="0" lon="0">
        <time>2021-02-28T09:28:58.463000+00:00</time>
      </trkpt>
      <trkpt lat="0" lon="0">
        <time>2021-02-28T09:28:58.465000+00:00</time>
      </trkpt>
      <trkpt lat="47.32443" lon="-1.45123">
        <ele>116</ele>
        <time>2021-02-28T09:28:59.463000+00:00</time>
      </trkpt>
      <trkpt lat="0" lon="0">
        <time>2021-02-28T09:28:59.472000+00:00</time>
      </trkpt>
      <trkpt lat="0" lon="0">
        <time>2021-02-28T09:28:59.475000+00:00</time>
      </trkpt>
      <trkpt lat="0" lon="0">
        <time>2021-02-28T09:28:59.476000+00:00</time>
      </trkpt>
      <trkpt lat="47.32441" lon="-1.45127">
        <ele>116</ele>
        <time>2021-02-28T09:29:00.469000+00:00</time>
      </trkpt>
      <trkpt lat="0" lon="0">
        <time>2021-02-28T09:29:00.476000+00:00</time>
      </trkpt>
      <trkpt lat="0" lon="0">
        <time>2021-02-28T09:29:00.482000+00:00</time>
      </trkpt>
      <trkpt lat="0" lon="0">
        <time>2021-02-28T09:29:00.484000+00:00</time>
      </trkpt>
      <trkpt lat="47.32439" lon="-1.45132">
        <ele>116</ele>
        <time>2021-02-28T09:29:01.489000+00:00</time>
      </trkpt>
      <trkpt lat="0" lon="0">
        <time>2021-02-28T09:29:01.495000+00:00</time>
      </trkpt>
      <trkpt lat="0" lon="0">
        <time>2021-02-28T09:29:01.502000+00:00</time>
      </trkpt>
      <trkpt lat="0" lon="0">
        <time>2021-02-28T09:29:01.505000+00:00</time>
      </trkpt>
      <trkpt lat="47.32436" lon="-1.45136">
        <ele>115</ele>
        <time>2021-02-28T09:29:02.462000+00:00</time>
      </trkpt>
      <trkpt lat="0" lon="0">
        <time>2021-02-28T09:29:02.467000+00:00</time>
      </trkpt>
      <trkpt lat="0" lon="0">
        <time>2021-02-28T09:29:02.471000+00:00</time>
      </trkpt>
      <trkpt lat="0" lon="0">
        <time>2021-02-28T09:29:02.473000+00:00</time>
      </trkpt>
      <trkpt lat="47.32433" lon="-1.45142">
        <ele>115</ele>
        <time>2021-02-28T09:29:03.460000+00:00</time>
      </trkpt>
      <trkpt lat="0" lon="0">
        <time>2021-02-28T09:29:03.465000+00:00</time>
      </trkpt>
      <trkpt lat="0" lon="0">
        <time>2021-02-28T09:29:03.470000+00:00</time>
      </trkpt>
      <trkpt lat="0" lon="0">
        <time>2021-02-28T09:29:03.472000+00:00</time>
      </trkpt>
      <trkpt lat="47.3243" lon="-1.45148">
        <ele>115</ele>
        <time>2021-02-28T09:29:04.455000+00:00</time>
      </trkpt>
      <trkpt lat="0" lon="0">
        <time>2021-02-28T09:29:04.465000+00:00</time>
      </trkpt>
      <trkpt lat="0" lon="0">
        <time>2021-02-28T09:29:04.471000+00:00</time>
      </trkpt>
      <trkpt lat="0" lon="0">
        <time>2021-02-28T09:29:04.474000+00:00</time>
      </trkpt>
      <trkpt lat="47.32427" lon="-1.45154">
        <ele>115</ele>
        <time>2021-02-28T09:29:05.485000+00:00</time>
      </trkpt>
      <trkpt lat="0" lon="0">
        <time>2021-02-28T09:29:05.495000+00:00</time>
      </trkpt>
      <trkpt lat="0" lon="0">
        <time>2021-02-28T09:29:05.501000+00:00</time>
      </trkpt>
      <trkpt lat="0" lon="0">
        <time>2021-02-28T09:29:05.504000+00:00</time>
      </trkpt>
      <trkpt lat="47.32423" lon="-1.4516">
        <ele>115</ele>
        <time>2021-02-28T09:29:06.457000+00:00</time>
      </trkpt>
      <trkpt lat="0" lon="0">
        <time>2021-02-28T09:29:06.463000+00:00</time>
      </trkpt>
      <trkpt lat="0" lon="0">
        <time>2021-02-28T09:29:06.470000+00:00</time>
      </trkpt>
      <trkpt lat="0" lon="0">
        <time>2021-02-28T09:29:06.474000+00:00</time>
      </trkpt>
      <trkpt lat="47.3242" lon="-1.45167">
        <ele>114</ele>
        <time>2021-02-28T09:29:07.493000+00:00</time>
      </trkpt>
      <trkpt lat="0" lon="0">
        <time>2021-02-28T09:29:07.505000+00:00</time>
      </trkpt>
      <trkpt lat="0" lon="0">
        <time>2021-02-28T09:29:07.511000+00:00</time>
      </trkpt>
      <trkpt lat="0" lon="0">
        <time>2021-02-28T09:29:07.515000+00:00</time>
      </trkpt>
      <trkpt lat="47.32416" lon="-1.45174">
        <ele>115</ele>
        <time>2021-02-28T09:29:08.490000+00:00</time>
      </trkpt>
      <trkpt lat="0" lon="0">
        <time>2021-02-28T09:29:08.495000+00:00</time>
      </trkpt>
      <trkpt lat="0" lon="0">
        <time>2021-02-28T09:29:08.500000+00:00</time>
      </trkpt>
      <trkpt lat="0" lon="0">
        <time>2021-02-28T09:29:08.503000+00:00</time>
      </trkpt>
      <trkpt lat="47.32412" lon="-1.45181">
        <ele>114</ele>
        <time>2021-02-28T09:29:09.460000+00:00</time>
      </trkpt>
      <trkpt lat="0" lon="0">
        <time>2021-02-28T09:29:09.467000+00:00</time>
      </trkpt>
      <trkpt lat="0" lon="0">
        <time>2021-02-28T09:29:09.472000+00:00</time>
      </trkpt>
      <trkpt lat="0" lon="0">
        <time>2021-02-28T09:29:09.476000+00:00</time>
      </trkpt>
      <trkpt lat="47.32408" lon="-1.45189">
        <ele>114</ele>
        <time>2021-02-28T09:29:10.475000+00:00</time>
      </trkpt>
      <trkpt lat="0" lon="0">
        <time>2021-02-28T09:29:10.481000+00:00</time>
      </trkpt>
      <trkpt lat="0" lon="0">
        <time>2021-02-28T09:29:10.485000+00:00</time>
      </trkpt>
      <trkpt lat="0" lon="0">
        <time>2021-02-28T09:29:10.489000+00:00</time>
      </trkpt>
      <trkpt lat="47.32403" lon="-1.45197">
        <ele>114</ele>
        <time>2021-02-28T09:29:11.462000+00:00</time>
      </trkpt>
      <trkpt lat="0" lon="0">
        <time>2021-02-28T09:29:11.476000+00:00</time>
      </trkpt>
      <trkpt lat="0" lon="0">
        <time>2021-02-28T09:29:11.481000+00:00</time>
      </trkpt>
      <trkpt lat="0" lon="0">
        <time>2021-02-28T09:29:11.484000+00:00</time>
      </trkpt>
      <trkpt lat="47.32399" lon="-1.45205">
        <ele>114</ele>
        <time>2021-02-28T09:29:12.469000+00:00</time>
      </trkpt>
      <trkpt lat="0" lon="0">
        <time>2021-02-28T09:29:12.476000+00:00</time>
      </trkpt>
      <trkpt lat="0" lon="0">
        <time>2021-02-28T09:29:12.482000+00:00</time>
      </trkpt>
      <trkpt lat="0" lon="0">
        <time>2021-02-28T09:29:12.485000+00:00</time>
      </trkpt>
      <trkpt lat="47.32395" lon="-1.45213">
        <ele>114</ele>
        <time>2021-02-28T09:29:13.462000+00:00</time>
      </trkpt>
      <trkpt lat="0" lon="0">
        <time>2021-02-28T09:29:13.469000+00:00</time>
      </trkpt>
      <trkpt lat="0" lon="0">
        <time>2021-02-28T09:29:13.474000+00:00</time>
      </trkpt>
      <trkpt lat="0" lon="0">
        <time>2021-02-28T09:29:13.477000+00:00</time>
      </trkpt>
      <trkpt lat="47.32391" lon="-1.45222">
        <ele>114</ele>
        <time>2021-02-28T09:29:14.470000+00:00</time>
      </trkpt>
      <trkpt lat="0" lon="0">
        <time>2021-02-28T09:29:14.478000+00:00</time>
      </trkpt>
      <trkpt lat="0" lon="0">
        <time>2021-02-28T09:29:14.484000+00:00</time>
      </trkpt>
      <trkpt lat="0" lon="0">
        <time>2021-02-28T09:29:14.488000+00:00</time>
      </trkpt>
      <trkpt lat="47.32387" lon="-1.45231">
        <ele>114</ele>
        <time>2021-02-28T09:29:15.461000+00:00</time>
      </trkpt>
      <trkpt lat="0" lon="0">
        <time>2021-02-28T09:29:15.467000+00:00</time>
      </trkpt>
      <trkpt lat="0" lon="0">
        <time>2021-02-28T09:29:15.474000+00:00</time>
      </trkpt>
      <trkpt lat="0" lon="0">
        <time>2021-02-28T09:29:15.482000+00:00</time>
      </trkpt>
      <trkpt lat="47.32382" lon="-1.45241">
        <ele>114</ele>
        <time>2021-02-28T09:29:16.470000+00:00</time>
      </trkpt>
      <trkpt lat="0" lon="0">
        <time>2021-02-28T09:29:16.477000+00:00</time>
      </trkpt>
      <trkpt lat="0" lon="0">
        <time>2021-02-28T09:29:16.484000+00:00</time>
      </trkpt>
      <trkpt lat="0" lon="0">
        <time>2021-02-28T09:29:16.486000+00:00</time>
      </trkpt>
      <trkpt lat="47.32378" lon="-1.4525">
        <ele>114</ele>
        <time>2021-02-28T09:29:17.413000+00:00</time>
      </trkpt>
      <trkpt lat="0" lon="0">
        <time>2021-02-28T09:29:17.422000+00:00</time>
      </trkpt>
      <trkpt lat="0" lon="0">
        <time>2021-02-28T09:29:17.427000+00:00</time>
      </trkpt>
      <trkpt lat="0" lon="0">
        <time>2021-02-28T09:29:17.430000+00:00</time>
      </trkpt>
      <trkpt lat="47.32375" lon="-1.4526">
        <ele>114</ele>
        <time>2021-02-28T09:29:18.506000+00:00</time>
      </trkpt>
      <trkpt lat="0" lon="0">
        <time>2021-02-28T09:29:18.517000+00:00</time>
      </trkpt>
      <trkpt lat="0" lon="0">
        <time>2021-02-28T09:29:18.522000+00:00</time>
      </trkpt>
      <trkpt lat="0" lon="0">
        <time>2021-02-28T09:29:18.525000+00:00</time>
      </trkpt>
      <trkpt lat="47.32371" lon="-1.45271">
        <ele>113</ele>
        <time>2021-02-28T09:29:19.483000+00:00</time>
      </trkpt>
      <trkpt lat="0" lon="0">
        <time>2021-02-28T09:29:19.485000+00:00</time>
      </trkpt>
      <trkpt lat="0" lon="0">
        <time>2021-02-28T09:29:19.488000+00:00</time>
      </trkpt>
      <trkpt lat="0" lon="0">
        <time>2021-02-28T09:29:19.489000+00:00</time>
      </trkpt>
      <trkpt lat="47.32364" lon="-1.45291">
        <ele>113</ele>
        <time>2021-02-28T09:29:21.467000+00:00</time>
      </trkpt>
      <trkpt lat="0" lon="0">
        <time>2021-02-28T09:29:21.473000+00:00</time>
      </trkpt>
      <trkpt lat="0" lon="0">
        <time>2021-02-28T09:29:21.478000+00:00</time>
      </trkpt>
      <trkpt lat="0" lon="0">
        <time>2021-02-28T09:29:21.482000+00:00</time>
      </trkpt>
      <trkpt lat="47.32361" lon="-1.45302">
        <ele>112</ele>
        <time>2021-02-28T09:29:22.465000+00:00</time>
      </trkpt>
      <trkpt lat="0" lon="0">
        <time>2021-02-28T09:29:22.472000+00:00</time>
      </trkpt>
      <trkpt lat="0" lon="0">
        <time>2021-02-28T09:29:22.473000+00:00</time>
      </trkpt>
      <trkpt lat="0" lon="0">
        <time>2021-02-28T09:29:22.474000+00:00</time>
      </trkpt>
      <trkpt lat="47.32359" lon="-1.45314">
        <ele>111</ele>
        <time>2021-02-28T09:29:23.461000+00:00</time>
      </trkpt>
      <trkpt lat="0" lon="0">
        <time>2021-02-28T09:29:23.467000+00:00</time>
      </trkpt>
      <trkpt lat="0" lon="0">
        <time>2021-02-28T09:29:23.472000+00:00</time>
      </trkpt>
      <trkpt lat="0" lon="0">
        <time>2021-02-28T09:29:23.477000+00:00</time>
      </trkpt>
      <trkpt lat="47.32357" lon="-1.45325">
        <ele>111</ele>
        <time>2021-02-28T09:29:24.467000+00:00</time>
      </trkpt>
      <trkpt lat="0" lon="0">
        <time>2021-02-28T09:29:24.472000+00:00</time>
      </trkpt>
      <trkpt lat="0" lon="0">
        <time>2021-02-28T09:29:24.478000+00:00</time>
      </trkpt>
      <trkpt lat="0" lon="0">
        <time>2021-02-28T09:29:24.481000+00:00</time>
      </trkpt>
      <trkpt lat="47.32355" lon="-1.45336">
        <ele>110</ele>
        <time>2021-02-28T09:29:25.438000+00:00</time>
      </trkpt>
      <trkpt lat="0" lon="0">
        <time>2021-02-28T09:29:25.445000+00:00</time>
      </trkpt>
      <trkpt lat="0" lon="0">
        <time>2021-02-28T09:29:25.451000+00:00</time>
      </trkpt>
      <trkpt lat="0" lon="0">
        <time>2021-02-28T09:29:25.454000+00:00</time>
      </trkpt>
      <trkpt lat="47.32354" lon="-1.45346">
        <ele>110</ele>
        <time>2021-02-28T09:29:26.489000+00:00</time>
      </trkpt>
      <trkpt lat="0" lon="0">
        <time>2021-02-28T09:29:26.501000+00:00</time>
      </trkpt>
      <trkpt lat="0" lon="0">
        <time>2021-02-28T09:29:26.507000+00:00</time>
      </trkpt>
      <trkpt lat="0" lon="0">
        <time>2021-02-28T09:29:26.512000+00:00</time>
      </trkpt>
      <trkpt lat="47.32354" lon="-1.45356">
        <ele>110</ele>
        <time>2021-02-28T09:29:27.425000+00:00</time>
      </trkpt>
      <trkpt lat="0" lon="0">
        <time>2021-02-28T09:29:27.438000+00:00</time>
      </trkpt>
      <trkpt lat="0" lon="0">
        <time>2021-02-28T09:29:27.443000+00:00</time>
      </trkpt>
      <trkpt lat="0" lon="0">
        <time>2021-02-28T09:29:27.447000+00:00</time>
      </trkpt>
      <trkpt lat="47.32354" lon="-1.45365">
        <ele>109</ele>
        <time>2021-02-28T09:29:28.455000+00:00</time>
      </trkpt>
      <trkpt lat="0" lon="0">
        <time>2021-02-28T09:29:28.463000+00:00</time>
      </trkpt>
      <trkpt lat="0" lon="0">
        <time>2021-02-28T09:29:28.467000+00:00</time>
      </trkpt>
      <trkpt lat="0" lon="0">
        <time>2021-02-28T09:29:28.470000+00:00</time>
      </trkpt>
      <trkpt lat="47.32356" lon="-1.45374">
        <ele>109</ele>
        <time>2021-02-28T09:29:29.443000+00:00</time>
      </trkpt>
      <trkpt lat="0" lon="0">
        <time>2021-02-28T09:29:29.449000+00:00</time>
      </trkpt>
      <trkpt lat="0" lon="0">
        <time>2021-02-28T09:29:29.456000+00:00</time>
      </trkpt>
      <trkpt lat="0" lon="0">
        <time>2021-02-28T09:29:29.459000+00:00</time>
      </trkpt>
      <trkpt lat="47.32358" lon="-1.45382">
        <ele>108</ele>
        <time>2021-02-28T09:29:30.475000+00:00</time>
      </trkpt>
      <trkpt lat="0" lon="0">
        <time>2021-02-28T09:29:30.480000+00:00</time>
      </trkpt>
      <trkpt lat="0" lon="0">
        <time>2021-02-28T09:29:30.485000+00:00</time>
      </trkpt>
      <trkpt lat="0" lon="0">
        <time>2021-02-28T09:29:30.487000+00:00</time>
      </trkpt>
      <trkpt lat="47.32361" lon="-1.4539">
        <ele>108</ele>
        <time>2021-02-28T09:29:31.436000+00:00</time>
      </trkpt>
      <trkpt lat="0" lon="0">
        <time>2021-02-28T09:29:31.447000+00:00</time>
      </trkpt>
      <trkpt lat="0" lon="0">
        <time>2021-02-28T09:29:31.451000+00:00</time>
      </trkpt>
      <trkpt lat="0" lon="0">
        <time>2021-02-28T09:29:31.454000+00:00</time>
      </trkpt>
      <trkpt lat="47.32364" lon="-1.45397">
        <ele>108</ele>
        <time>2021-02-28T09:29:32.488000+00:00</time>
      </trkpt>
      <trkpt lat="0" lon="0">
        <time>2021-02-28T09:29:32.493000+00:00</time>
      </trkpt>
      <trkpt lat="0" lon="0">
        <time>2021-02-28T09:29:32.498000+00:00</time>
      </trkpt>
      <trkpt lat="0" lon="0">
        <time>2021-02-28T09:29:32.501000+00:00</time>
      </trkpt>
      <trkpt lat="47.32368" lon="-1.45404">
        <ele>108</ele>
        <time>2021-02-28T09:29:33.485000+00:00</time>
      </trkpt>
      <trkpt lat="0" lon="0">
        <time>2021-02-28T09:29:33.494000+00:00</time>
      </trkpt>
      <trkpt lat="0" lon="0">
        <time>2021-02-28T09:29:33.500000+00:00</time>
      </trkpt>
      <trkpt lat="0" lon="0">
        <time>2021-02-28T09:29:33.502000+00:00</time>
      </trkpt>
      <trkpt lat="47.32373" lon="-1.45412">
        <ele>107</ele>
        <time>2021-02-28T09:29:34.486000+00:00</time>
      </trkpt>
      <trkpt lat="0" lon="0">
        <time>2021-02-28T09:29:34.493000+00:00</time>
      </trkpt>
      <trkpt lat="0" lon="0">
        <time>2021-02-28T09:29:34.498000+00:00</time>
      </trkpt>
      <trkpt lat="0" lon="0">
        <time>2021-02-28T09:29:34.501000+00:00</time>
      </trkpt>
      <trkpt lat="47.32377" lon="-1.45419">
        <ele>107</ele>
        <time>2021-02-28T09:29:35.521000+00:00</time>
      </trkpt>
      <trkpt lat="0" lon="0">
        <time>2021-02-28T09:29:35.530000+00:00</time>
      </trkpt>
      <trkpt lat="0" lon="0">
        <time>2021-02-28T09:29:35.536000+00:00</time>
      </trkpt>
      <trkpt lat="0" lon="0">
        <time>2021-02-28T09:29:35.539000+00:00</time>
      </trkpt>
      <trkpt lat="47.32382" lon="-1.45427">
        <ele>106</ele>
        <time>2021-02-28T09:29:36.459000+00:00</time>
      </trkpt>
      <trkpt lat="0" lon="0">
        <time>2021-02-28T09:29:36.464000+00:00</time>
      </trkpt>
      <trkpt lat="0" lon="0">
        <time>2021-02-28T09:29:36.466000+00:00</time>
      </trkpt>
      <trkpt lat="0" lon="0">
        <time>2021-02-28T09:29:36.467000+00:00</time>
      </trkpt>
      <trkpt lat="47.32387" lon="-1.45435">
        <ele>107</ele>
        <time>2021-02-28T09:29:37.466000+00:00</time>
      </trkpt>
      <trkpt lat="0" lon="0">
        <time>2021-02-28T09:29:37.474000+00:00</time>
      </trkpt>
      <trkpt lat="0" lon="0">
        <time>2021-02-28T09:29:37.481000+00:00</time>
      </trkpt>
      <trkpt lat="0" lon="0">
        <time>2021-02-28T09:29:37.485000+00:00</time>
      </trkpt>
      <trkpt lat="47.32393" lon="-1.45443">
        <ele>106</ele>
        <time>2021-02-28T09:29:38.468000+00:00</time>
      </trkpt>
      <trkpt lat="0" lon="0">
        <time>2021-02-28T09:29:38.481000+00:00</time>
      </trkpt>
      <trkpt lat="0" lon="0">
        <time>2021-02-28T09:29:38.486000+00:00</time>
      </trkpt>
      <trkpt lat="0" lon="0">
        <time>2021-02-28T09:29:38.488000+00:00</time>
      </trkpt>
      <trkpt lat="47.32398" lon="-1.45451">
        <ele>106</ele>
        <time>2021-02-28T09:29:39.513000+00:00</time>
      </trkpt>
      <trkpt lat="0" lon="0">
        <time>2021-02-28T09:29:39.520000+00:00</time>
      </trkpt>
      <trkpt lat="0" lon="0">
        <time>2021-02-28T09:29:39.531000+00:00</time>
      </trkpt>
      <trkpt lat="0" lon="0">
        <time>2021-02-28T09:29:39.534000+00:00</time>
      </trkpt>
      <trkpt lat="47.32404" lon="-1.4546">
        <ele>105</ele>
        <time>2021-02-28T09:29:40.502000+00:00</time>
      </trkpt>
      <trkpt lat="0" lon="0">
        <time>2021-02-28T09:29:40.511000+00:00</time>
      </trkpt>
      <trkpt lat="0" lon="0">
        <time>2021-02-28T09:29:40.518000+00:00</time>
      </trkpt>
      <trkpt lat="0" lon="0">
        <time>2021-02-28T09:29:40.522000+00:00</time>
      </trkpt>
      <trkpt lat="47.32409" lon="-1.45469">
        <ele>104</ele>
        <time>2021-02-28T09:29:41.452000+00:00</time>
      </trkpt>
      <trkpt lat="0" lon="0">
        <time>2021-02-28T09:29:41.457000+00:00</time>
      </trkpt>
      <trkpt lat="0" lon="0">
        <time>2021-02-28T09:29:41.462000+00:00</time>
      </trkpt>
      <trkpt lat="0" lon="0">
        <time>2021-02-28T09:29:41.465000+00:00</time>
      </trkpt>
      <trkpt lat="47.32415" lon="-1.45478">
        <ele>104</ele>
        <time>2021-02-28T09:29:42.418000+00:00</time>
      </trkpt>
      <trkpt lat="0" lon="0">
        <time>2021-02-28T09:29:42.423000+00:00</time>
      </trkpt>
      <trkpt lat="0" lon="0">
        <time>2021-02-28T09:29:42.428000+00:00</time>
      </trkpt>
      <trkpt lat="0" lon="0">
        <time>2021-02-28T09:29:42.430000+00:00</time>
      </trkpt>
      <trkpt lat="47.3242" lon="-1.45488">
        <ele>103</ele>
        <time>2021-02-28T09:29:43.476000+00:00</time>
      </trkpt>
      <trkpt lat="0" lon="0">
        <time>2021-02-28T09:29:43.490000+00:00</time>
      </trkpt>
      <trkpt lat="0" lon="0">
        <time>2021-02-28T09:29:43.494000+00:00</time>
      </trkpt>
      <trkpt lat="0" lon="0">
        <time>2021-02-28T09:29:43.499000+00:00</time>
      </trkpt>
      <trkpt lat="47.32426" lon="-1.45498">
        <ele>102</ele>
        <time>2021-02-28T09:29:44.481000+00:00</time>
      </trkpt>
      <trkpt lat="0" lon="0">
        <time>2021-02-28T09:29:44.488000+00:00</time>
      </trkpt>
      <trkpt lat="0" lon="0">
        <time>2021-02-28T09:29:44.495000+00:00</time>
      </trkpt>
      <trkpt lat="0" lon="0">
        <time>2021-02-28T09:29:44.498000+00:00</time>
      </trkpt>
      <trkpt lat="47.32432" lon="-1.45508">
        <ele>101</ele>
        <time>2021-02-28T09:29:45.495000+00:00</time>
      </trkpt>
      <trkpt lat="0" lon="0">
        <time>2021-02-28T09:29:45.503000+00:00</time>
      </trkpt>
      <trkpt lat="0" lon="0">
        <time>2021-02-28T09:29:45.509000+00:00</time>
      </trkpt>
      <trkpt lat="0" lon="0">
        <time>2021-02-28T09:29:45.512000+00:00</time>
      </trkpt>
      <trkpt lat="47.32437" lon="-1.45518">
        <ele>101</ele>
        <time>2021-02-28T09:29:46.492000+00:00</time>
      </trkpt>
      <trkpt lat="0" lon="0">
        <time>2021-02-28T09:29:46.506000+00:00</time>
      </trkpt>
      <trkpt lat="0" lon="0">
        <time>2021-02-28T09:29:46.516000+00:00</time>
      </trkpt>
      <trkpt lat="0" lon="0">
        <time>2021-02-28T09:29:46.526000+00:00</time>
      </trkpt>
      <trkpt lat="47.32442" lon="-1.45528">
        <ele>100</ele>
        <time>2021-02-28T09:29:47.450000+00:00</time>
      </trkpt>
      <trkpt lat="0" lon="0">
        <time>2021-02-28T09:29:47.456000+00:00</time>
      </trkpt>
      <trkpt lat="0" lon="0">
        <time>2021-02-28T09:29:47.465000+00:00</time>
      </trkpt>
      <trkpt lat="0" lon="0">
        <time>2021-02-28T09:29:47.468000+00:00</time>
      </trkpt>
      <trkpt lat="47.32448" lon="-1.45538">
        <ele>100</ele>
        <time>2021-02-28T09:29:48.450000+00:00</time>
      </trkpt>
      <trkpt lat="0" lon="0">
        <time>2021-02-28T09:29:48.460000+00:00</time>
      </trkpt>
      <trkpt lat="0" lon="0">
        <time>2021-02-28T09:29:48.466000+00:00</time>
      </trkpt>
      <trkpt lat="0" lon="0">
        <time>2021-02-28T09:29:48.468000+00:00</time>
      </trkpt>
      <trkpt lat="47.32453" lon="-1.45547">
        <ele>99</ele>
        <time>2021-02-28T09:29:49.490000+00:00</time>
      </trkpt>
      <trkpt lat="0" lon="0">
        <time>2021-02-28T09:29:49.501000+00:00</time>
      </trkpt>
      <trkpt lat="0" lon="0">
        <time>2021-02-28T09:29:49.506000+00:00</time>
      </trkpt>
      <trkpt lat="0" lon="0">
        <time>2021-02-28T09:29:49.509000+00:00</time>
      </trkpt>
      <trkpt lat="47.32457" lon="-1.45556">
        <ele>99</ele>
        <time>2021-02-28T09:29:50.457000+00:00</time>
      </trkpt>
      <trkpt lat="0" lon="0">
        <time>2021-02-28T09:29:50.462000+00:00</time>
      </trkpt>
      <trkpt lat="0" lon="0">
        <time>2021-02-28T09:29:50.468000+00:00</time>
      </trkpt>
      <trkpt lat="0" lon="0">
        <time>2021-02-28T09:29:50.471000+00:00</time>
      </trkpt>
      <trkpt lat="47.32462" lon="-1.45565">
        <ele>98</ele>
        <time>2021-02-28T09:29:51.501000+00:00</time>
      </trkpt>
      <trkpt lat="0" lon="0">
        <time>2021-02-28T09:29:51.514000+00:00</time>
      </trkpt>
      <trkpt lat="0" lon="0">
        <time>2021-02-28T09:29:51.520000+00:00</time>
      </trkpt>
      <trkpt lat="0" lon="0">
        <time>2021-02-28T09:29:51.522000+00:00</time>
      </trkpt>
      <trkpt lat="47.32467" lon="-1.45574">
        <ele>99</ele>
        <time>2021-02-28T09:29:52.486000+00:00</time>
      </trkpt>
      <trkpt lat="0" lon="0">
        <time>2021-02-28T09:29:52.503000+00:00</time>
      </trkpt>
      <trkpt lat="0" lon="0">
        <time>2021-02-28T09:29:52.511000+00:00</time>
      </trkpt>
      <trkpt lat="0" lon="0">
        <time>2021-02-28T09:29:52.514000+00:00</time>
      </trkpt>
      <trkpt lat="47.32472" lon="-1.45582">
        <ele>99</ele>
        <time>2021-02-28T09:29:53.445000+00:00</time>
      </trkpt>
      <trkpt lat="0" lon="0">
        <time>2021-02-28T09:29:53.447000+00:00</time>
      </trkpt>
      <trkpt lat="0" lon="0">
        <time>2021-02-28T09:29:53.449000+00:00</time>
      </trkpt>
      <trkpt lat="0" lon="0">
        <time>2021-02-28T09:29:53.451000+00:00</time>
      </trkpt>
      <trkpt lat="47.32477" lon="-1.45591">
        <ele>98</ele>
        <time>2021-02-28T09:29:54.417000+00:00</time>
      </trkpt>
      <trkpt lat="0" lon="0">
        <time>2021-02-28T09:29:54.422000+00:00</time>
      </trkpt>
      <trkpt lat="0" lon="0">
        <time>2021-02-28T09:29:54.424000+00:00</time>
      </trkpt>
      <trkpt lat="0" lon="0">
        <time>2021-02-28T09:29:54.425000+00:00</time>
      </trkpt>
      <trkpt lat="47.32482" lon="-1.45599">
        <ele>98</ele>
        <time>2021-02-28T09:29:55.480000+00:00</time>
      </trkpt>
      <trkpt lat="0" lon="0">
        <time>2021-02-28T09:29:55.489000+00:00</time>
      </trkpt>
      <trkpt lat="0" lon="0">
        <time>2021-02-28T09:29:55.495000+00:00</time>
      </trkpt>
      <trkpt lat="0" lon="0">
        <time>2021-02-28T09:29:55.498000+00:00</time>
      </trkpt>
      <trkpt lat="47.32487" lon="-1.45606">
        <ele>99</ele>
        <time>2021-02-28T09:29:56.507000+00:00</time>
      </trkpt>
      <trkpt lat="0" lon="0">
        <time>2021-02-28T09:29:56.514000+00:00</time>
      </trkpt>
      <trkpt lat="0" lon="0">
        <time>2021-02-28T09:29:56.520000+00:00</time>
      </trkpt>
      <trkpt lat="0" lon="0">
        <time>2021-02-28T09:29:56.522000+00:00</time>
      </trkpt>
      <trkpt lat="47.32493" lon="-1.45613">
        <ele>99</ele>
        <time>2021-02-28T09:29:57.483000+00:00</time>
      </trkpt>
      <trkpt lat="0" lon="0">
        <time>2021-02-28T09:29:57.492000+00:00</time>
      </trkpt>
      <trkpt lat="0" lon="0">
        <time>2021-02-28T09:29:57.496000+00:00</time>
      </trkpt>
      <trkpt lat="0" lon="0">
        <time>2021-02-28T09:29:57.499000+00:00</time>
      </trkpt>
      <trkpt lat="47.32499" lon="-1.4562">
        <ele>99</ele>
        <time>2021-02-28T09:29:58.453000+00:00</time>
      </trkpt>
      <trkpt lat="0" lon="0">
        <time>2021-02-28T09:29:58.464000+00:00</time>
      </trkpt>
      <trkpt lat="0" lon="0">
        <time>2021-02-28T09:29:58.470000+00:00</time>
      </trkpt>
      <trkpt lat="0" lon="0">
        <time>2021-02-28T09:29:58.472000+00:00</time>
      </trkpt>
      <trkpt lat="47.32505" lon="-1.45626">
        <ele>99</ele>
        <time>2021-02-28T09:29:59.445000+00:00</time>
      </trkpt>
      <trkpt lat="0" lon="0">
        <time>2021-02-28T09:29:59.454000+00:00</time>
      </trkpt>
      <trkpt lat="0" lon="0">
        <time>2021-02-28T09:29:59.456000+00:00</time>
      </trkpt>
      <trkpt lat="0" lon="0">
        <time>2021-02-28T09:29:59.457000+00:00</time>
      </trkpt>
      <trkpt lat="47.32511" lon="-1.45632">
        <ele>98</ele>
        <time>2021-02-28T09:30:00.468000+00:00</time>
      </trkpt>
      <trkpt lat="0" lon="0">
        <time>2021-02-28T09:30:00.474000+00:00</time>
      </trkpt>
      <trkpt lat="0" lon="0">
        <time>2021-02-28T09:30:00.479000+00:00</time>
      </trkpt>
      <trkpt lat="0" lon="0">
        <time>2021-02-28T09:30:00.481000+00:00</time>
      </trkpt>
      <trkpt lat="47.32516" lon="-1.45638">
        <ele>98</ele>
        <time>2021-02-28T09:30:01.467000+00:00</time>
      </trkpt>
      <trkpt lat="0" lon="0">
        <time>2021-02-28T09:30:01.475000+00:00</time>
      </trkpt>
      <trkpt lat="0" lon="0">
        <time>2021-02-28T09:30:01.481000+00:00</time>
      </trkpt>
      <trkpt lat="0" lon="0">
        <time>2021-02-28T09:30:01.485000+00:00</time>
      </trkpt>
      <trkpt lat="47.32522" lon="-1.45644">
        <ele>97</ele>
        <time>2021-02-28T09:30:02.347000+00:00</time>
      </trkpt>
      <trkpt lat="0" lon="0">
        <time>2021-02-28T09:30:02.352000+00:00</time>
      </trkpt>
      <trkpt lat="0" lon="0">
        <time>2021-02-28T09:30:02.353000+00:00</time>
      </trkpt>
      <trkpt lat="47.32528" lon="-1.45649">
        <ele>97</ele>
        <time>2021-02-28T09:30:03.423000+00:00</time>
      </trkpt>
      <trkpt lat="0" lon="0">
        <time>2021-02-28T09:30:03.429000+00:00</time>
      </trkpt>
      <trkpt lat="0" lon="0">
        <time>2021-02-28T09:30:03.433000+00:00</time>
      </trkpt>
      <trkpt lat="0" lon="0">
        <time>2021-02-28T09:30:03.435000+00:00</time>
      </trkpt>
      <trkpt lat="47.32534" lon="-1.45655">
        <ele>98</ele>
        <time>2021-02-28T09:30:04.446000+00:00</time>
      </trkpt>
      <trkpt lat="0" lon="0">
        <time>2021-02-28T09:30:04.450000+00:00</time>
      </trkpt>
      <trkpt lat="0" lon="0">
        <time>2021-02-28T09:30:04.455000+00:00</time>
      </trkpt>
      <trkpt lat="0" lon="0">
        <time>2021-02-28T09:30:04.457000+00:00</time>
      </trkpt>
      <trkpt lat="47.3254" lon="-1.4566">
        <ele>97</ele>
        <time>2021-02-28T09:30:05.442000+00:00</time>
      </trkpt>
      <trkpt lat="0" lon="0">
        <time>2021-02-28T09:30:05.445000+00:00</time>
      </trkpt>
      <trkpt lat="0" lon="0">
        <time>2021-02-28T09:30:05.449000+00:00</time>
      </trkpt>
      <trkpt lat="0" lon="0">
        <time>2021-02-28T09:30:05.451000+00:00</time>
      </trkpt>
      <trkpt lat="47.32546" lon="-1.45665">
        <ele>97</ele>
        <time>2021-02-28T09:30:06.408000+00:00</time>
      </trkpt>
      <trkpt lat="0" lon="0">
        <time>2021-02-28T09:30:06.413000+00:00</time>
      </trkpt>
      <trkpt lat="0" lon="0">
        <time>2021-02-28T09:30:06.419000+00:00</time>
      </trkpt>
      <trkpt lat="0" lon="0">
        <time>2021-02-28T09:30:06.422000+00:00</time>
      </trkpt>
      <trkpt lat="47.32552" lon="-1.45669">
        <ele>97</ele>
        <time>2021-02-28T09:30:07.386000+00:00</time>
      </trkpt>
      <trkpt lat="0" lon="0">
        <time>2021-02-28T09:30:07.390000+00:00</time>
      </trkpt>
      <trkpt lat="0" lon="0">
        <time>2021-02-28T09:30:07.395000+00:00</time>
      </trkpt>
      <trkpt lat="0" lon="0">
        <time>2021-02-28T09:30:07.397000+00:00</time>
      </trkpt>
      <trkpt lat="47.32557" lon="-1.45674">
        <ele>97</ele>
        <time>2021-02-28T09:30:08.423000+00:00</time>
      </trkpt>
      <trkpt lat="0" lon="0">
        <time>2021-02-28T09:30:08.436000+00:00</time>
      </trkpt>
      <trkpt lat="0" lon="0">
        <time>2021-02-28T09:30:08.444000+00:00</time>
      </trkpt>
      <trkpt lat="0" lon="0">
        <time>2021-02-28T09:30:08.448000+00:00</time>
      </trkpt>
      <trkpt lat="47.32563" lon="-1.45678">
        <ele>97</ele>
        <time>2021-02-28T09:30:09.404000+00:00</time>
      </trkpt>
      <trkpt lat="0" lon="0">
        <time>2021-02-28T09:30:09.412000+00:00</time>
      </trkpt>
      <trkpt lat="0" lon="0">
        <time>2021-02-28T09:30:09.416000+00:00</time>
      </trkpt>
      <trkpt lat="0" lon="0">
        <time>2021-02-28T09:30:09.418000+00:00</time>
      </trkpt>
      <trkpt lat="47.32568" lon="-1.45682">
        <ele>97</ele>
        <time>2021-02-28T09:30:10.413000+00:00</time>
      </trkpt>
      <trkpt lat="0" lon="0">
        <time>2021-02-28T09:30:10.424000+00:00</time>
      </trkpt>
      <trkpt lat="0" lon="0">
        <time>2021-02-28T09:30:10.429000+00:00</time>
      </trkpt>
      <trkpt lat="0" lon="0">
        <time>2021-02-28T09:30:10.432000+00:00</time>
      </trkpt>
      <trkpt lat="47.32574" lon="-1.45685">
        <ele>97</ele>
        <time>2021-02-28T09:30:11.425000+00:00</time>
      </trkpt>
      <trkpt lat="0" lon="0">
        <time>2021-02-28T09:30:11.432000+00:00</time>
      </trkpt>
      <trkpt lat="0" lon="0">
        <time>2021-02-28T09:30:11.437000+00:00</time>
      </trkpt>
      <trkpt lat="0" lon="0">
        <time>2021-02-28T09:30:11.441000+00:00</time>
      </trkpt>
      <trkpt lat="47.3258" lon="-1.45689">
        <ele>97</ele>
        <time>2021-02-28T09:30:12.429000+00:00</time>
      </trkpt>
      <trkpt lat="0" lon="0">
        <time>2021-02-28T09:30:12.436000+00:00</time>
      </trkpt>
      <trkpt lat="0" lon="0">
        <time>2021-02-28T09:30:12.441000+00:00</time>
      </trkpt>
      <trkpt lat="0" lon="0">
        <time>2021-02-28T09:30:12.443000+00:00</time>
      </trkpt>
      <trkpt lat="47.32585" lon="-1.45692">
        <ele>97</ele>
        <time>2021-02-28T09:30:13.458000+00:00</time>
      </trkpt>
      <trkpt lat="0" lon="0">
        <time>2021-02-28T09:30:13.464000+00:00</time>
      </trkpt>
      <trkpt lat="0" lon="0">
        <time>2021-02-28T09:30:13.469000+00:00</time>
      </trkpt>
      <trkpt lat="0" lon="0">
        <time>2021-02-28T09:30:13.472000+00:00</time>
      </trkpt>
      <trkpt lat="47.32591" lon="-1.45694">
        <ele>97</ele>
        <time>2021-02-28T09:30:14.460000+00:00</time>
      </trkpt>
      <trkpt lat="0" lon="0">
        <time>2021-02-28T09:30:14.468000+00:00</time>
      </trkpt>
      <trkpt lat="0" lon="0">
        <time>2021-02-28T09:30:14.473000+00:00</time>
      </trkpt>
      <trkpt lat="0" lon="0">
        <time>2021-02-28T09:30:14.476000+00:00</time>
      </trkpt>
      <trkpt lat="47.32597" lon="-1.45697">
        <ele>97</ele>
        <time>2021-02-28T09:30:15.425000+00:00</time>
      </trkpt>
      <trkpt lat="0" lon="0">
        <time>2021-02-28T09:30:15.435000+00:00</time>
      </trkpt>
      <trkpt lat="0" lon="0">
        <time>2021-02-28T09:30:15.444000+00:00</time>
      </trkpt>
      <trkpt lat="0" lon="0">
        <time>2021-02-28T09:30:15.447000+00:00</time>
      </trkpt>
      <trkpt lat="47.32603" lon="-1.45699">
        <ele>97</ele>
        <time>2021-02-28T09:30:16.416000+00:00</time>
      </trkpt>
      <trkpt lat="0" lon="0">
        <time>2021-02-28T09:30:16.429000+00:00</time>
      </trkpt>
      <trkpt lat="0" lon="0">
        <time>2021-02-28T09:30:16.434000+00:00</time>
      </trkpt>
      <trkpt lat="0" lon="0">
        <time>2021-02-28T09:30:16.436000+00:00</time>
      </trkpt>
      <trkpt lat="47.32608" lon="-1.45701">
        <ele>97</ele>
        <time>2021-02-28T09:30:17.431000+00:00</time>
      </trkpt>
      <trkpt lat="0" lon="0">
        <time>2021-02-28T09:30:17.437000+00:00</time>
      </trkpt>
      <trkpt lat="0" lon="0">
        <time>2021-02-28T09:30:17.442000+00:00</time>
      </trkpt>
      <trkpt lat="0" lon="0">
        <time>2021-02-28T09:30:17.445000+00:00</time>
      </trkpt>
      <trkpt lat="47.32614" lon="-1.45704">
        <ele>96</ele>
        <time>2021-02-28T09:30:18.506000+00:00</time>
      </trkpt>
      <trkpt lat="0" lon="0">
        <time>2021-02-28T09:30:18.514000+00:00</time>
      </trkpt>
      <trkpt lat="0" lon="0">
        <time>2021-02-28T09:30:18.522000+00:00</time>
      </trkpt>
      <trkpt lat="0" lon="0">
        <time>2021-02-28T09:30:18.525000+00:00</time>
      </trkpt>
      <trkpt lat="47.3262" lon="-1.45706">
        <ele>96</ele>
        <time>2021-02-28T09:30:19.496000+00:00</time>
      </trkpt>
      <trkpt lat="0" lon="0">
        <time>2021-02-28T09:30:19.504000+00:00</time>
      </trkpt>
      <trkpt lat="0" lon="0">
        <time>2021-02-28T09:30:19.509000+00:00</time>
      </trkpt>
      <trkpt lat="0" lon="0">
        <time>2021-02-28T09:30:19.512000+00:00</time>
      </trkpt>
      <trkpt lat="47.32625" lon="-1.45708">
        <ele>96</ele>
        <time>2021-02-28T09:30:20.432000+00:00</time>
      </trkpt>
      <trkpt lat="0" lon="0">
        <time>2021-02-28T09:30:20.440000+00:00</time>
      </trkpt>
      <trkpt lat="0" lon="0">
        <time>2021-02-28T09:30:20.443000+00:00</time>
      </trkpt>
      <trkpt lat="0" lon="0">
        <time>2021-02-28T09:30:20.445000+00:00</time>
      </trkpt>
      <trkpt lat="47.3263" lon="-1.45711">
        <ele>96</ele>
        <time>2021-02-28T09:30:21.459000+00:00</time>
      </trkpt>
      <trkpt lat="0" lon="0">
        <time>2021-02-28T09:30:21.469000+00:00</time>
      </trkpt>
      <trkpt lat="0" lon="0">
        <time>2021-02-28T09:30:21.474000+00:00</time>
      </trkpt>
      <trkpt lat="0" lon="0">
        <time>2021-02-28T09:30:21.477000+00:00</time>
      </trkpt>
      <trkpt lat="47.32635" lon="-1.45713">
        <ele>96</ele>
        <time>2021-02-28T09:30:22.479000+00:00</time>
      </trkpt>
      <trkpt lat="0" lon="0">
        <time>2021-02-28T09:30:22.490000+00:00</time>
      </trkpt>
      <trkpt lat="0" lon="0">
        <time>2021-02-28T09:30:22.494000+00:00</time>
      </trkpt>
      <trkpt lat="0" lon="0">
        <time>2021-02-28T09:30:22.497000+00:00</time>
      </trkpt>
      <trkpt lat="47.3264" lon="-1.45714">
        <ele>96</ele>
        <time>2021-02-28T09:30:23.433000+00:00</time>
      </trkpt>
      <trkpt lat="0" lon="0">
        <time>2021-02-28T09:30:23.438000+00:00</time>
      </trkpt>
      <trkpt lat="0" lon="0">
        <time>2021-02-28T09:30:23.443000+00:00</time>
      </trkpt>
      <trkpt lat="0" lon="0">
        <time>2021-02-28T09:30:23.445000+00:00</time>
      </trkpt>
      <trkpt lat="47.32644" lon="-1.45716">
        <ele>96</ele>
        <time>2021-02-28T09:30:24.479000+00:00</time>
      </trkpt>
      <trkpt lat="0" lon="0">
        <time>2021-02-28T09:30:24.490000+00:00</time>
      </trkpt>
      <trkpt lat="0" lon="0">
        <time>2021-02-28T09:30:24.494000+00:00</time>
      </trkpt>
      <trkpt lat="0" lon="0">
        <time>2021-02-28T09:30:24.496000+00:00</time>
      </trkpt>
      <trkpt lat="47.32647" lon="-1.45718">
        <ele>96</ele>
        <time>2021-02-28T09:30:25.402000+00:00</time>
      </trkpt>
      <trkpt lat="0" lon="0">
        <time>2021-02-28T09:30:25.414000+00:00</time>
      </trkpt>
      <trkpt lat="0" lon="0">
        <time>2021-02-28T09:30:25.416000+00:00</time>
      </trkpt>
      <trkpt lat="0" lon="0">
        <time>2021-02-28T09:30:25.417000+00:00</time>
      </trkpt>
      <trkpt lat="47.3265" lon="-1.4572">
        <ele>96</ele>
        <time>2021-02-28T09:30:26.407000+00:00</time>
      </trkpt>
      <trkpt lat="0" lon="0">
        <time>2021-02-28T09:30:26.412000+00:00</time>
      </trkpt>
      <trkpt lat="0" lon="0">
        <time>2021-02-28T09:30:26.416000+00:00</time>
      </trkpt>
      <trkpt lat="0" lon="0">
        <time>2021-02-28T09:30:26.418000+00:00</time>
      </trkpt>
      <trkpt lat="47.32651" lon="-1.45723">
        <ele>97</ele>
        <time>2021-02-28T09:30:27.439000+00:00</time>
      </trkpt>
      <trkpt lat="0" lon="0">
        <time>2021-02-28T09:30:27.446000+00:00</time>
      </trkpt>
      <trkpt lat="0" lon="0">
        <time>2021-02-28T09:30:27.454000+00:00</time>
      </trkpt>
      <trkpt lat="0" lon="0">
        <time>2021-02-28T09:30:27.457000+00:00</time>
      </trkpt>
      <trkpt lat="47.32652" lon="-1.45725">
        <ele>97</ele>
        <time>2021-02-28T09:30:28.469000+00:00</time>
      </trkpt>
      <trkpt lat="0" lon="0">
        <time>2021-02-28T09:30:28.476000+00:00</time>
      </trkpt>
      <trkpt lat="0" lon="0">
        <time>2021-02-28T09:30:28.480000+00:00</time>
      </trkpt>
      <trkpt lat="0" lon="0">
        <time>2021-02-28T09:30:28.483000+00:00</time>
      </trkpt>
      <trkpt lat="47.32652" lon="-1.45728">
        <ele>97</ele>
        <time>2021-02-28T09:30:29.453000+00:00</time>
      </trkpt>
      <trkpt lat="0" lon="0">
        <time>2021-02-28T09:30:29.463000+00:00</time>
      </trkpt>
      <trkpt lat="0" lon="0">
        <time>2021-02-28T09:30:29.467000+00:00</time>
      </trkpt>
      <trkpt lat="0" lon="0">
        <time>2021-02-28T09:30:29.469000+00:00</time>
      </trkpt>
      <trkpt lat="47.32651" lon="-1.45732">
        <ele>97</ele>
        <time>2021-02-28T09:30:30.452000+00:00</time>
      </trkpt>
      <trkpt lat="0" lon="0">
        <time>2021-02-28T09:30:30.461000+00:00</time>
      </trkpt>
      <trkpt lat="0" lon="0">
        <time>2021-02-28T09:30:30.465000+00:00</time>
      </trkpt>
      <trkpt lat="0" lon="0">
        <time>2021-02-28T09:30:30.467000+00:00</time>
      </trkpt>
      <trkpt lat="47.32649" lon="-1.45735">
        <ele>97</ele>
        <time>2021-02-28T09:30:31.500000+00:00</time>
      </trkpt>
      <trkpt lat="0" lon="0">
        <time>2021-02-28T09:30:31.509000+00:00</time>
      </trkpt>
      <trkpt lat="0" lon="0">
        <time>2021-02-28T09:30:31.514000+00:00</time>
      </trkpt>
      <trkpt lat="0" lon="0">
        <time>2021-02-28T09:30:31.517000+00:00</time>
      </trkpt>
      <trkpt lat="47.32647" lon="-1.45739">
        <ele>97</ele>
        <time>2021-02-28T09:30:32.473000+00:00</time>
      </trkpt>
      <trkpt lat="0" lon="0">
        <time>2021-02-28T09:30:32.477000+00:00</time>
      </trkpt>
      <trkpt lat="0" lon="0">
        <time>2021-02-28T09:30:32.482000+00:00</time>
      </trkpt>
      <trkpt lat="0" lon="0">
        <time>2021-02-28T09:30:32.487000+00:00</time>
      </trkpt>
      <trkpt lat="47.32644" lon="-1.45743">
        <ele>97</ele>
        <time>2021-02-28T09:30:33.409000+00:00</time>
      </trkpt>
      <trkpt lat="0" lon="0">
        <time>2021-02-28T09:30:33.410000+00:00</time>
      </trkpt>
      <trkpt lat="0" lon="0">
        <time>2021-02-28T09:30:33.412000+00:00</time>
      </trkpt>
      <trkpt lat="47.32641" lon="-1.45748">
        <ele>97</ele>
        <time>2021-02-28T09:30:34.424000+00:00</time>
      </trkpt>
      <trkpt lat="0" lon="0">
        <time>2021-02-28T09:30:34.431000+00:00</time>
      </trkpt>
      <trkpt lat="0" lon="0">
        <time>2021-02-28T09:30:34.440000+00:00</time>
      </trkpt>
      <trkpt lat="0" lon="0">
        <time>2021-02-28T09:30:34.443000+00:00</time>
      </trkpt>
      <trkpt lat="47.32638" lon="-1.45752">
        <ele>97</ele>
        <time>2021-02-28T09:30:35.494000+00:00</time>
      </trkpt>
      <trkpt lat="0" lon="0">
        <time>2021-02-28T09:30:35.506000+00:00</time>
      </trkpt>
      <trkpt lat="0" lon="0">
        <time>2021-02-28T09:30:35.513000+00:00</time>
      </trkpt>
      <trkpt lat="0" lon="0">
        <time>2021-02-28T09:30:35.517000+00:00</time>
      </trkpt>
      <trkpt lat="47.32635" lon="-1.45757">
        <ele>97</ele>
        <time>2021-02-28T09:30:36.479000+00:00</time>
      </trkpt>
      <trkpt lat="0" lon="0">
        <time>2021-02-28T09:30:36.484000+00:00</time>
      </trkpt>
      <trkpt lat="0" lon="0">
        <time>2021-02-28T09:30:36.489000+00:00</time>
      </trkpt>
      <trkpt lat="0" lon="0">
        <time>2021-02-28T09:30:36.491000+00:00</time>
      </trkpt>
      <trkpt lat="47.32631" lon="-1.45761">
        <ele>97</ele>
        <time>2021-02-28T09:30:37.482000+00:00</time>
      </trkpt>
      <trkpt lat="0" lon="0">
        <time>2021-02-28T09:30:37.490000+00:00</time>
      </trkpt>
      <trkpt lat="0" lon="0">
        <time>2021-02-28T09:30:37.496000+00:00</time>
      </trkpt>
      <trkpt lat="0" lon="0">
        <time>2021-02-28T09:30:37.498000+00:00</time>
      </trkpt>
      <trkpt lat="47.32628" lon="-1.45766">
        <ele>97</ele>
        <time>2021-02-28T09:30:38.399000+00:00</time>
      </trkpt>
      <trkpt lat="0" lon="0">
        <time>2021-02-28T09:30:38.409000+00:00</time>
      </trkpt>
      <trkpt lat="0" lon="0">
        <time>2021-02-28T09:30:38.415000+00:00</time>
      </trkpt>
      <trkpt lat="0" lon="0">
        <time>2021-02-28T09:30:38.417000+00:00</time>
      </trkpt>
      <trkpt lat="47.32625" lon="-1.45772">
        <ele>97</ele>
        <time>2021-02-28T09:30:39.475000+00:00</time>
      </trkpt>
      <trkpt lat="0" lon="0">
        <time>2021-02-28T09:30:39.483000+00:00</time>
      </trkpt>
      <trkpt lat="0" lon="0">
        <time>2021-02-28T09:30:39.490000+00:00</time>
      </trkpt>
      <trkpt lat="0" lon="0">
        <time>2021-02-28T09:30:39.493000+00:00</time>
      </trkpt>
      <trkpt lat="47.32623" lon="-1.45777">
        <ele>98</ele>
        <time>2021-02-28T09:30:40.431000+00:00</time>
      </trkpt>
      <trkpt lat="0" lon="0">
        <time>2021-02-28T09:30:40.433000+00:00</time>
      </trkpt>
      <trkpt lat="0" lon="0">
        <time>2021-02-28T09:30:40.435000+00:00</time>
      </trkpt>
      <trkpt lat="0" lon="0">
        <time>2021-02-28T09:30:40.437000+00:00</time>
      </trkpt>
      <trkpt lat="47.3262" lon="-1.45783">
        <ele>98</ele>
        <time>2021-02-28T09:30:41.462000+00:00</time>
      </trkpt>
      <trkpt lat="0" lon="0">
        <time>2021-02-28T09:30:41.469000+00:00</time>
      </trkpt>
      <trkpt lat="0" lon="0">
        <time>2021-02-28T09:30:41.475000+00:00</time>
      </trkpt>
      <trkpt lat="0" lon="0">
        <time>2021-02-28T09:30:41.478000+00:00</time>
      </trkpt>
      <trkpt lat="47.32617" lon="-1.45788">
        <ele>98</ele>
        <time>2021-02-28T09:30:42.482000+00:00</time>
      </trkpt>
      <trkpt lat="0" lon="0">
        <time>2021-02-28T09:30:42.490000+00:00</time>
      </trkpt>
      <trkpt lat="0" lon="0">
        <time>2021-02-28T09:30:42.495000+00:00</time>
      </trkpt>
      <trkpt lat="0" lon="0">
        <time>2021-02-28T09:30:42.498000+00:00</time>
      </trkpt>
      <trkpt lat="47.32615" lon="-1.45794">
        <ele>98</ele>
        <time>2021-02-28T09:30:43.507000+00:00</time>
      </trkpt>
      <trkpt lat="0" lon="0">
        <time>2021-02-28T09:30:43.514000+00:00</time>
      </trkpt>
      <trkpt lat="0" lon="0">
        <time>2021-02-28T09:30:43.517000+00:00</time>
      </trkpt>
      <trkpt lat="0" lon="0">
        <time>2021-02-28T09:30:43.518000+00:00</time>
      </trkpt>
      <trkpt lat="47.3261" lon="-1.45805">
        <ele>98</ele>
        <time>2021-02-28T09:30:45.507000+00:00</time>
      </trkpt>
      <trkpt lat="0" lon="0">
        <time>2021-02-28T09:30:45.514000+00:00</time>
      </trkpt>
      <trkpt lat="0" lon="0">
        <time>2021-02-28T09:30:45.518000+00:00</time>
      </trkpt>
      <trkpt lat="0" lon="0">
        <time>2021-02-28T09:30:45.521000+00:00</time>
      </trkpt>
      <trkpt lat="47.32608" lon="-1.4581">
        <ele>98</ele>
        <time>2021-02-28T09:30:46.378000+00:00</time>
      </trkpt>
      <trkpt lat="0" lon="0">
        <time>2021-02-28T09:30:46.384000+00:00</time>
      </trkpt>
      <trkpt lat="0" lon="0">
        <time>2021-02-28T09:30:46.392000+00:00</time>
      </trkpt>
      <trkpt lat="0" lon="0">
        <time>2021-02-28T09:30:46.394000+00:00</time>
      </trkpt>
      <trkpt lat="47.32606" lon="-1.45816">
        <ele>98</ele>
        <time>2021-02-28T09:30:47.505000+00:00</time>
      </trkpt>
      <trkpt lat="0" lon="0">
        <time>2021-02-28T09:30:47.514000+00:00</time>
      </trkpt>
      <trkpt lat="0" lon="0">
        <time>2021-02-28T09:30:47.520000+00:00</time>
      </trkpt>
      <trkpt lat="0" lon="0">
        <time>2021-02-28T09:30:47.523000+00:00</time>
      </trkpt>
      <trkpt lat="47.32604" lon="-1.45822">
        <ele>99</ele>
        <time>2021-02-28T09:30:48.447000+00:00</time>
      </trkpt>
      <trkpt lat="0" lon="0">
        <time>2021-02-28T09:30:48.455000+00:00</time>
      </trkpt>
      <trkpt lat="0" lon="0">
        <time>2021-02-28T09:30:48.461000+00:00</time>
      </trkpt>
      <trkpt lat="0" lon="0">
        <time>2021-02-28T09:30:48.463000+00:00</time>
      </trkpt>
      <trkpt lat="47.32603" lon="-1.45827">
        <ele>99</ele>
        <time>2021-02-28T09:30:49.460000+00:00</time>
      </trkpt>
      <trkpt lat="0" lon="0">
        <time>2021-02-28T09:30:49.470000+00:00</time>
      </trkpt>
      <trkpt lat="0" lon="0">
        <time>2021-02-28T09:30:49.474000+00:00</time>
      </trkpt>
      <trkpt lat="0" lon="0">
        <time>2021-02-28T09:30:49.477000+00:00</time>
      </trkpt>
      <trkpt lat="47.32602" lon="-1.45831">
        <ele>99</ele>
        <time>2021-02-28T09:30:50.449000+00:00</time>
      </trkpt>
      <trkpt lat="0" lon="0">
        <time>2021-02-28T09:30:50.459000+00:00</time>
      </trkpt>
      <trkpt lat="0" lon="0">
        <time>2021-02-28T09:30:50.466000+00:00</time>
      </trkpt>
      <trkpt lat="0" lon="0">
        <time>2021-02-28T09:30:50.469000+00:00</time>
      </trkpt>
      <trkpt lat="47.32601" lon="-1.45835">
        <ele>100</ele>
        <time>2021-02-28T09:30:51.442000+00:00</time>
      </trkpt>
      <trkpt lat="0" lon="0">
        <time>2021-02-28T09:30:51.450000+00:00</time>
      </trkpt>
      <trkpt lat="0" lon="0">
        <time>2021-02-28T09:30:51.455000+00:00</time>
      </trkpt>
      <trkpt lat="0" lon="0">
        <time>2021-02-28T09:30:51.458000+00:00</time>
      </trkpt>
      <trkpt lat="47.32601" lon="-1.45838">
        <ele>100</ele>
        <time>2021-02-28T09:30:52.448000+00:00</time>
      </trkpt>
      <trkpt lat="0" lon="0">
        <time>2021-02-28T09:30:52.459000+00:00</time>
      </trkpt>
      <trkpt lat="0" lon="0">
        <time>2021-02-28T09:30:52.463000+00:00</time>
      </trkpt>
      <trkpt lat="0" lon="0">
        <time>2021-02-28T09:30:52.466000+00:00</time>
      </trkpt>
      <trkpt lat="47.32601" lon="-1.45841">
        <ele>100</ele>
        <time>2021-02-28T09:30:53.471000+00:00</time>
      </trkpt>
      <trkpt lat="0" lon="0">
        <time>2021-02-28T09:30:53.478000+00:00</time>
      </trkpt>
      <trkpt lat="0" lon="0">
        <time>2021-02-28T09:30:53.482000+00:00</time>
      </trkpt>
      <trkpt lat="0" lon="0">
        <time>2021-02-28T09:30:53.484000+00:00</time>
      </trkpt>
      <trkpt lat="47.32601" lon="-1.45843">
        <ele>100</ele>
        <time>2021-02-28T09:30:54.457000+00:00</time>
      </trkpt>
      <trkpt lat="0" lon="0">
        <time>2021-02-28T09:30:54.459000+00:00</time>
      </trkpt>
      <trkpt lat="0" lon="0">
        <time>2021-02-28T09:30:54.460000+00:00</time>
      </trkpt>
      <trkpt lat="0" lon="0">
        <time>2021-02-28T09:30:54.465000+00:00</time>
      </trkpt>
      <trkpt lat="47.326" lon="-1.45845">
        <ele>100</ele>
        <time>2021-02-28T09:30:55.384000+00:00</time>
      </trkpt>
      <trkpt lat="0" lon="0">
        <time>2021-02-28T09:30:55.392000+00:00</time>
      </trkpt>
      <trkpt lat="0" lon="0">
        <time>2021-02-28T09:30:55.394000+00:00</time>
      </trkpt>
      <trkpt lat="0" lon="0">
        <time>2021-02-28T09:30:55.395000+00:00</time>
      </trkpt>
      <trkpt lat="47.326" lon="-1.45847">
        <ele>100</ele>
        <time>2021-02-28T09:30:56.383000+00:00</time>
      </trkpt>
      <trkpt lat="0" lon="0">
        <time>2021-02-28T09:30:56.387000+00:00</time>
      </trkpt>
      <trkpt lat="0" lon="0">
        <time>2021-02-28T09:30:56.389000+00:00</time>
      </trkpt>
      <trkpt lat="0" lon="0">
        <time>2021-02-28T09:30:56.391000+00:00</time>
      </trkpt>
      <trkpt lat="47.326" lon="-1.45848">
        <ele>100</ele>
        <time>2021-02-28T09:30:57.447000+00:00</time>
      </trkpt>
      <trkpt lat="0" lon="0">
        <time>2021-02-28T09:30:57.454000+00:00</time>
      </trkpt>
      <trkpt lat="0" lon="0">
        <time>2021-02-28T09:30:57.459000+00:00</time>
      </trkpt>
      <trkpt lat="0" lon="0">
        <time>2021-02-28T09:30:57.462000+00:00</time>
      </trkpt>
      <trkpt lat="47.32599" lon="-1.4585">
        <ele>101</ele>
        <time>2021-02-28T09:30:58.458000+00:00</time>
      </trkpt>
      <trkpt lat="0" lon="0">
        <time>2021-02-28T09:30:58.469000+00:00</time>
      </trkpt>
      <trkpt lat="0" lon="0">
        <time>2021-02-28T09:30:58.474000+00:00</time>
      </trkpt>
      <trkpt lat="0" lon="0">
        <time>2021-02-28T09:30:58.477000+00:00</time>
      </trkpt>
      <trkpt lat="47.32599" lon="-1.45852">
        <ele>101</ele>
        <time>2021-02-28T09:30:59.511000+00:00</time>
      </trkpt>
      <trkpt lat="0" lon="0">
        <time>2021-02-28T09:30:59.517000+00:00</time>
      </trkpt>
      <trkpt lat="0" lon="0">
        <time>2021-02-28T09:30:59.522000+00:00</time>
      </trkpt>
      <trkpt lat="0" lon="0">
        <time>2021-02-28T09:30:59.525000+00:00</time>
      </trkpt>
      <trkpt lat="47.32599" lon="-1.45854">
        <ele>101</ele>
        <time>2021-02-28T09:31:00.454000+00:00</time>
      </trkpt>
      <trkpt lat="0" lon="0">
        <time>2021-02-28T09:31:00.466000+00:00</time>
      </trkpt>
      <trkpt lat="0" lon="0">
        <time>2021-02-28T09:31:00.470000+00:00</time>
      </trkpt>
      <trkpt lat="0" lon="0">
        <time>2021-02-28T09:31:00.475000+00:00</time>
      </trkpt>
      <trkpt lat="47.32599" lon="-1.45857">
        <ele>101</ele>
        <time>2021-02-28T09:31:01.442000+00:00</time>
      </trkpt>
      <trkpt lat="0" lon="0">
        <time>2021-02-28T09:31:01.452000+00:00</time>
      </trkpt>
      <trkpt lat="0" lon="0">
        <time>2021-02-28T09:31:01.459000+00:00</time>
      </trkpt>
      <trkpt lat="0" lon="0">
        <time>2021-02-28T09:31:01.461000+00:00</time>
      </trkpt>
      <trkpt lat="47.32599" lon="-1.4586">
        <ele>101</ele>
        <time>2021-02-28T09:31:02.430000+00:00</time>
      </trkpt>
      <trkpt lat="0" lon="0">
        <time>2021-02-28T09:31:02.440000+00:00</time>
      </trkpt>
      <trkpt lat="0" lon="0">
        <time>2021-02-28T09:31:02.446000+00:00</time>
      </trkpt>
      <trkpt lat="0" lon="0">
        <time>2021-02-28T09:31:02.448000+00:00</time>
      </trkpt>
      <trkpt lat="47.32599" lon="-1.45864">
        <ele>101</ele>
        <time>2021-02-28T09:31:03.487000+00:00</time>
      </trkpt>
      <trkpt lat="0" lon="0">
        <time>2021-02-28T09:31:03.497000+00:00</time>
      </trkpt>
      <trkpt lat="0" lon="0">
        <time>2021-02-28T09:31:03.502000+00:00</time>
      </trkpt>
      <trkpt lat="0" lon="0">
        <time>2021-02-28T09:31:03.505000+00:00</time>
      </trkpt>
      <trkpt lat="47.32599" lon="-1.45868">
        <ele>102</ele>
        <time>2021-02-28T09:31:04.445000+00:00</time>
      </trkpt>
      <trkpt lat="0" lon="0">
        <time>2021-02-28T09:31:04.450000+00:00</time>
      </trkpt>
      <trkpt lat="0" lon="0">
        <time>2021-02-28T09:31:04.454000+00:00</time>
      </trkpt>
      <trkpt lat="0" lon="0">
        <time>2021-02-28T09:31:04.457000+00:00</time>
      </trkpt>
      <trkpt lat="47.32598" lon="-1.45873">
        <ele>102</ele>
        <time>2021-02-28T09:31:05.457000+00:00</time>
      </trkpt>
      <trkpt lat="0" lon="0">
        <time>2021-02-28T09:31:05.465000+00:00</time>
      </trkpt>
      <trkpt lat="0" lon="0">
        <time>2021-02-28T09:31:05.470000+00:00</time>
      </trkpt>
      <trkpt lat="0" lon="0">
        <time>2021-02-28T09:31:05.473000+00:00</time>
      </trkpt>
      <trkpt lat="47.32598" lon="-1.45878">
        <ele>102</ele>
        <time>2021-02-28T09:31:06.430000+00:00</time>
      </trkpt>
      <trkpt lat="0" lon="0">
        <time>2021-02-28T09:31:06.434000+00:00</time>
      </trkpt>
      <trkpt lat="0" lon="0">
        <time>2021-02-28T09:31:06.438000+00:00</time>
      </trkpt>
      <trkpt lat="0" lon="0">
        <time>2021-02-28T09:31:06.440000+00:00</time>
      </trkpt>
      <trkpt lat="47.32598" lon="-1.45883">
        <ele>102</ele>
        <time>2021-02-28T09:31:07.518000+00:00</time>
      </trkpt>
      <trkpt lat="0" lon="0">
        <time>2021-02-28T09:31:07.525000+00:00</time>
      </trkpt>
      <trkpt lat="0" lon="0">
        <time>2021-02-28T09:31:07.530000+00:00</time>
      </trkpt>
      <trkpt lat="0" lon="0">
        <time>2021-02-28T09:31:07.533000+00:00</time>
      </trkpt>
      <trkpt lat="47.32597" lon="-1.45889">
        <ele>102</ele>
        <time>2021-02-28T09:31:08.451000+00:00</time>
      </trkpt>
      <trkpt lat="0" lon="0">
        <time>2021-02-28T09:31:08.461000+00:00</time>
      </trkpt>
      <trkpt lat="0" lon="0">
        <time>2021-02-28T09:31:08.466000+00:00</time>
      </trkpt>
      <trkpt lat="0" lon="0">
        <time>2021-02-28T09:31:08.469000+00:00</time>
      </trkpt>
      <trkpt lat="47.32597" lon="-1.45896">
        <ele>102</ele>
        <time>2021-02-28T09:31:09.503000+00:00</time>
      </trkpt>
      <trkpt lat="0" lon="0">
        <time>2021-02-28T09:31:09.511000+00:00</time>
      </trkpt>
      <trkpt lat="0" lon="0">
        <time>2021-02-28T09:31:09.517000+00:00</time>
      </trkpt>
      <trkpt lat="0" lon="0">
        <time>2021-02-28T09:31:09.520000+00:00</time>
      </trkpt>
      <trkpt lat="47.32596" lon="-1.45903">
        <ele>102</ele>
        <time>2021-02-28T09:31:10.487000+00:00</time>
      </trkpt>
      <trkpt lat="0" lon="0">
        <time>2021-02-28T09:31:10.500000+00:00</time>
      </trkpt>
      <trkpt lat="0" lon="0">
        <time>2021-02-28T09:31:10.507000+00:00</time>
      </trkpt>
      <trkpt lat="0" lon="0">
        <time>2021-02-28T09:31:10.509000+00:00</time>
      </trkpt>
      <trkpt lat="47.32595" lon="-1.4591">
        <ele>102</ele>
        <time>2021-02-28T09:31:11.430000+00:00</time>
      </trkpt>
      <trkpt lat="0" lon="0">
        <time>2021-02-28T09:31:11.434000+00:00</time>
      </trkpt>
      <trkpt lat="0" lon="0">
        <time>2021-02-28T09:31:11.437000+00:00</time>
      </trkpt>
      <trkpt lat="0" lon="0">
        <time>2021-02-28T09:31:11.438000+00:00</time>
      </trkpt>
      <trkpt lat="47.32595" lon="-1.45919">
        <ele>101</ele>
        <time>2021-02-28T09:31:12.494000+00:00</time>
      </trkpt>
      <trkpt lat="0" lon="0">
        <time>2021-02-28T09:31:12.498000+00:00</time>
      </trkpt>
      <trkpt lat="0" lon="0">
        <time>2021-02-28T09:31:12.502000+00:00</time>
      </trkpt>
      <trkpt lat="0" lon="0">
        <time>2021-02-28T09:31:12.505000+00:00</time>
      </trkpt>
      <trkpt lat="47.32594" lon="-1.45928">
        <ele>101</ele>
        <time>2021-02-28T09:31:13.516000+00:00</time>
      </trkpt>
      <trkpt lat="0" lon="0">
        <time>2021-02-28T09:31:13.521000+00:00</time>
      </trkpt>
      <trkpt lat="0" lon="0">
        <time>2021-02-28T09:31:13.526000+00:00</time>
      </trkpt>
      <trkpt lat="0" lon="0">
        <time>2021-02-28T09:31:13.528000+00:00</time>
      </trkpt>
      <trkpt lat="47.32594" lon="-1.45937">
        <ele>101</ele>
        <time>2021-02-28T09:31:14.451000+00:00</time>
      </trkpt>
      <trkpt lat="0" lon="0">
        <time>2021-02-28T09:31:14.457000+00:00</time>
      </trkpt>
      <trkpt lat="0" lon="0">
        <time>2021-02-28T09:31:14.462000+00:00</time>
      </trkpt>
      <trkpt lat="0" lon="0">
        <time>2021-02-28T09:31:14.464000+00:00</time>
      </trkpt>
      <trkpt lat="47.32594" lon="-1.45947">
        <ele>101</ele>
        <time>2021-02-28T09:31:15.468000+00:00</time>
      </trkpt>
      <trkpt lat="0" lon="0">
        <time>2021-02-28T09:31:15.477000+00:00</time>
      </trkpt>
      <trkpt lat="0" lon="0">
        <time>2021-02-28T09:31:15.484000+00:00</time>
      </trkpt>
      <trkpt lat="0" lon="0">
        <time>2021-02-28T09:31:15.486000+00:00</time>
      </trkpt>
      <trkpt lat="47.32594" lon="-1.45957">
        <ele>101</ele>
        <time>2021-02-28T09:31:16.509000+00:00</time>
      </trkpt>
      <trkpt lat="0" lon="0">
        <time>2021-02-28T09:31:16.516000+00:00</time>
      </trkpt>
      <trkpt lat="0" lon="0">
        <time>2021-02-28T09:31:16.522000+00:00</time>
      </trkpt>
      <trkpt lat="0" lon="0">
        <time>2021-02-28T09:31:16.524000+00:00</time>
      </trkpt>
      <trkpt lat="47.32594" lon="-1.45968">
        <ele>101</ele>
        <time>2021-02-28T09:31:17.424000+00:00</time>
      </trkpt>
      <trkpt lat="0" lon="0">
        <time>2021-02-28T09:31:17.429000+00:00</time>
      </trkpt>
      <trkpt lat="0" lon="0">
        <time>2021-02-28T09:31:17.439000+00:00</time>
      </trkpt>
      <trkpt lat="0" lon="0">
        <time>2021-02-28T09:31:17.441000+00:00</time>
      </trkpt>
      <trkpt lat="47.32594" lon="-1.4598">
        <ele>101</ele>
        <time>2021-02-28T09:31:18.423000+00:00</time>
      </trkpt>
      <trkpt lat="0" lon="0">
        <time>2021-02-28T09:31:18.433000+00:00</time>
      </trkpt>
      <trkpt lat="0" lon="0">
        <time>2021-02-28T09:31:18.437000+00:00</time>
      </trkpt>
      <trkpt lat="0" lon="0">
        <time>2021-02-28T09:31:18.441000+00:00</time>
      </trkpt>
      <trkpt lat="47.32593" lon="-1.45991">
        <ele>101</ele>
        <time>2021-02-28T09:31:19.517000+00:00</time>
      </trkpt>
      <trkpt lat="0" lon="0">
        <time>2021-02-28T09:31:19.524000+00:00</time>
      </trkpt>
      <trkpt lat="0" lon="0">
        <time>2021-02-28T09:31:19.530000+00:00</time>
      </trkpt>
      <trkpt lat="0" lon="0">
        <time>2021-02-28T09:31:19.534000+00:00</time>
      </trkpt>
      <trkpt lat="47.32592" lon="-1.46001">
        <ele>101</ele>
        <time>2021-02-28T09:31:20.423000+00:00</time>
      </trkpt>
      <trkpt lat="0" lon="0">
        <time>2021-02-28T09:31:20.432000+00:00</time>
      </trkpt>
      <trkpt lat="0" lon="0">
        <time>2021-02-28T09:31:20.436000+00:00</time>
      </trkpt>
      <trkpt lat="0" lon="0">
        <time>2021-02-28T09:31:20.439000+00:00</time>
      </trkpt>
      <trkpt lat="47.32591" lon="-1.46012">
        <ele>102</ele>
        <time>2021-02-28T09:31:21.449000+00:00</time>
      </trkpt>
      <trkpt lat="0" lon="0">
        <time>2021-02-28T09:31:21.456000+00:00</time>
      </trkpt>
      <trkpt lat="0" lon="0">
        <time>2021-02-28T09:31:21.462000+00:00</time>
      </trkpt>
      <trkpt lat="0" lon="0">
        <time>2021-02-28T09:31:21.464000+00:00</time>
      </trkpt>
      <trkpt lat="47.3259" lon="-1.46023">
        <ele>102</ele>
        <time>2021-02-28T09:31:22.494000+00:00</time>
      </trkpt>
      <trkpt lat="0" lon="0">
        <time>2021-02-28T09:31:22.502000+00:00</time>
      </trkpt>
      <trkpt lat="0" lon="0">
        <time>2021-02-28T09:31:22.506000+00:00</time>
      </trkpt>
      <trkpt lat="0" lon="0">
        <time>2021-02-28T09:31:22.509000+00:00</time>
      </trkpt>
      <trkpt lat="47.32588" lon="-1.46033">
        <ele>102</ele>
        <time>2021-02-28T09:31:23.510000+00:00</time>
      </trkpt>
      <trkpt lat="0" lon="0">
        <time>2021-02-28T09:31:23.526000+00:00</time>
      </trkpt>
      <trkpt lat="0" lon="0">
        <time>2021-02-28T09:31:23.533000+00:00</time>
      </trkpt>
      <trkpt lat="0" lon="0">
        <time>2021-02-28T09:31:23.535000+00:00</time>
      </trkpt>
      <trkpt lat="47.32586" lon="-1.46042">
        <ele>102</ele>
        <time>2021-02-28T09:31:24.475000+00:00</time>
      </trkpt>
      <trkpt lat="0" lon="0">
        <time>2021-02-28T09:31:24.485000+00:00</time>
      </trkpt>
      <trkpt lat="0" lon="0">
        <time>2021-02-28T09:31:24.491000+00:00</time>
      </trkpt>
      <trkpt lat="0" lon="0">
        <time>2021-02-28T09:31:24.494000+00:00</time>
      </trkpt>
      <trkpt lat="47.32584" lon="-1.46052">
        <ele>102</ele>
        <time>2021-02-28T09:31:25.470000+00:00</time>
      </trkpt>
      <trkpt lat="0" lon="0">
        <time>2021-02-28T09:31:25.477000+00:00</time>
      </trkpt>
      <trkpt lat="0" lon="0">
        <time>2021-02-28T09:31:25.482000+00:00</time>
      </trkpt>
      <trkpt lat="0" lon="0">
        <time>2021-02-28T09:31:25.485000+00:00</time>
      </trkpt>
      <trkpt lat="47.32582" lon="-1.46062">
        <ele>102</ele>
        <time>2021-02-28T09:31:26.421000+00:00</time>
      </trkpt>
      <trkpt lat="0" lon="0">
        <time>2021-02-28T09:31:26.432000+00:00</time>
      </trkpt>
      <trkpt lat="0" lon="0">
        <time>2021-02-28T09:31:26.438000+00:00</time>
      </trkpt>
      <trkpt lat="0" lon="0">
        <time>2021-02-28T09:31:26.440000+00:00</time>
      </trkpt>
      <trkpt lat="47.3258" lon="-1.4607">
        <ele>102</ele>
        <time>2021-02-28T09:31:27.457000+00:00</time>
      </trkpt>
      <trkpt lat="0" lon="0">
        <time>2021-02-28T09:31:27.465000+00:00</time>
      </trkpt>
      <trkpt lat="0" lon="0">
        <time>2021-02-28T09:31:27.469000+00:00</time>
      </trkpt>
      <trkpt lat="0" lon="0">
        <time>2021-02-28T09:31:27.472000+00:00</time>
      </trkpt>
      <trkpt lat="47.32579" lon="-1.46078">
        <ele>102</ele>
        <time>2021-02-28T09:31:28.424000+00:00</time>
      </trkpt>
      <trkpt lat="0" lon="0">
        <time>2021-02-28T09:31:28.433000+00:00</time>
      </trkpt>
      <trkpt lat="0" lon="0">
        <time>2021-02-28T09:31:28.436000+00:00</time>
      </trkpt>
      <trkpt lat="0" lon="0">
        <time>2021-02-28T09:31:28.437000+00:00</time>
      </trkpt>
      <trkpt lat="47.32577" lon="-1.46085">
        <ele>102</ele>
        <time>2021-02-28T09:31:29.469000+00:00</time>
      </trkpt>
      <trkpt lat="0" lon="0">
        <time>2021-02-28T09:31:29.474000+00:00</time>
      </trkpt>
      <trkpt lat="0" lon="0">
        <time>2021-02-28T09:31:29.479000+00:00</time>
      </trkpt>
      <trkpt lat="0" lon="0">
        <time>2021-02-28T09:31:29.482000+00:00</time>
      </trkpt>
      <trkpt lat="47.32575" lon="-1.46092">
        <ele>103</ele>
        <time>2021-02-28T09:31:30.423000+00:00</time>
      </trkpt>
      <trkpt lat="0" lon="0">
        <time>2021-02-28T09:31:30.425000+00:00</time>
      </trkpt>
      <trkpt lat="0" lon="0">
        <time>2021-02-28T09:31:30.430000+00:00</time>
      </trkpt>
      <trkpt lat="0" lon="0">
        <time>2021-02-28T09:31:30.431000+00:00</time>
      </trkpt>
      <trkpt lat="47.32574" lon="-1.46098">
        <ele>103</ele>
        <time>2021-02-28T09:31:31.420000+00:00</time>
      </trkpt>
      <trkpt lat="0" lon="0">
        <time>2021-02-28T09:31:31.425000+00:00</time>
      </trkpt>
      <trkpt lat="0" lon="0">
        <time>2021-02-28T09:31:31.433000+00:00</time>
      </trkpt>
      <trkpt lat="0" lon="0">
        <time>2021-02-28T09:31:31.435000+00:00</time>
      </trkpt>
      <trkpt lat="47.32572" lon="-1.46103">
        <ele>103</ele>
        <time>2021-02-28T09:31:32.429000+00:00</time>
      </trkpt>
      <trkpt lat="0" lon="0">
        <time>2021-02-28T09:31:32.434000+00:00</time>
      </trkpt>
      <trkpt lat="0" lon="0">
        <time>2021-02-28T09:31:32.440000+00:00</time>
      </trkpt>
      <trkpt lat="0" lon="0">
        <time>2021-02-28T09:31:32.442000+00:00</time>
      </trkpt>
      <trkpt lat="47.32571" lon="-1.46108">
        <ele>103</ele>
        <time>2021-02-28T09:31:33.438000+00:00</time>
      </trkpt>
      <trkpt lat="0" lon="0">
        <time>2021-02-28T09:31:33.452000+00:00</time>
      </trkpt>
      <trkpt lat="0" lon="0">
        <time>2021-02-28T09:31:33.457000+00:00</time>
      </trkpt>
      <trkpt lat="0" lon="0">
        <time>2021-02-28T09:31:33.460000+00:00</time>
      </trkpt>
      <trkpt lat="47.3257" lon="-1.46113">
        <ele>103</ele>
        <time>2021-02-28T09:31:34.462000+00:00</time>
      </trkpt>
      <trkpt lat="0" lon="0">
        <time>2021-02-28T09:31:34.470000+00:00</time>
      </trkpt>
      <trkpt lat="0" lon="0">
        <time>2021-02-28T09:31:34.475000+00:00</time>
      </trkpt>
      <trkpt lat="0" lon="0">
        <time>2021-02-28T09:31:34.477000+00:00</time>
      </trkpt>
      <trkpt lat="47.32568" lon="-1.46118">
        <ele>103</ele>
        <time>2021-02-28T09:31:35.426000+00:00</time>
      </trkpt>
      <trkpt lat="0" lon="0">
        <time>2021-02-28T09:31:35.432000+00:00</time>
      </trkpt>
      <trkpt lat="0" lon="0">
        <time>2021-02-28T09:31:35.438000+00:00</time>
      </trkpt>
      <trkpt lat="0" lon="0">
        <time>2021-02-28T09:31:35.441000+00:00</time>
      </trkpt>
      <trkpt lat="47.32567" lon="-1.46123">
        <ele>103</ele>
        <time>2021-02-28T09:31:36.423000+00:00</time>
      </trkpt>
      <trkpt lat="0" lon="0">
        <time>2021-02-28T09:31:36.431000+00:00</time>
      </trkpt>
      <trkpt lat="0" lon="0">
        <time>2021-02-28T09:31:36.436000+00:00</time>
      </trkpt>
      <trkpt lat="0" lon="0">
        <time>2021-02-28T09:31:36.438000+00:00</time>
      </trkpt>
      <trkpt lat="47.32566" lon="-1.46128">
        <ele>104</ele>
        <time>2021-02-28T09:31:37.426000+00:00</time>
      </trkpt>
      <trkpt lat="0" lon="0">
        <time>2021-02-28T09:31:37.438000+00:00</time>
      </trkpt>
      <trkpt lat="0" lon="0">
        <time>2021-02-28T09:31:37.442000+00:00</time>
      </trkpt>
      <trkpt lat="0" lon="0">
        <time>2021-02-28T09:31:37.445000+00:00</time>
      </trkpt>
      <trkpt lat="47.32564" lon="-1.46133">
        <ele>104</ele>
        <time>2021-02-28T09:31:38.455000+00:00</time>
      </trkpt>
      <trkpt lat="0" lon="0">
        <time>2021-02-28T09:31:38.460000+00:00</time>
      </trkpt>
      <trkpt lat="0" lon="0">
        <time>2021-02-28T09:31:38.465000+00:00</time>
      </trkpt>
      <trkpt lat="0" lon="0">
        <time>2021-02-28T09:31:38.468000+00:00</time>
      </trkpt>
      <trkpt lat="47.32563" lon="-1.46138">
        <ele>104</ele>
        <time>2021-02-28T09:31:39.458000+00:00</time>
      </trkpt>
      <trkpt lat="0" lon="0">
        <time>2021-02-28T09:31:39.470000+00:00</time>
      </trkpt>
      <trkpt lat="0" lon="0">
        <time>2021-02-28T09:31:39.475000+00:00</time>
      </trkpt>
      <trkpt lat="0" lon="0">
        <time>2021-02-28T09:31:39.478000+00:00</time>
      </trkpt>
      <trkpt lat="47.32561" lon="-1.46142">
        <ele>105</ele>
        <time>2021-02-28T09:31:40.369000+00:00</time>
      </trkpt>
      <trkpt lat="0" lon="0">
        <time>2021-02-28T09:31:40.377000+00:00</time>
      </trkpt>
      <trkpt lat="0" lon="0">
        <time>2021-02-28T09:31:40.382000+00:00</time>
      </trkpt>
      <trkpt lat="0" lon="0">
        <time>2021-02-28T09:31:40.385000+00:00</time>
      </trkpt>
      <trkpt lat="47.3256" lon="-1.46146">
        <ele>105</ele>
        <time>2021-02-28T09:31:41.427000+00:00</time>
      </trkpt>
      <trkpt lat="0" lon="0">
        <time>2021-02-28T09:31:41.439000+00:00</time>
      </trkpt>
      <trkpt lat="0" lon="0">
        <time>2021-02-28T09:31:41.443000+00:00</time>
      </trkpt>
      <trkpt lat="0" lon="0">
        <time>2021-02-28T09:31:41.445000+00:00</time>
      </trkpt>
      <trkpt lat="47.32559" lon="-1.4615">
        <ele>105</ele>
        <time>2021-02-28T09:31:42.424000+00:00</time>
      </trkpt>
      <trkpt lat="0" lon="0">
        <time>2021-02-28T09:31:42.428000+00:00</time>
      </trkpt>
      <trkpt lat="0" lon="0">
        <time>2021-02-28T09:31:42.433000+00:00</time>
      </trkpt>
      <trkpt lat="0" lon="0">
        <time>2021-02-28T09:31:42.435000+00:00</time>
      </trkpt>
      <trkpt lat="47.32558" lon="-1.46153">
        <ele>105</ele>
        <time>2021-02-28T09:31:43.418000+00:00</time>
      </trkpt>
      <trkpt lat="0" lon="0">
        <time>2021-02-28T09:31:43.423000+00:00</time>
      </trkpt>
      <trkpt lat="0" lon="0">
        <time>2021-02-28T09:31:43.427000+00:00</time>
      </trkpt>
      <trkpt lat="0" lon="0">
        <time>2021-02-28T09:31:43.429000+00:00</time>
      </trkpt>
      <trkpt lat="47.32557" lon="-1.46156">
        <ele>105</ele>
        <time>2021-02-28T09:31:44.428000+00:00</time>
      </trkpt>
      <trkpt lat="0" lon="0">
        <time>2021-02-28T09:31:44.439000+00:00</time>
      </trkpt>
      <trkpt lat="0" lon="0">
        <time>2021-02-28T09:31:44.441000+00:00</time>
      </trkpt>
      <trkpt lat="0" lon="0">
        <time>2021-02-28T09:31:44.443000+00:00</time>
      </trkpt>
      <trkpt lat="47.32557" lon="-1.46158">
        <ele>105</ele>
        <time>2021-02-28T09:31:45.396000+00:00</time>
      </trkpt>
      <trkpt lat="0" lon="0">
        <time>2021-02-28T09:31:45.402000+00:00</time>
      </trkpt>
      <trkpt lat="0" lon="0">
        <time>2021-02-28T09:31:45.406000+00:00</time>
      </trkpt>
      <trkpt lat="0" lon="0">
        <time>2021-02-28T09:31:45.408000+00:00</time>
      </trkpt>
      <trkpt lat="47.32556" lon="-1.46159">
        <ele>105</ele>
        <time>2021-02-28T09:31:46.418000+00:00</time>
      </trkpt>
      <trkpt lat="0" lon="0">
        <time>2021-02-28T09:31:46.428000+00:00</time>
      </trkpt>
      <trkpt lat="0" lon="0">
        <time>2021-02-28T09:31:46.433000+00:00</time>
      </trkpt>
      <trkpt lat="0" lon="0">
        <time>2021-02-28T09:31:46.436000+00:00</time>
      </trkpt>
      <trkpt lat="47.32556" lon="-1.4616">
        <ele>105</ele>
        <time>2021-02-28T09:31:47.423000+00:00</time>
      </trkpt>
      <trkpt lat="0" lon="0">
        <time>2021-02-28T09:31:47.429000+00:00</time>
      </trkpt>
      <trkpt lat="0" lon="0">
        <time>2021-02-28T09:31:47.435000+00:00</time>
      </trkpt>
      <trkpt lat="0" lon="0">
        <time>2021-02-28T09:31:47.439000+00:00</time>
      </trkpt>
      <trkpt lat="47.32556" lon="-1.4616">
        <ele>105</ele>
        <time>2021-02-28T09:31:48.382000+00:00</time>
      </trkpt>
      <trkpt lat="0" lon="0">
        <time>2021-02-28T09:31:48.384000+00:00</time>
      </trkpt>
      <trkpt lat="0" lon="0">
        <time>2021-02-28T09:31:48.387000+00:00</time>
      </trkpt>
      <trkpt lat="0" lon="0">
        <time>2021-02-28T09:31:48.388000+00:00</time>
      </trkpt>
      <trkpt lat="47.32556" lon="-1.46159">
        <ele>105</ele>
        <time>2021-02-28T09:31:49.429000+00:00</time>
      </trkpt>
      <trkpt lat="0" lon="0">
        <time>2021-02-28T09:31:49.440000+00:00</time>
      </trkpt>
      <trkpt lat="0" lon="0">
        <time>2021-02-28T09:31:49.444000+00:00</time>
      </trkpt>
      <trkpt lat="0" lon="0">
        <time>2021-02-28T09:31:49.446000+00:00</time>
      </trkpt>
      <trkpt lat="47.32556" lon="-1.46159">
        <ele>105</ele>
        <time>2021-02-28T09:31:50.418000+00:00</time>
      </trkpt>
      <trkpt lat="0" lon="0">
        <time>2021-02-28T09:31:50.423000+00:00</time>
      </trkpt>
      <trkpt lat="0" lon="0">
        <time>2021-02-28T09:31:50.427000+00:00</time>
      </trkpt>
      <trkpt lat="0" lon="0">
        <time>2021-02-28T09:31:50.429000+00:00</time>
      </trkpt>
      <trkpt lat="47.32557" lon="-1.46158">
        <ele>105</ele>
        <time>2021-02-28T09:31:51.409000+00:00</time>
      </trkpt>
      <trkpt lat="0" lon="0">
        <time>2021-02-28T09:31:51.413000+00:00</time>
      </trkpt>
      <trkpt lat="0" lon="0">
        <time>2021-02-28T09:31:51.419000+00:00</time>
      </trkpt>
      <trkpt lat="0" lon="0">
        <time>2021-02-28T09:31:51.422000+00:00</time>
      </trkpt>
      <trkpt lat="47.32557" lon="-1.46157">
        <ele>105</ele>
        <time>2021-02-28T09:31:52.428000+00:00</time>
      </trkpt>
      <trkpt lat="0" lon="0">
        <time>2021-02-28T09:31:52.440000+00:00</time>
      </trkpt>
      <trkpt lat="0" lon="0">
        <time>2021-02-28T09:31:52.444000+00:00</time>
      </trkpt>
      <trkpt lat="0" lon="0">
        <time>2021-02-28T09:31:52.447000+00:00</time>
      </trkpt>
      <trkpt lat="47.32557" lon="-1.46156">
        <ele>105</ele>
        <time>2021-02-28T09:31:53.400000+00:00</time>
      </trkpt>
      <trkpt lat="0" lon="0">
        <time>2021-02-28T09:31:53.408000+00:00</time>
      </trkpt>
      <trkpt lat="0" lon="0">
        <time>2021-02-28T09:31:53.415000+00:00</time>
      </trkpt>
      <trkpt lat="0" lon="0">
        <time>2021-02-28T09:31:53.417000+00:00</time>
      </trkpt>
      <trkpt lat="47.32557" lon="-1.46155">
        <ele>105</ele>
        <time>2021-02-28T09:31:54.416000+00:00</time>
      </trkpt>
      <trkpt lat="0" lon="0">
        <time>2021-02-28T09:31:54.426000+00:00</time>
      </trkpt>
      <trkpt lat="0" lon="0">
        <time>2021-02-28T09:31:54.432000+00:00</time>
      </trkpt>
      <trkpt lat="0" lon="0">
        <time>2021-02-28T09:31:54.434000+00:00</time>
      </trkpt>
      <trkpt lat="47.32557" lon="-1.46154">
        <ele>105</ele>
        <time>2021-02-28T09:31:55.415000+00:00</time>
      </trkpt>
      <trkpt lat="0" lon="0">
        <time>2021-02-28T09:31:55.420000+00:00</time>
      </trkpt>
      <trkpt lat="0" lon="0">
        <time>2021-02-28T09:31:55.424000+00:00</time>
      </trkpt>
      <trkpt lat="0" lon="0">
        <time>2021-02-28T09:31:55.427000+00:00</time>
      </trkpt>
      <trkpt lat="47.32558" lon="-1.46153">
        <ele>105</ele>
        <time>2021-02-28T09:31:56.426000+00:00</time>
      </trkpt>
      <trkpt lat="0" lon="0">
        <time>2021-02-28T09:31:56.434000+00:00</time>
      </trkpt>
      <trkpt lat="0" lon="0">
        <time>2021-02-28T09:31:56.438000+00:00</time>
      </trkpt>
      <trkpt lat="0" lon="0">
        <time>2021-02-28T09:31:56.451000+00:00</time>
      </trkpt>
      <trkpt lat="47.32547" lon="-1.46174">
        <ele>101</ele>
        <time>2021-02-28T09:31:57.367000+00:00</time>
      </trkpt>
      <trkpt lat="0" lon="0">
        <time>2021-02-28T09:31:57.374000+00:00</time>
      </trkpt>
      <trkpt lat="0" lon="0">
        <time>2021-02-28T09:31:57.378000+00:00</time>
      </trkpt>
      <trkpt lat="0" lon="0">
        <time>2021-02-28T09:31:57.381000+00:00</time>
      </trkpt>
      <trkpt lat="47.32545" lon="-1.46175">
        <ele>102</ele>
        <time>2021-02-28T09:31:58.452000+00:00</time>
      </trkpt>
      <trkpt lat="0" lon="0">
        <time>2021-02-28T09:31:58.459000+00:00</time>
      </trkpt>
      <trkpt lat="0" lon="0">
        <time>2021-02-28T09:31:58.461000+00:00</time>
      </trkpt>
      <trkpt lat="0" lon="0">
        <time>2021-02-28T09:31:58.462000+00:00</time>
      </trkpt>
      <trkpt lat="47.32542" lon="-1.46177">
        <ele>102</ele>
        <time>2021-02-28T09:31:59.471000+00:00</time>
      </trkpt>
      <trkpt lat="0" lon="0">
        <time>2021-02-28T09:31:59.474000+00:00</time>
      </trkpt>
      <trkpt lat="0" lon="0">
        <time>2021-02-28T09:31:59.476000+00:00</time>
      </trkpt>
      <trkpt lat="0" lon="0">
        <time>2021-02-28T09:31:59.477000+00:00</time>
      </trkpt>
      <trkpt lat="47.32538" lon="-1.46179">
        <ele>102</ele>
        <time>2021-02-28T09:32:00.437000+00:00</time>
      </trkpt>
      <trkpt lat="0" lon="0">
        <time>2021-02-28T09:32:00.445000+00:00</time>
      </trkpt>
      <trkpt lat="0" lon="0">
        <time>2021-02-28T09:32:00.450000+00:00</time>
      </trkpt>
      <trkpt lat="0" lon="0">
        <time>2021-02-28T09:32:00.452000+00:00</time>
      </trkpt>
      <trkpt lat="47.32535" lon="-1.46181">
        <ele>103</ele>
        <time>2021-02-28T09:32:01.456000+00:00</time>
      </trkpt>
      <trkpt lat="0" lon="0">
        <time>2021-02-28T09:32:01.460000+00:00</time>
      </trkpt>
      <trkpt lat="0" lon="0">
        <time>2021-02-28T09:32:01.470000+00:00</time>
      </trkpt>
      <trkpt lat="0" lon="0">
        <time>2021-02-28T09:32:01.472000+00:00</time>
      </trkpt>
      <trkpt lat="47.3253" lon="-1.46183">
        <ele>103</ele>
        <time>2021-02-28T09:32:02.473000+00:00</time>
      </trkpt>
      <trkpt lat="0" lon="0">
        <time>2021-02-28T09:32:02.480000+00:00</time>
      </trkpt>
      <trkpt lat="0" lon="0">
        <time>2021-02-28T09:32:02.485000+00:00</time>
      </trkpt>
      <trkpt lat="0" lon="0">
        <time>2021-02-28T09:32:02.487000+00:00</time>
      </trkpt>
      <trkpt lat="47.32525" lon="-1.46185">
        <ele>103</ele>
        <time>2021-02-28T09:32:03.453000+00:00</time>
      </trkpt>
      <trkpt lat="0" lon="0">
        <time>2021-02-28T09:32:03.467000+00:00</time>
      </trkpt>
      <trkpt lat="0" lon="0">
        <time>2021-02-28T09:32:03.475000+00:00</time>
      </trkpt>
      <trkpt lat="0" lon="0">
        <time>2021-02-28T09:32:03.478000+00:00</time>
      </trkpt>
      <trkpt lat="47.3252" lon="-1.46187">
        <ele>102</ele>
        <time>2021-02-28T09:32:04.475000+00:00</time>
      </trkpt>
      <trkpt lat="0" lon="0">
        <time>2021-02-28T09:32:04.496000+00:00</time>
      </trkpt>
      <trkpt lat="0" lon="0">
        <time>2021-02-28T09:32:04.502000+00:00</time>
      </trkpt>
      <trkpt lat="0" lon="0">
        <time>2021-02-28T09:32:04.503000+00:00</time>
      </trkpt>
      <trkpt lat="47.32514" lon="-1.46188">
        <ele>102</ele>
        <time>2021-02-28T09:32:05.473000+00:00</time>
      </trkpt>
      <trkpt lat="0" lon="0">
        <time>2021-02-28T09:32:05.483000+00:00</time>
      </trkpt>
      <trkpt lat="0" lon="0">
        <time>2021-02-28T09:32:05.489000+00:00</time>
      </trkpt>
      <trkpt lat="0" lon="0">
        <time>2021-02-28T09:32:05.491000+00:00</time>
      </trkpt>
      <trkpt lat="47.32508" lon="-1.4619">
        <ele>103</ele>
        <time>2021-02-28T09:32:06.373000+00:00</time>
      </trkpt>
      <trkpt lat="0" lon="0">
        <time>2021-02-28T09:32:06.383000+00:00</time>
      </trkpt>
      <trkpt lat="0" lon="0">
        <time>2021-02-28T09:32:06.387000+00:00</time>
      </trkpt>
      <trkpt lat="0" lon="0">
        <time>2021-02-28T09:32:06.390000+00:00</time>
      </trkpt>
      <trkpt lat="47.32502" lon="-1.46191">
        <ele>104</ele>
        <time>2021-02-28T09:32:07.461000+00:00</time>
      </trkpt>
      <trkpt lat="0" lon="0">
        <time>2021-02-28T09:32:07.471000+00:00</time>
      </trkpt>
      <trkpt lat="0" lon="0">
        <time>2021-02-28T09:32:07.482000+00:00</time>
      </trkpt>
      <trkpt lat="0" lon="0">
        <time>2021-02-28T09:32:07.485000+00:00</time>
      </trkpt>
      <trkpt lat="47.32496" lon="-1.46192">
        <ele>104</ele>
        <time>2021-02-28T09:32:08.424000+00:00</time>
      </trkpt>
      <trkpt lat="0" lon="0">
        <time>2021-02-28T09:32:08.429000+00:00</time>
      </trkpt>
      <trkpt lat="0" lon="0">
        <time>2021-02-28T09:32:08.433000+00:00</time>
      </trkpt>
      <trkpt lat="0" lon="0">
        <time>2021-02-28T09:32:08.436000+00:00</time>
      </trkpt>
      <trkpt lat="47.32489" lon="-1.46193">
        <ele>104</ele>
        <time>2021-02-28T09:32:09.502000+00:00</time>
      </trkpt>
      <trkpt lat="0" lon="0">
        <time>2021-02-28T09:32:09.503000+00:00</time>
      </trkpt>
      <trkpt lat="0" lon="0">
        <time>2021-02-28T09:32:09.504000+00:00</time>
      </trkpt>
      <trkpt lat="47.32482" lon="-1.46194">
        <ele>104</ele>
        <time>2021-02-28T09:32:10.454000+00:00</time>
      </trkpt>
      <trkpt lat="0" lon="0">
        <time>2021-02-28T09:32:10.465000+00:00</time>
      </trkpt>
      <trkpt lat="0" lon="0">
        <time>2021-02-28T09:32:10.469000+00:00</time>
      </trkpt>
      <trkpt lat="0" lon="0">
        <time>2021-02-28T09:32:10.471000+00:00</time>
      </trkpt>
      <trkpt lat="47.32475" lon="-1.46195">
        <ele>105</ele>
        <time>2021-02-28T09:32:11.474000+00:00</time>
      </trkpt>
      <trkpt lat="0" lon="0">
        <time>2021-02-28T09:32:11.484000+00:00</time>
      </trkpt>
      <trkpt lat="0" lon="0">
        <time>2021-02-28T09:32:11.491000+00:00</time>
      </trkpt>
      <trkpt lat="0" lon="0">
        <time>2021-02-28T09:32:11.494000+00:00</time>
      </trkpt>
      <trkpt lat="47.32467" lon="-1.46195">
        <ele>106</ele>
        <time>2021-02-28T09:32:12.436000+00:00</time>
      </trkpt>
      <trkpt lat="0" lon="0">
        <time>2021-02-28T09:32:12.443000+00:00</time>
      </trkpt>
      <trkpt lat="0" lon="0">
        <time>2021-02-28T09:32:12.447000+00:00</time>
      </trkpt>
      <trkpt lat="0" lon="0">
        <time>2021-02-28T09:32:12.450000+00:00</time>
      </trkpt>
      <trkpt lat="47.32459" lon="-1.46195">
        <ele>106</ele>
        <time>2021-02-28T09:32:13.462000+00:00</time>
      </trkpt>
      <trkpt lat="0" lon="0">
        <time>2021-02-28T09:32:13.468000+00:00</time>
      </trkpt>
      <trkpt lat="0" lon="0">
        <time>2021-02-28T09:32:13.472000+00:00</time>
      </trkpt>
      <trkpt lat="0" lon="0">
        <time>2021-02-28T09:32:13.475000+00:00</time>
      </trkpt>
      <trkpt lat="47.3245" lon="-1.46195">
        <ele>107</ele>
        <time>2021-02-28T09:32:14.462000+00:00</time>
      </trkpt>
      <trkpt lat="0" lon="0">
        <time>2021-02-28T09:32:14.468000+00:00</time>
      </trkpt>
      <trkpt lat="0" lon="0">
        <time>2021-02-28T09:32:14.473000+00:00</time>
      </trkpt>
      <trkpt lat="0" lon="0">
        <time>2021-02-28T09:32:14.476000+00:00</time>
      </trkpt>
      <trkpt lat="47.32441" lon="-1.46195">
        <ele>107</ele>
        <time>2021-02-28T09:32:15.464000+00:00</time>
      </trkpt>
      <trkpt lat="0" lon="0">
        <time>2021-02-28T09:32:15.471000+00:00</time>
      </trkpt>
      <trkpt lat="0" lon="0">
        <time>2021-02-28T09:32:15.476000+00:00</time>
      </trkpt>
      <trkpt lat="0" lon="0">
        <time>2021-02-28T09:32:15.479000+00:00</time>
      </trkpt>
      <trkpt lat="47.32433" lon="-1.46195">
        <ele>107</ele>
        <time>2021-02-28T09:32:16.461000+00:00</time>
      </trkpt>
      <trkpt lat="0" lon="0">
        <time>2021-02-28T09:32:16.465000+00:00</time>
      </trkpt>
      <trkpt lat="0" lon="0">
        <time>2021-02-28T09:32:16.475000+00:00</time>
      </trkpt>
      <trkpt lat="0" lon="0">
        <time>2021-02-28T09:32:16.478000+00:00</time>
      </trkpt>
      <trkpt lat="47.32424" lon="-1.46195">
        <ele>107</ele>
        <time>2021-02-28T09:32:17.483000+00:00</time>
      </trkpt>
      <trkpt lat="0" lon="0">
        <time>2021-02-28T09:32:17.489000+00:00</time>
      </trkpt>
      <trkpt lat="0" lon="0">
        <time>2021-02-28T09:32:17.494000+00:00</time>
      </trkpt>
      <trkpt lat="0" lon="0">
        <time>2021-02-28T09:32:17.496000+00:00</time>
      </trkpt>
      <trkpt lat="47.32415" lon="-1.46195">
        <ele>107</ele>
        <time>2021-02-28T09:32:18.441000+00:00</time>
      </trkpt>
      <trkpt lat="0" lon="0">
        <time>2021-02-28T09:32:18.444000+00:00</time>
      </trkpt>
      <trkpt lat="0" lon="0">
        <time>2021-02-28T09:32:18.446000+00:00</time>
      </trkpt>
      <trkpt lat="0" lon="0">
        <time>2021-02-28T09:32:18.447000+00:00</time>
      </trkpt>
      <trkpt lat="47.32406" lon="-1.46194">
        <ele>107</ele>
        <time>2021-02-28T09:32:19.462000+00:00</time>
      </trkpt>
      <trkpt lat="0" lon="0">
        <time>2021-02-28T09:32:19.467000+00:00</time>
      </trkpt>
      <trkpt lat="0" lon="0">
        <time>2021-02-28T09:32:19.472000+00:00</time>
      </trkpt>
      <trkpt lat="0" lon="0">
        <time>2021-02-28T09:32:19.475000+00:00</time>
      </trkpt>
      <trkpt lat="47.32398" lon="-1.46194">
        <ele>107</ele>
        <time>2021-02-28T09:32:20.434000+00:00</time>
      </trkpt>
      <trkpt lat="0" lon="0">
        <time>2021-02-28T09:32:20.438000+00:00</time>
      </trkpt>
      <trkpt lat="0" lon="0">
        <time>2021-02-28T09:32:20.441000+00:00</time>
      </trkpt>
      <trkpt lat="0" lon="0">
        <time>2021-02-28T09:32:20.442000+00:00</time>
      </trkpt>
      <trkpt lat="47.3239" lon="-1.46193">
        <ele>107</ele>
        <time>2021-02-28T09:32:21.459000+00:00</time>
      </trkpt>
      <trkpt lat="0" lon="0">
        <time>2021-02-28T09:32:21.473000+00:00</time>
      </trkpt>
      <trkpt lat="0" lon="0">
        <time>2021-02-28T09:32:21.480000+00:00</time>
      </trkpt>
      <trkpt lat="0" lon="0">
        <time>2021-02-28T09:32:21.483000+00:00</time>
      </trkpt>
      <trkpt lat="47.32382" lon="-1.46193">
        <ele>107</ele>
        <time>2021-02-28T09:32:22.470000+00:00</time>
      </trkpt>
      <trkpt lat="0" lon="0">
        <time>2021-02-28T09:32:22.481000+00:00</time>
      </trkpt>
      <trkpt lat="0" lon="0">
        <time>2021-02-28T09:32:22.489000+00:00</time>
      </trkpt>
      <trkpt lat="0" lon="0">
        <time>2021-02-28T09:32:22.492000+00:00</time>
      </trkpt>
      <trkpt lat="47.32374" lon="-1.46192">
        <ele>106</ele>
        <time>2021-02-28T09:32:23.458000+00:00</time>
      </trkpt>
      <trkpt lat="0" lon="0">
        <time>2021-02-28T09:32:23.465000+00:00</time>
      </trkpt>
      <trkpt lat="0" lon="0">
        <time>2021-02-28T09:32:23.471000+00:00</time>
      </trkpt>
      <trkpt lat="0" lon="0">
        <time>2021-02-28T09:32:23.477000+00:00</time>
      </trkpt>
      <trkpt lat="47.32366" lon="-1.46191">
        <ele>107</ele>
        <time>2021-02-28T09:32:24.428000+00:00</time>
      </trkpt>
      <trkpt lat="0" lon="0">
        <time>2021-02-28T09:32:24.432000+00:00</time>
      </trkpt>
      <trkpt lat="0" lon="0">
        <time>2021-02-28T09:32:24.441000+00:00</time>
      </trkpt>
      <trkpt lat="0" lon="0">
        <time>2021-02-28T09:32:24.443000+00:00</time>
      </trkpt>
      <trkpt lat="47.32359" lon="-1.46191">
        <ele>107</ele>
        <time>2021-02-28T09:32:25.449000+00:00</time>
      </trkpt>
      <trkpt lat="0" lon="0">
        <time>2021-02-28T09:32:25.461000+00:00</time>
      </trkpt>
      <trkpt lat="0" lon="0">
        <time>2021-02-28T09:32:25.466000+00:00</time>
      </trkpt>
      <trkpt lat="0" lon="0">
        <time>2021-02-28T09:32:25.469000+00:00</time>
      </trkpt>
      <trkpt lat="47.32351" lon="-1.4619">
        <ele>107</ele>
        <time>2021-02-28T09:32:26.397000+00:00</time>
      </trkpt>
      <trkpt lat="0" lon="0">
        <time>2021-02-28T09:32:26.402000+00:00</time>
      </trkpt>
      <trkpt lat="0" lon="0">
        <time>2021-02-28T09:32:26.408000+00:00</time>
      </trkpt>
      <trkpt lat="0" lon="0">
        <time>2021-02-28T09:32:26.411000+00:00</time>
      </trkpt>
      <trkpt lat="47.32344" lon="-1.46189">
        <ele>107</ele>
        <time>2021-02-28T09:32:27.430000+00:00</time>
      </trkpt>
      <trkpt lat="0" lon="0">
        <time>2021-02-28T09:32:27.441000+00:00</time>
      </trkpt>
      <trkpt lat="0" lon="0">
        <time>2021-02-28T09:32:27.445000+00:00</time>
      </trkpt>
      <trkpt lat="0" lon="0">
        <time>2021-02-28T09:32:27.447000+00:00</time>
      </trkpt>
      <trkpt lat="47.32337" lon="-1.46189">
        <ele>107</ele>
        <time>2021-02-28T09:32:28.496000+00:00</time>
      </trkpt>
      <trkpt lat="0" lon="0">
        <time>2021-02-28T09:32:28.510000+00:00</time>
      </trkpt>
      <trkpt lat="0" lon="0">
        <time>2021-02-28T09:32:28.518000+00:00</time>
      </trkpt>
      <trkpt lat="0" lon="0">
        <time>2021-02-28T09:32:28.522000+00:00</time>
      </trkpt>
      <trkpt lat="47.3233" lon="-1.46188">
        <ele>107</ele>
        <time>2021-02-28T09:32:29.459000+00:00</time>
      </trkpt>
      <trkpt lat="0" lon="0">
        <time>2021-02-28T09:32:29.467000+00:00</time>
      </trkpt>
      <trkpt lat="0" lon="0">
        <time>2021-02-28T09:32:29.472000+00:00</time>
      </trkpt>
      <trkpt lat="0" lon="0">
        <time>2021-02-28T09:32:29.475000+00:00</time>
      </trkpt>
      <trkpt lat="47.32323" lon="-1.46187">
        <ele>106</ele>
        <time>2021-02-28T09:32:30.433000+00:00</time>
      </trkpt>
      <trkpt lat="0" lon="0">
        <time>2021-02-28T09:32:30.444000+00:00</time>
      </trkpt>
      <trkpt lat="0" lon="0">
        <time>2021-02-28T09:32:30.447000+00:00</time>
      </trkpt>
      <trkpt lat="0" lon="0">
        <time>2021-02-28T09:32:30.449000+00:00</time>
      </trkpt>
      <trkpt lat="47.32317" lon="-1.46186">
        <ele>106</ele>
        <time>2021-02-28T09:32:31.450000+00:00</time>
      </trkpt>
      <trkpt lat="0" lon="0">
        <time>2021-02-28T09:32:31.459000+00:00</time>
      </trkpt>
      <trkpt lat="0" lon="0">
        <time>2021-02-28T09:32:31.464000+00:00</time>
      </trkpt>
      <trkpt lat="0" lon="0">
        <time>2021-02-28T09:32:31.467000+00:00</time>
      </trkpt>
      <trkpt lat="47.3231" lon="-1.46186">
        <ele>106</ele>
        <time>2021-02-28T09:32:32.480000+00:00</time>
      </trkpt>
      <trkpt lat="0" lon="0">
        <time>2021-02-28T09:32:32.488000+00:00</time>
      </trkpt>
      <trkpt lat="0" lon="0">
        <time>2021-02-28T09:32:32.494000+00:00</time>
      </trkpt>
      <trkpt lat="0" lon="0">
        <time>2021-02-28T09:32:32.499000+00:00</time>
      </trkpt>
      <trkpt lat="47.32304" lon="-1.46185">
        <ele>105</ele>
        <time>2021-02-28T09:32:33.479000+00:00</time>
      </trkpt>
      <trkpt lat="0" lon="0">
        <time>2021-02-28T09:32:33.485000+00:00</time>
      </trkpt>
      <trkpt lat="0" lon="0">
        <time>2021-02-28T09:32:33.490000+00:00</time>
      </trkpt>
      <trkpt lat="0" lon="0">
        <time>2021-02-28T09:32:33.493000+00:00</time>
      </trkpt>
      <trkpt lat="47.32297" lon="-1.46185">
        <ele>105</ele>
        <time>2021-02-28T09:32:34.462000+00:00</time>
      </trkpt>
      <trkpt lat="0" lon="0">
        <time>2021-02-28T09:32:34.471000+00:00</time>
      </trkpt>
      <trkpt lat="0" lon="0">
        <time>2021-02-28T09:32:34.476000+00:00</time>
      </trkpt>
      <trkpt lat="0" lon="0">
        <time>2021-02-28T09:32:34.479000+00:00</time>
      </trkpt>
      <trkpt lat="47.32284" lon="-1.46183">
        <ele>106</ele>
        <time>2021-02-28T09:32:36.428000+00:00</time>
      </trkpt>
      <trkpt lat="0" lon="0">
        <time>2021-02-28T09:32:36.434000+00:00</time>
      </trkpt>
      <trkpt lat="0" lon="0">
        <time>2021-02-28T09:32:36.442000+00:00</time>
      </trkpt>
      <trkpt lat="0" lon="0">
        <time>2021-02-28T09:32:36.445000+00:00</time>
      </trkpt>
      <trkpt lat="47.32277" lon="-1.46182">
        <ele>106</ele>
        <time>2021-02-28T09:32:37.432000+00:00</time>
      </trkpt>
      <trkpt lat="0" lon="0">
        <time>2021-02-28T09:32:37.437000+00:00</time>
      </trkpt>
      <trkpt lat="0" lon="0">
        <time>2021-02-28T09:32:37.442000+00:00</time>
      </trkpt>
      <trkpt lat="0" lon="0">
        <time>2021-02-28T09:32:37.443000+00:00</time>
      </trkpt>
      <trkpt lat="47.32271" lon="-1.46181">
        <ele>106</ele>
        <time>2021-02-28T09:32:38.462000+00:00</time>
      </trkpt>
      <trkpt lat="0" lon="0">
        <time>2021-02-28T09:32:38.470000+00:00</time>
      </trkpt>
      <trkpt lat="0" lon="0">
        <time>2021-02-28T09:32:38.475000+00:00</time>
      </trkpt>
      <trkpt lat="0" lon="0">
        <time>2021-02-28T09:32:38.478000+00:00</time>
      </trkpt>
      <trkpt lat="47.32264" lon="-1.4618">
        <ele>106</ele>
        <time>2021-02-28T09:32:39.453000+00:00</time>
      </trkpt>
      <trkpt lat="0" lon="0">
        <time>2021-02-28T09:32:39.461000+00:00</time>
      </trkpt>
      <trkpt lat="0" lon="0">
        <time>2021-02-28T09:32:39.469000+00:00</time>
      </trkpt>
      <trkpt lat="0" lon="0">
        <time>2021-02-28T09:32:39.472000+00:00</time>
      </trkpt>
      <trkpt lat="47.32257" lon="-1.46179">
        <ele>106</ele>
        <time>2021-02-28T09:32:40.433000+00:00</time>
      </trkpt>
      <trkpt lat="0" lon="0">
        <time>2021-02-28T09:32:40.439000+00:00</time>
      </trkpt>
      <trkpt lat="0" lon="0">
        <time>2021-02-28T09:32:40.443000+00:00</time>
      </trkpt>
      <trkpt lat="0" lon="0">
        <time>2021-02-28T09:32:40.445000+00:00</time>
      </trkpt>
      <trkpt lat="47.3225" lon="-1.46178">
        <ele>105</ele>
        <time>2021-02-28T09:32:41.478000+00:00</time>
      </trkpt>
      <trkpt lat="0" lon="0">
        <time>2021-02-28T09:32:41.488000+00:00</time>
      </trkpt>
      <trkpt lat="0" lon="0">
        <time>2021-02-28T09:32:41.493000+00:00</time>
      </trkpt>
      <trkpt lat="0" lon="0">
        <time>2021-02-28T09:32:41.495000+00:00</time>
      </trkpt>
      <trkpt lat="47.32243" lon="-1.46178">
        <ele>105</ele>
        <time>2021-02-28T09:32:42.436000+00:00</time>
      </trkpt>
      <trkpt lat="0" lon="0">
        <time>2021-02-28T09:32:42.444000+00:00</time>
      </trkpt>
      <trkpt lat="0" lon="0">
        <time>2021-02-28T09:32:42.449000+00:00</time>
      </trkpt>
      <trkpt lat="0" lon="0">
        <time>2021-02-28T09:32:42.451000+00:00</time>
      </trkpt>
      <trkpt lat="47.32236" lon="-1.46177">
        <ele>105</ele>
        <time>2021-02-28T09:32:43.400000+00:00</time>
      </trkpt>
      <trkpt lat="0" lon="0">
        <time>2021-02-28T09:32:43.410000+00:00</time>
      </trkpt>
      <trkpt lat="0" lon="0">
        <time>2021-02-28T09:32:43.414000+00:00</time>
      </trkpt>
      <trkpt lat="0" lon="0">
        <time>2021-02-28T09:32:43.415000+00:00</time>
      </trkpt>
      <trkpt lat="47.32229" lon="-1.46176">
        <ele>105</ele>
        <time>2021-02-28T09:32:44.473000+00:00</time>
      </trkpt>
      <trkpt lat="0" lon="0">
        <time>2021-02-28T09:32:44.487000+00:00</time>
      </trkpt>
      <trkpt lat="0" lon="0">
        <time>2021-02-28T09:32:44.493000+00:00</time>
      </trkpt>
      <trkpt lat="0" lon="0">
        <time>2021-02-28T09:32:44.496000+00:00</time>
      </trkpt>
      <trkpt lat="47.32222" lon="-1.46176">
        <ele>105</ele>
        <time>2021-02-28T09:32:45.458000+00:00</time>
      </trkpt>
      <trkpt lat="0" lon="0">
        <time>2021-02-28T09:32:45.469000+00:00</time>
      </trkpt>
      <trkpt lat="0" lon="0">
        <time>2021-02-28T09:32:45.474000+00:00</time>
      </trkpt>
      <trkpt lat="0" lon="0">
        <time>2021-02-28T09:32:45.476000+00:00</time>
      </trkpt>
      <trkpt lat="47.32215" lon="-1.46175">
        <ele>104</ele>
        <time>2021-02-28T09:32:46.471000+00:00</time>
      </trkpt>
      <trkpt lat="0" lon="0">
        <time>2021-02-28T09:32:46.480000+00:00</time>
      </trkpt>
      <trkpt lat="0" lon="0">
        <time>2021-02-28T09:32:46.484000+00:00</time>
      </trkpt>
      <trkpt lat="0" lon="0">
        <time>2021-02-28T09:32:46.486000+00:00</time>
      </trkpt>
      <trkpt lat="47.32208" lon="-1.46175">
        <ele>104</ele>
        <time>2021-02-28T09:32:47.464000+00:00</time>
      </trkpt>
      <trkpt lat="0" lon="0">
        <time>2021-02-28T09:32:47.476000+00:00</time>
      </trkpt>
      <trkpt lat="0" lon="0">
        <time>2021-02-28T09:32:47.480000+00:00</time>
      </trkpt>
      <trkpt lat="0" lon="0">
        <time>2021-02-28T09:32:47.483000+00:00</time>
      </trkpt>
      <trkpt lat="47.32201" lon="-1.46174">
        <ele>104</ele>
        <time>2021-02-28T09:32:48.457000+00:00</time>
      </trkpt>
      <trkpt lat="0" lon="0">
        <time>2021-02-28T09:32:48.464000+00:00</time>
      </trkpt>
      <trkpt lat="0" lon="0">
        <time>2021-02-28T09:32:48.470000+00:00</time>
      </trkpt>
      <trkpt lat="0" lon="0">
        <time>2021-02-28T09:32:48.473000+00:00</time>
      </trkpt>
      <trkpt lat="47.32194" lon="-1.46173">
        <ele>105</ele>
        <time>2021-02-28T09:32:49.429000+00:00</time>
      </trkpt>
      <trkpt lat="0" lon="0">
        <time>2021-02-28T09:32:49.434000+00:00</time>
      </trkpt>
      <trkpt lat="0" lon="0">
        <time>2021-02-28T09:32:49.438000+00:00</time>
      </trkpt>
      <trkpt lat="0" lon="0">
        <time>2021-02-28T09:32:49.441000+00:00</time>
      </trkpt>
      <trkpt lat="47.32186" lon="-1.46173">
        <ele>105</ele>
        <time>2021-02-28T09:32:50.489000+00:00</time>
      </trkpt>
      <trkpt lat="0" lon="0">
        <time>2021-02-28T09:32:50.500000+00:00</time>
      </trkpt>
      <trkpt lat="0" lon="0">
        <time>2021-02-28T09:32:50.506000+00:00</time>
      </trkpt>
      <trkpt lat="0" lon="0">
        <time>2021-02-28T09:32:50.508000+00:00</time>
      </trkpt>
      <trkpt lat="47.32179" lon="-1.46172">
        <ele>104</ele>
        <time>2021-02-28T09:32:51.459000+00:00</time>
      </trkpt>
      <trkpt lat="0" lon="0">
        <time>2021-02-28T09:32:51.468000+00:00</time>
      </trkpt>
      <trkpt lat="0" lon="0">
        <time>2021-02-28T09:32:51.473000+00:00</time>
      </trkpt>
      <trkpt lat="0" lon="0">
        <time>2021-02-28T09:32:51.476000+00:00</time>
      </trkpt>
      <trkpt lat="47.32172" lon="-1.46172">
        <ele>104</ele>
        <time>2021-02-28T09:32:52.448000+00:00</time>
      </trkpt>
      <trkpt lat="0" lon="0">
        <time>2021-02-28T09:32:52.454000+00:00</time>
      </trkpt>
      <trkpt lat="0" lon="0">
        <time>2021-02-28T09:32:52.459000+00:00</time>
      </trkpt>
      <trkpt lat="0" lon="0">
        <time>2021-02-28T09:32:52.463000+00:00</time>
      </trkpt>
      <trkpt lat="47.32164" lon="-1.46171">
        <ele>104</ele>
        <time>2021-02-28T09:32:53.461000+00:00</time>
      </trkpt>
      <trkpt lat="0" lon="0">
        <time>2021-02-28T09:32:53.473000+00:00</time>
      </trkpt>
      <trkpt lat="0" lon="0">
        <time>2021-02-28T09:32:53.479000+00:00</time>
      </trkpt>
      <trkpt lat="0" lon="0">
        <time>2021-02-28T09:32:53.481000+00:00</time>
      </trkpt>
      <trkpt lat="47.32157" lon="-1.4617">
        <ele>103</ele>
        <time>2021-02-28T09:32:54.472000+00:00</time>
      </trkpt>
      <trkpt lat="0" lon="0">
        <time>2021-02-28T09:32:54.483000+00:00</time>
      </trkpt>
      <trkpt lat="0" lon="0">
        <time>2021-02-28T09:32:54.488000+00:00</time>
      </trkpt>
      <trkpt lat="0" lon="0">
        <time>2021-02-28T09:32:54.490000+00:00</time>
      </trkpt>
      <trkpt lat="47.3215" lon="-1.46169">
        <ele>103</ele>
        <time>2021-02-28T09:32:55.455000+00:00</time>
      </trkpt>
      <trkpt lat="0" lon="0">
        <time>2021-02-28T09:32:55.466000+00:00</time>
      </trkpt>
      <trkpt lat="0" lon="0">
        <time>2021-02-28T09:32:55.471000+00:00</time>
      </trkpt>
      <trkpt lat="0" lon="0">
        <time>2021-02-28T09:32:55.476000+00:00</time>
      </trkpt>
      <trkpt lat="47.32142" lon="-1.46167">
        <ele>103</ele>
        <time>2021-02-28T09:32:56.447000+00:00</time>
      </trkpt>
      <trkpt lat="0" lon="0">
        <time>2021-02-28T09:32:56.452000+00:00</time>
      </trkpt>
      <trkpt lat="0" lon="0">
        <time>2021-02-28T09:32:56.457000+00:00</time>
      </trkpt>
      <trkpt lat="0" lon="0">
        <time>2021-02-28T09:32:56.459000+00:00</time>
      </trkpt>
      <trkpt lat="47.32135" lon="-1.46166">
        <ele>102</ele>
        <time>2021-02-28T09:32:57.463000+00:00</time>
      </trkpt>
      <trkpt lat="0" lon="0">
        <time>2021-02-28T09:32:57.471000+00:00</time>
      </trkpt>
      <trkpt lat="0" lon="0">
        <time>2021-02-28T09:32:57.477000+00:00</time>
      </trkpt>
      <trkpt lat="0" lon="0">
        <time>2021-02-28T09:32:57.480000+00:00</time>
      </trkpt>
      <trkpt lat="47.32127" lon="-1.46164">
        <ele>102</ele>
        <time>2021-02-28T09:32:58.462000+00:00</time>
      </trkpt>
      <trkpt lat="0" lon="0">
        <time>2021-02-28T09:32:58.472000+00:00</time>
      </trkpt>
      <trkpt lat="0" lon="0">
        <time>2021-02-28T09:32:58.478000+00:00</time>
      </trkpt>
      <trkpt lat="0" lon="0">
        <time>2021-02-28T09:32:58.481000+00:00</time>
      </trkpt>
      <trkpt lat="47.3212" lon="-1.46163">
        <ele>102</ele>
        <time>2021-02-28T09:32:59.485000+00:00</time>
      </trkpt>
      <trkpt lat="0" lon="0">
        <time>2021-02-28T09:32:59.493000+00:00</time>
      </trkpt>
      <trkpt lat="0" lon="0">
        <time>2021-02-28T09:32:59.498000+00:00</time>
      </trkpt>
      <trkpt lat="0" lon="0">
        <time>2021-02-28T09:32:59.501000+00:00</time>
      </trkpt>
      <trkpt lat="47.32112" lon="-1.46161">
        <ele>102</ele>
        <time>2021-02-28T09:33:00.438000+00:00</time>
      </trkpt>
      <trkpt lat="0" lon="0">
        <time>2021-02-28T09:33:00.446000+00:00</time>
      </trkpt>
      <trkpt lat="0" lon="0">
        <time>2021-02-28T09:33:00.451000+00:00</time>
      </trkpt>
      <trkpt lat="0" lon="0">
        <time>2021-02-28T09:33:00.454000+00:00</time>
      </trkpt>
      <trkpt lat="47.32104" lon="-1.4616">
        <ele>102</ele>
        <time>2021-02-28T09:33:01.454000+00:00</time>
      </trkpt>
      <trkpt lat="0" lon="0">
        <time>2021-02-28T09:33:01.461000+00:00</time>
      </trkpt>
      <trkpt lat="0" lon="0">
        <time>2021-02-28T09:33:01.466000+00:00</time>
      </trkpt>
      <trkpt lat="0" lon="0">
        <time>2021-02-28T09:33:01.468000+00:00</time>
      </trkpt>
      <trkpt lat="47.32096" lon="-1.46159">
        <ele>101</ele>
        <time>2021-02-28T09:33:02.439000+00:00</time>
      </trkpt>
      <trkpt lat="0" lon="0">
        <time>2021-02-28T09:33:02.452000+00:00</time>
      </trkpt>
      <trkpt lat="0" lon="0">
        <time>2021-02-28T09:33:02.460000+00:00</time>
      </trkpt>
      <trkpt lat="0" lon="0">
        <time>2021-02-28T09:33:02.462000+00:00</time>
      </trkpt>
      <trkpt lat="47.32088" lon="-1.46159">
        <ele>101</ele>
        <time>2021-02-28T09:33:03.490000+00:00</time>
      </trkpt>
      <trkpt lat="0" lon="0">
        <time>2021-02-28T09:33:03.505000+00:00</time>
      </trkpt>
      <trkpt lat="0" lon="0">
        <time>2021-02-28T09:33:03.516000+00:00</time>
      </trkpt>
      <trkpt lat="0" lon="0">
        <time>2021-02-28T09:33:03.519000+00:00</time>
      </trkpt>
      <trkpt lat="47.3208" lon="-1.46158">
        <ele>101</ele>
        <time>2021-02-28T09:33:04.444000+00:00</time>
      </trkpt>
      <trkpt lat="0" lon="0">
        <time>2021-02-28T09:33:04.452000+00:00</time>
      </trkpt>
      <trkpt lat="0" lon="0">
        <time>2021-02-28T09:33:04.458000+00:00</time>
      </trkpt>
      <trkpt lat="0" lon="0">
        <time>2021-02-28T09:33:04.463000+00:00</time>
      </trkpt>
      <trkpt lat="47.32072" lon="-1.46158">
        <ele>100</ele>
        <time>2021-02-28T09:33:05.477000+00:00</time>
      </trkpt>
      <trkpt lat="0" lon="0">
        <time>2021-02-28T09:33:05.485000+00:00</time>
      </trkpt>
      <trkpt lat="0" lon="0">
        <time>2021-02-28T09:33:05.492000+00:00</time>
      </trkpt>
      <trkpt lat="0" lon="0">
        <time>2021-02-28T09:33:05.495000+00:00</time>
      </trkpt>
      <trkpt lat="47.32064" lon="-1.46158">
        <ele>100</ele>
        <time>2021-02-28T09:33:06.471000+00:00</time>
      </trkpt>
      <trkpt lat="0" lon="0">
        <time>2021-02-28T09:33:06.481000+00:00</time>
      </trkpt>
      <trkpt lat="0" lon="0">
        <time>2021-02-28T09:33:06.487000+00:00</time>
      </trkpt>
      <trkpt lat="0" lon="0">
        <time>2021-02-28T09:33:06.490000+00:00</time>
      </trkpt>
      <trkpt lat="47.32056" lon="-1.46158">
        <ele>100</ele>
        <time>2021-02-28T09:33:07.475000+00:00</time>
      </trkpt>
      <trkpt lat="0" lon="0">
        <time>2021-02-28T09:33:07.485000+00:00</time>
      </trkpt>
      <trkpt lat="0" lon="0">
        <time>2021-02-28T09:33:07.494000+00:00</time>
      </trkpt>
      <trkpt lat="0" lon="0">
        <time>2021-02-28T09:33:07.498000+00:00</time>
      </trkpt>
      <trkpt lat="47.32048" lon="-1.46158">
        <ele>99</ele>
        <time>2021-02-28T09:33:08.466000+00:00</time>
      </trkpt>
      <trkpt lat="0" lon="0">
        <time>2021-02-28T09:33:08.476000+00:00</time>
      </trkpt>
      <trkpt lat="0" lon="0">
        <time>2021-02-28T09:33:08.481000+00:00</time>
      </trkpt>
      <trkpt lat="0" lon="0">
        <time>2021-02-28T09:33:08.483000+00:00</time>
      </trkpt>
      <trkpt lat="47.32041" lon="-1.46158">
        <ele>99</ele>
        <time>2021-02-28T09:33:09.479000+00:00</time>
      </trkpt>
      <trkpt lat="0" lon="0">
        <time>2021-02-28T09:33:09.487000+00:00</time>
      </trkpt>
      <trkpt lat="0" lon="0">
        <time>2021-02-28T09:33:09.495000+00:00</time>
      </trkpt>
      <trkpt lat="0" lon="0">
        <time>2021-02-28T09:33:09.499000+00:00</time>
      </trkpt>
      <trkpt lat="47.32033" lon="-1.46158">
        <ele>98</ele>
        <time>2021-02-28T09:33:10.458000+00:00</time>
      </trkpt>
      <trkpt lat="0" lon="0">
        <time>2021-02-28T09:33:10.472000+00:00</time>
      </trkpt>
      <trkpt lat="0" lon="0">
        <time>2021-02-28T09:33:10.482000+00:00</time>
      </trkpt>
      <trkpt lat="0" lon="0">
        <time>2021-02-28T09:33:10.484000+00:00</time>
      </trkpt>
      <trkpt lat="47.32026" lon="-1.46159">
        <ele>98</ele>
        <time>2021-02-28T09:33:11.458000+00:00</time>
      </trkpt>
      <trkpt lat="0" lon="0">
        <time>2021-02-28T09:33:11.464000+00:00</time>
      </trkpt>
      <trkpt lat="0" lon="0">
        <time>2021-02-28T09:33:11.470000+00:00</time>
      </trkpt>
      <trkpt lat="0" lon="0">
        <time>2021-02-28T09:33:11.473000+00:00</time>
      </trkpt>
      <trkpt lat="47.32019" lon="-1.46159">
        <ele>99</ele>
        <time>2021-02-28T09:33:12.446000+00:00</time>
      </trkpt>
      <trkpt lat="0" lon="0">
        <time>2021-02-28T09:33:12.452000+00:00</time>
      </trkpt>
      <trkpt lat="0" lon="0">
        <time>2021-02-28T09:33:12.456000+00:00</time>
      </trkpt>
      <trkpt lat="0" lon="0">
        <time>2021-02-28T09:33:12.458000+00:00</time>
      </trkpt>
      <trkpt lat="47.32013" lon="-1.4616">
        <ele>99</ele>
        <time>2021-02-28T09:33:13.475000+00:00</time>
      </trkpt>
      <trkpt lat="0" lon="0">
        <time>2021-02-28T09:33:13.484000+00:00</time>
      </trkpt>
      <trkpt lat="0" lon="0">
        <time>2021-02-28T09:33:13.490000+00:00</time>
      </trkpt>
      <trkpt lat="0" lon="0">
        <time>2021-02-28T09:33:13.494000+00:00</time>
      </trkpt>
      <trkpt lat="47.32008" lon="-1.4616">
        <ele>99</ele>
        <time>2021-02-28T09:33:14.450000+00:00</time>
      </trkpt>
      <trkpt lat="0" lon="0">
        <time>2021-02-28T09:33:14.457000+00:00</time>
      </trkpt>
      <trkpt lat="0" lon="0">
        <time>2021-02-28T09:33:14.462000+00:00</time>
      </trkpt>
      <trkpt lat="0" lon="0">
        <time>2021-02-28T09:33:14.464000+00:00</time>
      </trkpt>
      <trkpt lat="47.32003" lon="-1.46161">
        <ele>98</ele>
        <time>2021-02-28T09:33:15.451000+00:00</time>
      </trkpt>
      <trkpt lat="0" lon="0">
        <time>2021-02-28T09:33:15.453000+00:00</time>
      </trkpt>
      <trkpt lat="0" lon="0">
        <time>2021-02-28T09:33:15.456000+00:00</time>
      </trkpt>
      <trkpt lat="0" lon="0">
        <time>2021-02-28T09:33:15.457000+00:00</time>
      </trkpt>
      <trkpt lat="47.31998" lon="-1.46161">
        <ele>98</ele>
        <time>2021-02-28T09:33:16.453000+00:00</time>
      </trkpt>
      <trkpt lat="0" lon="0">
        <time>2021-02-28T09:33:16.467000+00:00</time>
      </trkpt>
      <trkpt lat="0" lon="0">
        <time>2021-02-28T09:33:16.474000+00:00</time>
      </trkpt>
      <trkpt lat="0" lon="0">
        <time>2021-02-28T09:33:16.476000+00:00</time>
      </trkpt>
      <trkpt lat="47.31993" lon="-1.46162">
        <ele>98</ele>
        <time>2021-02-28T09:33:17.451000+00:00</time>
      </trkpt>
      <trkpt lat="0" lon="0">
        <time>2021-02-28T09:33:17.462000+00:00</time>
      </trkpt>
      <trkpt lat="0" lon="0">
        <time>2021-02-28T09:33:17.467000+00:00</time>
      </trkpt>
      <trkpt lat="0" lon="0">
        <time>2021-02-28T09:33:17.469000+00:00</time>
      </trkpt>
      <trkpt lat="47.31989" lon="-1.46162">
        <ele>98</ele>
        <time>2021-02-28T09:33:18.479000+00:00</time>
      </trkpt>
      <trkpt lat="0" lon="0">
        <time>2021-02-28T09:33:18.494000+00:00</time>
      </trkpt>
      <trkpt lat="0" lon="0">
        <time>2021-02-28T09:33:18.506000+00:00</time>
      </trkpt>
      <trkpt lat="0" lon="0">
        <time>2021-02-28T09:33:18.508000+00:00</time>
      </trkpt>
      <trkpt lat="47.31984" lon="-1.46163">
        <ele>97</ele>
        <time>2021-02-28T09:33:19.456000+00:00</time>
      </trkpt>
      <trkpt lat="0" lon="0">
        <time>2021-02-28T09:33:19.467000+00:00</time>
      </trkpt>
      <trkpt lat="0" lon="0">
        <time>2021-02-28T09:33:19.475000+00:00</time>
      </trkpt>
      <trkpt lat="0" lon="0">
        <time>2021-02-28T09:33:19.477000+00:00</time>
      </trkpt>
      <trkpt lat="47.3198" lon="-1.46164">
        <ele>97</ele>
        <time>2021-02-28T09:33:20.477000+00:00</time>
      </trkpt>
      <trkpt lat="0" lon="0">
        <time>2021-02-28T09:33:20.482000+00:00</time>
      </trkpt>
      <trkpt lat="0" lon="0">
        <time>2021-02-28T09:33:20.487000+00:00</time>
      </trkpt>
      <trkpt lat="0" lon="0">
        <time>2021-02-28T09:33:20.490000+00:00</time>
      </trkpt>
      <trkpt lat="47.31975" lon="-1.46165">
        <ele>97</ele>
        <time>2021-02-28T09:33:21.499000+00:00</time>
      </trkpt>
      <trkpt lat="0" lon="0">
        <time>2021-02-28T09:33:21.507000+00:00</time>
      </trkpt>
      <trkpt lat="0" lon="0">
        <time>2021-02-28T09:33:21.511000+00:00</time>
      </trkpt>
      <trkpt lat="0" lon="0">
        <time>2021-02-28T09:33:21.514000+00:00</time>
      </trkpt>
      <trkpt lat="47.31971" lon="-1.46166">
        <ele>97</ele>
        <time>2021-02-28T09:33:22.459000+00:00</time>
      </trkpt>
      <trkpt lat="0" lon="0">
        <time>2021-02-28T09:33:22.465000+00:00</time>
      </trkpt>
      <trkpt lat="0" lon="0">
        <time>2021-02-28T09:33:22.469000+00:00</time>
      </trkpt>
      <trkpt lat="0" lon="0">
        <time>2021-02-28T09:33:22.473000+00:00</time>
      </trkpt>
      <trkpt lat="47.31968" lon="-1.46166">
        <ele>97</ele>
        <time>2021-02-28T09:33:23.475000+00:00</time>
      </trkpt>
      <trkpt lat="0" lon="0">
        <time>2021-02-28T09:33:23.486000+00:00</time>
      </trkpt>
      <trkpt lat="0" lon="0">
        <time>2021-02-28T09:33:23.492000+00:00</time>
      </trkpt>
      <trkpt lat="0" lon="0">
        <time>2021-02-28T09:33:23.495000+00:00</time>
      </trkpt>
      <trkpt lat="47.31964" lon="-1.46168">
        <ele>96</ele>
        <time>2021-02-28T09:33:24.444000+00:00</time>
      </trkpt>
      <trkpt lat="0" lon="0">
        <time>2021-02-28T09:33:24.449000+00:00</time>
      </trkpt>
      <trkpt lat="0" lon="0">
        <time>2021-02-28T09:33:24.454000+00:00</time>
      </trkpt>
      <trkpt lat="0" lon="0">
        <time>2021-02-28T09:33:24.457000+00:00</time>
      </trkpt>
      <trkpt lat="47.31961" lon="-1.46169">
        <ele>96</ele>
        <time>2021-02-28T09:33:25.393000+00:00</time>
      </trkpt>
      <trkpt lat="0" lon="0">
        <time>2021-02-28T09:33:25.395000+00:00</time>
      </trkpt>
      <trkpt lat="0" lon="0">
        <time>2021-02-28T09:33:25.396000+00:00</time>
      </trkpt>
      <trkpt lat="0" lon="0">
        <time>2021-02-28T09:33:25.397000+00:00</time>
      </trkpt>
      <trkpt lat="47.31958" lon="-1.4617">
        <ele>96</ele>
        <time>2021-02-28T09:33:26.397000+00:00</time>
      </trkpt>
      <trkpt lat="0" lon="0">
        <time>2021-02-28T09:33:26.403000+00:00</time>
      </trkpt>
      <trkpt lat="0" lon="0">
        <time>2021-02-28T09:33:26.409000+00:00</time>
      </trkpt>
      <trkpt lat="0" lon="0">
        <time>2021-02-28T09:33:26.411000+00:00</time>
      </trkpt>
      <trkpt lat="47.31955" lon="-1.46171">
        <ele>95</ele>
        <time>2021-02-28T09:33:27.440000+00:00</time>
      </trkpt>
      <trkpt lat="0" lon="0">
        <time>2021-02-28T09:33:27.445000+00:00</time>
      </trkpt>
      <trkpt lat="0" lon="0">
        <time>2021-02-28T09:33:27.452000+00:00</time>
      </trkpt>
      <trkpt lat="0" lon="0">
        <time>2021-02-28T09:33:27.455000+00:00</time>
      </trkpt>
      <trkpt lat="47.31952" lon="-1.46172">
        <ele>95</ele>
        <time>2021-02-28T09:33:28.471000+00:00</time>
      </trkpt>
      <trkpt lat="0" lon="0">
        <time>2021-02-28T09:33:28.475000+00:00</time>
      </trkpt>
      <trkpt lat="0" lon="0">
        <time>2021-02-28T09:33:28.480000+00:00</time>
      </trkpt>
      <trkpt lat="0" lon="0">
        <time>2021-02-28T09:33:28.483000+00:00</time>
      </trkpt>
      <trkpt lat="47.31948" lon="-1.46173">
        <ele>94</ele>
        <time>2021-02-28T09:33:29.463000+00:00</time>
      </trkpt>
      <trkpt lat="0" lon="0">
        <time>2021-02-28T09:33:29.475000+00:00</time>
      </trkpt>
      <trkpt lat="0" lon="0">
        <time>2021-02-28T09:33:29.484000+00:00</time>
      </trkpt>
      <trkpt lat="0" lon="0">
        <time>2021-02-28T09:33:29.487000+00:00</time>
      </trkpt>
      <trkpt lat="47.31944" lon="-1.46174">
        <ele>93</ele>
        <time>2021-02-28T09:33:30.445000+00:00</time>
      </trkpt>
      <trkpt lat="0" lon="0">
        <time>2021-02-28T09:33:30.452000+00:00</time>
      </trkpt>
      <trkpt lat="0" lon="0">
        <time>2021-02-28T09:33:30.458000+00:00</time>
      </trkpt>
      <trkpt lat="0" lon="0">
        <time>2021-02-28T09:33:30.462000+00:00</time>
      </trkpt>
      <trkpt lat="47.31939" lon="-1.46175">
        <ele>92</ele>
        <time>2021-02-28T09:33:31.465000+00:00</time>
      </trkpt>
      <trkpt lat="0" lon="0">
        <time>2021-02-28T09:33:31.471000+00:00</time>
      </trkpt>
      <trkpt lat="0" lon="0">
        <time>2021-02-28T09:33:31.476000+00:00</time>
      </trkpt>
      <trkpt lat="0" lon="0">
        <time>2021-02-28T09:33:31.478000+00:00</time>
      </trkpt>
      <trkpt lat="47.31935" lon="-1.46175">
        <ele>92</ele>
        <time>2021-02-28T09:33:32.459000+00:00</time>
      </trkpt>
      <trkpt lat="0" lon="0">
        <time>2021-02-28T09:33:32.467000+00:00</time>
      </trkpt>
      <trkpt lat="0" lon="0">
        <time>2021-02-28T09:33:32.473000+00:00</time>
      </trkpt>
      <trkpt lat="0" lon="0">
        <time>2021-02-28T09:33:32.476000+00:00</time>
      </trkpt>
      <trkpt lat="47.31931" lon="-1.46176">
        <ele>92</ele>
        <time>2021-02-28T09:33:33.428000+00:00</time>
      </trkpt>
      <trkpt lat="0" lon="0">
        <time>2021-02-28T09:33:33.439000+00:00</time>
      </trkpt>
      <trkpt lat="0" lon="0">
        <time>2021-02-28T09:33:33.442000+00:00</time>
      </trkpt>
      <trkpt lat="0" lon="0">
        <time>2021-02-28T09:33:33.445000+00:00</time>
      </trkpt>
      <trkpt lat="47.31927" lon="-1.46177">
        <ele>92</ele>
        <time>2021-02-28T09:33:34.442000+00:00</time>
      </trkpt>
      <trkpt lat="0" lon="0">
        <time>2021-02-28T09:33:34.447000+00:00</time>
      </trkpt>
      <trkpt lat="0" lon="0">
        <time>2021-02-28T09:33:34.451000+00:00</time>
      </trkpt>
      <trkpt lat="0" lon="0">
        <time>2021-02-28T09:33:34.454000+00:00</time>
      </trkpt>
      <trkpt lat="47.31923" lon="-1.46178">
        <ele>91</ele>
        <time>2021-02-28T09:33:35.428000+00:00</time>
      </trkpt>
      <trkpt lat="0" lon="0">
        <time>2021-02-28T09:33:35.435000+00:00</time>
      </trkpt>
      <trkpt lat="0" lon="0">
        <time>2021-02-28T09:33:35.440000+00:00</time>
      </trkpt>
      <trkpt lat="0" lon="0">
        <time>2021-02-28T09:33:35.442000+00:00</time>
      </trkpt>
      <trkpt lat="47.31918" lon="-1.4618">
        <ele>90</ele>
        <time>2021-02-28T09:33:36.424000+00:00</time>
      </trkpt>
      <trkpt lat="0" lon="0">
        <time>2021-02-28T09:33:36.432000+00:00</time>
      </trkpt>
      <trkpt lat="0" lon="0">
        <time>2021-02-28T09:33:36.437000+00:00</time>
      </trkpt>
      <trkpt lat="0" lon="0">
        <time>2021-02-28T09:33:36.440000+00:00</time>
      </trkpt>
      <trkpt lat="47.31913" lon="-1.46181">
        <ele>90</ele>
        <time>2021-02-28T09:33:37.480000+00:00</time>
      </trkpt>
      <trkpt lat="0" lon="0">
        <time>2021-02-28T09:33:37.498000+00:00</time>
      </trkpt>
      <trkpt lat="0" lon="0">
        <time>2021-02-28T09:33:37.508000+00:00</time>
      </trkpt>
      <trkpt lat="0" lon="0">
        <time>2021-02-28T09:33:37.511000+00:00</time>
      </trkpt>
      <trkpt lat="47.31908" lon="-1.46183">
        <ele>90</ele>
        <time>2021-02-28T09:33:38.464000+00:00</time>
      </trkpt>
      <trkpt lat="0" lon="0">
        <time>2021-02-28T09:33:38.471000+00:00</time>
      </trkpt>
      <trkpt lat="0" lon="0">
        <time>2021-02-28T09:33:38.477000+00:00</time>
      </trkpt>
      <trkpt lat="0" lon="0">
        <time>2021-02-28T09:33:38.479000+00:00</time>
      </trkpt>
      <trkpt lat="47.31902" lon="-1.46185">
        <ele>89</ele>
        <time>2021-02-28T09:33:39.427000+00:00</time>
      </trkpt>
      <trkpt lat="0" lon="0">
        <time>2021-02-28T09:33:39.436000+00:00</time>
      </trkpt>
      <trkpt lat="0" lon="0">
        <time>2021-02-28T09:33:39.441000+00:00</time>
      </trkpt>
      <trkpt lat="0" lon="0">
        <time>2021-02-28T09:33:39.444000+00:00</time>
      </trkpt>
      <trkpt lat="47.31897" lon="-1.46187">
        <ele>89</ele>
        <time>2021-02-28T09:33:40.355000+00:00</time>
      </trkpt>
      <trkpt lat="0" lon="0">
        <time>2021-02-28T09:33:40.363000+00:00</time>
      </trkpt>
      <trkpt lat="0" lon="0">
        <time>2021-02-28T09:33:40.367000+00:00</time>
      </trkpt>
      <trkpt lat="0" lon="0">
        <time>2021-02-28T09:33:40.368000+00:00</time>
      </trkpt>
      <trkpt lat="47.31891" lon="-1.4619">
        <ele>89</ele>
        <time>2021-02-28T09:33:41.445000+00:00</time>
      </trkpt>
      <trkpt lat="0" lon="0">
        <time>2021-02-28T09:33:41.450000+00:00</time>
      </trkpt>
      <trkpt lat="0" lon="0">
        <time>2021-02-28T09:33:41.454000+00:00</time>
      </trkpt>
      <trkpt lat="0" lon="0">
        <time>2021-02-28T09:33:41.457000+00:00</time>
      </trkpt>
      <trkpt lat="47.31886" lon="-1.46193">
        <ele>89</ele>
        <time>2021-02-28T09:33:42.445000+00:00</time>
      </trkpt>
      <trkpt lat="0" lon="0">
        <time>2021-02-28T09:33:42.451000+00:00</time>
      </trkpt>
      <trkpt lat="0" lon="0">
        <time>2021-02-28T09:33:42.455000+00:00</time>
      </trkpt>
      <trkpt lat="0" lon="0">
        <time>2021-02-28T09:33:42.457000+00:00</time>
      </trkpt>
      <trkpt lat="47.3188" lon="-1.46195">
        <ele>88</ele>
        <time>2021-02-28T09:33:43.468000+00:00</time>
      </trkpt>
      <trkpt lat="0" lon="0">
        <time>2021-02-28T09:33:43.478000+00:00</time>
      </trkpt>
      <trkpt lat="0" lon="0">
        <time>2021-02-28T09:33:43.486000+00:00</time>
      </trkpt>
      <trkpt lat="0" lon="0">
        <time>2021-02-28T09:33:43.495000+00:00</time>
      </trkpt>
      <trkpt lat="47.31874" lon="-1.46198">
        <ele>88</ele>
        <time>2021-02-28T09:33:44.495000+00:00</time>
      </trkpt>
      <trkpt lat="0" lon="0">
        <time>2021-02-28T09:33:44.503000+00:00</time>
      </trkpt>
      <trkpt lat="0" lon="0">
        <time>2021-02-28T09:33:44.508000+00:00</time>
      </trkpt>
      <trkpt lat="0" lon="0">
        <time>2021-02-28T09:33:44.511000+00:00</time>
      </trkpt>
      <trkpt lat="47.31869" lon="-1.46202">
        <ele>88</ele>
        <time>2021-02-28T09:33:45.438000+00:00</time>
      </trkpt>
      <trkpt lat="0" lon="0">
        <time>2021-02-28T09:33:45.453000+00:00</time>
      </trkpt>
      <trkpt lat="0" lon="0">
        <time>2021-02-28T09:33:45.460000+00:00</time>
      </trkpt>
      <trkpt lat="0" lon="0">
        <time>2021-02-28T09:33:45.463000+00:00</time>
      </trkpt>
      <trkpt lat="47.31863" lon="-1.46205">
        <ele>88</ele>
        <time>2021-02-28T09:33:46.383000+00:00</time>
      </trkpt>
      <trkpt lat="0" lon="0">
        <time>2021-02-28T09:33:46.402000+00:00</time>
      </trkpt>
      <trkpt lat="0" lon="0">
        <time>2021-02-28T09:33:46.407000+00:00</time>
      </trkpt>
      <trkpt lat="0" lon="0">
        <time>2021-02-28T09:33:46.414000+00:00</time>
      </trkpt>
      <trkpt lat="47.31857" lon="-1.46208">
        <ele>88</ele>
        <time>2021-02-28T09:33:47.475000+00:00</time>
      </trkpt>
      <trkpt lat="0" lon="0">
        <time>2021-02-28T09:33:47.482000+00:00</time>
      </trkpt>
      <trkpt lat="0" lon="0">
        <time>2021-02-28T09:33:47.489000+00:00</time>
      </trkpt>
      <trkpt lat="0" lon="0">
        <time>2021-02-28T09:33:47.493000+00:00</time>
      </trkpt>
      <trkpt lat="47.31851" lon="-1.46212">
        <ele>88</ele>
        <time>2021-02-28T09:33:48.481000+00:00</time>
      </trkpt>
      <trkpt lat="0" lon="0">
        <time>2021-02-28T09:33:48.488000+00:00</time>
      </trkpt>
      <trkpt lat="0" lon="0">
        <time>2021-02-28T09:33:48.493000+00:00</time>
      </trkpt>
      <trkpt lat="0" lon="0">
        <time>2021-02-28T09:33:48.496000+00:00</time>
      </trkpt>
      <trkpt lat="47.31845" lon="-1.46215">
        <ele>88</ele>
        <time>2021-02-28T09:33:49.469000+00:00</time>
      </trkpt>
      <trkpt lat="0" lon="0">
        <time>2021-02-28T09:33:49.481000+00:00</time>
      </trkpt>
      <trkpt lat="0" lon="0">
        <time>2021-02-28T09:33:49.487000+00:00</time>
      </trkpt>
      <trkpt lat="0" lon="0">
        <time>2021-02-28T09:33:49.490000+00:00</time>
      </trkpt>
      <trkpt lat="47.31838" lon="-1.46219">
        <ele>88</ele>
        <time>2021-02-28T09:33:50.423000+00:00</time>
      </trkpt>
      <trkpt lat="0" lon="0">
        <time>2021-02-28T09:33:50.439000+00:00</time>
      </trkpt>
      <trkpt lat="0" lon="0">
        <time>2021-02-28T09:33:50.444000+00:00</time>
      </trkpt>
      <trkpt lat="0" lon="0">
        <time>2021-02-28T09:33:50.446000+00:00</time>
      </trkpt>
      <trkpt lat="47.31832" lon="-1.46222">
        <ele>88</ele>
        <time>2021-02-28T09:33:51.481000+00:00</time>
      </trkpt>
      <trkpt lat="0" lon="0">
        <time>2021-02-28T09:33:51.486000+00:00</time>
      </trkpt>
      <trkpt lat="0" lon="0">
        <time>2021-02-28T09:33:51.491000+00:00</time>
      </trkpt>
      <trkpt lat="0" lon="0">
        <time>2021-02-28T09:33:51.496000+00:00</time>
      </trkpt>
      <trkpt lat="47.31825" lon="-1.46226">
        <ele>88</ele>
        <time>2021-02-28T09:33:52.459000+00:00</time>
      </trkpt>
      <trkpt lat="0" lon="0">
        <time>2021-02-28T09:33:52.468000+00:00</time>
      </trkpt>
      <trkpt lat="0" lon="0">
        <time>2021-02-28T09:33:52.476000+00:00</time>
      </trkpt>
      <trkpt lat="0" lon="0">
        <time>2021-02-28T09:33:52.480000+00:00</time>
      </trkpt>
      <trkpt lat="47.31818" lon="-1.4623">
        <ele>88</ele>
        <time>2021-02-28T09:33:53.445000+00:00</time>
      </trkpt>
      <trkpt lat="0" lon="0">
        <time>2021-02-28T09:33:53.456000+00:00</time>
      </trkpt>
      <trkpt lat="0" lon="0">
        <time>2021-02-28T09:33:53.461000+00:00</time>
      </trkpt>
      <trkpt lat="0" lon="0">
        <time>2021-02-28T09:33:53.464000+00:00</time>
      </trkpt>
      <trkpt lat="47.31812" lon="-1.46234">
        <ele>88</ele>
        <time>2021-02-28T09:33:54.449000+00:00</time>
      </trkpt>
      <trkpt lat="0" lon="0">
        <time>2021-02-28T09:33:54.458000+00:00</time>
      </trkpt>
      <trkpt lat="0" lon="0">
        <time>2021-02-28T09:33:54.463000+00:00</time>
      </trkpt>
      <trkpt lat="0" lon="0">
        <time>2021-02-28T09:33:54.465000+00:00</time>
      </trkpt>
      <trkpt lat="47.31805" lon="-1.46238">
        <ele>88</ele>
        <time>2021-02-28T09:33:55.470000+00:00</time>
      </trkpt>
      <trkpt lat="0" lon="0">
        <time>2021-02-28T09:33:55.476000+00:00</time>
      </trkpt>
      <trkpt lat="0" lon="0">
        <time>2021-02-28T09:33:55.480000+00:00</time>
      </trkpt>
      <trkpt lat="0" lon="0">
        <time>2021-02-28T09:33:55.483000+00:00</time>
      </trkpt>
      <trkpt lat="47.31799" lon="-1.46242">
        <ele>88</ele>
        <time>2021-02-28T09:33:56.439000+00:00</time>
      </trkpt>
      <trkpt lat="0" lon="0">
        <time>2021-02-28T09:33:56.443000+00:00</time>
      </trkpt>
      <trkpt lat="0" lon="0">
        <time>2021-02-28T09:33:56.446000+00:00</time>
      </trkpt>
      <trkpt lat="0" lon="0">
        <time>2021-02-28T09:33:56.447000+00:00</time>
      </trkpt>
      <trkpt lat="47.31793" lon="-1.46246">
        <ele>87</ele>
        <time>2021-02-28T09:33:57.474000+00:00</time>
      </trkpt>
      <trkpt lat="0" lon="0">
        <time>2021-02-28T09:33:57.485000+00:00</time>
      </trkpt>
      <trkpt lat="0" lon="0">
        <time>2021-02-28T09:33:57.491000+00:00</time>
      </trkpt>
      <trkpt lat="0" lon="0">
        <time>2021-02-28T09:33:57.494000+00:00</time>
      </trkpt>
      <trkpt lat="47.31787" lon="-1.4625">
        <ele>87</ele>
        <time>2021-02-28T09:33:58.480000+00:00</time>
      </trkpt>
      <trkpt lat="0" lon="0">
        <time>2021-02-28T09:33:58.489000+00:00</time>
      </trkpt>
      <trkpt lat="0" lon="0">
        <time>2021-02-28T09:33:58.495000+00:00</time>
      </trkpt>
      <trkpt lat="0" lon="0">
        <time>2021-02-28T09:33:58.498000+00:00</time>
      </trkpt>
      <trkpt lat="47.31781" lon="-1.46255">
        <ele>87</ele>
        <time>2021-02-28T09:33:59.467000+00:00</time>
      </trkpt>
      <trkpt lat="0" lon="0">
        <time>2021-02-28T09:33:59.479000+00:00</time>
      </trkpt>
      <trkpt lat="0" lon="0">
        <time>2021-02-28T09:33:59.485000+00:00</time>
      </trkpt>
      <trkpt lat="0" lon="0">
        <time>2021-02-28T09:33:59.487000+00:00</time>
      </trkpt>
      <trkpt lat="47.31775" lon="-1.46258">
        <ele>87</ele>
        <time>2021-02-28T09:34:00.448000+00:00</time>
      </trkpt>
      <trkpt lat="0" lon="0">
        <time>2021-02-28T09:34:00.460000+00:00</time>
      </trkpt>
      <trkpt lat="0" lon="0">
        <time>2021-02-28T09:34:00.464000+00:00</time>
      </trkpt>
      <trkpt lat="0" lon="0">
        <time>2021-02-28T09:34:00.467000+00:00</time>
      </trkpt>
      <trkpt lat="47.31769" lon="-1.46262">
        <ele>87</ele>
        <time>2021-02-28T09:34:01.463000+00:00</time>
      </trkpt>
      <trkpt lat="0" lon="0">
        <time>2021-02-28T09:34:01.472000+00:00</time>
      </trkpt>
      <trkpt lat="0" lon="0">
        <time>2021-02-28T09:34:01.477000+00:00</time>
      </trkpt>
      <trkpt lat="0" lon="0">
        <time>2021-02-28T09:34:01.480000+00:00</time>
      </trkpt>
      <trkpt lat="47.31764" lon="-1.46266">
        <ele>87</ele>
        <time>2021-02-28T09:34:02.479000+00:00</time>
      </trkpt>
      <trkpt lat="0" lon="0">
        <time>2021-02-28T09:34:02.484000+00:00</time>
      </trkpt>
      <trkpt lat="0" lon="0">
        <time>2021-02-28T09:34:02.488000+00:00</time>
      </trkpt>
      <trkpt lat="0" lon="0">
        <time>2021-02-28T09:34:02.491000+00:00</time>
      </trkpt>
      <trkpt lat="47.31758" lon="-1.46269">
        <ele>87</ele>
        <time>2021-02-28T09:34:03.494000+00:00</time>
      </trkpt>
      <trkpt lat="0" lon="0">
        <time>2021-02-28T09:34:03.501000+00:00</time>
      </trkpt>
      <trkpt lat="0" lon="0">
        <time>2021-02-28T09:34:03.509000+00:00</time>
      </trkpt>
      <trkpt lat="0" lon="0">
        <time>2021-02-28T09:34:03.512000+00:00</time>
      </trkpt>
      <trkpt lat="47.31752" lon="-1.46273">
        <ele>87</ele>
        <time>2021-02-28T09:34:04.451000+00:00</time>
      </trkpt>
      <trkpt lat="0" lon="0">
        <time>2021-02-28T09:34:04.456000+00:00</time>
      </trkpt>
      <trkpt lat="0" lon="0">
        <time>2021-02-28T09:34:04.461000+00:00</time>
      </trkpt>
      <trkpt lat="0" lon="0">
        <time>2021-02-28T09:34:04.464000+00:00</time>
      </trkpt>
      <trkpt lat="47.31746" lon="-1.46277">
        <ele>87</ele>
        <time>2021-02-28T09:34:05.469000+00:00</time>
      </trkpt>
      <trkpt lat="0" lon="0">
        <time>2021-02-28T09:34:05.478000+00:00</time>
      </trkpt>
      <trkpt lat="0" lon="0">
        <time>2021-02-28T09:34:05.485000+00:00</time>
      </trkpt>
      <trkpt lat="0" lon="0">
        <time>2021-02-28T09:34:05.487000+00:00</time>
      </trkpt>
      <trkpt lat="47.31741" lon="-1.46281">
        <ele>87</ele>
        <time>2021-02-28T09:34:06.466000+00:00</time>
      </trkpt>
      <trkpt lat="0" lon="0">
        <time>2021-02-28T09:34:06.477000+00:00</time>
      </trkpt>
      <trkpt lat="0" lon="0">
        <time>2021-02-28T09:34:06.485000+00:00</time>
      </trkpt>
      <trkpt lat="0" lon="0">
        <time>2021-02-28T09:34:06.488000+00:00</time>
      </trkpt>
      <trkpt lat="47.31735" lon="-1.46285">
        <ele>88</ele>
        <time>2021-02-28T09:34:07.474000+00:00</time>
      </trkpt>
      <trkpt lat="0" lon="0">
        <time>2021-02-28T09:34:07.479000+00:00</time>
      </trkpt>
      <trkpt lat="0" lon="0">
        <time>2021-02-28T09:34:07.485000+00:00</time>
      </trkpt>
      <trkpt lat="0" lon="0">
        <time>2021-02-28T09:34:07.487000+00:00</time>
      </trkpt>
      <trkpt lat="47.3173" lon="-1.4629">
        <ele>88</ele>
        <time>2021-02-28T09:34:08.446000+00:00</time>
      </trkpt>
      <trkpt lat="0" lon="0">
        <time>2021-02-28T09:34:08.450000+00:00</time>
      </trkpt>
      <trkpt lat="0" lon="0">
        <time>2021-02-28T09:34:08.453000+00:00</time>
      </trkpt>
      <trkpt lat="0" lon="0">
        <time>2021-02-28T09:34:08.454000+00:00</time>
      </trkpt>
      <trkpt lat="47.31724" lon="-1.46295">
        <ele>87</ele>
        <time>2021-02-28T09:34:09.443000+00:00</time>
      </trkpt>
      <trkpt lat="0" lon="0">
        <time>2021-02-28T09:34:09.453000+00:00</time>
      </trkpt>
      <trkpt lat="0" lon="0">
        <time>2021-02-28T09:34:09.458000+00:00</time>
      </trkpt>
      <trkpt lat="0" lon="0">
        <time>2021-02-28T09:34:09.461000+00:00</time>
      </trkpt>
      <trkpt lat="47.31719" lon="-1.463">
        <ele>87</ele>
        <time>2021-02-28T09:34:10.454000+00:00</time>
      </trkpt>
      <trkpt lat="0" lon="0">
        <time>2021-02-28T09:34:10.461000+00:00</time>
      </trkpt>
      <trkpt lat="0" lon="0">
        <time>2021-02-28T09:34:10.465000+00:00</time>
      </trkpt>
      <trkpt lat="0" lon="0">
        <time>2021-02-28T09:34:10.467000+00:00</time>
      </trkpt>
      <trkpt lat="47.31713" lon="-1.46306">
        <ele>87</ele>
        <time>2021-02-28T09:34:11.473000+00:00</time>
      </trkpt>
      <trkpt lat="0" lon="0">
        <time>2021-02-28T09:34:11.482000+00:00</time>
      </trkpt>
      <trkpt lat="0" lon="0">
        <time>2021-02-28T09:34:11.487000+00:00</time>
      </trkpt>
      <trkpt lat="0" lon="0">
        <time>2021-02-28T09:34:11.490000+00:00</time>
      </trkpt>
      <trkpt lat="47.31708" lon="-1.46313">
        <ele>87</ele>
        <time>2021-02-28T09:34:12.481000+00:00</time>
      </trkpt>
      <trkpt lat="0" lon="0">
        <time>2021-02-28T09:34:12.487000+00:00</time>
      </trkpt>
      <trkpt lat="0" lon="0">
        <time>2021-02-28T09:34:12.493000+00:00</time>
      </trkpt>
      <trkpt lat="0" lon="0">
        <time>2021-02-28T09:34:12.496000+00:00</time>
      </trkpt>
      <trkpt lat="47.31702" lon="-1.4632">
        <ele>87</ele>
        <time>2021-02-28T09:34:13.364000+00:00</time>
      </trkpt>
      <trkpt lat="0" lon="0">
        <time>2021-02-28T09:34:13.370000+00:00</time>
      </trkpt>
      <trkpt lat="0" lon="0">
        <time>2021-02-28T09:34:13.372000+00:00</time>
      </trkpt>
      <trkpt lat="0" lon="0">
        <time>2021-02-28T09:34:13.373000+00:00</time>
      </trkpt>
      <trkpt lat="47.31696" lon="-1.46327">
        <ele>87</ele>
        <time>2021-02-28T09:34:14.425000+00:00</time>
      </trkpt>
      <trkpt lat="0" lon="0">
        <time>2021-02-28T09:34:14.431000+00:00</time>
      </trkpt>
      <trkpt lat="0" lon="0">
        <time>2021-02-28T09:34:14.433000+00:00</time>
      </trkpt>
      <trkpt lat="0" lon="0">
        <time>2021-02-28T09:34:14.434000+00:00</time>
      </trkpt>
      <trkpt lat="47.3169" lon="-1.46333">
        <ele>87</ele>
        <time>2021-02-28T09:34:15.469000+00:00</time>
      </trkpt>
      <trkpt lat="0" lon="0">
        <time>2021-02-28T09:34:15.475000+00:00</time>
      </trkpt>
      <trkpt lat="0" lon="0">
        <time>2021-02-28T09:34:15.479000+00:00</time>
      </trkpt>
      <trkpt lat="0" lon="0">
        <time>2021-02-28T09:34:15.482000+00:00</time>
      </trkpt>
      <trkpt lat="47.31683" lon="-1.4634">
        <ele>86</ele>
        <time>2021-02-28T09:34:16.456000+00:00</time>
      </trkpt>
      <trkpt lat="0" lon="0">
        <time>2021-02-28T09:34:16.463000+00:00</time>
      </trkpt>
      <trkpt lat="0" lon="0">
        <time>2021-02-28T09:34:16.467000+00:00</time>
      </trkpt>
      <trkpt lat="0" lon="0">
        <time>2021-02-28T09:34:16.470000+00:00</time>
      </trkpt>
      <trkpt lat="47.31677" lon="-1.46347">
        <ele>86</ele>
        <time>2021-02-28T09:34:17.453000+00:00</time>
      </trkpt>
      <trkpt lat="0" lon="0">
        <time>2021-02-28T09:34:17.460000+00:00</time>
      </trkpt>
      <trkpt lat="0" lon="0">
        <time>2021-02-28T09:34:17.465000+00:00</time>
      </trkpt>
      <trkpt lat="0" lon="0">
        <time>2021-02-28T09:34:17.469000+00:00</time>
      </trkpt>
      <trkpt lat="47.3167" lon="-1.46354">
        <ele>86</ele>
        <time>2021-02-28T09:34:18.459000+00:00</time>
      </trkpt>
      <trkpt lat="0" lon="0">
        <time>2021-02-28T09:34:18.467000+00:00</time>
      </trkpt>
      <trkpt lat="0" lon="0">
        <time>2021-02-28T09:34:18.474000+00:00</time>
      </trkpt>
      <trkpt lat="0" lon="0">
        <time>2021-02-28T09:34:18.477000+00:00</time>
      </trkpt>
      <trkpt lat="47.31664" lon="-1.46361">
        <ele>86</ele>
        <time>2021-02-28T09:34:19.457000+00:00</time>
      </trkpt>
      <trkpt lat="0" lon="0">
        <time>2021-02-28T09:34:19.462000+00:00</time>
      </trkpt>
      <trkpt lat="0" lon="0">
        <time>2021-02-28T09:34:19.467000+00:00</time>
      </trkpt>
      <trkpt lat="0" lon="0">
        <time>2021-02-28T09:34:19.469000+00:00</time>
      </trkpt>
      <trkpt lat="47.31657" lon="-1.46368">
        <ele>85</ele>
        <time>2021-02-28T09:34:20.397000+00:00</time>
      </trkpt>
      <trkpt lat="0" lon="0">
        <time>2021-02-28T09:34:20.402000+00:00</time>
      </trkpt>
      <trkpt lat="0" lon="0">
        <time>2021-02-28T09:34:20.407000+00:00</time>
      </trkpt>
      <trkpt lat="0" lon="0">
        <time>2021-02-28T09:34:20.410000+00:00</time>
      </trkpt>
      <trkpt lat="47.31651" lon="-1.46376">
        <ele>86</ele>
        <time>2021-02-28T09:34:21.471000+00:00</time>
      </trkpt>
      <trkpt lat="0" lon="0">
        <time>2021-02-28T09:34:21.487000+00:00</time>
      </trkpt>
      <trkpt lat="0" lon="0">
        <time>2021-02-28T09:34:21.492000+00:00</time>
      </trkpt>
      <trkpt lat="0" lon="0">
        <time>2021-02-28T09:34:21.495000+00:00</time>
      </trkpt>
      <trkpt lat="47.31645" lon="-1.46384">
        <ele>86</ele>
        <time>2021-02-28T09:34:22.459000+00:00</time>
      </trkpt>
      <trkpt lat="0" lon="0">
        <time>2021-02-28T09:34:22.466000+00:00</time>
      </trkpt>
      <trkpt lat="0" lon="0">
        <time>2021-02-28T09:34:22.471000+00:00</time>
      </trkpt>
      <trkpt lat="0" lon="0">
        <time>2021-02-28T09:34:22.475000+00:00</time>
      </trkpt>
      <trkpt lat="47.31638" lon="-1.46391">
        <ele>85</ele>
        <time>2021-02-28T09:34:23.484000+00:00</time>
      </trkpt>
      <trkpt lat="0" lon="0">
        <time>2021-02-28T09:34:23.492000+00:00</time>
      </trkpt>
      <trkpt lat="0" lon="0">
        <time>2021-02-28T09:34:23.498000+00:00</time>
      </trkpt>
      <trkpt lat="0" lon="0">
        <time>2021-02-28T09:34:23.502000+00:00</time>
      </trkpt>
      <trkpt lat="47.31632" lon="-1.46399">
        <ele>85</ele>
        <time>2021-02-28T09:34:24.461000+00:00</time>
      </trkpt>
      <trkpt lat="0" lon="0">
        <time>2021-02-28T09:34:24.466000+00:00</time>
      </trkpt>
      <trkpt lat="0" lon="0">
        <time>2021-02-28T09:34:24.471000+00:00</time>
      </trkpt>
      <trkpt lat="0" lon="0">
        <time>2021-02-28T09:34:24.473000+00:00</time>
      </trkpt>
      <trkpt lat="47.31626" lon="-1.46407">
        <ele>85</ele>
        <time>2021-02-28T09:34:25.445000+00:00</time>
      </trkpt>
      <trkpt lat="0" lon="0">
        <time>2021-02-28T09:34:25.456000+00:00</time>
      </trkpt>
      <trkpt lat="0" lon="0">
        <time>2021-02-28T09:34:25.467000+00:00</time>
      </trkpt>
      <trkpt lat="0" lon="0">
        <time>2021-02-28T09:34:25.471000+00:00</time>
      </trkpt>
      <trkpt lat="47.31621" lon="-1.46414">
        <ele>85</ele>
        <time>2021-02-28T09:34:26.456000+00:00</time>
      </trkpt>
      <trkpt lat="0" lon="0">
        <time>2021-02-28T09:34:26.468000+00:00</time>
      </trkpt>
      <trkpt lat="0" lon="0">
        <time>2021-02-28T09:34:26.474000+00:00</time>
      </trkpt>
      <trkpt lat="0" lon="0">
        <time>2021-02-28T09:34:26.477000+00:00</time>
      </trkpt>
      <trkpt lat="47.31615" lon="-1.46422">
        <ele>84</ele>
        <time>2021-02-28T09:34:27.445000+00:00</time>
      </trkpt>
      <trkpt lat="0" lon="0">
        <time>2021-02-28T09:34:27.452000+00:00</time>
      </trkpt>
      <trkpt lat="0" lon="0">
        <time>2021-02-28T09:34:27.457000+00:00</time>
      </trkpt>
      <trkpt lat="0" lon="0">
        <time>2021-02-28T09:34:27.460000+00:00</time>
      </trkpt>
      <trkpt lat="47.3161" lon="-1.4643">
        <ele>84</ele>
        <time>2021-02-28T09:34:28.463000+00:00</time>
      </trkpt>
      <trkpt lat="0" lon="0">
        <time>2021-02-28T09:34:28.469000+00:00</time>
      </trkpt>
      <trkpt lat="0" lon="0">
        <time>2021-02-28T09:34:28.475000+00:00</time>
      </trkpt>
      <trkpt lat="0" lon="0">
        <time>2021-02-28T09:34:28.478000+00:00</time>
      </trkpt>
      <trkpt lat="47.31604" lon="-1.46438">
        <ele>83</ele>
        <time>2021-02-28T09:34:29.457000+00:00</time>
      </trkpt>
      <trkpt lat="0" lon="0">
        <time>2021-02-28T09:34:29.465000+00:00</time>
      </trkpt>
      <trkpt lat="0" lon="0">
        <time>2021-02-28T09:34:29.474000+00:00</time>
      </trkpt>
      <trkpt lat="0" lon="0">
        <time>2021-02-28T09:34:29.477000+00:00</time>
      </trkpt>
      <trkpt lat="47.31599" lon="-1.46446">
        <ele>83</ele>
        <time>2021-02-28T09:34:30.452000+00:00</time>
      </trkpt>
      <trkpt lat="0" lon="0">
        <time>2021-02-28T09:34:30.460000+00:00</time>
      </trkpt>
      <trkpt lat="0" lon="0">
        <time>2021-02-28T09:34:30.468000+00:00</time>
      </trkpt>
      <trkpt lat="0" lon="0">
        <time>2021-02-28T09:34:30.470000+00:00</time>
      </trkpt>
      <trkpt lat="47.31594" lon="-1.46454">
        <ele>82</ele>
        <time>2021-02-28T09:34:31.451000+00:00</time>
      </trkpt>
      <trkpt lat="0" lon="0">
        <time>2021-02-28T09:34:31.462000+00:00</time>
      </trkpt>
      <trkpt lat="0" lon="0">
        <time>2021-02-28T09:34:31.467000+00:00</time>
      </trkpt>
      <trkpt lat="0" lon="0">
        <time>2021-02-28T09:34:31.470000+00:00</time>
      </trkpt>
      <trkpt lat="47.31589" lon="-1.46463">
        <ele>81</ele>
        <time>2021-02-28T09:34:32.479000+00:00</time>
      </trkpt>
      <trkpt lat="0" lon="0">
        <time>2021-02-28T09:34:32.491000+00:00</time>
      </trkpt>
      <trkpt lat="0" lon="0">
        <time>2021-02-28T09:34:32.501000+00:00</time>
      </trkpt>
      <trkpt lat="0" lon="0">
        <time>2021-02-28T09:34:32.504000+00:00</time>
      </trkpt>
      <trkpt lat="47.31584" lon="-1.46471">
        <ele>80</ele>
        <time>2021-02-28T09:34:33.447000+00:00</time>
      </trkpt>
      <trkpt lat="0" lon="0">
        <time>2021-02-28T09:34:33.453000+00:00</time>
      </trkpt>
      <trkpt lat="0" lon="0">
        <time>2021-02-28T09:34:33.460000+00:00</time>
      </trkpt>
      <trkpt lat="0" lon="0">
        <time>2021-02-28T09:34:33.463000+00:00</time>
      </trkpt>
      <trkpt lat="47.31579" lon="-1.4648">
        <ele>79</ele>
        <time>2021-02-28T09:34:34.455000+00:00</time>
      </trkpt>
      <trkpt lat="0" lon="0">
        <time>2021-02-28T09:34:34.459000+00:00</time>
      </trkpt>
      <trkpt lat="0" lon="0">
        <time>2021-02-28T09:34:34.463000+00:00</time>
      </trkpt>
      <trkpt lat="0" lon="0">
        <time>2021-02-28T09:34:34.466000+00:00</time>
      </trkpt>
      <trkpt lat="47.31574" lon="-1.46488">
        <ele>79</ele>
        <time>2021-02-28T09:34:35.450000+00:00</time>
      </trkpt>
      <trkpt lat="0" lon="0">
        <time>2021-02-28T09:34:35.454000+00:00</time>
      </trkpt>
      <trkpt lat="0" lon="0">
        <time>2021-02-28T09:34:35.459000+00:00</time>
      </trkpt>
      <trkpt lat="0" lon="0">
        <time>2021-02-28T09:34:35.461000+00:00</time>
      </trkpt>
      <trkpt lat="47.3157" lon="-1.46497">
        <ele>78</ele>
        <time>2021-02-28T09:34:36.446000+00:00</time>
      </trkpt>
      <trkpt lat="0" lon="0">
        <time>2021-02-28T09:34:36.458000+00:00</time>
      </trkpt>
      <trkpt lat="0" lon="0">
        <time>2021-02-28T09:34:36.463000+00:00</time>
      </trkpt>
      <trkpt lat="0" lon="0">
        <time>2021-02-28T09:34:36.466000+00:00</time>
      </trkpt>
      <trkpt lat="47.31565" lon="-1.46505">
        <ele>79</ele>
        <time>2021-02-28T09:34:37.455000+00:00</time>
      </trkpt>
      <trkpt lat="0" lon="0">
        <time>2021-02-28T09:34:37.463000+00:00</time>
      </trkpt>
      <trkpt lat="0" lon="0">
        <time>2021-02-28T09:34:37.468000+00:00</time>
      </trkpt>
      <trkpt lat="0" lon="0">
        <time>2021-02-28T09:34:37.471000+00:00</time>
      </trkpt>
      <trkpt lat="47.31561" lon="-1.46513">
        <ele>79</ele>
        <time>2021-02-28T09:34:38.463000+00:00</time>
      </trkpt>
      <trkpt lat="0" lon="0">
        <time>2021-02-28T09:34:38.471000+00:00</time>
      </trkpt>
      <trkpt lat="0" lon="0">
        <time>2021-02-28T09:34:38.476000+00:00</time>
      </trkpt>
      <trkpt lat="0" lon="0">
        <time>2021-02-28T09:34:38.479000+00:00</time>
      </trkpt>
      <trkpt lat="47.31556" lon="-1.46521">
        <ele>79</ele>
        <time>2021-02-28T09:34:39.463000+00:00</time>
      </trkpt>
      <trkpt lat="0" lon="0">
        <time>2021-02-28T09:34:39.470000+00:00</time>
      </trkpt>
      <trkpt lat="0" lon="0">
        <time>2021-02-28T09:34:39.477000+00:00</time>
      </trkpt>
      <trkpt lat="0" lon="0">
        <time>2021-02-28T09:34:39.480000+00:00</time>
      </trkpt>
      <trkpt lat="47.31552" lon="-1.46529">
        <ele>79</ele>
        <time>2021-02-28T09:34:40.437000+00:00</time>
      </trkpt>
      <trkpt lat="0" lon="0">
        <time>2021-02-28T09:34:40.442000+00:00</time>
      </trkpt>
      <trkpt lat="0" lon="0">
        <time>2021-02-28T09:34:40.449000+00:00</time>
      </trkpt>
      <trkpt lat="0" lon="0">
        <time>2021-02-28T09:34:40.451000+00:00</time>
      </trkpt>
      <trkpt lat="47.31547" lon="-1.46537">
        <ele>79</ele>
        <time>2021-02-28T09:34:41.462000+00:00</time>
      </trkpt>
      <trkpt lat="0" lon="0">
        <time>2021-02-28T09:34:41.471000+00:00</time>
      </trkpt>
      <trkpt lat="0" lon="0">
        <time>2021-02-28T09:34:41.477000+00:00</time>
      </trkpt>
      <trkpt lat="0" lon="0">
        <time>2021-02-28T09:34:41.480000+00:00</time>
      </trkpt>
      <trkpt lat="47.31543" lon="-1.46545">
        <ele>79</ele>
        <time>2021-02-28T09:34:42.393000+00:00</time>
      </trkpt>
      <trkpt lat="0" lon="0">
        <time>2021-02-28T09:34:42.394000+00:00</time>
      </trkpt>
      <trkpt lat="0" lon="0">
        <time>2021-02-28T09:34:42.396000+00:00</time>
      </trkpt>
      <trkpt lat="0" lon="0">
        <time>2021-02-28T09:34:42.397000+00:00</time>
      </trkpt>
      <trkpt lat="47.31538" lon="-1.46552">
        <ele>80</ele>
        <time>2021-02-28T09:34:43.472000+00:00</time>
      </trkpt>
      <trkpt lat="0" lon="0">
        <time>2021-02-28T09:34:43.478000+00:00</time>
      </trkpt>
      <trkpt lat="0" lon="0">
        <time>2021-02-28T09:34:43.485000+00:00</time>
      </trkpt>
      <trkpt lat="0" lon="0">
        <time>2021-02-28T09:34:43.489000+00:00</time>
      </trkpt>
      <trkpt lat="47.31533" lon="-1.46559">
        <ele>79</ele>
        <time>2021-02-28T09:34:44.471000+00:00</time>
      </trkpt>
      <trkpt lat="0" lon="0">
        <time>2021-02-28T09:34:44.476000+00:00</time>
      </trkpt>
      <trkpt lat="0" lon="0">
        <time>2021-02-28T09:34:44.481000+00:00</time>
      </trkpt>
      <trkpt lat="0" lon="0">
        <time>2021-02-28T09:34:44.484000+00:00</time>
      </trkpt>
      <trkpt lat="47.31528" lon="-1.46566">
        <ele>80</ele>
        <time>2021-02-28T09:34:45.451000+00:00</time>
      </trkpt>
      <trkpt lat="0" lon="0">
        <time>2021-02-28T09:34:45.458000+00:00</time>
      </trkpt>
      <trkpt lat="0" lon="0">
        <time>2021-02-28T09:34:45.465000+00:00</time>
      </trkpt>
      <trkpt lat="0" lon="0">
        <time>2021-02-28T09:34:45.471000+00:00</time>
      </trkpt>
      <trkpt lat="47.31523" lon="-1.46573">
        <ele>80</ele>
        <time>2021-02-28T09:34:46.462000+00:00</time>
      </trkpt>
      <trkpt lat="0" lon="0">
        <time>2021-02-28T09:34:46.470000+00:00</time>
      </trkpt>
      <trkpt lat="0" lon="0">
        <time>2021-02-28T09:34:46.475000+00:00</time>
      </trkpt>
      <trkpt lat="0" lon="0">
        <time>2021-02-28T09:34:46.478000+00:00</time>
      </trkpt>
      <trkpt lat="47.31518" lon="-1.46581">
        <ele>80</ele>
        <time>2021-02-28T09:34:47.448000+00:00</time>
      </trkpt>
      <trkpt lat="0" lon="0">
        <time>2021-02-28T09:34:47.461000+00:00</time>
      </trkpt>
      <trkpt lat="0" lon="0">
        <time>2021-02-28T09:34:47.468000+00:00</time>
      </trkpt>
      <trkpt lat="0" lon="0">
        <time>2021-02-28T09:34:47.470000+00:00</time>
      </trkpt>
      <trkpt lat="47.31514" lon="-1.46588">
        <ele>80</ele>
        <time>2021-02-28T09:34:48.457000+00:00</time>
      </trkpt>
      <trkpt lat="0" lon="0">
        <time>2021-02-28T09:34:48.462000+00:00</time>
      </trkpt>
      <trkpt lat="0" lon="0">
        <time>2021-02-28T09:34:48.466000+00:00</time>
      </trkpt>
      <trkpt lat="0" lon="0">
        <time>2021-02-28T09:34:48.469000+00:00</time>
      </trkpt>
      <trkpt lat="47.31509" lon="-1.46596">
        <ele>80</ele>
        <time>2021-02-28T09:34:49.460000+00:00</time>
      </trkpt>
      <trkpt lat="0" lon="0">
        <time>2021-02-28T09:34:49.473000+00:00</time>
      </trkpt>
      <trkpt lat="0" lon="0">
        <time>2021-02-28T09:34:49.478000+00:00</time>
      </trkpt>
      <trkpt lat="0" lon="0">
        <time>2021-02-28T09:34:49.480000+00:00</time>
      </trkpt>
      <trkpt lat="47.31505" lon="-1.46604">
        <ele>80</ele>
        <time>2021-02-28T09:34:50.447000+00:00</time>
      </trkpt>
      <trkpt lat="0" lon="0">
        <time>2021-02-28T09:34:50.451000+00:00</time>
      </trkpt>
      <trkpt lat="0" lon="0">
        <time>2021-02-28T09:34:50.457000+00:00</time>
      </trkpt>
      <trkpt lat="0" lon="0">
        <time>2021-02-28T09:34:50.460000+00:00</time>
      </trkpt>
      <trkpt lat="47.315" lon="-1.46612">
        <ele>80</ele>
        <time>2021-02-28T09:34:51.476000+00:00</time>
      </trkpt>
      <trkpt lat="0" lon="0">
        <time>2021-02-28T09:34:51.484000+00:00</time>
      </trkpt>
      <trkpt lat="0" lon="0">
        <time>2021-02-28T09:34:51.491000+00:00</time>
      </trkpt>
      <trkpt lat="0" lon="0">
        <time>2021-02-28T09:34:51.493000+00:00</time>
      </trkpt>
      <trkpt lat="47.31495" lon="-1.4662">
        <ele>80</ele>
        <time>2021-02-28T09:34:52.452000+00:00</time>
      </trkpt>
      <trkpt lat="0" lon="0">
        <time>2021-02-28T09:34:52.459000+00:00</time>
      </trkpt>
      <trkpt lat="0" lon="0">
        <time>2021-02-28T09:34:52.464000+00:00</time>
      </trkpt>
      <trkpt lat="0" lon="0">
        <time>2021-02-28T09:34:52.467000+00:00</time>
      </trkpt>
      <trkpt lat="47.3149" lon="-1.46628">
        <ele>80</ele>
        <time>2021-02-28T09:34:53.484000+00:00</time>
      </trkpt>
      <trkpt lat="0" lon="0">
        <time>2021-02-28T09:34:53.495000+00:00</time>
      </trkpt>
      <trkpt lat="0" lon="0">
        <time>2021-02-28T09:34:53.499000+00:00</time>
      </trkpt>
      <trkpt lat="0" lon="0">
        <time>2021-02-28T09:34:53.502000+00:00</time>
      </trkpt>
      <trkpt lat="47.31485" lon="-1.46636">
        <ele>80</ele>
        <time>2021-02-28T09:34:54.448000+00:00</time>
      </trkpt>
      <trkpt lat="0" lon="0">
        <time>2021-02-28T09:34:54.454000+00:00</time>
      </trkpt>
      <trkpt lat="0" lon="0">
        <time>2021-02-28T09:34:54.456000+00:00</time>
      </trkpt>
      <trkpt lat="0" lon="0">
        <time>2021-02-28T09:34:54.458000+00:00</time>
      </trkpt>
      <trkpt lat="47.3148" lon="-1.46644">
        <ele>80</ele>
        <time>2021-02-28T09:34:55.474000+00:00</time>
      </trkpt>
      <trkpt lat="0" lon="0">
        <time>2021-02-28T09:34:55.483000+00:00</time>
      </trkpt>
      <trkpt lat="0" lon="0">
        <time>2021-02-28T09:34:55.487000+00:00</time>
      </trkpt>
      <trkpt lat="0" lon="0">
        <time>2021-02-28T09:34:55.490000+00:00</time>
      </trkpt>
      <trkpt lat="47.31475" lon="-1.46652">
        <ele>80</ele>
        <time>2021-02-28T09:34:56.471000+00:00</time>
      </trkpt>
      <trkpt lat="0" lon="0">
        <time>2021-02-28T09:34:56.476000+00:00</time>
      </trkpt>
      <trkpt lat="0" lon="0">
        <time>2021-02-28T09:34:56.479000+00:00</time>
      </trkpt>
      <trkpt lat="0" lon="0">
        <time>2021-02-28T09:34:56.480000+00:00</time>
      </trkpt>
      <trkpt lat="47.3147" lon="-1.4666">
        <ele>80</ele>
        <time>2021-02-28T09:34:57.494000+00:00</time>
      </trkpt>
      <trkpt lat="0" lon="0">
        <time>2021-02-28T09:34:57.499000+00:00</time>
      </trkpt>
      <trkpt lat="0" lon="0">
        <time>2021-02-28T09:34:57.505000+00:00</time>
      </trkpt>
      <trkpt lat="0" lon="0">
        <time>2021-02-28T09:34:57.507000+00:00</time>
      </trkpt>
      <trkpt lat="47.31466" lon="-1.46668">
        <ele>81</ele>
        <time>2021-02-28T09:34:58.436000+00:00</time>
      </trkpt>
      <trkpt lat="0" lon="0">
        <time>2021-02-28T09:34:58.446000+00:00</time>
      </trkpt>
      <trkpt lat="0" lon="0">
        <time>2021-02-28T09:34:58.447000+00:00</time>
      </trkpt>
      <trkpt lat="0" lon="0">
        <time>2021-02-28T09:34:58.448000+00:00</time>
      </trkpt>
      <trkpt lat="47.31461" lon="-1.46675">
        <ele>81</ele>
        <time>2021-02-28T09:34:59.459000+00:00</time>
      </trkpt>
      <trkpt lat="0" lon="0">
        <time>2021-02-28T09:34:59.470000+00:00</time>
      </trkpt>
      <trkpt lat="0" lon="0">
        <time>2021-02-28T09:34:59.475000+00:00</time>
      </trkpt>
      <trkpt lat="0" lon="0">
        <time>2021-02-28T09:34:59.478000+00:00</time>
      </trkpt>
      <trkpt lat="47.31456" lon="-1.46683">
        <ele>81</ele>
        <time>2021-02-28T09:35:00.432000+00:00</time>
      </trkpt>
      <trkpt lat="0" lon="0">
        <time>2021-02-28T09:35:00.436000+00:00</time>
      </trkpt>
      <trkpt lat="0" lon="0">
        <time>2021-02-28T09:35:00.442000+00:00</time>
      </trkpt>
      <trkpt lat="0" lon="0">
        <time>2021-02-28T09:35:00.444000+00:00</time>
      </trkpt>
      <trkpt lat="47.31451" lon="-1.4669">
        <ele>80</ele>
        <time>2021-02-28T09:35:01.458000+00:00</time>
      </trkpt>
      <trkpt lat="0" lon="0">
        <time>2021-02-28T09:35:01.471000+00:00</time>
      </trkpt>
      <trkpt lat="0" lon="0">
        <time>2021-02-28T09:35:01.476000+00:00</time>
      </trkpt>
      <trkpt lat="0" lon="0">
        <time>2021-02-28T09:35:01.478000+00:00</time>
      </trkpt>
      <trkpt lat="47.31447" lon="-1.46698">
        <ele>80</ele>
        <time>2021-02-28T09:35:02.465000+00:00</time>
      </trkpt>
      <trkpt lat="0" lon="0">
        <time>2021-02-28T09:35:02.472000+00:00</time>
      </trkpt>
      <trkpt lat="0" lon="0">
        <time>2021-02-28T09:35:02.478000+00:00</time>
      </trkpt>
      <trkpt lat="0" lon="0">
        <time>2021-02-28T09:35:02.481000+00:00</time>
      </trkpt>
      <trkpt lat="47.31442" lon="-1.46705">
        <ele>81</ele>
        <time>2021-02-28T09:35:03.474000+00:00</time>
      </trkpt>
      <trkpt lat="0" lon="0">
        <time>2021-02-28T09:35:03.485000+00:00</time>
      </trkpt>
      <trkpt lat="0" lon="0">
        <time>2021-02-28T09:35:03.490000+00:00</time>
      </trkpt>
      <trkpt lat="0" lon="0">
        <time>2021-02-28T09:35:03.493000+00:00</time>
      </trkpt>
      <trkpt lat="47.31438" lon="-1.46713">
        <ele>81</ele>
        <time>2021-02-28T09:35:04.455000+00:00</time>
      </trkpt>
      <trkpt lat="0" lon="0">
        <time>2021-02-28T09:35:04.461000+00:00</time>
      </trkpt>
      <trkpt lat="0" lon="0">
        <time>2021-02-28T09:35:04.469000+00:00</time>
      </trkpt>
      <trkpt lat="0" lon="0">
        <time>2021-02-28T09:35:04.473000+00:00</time>
      </trkpt>
      <trkpt lat="47.31433" lon="-1.4672">
        <ele>81</ele>
        <time>2021-02-28T09:35:05.466000+00:00</time>
      </trkpt>
      <trkpt lat="0" lon="0">
        <time>2021-02-28T09:35:05.467000+00:00</time>
      </trkpt>
      <trkpt lat="0" lon="0">
        <time>2021-02-28T09:35:05.468000+00:00</time>
      </trkpt>
      <trkpt lat="0" lon="0">
        <time>2021-02-28T09:35:05.469000+00:00</time>
      </trkpt>
      <trkpt lat="47.31428" lon="-1.46728">
        <ele>81</ele>
        <time>2021-02-28T09:35:06.452000+00:00</time>
      </trkpt>
      <trkpt lat="0" lon="0">
        <time>2021-02-28T09:35:06.459000+00:00</time>
      </trkpt>
      <trkpt lat="0" lon="0">
        <time>2021-02-28T09:35:06.464000+00:00</time>
      </trkpt>
      <trkpt lat="0" lon="0">
        <time>2021-02-28T09:35:06.466000+00:00</time>
      </trkpt>
      <trkpt lat="47.31423" lon="-1.46735">
        <ele>81</ele>
        <time>2021-02-28T09:35:07.486000+00:00</time>
      </trkpt>
      <trkpt lat="0" lon="0">
        <time>2021-02-28T09:35:07.497000+00:00</time>
      </trkpt>
      <trkpt lat="0" lon="0">
        <time>2021-02-28T09:35:07.504000+00:00</time>
      </trkpt>
      <trkpt lat="0" lon="0">
        <time>2021-02-28T09:35:07.510000+00:00</time>
      </trkpt>
      <trkpt lat="47.31418" lon="-1.46742">
        <ele>81</ele>
        <time>2021-02-28T09:35:08.493000+00:00</time>
      </trkpt>
      <trkpt lat="0" lon="0">
        <time>2021-02-28T09:35:08.505000+00:00</time>
      </trkpt>
      <trkpt lat="0" lon="0">
        <time>2021-02-28T09:35:08.511000+00:00</time>
      </trkpt>
      <trkpt lat="0" lon="0">
        <time>2021-02-28T09:35:08.513000+00:00</time>
      </trkpt>
      <trkpt lat="47.31413" lon="-1.4675">
        <ele>81</ele>
        <time>2021-02-28T09:35:09.468000+00:00</time>
      </trkpt>
      <trkpt lat="0" lon="0">
        <time>2021-02-28T09:35:09.477000+00:00</time>
      </trkpt>
      <trkpt lat="0" lon="0">
        <time>2021-02-28T09:35:09.482000+00:00</time>
      </trkpt>
      <trkpt lat="0" lon="0">
        <time>2021-02-28T09:35:09.485000+00:00</time>
      </trkpt>
      <trkpt lat="47.31408" lon="-1.46757">
        <ele>82</ele>
        <time>2021-02-28T09:35:10.483000+00:00</time>
      </trkpt>
      <trkpt lat="0" lon="0">
        <time>2021-02-28T09:35:10.490000+00:00</time>
      </trkpt>
      <trkpt lat="0" lon="0">
        <time>2021-02-28T09:35:10.497000+00:00</time>
      </trkpt>
      <trkpt lat="0" lon="0">
        <time>2021-02-28T09:35:10.501000+00:00</time>
      </trkpt>
      <trkpt lat="47.31403" lon="-1.46765">
        <ele>82</ele>
        <time>2021-02-28T09:35:11.476000+00:00</time>
      </trkpt>
      <trkpt lat="0" lon="0">
        <time>2021-02-28T09:35:11.486000+00:00</time>
      </trkpt>
      <trkpt lat="0" lon="0">
        <time>2021-02-28T09:35:11.494000+00:00</time>
      </trkpt>
      <trkpt lat="0" lon="0">
        <time>2021-02-28T09:35:11.496000+00:00</time>
      </trkpt>
      <trkpt lat="47.31398" lon="-1.46772">
        <ele>82</ele>
        <time>2021-02-28T09:35:12.468000+00:00</time>
      </trkpt>
      <trkpt lat="0" lon="0">
        <time>2021-02-28T09:35:12.477000+00:00</time>
      </trkpt>
      <trkpt lat="0" lon="0">
        <time>2021-02-28T09:35:12.481000+00:00</time>
      </trkpt>
      <trkpt lat="0" lon="0">
        <time>2021-02-28T09:35:12.483000+00:00</time>
      </trkpt>
      <trkpt lat="47.31393" lon="-1.4678">
        <ele>82</ele>
        <time>2021-02-28T09:35:13.473000+00:00</time>
      </trkpt>
      <trkpt lat="0" lon="0">
        <time>2021-02-28T09:35:13.487000+00:00</time>
      </trkpt>
      <trkpt lat="0" lon="0">
        <time>2021-02-28T09:35:13.495000+00:00</time>
      </trkpt>
      <trkpt lat="0" lon="0">
        <time>2021-02-28T09:35:13.498000+00:00</time>
      </trkpt>
      <trkpt lat="47.31388" lon="-1.46788">
        <ele>83</ele>
        <time>2021-02-28T09:35:14.470000+00:00</time>
      </trkpt>
      <trkpt lat="0" lon="0">
        <time>2021-02-28T09:35:14.475000+00:00</time>
      </trkpt>
      <trkpt lat="0" lon="0">
        <time>2021-02-28T09:35:14.480000+00:00</time>
      </trkpt>
      <trkpt lat="0" lon="0">
        <time>2021-02-28T09:35:14.484000+00:00</time>
      </trkpt>
      <trkpt lat="47.31383" lon="-1.46796">
        <ele>83</ele>
        <time>2021-02-28T09:35:15.380000+00:00</time>
      </trkpt>
      <trkpt lat="0" lon="0">
        <time>2021-02-28T09:35:15.386000+00:00</time>
      </trkpt>
      <trkpt lat="0" lon="0">
        <time>2021-02-28T09:35:15.391000+00:00</time>
      </trkpt>
      <trkpt lat="0" lon="0">
        <time>2021-02-28T09:35:15.393000+00:00</time>
      </trkpt>
      <trkpt lat="47.31378" lon="-1.46804">
        <ele>83</ele>
        <time>2021-02-28T09:35:16.446000+00:00</time>
      </trkpt>
      <trkpt lat="0" lon="0">
        <time>2021-02-28T09:35:16.449000+00:00</time>
      </trkpt>
      <trkpt lat="0" lon="0">
        <time>2021-02-28T09:35:16.451000+00:00</time>
      </trkpt>
      <trkpt lat="0" lon="0">
        <time>2021-02-28T09:35:16.453000+00:00</time>
      </trkpt>
      <trkpt lat="47.31373" lon="-1.46812">
        <ele>83</ele>
        <time>2021-02-28T09:35:17.462000+00:00</time>
      </trkpt>
      <trkpt lat="0" lon="0">
        <time>2021-02-28T09:35:17.467000+00:00</time>
      </trkpt>
      <trkpt lat="0" lon="0">
        <time>2021-02-28T09:35:17.473000+00:00</time>
      </trkpt>
      <trkpt lat="0" lon="0">
        <time>2021-02-28T09:35:17.475000+00:00</time>
      </trkpt>
      <trkpt lat="47.31368" lon="-1.4682">
        <ele>82</ele>
        <time>2021-02-28T09:35:18.474000+00:00</time>
      </trkpt>
      <trkpt lat="0" lon="0">
        <time>2021-02-28T09:35:18.480000+00:00</time>
      </trkpt>
      <trkpt lat="0" lon="0">
        <time>2021-02-28T09:35:18.485000+00:00</time>
      </trkpt>
      <trkpt lat="0" lon="0">
        <time>2021-02-28T09:35:18.489000+00:00</time>
      </trkpt>
      <trkpt lat="47.31364" lon="-1.46828">
        <ele>82</ele>
        <time>2021-02-28T09:35:19.458000+00:00</time>
      </trkpt>
      <trkpt lat="0" lon="0">
        <time>2021-02-28T09:35:19.467000+00:00</time>
      </trkpt>
      <trkpt lat="0" lon="0">
        <time>2021-02-28T09:35:19.473000+00:00</time>
      </trkpt>
      <trkpt lat="0" lon="0">
        <time>2021-02-28T09:35:19.476000+00:00</time>
      </trkpt>
      <trkpt lat="47.31359" lon="-1.46836">
        <ele>81</ele>
        <time>2021-02-28T09:35:20.449000+00:00</time>
      </trkpt>
      <trkpt lat="0" lon="0">
        <time>2021-02-28T09:35:20.452000+00:00</time>
      </trkpt>
      <trkpt lat="0" lon="0">
        <time>2021-02-28T09:35:20.455000+00:00</time>
      </trkpt>
      <trkpt lat="0" lon="0">
        <time>2021-02-28T09:35:20.456000+00:00</time>
      </trkpt>
      <trkpt lat="47.31354" lon="-1.46843">
        <ele>81</ele>
        <time>2021-02-28T09:35:21.450000+00:00</time>
      </trkpt>
      <trkpt lat="0" lon="0">
        <time>2021-02-28T09:35:21.460000+00:00</time>
      </trkpt>
      <trkpt lat="0" lon="0">
        <time>2021-02-28T09:35:21.466000+00:00</time>
      </trkpt>
      <trkpt lat="0" lon="0">
        <time>2021-02-28T09:35:21.468000+00:00</time>
      </trkpt>
      <trkpt lat="47.3135" lon="-1.4685">
        <ele>81</ele>
        <time>2021-02-28T09:35:22.444000+00:00</time>
      </trkpt>
      <trkpt lat="0" lon="0">
        <time>2021-02-28T09:35:22.452000+00:00</time>
      </trkpt>
      <trkpt lat="0" lon="0">
        <time>2021-02-28T09:35:22.456000+00:00</time>
      </trkpt>
      <trkpt lat="0" lon="0">
        <time>2021-02-28T09:35:22.458000+00:00</time>
      </trkpt>
      <trkpt lat="47.31347" lon="-1.46857">
        <ele>81</ele>
        <time>2021-02-28T09:35:23.468000+00:00</time>
      </trkpt>
      <trkpt lat="0" lon="0">
        <time>2021-02-28T09:35:23.475000+00:00</time>
      </trkpt>
      <trkpt lat="0" lon="0">
        <time>2021-02-28T09:35:23.483000+00:00</time>
      </trkpt>
      <trkpt lat="0" lon="0">
        <time>2021-02-28T09:35:23.488000+00:00</time>
      </trkpt>
      <trkpt lat="47.31343" lon="-1.46864">
        <ele>81</ele>
        <time>2021-02-28T09:35:24.490000+00:00</time>
      </trkpt>
      <trkpt lat="0" lon="0">
        <time>2021-02-28T09:35:24.496000+00:00</time>
      </trkpt>
      <trkpt lat="0" lon="0">
        <time>2021-02-28T09:35:24.501000+00:00</time>
      </trkpt>
      <trkpt lat="0" lon="0">
        <time>2021-02-28T09:35:24.503000+00:00</time>
      </trkpt>
      <trkpt lat="47.3134" lon="-1.4687">
        <ele>81</ele>
        <time>2021-02-28T09:35:25.467000+00:00</time>
      </trkpt>
      <trkpt lat="0" lon="0">
        <time>2021-02-28T09:35:25.475000+00:00</time>
      </trkpt>
      <trkpt lat="0" lon="0">
        <time>2021-02-28T09:35:25.482000+00:00</time>
      </trkpt>
      <trkpt lat="0" lon="0">
        <time>2021-02-28T09:35:25.484000+00:00</time>
      </trkpt>
      <trkpt lat="47.31337" lon="-1.46875">
        <ele>81</ele>
        <time>2021-02-28T09:35:26.454000+00:00</time>
      </trkpt>
      <trkpt lat="0" lon="0">
        <time>2021-02-28T09:35:26.461000+00:00</time>
      </trkpt>
      <trkpt lat="0" lon="0">
        <time>2021-02-28T09:35:26.466000+00:00</time>
      </trkpt>
      <trkpt lat="0" lon="0">
        <time>2021-02-28T09:35:26.469000+00:00</time>
      </trkpt>
      <trkpt lat="47.31334" lon="-1.46881">
        <ele>81</ele>
        <time>2021-02-28T09:35:27.521000+00:00</time>
      </trkpt>
      <trkpt lat="0" lon="0">
        <time>2021-02-28T09:35:27.527000+00:00</time>
      </trkpt>
      <trkpt lat="0" lon="0">
        <time>2021-02-28T09:35:27.533000+00:00</time>
      </trkpt>
      <trkpt lat="0" lon="0">
        <time>2021-02-28T09:35:27.536000+00:00</time>
      </trkpt>
      <trkpt lat="47.31331" lon="-1.46887">
        <ele>80</ele>
        <time>2021-02-28T09:35:28.472000+00:00</time>
      </trkpt>
      <trkpt lat="0" lon="0">
        <time>2021-02-28T09:35:28.478000+00:00</time>
      </trkpt>
      <trkpt lat="0" lon="0">
        <time>2021-02-28T09:35:28.483000+00:00</time>
      </trkpt>
      <trkpt lat="0" lon="0">
        <time>2021-02-28T09:35:28.486000+00:00</time>
      </trkpt>
      <trkpt lat="47.31328" lon="-1.46892">
        <ele>80</ele>
        <time>2021-02-28T09:35:29.499000+00:00</time>
      </trkpt>
      <trkpt lat="0" lon="0">
        <time>2021-02-28T09:35:29.514000+00:00</time>
      </trkpt>
      <trkpt lat="0" lon="0">
        <time>2021-02-28T09:35:29.519000+00:00</time>
      </trkpt>
      <trkpt lat="0" lon="0">
        <time>2021-02-28T09:35:29.522000+00:00</time>
      </trkpt>
      <trkpt lat="47.31326" lon="-1.46897">
        <ele>80</ele>
        <time>2021-02-28T09:35:30.440000+00:00</time>
      </trkpt>
      <trkpt lat="0" lon="0">
        <time>2021-02-28T09:35:30.451000+00:00</time>
      </trkpt>
      <trkpt lat="0" lon="0">
        <time>2021-02-28T09:35:30.455000+00:00</time>
      </trkpt>
      <trkpt lat="0" lon="0">
        <time>2021-02-28T09:35:30.457000+00:00</time>
      </trkpt>
      <trkpt lat="47.31323" lon="-1.46902">
        <ele>81</ele>
        <time>2021-02-28T09:35:31.460000+00:00</time>
      </trkpt>
      <trkpt lat="0" lon="0">
        <time>2021-02-28T09:35:31.466000+00:00</time>
      </trkpt>
      <trkpt lat="0" lon="0">
        <time>2021-02-28T09:35:31.470000+00:00</time>
      </trkpt>
      <trkpt lat="0" lon="0">
        <time>2021-02-28T09:35:31.472000+00:00</time>
      </trkpt>
      <trkpt lat="47.3132" lon="-1.46907">
        <ele>81</ele>
        <time>2021-02-28T09:35:32.480000+00:00</time>
      </trkpt>
      <trkpt lat="0" lon="0">
        <time>2021-02-28T09:35:32.487000+00:00</time>
      </trkpt>
      <trkpt lat="0" lon="0">
        <time>2021-02-28T09:35:32.491000+00:00</time>
      </trkpt>
      <trkpt lat="0" lon="0">
        <time>2021-02-28T09:35:32.494000+00:00</time>
      </trkpt>
      <trkpt lat="47.31318" lon="-1.46912">
        <ele>81</ele>
        <time>2021-02-28T09:35:33.468000+00:00</time>
      </trkpt>
      <trkpt lat="0" lon="0">
        <time>2021-02-28T09:35:33.473000+00:00</time>
      </trkpt>
      <trkpt lat="0" lon="0">
        <time>2021-02-28T09:35:33.478000+00:00</time>
      </trkpt>
      <trkpt lat="0" lon="0">
        <time>2021-02-28T09:35:33.480000+00:00</time>
      </trkpt>
      <trkpt lat="47.31315" lon="-1.46916">
        <ele>81</ele>
        <time>2021-02-28T09:35:34.452000+00:00</time>
      </trkpt>
      <trkpt lat="0" lon="0">
        <time>2021-02-28T09:35:34.457000+00:00</time>
      </trkpt>
      <trkpt lat="0" lon="0">
        <time>2021-02-28T09:35:34.461000+00:00</time>
      </trkpt>
      <trkpt lat="0" lon="0">
        <time>2021-02-28T09:35:34.464000+00:00</time>
      </trkpt>
      <trkpt lat="47.31312" lon="-1.46922">
        <ele>80</ele>
        <time>2021-02-28T09:35:35.485000+00:00</time>
      </trkpt>
      <trkpt lat="0" lon="0">
        <time>2021-02-28T09:35:35.491000+00:00</time>
      </trkpt>
      <trkpt lat="0" lon="0">
        <time>2021-02-28T09:35:35.496000+00:00</time>
      </trkpt>
      <trkpt lat="0" lon="0">
        <time>2021-02-28T09:35:35.499000+00:00</time>
      </trkpt>
      <trkpt lat="47.31309" lon="-1.46927">
        <ele>80</ele>
        <time>2021-02-28T09:35:36.468000+00:00</time>
      </trkpt>
      <trkpt lat="0" lon="0">
        <time>2021-02-28T09:35:36.476000+00:00</time>
      </trkpt>
      <trkpt lat="0" lon="0">
        <time>2021-02-28T09:35:36.480000+00:00</time>
      </trkpt>
      <trkpt lat="0" lon="0">
        <time>2021-02-28T09:35:36.482000+00:00</time>
      </trkpt>
      <trkpt lat="47.31305" lon="-1.46933">
        <ele>80</ele>
        <time>2021-02-28T09:35:37.477000+00:00</time>
      </trkpt>
      <trkpt lat="0" lon="0">
        <time>2021-02-28T09:35:37.485000+00:00</time>
      </trkpt>
      <trkpt lat="0" lon="0">
        <time>2021-02-28T09:35:37.490000+00:00</time>
      </trkpt>
      <trkpt lat="0" lon="0">
        <time>2021-02-28T09:35:37.493000+00:00</time>
      </trkpt>
      <trkpt lat="47.31302" lon="-1.4694">
        <ele>80</ele>
        <time>2021-02-28T09:35:38.471000+00:00</time>
      </trkpt>
      <trkpt lat="0" lon="0">
        <time>2021-02-28T09:35:38.482000+00:00</time>
      </trkpt>
      <trkpt lat="0" lon="0">
        <time>2021-02-28T09:35:38.486000+00:00</time>
      </trkpt>
      <trkpt lat="0" lon="0">
        <time>2021-02-28T09:35:38.489000+00:00</time>
      </trkpt>
      <trkpt lat="47.31298" lon="-1.46947">
        <ele>80</ele>
        <time>2021-02-28T09:35:39.455000+00:00</time>
      </trkpt>
      <trkpt lat="0" lon="0">
        <time>2021-02-28T09:35:39.462000+00:00</time>
      </trkpt>
      <trkpt lat="0" lon="0">
        <time>2021-02-28T09:35:39.469000+00:00</time>
      </trkpt>
      <trkpt lat="0" lon="0">
        <time>2021-02-28T09:35:39.471000+00:00</time>
      </trkpt>
      <trkpt lat="47.31294" lon="-1.46954">
        <ele>81</ele>
        <time>2021-02-28T09:35:40.485000+00:00</time>
      </trkpt>
      <trkpt lat="0" lon="0">
        <time>2021-02-28T09:35:40.491000+00:00</time>
      </trkpt>
      <trkpt lat="0" lon="0">
        <time>2021-02-28T09:35:40.496000+00:00</time>
      </trkpt>
      <trkpt lat="0" lon="0">
        <time>2021-02-28T09:35:40.499000+00:00</time>
      </trkpt>
      <trkpt lat="47.3129" lon="-1.46961">
        <ele>80</ele>
        <time>2021-02-28T09:35:41.364000+00:00</time>
      </trkpt>
      <trkpt lat="0" lon="0">
        <time>2021-02-28T09:35:41.379000+00:00</time>
      </trkpt>
      <trkpt lat="0" lon="0">
        <time>2021-02-28T09:35:41.383000+00:00</time>
      </trkpt>
      <trkpt lat="0" lon="0">
        <time>2021-02-28T09:35:41.385000+00:00</time>
      </trkpt>
      <trkpt lat="47.31286" lon="-1.46968">
        <ele>80</ele>
        <time>2021-02-28T09:35:42.340000+00:00</time>
      </trkpt>
      <trkpt lat="0" lon="0">
        <time>2021-02-28T09:35:42.342000+00:00</time>
      </trkpt>
      <trkpt lat="0" lon="0">
        <time>2021-02-28T09:35:42.344000+00:00</time>
      </trkpt>
      <trkpt lat="0" lon="0">
        <time>2021-02-28T09:35:42.346000+00:00</time>
      </trkpt>
      <trkpt lat="47.31282" lon="-1.46976">
        <ele>81</ele>
        <time>2021-02-28T09:35:43.358000+00:00</time>
      </trkpt>
      <trkpt lat="0" lon="0">
        <time>2021-02-28T09:35:43.367000+00:00</time>
      </trkpt>
      <trkpt lat="0" lon="0">
        <time>2021-02-28T09:35:43.371000+00:00</time>
      </trkpt>
      <trkpt lat="0" lon="0">
        <time>2021-02-28T09:35:43.373000+00:00</time>
      </trkpt>
      <trkpt lat="47.31278" lon="-1.46984">
        <ele>81</ele>
        <time>2021-02-28T09:35:44.447000+00:00</time>
      </trkpt>
      <trkpt lat="0" lon="0">
        <time>2021-02-28T09:35:44.453000+00:00</time>
      </trkpt>
      <trkpt lat="0" lon="0">
        <time>2021-02-28T09:35:44.457000+00:00</time>
      </trkpt>
      <trkpt lat="0" lon="0">
        <time>2021-02-28T09:35:44.460000+00:00</time>
      </trkpt>
      <trkpt lat="47.31273" lon="-1.46992">
        <ele>81</ele>
        <time>2021-02-28T09:35:45.431000+00:00</time>
      </trkpt>
      <trkpt lat="0" lon="0">
        <time>2021-02-28T09:35:45.447000+00:00</time>
      </trkpt>
      <trkpt lat="0" lon="0">
        <time>2021-02-28T09:35:45.450000+00:00</time>
      </trkpt>
      <trkpt lat="0" lon="0">
        <time>2021-02-28T09:35:45.451000+00:00</time>
      </trkpt>
      <trkpt lat="47.31269" lon="-1.47">
        <ele>81</ele>
        <time>2021-02-28T09:35:46.446000+00:00</time>
      </trkpt>
      <trkpt lat="0" lon="0">
        <time>2021-02-28T09:35:46.455000+00:00</time>
      </trkpt>
      <trkpt lat="0" lon="0">
        <time>2021-02-28T09:35:46.459000+00:00</time>
      </trkpt>
      <trkpt lat="0" lon="0">
        <time>2021-02-28T09:35:46.462000+00:00</time>
      </trkpt>
      <trkpt lat="47.31265" lon="-1.47008">
        <ele>82</ele>
        <time>2021-02-28T09:35:47.440000+00:00</time>
      </trkpt>
      <trkpt lat="0" lon="0">
        <time>2021-02-28T09:35:47.450000+00:00</time>
      </trkpt>
      <trkpt lat="0" lon="0">
        <time>2021-02-28T09:35:47.454000+00:00</time>
      </trkpt>
      <trkpt lat="0" lon="0">
        <time>2021-02-28T09:35:47.457000+00:00</time>
      </trkpt>
      <trkpt lat="47.3126" lon="-1.47016">
        <ele>82</ele>
        <time>2021-02-28T09:35:48.436000+00:00</time>
      </trkpt>
      <trkpt lat="0" lon="0">
        <time>2021-02-28T09:35:48.448000+00:00</time>
      </trkpt>
      <trkpt lat="0" lon="0">
        <time>2021-02-28T09:35:48.451000+00:00</time>
      </trkpt>
      <trkpt lat="0" lon="0">
        <time>2021-02-28T09:35:48.454000+00:00</time>
      </trkpt>
      <trkpt lat="47.31256" lon="-1.47025">
        <ele>82</ele>
        <time>2021-02-28T09:35:49.439000+00:00</time>
      </trkpt>
      <trkpt lat="0" lon="0">
        <time>2021-02-28T09:35:49.452000+00:00</time>
      </trkpt>
      <trkpt lat="0" lon="0">
        <time>2021-02-28T09:35:49.458000+00:00</time>
      </trkpt>
      <trkpt lat="0" lon="0">
        <time>2021-02-28T09:35:49.460000+00:00</time>
      </trkpt>
      <trkpt lat="47.31251" lon="-1.47033">
        <ele>82</ele>
        <time>2021-02-28T09:35:50.448000+00:00</time>
      </trkpt>
      <trkpt lat="0" lon="0">
        <time>2021-02-28T09:35:50.453000+00:00</time>
      </trkpt>
      <trkpt lat="0" lon="0">
        <time>2021-02-28T09:35:50.457000+00:00</time>
      </trkpt>
      <trkpt lat="0" lon="0">
        <time>2021-02-28T09:35:50.459000+00:00</time>
      </trkpt>
      <trkpt lat="47.31246" lon="-1.47041">
        <ele>81</ele>
        <time>2021-02-28T09:35:51.439000+00:00</time>
      </trkpt>
      <trkpt lat="0" lon="0">
        <time>2021-02-28T09:35:51.451000+00:00</time>
      </trkpt>
      <trkpt lat="0" lon="0">
        <time>2021-02-28T09:35:51.456000+00:00</time>
      </trkpt>
      <trkpt lat="0" lon="0">
        <time>2021-02-28T09:35:51.458000+00:00</time>
      </trkpt>
      <trkpt lat="47.31241" lon="-1.4705">
        <ele>81</ele>
        <time>2021-02-28T09:35:52.476000+00:00</time>
      </trkpt>
      <trkpt lat="0" lon="0">
        <time>2021-02-28T09:35:52.482000+00:00</time>
      </trkpt>
      <trkpt lat="0" lon="0">
        <time>2021-02-28T09:35:52.487000+00:00</time>
      </trkpt>
      <trkpt lat="0" lon="0">
        <time>2021-02-28T09:35:52.490000+00:00</time>
      </trkpt>
      <trkpt lat="47.31237" lon="-1.47059">
        <ele>80</ele>
        <time>2021-02-28T09:35:53.461000+00:00</time>
      </trkpt>
      <trkpt lat="0" lon="0">
        <time>2021-02-28T09:35:53.474000+00:00</time>
      </trkpt>
      <trkpt lat="0" lon="0">
        <time>2021-02-28T09:35:53.482000+00:00</time>
      </trkpt>
      <trkpt lat="0" lon="0">
        <time>2021-02-28T09:35:53.484000+00:00</time>
      </trkpt>
      <trkpt lat="47.31232" lon="-1.47067">
        <ele>80</ele>
        <time>2021-02-28T09:35:54.467000+00:00</time>
      </trkpt>
      <trkpt lat="0" lon="0">
        <time>2021-02-28T09:35:54.477000+00:00</time>
      </trkpt>
      <trkpt lat="0" lon="0">
        <time>2021-02-28T09:35:54.482000+00:00</time>
      </trkpt>
      <trkpt lat="0" lon="0">
        <time>2021-02-28T09:35:54.485000+00:00</time>
      </trkpt>
      <trkpt lat="47.31227" lon="-1.47076">
        <ele>80</ele>
        <time>2021-02-28T09:35:55.484000+00:00</time>
      </trkpt>
      <trkpt lat="0" lon="0">
        <time>2021-02-28T09:35:55.496000+00:00</time>
      </trkpt>
      <trkpt lat="0" lon="0">
        <time>2021-02-28T09:35:55.506000+00:00</time>
      </trkpt>
      <trkpt lat="0" lon="0">
        <time>2021-02-28T09:35:55.509000+00:00</time>
      </trkpt>
      <trkpt lat="47.31223" lon="-1.47084">
        <ele>79</ele>
        <time>2021-02-28T09:35:56.441000+00:00</time>
      </trkpt>
      <trkpt lat="0" lon="0">
        <time>2021-02-28T09:35:56.450000+00:00</time>
      </trkpt>
      <trkpt lat="0" lon="0">
        <time>2021-02-28T09:35:56.455000+00:00</time>
      </trkpt>
      <trkpt lat="0" lon="0">
        <time>2021-02-28T09:35:56.458000+00:00</time>
      </trkpt>
      <trkpt lat="47.31217" lon="-1.47093">
        <ele>79</ele>
        <time>2021-02-28T09:35:57.503000+00:00</time>
      </trkpt>
      <trkpt lat="0" lon="0">
        <time>2021-02-28T09:35:57.510000+00:00</time>
      </trkpt>
      <trkpt lat="0" lon="0">
        <time>2021-02-28T09:35:57.517000+00:00</time>
      </trkpt>
      <trkpt lat="0" lon="0">
        <time>2021-02-28T09:35:57.520000+00:00</time>
      </trkpt>
      <trkpt lat="47.31212" lon="-1.47101">
        <ele>78</ele>
        <time>2021-02-28T09:35:58.464000+00:00</time>
      </trkpt>
      <trkpt lat="0" lon="0">
        <time>2021-02-28T09:35:58.471000+00:00</time>
      </trkpt>
      <trkpt lat="0" lon="0">
        <time>2021-02-28T09:35:58.477000+00:00</time>
      </trkpt>
      <trkpt lat="0" lon="0">
        <time>2021-02-28T09:35:58.479000+00:00</time>
      </trkpt>
      <trkpt lat="47.31207" lon="-1.4711">
        <ele>77</ele>
        <time>2021-02-28T09:35:59.446000+00:00</time>
      </trkpt>
      <trkpt lat="0" lon="0">
        <time>2021-02-28T09:35:59.457000+00:00</time>
      </trkpt>
      <trkpt lat="0" lon="0">
        <time>2021-02-28T09:35:59.464000+00:00</time>
      </trkpt>
      <trkpt lat="0" lon="0">
        <time>2021-02-28T09:35:59.466000+00:00</time>
      </trkpt>
      <trkpt lat="47.31202" lon="-1.47118">
        <ele>77</ele>
        <time>2021-02-28T09:36:00.448000+00:00</time>
      </trkpt>
      <trkpt lat="0" lon="0">
        <time>2021-02-28T09:36:00.460000+00:00</time>
      </trkpt>
      <trkpt lat="0" lon="0">
        <time>2021-02-28T09:36:00.468000+00:00</time>
      </trkpt>
      <trkpt lat="0" lon="0">
        <time>2021-02-28T09:36:00.475000+00:00</time>
      </trkpt>
      <trkpt lat="47.31197" lon="-1.47127">
        <ele>77</ele>
        <time>2021-02-28T09:36:01.419000+00:00</time>
      </trkpt>
      <trkpt lat="0" lon="0">
        <time>2021-02-28T09:36:01.426000+00:00</time>
      </trkpt>
      <trkpt lat="0" lon="0">
        <time>2021-02-28T09:36:01.431000+00:00</time>
      </trkpt>
      <trkpt lat="0" lon="0">
        <time>2021-02-28T09:36:01.433000+00:00</time>
      </trkpt>
      <trkpt lat="47.31192" lon="-1.47135">
        <ele>77</ele>
        <time>2021-02-28T09:36:02.424000+00:00</time>
      </trkpt>
      <trkpt lat="0" lon="0">
        <time>2021-02-28T09:36:02.432000+00:00</time>
      </trkpt>
      <trkpt lat="0" lon="0">
        <time>2021-02-28T09:36:02.437000+00:00</time>
      </trkpt>
      <trkpt lat="0" lon="0">
        <time>2021-02-28T09:36:02.445000+00:00</time>
      </trkpt>
      <trkpt lat="47.31188" lon="-1.47143">
        <ele>77</ele>
        <time>2021-02-28T09:36:03.469000+00:00</time>
      </trkpt>
      <trkpt lat="0" lon="0">
        <time>2021-02-28T09:36:03.479000+00:00</time>
      </trkpt>
      <trkpt lat="0" lon="0">
        <time>2021-02-28T09:36:03.487000+00:00</time>
      </trkpt>
      <trkpt lat="0" lon="0">
        <time>2021-02-28T09:36:03.491000+00:00</time>
      </trkpt>
      <trkpt lat="47.31183" lon="-1.47151">
        <ele>77</ele>
        <time>2021-02-28T09:36:04.469000+00:00</time>
      </trkpt>
      <trkpt lat="0" lon="0">
        <time>2021-02-28T09:36:04.474000+00:00</time>
      </trkpt>
      <trkpt lat="0" lon="0">
        <time>2021-02-28T09:36:04.479000+00:00</time>
      </trkpt>
      <trkpt lat="0" lon="0">
        <time>2021-02-28T09:36:04.480000+00:00</time>
      </trkpt>
      <trkpt lat="47.31179" lon="-1.47159">
        <ele>77</ele>
        <time>2021-02-28T09:36:05.466000+00:00</time>
      </trkpt>
      <trkpt lat="0" lon="0">
        <time>2021-02-28T09:36:05.475000+00:00</time>
      </trkpt>
      <trkpt lat="0" lon="0">
        <time>2021-02-28T09:36:05.481000+00:00</time>
      </trkpt>
      <trkpt lat="0" lon="0">
        <time>2021-02-28T09:36:05.486000+00:00</time>
      </trkpt>
      <trkpt lat="47.31174" lon="-1.47166">
        <ele>77</ele>
        <time>2021-02-28T09:36:06.434000+00:00</time>
      </trkpt>
      <trkpt lat="0" lon="0">
        <time>2021-02-28T09:36:06.440000+00:00</time>
      </trkpt>
      <trkpt lat="0" lon="0">
        <time>2021-02-28T09:36:06.444000+00:00</time>
      </trkpt>
      <trkpt lat="0" lon="0">
        <time>2021-02-28T09:36:06.446000+00:00</time>
      </trkpt>
      <trkpt lat="47.3117" lon="-1.47174">
        <ele>77</ele>
        <time>2021-02-28T09:36:07.484000+00:00</time>
      </trkpt>
      <trkpt lat="0" lon="0">
        <time>2021-02-28T09:36:07.503000+00:00</time>
      </trkpt>
      <trkpt lat="0" lon="0">
        <time>2021-02-28T09:36:07.514000+00:00</time>
      </trkpt>
      <trkpt lat="0" lon="0">
        <time>2021-02-28T09:36:07.517000+00:00</time>
      </trkpt>
      <trkpt lat="47.31165" lon="-1.47181">
        <ele>77</ele>
        <time>2021-02-28T09:36:08.424000+00:00</time>
      </trkpt>
      <trkpt lat="0" lon="0">
        <time>2021-02-28T09:36:08.430000+00:00</time>
      </trkpt>
      <trkpt lat="0" lon="0">
        <time>2021-02-28T09:36:08.439000+00:00</time>
      </trkpt>
      <trkpt lat="0" lon="0">
        <time>2021-02-28T09:36:08.442000+00:00</time>
      </trkpt>
      <trkpt lat="47.31161" lon="-1.47189">
        <ele>77</ele>
        <time>2021-02-28T09:36:09.471000+00:00</time>
      </trkpt>
      <trkpt lat="0" lon="0">
        <time>2021-02-28T09:36:09.477000+00:00</time>
      </trkpt>
      <trkpt lat="0" lon="0">
        <time>2021-02-28T09:36:09.483000+00:00</time>
      </trkpt>
      <trkpt lat="0" lon="0">
        <time>2021-02-28T09:36:09.488000+00:00</time>
      </trkpt>
      <trkpt lat="47.31157" lon="-1.47196">
        <ele>77</ele>
        <time>2021-02-28T09:36:10.486000+00:00</time>
      </trkpt>
      <trkpt lat="0" lon="0">
        <time>2021-02-28T09:36:10.493000+00:00</time>
      </trkpt>
      <trkpt lat="0" lon="0">
        <time>2021-02-28T09:36:10.499000+00:00</time>
      </trkpt>
      <trkpt lat="0" lon="0">
        <time>2021-02-28T09:36:10.502000+00:00</time>
      </trkpt>
      <trkpt lat="47.31153" lon="-1.47202">
        <ele>77</ele>
        <time>2021-02-28T09:36:11.453000+00:00</time>
      </trkpt>
      <trkpt lat="0" lon="0">
        <time>2021-02-28T09:36:11.466000+00:00</time>
      </trkpt>
      <trkpt lat="0" lon="0">
        <time>2021-02-28T09:36:11.474000+00:00</time>
      </trkpt>
      <trkpt lat="0" lon="0">
        <time>2021-02-28T09:36:11.476000+00:00</time>
      </trkpt>
      <trkpt lat="47.3115" lon="-1.47208">
        <ele>76</ele>
        <time>2021-02-28T09:36:12.456000+00:00</time>
      </trkpt>
      <trkpt lat="0" lon="0">
        <time>2021-02-28T09:36:12.462000+00:00</time>
      </trkpt>
      <trkpt lat="0" lon="0">
        <time>2021-02-28T09:36:12.468000+00:00</time>
      </trkpt>
      <trkpt lat="0" lon="0">
        <time>2021-02-28T09:36:12.471000+00:00</time>
      </trkpt>
      <trkpt lat="47.31146" lon="-1.47213">
        <ele>76</ele>
        <time>2021-02-28T09:36:13.373000+00:00</time>
      </trkpt>
      <trkpt lat="0" lon="0">
        <time>2021-02-28T09:36:13.379000+00:00</time>
      </trkpt>
      <trkpt lat="0" lon="0">
        <time>2021-02-28T09:36:13.384000+00:00</time>
      </trkpt>
      <trkpt lat="0" lon="0">
        <time>2021-02-28T09:36:13.387000+00:00</time>
      </trkpt>
      <trkpt lat="47.31143" lon="-1.47217">
        <ele>76</ele>
        <time>2021-02-28T09:36:14.355000+00:00</time>
      </trkpt>
      <trkpt lat="0" lon="0">
        <time>2021-02-28T09:36:14.366000+00:00</time>
      </trkpt>
      <trkpt lat="0" lon="0">
        <time>2021-02-28T09:36:14.371000+00:00</time>
      </trkpt>
      <trkpt lat="0" lon="0">
        <time>2021-02-28T09:36:14.373000+00:00</time>
      </trkpt>
      <trkpt lat="47.31141" lon="-1.47221">
        <ele>76</ele>
        <time>2021-02-28T09:36:15.394000+00:00</time>
      </trkpt>
      <trkpt lat="0" lon="0">
        <time>2021-02-28T09:36:15.402000+00:00</time>
      </trkpt>
      <trkpt lat="0" lon="0">
        <time>2021-02-28T09:36:15.407000+00:00</time>
      </trkpt>
      <trkpt lat="0" lon="0">
        <time>2021-02-28T09:36:15.409000+00:00</time>
      </trkpt>
      <trkpt lat="47.31138" lon="-1.47224">
        <ele>76</ele>
        <time>2021-02-28T09:36:16.466000+00:00</time>
      </trkpt>
      <trkpt lat="0" lon="0">
        <time>2021-02-28T09:36:16.475000+00:00</time>
      </trkpt>
      <trkpt lat="0" lon="0">
        <time>2021-02-28T09:36:16.479000+00:00</time>
      </trkpt>
      <trkpt lat="0" lon="0">
        <time>2021-02-28T09:36:16.482000+00:00</time>
      </trkpt>
      <trkpt lat="47.31137" lon="-1.47227">
        <ele>76</ele>
        <time>2021-02-28T09:36:17.439000+00:00</time>
      </trkpt>
      <trkpt lat="0" lon="0">
        <time>2021-02-28T09:36:17.450000+00:00</time>
      </trkpt>
      <trkpt lat="0" lon="0">
        <time>2021-02-28T09:36:17.455000+00:00</time>
      </trkpt>
      <trkpt lat="0" lon="0">
        <time>2021-02-28T09:36:17.457000+00:00</time>
      </trkpt>
      <trkpt lat="47.31135" lon="-1.4723">
        <ele>75</ele>
        <time>2021-02-28T09:36:18.464000+00:00</time>
      </trkpt>
      <trkpt lat="0" lon="0">
        <time>2021-02-28T09:36:18.477000+00:00</time>
      </trkpt>
      <trkpt lat="0" lon="0">
        <time>2021-02-28T09:36:18.482000+00:00</time>
      </trkpt>
      <trkpt lat="0" lon="0">
        <time>2021-02-28T09:36:18.486000+00:00</time>
      </trkpt>
      <trkpt lat="47.31133" lon="-1.47233">
        <ele>75</ele>
        <time>2021-02-28T09:36:19.422000+00:00</time>
      </trkpt>
      <trkpt lat="0" lon="0">
        <time>2021-02-28T09:36:19.428000+00:00</time>
      </trkpt>
      <trkpt lat="0" lon="0">
        <time>2021-02-28T09:36:19.432000+00:00</time>
      </trkpt>
      <trkpt lat="0" lon="0">
        <time>2021-02-28T09:36:19.436000+00:00</time>
      </trkpt>
      <trkpt lat="47.31132" lon="-1.47236">
        <ele>75</ele>
        <time>2021-02-28T09:36:20.457000+00:00</time>
      </trkpt>
      <trkpt lat="0" lon="0">
        <time>2021-02-28T09:36:20.464000+00:00</time>
      </trkpt>
      <trkpt lat="0" lon="0">
        <time>2021-02-28T09:36:20.470000+00:00</time>
      </trkpt>
      <trkpt lat="0" lon="0">
        <time>2021-02-28T09:36:20.473000+00:00</time>
      </trkpt>
      <trkpt lat="47.3113" lon="-1.47239">
        <ele>75</ele>
        <time>2021-02-28T09:36:21.426000+00:00</time>
      </trkpt>
      <trkpt lat="0" lon="0">
        <time>2021-02-28T09:36:21.435000+00:00</time>
      </trkpt>
      <trkpt lat="0" lon="0">
        <time>2021-02-28T09:36:21.439000+00:00</time>
      </trkpt>
      <trkpt lat="0" lon="0">
        <time>2021-02-28T09:36:21.441000+00:00</time>
      </trkpt>
      <trkpt lat="47.31128" lon="-1.47242">
        <ele>75</ele>
        <time>2021-02-28T09:36:22.461000+00:00</time>
      </trkpt>
      <trkpt lat="0" lon="0">
        <time>2021-02-28T09:36:22.466000+00:00</time>
      </trkpt>
      <trkpt lat="0" lon="0">
        <time>2021-02-28T09:36:22.471000+00:00</time>
      </trkpt>
      <trkpt lat="0" lon="0">
        <time>2021-02-28T09:36:22.473000+00:00</time>
      </trkpt>
      <trkpt lat="47.31127" lon="-1.47245">
        <ele>75</ele>
        <time>2021-02-28T09:36:23.460000+00:00</time>
      </trkpt>
      <trkpt lat="0" lon="0">
        <time>2021-02-28T09:36:23.466000+00:00</time>
      </trkpt>
      <trkpt lat="0" lon="0">
        <time>2021-02-28T09:36:23.472000+00:00</time>
      </trkpt>
      <trkpt lat="0" lon="0">
        <time>2021-02-28T09:36:23.475000+00:00</time>
      </trkpt>
      <trkpt lat="47.31125" lon="-1.47249">
        <ele>75</ele>
        <time>2021-02-28T09:36:24.406000+00:00</time>
      </trkpt>
      <trkpt lat="0" lon="0">
        <time>2021-02-28T09:36:24.407000+00:00</time>
      </trkpt>
      <trkpt lat="0" lon="0">
        <time>2021-02-28T09:36:24.409000+00:00</time>
      </trkpt>
      <trkpt lat="47.31123" lon="-1.47252">
        <ele>75</ele>
        <time>2021-02-28T09:36:25.419000+00:00</time>
      </trkpt>
      <trkpt lat="0" lon="0">
        <time>2021-02-28T09:36:25.427000+00:00</time>
      </trkpt>
      <trkpt lat="0" lon="0">
        <time>2021-02-28T09:36:25.435000+00:00</time>
      </trkpt>
      <trkpt lat="0" lon="0">
        <time>2021-02-28T09:36:25.437000+00:00</time>
      </trkpt>
      <trkpt lat="47.31122" lon="-1.47255">
        <ele>74</ele>
        <time>2021-02-28T09:36:26.443000+00:00</time>
      </trkpt>
      <trkpt lat="0" lon="0">
        <time>2021-02-28T09:36:26.451000+00:00</time>
      </trkpt>
      <trkpt lat="0" lon="0">
        <time>2021-02-28T09:36:26.456000+00:00</time>
      </trkpt>
      <trkpt lat="0" lon="0">
        <time>2021-02-28T09:36:26.458000+00:00</time>
      </trkpt>
      <trkpt lat="47.31121" lon="-1.47257">
        <ele>74</ele>
        <time>2021-02-28T09:36:27.455000+00:00</time>
      </trkpt>
      <trkpt lat="0" lon="0">
        <time>2021-02-28T09:36:27.464000+00:00</time>
      </trkpt>
      <trkpt lat="0" lon="0">
        <time>2021-02-28T09:36:27.469000+00:00</time>
      </trkpt>
      <trkpt lat="0" lon="0">
        <time>2021-02-28T09:36:27.471000+00:00</time>
      </trkpt>
      <trkpt lat="47.3112" lon="-1.47259">
        <ele>74</ele>
        <time>2021-02-28T09:36:28.435000+00:00</time>
      </trkpt>
      <trkpt lat="0" lon="0">
        <time>2021-02-28T09:36:28.444000+00:00</time>
      </trkpt>
      <trkpt lat="0" lon="0">
        <time>2021-02-28T09:36:28.449000+00:00</time>
      </trkpt>
      <trkpt lat="0" lon="0">
        <time>2021-02-28T09:36:28.452000+00:00</time>
      </trkpt>
      <trkpt lat="47.31119" lon="-1.4726">
        <ele>74</ele>
        <time>2021-02-28T09:36:29.431000+00:00</time>
      </trkpt>
      <trkpt lat="0" lon="0">
        <time>2021-02-28T09:36:29.445000+00:00</time>
      </trkpt>
      <trkpt lat="0" lon="0">
        <time>2021-02-28T09:36:29.453000+00:00</time>
      </trkpt>
      <trkpt lat="0" lon="0">
        <time>2021-02-28T09:36:29.456000+00:00</time>
      </trkpt>
      <trkpt lat="47.31119" lon="-1.47261">
        <ele>74</ele>
        <time>2021-02-28T09:36:30.426000+00:00</time>
      </trkpt>
      <trkpt lat="0" lon="0">
        <time>2021-02-28T09:36:30.439000+00:00</time>
      </trkpt>
      <trkpt lat="0" lon="0">
        <time>2021-02-28T09:36:30.446000+00:00</time>
      </trkpt>
      <trkpt lat="0" lon="0">
        <time>2021-02-28T09:36:30.449000+00:00</time>
      </trkpt>
      <trkpt lat="47.31119" lon="-1.47261">
        <ele>74</ele>
        <time>2021-02-28T09:36:31.442000+00:00</time>
      </trkpt>
      <trkpt lat="0" lon="0">
        <time>2021-02-28T09:36:31.448000+00:00</time>
      </trkpt>
      <trkpt lat="0" lon="0">
        <time>2021-02-28T09:36:31.453000+00:00</time>
      </trkpt>
      <trkpt lat="0" lon="0">
        <time>2021-02-28T09:36:31.457000+00:00</time>
      </trkpt>
      <trkpt lat="47.31119" lon="-1.47261">
        <ele>74</ele>
        <time>2021-02-28T09:36:32.434000+00:00</time>
      </trkpt>
      <trkpt lat="0" lon="0">
        <time>2021-02-28T09:36:32.441000+00:00</time>
      </trkpt>
      <trkpt lat="0" lon="0">
        <time>2021-02-28T09:36:32.447000+00:00</time>
      </trkpt>
      <trkpt lat="0" lon="0">
        <time>2021-02-28T09:36:32.451000+00:00</time>
      </trkpt>
      <trkpt lat="47.31119" lon="-1.47261">
        <ele>74</ele>
        <time>2021-02-28T09:36:33.405000+00:00</time>
      </trkpt>
      <trkpt lat="0" lon="0">
        <time>2021-02-28T09:36:33.415000+00:00</time>
      </trkpt>
      <trkpt lat="0" lon="0">
        <time>2021-02-28T09:36:33.419000+00:00</time>
      </trkpt>
      <trkpt lat="0" lon="0">
        <time>2021-02-28T09:36:33.422000+00:00</time>
      </trkpt>
      <trkpt lat="47.31119" lon="-1.4726">
        <ele>74</ele>
        <time>2021-02-28T09:36:34.440000+00:00</time>
      </trkpt>
      <trkpt lat="0" lon="0">
        <time>2021-02-28T09:36:34.449000+00:00</time>
      </trkpt>
      <trkpt lat="0" lon="0">
        <time>2021-02-28T09:36:34.453000+00:00</time>
      </trkpt>
      <trkpt lat="0" lon="0">
        <time>2021-02-28T09:36:34.456000+00:00</time>
      </trkpt>
      <trkpt lat="47.31119" lon="-1.4726">
        <ele>74</ele>
        <time>2021-02-28T09:36:35.389000+00:00</time>
      </trkpt>
      <trkpt lat="0" lon="0">
        <time>2021-02-28T09:36:35.394000+00:00</time>
      </trkpt>
      <trkpt lat="0" lon="0">
        <time>2021-02-28T09:36:35.398000+00:00</time>
      </trkpt>
      <trkpt lat="0" lon="0">
        <time>2021-02-28T09:36:35.399000+00:00</time>
      </trkpt>
      <trkpt lat="47.3112" lon="-1.47259">
        <ele>74</ele>
        <time>2021-02-28T09:36:36.431000+00:00</time>
      </trkpt>
      <trkpt lat="0" lon="0">
        <time>2021-02-28T09:36:36.449000+00:00</time>
      </trkpt>
      <trkpt lat="0" lon="0">
        <time>2021-02-28T09:36:36.453000+00:00</time>
      </trkpt>
      <trkpt lat="0" lon="0">
        <time>2021-02-28T09:36:36.456000+00:00</time>
      </trkpt>
      <trkpt lat="47.3112" lon="-1.47258">
        <ele>74</ele>
        <time>2021-02-28T09:36:37.417000+00:00</time>
      </trkpt>
      <trkpt lat="0" lon="0">
        <time>2021-02-28T09:36:37.426000+00:00</time>
      </trkpt>
      <trkpt lat="0" lon="0">
        <time>2021-02-28T09:36:37.435000+00:00</time>
      </trkpt>
      <trkpt lat="0" lon="0">
        <time>2021-02-28T09:36:37.437000+00:00</time>
      </trkpt>
      <trkpt lat="47.31121" lon="-1.47258">
        <ele>74</ele>
        <time>2021-02-28T09:36:38.433000+00:00</time>
      </trkpt>
      <trkpt lat="0" lon="0">
        <time>2021-02-28T09:36:38.446000+00:00</time>
      </trkpt>
      <trkpt lat="0" lon="0">
        <time>2021-02-28T09:36:38.451000+00:00</time>
      </trkpt>
      <trkpt lat="0" lon="0">
        <time>2021-02-28T09:36:38.454000+00:00</time>
      </trkpt>
      <trkpt lat="47.31121" lon="-1.47257">
        <ele>74</ele>
        <time>2021-02-28T09:36:39.441000+00:00</time>
      </trkpt>
      <trkpt lat="0" lon="0">
        <time>2021-02-28T09:36:39.449000+00:00</time>
      </trkpt>
      <trkpt lat="0" lon="0">
        <time>2021-02-28T09:36:39.455000+00:00</time>
      </trkpt>
      <trkpt lat="0" lon="0">
        <time>2021-02-28T09:36:39.486000+00:00</time>
      </trkpt>
      <trkpt lat="47.31121" lon="-1.47239">
        <ele>64</ele>
        <time>2021-02-28T09:36:40.369000+00:00</time>
      </trkpt>
      <trkpt lat="0" lon="0">
        <time>2021-02-28T09:36:40.389000+00:00</time>
      </trkpt>
      <trkpt lat="0" lon="0">
        <time>2021-02-28T09:36:40.394000+00:00</time>
      </trkpt>
      <trkpt lat="0" lon="0">
        <time>2021-02-28T09:36:40.396000+00:00</time>
      </trkpt>
      <trkpt lat="47.31121" lon="-1.47237">
        <ele>64</ele>
        <time>2021-02-28T09:36:41.454000+00:00</time>
      </trkpt>
      <trkpt lat="0" lon="0">
        <time>2021-02-28T09:36:41.469000+00:00</time>
      </trkpt>
      <trkpt lat="0" lon="0">
        <time>2021-02-28T09:36:41.471000+00:00</time>
      </trkpt>
      <trkpt lat="0" lon="0">
        <time>2021-02-28T09:36:41.472000+00:00</time>
      </trkpt>
      <trkpt lat="47.31122" lon="-1.47235">
        <ele>64</ele>
        <time>2021-02-28T09:36:42.494000+00:00</time>
      </trkpt>
      <trkpt lat="0" lon="0">
        <time>2021-02-28T09:36:42.502000+00:00</time>
      </trkpt>
      <trkpt lat="0" lon="0">
        <time>2021-02-28T09:36:42.506000+00:00</time>
      </trkpt>
      <trkpt lat="0" lon="0">
        <time>2021-02-28T09:36:42.509000+00:00</time>
      </trkpt>
      <trkpt lat="47.31122" lon="-1.47233">
        <ele>64</ele>
        <time>2021-02-28T09:36:43.479000+00:00</time>
      </trkpt>
      <trkpt lat="0" lon="0">
        <time>2021-02-28T09:36:43.486000+00:00</time>
      </trkpt>
      <trkpt lat="0" lon="0">
        <time>2021-02-28T09:36:43.491000+00:00</time>
      </trkpt>
      <trkpt lat="0" lon="0">
        <time>2021-02-28T09:36:43.494000+00:00</time>
      </trkpt>
      <trkpt lat="47.31123" lon="-1.47232">
        <ele>64</ele>
        <time>2021-02-28T09:36:44.460000+00:00</time>
      </trkpt>
      <trkpt lat="0" lon="0">
        <time>2021-02-28T09:36:44.466000+00:00</time>
      </trkpt>
      <trkpt lat="0" lon="0">
        <time>2021-02-28T09:36:44.471000+00:00</time>
      </trkpt>
      <trkpt lat="0" lon="0">
        <time>2021-02-28T09:36:44.472000+00:00</time>
      </trkpt>
      <trkpt lat="47.31123" lon="-1.47231">
        <ele>64</ele>
        <time>2021-02-28T09:36:45.496000+00:00</time>
      </trkpt>
      <trkpt lat="0" lon="0">
        <time>2021-02-28T09:36:45.502000+00:00</time>
      </trkpt>
      <trkpt lat="0" lon="0">
        <time>2021-02-28T09:36:45.505000+00:00</time>
      </trkpt>
      <trkpt lat="0" lon="0">
        <time>2021-02-28T09:36:45.507000+00:00</time>
      </trkpt>
      <trkpt lat="47.31123" lon="-1.4723">
        <ele>64</ele>
        <time>2021-02-28T09:36:46.441000+00:00</time>
      </trkpt>
      <trkpt lat="0" lon="0">
        <time>2021-02-28T09:36:46.451000+00:00</time>
      </trkpt>
      <trkpt lat="0" lon="0">
        <time>2021-02-28T09:36:46.457000+00:00</time>
      </trkpt>
      <trkpt lat="0" lon="0">
        <time>2021-02-28T09:36:46.460000+00:00</time>
      </trkpt>
      <trkpt lat="47.31123" lon="-1.4723">
        <ele>64</ele>
        <time>2021-02-28T09:36:47.427000+00:00</time>
      </trkpt>
      <trkpt lat="0" lon="0">
        <time>2021-02-28T09:36:47.433000+00:00</time>
      </trkpt>
      <trkpt lat="0" lon="0">
        <time>2021-02-28T09:36:47.437000+00:00</time>
      </trkpt>
      <trkpt lat="0" lon="0">
        <time>2021-02-28T09:36:47.439000+00:00</time>
      </trkpt>
      <trkpt lat="47.31124" lon="-1.4723">
        <ele>64</ele>
        <time>2021-02-28T09:36:48.439000+00:00</time>
      </trkpt>
      <trkpt lat="0" lon="0">
        <time>2021-02-28T09:36:48.446000+00:00</time>
      </trkpt>
      <trkpt lat="0" lon="0">
        <time>2021-02-28T09:36:48.452000+00:00</time>
      </trkpt>
      <trkpt lat="0" lon="0">
        <time>2021-02-28T09:36:48.454000+00:00</time>
      </trkpt>
      <trkpt lat="47.31124" lon="-1.47229">
        <ele>65</ele>
        <time>2021-02-28T09:36:49.466000+00:00</time>
      </trkpt>
      <trkpt lat="0" lon="0">
        <time>2021-02-28T09:36:49.473000+00:00</time>
      </trkpt>
      <trkpt lat="0" lon="0">
        <time>2021-02-28T09:36:49.478000+00:00</time>
      </trkpt>
      <trkpt lat="0" lon="0">
        <time>2021-02-28T09:36:49.480000+00:00</time>
      </trkpt>
      <trkpt lat="47.31124" lon="-1.47229">
        <ele>65</ele>
        <time>2021-02-28T09:36:50.523000+00:00</time>
      </trkpt>
      <trkpt lat="0" lon="0">
        <time>2021-02-28T09:36:50.532000+00:00</time>
      </trkpt>
      <trkpt lat="0" lon="0">
        <time>2021-02-28T09:36:50.538000+00:00</time>
      </trkpt>
      <trkpt lat="0" lon="0">
        <time>2021-02-28T09:36:50.540000+00:00</time>
      </trkpt>
      <trkpt lat="47.31124" lon="-1.47228">
        <ele>65</ele>
        <time>2021-02-28T09:36:51.487000+00:00</time>
      </trkpt>
      <trkpt lat="0" lon="0">
        <time>2021-02-28T09:36:51.491000+00:00</time>
      </trkpt>
      <trkpt lat="0" lon="0">
        <time>2021-02-28T09:36:51.495000+00:00</time>
      </trkpt>
      <trkpt lat="0" lon="0">
        <time>2021-02-28T09:36:51.507000+00:00</time>
      </trkpt>
      <trkpt lat="47.31131" lon="-1.47216">
        <ele>66</ele>
        <time>2021-02-28T09:36:53.476000+00:00</time>
      </trkpt>
      <trkpt lat="0" lon="0">
        <time>2021-02-28T09:36:53.479000+00:00</time>
      </trkpt>
      <trkpt lat="0" lon="0">
        <time>2021-02-28T09:36:53.482000+00:00</time>
      </trkpt>
      <trkpt lat="47.31133" lon="-1.47212">
        <ele>66</ele>
        <time>2021-02-28T09:36:54.495000+00:00</time>
      </trkpt>
      <trkpt lat="0" lon="0">
        <time>2021-02-28T09:36:54.500000+00:00</time>
      </trkpt>
      <trkpt lat="0" lon="0">
        <time>2021-02-28T09:36:54.504000+00:00</time>
      </trkpt>
      <trkpt lat="0" lon="0">
        <time>2021-02-28T09:36:54.506000+00:00</time>
      </trkpt>
      <trkpt lat="47.31136" lon="-1.47208">
        <ele>66</ele>
        <time>2021-02-28T09:36:55.516000+00:00</time>
      </trkpt>
      <trkpt lat="0" lon="0">
        <time>2021-02-28T09:36:55.525000+00:00</time>
      </trkpt>
      <trkpt lat="0" lon="0">
        <time>2021-02-28T09:36:55.534000+00:00</time>
      </trkpt>
      <trkpt lat="0" lon="0">
        <time>2021-02-28T09:36:55.537000+00:00</time>
      </trkpt>
      <trkpt lat="47.31138" lon="-1.47204">
        <ele>66</ele>
        <time>2021-02-28T09:36:56.511000+00:00</time>
      </trkpt>
      <trkpt lat="0" lon="0">
        <time>2021-02-28T09:36:56.515000+00:00</time>
      </trkpt>
      <trkpt lat="0" lon="0">
        <time>2021-02-28T09:36:56.519000+00:00</time>
      </trkpt>
      <trkpt lat="0" lon="0">
        <time>2021-02-28T09:36:56.521000+00:00</time>
      </trkpt>
      <trkpt lat="47.31141" lon="-1.472">
        <ele>66</ele>
        <time>2021-02-28T09:36:57.474000+00:00</time>
      </trkpt>
      <trkpt lat="0" lon="0">
        <time>2021-02-28T09:36:57.484000+00:00</time>
      </trkpt>
      <trkpt lat="0" lon="0">
        <time>2021-02-28T09:36:57.488000+00:00</time>
      </trkpt>
      <trkpt lat="0" lon="0">
        <time>2021-02-28T09:36:57.491000+00:00</time>
      </trkpt>
      <trkpt lat="47.31144" lon="-1.47195">
        <ele>66</ele>
        <time>2021-02-28T09:36:58.400000+00:00</time>
      </trkpt>
      <trkpt lat="0" lon="0">
        <time>2021-02-28T09:36:58.406000+00:00</time>
      </trkpt>
      <trkpt lat="0" lon="0">
        <time>2021-02-28T09:36:58.412000+00:00</time>
      </trkpt>
      <trkpt lat="0" lon="0">
        <time>2021-02-28T09:36:58.415000+00:00</time>
      </trkpt>
      <trkpt lat="47.31147" lon="-1.47191">
        <ele>67</ele>
        <time>2021-02-28T09:36:59.360000+00:00</time>
      </trkpt>
      <trkpt lat="0" lon="0">
        <time>2021-02-28T09:36:59.361000+00:00</time>
      </trkpt>
      <trkpt lat="0" lon="0">
        <time>2021-02-28T09:36:59.363000+00:00</time>
      </trkpt>
      <trkpt lat="0" lon="0">
        <time>2021-02-28T09:36:59.364000+00:00</time>
      </trkpt>
      <trkpt lat="47.3115" lon="-1.47186">
        <ele>68</ele>
        <time>2021-02-28T09:37:00.437000+00:00</time>
      </trkpt>
      <trkpt lat="0" lon="0">
        <time>2021-02-28T09:37:00.446000+00:00</time>
      </trkpt>
      <trkpt lat="0" lon="0">
        <time>2021-02-28T09:37:00.452000+00:00</time>
      </trkpt>
      <trkpt lat="0" lon="0">
        <time>2021-02-28T09:37:00.454000+00:00</time>
      </trkpt>
      <trkpt lat="47.31153" lon="-1.47181">
        <ele>69</ele>
        <time>2021-02-28T09:37:01.479000+00:00</time>
      </trkpt>
      <trkpt lat="0" lon="0">
        <time>2021-02-28T09:37:01.487000+00:00</time>
      </trkpt>
      <trkpt lat="0" lon="0">
        <time>2021-02-28T09:37:01.493000+00:00</time>
      </trkpt>
      <trkpt lat="0" lon="0">
        <time>2021-02-28T09:37:01.495000+00:00</time>
      </trkpt>
      <trkpt lat="47.31156" lon="-1.47175">
        <ele>69</ele>
        <time>2021-02-28T09:37:02.462000+00:00</time>
      </trkpt>
      <trkpt lat="0" lon="0">
        <time>2021-02-28T09:37:02.468000+00:00</time>
      </trkpt>
      <trkpt lat="0" lon="0">
        <time>2021-02-28T09:37:02.473000+00:00</time>
      </trkpt>
      <trkpt lat="0" lon="0">
        <time>2021-02-28T09:37:02.476000+00:00</time>
      </trkpt>
      <trkpt lat="47.31159" lon="-1.4717">
        <ele>70</ele>
        <time>2021-02-28T09:37:03.403000+00:00</time>
      </trkpt>
      <trkpt lat="0" lon="0">
        <time>2021-02-28T09:37:03.409000+00:00</time>
      </trkpt>
      <trkpt lat="0" lon="0">
        <time>2021-02-28T09:37:03.413000+00:00</time>
      </trkpt>
      <trkpt lat="0" lon="0">
        <time>2021-02-28T09:37:03.417000+00:00</time>
      </trkpt>
      <trkpt lat="47.31163" lon="-1.47165">
        <ele>71</ele>
        <time>2021-02-28T09:37:04.413000+00:00</time>
      </trkpt>
      <trkpt lat="0" lon="0">
        <time>2021-02-28T09:37:04.417000+00:00</time>
      </trkpt>
      <trkpt lat="0" lon="0">
        <time>2021-02-28T09:37:04.420000+00:00</time>
      </trkpt>
      <trkpt lat="0" lon="0">
        <time>2021-02-28T09:37:04.422000+00:00</time>
      </trkpt>
      <trkpt lat="47.31166" lon="-1.47159">
        <ele>71</ele>
        <time>2021-02-28T09:37:05.479000+00:00</time>
      </trkpt>
      <trkpt lat="0" lon="0">
        <time>2021-02-28T09:37:05.485000+00:00</time>
      </trkpt>
      <trkpt lat="0" lon="0">
        <time>2021-02-28T09:37:05.490000+00:00</time>
      </trkpt>
      <trkpt lat="0" lon="0">
        <time>2021-02-28T09:37:05.493000+00:00</time>
      </trkpt>
      <trkpt lat="47.31169" lon="-1.47154">
        <ele>71</ele>
        <time>2021-02-28T09:37:06.481000+00:00</time>
      </trkpt>
      <trkpt lat="0" lon="0">
        <time>2021-02-28T09:37:06.487000+00:00</time>
      </trkpt>
      <trkpt lat="0" lon="0">
        <time>2021-02-28T09:37:06.492000+00:00</time>
      </trkpt>
      <trkpt lat="0" lon="0">
        <time>2021-02-28T09:37:06.494000+00:00</time>
      </trkpt>
      <trkpt lat="47.31172" lon="-1.47149">
        <ele>71</ele>
        <time>2021-02-28T09:37:07.505000+00:00</time>
      </trkpt>
      <trkpt lat="0" lon="0">
        <time>2021-02-28T09:37:07.510000+00:00</time>
      </trkpt>
      <trkpt lat="0" lon="0">
        <time>2021-02-28T09:37:07.518000+00:00</time>
      </trkpt>
      <trkpt lat="0" lon="0">
        <time>2021-02-28T09:37:07.521000+00:00</time>
      </trkpt>
      <trkpt lat="47.31175" lon="-1.47144">
        <ele>72</ele>
        <time>2021-02-28T09:37:08.425000+00:00</time>
      </trkpt>
      <trkpt lat="0" lon="0">
        <time>2021-02-28T09:37:08.436000+00:00</time>
      </trkpt>
      <trkpt lat="0" lon="0">
        <time>2021-02-28T09:37:08.442000+00:00</time>
      </trkpt>
      <trkpt lat="0" lon="0">
        <time>2021-02-28T09:37:08.444000+00:00</time>
      </trkpt>
      <trkpt lat="47.31178" lon="-1.47139">
        <ele>72</ele>
        <time>2021-02-28T09:37:09.416000+00:00</time>
      </trkpt>
      <trkpt lat="0" lon="0">
        <time>2021-02-28T09:37:09.426000+00:00</time>
      </trkpt>
      <trkpt lat="0" lon="0">
        <time>2021-02-28T09:37:09.434000+00:00</time>
      </trkpt>
      <trkpt lat="0" lon="0">
        <time>2021-02-28T09:37:09.437000+00:00</time>
      </trkpt>
      <trkpt lat="47.31181" lon="-1.47133">
        <ele>72</ele>
        <time>2021-02-28T09:37:10.421000+00:00</time>
      </trkpt>
      <trkpt lat="0" lon="0">
        <time>2021-02-28T09:37:10.430000+00:00</time>
      </trkpt>
      <trkpt lat="0" lon="0">
        <time>2021-02-28T09:37:10.436000+00:00</time>
      </trkpt>
      <trkpt lat="0" lon="0">
        <time>2021-02-28T09:37:10.439000+00:00</time>
      </trkpt>
      <trkpt lat="47.31184" lon="-1.47128">
        <ele>72</ele>
        <time>2021-02-28T09:37:11.456000+00:00</time>
      </trkpt>
      <trkpt lat="0" lon="0">
        <time>2021-02-28T09:37:11.465000+00:00</time>
      </trkpt>
      <trkpt lat="0" lon="0">
        <time>2021-02-28T09:37:11.469000+00:00</time>
      </trkpt>
      <trkpt lat="0" lon="0">
        <time>2021-02-28T09:37:11.472000+00:00</time>
      </trkpt>
      <trkpt lat="47.31187" lon="-1.47124">
        <ele>72</ele>
        <time>2021-02-28T09:37:12.462000+00:00</time>
      </trkpt>
      <trkpt lat="0" lon="0">
        <time>2021-02-28T09:37:12.468000+00:00</time>
      </trkpt>
      <trkpt lat="0" lon="0">
        <time>2021-02-28T09:37:12.479000+00:00</time>
      </trkpt>
      <trkpt lat="0" lon="0">
        <time>2021-02-28T09:37:12.483000+00:00</time>
      </trkpt>
      <trkpt lat="47.3119" lon="-1.47119">
        <ele>73</ele>
        <time>2021-02-28T09:37:13.447000+00:00</time>
      </trkpt>
      <trkpt lat="0" lon="0">
        <time>2021-02-28T09:37:13.460000+00:00</time>
      </trkpt>
      <trkpt lat="0" lon="0">
        <time>2021-02-28T09:37:13.468000+00:00</time>
      </trkpt>
      <trkpt lat="0" lon="0">
        <time>2021-02-28T09:37:13.471000+00:00</time>
      </trkpt>
      <trkpt lat="47.31193" lon="-1.47114">
        <ele>73</ele>
        <time>2021-02-28T09:37:14.439000+00:00</time>
      </trkpt>
      <trkpt lat="0" lon="0">
        <time>2021-02-28T09:37:14.447000+00:00</time>
      </trkpt>
      <trkpt lat="0" lon="0">
        <time>2021-02-28T09:37:14.453000+00:00</time>
      </trkpt>
      <trkpt lat="0" lon="0">
        <time>2021-02-28T09:37:14.456000+00:00</time>
      </trkpt>
      <trkpt lat="47.31197" lon="-1.47108">
        <ele>74</ele>
        <time>2021-02-28T09:37:15.365000+00:00</time>
      </trkpt>
      <trkpt lat="0" lon="0">
        <time>2021-02-28T09:37:15.373000+00:00</time>
      </trkpt>
      <trkpt lat="0" lon="0">
        <time>2021-02-28T09:37:15.375000+00:00</time>
      </trkpt>
      <trkpt lat="0" lon="0">
        <time>2021-02-28T09:37:15.376000+00:00</time>
      </trkpt>
      <trkpt lat="47.312" lon="-1.47103">
        <ele>74</ele>
        <time>2021-02-28T09:37:16.365000+00:00</time>
      </trkpt>
      <trkpt lat="0" lon="0">
        <time>2021-02-28T09:37:16.375000+00:00</time>
      </trkpt>
      <trkpt lat="0" lon="0">
        <time>2021-02-28T09:37:16.376000+00:00</time>
      </trkpt>
      <trkpt lat="0" lon="0">
        <time>2021-02-28T09:37:16.377000+00:00</time>
      </trkpt>
      <trkpt lat="47.31203" lon="-1.47098">
        <ele>74</ele>
        <time>2021-02-28T09:37:17.377000+00:00</time>
      </trkpt>
      <trkpt lat="0" lon="0">
        <time>2021-02-28T09:37:17.387000+00:00</time>
      </trkpt>
      <trkpt lat="0" lon="0">
        <time>2021-02-28T09:37:17.390000+00:00</time>
      </trkpt>
      <trkpt lat="0" lon="0">
        <time>2021-02-28T09:37:17.392000+00:00</time>
      </trkpt>
      <trkpt lat="47.31207" lon="-1.47093">
        <ele>75</ele>
        <time>2021-02-28T09:37:18.434000+00:00</time>
      </trkpt>
      <trkpt lat="0" lon="0">
        <time>2021-02-28T09:37:18.440000+00:00</time>
      </trkpt>
      <trkpt lat="0" lon="0">
        <time>2021-02-28T09:37:18.445000+00:00</time>
      </trkpt>
      <trkpt lat="0" lon="0">
        <time>2021-02-28T09:37:18.448000+00:00</time>
      </trkpt>
      <trkpt lat="47.3121" lon="-1.47087">
        <ele>75</ele>
        <time>2021-02-28T09:37:19.393000+00:00</time>
      </trkpt>
      <trkpt lat="0" lon="0">
        <time>2021-02-28T09:37:19.399000+00:00</time>
      </trkpt>
      <trkpt lat="0" lon="0">
        <time>2021-02-28T09:37:19.403000+00:00</time>
      </trkpt>
      <trkpt lat="0" lon="0">
        <time>2021-02-28T09:37:19.407000+00:00</time>
      </trkpt>
      <trkpt lat="47.31214" lon="-1.47082">
        <ele>74</ele>
        <time>2021-02-28T09:37:20.444000+00:00</time>
      </trkpt>
      <trkpt lat="0" lon="0">
        <time>2021-02-28T09:37:20.457000+00:00</time>
      </trkpt>
      <trkpt lat="0" lon="0">
        <time>2021-02-28T09:37:20.460000+00:00</time>
      </trkpt>
      <trkpt lat="0" lon="0">
        <time>2021-02-28T09:37:20.463000+00:00</time>
      </trkpt>
      <trkpt lat="47.31217" lon="-1.47077">
        <ele>75</ele>
        <time>2021-02-28T09:37:21.359000+00:00</time>
      </trkpt>
      <trkpt lat="0" lon="0">
        <time>2021-02-28T09:37:21.362000+00:00</time>
      </trkpt>
      <trkpt lat="0" lon="0">
        <time>2021-02-28T09:37:21.368000+00:00</time>
      </trkpt>
      <trkpt lat="0" lon="0">
        <time>2021-02-28T09:37:21.373000+00:00</time>
      </trkpt>
      <trkpt lat="47.31221" lon="-1.47071">
        <ele>75</ele>
        <time>2021-02-28T09:37:22.410000+00:00</time>
      </trkpt>
      <trkpt lat="0" lon="0">
        <time>2021-02-28T09:37:22.414000+00:00</time>
      </trkpt>
      <trkpt lat="0" lon="0">
        <time>2021-02-28T09:37:22.417000+00:00</time>
      </trkpt>
      <trkpt lat="0" lon="0">
        <time>2021-02-28T09:37:22.418000+00:00</time>
      </trkpt>
      <trkpt lat="47.31224" lon="-1.47065">
        <ele>75</ele>
        <time>2021-02-28T09:37:23.433000+00:00</time>
      </trkpt>
      <trkpt lat="0" lon="0">
        <time>2021-02-28T09:37:23.447000+00:00</time>
      </trkpt>
      <trkpt lat="0" lon="0">
        <time>2021-02-28T09:37:23.452000+00:00</time>
      </trkpt>
      <trkpt lat="0" lon="0">
        <time>2021-02-28T09:37:23.455000+00:00</time>
      </trkpt>
      <trkpt lat="47.31227" lon="-1.4706">
        <ele>75</ele>
        <time>2021-02-28T09:37:24.429000+00:00</time>
      </trkpt>
      <trkpt lat="0" lon="0">
        <time>2021-02-28T09:37:24.440000+00:00</time>
      </trkpt>
      <trkpt lat="0" lon="0">
        <time>2021-02-28T09:37:24.448000+00:00</time>
      </trkpt>
      <trkpt lat="0" lon="0">
        <time>2021-02-28T09:37:24.451000+00:00</time>
      </trkpt>
      <trkpt lat="47.3123" lon="-1.47055">
        <ele>75</ele>
        <time>2021-02-28T09:37:25.441000+00:00</time>
      </trkpt>
      <trkpt lat="0" lon="0">
        <time>2021-02-28T09:37:25.451000+00:00</time>
      </trkpt>
      <trkpt lat="0" lon="0">
        <time>2021-02-28T09:37:25.457000+00:00</time>
      </trkpt>
      <trkpt lat="0" lon="0">
        <time>2021-02-28T09:37:25.461000+00:00</time>
      </trkpt>
      <trkpt lat="47.31233" lon="-1.4705">
        <ele>75</ele>
        <time>2021-02-28T09:37:26.429000+00:00</time>
      </trkpt>
      <trkpt lat="0" lon="0">
        <time>2021-02-28T09:37:26.441000+00:00</time>
      </trkpt>
      <trkpt lat="0" lon="0">
        <time>2021-02-28T09:37:26.447000+00:00</time>
      </trkpt>
      <trkpt lat="0" lon="0">
        <time>2021-02-28T09:37:26.449000+00:00</time>
      </trkpt>
      <trkpt lat="47.31236" lon="-1.47045">
        <ele>75</ele>
        <time>2021-02-28T09:37:27.391000+00:00</time>
      </trkpt>
      <trkpt lat="0" lon="0">
        <time>2021-02-28T09:37:27.400000+00:00</time>
      </trkpt>
      <trkpt lat="0" lon="0">
        <time>2021-02-28T09:37:27.405000+00:00</time>
      </trkpt>
      <trkpt lat="0" lon="0">
        <time>2021-02-28T09:37:27.407000+00:00</time>
      </trkpt>
      <trkpt lat="47.31238" lon="-1.47041">
        <ele>76</ele>
        <time>2021-02-28T09:37:28.460000+00:00</time>
      </trkpt>
      <trkpt lat="0" lon="0">
        <time>2021-02-28T09:37:28.469000+00:00</time>
      </trkpt>
      <trkpt lat="0" lon="0">
        <time>2021-02-28T09:37:28.474000+00:00</time>
      </trkpt>
      <trkpt lat="0" lon="0">
        <time>2021-02-28T09:37:28.476000+00:00</time>
      </trkpt>
      <trkpt lat="47.31241" lon="-1.47037">
        <ele>76</ele>
        <time>2021-02-28T09:37:29.434000+00:00</time>
      </trkpt>
      <trkpt lat="0" lon="0">
        <time>2021-02-28T09:37:29.444000+00:00</time>
      </trkpt>
      <trkpt lat="0" lon="0">
        <time>2021-02-28T09:37:29.450000+00:00</time>
      </trkpt>
      <trkpt lat="0" lon="0">
        <time>2021-02-28T09:37:29.453000+00:00</time>
      </trkpt>
      <trkpt lat="47.31243" lon="-1.47033">
        <ele>77</ele>
        <time>2021-02-28T09:37:30.440000+00:00</time>
      </trkpt>
      <trkpt lat="0" lon="0">
        <time>2021-02-28T09:37:30.449000+00:00</time>
      </trkpt>
      <trkpt lat="0" lon="0">
        <time>2021-02-28T09:37:30.453000+00:00</time>
      </trkpt>
      <trkpt lat="0" lon="0">
        <time>2021-02-28T09:37:30.455000+00:00</time>
      </trkpt>
      <trkpt lat="47.31246" lon="-1.47028">
        <ele>77</ele>
        <time>2021-02-28T09:37:31.446000+00:00</time>
      </trkpt>
      <trkpt lat="0" lon="0">
        <time>2021-02-28T09:37:31.461000+00:00</time>
      </trkpt>
      <trkpt lat="0" lon="0">
        <time>2021-02-28T09:37:31.465000+00:00</time>
      </trkpt>
      <trkpt lat="0" lon="0">
        <time>2021-02-28T09:37:31.468000+00:00</time>
      </trkpt>
      <trkpt lat="47.31248" lon="-1.47024">
        <ele>77</ele>
        <time>2021-02-28T09:37:32.444000+00:00</time>
      </trkpt>
      <trkpt lat="0" lon="0">
        <time>2021-02-28T09:37:32.448000+00:00</time>
      </trkpt>
      <trkpt lat="0" lon="0">
        <time>2021-02-28T09:37:32.452000+00:00</time>
      </trkpt>
      <trkpt lat="0" lon="0">
        <time>2021-02-28T09:37:32.455000+00:00</time>
      </trkpt>
      <trkpt lat="47.31251" lon="-1.47019">
        <ele>78</ele>
        <time>2021-02-28T09:37:33.412000+00:00</time>
      </trkpt>
      <trkpt lat="0" lon="0">
        <time>2021-02-28T09:37:33.414000+00:00</time>
      </trkpt>
      <trkpt lat="0" lon="0">
        <time>2021-02-28T09:37:33.416000+00:00</time>
      </trkpt>
      <trkpt lat="0" lon="0">
        <time>2021-02-28T09:37:33.417000+00:00</time>
      </trkpt>
      <trkpt lat="47.31253" lon="-1.47014">
        <ele>78</ele>
        <time>2021-02-28T09:37:34.444000+00:00</time>
      </trkpt>
      <trkpt lat="0" lon="0">
        <time>2021-02-28T09:37:34.453000+00:00</time>
      </trkpt>
      <trkpt lat="0" lon="0">
        <time>2021-02-28T09:37:34.457000+00:00</time>
      </trkpt>
      <trkpt lat="0" lon="0">
        <time>2021-02-28T09:37:34.462000+00:00</time>
      </trkpt>
      <trkpt lat="47.31255" lon="-1.4701">
        <ele>78</ele>
        <time>2021-02-28T09:37:35.435000+00:00</time>
      </trkpt>
      <trkpt lat="0" lon="0">
        <time>2021-02-28T09:37:35.438000+00:00</time>
      </trkpt>
      <trkpt lat="0" lon="0">
        <time>2021-02-28T09:37:35.440000+00:00</time>
      </trkpt>
      <trkpt lat="0" lon="0">
        <time>2021-02-28T09:37:35.441000+00:00</time>
      </trkpt>
      <trkpt lat="47.31258" lon="-1.47004">
        <ele>78</ele>
        <time>2021-02-28T09:37:36.479000+00:00</time>
      </trkpt>
      <trkpt lat="0" lon="0">
        <time>2021-02-28T09:37:36.484000+00:00</time>
      </trkpt>
      <trkpt lat="0" lon="0">
        <time>2021-02-28T09:37:36.489000+00:00</time>
      </trkpt>
      <trkpt lat="0" lon="0">
        <time>2021-02-28T09:37:36.492000+00:00</time>
      </trkpt>
      <trkpt lat="47.31264" lon="-1.46992">
        <ele>78</ele>
        <time>2021-02-28T09:37:38.368000+00:00</time>
      </trkpt>
      <trkpt lat="0" lon="0">
        <time>2021-02-28T09:37:38.370000+00:00</time>
      </trkpt>
      <trkpt lat="0" lon="0">
        <time>2021-02-28T09:37:38.372000+00:00</time>
      </trkpt>
      <trkpt lat="0" lon="0">
        <time>2021-02-28T09:37:38.373000+00:00</time>
      </trkpt>
      <trkpt lat="47.31267" lon="-1.46985">
        <ele>78</ele>
        <time>2021-02-28T09:37:39.388000+00:00</time>
      </trkpt>
      <trkpt lat="0" lon="0">
        <time>2021-02-28T09:37:39.395000+00:00</time>
      </trkpt>
      <trkpt lat="0" lon="0">
        <time>2021-02-28T09:37:39.400000+00:00</time>
      </trkpt>
      <trkpt lat="0" lon="0">
        <time>2021-02-28T09:37:39.403000+00:00</time>
      </trkpt>
      <trkpt lat="47.3127" lon="-1.46978">
        <ele>78</ele>
        <time>2021-02-28T09:37:40.496000+00:00</time>
      </trkpt>
      <trkpt lat="0" lon="0">
        <time>2021-02-28T09:37:40.501000+00:00</time>
      </trkpt>
      <trkpt lat="0" lon="0">
        <time>2021-02-28T09:37:40.505000+00:00</time>
      </trkpt>
      <trkpt lat="0" lon="0">
        <time>2021-02-28T09:37:40.508000+00:00</time>
      </trkpt>
      <trkpt lat="47.31274" lon="-1.46971">
        <ele>78</ele>
        <time>2021-02-28T09:37:41.482000+00:00</time>
      </trkpt>
      <trkpt lat="0" lon="0">
        <time>2021-02-28T09:37:41.488000+00:00</time>
      </trkpt>
      <trkpt lat="0" lon="0">
        <time>2021-02-28T09:37:41.493000+00:00</time>
      </trkpt>
      <trkpt lat="0" lon="0">
        <time>2021-02-28T09:37:41.496000+00:00</time>
      </trkpt>
      <trkpt lat="47.31277" lon="-1.46964">
        <ele>78</ele>
        <time>2021-02-28T09:37:42.501000+00:00</time>
      </trkpt>
      <trkpt lat="0" lon="0">
        <time>2021-02-28T09:37:42.513000+00:00</time>
      </trkpt>
      <trkpt lat="0" lon="0">
        <time>2021-02-28T09:37:42.518000+00:00</time>
      </trkpt>
      <trkpt lat="0" lon="0">
        <time>2021-02-28T09:37:42.520000+00:00</time>
      </trkpt>
      <trkpt lat="47.31281" lon="-1.46957">
        <ele>78</ele>
        <time>2021-02-28T09:37:43.485000+00:00</time>
      </trkpt>
      <trkpt lat="0" lon="0">
        <time>2021-02-28T09:37:43.496000+00:00</time>
      </trkpt>
      <trkpt lat="0" lon="0">
        <time>2021-02-28T09:37:43.502000+00:00</time>
      </trkpt>
      <trkpt lat="0" lon="0">
        <time>2021-02-28T09:37:43.505000+00:00</time>
      </trkpt>
      <trkpt lat="47.31286" lon="-1.4695">
        <ele>79</ele>
        <time>2021-02-28T09:37:44.512000+00:00</time>
      </trkpt>
      <trkpt lat="0" lon="0">
        <time>2021-02-28T09:37:44.523000+00:00</time>
      </trkpt>
      <trkpt lat="0" lon="0">
        <time>2021-02-28T09:37:44.528000+00:00</time>
      </trkpt>
      <trkpt lat="0" lon="0">
        <time>2021-02-28T09:37:44.531000+00:00</time>
      </trkpt>
      <trkpt lat="47.3129" lon="-1.46942">
        <ele>80</ele>
        <time>2021-02-28T09:37:45.492000+00:00</time>
      </trkpt>
      <trkpt lat="0" lon="0">
        <time>2021-02-28T09:37:45.498000+00:00</time>
      </trkpt>
      <trkpt lat="0" lon="0">
        <time>2021-02-28T09:37:45.502000+00:00</time>
      </trkpt>
      <trkpt lat="0" lon="0">
        <time>2021-02-28T09:37:45.504000+00:00</time>
      </trkpt>
      <trkpt lat="47.31295" lon="-1.46935">
        <ele>81</ele>
        <time>2021-02-28T09:37:46.403000+00:00</time>
      </trkpt>
      <trkpt lat="0" lon="0">
        <time>2021-02-28T09:37:46.407000+00:00</time>
      </trkpt>
      <trkpt lat="0" lon="0">
        <time>2021-02-28T09:37:46.413000+00:00</time>
      </trkpt>
      <trkpt lat="0" lon="0">
        <time>2021-02-28T09:37:46.414000+00:00</time>
      </trkpt>
      <trkpt lat="47.313" lon="-1.46928">
        <ele>81</ele>
        <time>2021-02-28T09:37:47.402000+00:00</time>
      </trkpt>
      <trkpt lat="0" lon="0">
        <time>2021-02-28T09:37:47.411000+00:00</time>
      </trkpt>
      <trkpt lat="0" lon="0">
        <time>2021-02-28T09:37:47.415000+00:00</time>
      </trkpt>
      <trkpt lat="0" lon="0">
        <time>2021-02-28T09:37:47.417000+00:00</time>
      </trkpt>
      <trkpt lat="47.31305" lon="-1.46921">
        <ele>81</ele>
        <time>2021-02-28T09:37:48.394000+00:00</time>
      </trkpt>
      <trkpt lat="0" lon="0">
        <time>2021-02-28T09:37:48.407000+00:00</time>
      </trkpt>
      <trkpt lat="0" lon="0">
        <time>2021-02-28T09:37:48.414000+00:00</time>
      </trkpt>
      <trkpt lat="0" lon="0">
        <time>2021-02-28T09:37:48.420000+00:00</time>
      </trkpt>
      <trkpt lat="47.3131" lon="-1.46914">
        <ele>82</ele>
        <time>2021-02-28T09:37:49.373000+00:00</time>
      </trkpt>
      <trkpt lat="0" lon="0">
        <time>2021-02-28T09:37:49.375000+00:00</time>
      </trkpt>
      <trkpt lat="0" lon="0">
        <time>2021-02-28T09:37:49.377000+00:00</time>
      </trkpt>
      <trkpt lat="0" lon="0">
        <time>2021-02-28T09:37:49.379000+00:00</time>
      </trkpt>
      <trkpt lat="47.31314" lon="-1.46907">
        <ele>82</ele>
        <time>2021-02-28T09:37:50.474000+00:00</time>
      </trkpt>
      <trkpt lat="0" lon="0">
        <time>2021-02-28T09:37:50.477000+00:00</time>
      </trkpt>
      <trkpt lat="0" lon="0">
        <time>2021-02-28T09:37:50.482000+00:00</time>
      </trkpt>
      <trkpt lat="0" lon="0">
        <time>2021-02-28T09:37:50.483000+00:00</time>
      </trkpt>
      <trkpt lat="47.31319" lon="-1.469">
        <ele>82</ele>
        <time>2021-02-28T09:37:51.442000+00:00</time>
      </trkpt>
      <trkpt lat="0" lon="0">
        <time>2021-02-28T09:37:51.444000+00:00</time>
      </trkpt>
      <trkpt lat="0" lon="0">
        <time>2021-02-28T09:37:51.451000+00:00</time>
      </trkpt>
      <trkpt lat="0" lon="0">
        <time>2021-02-28T09:37:51.453000+00:00</time>
      </trkpt>
      <trkpt lat="47.31323" lon="-1.46893">
        <ele>82</ele>
        <time>2021-02-28T09:37:52.434000+00:00</time>
      </trkpt>
      <trkpt lat="0" lon="0">
        <time>2021-02-28T09:37:52.442000+00:00</time>
      </trkpt>
      <trkpt lat="0" lon="0">
        <time>2021-02-28T09:37:52.447000+00:00</time>
      </trkpt>
      <trkpt lat="0" lon="0">
        <time>2021-02-28T09:37:52.449000+00:00</time>
      </trkpt>
      <trkpt lat="47.31327" lon="-1.46887">
        <ele>82</ele>
        <time>2021-02-28T09:37:53.471000+00:00</time>
      </trkpt>
      <trkpt lat="0" lon="0">
        <time>2021-02-28T09:37:53.479000+00:00</time>
      </trkpt>
      <trkpt lat="0" lon="0">
        <time>2021-02-28T09:37:53.484000+00:00</time>
      </trkpt>
      <trkpt lat="0" lon="0">
        <time>2021-02-28T09:37:53.487000+00:00</time>
      </trkpt>
      <trkpt lat="47.31331" lon="-1.4688">
        <ele>82</ele>
        <time>2021-02-28T09:37:54.461000+00:00</time>
      </trkpt>
      <trkpt lat="0" lon="0">
        <time>2021-02-28T09:37:54.469000+00:00</time>
      </trkpt>
      <trkpt lat="0" lon="0">
        <time>2021-02-28T09:37:54.474000+00:00</time>
      </trkpt>
      <trkpt lat="0" lon="0">
        <time>2021-02-28T09:37:54.477000+00:00</time>
      </trkpt>
      <trkpt lat="47.31335" lon="-1.46874">
        <ele>82</ele>
        <time>2021-02-28T09:37:55.494000+00:00</time>
      </trkpt>
      <trkpt lat="0" lon="0">
        <time>2021-02-28T09:37:55.505000+00:00</time>
      </trkpt>
      <trkpt lat="0" lon="0">
        <time>2021-02-28T09:37:55.510000+00:00</time>
      </trkpt>
      <trkpt lat="0" lon="0">
        <time>2021-02-28T09:37:55.513000+00:00</time>
      </trkpt>
      <trkpt lat="47.31339" lon="-1.46867">
        <ele>81</ele>
        <time>2021-02-28T09:37:56.500000+00:00</time>
      </trkpt>
      <trkpt lat="0" lon="0">
        <time>2021-02-28T09:37:56.505000+00:00</time>
      </trkpt>
      <trkpt lat="0" lon="0">
        <time>2021-02-28T09:37:56.510000+00:00</time>
      </trkpt>
      <trkpt lat="0" lon="0">
        <time>2021-02-28T09:37:56.513000+00:00</time>
      </trkpt>
      <trkpt lat="47.31342" lon="-1.46861">
        <ele>82</ele>
        <time>2021-02-28T09:37:57.466000+00:00</time>
      </trkpt>
      <trkpt lat="0" lon="0">
        <time>2021-02-28T09:37:57.468000+00:00</time>
      </trkpt>
      <trkpt lat="0" lon="0">
        <time>2021-02-28T09:37:57.471000+00:00</time>
      </trkpt>
      <trkpt lat="0" lon="0">
        <time>2021-02-28T09:37:57.472000+00:00</time>
      </trkpt>
      <trkpt lat="47.31349" lon="-1.46848">
        <ele>81</ele>
        <time>2021-02-28T09:37:59.468000+00:00</time>
      </trkpt>
      <trkpt lat="0" lon="0">
        <time>2021-02-28T09:37:59.475000+00:00</time>
      </trkpt>
      <trkpt lat="0" lon="0">
        <time>2021-02-28T09:37:59.479000+00:00</time>
      </trkpt>
      <trkpt lat="0" lon="0">
        <time>2021-02-28T09:37:59.481000+00:00</time>
      </trkpt>
      <trkpt lat="47.31352" lon="-1.46841">
        <ele>81</ele>
        <time>2021-02-28T09:38:00.484000+00:00</time>
      </trkpt>
      <trkpt lat="0" lon="0">
        <time>2021-02-28T09:38:00.489000+00:00</time>
      </trkpt>
      <trkpt lat="0" lon="0">
        <time>2021-02-28T09:38:00.493000+00:00</time>
      </trkpt>
      <trkpt lat="0" lon="0">
        <time>2021-02-28T09:38:00.495000+00:00</time>
      </trkpt>
      <trkpt lat="47.31355" lon="-1.46835">
        <ele>81</ele>
        <time>2021-02-28T09:38:01.484000+00:00</time>
      </trkpt>
      <trkpt lat="0" lon="0">
        <time>2021-02-28T09:38:01.488000+00:00</time>
      </trkpt>
      <trkpt lat="0" lon="0">
        <time>2021-02-28T09:38:01.493000+00:00</time>
      </trkpt>
      <trkpt lat="0" lon="0">
        <time>2021-02-28T09:38:01.495000+00:00</time>
      </trkpt>
      <trkpt lat="47.31358" lon="-1.46828">
        <ele>81</ele>
        <time>2021-02-28T09:38:02.474000+00:00</time>
      </trkpt>
      <trkpt lat="0" lon="0">
        <time>2021-02-28T09:38:02.481000+00:00</time>
      </trkpt>
      <trkpt lat="0" lon="0">
        <time>2021-02-28T09:38:02.486000+00:00</time>
      </trkpt>
      <trkpt lat="0" lon="0">
        <time>2021-02-28T09:38:02.496000+00:00</time>
      </trkpt>
      <trkpt lat="47.31361" lon="-1.46821">
        <ele>81</ele>
        <time>2021-02-28T09:38:03.494000+00:00</time>
      </trkpt>
      <trkpt lat="0" lon="0">
        <time>2021-02-28T09:38:03.507000+00:00</time>
      </trkpt>
      <trkpt lat="0" lon="0">
        <time>2021-02-28T09:38:03.512000+00:00</time>
      </trkpt>
      <trkpt lat="0" lon="0">
        <time>2021-02-28T09:38:03.515000+00:00</time>
      </trkpt>
      <trkpt lat="47.31364" lon="-1.46815">
        <ele>82</ele>
        <time>2021-02-28T09:38:04.499000+00:00</time>
      </trkpt>
      <trkpt lat="0" lon="0">
        <time>2021-02-28T09:38:04.511000+00:00</time>
      </trkpt>
      <trkpt lat="0" lon="0">
        <time>2021-02-28T09:38:04.518000+00:00</time>
      </trkpt>
      <trkpt lat="0" lon="0">
        <time>2021-02-28T09:38:04.521000+00:00</time>
      </trkpt>
      <trkpt lat="47.31368" lon="-1.46808">
        <ele>82</ele>
        <time>2021-02-28T09:38:05.488000+00:00</time>
      </trkpt>
      <trkpt lat="0" lon="0">
        <time>2021-02-28T09:38:05.497000+00:00</time>
      </trkpt>
      <trkpt lat="0" lon="0">
        <time>2021-02-28T09:38:05.504000+00:00</time>
      </trkpt>
      <trkpt lat="0" lon="0">
        <time>2021-02-28T09:38:05.507000+00:00</time>
      </trkpt>
      <trkpt lat="47.31371" lon="-1.46802">
        <ele>83</ele>
        <time>2021-02-28T09:38:06.430000+00:00</time>
      </trkpt>
      <trkpt lat="0" lon="0">
        <time>2021-02-28T09:38:06.440000+00:00</time>
      </trkpt>
      <trkpt lat="0" lon="0">
        <time>2021-02-28T09:38:06.445000+00:00</time>
      </trkpt>
      <trkpt lat="0" lon="0">
        <time>2021-02-28T09:38:06.450000+00:00</time>
      </trkpt>
      <trkpt lat="47.31375" lon="-1.46795">
        <ele>83</ele>
        <time>2021-02-28T09:38:07.483000+00:00</time>
      </trkpt>
      <trkpt lat="0" lon="0">
        <time>2021-02-28T09:38:07.496000+00:00</time>
      </trkpt>
      <trkpt lat="0" lon="0">
        <time>2021-02-28T09:38:07.499000+00:00</time>
      </trkpt>
      <trkpt lat="0" lon="0">
        <time>2021-02-28T09:38:07.504000+00:00</time>
      </trkpt>
      <trkpt lat="47.31378" lon="-1.46789">
        <ele>83</ele>
        <time>2021-02-28T09:38:08.472000+00:00</time>
      </trkpt>
      <trkpt lat="0" lon="0">
        <time>2021-02-28T09:38:08.477000+00:00</time>
      </trkpt>
      <trkpt lat="0" lon="0">
        <time>2021-02-28T09:38:08.481000+00:00</time>
      </trkpt>
      <trkpt lat="0" lon="0">
        <time>2021-02-28T09:38:08.482000+00:00</time>
      </trkpt>
      <trkpt lat="47.31382" lon="-1.46783">
        <ele>84</ele>
        <time>2021-02-28T09:38:09.419000+00:00</time>
      </trkpt>
      <trkpt lat="0" lon="0">
        <time>2021-02-28T09:38:09.430000+00:00</time>
      </trkpt>
      <trkpt lat="0" lon="0">
        <time>2021-02-28T09:38:09.434000+00:00</time>
      </trkpt>
      <trkpt lat="0" lon="0">
        <time>2021-02-28T09:38:09.436000+00:00</time>
      </trkpt>
      <trkpt lat="47.31385" lon="-1.46777">
        <ele>84</ele>
        <time>2021-02-28T09:38:10.445000+00:00</time>
      </trkpt>
      <trkpt lat="0" lon="0">
        <time>2021-02-28T09:38:10.453000+00:00</time>
      </trkpt>
      <trkpt lat="0" lon="0">
        <time>2021-02-28T09:38:10.459000+00:00</time>
      </trkpt>
      <trkpt lat="0" lon="0">
        <time>2021-02-28T09:38:10.462000+00:00</time>
      </trkpt>
      <trkpt lat="47.31389" lon="-1.46771">
        <ele>85</ele>
        <time>2021-02-28T09:38:11.465000+00:00</time>
      </trkpt>
      <trkpt lat="0" lon="0">
        <time>2021-02-28T09:38:11.477000+00:00</time>
      </trkpt>
      <trkpt lat="0" lon="0">
        <time>2021-02-28T09:38:11.482000+00:00</time>
      </trkpt>
      <trkpt lat="0" lon="0">
        <time>2021-02-28T09:38:11.486000+00:00</time>
      </trkpt>
      <trkpt lat="47.31393" lon="-1.46765">
        <ele>85</ele>
        <time>2021-02-28T09:38:12.496000+00:00</time>
      </trkpt>
      <trkpt lat="0" lon="0">
        <time>2021-02-28T09:38:12.501000+00:00</time>
      </trkpt>
      <trkpt lat="0" lon="0">
        <time>2021-02-28T09:38:12.506000+00:00</time>
      </trkpt>
      <trkpt lat="0" lon="0">
        <time>2021-02-28T09:38:12.509000+00:00</time>
      </trkpt>
      <trkpt lat="47.31397" lon="-1.46759">
        <ele>85</ele>
        <time>2021-02-28T09:38:13.513000+00:00</time>
      </trkpt>
      <trkpt lat="0" lon="0">
        <time>2021-02-28T09:38:13.517000+00:00</time>
      </trkpt>
      <trkpt lat="0" lon="0">
        <time>2021-02-28T09:38:13.519000+00:00</time>
      </trkpt>
      <trkpt lat="0" lon="0">
        <time>2021-02-28T09:38:13.520000+00:00</time>
      </trkpt>
      <trkpt lat="47.31401" lon="-1.46753">
        <ele>85</ele>
        <time>2021-02-28T09:38:14.452000+00:00</time>
      </trkpt>
      <trkpt lat="0" lon="0">
        <time>2021-02-28T09:38:14.461000+00:00</time>
      </trkpt>
      <trkpt lat="0" lon="0">
        <time>2021-02-28T09:38:14.465000+00:00</time>
      </trkpt>
      <trkpt lat="0" lon="0">
        <time>2021-02-28T09:38:14.468000+00:00</time>
      </trkpt>
      <trkpt lat="47.31405" lon="-1.46747">
        <ele>85</ele>
        <time>2021-02-28T09:38:15.463000+00:00</time>
      </trkpt>
      <trkpt lat="0" lon="0">
        <time>2021-02-28T09:38:15.474000+00:00</time>
      </trkpt>
      <trkpt lat="0" lon="0">
        <time>2021-02-28T09:38:15.479000+00:00</time>
      </trkpt>
      <trkpt lat="0" lon="0">
        <time>2021-02-28T09:38:15.481000+00:00</time>
      </trkpt>
      <trkpt lat="47.31409" lon="-1.46741">
        <ele>85</ele>
        <time>2021-02-28T09:38:16.498000+00:00</time>
      </trkpt>
      <trkpt lat="0" lon="0">
        <time>2021-02-28T09:38:16.512000+00:00</time>
      </trkpt>
      <trkpt lat="0" lon="0">
        <time>2021-02-28T09:38:16.516000+00:00</time>
      </trkpt>
      <trkpt lat="0" lon="0">
        <time>2021-02-28T09:38:16.518000+00:00</time>
      </trkpt>
      <trkpt lat="47.31413" lon="-1.46735">
        <ele>85</ele>
        <time>2021-02-28T09:38:17.484000+00:00</time>
      </trkpt>
      <trkpt lat="0" lon="0">
        <time>2021-02-28T09:38:17.490000+00:00</time>
      </trkpt>
      <trkpt lat="0" lon="0">
        <time>2021-02-28T09:38:17.495000+00:00</time>
      </trkpt>
      <trkpt lat="0" lon="0">
        <time>2021-02-28T09:38:17.498000+00:00</time>
      </trkpt>
      <trkpt lat="47.31417" lon="-1.4673">
        <ele>84</ele>
        <time>2021-02-28T09:38:18.499000+00:00</time>
      </trkpt>
      <trkpt lat="0" lon="0">
        <time>2021-02-28T09:38:18.505000+00:00</time>
      </trkpt>
      <trkpt lat="0" lon="0">
        <time>2021-02-28T09:38:18.510000+00:00</time>
      </trkpt>
      <trkpt lat="0" lon="0">
        <time>2021-02-28T09:38:18.514000+00:00</time>
      </trkpt>
      <trkpt lat="47.31421" lon="-1.46724">
        <ele>84</ele>
        <time>2021-02-28T09:38:19.493000+00:00</time>
      </trkpt>
      <trkpt lat="0" lon="0">
        <time>2021-02-28T09:38:19.501000+00:00</time>
      </trkpt>
      <trkpt lat="0" lon="0">
        <time>2021-02-28T09:38:19.508000+00:00</time>
      </trkpt>
      <trkpt lat="0" lon="0">
        <time>2021-02-28T09:38:19.511000+00:00</time>
      </trkpt>
      <trkpt lat="47.31425" lon="-1.46718">
        <ele>84</ele>
        <time>2021-02-28T09:38:20.497000+00:00</time>
      </trkpt>
      <trkpt lat="0" lon="0">
        <time>2021-02-28T09:38:20.505000+00:00</time>
      </trkpt>
      <trkpt lat="0" lon="0">
        <time>2021-02-28T09:38:20.509000+00:00</time>
      </trkpt>
      <trkpt lat="0" lon="0">
        <time>2021-02-28T09:38:20.512000+00:00</time>
      </trkpt>
      <trkpt lat="47.31429" lon="-1.46712">
        <ele>84</ele>
        <time>2021-02-28T09:38:21.488000+00:00</time>
      </trkpt>
      <trkpt lat="0" lon="0">
        <time>2021-02-28T09:38:21.498000+00:00</time>
      </trkpt>
      <trkpt lat="0" lon="0">
        <time>2021-02-28T09:38:21.502000+00:00</time>
      </trkpt>
      <trkpt lat="0" lon="0">
        <time>2021-02-28T09:38:21.504000+00:00</time>
      </trkpt>
      <trkpt lat="47.31433" lon="-1.46706">
        <ele>84</ele>
        <time>2021-02-28T09:38:22.507000+00:00</time>
      </trkpt>
      <trkpt lat="0" lon="0">
        <time>2021-02-28T09:38:22.523000+00:00</time>
      </trkpt>
      <trkpt lat="0" lon="0">
        <time>2021-02-28T09:38:22.529000+00:00</time>
      </trkpt>
      <trkpt lat="0" lon="0">
        <time>2021-02-28T09:38:22.533000+00:00</time>
      </trkpt>
      <trkpt lat="47.31437" lon="-1.46699">
        <ele>84</ele>
        <time>2021-02-28T09:38:23.509000+00:00</time>
      </trkpt>
      <trkpt lat="0" lon="0">
        <time>2021-02-28T09:38:23.517000+00:00</time>
      </trkpt>
      <trkpt lat="0" lon="0">
        <time>2021-02-28T09:38:23.523000+00:00</time>
      </trkpt>
      <trkpt lat="0" lon="0">
        <time>2021-02-28T09:38:23.526000+00:00</time>
      </trkpt>
      <trkpt lat="47.3144" lon="-1.46693">
        <ele>85</ele>
        <time>2021-02-28T09:38:24.501000+00:00</time>
      </trkpt>
      <trkpt lat="0" lon="0">
        <time>2021-02-28T09:38:24.508000+00:00</time>
      </trkpt>
      <trkpt lat="0" lon="0">
        <time>2021-02-28T09:38:24.513000+00:00</time>
      </trkpt>
      <trkpt lat="0" lon="0">
        <time>2021-02-28T09:38:24.516000+00:00</time>
      </trkpt>
      <trkpt lat="47.31444" lon="-1.46687">
        <ele>85</ele>
        <time>2021-02-28T09:38:25.518000+00:00</time>
      </trkpt>
      <trkpt lat="0" lon="0">
        <time>2021-02-28T09:38:25.537000+00:00</time>
      </trkpt>
      <trkpt lat="0" lon="0">
        <time>2021-02-28T09:38:25.543000+00:00</time>
      </trkpt>
      <trkpt lat="0" lon="0">
        <time>2021-02-28T09:38:25.545000+00:00</time>
      </trkpt>
      <trkpt lat="47.31447" lon="-1.46681">
        <ele>85</ele>
        <time>2021-02-28T09:38:26.454000+00:00</time>
      </trkpt>
      <trkpt lat="0" lon="0">
        <time>2021-02-28T09:38:26.459000+00:00</time>
      </trkpt>
      <trkpt lat="0" lon="0">
        <time>2021-02-28T09:38:26.465000+00:00</time>
      </trkpt>
      <trkpt lat="0" lon="0">
        <time>2021-02-28T09:38:26.468000+00:00</time>
      </trkpt>
      <trkpt lat="47.31451" lon="-1.46675">
        <ele>85</ele>
        <time>2021-02-28T09:38:27.477000+00:00</time>
      </trkpt>
      <trkpt lat="0" lon="0">
        <time>2021-02-28T09:38:27.486000+00:00</time>
      </trkpt>
      <trkpt lat="0" lon="0">
        <time>2021-02-28T09:38:27.490000+00:00</time>
      </trkpt>
      <trkpt lat="0" lon="0">
        <time>2021-02-28T09:38:27.492000+00:00</time>
      </trkpt>
      <trkpt lat="47.31454" lon="-1.46668">
        <ele>85</ele>
        <time>2021-02-28T09:38:28.485000+00:00</time>
      </trkpt>
      <trkpt lat="0" lon="0">
        <time>2021-02-28T09:38:28.497000+00:00</time>
      </trkpt>
      <trkpt lat="0" lon="0">
        <time>2021-02-28T09:38:28.505000+00:00</time>
      </trkpt>
      <trkpt lat="0" lon="0">
        <time>2021-02-28T09:38:28.508000+00:00</time>
      </trkpt>
      <trkpt lat="47.31458" lon="-1.46662">
        <ele>85</ele>
        <time>2021-02-28T09:38:29.466000+00:00</time>
      </trkpt>
      <trkpt lat="0" lon="0">
        <time>2021-02-28T09:38:29.478000+00:00</time>
      </trkpt>
      <trkpt lat="0" lon="0">
        <time>2021-02-28T09:38:29.488000+00:00</time>
      </trkpt>
      <trkpt lat="0" lon="0">
        <time>2021-02-28T09:38:29.495000+00:00</time>
      </trkpt>
      <trkpt lat="47.31461" lon="-1.46655">
        <ele>85</ele>
        <time>2021-02-28T09:38:30.524000+00:00</time>
      </trkpt>
      <trkpt lat="0" lon="0">
        <time>2021-02-28T09:38:30.538000+00:00</time>
      </trkpt>
      <trkpt lat="0" lon="0">
        <time>2021-02-28T09:38:30.546000+00:00</time>
      </trkpt>
      <trkpt lat="0" lon="0">
        <time>2021-02-28T09:38:30.550000+00:00</time>
      </trkpt>
      <trkpt lat="47.31465" lon="-1.46649">
        <ele>85</ele>
        <time>2021-02-28T09:38:31.487000+00:00</time>
      </trkpt>
      <trkpt lat="0" lon="0">
        <time>2021-02-28T09:38:31.490000+00:00</time>
      </trkpt>
      <trkpt lat="0" lon="0">
        <time>2021-02-28T09:38:31.494000+00:00</time>
      </trkpt>
      <trkpt lat="0" lon="0">
        <time>2021-02-28T09:38:31.495000+00:00</time>
      </trkpt>
      <trkpt lat="47.31469" lon="-1.46642">
        <ele>84</ele>
        <time>2021-02-28T09:38:32.474000+00:00</time>
      </trkpt>
      <trkpt lat="0" lon="0">
        <time>2021-02-28T09:38:32.481000+00:00</time>
      </trkpt>
      <trkpt lat="0" lon="0">
        <time>2021-02-28T09:38:32.487000+00:00</time>
      </trkpt>
      <trkpt lat="0" lon="0">
        <time>2021-02-28T09:38:32.489000+00:00</time>
      </trkpt>
      <trkpt lat="47.31472" lon="-1.46635">
        <ele>84</ele>
        <time>2021-02-28T09:38:33.443000+00:00</time>
      </trkpt>
      <trkpt lat="0" lon="0">
        <time>2021-02-28T09:38:33.456000+00:00</time>
      </trkpt>
      <trkpt lat="0" lon="0">
        <time>2021-02-28T09:38:33.460000+00:00</time>
      </trkpt>
      <trkpt lat="0" lon="0">
        <time>2021-02-28T09:38:33.462000+00:00</time>
      </trkpt>
      <trkpt lat="47.31476" lon="-1.46629">
        <ele>84</ele>
        <time>2021-02-28T09:38:34.468000+00:00</time>
      </trkpt>
      <trkpt lat="0" lon="0">
        <time>2021-02-28T09:38:34.476000+00:00</time>
      </trkpt>
      <trkpt lat="0" lon="0">
        <time>2021-02-28T09:38:34.481000+00:00</time>
      </trkpt>
      <trkpt lat="0" lon="0">
        <time>2021-02-28T09:38:34.484000+00:00</time>
      </trkpt>
      <trkpt lat="47.3148" lon="-1.46623">
        <ele>84</ele>
        <time>2021-02-28T09:38:35.497000+00:00</time>
      </trkpt>
      <trkpt lat="0" lon="0">
        <time>2021-02-28T09:38:35.506000+00:00</time>
      </trkpt>
      <trkpt lat="0" lon="0">
        <time>2021-02-28T09:38:35.514000+00:00</time>
      </trkpt>
      <trkpt lat="0" lon="0">
        <time>2021-02-28T09:38:35.517000+00:00</time>
      </trkpt>
      <trkpt lat="47.31484" lon="-1.46616">
        <ele>84</ele>
        <time>2021-02-28T09:38:36.513000+00:00</time>
      </trkpt>
      <trkpt lat="0" lon="0">
        <time>2021-02-28T09:38:36.529000+00:00</time>
      </trkpt>
      <trkpt lat="0" lon="0">
        <time>2021-02-28T09:38:36.535000+00:00</time>
      </trkpt>
      <trkpt lat="0" lon="0">
        <time>2021-02-28T09:38:36.538000+00:00</time>
      </trkpt>
      <trkpt lat="47.31488" lon="-1.4661">
        <ele>84</ele>
        <time>2021-02-28T09:38:37.455000+00:00</time>
      </trkpt>
      <trkpt lat="0" lon="0">
        <time>2021-02-28T09:38:37.463000+00:00</time>
      </trkpt>
      <trkpt lat="0" lon="0">
        <time>2021-02-28T09:38:37.469000+00:00</time>
      </trkpt>
      <trkpt lat="0" lon="0">
        <time>2021-02-28T09:38:37.473000+00:00</time>
      </trkpt>
      <trkpt lat="47.31491" lon="-1.46603">
        <ele>84</ele>
        <time>2021-02-28T09:38:38.432000+00:00</time>
      </trkpt>
      <trkpt lat="0" lon="0">
        <time>2021-02-28T09:38:38.438000+00:00</time>
      </trkpt>
      <trkpt lat="0" lon="0">
        <time>2021-02-28T09:38:38.442000+00:00</time>
      </trkpt>
      <trkpt lat="0" lon="0">
        <time>2021-02-28T09:38:38.444000+00:00</time>
      </trkpt>
      <trkpt lat="47.31495" lon="-1.46597">
        <ele>84</ele>
        <time>2021-02-28T09:38:39.468000+00:00</time>
      </trkpt>
      <trkpt lat="0" lon="0">
        <time>2021-02-28T09:38:39.475000+00:00</time>
      </trkpt>
      <trkpt lat="0" lon="0">
        <time>2021-02-28T09:38:39.479000+00:00</time>
      </trkpt>
      <trkpt lat="0" lon="0">
        <time>2021-02-28T09:38:39.481000+00:00</time>
      </trkpt>
      <trkpt lat="47.31499" lon="-1.4659">
        <ele>84</ele>
        <time>2021-02-28T09:38:40.480000+00:00</time>
      </trkpt>
      <trkpt lat="0" lon="0">
        <time>2021-02-28T09:38:40.504000+00:00</time>
      </trkpt>
      <trkpt lat="0" lon="0">
        <time>2021-02-28T09:38:40.506000+00:00</time>
      </trkpt>
      <trkpt lat="0" lon="0">
        <time>2021-02-28T09:38:40.507000+00:00</time>
      </trkpt>
      <trkpt lat="47.31503" lon="-1.46584">
        <ele>84</ele>
        <time>2021-02-28T09:38:41.509000+00:00</time>
      </trkpt>
      <trkpt lat="0" lon="0">
        <time>2021-02-28T09:38:41.524000+00:00</time>
      </trkpt>
      <trkpt lat="0" lon="0">
        <time>2021-02-28T09:38:41.532000+00:00</time>
      </trkpt>
      <trkpt lat="0" lon="0">
        <time>2021-02-28T09:38:41.536000+00:00</time>
      </trkpt>
      <trkpt lat="47.31507" lon="-1.46578">
        <ele>84</ele>
        <time>2021-02-28T09:38:42.474000+00:00</time>
      </trkpt>
      <trkpt lat="0" lon="0">
        <time>2021-02-28T09:38:42.480000+00:00</time>
      </trkpt>
      <trkpt lat="0" lon="0">
        <time>2021-02-28T09:38:42.485000+00:00</time>
      </trkpt>
      <trkpt lat="0" lon="0">
        <time>2021-02-28T09:38:42.488000+00:00</time>
      </trkpt>
      <trkpt lat="47.3151" lon="-1.46572">
        <ele>84</ele>
        <time>2021-02-28T09:38:43.456000+00:00</time>
      </trkpt>
      <trkpt lat="0" lon="0">
        <time>2021-02-28T09:38:43.467000+00:00</time>
      </trkpt>
      <trkpt lat="0" lon="0">
        <time>2021-02-28T09:38:43.471000+00:00</time>
      </trkpt>
      <trkpt lat="0" lon="0">
        <time>2021-02-28T09:38:43.473000+00:00</time>
      </trkpt>
      <trkpt lat="47.31514" lon="-1.46566">
        <ele>85</ele>
        <time>2021-02-28T09:38:44.507000+00:00</time>
      </trkpt>
      <trkpt lat="0" lon="0">
        <time>2021-02-28T09:38:44.514000+00:00</time>
      </trkpt>
      <trkpt lat="0" lon="0">
        <time>2021-02-28T09:38:44.519000+00:00</time>
      </trkpt>
      <trkpt lat="0" lon="0">
        <time>2021-02-28T09:38:44.521000+00:00</time>
      </trkpt>
      <trkpt lat="47.31518" lon="-1.4656">
        <ele>84</ele>
        <time>2021-02-28T09:38:45.485000+00:00</time>
      </trkpt>
      <trkpt lat="0" lon="0">
        <time>2021-02-28T09:38:45.494000+00:00</time>
      </trkpt>
      <trkpt lat="0" lon="0">
        <time>2021-02-28T09:38:45.499000+00:00</time>
      </trkpt>
      <trkpt lat="0" lon="0">
        <time>2021-02-28T09:38:45.501000+00:00</time>
      </trkpt>
      <trkpt lat="47.31523" lon="-1.46555">
        <ele>84</ele>
        <time>2021-02-28T09:38:46.469000+00:00</time>
      </trkpt>
      <trkpt lat="0" lon="0">
        <time>2021-02-28T09:38:46.482000+00:00</time>
      </trkpt>
      <trkpt lat="0" lon="0">
        <time>2021-02-28T09:38:46.487000+00:00</time>
      </trkpt>
      <trkpt lat="0" lon="0">
        <time>2021-02-28T09:38:46.489000+00:00</time>
      </trkpt>
      <trkpt lat="47.31527" lon="-1.46549">
        <ele>84</ele>
        <time>2021-02-28T09:38:47.476000+00:00</time>
      </trkpt>
      <trkpt lat="0" lon="0">
        <time>2021-02-28T09:38:47.482000+00:00</time>
      </trkpt>
      <trkpt lat="0" lon="0">
        <time>2021-02-28T09:38:47.488000+00:00</time>
      </trkpt>
      <trkpt lat="0" lon="0">
        <time>2021-02-28T09:38:47.490000+00:00</time>
      </trkpt>
      <trkpt lat="47.3153" lon="-1.46543">
        <ele>84</ele>
        <time>2021-02-28T09:38:48.463000+00:00</time>
      </trkpt>
      <trkpt lat="0" lon="0">
        <time>2021-02-28T09:38:48.473000+00:00</time>
      </trkpt>
      <trkpt lat="0" lon="0">
        <time>2021-02-28T09:38:48.478000+00:00</time>
      </trkpt>
      <trkpt lat="0" lon="0">
        <time>2021-02-28T09:38:48.480000+00:00</time>
      </trkpt>
      <trkpt lat="47.31534" lon="-1.46538">
        <ele>83</ele>
        <time>2021-02-28T09:38:49.500000+00:00</time>
      </trkpt>
      <trkpt lat="0" lon="0">
        <time>2021-02-28T09:38:49.508000+00:00</time>
      </trkpt>
      <trkpt lat="0" lon="0">
        <time>2021-02-28T09:38:49.517000+00:00</time>
      </trkpt>
      <trkpt lat="0" lon="0">
        <time>2021-02-28T09:38:49.521000+00:00</time>
      </trkpt>
      <trkpt lat="47.31538" lon="-1.46532">
        <ele>83</ele>
        <time>2021-02-28T09:38:50.460000+00:00</time>
      </trkpt>
      <trkpt lat="0" lon="0">
        <time>2021-02-28T09:38:50.469000+00:00</time>
      </trkpt>
      <trkpt lat="0" lon="0">
        <time>2021-02-28T09:38:50.472000+00:00</time>
      </trkpt>
      <trkpt lat="0" lon="0">
        <time>2021-02-28T09:38:50.473000+00:00</time>
      </trkpt>
      <trkpt lat="47.31542" lon="-1.46526">
        <ele>84</ele>
        <time>2021-02-28T09:38:51.440000+00:00</time>
      </trkpt>
      <trkpt lat="0" lon="0">
        <time>2021-02-28T09:38:51.448000+00:00</time>
      </trkpt>
      <trkpt lat="0" lon="0">
        <time>2021-02-28T09:38:51.453000+00:00</time>
      </trkpt>
      <trkpt lat="0" lon="0">
        <time>2021-02-28T09:38:51.455000+00:00</time>
      </trkpt>
      <trkpt lat="47.31546" lon="-1.4652">
        <ele>84</ele>
        <time>2021-02-28T09:38:52.487000+00:00</time>
      </trkpt>
      <trkpt lat="0" lon="0">
        <time>2021-02-28T09:38:52.492000+00:00</time>
      </trkpt>
      <trkpt lat="0" lon="0">
        <time>2021-02-28T09:38:52.496000+00:00</time>
      </trkpt>
      <trkpt lat="0" lon="0">
        <time>2021-02-28T09:38:52.500000+00:00</time>
      </trkpt>
      <trkpt lat="47.3155" lon="-1.46514">
        <ele>84</ele>
        <time>2021-02-28T09:38:53.456000+00:00</time>
      </trkpt>
      <trkpt lat="0" lon="0">
        <time>2021-02-28T09:38:53.467000+00:00</time>
      </trkpt>
      <trkpt lat="0" lon="0">
        <time>2021-02-28T09:38:53.472000+00:00</time>
      </trkpt>
      <trkpt lat="0" lon="0">
        <time>2021-02-28T09:38:53.474000+00:00</time>
      </trkpt>
      <trkpt lat="47.31553" lon="-1.46508">
        <ele>84</ele>
        <time>2021-02-28T09:38:54.392000+00:00</time>
      </trkpt>
      <trkpt lat="0" lon="0">
        <time>2021-02-28T09:38:54.400000+00:00</time>
      </trkpt>
      <trkpt lat="0" lon="0">
        <time>2021-02-28T09:38:54.404000+00:00</time>
      </trkpt>
      <trkpt lat="0" lon="0">
        <time>2021-02-28T09:38:54.407000+00:00</time>
      </trkpt>
      <trkpt lat="47.31556" lon="-1.46502">
        <ele>84</ele>
        <time>2021-02-28T09:38:55.456000+00:00</time>
      </trkpt>
      <trkpt lat="0" lon="0">
        <time>2021-02-28T09:38:55.463000+00:00</time>
      </trkpt>
      <trkpt lat="0" lon="0">
        <time>2021-02-28T09:38:55.468000+00:00</time>
      </trkpt>
      <trkpt lat="0" lon="0">
        <time>2021-02-28T09:38:55.471000+00:00</time>
      </trkpt>
      <trkpt lat="47.3156" lon="-1.46496">
        <ele>84</ele>
        <time>2021-02-28T09:38:56.481000+00:00</time>
      </trkpt>
      <trkpt lat="0" lon="0">
        <time>2021-02-28T09:38:56.490000+00:00</time>
      </trkpt>
      <trkpt lat="0" lon="0">
        <time>2021-02-28T09:38:56.497000+00:00</time>
      </trkpt>
      <trkpt lat="0" lon="0">
        <time>2021-02-28T09:38:56.509000+00:00</time>
      </trkpt>
      <trkpt lat="47.31563" lon="-1.4649">
        <ele>84</ele>
        <time>2021-02-28T09:38:57.428000+00:00</time>
      </trkpt>
      <trkpt lat="0" lon="0">
        <time>2021-02-28T09:38:57.434000+00:00</time>
      </trkpt>
      <trkpt lat="0" lon="0">
        <time>2021-02-28T09:38:57.441000+00:00</time>
      </trkpt>
      <trkpt lat="0" lon="0">
        <time>2021-02-28T09:38:57.444000+00:00</time>
      </trkpt>
      <trkpt lat="47.31566" lon="-1.46484">
        <ele>84</ele>
        <time>2021-02-28T09:38:58.418000+00:00</time>
      </trkpt>
      <trkpt lat="0" lon="0">
        <time>2021-02-28T09:38:58.431000+00:00</time>
      </trkpt>
      <trkpt lat="0" lon="0">
        <time>2021-02-28T09:38:58.433000+00:00</time>
      </trkpt>
      <trkpt lat="0" lon="0">
        <time>2021-02-28T09:38:58.435000+00:00</time>
      </trkpt>
      <trkpt lat="47.3157" lon="-1.46479">
        <ele>84</ele>
        <time>2021-02-28T09:38:59.482000+00:00</time>
      </trkpt>
      <trkpt lat="0" lon="0">
        <time>2021-02-28T09:38:59.497000+00:00</time>
      </trkpt>
      <trkpt lat="0" lon="0">
        <time>2021-02-28T09:38:59.507000+00:00</time>
      </trkpt>
      <trkpt lat="0" lon="0">
        <time>2021-02-28T09:38:59.510000+00:00</time>
      </trkpt>
      <trkpt lat="47.31573" lon="-1.46473">
        <ele>84</ele>
        <time>2021-02-28T09:39:00.466000+00:00</time>
      </trkpt>
      <trkpt lat="0" lon="0">
        <time>2021-02-28T09:39:00.476000+00:00</time>
      </trkpt>
      <trkpt lat="0" lon="0">
        <time>2021-02-28T09:39:00.481000+00:00</time>
      </trkpt>
      <trkpt lat="0" lon="0">
        <time>2021-02-28T09:39:00.483000+00:00</time>
      </trkpt>
      <trkpt lat="47.31577" lon="-1.46467">
        <ele>84</ele>
        <time>2021-02-28T09:39:01.477000+00:00</time>
      </trkpt>
      <trkpt lat="0" lon="0">
        <time>2021-02-28T09:39:01.488000+00:00</time>
      </trkpt>
      <trkpt lat="0" lon="0">
        <time>2021-02-28T09:39:01.494000+00:00</time>
      </trkpt>
      <trkpt lat="0" lon="0">
        <time>2021-02-28T09:39:01.497000+00:00</time>
      </trkpt>
      <trkpt lat="47.31581" lon="-1.46461">
        <ele>84</ele>
        <time>2021-02-28T09:39:02.473000+00:00</time>
      </trkpt>
      <trkpt lat="0" lon="0">
        <time>2021-02-28T09:39:02.484000+00:00</time>
      </trkpt>
      <trkpt lat="0" lon="0">
        <time>2021-02-28T09:39:02.490000+00:00</time>
      </trkpt>
      <trkpt lat="0" lon="0">
        <time>2021-02-28T09:39:02.493000+00:00</time>
      </trkpt>
      <trkpt lat="47.31584" lon="-1.46455">
        <ele>84</ele>
        <time>2021-02-28T09:39:03.460000+00:00</time>
      </trkpt>
      <trkpt lat="0" lon="0">
        <time>2021-02-28T09:39:03.471000+00:00</time>
      </trkpt>
      <trkpt lat="0" lon="0">
        <time>2021-02-28T09:39:03.478000+00:00</time>
      </trkpt>
      <trkpt lat="0" lon="0">
        <time>2021-02-28T09:39:03.482000+00:00</time>
      </trkpt>
      <trkpt lat="47.31588" lon="-1.4645">
        <ele>84</ele>
        <time>2021-02-28T09:39:04.427000+00:00</time>
      </trkpt>
      <trkpt lat="0" lon="0">
        <time>2021-02-28T09:39:04.433000+00:00</time>
      </trkpt>
      <trkpt lat="0" lon="0">
        <time>2021-02-28T09:39:04.437000+00:00</time>
      </trkpt>
      <trkpt lat="0" lon="0">
        <time>2021-02-28T09:39:04.440000+00:00</time>
      </trkpt>
      <trkpt lat="47.31592" lon="-1.46444">
        <ele>84</ele>
        <time>2021-02-28T09:39:05.403000+00:00</time>
      </trkpt>
      <trkpt lat="0" lon="0">
        <time>2021-02-28T09:39:05.410000+00:00</time>
      </trkpt>
      <trkpt lat="0" lon="0">
        <time>2021-02-28T09:39:05.418000+00:00</time>
      </trkpt>
      <trkpt lat="0" lon="0">
        <time>2021-02-28T09:39:05.420000+00:00</time>
      </trkpt>
      <trkpt lat="47.31596" lon="-1.46438">
        <ele>85</ele>
        <time>2021-02-28T09:39:06.487000+00:00</time>
      </trkpt>
      <trkpt lat="0" lon="0">
        <time>2021-02-28T09:39:06.494000+00:00</time>
      </trkpt>
      <trkpt lat="0" lon="0">
        <time>2021-02-28T09:39:06.499000+00:00</time>
      </trkpt>
      <trkpt lat="0" lon="0">
        <time>2021-02-28T09:39:06.503000+00:00</time>
      </trkpt>
      <trkpt lat="47.31599" lon="-1.46433">
        <ele>84</ele>
        <time>2021-02-28T09:39:07.516000+00:00</time>
      </trkpt>
      <trkpt lat="0" lon="0">
        <time>2021-02-28T09:39:07.524000+00:00</time>
      </trkpt>
      <trkpt lat="0" lon="0">
        <time>2021-02-28T09:39:07.530000+00:00</time>
      </trkpt>
      <trkpt lat="0" lon="0">
        <time>2021-02-28T09:39:07.533000+00:00</time>
      </trkpt>
      <trkpt lat="47.31603" lon="-1.46427">
        <ele>84</ele>
        <time>2021-02-28T09:39:08.381000+00:00</time>
      </trkpt>
      <trkpt lat="0" lon="0">
        <time>2021-02-28T09:39:08.385000+00:00</time>
      </trkpt>
      <trkpt lat="0" lon="0">
        <time>2021-02-28T09:39:08.387000+00:00</time>
      </trkpt>
      <trkpt lat="0" lon="0">
        <time>2021-02-28T09:39:08.388000+00:00</time>
      </trkpt>
      <trkpt lat="47.31607" lon="-1.46422">
        <ele>84</ele>
        <time>2021-02-28T09:39:09.420000+00:00</time>
      </trkpt>
      <trkpt lat="0" lon="0">
        <time>2021-02-28T09:39:09.422000+00:00</time>
      </trkpt>
      <trkpt lat="0" lon="0">
        <time>2021-02-28T09:39:09.429000+00:00</time>
      </trkpt>
      <trkpt lat="0" lon="0">
        <time>2021-02-28T09:39:09.431000+00:00</time>
      </trkpt>
      <trkpt lat="47.3161" lon="-1.46417">
        <ele>84</ele>
        <time>2021-02-28T09:39:10.428000+00:00</time>
      </trkpt>
      <trkpt lat="0" lon="0">
        <time>2021-02-28T09:39:10.435000+00:00</time>
      </trkpt>
      <trkpt lat="0" lon="0">
        <time>2021-02-28T09:39:10.438000+00:00</time>
      </trkpt>
      <trkpt lat="0" lon="0">
        <time>2021-02-28T09:39:10.443000+00:00</time>
      </trkpt>
      <trkpt lat="47.31614" lon="-1.46412">
        <ele>84</ele>
        <time>2021-02-28T09:39:11.456000+00:00</time>
      </trkpt>
      <trkpt lat="0" lon="0">
        <time>2021-02-28T09:39:11.461000+00:00</time>
      </trkpt>
      <trkpt lat="0" lon="0">
        <time>2021-02-28T09:39:11.465000+00:00</time>
      </trkpt>
      <trkpt lat="0" lon="0">
        <time>2021-02-28T09:39:11.468000+00:00</time>
      </trkpt>
      <trkpt lat="47.31618" lon="-1.46407">
        <ele>84</ele>
        <time>2021-02-28T09:39:12.486000+00:00</time>
      </trkpt>
      <trkpt lat="0" lon="0">
        <time>2021-02-28T09:39:12.492000+00:00</time>
      </trkpt>
      <trkpt lat="0" lon="0">
        <time>2021-02-28T09:39:12.500000+00:00</time>
      </trkpt>
      <trkpt lat="0" lon="0">
        <time>2021-02-28T09:39:12.503000+00:00</time>
      </trkpt>
      <trkpt lat="47.31621" lon="-1.46402">
        <ele>84</ele>
        <time>2021-02-28T09:39:13.478000+00:00</time>
      </trkpt>
      <trkpt lat="0" lon="0">
        <time>2021-02-28T09:39:13.483000+00:00</time>
      </trkpt>
      <trkpt lat="0" lon="0">
        <time>2021-02-28T09:39:13.489000+00:00</time>
      </trkpt>
      <trkpt lat="0" lon="0">
        <time>2021-02-28T09:39:13.491000+00:00</time>
      </trkpt>
      <trkpt lat="47.31625" lon="-1.46397">
        <ele>84</ele>
        <time>2021-02-28T09:39:14.491000+00:00</time>
      </trkpt>
      <trkpt lat="0" lon="0">
        <time>2021-02-28T09:39:14.496000+00:00</time>
      </trkpt>
      <trkpt lat="0" lon="0">
        <time>2021-02-28T09:39:14.500000+00:00</time>
      </trkpt>
      <trkpt lat="0" lon="0">
        <time>2021-02-28T09:39:14.502000+00:00</time>
      </trkpt>
      <trkpt lat="47.31629" lon="-1.46392">
        <ele>84</ele>
        <time>2021-02-28T09:39:15.498000+00:00</time>
      </trkpt>
      <trkpt lat="0" lon="0">
        <time>2021-02-28T09:39:15.513000+00:00</time>
      </trkpt>
      <trkpt lat="0" lon="0">
        <time>2021-02-28T09:39:15.518000+00:00</time>
      </trkpt>
      <trkpt lat="0" lon="0">
        <time>2021-02-28T09:39:15.520000+00:00</time>
      </trkpt>
      <trkpt lat="47.31633" lon="-1.46386">
        <ele>84</ele>
        <time>2021-02-28T09:39:16.481000+00:00</time>
      </trkpt>
      <trkpt lat="0" lon="0">
        <time>2021-02-28T09:39:16.486000+00:00</time>
      </trkpt>
      <trkpt lat="0" lon="0">
        <time>2021-02-28T09:39:16.490000+00:00</time>
      </trkpt>
      <trkpt lat="0" lon="0">
        <time>2021-02-28T09:39:16.492000+00:00</time>
      </trkpt>
      <trkpt lat="47.31638" lon="-1.4638">
        <ele>85</ele>
        <time>2021-02-28T09:39:17.487000+00:00</time>
      </trkpt>
      <trkpt lat="0" lon="0">
        <time>2021-02-28T09:39:17.496000+00:00</time>
      </trkpt>
      <trkpt lat="0" lon="0">
        <time>2021-02-28T09:39:17.498000+00:00</time>
      </trkpt>
      <trkpt lat="0" lon="0">
        <time>2021-02-28T09:39:17.499000+00:00</time>
      </trkpt>
      <trkpt lat="47.31642" lon="-1.46375">
        <ele>85</ele>
        <time>2021-02-28T09:39:18.472000+00:00</time>
      </trkpt>
      <trkpt lat="0" lon="0">
        <time>2021-02-28T09:39:18.481000+00:00</time>
      </trkpt>
      <trkpt lat="0" lon="0">
        <time>2021-02-28T09:39:18.486000+00:00</time>
      </trkpt>
      <trkpt lat="0" lon="0">
        <time>2021-02-28T09:39:18.488000+00:00</time>
      </trkpt>
      <trkpt lat="47.31647" lon="-1.46369">
        <ele>86</ele>
        <time>2021-02-28T09:39:19.499000+00:00</time>
      </trkpt>
      <trkpt lat="0" lon="0">
        <time>2021-02-28T09:39:19.510000+00:00</time>
      </trkpt>
      <trkpt lat="0" lon="0">
        <time>2021-02-28T09:39:19.514000+00:00</time>
      </trkpt>
      <trkpt lat="0" lon="0">
        <time>2021-02-28T09:39:19.517000+00:00</time>
      </trkpt>
      <trkpt lat="47.31651" lon="-1.46363">
        <ele>85</ele>
        <time>2021-02-28T09:39:20.488000+00:00</time>
      </trkpt>
      <trkpt lat="0" lon="0">
        <time>2021-02-28T09:39:20.493000+00:00</time>
      </trkpt>
      <trkpt lat="0" lon="0">
        <time>2021-02-28T09:39:20.497000+00:00</time>
      </trkpt>
      <trkpt lat="0" lon="0">
        <time>2021-02-28T09:39:20.500000+00:00</time>
      </trkpt>
      <trkpt lat="47.31656" lon="-1.46357">
        <ele>85</ele>
        <time>2021-02-28T09:39:21.483000+00:00</time>
      </trkpt>
      <trkpt lat="0" lon="0">
        <time>2021-02-28T09:39:21.491000+00:00</time>
      </trkpt>
      <trkpt lat="0" lon="0">
        <time>2021-02-28T09:39:21.496000+00:00</time>
      </trkpt>
      <trkpt lat="0" lon="0">
        <time>2021-02-28T09:39:21.499000+00:00</time>
      </trkpt>
      <trkpt lat="47.31661" lon="-1.46352">
        <ele>85</ele>
        <time>2021-02-28T09:39:22.471000+00:00</time>
      </trkpt>
      <trkpt lat="0" lon="0">
        <time>2021-02-28T09:39:22.477000+00:00</time>
      </trkpt>
      <trkpt lat="0" lon="0">
        <time>2021-02-28T09:39:22.482000+00:00</time>
      </trkpt>
      <trkpt lat="0" lon="0">
        <time>2021-02-28T09:39:22.485000+00:00</time>
      </trkpt>
      <trkpt lat="47.31665" lon="-1.46347">
        <ele>85</ele>
        <time>2021-02-28T09:39:23.497000+00:00</time>
      </trkpt>
      <trkpt lat="0" lon="0">
        <time>2021-02-28T09:39:23.505000+00:00</time>
      </trkpt>
      <trkpt lat="0" lon="0">
        <time>2021-02-28T09:39:23.510000+00:00</time>
      </trkpt>
      <trkpt lat="0" lon="0">
        <time>2021-02-28T09:39:23.515000+00:00</time>
      </trkpt>
      <trkpt lat="47.3167" lon="-1.46342">
        <ele>85</ele>
        <time>2021-02-28T09:39:24.484000+00:00</time>
      </trkpt>
      <trkpt lat="0" lon="0">
        <time>2021-02-28T09:39:24.490000+00:00</time>
      </trkpt>
      <trkpt lat="0" lon="0">
        <time>2021-02-28T09:39:24.495000+00:00</time>
      </trkpt>
      <trkpt lat="0" lon="0">
        <time>2021-02-28T09:39:24.498000+00:00</time>
      </trkpt>
      <trkpt lat="47.31675" lon="-1.46337">
        <ele>85</ele>
        <time>2021-02-28T09:39:25.512000+00:00</time>
      </trkpt>
      <trkpt lat="0" lon="0">
        <time>2021-02-28T09:39:25.520000+00:00</time>
      </trkpt>
      <trkpt lat="0" lon="0">
        <time>2021-02-28T09:39:25.527000+00:00</time>
      </trkpt>
      <trkpt lat="0" lon="0">
        <time>2021-02-28T09:39:25.531000+00:00</time>
      </trkpt>
      <trkpt lat="47.31681" lon="-1.46332">
        <ele>85</ele>
        <time>2021-02-28T09:39:26.448000+00:00</time>
      </trkpt>
      <trkpt lat="0" lon="0">
        <time>2021-02-28T09:39:26.450000+00:00</time>
      </trkpt>
      <trkpt lat="0" lon="0">
        <time>2021-02-28T09:39:26.452000+00:00</time>
      </trkpt>
      <trkpt lat="0" lon="0">
        <time>2021-02-28T09:39:26.453000+00:00</time>
      </trkpt>
      <trkpt lat="47.31686" lon="-1.46327">
        <ele>85</ele>
        <time>2021-02-28T09:39:27.478000+00:00</time>
      </trkpt>
      <trkpt lat="0" lon="0">
        <time>2021-02-28T09:39:27.488000+00:00</time>
      </trkpt>
      <trkpt lat="0" lon="0">
        <time>2021-02-28T09:39:27.495000+00:00</time>
      </trkpt>
      <trkpt lat="0" lon="0">
        <time>2021-02-28T09:39:27.499000+00:00</time>
      </trkpt>
      <trkpt lat="47.3169" lon="-1.46322">
        <ele>86</ele>
        <time>2021-02-28T09:39:28.486000+00:00</time>
      </trkpt>
      <trkpt lat="0" lon="0">
        <time>2021-02-28T09:39:28.491000+00:00</time>
      </trkpt>
      <trkpt lat="0" lon="0">
        <time>2021-02-28T09:39:28.502000+00:00</time>
      </trkpt>
      <trkpt lat="0" lon="0">
        <time>2021-02-28T09:39:28.506000+00:00</time>
      </trkpt>
      <trkpt lat="47.31695" lon="-1.46317">
        <ele>86</ele>
        <time>2021-02-28T09:39:29.487000+00:00</time>
      </trkpt>
      <trkpt lat="0" lon="0">
        <time>2021-02-28T09:39:29.496000+00:00</time>
      </trkpt>
      <trkpt lat="0" lon="0">
        <time>2021-02-28T09:39:29.501000+00:00</time>
      </trkpt>
      <trkpt lat="0" lon="0">
        <time>2021-02-28T09:39:29.504000+00:00</time>
      </trkpt>
      <trkpt lat="47.317" lon="-1.46313">
        <ele>86</ele>
        <time>2021-02-28T09:39:30.509000+00:00</time>
      </trkpt>
      <trkpt lat="0" lon="0">
        <time>2021-02-28T09:39:30.517000+00:00</time>
      </trkpt>
      <trkpt lat="0" lon="0">
        <time>2021-02-28T09:39:30.522000+00:00</time>
      </trkpt>
      <trkpt lat="0" lon="0">
        <time>2021-02-28T09:39:30.525000+00:00</time>
      </trkpt>
      <trkpt lat="47.31705" lon="-1.46308">
        <ele>86</ele>
        <time>2021-02-28T09:39:31.469000+00:00</time>
      </trkpt>
      <trkpt lat="0" lon="0">
        <time>2021-02-28T09:39:31.482000+00:00</time>
      </trkpt>
      <trkpt lat="0" lon="0">
        <time>2021-02-28T09:39:31.487000+00:00</time>
      </trkpt>
      <trkpt lat="0" lon="0">
        <time>2021-02-28T09:39:31.489000+00:00</time>
      </trkpt>
      <trkpt lat="47.3171" lon="-1.46303">
        <ele>86</ele>
        <time>2021-02-28T09:39:32.449000+00:00</time>
      </trkpt>
      <trkpt lat="0" lon="0">
        <time>2021-02-28T09:39:32.456000+00:00</time>
      </trkpt>
      <trkpt lat="0" lon="0">
        <time>2021-02-28T09:39:32.465000+00:00</time>
      </trkpt>
      <trkpt lat="0" lon="0">
        <time>2021-02-28T09:39:32.475000+00:00</time>
      </trkpt>
      <trkpt lat="47.31715" lon="-1.46298">
        <ele>86</ele>
        <time>2021-02-28T09:39:33.458000+00:00</time>
      </trkpt>
      <trkpt lat="0" lon="0">
        <time>2021-02-28T09:39:33.467000+00:00</time>
      </trkpt>
      <trkpt lat="0" lon="0">
        <time>2021-02-28T09:39:33.471000+00:00</time>
      </trkpt>
      <trkpt lat="0" lon="0">
        <time>2021-02-28T09:39:33.473000+00:00</time>
      </trkpt>
      <trkpt lat="47.31719" lon="-1.46293">
        <ele>86</ele>
        <time>2021-02-28T09:39:34.489000+00:00</time>
      </trkpt>
      <trkpt lat="0" lon="0">
        <time>2021-02-28T09:39:34.496000+00:00</time>
      </trkpt>
      <trkpt lat="0" lon="0">
        <time>2021-02-28T09:39:34.502000+00:00</time>
      </trkpt>
      <trkpt lat="0" lon="0">
        <time>2021-02-28T09:39:34.504000+00:00</time>
      </trkpt>
      <trkpt lat="47.31724" lon="-1.46289">
        <ele>85</ele>
        <time>2021-02-28T09:39:35.478000+00:00</time>
      </trkpt>
      <trkpt lat="0" lon="0">
        <time>2021-02-28T09:39:35.487000+00:00</time>
      </trkpt>
      <trkpt lat="0" lon="0">
        <time>2021-02-28T09:39:35.497000+00:00</time>
      </trkpt>
      <trkpt lat="0" lon="0">
        <time>2021-02-28T09:39:35.499000+00:00</time>
      </trkpt>
      <trkpt lat="47.31728" lon="-1.46284">
        <ele>85</ele>
        <time>2021-02-28T09:39:36.428000+00:00</time>
      </trkpt>
      <trkpt lat="0" lon="0">
        <time>2021-02-28T09:39:36.440000+00:00</time>
      </trkpt>
      <trkpt lat="0" lon="0">
        <time>2021-02-28T09:39:36.442000+00:00</time>
      </trkpt>
      <trkpt lat="0" lon="0">
        <time>2021-02-28T09:39:36.443000+00:00</time>
      </trkpt>
      <trkpt lat="47.31732" lon="-1.46279">
        <ele>85</ele>
        <time>2021-02-28T09:39:37.480000+00:00</time>
      </trkpt>
      <trkpt lat="0" lon="0">
        <time>2021-02-28T09:39:37.486000+00:00</time>
      </trkpt>
      <trkpt lat="0" lon="0">
        <time>2021-02-28T09:39:37.491000+00:00</time>
      </trkpt>
      <trkpt lat="0" lon="0">
        <time>2021-02-28T09:39:37.496000+00:00</time>
      </trkpt>
      <trkpt lat="47.31737" lon="-1.46275">
        <ele>85</ele>
        <time>2021-02-28T09:39:38.474000+00:00</time>
      </trkpt>
      <trkpt lat="0" lon="0">
        <time>2021-02-28T09:39:38.476000+00:00</time>
      </trkpt>
      <trkpt lat="0" lon="0">
        <time>2021-02-28T09:39:38.478000+00:00</time>
      </trkpt>
      <trkpt lat="0" lon="0">
        <time>2021-02-28T09:39:38.479000+00:00</time>
      </trkpt>
      <trkpt lat="47.31741" lon="-1.46271">
        <ele>85</ele>
        <time>2021-02-28T09:39:39.486000+00:00</time>
      </trkpt>
      <trkpt lat="0" lon="0">
        <time>2021-02-28T09:39:39.496000+00:00</time>
      </trkpt>
      <trkpt lat="0" lon="0">
        <time>2021-02-28T09:39:39.502000+00:00</time>
      </trkpt>
      <trkpt lat="0" lon="0">
        <time>2021-02-28T09:39:39.506000+00:00</time>
      </trkpt>
      <trkpt lat="47.31746" lon="-1.46266">
        <ele>85</ele>
        <time>2021-02-28T09:39:40.509000+00:00</time>
      </trkpt>
      <trkpt lat="0" lon="0">
        <time>2021-02-28T09:39:40.520000+00:00</time>
      </trkpt>
      <trkpt lat="0" lon="0">
        <time>2021-02-28T09:39:40.526000+00:00</time>
      </trkpt>
      <trkpt lat="0" lon="0">
        <time>2021-02-28T09:39:40.528000+00:00</time>
      </trkpt>
      <trkpt lat="47.31751" lon="-1.46262">
        <ele>85</ele>
        <time>2021-02-28T09:39:41.524000+00:00</time>
      </trkpt>
      <trkpt lat="0" lon="0">
        <time>2021-02-28T09:39:41.531000+00:00</time>
      </trkpt>
      <trkpt lat="0" lon="0">
        <time>2021-02-28T09:39:41.536000+00:00</time>
      </trkpt>
      <trkpt lat="0" lon="0">
        <time>2021-02-28T09:39:41.540000+00:00</time>
      </trkpt>
      <trkpt lat="47.31755" lon="-1.46259">
        <ele>85</ele>
        <time>2021-02-28T09:39:42.483000+00:00</time>
      </trkpt>
      <trkpt lat="0" lon="0">
        <time>2021-02-28T09:39:42.491000+00:00</time>
      </trkpt>
      <trkpt lat="0" lon="0">
        <time>2021-02-28T09:39:42.495000+00:00</time>
      </trkpt>
      <trkpt lat="0" lon="0">
        <time>2021-02-28T09:39:42.497000+00:00</time>
      </trkpt>
      <trkpt lat="47.3176" lon="-1.46256">
        <ele>86</ele>
        <time>2021-02-28T09:39:43.475000+00:00</time>
      </trkpt>
      <trkpt lat="0" lon="0">
        <time>2021-02-28T09:39:43.485000+00:00</time>
      </trkpt>
      <trkpt lat="0" lon="0">
        <time>2021-02-28T09:39:43.491000+00:00</time>
      </trkpt>
      <trkpt lat="0" lon="0">
        <time>2021-02-28T09:39:43.493000+00:00</time>
      </trkpt>
      <trkpt lat="47.31765" lon="-1.46252">
        <ele>86</ele>
        <time>2021-02-28T09:39:44.500000+00:00</time>
      </trkpt>
      <trkpt lat="0" lon="0">
        <time>2021-02-28T09:39:44.515000+00:00</time>
      </trkpt>
      <trkpt lat="0" lon="0">
        <time>2021-02-28T09:39:44.519000+00:00</time>
      </trkpt>
      <trkpt lat="0" lon="0">
        <time>2021-02-28T09:39:44.521000+00:00</time>
      </trkpt>
      <trkpt lat="47.3177" lon="-1.46249">
        <ele>86</ele>
        <time>2021-02-28T09:39:45.486000+00:00</time>
      </trkpt>
      <trkpt lat="0" lon="0">
        <time>2021-02-28T09:39:45.493000+00:00</time>
      </trkpt>
      <trkpt lat="0" lon="0">
        <time>2021-02-28T09:39:45.499000+00:00</time>
      </trkpt>
      <trkpt lat="0" lon="0">
        <time>2021-02-28T09:39:45.502000+00:00</time>
      </trkpt>
      <trkpt lat="47.31775" lon="-1.46245">
        <ele>86</ele>
        <time>2021-02-28T09:39:46.500000+00:00</time>
      </trkpt>
      <trkpt lat="0" lon="0">
        <time>2021-02-28T09:39:46.522000+00:00</time>
      </trkpt>
      <trkpt lat="0" lon="0">
        <time>2021-02-28T09:39:46.538000+00:00</time>
      </trkpt>
      <trkpt lat="0" lon="0">
        <time>2021-02-28T09:39:46.544000+00:00</time>
      </trkpt>
      <trkpt lat="47.3178" lon="-1.46242">
        <ele>86</ele>
        <time>2021-02-28T09:39:47.534000+00:00</time>
      </trkpt>
      <trkpt lat="0" lon="0">
        <time>2021-02-28T09:39:47.540000+00:00</time>
      </trkpt>
      <trkpt lat="0" lon="0">
        <time>2021-02-28T09:39:47.546000+00:00</time>
      </trkpt>
      <trkpt lat="0" lon="0">
        <time>2021-02-28T09:39:47.549000+00:00</time>
      </trkpt>
      <trkpt lat="47.31784" lon="-1.46239">
        <ele>86</ele>
        <time>2021-02-28T09:39:48.500000+00:00</time>
      </trkpt>
      <trkpt lat="0" lon="0">
        <time>2021-02-28T09:39:48.507000+00:00</time>
      </trkpt>
      <trkpt lat="0" lon="0">
        <time>2021-02-28T09:39:48.512000+00:00</time>
      </trkpt>
      <trkpt lat="0" lon="0">
        <time>2021-02-28T09:39:48.514000+00:00</time>
      </trkpt>
      <trkpt lat="47.31789" lon="-1.46236">
        <ele>86</ele>
        <time>2021-02-28T09:39:49.508000+00:00</time>
      </trkpt>
      <trkpt lat="0" lon="0">
        <time>2021-02-28T09:39:49.513000+00:00</time>
      </trkpt>
      <trkpt lat="0" lon="0">
        <time>2021-02-28T09:39:49.519000+00:00</time>
      </trkpt>
      <trkpt lat="0" lon="0">
        <time>2021-02-28T09:39:49.522000+00:00</time>
      </trkpt>
      <trkpt lat="47.31794" lon="-1.46232">
        <ele>86</ele>
        <time>2021-02-28T09:39:50.484000+00:00</time>
      </trkpt>
      <trkpt lat="0" lon="0">
        <time>2021-02-28T09:39:50.492000+00:00</time>
      </trkpt>
      <trkpt lat="0" lon="0">
        <time>2021-02-28T09:39:50.497000+00:00</time>
      </trkpt>
      <trkpt lat="0" lon="0">
        <time>2021-02-28T09:39:50.499000+00:00</time>
      </trkpt>
      <trkpt lat="47.31799" lon="-1.46229">
        <ele>87</ele>
        <time>2021-02-28T09:39:51.482000+00:00</time>
      </trkpt>
      <trkpt lat="0" lon="0">
        <time>2021-02-28T09:39:51.491000+00:00</time>
      </trkpt>
      <trkpt lat="0" lon="0">
        <time>2021-02-28T09:39:51.496000+00:00</time>
      </trkpt>
      <trkpt lat="0" lon="0">
        <time>2021-02-28T09:39:51.499000+00:00</time>
      </trkpt>
      <trkpt lat="47.31803" lon="-1.46225">
        <ele>87</ele>
        <time>2021-02-28T09:39:52.512000+00:00</time>
      </trkpt>
      <trkpt lat="0" lon="0">
        <time>2021-02-28T09:39:52.523000+00:00</time>
      </trkpt>
      <trkpt lat="0" lon="0">
        <time>2021-02-28T09:39:52.528000+00:00</time>
      </trkpt>
      <trkpt lat="0" lon="0">
        <time>2021-02-28T09:39:52.530000+00:00</time>
      </trkpt>
      <trkpt lat="47.31808" lon="-1.46222">
        <ele>88</ele>
        <time>2021-02-28T09:39:53.418000+00:00</time>
      </trkpt>
      <trkpt lat="0" lon="0">
        <time>2021-02-28T09:39:53.430000+00:00</time>
      </trkpt>
      <trkpt lat="0" lon="0">
        <time>2021-02-28T09:39:53.436000+00:00</time>
      </trkpt>
      <trkpt lat="0" lon="0">
        <time>2021-02-28T09:39:53.438000+00:00</time>
      </trkpt>
      <trkpt lat="47.31812" lon="-1.46218">
        <ele>88</ele>
        <time>2021-02-28T09:39:54.443000+00:00</time>
      </trkpt>
      <trkpt lat="0" lon="0">
        <time>2021-02-28T09:39:54.452000+00:00</time>
      </trkpt>
      <trkpt lat="0" lon="0">
        <time>2021-02-28T09:39:54.457000+00:00</time>
      </trkpt>
      <trkpt lat="0" lon="0">
        <time>2021-02-28T09:39:54.460000+00:00</time>
      </trkpt>
      <trkpt lat="47.31817" lon="-1.46215">
        <ele>88</ele>
        <time>2021-02-28T09:39:55.492000+00:00</time>
      </trkpt>
      <trkpt lat="0" lon="0">
        <time>2021-02-28T09:39:55.502000+00:00</time>
      </trkpt>
      <trkpt lat="0" lon="0">
        <time>2021-02-28T09:39:55.507000+00:00</time>
      </trkpt>
      <trkpt lat="0" lon="0">
        <time>2021-02-28T09:39:55.509000+00:00</time>
      </trkpt>
      <trkpt lat="47.31822" lon="-1.46211">
        <ele>88</ele>
        <time>2021-02-28T09:39:56.472000+00:00</time>
      </trkpt>
      <trkpt lat="0" lon="0">
        <time>2021-02-28T09:39:56.477000+00:00</time>
      </trkpt>
      <trkpt lat="0" lon="0">
        <time>2021-02-28T09:39:56.482000+00:00</time>
      </trkpt>
      <trkpt lat="0" lon="0">
        <time>2021-02-28T09:39:56.484000+00:00</time>
      </trkpt>
      <trkpt lat="47.31827" lon="-1.46208">
        <ele>88</ele>
        <time>2021-02-28T09:39:57.441000+00:00</time>
      </trkpt>
      <trkpt lat="0" lon="0">
        <time>2021-02-28T09:39:57.452000+00:00</time>
      </trkpt>
      <trkpt lat="0" lon="0">
        <time>2021-02-28T09:39:57.456000+00:00</time>
      </trkpt>
      <trkpt lat="0" lon="0">
        <time>2021-02-28T09:39:57.458000+00:00</time>
      </trkpt>
      <trkpt lat="47.31833" lon="-1.46205">
        <ele>88</ele>
        <time>2021-02-28T09:39:58.401000+00:00</time>
      </trkpt>
      <trkpt lat="0" lon="0">
        <time>2021-02-28T09:39:58.404000+00:00</time>
      </trkpt>
      <trkpt lat="0" lon="0">
        <time>2021-02-28T09:39:58.407000+00:00</time>
      </trkpt>
      <trkpt lat="0" lon="0">
        <time>2021-02-28T09:39:58.409000+00:00</time>
      </trkpt>
      <trkpt lat="47.31838" lon="-1.46202">
        <ele>88</ele>
        <time>2021-02-28T09:39:59.466000+00:00</time>
      </trkpt>
      <trkpt lat="0" lon="0">
        <time>2021-02-28T09:39:59.470000+00:00</time>
      </trkpt>
      <trkpt lat="0" lon="0">
        <time>2021-02-28T09:39:59.473000+00:00</time>
      </trkpt>
      <trkpt lat="0" lon="0">
        <time>2021-02-28T09:39:59.474000+00:00</time>
      </trkpt>
      <trkpt lat="47.31844" lon="-1.46199">
        <ele>88</ele>
        <time>2021-02-28T09:40:00.449000+00:00</time>
      </trkpt>
      <trkpt lat="0" lon="0">
        <time>2021-02-28T09:40:00.456000+00:00</time>
      </trkpt>
      <trkpt lat="0" lon="0">
        <time>2021-02-28T09:40:00.460000+00:00</time>
      </trkpt>
      <trkpt lat="0" lon="0">
        <time>2021-02-28T09:40:00.463000+00:00</time>
      </trkpt>
      <trkpt lat="47.31849" lon="-1.46196">
        <ele>88</ele>
        <time>2021-02-28T09:40:01.492000+00:00</time>
      </trkpt>
      <trkpt lat="0" lon="0">
        <time>2021-02-28T09:40:01.497000+00:00</time>
      </trkpt>
      <trkpt lat="0" lon="0">
        <time>2021-02-28T09:40:01.502000+00:00</time>
      </trkpt>
      <trkpt lat="0" lon="0">
        <time>2021-02-28T09:40:01.505000+00:00</time>
      </trkpt>
      <trkpt lat="47.31855" lon="-1.46194">
        <ele>88</ele>
        <time>2021-02-28T09:40:02.453000+00:00</time>
      </trkpt>
      <trkpt lat="0" lon="0">
        <time>2021-02-28T09:40:02.461000+00:00</time>
      </trkpt>
      <trkpt lat="0" lon="0">
        <time>2021-02-28T09:40:02.466000+00:00</time>
      </trkpt>
      <trkpt lat="0" lon="0">
        <time>2021-02-28T09:40:02.468000+00:00</time>
      </trkpt>
      <trkpt lat="47.3186" lon="-1.46191">
        <ele>88</ele>
        <time>2021-02-28T09:40:03.484000+00:00</time>
      </trkpt>
      <trkpt lat="0" lon="0">
        <time>2021-02-28T09:40:03.494000+00:00</time>
      </trkpt>
      <trkpt lat="0" lon="0">
        <time>2021-02-28T09:40:03.502000+00:00</time>
      </trkpt>
      <trkpt lat="0" lon="0">
        <time>2021-02-28T09:40:03.505000+00:00</time>
      </trkpt>
      <trkpt lat="47.31866" lon="-1.46189">
        <ele>88</ele>
        <time>2021-02-28T09:40:04.424000+00:00</time>
      </trkpt>
      <trkpt lat="0" lon="0">
        <time>2021-02-28T09:40:04.438000+00:00</time>
      </trkpt>
      <trkpt lat="0" lon="0">
        <time>2021-02-28T09:40:04.446000+00:00</time>
      </trkpt>
      <trkpt lat="0" lon="0">
        <time>2021-02-28T09:40:04.449000+00:00</time>
      </trkpt>
      <trkpt lat="47.31872" lon="-1.46187">
        <ele>87</ele>
        <time>2021-02-28T09:40:05.476000+00:00</time>
      </trkpt>
      <trkpt lat="0" lon="0">
        <time>2021-02-28T09:40:05.482000+00:00</time>
      </trkpt>
      <trkpt lat="0" lon="0">
        <time>2021-02-28T09:40:05.488000+00:00</time>
      </trkpt>
      <trkpt lat="0" lon="0">
        <time>2021-02-28T09:40:05.491000+00:00</time>
      </trkpt>
      <trkpt lat="47.31877" lon="-1.46184">
        <ele>87</ele>
        <time>2021-02-28T09:40:06.435000+00:00</time>
      </trkpt>
      <trkpt lat="0" lon="0">
        <time>2021-02-28T09:40:06.437000+00:00</time>
      </trkpt>
      <trkpt lat="0" lon="0">
        <time>2021-02-28T09:40:06.440000+00:00</time>
      </trkpt>
      <trkpt lat="0" lon="0">
        <time>2021-02-28T09:40:06.441000+00:00</time>
      </trkpt>
      <trkpt lat="47.31883" lon="-1.46182">
        <ele>87</ele>
        <time>2021-02-28T09:40:07.457000+00:00</time>
      </trkpt>
      <trkpt lat="0" lon="0">
        <time>2021-02-28T09:40:07.465000+00:00</time>
      </trkpt>
      <trkpt lat="0" lon="0">
        <time>2021-02-28T09:40:07.469000+00:00</time>
      </trkpt>
      <trkpt lat="0" lon="0">
        <time>2021-02-28T09:40:07.471000+00:00</time>
      </trkpt>
      <trkpt lat="47.31889" lon="-1.4618">
        <ele>86</ele>
        <time>2021-02-28T09:40:08.456000+00:00</time>
      </trkpt>
      <trkpt lat="0" lon="0">
        <time>2021-02-28T09:40:08.468000+00:00</time>
      </trkpt>
      <trkpt lat="0" lon="0">
        <time>2021-02-28T09:40:08.472000+00:00</time>
      </trkpt>
      <trkpt lat="0" lon="0">
        <time>2021-02-28T09:40:08.475000+00:00</time>
      </trkpt>
      <trkpt lat="47.31895" lon="-1.46178">
        <ele>86</ele>
        <time>2021-02-28T09:40:09.445000+00:00</time>
      </trkpt>
      <trkpt lat="0" lon="0">
        <time>2021-02-28T09:40:09.452000+00:00</time>
      </trkpt>
      <trkpt lat="0" lon="0">
        <time>2021-02-28T09:40:09.457000+00:00</time>
      </trkpt>
      <trkpt lat="0" lon="0">
        <time>2021-02-28T09:40:09.460000+00:00</time>
      </trkpt>
      <trkpt lat="47.319" lon="-1.46176">
        <ele>85</ele>
        <time>2021-02-28T09:40:10.397000+00:00</time>
      </trkpt>
      <trkpt lat="0" lon="0">
        <time>2021-02-28T09:40:10.408000+00:00</time>
      </trkpt>
      <trkpt lat="0" lon="0">
        <time>2021-02-28T09:40:10.414000+00:00</time>
      </trkpt>
      <trkpt lat="0" lon="0">
        <time>2021-02-28T09:40:10.417000+00:00</time>
      </trkpt>
      <trkpt lat="47.31906" lon="-1.46174">
        <ele>85</ele>
        <time>2021-02-28T09:40:11.468000+00:00</time>
      </trkpt>
      <trkpt lat="0" lon="0">
        <time>2021-02-28T09:40:11.480000+00:00</time>
      </trkpt>
      <trkpt lat="0" lon="0">
        <time>2021-02-28T09:40:11.485000+00:00</time>
      </trkpt>
      <trkpt lat="0" lon="0">
        <time>2021-02-28T09:40:11.488000+00:00</time>
      </trkpt>
      <trkpt lat="47.31911" lon="-1.46172">
        <ele>84</ele>
        <time>2021-02-28T09:40:12.462000+00:00</time>
      </trkpt>
      <trkpt lat="0" lon="0">
        <time>2021-02-28T09:40:12.469000+00:00</time>
      </trkpt>
      <trkpt lat="0" lon="0">
        <time>2021-02-28T09:40:12.474000+00:00</time>
      </trkpt>
      <trkpt lat="0" lon="0">
        <time>2021-02-28T09:40:12.476000+00:00</time>
      </trkpt>
      <trkpt lat="47.31916" lon="-1.4617">
        <ele>85</ele>
        <time>2021-02-28T09:40:13.446000+00:00</time>
      </trkpt>
      <trkpt lat="0" lon="0">
        <time>2021-02-28T09:40:13.452000+00:00</time>
      </trkpt>
      <trkpt lat="0" lon="0">
        <time>2021-02-28T09:40:13.459000+00:00</time>
      </trkpt>
      <trkpt lat="0" lon="0">
        <time>2021-02-28T09:40:13.462000+00:00</time>
      </trkpt>
      <trkpt lat="47.31921" lon="-1.46168">
        <ele>85</ele>
        <time>2021-02-28T09:40:14.334000+00:00</time>
      </trkpt>
      <trkpt lat="0" lon="0">
        <time>2021-02-28T09:40:14.337000+00:00</time>
      </trkpt>
      <trkpt lat="0" lon="0">
        <time>2021-02-28T09:40:14.338000+00:00</time>
      </trkpt>
      <trkpt lat="47.31925" lon="-1.46167">
        <ele>86</ele>
        <time>2021-02-28T09:40:15.449000+00:00</time>
      </trkpt>
      <trkpt lat="0" lon="0">
        <time>2021-02-28T09:40:15.457000+00:00</time>
      </trkpt>
      <trkpt lat="0" lon="0">
        <time>2021-02-28T09:40:15.461000+00:00</time>
      </trkpt>
      <trkpt lat="0" lon="0">
        <time>2021-02-28T09:40:15.463000+00:00</time>
      </trkpt>
      <trkpt lat="47.31929" lon="-1.46166">
        <ele>86</ele>
        <time>2021-02-28T09:40:16.453000+00:00</time>
      </trkpt>
      <trkpt lat="0" lon="0">
        <time>2021-02-28T09:40:16.464000+00:00</time>
      </trkpt>
      <trkpt lat="0" lon="0">
        <time>2021-02-28T09:40:16.470000+00:00</time>
      </trkpt>
      <trkpt lat="0" lon="0">
        <time>2021-02-28T09:40:16.472000+00:00</time>
      </trkpt>
      <trkpt lat="47.31933" lon="-1.46165">
        <ele>86</ele>
        <time>2021-02-28T09:40:17.410000+00:00</time>
      </trkpt>
      <trkpt lat="0" lon="0">
        <time>2021-02-28T09:40:17.417000+00:00</time>
      </trkpt>
      <trkpt lat="0" lon="0">
        <time>2021-02-28T09:40:17.418000+00:00</time>
      </trkpt>
      <trkpt lat="0" lon="0">
        <time>2021-02-28T09:40:17.419000+00:00</time>
      </trkpt>
      <trkpt lat="47.31937" lon="-1.46164">
        <ele>85</ele>
        <time>2021-02-28T09:40:18.439000+00:00</time>
      </trkpt>
      <trkpt lat="0" lon="0">
        <time>2021-02-28T09:40:18.444000+00:00</time>
      </trkpt>
      <trkpt lat="0" lon="0">
        <time>2021-02-28T09:40:18.449000+00:00</time>
      </trkpt>
      <trkpt lat="0" lon="0">
        <time>2021-02-28T09:40:18.451000+00:00</time>
      </trkpt>
      <trkpt lat="47.31941" lon="-1.46163">
        <ele>85</ele>
        <time>2021-02-28T09:40:19.459000+00:00</time>
      </trkpt>
      <trkpt lat="0" lon="0">
        <time>2021-02-28T09:40:19.469000+00:00</time>
      </trkpt>
      <trkpt lat="0" lon="0">
        <time>2021-02-28T09:40:19.474000+00:00</time>
      </trkpt>
      <trkpt lat="0" lon="0">
        <time>2021-02-28T09:40:19.476000+00:00</time>
      </trkpt>
      <trkpt lat="47.31945" lon="-1.46162">
        <ele>85</ele>
        <time>2021-02-28T09:40:20.433000+00:00</time>
      </trkpt>
      <trkpt lat="0" lon="0">
        <time>2021-02-28T09:40:20.440000+00:00</time>
      </trkpt>
      <trkpt lat="0" lon="0">
        <time>2021-02-28T09:40:20.445000+00:00</time>
      </trkpt>
      <trkpt lat="0" lon="0">
        <time>2021-02-28T09:40:20.446000+00:00</time>
      </trkpt>
      <trkpt lat="47.31948" lon="-1.46161">
        <ele>85</ele>
        <time>2021-02-28T09:40:21.460000+00:00</time>
      </trkpt>
      <trkpt lat="0" lon="0">
        <time>2021-02-28T09:40:21.468000+00:00</time>
      </trkpt>
      <trkpt lat="0" lon="0">
        <time>2021-02-28T09:40:21.472000+00:00</time>
      </trkpt>
      <trkpt lat="0" lon="0">
        <time>2021-02-28T09:40:21.473000+00:00</time>
      </trkpt>
      <trkpt lat="47.31952" lon="-1.4616">
        <ele>85</ele>
        <time>2021-02-28T09:40:22.493000+00:00</time>
      </trkpt>
      <trkpt lat="0" lon="0">
        <time>2021-02-28T09:40:22.495000+00:00</time>
      </trkpt>
      <trkpt lat="0" lon="0">
        <time>2021-02-28T09:40:22.497000+00:00</time>
      </trkpt>
      <trkpt lat="0" lon="0">
        <time>2021-02-28T09:40:22.498000+00:00</time>
      </trkpt>
      <trkpt lat="47.31955" lon="-1.46159">
        <ele>86</ele>
        <time>2021-02-28T09:40:23.476000+00:00</time>
      </trkpt>
      <trkpt lat="0" lon="0">
        <time>2021-02-28T09:40:23.488000+00:00</time>
      </trkpt>
      <trkpt lat="0" lon="0">
        <time>2021-02-28T09:40:23.495000+00:00</time>
      </trkpt>
      <trkpt lat="0" lon="0">
        <time>2021-02-28T09:40:23.498000+00:00</time>
      </trkpt>
      <trkpt lat="47.31958" lon="-1.46158">
        <ele>86</ele>
        <time>2021-02-28T09:40:24.481000+00:00</time>
      </trkpt>
      <trkpt lat="0" lon="0">
        <time>2021-02-28T09:40:24.489000+00:00</time>
      </trkpt>
      <trkpt lat="0" lon="0">
        <time>2021-02-28T09:40:24.495000+00:00</time>
      </trkpt>
      <trkpt lat="0" lon="0">
        <time>2021-02-28T09:40:24.496000+00:00</time>
      </trkpt>
      <trkpt lat="47.31961" lon="-1.46157">
        <ele>86</ele>
        <time>2021-02-28T09:40:25.472000+00:00</time>
      </trkpt>
      <trkpt lat="0" lon="0">
        <time>2021-02-28T09:40:25.483000+00:00</time>
      </trkpt>
      <trkpt lat="0" lon="0">
        <time>2021-02-28T09:40:25.489000+00:00</time>
      </trkpt>
      <trkpt lat="0" lon="0">
        <time>2021-02-28T09:40:25.493000+00:00</time>
      </trkpt>
      <trkpt lat="47.31964" lon="-1.46155">
        <ele>86</ele>
        <time>2021-02-28T09:40:26.470000+00:00</time>
      </trkpt>
      <trkpt lat="0" lon="0">
        <time>2021-02-28T09:40:26.480000+00:00</time>
      </trkpt>
      <trkpt lat="0" lon="0">
        <time>2021-02-28T09:40:26.485000+00:00</time>
      </trkpt>
      <trkpt lat="0" lon="0">
        <time>2021-02-28T09:40:26.487000+00:00</time>
      </trkpt>
      <trkpt lat="47.31966" lon="-1.46154">
        <ele>87</ele>
        <time>2021-02-28T09:40:27.511000+00:00</time>
      </trkpt>
      <trkpt lat="0" lon="0">
        <time>2021-02-28T09:40:27.520000+00:00</time>
      </trkpt>
      <trkpt lat="0" lon="0">
        <time>2021-02-28T09:40:27.526000+00:00</time>
      </trkpt>
      <trkpt lat="0" lon="0">
        <time>2021-02-28T09:40:27.529000+00:00</time>
      </trkpt>
      <trkpt lat="47.31969" lon="-1.46154">
        <ele>87</ele>
        <time>2021-02-28T09:40:28.468000+00:00</time>
      </trkpt>
      <trkpt lat="0" lon="0">
        <time>2021-02-28T09:40:28.479000+00:00</time>
      </trkpt>
      <trkpt lat="0" lon="0">
        <time>2021-02-28T09:40:28.488000+00:00</time>
      </trkpt>
      <trkpt lat="0" lon="0">
        <time>2021-02-28T09:40:28.491000+00:00</time>
      </trkpt>
      <trkpt lat="47.31971" lon="-1.46153">
        <ele>88</ele>
        <time>2021-02-28T09:40:29.467000+00:00</time>
      </trkpt>
      <trkpt lat="0" lon="0">
        <time>2021-02-28T09:40:29.475000+00:00</time>
      </trkpt>
      <trkpt lat="0" lon="0">
        <time>2021-02-28T09:40:29.480000+00:00</time>
      </trkpt>
      <trkpt lat="0" lon="0">
        <time>2021-02-28T09:40:29.482000+00:00</time>
      </trkpt>
      <trkpt lat="47.31974" lon="-1.46154">
        <ele>88</ele>
        <time>2021-02-28T09:40:30.483000+00:00</time>
      </trkpt>
      <trkpt lat="0" lon="0">
        <time>2021-02-28T09:40:30.496000+00:00</time>
      </trkpt>
      <trkpt lat="0" lon="0">
        <time>2021-02-28T09:40:30.501000+00:00</time>
      </trkpt>
      <trkpt lat="0" lon="0">
        <time>2021-02-28T09:40:30.504000+00:00</time>
      </trkpt>
      <trkpt lat="47.31976" lon="-1.46154">
        <ele>88</ele>
        <time>2021-02-28T09:40:31.467000+00:00</time>
      </trkpt>
      <trkpt lat="0" lon="0">
        <time>2021-02-28T09:40:31.472000+00:00</time>
      </trkpt>
      <trkpt lat="0" lon="0">
        <time>2021-02-28T09:40:31.480000+00:00</time>
      </trkpt>
      <trkpt lat="0" lon="0">
        <time>2021-02-28T09:40:31.482000+00:00</time>
      </trkpt>
      <trkpt lat="47.31979" lon="-1.46153">
        <ele>88</ele>
        <time>2021-02-28T09:40:32.500000+00:00</time>
      </trkpt>
      <trkpt lat="0" lon="0">
        <time>2021-02-28T09:40:32.506000+00:00</time>
      </trkpt>
      <trkpt lat="0" lon="0">
        <time>2021-02-28T09:40:32.511000+00:00</time>
      </trkpt>
      <trkpt lat="0" lon="0">
        <time>2021-02-28T09:40:32.514000+00:00</time>
      </trkpt>
      <trkpt lat="47.31982" lon="-1.46153">
        <ele>88</ele>
        <time>2021-02-28T09:40:33.506000+00:00</time>
      </trkpt>
      <trkpt lat="0" lon="0">
        <time>2021-02-28T09:40:33.511000+00:00</time>
      </trkpt>
      <trkpt lat="0" lon="0">
        <time>2021-02-28T09:40:33.516000+00:00</time>
      </trkpt>
      <trkpt lat="0" lon="0">
        <time>2021-02-28T09:40:33.519000+00:00</time>
      </trkpt>
      <trkpt lat="47.31986" lon="-1.46153">
        <ele>88</ele>
        <time>2021-02-28T09:40:34.444000+00:00</time>
      </trkpt>
      <trkpt lat="0" lon="0">
        <time>2021-02-28T09:40:34.451000+00:00</time>
      </trkpt>
      <trkpt lat="0" lon="0">
        <time>2021-02-28T09:40:34.456000+00:00</time>
      </trkpt>
      <trkpt lat="0" lon="0">
        <time>2021-02-28T09:40:34.459000+00:00</time>
      </trkpt>
      <trkpt lat="47.3199" lon="-1.46153">
        <ele>88</ele>
        <time>2021-02-28T09:40:35.443000+00:00</time>
      </trkpt>
      <trkpt lat="0" lon="0">
        <time>2021-02-28T09:40:35.449000+00:00</time>
      </trkpt>
      <trkpt lat="0" lon="0">
        <time>2021-02-28T09:40:35.454000+00:00</time>
      </trkpt>
      <trkpt lat="0" lon="0">
        <time>2021-02-28T09:40:35.456000+00:00</time>
      </trkpt>
      <trkpt lat="47.31995" lon="-1.46152">
        <ele>88</ele>
        <time>2021-02-28T09:40:36.513000+00:00</time>
      </trkpt>
      <trkpt lat="0" lon="0">
        <time>2021-02-28T09:40:36.522000+00:00</time>
      </trkpt>
      <trkpt lat="0" lon="0">
        <time>2021-02-28T09:40:36.527000+00:00</time>
      </trkpt>
      <trkpt lat="0" lon="0">
        <time>2021-02-28T09:40:36.529000+00:00</time>
      </trkpt>
      <trkpt lat="47.32" lon="-1.46152">
        <ele>88</ele>
        <time>2021-02-28T09:40:37.505000+00:00</time>
      </trkpt>
      <trkpt lat="0" lon="0">
        <time>2021-02-28T09:40:37.523000+00:00</time>
      </trkpt>
      <trkpt lat="0" lon="0">
        <time>2021-02-28T09:40:37.528000+00:00</time>
      </trkpt>
      <trkpt lat="0" lon="0">
        <time>2021-02-28T09:40:37.531000+00:00</time>
      </trkpt>
      <trkpt lat="47.32005" lon="-1.46152">
        <ele>88</ele>
        <time>2021-02-28T09:40:38.473000+00:00</time>
      </trkpt>
      <trkpt lat="0" lon="0">
        <time>2021-02-28T09:40:38.478000+00:00</time>
      </trkpt>
      <trkpt lat="0" lon="0">
        <time>2021-02-28T09:40:38.483000+00:00</time>
      </trkpt>
      <trkpt lat="0" lon="0">
        <time>2021-02-28T09:40:38.485000+00:00</time>
      </trkpt>
      <trkpt lat="47.3201" lon="-1.46151">
        <ele>88</ele>
        <time>2021-02-28T09:40:39.406000+00:00</time>
      </trkpt>
      <trkpt lat="0" lon="0">
        <time>2021-02-28T09:40:39.411000+00:00</time>
      </trkpt>
      <trkpt lat="0" lon="0">
        <time>2021-02-28T09:40:39.417000+00:00</time>
      </trkpt>
      <trkpt lat="0" lon="0">
        <time>2021-02-28T09:40:39.419000+00:00</time>
      </trkpt>
      <trkpt lat="47.32016" lon="-1.46151">
        <ele>89</ele>
        <time>2021-02-28T09:40:40.477000+00:00</time>
      </trkpt>
      <trkpt lat="0" lon="0">
        <time>2021-02-28T09:40:40.483000+00:00</time>
      </trkpt>
      <trkpt lat="0" lon="0">
        <time>2021-02-28T09:40:40.488000+00:00</time>
      </trkpt>
      <trkpt lat="0" lon="0">
        <time>2021-02-28T09:40:40.495000+00:00</time>
      </trkpt>
      <trkpt lat="47.32022" lon="-1.46151">
        <ele>88</ele>
        <time>2021-02-28T09:40:41.446000+00:00</time>
      </trkpt>
      <trkpt lat="0" lon="0">
        <time>2021-02-28T09:40:41.453000+00:00</time>
      </trkpt>
      <trkpt lat="0" lon="0">
        <time>2021-02-28T09:40:41.458000+00:00</time>
      </trkpt>
      <trkpt lat="0" lon="0">
        <time>2021-02-28T09:40:41.467000+00:00</time>
      </trkpt>
      <trkpt lat="47.32029" lon="-1.46151">
        <ele>89</ele>
        <time>2021-02-28T09:40:42.474000+00:00</time>
      </trkpt>
      <trkpt lat="0" lon="0">
        <time>2021-02-28T09:40:42.481000+00:00</time>
      </trkpt>
      <trkpt lat="0" lon="0">
        <time>2021-02-28T09:40:42.485000+00:00</time>
      </trkpt>
      <trkpt lat="0" lon="0">
        <time>2021-02-28T09:40:42.487000+00:00</time>
      </trkpt>
      <trkpt lat="47.32035" lon="-1.46152">
        <ele>89</ele>
        <time>2021-02-28T09:40:43.475000+00:00</time>
      </trkpt>
      <trkpt lat="0" lon="0">
        <time>2021-02-28T09:40:43.485000+00:00</time>
      </trkpt>
      <trkpt lat="0" lon="0">
        <time>2021-02-28T09:40:43.494000+00:00</time>
      </trkpt>
      <trkpt lat="0" lon="0">
        <time>2021-02-28T09:40:43.498000+00:00</time>
      </trkpt>
      <trkpt lat="47.32041" lon="-1.46152">
        <ele>88</ele>
        <time>2021-02-28T09:40:44.464000+00:00</time>
      </trkpt>
      <trkpt lat="0" lon="0">
        <time>2021-02-28T09:40:44.472000+00:00</time>
      </trkpt>
      <trkpt lat="0" lon="0">
        <time>2021-02-28T09:40:44.479000+00:00</time>
      </trkpt>
      <trkpt lat="0" lon="0">
        <time>2021-02-28T09:40:44.481000+00:00</time>
      </trkpt>
      <trkpt lat="47.32048" lon="-1.46152">
        <ele>89</ele>
        <time>2021-02-28T09:40:45.525000+00:00</time>
      </trkpt>
      <trkpt lat="0" lon="0">
        <time>2021-02-28T09:40:45.531000+00:00</time>
      </trkpt>
      <trkpt lat="0" lon="0">
        <time>2021-02-28T09:40:45.536000+00:00</time>
      </trkpt>
      <trkpt lat="0" lon="0">
        <time>2021-02-28T09:40:45.539000+00:00</time>
      </trkpt>
      <trkpt lat="47.32055" lon="-1.46152">
        <ele>89</ele>
        <time>2021-02-28T09:40:46.492000+00:00</time>
      </trkpt>
      <trkpt lat="0" lon="0">
        <time>2021-02-28T09:40:46.504000+00:00</time>
      </trkpt>
      <trkpt lat="0" lon="0">
        <time>2021-02-28T09:40:46.510000+00:00</time>
      </trkpt>
      <trkpt lat="0" lon="0">
        <time>2021-02-28T09:40:46.513000+00:00</time>
      </trkpt>
      <trkpt lat="47.32061" lon="-1.46151">
        <ele>89</ele>
        <time>2021-02-28T09:40:47.460000+00:00</time>
      </trkpt>
      <trkpt lat="0" lon="0">
        <time>2021-02-28T09:40:47.467000+00:00</time>
      </trkpt>
      <trkpt lat="0" lon="0">
        <time>2021-02-28T09:40:47.469000+00:00</time>
      </trkpt>
      <trkpt lat="0" lon="0">
        <time>2021-02-28T09:40:47.470000+00:00</time>
      </trkpt>
      <trkpt lat="47.32068" lon="-1.46151">
        <ele>89</ele>
        <time>2021-02-28T09:40:48.507000+00:00</time>
      </trkpt>
      <trkpt lat="0" lon="0">
        <time>2021-02-28T09:40:48.513000+00:00</time>
      </trkpt>
      <trkpt lat="0" lon="0">
        <time>2021-02-28T09:40:48.521000+00:00</time>
      </trkpt>
      <trkpt lat="0" lon="0">
        <time>2021-02-28T09:40:48.525000+00:00</time>
      </trkpt>
      <trkpt lat="47.32074" lon="-1.46151">
        <ele>89</ele>
        <time>2021-02-28T09:40:49.385000+00:00</time>
      </trkpt>
      <trkpt lat="0" lon="0">
        <time>2021-02-28T09:40:49.390000+00:00</time>
      </trkpt>
      <trkpt lat="0" lon="0">
        <time>2021-02-28T09:40:49.396000+00:00</time>
      </trkpt>
      <trkpt lat="0" lon="0">
        <time>2021-02-28T09:40:49.398000+00:00</time>
      </trkpt>
      <trkpt lat="47.32081" lon="-1.46152">
        <ele>89</ele>
        <time>2021-02-28T09:40:50.494000+00:00</time>
      </trkpt>
      <trkpt lat="0" lon="0">
        <time>2021-02-28T09:40:50.501000+00:00</time>
      </trkpt>
      <trkpt lat="0" lon="0">
        <time>2021-02-28T09:40:50.505000+00:00</time>
      </trkpt>
      <trkpt lat="0" lon="0">
        <time>2021-02-28T09:40:50.508000+00:00</time>
      </trkpt>
      <trkpt lat="47.32088" lon="-1.46152">
        <ele>89</ele>
        <time>2021-02-28T09:40:51.445000+00:00</time>
      </trkpt>
      <trkpt lat="0" lon="0">
        <time>2021-02-28T09:40:51.455000+00:00</time>
      </trkpt>
      <trkpt lat="0" lon="0">
        <time>2021-02-28T09:40:51.459000+00:00</time>
      </trkpt>
      <trkpt lat="0" lon="0">
        <time>2021-02-28T09:40:51.462000+00:00</time>
      </trkpt>
      <trkpt lat="47.32095" lon="-1.46152">
        <ele>89</ele>
        <time>2021-02-28T09:40:52.479000+00:00</time>
      </trkpt>
      <trkpt lat="0" lon="0">
        <time>2021-02-28T09:40:52.488000+00:00</time>
      </trkpt>
      <trkpt lat="0" lon="0">
        <time>2021-02-28T09:40:52.494000+00:00</time>
      </trkpt>
      <trkpt lat="0" lon="0">
        <time>2021-02-28T09:40:52.498000+00:00</time>
      </trkpt>
      <trkpt lat="47.32101" lon="-1.46153">
        <ele>89</ele>
        <time>2021-02-28T09:40:53.444000+00:00</time>
      </trkpt>
      <trkpt lat="0" lon="0">
        <time>2021-02-28T09:40:53.458000+00:00</time>
      </trkpt>
      <trkpt lat="0" lon="0">
        <time>2021-02-28T09:40:53.462000+00:00</time>
      </trkpt>
      <trkpt lat="0" lon="0">
        <time>2021-02-28T09:40:53.465000+00:00</time>
      </trkpt>
      <trkpt lat="47.32108" lon="-1.46153">
        <ele>89</ele>
        <time>2021-02-28T09:40:54.472000+00:00</time>
      </trkpt>
      <trkpt lat="0" lon="0">
        <time>2021-02-28T09:40:54.480000+00:00</time>
      </trkpt>
      <trkpt lat="0" lon="0">
        <time>2021-02-28T09:40:54.486000+00:00</time>
      </trkpt>
      <trkpt lat="0" lon="0">
        <time>2021-02-28T09:40:54.489000+00:00</time>
      </trkpt>
      <trkpt lat="47.32114" lon="-1.46153">
        <ele>89</ele>
        <time>2021-02-28T09:40:55.520000+00:00</time>
      </trkpt>
      <trkpt lat="0" lon="0">
        <time>2021-02-28T09:40:55.528000+00:00</time>
      </trkpt>
      <trkpt lat="0" lon="0">
        <time>2021-02-28T09:40:55.534000+00:00</time>
      </trkpt>
      <trkpt lat="0" lon="0">
        <time>2021-02-28T09:40:55.539000+00:00</time>
      </trkpt>
      <trkpt lat="47.32121" lon="-1.46154">
        <ele>90</ele>
        <time>2021-02-28T09:40:56.485000+00:00</time>
      </trkpt>
      <trkpt lat="0" lon="0">
        <time>2021-02-28T09:40:56.490000+00:00</time>
      </trkpt>
      <trkpt lat="0" lon="0">
        <time>2021-02-28T09:40:56.496000+00:00</time>
      </trkpt>
      <trkpt lat="0" lon="0">
        <time>2021-02-28T09:40:56.499000+00:00</time>
      </trkpt>
      <trkpt lat="47.32128" lon="-1.46155">
        <ele>89</ele>
        <time>2021-02-28T09:40:57.508000+00:00</time>
      </trkpt>
      <trkpt lat="0" lon="0">
        <time>2021-02-28T09:40:57.518000+00:00</time>
      </trkpt>
      <trkpt lat="0" lon="0">
        <time>2021-02-28T09:40:57.523000+00:00</time>
      </trkpt>
      <trkpt lat="0" lon="0">
        <time>2021-02-28T09:40:57.526000+00:00</time>
      </trkpt>
      <trkpt lat="47.32134" lon="-1.46156">
        <ele>89</ele>
        <time>2021-02-28T09:40:58.437000+00:00</time>
      </trkpt>
      <trkpt lat="0" lon="0">
        <time>2021-02-28T09:40:58.448000+00:00</time>
      </trkpt>
      <trkpt lat="0" lon="0">
        <time>2021-02-28T09:40:58.455000+00:00</time>
      </trkpt>
      <trkpt lat="0" lon="0">
        <time>2021-02-28T09:40:58.458000+00:00</time>
      </trkpt>
      <trkpt lat="47.3214" lon="-1.46157">
        <ele>89</ele>
        <time>2021-02-28T09:40:59.484000+00:00</time>
      </trkpt>
      <trkpt lat="0" lon="0">
        <time>2021-02-28T09:40:59.496000+00:00</time>
      </trkpt>
      <trkpt lat="0" lon="0">
        <time>2021-02-28T09:40:59.500000+00:00</time>
      </trkpt>
      <trkpt lat="0" lon="0">
        <time>2021-02-28T09:40:59.502000+00:00</time>
      </trkpt>
      <trkpt lat="47.32147" lon="-1.46158">
        <ele>89</ele>
        <time>2021-02-28T09:41:00.438000+00:00</time>
      </trkpt>
      <trkpt lat="0" lon="0">
        <time>2021-02-28T09:41:00.445000+00:00</time>
      </trkpt>
      <trkpt lat="0" lon="0">
        <time>2021-02-28T09:41:00.449000+00:00</time>
      </trkpt>
      <trkpt lat="0" lon="0">
        <time>2021-02-28T09:41:00.452000+00:00</time>
      </trkpt>
      <trkpt lat="47.32153" lon="-1.46159">
        <ele>88</ele>
        <time>2021-02-28T09:41:01.483000+00:00</time>
      </trkpt>
      <trkpt lat="0" lon="0">
        <time>2021-02-28T09:41:01.491000+00:00</time>
      </trkpt>
      <trkpt lat="0" lon="0">
        <time>2021-02-28T09:41:01.497000+00:00</time>
      </trkpt>
      <trkpt lat="0" lon="0">
        <time>2021-02-28T09:41:01.503000+00:00</time>
      </trkpt>
      <trkpt lat="47.32159" lon="-1.4616">
        <ele>88</ele>
        <time>2021-02-28T09:41:02.477000+00:00</time>
      </trkpt>
      <trkpt lat="0" lon="0">
        <time>2021-02-28T09:41:02.486000+00:00</time>
      </trkpt>
      <trkpt lat="0" lon="0">
        <time>2021-02-28T09:41:02.492000+00:00</time>
      </trkpt>
      <trkpt lat="0" lon="0">
        <time>2021-02-28T09:41:02.495000+00:00</time>
      </trkpt>
      <trkpt lat="47.32165" lon="-1.46161">
        <ele>88</ele>
        <time>2021-02-28T09:41:03.471000+00:00</time>
      </trkpt>
      <trkpt lat="0" lon="0">
        <time>2021-02-28T09:41:03.477000+00:00</time>
      </trkpt>
      <trkpt lat="0" lon="0">
        <time>2021-02-28T09:41:03.482000+00:00</time>
      </trkpt>
      <trkpt lat="0" lon="0">
        <time>2021-02-28T09:41:03.484000+00:00</time>
      </trkpt>
      <trkpt lat="47.32172" lon="-1.46162">
        <ele>88</ele>
        <time>2021-02-28T09:41:04.476000+00:00</time>
      </trkpt>
      <trkpt lat="0" lon="0">
        <time>2021-02-28T09:41:04.482000+00:00</time>
      </trkpt>
      <trkpt lat="0" lon="0">
        <time>2021-02-28T09:41:04.487000+00:00</time>
      </trkpt>
      <trkpt lat="0" lon="0">
        <time>2021-02-28T09:41:04.490000+00:00</time>
      </trkpt>
      <trkpt lat="47.32178" lon="-1.46163">
        <ele>88</ele>
        <time>2021-02-28T09:41:05.456000+00:00</time>
      </trkpt>
      <trkpt lat="0" lon="0">
        <time>2021-02-28T09:41:05.465000+00:00</time>
      </trkpt>
      <trkpt lat="0" lon="0">
        <time>2021-02-28T09:41:05.470000+00:00</time>
      </trkpt>
      <trkpt lat="0" lon="0">
        <time>2021-02-28T09:41:05.474000+00:00</time>
      </trkpt>
      <trkpt lat="47.32183" lon="-1.46164">
        <ele>88</ele>
        <time>2021-02-28T09:41:06.485000+00:00</time>
      </trkpt>
      <trkpt lat="0" lon="0">
        <time>2021-02-28T09:41:06.497000+00:00</time>
      </trkpt>
      <trkpt lat="0" lon="0">
        <time>2021-02-28T09:41:06.504000+00:00</time>
      </trkpt>
      <trkpt lat="0" lon="0">
        <time>2021-02-28T09:41:06.508000+00:00</time>
      </trkpt>
      <trkpt lat="47.32189" lon="-1.46165">
        <ele>89</ele>
        <time>2021-02-28T09:41:07.445000+00:00</time>
      </trkpt>
      <trkpt lat="0" lon="0">
        <time>2021-02-28T09:41:07.455000+00:00</time>
      </trkpt>
      <trkpt lat="0" lon="0">
        <time>2021-02-28T09:41:07.460000+00:00</time>
      </trkpt>
      <trkpt lat="0" lon="0">
        <time>2021-02-28T09:41:07.464000+00:00</time>
      </trkpt>
      <trkpt lat="47.32194" lon="-1.46166">
        <ele>88</ele>
        <time>2021-02-28T09:41:08.481000+00:00</time>
      </trkpt>
      <trkpt lat="0" lon="0">
        <time>2021-02-28T09:41:08.495000+00:00</time>
      </trkpt>
      <trkpt lat="0" lon="0">
        <time>2021-02-28T09:41:08.499000+00:00</time>
      </trkpt>
      <trkpt lat="0" lon="0">
        <time>2021-02-28T09:41:08.501000+00:00</time>
      </trkpt>
      <trkpt lat="47.32199" lon="-1.46166">
        <ele>88</ele>
        <time>2021-02-28T09:41:09.487000+00:00</time>
      </trkpt>
      <trkpt lat="0" lon="0">
        <time>2021-02-28T09:41:09.496000+00:00</time>
      </trkpt>
      <trkpt lat="0" lon="0">
        <time>2021-02-28T09:41:09.501000+00:00</time>
      </trkpt>
      <trkpt lat="0" lon="0">
        <time>2021-02-28T09:41:09.503000+00:00</time>
      </trkpt>
      <trkpt lat="47.32204" lon="-1.46166">
        <ele>88</ele>
        <time>2021-02-28T09:41:10.464000+00:00</time>
      </trkpt>
      <trkpt lat="0" lon="0">
        <time>2021-02-28T09:41:10.470000+00:00</time>
      </trkpt>
      <trkpt lat="0" lon="0">
        <time>2021-02-28T09:41:10.472000+00:00</time>
      </trkpt>
      <trkpt lat="0" lon="0">
        <time>2021-02-28T09:41:10.473000+00:00</time>
      </trkpt>
      <trkpt lat="47.3221" lon="-1.46167">
        <ele>88</ele>
        <time>2021-02-28T09:41:11.463000+00:00</time>
      </trkpt>
      <trkpt lat="0" lon="0">
        <time>2021-02-28T09:41:11.471000+00:00</time>
      </trkpt>
      <trkpt lat="0" lon="0">
        <time>2021-02-28T09:41:11.475000+00:00</time>
      </trkpt>
      <trkpt lat="0" lon="0">
        <time>2021-02-28T09:41:11.477000+00:00</time>
      </trkpt>
      <trkpt lat="47.32215" lon="-1.46167">
        <ele>88</ele>
        <time>2021-02-28T09:41:12.478000+00:00</time>
      </trkpt>
      <trkpt lat="0" lon="0">
        <time>2021-02-28T09:41:12.485000+00:00</time>
      </trkpt>
      <trkpt lat="0" lon="0">
        <time>2021-02-28T09:41:12.490000+00:00</time>
      </trkpt>
      <trkpt lat="0" lon="0">
        <time>2021-02-28T09:41:12.493000+00:00</time>
      </trkpt>
      <trkpt lat="47.3222" lon="-1.46167">
        <ele>89</ele>
        <time>2021-02-28T09:41:13.422000+00:00</time>
      </trkpt>
      <trkpt lat="0" lon="0">
        <time>2021-02-28T09:41:13.425000+00:00</time>
      </trkpt>
      <trkpt lat="0" lon="0">
        <time>2021-02-28T09:41:13.429000+00:00</time>
      </trkpt>
      <trkpt lat="0" lon="0">
        <time>2021-02-28T09:41:13.432000+00:00</time>
      </trkpt>
      <trkpt lat="47.32225" lon="-1.46168">
        <ele>89</ele>
        <time>2021-02-28T09:41:14.369000+00:00</time>
      </trkpt>
      <trkpt lat="0" lon="0">
        <time>2021-02-28T09:41:14.380000+00:00</time>
      </trkpt>
      <trkpt lat="0" lon="0">
        <time>2021-02-28T09:41:14.384000+00:00</time>
      </trkpt>
      <trkpt lat="0" lon="0">
        <time>2021-02-28T09:41:14.386000+00:00</time>
      </trkpt>
      <trkpt lat="47.32231" lon="-1.46168">
        <ele>89</ele>
        <time>2021-02-28T09:41:15.453000+00:00</time>
      </trkpt>
      <trkpt lat="0" lon="0">
        <time>2021-02-28T09:41:15.460000+00:00</time>
      </trkpt>
      <trkpt lat="0" lon="0">
        <time>2021-02-28T09:41:15.465000+00:00</time>
      </trkpt>
      <trkpt lat="0" lon="0">
        <time>2021-02-28T09:41:15.467000+00:00</time>
      </trkpt>
      <trkpt lat="47.32236" lon="-1.46168">
        <ele>90</ele>
        <time>2021-02-28T09:41:16.487000+00:00</time>
      </trkpt>
      <trkpt lat="0" lon="0">
        <time>2021-02-28T09:41:16.503000+00:00</time>
      </trkpt>
      <trkpt lat="0" lon="0">
        <time>2021-02-28T09:41:16.505000+00:00</time>
      </trkpt>
      <trkpt lat="0" lon="0">
        <time>2021-02-28T09:41:16.508000+00:00</time>
      </trkpt>
      <trkpt lat="47.32242" lon="-1.46168">
        <ele>91</ele>
        <time>2021-02-28T09:41:17.433000+00:00</time>
      </trkpt>
      <trkpt lat="0" lon="0">
        <time>2021-02-28T09:41:17.436000+00:00</time>
      </trkpt>
      <trkpt lat="0" lon="0">
        <time>2021-02-28T09:41:17.438000+00:00</time>
      </trkpt>
      <trkpt lat="0" lon="0">
        <time>2021-02-28T09:41:17.439000+00:00</time>
      </trkpt>
      <trkpt lat="47.32247" lon="-1.46169">
        <ele>90</ele>
        <time>2021-02-28T09:41:18.477000+00:00</time>
      </trkpt>
      <trkpt lat="0" lon="0">
        <time>2021-02-28T09:41:18.485000+00:00</time>
      </trkpt>
      <trkpt lat="0" lon="0">
        <time>2021-02-28T09:41:18.491000+00:00</time>
      </trkpt>
      <trkpt lat="0" lon="0">
        <time>2021-02-28T09:41:18.494000+00:00</time>
      </trkpt>
      <trkpt lat="47.32253" lon="-1.46169">
        <ele>90</ele>
        <time>2021-02-28T09:41:19.479000+00:00</time>
      </trkpt>
      <trkpt lat="0" lon="0">
        <time>2021-02-28T09:41:19.493000+00:00</time>
      </trkpt>
      <trkpt lat="0" lon="0">
        <time>2021-02-28T09:41:19.499000+00:00</time>
      </trkpt>
      <trkpt lat="0" lon="0">
        <time>2021-02-28T09:41:19.501000+00:00</time>
      </trkpt>
      <trkpt lat="47.32259" lon="-1.4617">
        <ele>90</ele>
        <time>2021-02-28T09:41:20.493000+00:00</time>
      </trkpt>
      <trkpt lat="0" lon="0">
        <time>2021-02-28T09:41:20.503000+00:00</time>
      </trkpt>
      <trkpt lat="0" lon="0">
        <time>2021-02-28T09:41:20.507000+00:00</time>
      </trkpt>
      <trkpt lat="0" lon="0">
        <time>2021-02-28T09:41:20.510000+00:00</time>
      </trkpt>
      <trkpt lat="47.32265" lon="-1.4617">
        <ele>90</ele>
        <time>2021-02-28T09:41:21.523000+00:00</time>
      </trkpt>
      <trkpt lat="0" lon="0">
        <time>2021-02-28T09:41:21.532000+00:00</time>
      </trkpt>
      <trkpt lat="0" lon="0">
        <time>2021-02-28T09:41:21.539000+00:00</time>
      </trkpt>
      <trkpt lat="0" lon="0">
        <time>2021-02-28T09:41:21.543000+00:00</time>
      </trkpt>
      <trkpt lat="47.3227" lon="-1.46171">
        <ele>91</ele>
        <time>2021-02-28T09:41:22.476000+00:00</time>
      </trkpt>
      <trkpt lat="0" lon="0">
        <time>2021-02-28T09:41:22.481000+00:00</time>
      </trkpt>
      <trkpt lat="0" lon="0">
        <time>2021-02-28T09:41:22.485000+00:00</time>
      </trkpt>
      <trkpt lat="0" lon="0">
        <time>2021-02-28T09:41:22.488000+00:00</time>
      </trkpt>
      <trkpt lat="47.32276" lon="-1.46172">
        <ele>91</ele>
        <time>2021-02-28T09:41:23.479000+00:00</time>
      </trkpt>
      <trkpt lat="0" lon="0">
        <time>2021-02-28T09:41:23.492000+00:00</time>
      </trkpt>
      <trkpt lat="0" lon="0">
        <time>2021-02-28T09:41:23.500000+00:00</time>
      </trkpt>
      <trkpt lat="0" lon="0">
        <time>2021-02-28T09:41:23.502000+00:00</time>
      </trkpt>
      <trkpt lat="47.32282" lon="-1.46172">
        <ele>91</ele>
        <time>2021-02-28T09:41:24.464000+00:00</time>
      </trkpt>
      <trkpt lat="0" lon="0">
        <time>2021-02-28T09:41:24.475000+00:00</time>
      </trkpt>
      <trkpt lat="0" lon="0">
        <time>2021-02-28T09:41:24.479000+00:00</time>
      </trkpt>
      <trkpt lat="0" lon="0">
        <time>2021-02-28T09:41:24.481000+00:00</time>
      </trkpt>
      <trkpt lat="47.32287" lon="-1.46174">
        <ele>90</ele>
        <time>2021-02-28T09:41:25.488000+00:00</time>
      </trkpt>
      <trkpt lat="0" lon="0">
        <time>2021-02-28T09:41:25.503000+00:00</time>
      </trkpt>
      <trkpt lat="0" lon="0">
        <time>2021-02-28T09:41:25.509000+00:00</time>
      </trkpt>
      <trkpt lat="0" lon="0">
        <time>2021-02-28T09:41:25.512000+00:00</time>
      </trkpt>
      <trkpt lat="47.32293" lon="-1.46175">
        <ele>90</ele>
        <time>2021-02-28T09:41:26.492000+00:00</time>
      </trkpt>
      <trkpt lat="0" lon="0">
        <time>2021-02-28T09:41:26.499000+00:00</time>
      </trkpt>
      <trkpt lat="0" lon="0">
        <time>2021-02-28T09:41:26.505000+00:00</time>
      </trkpt>
      <trkpt lat="0" lon="0">
        <time>2021-02-28T09:41:26.508000+00:00</time>
      </trkpt>
      <trkpt lat="47.32298" lon="-1.46176">
        <ele>91</ele>
        <time>2021-02-28T09:41:27.459000+00:00</time>
      </trkpt>
      <trkpt lat="0" lon="0">
        <time>2021-02-28T09:41:27.472000+00:00</time>
      </trkpt>
      <trkpt lat="0" lon="0">
        <time>2021-02-28T09:41:27.477000+00:00</time>
      </trkpt>
      <trkpt lat="0" lon="0">
        <time>2021-02-28T09:41:27.479000+00:00</time>
      </trkpt>
      <trkpt lat="47.32304" lon="-1.46177">
        <ele>91</ele>
        <time>2021-02-28T09:41:28.474000+00:00</time>
      </trkpt>
      <trkpt lat="0" lon="0">
        <time>2021-02-28T09:41:28.483000+00:00</time>
      </trkpt>
      <trkpt lat="0" lon="0">
        <time>2021-02-28T09:41:28.489000+00:00</time>
      </trkpt>
      <trkpt lat="0" lon="0">
        <time>2021-02-28T09:41:28.492000+00:00</time>
      </trkpt>
      <trkpt lat="47.32309" lon="-1.46178">
        <ele>91</ele>
        <time>2021-02-28T09:41:29.466000+00:00</time>
      </trkpt>
      <trkpt lat="0" lon="0">
        <time>2021-02-28T09:41:29.477000+00:00</time>
      </trkpt>
      <trkpt lat="0" lon="0">
        <time>2021-02-28T09:41:29.481000+00:00</time>
      </trkpt>
      <trkpt lat="0" lon="0">
        <time>2021-02-28T09:41:29.484000+00:00</time>
      </trkpt>
      <trkpt lat="47.32315" lon="-1.46178">
        <ele>90</ele>
        <time>2021-02-28T09:41:30.508000+00:00</time>
      </trkpt>
      <trkpt lat="0" lon="0">
        <time>2021-02-28T09:41:30.516000+00:00</time>
      </trkpt>
      <trkpt lat="0" lon="0">
        <time>2021-02-28T09:41:30.523000+00:00</time>
      </trkpt>
      <trkpt lat="0" lon="0">
        <time>2021-02-28T09:41:30.526000+00:00</time>
      </trkpt>
      <trkpt lat="47.3232" lon="-1.46179">
        <ele>91</ele>
        <time>2021-02-28T09:41:31.469000+00:00</time>
      </trkpt>
      <trkpt lat="0" lon="0">
        <time>2021-02-28T09:41:31.476000+00:00</time>
      </trkpt>
      <trkpt lat="0" lon="0">
        <time>2021-02-28T09:41:31.480000+00:00</time>
      </trkpt>
      <trkpt lat="0" lon="0">
        <time>2021-02-28T09:41:31.482000+00:00</time>
      </trkpt>
      <trkpt lat="47.32326" lon="-1.46179">
        <ele>91</ele>
        <time>2021-02-28T09:41:32.482000+00:00</time>
      </trkpt>
      <trkpt lat="0" lon="0">
        <time>2021-02-28T09:41:32.493000+00:00</time>
      </trkpt>
      <trkpt lat="0" lon="0">
        <time>2021-02-28T09:41:32.499000+00:00</time>
      </trkpt>
      <trkpt lat="0" lon="0">
        <time>2021-02-28T09:41:32.501000+00:00</time>
      </trkpt>
      <trkpt lat="47.32332" lon="-1.4618">
        <ele>90</ele>
        <time>2021-02-28T09:41:33.476000+00:00</time>
      </trkpt>
      <trkpt lat="0" lon="0">
        <time>2021-02-28T09:41:33.481000+00:00</time>
      </trkpt>
      <trkpt lat="0" lon="0">
        <time>2021-02-28T09:41:33.483000+00:00</time>
      </trkpt>
      <trkpt lat="0" lon="0">
        <time>2021-02-28T09:41:33.485000+00:00</time>
      </trkpt>
      <trkpt lat="47.32339" lon="-1.46181">
        <ele>90</ele>
        <time>2021-02-28T09:41:34.464000+00:00</time>
      </trkpt>
      <trkpt lat="0" lon="0">
        <time>2021-02-28T09:41:34.476000+00:00</time>
      </trkpt>
      <trkpt lat="0" lon="0">
        <time>2021-02-28T09:41:34.481000+00:00</time>
      </trkpt>
      <trkpt lat="0" lon="0">
        <time>2021-02-28T09:41:34.483000+00:00</time>
      </trkpt>
      <trkpt lat="47.32345" lon="-1.46181">
        <ele>90</ele>
        <time>2021-02-28T09:41:35.485000+00:00</time>
      </trkpt>
      <trkpt lat="0" lon="0">
        <time>2021-02-28T09:41:35.493000+00:00</time>
      </trkpt>
      <trkpt lat="0" lon="0">
        <time>2021-02-28T09:41:35.499000+00:00</time>
      </trkpt>
      <trkpt lat="0" lon="0">
        <time>2021-02-28T09:41:35.503000+00:00</time>
      </trkpt>
      <trkpt lat="47.32352" lon="-1.46183">
        <ele>91</ele>
        <time>2021-02-28T09:41:36.464000+00:00</time>
      </trkpt>
      <trkpt lat="0" lon="0">
        <time>2021-02-28T09:41:36.470000+00:00</time>
      </trkpt>
      <trkpt lat="0" lon="0">
        <time>2021-02-28T09:41:36.477000+00:00</time>
      </trkpt>
      <trkpt lat="0" lon="0">
        <time>2021-02-28T09:41:36.481000+00:00</time>
      </trkpt>
      <trkpt lat="47.32359" lon="-1.46184">
        <ele>91</ele>
        <time>2021-02-28T09:41:37.450000+00:00</time>
      </trkpt>
      <trkpt lat="0" lon="0">
        <time>2021-02-28T09:41:37.459000+00:00</time>
      </trkpt>
      <trkpt lat="0" lon="0">
        <time>2021-02-28T09:41:37.466000+00:00</time>
      </trkpt>
      <trkpt lat="0" lon="0">
        <time>2021-02-28T09:41:37.468000+00:00</time>
      </trkpt>
      <trkpt lat="47.32366" lon="-1.46185">
        <ele>91</ele>
        <time>2021-02-28T09:41:38.475000+00:00</time>
      </trkpt>
      <trkpt lat="0" lon="0">
        <time>2021-02-28T09:41:38.483000+00:00</time>
      </trkpt>
      <trkpt lat="0" lon="0">
        <time>2021-02-28T09:41:38.488000+00:00</time>
      </trkpt>
      <trkpt lat="0" lon="0">
        <time>2021-02-28T09:41:38.490000+00:00</time>
      </trkpt>
      <trkpt lat="47.32373" lon="-1.46186">
        <ele>91</ele>
        <time>2021-02-28T09:41:39.407000+00:00</time>
      </trkpt>
      <trkpt lat="0" lon="0">
        <time>2021-02-28T09:41:39.412000+00:00</time>
      </trkpt>
      <trkpt lat="0" lon="0">
        <time>2021-02-28T09:41:39.417000+00:00</time>
      </trkpt>
      <trkpt lat="0" lon="0">
        <time>2021-02-28T09:41:39.420000+00:00</time>
      </trkpt>
      <trkpt lat="47.32379" lon="-1.46187">
        <ele>91</ele>
        <time>2021-02-28T09:41:40.483000+00:00</time>
      </trkpt>
      <trkpt lat="0" lon="0">
        <time>2021-02-28T09:41:40.492000+00:00</time>
      </trkpt>
      <trkpt lat="0" lon="0">
        <time>2021-02-28T09:41:40.497000+00:00</time>
      </trkpt>
      <trkpt lat="0" lon="0">
        <time>2021-02-28T09:41:40.499000+00:00</time>
      </trkpt>
      <trkpt lat="47.32386" lon="-1.46187">
        <ele>92</ele>
        <time>2021-02-28T09:41:41.460000+00:00</time>
      </trkpt>
      <trkpt lat="0" lon="0">
        <time>2021-02-28T09:41:41.469000+00:00</time>
      </trkpt>
      <trkpt lat="0" lon="0">
        <time>2021-02-28T09:41:41.476000+00:00</time>
      </trkpt>
      <trkpt lat="0" lon="0">
        <time>2021-02-28T09:41:41.478000+00:00</time>
      </trkpt>
      <trkpt lat="47.32392" lon="-1.46188">
        <ele>93</ele>
        <time>2021-02-28T09:41:42.466000+00:00</time>
      </trkpt>
      <trkpt lat="0" lon="0">
        <time>2021-02-28T09:41:42.475000+00:00</time>
      </trkpt>
      <trkpt lat="0" lon="0">
        <time>2021-02-28T09:41:42.480000+00:00</time>
      </trkpt>
      <trkpt lat="0" lon="0">
        <time>2021-02-28T09:41:42.483000+00:00</time>
      </trkpt>
      <trkpt lat="47.32398" lon="-1.46188">
        <ele>92</ele>
        <time>2021-02-28T09:41:43.459000+00:00</time>
      </trkpt>
      <trkpt lat="0" lon="0">
        <time>2021-02-28T09:41:43.472000+00:00</time>
      </trkpt>
      <trkpt lat="0" lon="0">
        <time>2021-02-28T09:41:43.476000+00:00</time>
      </trkpt>
      <trkpt lat="0" lon="0">
        <time>2021-02-28T09:41:43.479000+00:00</time>
      </trkpt>
      <trkpt lat="47.32405" lon="-1.46189">
        <ele>92</ele>
        <time>2021-02-28T09:41:44.441000+00:00</time>
      </trkpt>
      <trkpt lat="0" lon="0">
        <time>2021-02-28T09:41:44.448000+00:00</time>
      </trkpt>
      <trkpt lat="0" lon="0">
        <time>2021-02-28T09:41:44.453000+00:00</time>
      </trkpt>
      <trkpt lat="0" lon="0">
        <time>2021-02-28T09:41:44.456000+00:00</time>
      </trkpt>
      <trkpt lat="47.32411" lon="-1.46189">
        <ele>92</ele>
        <time>2021-02-28T09:41:45.507000+00:00</time>
      </trkpt>
      <trkpt lat="0" lon="0">
        <time>2021-02-28T09:41:45.515000+00:00</time>
      </trkpt>
      <trkpt lat="0" lon="0">
        <time>2021-02-28T09:41:45.520000+00:00</time>
      </trkpt>
      <trkpt lat="0" lon="0">
        <time>2021-02-28T09:41:45.522000+00:00</time>
      </trkpt>
      <trkpt lat="47.32417" lon="-1.4619">
        <ele>92</ele>
        <time>2021-02-28T09:41:46.430000+00:00</time>
      </trkpt>
      <trkpt lat="0" lon="0">
        <time>2021-02-28T09:41:46.440000+00:00</time>
      </trkpt>
      <trkpt lat="0" lon="0">
        <time>2021-02-28T09:41:46.442000+00:00</time>
      </trkpt>
      <trkpt lat="0" lon="0">
        <time>2021-02-28T09:41:46.443000+00:00</time>
      </trkpt>
      <trkpt lat="47.32423" lon="-1.46191">
        <ele>92</ele>
        <time>2021-02-28T09:41:47.474000+00:00</time>
      </trkpt>
      <trkpt lat="0" lon="0">
        <time>2021-02-28T09:41:47.488000+00:00</time>
      </trkpt>
      <trkpt lat="0" lon="0">
        <time>2021-02-28T09:41:47.493000+00:00</time>
      </trkpt>
      <trkpt lat="0" lon="0">
        <time>2021-02-28T09:41:47.495000+00:00</time>
      </trkpt>
      <trkpt lat="47.3243" lon="-1.46191">
        <ele>93</ele>
        <time>2021-02-28T09:41:48.466000+00:00</time>
      </trkpt>
      <trkpt lat="0" lon="0">
        <time>2021-02-28T09:41:48.472000+00:00</time>
      </trkpt>
      <trkpt lat="0" lon="0">
        <time>2021-02-28T09:41:48.477000+00:00</time>
      </trkpt>
      <trkpt lat="0" lon="0">
        <time>2021-02-28T09:41:48.480000+00:00</time>
      </trkpt>
      <trkpt lat="47.32436" lon="-1.46192">
        <ele>93</ele>
        <time>2021-02-28T09:41:49.438000+00:00</time>
      </trkpt>
      <trkpt lat="0" lon="0">
        <time>2021-02-28T09:41:49.449000+00:00</time>
      </trkpt>
      <trkpt lat="0" lon="0">
        <time>2021-02-28T09:41:49.454000+00:00</time>
      </trkpt>
      <trkpt lat="0" lon="0">
        <time>2021-02-28T09:41:49.459000+00:00</time>
      </trkpt>
      <trkpt lat="47.32442" lon="-1.46192">
        <ele>93</ele>
        <time>2021-02-28T09:41:50.461000+00:00</time>
      </trkpt>
      <trkpt lat="0" lon="0">
        <time>2021-02-28T09:41:50.466000+00:00</time>
      </trkpt>
      <trkpt lat="0" lon="0">
        <time>2021-02-28T09:41:50.470000+00:00</time>
      </trkpt>
      <trkpt lat="0" lon="0">
        <time>2021-02-28T09:41:50.473000+00:00</time>
      </trkpt>
      <trkpt lat="47.32448" lon="-1.46192">
        <ele>93</ele>
        <time>2021-02-28T09:41:51.494000+00:00</time>
      </trkpt>
      <trkpt lat="0" lon="0">
        <time>2021-02-28T09:41:51.501000+00:00</time>
      </trkpt>
      <trkpt lat="0" lon="0">
        <time>2021-02-28T09:41:51.505000+00:00</time>
      </trkpt>
      <trkpt lat="0" lon="0">
        <time>2021-02-28T09:41:51.508000+00:00</time>
      </trkpt>
      <trkpt lat="47.32454" lon="-1.46192">
        <ele>93</ele>
        <time>2021-02-28T09:41:52.457000+00:00</time>
      </trkpt>
      <trkpt lat="0" lon="0">
        <time>2021-02-28T09:41:52.467000+00:00</time>
      </trkpt>
      <trkpt lat="0" lon="0">
        <time>2021-02-28T09:41:52.471000+00:00</time>
      </trkpt>
      <trkpt lat="0" lon="0">
        <time>2021-02-28T09:41:52.473000+00:00</time>
      </trkpt>
      <trkpt lat="47.3246" lon="-1.46191">
        <ele>94</ele>
        <time>2021-02-28T09:41:53.504000+00:00</time>
      </trkpt>
      <trkpt lat="0" lon="0">
        <time>2021-02-28T09:41:53.512000+00:00</time>
      </trkpt>
      <trkpt lat="0" lon="0">
        <time>2021-02-28T09:41:53.519000+00:00</time>
      </trkpt>
      <trkpt lat="0" lon="0">
        <time>2021-02-28T09:41:53.523000+00:00</time>
      </trkpt>
      <trkpt lat="47.32466" lon="-1.46191">
        <ele>94</ele>
        <time>2021-02-28T09:41:54.455000+00:00</time>
      </trkpt>
      <trkpt lat="0" lon="0">
        <time>2021-02-28T09:41:54.460000+00:00</time>
      </trkpt>
      <trkpt lat="0" lon="0">
        <time>2021-02-28T09:41:54.469000+00:00</time>
      </trkpt>
      <trkpt lat="0" lon="0">
        <time>2021-02-28T09:41:54.472000+00:00</time>
      </trkpt>
      <trkpt lat="47.32472" lon="-1.4619">
        <ele>95</ele>
        <time>2021-02-28T09:41:55.459000+00:00</time>
      </trkpt>
      <trkpt lat="0" lon="0">
        <time>2021-02-28T09:41:55.469000+00:00</time>
      </trkpt>
      <trkpt lat="0" lon="0">
        <time>2021-02-28T09:41:55.474000+00:00</time>
      </trkpt>
      <trkpt lat="0" lon="0">
        <time>2021-02-28T09:41:55.477000+00:00</time>
      </trkpt>
      <trkpt lat="47.32478" lon="-1.4619">
        <ele>95</ele>
        <time>2021-02-28T09:41:56.467000+00:00</time>
      </trkpt>
      <trkpt lat="0" lon="0">
        <time>2021-02-28T09:41:56.474000+00:00</time>
      </trkpt>
      <trkpt lat="0" lon="0">
        <time>2021-02-28T09:41:56.479000+00:00</time>
      </trkpt>
      <trkpt lat="0" lon="0">
        <time>2021-02-28T09:41:56.482000+00:00</time>
      </trkpt>
      <trkpt lat="47.32483" lon="-1.46189">
        <ele>94</ele>
        <time>2021-02-28T09:41:57.495000+00:00</time>
      </trkpt>
      <trkpt lat="0" lon="0">
        <time>2021-02-28T09:41:57.504000+00:00</time>
      </trkpt>
      <trkpt lat="0" lon="0">
        <time>2021-02-28T09:41:57.515000+00:00</time>
      </trkpt>
      <trkpt lat="0" lon="0">
        <time>2021-02-28T09:41:57.517000+00:00</time>
      </trkpt>
      <trkpt lat="47.32489" lon="-1.46188">
        <ele>94</ele>
        <time>2021-02-28T09:41:58.506000+00:00</time>
      </trkpt>
      <trkpt lat="0" lon="0">
        <time>2021-02-28T09:41:58.511000+00:00</time>
      </trkpt>
      <trkpt lat="0" lon="0">
        <time>2021-02-28T09:41:58.515000+00:00</time>
      </trkpt>
      <trkpt lat="0" lon="0">
        <time>2021-02-28T09:41:58.518000+00:00</time>
      </trkpt>
      <trkpt lat="47.32494" lon="-1.46188">
        <ele>95</ele>
        <time>2021-02-28T09:41:59.470000+00:00</time>
      </trkpt>
      <trkpt lat="0" lon="0">
        <time>2021-02-28T09:41:59.479000+00:00</time>
      </trkpt>
      <trkpt lat="0" lon="0">
        <time>2021-02-28T09:41:59.483000+00:00</time>
      </trkpt>
      <trkpt lat="0" lon="0">
        <time>2021-02-28T09:41:59.486000+00:00</time>
      </trkpt>
      <trkpt lat="47.32499" lon="-1.46187">
        <ele>95</ele>
        <time>2021-02-28T09:42:00.494000+00:00</time>
      </trkpt>
      <trkpt lat="0" lon="0">
        <time>2021-02-28T09:42:00.505000+00:00</time>
      </trkpt>
      <trkpt lat="0" lon="0">
        <time>2021-02-28T09:42:00.513000+00:00</time>
      </trkpt>
      <trkpt lat="0" lon="0">
        <time>2021-02-28T09:42:00.516000+00:00</time>
      </trkpt>
      <trkpt lat="47.32504" lon="-1.46186">
        <ele>94</ele>
        <time>2021-02-28T09:42:01.478000+00:00</time>
      </trkpt>
      <trkpt lat="0" lon="0">
        <time>2021-02-28T09:42:01.485000+00:00</time>
      </trkpt>
      <trkpt lat="0" lon="0">
        <time>2021-02-28T09:42:01.493000+00:00</time>
      </trkpt>
      <trkpt lat="0" lon="0">
        <time>2021-02-28T09:42:01.496000+00:00</time>
      </trkpt>
      <trkpt lat="47.32509" lon="-1.46186">
        <ele>95</ele>
        <time>2021-02-28T09:42:02.437000+00:00</time>
      </trkpt>
      <trkpt lat="0" lon="0">
        <time>2021-02-28T09:42:02.441000+00:00</time>
      </trkpt>
      <trkpt lat="0" lon="0">
        <time>2021-02-28T09:42:02.450000+00:00</time>
      </trkpt>
      <trkpt lat="0" lon="0">
        <time>2021-02-28T09:42:02.452000+00:00</time>
      </trkpt>
      <trkpt lat="47.32514" lon="-1.46185">
        <ele>95</ele>
        <time>2021-02-28T09:42:03.470000+00:00</time>
      </trkpt>
      <trkpt lat="0" lon="0">
        <time>2021-02-28T09:42:03.480000+00:00</time>
      </trkpt>
      <trkpt lat="0" lon="0">
        <time>2021-02-28T09:42:03.485000+00:00</time>
      </trkpt>
      <trkpt lat="0" lon="0">
        <time>2021-02-28T09:42:03.487000+00:00</time>
      </trkpt>
      <trkpt lat="47.32519" lon="-1.46184">
        <ele>95</ele>
        <time>2021-02-28T09:42:04.407000+00:00</time>
      </trkpt>
      <trkpt lat="0" lon="0">
        <time>2021-02-28T09:42:04.414000+00:00</time>
      </trkpt>
      <trkpt lat="0" lon="0">
        <time>2021-02-28T09:42:04.418000+00:00</time>
      </trkpt>
      <trkpt lat="0" lon="0">
        <time>2021-02-28T09:42:04.420000+00:00</time>
      </trkpt>
      <trkpt lat="47.32523" lon="-1.46183">
        <ele>95</ele>
        <time>2021-02-28T09:42:05.463000+00:00</time>
      </trkpt>
      <trkpt lat="0" lon="0">
        <time>2021-02-28T09:42:05.475000+00:00</time>
      </trkpt>
      <trkpt lat="0" lon="0">
        <time>2021-02-28T09:42:05.484000+00:00</time>
      </trkpt>
      <trkpt lat="0" lon="0">
        <time>2021-02-28T09:42:05.487000+00:00</time>
      </trkpt>
      <trkpt lat="47.32528" lon="-1.46182">
        <ele>96</ele>
        <time>2021-02-28T09:42:06.455000+00:00</time>
      </trkpt>
      <trkpt lat="0" lon="0">
        <time>2021-02-28T09:42:06.463000+00:00</time>
      </trkpt>
      <trkpt lat="0" lon="0">
        <time>2021-02-28T09:42:06.470000+00:00</time>
      </trkpt>
      <trkpt lat="0" lon="0">
        <time>2021-02-28T09:42:06.472000+00:00</time>
      </trkpt>
      <trkpt lat="47.32532" lon="-1.46181">
        <ele>96</ele>
        <time>2021-02-28T09:42:07.468000+00:00</time>
      </trkpt>
      <trkpt lat="0" lon="0">
        <time>2021-02-28T09:42:07.470000+00:00</time>
      </trkpt>
      <trkpt lat="0" lon="0">
        <time>2021-02-28T09:42:07.473000+00:00</time>
      </trkpt>
      <trkpt lat="0" lon="0">
        <time>2021-02-28T09:42:07.474000+00:00</time>
      </trkpt>
      <trkpt lat="47.32537" lon="-1.4618">
        <ele>96</ele>
        <time>2021-02-28T09:42:08.408000+00:00</time>
      </trkpt>
      <trkpt lat="0" lon="0">
        <time>2021-02-28T09:42:08.415000+00:00</time>
      </trkpt>
      <trkpt lat="0" lon="0">
        <time>2021-02-28T09:42:08.419000+00:00</time>
      </trkpt>
      <trkpt lat="0" lon="0">
        <time>2021-02-28T09:42:08.421000+00:00</time>
      </trkpt>
      <trkpt lat="47.32541" lon="-1.46179">
        <ele>96</ele>
        <time>2021-02-28T09:42:09.439000+00:00</time>
      </trkpt>
      <trkpt lat="0" lon="0">
        <time>2021-02-28T09:42:09.447000+00:00</time>
      </trkpt>
      <trkpt lat="0" lon="0">
        <time>2021-02-28T09:42:09.451000+00:00</time>
      </trkpt>
      <trkpt lat="0" lon="0">
        <time>2021-02-28T09:42:09.453000+00:00</time>
      </trkpt>
      <trkpt lat="47.32545" lon="-1.46178">
        <ele>97</ele>
        <time>2021-02-28T09:42:10.493000+00:00</time>
      </trkpt>
      <trkpt lat="0" lon="0">
        <time>2021-02-28T09:42:10.504000+00:00</time>
      </trkpt>
      <trkpt lat="0" lon="0">
        <time>2021-02-28T09:42:10.513000+00:00</time>
      </trkpt>
      <trkpt lat="0" lon="0">
        <time>2021-02-28T09:42:10.516000+00:00</time>
      </trkpt>
      <trkpt lat="47.32549" lon="-1.46177">
        <ele>97</ele>
        <time>2021-02-28T09:42:11.444000+00:00</time>
      </trkpt>
      <trkpt lat="0" lon="0">
        <time>2021-02-28T09:42:11.453000+00:00</time>
      </trkpt>
      <trkpt lat="0" lon="0">
        <time>2021-02-28T09:42:11.459000+00:00</time>
      </trkpt>
      <trkpt lat="0" lon="0">
        <time>2021-02-28T09:42:11.461000+00:00</time>
      </trkpt>
      <trkpt lat="47.32553" lon="-1.46176">
        <ele>97</ele>
        <time>2021-02-28T09:42:12.496000+00:00</time>
      </trkpt>
      <trkpt lat="0" lon="0">
        <time>2021-02-28T09:42:12.502000+00:00</time>
      </trkpt>
      <trkpt lat="0" lon="0">
        <time>2021-02-28T09:42:12.507000+00:00</time>
      </trkpt>
      <trkpt lat="0" lon="0">
        <time>2021-02-28T09:42:12.510000+00:00</time>
      </trkpt>
      <trkpt lat="47.32557" lon="-1.46175">
        <ele>97</ele>
        <time>2021-02-28T09:42:13.348000+00:00</time>
      </trkpt>
      <trkpt lat="0" lon="0">
        <time>2021-02-28T09:42:13.349000+00:00</time>
      </trkpt>
      <trkpt lat="0" lon="0">
        <time>2021-02-28T09:42:13.350000+00:00</time>
      </trkpt>
      <trkpt lat="0" lon="0">
        <time>2021-02-28T09:42:13.351000+00:00</time>
      </trkpt>
      <trkpt lat="47.32561" lon="-1.46174">
        <ele>97</ele>
        <time>2021-02-28T09:42:14.444000+00:00</time>
      </trkpt>
      <trkpt lat="0" lon="0">
        <time>2021-02-28T09:42:14.449000+00:00</time>
      </trkpt>
      <trkpt lat="0" lon="0">
        <time>2021-02-28T09:42:14.453000+00:00</time>
      </trkpt>
      <trkpt lat="0" lon="0">
        <time>2021-02-28T09:42:14.457000+00:00</time>
      </trkpt>
      <trkpt lat="47.32565" lon="-1.46173">
        <ele>98</ele>
        <time>2021-02-28T09:42:15.469000+00:00</time>
      </trkpt>
      <trkpt lat="0" lon="0">
        <time>2021-02-28T09:42:15.477000+00:00</time>
      </trkpt>
      <trkpt lat="0" lon="0">
        <time>2021-02-28T09:42:15.482000+00:00</time>
      </trkpt>
      <trkpt lat="0" lon="0">
        <time>2021-02-28T09:42:15.486000+00:00</time>
      </trkpt>
      <trkpt lat="47.32569" lon="-1.46171">
        <ele>98</ele>
        <time>2021-02-28T09:42:16.476000+00:00</time>
      </trkpt>
      <trkpt lat="0" lon="0">
        <time>2021-02-28T09:42:16.482000+00:00</time>
      </trkpt>
      <trkpt lat="0" lon="0">
        <time>2021-02-28T09:42:16.486000+00:00</time>
      </trkpt>
      <trkpt lat="0" lon="0">
        <time>2021-02-28T09:42:16.489000+00:00</time>
      </trkpt>
      <trkpt lat="47.32574" lon="-1.4617">
        <ele>99</ele>
        <time>2021-02-28T09:42:17.467000+00:00</time>
      </trkpt>
      <trkpt lat="0" lon="0">
        <time>2021-02-28T09:42:17.475000+00:00</time>
      </trkpt>
      <trkpt lat="0" lon="0">
        <time>2021-02-28T09:42:17.479000+00:00</time>
      </trkpt>
      <trkpt lat="0" lon="0">
        <time>2021-02-28T09:42:17.482000+00:00</time>
      </trkpt>
      <trkpt lat="47.32578" lon="-1.46168">
        <ele>99</ele>
        <time>2021-02-28T09:42:18.487000+00:00</time>
      </trkpt>
      <trkpt lat="0" lon="0">
        <time>2021-02-28T09:42:18.493000+00:00</time>
      </trkpt>
      <trkpt lat="0" lon="0">
        <time>2021-02-28T09:42:18.509000+00:00</time>
      </trkpt>
      <trkpt lat="0" lon="0">
        <time>2021-02-28T09:42:18.517000+00:00</time>
      </trkpt>
      <trkpt lat="47.32582" lon="-1.46166">
        <ele>99</ele>
        <time>2021-02-28T09:42:19.459000+00:00</time>
      </trkpt>
      <trkpt lat="0" lon="0">
        <time>2021-02-28T09:42:19.460000+00:00</time>
      </trkpt>
      <trkpt lat="0" lon="0">
        <time>2021-02-28T09:42:19.465000+00:00</time>
      </trkpt>
      <trkpt lat="0" lon="0">
        <time>2021-02-28T09:42:19.469000+00:00</time>
      </trkpt>
      <trkpt lat="47.32587" lon="-1.46164">
        <ele>100</ele>
        <time>2021-02-28T09:42:20.496000+00:00</time>
      </trkpt>
      <trkpt lat="0" lon="0">
        <time>2021-02-28T09:42:20.501000+00:00</time>
      </trkpt>
      <trkpt lat="0" lon="0">
        <time>2021-02-28T09:42:20.506000+00:00</time>
      </trkpt>
      <trkpt lat="0" lon="0">
        <time>2021-02-28T09:42:20.509000+00:00</time>
      </trkpt>
      <trkpt lat="47.32591" lon="-1.46162">
        <ele>100</ele>
        <time>2021-02-28T09:42:21.440000+00:00</time>
      </trkpt>
      <trkpt lat="0" lon="0">
        <time>2021-02-28T09:42:21.454000+00:00</time>
      </trkpt>
      <trkpt lat="0" lon="0">
        <time>2021-02-28T09:42:21.456000+00:00</time>
      </trkpt>
      <trkpt lat="0" lon="0">
        <time>2021-02-28T09:42:21.460000+00:00</time>
      </trkpt>
      <trkpt lat="47.32596" lon="-1.46159">
        <ele>101</ele>
        <time>2021-02-28T09:42:22.503000+00:00</time>
      </trkpt>
      <trkpt lat="0" lon="0">
        <time>2021-02-28T09:42:22.511000+00:00</time>
      </trkpt>
      <trkpt lat="0" lon="0">
        <time>2021-02-28T09:42:22.519000+00:00</time>
      </trkpt>
      <trkpt lat="0" lon="0">
        <time>2021-02-28T09:42:22.523000+00:00</time>
      </trkpt>
      <trkpt lat="47.32601" lon="-1.46157">
        <ele>102</ele>
        <time>2021-02-28T09:42:23.487000+00:00</time>
      </trkpt>
      <trkpt lat="0" lon="0">
        <time>2021-02-28T09:42:23.493000+00:00</time>
      </trkpt>
      <trkpt lat="0" lon="0">
        <time>2021-02-28T09:42:23.499000+00:00</time>
      </trkpt>
      <trkpt lat="0" lon="0">
        <time>2021-02-28T09:42:23.503000+00:00</time>
      </trkpt>
      <trkpt lat="47.32606" lon="-1.46154">
        <ele>102</ele>
        <time>2021-02-28T09:42:24.471000+00:00</time>
      </trkpt>
      <trkpt lat="0" lon="0">
        <time>2021-02-28T09:42:24.479000+00:00</time>
      </trkpt>
      <trkpt lat="0" lon="0">
        <time>2021-02-28T09:42:24.484000+00:00</time>
      </trkpt>
      <trkpt lat="0" lon="0">
        <time>2021-02-28T09:42:24.486000+00:00</time>
      </trkpt>
      <trkpt lat="47.32611" lon="-1.46152">
        <ele>102</ele>
        <time>2021-02-28T09:42:25.484000+00:00</time>
      </trkpt>
      <trkpt lat="0" lon="0">
        <time>2021-02-28T09:42:25.500000+00:00</time>
      </trkpt>
      <trkpt lat="0" lon="0">
        <time>2021-02-28T09:42:25.507000+00:00</time>
      </trkpt>
      <trkpt lat="0" lon="0">
        <time>2021-02-28T09:42:25.509000+00:00</time>
      </trkpt>
      <trkpt lat="47.32616" lon="-1.46149">
        <ele>102</ele>
        <time>2021-02-28T09:42:26.490000+00:00</time>
      </trkpt>
      <trkpt lat="0" lon="0">
        <time>2021-02-28T09:42:26.495000+00:00</time>
      </trkpt>
      <trkpt lat="0" lon="0">
        <time>2021-02-28T09:42:26.500000+00:00</time>
      </trkpt>
      <trkpt lat="0" lon="0">
        <time>2021-02-28T09:42:26.503000+00:00</time>
      </trkpt>
      <trkpt lat="47.32621" lon="-1.46146">
        <ele>102</ele>
        <time>2021-02-28T09:42:27.477000+00:00</time>
      </trkpt>
      <trkpt lat="0" lon="0">
        <time>2021-02-28T09:42:27.487000+00:00</time>
      </trkpt>
      <trkpt lat="0" lon="0">
        <time>2021-02-28T09:42:27.492000+00:00</time>
      </trkpt>
      <trkpt lat="0" lon="0">
        <time>2021-02-28T09:42:27.494000+00:00</time>
      </trkpt>
      <trkpt lat="47.32627" lon="-1.46143">
        <ele>103</ele>
        <time>2021-02-28T09:42:28.479000+00:00</time>
      </trkpt>
      <trkpt lat="0" lon="0">
        <time>2021-02-28T09:42:28.488000+00:00</time>
      </trkpt>
      <trkpt lat="0" lon="0">
        <time>2021-02-28T09:42:28.494000+00:00</time>
      </trkpt>
      <trkpt lat="0" lon="0">
        <time>2021-02-28T09:42:28.497000+00:00</time>
      </trkpt>
      <trkpt lat="47.32633" lon="-1.4614">
        <ele>103</ele>
        <time>2021-02-28T09:42:29.481000+00:00</time>
      </trkpt>
      <trkpt lat="0" lon="0">
        <time>2021-02-28T09:42:29.501000+00:00</time>
      </trkpt>
      <trkpt lat="0" lon="0">
        <time>2021-02-28T09:42:29.506000+00:00</time>
      </trkpt>
      <trkpt lat="0" lon="0">
        <time>2021-02-28T09:42:29.508000+00:00</time>
      </trkpt>
      <trkpt lat="47.32639" lon="-1.46137">
        <ele>104</ele>
        <time>2021-02-28T09:42:30.442000+00:00</time>
      </trkpt>
      <trkpt lat="0" lon="0">
        <time>2021-02-28T09:42:30.452000+00:00</time>
      </trkpt>
      <trkpt lat="0" lon="0">
        <time>2021-02-28T09:42:30.463000+00:00</time>
      </trkpt>
      <trkpt lat="0" lon="0">
        <time>2021-02-28T09:42:30.465000+00:00</time>
      </trkpt>
      <trkpt lat="47.32644" lon="-1.46134">
        <ele>104</ele>
        <time>2021-02-28T09:42:31.464000+00:00</time>
      </trkpt>
      <trkpt lat="0" lon="0">
        <time>2021-02-28T09:42:31.472000+00:00</time>
      </trkpt>
      <trkpt lat="0" lon="0">
        <time>2021-02-28T09:42:31.479000+00:00</time>
      </trkpt>
      <trkpt lat="0" lon="0">
        <time>2021-02-28T09:42:31.483000+00:00</time>
      </trkpt>
      <trkpt lat="47.3265" lon="-1.46131">
        <ele>104</ele>
        <time>2021-02-28T09:42:32.491000+00:00</time>
      </trkpt>
      <trkpt lat="0" lon="0">
        <time>2021-02-28T09:42:32.499000+00:00</time>
      </trkpt>
      <trkpt lat="0" lon="0">
        <time>2021-02-28T09:42:32.511000+00:00</time>
      </trkpt>
      <trkpt lat="0" lon="0">
        <time>2021-02-28T09:42:32.513000+00:00</time>
      </trkpt>
      <trkpt lat="47.32656" lon="-1.46129">
        <ele>103</ele>
        <time>2021-02-28T09:42:33.501000+00:00</time>
      </trkpt>
      <trkpt lat="0" lon="0">
        <time>2021-02-28T09:42:33.508000+00:00</time>
      </trkpt>
      <trkpt lat="0" lon="0">
        <time>2021-02-28T09:42:33.514000+00:00</time>
      </trkpt>
      <trkpt lat="0" lon="0">
        <time>2021-02-28T09:42:33.517000+00:00</time>
      </trkpt>
      <trkpt lat="47.32662" lon="-1.46126">
        <ele>104</ele>
        <time>2021-02-28T09:42:34.461000+00:00</time>
      </trkpt>
      <trkpt lat="0" lon="0">
        <time>2021-02-28T09:42:34.466000+00:00</time>
      </trkpt>
      <trkpt lat="0" lon="0">
        <time>2021-02-28T09:42:34.475000+00:00</time>
      </trkpt>
      <trkpt lat="0" lon="0">
        <time>2021-02-28T09:42:34.478000+00:00</time>
      </trkpt>
      <trkpt lat="47.32668" lon="-1.46124">
        <ele>103</ele>
        <time>2021-02-28T09:42:35.502000+00:00</time>
      </trkpt>
      <trkpt lat="0" lon="0">
        <time>2021-02-28T09:42:35.518000+00:00</time>
      </trkpt>
      <trkpt lat="0" lon="0">
        <time>2021-02-28T09:42:35.526000+00:00</time>
      </trkpt>
      <trkpt lat="0" lon="0">
        <time>2021-02-28T09:42:35.533000+00:00</time>
      </trkpt>
      <trkpt lat="47.32675" lon="-1.46121">
        <ele>103</ele>
        <time>2021-02-28T09:42:36.491000+00:00</time>
      </trkpt>
      <trkpt lat="0" lon="0">
        <time>2021-02-28T09:42:36.494000+00:00</time>
      </trkpt>
      <trkpt lat="0" lon="0">
        <time>2021-02-28T09:42:36.500000+00:00</time>
      </trkpt>
      <trkpt lat="0" lon="0">
        <time>2021-02-28T09:42:36.501000+00:00</time>
      </trkpt>
      <trkpt lat="47.32681" lon="-1.4612">
        <ele>102</ele>
        <time>2021-02-28T09:42:37.467000+00:00</time>
      </trkpt>
      <trkpt lat="0" lon="0">
        <time>2021-02-28T09:42:37.472000+00:00</time>
      </trkpt>
      <trkpt lat="0" lon="0">
        <time>2021-02-28T09:42:37.477000+00:00</time>
      </trkpt>
      <trkpt lat="0" lon="0">
        <time>2021-02-28T09:42:37.479000+00:00</time>
      </trkpt>
      <trkpt lat="47.32687" lon="-1.46118">
        <ele>102</ele>
        <time>2021-02-28T09:42:38.508000+00:00</time>
      </trkpt>
      <trkpt lat="0" lon="0">
        <time>2021-02-28T09:42:38.517000+00:00</time>
      </trkpt>
      <trkpt lat="0" lon="0">
        <time>2021-02-28T09:42:38.521000+00:00</time>
      </trkpt>
      <trkpt lat="0" lon="0">
        <time>2021-02-28T09:42:38.523000+00:00</time>
      </trkpt>
      <trkpt lat="47.32694" lon="-1.46116">
        <ele>102</ele>
        <time>2021-02-28T09:42:39.484000+00:00</time>
      </trkpt>
      <trkpt lat="0" lon="0">
        <time>2021-02-28T09:42:39.491000+00:00</time>
      </trkpt>
      <trkpt lat="0" lon="0">
        <time>2021-02-28T09:42:39.496000+00:00</time>
      </trkpt>
      <trkpt lat="0" lon="0">
        <time>2021-02-28T09:42:39.499000+00:00</time>
      </trkpt>
      <trkpt lat="47.327" lon="-1.46115">
        <ele>102</ele>
        <time>2021-02-28T09:42:40.455000+00:00</time>
      </trkpt>
      <trkpt lat="0" lon="0">
        <time>2021-02-28T09:42:40.466000+00:00</time>
      </trkpt>
      <trkpt lat="0" lon="0">
        <time>2021-02-28T09:42:40.471000+00:00</time>
      </trkpt>
      <trkpt lat="0" lon="0">
        <time>2021-02-28T09:42:40.475000+00:00</time>
      </trkpt>
      <trkpt lat="47.32706" lon="-1.46113">
        <ele>102</ele>
        <time>2021-02-28T09:42:41.469000+00:00</time>
      </trkpt>
      <trkpt lat="0" lon="0">
        <time>2021-02-28T09:42:41.480000+00:00</time>
      </trkpt>
      <trkpt lat="0" lon="0">
        <time>2021-02-28T09:42:41.485000+00:00</time>
      </trkpt>
      <trkpt lat="0" lon="0">
        <time>2021-02-28T09:42:41.488000+00:00</time>
      </trkpt>
      <trkpt lat="47.32712" lon="-1.46111">
        <ele>102</ele>
        <time>2021-02-28T09:42:42.448000+00:00</time>
      </trkpt>
      <trkpt lat="0" lon="0">
        <time>2021-02-28T09:42:42.454000+00:00</time>
      </trkpt>
      <trkpt lat="0" lon="0">
        <time>2021-02-28T09:42:42.459000+00:00</time>
      </trkpt>
      <trkpt lat="0" lon="0">
        <time>2021-02-28T09:42:42.461000+00:00</time>
      </trkpt>
      <trkpt lat="47.32718" lon="-1.46109">
        <ele>101</ele>
        <time>2021-02-28T09:42:43.461000+00:00</time>
      </trkpt>
      <trkpt lat="0" lon="0">
        <time>2021-02-28T09:42:43.472000+00:00</time>
      </trkpt>
      <trkpt lat="0" lon="0">
        <time>2021-02-28T09:42:43.481000+00:00</time>
      </trkpt>
      <trkpt lat="0" lon="0">
        <time>2021-02-28T09:42:43.484000+00:00</time>
      </trkpt>
      <trkpt lat="47.32724" lon="-1.46107">
        <ele>101</ele>
        <time>2021-02-28T09:42:44.349000+00:00</time>
      </trkpt>
      <trkpt lat="0" lon="0">
        <time>2021-02-28T09:42:44.360000+00:00</time>
      </trkpt>
      <trkpt lat="0" lon="0">
        <time>2021-02-28T09:42:44.364000+00:00</time>
      </trkpt>
      <trkpt lat="0" lon="0">
        <time>2021-02-28T09:42:44.366000+00:00</time>
      </trkpt>
      <trkpt lat="47.3273" lon="-1.46105">
        <ele>101</ele>
        <time>2021-02-28T09:42:45.487000+00:00</time>
      </trkpt>
      <trkpt lat="0" lon="0">
        <time>2021-02-28T09:42:45.496000+00:00</time>
      </trkpt>
      <trkpt lat="0" lon="0">
        <time>2021-02-28T09:42:45.501000+00:00</time>
      </trkpt>
      <trkpt lat="0" lon="0">
        <time>2021-02-28T09:42:45.505000+00:00</time>
      </trkpt>
      <trkpt lat="47.32735" lon="-1.46104">
        <ele>100</ele>
        <time>2021-02-28T09:42:46.477000+00:00</time>
      </trkpt>
      <trkpt lat="0" lon="0">
        <time>2021-02-28T09:42:46.483000+00:00</time>
      </trkpt>
      <trkpt lat="0" lon="0">
        <time>2021-02-28T09:42:46.488000+00:00</time>
      </trkpt>
      <trkpt lat="0" lon="0">
        <time>2021-02-28T09:42:46.491000+00:00</time>
      </trkpt>
      <trkpt lat="47.3274" lon="-1.46103">
        <ele>100</ele>
        <time>2021-02-28T09:42:47.486000+00:00</time>
      </trkpt>
      <trkpt lat="0" lon="0">
        <time>2021-02-28T09:42:47.494000+00:00</time>
      </trkpt>
      <trkpt lat="0" lon="0">
        <time>2021-02-28T09:42:47.499000+00:00</time>
      </trkpt>
      <trkpt lat="0" lon="0">
        <time>2021-02-28T09:42:47.501000+00:00</time>
      </trkpt>
      <trkpt lat="47.32745" lon="-1.46102">
        <ele>100</ele>
        <time>2021-02-28T09:42:48.407000+00:00</time>
      </trkpt>
      <trkpt lat="0" lon="0">
        <time>2021-02-28T09:42:48.416000+00:00</time>
      </trkpt>
      <trkpt lat="0" lon="0">
        <time>2021-02-28T09:42:48.425000+00:00</time>
      </trkpt>
      <trkpt lat="0" lon="0">
        <time>2021-02-28T09:42:48.432000+00:00</time>
      </trkpt>
      <trkpt lat="47.3275" lon="-1.46102">
        <ele>100</ele>
        <time>2021-02-28T09:42:49.495000+00:00</time>
      </trkpt>
      <trkpt lat="0" lon="0">
        <time>2021-02-28T09:42:49.502000+00:00</time>
      </trkpt>
      <trkpt lat="0" lon="0">
        <time>2021-02-28T09:42:49.507000+00:00</time>
      </trkpt>
      <trkpt lat="0" lon="0">
        <time>2021-02-28T09:42:49.510000+00:00</time>
      </trkpt>
      <trkpt lat="47.32754" lon="-1.46101">
        <ele>99</ele>
        <time>2021-02-28T09:42:50.445000+00:00</time>
      </trkpt>
      <trkpt lat="0" lon="0">
        <time>2021-02-28T09:42:50.450000+00:00</time>
      </trkpt>
      <trkpt lat="0" lon="0">
        <time>2021-02-28T09:42:50.455000+00:00</time>
      </trkpt>
      <trkpt lat="0" lon="0">
        <time>2021-02-28T09:42:50.457000+00:00</time>
      </trkpt>
      <trkpt lat="47.32757" lon="-1.46101">
        <ele>99</ele>
        <time>2021-02-28T09:42:51.479000+00:00</time>
      </trkpt>
      <trkpt lat="0" lon="0">
        <time>2021-02-28T09:42:51.484000+00:00</time>
      </trkpt>
      <trkpt lat="0" lon="0">
        <time>2021-02-28T09:42:51.488000+00:00</time>
      </trkpt>
      <trkpt lat="0" lon="0">
        <time>2021-02-28T09:42:51.491000+00:00</time>
      </trkpt>
      <trkpt lat="47.32759" lon="-1.46101">
        <ele>99</ele>
        <time>2021-02-28T09:42:52.441000+00:00</time>
      </trkpt>
      <trkpt lat="0" lon="0">
        <time>2021-02-28T09:42:52.443000+00:00</time>
      </trkpt>
      <trkpt lat="0" lon="0">
        <time>2021-02-28T09:42:52.449000+00:00</time>
      </trkpt>
      <trkpt lat="0" lon="0">
        <time>2021-02-28T09:42:52.451000+00:00</time>
      </trkpt>
      <trkpt lat="47.32761" lon="-1.46101">
        <ele>99</ele>
        <time>2021-02-28T09:42:53.434000+00:00</time>
      </trkpt>
      <trkpt lat="0" lon="0">
        <time>2021-02-28T09:42:53.442000+00:00</time>
      </trkpt>
      <trkpt lat="0" lon="0">
        <time>2021-02-28T09:42:53.446000+00:00</time>
      </trkpt>
      <trkpt lat="0" lon="0">
        <time>2021-02-28T09:42:53.448000+00:00</time>
      </trkpt>
      <trkpt lat="47.32763" lon="-1.46101">
        <ele>98</ele>
        <time>2021-02-28T09:42:54.417000+00:00</time>
      </trkpt>
      <trkpt lat="0" lon="0">
        <time>2021-02-28T09:42:54.424000+00:00</time>
      </trkpt>
      <trkpt lat="0" lon="0">
        <time>2021-02-28T09:42:54.430000+00:00</time>
      </trkpt>
      <trkpt lat="0" lon="0">
        <time>2021-02-28T09:42:54.433000+00:00</time>
      </trkpt>
      <trkpt lat="47.32764" lon="-1.46101">
        <ele>98</ele>
        <time>2021-02-28T09:42:55.443000+00:00</time>
      </trkpt>
      <trkpt lat="0" lon="0">
        <time>2021-02-28T09:42:55.453000+00:00</time>
      </trkpt>
      <trkpt lat="0" lon="0">
        <time>2021-02-28T09:42:55.458000+00:00</time>
      </trkpt>
      <trkpt lat="0" lon="0">
        <time>2021-02-28T09:42:55.461000+00:00</time>
      </trkpt>
      <trkpt lat="47.32765" lon="-1.46101">
        <ele>98</ele>
        <time>2021-02-28T09:42:56.464000+00:00</time>
      </trkpt>
      <trkpt lat="0" lon="0">
        <time>2021-02-28T09:42:56.475000+00:00</time>
      </trkpt>
      <trkpt lat="0" lon="0">
        <time>2021-02-28T09:42:56.480000+00:00</time>
      </trkpt>
      <trkpt lat="0" lon="0">
        <time>2021-02-28T09:42:56.482000+00:00</time>
      </trkpt>
      <trkpt lat="47.32767" lon="-1.461">
        <ele>98</ele>
        <time>2021-02-28T09:42:57.466000+00:00</time>
      </trkpt>
      <trkpt lat="0" lon="0">
        <time>2021-02-28T09:42:57.472000+00:00</time>
      </trkpt>
      <trkpt lat="0" lon="0">
        <time>2021-02-28T09:42:57.477000+00:00</time>
      </trkpt>
      <trkpt lat="0" lon="0">
        <time>2021-02-28T09:42:57.480000+00:00</time>
      </trkpt>
      <trkpt lat="47.32768" lon="-1.461">
        <ele>97</ele>
        <time>2021-02-28T09:42:58.461000+00:00</time>
      </trkpt>
      <trkpt lat="0" lon="0">
        <time>2021-02-28T09:42:58.473000+00:00</time>
      </trkpt>
      <trkpt lat="0" lon="0">
        <time>2021-02-28T09:42:58.480000+00:00</time>
      </trkpt>
      <trkpt lat="0" lon="0">
        <time>2021-02-28T09:42:58.482000+00:00</time>
      </trkpt>
      <trkpt lat="47.3277" lon="-1.46098">
        <ele>97</ele>
        <time>2021-02-28T09:42:59.487000+00:00</time>
      </trkpt>
      <trkpt lat="0" lon="0">
        <time>2021-02-28T09:42:59.497000+00:00</time>
      </trkpt>
      <trkpt lat="0" lon="0">
        <time>2021-02-28T09:42:59.502000+00:00</time>
      </trkpt>
      <trkpt lat="0" lon="0">
        <time>2021-02-28T09:42:59.505000+00:00</time>
      </trkpt>
      <trkpt lat="47.32771" lon="-1.46097">
        <ele>97</ele>
        <time>2021-02-28T09:43:00.455000+00:00</time>
      </trkpt>
      <trkpt lat="0" lon="0">
        <time>2021-02-28T09:43:00.467000+00:00</time>
      </trkpt>
      <trkpt lat="0" lon="0">
        <time>2021-02-28T09:43:00.476000+00:00</time>
      </trkpt>
      <trkpt lat="0" lon="0">
        <time>2021-02-28T09:43:00.479000+00:00</time>
      </trkpt>
      <trkpt lat="47.32773" lon="-1.46096">
        <ele>97</ele>
        <time>2021-02-28T09:43:01.454000+00:00</time>
      </trkpt>
      <trkpt lat="0" lon="0">
        <time>2021-02-28T09:43:01.467000+00:00</time>
      </trkpt>
      <trkpt lat="0" lon="0">
        <time>2021-02-28T09:43:01.471000+00:00</time>
      </trkpt>
      <trkpt lat="0" lon="0">
        <time>2021-02-28T09:43:01.473000+00:00</time>
      </trkpt>
      <trkpt lat="47.32775" lon="-1.46095">
        <ele>97</ele>
        <time>2021-02-28T09:43:02.471000+00:00</time>
      </trkpt>
      <trkpt lat="0" lon="0">
        <time>2021-02-28T09:43:02.480000+00:00</time>
      </trkpt>
      <trkpt lat="0" lon="0">
        <time>2021-02-28T09:43:02.484000+00:00</time>
      </trkpt>
      <trkpt lat="0" lon="0">
        <time>2021-02-28T09:43:02.487000+00:00</time>
      </trkpt>
      <trkpt lat="47.32778" lon="-1.46094">
        <ele>97</ele>
        <time>2021-02-28T09:43:03.484000+00:00</time>
      </trkpt>
      <trkpt lat="0" lon="0">
        <time>2021-02-28T09:43:03.492000+00:00</time>
      </trkpt>
      <trkpt lat="0" lon="0">
        <time>2021-02-28T09:43:03.498000+00:00</time>
      </trkpt>
      <trkpt lat="0" lon="0">
        <time>2021-02-28T09:43:03.501000+00:00</time>
      </trkpt>
      <trkpt lat="47.32781" lon="-1.46093">
        <ele>97</ele>
        <time>2021-02-28T09:43:04.467000+00:00</time>
      </trkpt>
      <trkpt lat="0" lon="0">
        <time>2021-02-28T09:43:04.477000+00:00</time>
      </trkpt>
      <trkpt lat="0" lon="0">
        <time>2021-02-28T09:43:04.481000+00:00</time>
      </trkpt>
      <trkpt lat="0" lon="0">
        <time>2021-02-28T09:43:04.485000+00:00</time>
      </trkpt>
      <trkpt lat="47.32784" lon="-1.46091">
        <ele>97</ele>
        <time>2021-02-28T09:43:05.459000+00:00</time>
      </trkpt>
      <trkpt lat="0" lon="0">
        <time>2021-02-28T09:43:05.461000+00:00</time>
      </trkpt>
      <trkpt lat="0" lon="0">
        <time>2021-02-28T09:43:05.463000+00:00</time>
      </trkpt>
      <trkpt lat="0" lon="0">
        <time>2021-02-28T09:43:05.464000+00:00</time>
      </trkpt>
      <trkpt lat="47.32788" lon="-1.4609">
        <ele>96</ele>
        <time>2021-02-28T09:43:06.487000+00:00</time>
      </trkpt>
      <trkpt lat="0" lon="0">
        <time>2021-02-28T09:43:06.495000+00:00</time>
      </trkpt>
      <trkpt lat="0" lon="0">
        <time>2021-02-28T09:43:06.500000+00:00</time>
      </trkpt>
      <trkpt lat="0" lon="0">
        <time>2021-02-28T09:43:06.503000+00:00</time>
      </trkpt>
      <trkpt lat="47.32792" lon="-1.46089">
        <ele>96</ele>
        <time>2021-02-28T09:43:07.360000+00:00</time>
      </trkpt>
      <trkpt lat="0" lon="0">
        <time>2021-02-28T09:43:07.368000+00:00</time>
      </trkpt>
      <trkpt lat="0" lon="0">
        <time>2021-02-28T09:43:07.373000+00:00</time>
      </trkpt>
      <trkpt lat="0" lon="0">
        <time>2021-02-28T09:43:07.375000+00:00</time>
      </trkpt>
      <trkpt lat="47.32796" lon="-1.46087">
        <ele>96</ele>
        <time>2021-02-28T09:43:08.458000+00:00</time>
      </trkpt>
      <trkpt lat="0" lon="0">
        <time>2021-02-28T09:43:08.466000+00:00</time>
      </trkpt>
      <trkpt lat="0" lon="0">
        <time>2021-02-28T09:43:08.470000+00:00</time>
      </trkpt>
      <trkpt lat="0" lon="0">
        <time>2021-02-28T09:43:08.473000+00:00</time>
      </trkpt>
      <trkpt lat="47.32801" lon="-1.46085">
        <ele>96</ele>
        <time>2021-02-28T09:43:09.459000+00:00</time>
      </trkpt>
      <trkpt lat="0" lon="0">
        <time>2021-02-28T09:43:09.465000+00:00</time>
      </trkpt>
      <trkpt lat="0" lon="0">
        <time>2021-02-28T09:43:09.471000+00:00</time>
      </trkpt>
      <trkpt lat="0" lon="0">
        <time>2021-02-28T09:43:09.474000+00:00</time>
      </trkpt>
      <trkpt lat="47.32805" lon="-1.46084">
        <ele>96</ele>
        <time>2021-02-28T09:43:10.439000+00:00</time>
      </trkpt>
      <trkpt lat="0" lon="0">
        <time>2021-02-28T09:43:10.453000+00:00</time>
      </trkpt>
      <trkpt lat="0" lon="0">
        <time>2021-02-28T09:43:10.458000+00:00</time>
      </trkpt>
      <trkpt lat="0" lon="0">
        <time>2021-02-28T09:43:10.460000+00:00</time>
      </trkpt>
      <trkpt lat="47.3281" lon="-1.46082">
        <ele>96</ele>
        <time>2021-02-28T09:43:11.498000+00:00</time>
      </trkpt>
      <trkpt lat="0" lon="0">
        <time>2021-02-28T09:43:11.502000+00:00</time>
      </trkpt>
      <trkpt lat="0" lon="0">
        <time>2021-02-28T09:43:11.504000+00:00</time>
      </trkpt>
      <trkpt lat="0" lon="0">
        <time>2021-02-28T09:43:11.505000+00:00</time>
      </trkpt>
      <trkpt lat="47.32819" lon="-1.46079">
        <ele>96</ele>
        <time>2021-02-28T09:43:13.437000+00:00</time>
      </trkpt>
      <trkpt lat="0" lon="0">
        <time>2021-02-28T09:43:13.442000+00:00</time>
      </trkpt>
      <trkpt lat="0" lon="0">
        <time>2021-02-28T09:43:13.445000+00:00</time>
      </trkpt>
      <trkpt lat="0" lon="0">
        <time>2021-02-28T09:43:13.448000+00:00</time>
      </trkpt>
      <trkpt lat="47.32824" lon="-1.46076">
        <ele>96</ele>
        <time>2021-02-28T09:43:14.462000+00:00</time>
      </trkpt>
      <trkpt lat="0" lon="0">
        <time>2021-02-28T09:43:14.468000+00:00</time>
      </trkpt>
      <trkpt lat="0" lon="0">
        <time>2021-02-28T09:43:14.473000+00:00</time>
      </trkpt>
      <trkpt lat="0" lon="0">
        <time>2021-02-28T09:43:14.475000+00:00</time>
      </trkpt>
      <trkpt lat="47.3283" lon="-1.46074">
        <ele>95</ele>
        <time>2021-02-28T09:43:15.455000+00:00</time>
      </trkpt>
      <trkpt lat="0" lon="0">
        <time>2021-02-28T09:43:15.462000+00:00</time>
      </trkpt>
      <trkpt lat="0" lon="0">
        <time>2021-02-28T09:43:15.466000+00:00</time>
      </trkpt>
      <trkpt lat="0" lon="0">
        <time>2021-02-28T09:43:15.469000+00:00</time>
      </trkpt>
      <trkpt lat="47.32835" lon="-1.46071">
        <ele>95</ele>
        <time>2021-02-28T09:43:16.474000+00:00</time>
      </trkpt>
      <trkpt lat="0" lon="0">
        <time>2021-02-28T09:43:16.479000+00:00</time>
      </trkpt>
      <trkpt lat="0" lon="0">
        <time>2021-02-28T09:43:16.483000+00:00</time>
      </trkpt>
      <trkpt lat="0" lon="0">
        <time>2021-02-28T09:43:16.485000+00:00</time>
      </trkpt>
      <trkpt lat="47.3284" lon="-1.46069">
        <ele>95</ele>
        <time>2021-02-28T09:43:17.451000+00:00</time>
      </trkpt>
      <trkpt lat="0" lon="0">
        <time>2021-02-28T09:43:17.458000+00:00</time>
      </trkpt>
      <trkpt lat="0" lon="0">
        <time>2021-02-28T09:43:17.461000+00:00</time>
      </trkpt>
      <trkpt lat="0" lon="0">
        <time>2021-02-28T09:43:17.464000+00:00</time>
      </trkpt>
      <trkpt lat="47.32845" lon="-1.46066">
        <ele>96</ele>
        <time>2021-02-28T09:43:18.466000+00:00</time>
      </trkpt>
      <trkpt lat="0" lon="0">
        <time>2021-02-28T09:43:18.474000+00:00</time>
      </trkpt>
      <trkpt lat="0" lon="0">
        <time>2021-02-28T09:43:18.479000+00:00</time>
      </trkpt>
      <trkpt lat="0" lon="0">
        <time>2021-02-28T09:43:18.481000+00:00</time>
      </trkpt>
      <trkpt lat="47.3285" lon="-1.46063">
        <ele>96</ele>
        <time>2021-02-28T09:43:19.448000+00:00</time>
      </trkpt>
      <trkpt lat="0" lon="0">
        <time>2021-02-28T09:43:19.457000+00:00</time>
      </trkpt>
      <trkpt lat="0" lon="0">
        <time>2021-02-28T09:43:19.461000+00:00</time>
      </trkpt>
      <trkpt lat="0" lon="0">
        <time>2021-02-28T09:43:19.464000+00:00</time>
      </trkpt>
      <trkpt lat="47.32855" lon="-1.46061">
        <ele>96</ele>
        <time>2021-02-28T09:43:20.346000+00:00</time>
      </trkpt>
      <trkpt lat="0" lon="0">
        <time>2021-02-28T09:43:20.350000+00:00</time>
      </trkpt>
      <trkpt lat="0" lon="0">
        <time>2021-02-28T09:43:20.354000+00:00</time>
      </trkpt>
      <trkpt lat="0" lon="0">
        <time>2021-02-28T09:43:20.356000+00:00</time>
      </trkpt>
      <trkpt lat="47.3286" lon="-1.46058">
        <ele>96</ele>
        <time>2021-02-28T09:43:21.484000+00:00</time>
      </trkpt>
      <trkpt lat="0" lon="0">
        <time>2021-02-28T09:43:21.492000+00:00</time>
      </trkpt>
      <trkpt lat="0" lon="0">
        <time>2021-02-28T09:43:21.500000+00:00</time>
      </trkpt>
      <trkpt lat="0" lon="0">
        <time>2021-02-28T09:43:21.502000+00:00</time>
      </trkpt>
      <trkpt lat="47.32866" lon="-1.46056">
        <ele>96</ele>
        <time>2021-02-28T09:43:22.477000+00:00</time>
      </trkpt>
      <trkpt lat="0" lon="0">
        <time>2021-02-28T09:43:22.487000+00:00</time>
      </trkpt>
      <trkpt lat="0" lon="0">
        <time>2021-02-28T09:43:22.495000+00:00</time>
      </trkpt>
      <trkpt lat="0" lon="0">
        <time>2021-02-28T09:43:22.497000+00:00</time>
      </trkpt>
      <trkpt lat="47.32871" lon="-1.46053">
        <ele>96</ele>
        <time>2021-02-28T09:43:23.483000+00:00</time>
      </trkpt>
      <trkpt lat="0" lon="0">
        <time>2021-02-28T09:43:23.491000+00:00</time>
      </trkpt>
      <trkpt lat="0" lon="0">
        <time>2021-02-28T09:43:23.493000+00:00</time>
      </trkpt>
      <trkpt lat="0" lon="0">
        <time>2021-02-28T09:43:23.494000+00:00</time>
      </trkpt>
      <trkpt lat="47.32876" lon="-1.46051">
        <ele>96</ele>
        <time>2021-02-28T09:43:24.474000+00:00</time>
      </trkpt>
      <trkpt lat="0" lon="0">
        <time>2021-02-28T09:43:24.494000+00:00</time>
      </trkpt>
      <trkpt lat="0" lon="0">
        <time>2021-02-28T09:43:24.498000+00:00</time>
      </trkpt>
      <trkpt lat="0" lon="0">
        <time>2021-02-28T09:43:24.501000+00:00</time>
      </trkpt>
      <trkpt lat="47.32882" lon="-1.46049">
        <ele>96</ele>
        <time>2021-02-28T09:43:25.468000+00:00</time>
      </trkpt>
      <trkpt lat="0" lon="0">
        <time>2021-02-28T09:43:25.476000+00:00</time>
      </trkpt>
      <trkpt lat="0" lon="0">
        <time>2021-02-28T09:43:25.481000+00:00</time>
      </trkpt>
      <trkpt lat="0" lon="0">
        <time>2021-02-28T09:43:25.484000+00:00</time>
      </trkpt>
      <trkpt lat="47.32887" lon="-1.46047">
        <ele>97</ele>
        <time>2021-02-28T09:43:26.484000+00:00</time>
      </trkpt>
      <trkpt lat="0" lon="0">
        <time>2021-02-28T09:43:26.495000+00:00</time>
      </trkpt>
      <trkpt lat="0" lon="0">
        <time>2021-02-28T09:43:26.503000+00:00</time>
      </trkpt>
      <trkpt lat="0" lon="0">
        <time>2021-02-28T09:43:26.506000+00:00</time>
      </trkpt>
      <trkpt lat="47.32892" lon="-1.46045">
        <ele>97</ele>
        <time>2021-02-28T09:43:27.441000+00:00</time>
      </trkpt>
      <trkpt lat="0" lon="0">
        <time>2021-02-28T09:43:27.458000+00:00</time>
      </trkpt>
      <trkpt lat="0" lon="0">
        <time>2021-02-28T09:43:27.465000+00:00</time>
      </trkpt>
      <trkpt lat="0" lon="0">
        <time>2021-02-28T09:43:27.467000+00:00</time>
      </trkpt>
      <trkpt lat="47.32897" lon="-1.46042">
        <ele>97</ele>
        <time>2021-02-28T09:43:28.473000+00:00</time>
      </trkpt>
      <trkpt lat="0" lon="0">
        <time>2021-02-28T09:43:28.479000+00:00</time>
      </trkpt>
      <trkpt lat="0" lon="0">
        <time>2021-02-28T09:43:28.484000+00:00</time>
      </trkpt>
      <trkpt lat="0" lon="0">
        <time>2021-02-28T09:43:28.487000+00:00</time>
      </trkpt>
      <trkpt lat="47.32902" lon="-1.4604">
        <ele>97</ele>
        <time>2021-02-28T09:43:29.477000+00:00</time>
      </trkpt>
      <trkpt lat="0" lon="0">
        <time>2021-02-28T09:43:29.484000+00:00</time>
      </trkpt>
      <trkpt lat="0" lon="0">
        <time>2021-02-28T09:43:29.490000+00:00</time>
      </trkpt>
      <trkpt lat="0" lon="0">
        <time>2021-02-28T09:43:29.493000+00:00</time>
      </trkpt>
      <trkpt lat="47.32906" lon="-1.46038">
        <ele>97</ele>
        <time>2021-02-28T09:43:30.478000+00:00</time>
      </trkpt>
      <trkpt lat="0" lon="0">
        <time>2021-02-28T09:43:30.490000+00:00</time>
      </trkpt>
      <trkpt lat="0" lon="0">
        <time>2021-02-28T09:43:30.496000+00:00</time>
      </trkpt>
      <trkpt lat="0" lon="0">
        <time>2021-02-28T09:43:30.499000+00:00</time>
      </trkpt>
      <trkpt lat="47.32911" lon="-1.46036">
        <ele>97</ele>
        <time>2021-02-28T09:43:31.487000+00:00</time>
      </trkpt>
      <trkpt lat="0" lon="0">
        <time>2021-02-28T09:43:31.498000+00:00</time>
      </trkpt>
      <trkpt lat="0" lon="0">
        <time>2021-02-28T09:43:31.503000+00:00</time>
      </trkpt>
      <trkpt lat="0" lon="0">
        <time>2021-02-28T09:43:31.506000+00:00</time>
      </trkpt>
      <trkpt lat="47.32916" lon="-1.46033">
        <ele>97</ele>
        <time>2021-02-28T09:43:32.398000+00:00</time>
      </trkpt>
      <trkpt lat="0" lon="0">
        <time>2021-02-28T09:43:32.408000+00:00</time>
      </trkpt>
      <trkpt lat="0" lon="0">
        <time>2021-02-28T09:43:32.416000+00:00</time>
      </trkpt>
      <trkpt lat="0" lon="0">
        <time>2021-02-28T09:43:32.417000+00:00</time>
      </trkpt>
      <trkpt lat="47.32921" lon="-1.46031">
        <ele>97</ele>
        <time>2021-02-28T09:43:33.465000+00:00</time>
      </trkpt>
      <trkpt lat="0" lon="0">
        <time>2021-02-28T09:43:33.472000+00:00</time>
      </trkpt>
      <trkpt lat="0" lon="0">
        <time>2021-02-28T09:43:33.477000+00:00</time>
      </trkpt>
      <trkpt lat="0" lon="0">
        <time>2021-02-28T09:43:33.480000+00:00</time>
      </trkpt>
      <trkpt lat="47.32925" lon="-1.46029">
        <ele>97</ele>
        <time>2021-02-28T09:43:34.453000+00:00</time>
      </trkpt>
      <trkpt lat="0" lon="0">
        <time>2021-02-28T09:43:34.464000+00:00</time>
      </trkpt>
      <trkpt lat="0" lon="0">
        <time>2021-02-28T09:43:34.469000+00:00</time>
      </trkpt>
      <trkpt lat="0" lon="0">
        <time>2021-02-28T09:43:34.472000+00:00</time>
      </trkpt>
      <trkpt lat="47.3293" lon="-1.46027">
        <ele>98</ele>
        <time>2021-02-28T09:43:35.457000+00:00</time>
      </trkpt>
      <trkpt lat="0" lon="0">
        <time>2021-02-28T09:43:35.461000+00:00</time>
      </trkpt>
      <trkpt lat="0" lon="0">
        <time>2021-02-28T09:43:35.465000+00:00</time>
      </trkpt>
      <trkpt lat="0" lon="0">
        <time>2021-02-28T09:43:35.470000+00:00</time>
      </trkpt>
      <trkpt lat="47.32935" lon="-1.46026">
        <ele>98</ele>
        <time>2021-02-28T09:43:36.459000+00:00</time>
      </trkpt>
      <trkpt lat="0" lon="0">
        <time>2021-02-28T09:43:36.467000+00:00</time>
      </trkpt>
      <trkpt lat="0" lon="0">
        <time>2021-02-28T09:43:36.473000+00:00</time>
      </trkpt>
      <trkpt lat="0" lon="0">
        <time>2021-02-28T09:43:36.476000+00:00</time>
      </trkpt>
      <trkpt lat="47.3294" lon="-1.46024">
        <ele>97</ele>
        <time>2021-02-28T09:43:37.472000+00:00</time>
      </trkpt>
      <trkpt lat="0" lon="0">
        <time>2021-02-28T09:43:37.477000+00:00</time>
      </trkpt>
      <trkpt lat="0" lon="0">
        <time>2021-02-28T09:43:37.481000+00:00</time>
      </trkpt>
      <trkpt lat="0" lon="0">
        <time>2021-02-28T09:43:37.483000+00:00</time>
      </trkpt>
      <trkpt lat="47.32945" lon="-1.46022">
        <ele>97</ele>
        <time>2021-02-28T09:43:38.490000+00:00</time>
      </trkpt>
      <trkpt lat="0" lon="0">
        <time>2021-02-28T09:43:38.496000+00:00</time>
      </trkpt>
      <trkpt lat="0" lon="0">
        <time>2021-02-28T09:43:38.498000+00:00</time>
      </trkpt>
      <trkpt lat="0" lon="0">
        <time>2021-02-28T09:43:38.499000+00:00</time>
      </trkpt>
      <trkpt lat="47.3295" lon="-1.4602">
        <ele>97</ele>
        <time>2021-02-28T09:43:39.451000+00:00</time>
      </trkpt>
      <trkpt lat="0" lon="0">
        <time>2021-02-28T09:43:39.461000+00:00</time>
      </trkpt>
      <trkpt lat="0" lon="0">
        <time>2021-02-28T09:43:39.465000+00:00</time>
      </trkpt>
      <trkpt lat="0" lon="0">
        <time>2021-02-28T09:43:39.468000+00:00</time>
      </trkpt>
      <trkpt lat="47.32955" lon="-1.46018">
        <ele>97</ele>
        <time>2021-02-28T09:43:40.529000+00:00</time>
      </trkpt>
      <trkpt lat="0" lon="0">
        <time>2021-02-28T09:43:40.536000+00:00</time>
      </trkpt>
      <trkpt lat="0" lon="0">
        <time>2021-02-28T09:43:40.540000+00:00</time>
      </trkpt>
      <trkpt lat="0" lon="0">
        <time>2021-02-28T09:43:40.543000+00:00</time>
      </trkpt>
      <trkpt lat="47.32961" lon="-1.46017">
        <ele>97</ele>
        <time>2021-02-28T09:43:41.481000+00:00</time>
      </trkpt>
      <trkpt lat="0" lon="0">
        <time>2021-02-28T09:43:41.494000+00:00</time>
      </trkpt>
      <trkpt lat="0" lon="0">
        <time>2021-02-28T09:43:41.502000+00:00</time>
      </trkpt>
      <trkpt lat="0" lon="0">
        <time>2021-02-28T09:43:41.505000+00:00</time>
      </trkpt>
      <trkpt lat="47.32966" lon="-1.46015">
        <ele>97</ele>
        <time>2021-02-28T09:43:42.459000+00:00</time>
      </trkpt>
      <trkpt lat="0" lon="0">
        <time>2021-02-28T09:43:42.468000+00:00</time>
      </trkpt>
      <trkpt lat="0" lon="0">
        <time>2021-02-28T09:43:42.472000+00:00</time>
      </trkpt>
      <trkpt lat="0" lon="0">
        <time>2021-02-28T09:43:42.475000+00:00</time>
      </trkpt>
      <trkpt lat="47.32972" lon="-1.46013">
        <ele>97</ele>
        <time>2021-02-28T09:43:43.449000+00:00</time>
      </trkpt>
      <trkpt lat="0" lon="0">
        <time>2021-02-28T09:43:43.456000+00:00</time>
      </trkpt>
      <trkpt lat="0" lon="0">
        <time>2021-02-28T09:43:43.461000+00:00</time>
      </trkpt>
      <trkpt lat="0" lon="0">
        <time>2021-02-28T09:43:43.463000+00:00</time>
      </trkpt>
      <trkpt lat="47.32977" lon="-1.46012">
        <ele>98</ele>
        <time>2021-02-28T09:43:44.484000+00:00</time>
      </trkpt>
      <trkpt lat="0" lon="0">
        <time>2021-02-28T09:43:44.490000+00:00</time>
      </trkpt>
      <trkpt lat="0" lon="0">
        <time>2021-02-28T09:43:44.495000+00:00</time>
      </trkpt>
      <trkpt lat="0" lon="0">
        <time>2021-02-28T09:43:44.498000+00:00</time>
      </trkpt>
      <trkpt lat="47.32982" lon="-1.4601">
        <ele>98</ele>
        <time>2021-02-28T09:43:45.490000+00:00</time>
      </trkpt>
      <trkpt lat="0" lon="0">
        <time>2021-02-28T09:43:45.492000+00:00</time>
      </trkpt>
      <trkpt lat="0" lon="0">
        <time>2021-02-28T09:43:45.495000+00:00</time>
      </trkpt>
      <trkpt lat="0" lon="0">
        <time>2021-02-28T09:43:45.496000+00:00</time>
      </trkpt>
      <trkpt lat="47.32988" lon="-1.46008">
        <ele>98</ele>
        <time>2021-02-28T09:43:46.479000+00:00</time>
      </trkpt>
      <trkpt lat="0" lon="0">
        <time>2021-02-28T09:43:46.486000+00:00</time>
      </trkpt>
      <trkpt lat="0" lon="0">
        <time>2021-02-28T09:43:46.491000+00:00</time>
      </trkpt>
      <trkpt lat="0" lon="0">
        <time>2021-02-28T09:43:46.494000+00:00</time>
      </trkpt>
      <trkpt lat="47.32993" lon="-1.46006">
        <ele>98</ele>
        <time>2021-02-28T09:43:47.496000+00:00</time>
      </trkpt>
      <trkpt lat="0" lon="0">
        <time>2021-02-28T09:43:47.504000+00:00</time>
      </trkpt>
      <trkpt lat="0" lon="0">
        <time>2021-02-28T09:43:47.513000+00:00</time>
      </trkpt>
      <trkpt lat="0" lon="0">
        <time>2021-02-28T09:43:47.516000+00:00</time>
      </trkpt>
      <trkpt lat="47.32997" lon="-1.46005">
        <ele>98</ele>
        <time>2021-02-28T09:43:48.470000+00:00</time>
      </trkpt>
      <trkpt lat="0" lon="0">
        <time>2021-02-28T09:43:48.477000+00:00</time>
      </trkpt>
      <trkpt lat="0" lon="0">
        <time>2021-02-28T09:43:48.484000+00:00</time>
      </trkpt>
      <trkpt lat="0" lon="0">
        <time>2021-02-28T09:43:48.488000+00:00</time>
      </trkpt>
      <trkpt lat="47.33002" lon="-1.46003">
        <ele>98</ele>
        <time>2021-02-28T09:43:49.510000+00:00</time>
      </trkpt>
      <trkpt lat="0" lon="0">
        <time>2021-02-28T09:43:49.520000+00:00</time>
      </trkpt>
      <trkpt lat="0" lon="0">
        <time>2021-02-28T09:43:49.526000+00:00</time>
      </trkpt>
      <trkpt lat="0" lon="0">
        <time>2021-02-28T09:43:49.530000+00:00</time>
      </trkpt>
      <trkpt lat="47.33006" lon="-1.46001">
        <ele>98</ele>
        <time>2021-02-28T09:43:50.477000+00:00</time>
      </trkpt>
      <trkpt lat="0" lon="0">
        <time>2021-02-28T09:43:50.486000+00:00</time>
      </trkpt>
      <trkpt lat="0" lon="0">
        <time>2021-02-28T09:43:50.492000+00:00</time>
      </trkpt>
      <trkpt lat="0" lon="0">
        <time>2021-02-28T09:43:50.495000+00:00</time>
      </trkpt>
      <trkpt lat="47.3301" lon="-1.46">
        <ele>98</ele>
        <time>2021-02-28T09:43:51.397000+00:00</time>
      </trkpt>
      <trkpt lat="0" lon="0">
        <time>2021-02-28T09:43:51.398000+00:00</time>
      </trkpt>
      <trkpt lat="0" lon="0">
        <time>2021-02-28T09:43:51.400000+00:00</time>
      </trkpt>
      <trkpt lat="0" lon="0">
        <time>2021-02-28T09:43:51.401000+00:00</time>
      </trkpt>
      <trkpt lat="47.33013" lon="-1.45998">
        <ele>98</ele>
        <time>2021-02-28T09:43:52.454000+00:00</time>
      </trkpt>
      <trkpt lat="0" lon="0">
        <time>2021-02-28T09:43:52.464000+00:00</time>
      </trkpt>
      <trkpt lat="0" lon="0">
        <time>2021-02-28T09:43:52.468000+00:00</time>
      </trkpt>
      <trkpt lat="0" lon="0">
        <time>2021-02-28T09:43:52.470000+00:00</time>
      </trkpt>
      <trkpt lat="47.33015" lon="-1.45997">
        <ele>98</ele>
        <time>2021-02-28T09:43:53.460000+00:00</time>
      </trkpt>
      <trkpt lat="0" lon="0">
        <time>2021-02-28T09:43:53.468000+00:00</time>
      </trkpt>
      <trkpt lat="0" lon="0">
        <time>2021-02-28T09:43:53.475000+00:00</time>
      </trkpt>
      <trkpt lat="0" lon="0">
        <time>2021-02-28T09:43:53.477000+00:00</time>
      </trkpt>
      <trkpt lat="47.33018" lon="-1.45996">
        <ele>99</ele>
        <time>2021-02-28T09:43:54.456000+00:00</time>
      </trkpt>
      <trkpt lat="0" lon="0">
        <time>2021-02-28T09:43:54.464000+00:00</time>
      </trkpt>
      <trkpt lat="0" lon="0">
        <time>2021-02-28T09:43:54.468000+00:00</time>
      </trkpt>
      <trkpt lat="0" lon="0">
        <time>2021-02-28T09:43:54.470000+00:00</time>
      </trkpt>
      <trkpt lat="47.3302" lon="-1.45994">
        <ele>99</ele>
        <time>2021-02-28T09:43:55.435000+00:00</time>
      </trkpt>
      <trkpt lat="0" lon="0">
        <time>2021-02-28T09:43:55.445000+00:00</time>
      </trkpt>
      <trkpt lat="0" lon="0">
        <time>2021-02-28T09:43:55.450000+00:00</time>
      </trkpt>
      <trkpt lat="0" lon="0">
        <time>2021-02-28T09:43:55.453000+00:00</time>
      </trkpt>
      <trkpt lat="47.33022" lon="-1.45993">
        <ele>100</ele>
        <time>2021-02-28T09:43:56.457000+00:00</time>
      </trkpt>
      <trkpt lat="0" lon="0">
        <time>2021-02-28T09:43:56.462000+00:00</time>
      </trkpt>
      <trkpt lat="0" lon="0">
        <time>2021-02-28T09:43:56.468000+00:00</time>
      </trkpt>
      <trkpt lat="0" lon="0">
        <time>2021-02-28T09:43:56.470000+00:00</time>
      </trkpt>
      <trkpt lat="47.33024" lon="-1.45992">
        <ele>100</ele>
        <time>2021-02-28T09:43:57.461000+00:00</time>
      </trkpt>
      <trkpt lat="0" lon="0">
        <time>2021-02-28T09:43:57.467000+00:00</time>
      </trkpt>
      <trkpt lat="0" lon="0">
        <time>2021-02-28T09:43:57.469000+00:00</time>
      </trkpt>
      <trkpt lat="47.33025" lon="-1.45991">
        <ele>100</ele>
        <time>2021-02-28T09:43:58.455000+00:00</time>
      </trkpt>
      <trkpt lat="0" lon="0">
        <time>2021-02-28T09:43:58.463000+00:00</time>
      </trkpt>
      <trkpt lat="0" lon="0">
        <time>2021-02-28T09:43:58.471000+00:00</time>
      </trkpt>
      <trkpt lat="0" lon="0">
        <time>2021-02-28T09:43:58.473000+00:00</time>
      </trkpt>
      <trkpt lat="47.33027" lon="-1.45989">
        <ele>100</ele>
        <time>2021-02-28T09:43:59.455000+00:00</time>
      </trkpt>
      <trkpt lat="0" lon="0">
        <time>2021-02-28T09:43:59.460000+00:00</time>
      </trkpt>
      <trkpt lat="0" lon="0">
        <time>2021-02-28T09:43:59.465000+00:00</time>
      </trkpt>
      <trkpt lat="0" lon="0">
        <time>2021-02-28T09:43:59.468000+00:00</time>
      </trkpt>
      <trkpt lat="47.33029" lon="-1.45988">
        <ele>100</ele>
        <time>2021-02-28T09:44:00.379000+00:00</time>
      </trkpt>
      <trkpt lat="0" lon="0">
        <time>2021-02-28T09:44:00.382000+00:00</time>
      </trkpt>
      <trkpt lat="0" lon="0">
        <time>2021-02-28T09:44:00.385000+00:00</time>
      </trkpt>
      <trkpt lat="0" lon="0">
        <time>2021-02-28T09:44:00.387000+00:00</time>
      </trkpt>
      <trkpt lat="47.33031" lon="-1.45986">
        <ele>100</ele>
        <time>2021-02-28T09:44:01.389000+00:00</time>
      </trkpt>
      <trkpt lat="0" lon="0">
        <time>2021-02-28T09:44:01.395000+00:00</time>
      </trkpt>
      <trkpt lat="0" lon="0">
        <time>2021-02-28T09:44:01.401000+00:00</time>
      </trkpt>
      <trkpt lat="0" lon="0">
        <time>2021-02-28T09:44:01.402000+00:00</time>
      </trkpt>
      <trkpt lat="47.33033" lon="-1.45985">
        <ele>101</ele>
        <time>2021-02-28T09:44:02.461000+00:00</time>
      </trkpt>
      <trkpt lat="0" lon="0">
        <time>2021-02-28T09:44:02.474000+00:00</time>
      </trkpt>
      <trkpt lat="0" lon="0">
        <time>2021-02-28T09:44:02.478000+00:00</time>
      </trkpt>
      <trkpt lat="0" lon="0">
        <time>2021-02-28T09:44:02.480000+00:00</time>
      </trkpt>
      <trkpt lat="47.33035" lon="-1.45984">
        <ele>101</ele>
        <time>2021-02-28T09:44:03.423000+00:00</time>
      </trkpt>
      <trkpt lat="0" lon="0">
        <time>2021-02-28T09:44:03.435000+00:00</time>
      </trkpt>
      <trkpt lat="0" lon="0">
        <time>2021-02-28T09:44:03.440000+00:00</time>
      </trkpt>
      <trkpt lat="0" lon="0">
        <time>2021-02-28T09:44:03.442000+00:00</time>
      </trkpt>
      <trkpt lat="47.33037" lon="-1.45983">
        <ele>101</ele>
        <time>2021-02-28T09:44:04.430000+00:00</time>
      </trkpt>
      <trkpt lat="0" lon="0">
        <time>2021-02-28T09:44:04.437000+00:00</time>
      </trkpt>
      <trkpt lat="0" lon="0">
        <time>2021-02-28T09:44:04.441000+00:00</time>
      </trkpt>
      <trkpt lat="0" lon="0">
        <time>2021-02-28T09:44:04.444000+00:00</time>
      </trkpt>
      <trkpt lat="47.3304" lon="-1.45982">
        <ele>102</ele>
        <time>2021-02-28T09:44:05.484000+00:00</time>
      </trkpt>
      <trkpt lat="0" lon="0">
        <time>2021-02-28T09:44:05.492000+00:00</time>
      </trkpt>
      <trkpt lat="0" lon="0">
        <time>2021-02-28T09:44:05.498000+00:00</time>
      </trkpt>
      <trkpt lat="0" lon="0">
        <time>2021-02-28T09:44:05.501000+00:00</time>
      </trkpt>
      <trkpt lat="47.33043" lon="-1.45981">
        <ele>102</ele>
        <time>2021-02-28T09:44:06.466000+00:00</time>
      </trkpt>
      <trkpt lat="0" lon="0">
        <time>2021-02-28T09:44:06.474000+00:00</time>
      </trkpt>
      <trkpt lat="0" lon="0">
        <time>2021-02-28T09:44:06.479000+00:00</time>
      </trkpt>
      <trkpt lat="0" lon="0">
        <time>2021-02-28T09:44:06.482000+00:00</time>
      </trkpt>
      <trkpt lat="47.33046" lon="-1.4598">
        <ele>102</ele>
        <time>2021-02-28T09:44:07.452000+00:00</time>
      </trkpt>
      <trkpt lat="0" lon="0">
        <time>2021-02-28T09:44:07.463000+00:00</time>
      </trkpt>
      <trkpt lat="0" lon="0">
        <time>2021-02-28T09:44:07.467000+00:00</time>
      </trkpt>
      <trkpt lat="0" lon="0">
        <time>2021-02-28T09:44:07.469000+00:00</time>
      </trkpt>
      <trkpt lat="47.33049" lon="-1.45979">
        <ele>102</ele>
        <time>2021-02-28T09:44:08.484000+00:00</time>
      </trkpt>
      <trkpt lat="0" lon="0">
        <time>2021-02-28T09:44:08.489000+00:00</time>
      </trkpt>
      <trkpt lat="0" lon="0">
        <time>2021-02-28T09:44:08.494000+00:00</time>
      </trkpt>
      <trkpt lat="0" lon="0">
        <time>2021-02-28T09:44:08.497000+00:00</time>
      </trkpt>
      <trkpt lat="47.33053" lon="-1.45977">
        <ele>102</ele>
        <time>2021-02-28T09:44:09.448000+00:00</time>
      </trkpt>
      <trkpt lat="0" lon="0">
        <time>2021-02-28T09:44:09.453000+00:00</time>
      </trkpt>
      <trkpt lat="0" lon="0">
        <time>2021-02-28T09:44:09.461000+00:00</time>
      </trkpt>
      <trkpt lat="0" lon="0">
        <time>2021-02-28T09:44:09.464000+00:00</time>
      </trkpt>
      <trkpt lat="47.33057" lon="-1.45975">
        <ele>102</ele>
        <time>2021-02-28T09:44:10.418000+00:00</time>
      </trkpt>
      <trkpt lat="0" lon="0">
        <time>2021-02-28T09:44:10.419000+00:00</time>
      </trkpt>
      <trkpt lat="0" lon="0">
        <time>2021-02-28T09:44:10.421000+00:00</time>
      </trkpt>
      <trkpt lat="0" lon="0">
        <time>2021-02-28T09:44:10.422000+00:00</time>
      </trkpt>
      <trkpt lat="47.33062" lon="-1.45973">
        <ele>102</ele>
        <time>2021-02-28T09:44:11.478000+00:00</time>
      </trkpt>
      <trkpt lat="0" lon="0">
        <time>2021-02-28T09:44:11.486000+00:00</time>
      </trkpt>
      <trkpt lat="0" lon="0">
        <time>2021-02-28T09:44:11.492000+00:00</time>
      </trkpt>
      <trkpt lat="0" lon="0">
        <time>2021-02-28T09:44:11.502000+00:00</time>
      </trkpt>
      <trkpt lat="47.33067" lon="-1.45972">
        <ele>103</ele>
        <time>2021-02-28T09:44:12.465000+00:00</time>
      </trkpt>
      <trkpt lat="0" lon="0">
        <time>2021-02-28T09:44:12.481000+00:00</time>
      </trkpt>
      <trkpt lat="0" lon="0">
        <time>2021-02-28T09:44:12.489000+00:00</time>
      </trkpt>
      <trkpt lat="0" lon="0">
        <time>2021-02-28T09:44:12.492000+00:00</time>
      </trkpt>
      <trkpt lat="47.33073" lon="-1.4597">
        <ele>102</ele>
        <time>2021-02-28T09:44:13.472000+00:00</time>
      </trkpt>
      <trkpt lat="0" lon="0">
        <time>2021-02-28T09:44:13.484000+00:00</time>
      </trkpt>
      <trkpt lat="0" lon="0">
        <time>2021-02-28T09:44:13.489000+00:00</time>
      </trkpt>
      <trkpt lat="0" lon="0">
        <time>2021-02-28T09:44:13.492000+00:00</time>
      </trkpt>
      <trkpt lat="47.33079" lon="-1.45967">
        <ele>103</ele>
        <time>2021-02-28T09:44:14.460000+00:00</time>
      </trkpt>
      <trkpt lat="0" lon="0">
        <time>2021-02-28T09:44:14.467000+00:00</time>
      </trkpt>
      <trkpt lat="0" lon="0">
        <time>2021-02-28T09:44:14.471000+00:00</time>
      </trkpt>
      <trkpt lat="0" lon="0">
        <time>2021-02-28T09:44:14.474000+00:00</time>
      </trkpt>
      <trkpt lat="47.33085" lon="-1.45965">
        <ele>102</ele>
        <time>2021-02-28T09:44:15.499000+00:00</time>
      </trkpt>
      <trkpt lat="0" lon="0">
        <time>2021-02-28T09:44:15.510000+00:00</time>
      </trkpt>
      <trkpt lat="0" lon="0">
        <time>2021-02-28T09:44:15.516000+00:00</time>
      </trkpt>
      <trkpt lat="0" lon="0">
        <time>2021-02-28T09:44:15.519000+00:00</time>
      </trkpt>
      <trkpt lat="47.33092" lon="-1.45963">
        <ele>103</ele>
        <time>2021-02-28T09:44:16.474000+00:00</time>
      </trkpt>
      <trkpt lat="0" lon="0">
        <time>2021-02-28T09:44:16.480000+00:00</time>
      </trkpt>
      <trkpt lat="0" lon="0">
        <time>2021-02-28T09:44:16.484000+00:00</time>
      </trkpt>
      <trkpt lat="0" lon="0">
        <time>2021-02-28T09:44:16.486000+00:00</time>
      </trkpt>
      <trkpt lat="47.33098" lon="-1.4596">
        <ele>103</ele>
        <time>2021-02-28T09:44:17.491000+00:00</time>
      </trkpt>
      <trkpt lat="0" lon="0">
        <time>2021-02-28T09:44:17.499000+00:00</time>
      </trkpt>
      <trkpt lat="0" lon="0">
        <time>2021-02-28T09:44:17.504000+00:00</time>
      </trkpt>
      <trkpt lat="0" lon="0">
        <time>2021-02-28T09:44:17.505000+00:00</time>
      </trkpt>
      <trkpt lat="47.33104" lon="-1.45957">
        <ele>103</ele>
        <time>2021-02-28T09:44:18.427000+00:00</time>
      </trkpt>
      <trkpt lat="0" lon="0">
        <time>2021-02-28T09:44:18.433000+00:00</time>
      </trkpt>
      <trkpt lat="0" lon="0">
        <time>2021-02-28T09:44:18.437000+00:00</time>
      </trkpt>
      <trkpt lat="0" lon="0">
        <time>2021-02-28T09:44:18.440000+00:00</time>
      </trkpt>
      <trkpt lat="47.3311" lon="-1.45955">
        <ele>103</ele>
        <time>2021-02-28T09:44:19.417000+00:00</time>
      </trkpt>
      <trkpt lat="0" lon="0">
        <time>2021-02-28T09:44:19.421000+00:00</time>
      </trkpt>
      <trkpt lat="0" lon="0">
        <time>2021-02-28T09:44:19.425000+00:00</time>
      </trkpt>
      <trkpt lat="0" lon="0">
        <time>2021-02-28T09:44:19.428000+00:00</time>
      </trkpt>
      <trkpt lat="47.33116" lon="-1.45952">
        <ele>103</ele>
        <time>2021-02-28T09:44:20.453000+00:00</time>
      </trkpt>
      <trkpt lat="0" lon="0">
        <time>2021-02-28T09:44:20.457000+00:00</time>
      </trkpt>
      <trkpt lat="0" lon="0">
        <time>2021-02-28T09:44:20.462000+00:00</time>
      </trkpt>
      <trkpt lat="0" lon="0">
        <time>2021-02-28T09:44:20.464000+00:00</time>
      </trkpt>
      <trkpt lat="47.33122" lon="-1.45949">
        <ele>104</ele>
        <time>2021-02-28T09:44:21.387000+00:00</time>
      </trkpt>
      <trkpt lat="0" lon="0">
        <time>2021-02-28T09:44:21.398000+00:00</time>
      </trkpt>
      <trkpt lat="0" lon="0">
        <time>2021-02-28T09:44:21.402000+00:00</time>
      </trkpt>
      <trkpt lat="0" lon="0">
        <time>2021-02-28T09:44:21.404000+00:00</time>
      </trkpt>
      <trkpt lat="47.33128" lon="-1.45947">
        <ele>104</ele>
        <time>2021-02-28T09:44:22.460000+00:00</time>
      </trkpt>
      <trkpt lat="0" lon="0">
        <time>2021-02-28T09:44:22.469000+00:00</time>
      </trkpt>
      <trkpt lat="0" lon="0">
        <time>2021-02-28T09:44:22.474000+00:00</time>
      </trkpt>
      <trkpt lat="0" lon="0">
        <time>2021-02-28T09:44:22.477000+00:00</time>
      </trkpt>
      <trkpt lat="47.33133" lon="-1.45944">
        <ele>104</ele>
        <time>2021-02-28T09:44:23.479000+00:00</time>
      </trkpt>
      <trkpt lat="0" lon="0">
        <time>2021-02-28T09:44:23.486000+00:00</time>
      </trkpt>
      <trkpt lat="0" lon="0">
        <time>2021-02-28T09:44:23.492000+00:00</time>
      </trkpt>
      <trkpt lat="0" lon="0">
        <time>2021-02-28T09:44:23.495000+00:00</time>
      </trkpt>
      <trkpt lat="47.33139" lon="-1.45941">
        <ele>105</ele>
        <time>2021-02-28T09:44:24.478000+00:00</time>
      </trkpt>
      <trkpt lat="0" lon="0">
        <time>2021-02-28T09:44:24.483000+00:00</time>
      </trkpt>
      <trkpt lat="0" lon="0">
        <time>2021-02-28T09:44:24.487000+00:00</time>
      </trkpt>
      <trkpt lat="0" lon="0">
        <time>2021-02-28T09:44:24.489000+00:00</time>
      </trkpt>
      <trkpt lat="47.33145" lon="-1.45938">
        <ele>104</ele>
        <time>2021-02-28T09:44:25.384000+00:00</time>
      </trkpt>
      <trkpt lat="0" lon="0">
        <time>2021-02-28T09:44:25.389000+00:00</time>
      </trkpt>
      <trkpt lat="0" lon="0">
        <time>2021-02-28T09:44:25.397000+00:00</time>
      </trkpt>
      <trkpt lat="0" lon="0">
        <time>2021-02-28T09:44:25.398000+00:00</time>
      </trkpt>
      <trkpt lat="47.3315" lon="-1.45936">
        <ele>105</ele>
        <time>2021-02-28T09:44:26.428000+00:00</time>
      </trkpt>
      <trkpt lat="0" lon="0">
        <time>2021-02-28T09:44:26.436000+00:00</time>
      </trkpt>
      <trkpt lat="0" lon="0">
        <time>2021-02-28T09:44:26.440000+00:00</time>
      </trkpt>
      <trkpt lat="0" lon="0">
        <time>2021-02-28T09:44:26.445000+00:00</time>
      </trkpt>
      <trkpt lat="47.33156" lon="-1.45933">
        <ele>105</ele>
        <time>2021-02-28T09:44:27.497000+00:00</time>
      </trkpt>
      <trkpt lat="0" lon="0">
        <time>2021-02-28T09:44:27.507000+00:00</time>
      </trkpt>
      <trkpt lat="0" lon="0">
        <time>2021-02-28T09:44:27.513000+00:00</time>
      </trkpt>
      <trkpt lat="0" lon="0">
        <time>2021-02-28T09:44:27.515000+00:00</time>
      </trkpt>
      <trkpt lat="47.33161" lon="-1.4593">
        <ele>105</ele>
        <time>2021-02-28T09:44:28.443000+00:00</time>
      </trkpt>
      <trkpt lat="0" lon="0">
        <time>2021-02-28T09:44:28.450000+00:00</time>
      </trkpt>
      <trkpt lat="0" lon="0">
        <time>2021-02-28T09:44:28.454000+00:00</time>
      </trkpt>
      <trkpt lat="0" lon="0">
        <time>2021-02-28T09:44:28.457000+00:00</time>
      </trkpt>
      <trkpt lat="47.33166" lon="-1.45927">
        <ele>106</ele>
        <time>2021-02-28T09:44:29.444000+00:00</time>
      </trkpt>
      <trkpt lat="0" lon="0">
        <time>2021-02-28T09:44:29.451000+00:00</time>
      </trkpt>
      <trkpt lat="0" lon="0">
        <time>2021-02-28T09:44:29.456000+00:00</time>
      </trkpt>
      <trkpt lat="0" lon="0">
        <time>2021-02-28T09:44:29.459000+00:00</time>
      </trkpt>
      <trkpt lat="47.33171" lon="-1.45924">
        <ele>106</ele>
        <time>2021-02-28T09:44:30.425000+00:00</time>
      </trkpt>
      <trkpt lat="0" lon="0">
        <time>2021-02-28T09:44:30.432000+00:00</time>
      </trkpt>
      <trkpt lat="0" lon="0">
        <time>2021-02-28T09:44:30.436000+00:00</time>
      </trkpt>
      <trkpt lat="0" lon="0">
        <time>2021-02-28T09:44:30.438000+00:00</time>
      </trkpt>
      <trkpt lat="47.33176" lon="-1.4592">
        <ele>106</ele>
        <time>2021-02-28T09:44:31.387000+00:00</time>
      </trkpt>
      <trkpt lat="0" lon="0">
        <time>2021-02-28T09:44:31.389000+00:00</time>
      </trkpt>
      <trkpt lat="0" lon="0">
        <time>2021-02-28T09:44:31.391000+00:00</time>
      </trkpt>
      <trkpt lat="0" lon="0">
        <time>2021-02-28T09:44:31.392000+00:00</time>
      </trkpt>
      <trkpt lat="47.33181" lon="-1.45917">
        <ele>106</ele>
        <time>2021-02-28T09:44:32.491000+00:00</time>
      </trkpt>
      <trkpt lat="0" lon="0">
        <time>2021-02-28T09:44:32.499000+00:00</time>
      </trkpt>
      <trkpt lat="0" lon="0">
        <time>2021-02-28T09:44:32.504000+00:00</time>
      </trkpt>
      <trkpt lat="0" lon="0">
        <time>2021-02-28T09:44:32.507000+00:00</time>
      </trkpt>
      <trkpt lat="47.33185" lon="-1.45914">
        <ele>106</ele>
        <time>2021-02-28T09:44:33.472000+00:00</time>
      </trkpt>
      <trkpt lat="0" lon="0">
        <time>2021-02-28T09:44:33.478000+00:00</time>
      </trkpt>
      <trkpt lat="0" lon="0">
        <time>2021-02-28T09:44:33.483000+00:00</time>
      </trkpt>
      <trkpt lat="0" lon="0">
        <time>2021-02-28T09:44:33.487000+00:00</time>
      </trkpt>
      <trkpt lat="47.3319" lon="-1.45912">
        <ele>106</ele>
        <time>2021-02-28T09:44:34.483000+00:00</time>
      </trkpt>
      <trkpt lat="0" lon="0">
        <time>2021-02-28T09:44:34.495000+00:00</time>
      </trkpt>
      <trkpt lat="0" lon="0">
        <time>2021-02-28T09:44:34.501000+00:00</time>
      </trkpt>
      <trkpt lat="0" lon="0">
        <time>2021-02-28T09:44:34.504000+00:00</time>
      </trkpt>
      <trkpt lat="47.33195" lon="-1.45909">
        <ele>106</ele>
        <time>2021-02-28T09:44:35.425000+00:00</time>
      </trkpt>
      <trkpt lat="0" lon="0">
        <time>2021-02-28T09:44:35.431000+00:00</time>
      </trkpt>
      <trkpt lat="0" lon="0">
        <time>2021-02-28T09:44:35.435000+00:00</time>
      </trkpt>
      <trkpt lat="0" lon="0">
        <time>2021-02-28T09:44:35.437000+00:00</time>
      </trkpt>
      <trkpt lat="47.332" lon="-1.45906">
        <ele>106</ele>
        <time>2021-02-28T09:44:36.420000+00:00</time>
      </trkpt>
      <trkpt lat="0" lon="0">
        <time>2021-02-28T09:44:36.428000+00:00</time>
      </trkpt>
      <trkpt lat="0" lon="0">
        <time>2021-02-28T09:44:36.433000+00:00</time>
      </trkpt>
      <trkpt lat="0" lon="0">
        <time>2021-02-28T09:44:36.435000+00:00</time>
      </trkpt>
      <trkpt lat="47.33205" lon="-1.45903">
        <ele>107</ele>
        <time>2021-02-28T09:44:37.465000+00:00</time>
      </trkpt>
      <trkpt lat="0" lon="0">
        <time>2021-02-28T09:44:37.472000+00:00</time>
      </trkpt>
      <trkpt lat="0" lon="0">
        <time>2021-02-28T09:44:37.477000+00:00</time>
      </trkpt>
      <trkpt lat="0" lon="0">
        <time>2021-02-28T09:44:37.480000+00:00</time>
      </trkpt>
      <trkpt lat="47.33209" lon="-1.459">
        <ele>107</ele>
        <time>2021-02-28T09:44:38.512000+00:00</time>
      </trkpt>
      <trkpt lat="0" lon="0">
        <time>2021-02-28T09:44:38.520000+00:00</time>
      </trkpt>
      <trkpt lat="0" lon="0">
        <time>2021-02-28T09:44:38.526000+00:00</time>
      </trkpt>
      <trkpt lat="0" lon="0">
        <time>2021-02-28T09:44:38.529000+00:00</time>
      </trkpt>
      <trkpt lat="47.33214" lon="-1.45897">
        <ele>107</ele>
        <time>2021-02-28T09:44:39.486000+00:00</time>
      </trkpt>
      <trkpt lat="0" lon="0">
        <time>2021-02-28T09:44:39.493000+00:00</time>
      </trkpt>
      <trkpt lat="0" lon="0">
        <time>2021-02-28T09:44:39.498000+00:00</time>
      </trkpt>
      <trkpt lat="0" lon="0">
        <time>2021-02-28T09:44:39.501000+00:00</time>
      </trkpt>
      <trkpt lat="47.33219" lon="-1.45894">
        <ele>106</ele>
        <time>2021-02-28T09:44:40.435000+00:00</time>
      </trkpt>
      <trkpt lat="0" lon="0">
        <time>2021-02-28T09:44:40.445000+00:00</time>
      </trkpt>
      <trkpt lat="0" lon="0">
        <time>2021-02-28T09:44:40.449000+00:00</time>
      </trkpt>
      <trkpt lat="0" lon="0">
        <time>2021-02-28T09:44:40.452000+00:00</time>
      </trkpt>
      <trkpt lat="47.33224" lon="-1.45891">
        <ele>107</ele>
        <time>2021-02-28T09:44:41.453000+00:00</time>
      </trkpt>
      <trkpt lat="0" lon="0">
        <time>2021-02-28T09:44:41.463000+00:00</time>
      </trkpt>
      <trkpt lat="0" lon="0">
        <time>2021-02-28T09:44:41.470000+00:00</time>
      </trkpt>
      <trkpt lat="0" lon="0">
        <time>2021-02-28T09:44:41.472000+00:00</time>
      </trkpt>
      <trkpt lat="47.33229" lon="-1.45888">
        <ele>107</ele>
        <time>2021-02-28T09:44:42.475000+00:00</time>
      </trkpt>
      <trkpt lat="0" lon="0">
        <time>2021-02-28T09:44:42.484000+00:00</time>
      </trkpt>
      <trkpt lat="0" lon="0">
        <time>2021-02-28T09:44:42.491000+00:00</time>
      </trkpt>
      <trkpt lat="0" lon="0">
        <time>2021-02-28T09:44:42.494000+00:00</time>
      </trkpt>
      <trkpt lat="47.33234" lon="-1.45885">
        <ele>107</ele>
        <time>2021-02-28T09:44:43.428000+00:00</time>
      </trkpt>
      <trkpt lat="0" lon="0">
        <time>2021-02-28T09:44:43.432000+00:00</time>
      </trkpt>
      <trkpt lat="0" lon="0">
        <time>2021-02-28T09:44:43.440000+00:00</time>
      </trkpt>
      <trkpt lat="0" lon="0">
        <time>2021-02-28T09:44:43.448000+00:00</time>
      </trkpt>
      <trkpt lat="47.33238" lon="-1.45882">
        <ele>107</ele>
        <time>2021-02-28T09:44:44.472000+00:00</time>
      </trkpt>
      <trkpt lat="0" lon="0">
        <time>2021-02-28T09:44:44.478000+00:00</time>
      </trkpt>
      <trkpt lat="0" lon="0">
        <time>2021-02-28T09:44:44.485000+00:00</time>
      </trkpt>
      <trkpt lat="0" lon="0">
        <time>2021-02-28T09:44:44.488000+00:00</time>
      </trkpt>
      <trkpt lat="47.33243" lon="-1.45879">
        <ele>108</ele>
        <time>2021-02-28T09:44:45.444000+00:00</time>
      </trkpt>
      <trkpt lat="0" lon="0">
        <time>2021-02-28T09:44:45.455000+00:00</time>
      </trkpt>
      <trkpt lat="0" lon="0">
        <time>2021-02-28T09:44:45.462000+00:00</time>
      </trkpt>
      <trkpt lat="0" lon="0">
        <time>2021-02-28T09:44:45.466000+00:00</time>
      </trkpt>
      <trkpt lat="47.33248" lon="-1.45876">
        <ele>109</ele>
        <time>2021-02-28T09:44:46.469000+00:00</time>
      </trkpt>
      <trkpt lat="0" lon="0">
        <time>2021-02-28T09:44:46.477000+00:00</time>
      </trkpt>
      <trkpt lat="0" lon="0">
        <time>2021-02-28T09:44:46.484000+00:00</time>
      </trkpt>
      <trkpt lat="0" lon="0">
        <time>2021-02-28T09:44:46.487000+00:00</time>
      </trkpt>
      <trkpt lat="47.33253" lon="-1.45873">
        <ele>109</ele>
        <time>2021-02-28T09:44:47.474000+00:00</time>
      </trkpt>
      <trkpt lat="0" lon="0">
        <time>2021-02-28T09:44:47.484000+00:00</time>
      </trkpt>
      <trkpt lat="0" lon="0">
        <time>2021-02-28T09:44:47.490000+00:00</time>
      </trkpt>
      <trkpt lat="0" lon="0">
        <time>2021-02-28T09:44:47.494000+00:00</time>
      </trkpt>
      <trkpt lat="47.33257" lon="-1.45869">
        <ele>110</ele>
        <time>2021-02-28T09:44:48.462000+00:00</time>
      </trkpt>
      <trkpt lat="0" lon="0">
        <time>2021-02-28T09:44:48.472000+00:00</time>
      </trkpt>
      <trkpt lat="0" lon="0">
        <time>2021-02-28T09:44:48.477000+00:00</time>
      </trkpt>
      <trkpt lat="0" lon="0">
        <time>2021-02-28T09:44:48.479000+00:00</time>
      </trkpt>
      <trkpt lat="47.33262" lon="-1.45866">
        <ele>110</ele>
        <time>2021-02-28T09:44:49.440000+00:00</time>
      </trkpt>
      <trkpt lat="0" lon="0">
        <time>2021-02-28T09:44:49.447000+00:00</time>
      </trkpt>
      <trkpt lat="0" lon="0">
        <time>2021-02-28T09:44:49.449000+00:00</time>
      </trkpt>
      <trkpt lat="0" lon="0">
        <time>2021-02-28T09:44:49.451000+00:00</time>
      </trkpt>
      <trkpt lat="47.33267" lon="-1.45862">
        <ele>110</ele>
        <time>2021-02-28T09:44:50.468000+00:00</time>
      </trkpt>
      <trkpt lat="0" lon="0">
        <time>2021-02-28T09:44:50.474000+00:00</time>
      </trkpt>
      <trkpt lat="0" lon="0">
        <time>2021-02-28T09:44:50.479000+00:00</time>
      </trkpt>
      <trkpt lat="0" lon="0">
        <time>2021-02-28T09:44:50.481000+00:00</time>
      </trkpt>
      <trkpt lat="47.33271" lon="-1.45858">
        <ele>110</ele>
        <time>2021-02-28T09:44:51.462000+00:00</time>
      </trkpt>
      <trkpt lat="0" lon="0">
        <time>2021-02-28T09:44:51.467000+00:00</time>
      </trkpt>
      <trkpt lat="0" lon="0">
        <time>2021-02-28T09:44:51.472000+00:00</time>
      </trkpt>
      <trkpt lat="0" lon="0">
        <time>2021-02-28T09:44:51.475000+00:00</time>
      </trkpt>
      <trkpt lat="47.33276" lon="-1.45855">
        <ele>110</ele>
        <time>2021-02-28T09:44:52.449000+00:00</time>
      </trkpt>
      <trkpt lat="0" lon="0">
        <time>2021-02-28T09:44:52.454000+00:00</time>
      </trkpt>
      <trkpt lat="0" lon="0">
        <time>2021-02-28T09:44:52.459000+00:00</time>
      </trkpt>
      <trkpt lat="0" lon="0">
        <time>2021-02-28T09:44:52.462000+00:00</time>
      </trkpt>
      <trkpt lat="47.33281" lon="-1.45851">
        <ele>110</ele>
        <time>2021-02-28T09:44:53.460000+00:00</time>
      </trkpt>
      <trkpt lat="0" lon="0">
        <time>2021-02-28T09:44:53.470000+00:00</time>
      </trkpt>
      <trkpt lat="0" lon="0">
        <time>2021-02-28T09:44:53.476000+00:00</time>
      </trkpt>
      <trkpt lat="0" lon="0">
        <time>2021-02-28T09:44:53.477000+00:00</time>
      </trkpt>
      <trkpt lat="47.33287" lon="-1.45848">
        <ele>111</ele>
        <time>2021-02-28T09:44:54.377000+00:00</time>
      </trkpt>
      <trkpt lat="0" lon="0">
        <time>2021-02-28T09:44:54.379000+00:00</time>
      </trkpt>
      <trkpt lat="0" lon="0">
        <time>2021-02-28T09:44:54.381000+00:00</time>
      </trkpt>
      <trkpt lat="0" lon="0">
        <time>2021-02-28T09:44:54.383000+00:00</time>
      </trkpt>
      <trkpt lat="47.33292" lon="-1.45844">
        <ele>111</ele>
        <time>2021-02-28T09:44:55.408000+00:00</time>
      </trkpt>
      <trkpt lat="0" lon="0">
        <time>2021-02-28T09:44:55.415000+00:00</time>
      </trkpt>
      <trkpt lat="0" lon="0">
        <time>2021-02-28T09:44:55.420000+00:00</time>
      </trkpt>
      <trkpt lat="0" lon="0">
        <time>2021-02-28T09:44:55.423000+00:00</time>
      </trkpt>
      <trkpt lat="47.33297" lon="-1.4584">
        <ele>111</ele>
        <time>2021-02-28T09:44:56.423000+00:00</time>
      </trkpt>
      <trkpt lat="0" lon="0">
        <time>2021-02-28T09:44:56.430000+00:00</time>
      </trkpt>
      <trkpt lat="0" lon="0">
        <time>2021-02-28T09:44:56.435000+00:00</time>
      </trkpt>
      <trkpt lat="0" lon="0">
        <time>2021-02-28T09:44:56.437000+00:00</time>
      </trkpt>
      <trkpt lat="47.33302" lon="-1.45836">
        <ele>111</ele>
        <time>2021-02-28T09:44:57.391000+00:00</time>
      </trkpt>
      <trkpt lat="0" lon="0">
        <time>2021-02-28T09:44:57.403000+00:00</time>
      </trkpt>
      <trkpt lat="0" lon="0">
        <time>2021-02-28T09:44:57.409000+00:00</time>
      </trkpt>
      <trkpt lat="0" lon="0">
        <time>2021-02-28T09:44:57.412000+00:00</time>
      </trkpt>
      <trkpt lat="47.33306" lon="-1.45832">
        <ele>111</ele>
        <time>2021-02-28T09:44:58.426000+00:00</time>
      </trkpt>
      <trkpt lat="0" lon="0">
        <time>2021-02-28T09:44:58.432000+00:00</time>
      </trkpt>
      <trkpt lat="0" lon="0">
        <time>2021-02-28T09:44:58.436000+00:00</time>
      </trkpt>
      <trkpt lat="0" lon="0">
        <time>2021-02-28T09:44:58.439000+00:00</time>
      </trkpt>
      <trkpt lat="47.33311" lon="-1.45828">
        <ele>112</ele>
        <time>2021-02-28T09:44:59.437000+00:00</time>
      </trkpt>
      <trkpt lat="0" lon="0">
        <time>2021-02-28T09:44:59.447000+00:00</time>
      </trkpt>
      <trkpt lat="0" lon="0">
        <time>2021-02-28T09:44:59.451000+00:00</time>
      </trkpt>
      <trkpt lat="0" lon="0">
        <time>2021-02-28T09:44:59.453000+00:00</time>
      </trkpt>
      <trkpt lat="47.33316" lon="-1.45824">
        <ele>113</ele>
        <time>2021-02-28T09:45:00.429000+00:00</time>
      </trkpt>
      <trkpt lat="0" lon="0">
        <time>2021-02-28T09:45:00.438000+00:00</time>
      </trkpt>
      <trkpt lat="0" lon="0">
        <time>2021-02-28T09:45:00.446000+00:00</time>
      </trkpt>
      <trkpt lat="0" lon="0">
        <time>2021-02-28T09:45:00.450000+00:00</time>
      </trkpt>
      <trkpt lat="47.3332" lon="-1.4582">
        <ele>113</ele>
        <time>2021-02-28T09:45:01.398000+00:00</time>
      </trkpt>
      <trkpt lat="0" lon="0">
        <time>2021-02-28T09:45:01.400000+00:00</time>
      </trkpt>
      <trkpt lat="0" lon="0">
        <time>2021-02-28T09:45:01.403000+00:00</time>
      </trkpt>
      <trkpt lat="0" lon="0">
        <time>2021-02-28T09:45:01.404000+00:00</time>
      </trkpt>
      <trkpt lat="47.33325" lon="-1.45816">
        <ele>114</ele>
        <time>2021-02-28T09:45:02.437000+00:00</time>
      </trkpt>
      <trkpt lat="0" lon="0">
        <time>2021-02-28T09:45:02.443000+00:00</time>
      </trkpt>
      <trkpt lat="0" lon="0">
        <time>2021-02-28T09:45:02.452000+00:00</time>
      </trkpt>
      <trkpt lat="0" lon="0">
        <time>2021-02-28T09:45:02.454000+00:00</time>
      </trkpt>
      <trkpt lat="47.3333" lon="-1.45812">
        <ele>115</ele>
        <time>2021-02-28T09:45:03.441000+00:00</time>
      </trkpt>
      <trkpt lat="0" lon="0">
        <time>2021-02-28T09:45:03.449000+00:00</time>
      </trkpt>
      <trkpt lat="0" lon="0">
        <time>2021-02-28T09:45:03.455000+00:00</time>
      </trkpt>
      <trkpt lat="0" lon="0">
        <time>2021-02-28T09:45:03.457000+00:00</time>
      </trkpt>
      <trkpt lat="47.33334" lon="-1.45807">
        <ele>114</ele>
        <time>2021-02-28T09:45:04.380000+00:00</time>
      </trkpt>
      <trkpt lat="0" lon="0">
        <time>2021-02-28T09:45:04.391000+00:00</time>
      </trkpt>
      <trkpt lat="0" lon="0">
        <time>2021-02-28T09:45:04.400000+00:00</time>
      </trkpt>
      <trkpt lat="0" lon="0">
        <time>2021-02-28T09:45:04.403000+00:00</time>
      </trkpt>
      <trkpt lat="47.33338" lon="-1.45802">
        <ele>114</ele>
        <time>2021-02-28T09:45:05.484000+00:00</time>
      </trkpt>
      <trkpt lat="0" lon="0">
        <time>2021-02-28T09:45:05.495000+00:00</time>
      </trkpt>
      <trkpt lat="0" lon="0">
        <time>2021-02-28T09:45:05.501000+00:00</time>
      </trkpt>
      <trkpt lat="0" lon="0">
        <time>2021-02-28T09:45:05.503000+00:00</time>
      </trkpt>
      <trkpt lat="47.33342" lon="-1.45797">
        <ele>114</ele>
        <time>2021-02-28T09:45:06.435000+00:00</time>
      </trkpt>
      <trkpt lat="0" lon="0">
        <time>2021-02-28T09:45:06.440000+00:00</time>
      </trkpt>
      <trkpt lat="0" lon="0">
        <time>2021-02-28T09:45:06.444000+00:00</time>
      </trkpt>
      <trkpt lat="0" lon="0">
        <time>2021-02-28T09:45:06.446000+00:00</time>
      </trkpt>
      <trkpt lat="47.33347" lon="-1.45792">
        <ele>114</ele>
        <time>2021-02-28T09:45:07.476000+00:00</time>
      </trkpt>
      <trkpt lat="0" lon="0">
        <time>2021-02-28T09:45:07.483000+00:00</time>
      </trkpt>
      <trkpt lat="0" lon="0">
        <time>2021-02-28T09:45:07.487000+00:00</time>
      </trkpt>
      <trkpt lat="0" lon="0">
        <time>2021-02-28T09:45:07.489000+00:00</time>
      </trkpt>
      <trkpt lat="47.33351" lon="-1.45788">
        <ele>115</ele>
        <time>2021-02-28T09:45:08.454000+00:00</time>
      </trkpt>
      <trkpt lat="0" lon="0">
        <time>2021-02-28T09:45:08.462000+00:00</time>
      </trkpt>
      <trkpt lat="0" lon="0">
        <time>2021-02-28T09:45:08.467000+00:00</time>
      </trkpt>
      <trkpt lat="0" lon="0">
        <time>2021-02-28T09:45:08.469000+00:00</time>
      </trkpt>
      <trkpt lat="47.33355" lon="-1.45783">
        <ele>115</ele>
        <time>2021-02-28T09:45:09.463000+00:00</time>
      </trkpt>
      <trkpt lat="0" lon="0">
        <time>2021-02-28T09:45:09.471000+00:00</time>
      </trkpt>
      <trkpt lat="0" lon="0">
        <time>2021-02-28T09:45:09.477000+00:00</time>
      </trkpt>
      <trkpt lat="0" lon="0">
        <time>2021-02-28T09:45:09.480000+00:00</time>
      </trkpt>
      <trkpt lat="47.3336" lon="-1.45778">
        <ele>115</ele>
        <time>2021-02-28T09:45:10.414000+00:00</time>
      </trkpt>
      <trkpt lat="0" lon="0">
        <time>2021-02-28T09:45:10.422000+00:00</time>
      </trkpt>
      <trkpt lat="0" lon="0">
        <time>2021-02-28T09:45:10.426000+00:00</time>
      </trkpt>
      <trkpt lat="0" lon="0">
        <time>2021-02-28T09:45:10.429000+00:00</time>
      </trkpt>
      <trkpt lat="47.33364" lon="-1.45773">
        <ele>114</ele>
        <time>2021-02-28T09:45:11.452000+00:00</time>
      </trkpt>
      <trkpt lat="0" lon="0">
        <time>2021-02-28T09:45:11.461000+00:00</time>
      </trkpt>
      <trkpt lat="0" lon="0">
        <time>2021-02-28T09:45:11.465000+00:00</time>
      </trkpt>
      <trkpt lat="0" lon="0">
        <time>2021-02-28T09:45:11.467000+00:00</time>
      </trkpt>
      <trkpt lat="47.33369" lon="-1.45769">
        <ele>114</ele>
        <time>2021-02-28T09:45:12.427000+00:00</time>
      </trkpt>
      <trkpt lat="0" lon="0">
        <time>2021-02-28T09:45:12.432000+00:00</time>
      </trkpt>
      <trkpt lat="0" lon="0">
        <time>2021-02-28T09:45:12.436000+00:00</time>
      </trkpt>
      <trkpt lat="0" lon="0">
        <time>2021-02-28T09:45:12.439000+00:00</time>
      </trkpt>
      <trkpt lat="47.33373" lon="-1.45764">
        <ele>114</ele>
        <time>2021-02-28T09:45:13.469000+00:00</time>
      </trkpt>
      <trkpt lat="0" lon="0">
        <time>2021-02-28T09:45:13.480000+00:00</time>
      </trkpt>
      <trkpt lat="0" lon="0">
        <time>2021-02-28T09:45:13.487000+00:00</time>
      </trkpt>
      <trkpt lat="0" lon="0">
        <time>2021-02-28T09:45:13.489000+00:00</time>
      </trkpt>
      <trkpt lat="47.33377" lon="-1.4576">
        <ele>114</ele>
        <time>2021-02-28T09:45:14.413000+00:00</time>
      </trkpt>
      <trkpt lat="0" lon="0">
        <time>2021-02-28T09:45:14.421000+00:00</time>
      </trkpt>
      <trkpt lat="0" lon="0">
        <time>2021-02-28T09:45:14.424000+00:00</time>
      </trkpt>
      <trkpt lat="0" lon="0">
        <time>2021-02-28T09:45:14.427000+00:00</time>
      </trkpt>
      <trkpt lat="47.33381" lon="-1.45755">
        <ele>114</ele>
        <time>2021-02-28T09:45:15.469000+00:00</time>
      </trkpt>
      <trkpt lat="0" lon="0">
        <time>2021-02-28T09:45:15.475000+00:00</time>
      </trkpt>
      <trkpt lat="0" lon="0">
        <time>2021-02-28T09:45:15.480000+00:00</time>
      </trkpt>
      <trkpt lat="0" lon="0">
        <time>2021-02-28T09:45:15.484000+00:00</time>
      </trkpt>
      <trkpt lat="47.33386" lon="-1.45751">
        <ele>113</ele>
        <time>2021-02-28T09:45:16.436000+00:00</time>
      </trkpt>
      <trkpt lat="0" lon="0">
        <time>2021-02-28T09:45:16.450000+00:00</time>
      </trkpt>
      <trkpt lat="0" lon="0">
        <time>2021-02-28T09:45:16.454000+00:00</time>
      </trkpt>
      <trkpt lat="0" lon="0">
        <time>2021-02-28T09:45:16.456000+00:00</time>
      </trkpt>
      <trkpt lat="47.3339" lon="-1.45746">
        <ele>113</ele>
        <time>2021-02-28T09:45:17.463000+00:00</time>
      </trkpt>
      <trkpt lat="0" lon="0">
        <time>2021-02-28T09:45:17.473000+00:00</time>
      </trkpt>
      <trkpt lat="0" lon="0">
        <time>2021-02-28T09:45:17.479000+00:00</time>
      </trkpt>
      <trkpt lat="0" lon="0">
        <time>2021-02-28T09:45:17.481000+00:00</time>
      </trkpt>
      <trkpt lat="47.33394" lon="-1.45741">
        <ele>113</ele>
        <time>2021-02-28T09:45:18.492000+00:00</time>
      </trkpt>
      <trkpt lat="0" lon="0">
        <time>2021-02-28T09:45:18.499000+00:00</time>
      </trkpt>
      <trkpt lat="0" lon="0">
        <time>2021-02-28T09:45:18.502000+00:00</time>
      </trkpt>
      <trkpt lat="0" lon="0">
        <time>2021-02-28T09:45:18.503000+00:00</time>
      </trkpt>
      <trkpt lat="47.33398" lon="-1.45736">
        <ele>113</ele>
        <time>2021-02-28T09:45:19.455000+00:00</time>
      </trkpt>
      <trkpt lat="0" lon="0">
        <time>2021-02-28T09:45:19.471000+00:00</time>
      </trkpt>
      <trkpt lat="0" lon="0">
        <time>2021-02-28T09:45:19.478000+00:00</time>
      </trkpt>
      <trkpt lat="0" lon="0">
        <time>2021-02-28T09:45:19.482000+00:00</time>
      </trkpt>
      <trkpt lat="47.33402" lon="-1.45731">
        <ele>113</ele>
        <time>2021-02-28T09:45:20.463000+00:00</time>
      </trkpt>
      <trkpt lat="0" lon="0">
        <time>2021-02-28T09:45:20.469000+00:00</time>
      </trkpt>
      <trkpt lat="0" lon="0">
        <time>2021-02-28T09:45:20.474000+00:00</time>
      </trkpt>
      <trkpt lat="0" lon="0">
        <time>2021-02-28T09:45:20.477000+00:00</time>
      </trkpt>
      <trkpt lat="47.33407" lon="-1.45726">
        <ele>112</ele>
        <time>2021-02-28T09:45:21.465000+00:00</time>
      </trkpt>
      <trkpt lat="0" lon="0">
        <time>2021-02-28T09:45:21.477000+00:00</time>
      </trkpt>
      <trkpt lat="0" lon="0">
        <time>2021-02-28T09:45:21.483000+00:00</time>
      </trkpt>
      <trkpt lat="0" lon="0">
        <time>2021-02-28T09:45:21.486000+00:00</time>
      </trkpt>
      <trkpt lat="47.33411" lon="-1.45721">
        <ele>112</ele>
        <time>2021-02-28T09:45:22.444000+00:00</time>
      </trkpt>
      <trkpt lat="0" lon="0">
        <time>2021-02-28T09:45:22.450000+00:00</time>
      </trkpt>
      <trkpt lat="0" lon="0">
        <time>2021-02-28T09:45:22.461000+00:00</time>
      </trkpt>
      <trkpt lat="0" lon="0">
        <time>2021-02-28T09:45:22.463000+00:00</time>
      </trkpt>
      <trkpt lat="47.33416" lon="-1.45716">
        <ele>112</ele>
        <time>2021-02-28T09:45:23.430000+00:00</time>
      </trkpt>
      <trkpt lat="0" lon="0">
        <time>2021-02-28T09:45:23.442000+00:00</time>
      </trkpt>
      <trkpt lat="0" lon="0">
        <time>2021-02-28T09:45:23.446000+00:00</time>
      </trkpt>
      <trkpt lat="0" lon="0">
        <time>2021-02-28T09:45:23.448000+00:00</time>
      </trkpt>
      <trkpt lat="47.3342" lon="-1.4571">
        <ele>112</ele>
        <time>2021-02-28T09:45:24.424000+00:00</time>
      </trkpt>
      <trkpt lat="0" lon="0">
        <time>2021-02-28T09:45:24.428000+00:00</time>
      </trkpt>
      <trkpt lat="0" lon="0">
        <time>2021-02-28T09:45:24.433000+00:00</time>
      </trkpt>
      <trkpt lat="0" lon="0">
        <time>2021-02-28T09:45:24.440000+00:00</time>
      </trkpt>
      <trkpt lat="47.33425" lon="-1.45705">
        <ele>112</ele>
        <time>2021-02-28T09:45:25.467000+00:00</time>
      </trkpt>
      <trkpt lat="0" lon="0">
        <time>2021-02-28T09:45:25.479000+00:00</time>
      </trkpt>
      <trkpt lat="0" lon="0">
        <time>2021-02-28T09:45:25.486000+00:00</time>
      </trkpt>
      <trkpt lat="0" lon="0">
        <time>2021-02-28T09:45:25.489000+00:00</time>
      </trkpt>
      <trkpt lat="47.3343" lon="-1.457">
        <ele>112</ele>
        <time>2021-02-28T09:45:26.466000+00:00</time>
      </trkpt>
      <trkpt lat="0" lon="0">
        <time>2021-02-28T09:45:26.476000+00:00</time>
      </trkpt>
      <trkpt lat="0" lon="0">
        <time>2021-02-28T09:45:26.482000+00:00</time>
      </trkpt>
      <trkpt lat="0" lon="0">
        <time>2021-02-28T09:45:26.485000+00:00</time>
      </trkpt>
      <trkpt lat="47.33434" lon="-1.45694">
        <ele>112</ele>
        <time>2021-02-28T09:45:27.476000+00:00</time>
      </trkpt>
      <trkpt lat="0" lon="0">
        <time>2021-02-28T09:45:27.486000+00:00</time>
      </trkpt>
      <trkpt lat="0" lon="0">
        <time>2021-02-28T09:45:27.493000+00:00</time>
      </trkpt>
      <trkpt lat="0" lon="0">
        <time>2021-02-28T09:45:27.496000+00:00</time>
      </trkpt>
      <trkpt lat="47.33438" lon="-1.45689">
        <ele>112</ele>
        <time>2021-02-28T09:45:28.421000+00:00</time>
      </trkpt>
      <trkpt lat="0" lon="0">
        <time>2021-02-28T09:45:28.434000+00:00</time>
      </trkpt>
      <trkpt lat="0" lon="0">
        <time>2021-02-28T09:45:28.439000+00:00</time>
      </trkpt>
      <trkpt lat="0" lon="0">
        <time>2021-02-28T09:45:28.441000+00:00</time>
      </trkpt>
      <trkpt lat="47.33443" lon="-1.45683">
        <ele>113</ele>
        <time>2021-02-28T09:45:29.410000+00:00</time>
      </trkpt>
      <trkpt lat="0" lon="0">
        <time>2021-02-28T09:45:29.422000+00:00</time>
      </trkpt>
      <trkpt lat="0" lon="0">
        <time>2021-02-28T09:45:29.427000+00:00</time>
      </trkpt>
      <trkpt lat="0" lon="0">
        <time>2021-02-28T09:45:29.430000+00:00</time>
      </trkpt>
      <trkpt lat="47.33447" lon="-1.45678">
        <ele>113</ele>
        <time>2021-02-28T09:45:30.440000+00:00</time>
      </trkpt>
      <trkpt lat="0" lon="0">
        <time>2021-02-28T09:45:30.451000+00:00</time>
      </trkpt>
      <trkpt lat="0" lon="0">
        <time>2021-02-28T09:45:30.457000+00:00</time>
      </trkpt>
      <trkpt lat="0" lon="0">
        <time>2021-02-28T09:45:30.459000+00:00</time>
      </trkpt>
      <trkpt lat="47.33451" lon="-1.45672">
        <ele>113</ele>
        <time>2021-02-28T09:45:31.470000+00:00</time>
      </trkpt>
      <trkpt lat="0" lon="0">
        <time>2021-02-28T09:45:31.480000+00:00</time>
      </trkpt>
      <trkpt lat="0" lon="0">
        <time>2021-02-28T09:45:31.486000+00:00</time>
      </trkpt>
      <trkpt lat="0" lon="0">
        <time>2021-02-28T09:45:31.490000+00:00</time>
      </trkpt>
      <trkpt lat="47.33455" lon="-1.45667">
        <ele>113</ele>
        <time>2021-02-28T09:45:32.449000+00:00</time>
      </trkpt>
      <trkpt lat="0" lon="0">
        <time>2021-02-28T09:45:32.455000+00:00</time>
      </trkpt>
      <trkpt lat="0" lon="0">
        <time>2021-02-28T09:45:32.459000+00:00</time>
      </trkpt>
      <trkpt lat="0" lon="0">
        <time>2021-02-28T09:45:32.461000+00:00</time>
      </trkpt>
      <trkpt lat="47.33459" lon="-1.45661">
        <ele>112</ele>
        <time>2021-02-28T09:45:33.412000+00:00</time>
      </trkpt>
      <trkpt lat="0" lon="0">
        <time>2021-02-28T09:45:33.422000+00:00</time>
      </trkpt>
      <trkpt lat="0" lon="0">
        <time>2021-02-28T09:45:33.427000+00:00</time>
      </trkpt>
      <trkpt lat="0" lon="0">
        <time>2021-02-28T09:45:33.430000+00:00</time>
      </trkpt>
      <trkpt lat="47.33464" lon="-1.45655">
        <ele>112</ele>
        <time>2021-02-28T09:45:34.449000+00:00</time>
      </trkpt>
      <trkpt lat="0" lon="0">
        <time>2021-02-28T09:45:34.458000+00:00</time>
      </trkpt>
      <trkpt lat="0" lon="0">
        <time>2021-02-28T09:45:34.462000+00:00</time>
      </trkpt>
      <trkpt lat="0" lon="0">
        <time>2021-02-28T09:45:34.465000+00:00</time>
      </trkpt>
      <trkpt lat="47.33468" lon="-1.45649">
        <ele>112</ele>
        <time>2021-02-28T09:45:35.429000+00:00</time>
      </trkpt>
      <trkpt lat="0" lon="0">
        <time>2021-02-28T09:45:35.440000+00:00</time>
      </trkpt>
      <trkpt lat="0" lon="0">
        <time>2021-02-28T09:45:35.444000+00:00</time>
      </trkpt>
      <trkpt lat="0" lon="0">
        <time>2021-02-28T09:45:35.447000+00:00</time>
      </trkpt>
      <trkpt lat="47.33472" lon="-1.45643">
        <ele>111</ele>
        <time>2021-02-28T09:45:36.464000+00:00</time>
      </trkpt>
      <trkpt lat="0" lon="0">
        <time>2021-02-28T09:45:36.474000+00:00</time>
      </trkpt>
      <trkpt lat="0" lon="0">
        <time>2021-02-28T09:45:36.478000+00:00</time>
      </trkpt>
      <trkpt lat="0" lon="0">
        <time>2021-02-28T09:45:36.481000+00:00</time>
      </trkpt>
      <trkpt lat="47.33476" lon="-1.45637">
        <ele>111</ele>
        <time>2021-02-28T09:45:37.383000+00:00</time>
      </trkpt>
      <trkpt lat="0" lon="0">
        <time>2021-02-28T09:45:37.386000+00:00</time>
      </trkpt>
      <trkpt lat="0" lon="0">
        <time>2021-02-28T09:45:37.389000+00:00</time>
      </trkpt>
      <trkpt lat="0" lon="0">
        <time>2021-02-28T09:45:37.390000+00:00</time>
      </trkpt>
      <trkpt lat="47.3348" lon="-1.45631">
        <ele>111</ele>
        <time>2021-02-28T09:45:38.484000+00:00</time>
      </trkpt>
      <trkpt lat="0" lon="0">
        <time>2021-02-28T09:45:38.493000+00:00</time>
      </trkpt>
      <trkpt lat="0" lon="0">
        <time>2021-02-28T09:45:38.497000+00:00</time>
      </trkpt>
      <trkpt lat="0" lon="0">
        <time>2021-02-28T09:45:38.500000+00:00</time>
      </trkpt>
      <trkpt lat="47.33484" lon="-1.45625">
        <ele>111</ele>
        <time>2021-02-28T09:45:39.462000+00:00</time>
      </trkpt>
      <trkpt lat="0" lon="0">
        <time>2021-02-28T09:45:39.476000+00:00</time>
      </trkpt>
      <trkpt lat="0" lon="0">
        <time>2021-02-28T09:45:39.484000+00:00</time>
      </trkpt>
      <trkpt lat="0" lon="0">
        <time>2021-02-28T09:45:39.488000+00:00</time>
      </trkpt>
      <trkpt lat="47.33488" lon="-1.45619">
        <ele>111</ele>
        <time>2021-02-28T09:45:40.473000+00:00</time>
      </trkpt>
      <trkpt lat="0" lon="0">
        <time>2021-02-28T09:45:40.483000+00:00</time>
      </trkpt>
      <trkpt lat="0" lon="0">
        <time>2021-02-28T09:45:40.489000+00:00</time>
      </trkpt>
      <trkpt lat="0" lon="0">
        <time>2021-02-28T09:45:40.493000+00:00</time>
      </trkpt>
      <trkpt lat="47.33493" lon="-1.45613">
        <ele>111</ele>
        <time>2021-02-28T09:45:41.474000+00:00</time>
      </trkpt>
      <trkpt lat="0" lon="0">
        <time>2021-02-28T09:45:41.487000+00:00</time>
      </trkpt>
      <trkpt lat="0" lon="0">
        <time>2021-02-28T09:45:41.493000+00:00</time>
      </trkpt>
      <trkpt lat="0" lon="0">
        <time>2021-02-28T09:45:41.496000+00:00</time>
      </trkpt>
      <trkpt lat="47.33497" lon="-1.45607">
        <ele>111</ele>
        <time>2021-02-28T09:45:42.442000+00:00</time>
      </trkpt>
      <trkpt lat="0" lon="0">
        <time>2021-02-28T09:45:42.450000+00:00</time>
      </trkpt>
      <trkpt lat="0" lon="0">
        <time>2021-02-28T09:45:42.455000+00:00</time>
      </trkpt>
      <trkpt lat="0" lon="0">
        <time>2021-02-28T09:45:42.458000+00:00</time>
      </trkpt>
      <trkpt lat="47.33501" lon="-1.45601">
        <ele>111</ele>
        <time>2021-02-28T09:45:43.480000+00:00</time>
      </trkpt>
      <trkpt lat="0" lon="0">
        <time>2021-02-28T09:45:43.488000+00:00</time>
      </trkpt>
      <trkpt lat="0" lon="0">
        <time>2021-02-28T09:45:43.494000+00:00</time>
      </trkpt>
      <trkpt lat="0" lon="0">
        <time>2021-02-28T09:45:43.497000+00:00</time>
      </trkpt>
      <trkpt lat="47.33506" lon="-1.45596">
        <ele>111</ele>
        <time>2021-02-28T09:45:44.488000+00:00</time>
      </trkpt>
      <trkpt lat="0" lon="0">
        <time>2021-02-28T09:45:44.498000+00:00</time>
      </trkpt>
      <trkpt lat="0" lon="0">
        <time>2021-02-28T09:45:44.504000+00:00</time>
      </trkpt>
      <trkpt lat="0" lon="0">
        <time>2021-02-28T09:45:44.507000+00:00</time>
      </trkpt>
      <trkpt lat="47.33511" lon="-1.4559">
        <ele>111</ele>
        <time>2021-02-28T09:45:45.470000+00:00</time>
      </trkpt>
      <trkpt lat="0" lon="0">
        <time>2021-02-28T09:45:45.477000+00:00</time>
      </trkpt>
      <trkpt lat="0" lon="0">
        <time>2021-02-28T09:45:45.482000+00:00</time>
      </trkpt>
      <trkpt lat="0" lon="0">
        <time>2021-02-28T09:45:45.485000+00:00</time>
      </trkpt>
      <trkpt lat="47.33515" lon="-1.45584">
        <ele>111</ele>
        <time>2021-02-28T09:45:46.455000+00:00</time>
      </trkpt>
      <trkpt lat="0" lon="0">
        <time>2021-02-28T09:45:46.460000+00:00</time>
      </trkpt>
      <trkpt lat="0" lon="0">
        <time>2021-02-28T09:45:46.465000+00:00</time>
      </trkpt>
      <trkpt lat="0" lon="0">
        <time>2021-02-28T09:45:46.467000+00:00</time>
      </trkpt>
      <trkpt lat="47.3352" lon="-1.45578">
        <ele>110</ele>
        <time>2021-02-28T09:45:47.452000+00:00</time>
      </trkpt>
      <trkpt lat="0" lon="0">
        <time>2021-02-28T09:45:47.456000+00:00</time>
      </trkpt>
      <trkpt lat="0" lon="0">
        <time>2021-02-28T09:45:47.461000+00:00</time>
      </trkpt>
      <trkpt lat="0" lon="0">
        <time>2021-02-28T09:45:47.464000+00:00</time>
      </trkpt>
      <trkpt lat="47.33525" lon="-1.45573">
        <ele>110</ele>
        <time>2021-02-28T09:45:48.456000+00:00</time>
      </trkpt>
      <trkpt lat="0" lon="0">
        <time>2021-02-28T09:45:48.462000+00:00</time>
      </trkpt>
      <trkpt lat="0" lon="0">
        <time>2021-02-28T09:45:48.468000+00:00</time>
      </trkpt>
      <trkpt lat="0" lon="0">
        <time>2021-02-28T09:45:48.471000+00:00</time>
      </trkpt>
      <trkpt lat="47.3353" lon="-1.45567">
        <ele>110</ele>
        <time>2021-02-28T09:45:49.428000+00:00</time>
      </trkpt>
      <trkpt lat="0" lon="0">
        <time>2021-02-28T09:45:49.434000+00:00</time>
      </trkpt>
      <trkpt lat="0" lon="0">
        <time>2021-02-28T09:45:49.440000+00:00</time>
      </trkpt>
      <trkpt lat="0" lon="0">
        <time>2021-02-28T09:45:49.443000+00:00</time>
      </trkpt>
      <trkpt lat="47.33534" lon="-1.45561">
        <ele>111</ele>
        <time>2021-02-28T09:45:50.448000+00:00</time>
      </trkpt>
      <trkpt lat="0" lon="0">
        <time>2021-02-28T09:45:50.454000+00:00</time>
      </trkpt>
      <trkpt lat="0" lon="0">
        <time>2021-02-28T09:45:50.459000+00:00</time>
      </trkpt>
      <trkpt lat="0" lon="0">
        <time>2021-02-28T09:45:50.461000+00:00</time>
      </trkpt>
      <trkpt lat="47.33539" lon="-1.45556">
        <ele>110</ele>
        <time>2021-02-28T09:45:51.452000+00:00</time>
      </trkpt>
      <trkpt lat="0" lon="0">
        <time>2021-02-28T09:45:51.461000+00:00</time>
      </trkpt>
      <trkpt lat="0" lon="0">
        <time>2021-02-28T09:45:51.466000+00:00</time>
      </trkpt>
      <trkpt lat="0" lon="0">
        <time>2021-02-28T09:45:51.468000+00:00</time>
      </trkpt>
      <trkpt lat="47.33543" lon="-1.4555">
        <ele>110</ele>
        <time>2021-02-28T09:45:52.405000+00:00</time>
      </trkpt>
      <trkpt lat="0" lon="0">
        <time>2021-02-28T09:45:52.409000+00:00</time>
      </trkpt>
      <trkpt lat="0" lon="0">
        <time>2021-02-28T09:45:52.415000+00:00</time>
      </trkpt>
      <trkpt lat="0" lon="0">
        <time>2021-02-28T09:45:52.417000+00:00</time>
      </trkpt>
      <trkpt lat="47.33547" lon="-1.45545">
        <ele>109</ele>
        <time>2021-02-28T09:45:53.484000+00:00</time>
      </trkpt>
      <trkpt lat="0" lon="0">
        <time>2021-02-28T09:45:53.495000+00:00</time>
      </trkpt>
      <trkpt lat="0" lon="0">
        <time>2021-02-28T09:45:53.502000+00:00</time>
      </trkpt>
      <trkpt lat="0" lon="0">
        <time>2021-02-28T09:45:53.506000+00:00</time>
      </trkpt>
      <trkpt lat="47.33552" lon="-1.45539">
        <ele>109</ele>
        <time>2021-02-28T09:45:54.493000+00:00</time>
      </trkpt>
      <trkpt lat="0" lon="0">
        <time>2021-02-28T09:45:54.512000+00:00</time>
      </trkpt>
      <trkpt lat="0" lon="0">
        <time>2021-02-28T09:45:54.517000+00:00</time>
      </trkpt>
      <trkpt lat="0" lon="0">
        <time>2021-02-28T09:45:54.520000+00:00</time>
      </trkpt>
      <trkpt lat="47.33556" lon="-1.45534">
        <ele>110</ele>
        <time>2021-02-28T09:45:55.392000+00:00</time>
      </trkpt>
      <trkpt lat="0" lon="0">
        <time>2021-02-28T09:45:55.400000+00:00</time>
      </trkpt>
      <trkpt lat="0" lon="0">
        <time>2021-02-28T09:45:55.404000+00:00</time>
      </trkpt>
      <trkpt lat="0" lon="0">
        <time>2021-02-28T09:45:55.407000+00:00</time>
      </trkpt>
      <trkpt lat="47.3356" lon="-1.45528">
        <ele>110</ele>
        <time>2021-02-28T09:45:56.441000+00:00</time>
      </trkpt>
      <trkpt lat="0" lon="0">
        <time>2021-02-28T09:45:56.453000+00:00</time>
      </trkpt>
      <trkpt lat="0" lon="0">
        <time>2021-02-28T09:45:56.459000+00:00</time>
      </trkpt>
      <trkpt lat="0" lon="0">
        <time>2021-02-28T09:45:56.461000+00:00</time>
      </trkpt>
      <trkpt lat="47.33564" lon="-1.45523">
        <ele>110</ele>
        <time>2021-02-28T09:45:57.412000+00:00</time>
      </trkpt>
      <trkpt lat="0" lon="0">
        <time>2021-02-28T09:45:57.419000+00:00</time>
      </trkpt>
      <trkpt lat="0" lon="0">
        <time>2021-02-28T09:45:57.424000+00:00</time>
      </trkpt>
      <trkpt lat="0" lon="0">
        <time>2021-02-28T09:45:57.426000+00:00</time>
      </trkpt>
      <trkpt lat="47.33568" lon="-1.45518">
        <ele>110</ele>
        <time>2021-02-28T09:45:58.413000+00:00</time>
      </trkpt>
      <trkpt lat="0" lon="0">
        <time>2021-02-28T09:45:58.419000+00:00</time>
      </trkpt>
      <trkpt lat="0" lon="0">
        <time>2021-02-28T09:45:58.425000+00:00</time>
      </trkpt>
      <trkpt lat="0" lon="0">
        <time>2021-02-28T09:45:58.429000+00:00</time>
      </trkpt>
      <trkpt lat="47.33572" lon="-1.45513">
        <ele>110</ele>
        <time>2021-02-28T09:45:59.424000+00:00</time>
      </trkpt>
      <trkpt lat="0" lon="0">
        <time>2021-02-28T09:45:59.436000+00:00</time>
      </trkpt>
      <trkpt lat="0" lon="0">
        <time>2021-02-28T09:45:59.440000+00:00</time>
      </trkpt>
      <trkpt lat="0" lon="0">
        <time>2021-02-28T09:45:59.442000+00:00</time>
      </trkpt>
      <trkpt lat="47.33576" lon="-1.45507">
        <ele>110</ele>
        <time>2021-02-28T09:46:00.352000+00:00</time>
      </trkpt>
      <trkpt lat="0" lon="0">
        <time>2021-02-28T09:46:00.353000+00:00</time>
      </trkpt>
      <trkpt lat="0" lon="0">
        <time>2021-02-28T09:46:00.354000+00:00</time>
      </trkpt>
      <trkpt lat="0" lon="0">
        <time>2021-02-28T09:46:00.355000+00:00</time>
      </trkpt>
      <trkpt lat="47.3358" lon="-1.45502">
        <ele>111</ele>
        <time>2021-02-28T09:46:01.387000+00:00</time>
      </trkpt>
      <trkpt lat="0" lon="0">
        <time>2021-02-28T09:46:01.400000+00:00</time>
      </trkpt>
      <trkpt lat="0" lon="0">
        <time>2021-02-28T09:46:01.404000+00:00</time>
      </trkpt>
      <trkpt lat="0" lon="0">
        <time>2021-02-28T09:46:01.406000+00:00</time>
      </trkpt>
      <trkpt lat="47.33584" lon="-1.45497">
        <ele>110</ele>
        <time>2021-02-28T09:46:02.405000+00:00</time>
      </trkpt>
      <trkpt lat="0" lon="0">
        <time>2021-02-28T09:46:02.410000+00:00</time>
      </trkpt>
      <trkpt lat="0" lon="0">
        <time>2021-02-28T09:46:02.415000+00:00</time>
      </trkpt>
      <trkpt lat="0" lon="0">
        <time>2021-02-28T09:46:02.417000+00:00</time>
      </trkpt>
      <trkpt lat="47.33588" lon="-1.45492">
        <ele>110</ele>
        <time>2021-02-28T09:46:03.450000+00:00</time>
      </trkpt>
      <trkpt lat="0" lon="0">
        <time>2021-02-28T09:46:03.462000+00:00</time>
      </trkpt>
      <trkpt lat="0" lon="0">
        <time>2021-02-28T09:46:03.469000+00:00</time>
      </trkpt>
      <trkpt lat="0" lon="0">
        <time>2021-02-28T09:46:03.472000+00:00</time>
      </trkpt>
      <trkpt lat="47.33592" lon="-1.45486">
        <ele>110</ele>
        <time>2021-02-28T09:46:04.416000+00:00</time>
      </trkpt>
      <trkpt lat="0" lon="0">
        <time>2021-02-28T09:46:04.424000+00:00</time>
      </trkpt>
      <trkpt lat="0" lon="0">
        <time>2021-02-28T09:46:04.427000+00:00</time>
      </trkpt>
      <trkpt lat="0" lon="0">
        <time>2021-02-28T09:46:04.429000+00:00</time>
      </trkpt>
      <trkpt lat="47.33597" lon="-1.45481">
        <ele>111</ele>
        <time>2021-02-28T09:46:05.436000+00:00</time>
      </trkpt>
      <trkpt lat="0" lon="0">
        <time>2021-02-28T09:46:05.445000+00:00</time>
      </trkpt>
      <trkpt lat="0" lon="0">
        <time>2021-02-28T09:46:05.449000+00:00</time>
      </trkpt>
      <trkpt lat="0" lon="0">
        <time>2021-02-28T09:46:05.451000+00:00</time>
      </trkpt>
      <trkpt lat="47.33601" lon="-1.45476">
        <ele>111</ele>
        <time>2021-02-28T09:46:06.473000+00:00</time>
      </trkpt>
      <trkpt lat="0" lon="0">
        <time>2021-02-28T09:46:06.479000+00:00</time>
      </trkpt>
      <trkpt lat="0" lon="0">
        <time>2021-02-28T09:46:06.485000+00:00</time>
      </trkpt>
      <trkpt lat="0" lon="0">
        <time>2021-02-28T09:46:06.487000+00:00</time>
      </trkpt>
      <trkpt lat="47.33605" lon="-1.4547">
        <ele>110</ele>
        <time>2021-02-28T09:46:07.448000+00:00</time>
      </trkpt>
      <trkpt lat="0" lon="0">
        <time>2021-02-28T09:46:07.453000+00:00</time>
      </trkpt>
      <trkpt lat="0" lon="0">
        <time>2021-02-28T09:46:07.460000+00:00</time>
      </trkpt>
      <trkpt lat="0" lon="0">
        <time>2021-02-28T09:46:07.463000+00:00</time>
      </trkpt>
      <trkpt lat="47.33609" lon="-1.45465">
        <ele>110</ele>
        <time>2021-02-28T09:46:08.402000+00:00</time>
      </trkpt>
      <trkpt lat="0" lon="0">
        <time>2021-02-28T09:46:08.406000+00:00</time>
      </trkpt>
      <trkpt lat="0" lon="0">
        <time>2021-02-28T09:46:08.408000+00:00</time>
      </trkpt>
      <trkpt lat="0" lon="0">
        <time>2021-02-28T09:46:08.409000+00:00</time>
      </trkpt>
      <trkpt lat="47.33613" lon="-1.4546">
        <ele>110</ele>
        <time>2021-02-28T09:46:09.397000+00:00</time>
      </trkpt>
      <trkpt lat="0" lon="0">
        <time>2021-02-28T09:46:09.419000+00:00</time>
      </trkpt>
      <trkpt lat="0" lon="0">
        <time>2021-02-28T09:46:09.423000+00:00</time>
      </trkpt>
      <trkpt lat="0" lon="0">
        <time>2021-02-28T09:46:09.425000+00:00</time>
      </trkpt>
      <trkpt lat="47.33618" lon="-1.45454">
        <ele>110</ele>
        <time>2021-02-28T09:46:10.404000+00:00</time>
      </trkpt>
      <trkpt lat="0" lon="0">
        <time>2021-02-28T09:46:10.410000+00:00</time>
      </trkpt>
      <trkpt lat="0" lon="0">
        <time>2021-02-28T09:46:10.414000+00:00</time>
      </trkpt>
      <trkpt lat="0" lon="0">
        <time>2021-02-28T09:46:10.416000+00:00</time>
      </trkpt>
      <trkpt lat="47.33622" lon="-1.45448">
        <ele>111</ele>
        <time>2021-02-28T09:46:11.431000+00:00</time>
      </trkpt>
      <trkpt lat="0" lon="0">
        <time>2021-02-28T09:46:11.437000+00:00</time>
      </trkpt>
      <trkpt lat="0" lon="0">
        <time>2021-02-28T09:46:11.443000+00:00</time>
      </trkpt>
      <trkpt lat="0" lon="0">
        <time>2021-02-28T09:46:11.445000+00:00</time>
      </trkpt>
      <trkpt lat="47.33626" lon="-1.45443">
        <ele>111</ele>
        <time>2021-02-28T09:46:12.382000+00:00</time>
      </trkpt>
      <trkpt lat="0" lon="0">
        <time>2021-02-28T09:46:12.384000+00:00</time>
      </trkpt>
      <trkpt lat="0" lon="0">
        <time>2021-02-28T09:46:12.386000+00:00</time>
      </trkpt>
      <trkpt lat="0" lon="0">
        <time>2021-02-28T09:46:12.388000+00:00</time>
      </trkpt>
      <trkpt lat="47.3363" lon="-1.45437">
        <ele>111</ele>
        <time>2021-02-28T09:46:13.412000+00:00</time>
      </trkpt>
      <trkpt lat="0" lon="0">
        <time>2021-02-28T09:46:13.420000+00:00</time>
      </trkpt>
      <trkpt lat="0" lon="0">
        <time>2021-02-28T09:46:13.424000+00:00</time>
      </trkpt>
      <trkpt lat="0" lon="0">
        <time>2021-02-28T09:46:13.426000+00:00</time>
      </trkpt>
      <trkpt lat="47.33634" lon="-1.45431">
        <ele>111</ele>
        <time>2021-02-28T09:46:14.400000+00:00</time>
      </trkpt>
      <trkpt lat="0" lon="0">
        <time>2021-02-28T09:46:14.405000+00:00</time>
      </trkpt>
      <trkpt lat="0" lon="0">
        <time>2021-02-28T09:46:14.409000+00:00</time>
      </trkpt>
      <trkpt lat="0" lon="0">
        <time>2021-02-28T09:46:14.412000+00:00</time>
      </trkpt>
      <trkpt lat="47.33639" lon="-1.45426">
        <ele>111</ele>
        <time>2021-02-28T09:46:15.414000+00:00</time>
      </trkpt>
      <trkpt lat="0" lon="0">
        <time>2021-02-28T09:46:15.420000+00:00</time>
      </trkpt>
      <trkpt lat="0" lon="0">
        <time>2021-02-28T09:46:15.425000+00:00</time>
      </trkpt>
      <trkpt lat="0" lon="0">
        <time>2021-02-28T09:46:15.427000+00:00</time>
      </trkpt>
      <trkpt lat="47.33643" lon="-1.4542">
        <ele>110</ele>
        <time>2021-02-28T09:46:16.403000+00:00</time>
      </trkpt>
      <trkpt lat="0" lon="0">
        <time>2021-02-28T09:46:16.412000+00:00</time>
      </trkpt>
      <trkpt lat="0" lon="0">
        <time>2021-02-28T09:46:16.416000+00:00</time>
      </trkpt>
      <trkpt lat="0" lon="0">
        <time>2021-02-28T09:46:16.418000+00:00</time>
      </trkpt>
      <trkpt lat="47.33647" lon="-1.45415">
        <ele>111</ele>
        <time>2021-02-28T09:46:17.403000+00:00</time>
      </trkpt>
      <trkpt lat="0" lon="0">
        <time>2021-02-28T09:46:17.414000+00:00</time>
      </trkpt>
      <trkpt lat="0" lon="0">
        <time>2021-02-28T09:46:17.423000+00:00</time>
      </trkpt>
      <trkpt lat="0" lon="0">
        <time>2021-02-28T09:46:17.425000+00:00</time>
      </trkpt>
      <trkpt lat="47.33651" lon="-1.45409">
        <ele>111</ele>
        <time>2021-02-28T09:46:18.456000+00:00</time>
      </trkpt>
      <trkpt lat="0" lon="0">
        <time>2021-02-28T09:46:18.463000+00:00</time>
      </trkpt>
      <trkpt lat="0" lon="0">
        <time>2021-02-28T09:46:18.469000+00:00</time>
      </trkpt>
      <trkpt lat="0" lon="0">
        <time>2021-02-28T09:46:18.472000+00:00</time>
      </trkpt>
      <trkpt lat="47.33655" lon="-1.45404">
        <ele>111</ele>
        <time>2021-02-28T09:46:19.405000+00:00</time>
      </trkpt>
      <trkpt lat="0" lon="0">
        <time>2021-02-28T09:46:19.411000+00:00</time>
      </trkpt>
      <trkpt lat="0" lon="0">
        <time>2021-02-28T09:46:19.415000+00:00</time>
      </trkpt>
      <trkpt lat="0" lon="0">
        <time>2021-02-28T09:46:19.417000+00:00</time>
      </trkpt>
      <trkpt lat="47.3366" lon="-1.45398">
        <ele>111</ele>
        <time>2021-02-28T09:46:20.425000+00:00</time>
      </trkpt>
      <trkpt lat="0" lon="0">
        <time>2021-02-28T09:46:20.433000+00:00</time>
      </trkpt>
      <trkpt lat="0" lon="0">
        <time>2021-02-28T09:46:20.436000+00:00</time>
      </trkpt>
      <trkpt lat="0" lon="0">
        <time>2021-02-28T09:46:20.439000+00:00</time>
      </trkpt>
      <trkpt lat="47.33664" lon="-1.45393">
        <ele>112</ele>
        <time>2021-02-28T09:46:21.429000+00:00</time>
      </trkpt>
      <trkpt lat="0" lon="0">
        <time>2021-02-28T09:46:21.436000+00:00</time>
      </trkpt>
      <trkpt lat="0" lon="0">
        <time>2021-02-28T09:46:21.441000+00:00</time>
      </trkpt>
      <trkpt lat="0" lon="0">
        <time>2021-02-28T09:46:21.444000+00:00</time>
      </trkpt>
      <trkpt lat="47.33668" lon="-1.45387">
        <ele>112</ele>
        <time>2021-02-28T09:46:22.368000+00:00</time>
      </trkpt>
      <trkpt lat="0" lon="0">
        <time>2021-02-28T09:46:22.378000+00:00</time>
      </trkpt>
      <trkpt lat="0" lon="0">
        <time>2021-02-28T09:46:22.382000+00:00</time>
      </trkpt>
      <trkpt lat="0" lon="0">
        <time>2021-02-28T09:46:22.385000+00:00</time>
      </trkpt>
      <trkpt lat="47.33672" lon="-1.45382">
        <ele>112</ele>
        <time>2021-02-28T09:46:23.395000+00:00</time>
      </trkpt>
      <trkpt lat="0" lon="0">
        <time>2021-02-28T09:46:23.400000+00:00</time>
      </trkpt>
      <trkpt lat="0" lon="0">
        <time>2021-02-28T09:46:23.404000+00:00</time>
      </trkpt>
      <trkpt lat="0" lon="0">
        <time>2021-02-28T09:46:23.406000+00:00</time>
      </trkpt>
      <trkpt lat="47.33676" lon="-1.45376">
        <ele>112</ele>
        <time>2021-02-28T09:46:24.420000+00:00</time>
      </trkpt>
      <trkpt lat="0" lon="0">
        <time>2021-02-28T09:46:24.430000+00:00</time>
      </trkpt>
      <trkpt lat="0" lon="0">
        <time>2021-02-28T09:46:24.435000+00:00</time>
      </trkpt>
      <trkpt lat="0" lon="0">
        <time>2021-02-28T09:46:24.437000+00:00</time>
      </trkpt>
      <trkpt lat="47.3368" lon="-1.4537">
        <ele>113</ele>
        <time>2021-02-28T09:46:25.384000+00:00</time>
      </trkpt>
      <trkpt lat="0" lon="0">
        <time>2021-02-28T09:46:25.385000+00:00</time>
      </trkpt>
      <trkpt lat="0" lon="0">
        <time>2021-02-28T09:46:25.387000+00:00</time>
      </trkpt>
      <trkpt lat="0" lon="0">
        <time>2021-02-28T09:46:25.388000+00:00</time>
      </trkpt>
      <trkpt lat="47.33684" lon="-1.45365">
        <ele>113</ele>
        <time>2021-02-28T09:46:26.392000+00:00</time>
      </trkpt>
      <trkpt lat="0" lon="0">
        <time>2021-02-28T09:46:26.399000+00:00</time>
      </trkpt>
      <trkpt lat="0" lon="0">
        <time>2021-02-28T09:46:26.403000+00:00</time>
      </trkpt>
      <trkpt lat="0" lon="0">
        <time>2021-02-28T09:46:26.405000+00:00</time>
      </trkpt>
      <trkpt lat="47.33688" lon="-1.45359">
        <ele>112</ele>
        <time>2021-02-28T09:46:27.422000+00:00</time>
      </trkpt>
      <trkpt lat="0" lon="0">
        <time>2021-02-28T09:46:27.432000+00:00</time>
      </trkpt>
      <trkpt lat="0" lon="0">
        <time>2021-02-28T09:46:27.436000+00:00</time>
      </trkpt>
      <trkpt lat="0" lon="0">
        <time>2021-02-28T09:46:27.439000+00:00</time>
      </trkpt>
      <trkpt lat="47.33692" lon="-1.45354">
        <ele>112</ele>
        <time>2021-02-28T09:46:28.419000+00:00</time>
      </trkpt>
      <trkpt lat="0" lon="0">
        <time>2021-02-28T09:46:28.424000+00:00</time>
      </trkpt>
      <trkpt lat="0" lon="0">
        <time>2021-02-28T09:46:28.428000+00:00</time>
      </trkpt>
      <trkpt lat="0" lon="0">
        <time>2021-02-28T09:46:28.431000+00:00</time>
      </trkpt>
      <trkpt lat="47.33696" lon="-1.45348">
        <ele>112</ele>
        <time>2021-02-28T09:46:29.398000+00:00</time>
      </trkpt>
      <trkpt lat="0" lon="0">
        <time>2021-02-28T09:46:29.406000+00:00</time>
      </trkpt>
      <trkpt lat="0" lon="0">
        <time>2021-02-28T09:46:29.409000+00:00</time>
      </trkpt>
      <trkpt lat="0" lon="0">
        <time>2021-02-28T09:46:29.411000+00:00</time>
      </trkpt>
      <trkpt lat="47.337" lon="-1.45343">
        <ele>112</ele>
        <time>2021-02-28T09:46:30.436000+00:00</time>
      </trkpt>
      <trkpt lat="0" lon="0">
        <time>2021-02-28T09:46:30.445000+00:00</time>
      </trkpt>
      <trkpt lat="0" lon="0">
        <time>2021-02-28T09:46:30.452000+00:00</time>
      </trkpt>
      <trkpt lat="0" lon="0">
        <time>2021-02-28T09:46:30.455000+00:00</time>
      </trkpt>
      <trkpt lat="47.33705" lon="-1.45337">
        <ele>112</ele>
        <time>2021-02-28T09:46:31.383000+00:00</time>
      </trkpt>
      <trkpt lat="0" lon="0">
        <time>2021-02-28T09:46:31.385000+00:00</time>
      </trkpt>
      <trkpt lat="0" lon="0">
        <time>2021-02-28T09:46:31.391000+00:00</time>
      </trkpt>
      <trkpt lat="0" lon="0">
        <time>2021-02-28T09:46:31.392000+00:00</time>
      </trkpt>
      <trkpt lat="47.33709" lon="-1.45331">
        <ele>112</ele>
        <time>2021-02-28T09:46:32.426000+00:00</time>
      </trkpt>
      <trkpt lat="0" lon="0">
        <time>2021-02-28T09:46:32.428000+00:00</time>
      </trkpt>
      <trkpt lat="0" lon="0">
        <time>2021-02-28T09:46:32.434000+00:00</time>
      </trkpt>
      <trkpt lat="0" lon="0">
        <time>2021-02-28T09:46:32.437000+00:00</time>
      </trkpt>
      <trkpt lat="47.33713" lon="-1.45325">
        <ele>112</ele>
        <time>2021-02-28T09:46:33.373000+00:00</time>
      </trkpt>
      <trkpt lat="0" lon="0">
        <time>2021-02-28T09:46:33.386000+00:00</time>
      </trkpt>
      <trkpt lat="0" lon="0">
        <time>2021-02-28T09:46:33.392000+00:00</time>
      </trkpt>
      <trkpt lat="0" lon="0">
        <time>2021-02-28T09:46:33.394000+00:00</time>
      </trkpt>
      <trkpt lat="47.33718" lon="-1.45319">
        <ele>111</ele>
        <time>2021-02-28T09:46:34.419000+00:00</time>
      </trkpt>
      <trkpt lat="0" lon="0">
        <time>2021-02-28T09:46:34.426000+00:00</time>
      </trkpt>
      <trkpt lat="0" lon="0">
        <time>2021-02-28T09:46:34.431000+00:00</time>
      </trkpt>
      <trkpt lat="0" lon="0">
        <time>2021-02-28T09:46:34.433000+00:00</time>
      </trkpt>
      <trkpt lat="47.33722" lon="-1.45313">
        <ele>112</ele>
        <time>2021-02-28T09:46:35.422000+00:00</time>
      </trkpt>
      <trkpt lat="0" lon="0">
        <time>2021-02-28T09:46:35.434000+00:00</time>
      </trkpt>
      <trkpt lat="0" lon="0">
        <time>2021-02-28T09:46:35.439000+00:00</time>
      </trkpt>
      <trkpt lat="0" lon="0">
        <time>2021-02-28T09:46:35.441000+00:00</time>
      </trkpt>
      <trkpt lat="47.33727" lon="-1.45307">
        <ele>111</ele>
        <time>2021-02-28T09:46:36.401000+00:00</time>
      </trkpt>
      <trkpt lat="0" lon="0">
        <time>2021-02-28T09:46:36.413000+00:00</time>
      </trkpt>
      <trkpt lat="0" lon="0">
        <time>2021-02-28T09:46:36.416000+00:00</time>
      </trkpt>
      <trkpt lat="0" lon="0">
        <time>2021-02-28T09:46:36.419000+00:00</time>
      </trkpt>
      <trkpt lat="47.33731" lon="-1.45301">
        <ele>111</ele>
        <time>2021-02-28T09:46:37.408000+00:00</time>
      </trkpt>
      <trkpt lat="0" lon="0">
        <time>2021-02-28T09:46:37.412000+00:00</time>
      </trkpt>
      <trkpt lat="0" lon="0">
        <time>2021-02-28T09:46:37.416000+00:00</time>
      </trkpt>
      <trkpt lat="0" lon="0">
        <time>2021-02-28T09:46:37.419000+00:00</time>
      </trkpt>
      <trkpt lat="47.33736" lon="-1.45296">
        <ele>111</ele>
        <time>2021-02-28T09:46:38.393000+00:00</time>
      </trkpt>
      <trkpt lat="0" lon="0">
        <time>2021-02-28T09:46:38.398000+00:00</time>
      </trkpt>
      <trkpt lat="0" lon="0">
        <time>2021-02-28T09:46:38.403000+00:00</time>
      </trkpt>
      <trkpt lat="0" lon="0">
        <time>2021-02-28T09:46:38.406000+00:00</time>
      </trkpt>
      <trkpt lat="47.3374" lon="-1.4529">
        <ele>111</ele>
        <time>2021-02-28T09:46:39.399000+00:00</time>
      </trkpt>
      <trkpt lat="0" lon="0">
        <time>2021-02-28T09:46:39.409000+00:00</time>
      </trkpt>
      <trkpt lat="0" lon="0">
        <time>2021-02-28T09:46:39.415000+00:00</time>
      </trkpt>
      <trkpt lat="0" lon="0">
        <time>2021-02-28T09:46:39.418000+00:00</time>
      </trkpt>
      <trkpt lat="47.33745" lon="-1.45284">
        <ele>111</ele>
        <time>2021-02-28T09:46:40.398000+00:00</time>
      </trkpt>
      <trkpt lat="0" lon="0">
        <time>2021-02-28T09:46:40.411000+00:00</time>
      </trkpt>
      <trkpt lat="0" lon="0">
        <time>2021-02-28T09:46:40.414000+00:00</time>
      </trkpt>
      <trkpt lat="0" lon="0">
        <time>2021-02-28T09:46:40.416000+00:00</time>
      </trkpt>
      <trkpt lat="47.3375" lon="-1.45279">
        <ele>111</ele>
        <time>2021-02-28T09:46:41.406000+00:00</time>
      </trkpt>
      <trkpt lat="0" lon="0">
        <time>2021-02-28T09:46:41.419000+00:00</time>
      </trkpt>
      <trkpt lat="0" lon="0">
        <time>2021-02-28T09:46:41.425000+00:00</time>
      </trkpt>
      <trkpt lat="0" lon="0">
        <time>2021-02-28T09:46:41.427000+00:00</time>
      </trkpt>
      <trkpt lat="47.33754" lon="-1.45273">
        <ele>111</ele>
        <time>2021-02-28T09:46:42.412000+00:00</time>
      </trkpt>
      <trkpt lat="0" lon="0">
        <time>2021-02-28T09:46:42.421000+00:00</time>
      </trkpt>
      <trkpt lat="0" lon="0">
        <time>2021-02-28T09:46:42.425000+00:00</time>
      </trkpt>
      <trkpt lat="0" lon="0">
        <time>2021-02-28T09:46:42.427000+00:00</time>
      </trkpt>
      <trkpt lat="47.33759" lon="-1.45268">
        <ele>110</ele>
        <time>2021-02-28T09:46:43.400000+00:00</time>
      </trkpt>
      <trkpt lat="0" lon="0">
        <time>2021-02-28T09:46:43.404000+00:00</time>
      </trkpt>
      <trkpt lat="0" lon="0">
        <time>2021-02-28T09:46:43.409000+00:00</time>
      </trkpt>
      <trkpt lat="0" lon="0">
        <time>2021-02-28T09:46:43.411000+00:00</time>
      </trkpt>
      <trkpt lat="47.33764" lon="-1.45262">
        <ele>110</ele>
        <time>2021-02-28T09:46:44.417000+00:00</time>
      </trkpt>
      <trkpt lat="0" lon="0">
        <time>2021-02-28T09:46:44.419000+00:00</time>
      </trkpt>
      <trkpt lat="0" lon="0">
        <time>2021-02-28T09:46:44.421000+00:00</time>
      </trkpt>
      <trkpt lat="0" lon="0">
        <time>2021-02-28T09:46:44.423000+00:00</time>
      </trkpt>
      <trkpt lat="47.33768" lon="-1.45257">
        <ele>110</ele>
        <time>2021-02-28T09:46:45.415000+00:00</time>
      </trkpt>
      <trkpt lat="0" lon="0">
        <time>2021-02-28T09:46:45.420000+00:00</time>
      </trkpt>
      <trkpt lat="0" lon="0">
        <time>2021-02-28T09:46:45.423000+00:00</time>
      </trkpt>
      <trkpt lat="0" lon="0">
        <time>2021-02-28T09:46:45.428000+00:00</time>
      </trkpt>
      <trkpt lat="47.33773" lon="-1.45252">
        <ele>110</ele>
        <time>2021-02-28T09:46:46.413000+00:00</time>
      </trkpt>
      <trkpt lat="0" lon="0">
        <time>2021-02-28T09:46:46.419000+00:00</time>
      </trkpt>
      <trkpt lat="0" lon="0">
        <time>2021-02-28T09:46:46.423000+00:00</time>
      </trkpt>
      <trkpt lat="0" lon="0">
        <time>2021-02-28T09:46:46.425000+00:00</time>
      </trkpt>
      <trkpt lat="47.33777" lon="-1.45247">
        <ele>110</ele>
        <time>2021-02-28T09:46:47.404000+00:00</time>
      </trkpt>
      <trkpt lat="0" lon="0">
        <time>2021-02-28T09:46:47.412000+00:00</time>
      </trkpt>
      <trkpt lat="0" lon="0">
        <time>2021-02-28T09:46:47.419000+00:00</time>
      </trkpt>
      <trkpt lat="0" lon="0">
        <time>2021-02-28T09:46:47.421000+00:00</time>
      </trkpt>
      <trkpt lat="47.33781" lon="-1.45241">
        <ele>110</ele>
        <time>2021-02-28T09:46:48.424000+00:00</time>
      </trkpt>
      <trkpt lat="0" lon="0">
        <time>2021-02-28T09:46:48.433000+00:00</time>
      </trkpt>
      <trkpt lat="0" lon="0">
        <time>2021-02-28T09:46:48.439000+00:00</time>
      </trkpt>
      <trkpt lat="0" lon="0">
        <time>2021-02-28T09:46:48.441000+00:00</time>
      </trkpt>
      <trkpt lat="47.33785" lon="-1.45236">
        <ele>110</ele>
        <time>2021-02-28T09:46:49.391000+00:00</time>
      </trkpt>
      <trkpt lat="0" lon="0">
        <time>2021-02-28T09:46:49.395000+00:00</time>
      </trkpt>
      <trkpt lat="0" lon="0">
        <time>2021-02-28T09:46:49.399000+00:00</time>
      </trkpt>
      <trkpt lat="0" lon="0">
        <time>2021-02-28T09:46:49.401000+00:00</time>
      </trkpt>
      <trkpt lat="47.33789" lon="-1.45231">
        <ele>109</ele>
        <time>2021-02-28T09:46:50.449000+00:00</time>
      </trkpt>
      <trkpt lat="0" lon="0">
        <time>2021-02-28T09:46:50.459000+00:00</time>
      </trkpt>
      <trkpt lat="0" lon="0">
        <time>2021-02-28T09:46:50.463000+00:00</time>
      </trkpt>
      <trkpt lat="0" lon="0">
        <time>2021-02-28T09:46:50.465000+00:00</time>
      </trkpt>
      <trkpt lat="47.33793" lon="-1.45226">
        <ele>109</ele>
        <time>2021-02-28T09:46:51.389000+00:00</time>
      </trkpt>
      <trkpt lat="0" lon="0">
        <time>2021-02-28T09:46:51.397000+00:00</time>
      </trkpt>
      <trkpt lat="0" lon="0">
        <time>2021-02-28T09:46:51.402000+00:00</time>
      </trkpt>
      <trkpt lat="0" lon="0">
        <time>2021-02-28T09:46:51.404000+00:00</time>
      </trkpt>
      <trkpt lat="47.33797" lon="-1.45221">
        <ele>109</ele>
        <time>2021-02-28T09:46:52.404000+00:00</time>
      </trkpt>
      <trkpt lat="0" lon="0">
        <time>2021-02-28T09:46:52.413000+00:00</time>
      </trkpt>
      <trkpt lat="0" lon="0">
        <time>2021-02-28T09:46:52.420000+00:00</time>
      </trkpt>
      <trkpt lat="0" lon="0">
        <time>2021-02-28T09:46:52.426000+00:00</time>
      </trkpt>
      <trkpt lat="47.33801" lon="-1.45216">
        <ele>109</ele>
        <time>2021-02-28T09:46:53.408000+00:00</time>
      </trkpt>
      <trkpt lat="0" lon="0">
        <time>2021-02-28T09:46:53.412000+00:00</time>
      </trkpt>
      <trkpt lat="0" lon="0">
        <time>2021-02-28T09:46:53.417000+00:00</time>
      </trkpt>
      <trkpt lat="0" lon="0">
        <time>2021-02-28T09:46:53.419000+00:00</time>
      </trkpt>
      <trkpt lat="47.33804" lon="-1.45211">
        <ele>109</ele>
        <time>2021-02-28T09:46:54.378000+00:00</time>
      </trkpt>
      <trkpt lat="0" lon="0">
        <time>2021-02-28T09:46:54.390000+00:00</time>
      </trkpt>
      <trkpt lat="0" lon="0">
        <time>2021-02-28T09:46:54.396000+00:00</time>
      </trkpt>
      <trkpt lat="0" lon="0">
        <time>2021-02-28T09:46:54.399000+00:00</time>
      </trkpt>
      <trkpt lat="47.33808" lon="-1.45206">
        <ele>109</ele>
        <time>2021-02-28T09:46:55.422000+00:00</time>
      </trkpt>
      <trkpt lat="0" lon="0">
        <time>2021-02-28T09:46:55.433000+00:00</time>
      </trkpt>
      <trkpt lat="0" lon="0">
        <time>2021-02-28T09:46:55.444000+00:00</time>
      </trkpt>
      <trkpt lat="0" lon="0">
        <time>2021-02-28T09:46:55.446000+00:00</time>
      </trkpt>
      <trkpt lat="47.33812" lon="-1.452">
        <ele>109</ele>
        <time>2021-02-28T09:46:56.436000+00:00</time>
      </trkpt>
      <trkpt lat="0" lon="0">
        <time>2021-02-28T09:46:56.443000+00:00</time>
      </trkpt>
      <trkpt lat="0" lon="0">
        <time>2021-02-28T09:46:56.448000+00:00</time>
      </trkpt>
      <trkpt lat="0" lon="0">
        <time>2021-02-28T09:46:56.450000+00:00</time>
      </trkpt>
      <trkpt lat="47.33815" lon="-1.45195">
        <ele>108</ele>
        <time>2021-02-28T09:46:57.443000+00:00</time>
      </trkpt>
      <trkpt lat="0" lon="0">
        <time>2021-02-28T09:46:57.449000+00:00</time>
      </trkpt>
      <trkpt lat="0" lon="0">
        <time>2021-02-28T09:46:57.454000+00:00</time>
      </trkpt>
      <trkpt lat="0" lon="0">
        <time>2021-02-28T09:46:57.456000+00:00</time>
      </trkpt>
      <trkpt lat="47.33818" lon="-1.45189">
        <ele>107</ele>
        <time>2021-02-28T09:46:58.421000+00:00</time>
      </trkpt>
      <trkpt lat="0" lon="0">
        <time>2021-02-28T09:46:58.429000+00:00</time>
      </trkpt>
      <trkpt lat="0" lon="0">
        <time>2021-02-28T09:46:58.433000+00:00</time>
      </trkpt>
      <trkpt lat="0" lon="0">
        <time>2021-02-28T09:46:58.436000+00:00</time>
      </trkpt>
      <trkpt lat="47.3382" lon="-1.45184">
        <ele>107</ele>
        <time>2021-02-28T09:46:59.428000+00:00</time>
      </trkpt>
      <trkpt lat="0" lon="0">
        <time>2021-02-28T09:46:59.435000+00:00</time>
      </trkpt>
      <trkpt lat="0" lon="0">
        <time>2021-02-28T09:46:59.439000+00:00</time>
      </trkpt>
      <trkpt lat="0" lon="0">
        <time>2021-02-28T09:46:59.441000+00:00</time>
      </trkpt>
      <trkpt lat="47.33822" lon="-1.4518">
        <ele>107</ele>
        <time>2021-02-28T09:47:00.384000+00:00</time>
      </trkpt>
      <trkpt lat="0" lon="0">
        <time>2021-02-28T09:47:00.397000+00:00</time>
      </trkpt>
      <trkpt lat="0" lon="0">
        <time>2021-02-28T09:47:00.401000+00:00</time>
      </trkpt>
      <trkpt lat="0" lon="0">
        <time>2021-02-28T09:47:00.403000+00:00</time>
      </trkpt>
      <trkpt lat="47.33824" lon="-1.45175">
        <ele>106</ele>
        <time>2021-02-28T09:47:01.402000+00:00</time>
      </trkpt>
      <trkpt lat="0" lon="0">
        <time>2021-02-28T09:47:01.403000+00:00</time>
      </trkpt>
      <trkpt lat="0" lon="0">
        <time>2021-02-28T09:47:01.405000+00:00</time>
      </trkpt>
      <trkpt lat="47.33826" lon="-1.45171">
        <ele>106</ele>
        <time>2021-02-28T09:47:02.419000+00:00</time>
      </trkpt>
      <trkpt lat="0" lon="0">
        <time>2021-02-28T09:47:02.433000+00:00</time>
      </trkpt>
      <trkpt lat="0" lon="0">
        <time>2021-02-28T09:47:02.438000+00:00</time>
      </trkpt>
      <trkpt lat="0" lon="0">
        <time>2021-02-28T09:47:02.440000+00:00</time>
      </trkpt>
      <trkpt lat="47.33828" lon="-1.45167">
        <ele>106</ele>
        <time>2021-02-28T09:47:03.419000+00:00</time>
      </trkpt>
      <trkpt lat="0" lon="0">
        <time>2021-02-28T09:47:03.424000+00:00</time>
      </trkpt>
      <trkpt lat="0" lon="0">
        <time>2021-02-28T09:47:03.429000+00:00</time>
      </trkpt>
      <trkpt lat="0" lon="0">
        <time>2021-02-28T09:47:03.431000+00:00</time>
      </trkpt>
      <trkpt lat="47.33831" lon="-1.45164">
        <ele>106</ele>
        <time>2021-02-28T09:47:04.395000+00:00</time>
      </trkpt>
      <trkpt lat="0" lon="0">
        <time>2021-02-28T09:47:04.398000+00:00</time>
      </trkpt>
      <trkpt lat="0" lon="0">
        <time>2021-02-28T09:47:04.401000+00:00</time>
      </trkpt>
      <trkpt lat="0" lon="0">
        <time>2021-02-28T09:47:04.403000+00:00</time>
      </trkpt>
      <trkpt lat="47.33833" lon="-1.4516">
        <ele>106</ele>
        <time>2021-02-28T09:47:05.436000+00:00</time>
      </trkpt>
      <trkpt lat="0" lon="0">
        <time>2021-02-28T09:47:05.445000+00:00</time>
      </trkpt>
      <trkpt lat="0" lon="0">
        <time>2021-02-28T09:47:05.449000+00:00</time>
      </trkpt>
      <trkpt lat="0" lon="0">
        <time>2021-02-28T09:47:05.451000+00:00</time>
      </trkpt>
      <trkpt lat="47.33835" lon="-1.45157">
        <ele>106</ele>
        <time>2021-02-28T09:47:06.398000+00:00</time>
      </trkpt>
      <trkpt lat="0" lon="0">
        <time>2021-02-28T09:47:06.405000+00:00</time>
      </trkpt>
      <trkpt lat="0" lon="0">
        <time>2021-02-28T09:47:06.410000+00:00</time>
      </trkpt>
      <trkpt lat="0" lon="0">
        <time>2021-02-28T09:47:06.413000+00:00</time>
      </trkpt>
      <trkpt lat="47.33837" lon="-1.45154">
        <ele>106</ele>
        <time>2021-02-28T09:47:07.416000+00:00</time>
      </trkpt>
      <trkpt lat="0" lon="0">
        <time>2021-02-28T09:47:07.421000+00:00</time>
      </trkpt>
      <trkpt lat="0" lon="0">
        <time>2021-02-28T09:47:07.426000+00:00</time>
      </trkpt>
      <trkpt lat="0" lon="0">
        <time>2021-02-28T09:47:07.430000+00:00</time>
      </trkpt>
      <trkpt lat="47.33839" lon="-1.45151">
        <ele>106</ele>
        <time>2021-02-28T09:47:08.384000+00:00</time>
      </trkpt>
      <trkpt lat="0" lon="0">
        <time>2021-02-28T09:47:08.398000+00:00</time>
      </trkpt>
      <trkpt lat="0" lon="0">
        <time>2021-02-28T09:47:08.402000+00:00</time>
      </trkpt>
      <trkpt lat="0" lon="0">
        <time>2021-02-28T09:47:08.404000+00:00</time>
      </trkpt>
      <trkpt lat="47.33841" lon="-1.45148">
        <ele>106</ele>
        <time>2021-02-28T09:47:09.370000+00:00</time>
      </trkpt>
      <trkpt lat="0" lon="0">
        <time>2021-02-28T09:47:09.377000+00:00</time>
      </trkpt>
      <trkpt lat="0" lon="0">
        <time>2021-02-28T09:47:09.381000+00:00</time>
      </trkpt>
      <trkpt lat="0" lon="0">
        <time>2021-02-28T09:47:09.382000+00:00</time>
      </trkpt>
      <trkpt lat="47.33843" lon="-1.45145">
        <ele>106</ele>
        <time>2021-02-28T09:47:10.421000+00:00</time>
      </trkpt>
      <trkpt lat="0" lon="0">
        <time>2021-02-28T09:47:10.426000+00:00</time>
      </trkpt>
      <trkpt lat="0" lon="0">
        <time>2021-02-28T09:47:10.429000+00:00</time>
      </trkpt>
      <trkpt lat="0" lon="0">
        <time>2021-02-28T09:47:10.431000+00:00</time>
      </trkpt>
      <trkpt lat="47.33846" lon="-1.45143">
        <ele>107</ele>
        <time>2021-02-28T09:47:11.414000+00:00</time>
      </trkpt>
      <trkpt lat="0" lon="0">
        <time>2021-02-28T09:47:11.425000+00:00</time>
      </trkpt>
      <trkpt lat="0" lon="0">
        <time>2021-02-28T09:47:11.429000+00:00</time>
      </trkpt>
      <trkpt lat="0" lon="0">
        <time>2021-02-28T09:47:11.432000+00:00</time>
      </trkpt>
      <trkpt lat="47.33848" lon="-1.4514">
        <ele>107</ele>
        <time>2021-02-28T09:47:12.426000+00:00</time>
      </trkpt>
      <trkpt lat="0" lon="0">
        <time>2021-02-28T09:47:12.432000+00:00</time>
      </trkpt>
      <trkpt lat="0" lon="0">
        <time>2021-02-28T09:47:12.437000+00:00</time>
      </trkpt>
      <trkpt lat="0" lon="0">
        <time>2021-02-28T09:47:12.439000+00:00</time>
      </trkpt>
      <trkpt lat="47.33851" lon="-1.45136">
        <ele>107</ele>
        <time>2021-02-28T09:47:13.418000+00:00</time>
      </trkpt>
      <trkpt lat="0" lon="0">
        <time>2021-02-28T09:47:13.425000+00:00</time>
      </trkpt>
      <trkpt lat="0" lon="0">
        <time>2021-02-28T09:47:13.429000+00:00</time>
      </trkpt>
      <trkpt lat="0" lon="0">
        <time>2021-02-28T09:47:13.431000+00:00</time>
      </trkpt>
      <trkpt lat="47.33854" lon="-1.45133">
        <ele>107</ele>
        <time>2021-02-28T09:47:14.428000+00:00</time>
      </trkpt>
      <trkpt lat="0" lon="0">
        <time>2021-02-28T09:47:14.434000+00:00</time>
      </trkpt>
      <trkpt lat="0" lon="0">
        <time>2021-02-28T09:47:14.441000+00:00</time>
      </trkpt>
      <trkpt lat="0" lon="0">
        <time>2021-02-28T09:47:14.444000+00:00</time>
      </trkpt>
      <trkpt lat="47.33857" lon="-1.45129">
        <ele>107</ele>
        <time>2021-02-28T09:47:15.446000+00:00</time>
      </trkpt>
      <trkpt lat="0" lon="0">
        <time>2021-02-28T09:47:15.452000+00:00</time>
      </trkpt>
      <trkpt lat="0" lon="0">
        <time>2021-02-28T09:47:15.456000+00:00</time>
      </trkpt>
      <trkpt lat="0" lon="0">
        <time>2021-02-28T09:47:15.459000+00:00</time>
      </trkpt>
      <trkpt lat="47.3386" lon="-1.45125">
        <ele>106</ele>
        <time>2021-02-28T09:47:16.415000+00:00</time>
      </trkpt>
      <trkpt lat="0" lon="0">
        <time>2021-02-28T09:47:16.417000+00:00</time>
      </trkpt>
      <trkpt lat="0" lon="0">
        <time>2021-02-28T09:47:16.421000+00:00</time>
      </trkpt>
      <trkpt lat="0" lon="0">
        <time>2021-02-28T09:47:16.425000+00:00</time>
      </trkpt>
      <trkpt lat="47.33864" lon="-1.45121">
        <ele>106</ele>
        <time>2021-02-28T09:47:17.415000+00:00</time>
      </trkpt>
      <trkpt lat="0" lon="0">
        <time>2021-02-28T09:47:17.420000+00:00</time>
      </trkpt>
      <trkpt lat="0" lon="0">
        <time>2021-02-28T09:47:17.424000+00:00</time>
      </trkpt>
      <trkpt lat="0" lon="0">
        <time>2021-02-28T09:47:17.426000+00:00</time>
      </trkpt>
      <trkpt lat="47.33868" lon="-1.45117">
        <ele>106</ele>
        <time>2021-02-28T09:47:18.433000+00:00</time>
      </trkpt>
      <trkpt lat="0" lon="0">
        <time>2021-02-28T09:47:18.439000+00:00</time>
      </trkpt>
      <trkpt lat="0" lon="0">
        <time>2021-02-28T09:47:18.444000+00:00</time>
      </trkpt>
      <trkpt lat="0" lon="0">
        <time>2021-02-28T09:47:18.447000+00:00</time>
      </trkpt>
      <trkpt lat="47.33873" lon="-1.45111">
        <ele>106</ele>
        <time>2021-02-28T09:47:19.428000+00:00</time>
      </trkpt>
      <trkpt lat="0" lon="0">
        <time>2021-02-28T09:47:19.432000+00:00</time>
      </trkpt>
      <trkpt lat="0" lon="0">
        <time>2021-02-28T09:47:19.436000+00:00</time>
      </trkpt>
      <trkpt lat="0" lon="0">
        <time>2021-02-28T09:47:19.438000+00:00</time>
      </trkpt>
      <trkpt lat="47.33877" lon="-1.45106">
        <ele>106</ele>
        <time>2021-02-28T09:47:20.410000+00:00</time>
      </trkpt>
      <trkpt lat="0" lon="0">
        <time>2021-02-28T09:47:20.419000+00:00</time>
      </trkpt>
      <trkpt lat="0" lon="0">
        <time>2021-02-28T09:47:20.424000+00:00</time>
      </trkpt>
      <trkpt lat="0" lon="0">
        <time>2021-02-28T09:47:20.427000+00:00</time>
      </trkpt>
      <trkpt lat="47.33881" lon="-1.451">
        <ele>107</ele>
        <time>2021-02-28T09:47:21.426000+00:00</time>
      </trkpt>
      <trkpt lat="0" lon="0">
        <time>2021-02-28T09:47:21.433000+00:00</time>
      </trkpt>
      <trkpt lat="0" lon="0">
        <time>2021-02-28T09:47:21.437000+00:00</time>
      </trkpt>
      <trkpt lat="0" lon="0">
        <time>2021-02-28T09:47:21.440000+00:00</time>
      </trkpt>
      <trkpt lat="47.33886" lon="-1.45094">
        <ele>106</ele>
        <time>2021-02-28T09:47:22.449000+00:00</time>
      </trkpt>
      <trkpt lat="0" lon="0">
        <time>2021-02-28T09:47:22.460000+00:00</time>
      </trkpt>
      <trkpt lat="0" lon="0">
        <time>2021-02-28T09:47:22.464000+00:00</time>
      </trkpt>
      <trkpt lat="0" lon="0">
        <time>2021-02-28T09:47:22.465000+00:00</time>
      </trkpt>
      <trkpt lat="47.3389" lon="-1.45088">
        <ele>106</ele>
        <time>2021-02-28T09:47:23.440000+00:00</time>
      </trkpt>
      <trkpt lat="0" lon="0">
        <time>2021-02-28T09:47:23.442000+00:00</time>
      </trkpt>
      <trkpt lat="0" lon="0">
        <time>2021-02-28T09:47:23.444000+00:00</time>
      </trkpt>
      <trkpt lat="0" lon="0">
        <time>2021-02-28T09:47:23.445000+00:00</time>
      </trkpt>
      <trkpt lat="47.33895" lon="-1.45081">
        <ele>107</ele>
        <time>2021-02-28T09:47:24.419000+00:00</time>
      </trkpt>
      <trkpt lat="0" lon="0">
        <time>2021-02-28T09:47:24.426000+00:00</time>
      </trkpt>
      <trkpt lat="0" lon="0">
        <time>2021-02-28T09:47:24.430000+00:00</time>
      </trkpt>
      <trkpt lat="0" lon="0">
        <time>2021-02-28T09:47:24.433000+00:00</time>
      </trkpt>
      <trkpt lat="47.339" lon="-1.45075">
        <ele>106</ele>
        <time>2021-02-28T09:47:25.428000+00:00</time>
      </trkpt>
      <trkpt lat="0" lon="0">
        <time>2021-02-28T09:47:25.437000+00:00</time>
      </trkpt>
      <trkpt lat="0" lon="0">
        <time>2021-02-28T09:47:25.439000+00:00</time>
      </trkpt>
      <trkpt lat="0" lon="0">
        <time>2021-02-28T09:47:25.440000+00:00</time>
      </trkpt>
      <trkpt lat="47.33905" lon="-1.45068">
        <ele>107</ele>
        <time>2021-02-28T09:47:26.392000+00:00</time>
      </trkpt>
      <trkpt lat="0" lon="0">
        <time>2021-02-28T09:47:26.399000+00:00</time>
      </trkpt>
      <trkpt lat="0" lon="0">
        <time>2021-02-28T09:47:26.404000+00:00</time>
      </trkpt>
      <trkpt lat="0" lon="0">
        <time>2021-02-28T09:47:26.407000+00:00</time>
      </trkpt>
      <trkpt lat="47.3391" lon="-1.45061">
        <ele>107</ele>
        <time>2021-02-28T09:47:27.426000+00:00</time>
      </trkpt>
      <trkpt lat="0" lon="0">
        <time>2021-02-28T09:47:27.437000+00:00</time>
      </trkpt>
      <trkpt lat="0" lon="0">
        <time>2021-02-28T09:47:27.442000+00:00</time>
      </trkpt>
      <trkpt lat="0" lon="0">
        <time>2021-02-28T09:47:27.444000+00:00</time>
      </trkpt>
      <trkpt lat="47.33915" lon="-1.45055">
        <ele>107</ele>
        <time>2021-02-28T09:47:28.435000+00:00</time>
      </trkpt>
      <trkpt lat="0" lon="0">
        <time>2021-02-28T09:47:28.441000+00:00</time>
      </trkpt>
      <trkpt lat="0" lon="0">
        <time>2021-02-28T09:47:28.444000+00:00</time>
      </trkpt>
      <trkpt lat="0" lon="0">
        <time>2021-02-28T09:47:28.447000+00:00</time>
      </trkpt>
      <trkpt lat="47.3392" lon="-1.45048">
        <ele>108</ele>
        <time>2021-02-28T09:47:29.429000+00:00</time>
      </trkpt>
      <trkpt lat="0" lon="0">
        <time>2021-02-28T09:47:29.436000+00:00</time>
      </trkpt>
      <trkpt lat="0" lon="0">
        <time>2021-02-28T09:47:29.438000+00:00</time>
      </trkpt>
      <trkpt lat="0" lon="0">
        <time>2021-02-28T09:47:29.439000+00:00</time>
      </trkpt>
      <trkpt lat="47.33925" lon="-1.45041">
        <ele>108</ele>
        <time>2021-02-28T09:47:30.415000+00:00</time>
      </trkpt>
      <trkpt lat="0" lon="0">
        <time>2021-02-28T09:47:30.423000+00:00</time>
      </trkpt>
      <trkpt lat="0" lon="0">
        <time>2021-02-28T09:47:30.429000+00:00</time>
      </trkpt>
      <trkpt lat="0" lon="0">
        <time>2021-02-28T09:47:30.433000+00:00</time>
      </trkpt>
      <trkpt lat="47.3393" lon="-1.45035">
        <ele>108</ele>
        <time>2021-02-28T09:47:31.419000+00:00</time>
      </trkpt>
      <trkpt lat="0" lon="0">
        <time>2021-02-28T09:47:31.423000+00:00</time>
      </trkpt>
      <trkpt lat="0" lon="0">
        <time>2021-02-28T09:47:31.434000+00:00</time>
      </trkpt>
      <trkpt lat="0" lon="0">
        <time>2021-02-28T09:47:31.436000+00:00</time>
      </trkpt>
      <trkpt lat="47.33935" lon="-1.45028">
        <ele>108</ele>
        <time>2021-02-28T09:47:32.389000+00:00</time>
      </trkpt>
      <trkpt lat="0" lon="0">
        <time>2021-02-28T09:47:32.395000+00:00</time>
      </trkpt>
      <trkpt lat="0" lon="0">
        <time>2021-02-28T09:47:32.400000+00:00</time>
      </trkpt>
      <trkpt lat="0" lon="0">
        <time>2021-02-28T09:47:32.402000+00:00</time>
      </trkpt>
      <trkpt lat="47.3394" lon="-1.45021">
        <ele>108</ele>
        <time>2021-02-28T09:47:33.446000+00:00</time>
      </trkpt>
      <trkpt lat="0" lon="0">
        <time>2021-02-28T09:47:33.452000+00:00</time>
      </trkpt>
      <trkpt lat="0" lon="0">
        <time>2021-02-28T09:47:33.455000+00:00</time>
      </trkpt>
      <trkpt lat="0" lon="0">
        <time>2021-02-28T09:47:33.457000+00:00</time>
      </trkpt>
      <trkpt lat="47.33945" lon="-1.45015">
        <ele>108</ele>
        <time>2021-02-28T09:47:34.434000+00:00</time>
      </trkpt>
      <trkpt lat="0" lon="0">
        <time>2021-02-28T09:47:34.448000+00:00</time>
      </trkpt>
      <trkpt lat="0" lon="0">
        <time>2021-02-28T09:47:34.453000+00:00</time>
      </trkpt>
      <trkpt lat="0" lon="0">
        <time>2021-02-28T09:47:34.455000+00:00</time>
      </trkpt>
      <trkpt lat="47.3395" lon="-1.45008">
        <ele>108</ele>
        <time>2021-02-28T09:47:35.442000+00:00</time>
      </trkpt>
      <trkpt lat="0" lon="0">
        <time>2021-02-28T09:47:35.452000+00:00</time>
      </trkpt>
      <trkpt lat="0" lon="0">
        <time>2021-02-28T09:47:35.456000+00:00</time>
      </trkpt>
      <trkpt lat="0" lon="0">
        <time>2021-02-28T09:47:35.459000+00:00</time>
      </trkpt>
      <trkpt lat="47.33955" lon="-1.45002">
        <ele>108</ele>
        <time>2021-02-28T09:47:36.409000+00:00</time>
      </trkpt>
      <trkpt lat="0" lon="0">
        <time>2021-02-28T09:47:36.416000+00:00</time>
      </trkpt>
      <trkpt lat="0" lon="0">
        <time>2021-02-28T09:47:36.420000+00:00</time>
      </trkpt>
      <trkpt lat="0" lon="0">
        <time>2021-02-28T09:47:36.422000+00:00</time>
      </trkpt>
      <trkpt lat="47.3396" lon="-1.44996">
        <ele>108</ele>
        <time>2021-02-28T09:47:37.409000+00:00</time>
      </trkpt>
      <trkpt lat="0" lon="0">
        <time>2021-02-28T09:47:37.413000+00:00</time>
      </trkpt>
      <trkpt lat="0" lon="0">
        <time>2021-02-28T09:47:37.416000+00:00</time>
      </trkpt>
      <trkpt lat="0" lon="0">
        <time>2021-02-28T09:47:37.417000+00:00</time>
      </trkpt>
      <trkpt lat="47.33964" lon="-1.44989">
        <ele>108</ele>
        <time>2021-02-28T09:47:38.398000+00:00</time>
      </trkpt>
      <trkpt lat="0" lon="0">
        <time>2021-02-28T09:47:38.401000+00:00</time>
      </trkpt>
      <trkpt lat="0" lon="0">
        <time>2021-02-28T09:47:38.404000+00:00</time>
      </trkpt>
      <trkpt lat="0" lon="0">
        <time>2021-02-28T09:47:38.405000+00:00</time>
      </trkpt>
      <trkpt lat="47.33969" lon="-1.44983">
        <ele>108</ele>
        <time>2021-02-28T09:47:39.421000+00:00</time>
      </trkpt>
      <trkpt lat="0" lon="0">
        <time>2021-02-28T09:47:39.431000+00:00</time>
      </trkpt>
      <trkpt lat="0" lon="0">
        <time>2021-02-28T09:47:39.436000+00:00</time>
      </trkpt>
      <trkpt lat="0" lon="0">
        <time>2021-02-28T09:47:39.439000+00:00</time>
      </trkpt>
      <trkpt lat="47.33973" lon="-1.44977">
        <ele>108</ele>
        <time>2021-02-28T09:47:40.361000+00:00</time>
      </trkpt>
      <trkpt lat="0" lon="0">
        <time>2021-02-28T09:47:40.362000+00:00</time>
      </trkpt>
      <trkpt lat="0" lon="0">
        <time>2021-02-28T09:47:40.363000+00:00</time>
      </trkpt>
      <trkpt lat="47.33978" lon="-1.4497">
        <ele>108</ele>
        <time>2021-02-28T09:47:41.431000+00:00</time>
      </trkpt>
      <trkpt lat="0" lon="0">
        <time>2021-02-28T09:47:41.435000+00:00</time>
      </trkpt>
      <trkpt lat="0" lon="0">
        <time>2021-02-28T09:47:41.437000+00:00</time>
      </trkpt>
      <trkpt lat="0" lon="0">
        <time>2021-02-28T09:47:41.438000+00:00</time>
      </trkpt>
      <trkpt lat="47.33982" lon="-1.44964">
        <ele>107</ele>
        <time>2021-02-28T09:47:42.424000+00:00</time>
      </trkpt>
      <trkpt lat="0" lon="0">
        <time>2021-02-28T09:47:42.433000+00:00</time>
      </trkpt>
      <trkpt lat="0" lon="0">
        <time>2021-02-28T09:47:42.438000+00:00</time>
      </trkpt>
      <trkpt lat="0" lon="0">
        <time>2021-02-28T09:47:42.440000+00:00</time>
      </trkpt>
      <trkpt lat="47.33987" lon="-1.44958">
        <ele>107</ele>
        <time>2021-02-28T09:47:43.431000+00:00</time>
      </trkpt>
      <trkpt lat="0" lon="0">
        <time>2021-02-28T09:47:43.446000+00:00</time>
      </trkpt>
      <trkpt lat="0" lon="0">
        <time>2021-02-28T09:47:43.451000+00:00</time>
      </trkpt>
      <trkpt lat="0" lon="0">
        <time>2021-02-28T09:47:43.454000+00:00</time>
      </trkpt>
      <trkpt lat="47.33991" lon="-1.44952">
        <ele>107</ele>
        <time>2021-02-28T09:47:44.416000+00:00</time>
      </trkpt>
      <trkpt lat="0" lon="0">
        <time>2021-02-28T09:47:44.425000+00:00</time>
      </trkpt>
      <trkpt lat="0" lon="0">
        <time>2021-02-28T09:47:44.429000+00:00</time>
      </trkpt>
      <trkpt lat="0" lon="0">
        <time>2021-02-28T09:47:44.431000+00:00</time>
      </trkpt>
      <trkpt lat="47.33995" lon="-1.44946">
        <ele>106</ele>
        <time>2021-02-28T09:47:45.410000+00:00</time>
      </trkpt>
      <trkpt lat="0" lon="0">
        <time>2021-02-28T09:47:45.416000+00:00</time>
      </trkpt>
      <trkpt lat="0" lon="0">
        <time>2021-02-28T09:47:45.422000+00:00</time>
      </trkpt>
      <trkpt lat="0" lon="0">
        <time>2021-02-28T09:47:45.423000+00:00</time>
      </trkpt>
      <trkpt lat="47.34" lon="-1.44939">
        <ele>106</ele>
        <time>2021-02-28T09:47:46.435000+00:00</time>
      </trkpt>
      <trkpt lat="0" lon="0">
        <time>2021-02-28T09:47:46.437000+00:00</time>
      </trkpt>
      <trkpt lat="0" lon="0">
        <time>2021-02-28T09:47:46.441000+00:00</time>
      </trkpt>
      <trkpt lat="0" lon="0">
        <time>2021-02-28T09:47:46.442000+00:00</time>
      </trkpt>
      <trkpt lat="47.34004" lon="-1.44933">
        <ele>107</ele>
        <time>2021-02-28T09:47:47.403000+00:00</time>
      </trkpt>
      <trkpt lat="0" lon="0">
        <time>2021-02-28T09:47:47.424000+00:00</time>
      </trkpt>
      <trkpt lat="0" lon="0">
        <time>2021-02-28T09:47:47.428000+00:00</time>
      </trkpt>
      <trkpt lat="0" lon="0">
        <time>2021-02-28T09:47:47.429000+00:00</time>
      </trkpt>
      <trkpt lat="47.34009" lon="-1.44926">
        <ele>106</ele>
        <time>2021-02-28T09:47:48.410000+00:00</time>
      </trkpt>
      <trkpt lat="0" lon="0">
        <time>2021-02-28T09:47:48.418000+00:00</time>
      </trkpt>
      <trkpt lat="0" lon="0">
        <time>2021-02-28T09:47:48.420000+00:00</time>
      </trkpt>
      <trkpt lat="0" lon="0">
        <time>2021-02-28T09:47:48.421000+00:00</time>
      </trkpt>
      <trkpt lat="47.34013" lon="-1.4492">
        <ele>106</ele>
        <time>2021-02-28T09:47:49.416000+00:00</time>
      </trkpt>
      <trkpt lat="0" lon="0">
        <time>2021-02-28T09:47:49.421000+00:00</time>
      </trkpt>
      <trkpt lat="0" lon="0">
        <time>2021-02-28T09:47:49.431000+00:00</time>
      </trkpt>
      <trkpt lat="0" lon="0">
        <time>2021-02-28T09:47:49.433000+00:00</time>
      </trkpt>
      <trkpt lat="47.34017" lon="-1.44914">
        <ele>107</ele>
        <time>2021-02-28T09:47:50.416000+00:00</time>
      </trkpt>
      <trkpt lat="0" lon="0">
        <time>2021-02-28T09:47:50.422000+00:00</time>
      </trkpt>
      <trkpt lat="0" lon="0">
        <time>2021-02-28T09:47:50.424000+00:00</time>
      </trkpt>
      <trkpt lat="0" lon="0">
        <time>2021-02-28T09:47:50.425000+00:00</time>
      </trkpt>
      <trkpt lat="47.34022" lon="-1.44907">
        <ele>107</ele>
        <time>2021-02-28T09:47:51.444000+00:00</time>
      </trkpt>
      <trkpt lat="0" lon="0">
        <time>2021-02-28T09:47:51.453000+00:00</time>
      </trkpt>
      <trkpt lat="0" lon="0">
        <time>2021-02-28T09:47:51.458000+00:00</time>
      </trkpt>
      <trkpt lat="0" lon="0">
        <time>2021-02-28T09:47:51.459000+00:00</time>
      </trkpt>
      <trkpt lat="47.34026" lon="-1.44902">
        <ele>107</ele>
        <time>2021-02-28T09:47:52.432000+00:00</time>
      </trkpt>
      <trkpt lat="0" lon="0">
        <time>2021-02-28T09:47:52.435000+00:00</time>
      </trkpt>
      <trkpt lat="0" lon="0">
        <time>2021-02-28T09:47:52.438000+00:00</time>
      </trkpt>
      <trkpt lat="0" lon="0">
        <time>2021-02-28T09:47:52.440000+00:00</time>
      </trkpt>
      <trkpt lat="47.3403" lon="-1.44896">
        <ele>107</ele>
        <time>2021-02-28T09:47:53.446000+00:00</time>
      </trkpt>
      <trkpt lat="0" lon="0">
        <time>2021-02-28T09:47:53.449000+00:00</time>
      </trkpt>
      <trkpt lat="0" lon="0">
        <time>2021-02-28T09:47:53.453000+00:00</time>
      </trkpt>
      <trkpt lat="0" lon="0">
        <time>2021-02-28T09:47:53.455000+00:00</time>
      </trkpt>
      <trkpt lat="47.34034" lon="-1.4489">
        <ele>107</ele>
        <time>2021-02-28T09:47:54.409000+00:00</time>
      </trkpt>
      <trkpt lat="0" lon="0">
        <time>2021-02-28T09:47:54.420000+00:00</time>
      </trkpt>
      <trkpt lat="0" lon="0">
        <time>2021-02-28T09:47:54.428000+00:00</time>
      </trkpt>
      <trkpt lat="0" lon="0">
        <time>2021-02-28T09:47:54.430000+00:00</time>
      </trkpt>
      <trkpt lat="47.34039" lon="-1.44884">
        <ele>107</ele>
        <time>2021-02-28T09:47:55.442000+00:00</time>
      </trkpt>
      <trkpt lat="0" lon="0">
        <time>2021-02-28T09:47:55.445000+00:00</time>
      </trkpt>
      <trkpt lat="0" lon="0">
        <time>2021-02-28T09:47:55.451000+00:00</time>
      </trkpt>
      <trkpt lat="0" lon="0">
        <time>2021-02-28T09:47:55.453000+00:00</time>
      </trkpt>
      <trkpt lat="47.34043" lon="-1.44878">
        <ele>107</ele>
        <time>2021-02-28T09:47:56.436000+00:00</time>
      </trkpt>
      <trkpt lat="0" lon="0">
        <time>2021-02-28T09:47:56.443000+00:00</time>
      </trkpt>
      <trkpt lat="0" lon="0">
        <time>2021-02-28T09:47:56.449000+00:00</time>
      </trkpt>
      <trkpt lat="0" lon="0">
        <time>2021-02-28T09:47:56.453000+00:00</time>
      </trkpt>
      <trkpt lat="47.34047" lon="-1.44872">
        <ele>106</ele>
        <time>2021-02-28T09:47:57.438000+00:00</time>
      </trkpt>
      <trkpt lat="0" lon="0">
        <time>2021-02-28T09:47:57.446000+00:00</time>
      </trkpt>
      <trkpt lat="0" lon="0">
        <time>2021-02-28T09:47:57.450000+00:00</time>
      </trkpt>
      <trkpt lat="0" lon="0">
        <time>2021-02-28T09:47:57.452000+00:00</time>
      </trkpt>
      <trkpt lat="47.34051" lon="-1.44866">
        <ele>106</ele>
        <time>2021-02-28T09:47:58.453000+00:00</time>
      </trkpt>
      <trkpt lat="0" lon="0">
        <time>2021-02-28T09:47:58.455000+00:00</time>
      </trkpt>
      <trkpt lat="0" lon="0">
        <time>2021-02-28T09:47:58.458000+00:00</time>
      </trkpt>
      <trkpt lat="0" lon="0">
        <time>2021-02-28T09:47:58.459000+00:00</time>
      </trkpt>
      <trkpt lat="47.34056" lon="-1.4486">
        <ele>106</ele>
        <time>2021-02-28T09:47:59.427000+00:00</time>
      </trkpt>
      <trkpt lat="0" lon="0">
        <time>2021-02-28T09:47:59.437000+00:00</time>
      </trkpt>
      <trkpt lat="0" lon="0">
        <time>2021-02-28T09:47:59.445000+00:00</time>
      </trkpt>
      <trkpt lat="0" lon="0">
        <time>2021-02-28T09:47:59.452000+00:00</time>
      </trkpt>
      <trkpt lat="47.3406" lon="-1.44854">
        <ele>106</ele>
        <time>2021-02-28T09:48:00.441000+00:00</time>
      </trkpt>
      <trkpt lat="0" lon="0">
        <time>2021-02-28T09:48:00.448000+00:00</time>
      </trkpt>
      <trkpt lat="0" lon="0">
        <time>2021-02-28T09:48:00.452000+00:00</time>
      </trkpt>
      <trkpt lat="0" lon="0">
        <time>2021-02-28T09:48:00.455000+00:00</time>
      </trkpt>
      <trkpt lat="47.34065" lon="-1.44848">
        <ele>106</ele>
        <time>2021-02-28T09:48:01.440000+00:00</time>
      </trkpt>
      <trkpt lat="0" lon="0">
        <time>2021-02-28T09:48:01.447000+00:00</time>
      </trkpt>
      <trkpt lat="0" lon="0">
        <time>2021-02-28T09:48:01.451000+00:00</time>
      </trkpt>
      <trkpt lat="0" lon="0">
        <time>2021-02-28T09:48:01.452000+00:00</time>
      </trkpt>
      <trkpt lat="47.34069" lon="-1.44842">
        <ele>106</ele>
        <time>2021-02-28T09:48:02.449000+00:00</time>
      </trkpt>
      <trkpt lat="0" lon="0">
        <time>2021-02-28T09:48:02.451000+00:00</time>
      </trkpt>
      <trkpt lat="0" lon="0">
        <time>2021-02-28T09:48:02.453000+00:00</time>
      </trkpt>
      <trkpt lat="0" lon="0">
        <time>2021-02-28T09:48:02.454000+00:00</time>
      </trkpt>
      <trkpt lat="47.34074" lon="-1.44836">
        <ele>106</ele>
        <time>2021-02-28T09:48:03.423000+00:00</time>
      </trkpt>
      <trkpt lat="0" lon="0">
        <time>2021-02-28T09:48:03.425000+00:00</time>
      </trkpt>
      <trkpt lat="0" lon="0">
        <time>2021-02-28T09:48:03.428000+00:00</time>
      </trkpt>
      <trkpt lat="0" lon="0">
        <time>2021-02-28T09:48:03.429000+00:00</time>
      </trkpt>
      <trkpt lat="47.34078" lon="-1.4483">
        <ele>106</ele>
        <time>2021-02-28T09:48:04.416000+00:00</time>
      </trkpt>
      <trkpt lat="0" lon="0">
        <time>2021-02-28T09:48:04.422000+00:00</time>
      </trkpt>
      <trkpt lat="0" lon="0">
        <time>2021-02-28T09:48:04.428000+00:00</time>
      </trkpt>
      <trkpt lat="0" lon="0">
        <time>2021-02-28T09:48:04.430000+00:00</time>
      </trkpt>
      <trkpt lat="47.34083" lon="-1.44824">
        <ele>107</ele>
        <time>2021-02-28T09:48:05.424000+00:00</time>
      </trkpt>
      <trkpt lat="0" lon="0">
        <time>2021-02-28T09:48:05.426000+00:00</time>
      </trkpt>
      <trkpt lat="0" lon="0">
        <time>2021-02-28T09:48:05.428000+00:00</time>
      </trkpt>
      <trkpt lat="47.34087" lon="-1.44818">
        <ele>107</ele>
        <time>2021-02-28T09:48:06.445000+00:00</time>
      </trkpt>
      <trkpt lat="0" lon="0">
        <time>2021-02-28T09:48:06.451000+00:00</time>
      </trkpt>
      <trkpt lat="0" lon="0">
        <time>2021-02-28T09:48:06.462000+00:00</time>
      </trkpt>
      <trkpt lat="0" lon="0">
        <time>2021-02-28T09:48:06.464000+00:00</time>
      </trkpt>
      <trkpt lat="47.34092" lon="-1.44811">
        <ele>106</ele>
        <time>2021-02-28T09:48:07.382000+00:00</time>
      </trkpt>
      <trkpt lat="0" lon="0">
        <time>2021-02-28T09:48:07.393000+00:00</time>
      </trkpt>
      <trkpt lat="0" lon="0">
        <time>2021-02-28T09:48:07.402000+00:00</time>
      </trkpt>
      <trkpt lat="0" lon="0">
        <time>2021-02-28T09:48:07.404000+00:00</time>
      </trkpt>
      <trkpt lat="47.34097" lon="-1.44805">
        <ele>106</ele>
        <time>2021-02-28T09:48:08.427000+00:00</time>
      </trkpt>
      <trkpt lat="0" lon="0">
        <time>2021-02-28T09:48:08.431000+00:00</time>
      </trkpt>
      <trkpt lat="0" lon="0">
        <time>2021-02-28T09:48:08.435000+00:00</time>
      </trkpt>
      <trkpt lat="0" lon="0">
        <time>2021-02-28T09:48:08.437000+00:00</time>
      </trkpt>
      <trkpt lat="47.34102" lon="-1.44798">
        <ele>106</ele>
        <time>2021-02-28T09:48:09.446000+00:00</time>
      </trkpt>
      <trkpt lat="0" lon="0">
        <time>2021-02-28T09:48:09.452000+00:00</time>
      </trkpt>
      <trkpt lat="0" lon="0">
        <time>2021-02-28T09:48:09.455000+00:00</time>
      </trkpt>
      <trkpt lat="0" lon="0">
        <time>2021-02-28T09:48:09.456000+00:00</time>
      </trkpt>
      <trkpt lat="47.34107" lon="-1.44792">
        <ele>106</ele>
        <time>2021-02-28T09:48:10.439000+00:00</time>
      </trkpt>
      <trkpt lat="0" lon="0">
        <time>2021-02-28T09:48:10.442000+00:00</time>
      </trkpt>
      <trkpt lat="0" lon="0">
        <time>2021-02-28T09:48:10.444000+00:00</time>
      </trkpt>
      <trkpt lat="0" lon="0">
        <time>2021-02-28T09:48:10.446000+00:00</time>
      </trkpt>
      <trkpt lat="47.34112" lon="-1.44785">
        <ele>106</ele>
        <time>2021-02-28T09:48:11.453000+00:00</time>
      </trkpt>
      <trkpt lat="0" lon="0">
        <time>2021-02-28T09:48:11.465000+00:00</time>
      </trkpt>
      <trkpt lat="0" lon="0">
        <time>2021-02-28T09:48:11.469000+00:00</time>
      </trkpt>
      <trkpt lat="0" lon="0">
        <time>2021-02-28T09:48:11.472000+00:00</time>
      </trkpt>
      <trkpt lat="47.34117" lon="-1.44778">
        <ele>105</ele>
        <time>2021-02-28T09:48:12.419000+00:00</time>
      </trkpt>
      <trkpt lat="0" lon="0">
        <time>2021-02-28T09:48:12.429000+00:00</time>
      </trkpt>
      <trkpt lat="0" lon="0">
        <time>2021-02-28T09:48:12.433000+00:00</time>
      </trkpt>
      <trkpt lat="0" lon="0">
        <time>2021-02-28T09:48:12.436000+00:00</time>
      </trkpt>
      <trkpt lat="47.34121" lon="-1.44771">
        <ele>105</ele>
        <time>2021-02-28T09:48:13.424000+00:00</time>
      </trkpt>
      <trkpt lat="0" lon="0">
        <time>2021-02-28T09:48:13.432000+00:00</time>
      </trkpt>
      <trkpt lat="0" lon="0">
        <time>2021-02-28T09:48:13.434000+00:00</time>
      </trkpt>
      <trkpt lat="0" lon="0">
        <time>2021-02-28T09:48:13.435000+00:00</time>
      </trkpt>
      <trkpt lat="47.34126" lon="-1.44764">
        <ele>105</ele>
        <time>2021-02-28T09:48:14.431000+00:00</time>
      </trkpt>
      <trkpt lat="0" lon="0">
        <time>2021-02-28T09:48:14.435000+00:00</time>
      </trkpt>
      <trkpt lat="0" lon="0">
        <time>2021-02-28T09:48:14.443000+00:00</time>
      </trkpt>
      <trkpt lat="0" lon="0">
        <time>2021-02-28T09:48:14.446000+00:00</time>
      </trkpt>
      <trkpt lat="47.34132" lon="-1.44757">
        <ele>105</ele>
        <time>2021-02-28T09:48:15.455000+00:00</time>
      </trkpt>
      <trkpt lat="0" lon="0">
        <time>2021-02-28T09:48:15.472000+00:00</time>
      </trkpt>
      <trkpt lat="0" lon="0">
        <time>2021-02-28T09:48:15.476000+00:00</time>
      </trkpt>
      <trkpt lat="0" lon="0">
        <time>2021-02-28T09:48:15.479000+00:00</time>
      </trkpt>
      <trkpt lat="47.34137" lon="-1.4475">
        <ele>105</ele>
        <time>2021-02-28T09:48:16.455000+00:00</time>
      </trkpt>
      <trkpt lat="0" lon="0">
        <time>2021-02-28T09:48:16.465000+00:00</time>
      </trkpt>
      <trkpt lat="0" lon="0">
        <time>2021-02-28T09:48:16.467000+00:00</time>
      </trkpt>
      <trkpt lat="0" lon="0">
        <time>2021-02-28T09:48:16.468000+00:00</time>
      </trkpt>
      <trkpt lat="47.34142" lon="-1.44744">
        <ele>105</ele>
        <time>2021-02-28T09:48:17.440000+00:00</time>
      </trkpt>
      <trkpt lat="0" lon="0">
        <time>2021-02-28T09:48:17.448000+00:00</time>
      </trkpt>
      <trkpt lat="0" lon="0">
        <time>2021-02-28T09:48:17.453000+00:00</time>
      </trkpt>
      <trkpt lat="0" lon="0">
        <time>2021-02-28T09:48:17.455000+00:00</time>
      </trkpt>
      <trkpt lat="47.34147" lon="-1.44737">
        <ele>105</ele>
        <time>2021-02-28T09:48:18.437000+00:00</time>
      </trkpt>
      <trkpt lat="0" lon="0">
        <time>2021-02-28T09:48:18.445000+00:00</time>
      </trkpt>
      <trkpt lat="0" lon="0">
        <time>2021-02-28T09:48:18.447000+00:00</time>
      </trkpt>
      <trkpt lat="0" lon="0">
        <time>2021-02-28T09:48:18.448000+00:00</time>
      </trkpt>
      <trkpt lat="47.34151" lon="-1.4473">
        <ele>105</ele>
        <time>2021-02-28T09:48:19.444000+00:00</time>
      </trkpt>
      <trkpt lat="0" lon="0">
        <time>2021-02-28T09:48:19.450000+00:00</time>
      </trkpt>
      <trkpt lat="0" lon="0">
        <time>2021-02-28T09:48:19.454000+00:00</time>
      </trkpt>
      <trkpt lat="0" lon="0">
        <time>2021-02-28T09:48:19.456000+00:00</time>
      </trkpt>
      <trkpt lat="47.34156" lon="-1.44724">
        <ele>104</ele>
        <time>2021-02-28T09:48:20.410000+00:00</time>
      </trkpt>
      <trkpt lat="0" lon="0">
        <time>2021-02-28T09:48:20.419000+00:00</time>
      </trkpt>
      <trkpt lat="0" lon="0">
        <time>2021-02-28T09:48:20.427000+00:00</time>
      </trkpt>
      <trkpt lat="0" lon="0">
        <time>2021-02-28T09:48:20.429000+00:00</time>
      </trkpt>
      <trkpt lat="47.34161" lon="-1.44717">
        <ele>105</ele>
        <time>2021-02-28T09:48:21.430000+00:00</time>
      </trkpt>
      <trkpt lat="0" lon="0">
        <time>2021-02-28T09:48:21.434000+00:00</time>
      </trkpt>
      <trkpt lat="0" lon="0">
        <time>2021-02-28T09:48:21.436000+00:00</time>
      </trkpt>
      <trkpt lat="0" lon="0">
        <time>2021-02-28T09:48:21.437000+00:00</time>
      </trkpt>
      <trkpt lat="47.34165" lon="-1.44711">
        <ele>105</ele>
        <time>2021-02-28T09:48:22.431000+00:00</time>
      </trkpt>
      <trkpt lat="0" lon="0">
        <time>2021-02-28T09:48:22.437000+00:00</time>
      </trkpt>
      <trkpt lat="0" lon="0">
        <time>2021-02-28T09:48:22.441000+00:00</time>
      </trkpt>
      <trkpt lat="0" lon="0">
        <time>2021-02-28T09:48:22.445000+00:00</time>
      </trkpt>
      <trkpt lat="47.3417" lon="-1.44705">
        <ele>105</ele>
        <time>2021-02-28T09:48:23.430000+00:00</time>
      </trkpt>
      <trkpt lat="0" lon="0">
        <time>2021-02-28T09:48:23.437000+00:00</time>
      </trkpt>
      <trkpt lat="0" lon="0">
        <time>2021-02-28T09:48:23.441000+00:00</time>
      </trkpt>
      <trkpt lat="0" lon="0">
        <time>2021-02-28T09:48:23.444000+00:00</time>
      </trkpt>
      <trkpt lat="47.34174" lon="-1.44699">
        <ele>105</ele>
        <time>2021-02-28T09:48:24.427000+00:00</time>
      </trkpt>
      <trkpt lat="0" lon="0">
        <time>2021-02-28T09:48:24.432000+00:00</time>
      </trkpt>
      <trkpt lat="0" lon="0">
        <time>2021-02-28T09:48:24.434000+00:00</time>
      </trkpt>
      <trkpt lat="0" lon="0">
        <time>2021-02-28T09:48:24.435000+00:00</time>
      </trkpt>
      <trkpt lat="47.34179" lon="-1.44693">
        <ele>106</ele>
        <time>2021-02-28T09:48:25.418000+00:00</time>
      </trkpt>
      <trkpt lat="0" lon="0">
        <time>2021-02-28T09:48:25.421000+00:00</time>
      </trkpt>
      <trkpt lat="0" lon="0">
        <time>2021-02-28T09:48:25.423000+00:00</time>
      </trkpt>
      <trkpt lat="0" lon="0">
        <time>2021-02-28T09:48:25.425000+00:00</time>
      </trkpt>
      <trkpt lat="47.34183" lon="-1.44687">
        <ele>106</ele>
        <time>2021-02-28T09:48:26.422000+00:00</time>
      </trkpt>
      <trkpt lat="0" lon="0">
        <time>2021-02-28T09:48:26.428000+00:00</time>
      </trkpt>
      <trkpt lat="0" lon="0">
        <time>2021-02-28T09:48:26.430000+00:00</time>
      </trkpt>
      <trkpt lat="0" lon="0">
        <time>2021-02-28T09:48:26.433000+00:00</time>
      </trkpt>
      <trkpt lat="47.34188" lon="-1.4468">
        <ele>106</ele>
        <time>2021-02-28T09:48:27.472000+00:00</time>
      </trkpt>
      <trkpt lat="0" lon="0">
        <time>2021-02-28T09:48:27.478000+00:00</time>
      </trkpt>
      <trkpt lat="0" lon="0">
        <time>2021-02-28T09:48:27.487000+00:00</time>
      </trkpt>
      <trkpt lat="0" lon="0">
        <time>2021-02-28T09:48:27.490000+00:00</time>
      </trkpt>
      <trkpt lat="47.34192" lon="-1.44674">
        <ele>106</ele>
        <time>2021-02-28T09:48:28.425000+00:00</time>
      </trkpt>
      <trkpt lat="0" lon="0">
        <time>2021-02-28T09:48:28.427000+00:00</time>
      </trkpt>
      <trkpt lat="0" lon="0">
        <time>2021-02-28T09:48:28.428000+00:00</time>
      </trkpt>
      <trkpt lat="0" lon="0">
        <time>2021-02-28T09:48:28.429000+00:00</time>
      </trkpt>
      <trkpt lat="47.34197" lon="-1.44668">
        <ele>107</ele>
        <time>2021-02-28T09:48:29.442000+00:00</time>
      </trkpt>
      <trkpt lat="0" lon="0">
        <time>2021-02-28T09:48:29.451000+00:00</time>
      </trkpt>
      <trkpt lat="0" lon="0">
        <time>2021-02-28T09:48:29.456000+00:00</time>
      </trkpt>
      <trkpt lat="0" lon="0">
        <time>2021-02-28T09:48:29.459000+00:00</time>
      </trkpt>
      <trkpt lat="47.34202" lon="-1.44661">
        <ele>107</ele>
        <time>2021-02-28T09:48:30.453000+00:00</time>
      </trkpt>
      <trkpt lat="0" lon="0">
        <time>2021-02-28T09:48:30.463000+00:00</time>
      </trkpt>
      <trkpt lat="0" lon="0">
        <time>2021-02-28T09:48:30.471000+00:00</time>
      </trkpt>
      <trkpt lat="0" lon="0">
        <time>2021-02-28T09:48:30.473000+00:00</time>
      </trkpt>
      <trkpt lat="47.34207" lon="-1.44655">
        <ele>107</ele>
        <time>2021-02-28T09:48:31.453000+00:00</time>
      </trkpt>
      <trkpt lat="0" lon="0">
        <time>2021-02-28T09:48:31.458000+00:00</time>
      </trkpt>
      <trkpt lat="0" lon="0">
        <time>2021-02-28T09:48:31.460000+00:00</time>
      </trkpt>
      <trkpt lat="0" lon="0">
        <time>2021-02-28T09:48:31.461000+00:00</time>
      </trkpt>
      <trkpt lat="47.34212" lon="-1.44649">
        <ele>107</ele>
        <time>2021-02-28T09:48:32.451000+00:00</time>
      </trkpt>
      <trkpt lat="0" lon="0">
        <time>2021-02-28T09:48:32.454000+00:00</time>
      </trkpt>
      <trkpt lat="0" lon="0">
        <time>2021-02-28T09:48:32.457000+00:00</time>
      </trkpt>
      <trkpt lat="0" lon="0">
        <time>2021-02-28T09:48:32.459000+00:00</time>
      </trkpt>
      <trkpt lat="47.34217" lon="-1.44643">
        <ele>106</ele>
        <time>2021-02-28T09:48:33.384000+00:00</time>
      </trkpt>
      <trkpt lat="0" lon="0">
        <time>2021-02-28T09:48:33.386000+00:00</time>
      </trkpt>
      <trkpt lat="0" lon="0">
        <time>2021-02-28T09:48:33.389000+00:00</time>
      </trkpt>
      <trkpt lat="0" lon="0">
        <time>2021-02-28T09:48:33.390000+00:00</time>
      </trkpt>
      <trkpt lat="47.34221" lon="-1.44636">
        <ele>106</ele>
        <time>2021-02-28T09:48:34.428000+00:00</time>
      </trkpt>
      <trkpt lat="0" lon="0">
        <time>2021-02-28T09:48:34.433000+00:00</time>
      </trkpt>
      <trkpt lat="0" lon="0">
        <time>2021-02-28T09:48:34.438000+00:00</time>
      </trkpt>
      <trkpt lat="0" lon="0">
        <time>2021-02-28T09:48:34.447000+00:00</time>
      </trkpt>
      <trkpt lat="47.34226" lon="-1.4463">
        <ele>106</ele>
        <time>2021-02-28T09:48:35.445000+00:00</time>
      </trkpt>
      <trkpt lat="0" lon="0">
        <time>2021-02-28T09:48:35.452000+00:00</time>
      </trkpt>
      <trkpt lat="0" lon="0">
        <time>2021-02-28T09:48:35.462000+00:00</time>
      </trkpt>
      <trkpt lat="0" lon="0">
        <time>2021-02-28T09:48:35.464000+00:00</time>
      </trkpt>
      <trkpt lat="47.34231" lon="-1.44624">
        <ele>106</ele>
        <time>2021-02-28T09:48:36.403000+00:00</time>
      </trkpt>
      <trkpt lat="0" lon="0">
        <time>2021-02-28T09:48:36.411000+00:00</time>
      </trkpt>
      <trkpt lat="0" lon="0">
        <time>2021-02-28T09:48:36.413000+00:00</time>
      </trkpt>
      <trkpt lat="0" lon="0">
        <time>2021-02-28T09:48:36.414000+00:00</time>
      </trkpt>
      <trkpt lat="47.34236" lon="-1.44617">
        <ele>106</ele>
        <time>2021-02-28T09:48:37.438000+00:00</time>
      </trkpt>
      <trkpt lat="0" lon="0">
        <time>2021-02-28T09:48:37.449000+00:00</time>
      </trkpt>
      <trkpt lat="0" lon="0">
        <time>2021-02-28T09:48:37.454000+00:00</time>
      </trkpt>
      <trkpt lat="0" lon="0">
        <time>2021-02-28T09:48:37.455000+00:00</time>
      </trkpt>
      <trkpt lat="47.34241" lon="-1.44611">
        <ele>105</ele>
        <time>2021-02-28T09:48:38.444000+00:00</time>
      </trkpt>
      <trkpt lat="0" lon="0">
        <time>2021-02-28T09:48:38.453000+00:00</time>
      </trkpt>
      <trkpt lat="0" lon="0">
        <time>2021-02-28T09:48:38.458000+00:00</time>
      </trkpt>
      <trkpt lat="0" lon="0">
        <time>2021-02-28T09:48:38.460000+00:00</time>
      </trkpt>
      <trkpt lat="47.34245" lon="-1.44605">
        <ele>105</ele>
        <time>2021-02-28T09:48:39.456000+00:00</time>
      </trkpt>
      <trkpt lat="0" lon="0">
        <time>2021-02-28T09:48:39.463000+00:00</time>
      </trkpt>
      <trkpt lat="0" lon="0">
        <time>2021-02-28T09:48:39.471000+00:00</time>
      </trkpt>
      <trkpt lat="0" lon="0">
        <time>2021-02-28T09:48:39.473000+00:00</time>
      </trkpt>
      <trkpt lat="47.3425" lon="-1.44599">
        <ele>105</ele>
        <time>2021-02-28T09:48:40.450000+00:00</time>
      </trkpt>
      <trkpt lat="0" lon="0">
        <time>2021-02-28T09:48:40.453000+00:00</time>
      </trkpt>
      <trkpt lat="0" lon="0">
        <time>2021-02-28T09:48:40.455000+00:00</time>
      </trkpt>
      <trkpt lat="0" lon="0">
        <time>2021-02-28T09:48:40.456000+00:00</time>
      </trkpt>
      <trkpt lat="47.34254" lon="-1.44593">
        <ele>105</ele>
        <time>2021-02-28T09:48:41.457000+00:00</time>
      </trkpt>
      <trkpt lat="0" lon="0">
        <time>2021-02-28T09:48:41.461000+00:00</time>
      </trkpt>
      <trkpt lat="0" lon="0">
        <time>2021-02-28T09:48:41.465000+00:00</time>
      </trkpt>
      <trkpt lat="0" lon="0">
        <time>2021-02-28T09:48:41.468000+00:00</time>
      </trkpt>
      <trkpt lat="47.34259" lon="-1.44586">
        <ele>105</ele>
        <time>2021-02-28T09:48:42.418000+00:00</time>
      </trkpt>
      <trkpt lat="0" lon="0">
        <time>2021-02-28T09:48:42.419000+00:00</time>
      </trkpt>
      <trkpt lat="0" lon="0">
        <time>2021-02-28T09:48:42.421000+00:00</time>
      </trkpt>
      <trkpt lat="0" lon="0">
        <time>2021-02-28T09:48:42.424000+00:00</time>
      </trkpt>
      <trkpt lat="47.34263" lon="-1.4458">
        <ele>105</ele>
        <time>2021-02-28T09:48:43.442000+00:00</time>
      </trkpt>
      <trkpt lat="0" lon="0">
        <time>2021-02-28T09:48:43.453000+00:00</time>
      </trkpt>
      <trkpt lat="0" lon="0">
        <time>2021-02-28T09:48:43.462000+00:00</time>
      </trkpt>
      <trkpt lat="0" lon="0">
        <time>2021-02-28T09:48:43.465000+00:00</time>
      </trkpt>
      <trkpt lat="47.34268" lon="-1.44573">
        <ele>105</ele>
        <time>2021-02-28T09:48:44.427000+00:00</time>
      </trkpt>
      <trkpt lat="0" lon="0">
        <time>2021-02-28T09:48:44.429000+00:00</time>
      </trkpt>
      <trkpt lat="0" lon="0">
        <time>2021-02-28T09:48:44.431000+00:00</time>
      </trkpt>
      <trkpt lat="0" lon="0">
        <time>2021-02-28T09:48:44.432000+00:00</time>
      </trkpt>
      <trkpt lat="47.34272" lon="-1.44567">
        <ele>104</ele>
        <time>2021-02-28T09:48:45.448000+00:00</time>
      </trkpt>
      <trkpt lat="0" lon="0">
        <time>2021-02-28T09:48:45.456000+00:00</time>
      </trkpt>
      <trkpt lat="0" lon="0">
        <time>2021-02-28T09:48:45.461000+00:00</time>
      </trkpt>
      <trkpt lat="0" lon="0">
        <time>2021-02-28T09:48:45.464000+00:00</time>
      </trkpt>
      <trkpt lat="47.34277" lon="-1.4456">
        <ele>104</ele>
        <time>2021-02-28T09:48:46.429000+00:00</time>
      </trkpt>
      <trkpt lat="0" lon="0">
        <time>2021-02-28T09:48:46.431000+00:00</time>
      </trkpt>
      <trkpt lat="0" lon="0">
        <time>2021-02-28T09:48:46.433000+00:00</time>
      </trkpt>
      <trkpt lat="0" lon="0">
        <time>2021-02-28T09:48:46.434000+00:00</time>
      </trkpt>
      <trkpt lat="47.34281" lon="-1.44554">
        <ele>104</ele>
        <time>2021-02-28T09:48:47.457000+00:00</time>
      </trkpt>
      <trkpt lat="0" lon="0">
        <time>2021-02-28T09:48:47.467000+00:00</time>
      </trkpt>
      <trkpt lat="0" lon="0">
        <time>2021-02-28T09:48:47.471000+00:00</time>
      </trkpt>
      <trkpt lat="0" lon="0">
        <time>2021-02-28T09:48:47.473000+00:00</time>
      </trkpt>
      <trkpt lat="47.34286" lon="-1.44547">
        <ele>105</ele>
        <time>2021-02-28T09:48:48.411000+00:00</time>
      </trkpt>
      <trkpt lat="0" lon="0">
        <time>2021-02-28T09:48:48.413000+00:00</time>
      </trkpt>
      <trkpt lat="0" lon="0">
        <time>2021-02-28T09:48:48.414000+00:00</time>
      </trkpt>
      <trkpt lat="0" lon="0">
        <time>2021-02-28T09:48:48.415000+00:00</time>
      </trkpt>
      <trkpt lat="47.3429" lon="-1.4454">
        <ele>104</ele>
        <time>2021-02-28T09:48:49.412000+00:00</time>
      </trkpt>
      <trkpt lat="0" lon="0">
        <time>2021-02-28T09:48:49.418000+00:00</time>
      </trkpt>
      <trkpt lat="0" lon="0">
        <time>2021-02-28T09:48:49.419000+00:00</time>
      </trkpt>
      <trkpt lat="47.34295" lon="-1.44533">
        <ele>105</ele>
        <time>2021-02-28T09:48:50.444000+00:00</time>
      </trkpt>
      <trkpt lat="0" lon="0">
        <time>2021-02-28T09:48:50.451000+00:00</time>
      </trkpt>
      <trkpt lat="0" lon="0">
        <time>2021-02-28T09:48:50.455000+00:00</time>
      </trkpt>
      <trkpt lat="0" lon="0">
        <time>2021-02-28T09:48:50.457000+00:00</time>
      </trkpt>
      <trkpt lat="47.34299" lon="-1.44527">
        <ele>104</ele>
        <time>2021-02-28T09:48:51.387000+00:00</time>
      </trkpt>
      <trkpt lat="0" lon="0">
        <time>2021-02-28T09:48:51.401000+00:00</time>
      </trkpt>
      <trkpt lat="0" lon="0">
        <time>2021-02-28T09:48:51.406000+00:00</time>
      </trkpt>
      <trkpt lat="0" lon="0">
        <time>2021-02-28T09:48:51.409000+00:00</time>
      </trkpt>
      <trkpt lat="47.34304" lon="-1.4452">
        <ele>105</ele>
        <time>2021-02-28T09:48:52.448000+00:00</time>
      </trkpt>
      <trkpt lat="0" lon="0">
        <time>2021-02-28T09:48:52.460000+00:00</time>
      </trkpt>
      <trkpt lat="0" lon="0">
        <time>2021-02-28T09:48:52.462000+00:00</time>
      </trkpt>
      <trkpt lat="0" lon="0">
        <time>2021-02-28T09:48:52.463000+00:00</time>
      </trkpt>
      <trkpt lat="47.34309" lon="-1.44513">
        <ele>105</ele>
        <time>2021-02-28T09:48:53.442000+00:00</time>
      </trkpt>
      <trkpt lat="0" lon="0">
        <time>2021-02-28T09:48:53.447000+00:00</time>
      </trkpt>
      <trkpt lat="0" lon="0">
        <time>2021-02-28T09:48:53.449000+00:00</time>
      </trkpt>
      <trkpt lat="0" lon="0">
        <time>2021-02-28T09:48:53.450000+00:00</time>
      </trkpt>
      <trkpt lat="47.34314" lon="-1.44507">
        <ele>105</ele>
        <time>2021-02-28T09:48:54.450000+00:00</time>
      </trkpt>
      <trkpt lat="0" lon="0">
        <time>2021-02-28T09:48:54.455000+00:00</time>
      </trkpt>
      <trkpt lat="0" lon="0">
        <time>2021-02-28T09:48:54.459000+00:00</time>
      </trkpt>
      <trkpt lat="0" lon="0">
        <time>2021-02-28T09:48:54.461000+00:00</time>
      </trkpt>
      <trkpt lat="47.34318" lon="-1.44501">
        <ele>105</ele>
        <time>2021-02-28T09:48:55.432000+00:00</time>
      </trkpt>
      <trkpt lat="0" lon="0">
        <time>2021-02-28T09:48:55.434000+00:00</time>
      </trkpt>
      <trkpt lat="0" lon="0">
        <time>2021-02-28T09:48:55.438000+00:00</time>
      </trkpt>
      <trkpt lat="0" lon="0">
        <time>2021-02-28T09:48:55.439000+00:00</time>
      </trkpt>
      <trkpt lat="47.34322" lon="-1.44495">
        <ele>106</ele>
        <time>2021-02-28T09:48:56.401000+00:00</time>
      </trkpt>
      <trkpt lat="0" lon="0">
        <time>2021-02-28T09:48:56.411000+00:00</time>
      </trkpt>
      <trkpt lat="0" lon="0">
        <time>2021-02-28T09:48:56.416000+00:00</time>
      </trkpt>
      <trkpt lat="0" lon="0">
        <time>2021-02-28T09:48:56.417000+00:00</time>
      </trkpt>
      <trkpt lat="47.34327" lon="-1.44489">
        <ele>106</ele>
        <time>2021-02-28T09:48:57.469000+00:00</time>
      </trkpt>
      <trkpt lat="0" lon="0">
        <time>2021-02-28T09:48:57.477000+00:00</time>
      </trkpt>
      <trkpt lat="0" lon="0">
        <time>2021-02-28T09:48:57.481000+00:00</time>
      </trkpt>
      <trkpt lat="0" lon="0">
        <time>2021-02-28T09:48:57.483000+00:00</time>
      </trkpt>
      <trkpt lat="47.34331" lon="-1.44483">
        <ele>106</ele>
        <time>2021-02-28T09:48:58.447000+00:00</time>
      </trkpt>
      <trkpt lat="0" lon="0">
        <time>2021-02-28T09:48:58.463000+00:00</time>
      </trkpt>
      <trkpt lat="0" lon="0">
        <time>2021-02-28T09:48:58.467000+00:00</time>
      </trkpt>
      <trkpt lat="0" lon="0">
        <time>2021-02-28T09:48:58.469000+00:00</time>
      </trkpt>
      <trkpt lat="47.34335" lon="-1.44477">
        <ele>107</ele>
        <time>2021-02-28T09:48:59.442000+00:00</time>
      </trkpt>
      <trkpt lat="0" lon="0">
        <time>2021-02-28T09:48:59.446000+00:00</time>
      </trkpt>
      <trkpt lat="0" lon="0">
        <time>2021-02-28T09:48:59.453000+00:00</time>
      </trkpt>
      <trkpt lat="0" lon="0">
        <time>2021-02-28T09:48:59.455000+00:00</time>
      </trkpt>
      <trkpt lat="47.3434" lon="-1.44471">
        <ele>107</ele>
        <time>2021-02-28T09:49:00.393000+00:00</time>
      </trkpt>
      <trkpt lat="0" lon="0">
        <time>2021-02-28T09:49:00.395000+00:00</time>
      </trkpt>
      <trkpt lat="0" lon="0">
        <time>2021-02-28T09:49:00.398000+00:00</time>
      </trkpt>
      <trkpt lat="0" lon="0">
        <time>2021-02-28T09:49:00.399000+00:00</time>
      </trkpt>
      <trkpt lat="47.34344" lon="-1.44465">
        <ele>107</ele>
        <time>2021-02-28T09:49:01.436000+00:00</time>
      </trkpt>
      <trkpt lat="0" lon="0">
        <time>2021-02-28T09:49:01.444000+00:00</time>
      </trkpt>
      <trkpt lat="0" lon="0">
        <time>2021-02-28T09:49:01.448000+00:00</time>
      </trkpt>
      <trkpt lat="0" lon="0">
        <time>2021-02-28T09:49:01.450000+00:00</time>
      </trkpt>
      <trkpt lat="47.34349" lon="-1.44459">
        <ele>107</ele>
        <time>2021-02-28T09:49:02.399000+00:00</time>
      </trkpt>
      <trkpt lat="0" lon="0">
        <time>2021-02-28T09:49:02.406000+00:00</time>
      </trkpt>
      <trkpt lat="0" lon="0">
        <time>2021-02-28T09:49:02.411000+00:00</time>
      </trkpt>
      <trkpt lat="0" lon="0">
        <time>2021-02-28T09:49:02.413000+00:00</time>
      </trkpt>
      <trkpt lat="47.34353" lon="-1.44453">
        <ele>107</ele>
        <time>2021-02-28T09:49:03.428000+00:00</time>
      </trkpt>
      <trkpt lat="0" lon="0">
        <time>2021-02-28T09:49:03.434000+00:00</time>
      </trkpt>
      <trkpt lat="0" lon="0">
        <time>2021-02-28T09:49:03.446000+00:00</time>
      </trkpt>
      <trkpt lat="0" lon="0">
        <time>2021-02-28T09:49:03.449000+00:00</time>
      </trkpt>
      <trkpt lat="47.34357" lon="-1.44447">
        <ele>107</ele>
        <time>2021-02-28T09:49:04.457000+00:00</time>
      </trkpt>
      <trkpt lat="0" lon="0">
        <time>2021-02-28T09:49:04.458000+00:00</time>
      </trkpt>
      <trkpt lat="0" lon="0">
        <time>2021-02-28T09:49:04.460000+00:00</time>
      </trkpt>
      <trkpt lat="47.34361" lon="-1.44442">
        <ele>107</ele>
        <time>2021-02-28T09:49:05.468000+00:00</time>
      </trkpt>
      <trkpt lat="0" lon="0">
        <time>2021-02-28T09:49:05.484000+00:00</time>
      </trkpt>
      <trkpt lat="0" lon="0">
        <time>2021-02-28T09:49:05.489000+00:00</time>
      </trkpt>
      <trkpt lat="0" lon="0">
        <time>2021-02-28T09:49:05.492000+00:00</time>
      </trkpt>
      <trkpt lat="47.34366" lon="-1.44436">
        <ele>107</ele>
        <time>2021-02-28T09:49:06.443000+00:00</time>
      </trkpt>
      <trkpt lat="0" lon="0">
        <time>2021-02-28T09:49:06.454000+00:00</time>
      </trkpt>
      <trkpt lat="0" lon="0">
        <time>2021-02-28T09:49:06.466000+00:00</time>
      </trkpt>
      <trkpt lat="0" lon="0">
        <time>2021-02-28T09:49:06.467000+00:00</time>
      </trkpt>
      <trkpt lat="47.3437" lon="-1.44431">
        <ele>106</ele>
        <time>2021-02-28T09:49:07.443000+00:00</time>
      </trkpt>
      <trkpt lat="0" lon="0">
        <time>2021-02-28T09:49:07.448000+00:00</time>
      </trkpt>
      <trkpt lat="0" lon="0">
        <time>2021-02-28T09:49:07.454000+00:00</time>
      </trkpt>
      <trkpt lat="0" lon="0">
        <time>2021-02-28T09:49:07.456000+00:00</time>
      </trkpt>
      <trkpt lat="47.34374" lon="-1.44425">
        <ele>107</ele>
        <time>2021-02-28T09:49:08.398000+00:00</time>
      </trkpt>
      <trkpt lat="0" lon="0">
        <time>2021-02-28T09:49:08.400000+00:00</time>
      </trkpt>
      <trkpt lat="0" lon="0">
        <time>2021-02-28T09:49:08.401000+00:00</time>
      </trkpt>
      <trkpt lat="0" lon="0">
        <time>2021-02-28T09:49:08.402000+00:00</time>
      </trkpt>
      <trkpt lat="47.34379" lon="-1.44419">
        <ele>107</ele>
        <time>2021-02-28T09:49:09.452000+00:00</time>
      </trkpt>
      <trkpt lat="0" lon="0">
        <time>2021-02-28T09:49:09.461000+00:00</time>
      </trkpt>
      <trkpt lat="0" lon="0">
        <time>2021-02-28T09:49:09.465000+00:00</time>
      </trkpt>
      <trkpt lat="0" lon="0">
        <time>2021-02-28T09:49:09.468000+00:00</time>
      </trkpt>
      <trkpt lat="47.34383" lon="-1.44413">
        <ele>108</ele>
        <time>2021-02-28T09:49:10.444000+00:00</time>
      </trkpt>
      <trkpt lat="0" lon="0">
        <time>2021-02-28T09:49:10.453000+00:00</time>
      </trkpt>
      <trkpt lat="0" lon="0">
        <time>2021-02-28T09:49:10.461000+00:00</time>
      </trkpt>
      <trkpt lat="0" lon="0">
        <time>2021-02-28T09:49:10.468000+00:00</time>
      </trkpt>
      <trkpt lat="47.34387" lon="-1.44407">
        <ele>108</ele>
        <time>2021-02-28T09:49:11.447000+00:00</time>
      </trkpt>
      <trkpt lat="0" lon="0">
        <time>2021-02-28T09:49:11.459000+00:00</time>
      </trkpt>
      <trkpt lat="0" lon="0">
        <time>2021-02-28T09:49:11.468000+00:00</time>
      </trkpt>
      <trkpt lat="0" lon="0">
        <time>2021-02-28T09:49:11.469000+00:00</time>
      </trkpt>
      <trkpt lat="47.34391" lon="-1.44401">
        <ele>108</ele>
        <time>2021-02-28T09:49:12.447000+00:00</time>
      </trkpt>
      <trkpt lat="0" lon="0">
        <time>2021-02-28T09:49:12.449000+00:00</time>
      </trkpt>
      <trkpt lat="0" lon="0">
        <time>2021-02-28T09:49:12.451000+00:00</time>
      </trkpt>
      <trkpt lat="0" lon="0">
        <time>2021-02-28T09:49:12.453000+00:00</time>
      </trkpt>
      <trkpt lat="47.34395" lon="-1.44395">
        <ele>108</ele>
        <time>2021-02-28T09:49:13.415000+00:00</time>
      </trkpt>
      <trkpt lat="0" lon="0">
        <time>2021-02-28T09:49:13.420000+00:00</time>
      </trkpt>
      <trkpt lat="0" lon="0">
        <time>2021-02-28T09:49:13.424000+00:00</time>
      </trkpt>
      <trkpt lat="0" lon="0">
        <time>2021-02-28T09:49:13.426000+00:00</time>
      </trkpt>
      <trkpt lat="47.344" lon="-1.44389">
        <ele>108</ele>
        <time>2021-02-28T09:49:14.425000+00:00</time>
      </trkpt>
      <trkpt lat="0" lon="0">
        <time>2021-02-28T09:49:14.436000+00:00</time>
      </trkpt>
      <trkpt lat="0" lon="0">
        <time>2021-02-28T09:49:14.444000+00:00</time>
      </trkpt>
      <trkpt lat="0" lon="0">
        <time>2021-02-28T09:49:14.451000+00:00</time>
      </trkpt>
      <trkpt lat="47.34404" lon="-1.44382">
        <ele>108</ele>
        <time>2021-02-28T09:49:15.453000+00:00</time>
      </trkpt>
      <trkpt lat="0" lon="0">
        <time>2021-02-28T09:49:15.470000+00:00</time>
      </trkpt>
      <trkpt lat="0" lon="0">
        <time>2021-02-28T09:49:15.474000+00:00</time>
      </trkpt>
      <trkpt lat="0" lon="0">
        <time>2021-02-28T09:49:15.476000+00:00</time>
      </trkpt>
      <trkpt lat="47.34408" lon="-1.44376">
        <ele>108</ele>
        <time>2021-02-28T09:49:16.464000+00:00</time>
      </trkpt>
      <trkpt lat="0" lon="0">
        <time>2021-02-28T09:49:16.466000+00:00</time>
      </trkpt>
      <trkpt lat="0" lon="0">
        <time>2021-02-28T09:49:16.468000+00:00</time>
      </trkpt>
      <trkpt lat="0" lon="0">
        <time>2021-02-28T09:49:16.469000+00:00</time>
      </trkpt>
      <trkpt lat="47.34412" lon="-1.44369">
        <ele>108</ele>
        <time>2021-02-28T09:49:17.416000+00:00</time>
      </trkpt>
      <trkpt lat="0" lon="0">
        <time>2021-02-28T09:49:17.428000+00:00</time>
      </trkpt>
      <trkpt lat="0" lon="0">
        <time>2021-02-28T09:49:17.432000+00:00</time>
      </trkpt>
      <trkpt lat="0" lon="0">
        <time>2021-02-28T09:49:17.434000+00:00</time>
      </trkpt>
      <trkpt lat="47.34416" lon="-1.44363">
        <ele>108</ele>
        <time>2021-02-28T09:49:18.442000+00:00</time>
      </trkpt>
      <trkpt lat="0" lon="0">
        <time>2021-02-28T09:49:18.450000+00:00</time>
      </trkpt>
      <trkpt lat="0" lon="0">
        <time>2021-02-28T09:49:18.456000+00:00</time>
      </trkpt>
      <trkpt lat="0" lon="0">
        <time>2021-02-28T09:49:18.460000+00:00</time>
      </trkpt>
      <trkpt lat="47.3442" lon="-1.44356">
        <ele>108</ele>
        <time>2021-02-28T09:49:19.452000+00:00</time>
      </trkpt>
      <trkpt lat="0" lon="0">
        <time>2021-02-28T09:49:19.469000+00:00</time>
      </trkpt>
      <trkpt lat="0" lon="0">
        <time>2021-02-28T09:49:19.479000+00:00</time>
      </trkpt>
      <trkpt lat="0" lon="0">
        <time>2021-02-28T09:49:19.484000+00:00</time>
      </trkpt>
      <trkpt lat="47.34424" lon="-1.4435">
        <ele>107</ele>
        <time>2021-02-28T09:49:20.455000+00:00</time>
      </trkpt>
      <trkpt lat="0" lon="0">
        <time>2021-02-28T09:49:20.463000+00:00</time>
      </trkpt>
      <trkpt lat="0" lon="0">
        <time>2021-02-28T09:49:20.468000+00:00</time>
      </trkpt>
      <trkpt lat="0" lon="0">
        <time>2021-02-28T09:49:20.473000+00:00</time>
      </trkpt>
      <trkpt lat="47.34429" lon="-1.44343">
        <ele>107</ele>
        <time>2021-02-28T09:49:21.442000+00:00</time>
      </trkpt>
      <trkpt lat="0" lon="0">
        <time>2021-02-28T09:49:21.450000+00:00</time>
      </trkpt>
      <trkpt lat="0" lon="0">
        <time>2021-02-28T09:49:21.459000+00:00</time>
      </trkpt>
      <trkpt lat="0" lon="0">
        <time>2021-02-28T09:49:21.466000+00:00</time>
      </trkpt>
      <trkpt lat="47.34433" lon="-1.44337">
        <ele>107</ele>
        <time>2021-02-28T09:49:22.437000+00:00</time>
      </trkpt>
      <trkpt lat="0" lon="0">
        <time>2021-02-28T09:49:22.446000+00:00</time>
      </trkpt>
      <trkpt lat="0" lon="0">
        <time>2021-02-28T09:49:22.451000+00:00</time>
      </trkpt>
      <trkpt lat="0" lon="0">
        <time>2021-02-28T09:49:22.457000+00:00</time>
      </trkpt>
      <trkpt lat="47.34437" lon="-1.4433">
        <ele>107</ele>
        <time>2021-02-28T09:49:23.427000+00:00</time>
      </trkpt>
      <trkpt lat="0" lon="0">
        <time>2021-02-28T09:49:23.444000+00:00</time>
      </trkpt>
      <trkpt lat="0" lon="0">
        <time>2021-02-28T09:49:23.449000+00:00</time>
      </trkpt>
      <trkpt lat="0" lon="0">
        <time>2021-02-28T09:49:23.452000+00:00</time>
      </trkpt>
      <trkpt lat="47.34441" lon="-1.44324">
        <ele>107</ele>
        <time>2021-02-28T09:49:24.424000+00:00</time>
      </trkpt>
      <trkpt lat="0" lon="0">
        <time>2021-02-28T09:49:24.429000+00:00</time>
      </trkpt>
      <trkpt lat="0" lon="0">
        <time>2021-02-28T09:49:24.434000+00:00</time>
      </trkpt>
      <trkpt lat="0" lon="0">
        <time>2021-02-28T09:49:24.436000+00:00</time>
      </trkpt>
      <trkpt lat="47.34445" lon="-1.44318">
        <ele>108</ele>
        <time>2021-02-28T09:49:25.416000+00:00</time>
      </trkpt>
      <trkpt lat="0" lon="0">
        <time>2021-02-28T09:49:25.430000+00:00</time>
      </trkpt>
      <trkpt lat="0" lon="0">
        <time>2021-02-28T09:49:25.434000+00:00</time>
      </trkpt>
      <trkpt lat="0" lon="0">
        <time>2021-02-28T09:49:25.437000+00:00</time>
      </trkpt>
      <trkpt lat="47.34449" lon="-1.44311">
        <ele>107</ele>
        <time>2021-02-28T09:49:26.429000+00:00</time>
      </trkpt>
      <trkpt lat="0" lon="0">
        <time>2021-02-28T09:49:26.434000+00:00</time>
      </trkpt>
      <trkpt lat="0" lon="0">
        <time>2021-02-28T09:49:26.438000+00:00</time>
      </trkpt>
      <trkpt lat="0" lon="0">
        <time>2021-02-28T09:49:26.440000+00:00</time>
      </trkpt>
      <trkpt lat="47.34453" lon="-1.44305">
        <ele>107</ele>
        <time>2021-02-28T09:49:27.439000+00:00</time>
      </trkpt>
      <trkpt lat="0" lon="0">
        <time>2021-02-28T09:49:27.447000+00:00</time>
      </trkpt>
      <trkpt lat="0" lon="0">
        <time>2021-02-28T09:49:27.452000+00:00</time>
      </trkpt>
      <trkpt lat="0" lon="0">
        <time>2021-02-28T09:49:27.455000+00:00</time>
      </trkpt>
      <trkpt lat="47.34457" lon="-1.44298">
        <ele>107</ele>
        <time>2021-02-28T09:49:28.454000+00:00</time>
      </trkpt>
      <trkpt lat="0" lon="0">
        <time>2021-02-28T09:49:28.460000+00:00</time>
      </trkpt>
      <trkpt lat="0" lon="0">
        <time>2021-02-28T09:49:28.467000+00:00</time>
      </trkpt>
      <trkpt lat="0" lon="0">
        <time>2021-02-28T09:49:28.469000+00:00</time>
      </trkpt>
      <trkpt lat="47.3446" lon="-1.44292">
        <ele>106</ele>
        <time>2021-02-28T09:49:29.478000+00:00</time>
      </trkpt>
      <trkpt lat="0" lon="0">
        <time>2021-02-28T09:49:29.483000+00:00</time>
      </trkpt>
      <trkpt lat="0" lon="0">
        <time>2021-02-28T09:49:29.489000+00:00</time>
      </trkpt>
      <trkpt lat="0" lon="0">
        <time>2021-02-28T09:49:29.493000+00:00</time>
      </trkpt>
      <trkpt lat="47.34464" lon="-1.44286">
        <ele>106</ele>
        <time>2021-02-28T09:49:30.453000+00:00</time>
      </trkpt>
      <trkpt lat="0" lon="0">
        <time>2021-02-28T09:49:30.468000+00:00</time>
      </trkpt>
      <trkpt lat="0" lon="0">
        <time>2021-02-28T09:49:30.476000+00:00</time>
      </trkpt>
      <trkpt lat="0" lon="0">
        <time>2021-02-28T09:49:30.478000+00:00</time>
      </trkpt>
      <trkpt lat="47.34467" lon="-1.4428">
        <ele>106</ele>
        <time>2021-02-28T09:49:31.446000+00:00</time>
      </trkpt>
      <trkpt lat="0" lon="0">
        <time>2021-02-28T09:49:31.453000+00:00</time>
      </trkpt>
      <trkpt lat="0" lon="0">
        <time>2021-02-28T09:49:31.457000+00:00</time>
      </trkpt>
      <trkpt lat="0" lon="0">
        <time>2021-02-28T09:49:31.459000+00:00</time>
      </trkpt>
      <trkpt lat="47.34471" lon="-1.44273">
        <ele>105</ele>
        <time>2021-02-28T09:49:32.482000+00:00</time>
      </trkpt>
      <trkpt lat="0" lon="0">
        <time>2021-02-28T09:49:32.489000+00:00</time>
      </trkpt>
      <trkpt lat="0" lon="0">
        <time>2021-02-28T09:49:32.494000+00:00</time>
      </trkpt>
      <trkpt lat="0" lon="0">
        <time>2021-02-28T09:49:32.496000+00:00</time>
      </trkpt>
      <trkpt lat="47.34474" lon="-1.44267">
        <ele>106</ele>
        <time>2021-02-28T09:49:33.444000+00:00</time>
      </trkpt>
      <trkpt lat="0" lon="0">
        <time>2021-02-28T09:49:33.452000+00:00</time>
      </trkpt>
      <trkpt lat="0" lon="0">
        <time>2021-02-28T09:49:33.455000+00:00</time>
      </trkpt>
      <trkpt lat="0" lon="0">
        <time>2021-02-28T09:49:33.457000+00:00</time>
      </trkpt>
      <trkpt lat="47.34478" lon="-1.4426">
        <ele>105</ele>
        <time>2021-02-28T09:49:34.457000+00:00</time>
      </trkpt>
      <trkpt lat="0" lon="0">
        <time>2021-02-28T09:49:34.462000+00:00</time>
      </trkpt>
      <trkpt lat="0" lon="0">
        <time>2021-02-28T09:49:34.465000+00:00</time>
      </trkpt>
      <trkpt lat="0" lon="0">
        <time>2021-02-28T09:49:34.468000+00:00</time>
      </trkpt>
      <trkpt lat="47.34482" lon="-1.44254">
        <ele>105</ele>
        <time>2021-02-28T09:49:35.443000+00:00</time>
      </trkpt>
      <trkpt lat="0" lon="0">
        <time>2021-02-28T09:49:35.451000+00:00</time>
      </trkpt>
      <trkpt lat="0" lon="0">
        <time>2021-02-28T09:49:35.455000+00:00</time>
      </trkpt>
      <trkpt lat="0" lon="0">
        <time>2021-02-28T09:49:35.458000+00:00</time>
      </trkpt>
      <trkpt lat="47.34485" lon="-1.44247">
        <ele>106</ele>
        <time>2021-02-28T09:49:36.494000+00:00</time>
      </trkpt>
      <trkpt lat="0" lon="0">
        <time>2021-02-28T09:49:36.503000+00:00</time>
      </trkpt>
      <trkpt lat="0" lon="0">
        <time>2021-02-28T09:49:36.508000+00:00</time>
      </trkpt>
      <trkpt lat="0" lon="0">
        <time>2021-02-28T09:49:36.510000+00:00</time>
      </trkpt>
      <trkpt lat="47.34489" lon="-1.4424">
        <ele>106</ele>
        <time>2021-02-28T09:49:37.443000+00:00</time>
      </trkpt>
      <trkpt lat="0" lon="0">
        <time>2021-02-28T09:49:37.454000+00:00</time>
      </trkpt>
      <trkpt lat="0" lon="0">
        <time>2021-02-28T09:49:37.458000+00:00</time>
      </trkpt>
      <trkpt lat="0" lon="0">
        <time>2021-02-28T09:49:37.460000+00:00</time>
      </trkpt>
      <trkpt lat="47.34493" lon="-1.44233">
        <ele>106</ele>
        <time>2021-02-28T09:49:38.436000+00:00</time>
      </trkpt>
      <trkpt lat="0" lon="0">
        <time>2021-02-28T09:49:38.442000+00:00</time>
      </trkpt>
      <trkpt lat="0" lon="0">
        <time>2021-02-28T09:49:38.446000+00:00</time>
      </trkpt>
      <trkpt lat="0" lon="0">
        <time>2021-02-28T09:49:38.448000+00:00</time>
      </trkpt>
      <trkpt lat="47.34496" lon="-1.44225">
        <ele>106</ele>
        <time>2021-02-28T09:49:39.453000+00:00</time>
      </trkpt>
      <trkpt lat="0" lon="0">
        <time>2021-02-28T09:49:39.463000+00:00</time>
      </trkpt>
      <trkpt lat="0" lon="0">
        <time>2021-02-28T09:49:39.467000+00:00</time>
      </trkpt>
      <trkpt lat="0" lon="0">
        <time>2021-02-28T09:49:39.469000+00:00</time>
      </trkpt>
      <trkpt lat="47.34499" lon="-1.44218">
        <ele>106</ele>
        <time>2021-02-28T09:49:40.465000+00:00</time>
      </trkpt>
      <trkpt lat="0" lon="0">
        <time>2021-02-28T09:49:40.473000+00:00</time>
      </trkpt>
      <trkpt lat="0" lon="0">
        <time>2021-02-28T09:49:40.476000+00:00</time>
      </trkpt>
      <trkpt lat="0" lon="0">
        <time>2021-02-28T09:49:40.479000+00:00</time>
      </trkpt>
      <trkpt lat="47.34503" lon="-1.4421">
        <ele>105</ele>
        <time>2021-02-28T09:49:41.439000+00:00</time>
      </trkpt>
      <trkpt lat="0" lon="0">
        <time>2021-02-28T09:49:41.449000+00:00</time>
      </trkpt>
      <trkpt lat="0" lon="0">
        <time>2021-02-28T09:49:41.456000+00:00</time>
      </trkpt>
      <trkpt lat="0" lon="0">
        <time>2021-02-28T09:49:41.458000+00:00</time>
      </trkpt>
      <trkpt lat="47.34506" lon="-1.44203">
        <ele>105</ele>
        <time>2021-02-28T09:49:42.476000+00:00</time>
      </trkpt>
      <trkpt lat="0" lon="0">
        <time>2021-02-28T09:49:42.484000+00:00</time>
      </trkpt>
      <trkpt lat="0" lon="0">
        <time>2021-02-28T09:49:42.488000+00:00</time>
      </trkpt>
      <trkpt lat="0" lon="0">
        <time>2021-02-28T09:49:42.490000+00:00</time>
      </trkpt>
      <trkpt lat="47.34509" lon="-1.44195">
        <ele>106</ele>
        <time>2021-02-28T09:49:43.461000+00:00</time>
      </trkpt>
      <trkpt lat="0" lon="0">
        <time>2021-02-28T09:49:43.472000+00:00</time>
      </trkpt>
      <trkpt lat="0" lon="0">
        <time>2021-02-28T09:49:43.476000+00:00</time>
      </trkpt>
      <trkpt lat="0" lon="0">
        <time>2021-02-28T09:49:43.479000+00:00</time>
      </trkpt>
      <trkpt lat="47.34513" lon="-1.44188">
        <ele>106</ele>
        <time>2021-02-28T09:49:44.470000+00:00</time>
      </trkpt>
      <trkpt lat="0" lon="0">
        <time>2021-02-28T09:49:44.474000+00:00</time>
      </trkpt>
      <trkpt lat="0" lon="0">
        <time>2021-02-28T09:49:44.480000+00:00</time>
      </trkpt>
      <trkpt lat="0" lon="0">
        <time>2021-02-28T09:49:44.482000+00:00</time>
      </trkpt>
      <trkpt lat="47.34516" lon="-1.4418">
        <ele>106</ele>
        <time>2021-02-28T09:49:45.479000+00:00</time>
      </trkpt>
      <trkpt lat="0" lon="0">
        <time>2021-02-28T09:49:45.484000+00:00</time>
      </trkpt>
      <trkpt lat="0" lon="0">
        <time>2021-02-28T09:49:45.489000+00:00</time>
      </trkpt>
      <trkpt lat="0" lon="0">
        <time>2021-02-28T09:49:45.491000+00:00</time>
      </trkpt>
      <trkpt lat="47.34519" lon="-1.44173">
        <ele>106</ele>
        <time>2021-02-28T09:49:46.460000+00:00</time>
      </trkpt>
      <trkpt lat="0" lon="0">
        <time>2021-02-28T09:49:46.461000+00:00</time>
      </trkpt>
      <trkpt lat="0" lon="0">
        <time>2021-02-28T09:49:46.463000+00:00</time>
      </trkpt>
      <trkpt lat="0" lon="0">
        <time>2021-02-28T09:49:46.464000+00:00</time>
      </trkpt>
      <trkpt lat="47.34522" lon="-1.44165">
        <ele>106</ele>
        <time>2021-02-28T09:49:47.455000+00:00</time>
      </trkpt>
      <trkpt lat="0" lon="0">
        <time>2021-02-28T09:49:47.462000+00:00</time>
      </trkpt>
      <trkpt lat="0" lon="0">
        <time>2021-02-28T09:49:47.467000+00:00</time>
      </trkpt>
      <trkpt lat="0" lon="0">
        <time>2021-02-28T09:49:47.470000+00:00</time>
      </trkpt>
      <trkpt lat="47.34525" lon="-1.44158">
        <ele>106</ele>
        <time>2021-02-28T09:49:48.448000+00:00</time>
      </trkpt>
      <trkpt lat="0" lon="0">
        <time>2021-02-28T09:49:48.451000+00:00</time>
      </trkpt>
      <trkpt lat="0" lon="0">
        <time>2021-02-28T09:49:48.455000+00:00</time>
      </trkpt>
      <trkpt lat="0" lon="0">
        <time>2021-02-28T09:49:48.457000+00:00</time>
      </trkpt>
      <trkpt lat="47.34529" lon="-1.44151">
        <ele>106</ele>
        <time>2021-02-28T09:49:49.465000+00:00</time>
      </trkpt>
      <trkpt lat="0" lon="0">
        <time>2021-02-28T09:49:49.472000+00:00</time>
      </trkpt>
      <trkpt lat="0" lon="0">
        <time>2021-02-28T09:49:49.477000+00:00</time>
      </trkpt>
      <trkpt lat="0" lon="0">
        <time>2021-02-28T09:49:49.481000+00:00</time>
      </trkpt>
      <trkpt lat="47.34532" lon="-1.44144">
        <ele>106</ele>
        <time>2021-02-28T09:49:50.459000+00:00</time>
      </trkpt>
      <trkpt lat="0" lon="0">
        <time>2021-02-28T09:49:50.469000+00:00</time>
      </trkpt>
      <trkpt lat="0" lon="0">
        <time>2021-02-28T09:49:50.473000+00:00</time>
      </trkpt>
      <trkpt lat="0" lon="0">
        <time>2021-02-28T09:49:50.475000+00:00</time>
      </trkpt>
      <trkpt lat="47.34535" lon="-1.44137">
        <ele>106</ele>
        <time>2021-02-28T09:49:51.495000+00:00</time>
      </trkpt>
      <trkpt lat="0" lon="0">
        <time>2021-02-28T09:49:51.500000+00:00</time>
      </trkpt>
      <trkpt lat="0" lon="0">
        <time>2021-02-28T09:49:51.504000+00:00</time>
      </trkpt>
      <trkpt lat="0" lon="0">
        <time>2021-02-28T09:49:51.508000+00:00</time>
      </trkpt>
      <trkpt lat="47.34537" lon="-1.4413">
        <ele>106</ele>
        <time>2021-02-28T09:49:52.456000+00:00</time>
      </trkpt>
      <trkpt lat="0" lon="0">
        <time>2021-02-28T09:49:52.459000+00:00</time>
      </trkpt>
      <trkpt lat="0" lon="0">
        <time>2021-02-28T09:49:52.463000+00:00</time>
      </trkpt>
      <trkpt lat="0" lon="0">
        <time>2021-02-28T09:49:52.466000+00:00</time>
      </trkpt>
      <trkpt lat="47.3454" lon="-1.44123">
        <ele>106</ele>
        <time>2021-02-28T09:49:53.447000+00:00</time>
      </trkpt>
      <trkpt lat="0" lon="0">
        <time>2021-02-28T09:49:53.455000+00:00</time>
      </trkpt>
      <trkpt lat="0" lon="0">
        <time>2021-02-28T09:49:53.460000+00:00</time>
      </trkpt>
      <trkpt lat="0" lon="0">
        <time>2021-02-28T09:49:53.462000+00:00</time>
      </trkpt>
      <trkpt lat="47.34543" lon="-1.44115">
        <ele>107</ele>
        <time>2021-02-28T09:49:54.463000+00:00</time>
      </trkpt>
      <trkpt lat="0" lon="0">
        <time>2021-02-28T09:49:54.470000+00:00</time>
      </trkpt>
      <trkpt lat="0" lon="0">
        <time>2021-02-28T09:49:54.474000+00:00</time>
      </trkpt>
      <trkpt lat="0" lon="0">
        <time>2021-02-28T09:49:54.477000+00:00</time>
      </trkpt>
      <trkpt lat="47.34545" lon="-1.44107">
        <ele>107</ele>
        <time>2021-02-28T09:49:55.472000+00:00</time>
      </trkpt>
      <trkpt lat="0" lon="0">
        <time>2021-02-28T09:49:55.478000+00:00</time>
      </trkpt>
      <trkpt lat="0" lon="0">
        <time>2021-02-28T09:49:55.483000+00:00</time>
      </trkpt>
      <trkpt lat="0" lon="0">
        <time>2021-02-28T09:49:55.485000+00:00</time>
      </trkpt>
      <trkpt lat="47.34548" lon="-1.44099">
        <ele>107</ele>
        <time>2021-02-28T09:49:56.445000+00:00</time>
      </trkpt>
      <trkpt lat="0" lon="0">
        <time>2021-02-28T09:49:56.453000+00:00</time>
      </trkpt>
      <trkpt lat="0" lon="0">
        <time>2021-02-28T09:49:56.457000+00:00</time>
      </trkpt>
      <trkpt lat="0" lon="0">
        <time>2021-02-28T09:49:56.459000+00:00</time>
      </trkpt>
      <trkpt lat="47.3455" lon="-1.44091">
        <ele>107</ele>
        <time>2021-02-28T09:49:57.381000+00:00</time>
      </trkpt>
      <trkpt lat="0" lon="0">
        <time>2021-02-28T09:49:57.382000+00:00</time>
      </trkpt>
      <trkpt lat="0" lon="0">
        <time>2021-02-28T09:49:57.383000+00:00</time>
      </trkpt>
      <trkpt lat="0" lon="0">
        <time>2021-02-28T09:49:57.384000+00:00</time>
      </trkpt>
      <trkpt lat="47.34552" lon="-1.44084">
        <ele>107</ele>
        <time>2021-02-28T09:49:58.432000+00:00</time>
      </trkpt>
      <trkpt lat="0" lon="0">
        <time>2021-02-28T09:49:58.442000+00:00</time>
      </trkpt>
      <trkpt lat="0" lon="0">
        <time>2021-02-28T09:49:58.445000+00:00</time>
      </trkpt>
      <trkpt lat="0" lon="0">
        <time>2021-02-28T09:49:58.448000+00:00</time>
      </trkpt>
      <trkpt lat="47.34555" lon="-1.44076">
        <ele>107</ele>
        <time>2021-02-28T09:49:59.441000+00:00</time>
      </trkpt>
      <trkpt lat="0" lon="0">
        <time>2021-02-28T09:49:59.449000+00:00</time>
      </trkpt>
      <trkpt lat="0" lon="0">
        <time>2021-02-28T09:49:59.455000+00:00</time>
      </trkpt>
      <trkpt lat="0" lon="0">
        <time>2021-02-28T09:49:59.458000+00:00</time>
      </trkpt>
      <trkpt lat="47.34557" lon="-1.44068">
        <ele>106</ele>
        <time>2021-02-28T09:50:00.454000+00:00</time>
      </trkpt>
      <trkpt lat="0" lon="0">
        <time>2021-02-28T09:50:00.467000+00:00</time>
      </trkpt>
      <trkpt lat="0" lon="0">
        <time>2021-02-28T09:50:00.472000+00:00</time>
      </trkpt>
      <trkpt lat="0" lon="0">
        <time>2021-02-28T09:50:00.474000+00:00</time>
      </trkpt>
      <trkpt lat="47.3456" lon="-1.44061">
        <ele>106</ele>
        <time>2021-02-28T09:50:01.460000+00:00</time>
      </trkpt>
      <trkpt lat="0" lon="0">
        <time>2021-02-28T09:50:01.469000+00:00</time>
      </trkpt>
      <trkpt lat="0" lon="0">
        <time>2021-02-28T09:50:01.473000+00:00</time>
      </trkpt>
      <trkpt lat="0" lon="0">
        <time>2021-02-28T09:50:01.476000+00:00</time>
      </trkpt>
      <trkpt lat="47.34562" lon="-1.44053">
        <ele>106</ele>
        <time>2021-02-28T09:50:02.455000+00:00</time>
      </trkpt>
      <trkpt lat="0" lon="0">
        <time>2021-02-28T09:50:02.457000+00:00</time>
      </trkpt>
      <trkpt lat="0" lon="0">
        <time>2021-02-28T09:50:02.459000+00:00</time>
      </trkpt>
      <trkpt lat="0" lon="0">
        <time>2021-02-28T09:50:02.460000+00:00</time>
      </trkpt>
      <trkpt lat="47.34564" lon="-1.44046">
        <ele>105</ele>
        <time>2021-02-28T09:50:03.456000+00:00</time>
      </trkpt>
      <trkpt lat="0" lon="0">
        <time>2021-02-28T09:50:03.460000+00:00</time>
      </trkpt>
      <trkpt lat="0" lon="0">
        <time>2021-02-28T09:50:03.462000+00:00</time>
      </trkpt>
      <trkpt lat="0" lon="0">
        <time>2021-02-28T09:50:03.464000+00:00</time>
      </trkpt>
      <trkpt lat="47.34566" lon="-1.44038">
        <ele>105</ele>
        <time>2021-02-28T09:50:04.460000+00:00</time>
      </trkpt>
      <trkpt lat="0" lon="0">
        <time>2021-02-28T09:50:04.467000+00:00</time>
      </trkpt>
      <trkpt lat="0" lon="0">
        <time>2021-02-28T09:50:04.472000+00:00</time>
      </trkpt>
      <trkpt lat="0" lon="0">
        <time>2021-02-28T09:50:04.475000+00:00</time>
      </trkpt>
      <trkpt lat="47.34569" lon="-1.44031">
        <ele>105</ele>
        <time>2021-02-28T09:50:05.467000+00:00</time>
      </trkpt>
      <trkpt lat="0" lon="0">
        <time>2021-02-28T09:50:05.479000+00:00</time>
      </trkpt>
      <trkpt lat="0" lon="0">
        <time>2021-02-28T09:50:05.482000+00:00</time>
      </trkpt>
      <trkpt lat="0" lon="0">
        <time>2021-02-28T09:50:05.485000+00:00</time>
      </trkpt>
      <trkpt lat="47.34571" lon="-1.44024">
        <ele>105</ele>
        <time>2021-02-28T09:50:06.357000+00:00</time>
      </trkpt>
      <trkpt lat="0" lon="0">
        <time>2021-02-28T09:50:06.361000+00:00</time>
      </trkpt>
      <trkpt lat="0" lon="0">
        <time>2021-02-28T09:50:06.364000+00:00</time>
      </trkpt>
      <trkpt lat="0" lon="0">
        <time>2021-02-28T09:50:06.365000+00:00</time>
      </trkpt>
      <trkpt lat="47.34573" lon="-1.44016">
        <ele>105</ele>
        <time>2021-02-28T09:50:07.441000+00:00</time>
      </trkpt>
      <trkpt lat="0" lon="0">
        <time>2021-02-28T09:50:07.449000+00:00</time>
      </trkpt>
      <trkpt lat="0" lon="0">
        <time>2021-02-28T09:50:07.457000+00:00</time>
      </trkpt>
      <trkpt lat="0" lon="0">
        <time>2021-02-28T09:50:07.459000+00:00</time>
      </trkpt>
      <trkpt lat="47.34576" lon="-1.44008">
        <ele>104</ele>
        <time>2021-02-28T09:50:08.457000+00:00</time>
      </trkpt>
      <trkpt lat="0" lon="0">
        <time>2021-02-28T09:50:08.468000+00:00</time>
      </trkpt>
      <trkpt lat="0" lon="0">
        <time>2021-02-28T09:50:08.477000+00:00</time>
      </trkpt>
      <trkpt lat="0" lon="0">
        <time>2021-02-28T09:50:08.481000+00:00</time>
      </trkpt>
      <trkpt lat="47.34578" lon="-1.44001">
        <ele>104</ele>
        <time>2021-02-28T09:50:09.462000+00:00</time>
      </trkpt>
      <trkpt lat="0" lon="0">
        <time>2021-02-28T09:50:09.474000+00:00</time>
      </trkpt>
      <trkpt lat="0" lon="0">
        <time>2021-02-28T09:50:09.479000+00:00</time>
      </trkpt>
      <trkpt lat="0" lon="0">
        <time>2021-02-28T09:50:09.481000+00:00</time>
      </trkpt>
      <trkpt lat="47.3458" lon="-1.43994">
        <ele>104</ele>
        <time>2021-02-28T09:50:10.462000+00:00</time>
      </trkpt>
      <trkpt lat="0" lon="0">
        <time>2021-02-28T09:50:10.475000+00:00</time>
      </trkpt>
      <trkpt lat="0" lon="0">
        <time>2021-02-28T09:50:10.481000+00:00</time>
      </trkpt>
      <trkpt lat="0" lon="0">
        <time>2021-02-28T09:50:10.483000+00:00</time>
      </trkpt>
      <trkpt lat="47.34582" lon="-1.43986">
        <ele>104</ele>
        <time>2021-02-28T09:50:11.470000+00:00</time>
      </trkpt>
      <trkpt lat="0" lon="0">
        <time>2021-02-28T09:50:11.480000+00:00</time>
      </trkpt>
      <trkpt lat="0" lon="0">
        <time>2021-02-28T09:50:11.483000+00:00</time>
      </trkpt>
      <trkpt lat="0" lon="0">
        <time>2021-02-28T09:50:11.485000+00:00</time>
      </trkpt>
      <trkpt lat="47.34585" lon="-1.43979">
        <ele>104</ele>
        <time>2021-02-28T09:50:12.406000+00:00</time>
      </trkpt>
      <trkpt lat="0" lon="0">
        <time>2021-02-28T09:50:12.409000+00:00</time>
      </trkpt>
      <trkpt lat="0" lon="0">
        <time>2021-02-28T09:50:12.410000+00:00</time>
      </trkpt>
      <trkpt lat="0" lon="0">
        <time>2021-02-28T09:50:12.411000+00:00</time>
      </trkpt>
      <trkpt lat="47.34587" lon="-1.43971">
        <ele>104</ele>
        <time>2021-02-28T09:50:13.429000+00:00</time>
      </trkpt>
      <trkpt lat="0" lon="0">
        <time>2021-02-28T09:50:13.434000+00:00</time>
      </trkpt>
      <trkpt lat="0" lon="0">
        <time>2021-02-28T09:50:13.439000+00:00</time>
      </trkpt>
      <trkpt lat="0" lon="0">
        <time>2021-02-28T09:50:13.441000+00:00</time>
      </trkpt>
      <trkpt lat="47.34589" lon="-1.43964">
        <ele>104</ele>
        <time>2021-02-28T09:50:14.421000+00:00</time>
      </trkpt>
      <trkpt lat="0" lon="0">
        <time>2021-02-28T09:50:14.428000+00:00</time>
      </trkpt>
      <trkpt lat="0" lon="0">
        <time>2021-02-28T09:50:14.432000+00:00</time>
      </trkpt>
      <trkpt lat="0" lon="0">
        <time>2021-02-28T09:50:14.434000+00:00</time>
      </trkpt>
      <trkpt lat="47.34591" lon="-1.43956">
        <ele>104</ele>
        <time>2021-02-28T09:50:15.448000+00:00</time>
      </trkpt>
      <trkpt lat="0" lon="0">
        <time>2021-02-28T09:50:15.456000+00:00</time>
      </trkpt>
      <trkpt lat="0" lon="0">
        <time>2021-02-28T09:50:15.459000+00:00</time>
      </trkpt>
      <trkpt lat="0" lon="0">
        <time>2021-02-28T09:50:15.461000+00:00</time>
      </trkpt>
      <trkpt lat="47.34593" lon="-1.43949">
        <ele>104</ele>
        <time>2021-02-28T09:50:16.451000+00:00</time>
      </trkpt>
      <trkpt lat="0" lon="0">
        <time>2021-02-28T09:50:16.460000+00:00</time>
      </trkpt>
      <trkpt lat="0" lon="0">
        <time>2021-02-28T09:50:16.466000+00:00</time>
      </trkpt>
      <trkpt lat="0" lon="0">
        <time>2021-02-28T09:50:16.468000+00:00</time>
      </trkpt>
      <trkpt lat="47.34594" lon="-1.43941">
        <ele>103</ele>
        <time>2021-02-28T09:50:17.435000+00:00</time>
      </trkpt>
      <trkpt lat="0" lon="0">
        <time>2021-02-28T09:50:17.437000+00:00</time>
      </trkpt>
      <trkpt lat="0" lon="0">
        <time>2021-02-28T09:50:17.442000+00:00</time>
      </trkpt>
      <trkpt lat="0" lon="0">
        <time>2021-02-28T09:50:17.443000+00:00</time>
      </trkpt>
      <trkpt lat="47.34596" lon="-1.43934">
        <ele>103</ele>
        <time>2021-02-28T09:50:18.417000+00:00</time>
      </trkpt>
      <trkpt lat="0" lon="0">
        <time>2021-02-28T09:50:18.421000+00:00</time>
      </trkpt>
      <trkpt lat="0" lon="0">
        <time>2021-02-28T09:50:18.423000+00:00</time>
      </trkpt>
      <trkpt lat="0" lon="0">
        <time>2021-02-28T09:50:18.424000+00:00</time>
      </trkpt>
      <trkpt lat="47.34598" lon="-1.43926">
        <ele>103</ele>
        <time>2021-02-28T09:50:19.420000+00:00</time>
      </trkpt>
      <trkpt lat="0" lon="0">
        <time>2021-02-28T09:50:19.423000+00:00</time>
      </trkpt>
      <trkpt lat="0" lon="0">
        <time>2021-02-28T09:50:19.425000+00:00</time>
      </trkpt>
      <trkpt lat="0" lon="0">
        <time>2021-02-28T09:50:19.426000+00:00</time>
      </trkpt>
      <trkpt lat="47.346" lon="-1.43918">
        <ele>103</ele>
        <time>2021-02-28T09:50:20.467000+00:00</time>
      </trkpt>
      <trkpt lat="0" lon="0">
        <time>2021-02-28T09:50:20.472000+00:00</time>
      </trkpt>
      <trkpt lat="0" lon="0">
        <time>2021-02-28T09:50:20.477000+00:00</time>
      </trkpt>
      <trkpt lat="0" lon="0">
        <time>2021-02-28T09:50:20.479000+00:00</time>
      </trkpt>
      <trkpt lat="47.34602" lon="-1.4391">
        <ele>103</ele>
        <time>2021-02-28T09:50:21.479000+00:00</time>
      </trkpt>
      <trkpt lat="0" lon="0">
        <time>2021-02-28T09:50:21.482000+00:00</time>
      </trkpt>
      <trkpt lat="0" lon="0">
        <time>2021-02-28T09:50:21.484000+00:00</time>
      </trkpt>
      <trkpt lat="0" lon="0">
        <time>2021-02-28T09:50:21.485000+00:00</time>
      </trkpt>
      <trkpt lat="47.34604" lon="-1.43901">
        <ele>102</ele>
        <time>2021-02-28T09:50:22.444000+00:00</time>
      </trkpt>
      <trkpt lat="0" lon="0">
        <time>2021-02-28T09:50:22.451000+00:00</time>
      </trkpt>
      <trkpt lat="0" lon="0">
        <time>2021-02-28T09:50:22.457000+00:00</time>
      </trkpt>
      <trkpt lat="0" lon="0">
        <time>2021-02-28T09:50:22.460000+00:00</time>
      </trkpt>
      <trkpt lat="47.34605" lon="-1.43893">
        <ele>102</ele>
        <time>2021-02-28T09:50:23.455000+00:00</time>
      </trkpt>
      <trkpt lat="0" lon="0">
        <time>2021-02-28T09:50:23.461000+00:00</time>
      </trkpt>
      <trkpt lat="0" lon="0">
        <time>2021-02-28T09:50:23.467000+00:00</time>
      </trkpt>
      <trkpt lat="0" lon="0">
        <time>2021-02-28T09:50:23.470000+00:00</time>
      </trkpt>
      <trkpt lat="47.34607" lon="-1.43885">
        <ele>102</ele>
        <time>2021-02-28T09:50:24.459000+00:00</time>
      </trkpt>
      <trkpt lat="0" lon="0">
        <time>2021-02-28T09:50:24.468000+00:00</time>
      </trkpt>
      <trkpt lat="0" lon="0">
        <time>2021-02-28T09:50:24.472000+00:00</time>
      </trkpt>
      <trkpt lat="0" lon="0">
        <time>2021-02-28T09:50:24.475000+00:00</time>
      </trkpt>
      <trkpt lat="47.34608" lon="-1.43877">
        <ele>102</ele>
        <time>2021-02-28T09:50:25.443000+00:00</time>
      </trkpt>
      <trkpt lat="0" lon="0">
        <time>2021-02-28T09:50:25.457000+00:00</time>
      </trkpt>
      <trkpt lat="0" lon="0">
        <time>2021-02-28T09:50:25.462000+00:00</time>
      </trkpt>
      <trkpt lat="0" lon="0">
        <time>2021-02-28T09:50:25.464000+00:00</time>
      </trkpt>
      <trkpt lat="47.34609" lon="-1.43869">
        <ele>102</ele>
        <time>2021-02-28T09:50:26.439000+00:00</time>
      </trkpt>
      <trkpt lat="0" lon="0">
        <time>2021-02-28T09:50:26.443000+00:00</time>
      </trkpt>
      <trkpt lat="0" lon="0">
        <time>2021-02-28T09:50:26.447000+00:00</time>
      </trkpt>
      <trkpt lat="0" lon="0">
        <time>2021-02-28T09:50:26.450000+00:00</time>
      </trkpt>
      <trkpt lat="47.3461" lon="-1.43861">
        <ele>102</ele>
        <time>2021-02-28T09:50:27.431000+00:00</time>
      </trkpt>
      <trkpt lat="0" lon="0">
        <time>2021-02-28T09:50:27.442000+00:00</time>
      </trkpt>
      <trkpt lat="0" lon="0">
        <time>2021-02-28T09:50:27.451000+00:00</time>
      </trkpt>
      <trkpt lat="0" lon="0">
        <time>2021-02-28T09:50:27.456000+00:00</time>
      </trkpt>
      <trkpt lat="47.34612" lon="-1.43853">
        <ele>102</ele>
        <time>2021-02-28T09:50:28.458000+00:00</time>
      </trkpt>
      <trkpt lat="0" lon="0">
        <time>2021-02-28T09:50:28.462000+00:00</time>
      </trkpt>
      <trkpt lat="0" lon="0">
        <time>2021-02-28T09:50:28.466000+00:00</time>
      </trkpt>
      <trkpt lat="0" lon="0">
        <time>2021-02-28T09:50:28.468000+00:00</time>
      </trkpt>
      <trkpt lat="47.34613" lon="-1.43845">
        <ele>102</ele>
        <time>2021-02-28T09:50:29.455000+00:00</time>
      </trkpt>
      <trkpt lat="0" lon="0">
        <time>2021-02-28T09:50:29.464000+00:00</time>
      </trkpt>
      <trkpt lat="0" lon="0">
        <time>2021-02-28T09:50:29.468000+00:00</time>
      </trkpt>
      <trkpt lat="0" lon="0">
        <time>2021-02-28T09:50:29.471000+00:00</time>
      </trkpt>
      <trkpt lat="47.34615" lon="-1.43837">
        <ele>102</ele>
        <time>2021-02-28T09:50:30.457000+00:00</time>
      </trkpt>
      <trkpt lat="0" lon="0">
        <time>2021-02-28T09:50:30.465000+00:00</time>
      </trkpt>
      <trkpt lat="0" lon="0">
        <time>2021-02-28T09:50:30.473000+00:00</time>
      </trkpt>
      <trkpt lat="0" lon="0">
        <time>2021-02-28T09:50:30.476000+00:00</time>
      </trkpt>
      <trkpt lat="47.34616" lon="-1.43829">
        <ele>102</ele>
        <time>2021-02-28T09:50:31.458000+00:00</time>
      </trkpt>
      <trkpt lat="0" lon="0">
        <time>2021-02-28T09:50:31.468000+00:00</time>
      </trkpt>
      <trkpt lat="0" lon="0">
        <time>2021-02-28T09:50:31.472000+00:00</time>
      </trkpt>
      <trkpt lat="0" lon="0">
        <time>2021-02-28T09:50:31.474000+00:00</time>
      </trkpt>
      <trkpt lat="47.34618" lon="-1.43821">
        <ele>102</ele>
        <time>2021-02-28T09:50:32.440000+00:00</time>
      </trkpt>
      <trkpt lat="0" lon="0">
        <time>2021-02-28T09:50:32.449000+00:00</time>
      </trkpt>
      <trkpt lat="0" lon="0">
        <time>2021-02-28T09:50:32.454000+00:00</time>
      </trkpt>
      <trkpt lat="0" lon="0">
        <time>2021-02-28T09:50:32.455000+00:00</time>
      </trkpt>
      <trkpt lat="47.34619" lon="-1.43813">
        <ele>102</ele>
        <time>2021-02-28T09:50:33.441000+00:00</time>
      </trkpt>
      <trkpt lat="0" lon="0">
        <time>2021-02-28T09:50:33.449000+00:00</time>
      </trkpt>
      <trkpt lat="0" lon="0">
        <time>2021-02-28T09:50:33.453000+00:00</time>
      </trkpt>
      <trkpt lat="0" lon="0">
        <time>2021-02-28T09:50:33.455000+00:00</time>
      </trkpt>
      <trkpt lat="47.34621" lon="-1.43805">
        <ele>102</ele>
        <time>2021-02-28T09:50:34.446000+00:00</time>
      </trkpt>
      <trkpt lat="0" lon="0">
        <time>2021-02-28T09:50:34.456000+00:00</time>
      </trkpt>
      <trkpt lat="0" lon="0">
        <time>2021-02-28T09:50:34.460000+00:00</time>
      </trkpt>
      <trkpt lat="0" lon="0">
        <time>2021-02-28T09:50:34.462000+00:00</time>
      </trkpt>
      <trkpt lat="47.34622" lon="-1.43798">
        <ele>101</ele>
        <time>2021-02-28T09:50:35.453000+00:00</time>
      </trkpt>
      <trkpt lat="0" lon="0">
        <time>2021-02-28T09:50:35.460000+00:00</time>
      </trkpt>
      <trkpt lat="0" lon="0">
        <time>2021-02-28T09:50:35.464000+00:00</time>
      </trkpt>
      <trkpt lat="0" lon="0">
        <time>2021-02-28T09:50:35.466000+00:00</time>
      </trkpt>
      <trkpt lat="47.34624" lon="-1.4379">
        <ele>101</ele>
        <time>2021-02-28T09:50:36.478000+00:00</time>
      </trkpt>
      <trkpt lat="0" lon="0">
        <time>2021-02-28T09:50:36.491000+00:00</time>
      </trkpt>
      <trkpt lat="0" lon="0">
        <time>2021-02-28T09:50:36.496000+00:00</time>
      </trkpt>
      <trkpt lat="0" lon="0">
        <time>2021-02-28T09:50:36.498000+00:00</time>
      </trkpt>
      <trkpt lat="47.34625" lon="-1.43783">
        <ele>101</ele>
        <time>2021-02-28T09:50:37.472000+00:00</time>
      </trkpt>
      <trkpt lat="0" lon="0">
        <time>2021-02-28T09:50:37.475000+00:00</time>
      </trkpt>
      <trkpt lat="0" lon="0">
        <time>2021-02-28T09:50:37.478000+00:00</time>
      </trkpt>
      <trkpt lat="0" lon="0">
        <time>2021-02-28T09:50:37.480000+00:00</time>
      </trkpt>
      <trkpt lat="47.34626" lon="-1.43776">
        <ele>101</ele>
        <time>2021-02-28T09:50:38.473000+00:00</time>
      </trkpt>
      <trkpt lat="0" lon="0">
        <time>2021-02-28T09:50:38.484000+00:00</time>
      </trkpt>
      <trkpt lat="0" lon="0">
        <time>2021-02-28T09:50:38.489000+00:00</time>
      </trkpt>
      <trkpt lat="0" lon="0">
        <time>2021-02-28T09:50:38.491000+00:00</time>
      </trkpt>
      <trkpt lat="47.34627" lon="-1.43768">
        <ele>101</ele>
        <time>2021-02-28T09:50:39.460000+00:00</time>
      </trkpt>
      <trkpt lat="0" lon="0">
        <time>2021-02-28T09:50:39.465000+00:00</time>
      </trkpt>
      <trkpt lat="0" lon="0">
        <time>2021-02-28T09:50:39.469000+00:00</time>
      </trkpt>
      <trkpt lat="0" lon="0">
        <time>2021-02-28T09:50:39.472000+00:00</time>
      </trkpt>
      <trkpt lat="47.34628" lon="-1.43761">
        <ele>101</ele>
        <time>2021-02-28T09:50:40.458000+00:00</time>
      </trkpt>
      <trkpt lat="0" lon="0">
        <time>2021-02-28T09:50:40.460000+00:00</time>
      </trkpt>
      <trkpt lat="0" lon="0">
        <time>2021-02-28T09:50:40.461000+00:00</time>
      </trkpt>
      <trkpt lat="0" lon="0">
        <time>2021-02-28T09:50:40.463000+00:00</time>
      </trkpt>
      <trkpt lat="47.34629" lon="-1.43753">
        <ele>101</ele>
        <time>2021-02-28T09:50:41.483000+00:00</time>
      </trkpt>
      <trkpt lat="0" lon="0">
        <time>2021-02-28T09:50:41.488000+00:00</time>
      </trkpt>
      <trkpt lat="0" lon="0">
        <time>2021-02-28T09:50:41.492000+00:00</time>
      </trkpt>
      <trkpt lat="0" lon="0">
        <time>2021-02-28T09:50:41.494000+00:00</time>
      </trkpt>
      <trkpt lat="47.3463" lon="-1.43746">
        <ele>101</ele>
        <time>2021-02-28T09:50:42.490000+00:00</time>
      </trkpt>
      <trkpt lat="0" lon="0">
        <time>2021-02-28T09:50:42.492000+00:00</time>
      </trkpt>
      <trkpt lat="0" lon="0">
        <time>2021-02-28T09:50:42.494000+00:00</time>
      </trkpt>
      <trkpt lat="0" lon="0">
        <time>2021-02-28T09:50:42.495000+00:00</time>
      </trkpt>
      <trkpt lat="47.34631" lon="-1.43738">
        <ele>101</ele>
        <time>2021-02-28T09:50:43.451000+00:00</time>
      </trkpt>
      <trkpt lat="0" lon="0">
        <time>2021-02-28T09:50:43.461000+00:00</time>
      </trkpt>
      <trkpt lat="0" lon="0">
        <time>2021-02-28T09:50:43.465000+00:00</time>
      </trkpt>
      <trkpt lat="0" lon="0">
        <time>2021-02-28T09:50:43.467000+00:00</time>
      </trkpt>
      <trkpt lat="47.34631" lon="-1.4373">
        <ele>100</ele>
        <time>2021-02-28T09:50:44.429000+00:00</time>
      </trkpt>
      <trkpt lat="0" lon="0">
        <time>2021-02-28T09:50:44.436000+00:00</time>
      </trkpt>
      <trkpt lat="0" lon="0">
        <time>2021-02-28T09:50:44.437000+00:00</time>
      </trkpt>
      <trkpt lat="47.34632" lon="-1.43722">
        <ele>100</ele>
        <time>2021-02-28T09:50:45.377000+00:00</time>
      </trkpt>
      <trkpt lat="0" lon="0">
        <time>2021-02-28T09:50:45.384000+00:00</time>
      </trkpt>
      <trkpt lat="0" lon="0">
        <time>2021-02-28T09:50:45.388000+00:00</time>
      </trkpt>
      <trkpt lat="0" lon="0">
        <time>2021-02-28T09:50:45.390000+00:00</time>
      </trkpt>
      <trkpt lat="47.34633" lon="-1.43715">
        <ele>100</ele>
        <time>2021-02-28T09:50:46.444000+00:00</time>
      </trkpt>
      <trkpt lat="0" lon="0">
        <time>2021-02-28T09:50:46.456000+00:00</time>
      </trkpt>
      <trkpt lat="0" lon="0">
        <time>2021-02-28T09:50:46.463000+00:00</time>
      </trkpt>
      <trkpt lat="0" lon="0">
        <time>2021-02-28T09:50:46.465000+00:00</time>
      </trkpt>
      <trkpt lat="47.34633" lon="-1.43707">
        <ele>100</ele>
        <time>2021-02-28T09:50:47.497000+00:00</time>
      </trkpt>
      <trkpt lat="0" lon="0">
        <time>2021-02-28T09:50:47.501000+00:00</time>
      </trkpt>
      <trkpt lat="0" lon="0">
        <time>2021-02-28T09:50:47.507000+00:00</time>
      </trkpt>
      <trkpt lat="0" lon="0">
        <time>2021-02-28T09:50:47.511000+00:00</time>
      </trkpt>
      <trkpt lat="47.34634" lon="-1.43699">
        <ele>100</ele>
        <time>2021-02-28T09:50:48.500000+00:00</time>
      </trkpt>
      <trkpt lat="0" lon="0">
        <time>2021-02-28T09:50:48.502000+00:00</time>
      </trkpt>
      <trkpt lat="0" lon="0">
        <time>2021-02-28T09:50:48.505000+00:00</time>
      </trkpt>
      <trkpt lat="0" lon="0">
        <time>2021-02-28T09:50:48.507000+00:00</time>
      </trkpt>
      <trkpt lat="47.34635" lon="-1.43692">
        <ele>100</ele>
        <time>2021-02-28T09:50:49.505000+00:00</time>
      </trkpt>
      <trkpt lat="0" lon="0">
        <time>2021-02-28T09:50:49.511000+00:00</time>
      </trkpt>
      <trkpt lat="0" lon="0">
        <time>2021-02-28T09:50:49.514000+00:00</time>
      </trkpt>
      <trkpt lat="0" lon="0">
        <time>2021-02-28T09:50:49.516000+00:00</time>
      </trkpt>
      <trkpt lat="47.34636" lon="-1.43684">
        <ele>100</ele>
        <time>2021-02-28T09:50:50.488000+00:00</time>
      </trkpt>
      <trkpt lat="0" lon="0">
        <time>2021-02-28T09:50:50.494000+00:00</time>
      </trkpt>
      <trkpt lat="0" lon="0">
        <time>2021-02-28T09:50:50.499000+00:00</time>
      </trkpt>
      <trkpt lat="0" lon="0">
        <time>2021-02-28T09:50:50.502000+00:00</time>
      </trkpt>
      <trkpt lat="47.34636" lon="-1.43676">
        <ele>100</ele>
        <time>2021-02-28T09:50:51.481000+00:00</time>
      </trkpt>
      <trkpt lat="0" lon="0">
        <time>2021-02-28T09:50:51.490000+00:00</time>
      </trkpt>
      <trkpt lat="0" lon="0">
        <time>2021-02-28T09:50:51.494000+00:00</time>
      </trkpt>
      <trkpt lat="0" lon="0">
        <time>2021-02-28T09:50:51.497000+00:00</time>
      </trkpt>
      <trkpt lat="47.34636" lon="-1.43668">
        <ele>100</ele>
        <time>2021-02-28T09:50:52.482000+00:00</time>
      </trkpt>
      <trkpt lat="0" lon="0">
        <time>2021-02-28T09:50:52.487000+00:00</time>
      </trkpt>
      <trkpt lat="0" lon="0">
        <time>2021-02-28T09:50:52.493000+00:00</time>
      </trkpt>
      <trkpt lat="0" lon="0">
        <time>2021-02-28T09:50:52.495000+00:00</time>
      </trkpt>
      <trkpt lat="47.34637" lon="-1.4366">
        <ele>100</ele>
        <time>2021-02-28T09:50:53.368000+00:00</time>
      </trkpt>
      <trkpt lat="0" lon="0">
        <time>2021-02-28T09:50:53.370000+00:00</time>
      </trkpt>
      <trkpt lat="0" lon="0">
        <time>2021-02-28T09:50:53.372000+00:00</time>
      </trkpt>
      <trkpt lat="0" lon="0">
        <time>2021-02-28T09:50:53.373000+00:00</time>
      </trkpt>
      <trkpt lat="47.34637" lon="-1.43652">
        <ele>100</ele>
        <time>2021-02-28T09:50:54.467000+00:00</time>
      </trkpt>
      <trkpt lat="0" lon="0">
        <time>2021-02-28T09:50:54.474000+00:00</time>
      </trkpt>
      <trkpt lat="0" lon="0">
        <time>2021-02-28T09:50:54.483000+00:00</time>
      </trkpt>
      <trkpt lat="0" lon="0">
        <time>2021-02-28T09:50:54.485000+00:00</time>
      </trkpt>
      <trkpt lat="47.34637" lon="-1.43644">
        <ele>100</ele>
        <time>2021-02-28T09:50:55.392000+00:00</time>
      </trkpt>
      <trkpt lat="0" lon="0">
        <time>2021-02-28T09:50:55.400000+00:00</time>
      </trkpt>
      <trkpt lat="0" lon="0">
        <time>2021-02-28T09:50:55.403000+00:00</time>
      </trkpt>
      <trkpt lat="0" lon="0">
        <time>2021-02-28T09:50:55.405000+00:00</time>
      </trkpt>
      <trkpt lat="47.34638" lon="-1.43636">
        <ele>100</ele>
        <time>2021-02-28T09:50:56.472000+00:00</time>
      </trkpt>
      <trkpt lat="0" lon="0">
        <time>2021-02-28T09:50:56.478000+00:00</time>
      </trkpt>
      <trkpt lat="0" lon="0">
        <time>2021-02-28T09:50:56.482000+00:00</time>
      </trkpt>
      <trkpt lat="0" lon="0">
        <time>2021-02-28T09:50:56.485000+00:00</time>
      </trkpt>
      <trkpt lat="47.34638" lon="-1.43628">
        <ele>100</ele>
        <time>2021-02-28T09:50:57.468000+00:00</time>
      </trkpt>
      <trkpt lat="0" lon="0">
        <time>2021-02-28T09:50:57.478000+00:00</time>
      </trkpt>
      <trkpt lat="0" lon="0">
        <time>2021-02-28T09:50:57.485000+00:00</time>
      </trkpt>
      <trkpt lat="0" lon="0">
        <time>2021-02-28T09:50:57.488000+00:00</time>
      </trkpt>
      <trkpt lat="47.34639" lon="-1.4362">
        <ele>99</ele>
        <time>2021-02-28T09:50:58.446000+00:00</time>
      </trkpt>
      <trkpt lat="0" lon="0">
        <time>2021-02-28T09:50:58.454000+00:00</time>
      </trkpt>
      <trkpt lat="0" lon="0">
        <time>2021-02-28T09:50:58.458000+00:00</time>
      </trkpt>
      <trkpt lat="0" lon="0">
        <time>2021-02-28T09:50:58.461000+00:00</time>
      </trkpt>
      <trkpt lat="47.34639" lon="-1.43613">
        <ele>99</ele>
        <time>2021-02-28T09:50:59.496000+00:00</time>
      </trkpt>
      <trkpt lat="0" lon="0">
        <time>2021-02-28T09:50:59.498000+00:00</time>
      </trkpt>
      <trkpt lat="0" lon="0">
        <time>2021-02-28T09:50:59.500000+00:00</time>
      </trkpt>
      <trkpt lat="0" lon="0">
        <time>2021-02-28T09:50:59.501000+00:00</time>
      </trkpt>
      <trkpt lat="47.3464" lon="-1.43605">
        <ele>99</ele>
        <time>2021-02-28T09:51:00.477000+00:00</time>
      </trkpt>
      <trkpt lat="0" lon="0">
        <time>2021-02-28T09:51:00.482000+00:00</time>
      </trkpt>
      <trkpt lat="0" lon="0">
        <time>2021-02-28T09:51:00.489000+00:00</time>
      </trkpt>
      <trkpt lat="0" lon="0">
        <time>2021-02-28T09:51:00.492000+00:00</time>
      </trkpt>
      <trkpt lat="47.3464" lon="-1.43597">
        <ele>99</ele>
        <time>2021-02-28T09:51:01.482000+00:00</time>
      </trkpt>
      <trkpt lat="0" lon="0">
        <time>2021-02-28T09:51:01.488000+00:00</time>
      </trkpt>
      <trkpt lat="0" lon="0">
        <time>2021-02-28T09:51:01.491000+00:00</time>
      </trkpt>
      <trkpt lat="0" lon="0">
        <time>2021-02-28T09:51:01.493000+00:00</time>
      </trkpt>
      <trkpt lat="47.34641" lon="-1.43589">
        <ele>99</ele>
        <time>2021-02-28T09:51:02.466000+00:00</time>
      </trkpt>
      <trkpt lat="0" lon="0">
        <time>2021-02-28T09:51:02.472000+00:00</time>
      </trkpt>
      <trkpt lat="0" lon="0">
        <time>2021-02-28T09:51:02.477000+00:00</time>
      </trkpt>
      <trkpt lat="0" lon="0">
        <time>2021-02-28T09:51:02.480000+00:00</time>
      </trkpt>
      <trkpt lat="47.34642" lon="-1.43581">
        <ele>99</ele>
        <time>2021-02-28T09:51:03.374000+00:00</time>
      </trkpt>
      <trkpt lat="0" lon="0">
        <time>2021-02-28T09:51:03.375000+00:00</time>
      </trkpt>
      <trkpt lat="0" lon="0">
        <time>2021-02-28T09:51:03.377000+00:00</time>
      </trkpt>
      <trkpt lat="0" lon="0">
        <time>2021-02-28T09:51:03.378000+00:00</time>
      </trkpt>
      <trkpt lat="47.34642" lon="-1.43573">
        <ele>99</ele>
        <time>2021-02-28T09:51:04.459000+00:00</time>
      </trkpt>
      <trkpt lat="0" lon="0">
        <time>2021-02-28T09:51:04.467000+00:00</time>
      </trkpt>
      <trkpt lat="0" lon="0">
        <time>2021-02-28T09:51:04.470000+00:00</time>
      </trkpt>
      <trkpt lat="0" lon="0">
        <time>2021-02-28T09:51:04.472000+00:00</time>
      </trkpt>
      <trkpt lat="47.34642" lon="-1.43565">
        <ele>99</ele>
        <time>2021-02-28T09:51:05.440000+00:00</time>
      </trkpt>
      <trkpt lat="0" lon="0">
        <time>2021-02-28T09:51:05.445000+00:00</time>
      </trkpt>
      <trkpt lat="0" lon="0">
        <time>2021-02-28T09:51:05.450000+00:00</time>
      </trkpt>
      <trkpt lat="0" lon="0">
        <time>2021-02-28T09:51:05.453000+00:00</time>
      </trkpt>
      <trkpt lat="47.34643" lon="-1.43557">
        <ele>99</ele>
        <time>2021-02-28T09:51:06.456000+00:00</time>
      </trkpt>
      <trkpt lat="0" lon="0">
        <time>2021-02-28T09:51:06.464000+00:00</time>
      </trkpt>
      <trkpt lat="0" lon="0">
        <time>2021-02-28T09:51:06.468000+00:00</time>
      </trkpt>
      <trkpt lat="0" lon="0">
        <time>2021-02-28T09:51:06.471000+00:00</time>
      </trkpt>
      <trkpt lat="47.34643" lon="-1.43549">
        <ele>99</ele>
        <time>2021-02-28T09:51:07.453000+00:00</time>
      </trkpt>
      <trkpt lat="0" lon="0">
        <time>2021-02-28T09:51:07.457000+00:00</time>
      </trkpt>
      <trkpt lat="0" lon="0">
        <time>2021-02-28T09:51:07.461000+00:00</time>
      </trkpt>
      <trkpt lat="0" lon="0">
        <time>2021-02-28T09:51:07.464000+00:00</time>
      </trkpt>
      <trkpt lat="47.34642" lon="-1.43541">
        <ele>99</ele>
        <time>2021-02-28T09:51:08.466000+00:00</time>
      </trkpt>
      <trkpt lat="0" lon="0">
        <time>2021-02-28T09:51:08.470000+00:00</time>
      </trkpt>
      <trkpt lat="0" lon="0">
        <time>2021-02-28T09:51:08.473000+00:00</time>
      </trkpt>
      <trkpt lat="0" lon="0">
        <time>2021-02-28T09:51:08.474000+00:00</time>
      </trkpt>
      <trkpt lat="47.34642" lon="-1.43533">
        <ele>100</ele>
        <time>2021-02-28T09:51:09.465000+00:00</time>
      </trkpt>
      <trkpt lat="0" lon="0">
        <time>2021-02-28T09:51:09.471000+00:00</time>
      </trkpt>
      <trkpt lat="0" lon="0">
        <time>2021-02-28T09:51:09.477000+00:00</time>
      </trkpt>
      <trkpt lat="0" lon="0">
        <time>2021-02-28T09:51:09.479000+00:00</time>
      </trkpt>
      <trkpt lat="47.34642" lon="-1.43525">
        <ele>99</ele>
        <time>2021-02-28T09:51:10.458000+00:00</time>
      </trkpt>
      <trkpt lat="0" lon="0">
        <time>2021-02-28T09:51:10.465000+00:00</time>
      </trkpt>
      <trkpt lat="0" lon="0">
        <time>2021-02-28T09:51:10.469000+00:00</time>
      </trkpt>
      <trkpt lat="0" lon="0">
        <time>2021-02-28T09:51:10.471000+00:00</time>
      </trkpt>
      <trkpt lat="47.34642" lon="-1.43518">
        <ele>100</ele>
        <time>2021-02-28T09:51:11.377000+00:00</time>
      </trkpt>
      <trkpt lat="0" lon="0">
        <time>2021-02-28T09:51:11.381000+00:00</time>
      </trkpt>
      <trkpt lat="0" lon="0">
        <time>2021-02-28T09:51:11.385000+00:00</time>
      </trkpt>
      <trkpt lat="0" lon="0">
        <time>2021-02-28T09:51:11.388000+00:00</time>
      </trkpt>
      <trkpt lat="47.34641" lon="-1.43511">
        <ele>100</ele>
        <time>2021-02-28T09:51:12.473000+00:00</time>
      </trkpt>
      <trkpt lat="0" lon="0">
        <time>2021-02-28T09:51:12.477000+00:00</time>
      </trkpt>
      <trkpt lat="0" lon="0">
        <time>2021-02-28T09:51:12.481000+00:00</time>
      </trkpt>
      <trkpt lat="0" lon="0">
        <time>2021-02-28T09:51:12.483000+00:00</time>
      </trkpt>
      <trkpt lat="47.34641" lon="-1.43504">
        <ele>100</ele>
        <time>2021-02-28T09:51:13.482000+00:00</time>
      </trkpt>
      <trkpt lat="0" lon="0">
        <time>2021-02-28T09:51:13.488000+00:00</time>
      </trkpt>
      <trkpt lat="0" lon="0">
        <time>2021-02-28T09:51:13.493000+00:00</time>
      </trkpt>
      <trkpt lat="0" lon="0">
        <time>2021-02-28T09:51:13.495000+00:00</time>
      </trkpt>
      <trkpt lat="47.3464" lon="-1.43499">
        <ele>100</ele>
        <time>2021-02-28T09:51:14.447000+00:00</time>
      </trkpt>
      <trkpt lat="0" lon="0">
        <time>2021-02-28T09:51:14.453000+00:00</time>
      </trkpt>
      <trkpt lat="0" lon="0">
        <time>2021-02-28T09:51:14.457000+00:00</time>
      </trkpt>
      <trkpt lat="0" lon="0">
        <time>2021-02-28T09:51:14.459000+00:00</time>
      </trkpt>
      <trkpt lat="47.3464" lon="-1.43493">
        <ele>100</ele>
        <time>2021-02-28T09:51:15.493000+00:00</time>
      </trkpt>
      <trkpt lat="0" lon="0">
        <time>2021-02-28T09:51:15.500000+00:00</time>
      </trkpt>
      <trkpt lat="0" lon="0">
        <time>2021-02-28T09:51:15.505000+00:00</time>
      </trkpt>
      <trkpt lat="0" lon="0">
        <time>2021-02-28T09:51:15.507000+00:00</time>
      </trkpt>
      <trkpt lat="47.3464" lon="-1.43489">
        <ele>100</ele>
        <time>2021-02-28T09:51:16.459000+00:00</time>
      </trkpt>
      <trkpt lat="0" lon="0">
        <time>2021-02-28T09:51:16.468000+00:00</time>
      </trkpt>
      <trkpt lat="0" lon="0">
        <time>2021-02-28T09:51:16.472000+00:00</time>
      </trkpt>
      <trkpt lat="0" lon="0">
        <time>2021-02-28T09:51:16.474000+00:00</time>
      </trkpt>
      <trkpt lat="47.3464" lon="-1.43485">
        <ele>100</ele>
        <time>2021-02-28T09:51:17.478000+00:00</time>
      </trkpt>
      <trkpt lat="0" lon="0">
        <time>2021-02-28T09:51:17.486000+00:00</time>
      </trkpt>
      <trkpt lat="0" lon="0">
        <time>2021-02-28T09:51:17.493000+00:00</time>
      </trkpt>
      <trkpt lat="0" lon="0">
        <time>2021-02-28T09:51:17.495000+00:00</time>
      </trkpt>
      <trkpt lat="47.34639" lon="-1.43481">
        <ele>100</ele>
        <time>2021-02-28T09:51:18.479000+00:00</time>
      </trkpt>
      <trkpt lat="0" lon="0">
        <time>2021-02-28T09:51:18.485000+00:00</time>
      </trkpt>
      <trkpt lat="0" lon="0">
        <time>2021-02-28T09:51:18.489000+00:00</time>
      </trkpt>
      <trkpt lat="0" lon="0">
        <time>2021-02-28T09:51:18.492000+00:00</time>
      </trkpt>
      <trkpt lat="47.34639" lon="-1.43478">
        <ele>100</ele>
        <time>2021-02-28T09:51:19.464000+00:00</time>
      </trkpt>
      <trkpt lat="0" lon="0">
        <time>2021-02-28T09:51:19.469000+00:00</time>
      </trkpt>
      <trkpt lat="0" lon="0">
        <time>2021-02-28T09:51:19.473000+00:00</time>
      </trkpt>
      <trkpt lat="0" lon="0">
        <time>2021-02-28T09:51:19.476000+00:00</time>
      </trkpt>
      <trkpt lat="47.34638" lon="-1.43475">
        <ele>100</ele>
        <time>2021-02-28T09:51:20.447000+00:00</time>
      </trkpt>
      <trkpt lat="0" lon="0">
        <time>2021-02-28T09:51:20.452000+00:00</time>
      </trkpt>
      <trkpt lat="0" lon="0">
        <time>2021-02-28T09:51:20.456000+00:00</time>
      </trkpt>
      <trkpt lat="0" lon="0">
        <time>2021-02-28T09:51:20.458000+00:00</time>
      </trkpt>
      <trkpt lat="47.34638" lon="-1.43473">
        <ele>100</ele>
        <time>2021-02-28T09:51:21.482000+00:00</time>
      </trkpt>
      <trkpt lat="0" lon="0">
        <time>2021-02-28T09:51:21.488000+00:00</time>
      </trkpt>
      <trkpt lat="0" lon="0">
        <time>2021-02-28T09:51:21.496000+00:00</time>
      </trkpt>
      <trkpt lat="0" lon="0">
        <time>2021-02-28T09:51:21.497000+00:00</time>
      </trkpt>
      <trkpt lat="47.34637" lon="-1.43471">
        <ele>100</ele>
        <time>2021-02-28T09:51:22.461000+00:00</time>
      </trkpt>
      <trkpt lat="0" lon="0">
        <time>2021-02-28T09:51:22.463000+00:00</time>
      </trkpt>
      <trkpt lat="0" lon="0">
        <time>2021-02-28T09:51:22.465000+00:00</time>
      </trkpt>
      <trkpt lat="47.34637" lon="-1.43469">
        <ele>101</ele>
        <time>2021-02-28T09:51:23.404000+00:00</time>
      </trkpt>
      <trkpt lat="0" lon="0">
        <time>2021-02-28T09:51:23.411000+00:00</time>
      </trkpt>
      <trkpt lat="0" lon="0">
        <time>2021-02-28T09:51:23.417000+00:00</time>
      </trkpt>
      <trkpt lat="0" lon="0">
        <time>2021-02-28T09:51:23.419000+00:00</time>
      </trkpt>
      <trkpt lat="47.34637" lon="-1.43467">
        <ele>101</ele>
        <time>2021-02-28T09:51:24.424000+00:00</time>
      </trkpt>
      <trkpt lat="0" lon="0">
        <time>2021-02-28T09:51:24.433000+00:00</time>
      </trkpt>
      <trkpt lat="0" lon="0">
        <time>2021-02-28T09:51:24.438000+00:00</time>
      </trkpt>
      <trkpt lat="0" lon="0">
        <time>2021-02-28T09:51:24.441000+00:00</time>
      </trkpt>
      <trkpt lat="47.34637" lon="-1.43466">
        <ele>101</ele>
        <time>2021-02-28T09:51:25.453000+00:00</time>
      </trkpt>
      <trkpt lat="0" lon="0">
        <time>2021-02-28T09:51:25.458000+00:00</time>
      </trkpt>
      <trkpt lat="0" lon="0">
        <time>2021-02-28T09:51:25.463000+00:00</time>
      </trkpt>
      <trkpt lat="0" lon="0">
        <time>2021-02-28T09:51:25.467000+00:00</time>
      </trkpt>
      <trkpt lat="47.34638" lon="-1.43465">
        <ele>101</ele>
        <time>2021-02-28T09:51:26.433000+00:00</time>
      </trkpt>
      <trkpt lat="0" lon="0">
        <time>2021-02-28T09:51:26.439000+00:00</time>
      </trkpt>
      <trkpt lat="0" lon="0">
        <time>2021-02-28T09:51:26.444000+00:00</time>
      </trkpt>
      <trkpt lat="0" lon="0">
        <time>2021-02-28T09:51:26.446000+00:00</time>
      </trkpt>
      <trkpt lat="47.34638" lon="-1.43464">
        <ele>101</ele>
        <time>2021-02-28T09:51:27.477000+00:00</time>
      </trkpt>
      <trkpt lat="0" lon="0">
        <time>2021-02-28T09:51:27.485000+00:00</time>
      </trkpt>
      <trkpt lat="0" lon="0">
        <time>2021-02-28T09:51:27.491000+00:00</time>
      </trkpt>
      <trkpt lat="0" lon="0">
        <time>2021-02-28T09:51:27.493000+00:00</time>
      </trkpt>
      <trkpt lat="47.34637" lon="-1.43463">
        <ele>101</ele>
        <time>2021-02-28T09:51:28.433000+00:00</time>
      </trkpt>
      <trkpt lat="0" lon="0">
        <time>2021-02-28T09:51:28.443000+00:00</time>
      </trkpt>
      <trkpt lat="0" lon="0">
        <time>2021-02-28T09:51:28.447000+00:00</time>
      </trkpt>
      <trkpt lat="0" lon="0">
        <time>2021-02-28T09:51:28.450000+00:00</time>
      </trkpt>
      <trkpt lat="47.34637" lon="-1.43461">
        <ele>102</ele>
        <time>2021-02-28T09:51:29.490000+00:00</time>
      </trkpt>
      <trkpt lat="0" lon="0">
        <time>2021-02-28T09:51:29.498000+00:00</time>
      </trkpt>
      <trkpt lat="0" lon="0">
        <time>2021-02-28T09:51:29.502000+00:00</time>
      </trkpt>
      <trkpt lat="0" lon="0">
        <time>2021-02-28T09:51:29.505000+00:00</time>
      </trkpt>
      <trkpt lat="47.34637" lon="-1.43459">
        <ele>102</ele>
        <time>2021-02-28T09:51:30.459000+00:00</time>
      </trkpt>
      <trkpt lat="0" lon="0">
        <time>2021-02-28T09:51:30.464000+00:00</time>
      </trkpt>
      <trkpt lat="0" lon="0">
        <time>2021-02-28T09:51:30.470000+00:00</time>
      </trkpt>
      <trkpt lat="0" lon="0">
        <time>2021-02-28T09:51:30.472000+00:00</time>
      </trkpt>
      <trkpt lat="47.34637" lon="-1.43456">
        <ele>102</ele>
        <time>2021-02-28T09:51:31.479000+00:00</time>
      </trkpt>
      <trkpt lat="0" lon="0">
        <time>2021-02-28T09:51:31.486000+00:00</time>
      </trkpt>
      <trkpt lat="0" lon="0">
        <time>2021-02-28T09:51:31.490000+00:00</time>
      </trkpt>
      <trkpt lat="0" lon="0">
        <time>2021-02-28T09:51:31.494000+00:00</time>
      </trkpt>
      <trkpt lat="47.34636" lon="-1.43452">
        <ele>102</ele>
        <time>2021-02-28T09:51:32.501000+00:00</time>
      </trkpt>
      <trkpt lat="0" lon="0">
        <time>2021-02-28T09:51:32.513000+00:00</time>
      </trkpt>
      <trkpt lat="0" lon="0">
        <time>2021-02-28T09:51:32.519000+00:00</time>
      </trkpt>
      <trkpt lat="0" lon="0">
        <time>2021-02-28T09:51:32.522000+00:00</time>
      </trkpt>
      <trkpt lat="47.34636" lon="-1.43448">
        <ele>102</ele>
        <time>2021-02-28T09:51:33.458000+00:00</time>
      </trkpt>
      <trkpt lat="0" lon="0">
        <time>2021-02-28T09:51:33.460000+00:00</time>
      </trkpt>
      <trkpt lat="0" lon="0">
        <time>2021-02-28T09:51:33.461000+00:00</time>
      </trkpt>
      <trkpt lat="0" lon="0">
        <time>2021-02-28T09:51:33.463000+00:00</time>
      </trkpt>
      <trkpt lat="47.34636" lon="-1.43443">
        <ele>102</ele>
        <time>2021-02-28T09:51:34.487000+00:00</time>
      </trkpt>
      <trkpt lat="0" lon="0">
        <time>2021-02-28T09:51:34.498000+00:00</time>
      </trkpt>
      <trkpt lat="0" lon="0">
        <time>2021-02-28T09:51:34.504000+00:00</time>
      </trkpt>
      <trkpt lat="0" lon="0">
        <time>2021-02-28T09:51:34.507000+00:00</time>
      </trkpt>
      <trkpt lat="47.34635" lon="-1.43437">
        <ele>102</ele>
        <time>2021-02-28T09:51:35.466000+00:00</time>
      </trkpt>
      <trkpt lat="0" lon="0">
        <time>2021-02-28T09:51:35.473000+00:00</time>
      </trkpt>
      <trkpt lat="0" lon="0">
        <time>2021-02-28T09:51:35.477000+00:00</time>
      </trkpt>
      <trkpt lat="0" lon="0">
        <time>2021-02-28T09:51:35.479000+00:00</time>
      </trkpt>
      <trkpt lat="47.34635" lon="-1.43431">
        <ele>102</ele>
        <time>2021-02-28T09:51:36.445000+00:00</time>
      </trkpt>
      <trkpt lat="0" lon="0">
        <time>2021-02-28T09:51:36.453000+00:00</time>
      </trkpt>
      <trkpt lat="0" lon="0">
        <time>2021-02-28T09:51:36.457000+00:00</time>
      </trkpt>
      <trkpt lat="0" lon="0">
        <time>2021-02-28T09:51:36.459000+00:00</time>
      </trkpt>
      <trkpt lat="47.34634" lon="-1.43425">
        <ele>103</ele>
        <time>2021-02-28T09:51:37.469000+00:00</time>
      </trkpt>
      <trkpt lat="0" lon="0">
        <time>2021-02-28T09:51:37.476000+00:00</time>
      </trkpt>
      <trkpt lat="0" lon="0">
        <time>2021-02-28T09:51:37.481000+00:00</time>
      </trkpt>
      <trkpt lat="0" lon="0">
        <time>2021-02-28T09:51:37.484000+00:00</time>
      </trkpt>
      <trkpt lat="47.34634" lon="-1.43418">
        <ele>103</ele>
        <time>2021-02-28T09:51:38.392000+00:00</time>
      </trkpt>
      <trkpt lat="0" lon="0">
        <time>2021-02-28T09:51:38.399000+00:00</time>
      </trkpt>
      <trkpt lat="0" lon="0">
        <time>2021-02-28T09:51:38.402000+00:00</time>
      </trkpt>
      <trkpt lat="0" lon="0">
        <time>2021-02-28T09:51:38.404000+00:00</time>
      </trkpt>
      <trkpt lat="47.34633" lon="-1.43412">
        <ele>102</ele>
        <time>2021-02-28T09:51:39.420000+00:00</time>
      </trkpt>
      <trkpt lat="0" lon="0">
        <time>2021-02-28T09:51:39.428000+00:00</time>
      </trkpt>
      <trkpt lat="0" lon="0">
        <time>2021-02-28T09:51:39.432000+00:00</time>
      </trkpt>
      <trkpt lat="0" lon="0">
        <time>2021-02-28T09:51:39.435000+00:00</time>
      </trkpt>
      <trkpt lat="47.34633" lon="-1.43404">
        <ele>102</ele>
        <time>2021-02-28T09:51:40.454000+00:00</time>
      </trkpt>
      <trkpt lat="0" lon="0">
        <time>2021-02-28T09:51:40.465000+00:00</time>
      </trkpt>
      <trkpt lat="0" lon="0">
        <time>2021-02-28T09:51:40.471000+00:00</time>
      </trkpt>
      <trkpt lat="0" lon="0">
        <time>2021-02-28T09:51:40.474000+00:00</time>
      </trkpt>
      <trkpt lat="47.34633" lon="-1.43397">
        <ele>102</ele>
        <time>2021-02-28T09:51:41.470000+00:00</time>
      </trkpt>
      <trkpt lat="0" lon="0">
        <time>2021-02-28T09:51:41.480000+00:00</time>
      </trkpt>
      <trkpt lat="0" lon="0">
        <time>2021-02-28T09:51:41.484000+00:00</time>
      </trkpt>
      <trkpt lat="0" lon="0">
        <time>2021-02-28T09:51:41.487000+00:00</time>
      </trkpt>
      <trkpt lat="47.34632" lon="-1.43389">
        <ele>102</ele>
        <time>2021-02-28T09:51:42.501000+00:00</time>
      </trkpt>
      <trkpt lat="0" lon="0">
        <time>2021-02-28T09:51:42.510000+00:00</time>
      </trkpt>
      <trkpt lat="0" lon="0">
        <time>2021-02-28T09:51:42.518000+00:00</time>
      </trkpt>
      <trkpt lat="0" lon="0">
        <time>2021-02-28T09:51:42.520000+00:00</time>
      </trkpt>
      <trkpt lat="47.34631" lon="-1.43382">
        <ele>102</ele>
        <time>2021-02-28T09:51:43.462000+00:00</time>
      </trkpt>
      <trkpt lat="0" lon="0">
        <time>2021-02-28T09:51:43.465000+00:00</time>
      </trkpt>
      <trkpt lat="0" lon="0">
        <time>2021-02-28T09:51:43.469000+00:00</time>
      </trkpt>
      <trkpt lat="0" lon="0">
        <time>2021-02-28T09:51:43.471000+00:00</time>
      </trkpt>
      <trkpt lat="47.34631" lon="-1.43374">
        <ele>102</ele>
        <time>2021-02-28T09:51:44.449000+00:00</time>
      </trkpt>
      <trkpt lat="0" lon="0">
        <time>2021-02-28T09:51:44.458000+00:00</time>
      </trkpt>
      <trkpt lat="0" lon="0">
        <time>2021-02-28T09:51:44.464000+00:00</time>
      </trkpt>
      <trkpt lat="0" lon="0">
        <time>2021-02-28T09:51:44.466000+00:00</time>
      </trkpt>
      <trkpt lat="47.3463" lon="-1.43366">
        <ele>102</ele>
        <time>2021-02-28T09:51:45.435000+00:00</time>
      </trkpt>
      <trkpt lat="0" lon="0">
        <time>2021-02-28T09:51:45.443000+00:00</time>
      </trkpt>
      <trkpt lat="0" lon="0">
        <time>2021-02-28T09:51:45.448000+00:00</time>
      </trkpt>
      <trkpt lat="0" lon="0">
        <time>2021-02-28T09:51:45.450000+00:00</time>
      </trkpt>
      <trkpt lat="47.3463" lon="-1.43358">
        <ele>102</ele>
        <time>2021-02-28T09:51:46.453000+00:00</time>
      </trkpt>
      <trkpt lat="0" lon="0">
        <time>2021-02-28T09:51:46.465000+00:00</time>
      </trkpt>
      <trkpt lat="0" lon="0">
        <time>2021-02-28T09:51:46.473000+00:00</time>
      </trkpt>
      <trkpt lat="0" lon="0">
        <time>2021-02-28T09:51:46.475000+00:00</time>
      </trkpt>
      <trkpt lat="47.34629" lon="-1.4335">
        <ele>102</ele>
        <time>2021-02-28T09:51:47.476000+00:00</time>
      </trkpt>
      <trkpt lat="0" lon="0">
        <time>2021-02-28T09:51:47.484000+00:00</time>
      </trkpt>
      <trkpt lat="0" lon="0">
        <time>2021-02-28T09:51:47.490000+00:00</time>
      </trkpt>
      <trkpt lat="0" lon="0">
        <time>2021-02-28T09:51:47.492000+00:00</time>
      </trkpt>
      <trkpt lat="47.34629" lon="-1.43342">
        <ele>102</ele>
        <time>2021-02-28T09:51:48.485000+00:00</time>
      </trkpt>
      <trkpt lat="0" lon="0">
        <time>2021-02-28T09:51:48.492000+00:00</time>
      </trkpt>
      <trkpt lat="0" lon="0">
        <time>2021-02-28T09:51:48.497000+00:00</time>
      </trkpt>
      <trkpt lat="0" lon="0">
        <time>2021-02-28T09:51:48.499000+00:00</time>
      </trkpt>
      <trkpt lat="47.34628" lon="-1.43334">
        <ele>102</ele>
        <time>2021-02-28T09:51:49.453000+00:00</time>
      </trkpt>
      <trkpt lat="0" lon="0">
        <time>2021-02-28T09:51:49.461000+00:00</time>
      </trkpt>
      <trkpt lat="0" lon="0">
        <time>2021-02-28T09:51:49.467000+00:00</time>
      </trkpt>
      <trkpt lat="0" lon="0">
        <time>2021-02-28T09:51:49.469000+00:00</time>
      </trkpt>
      <trkpt lat="47.34627" lon="-1.43327">
        <ele>102</ele>
        <time>2021-02-28T09:51:50.448000+00:00</time>
      </trkpt>
      <trkpt lat="0" lon="0">
        <time>2021-02-28T09:51:50.454000+00:00</time>
      </trkpt>
      <trkpt lat="0" lon="0">
        <time>2021-02-28T09:51:50.459000+00:00</time>
      </trkpt>
      <trkpt lat="0" lon="0">
        <time>2021-02-28T09:51:50.463000+00:00</time>
      </trkpt>
      <trkpt lat="47.34627" lon="-1.43319">
        <ele>102</ele>
        <time>2021-02-28T09:51:51.473000+00:00</time>
      </trkpt>
      <trkpt lat="0" lon="0">
        <time>2021-02-28T09:51:51.484000+00:00</time>
      </trkpt>
      <trkpt lat="0" lon="0">
        <time>2021-02-28T09:51:51.493000+00:00</time>
      </trkpt>
      <trkpt lat="0" lon="0">
        <time>2021-02-28T09:51:51.496000+00:00</time>
      </trkpt>
      <trkpt lat="47.34627" lon="-1.43311">
        <ele>102</ele>
        <time>2021-02-28T09:51:52.473000+00:00</time>
      </trkpt>
      <trkpt lat="0" lon="0">
        <time>2021-02-28T09:51:52.483000+00:00</time>
      </trkpt>
      <trkpt lat="0" lon="0">
        <time>2021-02-28T09:51:52.488000+00:00</time>
      </trkpt>
      <trkpt lat="0" lon="0">
        <time>2021-02-28T09:51:52.491000+00:00</time>
      </trkpt>
      <trkpt lat="47.34626" lon="-1.43303">
        <ele>102</ele>
        <time>2021-02-28T09:51:53.488000+00:00</time>
      </trkpt>
      <trkpt lat="0" lon="0">
        <time>2021-02-28T09:51:53.496000+00:00</time>
      </trkpt>
      <trkpt lat="0" lon="0">
        <time>2021-02-28T09:51:53.502000+00:00</time>
      </trkpt>
      <trkpt lat="0" lon="0">
        <time>2021-02-28T09:51:53.504000+00:00</time>
      </trkpt>
      <trkpt lat="47.34626" lon="-1.43296">
        <ele>102</ele>
        <time>2021-02-28T09:51:54.444000+00:00</time>
      </trkpt>
      <trkpt lat="0" lon="0">
        <time>2021-02-28T09:51:54.446000+00:00</time>
      </trkpt>
      <trkpt lat="0" lon="0">
        <time>2021-02-28T09:51:54.447000+00:00</time>
      </trkpt>
      <trkpt lat="0" lon="0">
        <time>2021-02-28T09:51:54.448000+00:00</time>
      </trkpt>
      <trkpt lat="47.34626" lon="-1.43288">
        <ele>102</ele>
        <time>2021-02-28T09:51:55.478000+00:00</time>
      </trkpt>
      <trkpt lat="0" lon="0">
        <time>2021-02-28T09:51:55.490000+00:00</time>
      </trkpt>
      <trkpt lat="0" lon="0">
        <time>2021-02-28T09:51:55.494000+00:00</time>
      </trkpt>
      <trkpt lat="0" lon="0">
        <time>2021-02-28T09:51:55.497000+00:00</time>
      </trkpt>
      <trkpt lat="47.34626" lon="-1.4328">
        <ele>102</ele>
        <time>2021-02-28T09:51:56.474000+00:00</time>
      </trkpt>
      <trkpt lat="0" lon="0">
        <time>2021-02-28T09:51:56.483000+00:00</time>
      </trkpt>
      <trkpt lat="0" lon="0">
        <time>2021-02-28T09:51:56.490000+00:00</time>
      </trkpt>
      <trkpt lat="0" lon="0">
        <time>2021-02-28T09:51:56.492000+00:00</time>
      </trkpt>
      <trkpt lat="47.34625" lon="-1.43272">
        <ele>102</ele>
        <time>2021-02-28T09:51:57.461000+00:00</time>
      </trkpt>
      <trkpt lat="0" lon="0">
        <time>2021-02-28T09:51:57.475000+00:00</time>
      </trkpt>
      <trkpt lat="0" lon="0">
        <time>2021-02-28T09:51:57.479000+00:00</time>
      </trkpt>
      <trkpt lat="0" lon="0">
        <time>2021-02-28T09:51:57.482000+00:00</time>
      </trkpt>
      <trkpt lat="47.34625" lon="-1.43265">
        <ele>102</ele>
        <time>2021-02-28T09:51:58.472000+00:00</time>
      </trkpt>
      <trkpt lat="0" lon="0">
        <time>2021-02-28T09:51:58.476000+00:00</time>
      </trkpt>
      <trkpt lat="0" lon="0">
        <time>2021-02-28T09:51:58.480000+00:00</time>
      </trkpt>
      <trkpt lat="0" lon="0">
        <time>2021-02-28T09:51:58.483000+00:00</time>
      </trkpt>
      <trkpt lat="47.34625" lon="-1.43257">
        <ele>102</ele>
        <time>2021-02-28T09:51:59.494000+00:00</time>
      </trkpt>
      <trkpt lat="0" lon="0">
        <time>2021-02-28T09:51:59.505000+00:00</time>
      </trkpt>
      <trkpt lat="0" lon="0">
        <time>2021-02-28T09:51:59.512000+00:00</time>
      </trkpt>
      <trkpt lat="0" lon="0">
        <time>2021-02-28T09:51:59.515000+00:00</time>
      </trkpt>
      <trkpt lat="47.34624" lon="-1.4325">
        <ele>102</ele>
        <time>2021-02-28T09:52:00.471000+00:00</time>
      </trkpt>
      <trkpt lat="0" lon="0">
        <time>2021-02-28T09:52:00.475000+00:00</time>
      </trkpt>
      <trkpt lat="0" lon="0">
        <time>2021-02-28T09:52:00.477000+00:00</time>
      </trkpt>
      <trkpt lat="0" lon="0">
        <time>2021-02-28T09:52:00.479000+00:00</time>
      </trkpt>
      <trkpt lat="47.34624" lon="-1.43243">
        <ele>102</ele>
        <time>2021-02-28T09:52:01.500000+00:00</time>
      </trkpt>
      <trkpt lat="0" lon="0">
        <time>2021-02-28T09:52:01.511000+00:00</time>
      </trkpt>
      <trkpt lat="0" lon="0">
        <time>2021-02-28T09:52:01.517000+00:00</time>
      </trkpt>
      <trkpt lat="0" lon="0">
        <time>2021-02-28T09:52:01.521000+00:00</time>
      </trkpt>
      <trkpt lat="47.34623" lon="-1.43236">
        <ele>102</ele>
        <time>2021-02-28T09:52:02.477000+00:00</time>
      </trkpt>
      <trkpt lat="0" lon="0">
        <time>2021-02-28T09:52:02.482000+00:00</time>
      </trkpt>
      <trkpt lat="0" lon="0">
        <time>2021-02-28T09:52:02.492000+00:00</time>
      </trkpt>
      <trkpt lat="0" lon="0">
        <time>2021-02-28T09:52:02.494000+00:00</time>
      </trkpt>
      <trkpt lat="47.34623" lon="-1.43229">
        <ele>103</ele>
        <time>2021-02-28T09:52:03.485000+00:00</time>
      </trkpt>
      <trkpt lat="0" lon="0">
        <time>2021-02-28T09:52:03.497000+00:00</time>
      </trkpt>
      <trkpt lat="0" lon="0">
        <time>2021-02-28T09:52:03.502000+00:00</time>
      </trkpt>
      <trkpt lat="0" lon="0">
        <time>2021-02-28T09:52:03.505000+00:00</time>
      </trkpt>
      <trkpt lat="47.34622" lon="-1.43222">
        <ele>103</ele>
        <time>2021-02-28T09:52:04.468000+00:00</time>
      </trkpt>
      <trkpt lat="0" lon="0">
        <time>2021-02-28T09:52:04.472000+00:00</time>
      </trkpt>
      <trkpt lat="0" lon="0">
        <time>2021-02-28T09:52:04.478000+00:00</time>
      </trkpt>
      <trkpt lat="0" lon="0">
        <time>2021-02-28T09:52:04.480000+00:00</time>
      </trkpt>
      <trkpt lat="47.34621" lon="-1.43215">
        <ele>102</ele>
        <time>2021-02-28T09:52:05.478000+00:00</time>
      </trkpt>
      <trkpt lat="0" lon="0">
        <time>2021-02-28T09:52:05.483000+00:00</time>
      </trkpt>
      <trkpt lat="0" lon="0">
        <time>2021-02-28T09:52:05.488000+00:00</time>
      </trkpt>
      <trkpt lat="0" lon="0">
        <time>2021-02-28T09:52:05.491000+00:00</time>
      </trkpt>
      <trkpt lat="47.34621" lon="-1.43208">
        <ele>102</ele>
        <time>2021-02-28T09:52:06.436000+00:00</time>
      </trkpt>
      <trkpt lat="0" lon="0">
        <time>2021-02-28T09:52:06.445000+00:00</time>
      </trkpt>
      <trkpt lat="0" lon="0">
        <time>2021-02-28T09:52:06.453000+00:00</time>
      </trkpt>
      <trkpt lat="0" lon="0">
        <time>2021-02-28T09:52:06.455000+00:00</time>
      </trkpt>
      <trkpt lat="47.3462" lon="-1.43201">
        <ele>102</ele>
        <time>2021-02-28T09:52:07.476000+00:00</time>
      </trkpt>
      <trkpt lat="0" lon="0">
        <time>2021-02-28T09:52:07.482000+00:00</time>
      </trkpt>
      <trkpt lat="0" lon="0">
        <time>2021-02-28T09:52:07.487000+00:00</time>
      </trkpt>
      <trkpt lat="0" lon="0">
        <time>2021-02-28T09:52:07.489000+00:00</time>
      </trkpt>
      <trkpt lat="47.3462" lon="-1.43193">
        <ele>102</ele>
        <time>2021-02-28T09:52:08.430000+00:00</time>
      </trkpt>
      <trkpt lat="0" lon="0">
        <time>2021-02-28T09:52:08.434000+00:00</time>
      </trkpt>
      <trkpt lat="0" lon="0">
        <time>2021-02-28T09:52:08.438000+00:00</time>
      </trkpt>
      <trkpt lat="0" lon="0">
        <time>2021-02-28T09:52:08.440000+00:00</time>
      </trkpt>
      <trkpt lat="47.34619" lon="-1.43186">
        <ele>103</ele>
        <time>2021-02-28T09:52:09.450000+00:00</time>
      </trkpt>
      <trkpt lat="0" lon="0">
        <time>2021-02-28T09:52:09.463000+00:00</time>
      </trkpt>
      <trkpt lat="0" lon="0">
        <time>2021-02-28T09:52:09.467000+00:00</time>
      </trkpt>
      <trkpt lat="0" lon="0">
        <time>2021-02-28T09:52:09.469000+00:00</time>
      </trkpt>
      <trkpt lat="47.34619" lon="-1.43179">
        <ele>102</ele>
        <time>2021-02-28T09:52:10.514000+00:00</time>
      </trkpt>
      <trkpt lat="0" lon="0">
        <time>2021-02-28T09:52:10.520000+00:00</time>
      </trkpt>
      <trkpt lat="0" lon="0">
        <time>2021-02-28T09:52:10.526000+00:00</time>
      </trkpt>
      <trkpt lat="0" lon="0">
        <time>2021-02-28T09:52:10.528000+00:00</time>
      </trkpt>
      <trkpt lat="47.34618" lon="-1.43171">
        <ele>103</ele>
        <time>2021-02-28T09:52:11.484000+00:00</time>
      </trkpt>
      <trkpt lat="0" lon="0">
        <time>2021-02-28T09:52:11.486000+00:00</time>
      </trkpt>
      <trkpt lat="0" lon="0">
        <time>2021-02-28T09:52:11.488000+00:00</time>
      </trkpt>
      <trkpt lat="0" lon="0">
        <time>2021-02-28T09:52:11.490000+00:00</time>
      </trkpt>
      <trkpt lat="47.34618" lon="-1.43164">
        <ele>103</ele>
        <time>2021-02-28T09:52:12.477000+00:00</time>
      </trkpt>
      <trkpt lat="0" lon="0">
        <time>2021-02-28T09:52:12.485000+00:00</time>
      </trkpt>
      <trkpt lat="0" lon="0">
        <time>2021-02-28T09:52:12.490000+00:00</time>
      </trkpt>
      <trkpt lat="0" lon="0">
        <time>2021-02-28T09:52:12.493000+00:00</time>
      </trkpt>
      <trkpt lat="47.34617" lon="-1.43156">
        <ele>103</ele>
        <time>2021-02-28T09:52:13.487000+00:00</time>
      </trkpt>
      <trkpt lat="0" lon="0">
        <time>2021-02-28T09:52:13.497000+00:00</time>
      </trkpt>
      <trkpt lat="0" lon="0">
        <time>2021-02-28T09:52:13.506000+00:00</time>
      </trkpt>
      <trkpt lat="0" lon="0">
        <time>2021-02-28T09:52:13.509000+00:00</time>
      </trkpt>
      <trkpt lat="47.34617" lon="-1.43148">
        <ele>103</ele>
        <time>2021-02-28T09:52:14.488000+00:00</time>
      </trkpt>
      <trkpt lat="0" lon="0">
        <time>2021-02-28T09:52:14.507000+00:00</time>
      </trkpt>
      <trkpt lat="0" lon="0">
        <time>2021-02-28T09:52:14.513000+00:00</time>
      </trkpt>
      <trkpt lat="0" lon="0">
        <time>2021-02-28T09:52:14.516000+00:00</time>
      </trkpt>
      <trkpt lat="47.34617" lon="-1.4314">
        <ele>102</ele>
        <time>2021-02-28T09:52:15.479000+00:00</time>
      </trkpt>
      <trkpt lat="0" lon="0">
        <time>2021-02-28T09:52:15.485000+00:00</time>
      </trkpt>
      <trkpt lat="0" lon="0">
        <time>2021-02-28T09:52:15.489000+00:00</time>
      </trkpt>
      <trkpt lat="0" lon="0">
        <time>2021-02-28T09:52:15.492000+00:00</time>
      </trkpt>
      <trkpt lat="47.34616" lon="-1.43132">
        <ele>102</ele>
        <time>2021-02-28T09:52:16.476000+00:00</time>
      </trkpt>
      <trkpt lat="0" lon="0">
        <time>2021-02-28T09:52:16.481000+00:00</time>
      </trkpt>
      <trkpt lat="0" lon="0">
        <time>2021-02-28T09:52:16.486000+00:00</time>
      </trkpt>
      <trkpt lat="0" lon="0">
        <time>2021-02-28T09:52:16.488000+00:00</time>
      </trkpt>
      <trkpt lat="47.34616" lon="-1.43123">
        <ele>102</ele>
        <time>2021-02-28T09:52:17.472000+00:00</time>
      </trkpt>
      <trkpt lat="0" lon="0">
        <time>2021-02-28T09:52:17.479000+00:00</time>
      </trkpt>
      <trkpt lat="0" lon="0">
        <time>2021-02-28T09:52:17.485000+00:00</time>
      </trkpt>
      <trkpt lat="0" lon="0">
        <time>2021-02-28T09:52:17.488000+00:00</time>
      </trkpt>
      <trkpt lat="47.34615" lon="-1.43115">
        <ele>102</ele>
        <time>2021-02-28T09:52:18.485000+00:00</time>
      </trkpt>
      <trkpt lat="0" lon="0">
        <time>2021-02-28T09:52:18.496000+00:00</time>
      </trkpt>
      <trkpt lat="0" lon="0">
        <time>2021-02-28T09:52:18.500000+00:00</time>
      </trkpt>
      <trkpt lat="0" lon="0">
        <time>2021-02-28T09:52:18.504000+00:00</time>
      </trkpt>
      <trkpt lat="47.34615" lon="-1.43107">
        <ele>103</ele>
        <time>2021-02-28T09:52:19.490000+00:00</time>
      </trkpt>
      <trkpt lat="0" lon="0">
        <time>2021-02-28T09:52:19.497000+00:00</time>
      </trkpt>
      <trkpt lat="0" lon="0">
        <time>2021-02-28T09:52:19.505000+00:00</time>
      </trkpt>
      <trkpt lat="0" lon="0">
        <time>2021-02-28T09:52:19.508000+00:00</time>
      </trkpt>
      <trkpt lat="47.34614" lon="-1.43098">
        <ele>103</ele>
        <time>2021-02-28T09:52:20.457000+00:00</time>
      </trkpt>
      <trkpt lat="0" lon="0">
        <time>2021-02-28T09:52:20.467000+00:00</time>
      </trkpt>
      <trkpt lat="0" lon="0">
        <time>2021-02-28T09:52:20.472000+00:00</time>
      </trkpt>
      <trkpt lat="0" lon="0">
        <time>2021-02-28T09:52:20.475000+00:00</time>
      </trkpt>
      <trkpt lat="47.34614" lon="-1.4309">
        <ele>102</ele>
        <time>2021-02-28T09:52:21.495000+00:00</time>
      </trkpt>
      <trkpt lat="0" lon="0">
        <time>2021-02-28T09:52:21.502000+00:00</time>
      </trkpt>
      <trkpt lat="0" lon="0">
        <time>2021-02-28T09:52:21.507000+00:00</time>
      </trkpt>
      <trkpt lat="0" lon="0">
        <time>2021-02-28T09:52:21.510000+00:00</time>
      </trkpt>
      <trkpt lat="47.34613" lon="-1.43081">
        <ele>102</ele>
        <time>2021-02-28T09:52:22.436000+00:00</time>
      </trkpt>
      <trkpt lat="0" lon="0">
        <time>2021-02-28T09:52:22.440000+00:00</time>
      </trkpt>
      <trkpt lat="0" lon="0">
        <time>2021-02-28T09:52:22.444000+00:00</time>
      </trkpt>
      <trkpt lat="0" lon="0">
        <time>2021-02-28T09:52:22.446000+00:00</time>
      </trkpt>
      <trkpt lat="47.34613" lon="-1.43072">
        <ele>102</ele>
        <time>2021-02-28T09:52:23.507000+00:00</time>
      </trkpt>
      <trkpt lat="0" lon="0">
        <time>2021-02-28T09:52:23.519000+00:00</time>
      </trkpt>
      <trkpt lat="0" lon="0">
        <time>2021-02-28T09:52:23.524000+00:00</time>
      </trkpt>
      <trkpt lat="0" lon="0">
        <time>2021-02-28T09:52:23.529000+00:00</time>
      </trkpt>
      <trkpt lat="47.34612" lon="-1.43064">
        <ele>102</ele>
        <time>2021-02-28T09:52:24.483000+00:00</time>
      </trkpt>
      <trkpt lat="0" lon="0">
        <time>2021-02-28T09:52:24.489000+00:00</time>
      </trkpt>
      <trkpt lat="0" lon="0">
        <time>2021-02-28T09:52:24.494000+00:00</time>
      </trkpt>
      <trkpt lat="0" lon="0">
        <time>2021-02-28T09:52:24.496000+00:00</time>
      </trkpt>
      <trkpt lat="47.34611" lon="-1.43055">
        <ele>102</ele>
        <time>2021-02-28T09:52:25.497000+00:00</time>
      </trkpt>
      <trkpt lat="0" lon="0">
        <time>2021-02-28T09:52:25.506000+00:00</time>
      </trkpt>
      <trkpt lat="0" lon="0">
        <time>2021-02-28T09:52:25.512000+00:00</time>
      </trkpt>
      <trkpt lat="0" lon="0">
        <time>2021-02-28T09:52:25.515000+00:00</time>
      </trkpt>
      <trkpt lat="47.34611" lon="-1.43047">
        <ele>102</ele>
        <time>2021-02-28T09:52:26.487000+00:00</time>
      </trkpt>
      <trkpt lat="0" lon="0">
        <time>2021-02-28T09:52:26.491000+00:00</time>
      </trkpt>
      <trkpt lat="0" lon="0">
        <time>2021-02-28T09:52:26.496000+00:00</time>
      </trkpt>
      <trkpt lat="0" lon="0">
        <time>2021-02-28T09:52:26.498000+00:00</time>
      </trkpt>
      <trkpt lat="47.3461" lon="-1.43039">
        <ele>102</ele>
        <time>2021-02-28T09:52:27.487000+00:00</time>
      </trkpt>
      <trkpt lat="0" lon="0">
        <time>2021-02-28T09:52:27.494000+00:00</time>
      </trkpt>
      <trkpt lat="0" lon="0">
        <time>2021-02-28T09:52:27.500000+00:00</time>
      </trkpt>
      <trkpt lat="0" lon="0">
        <time>2021-02-28T09:52:27.503000+00:00</time>
      </trkpt>
      <trkpt lat="47.34609" lon="-1.4303">
        <ele>102</ele>
        <time>2021-02-28T09:52:28.475000+00:00</time>
      </trkpt>
      <trkpt lat="0" lon="0">
        <time>2021-02-28T09:52:28.481000+00:00</time>
      </trkpt>
      <trkpt lat="0" lon="0">
        <time>2021-02-28T09:52:28.488000+00:00</time>
      </trkpt>
      <trkpt lat="0" lon="0">
        <time>2021-02-28T09:52:28.491000+00:00</time>
      </trkpt>
      <trkpt lat="47.34608" lon="-1.43022">
        <ele>102</ele>
        <time>2021-02-28T09:52:29.474000+00:00</time>
      </trkpt>
      <trkpt lat="0" lon="0">
        <time>2021-02-28T09:52:29.492000+00:00</time>
      </trkpt>
      <trkpt lat="0" lon="0">
        <time>2021-02-28T09:52:29.497000+00:00</time>
      </trkpt>
      <trkpt lat="0" lon="0">
        <time>2021-02-28T09:52:29.501000+00:00</time>
      </trkpt>
      <trkpt lat="47.34608" lon="-1.43014">
        <ele>102</ele>
        <time>2021-02-28T09:52:30.426000+00:00</time>
      </trkpt>
      <trkpt lat="0" lon="0">
        <time>2021-02-28T09:52:30.428000+00:00</time>
      </trkpt>
      <trkpt lat="0" lon="0">
        <time>2021-02-28T09:52:30.431000+00:00</time>
      </trkpt>
      <trkpt lat="0" lon="0">
        <time>2021-02-28T09:52:30.432000+00:00</time>
      </trkpt>
      <trkpt lat="47.34607" lon="-1.43005">
        <ele>102</ele>
        <time>2021-02-28T09:52:31.512000+00:00</time>
      </trkpt>
      <trkpt lat="0" lon="0">
        <time>2021-02-28T09:52:31.522000+00:00</time>
      </trkpt>
      <trkpt lat="0" lon="0">
        <time>2021-02-28T09:52:31.530000+00:00</time>
      </trkpt>
      <trkpt lat="0" lon="0">
        <time>2021-02-28T09:52:31.535000+00:00</time>
      </trkpt>
      <trkpt lat="47.34607" lon="-1.42997">
        <ele>102</ele>
        <time>2021-02-28T09:52:32.511000+00:00</time>
      </trkpt>
      <trkpt lat="0" lon="0">
        <time>2021-02-28T09:52:32.518000+00:00</time>
      </trkpt>
      <trkpt lat="0" lon="0">
        <time>2021-02-28T09:52:32.524000+00:00</time>
      </trkpt>
      <trkpt lat="0" lon="0">
        <time>2021-02-28T09:52:32.526000+00:00</time>
      </trkpt>
      <trkpt lat="47.34606" lon="-1.42989">
        <ele>102</ele>
        <time>2021-02-28T09:52:33.455000+00:00</time>
      </trkpt>
      <trkpt lat="0" lon="0">
        <time>2021-02-28T09:52:33.464000+00:00</time>
      </trkpt>
      <trkpt lat="0" lon="0">
        <time>2021-02-28T09:52:33.468000+00:00</time>
      </trkpt>
      <trkpt lat="0" lon="0">
        <time>2021-02-28T09:52:33.470000+00:00</time>
      </trkpt>
      <trkpt lat="47.34606" lon="-1.4298">
        <ele>103</ele>
        <time>2021-02-28T09:52:34.488000+00:00</time>
      </trkpt>
      <trkpt lat="0" lon="0">
        <time>2021-02-28T09:52:34.497000+00:00</time>
      </trkpt>
      <trkpt lat="0" lon="0">
        <time>2021-02-28T09:52:34.503000+00:00</time>
      </trkpt>
      <trkpt lat="0" lon="0">
        <time>2021-02-28T09:52:34.506000+00:00</time>
      </trkpt>
      <trkpt lat="47.34605" lon="-1.42972">
        <ele>103</ele>
        <time>2021-02-28T09:52:35.508000+00:00</time>
      </trkpt>
      <trkpt lat="0" lon="0">
        <time>2021-02-28T09:52:35.518000+00:00</time>
      </trkpt>
      <trkpt lat="0" lon="0">
        <time>2021-02-28T09:52:35.522000+00:00</time>
      </trkpt>
      <trkpt lat="0" lon="0">
        <time>2021-02-28T09:52:35.525000+00:00</time>
      </trkpt>
      <trkpt lat="47.34605" lon="-1.42964">
        <ele>102</ele>
        <time>2021-02-28T09:52:36.498000+00:00</time>
      </trkpt>
      <trkpt lat="0" lon="0">
        <time>2021-02-28T09:52:36.509000+00:00</time>
      </trkpt>
      <trkpt lat="0" lon="0">
        <time>2021-02-28T09:52:36.514000+00:00</time>
      </trkpt>
      <trkpt lat="0" lon="0">
        <time>2021-02-28T09:52:36.516000+00:00</time>
      </trkpt>
      <trkpt lat="47.34604" lon="-1.42955">
        <ele>102</ele>
        <time>2021-02-28T09:52:37.482000+00:00</time>
      </trkpt>
      <trkpt lat="0" lon="0">
        <time>2021-02-28T09:52:37.493000+00:00</time>
      </trkpt>
      <trkpt lat="0" lon="0">
        <time>2021-02-28T09:52:37.501000+00:00</time>
      </trkpt>
      <trkpt lat="0" lon="0">
        <time>2021-02-28T09:52:37.503000+00:00</time>
      </trkpt>
      <trkpt lat="47.34603" lon="-1.42947">
        <ele>102</ele>
        <time>2021-02-28T09:52:38.474000+00:00</time>
      </trkpt>
      <trkpt lat="0" lon="0">
        <time>2021-02-28T09:52:38.480000+00:00</time>
      </trkpt>
      <trkpt lat="0" lon="0">
        <time>2021-02-28T09:52:38.484000+00:00</time>
      </trkpt>
      <trkpt lat="0" lon="0">
        <time>2021-02-28T09:52:38.486000+00:00</time>
      </trkpt>
      <trkpt lat="47.34603" lon="-1.42938">
        <ele>102</ele>
        <time>2021-02-28T09:52:39.504000+00:00</time>
      </trkpt>
      <trkpt lat="0" lon="0">
        <time>2021-02-28T09:52:39.509000+00:00</time>
      </trkpt>
      <trkpt lat="0" lon="0">
        <time>2021-02-28T09:52:39.513000+00:00</time>
      </trkpt>
      <trkpt lat="0" lon="0">
        <time>2021-02-28T09:52:39.516000+00:00</time>
      </trkpt>
      <trkpt lat="47.34602" lon="-1.4293">
        <ele>102</ele>
        <time>2021-02-28T09:52:40.450000+00:00</time>
      </trkpt>
      <trkpt lat="0" lon="0">
        <time>2021-02-28T09:52:40.459000+00:00</time>
      </trkpt>
      <trkpt lat="0" lon="0">
        <time>2021-02-28T09:52:40.463000+00:00</time>
      </trkpt>
      <trkpt lat="0" lon="0">
        <time>2021-02-28T09:52:40.465000+00:00</time>
      </trkpt>
      <trkpt lat="47.34602" lon="-1.42922">
        <ele>102</ele>
        <time>2021-02-28T09:52:41.450000+00:00</time>
      </trkpt>
      <trkpt lat="0" lon="0">
        <time>2021-02-28T09:52:41.458000+00:00</time>
      </trkpt>
      <trkpt lat="0" lon="0">
        <time>2021-02-28T09:52:41.462000+00:00</time>
      </trkpt>
      <trkpt lat="0" lon="0">
        <time>2021-02-28T09:52:41.464000+00:00</time>
      </trkpt>
      <trkpt lat="47.34601" lon="-1.42914">
        <ele>102</ele>
        <time>2021-02-28T09:52:42.487000+00:00</time>
      </trkpt>
      <trkpt lat="0" lon="0">
        <time>2021-02-28T09:52:42.492000+00:00</time>
      </trkpt>
      <trkpt lat="0" lon="0">
        <time>2021-02-28T09:52:42.497000+00:00</time>
      </trkpt>
      <trkpt lat="0" lon="0">
        <time>2021-02-28T09:52:42.500000+00:00</time>
      </trkpt>
      <trkpt lat="47.346" lon="-1.42906">
        <ele>102</ele>
        <time>2021-02-28T09:52:43.494000+00:00</time>
      </trkpt>
      <trkpt lat="0" lon="0">
        <time>2021-02-28T09:52:43.508000+00:00</time>
      </trkpt>
      <trkpt lat="0" lon="0">
        <time>2021-02-28T09:52:43.514000+00:00</time>
      </trkpt>
      <trkpt lat="0" lon="0">
        <time>2021-02-28T09:52:43.516000+00:00</time>
      </trkpt>
      <trkpt lat="47.34599" lon="-1.42898">
        <ele>102</ele>
        <time>2021-02-28T09:52:44.525000+00:00</time>
      </trkpt>
      <trkpt lat="0" lon="0">
        <time>2021-02-28T09:52:44.533000+00:00</time>
      </trkpt>
      <trkpt lat="0" lon="0">
        <time>2021-02-28T09:52:44.538000+00:00</time>
      </trkpt>
      <trkpt lat="0" lon="0">
        <time>2021-02-28T09:52:44.542000+00:00</time>
      </trkpt>
      <trkpt lat="47.34598" lon="-1.42889">
        <ele>102</ele>
        <time>2021-02-28T09:52:45.442000+00:00</time>
      </trkpt>
      <trkpt lat="0" lon="0">
        <time>2021-02-28T09:52:45.447000+00:00</time>
      </trkpt>
      <trkpt lat="0" lon="0">
        <time>2021-02-28T09:52:45.451000+00:00</time>
      </trkpt>
      <trkpt lat="0" lon="0">
        <time>2021-02-28T09:52:45.453000+00:00</time>
      </trkpt>
      <trkpt lat="47.34598" lon="-1.42881">
        <ele>103</ele>
        <time>2021-02-28T09:52:46.461000+00:00</time>
      </trkpt>
      <trkpt lat="0" lon="0">
        <time>2021-02-28T09:52:46.478000+00:00</time>
      </trkpt>
      <trkpt lat="0" lon="0">
        <time>2021-02-28T09:52:46.485000+00:00</time>
      </trkpt>
      <trkpt lat="0" lon="0">
        <time>2021-02-28T09:52:46.488000+00:00</time>
      </trkpt>
      <trkpt lat="47.34597" lon="-1.42873">
        <ele>103</ele>
        <time>2021-02-28T09:52:47.473000+00:00</time>
      </trkpt>
      <trkpt lat="0" lon="0">
        <time>2021-02-28T09:52:47.480000+00:00</time>
      </trkpt>
      <trkpt lat="0" lon="0">
        <time>2021-02-28T09:52:47.487000+00:00</time>
      </trkpt>
      <trkpt lat="0" lon="0">
        <time>2021-02-28T09:52:47.490000+00:00</time>
      </trkpt>
      <trkpt lat="47.34597" lon="-1.42865">
        <ele>103</ele>
        <time>2021-02-28T09:52:48.482000+00:00</time>
      </trkpt>
      <trkpt lat="0" lon="0">
        <time>2021-02-28T09:52:48.491000+00:00</time>
      </trkpt>
      <trkpt lat="0" lon="0">
        <time>2021-02-28T09:52:48.495000+00:00</time>
      </trkpt>
      <trkpt lat="0" lon="0">
        <time>2021-02-28T09:52:48.501000+00:00</time>
      </trkpt>
      <trkpt lat="47.34596" lon="-1.42857">
        <ele>103</ele>
        <time>2021-02-28T09:52:49.476000+00:00</time>
      </trkpt>
      <trkpt lat="0" lon="0">
        <time>2021-02-28T09:52:49.485000+00:00</time>
      </trkpt>
      <trkpt lat="0" lon="0">
        <time>2021-02-28T09:52:49.490000+00:00</time>
      </trkpt>
      <trkpt lat="0" lon="0">
        <time>2021-02-28T09:52:49.493000+00:00</time>
      </trkpt>
      <trkpt lat="47.34595" lon="-1.42849">
        <ele>103</ele>
        <time>2021-02-28T09:52:50.474000+00:00</time>
      </trkpt>
      <trkpt lat="0" lon="0">
        <time>2021-02-28T09:52:50.485000+00:00</time>
      </trkpt>
      <trkpt lat="0" lon="0">
        <time>2021-02-28T09:52:50.490000+00:00</time>
      </trkpt>
      <trkpt lat="0" lon="0">
        <time>2021-02-28T09:52:50.492000+00:00</time>
      </trkpt>
      <trkpt lat="47.34595" lon="-1.42842">
        <ele>103</ele>
        <time>2021-02-28T09:52:51.503000+00:00</time>
      </trkpt>
      <trkpt lat="0" lon="0">
        <time>2021-02-28T09:52:51.509000+00:00</time>
      </trkpt>
      <trkpt lat="0" lon="0">
        <time>2021-02-28T09:52:51.513000+00:00</time>
      </trkpt>
      <trkpt lat="0" lon="0">
        <time>2021-02-28T09:52:51.516000+00:00</time>
      </trkpt>
      <trkpt lat="47.34594" lon="-1.42835">
        <ele>103</ele>
        <time>2021-02-28T09:52:52.469000+00:00</time>
      </trkpt>
      <trkpt lat="0" lon="0">
        <time>2021-02-28T09:52:52.473000+00:00</time>
      </trkpt>
      <trkpt lat="0" lon="0">
        <time>2021-02-28T09:52:52.475000+00:00</time>
      </trkpt>
      <trkpt lat="0" lon="0">
        <time>2021-02-28T09:52:52.477000+00:00</time>
      </trkpt>
      <trkpt lat="47.34593" lon="-1.42828">
        <ele>103</ele>
        <time>2021-02-28T09:52:53.481000+00:00</time>
      </trkpt>
      <trkpt lat="0" lon="0">
        <time>2021-02-28T09:52:53.486000+00:00</time>
      </trkpt>
      <trkpt lat="0" lon="0">
        <time>2021-02-28T09:52:53.491000+00:00</time>
      </trkpt>
      <trkpt lat="0" lon="0">
        <time>2021-02-28T09:52:53.494000+00:00</time>
      </trkpt>
      <trkpt lat="47.34593" lon="-1.42821">
        <ele>104</ele>
        <time>2021-02-28T09:52:54.459000+00:00</time>
      </trkpt>
      <trkpt lat="0" lon="0">
        <time>2021-02-28T09:52:54.474000+00:00</time>
      </trkpt>
      <trkpt lat="0" lon="0">
        <time>2021-02-28T09:52:54.484000+00:00</time>
      </trkpt>
      <trkpt lat="0" lon="0">
        <time>2021-02-28T09:52:54.487000+00:00</time>
      </trkpt>
      <trkpt lat="47.34592" lon="-1.42815">
        <ele>104</ele>
        <time>2021-02-28T09:52:55.470000+00:00</time>
      </trkpt>
      <trkpt lat="0" lon="0">
        <time>2021-02-28T09:52:55.484000+00:00</time>
      </trkpt>
      <trkpt lat="0" lon="0">
        <time>2021-02-28T09:52:55.493000+00:00</time>
      </trkpt>
      <trkpt lat="0" lon="0">
        <time>2021-02-28T09:52:55.496000+00:00</time>
      </trkpt>
      <trkpt lat="47.34591" lon="-1.42808">
        <ele>104</ele>
        <time>2021-02-28T09:52:56.467000+00:00</time>
      </trkpt>
      <trkpt lat="0" lon="0">
        <time>2021-02-28T09:52:56.477000+00:00</time>
      </trkpt>
      <trkpt lat="0" lon="0">
        <time>2021-02-28T09:52:56.483000+00:00</time>
      </trkpt>
      <trkpt lat="0" lon="0">
        <time>2021-02-28T09:52:56.486000+00:00</time>
      </trkpt>
      <trkpt lat="47.34591" lon="-1.42801">
        <ele>104</ele>
        <time>2021-02-28T09:52:57.478000+00:00</time>
      </trkpt>
      <trkpt lat="0" lon="0">
        <time>2021-02-28T09:52:57.484000+00:00</time>
      </trkpt>
      <trkpt lat="0" lon="0">
        <time>2021-02-28T09:52:57.489000+00:00</time>
      </trkpt>
      <trkpt lat="0" lon="0">
        <time>2021-02-28T09:52:57.492000+00:00</time>
      </trkpt>
      <trkpt lat="47.3459" lon="-1.42795">
        <ele>104</ele>
        <time>2021-02-28T09:52:58.460000+00:00</time>
      </trkpt>
      <trkpt lat="0" lon="0">
        <time>2021-02-28T09:52:58.469000+00:00</time>
      </trkpt>
      <trkpt lat="0" lon="0">
        <time>2021-02-28T09:52:58.475000+00:00</time>
      </trkpt>
      <trkpt lat="0" lon="0">
        <time>2021-02-28T09:52:58.478000+00:00</time>
      </trkpt>
      <trkpt lat="47.3459" lon="-1.42788">
        <ele>104</ele>
        <time>2021-02-28T09:52:59.453000+00:00</time>
      </trkpt>
      <trkpt lat="0" lon="0">
        <time>2021-02-28T09:52:59.466000+00:00</time>
      </trkpt>
      <trkpt lat="0" lon="0">
        <time>2021-02-28T09:52:59.469000+00:00</time>
      </trkpt>
      <trkpt lat="0" lon="0">
        <time>2021-02-28T09:52:59.472000+00:00</time>
      </trkpt>
      <trkpt lat="47.34589" lon="-1.42781">
        <ele>104</ele>
        <time>2021-02-28T09:53:00.465000+00:00</time>
      </trkpt>
      <trkpt lat="0" lon="0">
        <time>2021-02-28T09:53:00.479000+00:00</time>
      </trkpt>
      <trkpt lat="0" lon="0">
        <time>2021-02-28T09:53:00.484000+00:00</time>
      </trkpt>
      <trkpt lat="0" lon="0">
        <time>2021-02-28T09:53:00.487000+00:00</time>
      </trkpt>
      <trkpt lat="47.34588" lon="-1.42774">
        <ele>104</ele>
        <time>2021-02-28T09:53:01.474000+00:00</time>
      </trkpt>
      <trkpt lat="0" lon="0">
        <time>2021-02-28T09:53:01.481000+00:00</time>
      </trkpt>
      <trkpt lat="0" lon="0">
        <time>2021-02-28T09:53:01.487000+00:00</time>
      </trkpt>
      <trkpt lat="0" lon="0">
        <time>2021-02-28T09:53:01.489000+00:00</time>
      </trkpt>
      <trkpt lat="47.34588" lon="-1.42767">
        <ele>104</ele>
        <time>2021-02-28T09:53:02.436000+00:00</time>
      </trkpt>
      <trkpt lat="0" lon="0">
        <time>2021-02-28T09:53:02.446000+00:00</time>
      </trkpt>
      <trkpt lat="0" lon="0">
        <time>2021-02-28T09:53:02.454000+00:00</time>
      </trkpt>
      <trkpt lat="0" lon="0">
        <time>2021-02-28T09:53:02.456000+00:00</time>
      </trkpt>
      <trkpt lat="47.34587" lon="-1.42759">
        <ele>104</ele>
        <time>2021-02-28T09:53:03.323000+00:00</time>
      </trkpt>
      <trkpt lat="0" lon="0">
        <time>2021-02-28T09:53:03.328000+00:00</time>
      </trkpt>
      <trkpt lat="0" lon="0">
        <time>2021-02-28T09:53:03.332000+00:00</time>
      </trkpt>
      <trkpt lat="0" lon="0">
        <time>2021-02-28T09:53:03.333000+00:00</time>
      </trkpt>
      <trkpt lat="47.34587" lon="-1.42752">
        <ele>103</ele>
        <time>2021-02-28T09:53:04.422000+00:00</time>
      </trkpt>
      <trkpt lat="0" lon="0">
        <time>2021-02-28T09:53:04.432000+00:00</time>
      </trkpt>
      <trkpt lat="0" lon="0">
        <time>2021-02-28T09:53:04.438000+00:00</time>
      </trkpt>
      <trkpt lat="0" lon="0">
        <time>2021-02-28T09:53:04.441000+00:00</time>
      </trkpt>
      <trkpt lat="47.34586" lon="-1.42746">
        <ele>104</ele>
        <time>2021-02-28T09:53:05.460000+00:00</time>
      </trkpt>
      <trkpt lat="0" lon="0">
        <time>2021-02-28T09:53:05.468000+00:00</time>
      </trkpt>
      <trkpt lat="0" lon="0">
        <time>2021-02-28T09:53:05.472000+00:00</time>
      </trkpt>
      <trkpt lat="0" lon="0">
        <time>2021-02-28T09:53:05.475000+00:00</time>
      </trkpt>
      <trkpt lat="47.34586" lon="-1.42739">
        <ele>104</ele>
        <time>2021-02-28T09:53:06.472000+00:00</time>
      </trkpt>
      <trkpt lat="0" lon="0">
        <time>2021-02-28T09:53:06.478000+00:00</time>
      </trkpt>
      <trkpt lat="0" lon="0">
        <time>2021-02-28T09:53:06.484000+00:00</time>
      </trkpt>
      <trkpt lat="0" lon="0">
        <time>2021-02-28T09:53:06.487000+00:00</time>
      </trkpt>
      <trkpt lat="47.34586" lon="-1.42733">
        <ele>105</ele>
        <time>2021-02-28T09:53:07.492000+00:00</time>
      </trkpt>
      <trkpt lat="0" lon="0">
        <time>2021-02-28T09:53:07.505000+00:00</time>
      </trkpt>
      <trkpt lat="0" lon="0">
        <time>2021-02-28T09:53:07.512000+00:00</time>
      </trkpt>
      <trkpt lat="0" lon="0">
        <time>2021-02-28T09:53:07.514000+00:00</time>
      </trkpt>
      <trkpt lat="47.34586" lon="-1.42728">
        <ele>105</ele>
        <time>2021-02-28T09:53:08.415000+00:00</time>
      </trkpt>
      <trkpt lat="0" lon="0">
        <time>2021-02-28T09:53:08.422000+00:00</time>
      </trkpt>
      <trkpt lat="0" lon="0">
        <time>2021-02-28T09:53:08.428000+00:00</time>
      </trkpt>
      <trkpt lat="0" lon="0">
        <time>2021-02-28T09:53:08.430000+00:00</time>
      </trkpt>
      <trkpt lat="47.34586" lon="-1.42724">
        <ele>105</ele>
        <time>2021-02-28T09:53:09.452000+00:00</time>
      </trkpt>
      <trkpt lat="0" lon="0">
        <time>2021-02-28T09:53:09.472000+00:00</time>
      </trkpt>
      <trkpt lat="0" lon="0">
        <time>2021-02-28T09:53:09.477000+00:00</time>
      </trkpt>
      <trkpt lat="0" lon="0">
        <time>2021-02-28T09:53:09.480000+00:00</time>
      </trkpt>
      <trkpt lat="47.34585" lon="-1.4272">
        <ele>105</ele>
        <time>2021-02-28T09:53:10.449000+00:00</time>
      </trkpt>
      <trkpt lat="0" lon="0">
        <time>2021-02-28T09:53:10.464000+00:00</time>
      </trkpt>
      <trkpt lat="0" lon="0">
        <time>2021-02-28T09:53:10.473000+00:00</time>
      </trkpt>
      <trkpt lat="0" lon="0">
        <time>2021-02-28T09:53:10.476000+00:00</time>
      </trkpt>
      <trkpt lat="47.34585" lon="-1.42717">
        <ele>105</ele>
        <time>2021-02-28T09:53:11.479000+00:00</time>
      </trkpt>
      <trkpt lat="0" lon="0">
        <time>2021-02-28T09:53:11.490000+00:00</time>
      </trkpt>
      <trkpt lat="0" lon="0">
        <time>2021-02-28T09:53:11.494000+00:00</time>
      </trkpt>
      <trkpt lat="0" lon="0">
        <time>2021-02-28T09:53:11.496000+00:00</time>
      </trkpt>
      <trkpt lat="47.34584" lon="-1.42714">
        <ele>105</ele>
        <time>2021-02-28T09:53:12.487000+00:00</time>
      </trkpt>
      <trkpt lat="0" lon="0">
        <time>2021-02-28T09:53:12.497000+00:00</time>
      </trkpt>
      <trkpt lat="0" lon="0">
        <time>2021-02-28T09:53:12.505000+00:00</time>
      </trkpt>
      <trkpt lat="0" lon="0">
        <time>2021-02-28T09:53:12.509000+00:00</time>
      </trkpt>
      <trkpt lat="47.34584" lon="-1.42712">
        <ele>105</ele>
        <time>2021-02-28T09:53:13.425000+00:00</time>
      </trkpt>
      <trkpt lat="0" lon="0">
        <time>2021-02-28T09:53:13.433000+00:00</time>
      </trkpt>
      <trkpt lat="0" lon="0">
        <time>2021-02-28T09:53:13.437000+00:00</time>
      </trkpt>
      <trkpt lat="0" lon="0">
        <time>2021-02-28T09:53:13.439000+00:00</time>
      </trkpt>
      <trkpt lat="47.34583" lon="-1.42709">
        <ele>105</ele>
        <time>2021-02-28T09:53:14.403000+00:00</time>
      </trkpt>
      <trkpt lat="0" lon="0">
        <time>2021-02-28T09:53:14.405000+00:00</time>
      </trkpt>
      <trkpt lat="0" lon="0">
        <time>2021-02-28T09:53:14.406000+00:00</time>
      </trkpt>
      <trkpt lat="0" lon="0">
        <time>2021-02-28T09:53:14.407000+00:00</time>
      </trkpt>
      <trkpt lat="47.34583" lon="-1.42706">
        <ele>105</ele>
        <time>2021-02-28T09:53:15.478000+00:00</time>
      </trkpt>
      <trkpt lat="0" lon="0">
        <time>2021-02-28T09:53:15.485000+00:00</time>
      </trkpt>
      <trkpt lat="0" lon="0">
        <time>2021-02-28T09:53:15.490000+00:00</time>
      </trkpt>
      <trkpt lat="0" lon="0">
        <time>2021-02-28T09:53:15.493000+00:00</time>
      </trkpt>
      <trkpt lat="47.34583" lon="-1.42703">
        <ele>105</ele>
        <time>2021-02-28T09:53:16.483000+00:00</time>
      </trkpt>
      <trkpt lat="0" lon="0">
        <time>2021-02-28T09:53:16.490000+00:00</time>
      </trkpt>
      <trkpt lat="0" lon="0">
        <time>2021-02-28T09:53:16.494000+00:00</time>
      </trkpt>
      <trkpt lat="0" lon="0">
        <time>2021-02-28T09:53:16.497000+00:00</time>
      </trkpt>
      <trkpt lat="47.34582" lon="-1.42701">
        <ele>106</ele>
        <time>2021-02-28T09:53:17.451000+00:00</time>
      </trkpt>
      <trkpt lat="0" lon="0">
        <time>2021-02-28T09:53:17.462000+00:00</time>
      </trkpt>
      <trkpt lat="0" lon="0">
        <time>2021-02-28T09:53:17.468000+00:00</time>
      </trkpt>
      <trkpt lat="0" lon="0">
        <time>2021-02-28T09:53:17.472000+00:00</time>
      </trkpt>
      <trkpt lat="47.34582" lon="-1.42698">
        <ele>106</ele>
        <time>2021-02-28T09:53:18.436000+00:00</time>
      </trkpt>
      <trkpt lat="0" lon="0">
        <time>2021-02-28T09:53:18.444000+00:00</time>
      </trkpt>
      <trkpt lat="0" lon="0">
        <time>2021-02-28T09:53:18.448000+00:00</time>
      </trkpt>
      <trkpt lat="0" lon="0">
        <time>2021-02-28T09:53:18.449000+00:00</time>
      </trkpt>
      <trkpt lat="47.34582" lon="-1.42695">
        <ele>106</ele>
        <time>2021-02-28T09:53:19.443000+00:00</time>
      </trkpt>
      <trkpt lat="0" lon="0">
        <time>2021-02-28T09:53:19.452000+00:00</time>
      </trkpt>
      <trkpt lat="0" lon="0">
        <time>2021-02-28T09:53:19.455000+00:00</time>
      </trkpt>
      <trkpt lat="0" lon="0">
        <time>2021-02-28T09:53:19.457000+00:00</time>
      </trkpt>
      <trkpt lat="47.34582" lon="-1.42692">
        <ele>106</ele>
        <time>2021-02-28T09:53:20.461000+00:00</time>
      </trkpt>
      <trkpt lat="0" lon="0">
        <time>2021-02-28T09:53:20.471000+00:00</time>
      </trkpt>
      <trkpt lat="0" lon="0">
        <time>2021-02-28T09:53:20.476000+00:00</time>
      </trkpt>
      <trkpt lat="0" lon="0">
        <time>2021-02-28T09:53:20.477000+00:00</time>
      </trkpt>
      <trkpt lat="47.34581" lon="-1.42689">
        <ele>106</ele>
        <time>2021-02-28T09:53:21.448000+00:00</time>
      </trkpt>
      <trkpt lat="0" lon="0">
        <time>2021-02-28T09:53:21.459000+00:00</time>
      </trkpt>
      <trkpt lat="0" lon="0">
        <time>2021-02-28T09:53:21.464000+00:00</time>
      </trkpt>
      <trkpt lat="0" lon="0">
        <time>2021-02-28T09:53:21.467000+00:00</time>
      </trkpt>
      <trkpt lat="47.34581" lon="-1.42687">
        <ele>106</ele>
        <time>2021-02-28T09:53:22.425000+00:00</time>
      </trkpt>
      <trkpt lat="0" lon="0">
        <time>2021-02-28T09:53:22.434000+00:00</time>
      </trkpt>
      <trkpt lat="0" lon="0">
        <time>2021-02-28T09:53:22.441000+00:00</time>
      </trkpt>
      <trkpt lat="0" lon="0">
        <time>2021-02-28T09:53:22.444000+00:00</time>
      </trkpt>
      <trkpt lat="47.34581" lon="-1.42684">
        <ele>106</ele>
        <time>2021-02-28T09:53:23.453000+00:00</time>
      </trkpt>
      <trkpt lat="0" lon="0">
        <time>2021-02-28T09:53:23.459000+00:00</time>
      </trkpt>
      <trkpt lat="0" lon="0">
        <time>2021-02-28T09:53:23.464000+00:00</time>
      </trkpt>
      <trkpt lat="0" lon="0">
        <time>2021-02-28T09:53:23.466000+00:00</time>
      </trkpt>
      <trkpt lat="47.34581" lon="-1.42681">
        <ele>106</ele>
        <time>2021-02-28T09:53:24.472000+00:00</time>
      </trkpt>
      <trkpt lat="0" lon="0">
        <time>2021-02-28T09:53:24.480000+00:00</time>
      </trkpt>
      <trkpt lat="0" lon="0">
        <time>2021-02-28T09:53:24.487000+00:00</time>
      </trkpt>
      <trkpt lat="0" lon="0">
        <time>2021-02-28T09:53:24.491000+00:00</time>
      </trkpt>
      <trkpt lat="47.34581" lon="-1.42679">
        <ele>106</ele>
        <time>2021-02-28T09:53:25.453000+00:00</time>
      </trkpt>
      <trkpt lat="0" lon="0">
        <time>2021-02-28T09:53:25.459000+00:00</time>
      </trkpt>
      <trkpt lat="0" lon="0">
        <time>2021-02-28T09:53:25.476000+00:00</time>
      </trkpt>
      <trkpt lat="0" lon="0">
        <time>2021-02-28T09:53:25.480000+00:00</time>
      </trkpt>
      <trkpt lat="47.34581" lon="-1.42676">
        <ele>106</ele>
        <time>2021-02-28T09:53:26.435000+00:00</time>
      </trkpt>
      <trkpt lat="0" lon="0">
        <time>2021-02-28T09:53:26.440000+00:00</time>
      </trkpt>
      <trkpt lat="0" lon="0">
        <time>2021-02-28T09:53:26.441000+00:00</time>
      </trkpt>
      <trkpt lat="0" lon="0">
        <time>2021-02-28T09:53:26.442000+00:00</time>
      </trkpt>
      <trkpt lat="47.34581" lon="-1.42673">
        <ele>106</ele>
        <time>2021-02-28T09:53:27.347000+00:00</time>
      </trkpt>
      <trkpt lat="0" lon="0">
        <time>2021-02-28T09:53:27.352000+00:00</time>
      </trkpt>
      <trkpt lat="0" lon="0">
        <time>2021-02-28T09:53:27.353000+00:00</time>
      </trkpt>
      <trkpt lat="0" lon="0">
        <time>2021-02-28T09:53:27.354000+00:00</time>
      </trkpt>
      <trkpt lat="47.34581" lon="-1.4267">
        <ele>106</ele>
        <time>2021-02-28T09:53:28.356000+00:00</time>
      </trkpt>
      <trkpt lat="0" lon="0">
        <time>2021-02-28T09:53:28.359000+00:00</time>
      </trkpt>
      <trkpt lat="0" lon="0">
        <time>2021-02-28T09:53:28.361000+00:00</time>
      </trkpt>
      <trkpt lat="0" lon="0">
        <time>2021-02-28T09:53:28.362000+00:00</time>
      </trkpt>
      <trkpt lat="47.34581" lon="-1.42666">
        <ele>106</ele>
        <time>2021-02-28T09:53:29.384000+00:00</time>
      </trkpt>
      <trkpt lat="0" lon="0">
        <time>2021-02-28T09:53:29.391000+00:00</time>
      </trkpt>
      <trkpt lat="0" lon="0">
        <time>2021-02-28T09:53:29.397000+00:00</time>
      </trkpt>
      <trkpt lat="0" lon="0">
        <time>2021-02-28T09:53:29.400000+00:00</time>
      </trkpt>
      <trkpt lat="47.34581" lon="-1.42662">
        <ele>106</ele>
        <time>2021-02-28T09:53:30.460000+00:00</time>
      </trkpt>
      <trkpt lat="0" lon="0">
        <time>2021-02-28T09:53:30.469000+00:00</time>
      </trkpt>
      <trkpt lat="0" lon="0">
        <time>2021-02-28T09:53:30.473000+00:00</time>
      </trkpt>
      <trkpt lat="0" lon="0">
        <time>2021-02-28T09:53:30.476000+00:00</time>
      </trkpt>
      <trkpt lat="47.3458" lon="-1.42657">
        <ele>106</ele>
        <time>2021-02-28T09:53:31.407000+00:00</time>
      </trkpt>
      <trkpt lat="0" lon="0">
        <time>2021-02-28T09:53:31.418000+00:00</time>
      </trkpt>
      <trkpt lat="0" lon="0">
        <time>2021-02-28T09:53:31.423000+00:00</time>
      </trkpt>
      <trkpt lat="0" lon="0">
        <time>2021-02-28T09:53:31.425000+00:00</time>
      </trkpt>
      <trkpt lat="47.3458" lon="-1.42653">
        <ele>106</ele>
        <time>2021-02-28T09:53:32.413000+00:00</time>
      </trkpt>
      <trkpt lat="0" lon="0">
        <time>2021-02-28T09:53:32.415000+00:00</time>
      </trkpt>
      <trkpt lat="0" lon="0">
        <time>2021-02-28T09:53:32.418000+00:00</time>
      </trkpt>
      <trkpt lat="0" lon="0">
        <time>2021-02-28T09:53:32.419000+00:00</time>
      </trkpt>
      <trkpt lat="47.3458" lon="-1.42647">
        <ele>106</ele>
        <time>2021-02-28T09:53:33.492000+00:00</time>
      </trkpt>
      <trkpt lat="0" lon="0">
        <time>2021-02-28T09:53:33.496000+00:00</time>
      </trkpt>
      <trkpt lat="0" lon="0">
        <time>2021-02-28T09:53:33.500000+00:00</time>
      </trkpt>
      <trkpt lat="0" lon="0">
        <time>2021-02-28T09:53:33.502000+00:00</time>
      </trkpt>
      <trkpt lat="47.34579" lon="-1.42641">
        <ele>106</ele>
        <time>2021-02-28T09:53:34.435000+00:00</time>
      </trkpt>
      <trkpt lat="0" lon="0">
        <time>2021-02-28T09:53:34.443000+00:00</time>
      </trkpt>
      <trkpt lat="0" lon="0">
        <time>2021-02-28T09:53:34.449000+00:00</time>
      </trkpt>
      <trkpt lat="0" lon="0">
        <time>2021-02-28T09:53:34.454000+00:00</time>
      </trkpt>
      <trkpt lat="47.34579" lon="-1.42635">
        <ele>106</ele>
        <time>2021-02-28T09:53:35.467000+00:00</time>
      </trkpt>
      <trkpt lat="0" lon="0">
        <time>2021-02-28T09:53:35.473000+00:00</time>
      </trkpt>
      <trkpt lat="0" lon="0">
        <time>2021-02-28T09:53:35.478000+00:00</time>
      </trkpt>
      <trkpt lat="0" lon="0">
        <time>2021-02-28T09:53:35.481000+00:00</time>
      </trkpt>
      <trkpt lat="47.34579" lon="-1.42628">
        <ele>106</ele>
        <time>2021-02-28T09:53:36.481000+00:00</time>
      </trkpt>
      <trkpt lat="0" lon="0">
        <time>2021-02-28T09:53:36.494000+00:00</time>
      </trkpt>
      <trkpt lat="0" lon="0">
        <time>2021-02-28T09:53:36.499000+00:00</time>
      </trkpt>
      <trkpt lat="0" lon="0">
        <time>2021-02-28T09:53:36.503000+00:00</time>
      </trkpt>
      <trkpt lat="47.34578" lon="-1.42621">
        <ele>106</ele>
        <time>2021-02-28T09:53:37.489000+00:00</time>
      </trkpt>
      <trkpt lat="0" lon="0">
        <time>2021-02-28T09:53:37.498000+00:00</time>
      </trkpt>
      <trkpt lat="0" lon="0">
        <time>2021-02-28T09:53:37.502000+00:00</time>
      </trkpt>
      <trkpt lat="0" lon="0">
        <time>2021-02-28T09:53:37.505000+00:00</time>
      </trkpt>
      <trkpt lat="47.34578" lon="-1.42614">
        <ele>106</ele>
        <time>2021-02-28T09:53:38.437000+00:00</time>
      </trkpt>
      <trkpt lat="0" lon="0">
        <time>2021-02-28T09:53:38.447000+00:00</time>
      </trkpt>
      <trkpt lat="0" lon="0">
        <time>2021-02-28T09:53:38.455000+00:00</time>
      </trkpt>
      <trkpt lat="0" lon="0">
        <time>2021-02-28T09:53:38.458000+00:00</time>
      </trkpt>
      <trkpt lat="47.34578" lon="-1.42607">
        <ele>106</ele>
        <time>2021-02-28T09:53:39.479000+00:00</time>
      </trkpt>
      <trkpt lat="0" lon="0">
        <time>2021-02-28T09:53:39.488000+00:00</time>
      </trkpt>
      <trkpt lat="0" lon="0">
        <time>2021-02-28T09:53:39.494000+00:00</time>
      </trkpt>
      <trkpt lat="0" lon="0">
        <time>2021-02-28T09:53:39.498000+00:00</time>
      </trkpt>
      <trkpt lat="47.34578" lon="-1.426">
        <ele>106</ele>
        <time>2021-02-28T09:53:40.471000+00:00</time>
      </trkpt>
      <trkpt lat="0" lon="0">
        <time>2021-02-28T09:53:40.476000+00:00</time>
      </trkpt>
      <trkpt lat="0" lon="0">
        <time>2021-02-28T09:53:40.480000+00:00</time>
      </trkpt>
      <trkpt lat="0" lon="0">
        <time>2021-02-28T09:53:40.482000+00:00</time>
      </trkpt>
      <trkpt lat="47.34577" lon="-1.42592">
        <ele>106</ele>
        <time>2021-02-28T09:53:41.491000+00:00</time>
      </trkpt>
      <trkpt lat="0" lon="0">
        <time>2021-02-28T09:53:41.501000+00:00</time>
      </trkpt>
      <trkpt lat="0" lon="0">
        <time>2021-02-28T09:53:41.506000+00:00</time>
      </trkpt>
      <trkpt lat="0" lon="0">
        <time>2021-02-28T09:53:41.508000+00:00</time>
      </trkpt>
      <trkpt lat="47.34577" lon="-1.42585">
        <ele>107</ele>
        <time>2021-02-28T09:53:42.467000+00:00</time>
      </trkpt>
      <trkpt lat="0" lon="0">
        <time>2021-02-28T09:53:42.475000+00:00</time>
      </trkpt>
      <trkpt lat="0" lon="0">
        <time>2021-02-28T09:53:42.481000+00:00</time>
      </trkpt>
      <trkpt lat="0" lon="0">
        <time>2021-02-28T09:53:42.484000+00:00</time>
      </trkpt>
      <trkpt lat="47.34577" lon="-1.42578">
        <ele>107</ele>
        <time>2021-02-28T09:53:43.493000+00:00</time>
      </trkpt>
      <trkpt lat="0" lon="0">
        <time>2021-02-28T09:53:43.497000+00:00</time>
      </trkpt>
      <trkpt lat="0" lon="0">
        <time>2021-02-28T09:53:43.502000+00:00</time>
      </trkpt>
      <trkpt lat="0" lon="0">
        <time>2021-02-28T09:53:43.505000+00:00</time>
      </trkpt>
      <trkpt lat="47.34576" lon="-1.42571">
        <ele>107</ele>
        <time>2021-02-28T09:53:44.506000+00:00</time>
      </trkpt>
      <trkpt lat="0" lon="0">
        <time>2021-02-28T09:53:44.512000+00:00</time>
      </trkpt>
      <trkpt lat="0" lon="0">
        <time>2021-02-28T09:53:44.518000+00:00</time>
      </trkpt>
      <trkpt lat="0" lon="0">
        <time>2021-02-28T09:53:44.520000+00:00</time>
      </trkpt>
      <trkpt lat="47.34575" lon="-1.42564">
        <ele>107</ele>
        <time>2021-02-28T09:53:45.481000+00:00</time>
      </trkpt>
      <trkpt lat="0" lon="0">
        <time>2021-02-28T09:53:45.489000+00:00</time>
      </trkpt>
      <trkpt lat="0" lon="0">
        <time>2021-02-28T09:53:45.494000+00:00</time>
      </trkpt>
      <trkpt lat="0" lon="0">
        <time>2021-02-28T09:53:45.497000+00:00</time>
      </trkpt>
      <trkpt lat="47.34575" lon="-1.42556">
        <ele>107</ele>
        <time>2021-02-28T09:53:46.496000+00:00</time>
      </trkpt>
      <trkpt lat="0" lon="0">
        <time>2021-02-28T09:53:46.507000+00:00</time>
      </trkpt>
      <trkpt lat="0" lon="0">
        <time>2021-02-28T09:53:46.511000+00:00</time>
      </trkpt>
      <trkpt lat="0" lon="0">
        <time>2021-02-28T09:53:46.513000+00:00</time>
      </trkpt>
      <trkpt lat="47.34574" lon="-1.42549">
        <ele>108</ele>
        <time>2021-02-28T09:53:47.498000+00:00</time>
      </trkpt>
      <trkpt lat="0" lon="0">
        <time>2021-02-28T09:53:47.504000+00:00</time>
      </trkpt>
      <trkpt lat="0" lon="0">
        <time>2021-02-28T09:53:47.509000+00:00</time>
      </trkpt>
      <trkpt lat="0" lon="0">
        <time>2021-02-28T09:53:47.512000+00:00</time>
      </trkpt>
      <trkpt lat="47.34573" lon="-1.42541">
        <ele>108</ele>
        <time>2021-02-28T09:53:48.501000+00:00</time>
      </trkpt>
      <trkpt lat="0" lon="0">
        <time>2021-02-28T09:53:48.509000+00:00</time>
      </trkpt>
      <trkpt lat="0" lon="0">
        <time>2021-02-28T09:53:48.513000+00:00</time>
      </trkpt>
      <trkpt lat="0" lon="0">
        <time>2021-02-28T09:53:48.516000+00:00</time>
      </trkpt>
      <trkpt lat="47.34573" lon="-1.42534">
        <ele>107</ele>
        <time>2021-02-28T09:53:49.464000+00:00</time>
      </trkpt>
      <trkpt lat="0" lon="0">
        <time>2021-02-28T09:53:49.471000+00:00</time>
      </trkpt>
      <trkpt lat="0" lon="0">
        <time>2021-02-28T09:53:49.473000+00:00</time>
      </trkpt>
      <trkpt lat="0" lon="0">
        <time>2021-02-28T09:53:49.474000+00:00</time>
      </trkpt>
      <trkpt lat="47.34572" lon="-1.42526">
        <ele>107</ele>
        <time>2021-02-28T09:53:50.497000+00:00</time>
      </trkpt>
      <trkpt lat="0" lon="0">
        <time>2021-02-28T09:53:50.502000+00:00</time>
      </trkpt>
      <trkpt lat="0" lon="0">
        <time>2021-02-28T09:53:50.507000+00:00</time>
      </trkpt>
      <trkpt lat="0" lon="0">
        <time>2021-02-28T09:53:50.510000+00:00</time>
      </trkpt>
      <trkpt lat="47.34571" lon="-1.42518">
        <ele>107</ele>
        <time>2021-02-28T09:53:51.481000+00:00</time>
      </trkpt>
      <trkpt lat="0" lon="0">
        <time>2021-02-28T09:53:51.490000+00:00</time>
      </trkpt>
      <trkpt lat="0" lon="0">
        <time>2021-02-28T09:53:51.496000+00:00</time>
      </trkpt>
      <trkpt lat="0" lon="0">
        <time>2021-02-28T09:53:51.498000+00:00</time>
      </trkpt>
      <trkpt lat="47.3457" lon="-1.4251">
        <ele>107</ele>
        <time>2021-02-28T09:53:52.486000+00:00</time>
      </trkpt>
      <trkpt lat="0" lon="0">
        <time>2021-02-28T09:53:52.494000+00:00</time>
      </trkpt>
      <trkpt lat="0" lon="0">
        <time>2021-02-28T09:53:52.499000+00:00</time>
      </trkpt>
      <trkpt lat="0" lon="0">
        <time>2021-02-28T09:53:52.501000+00:00</time>
      </trkpt>
      <trkpt lat="47.3457" lon="-1.42502">
        <ele>107</ele>
        <time>2021-02-28T09:53:53.502000+00:00</time>
      </trkpt>
      <trkpt lat="0" lon="0">
        <time>2021-02-28T09:53:53.511000+00:00</time>
      </trkpt>
      <trkpt lat="0" lon="0">
        <time>2021-02-28T09:53:53.518000+00:00</time>
      </trkpt>
      <trkpt lat="0" lon="0">
        <time>2021-02-28T09:53:53.520000+00:00</time>
      </trkpt>
      <trkpt lat="47.34569" lon="-1.42494">
        <ele>107</ele>
        <time>2021-02-28T09:53:54.511000+00:00</time>
      </trkpt>
      <trkpt lat="0" lon="0">
        <time>2021-02-28T09:53:54.518000+00:00</time>
      </trkpt>
      <trkpt lat="0" lon="0">
        <time>2021-02-28T09:53:54.523000+00:00</time>
      </trkpt>
      <trkpt lat="0" lon="0">
        <time>2021-02-28T09:53:54.525000+00:00</time>
      </trkpt>
      <trkpt lat="47.34568" lon="-1.42486">
        <ele>107</ele>
        <time>2021-02-28T09:53:55.456000+00:00</time>
      </trkpt>
      <trkpt lat="0" lon="0">
        <time>2021-02-28T09:53:55.463000+00:00</time>
      </trkpt>
      <trkpt lat="0" lon="0">
        <time>2021-02-28T09:53:55.468000+00:00</time>
      </trkpt>
      <trkpt lat="0" lon="0">
        <time>2021-02-28T09:53:55.470000+00:00</time>
      </trkpt>
      <trkpt lat="47.34568" lon="-1.42478">
        <ele>107</ele>
        <time>2021-02-28T09:53:56.504000+00:00</time>
      </trkpt>
      <trkpt lat="0" lon="0">
        <time>2021-02-28T09:53:56.513000+00:00</time>
      </trkpt>
      <trkpt lat="0" lon="0">
        <time>2021-02-28T09:53:56.517000+00:00</time>
      </trkpt>
      <trkpt lat="0" lon="0">
        <time>2021-02-28T09:53:56.519000+00:00</time>
      </trkpt>
      <trkpt lat="47.34567" lon="-1.42469">
        <ele>107</ele>
        <time>2021-02-28T09:53:57.502000+00:00</time>
      </trkpt>
      <trkpt lat="0" lon="0">
        <time>2021-02-28T09:53:57.509000+00:00</time>
      </trkpt>
      <trkpt lat="0" lon="0">
        <time>2021-02-28T09:53:57.517000+00:00</time>
      </trkpt>
      <trkpt lat="0" lon="0">
        <time>2021-02-28T09:53:57.520000+00:00</time>
      </trkpt>
      <trkpt lat="47.34566" lon="-1.42461">
        <ele>107</ele>
        <time>2021-02-28T09:53:58.510000+00:00</time>
      </trkpt>
      <trkpt lat="0" lon="0">
        <time>2021-02-28T09:53:58.516000+00:00</time>
      </trkpt>
      <trkpt lat="0" lon="0">
        <time>2021-02-28T09:53:58.528000+00:00</time>
      </trkpt>
      <trkpt lat="0" lon="0">
        <time>2021-02-28T09:53:58.533000+00:00</time>
      </trkpt>
      <trkpt lat="47.34566" lon="-1.42453">
        <ele>107</ele>
        <time>2021-02-28T09:53:59.459000+00:00</time>
      </trkpt>
      <trkpt lat="0" lon="0">
        <time>2021-02-28T09:53:59.466000+00:00</time>
      </trkpt>
      <trkpt lat="0" lon="0">
        <time>2021-02-28T09:53:59.471000+00:00</time>
      </trkpt>
      <trkpt lat="0" lon="0">
        <time>2021-02-28T09:53:59.473000+00:00</time>
      </trkpt>
      <trkpt lat="47.34565" lon="-1.42444">
        <ele>107</ele>
        <time>2021-02-28T09:54:00.421000+00:00</time>
      </trkpt>
      <trkpt lat="0" lon="0">
        <time>2021-02-28T09:54:00.428000+00:00</time>
      </trkpt>
      <trkpt lat="0" lon="0">
        <time>2021-02-28T09:54:00.433000+00:00</time>
      </trkpt>
      <trkpt lat="0" lon="0">
        <time>2021-02-28T09:54:00.435000+00:00</time>
      </trkpt>
      <trkpt lat="47.34565" lon="-1.42436">
        <ele>107</ele>
        <time>2021-02-28T09:54:01.453000+00:00</time>
      </trkpt>
      <trkpt lat="0" lon="0">
        <time>2021-02-28T09:54:01.455000+00:00</time>
      </trkpt>
      <trkpt lat="0" lon="0">
        <time>2021-02-28T09:54:01.460000+00:00</time>
      </trkpt>
      <trkpt lat="0" lon="0">
        <time>2021-02-28T09:54:01.461000+00:00</time>
      </trkpt>
      <trkpt lat="47.34564" lon="-1.42427">
        <ele>107</ele>
        <time>2021-02-28T09:54:02.453000+00:00</time>
      </trkpt>
      <trkpt lat="0" lon="0">
        <time>2021-02-28T09:54:02.464000+00:00</time>
      </trkpt>
      <trkpt lat="0" lon="0">
        <time>2021-02-28T09:54:02.469000+00:00</time>
      </trkpt>
      <trkpt lat="0" lon="0">
        <time>2021-02-28T09:54:02.472000+00:00</time>
      </trkpt>
      <trkpt lat="47.34564" lon="-1.42419">
        <ele>107</ele>
        <time>2021-02-28T09:54:03.507000+00:00</time>
      </trkpt>
      <trkpt lat="0" lon="0">
        <time>2021-02-28T09:54:03.516000+00:00</time>
      </trkpt>
      <trkpt lat="0" lon="0">
        <time>2021-02-28T09:54:03.524000+00:00</time>
      </trkpt>
      <trkpt lat="0" lon="0">
        <time>2021-02-28T09:54:03.528000+00:00</time>
      </trkpt>
      <trkpt lat="47.34563" lon="-1.4241">
        <ele>107</ele>
        <time>2021-02-28T09:54:04.370000+00:00</time>
      </trkpt>
      <trkpt lat="0" lon="0">
        <time>2021-02-28T09:54:04.373000+00:00</time>
      </trkpt>
      <trkpt lat="0" lon="0">
        <time>2021-02-28T09:54:04.376000+00:00</time>
      </trkpt>
      <trkpt lat="0" lon="0">
        <time>2021-02-28T09:54:04.379000+00:00</time>
      </trkpt>
      <trkpt lat="47.34563" lon="-1.42402">
        <ele>107</ele>
        <time>2021-02-28T09:54:05.467000+00:00</time>
      </trkpt>
      <trkpt lat="0" lon="0">
        <time>2021-02-28T09:54:05.473000+00:00</time>
      </trkpt>
      <trkpt lat="0" lon="0">
        <time>2021-02-28T09:54:05.478000+00:00</time>
      </trkpt>
      <trkpt lat="0" lon="0">
        <time>2021-02-28T09:54:05.483000+00:00</time>
      </trkpt>
      <trkpt lat="47.34563" lon="-1.42393">
        <ele>107</ele>
        <time>2021-02-28T09:54:06.499000+00:00</time>
      </trkpt>
      <trkpt lat="0" lon="0">
        <time>2021-02-28T09:54:06.508000+00:00</time>
      </trkpt>
      <trkpt lat="0" lon="0">
        <time>2021-02-28T09:54:06.515000+00:00</time>
      </trkpt>
      <trkpt lat="0" lon="0">
        <time>2021-02-28T09:54:06.517000+00:00</time>
      </trkpt>
      <trkpt lat="47.34562" lon="-1.42384">
        <ele>107</ele>
        <time>2021-02-28T09:54:07.466000+00:00</time>
      </trkpt>
      <trkpt lat="0" lon="0">
        <time>2021-02-28T09:54:07.471000+00:00</time>
      </trkpt>
      <trkpt lat="0" lon="0">
        <time>2021-02-28T09:54:07.475000+00:00</time>
      </trkpt>
      <trkpt lat="0" lon="0">
        <time>2021-02-28T09:54:07.478000+00:00</time>
      </trkpt>
      <trkpt lat="47.34562" lon="-1.42376">
        <ele>107</ele>
        <time>2021-02-28T09:54:08.504000+00:00</time>
      </trkpt>
      <trkpt lat="0" lon="0">
        <time>2021-02-28T09:54:08.519000+00:00</time>
      </trkpt>
      <trkpt lat="0" lon="0">
        <time>2021-02-28T09:54:08.524000+00:00</time>
      </trkpt>
      <trkpt lat="0" lon="0">
        <time>2021-02-28T09:54:08.526000+00:00</time>
      </trkpt>
      <trkpt lat="47.34561" lon="-1.42368">
        <ele>107</ele>
        <time>2021-02-28T09:54:09.470000+00:00</time>
      </trkpt>
      <trkpt lat="0" lon="0">
        <time>2021-02-28T09:54:09.477000+00:00</time>
      </trkpt>
      <trkpt lat="0" lon="0">
        <time>2021-02-28T09:54:09.483000+00:00</time>
      </trkpt>
      <trkpt lat="0" lon="0">
        <time>2021-02-28T09:54:09.487000+00:00</time>
      </trkpt>
      <trkpt lat="47.34561" lon="-1.42359">
        <ele>107</ele>
        <time>2021-02-28T09:54:10.484000+00:00</time>
      </trkpt>
      <trkpt lat="0" lon="0">
        <time>2021-02-28T09:54:10.496000+00:00</time>
      </trkpt>
      <trkpt lat="0" lon="0">
        <time>2021-02-28T09:54:10.500000+00:00</time>
      </trkpt>
      <trkpt lat="0" lon="0">
        <time>2021-02-28T09:54:10.502000+00:00</time>
      </trkpt>
      <trkpt lat="47.34561" lon="-1.42351">
        <ele>107</ele>
        <time>2021-02-28T09:54:11.480000+00:00</time>
      </trkpt>
      <trkpt lat="0" lon="0">
        <time>2021-02-28T09:54:11.487000+00:00</time>
      </trkpt>
      <trkpt lat="0" lon="0">
        <time>2021-02-28T09:54:11.493000+00:00</time>
      </trkpt>
      <trkpt lat="0" lon="0">
        <time>2021-02-28T09:54:11.497000+00:00</time>
      </trkpt>
      <trkpt lat="47.3456" lon="-1.42343">
        <ele>107</ele>
        <time>2021-02-28T09:54:12.482000+00:00</time>
      </trkpt>
      <trkpt lat="0" lon="0">
        <time>2021-02-28T09:54:12.487000+00:00</time>
      </trkpt>
      <trkpt lat="0" lon="0">
        <time>2021-02-28T09:54:12.491000+00:00</time>
      </trkpt>
      <trkpt lat="0" lon="0">
        <time>2021-02-28T09:54:12.493000+00:00</time>
      </trkpt>
      <trkpt lat="47.3456" lon="-1.42335">
        <ele>107</ele>
        <time>2021-02-28T09:54:13.465000+00:00</time>
      </trkpt>
      <trkpt lat="0" lon="0">
        <time>2021-02-28T09:54:13.473000+00:00</time>
      </trkpt>
      <trkpt lat="0" lon="0">
        <time>2021-02-28T09:54:13.479000+00:00</time>
      </trkpt>
      <trkpt lat="0" lon="0">
        <time>2021-02-28T09:54:13.482000+00:00</time>
      </trkpt>
      <trkpt lat="47.34559" lon="-1.42327">
        <ele>106</ele>
        <time>2021-02-28T09:54:14.491000+00:00</time>
      </trkpt>
      <trkpt lat="0" lon="0">
        <time>2021-02-28T09:54:14.500000+00:00</time>
      </trkpt>
      <trkpt lat="0" lon="0">
        <time>2021-02-28T09:54:14.504000+00:00</time>
      </trkpt>
      <trkpt lat="0" lon="0">
        <time>2021-02-28T09:54:14.506000+00:00</time>
      </trkpt>
      <trkpt lat="47.34559" lon="-1.42319">
        <ele>106</ele>
        <time>2021-02-28T09:54:15.486000+00:00</time>
      </trkpt>
      <trkpt lat="0" lon="0">
        <time>2021-02-28T09:54:15.493000+00:00</time>
      </trkpt>
      <trkpt lat="0" lon="0">
        <time>2021-02-28T09:54:15.498000+00:00</time>
      </trkpt>
      <trkpt lat="0" lon="0">
        <time>2021-02-28T09:54:15.501000+00:00</time>
      </trkpt>
      <trkpt lat="47.34558" lon="-1.4231">
        <ele>106</ele>
        <time>2021-02-28T09:54:16.508000+00:00</time>
      </trkpt>
      <trkpt lat="0" lon="0">
        <time>2021-02-28T09:54:16.514000+00:00</time>
      </trkpt>
      <trkpt lat="0" lon="0">
        <time>2021-02-28T09:54:16.520000+00:00</time>
      </trkpt>
      <trkpt lat="0" lon="0">
        <time>2021-02-28T09:54:16.522000+00:00</time>
      </trkpt>
      <trkpt lat="47.34558" lon="-1.42302">
        <ele>106</ele>
        <time>2021-02-28T09:54:17.527000+00:00</time>
      </trkpt>
      <trkpt lat="0" lon="0">
        <time>2021-02-28T09:54:17.533000+00:00</time>
      </trkpt>
      <trkpt lat="0" lon="0">
        <time>2021-02-28T09:54:17.540000+00:00</time>
      </trkpt>
      <trkpt lat="0" lon="0">
        <time>2021-02-28T09:54:17.543000+00:00</time>
      </trkpt>
      <trkpt lat="47.34557" lon="-1.42294">
        <ele>106</ele>
        <time>2021-02-28T09:54:18.503000+00:00</time>
      </trkpt>
      <trkpt lat="0" lon="0">
        <time>2021-02-28T09:54:18.511000+00:00</time>
      </trkpt>
      <trkpt lat="0" lon="0">
        <time>2021-02-28T09:54:18.526000+00:00</time>
      </trkpt>
      <trkpt lat="0" lon="0">
        <time>2021-02-28T09:54:18.536000+00:00</time>
      </trkpt>
      <trkpt lat="47.34557" lon="-1.42286">
        <ele>106</ele>
        <time>2021-02-28T09:54:19.504000+00:00</time>
      </trkpt>
      <trkpt lat="0" lon="0">
        <time>2021-02-28T09:54:19.513000+00:00</time>
      </trkpt>
      <trkpt lat="0" lon="0">
        <time>2021-02-28T09:54:19.519000+00:00</time>
      </trkpt>
      <trkpt lat="0" lon="0">
        <time>2021-02-28T09:54:19.521000+00:00</time>
      </trkpt>
      <trkpt lat="47.34556" lon="-1.42278">
        <ele>106</ele>
        <time>2021-02-28T09:54:20.476000+00:00</time>
      </trkpt>
      <trkpt lat="0" lon="0">
        <time>2021-02-28T09:54:20.483000+00:00</time>
      </trkpt>
      <trkpt lat="0" lon="0">
        <time>2021-02-28T09:54:20.488000+00:00</time>
      </trkpt>
      <trkpt lat="0" lon="0">
        <time>2021-02-28T09:54:20.491000+00:00</time>
      </trkpt>
      <trkpt lat="47.34556" lon="-1.4227">
        <ele>106</ele>
        <time>2021-02-28T09:54:21.498000+00:00</time>
      </trkpt>
      <trkpt lat="0" lon="0">
        <time>2021-02-28T09:54:21.505000+00:00</time>
      </trkpt>
      <trkpt lat="0" lon="0">
        <time>2021-02-28T09:54:21.510000+00:00</time>
      </trkpt>
      <trkpt lat="0" lon="0">
        <time>2021-02-28T09:54:21.513000+00:00</time>
      </trkpt>
      <trkpt lat="47.34555" lon="-1.42262">
        <ele>107</ele>
        <time>2021-02-28T09:54:22.480000+00:00</time>
      </trkpt>
      <trkpt lat="0" lon="0">
        <time>2021-02-28T09:54:22.493000+00:00</time>
      </trkpt>
      <trkpt lat="0" lon="0">
        <time>2021-02-28T09:54:22.500000+00:00</time>
      </trkpt>
      <trkpt lat="0" lon="0">
        <time>2021-02-28T09:54:22.504000+00:00</time>
      </trkpt>
      <trkpt lat="47.34555" lon="-1.42254">
        <ele>107</ele>
        <time>2021-02-28T09:54:23.497000+00:00</time>
      </trkpt>
      <trkpt lat="0" lon="0">
        <time>2021-02-28T09:54:23.504000+00:00</time>
      </trkpt>
      <trkpt lat="0" lon="0">
        <time>2021-02-28T09:54:23.508000+00:00</time>
      </trkpt>
      <trkpt lat="0" lon="0">
        <time>2021-02-28T09:54:23.512000+00:00</time>
      </trkpt>
      <trkpt lat="47.34554" lon="-1.42246">
        <ele>107</ele>
        <time>2021-02-28T09:54:24.469000+00:00</time>
      </trkpt>
      <trkpt lat="0" lon="0">
        <time>2021-02-28T09:54:24.474000+00:00</time>
      </trkpt>
      <trkpt lat="0" lon="0">
        <time>2021-02-28T09:54:24.478000+00:00</time>
      </trkpt>
      <trkpt lat="0" lon="0">
        <time>2021-02-28T09:54:24.480000+00:00</time>
      </trkpt>
      <trkpt lat="47.34553" lon="-1.42238">
        <ele>107</ele>
        <time>2021-02-28T09:54:25.474000+00:00</time>
      </trkpt>
      <trkpt lat="0" lon="0">
        <time>2021-02-28T09:54:25.480000+00:00</time>
      </trkpt>
      <trkpt lat="0" lon="0">
        <time>2021-02-28T09:54:25.485000+00:00</time>
      </trkpt>
      <trkpt lat="0" lon="0">
        <time>2021-02-28T09:54:25.488000+00:00</time>
      </trkpt>
      <trkpt lat="47.34552" lon="-1.4223">
        <ele>107</ele>
        <time>2021-02-28T09:54:26.464000+00:00</time>
      </trkpt>
      <trkpt lat="0" lon="0">
        <time>2021-02-28T09:54:26.468000+00:00</time>
      </trkpt>
      <trkpt lat="0" lon="0">
        <time>2021-02-28T09:54:26.474000+00:00</time>
      </trkpt>
      <trkpt lat="0" lon="0">
        <time>2021-02-28T09:54:26.476000+00:00</time>
      </trkpt>
      <trkpt lat="47.34551" lon="-1.42222">
        <ele>107</ele>
        <time>2021-02-28T09:54:27.484000+00:00</time>
      </trkpt>
      <trkpt lat="0" lon="0">
        <time>2021-02-28T09:54:27.492000+00:00</time>
      </trkpt>
      <trkpt lat="0" lon="0">
        <time>2021-02-28T09:54:27.497000+00:00</time>
      </trkpt>
      <trkpt lat="0" lon="0">
        <time>2021-02-28T09:54:27.500000+00:00</time>
      </trkpt>
      <trkpt lat="47.34551" lon="-1.42215">
        <ele>108</ele>
        <time>2021-02-28T09:54:28.500000+00:00</time>
      </trkpt>
      <trkpt lat="0" lon="0">
        <time>2021-02-28T09:54:28.508000+00:00</time>
      </trkpt>
      <trkpt lat="0" lon="0">
        <time>2021-02-28T09:54:28.515000+00:00</time>
      </trkpt>
      <trkpt lat="0" lon="0">
        <time>2021-02-28T09:54:28.517000+00:00</time>
      </trkpt>
      <trkpt lat="47.3455" lon="-1.42207">
        <ele>108</ele>
        <time>2021-02-28T09:54:29.500000+00:00</time>
      </trkpt>
      <trkpt lat="0" lon="0">
        <time>2021-02-28T09:54:29.507000+00:00</time>
      </trkpt>
      <trkpt lat="0" lon="0">
        <time>2021-02-28T09:54:29.513000+00:00</time>
      </trkpt>
      <trkpt lat="0" lon="0">
        <time>2021-02-28T09:54:29.516000+00:00</time>
      </trkpt>
      <trkpt lat="47.34549" lon="-1.42199">
        <ele>108</ele>
        <time>2021-02-28T09:54:30.498000+00:00</time>
      </trkpt>
      <trkpt lat="0" lon="0">
        <time>2021-02-28T09:54:30.509000+00:00</time>
      </trkpt>
      <trkpt lat="0" lon="0">
        <time>2021-02-28T09:54:30.515000+00:00</time>
      </trkpt>
      <trkpt lat="0" lon="0">
        <time>2021-02-28T09:54:30.518000+00:00</time>
      </trkpt>
      <trkpt lat="47.34549" lon="-1.42192">
        <ele>108</ele>
        <time>2021-02-28T09:54:31.415000+00:00</time>
      </trkpt>
      <trkpt lat="0" lon="0">
        <time>2021-02-28T09:54:31.420000+00:00</time>
      </trkpt>
      <trkpt lat="0" lon="0">
        <time>2021-02-28T09:54:31.425000+00:00</time>
      </trkpt>
      <trkpt lat="0" lon="0">
        <time>2021-02-28T09:54:31.428000+00:00</time>
      </trkpt>
      <trkpt lat="47.34548" lon="-1.42185">
        <ele>109</ele>
        <time>2021-02-28T09:54:32.455000+00:00</time>
      </trkpt>
      <trkpt lat="0" lon="0">
        <time>2021-02-28T09:54:32.465000+00:00</time>
      </trkpt>
      <trkpt lat="0" lon="0">
        <time>2021-02-28T09:54:32.472000+00:00</time>
      </trkpt>
      <trkpt lat="0" lon="0">
        <time>2021-02-28T09:54:32.476000+00:00</time>
      </trkpt>
      <trkpt lat="47.34548" lon="-1.42177">
        <ele>109</ele>
        <time>2021-02-28T09:54:33.440000+00:00</time>
      </trkpt>
      <trkpt lat="0" lon="0">
        <time>2021-02-28T09:54:33.449000+00:00</time>
      </trkpt>
      <trkpt lat="0" lon="0">
        <time>2021-02-28T09:54:33.454000+00:00</time>
      </trkpt>
      <trkpt lat="0" lon="0">
        <time>2021-02-28T09:54:33.459000+00:00</time>
      </trkpt>
      <trkpt lat="47.34548" lon="-1.42169">
        <ele>109</ele>
        <time>2021-02-28T09:54:34.478000+00:00</time>
      </trkpt>
      <trkpt lat="0" lon="0">
        <time>2021-02-28T09:54:34.492000+00:00</time>
      </trkpt>
      <trkpt lat="0" lon="0">
        <time>2021-02-28T09:54:34.497000+00:00</time>
      </trkpt>
      <trkpt lat="0" lon="0">
        <time>2021-02-28T09:54:34.502000+00:00</time>
      </trkpt>
      <trkpt lat="47.34547" lon="-1.42162">
        <ele>110</ele>
        <time>2021-02-28T09:54:35.462000+00:00</time>
      </trkpt>
      <trkpt lat="0" lon="0">
        <time>2021-02-28T09:54:35.472000+00:00</time>
      </trkpt>
      <trkpt lat="0" lon="0">
        <time>2021-02-28T09:54:35.477000+00:00</time>
      </trkpt>
      <trkpt lat="0" lon="0">
        <time>2021-02-28T09:54:35.479000+00:00</time>
      </trkpt>
      <trkpt lat="47.34547" lon="-1.42154">
        <ele>110</ele>
        <time>2021-02-28T09:54:36.466000+00:00</time>
      </trkpt>
      <trkpt lat="0" lon="0">
        <time>2021-02-28T09:54:36.474000+00:00</time>
      </trkpt>
      <trkpt lat="0" lon="0">
        <time>2021-02-28T09:54:36.478000+00:00</time>
      </trkpt>
      <trkpt lat="0" lon="0">
        <time>2021-02-28T09:54:36.481000+00:00</time>
      </trkpt>
      <trkpt lat="47.34547" lon="-1.42147">
        <ele>110</ele>
        <time>2021-02-28T09:54:37.462000+00:00</time>
      </trkpt>
      <trkpt lat="0" lon="0">
        <time>2021-02-28T09:54:37.468000+00:00</time>
      </trkpt>
      <trkpt lat="0" lon="0">
        <time>2021-02-28T09:54:37.474000+00:00</time>
      </trkpt>
      <trkpt lat="0" lon="0">
        <time>2021-02-28T09:54:37.477000+00:00</time>
      </trkpt>
      <trkpt lat="47.34547" lon="-1.42139">
        <ele>110</ele>
        <time>2021-02-28T09:54:38.477000+00:00</time>
      </trkpt>
      <trkpt lat="0" lon="0">
        <time>2021-02-28T09:54:38.483000+00:00</time>
      </trkpt>
      <trkpt lat="0" lon="0">
        <time>2021-02-28T09:54:38.488000+00:00</time>
      </trkpt>
      <trkpt lat="0" lon="0">
        <time>2021-02-28T09:54:38.490000+00:00</time>
      </trkpt>
      <trkpt lat="47.34546" lon="-1.42131">
        <ele>110</ele>
        <time>2021-02-28T09:54:39.472000+00:00</time>
      </trkpt>
      <trkpt lat="0" lon="0">
        <time>2021-02-28T09:54:39.488000+00:00</time>
      </trkpt>
      <trkpt lat="0" lon="0">
        <time>2021-02-28T09:54:39.493000+00:00</time>
      </trkpt>
      <trkpt lat="0" lon="0">
        <time>2021-02-28T09:54:39.495000+00:00</time>
      </trkpt>
      <trkpt lat="47.34545" lon="-1.42123">
        <ele>110</ele>
        <time>2021-02-28T09:54:40.392000+00:00</time>
      </trkpt>
      <trkpt lat="0" lon="0">
        <time>2021-02-28T09:54:40.396000+00:00</time>
      </trkpt>
      <trkpt lat="0" lon="0">
        <time>2021-02-28T09:54:40.402000+00:00</time>
      </trkpt>
      <trkpt lat="0" lon="0">
        <time>2021-02-28T09:54:40.404000+00:00</time>
      </trkpt>
      <trkpt lat="47.34545" lon="-1.42116">
        <ele>109</ele>
        <time>2021-02-28T09:54:41.430000+00:00</time>
      </trkpt>
      <trkpt lat="0" lon="0">
        <time>2021-02-28T09:54:41.445000+00:00</time>
      </trkpt>
      <trkpt lat="0" lon="0">
        <time>2021-02-28T09:54:41.449000+00:00</time>
      </trkpt>
      <trkpt lat="0" lon="0">
        <time>2021-02-28T09:54:41.452000+00:00</time>
      </trkpt>
      <trkpt lat="47.34544" lon="-1.42108">
        <ele>109</ele>
        <time>2021-02-28T09:54:42.485000+00:00</time>
      </trkpt>
      <trkpt lat="0" lon="0">
        <time>2021-02-28T09:54:42.499000+00:00</time>
      </trkpt>
      <trkpt lat="0" lon="0">
        <time>2021-02-28T09:54:42.505000+00:00</time>
      </trkpt>
      <trkpt lat="0" lon="0">
        <time>2021-02-28T09:54:42.508000+00:00</time>
      </trkpt>
      <trkpt lat="47.34544" lon="-1.421">
        <ele>109</ele>
        <time>2021-02-28T09:54:43.473000+00:00</time>
      </trkpt>
      <trkpt lat="0" lon="0">
        <time>2021-02-28T09:54:43.491000+00:00</time>
      </trkpt>
      <trkpt lat="0" lon="0">
        <time>2021-02-28T09:54:43.496000+00:00</time>
      </trkpt>
      <trkpt lat="0" lon="0">
        <time>2021-02-28T09:54:43.498000+00:00</time>
      </trkpt>
      <trkpt lat="47.34543" lon="-1.42092">
        <ele>109</ele>
        <time>2021-02-28T09:54:44.493000+00:00</time>
      </trkpt>
      <trkpt lat="0" lon="0">
        <time>2021-02-28T09:54:44.500000+00:00</time>
      </trkpt>
      <trkpt lat="0" lon="0">
        <time>2021-02-28T09:54:44.505000+00:00</time>
      </trkpt>
      <trkpt lat="0" lon="0">
        <time>2021-02-28T09:54:44.508000+00:00</time>
      </trkpt>
      <trkpt lat="47.34543" lon="-1.42084">
        <ele>109</ele>
        <time>2021-02-28T09:54:45.482000+00:00</time>
      </trkpt>
      <trkpt lat="0" lon="0">
        <time>2021-02-28T09:54:45.492000+00:00</time>
      </trkpt>
      <trkpt lat="0" lon="0">
        <time>2021-02-28T09:54:45.498000+00:00</time>
      </trkpt>
      <trkpt lat="0" lon="0">
        <time>2021-02-28T09:54:45.501000+00:00</time>
      </trkpt>
      <trkpt lat="47.34542" lon="-1.42076">
        <ele>109</ele>
        <time>2021-02-28T09:54:46.453000+00:00</time>
      </trkpt>
      <trkpt lat="0" lon="0">
        <time>2021-02-28T09:54:46.462000+00:00</time>
      </trkpt>
      <trkpt lat="0" lon="0">
        <time>2021-02-28T09:54:46.467000+00:00</time>
      </trkpt>
      <trkpt lat="0" lon="0">
        <time>2021-02-28T09:54:46.469000+00:00</time>
      </trkpt>
      <trkpt lat="47.34542" lon="-1.42068">
        <ele>109</ele>
        <time>2021-02-28T09:54:47.494000+00:00</time>
      </trkpt>
      <trkpt lat="0" lon="0">
        <time>2021-02-28T09:54:47.507000+00:00</time>
      </trkpt>
      <trkpt lat="0" lon="0">
        <time>2021-02-28T09:54:47.514000+00:00</time>
      </trkpt>
      <trkpt lat="0" lon="0">
        <time>2021-02-28T09:54:47.519000+00:00</time>
      </trkpt>
      <trkpt lat="47.34542" lon="-1.42061">
        <ele>110</ele>
        <time>2021-02-28T09:54:48.481000+00:00</time>
      </trkpt>
      <trkpt lat="0" lon="0">
        <time>2021-02-28T09:54:48.488000+00:00</time>
      </trkpt>
      <trkpt lat="0" lon="0">
        <time>2021-02-28T09:54:48.493000+00:00</time>
      </trkpt>
      <trkpt lat="0" lon="0">
        <time>2021-02-28T09:54:48.496000+00:00</time>
      </trkpt>
      <trkpt lat="47.34541" lon="-1.42054">
        <ele>110</ele>
        <time>2021-02-28T09:54:49.489000+00:00</time>
      </trkpt>
      <trkpt lat="0" lon="0">
        <time>2021-02-28T09:54:49.494000+00:00</time>
      </trkpt>
      <trkpt lat="0" lon="0">
        <time>2021-02-28T09:54:49.499000+00:00</time>
      </trkpt>
      <trkpt lat="0" lon="0">
        <time>2021-02-28T09:54:49.502000+00:00</time>
      </trkpt>
      <trkpt lat="47.34542" lon="-1.42047">
        <ele>111</ele>
        <time>2021-02-28T09:54:50.489000+00:00</time>
      </trkpt>
      <trkpt lat="0" lon="0">
        <time>2021-02-28T09:54:50.503000+00:00</time>
      </trkpt>
      <trkpt lat="0" lon="0">
        <time>2021-02-28T09:54:50.508000+00:00</time>
      </trkpt>
      <trkpt lat="0" lon="0">
        <time>2021-02-28T09:54:50.512000+00:00</time>
      </trkpt>
      <trkpt lat="47.34542" lon="-1.4204">
        <ele>111</ele>
        <time>2021-02-28T09:54:51.471000+00:00</time>
      </trkpt>
      <trkpt lat="0" lon="0">
        <time>2021-02-28T09:54:51.475000+00:00</time>
      </trkpt>
      <trkpt lat="0" lon="0">
        <time>2021-02-28T09:54:51.480000+00:00</time>
      </trkpt>
      <trkpt lat="0" lon="0">
        <time>2021-02-28T09:54:51.482000+00:00</time>
      </trkpt>
      <trkpt lat="47.34542" lon="-1.42035">
        <ele>111</ele>
        <time>2021-02-28T09:54:52.484000+00:00</time>
      </trkpt>
      <trkpt lat="0" lon="0">
        <time>2021-02-28T09:54:52.494000+00:00</time>
      </trkpt>
      <trkpt lat="0" lon="0">
        <time>2021-02-28T09:54:52.499000+00:00</time>
      </trkpt>
      <trkpt lat="0" lon="0">
        <time>2021-02-28T09:54:52.502000+00:00</time>
      </trkpt>
      <trkpt lat="47.34543" lon="-1.42029">
        <ele>112</ele>
        <time>2021-02-28T09:54:53.486000+00:00</time>
      </trkpt>
      <trkpt lat="0" lon="0">
        <time>2021-02-28T09:54:53.496000+00:00</time>
      </trkpt>
      <trkpt lat="0" lon="0">
        <time>2021-02-28T09:54:53.504000+00:00</time>
      </trkpt>
      <trkpt lat="0" lon="0">
        <time>2021-02-28T09:54:53.507000+00:00</time>
      </trkpt>
      <trkpt lat="47.34543" lon="-1.42024">
        <ele>112</ele>
        <time>2021-02-28T09:54:54.443000+00:00</time>
      </trkpt>
      <trkpt lat="0" lon="0">
        <time>2021-02-28T09:54:54.455000+00:00</time>
      </trkpt>
      <trkpt lat="0" lon="0">
        <time>2021-02-28T09:54:54.459000+00:00</time>
      </trkpt>
      <trkpt lat="0" lon="0">
        <time>2021-02-28T09:54:54.462000+00:00</time>
      </trkpt>
      <trkpt lat="47.34543" lon="-1.42019">
        <ele>112</ele>
        <time>2021-02-28T09:54:55.434000+00:00</time>
      </trkpt>
      <trkpt lat="0" lon="0">
        <time>2021-02-28T09:54:55.441000+00:00</time>
      </trkpt>
      <trkpt lat="0" lon="0">
        <time>2021-02-28T09:54:55.445000+00:00</time>
      </trkpt>
      <trkpt lat="0" lon="0">
        <time>2021-02-28T09:54:55.449000+00:00</time>
      </trkpt>
      <trkpt lat="47.34543" lon="-1.42015">
        <ele>111</ele>
        <time>2021-02-28T09:54:56.468000+00:00</time>
      </trkpt>
      <trkpt lat="0" lon="0">
        <time>2021-02-28T09:54:56.478000+00:00</time>
      </trkpt>
      <trkpt lat="0" lon="0">
        <time>2021-02-28T09:54:56.485000+00:00</time>
      </trkpt>
      <trkpt lat="0" lon="0">
        <time>2021-02-28T09:54:56.488000+00:00</time>
      </trkpt>
      <trkpt lat="47.34543" lon="-1.4201">
        <ele>111</ele>
        <time>2021-02-28T09:54:57.460000+00:00</time>
      </trkpt>
      <trkpt lat="0" lon="0">
        <time>2021-02-28T09:54:57.471000+00:00</time>
      </trkpt>
      <trkpt lat="0" lon="0">
        <time>2021-02-28T09:54:57.479000+00:00</time>
      </trkpt>
      <trkpt lat="0" lon="0">
        <time>2021-02-28T09:54:57.481000+00:00</time>
      </trkpt>
      <trkpt lat="47.34543" lon="-1.42005">
        <ele>111</ele>
        <time>2021-02-28T09:54:58.456000+00:00</time>
      </trkpt>
      <trkpt lat="0" lon="0">
        <time>2021-02-28T09:54:58.469000+00:00</time>
      </trkpt>
      <trkpt lat="0" lon="0">
        <time>2021-02-28T09:54:58.476000+00:00</time>
      </trkpt>
      <trkpt lat="0" lon="0">
        <time>2021-02-28T09:54:58.480000+00:00</time>
      </trkpt>
      <trkpt lat="47.34543" lon="-1.42">
        <ele>111</ele>
        <time>2021-02-28T09:54:59.476000+00:00</time>
      </trkpt>
      <trkpt lat="0" lon="0">
        <time>2021-02-28T09:54:59.482000+00:00</time>
      </trkpt>
      <trkpt lat="0" lon="0">
        <time>2021-02-28T09:54:59.489000+00:00</time>
      </trkpt>
      <trkpt lat="0" lon="0">
        <time>2021-02-28T09:54:59.492000+00:00</time>
      </trkpt>
      <trkpt lat="47.34544" lon="-1.41996">
        <ele>111</ele>
        <time>2021-02-28T09:55:00.459000+00:00</time>
      </trkpt>
      <trkpt lat="0" lon="0">
        <time>2021-02-28T09:55:00.464000+00:00</time>
      </trkpt>
      <trkpt lat="0" lon="0">
        <time>2021-02-28T09:55:00.469000+00:00</time>
      </trkpt>
      <trkpt lat="0" lon="0">
        <time>2021-02-28T09:55:00.471000+00:00</time>
      </trkpt>
      <trkpt lat="47.34544" lon="-1.41991">
        <ele>111</ele>
        <time>2021-02-28T09:55:01.483000+00:00</time>
      </trkpt>
      <trkpt lat="0" lon="0">
        <time>2021-02-28T09:55:01.489000+00:00</time>
      </trkpt>
      <trkpt lat="0" lon="0">
        <time>2021-02-28T09:55:01.494000+00:00</time>
      </trkpt>
      <trkpt lat="0" lon="0">
        <time>2021-02-28T09:55:01.497000+00:00</time>
      </trkpt>
      <trkpt lat="47.34544" lon="-1.41987">
        <ele>111</ele>
        <time>2021-02-28T09:55:02.497000+00:00</time>
      </trkpt>
      <trkpt lat="0" lon="0">
        <time>2021-02-28T09:55:02.507000+00:00</time>
      </trkpt>
      <trkpt lat="0" lon="0">
        <time>2021-02-28T09:55:02.511000+00:00</time>
      </trkpt>
      <trkpt lat="0" lon="0">
        <time>2021-02-28T09:55:02.513000+00:00</time>
      </trkpt>
      <trkpt lat="47.34544" lon="-1.41981">
        <ele>111</ele>
        <time>2021-02-28T09:55:03.473000+00:00</time>
      </trkpt>
      <trkpt lat="0" lon="0">
        <time>2021-02-28T09:55:03.482000+00:00</time>
      </trkpt>
      <trkpt lat="0" lon="0">
        <time>2021-02-28T09:55:03.489000+00:00</time>
      </trkpt>
      <trkpt lat="0" lon="0">
        <time>2021-02-28T09:55:03.492000+00:00</time>
      </trkpt>
      <trkpt lat="47.34544" lon="-1.41976">
        <ele>111</ele>
        <time>2021-02-28T09:55:04.494000+00:00</time>
      </trkpt>
      <trkpt lat="0" lon="0">
        <time>2021-02-28T09:55:04.497000+00:00</time>
      </trkpt>
      <trkpt lat="0" lon="0">
        <time>2021-02-28T09:55:04.503000+00:00</time>
      </trkpt>
      <trkpt lat="0" lon="0">
        <time>2021-02-28T09:55:04.505000+00:00</time>
      </trkpt>
      <trkpt lat="47.34544" lon="-1.4197">
        <ele>111</ele>
        <time>2021-02-28T09:55:05.489000+00:00</time>
      </trkpt>
      <trkpt lat="0" lon="0">
        <time>2021-02-28T09:55:05.497000+00:00</time>
      </trkpt>
      <trkpt lat="0" lon="0">
        <time>2021-02-28T09:55:05.500000+00:00</time>
      </trkpt>
      <trkpt lat="0" lon="0">
        <time>2021-02-28T09:55:05.503000+00:00</time>
      </trkpt>
      <trkpt lat="47.34545" lon="-1.41965">
        <ele>111</ele>
        <time>2021-02-28T09:55:06.442000+00:00</time>
      </trkpt>
      <trkpt lat="0" lon="0">
        <time>2021-02-28T09:55:06.451000+00:00</time>
      </trkpt>
      <trkpt lat="0" lon="0">
        <time>2021-02-28T09:55:06.456000+00:00</time>
      </trkpt>
      <trkpt lat="0" lon="0">
        <time>2021-02-28T09:55:06.459000+00:00</time>
      </trkpt>
      <trkpt lat="47.34545" lon="-1.41958">
        <ele>111</ele>
        <time>2021-02-28T09:55:07.489000+00:00</time>
      </trkpt>
      <trkpt lat="0" lon="0">
        <time>2021-02-28T09:55:07.499000+00:00</time>
      </trkpt>
      <trkpt lat="0" lon="0">
        <time>2021-02-28T09:55:07.506000+00:00</time>
      </trkpt>
      <trkpt lat="0" lon="0">
        <time>2021-02-28T09:55:07.509000+00:00</time>
      </trkpt>
      <trkpt lat="47.34546" lon="-1.41952">
        <ele>110</ele>
        <time>2021-02-28T09:55:08.472000+00:00</time>
      </trkpt>
      <trkpt lat="0" lon="0">
        <time>2021-02-28T09:55:08.478000+00:00</time>
      </trkpt>
      <trkpt lat="0" lon="0">
        <time>2021-02-28T09:55:08.482000+00:00</time>
      </trkpt>
      <trkpt lat="0" lon="0">
        <time>2021-02-28T09:55:08.485000+00:00</time>
      </trkpt>
      <trkpt lat="47.34546" lon="-1.41945">
        <ele>111</ele>
        <time>2021-02-28T09:55:09.485000+00:00</time>
      </trkpt>
      <trkpt lat="0" lon="0">
        <time>2021-02-28T09:55:09.492000+00:00</time>
      </trkpt>
      <trkpt lat="0" lon="0">
        <time>2021-02-28T09:55:09.497000+00:00</time>
      </trkpt>
      <trkpt lat="0" lon="0">
        <time>2021-02-28T09:55:09.500000+00:00</time>
      </trkpt>
      <trkpt lat="47.34547" lon="-1.41938">
        <ele>111</ele>
        <time>2021-02-28T09:55:10.437000+00:00</time>
      </trkpt>
      <trkpt lat="0" lon="0">
        <time>2021-02-28T09:55:10.440000+00:00</time>
      </trkpt>
      <trkpt lat="0" lon="0">
        <time>2021-02-28T09:55:10.443000+00:00</time>
      </trkpt>
      <trkpt lat="0" lon="0">
        <time>2021-02-28T09:55:10.444000+00:00</time>
      </trkpt>
      <trkpt lat="47.34548" lon="-1.41931">
        <ele>110</ele>
        <time>2021-02-28T09:55:11.453000+00:00</time>
      </trkpt>
      <trkpt lat="0" lon="0">
        <time>2021-02-28T09:55:11.456000+00:00</time>
      </trkpt>
      <trkpt lat="0" lon="0">
        <time>2021-02-28T09:55:11.458000+00:00</time>
      </trkpt>
      <trkpt lat="0" lon="0">
        <time>2021-02-28T09:55:11.459000+00:00</time>
      </trkpt>
      <trkpt lat="47.34548" lon="-1.41923">
        <ele>110</ele>
        <time>2021-02-28T09:55:12.460000+00:00</time>
      </trkpt>
      <trkpt lat="0" lon="0">
        <time>2021-02-28T09:55:12.469000+00:00</time>
      </trkpt>
      <trkpt lat="0" lon="0">
        <time>2021-02-28T09:55:12.474000+00:00</time>
      </trkpt>
      <trkpt lat="0" lon="0">
        <time>2021-02-28T09:55:12.478000+00:00</time>
      </trkpt>
      <trkpt lat="47.34549" lon="-1.41915">
        <ele>110</ele>
        <time>2021-02-28T09:55:13.444000+00:00</time>
      </trkpt>
      <trkpt lat="0" lon="0">
        <time>2021-02-28T09:55:13.454000+00:00</time>
      </trkpt>
      <trkpt lat="0" lon="0">
        <time>2021-02-28T09:55:13.458000+00:00</time>
      </trkpt>
      <trkpt lat="0" lon="0">
        <time>2021-02-28T09:55:13.461000+00:00</time>
      </trkpt>
      <trkpt lat="47.34549" lon="-1.41908">
        <ele>110</ele>
        <time>2021-02-28T09:55:14.435000+00:00</time>
      </trkpt>
      <trkpt lat="0" lon="0">
        <time>2021-02-28T09:55:14.440000+00:00</time>
      </trkpt>
      <trkpt lat="0" lon="0">
        <time>2021-02-28T09:55:14.445000+00:00</time>
      </trkpt>
      <trkpt lat="0" lon="0">
        <time>2021-02-28T09:55:14.448000+00:00</time>
      </trkpt>
      <trkpt lat="47.3455" lon="-1.419">
        <ele>110</ele>
        <time>2021-02-28T09:55:15.476000+00:00</time>
      </trkpt>
      <trkpt lat="0" lon="0">
        <time>2021-02-28T09:55:15.486000+00:00</time>
      </trkpt>
      <trkpt lat="0" lon="0">
        <time>2021-02-28T09:55:15.492000+00:00</time>
      </trkpt>
      <trkpt lat="0" lon="0">
        <time>2021-02-28T09:55:15.495000+00:00</time>
      </trkpt>
      <trkpt lat="47.3455" lon="-1.41892">
        <ele>110</ele>
        <time>2021-02-28T09:55:16.512000+00:00</time>
      </trkpt>
      <trkpt lat="0" lon="0">
        <time>2021-02-28T09:55:16.522000+00:00</time>
      </trkpt>
      <trkpt lat="0" lon="0">
        <time>2021-02-28T09:55:16.530000+00:00</time>
      </trkpt>
      <trkpt lat="0" lon="0">
        <time>2021-02-28T09:55:16.532000+00:00</time>
      </trkpt>
      <trkpt lat="47.34551" lon="-1.41884">
        <ele>110</ele>
        <time>2021-02-28T09:55:17.476000+00:00</time>
      </trkpt>
      <trkpt lat="0" lon="0">
        <time>2021-02-28T09:55:17.480000+00:00</time>
      </trkpt>
      <trkpt lat="0" lon="0">
        <time>2021-02-28T09:55:17.485000+00:00</time>
      </trkpt>
      <trkpt lat="0" lon="0">
        <time>2021-02-28T09:55:17.487000+00:00</time>
      </trkpt>
      <trkpt lat="47.34551" lon="-1.41876">
        <ele>110</ele>
        <time>2021-02-28T09:55:18.470000+00:00</time>
      </trkpt>
      <trkpt lat="0" lon="0">
        <time>2021-02-28T09:55:18.478000+00:00</time>
      </trkpt>
      <trkpt lat="0" lon="0">
        <time>2021-02-28T09:55:18.482000+00:00</time>
      </trkpt>
      <trkpt lat="0" lon="0">
        <time>2021-02-28T09:55:18.484000+00:00</time>
      </trkpt>
      <trkpt lat="47.34552" lon="-1.41868">
        <ele>110</ele>
        <time>2021-02-28T09:55:19.415000+00:00</time>
      </trkpt>
      <trkpt lat="0" lon="0">
        <time>2021-02-28T09:55:19.424000+00:00</time>
      </trkpt>
      <trkpt lat="0" lon="0">
        <time>2021-02-28T09:55:19.432000+00:00</time>
      </trkpt>
      <trkpt lat="0" lon="0">
        <time>2021-02-28T09:55:19.435000+00:00</time>
      </trkpt>
      <trkpt lat="47.34552" lon="-1.4186">
        <ele>110</ele>
        <time>2021-02-28T09:55:20.447000+00:00</time>
      </trkpt>
      <trkpt lat="0" lon="0">
        <time>2021-02-28T09:55:20.455000+00:00</time>
      </trkpt>
      <trkpt lat="0" lon="0">
        <time>2021-02-28T09:55:20.459000+00:00</time>
      </trkpt>
      <trkpt lat="0" lon="0">
        <time>2021-02-28T09:55:20.461000+00:00</time>
      </trkpt>
      <trkpt lat="47.34553" lon="-1.41852">
        <ele>110</ele>
        <time>2021-02-28T09:55:21.507000+00:00</time>
      </trkpt>
      <trkpt lat="0" lon="0">
        <time>2021-02-28T09:55:21.519000+00:00</time>
      </trkpt>
      <trkpt lat="0" lon="0">
        <time>2021-02-28T09:55:21.524000+00:00</time>
      </trkpt>
      <trkpt lat="0" lon="0">
        <time>2021-02-28T09:55:21.527000+00:00</time>
      </trkpt>
      <trkpt lat="47.34554" lon="-1.41845">
        <ele>110</ele>
        <time>2021-02-28T09:55:22.431000+00:00</time>
      </trkpt>
      <trkpt lat="0" lon="0">
        <time>2021-02-28T09:55:22.437000+00:00</time>
      </trkpt>
      <trkpt lat="0" lon="0">
        <time>2021-02-28T09:55:22.442000+00:00</time>
      </trkpt>
      <trkpt lat="0" lon="0">
        <time>2021-02-28T09:55:22.445000+00:00</time>
      </trkpt>
      <trkpt lat="47.34554" lon="-1.41838">
        <ele>110</ele>
        <time>2021-02-28T09:55:23.446000+00:00</time>
      </trkpt>
      <trkpt lat="0" lon="0">
        <time>2021-02-28T09:55:23.458000+00:00</time>
      </trkpt>
      <trkpt lat="0" lon="0">
        <time>2021-02-28T09:55:23.463000+00:00</time>
      </trkpt>
      <trkpt lat="0" lon="0">
        <time>2021-02-28T09:55:23.467000+00:00</time>
      </trkpt>
      <trkpt lat="47.34555" lon="-1.41831">
        <ele>110</ele>
        <time>2021-02-28T09:55:24.437000+00:00</time>
      </trkpt>
      <trkpt lat="0" lon="0">
        <time>2021-02-28T09:55:24.443000+00:00</time>
      </trkpt>
      <trkpt lat="0" lon="0">
        <time>2021-02-28T09:55:24.447000+00:00</time>
      </trkpt>
      <trkpt lat="0" lon="0">
        <time>2021-02-28T09:55:24.451000+00:00</time>
      </trkpt>
      <trkpt lat="47.34556" lon="-1.41824">
        <ele>110</ele>
        <time>2021-02-28T09:55:25.470000+00:00</time>
      </trkpt>
      <trkpt lat="0" lon="0">
        <time>2021-02-28T09:55:25.477000+00:00</time>
      </trkpt>
      <trkpt lat="0" lon="0">
        <time>2021-02-28T09:55:25.486000+00:00</time>
      </trkpt>
      <trkpt lat="0" lon="0">
        <time>2021-02-28T09:55:25.488000+00:00</time>
      </trkpt>
      <trkpt lat="47.34557" lon="-1.41817">
        <ele>110</ele>
        <time>2021-02-28T09:55:26.378000+00:00</time>
      </trkpt>
      <trkpt lat="0" lon="0">
        <time>2021-02-28T09:55:26.384000+00:00</time>
      </trkpt>
      <trkpt lat="0" lon="0">
        <time>2021-02-28T09:55:26.389000+00:00</time>
      </trkpt>
      <trkpt lat="0" lon="0">
        <time>2021-02-28T09:55:26.392000+00:00</time>
      </trkpt>
      <trkpt lat="47.34557" lon="-1.4181">
        <ele>110</ele>
        <time>2021-02-28T09:55:27.333000+00:00</time>
      </trkpt>
      <trkpt lat="0" lon="0">
        <time>2021-02-28T09:55:27.336000+00:00</time>
      </trkpt>
      <trkpt lat="0" lon="0">
        <time>2021-02-28T09:55:27.340000+00:00</time>
      </trkpt>
      <trkpt lat="0" lon="0">
        <time>2021-02-28T09:55:27.342000+00:00</time>
      </trkpt>
      <trkpt lat="47.34558" lon="-1.41802">
        <ele>110</ele>
        <time>2021-02-28T09:55:28.387000+00:00</time>
      </trkpt>
      <trkpt lat="0" lon="0">
        <time>2021-02-28T09:55:28.397000+00:00</time>
      </trkpt>
      <trkpt lat="0" lon="0">
        <time>2021-02-28T09:55:28.402000+00:00</time>
      </trkpt>
      <trkpt lat="0" lon="0">
        <time>2021-02-28T09:55:28.416000+00:00</time>
      </trkpt>
      <trkpt lat="47.34559" lon="-1.41795">
        <ele>110</ele>
        <time>2021-02-28T09:55:29.378000+00:00</time>
      </trkpt>
      <trkpt lat="0" lon="0">
        <time>2021-02-28T09:55:29.381000+00:00</time>
      </trkpt>
      <trkpt lat="0" lon="0">
        <time>2021-02-28T09:55:29.382000+00:00</time>
      </trkpt>
      <trkpt lat="0" lon="0">
        <time>2021-02-28T09:55:29.383000+00:00</time>
      </trkpt>
      <trkpt lat="47.3456" lon="-1.41787">
        <ele>111</ele>
        <time>2021-02-28T09:55:30.372000+00:00</time>
      </trkpt>
      <trkpt lat="0" lon="0">
        <time>2021-02-28T09:55:30.380000+00:00</time>
      </trkpt>
      <trkpt lat="0" lon="0">
        <time>2021-02-28T09:55:30.387000+00:00</time>
      </trkpt>
      <trkpt lat="0" lon="0">
        <time>2021-02-28T09:55:30.389000+00:00</time>
      </trkpt>
      <trkpt lat="47.34561" lon="-1.4178">
        <ele>111</ele>
        <time>2021-02-28T09:55:31.461000+00:00</time>
      </trkpt>
      <trkpt lat="0" lon="0">
        <time>2021-02-28T09:55:31.466000+00:00</time>
      </trkpt>
      <trkpt lat="0" lon="0">
        <time>2021-02-28T09:55:31.473000+00:00</time>
      </trkpt>
      <trkpt lat="0" lon="0">
        <time>2021-02-28T09:55:31.475000+00:00</time>
      </trkpt>
      <trkpt lat="47.34562" lon="-1.41773">
        <ele>111</ele>
        <time>2021-02-28T09:55:32.446000+00:00</time>
      </trkpt>
      <trkpt lat="0" lon="0">
        <time>2021-02-28T09:55:32.452000+00:00</time>
      </trkpt>
      <trkpt lat="0" lon="0">
        <time>2021-02-28T09:55:32.455000+00:00</time>
      </trkpt>
      <trkpt lat="0" lon="0">
        <time>2021-02-28T09:55:32.457000+00:00</time>
      </trkpt>
      <trkpt lat="47.34563" lon="-1.41766">
        <ele>111</ele>
        <time>2021-02-28T09:55:33.486000+00:00</time>
      </trkpt>
      <trkpt lat="0" lon="0">
        <time>2021-02-28T09:55:33.498000+00:00</time>
      </trkpt>
      <trkpt lat="0" lon="0">
        <time>2021-02-28T09:55:33.504000+00:00</time>
      </trkpt>
      <trkpt lat="0" lon="0">
        <time>2021-02-28T09:55:33.511000+00:00</time>
      </trkpt>
      <trkpt lat="47.34564" lon="-1.41759">
        <ele>111</ele>
        <time>2021-02-28T09:55:34.492000+00:00</time>
      </trkpt>
      <trkpt lat="0" lon="0">
        <time>2021-02-28T09:55:34.499000+00:00</time>
      </trkpt>
      <trkpt lat="0" lon="0">
        <time>2021-02-28T09:55:34.504000+00:00</time>
      </trkpt>
      <trkpt lat="0" lon="0">
        <time>2021-02-28T09:55:34.507000+00:00</time>
      </trkpt>
      <trkpt lat="47.34565" lon="-1.41752">
        <ele>111</ele>
        <time>2021-02-28T09:55:35.513000+00:00</time>
      </trkpt>
      <trkpt lat="0" lon="0">
        <time>2021-02-28T09:55:35.523000+00:00</time>
      </trkpt>
      <trkpt lat="0" lon="0">
        <time>2021-02-28T09:55:35.528000+00:00</time>
      </trkpt>
      <trkpt lat="0" lon="0">
        <time>2021-02-28T09:55:35.530000+00:00</time>
      </trkpt>
      <trkpt lat="47.34566" lon="-1.41744">
        <ele>111</ele>
        <time>2021-02-28T09:55:36.433000+00:00</time>
      </trkpt>
      <trkpt lat="0" lon="0">
        <time>2021-02-28T09:55:36.435000+00:00</time>
      </trkpt>
      <trkpt lat="0" lon="0">
        <time>2021-02-28T09:55:36.438000+00:00</time>
      </trkpt>
      <trkpt lat="0" lon="0">
        <time>2021-02-28T09:55:36.440000+00:00</time>
      </trkpt>
      <trkpt lat="47.34567" lon="-1.41738">
        <ele>111</ele>
        <time>2021-02-28T09:55:37.494000+00:00</time>
      </trkpt>
      <trkpt lat="0" lon="0">
        <time>2021-02-28T09:55:37.504000+00:00</time>
      </trkpt>
      <trkpt lat="0" lon="0">
        <time>2021-02-28T09:55:37.508000+00:00</time>
      </trkpt>
      <trkpt lat="0" lon="0">
        <time>2021-02-28T09:55:37.510000+00:00</time>
      </trkpt>
      <trkpt lat="47.34568" lon="-1.41731">
        <ele>111</ele>
        <time>2021-02-28T09:55:38.460000+00:00</time>
      </trkpt>
      <trkpt lat="0" lon="0">
        <time>2021-02-28T09:55:38.464000+00:00</time>
      </trkpt>
      <trkpt lat="0" lon="0">
        <time>2021-02-28T09:55:38.468000+00:00</time>
      </trkpt>
      <trkpt lat="0" lon="0">
        <time>2021-02-28T09:55:38.471000+00:00</time>
      </trkpt>
      <trkpt lat="47.34569" lon="-1.41724">
        <ele>111</ele>
        <time>2021-02-28T09:55:39.486000+00:00</time>
      </trkpt>
      <trkpt lat="0" lon="0">
        <time>2021-02-28T09:55:39.500000+00:00</time>
      </trkpt>
      <trkpt lat="0" lon="0">
        <time>2021-02-28T09:55:39.505000+00:00</time>
      </trkpt>
      <trkpt lat="0" lon="0">
        <time>2021-02-28T09:55:39.508000+00:00</time>
      </trkpt>
      <trkpt lat="47.34571" lon="-1.41716">
        <ele>111</ele>
        <time>2021-02-28T09:55:40.456000+00:00</time>
      </trkpt>
      <trkpt lat="0" lon="0">
        <time>2021-02-28T09:55:40.469000+00:00</time>
      </trkpt>
      <trkpt lat="0" lon="0">
        <time>2021-02-28T09:55:40.475000+00:00</time>
      </trkpt>
      <trkpt lat="0" lon="0">
        <time>2021-02-28T09:55:40.478000+00:00</time>
      </trkpt>
      <trkpt lat="47.34572" lon="-1.41709">
        <ele>111</ele>
        <time>2021-02-28T09:55:41.492000+00:00</time>
      </trkpt>
      <trkpt lat="0" lon="0">
        <time>2021-02-28T09:55:41.503000+00:00</time>
      </trkpt>
      <trkpt lat="0" lon="0">
        <time>2021-02-28T09:55:41.507000+00:00</time>
      </trkpt>
      <trkpt lat="0" lon="0">
        <time>2021-02-28T09:55:41.510000+00:00</time>
      </trkpt>
      <trkpt lat="47.34573" lon="-1.41702">
        <ele>111</ele>
        <time>2021-02-28T09:55:42.466000+00:00</time>
      </trkpt>
      <trkpt lat="0" lon="0">
        <time>2021-02-28T09:55:42.476000+00:00</time>
      </trkpt>
      <trkpt lat="0" lon="0">
        <time>2021-02-28T09:55:42.483000+00:00</time>
      </trkpt>
      <trkpt lat="0" lon="0">
        <time>2021-02-28T09:55:42.485000+00:00</time>
      </trkpt>
      <trkpt lat="47.34574" lon="-1.41695">
        <ele>111</ele>
        <time>2021-02-28T09:55:43.465000+00:00</time>
      </trkpt>
      <trkpt lat="0" lon="0">
        <time>2021-02-28T09:55:43.476000+00:00</time>
      </trkpt>
      <trkpt lat="0" lon="0">
        <time>2021-02-28T09:55:43.481000+00:00</time>
      </trkpt>
      <trkpt lat="0" lon="0">
        <time>2021-02-28T09:55:43.484000+00:00</time>
      </trkpt>
      <trkpt lat="47.34575" lon="-1.41688">
        <ele>111</ele>
        <time>2021-02-28T09:55:44.415000+00:00</time>
      </trkpt>
      <trkpt lat="0" lon="0">
        <time>2021-02-28T09:55:44.422000+00:00</time>
      </trkpt>
      <trkpt lat="0" lon="0">
        <time>2021-02-28T09:55:44.426000+00:00</time>
      </trkpt>
      <trkpt lat="0" lon="0">
        <time>2021-02-28T09:55:44.428000+00:00</time>
      </trkpt>
      <trkpt lat="47.34577" lon="-1.4168">
        <ele>111</ele>
        <time>2021-02-28T09:55:45.446000+00:00</time>
      </trkpt>
      <trkpt lat="0" lon="0">
        <time>2021-02-28T09:55:45.451000+00:00</time>
      </trkpt>
      <trkpt lat="0" lon="0">
        <time>2021-02-28T09:55:45.456000+00:00</time>
      </trkpt>
      <trkpt lat="0" lon="0">
        <time>2021-02-28T09:55:45.458000+00:00</time>
      </trkpt>
      <trkpt lat="47.34578" lon="-1.41673">
        <ele>111</ele>
        <time>2021-02-28T09:55:46.503000+00:00</time>
      </trkpt>
      <trkpt lat="0" lon="0">
        <time>2021-02-28T09:55:46.508000+00:00</time>
      </trkpt>
      <trkpt lat="0" lon="0">
        <time>2021-02-28T09:55:46.512000+00:00</time>
      </trkpt>
      <trkpt lat="0" lon="0">
        <time>2021-02-28T09:55:46.516000+00:00</time>
      </trkpt>
      <trkpt lat="47.34579" lon="-1.41665">
        <ele>111</ele>
        <time>2021-02-28T09:55:47.489000+00:00</time>
      </trkpt>
      <trkpt lat="0" lon="0">
        <time>2021-02-28T09:55:47.500000+00:00</time>
      </trkpt>
      <trkpt lat="0" lon="0">
        <time>2021-02-28T09:55:47.507000+00:00</time>
      </trkpt>
      <trkpt lat="0" lon="0">
        <time>2021-02-28T09:55:47.511000+00:00</time>
      </trkpt>
      <trkpt lat="47.3458" lon="-1.41658">
        <ele>111</ele>
        <time>2021-02-28T09:55:48.472000+00:00</time>
      </trkpt>
      <trkpt lat="0" lon="0">
        <time>2021-02-28T09:55:48.478000+00:00</time>
      </trkpt>
      <trkpt lat="0" lon="0">
        <time>2021-02-28T09:55:48.483000+00:00</time>
      </trkpt>
      <trkpt lat="0" lon="0">
        <time>2021-02-28T09:55:48.486000+00:00</time>
      </trkpt>
      <trkpt lat="47.34582" lon="-1.4165">
        <ele>111</ele>
        <time>2021-02-28T09:55:49.453000+00:00</time>
      </trkpt>
      <trkpt lat="0" lon="0">
        <time>2021-02-28T09:55:49.460000+00:00</time>
      </trkpt>
      <trkpt lat="0" lon="0">
        <time>2021-02-28T09:55:49.464000+00:00</time>
      </trkpt>
      <trkpt lat="0" lon="0">
        <time>2021-02-28T09:55:49.467000+00:00</time>
      </trkpt>
      <trkpt lat="47.34583" lon="-1.41642">
        <ele>111</ele>
        <time>2021-02-28T09:55:50.460000+00:00</time>
      </trkpt>
      <trkpt lat="0" lon="0">
        <time>2021-02-28T09:55:50.466000+00:00</time>
      </trkpt>
      <trkpt lat="0" lon="0">
        <time>2021-02-28T09:55:50.473000+00:00</time>
      </trkpt>
      <trkpt lat="0" lon="0">
        <time>2021-02-28T09:55:50.475000+00:00</time>
      </trkpt>
      <trkpt lat="47.34584" lon="-1.41635">
        <ele>111</ele>
        <time>2021-02-28T09:55:51.491000+00:00</time>
      </trkpt>
      <trkpt lat="0" lon="0">
        <time>2021-02-28T09:55:51.498000+00:00</time>
      </trkpt>
      <trkpt lat="0" lon="0">
        <time>2021-02-28T09:55:51.505000+00:00</time>
      </trkpt>
      <trkpt lat="0" lon="0">
        <time>2021-02-28T09:55:51.509000+00:00</time>
      </trkpt>
      <trkpt lat="47.34586" lon="-1.41627">
        <ele>112</ele>
        <time>2021-02-28T09:55:52.494000+00:00</time>
      </trkpt>
      <trkpt lat="0" lon="0">
        <time>2021-02-28T09:55:52.502000+00:00</time>
      </trkpt>
      <trkpt lat="0" lon="0">
        <time>2021-02-28T09:55:52.509000+00:00</time>
      </trkpt>
      <trkpt lat="0" lon="0">
        <time>2021-02-28T09:55:52.513000+00:00</time>
      </trkpt>
      <trkpt lat="47.34587" lon="-1.4162">
        <ele>112</ele>
        <time>2021-02-28T09:55:53.444000+00:00</time>
      </trkpt>
      <trkpt lat="0" lon="0">
        <time>2021-02-28T09:55:53.450000+00:00</time>
      </trkpt>
      <trkpt lat="0" lon="0">
        <time>2021-02-28T09:55:53.455000+00:00</time>
      </trkpt>
      <trkpt lat="0" lon="0">
        <time>2021-02-28T09:55:53.457000+00:00</time>
      </trkpt>
      <trkpt lat="47.34589" lon="-1.41613">
        <ele>112</ele>
        <time>2021-02-28T09:55:54.435000+00:00</time>
      </trkpt>
      <trkpt lat="0" lon="0">
        <time>2021-02-28T09:55:54.441000+00:00</time>
      </trkpt>
      <trkpt lat="0" lon="0">
        <time>2021-02-28T09:55:54.449000+00:00</time>
      </trkpt>
      <trkpt lat="0" lon="0">
        <time>2021-02-28T09:55:54.452000+00:00</time>
      </trkpt>
      <trkpt lat="47.3459" lon="-1.41606">
        <ele>112</ele>
        <time>2021-02-28T09:55:55.493000+00:00</time>
      </trkpt>
      <trkpt lat="0" lon="0">
        <time>2021-02-28T09:55:55.498000+00:00</time>
      </trkpt>
      <trkpt lat="0" lon="0">
        <time>2021-02-28T09:55:55.502000+00:00</time>
      </trkpt>
      <trkpt lat="0" lon="0">
        <time>2021-02-28T09:55:55.505000+00:00</time>
      </trkpt>
      <trkpt lat="47.34591" lon="-1.41599">
        <ele>112</ele>
        <time>2021-02-28T09:55:56.439000+00:00</time>
      </trkpt>
      <trkpt lat="0" lon="0">
        <time>2021-02-28T09:55:56.444000+00:00</time>
      </trkpt>
      <trkpt lat="0" lon="0">
        <time>2021-02-28T09:55:56.448000+00:00</time>
      </trkpt>
      <trkpt lat="0" lon="0">
        <time>2021-02-28T09:55:56.451000+00:00</time>
      </trkpt>
      <trkpt lat="47.34593" lon="-1.41592">
        <ele>112</ele>
        <time>2021-02-28T09:55:57.484000+00:00</time>
      </trkpt>
      <trkpt lat="0" lon="0">
        <time>2021-02-28T09:55:57.489000+00:00</time>
      </trkpt>
      <trkpt lat="0" lon="0">
        <time>2021-02-28T09:55:57.495000+00:00</time>
      </trkpt>
      <trkpt lat="0" lon="0">
        <time>2021-02-28T09:55:57.497000+00:00</time>
      </trkpt>
      <trkpt lat="47.34594" lon="-1.41585">
        <ele>112</ele>
        <time>2021-02-28T09:55:58.478000+00:00</time>
      </trkpt>
      <trkpt lat="0" lon="0">
        <time>2021-02-28T09:55:58.483000+00:00</time>
      </trkpt>
      <trkpt lat="0" lon="0">
        <time>2021-02-28T09:55:58.488000+00:00</time>
      </trkpt>
      <trkpt lat="0" lon="0">
        <time>2021-02-28T09:55:58.490000+00:00</time>
      </trkpt>
      <trkpt lat="47.34596" lon="-1.41578">
        <ele>112</ele>
        <time>2021-02-28T09:55:59.455000+00:00</time>
      </trkpt>
      <trkpt lat="0" lon="0">
        <time>2021-02-28T09:55:59.465000+00:00</time>
      </trkpt>
      <trkpt lat="0" lon="0">
        <time>2021-02-28T09:55:59.471000+00:00</time>
      </trkpt>
      <trkpt lat="0" lon="0">
        <time>2021-02-28T09:55:59.474000+00:00</time>
      </trkpt>
      <trkpt lat="47.34598" lon="-1.41571">
        <ele>112</ele>
        <time>2021-02-28T09:56:00.498000+00:00</time>
      </trkpt>
      <trkpt lat="0" lon="0">
        <time>2021-02-28T09:56:00.509000+00:00</time>
      </trkpt>
      <trkpt lat="0" lon="0">
        <time>2021-02-28T09:56:00.518000+00:00</time>
      </trkpt>
      <trkpt lat="0" lon="0">
        <time>2021-02-28T09:56:00.521000+00:00</time>
      </trkpt>
      <trkpt lat="47.346" lon="-1.41564">
        <ele>112</ele>
        <time>2021-02-28T09:56:01.434000+00:00</time>
      </trkpt>
      <trkpt lat="0" lon="0">
        <time>2021-02-28T09:56:01.436000+00:00</time>
      </trkpt>
      <trkpt lat="0" lon="0">
        <time>2021-02-28T09:56:01.438000+00:00</time>
      </trkpt>
      <trkpt lat="0" lon="0">
        <time>2021-02-28T09:56:01.439000+00:00</time>
      </trkpt>
      <trkpt lat="47.34602" lon="-1.41556">
        <ele>112</ele>
        <time>2021-02-28T09:56:02.474000+00:00</time>
      </trkpt>
      <trkpt lat="0" lon="0">
        <time>2021-02-28T09:56:02.481000+00:00</time>
      </trkpt>
      <trkpt lat="0" lon="0">
        <time>2021-02-28T09:56:02.489000+00:00</time>
      </trkpt>
      <trkpt lat="0" lon="0">
        <time>2021-02-28T09:56:02.493000+00:00</time>
      </trkpt>
      <trkpt lat="47.34604" lon="-1.41549">
        <ele>112</ele>
        <time>2021-02-28T09:56:03.480000+00:00</time>
      </trkpt>
      <trkpt lat="0" lon="0">
        <time>2021-02-28T09:56:03.493000+00:00</time>
      </trkpt>
      <trkpt lat="0" lon="0">
        <time>2021-02-28T09:56:03.497000+00:00</time>
      </trkpt>
      <trkpt lat="0" lon="0">
        <time>2021-02-28T09:56:03.499000+00:00</time>
      </trkpt>
      <trkpt lat="47.34606" lon="-1.41542">
        <ele>113</ele>
        <time>2021-02-28T09:56:04.458000+00:00</time>
      </trkpt>
      <trkpt lat="0" lon="0">
        <time>2021-02-28T09:56:04.468000+00:00</time>
      </trkpt>
      <trkpt lat="0" lon="0">
        <time>2021-02-28T09:56:04.473000+00:00</time>
      </trkpt>
      <trkpt lat="0" lon="0">
        <time>2021-02-28T09:56:04.475000+00:00</time>
      </trkpt>
      <trkpt lat="47.34608" lon="-1.41534">
        <ele>113</ele>
        <time>2021-02-28T09:56:05.464000+00:00</time>
      </trkpt>
      <trkpt lat="0" lon="0">
        <time>2021-02-28T09:56:05.473000+00:00</time>
      </trkpt>
      <trkpt lat="0" lon="0">
        <time>2021-02-28T09:56:05.477000+00:00</time>
      </trkpt>
      <trkpt lat="0" lon="0">
        <time>2021-02-28T09:56:05.480000+00:00</time>
      </trkpt>
      <trkpt lat="47.34611" lon="-1.41527">
        <ele>112</ele>
        <time>2021-02-28T09:56:06.493000+00:00</time>
      </trkpt>
      <trkpt lat="0" lon="0">
        <time>2021-02-28T09:56:06.498000+00:00</time>
      </trkpt>
      <trkpt lat="0" lon="0">
        <time>2021-02-28T09:56:06.504000+00:00</time>
      </trkpt>
      <trkpt lat="0" lon="0">
        <time>2021-02-28T09:56:06.506000+00:00</time>
      </trkpt>
      <trkpt lat="47.34613" lon="-1.41519">
        <ele>113</ele>
        <time>2021-02-28T09:56:07.465000+00:00</time>
      </trkpt>
      <trkpt lat="0" lon="0">
        <time>2021-02-28T09:56:07.470000+00:00</time>
      </trkpt>
      <trkpt lat="0" lon="0">
        <time>2021-02-28T09:56:07.474000+00:00</time>
      </trkpt>
      <trkpt lat="0" lon="0">
        <time>2021-02-28T09:56:07.480000+00:00</time>
      </trkpt>
      <trkpt lat="47.34615" lon="-1.41512">
        <ele>113</ele>
        <time>2021-02-28T09:56:08.502000+00:00</time>
      </trkpt>
      <trkpt lat="0" lon="0">
        <time>2021-02-28T09:56:08.508000+00:00</time>
      </trkpt>
      <trkpt lat="0" lon="0">
        <time>2021-02-28T09:56:08.514000+00:00</time>
      </trkpt>
      <trkpt lat="0" lon="0">
        <time>2021-02-28T09:56:08.517000+00:00</time>
      </trkpt>
      <trkpt lat="47.34617" lon="-1.41504">
        <ele>113</ele>
        <time>2021-02-28T09:56:09.435000+00:00</time>
      </trkpt>
      <trkpt lat="0" lon="0">
        <time>2021-02-28T09:56:09.444000+00:00</time>
      </trkpt>
      <trkpt lat="0" lon="0">
        <time>2021-02-28T09:56:09.448000+00:00</time>
      </trkpt>
      <trkpt lat="0" lon="0">
        <time>2021-02-28T09:56:09.451000+00:00</time>
      </trkpt>
      <trkpt lat="47.34619" lon="-1.41496">
        <ele>113</ele>
        <time>2021-02-28T09:56:10.506000+00:00</time>
      </trkpt>
      <trkpt lat="0" lon="0">
        <time>2021-02-28T09:56:10.519000+00:00</time>
      </trkpt>
      <trkpt lat="0" lon="0">
        <time>2021-02-28T09:56:10.524000+00:00</time>
      </trkpt>
      <trkpt lat="0" lon="0">
        <time>2021-02-28T09:56:10.527000+00:00</time>
      </trkpt>
      <trkpt lat="47.34622" lon="-1.41489">
        <ele>113</ele>
        <time>2021-02-28T09:56:11.465000+00:00</time>
      </trkpt>
      <trkpt lat="0" lon="0">
        <time>2021-02-28T09:56:11.475000+00:00</time>
      </trkpt>
      <trkpt lat="0" lon="0">
        <time>2021-02-28T09:56:11.481000+00:00</time>
      </trkpt>
      <trkpt lat="0" lon="0">
        <time>2021-02-28T09:56:11.484000+00:00</time>
      </trkpt>
      <trkpt lat="47.34624" lon="-1.41481">
        <ele>113</ele>
        <time>2021-02-28T09:56:12.472000+00:00</time>
      </trkpt>
      <trkpt lat="0" lon="0">
        <time>2021-02-28T09:56:12.482000+00:00</time>
      </trkpt>
      <trkpt lat="0" lon="0">
        <time>2021-02-28T09:56:12.485000+00:00</time>
      </trkpt>
      <trkpt lat="0" lon="0">
        <time>2021-02-28T09:56:12.489000+00:00</time>
      </trkpt>
      <trkpt lat="47.34626" lon="-1.41473">
        <ele>113</ele>
        <time>2021-02-28T09:56:13.503000+00:00</time>
      </trkpt>
      <trkpt lat="0" lon="0">
        <time>2021-02-28T09:56:13.512000+00:00</time>
      </trkpt>
      <trkpt lat="0" lon="0">
        <time>2021-02-28T09:56:13.516000+00:00</time>
      </trkpt>
      <trkpt lat="0" lon="0">
        <time>2021-02-28T09:56:13.519000+00:00</time>
      </trkpt>
      <trkpt lat="47.34629" lon="-1.41465">
        <ele>113</ele>
        <time>2021-02-28T09:56:14.444000+00:00</time>
      </trkpt>
      <trkpt lat="0" lon="0">
        <time>2021-02-28T09:56:14.458000+00:00</time>
      </trkpt>
      <trkpt lat="0" lon="0">
        <time>2021-02-28T09:56:14.466000+00:00</time>
      </trkpt>
      <trkpt lat="0" lon="0">
        <time>2021-02-28T09:56:14.468000+00:00</time>
      </trkpt>
      <trkpt lat="47.34631" lon="-1.41457">
        <ele>112</ele>
        <time>2021-02-28T09:56:15.484000+00:00</time>
      </trkpt>
      <trkpt lat="0" lon="0">
        <time>2021-02-28T09:56:15.494000+00:00</time>
      </trkpt>
      <trkpt lat="0" lon="0">
        <time>2021-02-28T09:56:15.498000+00:00</time>
      </trkpt>
      <trkpt lat="0" lon="0">
        <time>2021-02-28T09:56:15.500000+00:00</time>
      </trkpt>
      <trkpt lat="47.34634" lon="-1.41449">
        <ele>112</ele>
        <time>2021-02-28T09:56:16.459000+00:00</time>
      </trkpt>
      <trkpt lat="0" lon="0">
        <time>2021-02-28T09:56:16.463000+00:00</time>
      </trkpt>
      <trkpt lat="0" lon="0">
        <time>2021-02-28T09:56:16.467000+00:00</time>
      </trkpt>
      <trkpt lat="0" lon="0">
        <time>2021-02-28T09:56:16.470000+00:00</time>
      </trkpt>
      <trkpt lat="47.34636" lon="-1.41441">
        <ele>112</ele>
        <time>2021-02-28T09:56:17.493000+00:00</time>
      </trkpt>
      <trkpt lat="0" lon="0">
        <time>2021-02-28T09:56:17.501000+00:00</time>
      </trkpt>
      <trkpt lat="0" lon="0">
        <time>2021-02-28T09:56:17.508000+00:00</time>
      </trkpt>
      <trkpt lat="0" lon="0">
        <time>2021-02-28T09:56:17.512000+00:00</time>
      </trkpt>
      <trkpt lat="47.34639" lon="-1.41432">
        <ele>112</ele>
        <time>2021-02-28T09:56:18.476000+00:00</time>
      </trkpt>
      <trkpt lat="0" lon="0">
        <time>2021-02-28T09:56:18.483000+00:00</time>
      </trkpt>
      <trkpt lat="0" lon="0">
        <time>2021-02-28T09:56:18.489000+00:00</time>
      </trkpt>
      <trkpt lat="0" lon="0">
        <time>2021-02-28T09:56:18.492000+00:00</time>
      </trkpt>
      <trkpt lat="47.34642" lon="-1.41425">
        <ele>111</ele>
        <time>2021-02-28T09:56:19.435000+00:00</time>
      </trkpt>
      <trkpt lat="0" lon="0">
        <time>2021-02-28T09:56:19.440000+00:00</time>
      </trkpt>
      <trkpt lat="0" lon="0">
        <time>2021-02-28T09:56:19.448000+00:00</time>
      </trkpt>
      <trkpt lat="0" lon="0">
        <time>2021-02-28T09:56:19.450000+00:00</time>
      </trkpt>
      <trkpt lat="47.34646" lon="-1.41417">
        <ele>111</ele>
        <time>2021-02-28T09:56:20.488000+00:00</time>
      </trkpt>
      <trkpt lat="0" lon="0">
        <time>2021-02-28T09:56:20.498000+00:00</time>
      </trkpt>
      <trkpt lat="0" lon="0">
        <time>2021-02-28T09:56:20.503000+00:00</time>
      </trkpt>
      <trkpt lat="0" lon="0">
        <time>2021-02-28T09:56:20.505000+00:00</time>
      </trkpt>
      <trkpt lat="47.34649" lon="-1.4141">
        <ele>112</ele>
        <time>2021-02-28T09:56:21.486000+00:00</time>
      </trkpt>
      <trkpt lat="0" lon="0">
        <time>2021-02-28T09:56:21.500000+00:00</time>
      </trkpt>
      <trkpt lat="0" lon="0">
        <time>2021-02-28T09:56:21.505000+00:00</time>
      </trkpt>
      <trkpt lat="0" lon="0">
        <time>2021-02-28T09:56:21.508000+00:00</time>
      </trkpt>
      <trkpt lat="47.34652" lon="-1.41402">
        <ele>112</ele>
        <time>2021-02-28T09:56:22.462000+00:00</time>
      </trkpt>
      <trkpt lat="0" lon="0">
        <time>2021-02-28T09:56:22.471000+00:00</time>
      </trkpt>
      <trkpt lat="0" lon="0">
        <time>2021-02-28T09:56:22.476000+00:00</time>
      </trkpt>
      <trkpt lat="0" lon="0">
        <time>2021-02-28T09:56:22.478000+00:00</time>
      </trkpt>
      <trkpt lat="47.34655" lon="-1.41395">
        <ele>111</ele>
        <time>2021-02-28T09:56:23.472000+00:00</time>
      </trkpt>
      <trkpt lat="0" lon="0">
        <time>2021-02-28T09:56:23.476000+00:00</time>
      </trkpt>
      <trkpt lat="0" lon="0">
        <time>2021-02-28T09:56:23.483000+00:00</time>
      </trkpt>
      <trkpt lat="0" lon="0">
        <time>2021-02-28T09:56:23.485000+00:00</time>
      </trkpt>
      <trkpt lat="47.34658" lon="-1.41388">
        <ele>111</ele>
        <time>2021-02-28T09:56:24.457000+00:00</time>
      </trkpt>
      <trkpt lat="0" lon="0">
        <time>2021-02-28T09:56:24.463000+00:00</time>
      </trkpt>
      <trkpt lat="0" lon="0">
        <time>2021-02-28T09:56:24.471000+00:00</time>
      </trkpt>
      <trkpt lat="0" lon="0">
        <time>2021-02-28T09:56:24.473000+00:00</time>
      </trkpt>
      <trkpt lat="47.34661" lon="-1.41381">
        <ele>111</ele>
        <time>2021-02-28T09:56:25.467000+00:00</time>
      </trkpt>
      <trkpt lat="0" lon="0">
        <time>2021-02-28T09:56:25.476000+00:00</time>
      </trkpt>
      <trkpt lat="0" lon="0">
        <time>2021-02-28T09:56:25.481000+00:00</time>
      </trkpt>
      <trkpt lat="0" lon="0">
        <time>2021-02-28T09:56:25.483000+00:00</time>
      </trkpt>
      <trkpt lat="47.34664" lon="-1.41374">
        <ele>111</ele>
        <time>2021-02-28T09:56:26.447000+00:00</time>
      </trkpt>
      <trkpt lat="0" lon="0">
        <time>2021-02-28T09:56:26.453000+00:00</time>
      </trkpt>
      <trkpt lat="0" lon="0">
        <time>2021-02-28T09:56:26.459000+00:00</time>
      </trkpt>
      <trkpt lat="0" lon="0">
        <time>2021-02-28T09:56:26.461000+00:00</time>
      </trkpt>
      <trkpt lat="47.34667" lon="-1.41367">
        <ele>112</ele>
        <time>2021-02-28T09:56:27.486000+00:00</time>
      </trkpt>
      <trkpt lat="0" lon="0">
        <time>2021-02-28T09:56:27.493000+00:00</time>
      </trkpt>
      <trkpt lat="0" lon="0">
        <time>2021-02-28T09:56:27.497000+00:00</time>
      </trkpt>
      <trkpt lat="0" lon="0">
        <time>2021-02-28T09:56:27.500000+00:00</time>
      </trkpt>
      <trkpt lat="47.3467" lon="-1.41361">
        <ele>112</ele>
        <time>2021-02-28T09:56:28.469000+00:00</time>
      </trkpt>
      <trkpt lat="0" lon="0">
        <time>2021-02-28T09:56:28.475000+00:00</time>
      </trkpt>
      <trkpt lat="0" lon="0">
        <time>2021-02-28T09:56:28.479000+00:00</time>
      </trkpt>
      <trkpt lat="0" lon="0">
        <time>2021-02-28T09:56:28.481000+00:00</time>
      </trkpt>
      <trkpt lat="47.34673" lon="-1.41354">
        <ele>112</ele>
        <time>2021-02-28T09:56:29.450000+00:00</time>
      </trkpt>
      <trkpt lat="0" lon="0">
        <time>2021-02-28T09:56:29.453000+00:00</time>
      </trkpt>
      <trkpt lat="0" lon="0">
        <time>2021-02-28T09:56:29.457000+00:00</time>
      </trkpt>
      <trkpt lat="0" lon="0">
        <time>2021-02-28T09:56:29.459000+00:00</time>
      </trkpt>
      <trkpt lat="47.34676" lon="-1.41347">
        <ele>112</ele>
        <time>2021-02-28T09:56:30.520000+00:00</time>
      </trkpt>
      <trkpt lat="0" lon="0">
        <time>2021-02-28T09:56:30.526000+00:00</time>
      </trkpt>
      <trkpt lat="0" lon="0">
        <time>2021-02-28T09:56:30.531000+00:00</time>
      </trkpt>
      <trkpt lat="0" lon="0">
        <time>2021-02-28T09:56:30.533000+00:00</time>
      </trkpt>
      <trkpt lat="47.34679" lon="-1.41341">
        <ele>112</ele>
        <time>2021-02-28T09:56:31.504000+00:00</time>
      </trkpt>
      <trkpt lat="0" lon="0">
        <time>2021-02-28T09:56:31.509000+00:00</time>
      </trkpt>
      <trkpt lat="0" lon="0">
        <time>2021-02-28T09:56:31.513000+00:00</time>
      </trkpt>
      <trkpt lat="0" lon="0">
        <time>2021-02-28T09:56:31.516000+00:00</time>
      </trkpt>
      <trkpt lat="47.34683" lon="-1.41334">
        <ele>112</ele>
        <time>2021-02-28T09:56:32.501000+00:00</time>
      </trkpt>
      <trkpt lat="0" lon="0">
        <time>2021-02-28T09:56:32.513000+00:00</time>
      </trkpt>
      <trkpt lat="0" lon="0">
        <time>2021-02-28T09:56:32.516000+00:00</time>
      </trkpt>
      <trkpt lat="0" lon="0">
        <time>2021-02-28T09:56:32.519000+00:00</time>
      </trkpt>
      <trkpt lat="47.34686" lon="-1.41328">
        <ele>112</ele>
        <time>2021-02-28T09:56:33.483000+00:00</time>
      </trkpt>
      <trkpt lat="0" lon="0">
        <time>2021-02-28T09:56:33.492000+00:00</time>
      </trkpt>
      <trkpt lat="0" lon="0">
        <time>2021-02-28T09:56:33.498000+00:00</time>
      </trkpt>
      <trkpt lat="0" lon="0">
        <time>2021-02-28T09:56:33.501000+00:00</time>
      </trkpt>
      <trkpt lat="47.34689" lon="-1.41322">
        <ele>112</ele>
        <time>2021-02-28T09:56:34.499000+00:00</time>
      </trkpt>
      <trkpt lat="0" lon="0">
        <time>2021-02-28T09:56:34.505000+00:00</time>
      </trkpt>
      <trkpt lat="0" lon="0">
        <time>2021-02-28T09:56:34.510000+00:00</time>
      </trkpt>
      <trkpt lat="0" lon="0">
        <time>2021-02-28T09:56:34.512000+00:00</time>
      </trkpt>
      <trkpt lat="47.34692" lon="-1.41315">
        <ele>112</ele>
        <time>2021-02-28T09:56:35.460000+00:00</time>
      </trkpt>
      <trkpt lat="0" lon="0">
        <time>2021-02-28T09:56:35.467000+00:00</time>
      </trkpt>
      <trkpt lat="0" lon="0">
        <time>2021-02-28T09:56:35.473000+00:00</time>
      </trkpt>
      <trkpt lat="0" lon="0">
        <time>2021-02-28T09:56:35.477000+00:00</time>
      </trkpt>
      <trkpt lat="47.34695" lon="-1.41308">
        <ele>112</ele>
        <time>2021-02-28T09:56:36.501000+00:00</time>
      </trkpt>
      <trkpt lat="0" lon="0">
        <time>2021-02-28T09:56:36.507000+00:00</time>
      </trkpt>
      <trkpt lat="0" lon="0">
        <time>2021-02-28T09:56:36.512000+00:00</time>
      </trkpt>
      <trkpt lat="0" lon="0">
        <time>2021-02-28T09:56:36.514000+00:00</time>
      </trkpt>
      <trkpt lat="47.34698" lon="-1.41302">
        <ele>112</ele>
        <time>2021-02-28T09:56:37.477000+00:00</time>
      </trkpt>
      <trkpt lat="0" lon="0">
        <time>2021-02-28T09:56:37.485000+00:00</time>
      </trkpt>
      <trkpt lat="0" lon="0">
        <time>2021-02-28T09:56:37.491000+00:00</time>
      </trkpt>
      <trkpt lat="0" lon="0">
        <time>2021-02-28T09:56:37.495000+00:00</time>
      </trkpt>
      <trkpt lat="47.34701" lon="-1.41295">
        <ele>112</ele>
        <time>2021-02-28T09:56:38.486000+00:00</time>
      </trkpt>
      <trkpt lat="0" lon="0">
        <time>2021-02-28T09:56:38.491000+00:00</time>
      </trkpt>
      <trkpt lat="0" lon="0">
        <time>2021-02-28T09:56:38.496000+00:00</time>
      </trkpt>
      <trkpt lat="0" lon="0">
        <time>2021-02-28T09:56:38.499000+00:00</time>
      </trkpt>
      <trkpt lat="47.34704" lon="-1.41288">
        <ele>112</ele>
        <time>2021-02-28T09:56:39.451000+00:00</time>
      </trkpt>
      <trkpt lat="0" lon="0">
        <time>2021-02-28T09:56:39.457000+00:00</time>
      </trkpt>
      <trkpt lat="0" lon="0">
        <time>2021-02-28T09:56:39.463000+00:00</time>
      </trkpt>
      <trkpt lat="0" lon="0">
        <time>2021-02-28T09:56:39.466000+00:00</time>
      </trkpt>
      <trkpt lat="47.34707" lon="-1.41281">
        <ele>112</ele>
        <time>2021-02-28T09:56:40.447000+00:00</time>
      </trkpt>
      <trkpt lat="0" lon="0">
        <time>2021-02-28T09:56:40.455000+00:00</time>
      </trkpt>
      <trkpt lat="0" lon="0">
        <time>2021-02-28T09:56:40.459000+00:00</time>
      </trkpt>
      <trkpt lat="0" lon="0">
        <time>2021-02-28T09:56:40.461000+00:00</time>
      </trkpt>
      <trkpt lat="47.3471" lon="-1.41274">
        <ele>113</ele>
        <time>2021-02-28T09:56:41.467000+00:00</time>
      </trkpt>
      <trkpt lat="0" lon="0">
        <time>2021-02-28T09:56:41.473000+00:00</time>
      </trkpt>
      <trkpt lat="0" lon="0">
        <time>2021-02-28T09:56:41.477000+00:00</time>
      </trkpt>
      <trkpt lat="0" lon="0">
        <time>2021-02-28T09:56:41.480000+00:00</time>
      </trkpt>
      <trkpt lat="47.34713" lon="-1.41268">
        <ele>113</ele>
        <time>2021-02-28T09:56:42.463000+00:00</time>
      </trkpt>
      <trkpt lat="0" lon="0">
        <time>2021-02-28T09:56:42.474000+00:00</time>
      </trkpt>
      <trkpt lat="0" lon="0">
        <time>2021-02-28T09:56:42.480000+00:00</time>
      </trkpt>
      <trkpt lat="0" lon="0">
        <time>2021-02-28T09:56:42.483000+00:00</time>
      </trkpt>
      <trkpt lat="47.34716" lon="-1.41262">
        <ele>114</ele>
        <time>2021-02-28T09:56:43.482000+00:00</time>
      </trkpt>
      <trkpt lat="0" lon="0">
        <time>2021-02-28T09:56:43.495000+00:00</time>
      </trkpt>
      <trkpt lat="0" lon="0">
        <time>2021-02-28T09:56:43.500000+00:00</time>
      </trkpt>
      <trkpt lat="0" lon="0">
        <time>2021-02-28T09:56:43.503000+00:00</time>
      </trkpt>
      <trkpt lat="47.3472" lon="-1.41257">
        <ele>114</ele>
        <time>2021-02-28T09:56:44.490000+00:00</time>
      </trkpt>
      <trkpt lat="0" lon="0">
        <time>2021-02-28T09:56:44.497000+00:00</time>
      </trkpt>
      <trkpt lat="0" lon="0">
        <time>2021-02-28T09:56:44.502000+00:00</time>
      </trkpt>
      <trkpt lat="0" lon="0">
        <time>2021-02-28T09:56:44.504000+00:00</time>
      </trkpt>
      <trkpt lat="47.34723" lon="-1.41251">
        <ele>114</ele>
        <time>2021-02-28T09:56:45.471000+00:00</time>
      </trkpt>
      <trkpt lat="0" lon="0">
        <time>2021-02-28T09:56:45.484000+00:00</time>
      </trkpt>
      <trkpt lat="0" lon="0">
        <time>2021-02-28T09:56:45.493000+00:00</time>
      </trkpt>
      <trkpt lat="0" lon="0">
        <time>2021-02-28T09:56:45.496000+00:00</time>
      </trkpt>
      <trkpt lat="47.34726" lon="-1.41245">
        <ele>114</ele>
        <time>2021-02-28T09:56:46.472000+00:00</time>
      </trkpt>
      <trkpt lat="0" lon="0">
        <time>2021-02-28T09:56:46.479000+00:00</time>
      </trkpt>
      <trkpt lat="0" lon="0">
        <time>2021-02-28T09:56:46.483000+00:00</time>
      </trkpt>
      <trkpt lat="0" lon="0">
        <time>2021-02-28T09:56:46.485000+00:00</time>
      </trkpt>
      <trkpt lat="47.34729" lon="-1.41239">
        <ele>115</ele>
        <time>2021-02-28T09:56:47.485000+00:00</time>
      </trkpt>
      <trkpt lat="0" lon="0">
        <time>2021-02-28T09:56:47.493000+00:00</time>
      </trkpt>
      <trkpt lat="0" lon="0">
        <time>2021-02-28T09:56:47.499000+00:00</time>
      </trkpt>
      <trkpt lat="0" lon="0">
        <time>2021-02-28T09:56:47.501000+00:00</time>
      </trkpt>
      <trkpt lat="47.34732" lon="-1.41234">
        <ele>115</ele>
        <time>2021-02-28T09:56:48.455000+00:00</time>
      </trkpt>
      <trkpt lat="0" lon="0">
        <time>2021-02-28T09:56:48.466000+00:00</time>
      </trkpt>
      <trkpt lat="0" lon="0">
        <time>2021-02-28T09:56:48.471000+00:00</time>
      </trkpt>
      <trkpt lat="0" lon="0">
        <time>2021-02-28T09:56:48.474000+00:00</time>
      </trkpt>
      <trkpt lat="47.34735" lon="-1.41229">
        <ele>116</ele>
        <time>2021-02-28T09:56:49.499000+00:00</time>
      </trkpt>
      <trkpt lat="0" lon="0">
        <time>2021-02-28T09:56:49.507000+00:00</time>
      </trkpt>
      <trkpt lat="0" lon="0">
        <time>2021-02-28T09:56:49.515000+00:00</time>
      </trkpt>
      <trkpt lat="0" lon="0">
        <time>2021-02-28T09:56:49.518000+00:00</time>
      </trkpt>
      <trkpt lat="47.34737" lon="-1.41225">
        <ele>116</ele>
        <time>2021-02-28T09:56:50.481000+00:00</time>
      </trkpt>
      <trkpt lat="0" lon="0">
        <time>2021-02-28T09:56:50.488000+00:00</time>
      </trkpt>
      <trkpt lat="0" lon="0">
        <time>2021-02-28T09:56:50.491000+00:00</time>
      </trkpt>
      <trkpt lat="0" lon="0">
        <time>2021-02-28T09:56:50.493000+00:00</time>
      </trkpt>
      <trkpt lat="47.34739" lon="-1.41222">
        <ele>116</ele>
        <time>2021-02-28T09:56:51.479000+00:00</time>
      </trkpt>
      <trkpt lat="0" lon="0">
        <time>2021-02-28T09:56:51.490000+00:00</time>
      </trkpt>
      <trkpt lat="0" lon="0">
        <time>2021-02-28T09:56:51.495000+00:00</time>
      </trkpt>
      <trkpt lat="0" lon="0">
        <time>2021-02-28T09:56:51.498000+00:00</time>
      </trkpt>
      <trkpt lat="47.3474" lon="-1.4122">
        <ele>116</ele>
        <time>2021-02-28T09:56:52.388000+00:00</time>
      </trkpt>
      <trkpt lat="0" lon="0">
        <time>2021-02-28T09:56:52.402000+00:00</time>
      </trkpt>
      <trkpt lat="0" lon="0">
        <time>2021-02-28T09:56:52.406000+00:00</time>
      </trkpt>
      <trkpt lat="0" lon="0">
        <time>2021-02-28T09:56:52.408000+00:00</time>
      </trkpt>
      <trkpt lat="47.34741" lon="-1.41219">
        <ele>116</ele>
        <time>2021-02-28T09:56:53.459000+00:00</time>
      </trkpt>
      <trkpt lat="0" lon="0">
        <time>2021-02-28T09:56:53.466000+00:00</time>
      </trkpt>
      <trkpt lat="0" lon="0">
        <time>2021-02-28T09:56:53.471000+00:00</time>
      </trkpt>
      <trkpt lat="0" lon="0">
        <time>2021-02-28T09:56:53.474000+00:00</time>
      </trkpt>
      <trkpt lat="47.34741" lon="-1.41218">
        <ele>116</ele>
        <time>2021-02-28T09:56:54.457000+00:00</time>
      </trkpt>
      <trkpt lat="0" lon="0">
        <time>2021-02-28T09:56:54.466000+00:00</time>
      </trkpt>
      <trkpt lat="0" lon="0">
        <time>2021-02-28T09:56:54.471000+00:00</time>
      </trkpt>
      <trkpt lat="0" lon="0">
        <time>2021-02-28T09:56:54.473000+00:00</time>
      </trkpt>
      <trkpt lat="47.34741" lon="-1.41218">
        <ele>116</ele>
        <time>2021-02-28T09:56:55.451000+00:00</time>
      </trkpt>
      <trkpt lat="0" lon="0">
        <time>2021-02-28T09:56:55.460000+00:00</time>
      </trkpt>
      <trkpt lat="0" lon="0">
        <time>2021-02-28T09:56:55.465000+00:00</time>
      </trkpt>
      <trkpt lat="0" lon="0">
        <time>2021-02-28T09:56:55.468000+00:00</time>
      </trkpt>
      <trkpt lat="47.34741" lon="-1.41218">
        <ele>116</ele>
        <time>2021-02-28T09:56:56.426000+00:00</time>
      </trkpt>
      <trkpt lat="0" lon="0">
        <time>2021-02-28T09:56:56.429000+00:00</time>
      </trkpt>
      <trkpt lat="0" lon="0">
        <time>2021-02-28T09:56:56.434000+00:00</time>
      </trkpt>
      <trkpt lat="0" lon="0">
        <time>2021-02-28T09:56:56.435000+00:00</time>
      </trkpt>
      <trkpt lat="47.34741" lon="-1.41219">
        <ele>116</ele>
        <time>2021-02-28T09:56:57.446000+00:00</time>
      </trkpt>
      <trkpt lat="0" lon="0">
        <time>2021-02-28T09:56:57.459000+00:00</time>
      </trkpt>
      <trkpt lat="0" lon="0">
        <time>2021-02-28T09:56:57.465000+00:00</time>
      </trkpt>
      <trkpt lat="0" lon="0">
        <time>2021-02-28T09:56:57.468000+00:00</time>
      </trkpt>
      <trkpt lat="47.34741" lon="-1.41219">
        <ele>116</ele>
        <time>2021-02-28T09:56:58.424000+00:00</time>
      </trkpt>
      <trkpt lat="0" lon="0">
        <time>2021-02-28T09:56:58.430000+00:00</time>
      </trkpt>
      <trkpt lat="0" lon="0">
        <time>2021-02-28T09:56:58.434000+00:00</time>
      </trkpt>
      <trkpt lat="0" lon="0">
        <time>2021-02-28T09:56:58.439000+00:00</time>
      </trkpt>
      <trkpt lat="47.3474" lon="-1.4122">
        <ele>116</ele>
        <time>2021-02-28T09:56:59.434000+00:00</time>
      </trkpt>
      <trkpt lat="0" lon="0">
        <time>2021-02-28T09:56:59.445000+00:00</time>
      </trkpt>
      <trkpt lat="0" lon="0">
        <time>2021-02-28T09:56:59.450000+00:00</time>
      </trkpt>
      <trkpt lat="0" lon="0">
        <time>2021-02-28T09:56:59.452000+00:00</time>
      </trkpt>
      <trkpt lat="47.3474" lon="-1.41221">
        <ele>116</ele>
        <time>2021-02-28T09:57:00.441000+00:00</time>
      </trkpt>
      <trkpt lat="0" lon="0">
        <time>2021-02-28T09:57:00.447000+00:00</time>
      </trkpt>
      <trkpt lat="0" lon="0">
        <time>2021-02-28T09:57:00.455000+00:00</time>
      </trkpt>
      <trkpt lat="0" lon="0">
        <time>2021-02-28T09:57:00.457000+00:00</time>
      </trkpt>
      <trkpt lat="47.34739" lon="-1.41222">
        <ele>116</ele>
        <time>2021-02-28T09:57:01.486000+00:00</time>
      </trkpt>
      <trkpt lat="0" lon="0">
        <time>2021-02-28T09:57:01.497000+00:00</time>
      </trkpt>
      <trkpt lat="0" lon="0">
        <time>2021-02-28T09:57:01.506000+00:00</time>
      </trkpt>
      <trkpt lat="0" lon="0">
        <time>2021-02-28T09:57:01.509000+00:00</time>
      </trkpt>
      <trkpt lat="47.34739" lon="-1.41223">
        <ele>116</ele>
        <time>2021-02-28T09:57:02.480000+00:00</time>
      </trkpt>
      <trkpt lat="0" lon="0">
        <time>2021-02-28T09:57:02.488000+00:00</time>
      </trkpt>
      <trkpt lat="0" lon="0">
        <time>2021-02-28T09:57:02.495000+00:00</time>
      </trkpt>
      <trkpt lat="0" lon="0">
        <time>2021-02-28T09:57:02.499000+00:00</time>
      </trkpt>
      <trkpt lat="47.34738" lon="-1.41225">
        <ele>116</ele>
        <time>2021-02-28T09:57:03.437000+00:00</time>
      </trkpt>
      <trkpt lat="0" lon="0">
        <time>2021-02-28T09:57:03.448000+00:00</time>
      </trkpt>
      <trkpt lat="0" lon="0">
        <time>2021-02-28T09:57:03.452000+00:00</time>
      </trkpt>
      <trkpt lat="0" lon="0">
        <time>2021-02-28T09:57:03.455000+00:00</time>
      </trkpt>
      <trkpt lat="47.34738" lon="-1.41226">
        <ele>116</ele>
        <time>2021-02-28T09:57:04.436000+00:00</time>
      </trkpt>
      <trkpt lat="0" lon="0">
        <time>2021-02-28T09:57:04.444000+00:00</time>
      </trkpt>
      <trkpt lat="0" lon="0">
        <time>2021-02-28T09:57:04.450000+00:00</time>
      </trkpt>
      <trkpt lat="0" lon="0">
        <time>2021-02-28T09:57:04.470000+00:00</time>
      </trkpt>
      <trkpt lat="47.34725" lon="-1.41211">
        <ele>113</ele>
        <time>2021-02-28T09:57:05.484000+00:00</time>
      </trkpt>
      <trkpt lat="0" lon="0">
        <time>2021-02-28T09:57:05.494000+00:00</time>
      </trkpt>
      <trkpt lat="0" lon="0">
        <time>2021-02-28T09:57:05.505000+00:00</time>
      </trkpt>
      <trkpt lat="0" lon="0">
        <time>2021-02-28T09:57:05.507000+00:00</time>
      </trkpt>
      <trkpt lat="47.34722" lon="-1.41208">
        <ele>114</ele>
        <time>2021-02-28T09:57:06.470000+00:00</time>
      </trkpt>
      <trkpt lat="0" lon="0">
        <time>2021-02-28T09:57:06.478000+00:00</time>
      </trkpt>
      <trkpt lat="0" lon="0">
        <time>2021-02-28T09:57:06.483000+00:00</time>
      </trkpt>
      <trkpt lat="0" lon="0">
        <time>2021-02-28T09:57:06.485000+00:00</time>
      </trkpt>
      <trkpt lat="47.34719" lon="-1.41206">
        <ele>114</ele>
        <time>2021-02-28T09:57:07.459000+00:00</time>
      </trkpt>
      <trkpt lat="0" lon="0">
        <time>2021-02-28T09:57:07.465000+00:00</time>
      </trkpt>
      <trkpt lat="0" lon="0">
        <time>2021-02-28T09:57:07.470000+00:00</time>
      </trkpt>
      <trkpt lat="0" lon="0">
        <time>2021-02-28T09:57:07.473000+00:00</time>
      </trkpt>
      <trkpt lat="47.34716" lon="-1.41203">
        <ele>113</ele>
        <time>2021-02-28T09:57:08.432000+00:00</time>
      </trkpt>
      <trkpt lat="0" lon="0">
        <time>2021-02-28T09:57:08.445000+00:00</time>
      </trkpt>
      <trkpt lat="0" lon="0">
        <time>2021-02-28T09:57:08.452000+00:00</time>
      </trkpt>
      <trkpt lat="0" lon="0">
        <time>2021-02-28T09:57:08.458000+00:00</time>
      </trkpt>
      <trkpt lat="47.34712" lon="-1.412">
        <ele>113</ele>
        <time>2021-02-28T09:57:09.466000+00:00</time>
      </trkpt>
      <trkpt lat="0" lon="0">
        <time>2021-02-28T09:57:09.473000+00:00</time>
      </trkpt>
      <trkpt lat="0" lon="0">
        <time>2021-02-28T09:57:09.476000+00:00</time>
      </trkpt>
      <trkpt lat="0" lon="0">
        <time>2021-02-28T09:57:09.478000+00:00</time>
      </trkpt>
      <trkpt lat="47.34709" lon="-1.41197">
        <ele>113</ele>
        <time>2021-02-28T09:57:10.426000+00:00</time>
      </trkpt>
      <trkpt lat="0" lon="0">
        <time>2021-02-28T09:57:10.429000+00:00</time>
      </trkpt>
      <trkpt lat="0" lon="0">
        <time>2021-02-28T09:57:10.433000+00:00</time>
      </trkpt>
      <trkpt lat="0" lon="0">
        <time>2021-02-28T09:57:10.436000+00:00</time>
      </trkpt>
      <trkpt lat="47.34705" lon="-1.41193">
        <ele>114</ele>
        <time>2021-02-28T09:57:11.458000+00:00</time>
      </trkpt>
      <trkpt lat="0" lon="0">
        <time>2021-02-28T09:57:11.466000+00:00</time>
      </trkpt>
      <trkpt lat="0" lon="0">
        <time>2021-02-28T09:57:11.471000+00:00</time>
      </trkpt>
      <trkpt lat="0" lon="0">
        <time>2021-02-28T09:57:11.475000+00:00</time>
      </trkpt>
      <trkpt lat="47.34701" lon="-1.4119">
        <ele>114</ele>
        <time>2021-02-28T09:57:12.500000+00:00</time>
      </trkpt>
      <trkpt lat="0" lon="0">
        <time>2021-02-28T09:57:12.506000+00:00</time>
      </trkpt>
      <trkpt lat="0" lon="0">
        <time>2021-02-28T09:57:12.511000+00:00</time>
      </trkpt>
      <trkpt lat="0" lon="0">
        <time>2021-02-28T09:57:12.514000+00:00</time>
      </trkpt>
      <trkpt lat="47.34697" lon="-1.41187">
        <ele>115</ele>
        <time>2021-02-28T09:57:13.495000+00:00</time>
      </trkpt>
      <trkpt lat="0" lon="0">
        <time>2021-02-28T09:57:13.501000+00:00</time>
      </trkpt>
      <trkpt lat="0" lon="0">
        <time>2021-02-28T09:57:13.506000+00:00</time>
      </trkpt>
      <trkpt lat="0" lon="0">
        <time>2021-02-28T09:57:13.508000+00:00</time>
      </trkpt>
      <trkpt lat="47.34693" lon="-1.41184">
        <ele>115</ele>
        <time>2021-02-28T09:57:14.502000+00:00</time>
      </trkpt>
      <trkpt lat="0" lon="0">
        <time>2021-02-28T09:57:14.508000+00:00</time>
      </trkpt>
      <trkpt lat="0" lon="0">
        <time>2021-02-28T09:57:14.514000+00:00</time>
      </trkpt>
      <trkpt lat="0" lon="0">
        <time>2021-02-28T09:57:14.517000+00:00</time>
      </trkpt>
      <trkpt lat="47.34689" lon="-1.4118">
        <ele>115</ele>
        <time>2021-02-28T09:57:15.463000+00:00</time>
      </trkpt>
      <trkpt lat="0" lon="0">
        <time>2021-02-28T09:57:15.470000+00:00</time>
      </trkpt>
      <trkpt lat="0" lon="0">
        <time>2021-02-28T09:57:15.474000+00:00</time>
      </trkpt>
      <trkpt lat="0" lon="0">
        <time>2021-02-28T09:57:15.477000+00:00</time>
      </trkpt>
      <trkpt lat="47.34685" lon="-1.41177">
        <ele>116</ele>
        <time>2021-02-28T09:57:16.489000+00:00</time>
      </trkpt>
      <trkpt lat="0" lon="0">
        <time>2021-02-28T09:57:16.497000+00:00</time>
      </trkpt>
      <trkpt lat="0" lon="0">
        <time>2021-02-28T09:57:16.502000+00:00</time>
      </trkpt>
      <trkpt lat="0" lon="0">
        <time>2021-02-28T09:57:16.505000+00:00</time>
      </trkpt>
      <trkpt lat="47.34681" lon="-1.41174">
        <ele>116</ele>
        <time>2021-02-28T09:57:17.475000+00:00</time>
      </trkpt>
      <trkpt lat="0" lon="0">
        <time>2021-02-28T09:57:17.482000+00:00</time>
      </trkpt>
      <trkpt lat="0" lon="0">
        <time>2021-02-28T09:57:17.486000+00:00</time>
      </trkpt>
      <trkpt lat="0" lon="0">
        <time>2021-02-28T09:57:17.489000+00:00</time>
      </trkpt>
      <trkpt lat="47.34677" lon="-1.41171">
        <ele>116</ele>
        <time>2021-02-28T09:57:18.493000+00:00</time>
      </trkpt>
      <trkpt lat="0" lon="0">
        <time>2021-02-28T09:57:18.505000+00:00</time>
      </trkpt>
      <trkpt lat="0" lon="0">
        <time>2021-02-28T09:57:18.509000+00:00</time>
      </trkpt>
      <trkpt lat="0" lon="0">
        <time>2021-02-28T09:57:18.511000+00:00</time>
      </trkpt>
      <trkpt lat="47.34672" lon="-1.41168">
        <ele>116</ele>
        <time>2021-02-28T09:57:19.516000+00:00</time>
      </trkpt>
      <trkpt lat="0" lon="0">
        <time>2021-02-28T09:57:19.530000+00:00</time>
      </trkpt>
      <trkpt lat="0" lon="0">
        <time>2021-02-28T09:57:19.536000+00:00</time>
      </trkpt>
      <trkpt lat="0" lon="0">
        <time>2021-02-28T09:57:19.537000+00:00</time>
      </trkpt>
      <trkpt lat="47.34668" lon="-1.41165">
        <ele>116</ele>
        <time>2021-02-28T09:57:20.461000+00:00</time>
      </trkpt>
      <trkpt lat="0" lon="0">
        <time>2021-02-28T09:57:20.463000+00:00</time>
      </trkpt>
      <trkpt lat="0" lon="0">
        <time>2021-02-28T09:57:20.465000+00:00</time>
      </trkpt>
      <trkpt lat="0" lon="0">
        <time>2021-02-28T09:57:20.467000+00:00</time>
      </trkpt>
      <trkpt lat="47.34664" lon="-1.41162">
        <ele>116</ele>
        <time>2021-02-28T09:57:21.512000+00:00</time>
      </trkpt>
      <trkpt lat="0" lon="0">
        <time>2021-02-28T09:57:21.522000+00:00</time>
      </trkpt>
      <trkpt lat="0" lon="0">
        <time>2021-02-28T09:57:21.528000+00:00</time>
      </trkpt>
      <trkpt lat="0" lon="0">
        <time>2021-02-28T09:57:21.530000+00:00</time>
      </trkpt>
      <trkpt lat="47.3466" lon="-1.41159">
        <ele>116</ele>
        <time>2021-02-28T09:57:22.506000+00:00</time>
      </trkpt>
      <trkpt lat="0" lon="0">
        <time>2021-02-28T09:57:22.513000+00:00</time>
      </trkpt>
      <trkpt lat="0" lon="0">
        <time>2021-02-28T09:57:22.517000+00:00</time>
      </trkpt>
      <trkpt lat="0" lon="0">
        <time>2021-02-28T09:57:22.519000+00:00</time>
      </trkpt>
      <trkpt lat="47.34655" lon="-1.41156">
        <ele>117</ele>
        <time>2021-02-28T09:57:23.498000+00:00</time>
      </trkpt>
      <trkpt lat="0" lon="0">
        <time>2021-02-28T09:57:23.506000+00:00</time>
      </trkpt>
      <trkpt lat="0" lon="0">
        <time>2021-02-28T09:57:23.511000+00:00</time>
      </trkpt>
      <trkpt lat="0" lon="0">
        <time>2021-02-28T09:57:23.513000+00:00</time>
      </trkpt>
      <trkpt lat="47.34651" lon="-1.41153">
        <ele>117</ele>
        <time>2021-02-28T09:57:24.509000+00:00</time>
      </trkpt>
      <trkpt lat="0" lon="0">
        <time>2021-02-28T09:57:24.519000+00:00</time>
      </trkpt>
      <trkpt lat="0" lon="0">
        <time>2021-02-28T09:57:24.530000+00:00</time>
      </trkpt>
      <trkpt lat="0" lon="0">
        <time>2021-02-28T09:57:24.533000+00:00</time>
      </trkpt>
      <trkpt lat="47.34646" lon="-1.41149">
        <ele>117</ele>
        <time>2021-02-28T09:57:25.517000+00:00</time>
      </trkpt>
      <trkpt lat="0" lon="0">
        <time>2021-02-28T09:57:25.525000+00:00</time>
      </trkpt>
      <trkpt lat="0" lon="0">
        <time>2021-02-28T09:57:25.530000+00:00</time>
      </trkpt>
      <trkpt lat="0" lon="0">
        <time>2021-02-28T09:57:25.532000+00:00</time>
      </trkpt>
      <trkpt lat="47.34642" lon="-1.41146">
        <ele>117</ele>
        <time>2021-02-28T09:57:26.530000+00:00</time>
      </trkpt>
      <trkpt lat="0" lon="0">
        <time>2021-02-28T09:57:26.535000+00:00</time>
      </trkpt>
      <trkpt lat="0" lon="0">
        <time>2021-02-28T09:57:26.541000+00:00</time>
      </trkpt>
      <trkpt lat="0" lon="0">
        <time>2021-02-28T09:57:26.545000+00:00</time>
      </trkpt>
      <trkpt lat="47.34637" lon="-1.41143">
        <ele>118</ele>
        <time>2021-02-28T09:57:27.527000+00:00</time>
      </trkpt>
      <trkpt lat="0" lon="0">
        <time>2021-02-28T09:57:27.536000+00:00</time>
      </trkpt>
      <trkpt lat="0" lon="0">
        <time>2021-02-28T09:57:27.542000+00:00</time>
      </trkpt>
      <trkpt lat="0" lon="0">
        <time>2021-02-28T09:57:27.544000+00:00</time>
      </trkpt>
      <trkpt lat="47.34632" lon="-1.41139">
        <ele>118</ele>
        <time>2021-02-28T09:57:28.423000+00:00</time>
      </trkpt>
      <trkpt lat="0" lon="0">
        <time>2021-02-28T09:57:28.433000+00:00</time>
      </trkpt>
      <trkpt lat="0" lon="0">
        <time>2021-02-28T09:57:28.437000+00:00</time>
      </trkpt>
      <trkpt lat="0" lon="0">
        <time>2021-02-28T09:57:28.439000+00:00</time>
      </trkpt>
      <trkpt lat="47.34628" lon="-1.41136">
        <ele>118</ele>
        <time>2021-02-28T09:57:29.417000+00:00</time>
      </trkpt>
      <trkpt lat="0" lon="0">
        <time>2021-02-28T09:57:29.423000+00:00</time>
      </trkpt>
      <trkpt lat="0" lon="0">
        <time>2021-02-28T09:57:29.425000+00:00</time>
      </trkpt>
      <trkpt lat="0" lon="0">
        <time>2021-02-28T09:57:29.426000+00:00</time>
      </trkpt>
      <trkpt lat="47.34623" lon="-1.41132">
        <ele>118</ele>
        <time>2021-02-28T09:57:30.413000+00:00</time>
      </trkpt>
      <trkpt lat="0" lon="0">
        <time>2021-02-28T09:57:30.417000+00:00</time>
      </trkpt>
      <trkpt lat="0" lon="0">
        <time>2021-02-28T09:57:30.422000+00:00</time>
      </trkpt>
      <trkpt lat="0" lon="0">
        <time>2021-02-28T09:57:30.425000+00:00</time>
      </trkpt>
      <trkpt lat="47.34619" lon="-1.41128">
        <ele>118</ele>
        <time>2021-02-28T09:57:31.444000+00:00</time>
      </trkpt>
      <trkpt lat="0" lon="0">
        <time>2021-02-28T09:57:31.446000+00:00</time>
      </trkpt>
      <trkpt lat="0" lon="0">
        <time>2021-02-28T09:57:31.448000+00:00</time>
      </trkpt>
      <trkpt lat="47.34615" lon="-1.41125">
        <ele>118</ele>
        <time>2021-02-28T09:57:32.535000+00:00</time>
      </trkpt>
      <trkpt lat="0" lon="0">
        <time>2021-02-28T09:57:32.551000+00:00</time>
      </trkpt>
      <trkpt lat="0" lon="0">
        <time>2021-02-28T09:57:32.559000+00:00</time>
      </trkpt>
      <trkpt lat="0" lon="0">
        <time>2021-02-28T09:57:32.562000+00:00</time>
      </trkpt>
      <trkpt lat="47.3461" lon="-1.41121">
        <ele>119</ele>
        <time>2021-02-28T09:57:33.440000+00:00</time>
      </trkpt>
      <trkpt lat="0" lon="0">
        <time>2021-02-28T09:57:33.442000+00:00</time>
      </trkpt>
      <trkpt lat="0" lon="0">
        <time>2021-02-28T09:57:33.444000+00:00</time>
      </trkpt>
      <trkpt lat="0" lon="0">
        <time>2021-02-28T09:57:33.445000+00:00</time>
      </trkpt>
      <trkpt lat="47.34606" lon="-1.41118">
        <ele>119</ele>
        <time>2021-02-28T09:57:34.467000+00:00</time>
      </trkpt>
      <trkpt lat="0" lon="0">
        <time>2021-02-28T09:57:34.470000+00:00</time>
      </trkpt>
      <trkpt lat="0" lon="0">
        <time>2021-02-28T09:57:34.472000+00:00</time>
      </trkpt>
      <trkpt lat="0" lon="0">
        <time>2021-02-28T09:57:34.474000+00:00</time>
      </trkpt>
      <trkpt lat="47.34601" lon="-1.41114">
        <ele>119</ele>
        <time>2021-02-28T09:57:35.521000+00:00</time>
      </trkpt>
      <trkpt lat="0" lon="0">
        <time>2021-02-28T09:57:35.527000+00:00</time>
      </trkpt>
      <trkpt lat="0" lon="0">
        <time>2021-02-28T09:57:35.542000+00:00</time>
      </trkpt>
      <trkpt lat="0" lon="0">
        <time>2021-02-28T09:57:35.546000+00:00</time>
      </trkpt>
      <trkpt lat="47.34596" lon="-1.4111">
        <ele>119</ele>
        <time>2021-02-28T09:57:36.491000+00:00</time>
      </trkpt>
      <trkpt lat="0" lon="0">
        <time>2021-02-28T09:57:36.499000+00:00</time>
      </trkpt>
      <trkpt lat="0" lon="0">
        <time>2021-02-28T09:57:36.504000+00:00</time>
      </trkpt>
      <trkpt lat="0" lon="0">
        <time>2021-02-28T09:57:36.507000+00:00</time>
      </trkpt>
      <trkpt lat="47.34592" lon="-1.41107">
        <ele>119</ele>
        <time>2021-02-28T09:57:37.470000+00:00</time>
      </trkpt>
      <trkpt lat="0" lon="0">
        <time>2021-02-28T09:57:37.477000+00:00</time>
      </trkpt>
      <trkpt lat="0" lon="0">
        <time>2021-02-28T09:57:37.482000+00:00</time>
      </trkpt>
      <trkpt lat="0" lon="0">
        <time>2021-02-28T09:57:37.485000+00:00</time>
      </trkpt>
      <trkpt lat="47.34587" lon="-1.41103">
        <ele>119</ele>
        <time>2021-02-28T09:57:38.563000+00:00</time>
      </trkpt>
      <trkpt lat="0" lon="0">
        <time>2021-02-28T09:57:38.570000+00:00</time>
      </trkpt>
      <trkpt lat="0" lon="0">
        <time>2021-02-28T09:57:38.575000+00:00</time>
      </trkpt>
      <trkpt lat="0" lon="0">
        <time>2021-02-28T09:57:38.578000+00:00</time>
      </trkpt>
      <trkpt lat="47.34582" lon="-1.411">
        <ele>119</ele>
        <time>2021-02-28T09:57:39.506000+00:00</time>
      </trkpt>
      <trkpt lat="0" lon="0">
        <time>2021-02-28T09:57:39.516000+00:00</time>
      </trkpt>
      <trkpt lat="0" lon="0">
        <time>2021-02-28T09:57:39.521000+00:00</time>
      </trkpt>
      <trkpt lat="0" lon="0">
        <time>2021-02-28T09:57:39.525000+00:00</time>
      </trkpt>
      <trkpt lat="47.34578" lon="-1.41097">
        <ele>119</ele>
        <time>2021-02-28T09:57:40.491000+00:00</time>
      </trkpt>
      <trkpt lat="0" lon="0">
        <time>2021-02-28T09:57:40.497000+00:00</time>
      </trkpt>
      <trkpt lat="0" lon="0">
        <time>2021-02-28T09:57:40.503000+00:00</time>
      </trkpt>
      <trkpt lat="0" lon="0">
        <time>2021-02-28T09:57:40.507000+00:00</time>
      </trkpt>
      <trkpt lat="47.34573" lon="-1.41094">
        <ele>119</ele>
        <time>2021-02-28T09:57:41.520000+00:00</time>
      </trkpt>
      <trkpt lat="0" lon="0">
        <time>2021-02-28T09:57:41.525000+00:00</time>
      </trkpt>
      <trkpt lat="0" lon="0">
        <time>2021-02-28T09:57:41.529000+00:00</time>
      </trkpt>
      <trkpt lat="0" lon="0">
        <time>2021-02-28T09:57:41.531000+00:00</time>
      </trkpt>
      <trkpt lat="47.34568" lon="-1.41091">
        <ele>119</ele>
        <time>2021-02-28T09:57:42.536000+00:00</time>
      </trkpt>
      <trkpt lat="0" lon="0">
        <time>2021-02-28T09:57:42.542000+00:00</time>
      </trkpt>
      <trkpt lat="0" lon="0">
        <time>2021-02-28T09:57:42.548000+00:00</time>
      </trkpt>
      <trkpt lat="0" lon="0">
        <time>2021-02-28T09:57:42.550000+00:00</time>
      </trkpt>
      <trkpt lat="47.34563" lon="-1.41088">
        <ele>119</ele>
        <time>2021-02-28T09:57:43.535000+00:00</time>
      </trkpt>
      <trkpt lat="0" lon="0">
        <time>2021-02-28T09:57:43.545000+00:00</time>
      </trkpt>
      <trkpt lat="0" lon="0">
        <time>2021-02-28T09:57:43.554000+00:00</time>
      </trkpt>
      <trkpt lat="0" lon="0">
        <time>2021-02-28T09:57:43.557000+00:00</time>
      </trkpt>
      <trkpt lat="47.34558" lon="-1.41086">
        <ele>119</ele>
        <time>2021-02-28T09:57:44.531000+00:00</time>
      </trkpt>
      <trkpt lat="0" lon="0">
        <time>2021-02-28T09:57:44.539000+00:00</time>
      </trkpt>
      <trkpt lat="0" lon="0">
        <time>2021-02-28T09:57:44.546000+00:00</time>
      </trkpt>
      <trkpt lat="0" lon="0">
        <time>2021-02-28T09:57:44.549000+00:00</time>
      </trkpt>
      <trkpt lat="47.34553" lon="-1.41083">
        <ele>119</ele>
        <time>2021-02-28T09:57:45.549000+00:00</time>
      </trkpt>
      <trkpt lat="0" lon="0">
        <time>2021-02-28T09:57:45.555000+00:00</time>
      </trkpt>
      <trkpt lat="0" lon="0">
        <time>2021-02-28T09:57:45.564000+00:00</time>
      </trkpt>
      <trkpt lat="0" lon="0">
        <time>2021-02-28T09:57:45.566000+00:00</time>
      </trkpt>
      <trkpt lat="47.34548" lon="-1.4108">
        <ele>119</ele>
        <time>2021-02-28T09:57:46.534000+00:00</time>
      </trkpt>
      <trkpt lat="0" lon="0">
        <time>2021-02-28T09:57:46.539000+00:00</time>
      </trkpt>
      <trkpt lat="0" lon="0">
        <time>2021-02-28T09:57:46.543000+00:00</time>
      </trkpt>
      <trkpt lat="0" lon="0">
        <time>2021-02-28T09:57:46.549000+00:00</time>
      </trkpt>
      <trkpt lat="47.34544" lon="-1.41078">
        <ele>119</ele>
        <time>2021-02-28T09:57:47.486000+00:00</time>
      </trkpt>
      <trkpt lat="0" lon="0">
        <time>2021-02-28T09:57:47.492000+00:00</time>
      </trkpt>
      <trkpt lat="0" lon="0">
        <time>2021-02-28T09:57:47.501000+00:00</time>
      </trkpt>
      <trkpt lat="0" lon="0">
        <time>2021-02-28T09:57:47.503000+00:00</time>
      </trkpt>
      <trkpt lat="47.34539" lon="-1.41075">
        <ele>119</ele>
        <time>2021-02-28T09:57:48.540000+00:00</time>
      </trkpt>
      <trkpt lat="0" lon="0">
        <time>2021-02-28T09:57:48.544000+00:00</time>
      </trkpt>
      <trkpt lat="0" lon="0">
        <time>2021-02-28T09:57:48.549000+00:00</time>
      </trkpt>
      <trkpt lat="0" lon="0">
        <time>2021-02-28T09:57:48.552000+00:00</time>
      </trkpt>
      <trkpt lat="47.34534" lon="-1.41072">
        <ele>119</ele>
        <time>2021-02-28T09:57:49.505000+00:00</time>
      </trkpt>
      <trkpt lat="0" lon="0">
        <time>2021-02-28T09:57:49.513000+00:00</time>
      </trkpt>
      <trkpt lat="0" lon="0">
        <time>2021-02-28T09:57:49.518000+00:00</time>
      </trkpt>
      <trkpt lat="0" lon="0">
        <time>2021-02-28T09:57:49.520000+00:00</time>
      </trkpt>
      <trkpt lat="47.34529" lon="-1.41069">
        <ele>119</ele>
        <time>2021-02-28T09:57:50.526000+00:00</time>
      </trkpt>
      <trkpt lat="0" lon="0">
        <time>2021-02-28T09:57:50.530000+00:00</time>
      </trkpt>
      <trkpt lat="0" lon="0">
        <time>2021-02-28T09:57:50.534000+00:00</time>
      </trkpt>
      <trkpt lat="0" lon="0">
        <time>2021-02-28T09:57:50.536000+00:00</time>
      </trkpt>
      <trkpt lat="47.34525" lon="-1.41067">
        <ele>119</ele>
        <time>2021-02-28T09:57:51.528000+00:00</time>
      </trkpt>
      <trkpt lat="0" lon="0">
        <time>2021-02-28T09:57:51.537000+00:00</time>
      </trkpt>
      <trkpt lat="0" lon="0">
        <time>2021-02-28T09:57:51.544000+00:00</time>
      </trkpt>
      <trkpt lat="0" lon="0">
        <time>2021-02-28T09:57:51.547000+00:00</time>
      </trkpt>
      <trkpt lat="47.3452" lon="-1.41064">
        <ele>120</ele>
        <time>2021-02-28T09:57:52.542000+00:00</time>
      </trkpt>
      <trkpt lat="0" lon="0">
        <time>2021-02-28T09:57:52.549000+00:00</time>
      </trkpt>
      <trkpt lat="0" lon="0">
        <time>2021-02-28T09:57:52.555000+00:00</time>
      </trkpt>
      <trkpt lat="0" lon="0">
        <time>2021-02-28T09:57:52.559000+00:00</time>
      </trkpt>
      <trkpt lat="47.34516" lon="-1.41061">
        <ele>120</ele>
        <time>2021-02-28T09:57:53.532000+00:00</time>
      </trkpt>
      <trkpt lat="0" lon="0">
        <time>2021-02-28T09:57:53.544000+00:00</time>
      </trkpt>
      <trkpt lat="0" lon="0">
        <time>2021-02-28T09:57:53.550000+00:00</time>
      </trkpt>
      <trkpt lat="0" lon="0">
        <time>2021-02-28T09:57:53.553000+00:00</time>
      </trkpt>
      <trkpt lat="47.34511" lon="-1.41058">
        <ele>120</ele>
        <time>2021-02-28T09:57:54.500000+00:00</time>
      </trkpt>
      <trkpt lat="0" lon="0">
        <time>2021-02-28T09:57:54.506000+00:00</time>
      </trkpt>
      <trkpt lat="0" lon="0">
        <time>2021-02-28T09:57:54.511000+00:00</time>
      </trkpt>
      <trkpt lat="0" lon="0">
        <time>2021-02-28T09:57:54.516000+00:00</time>
      </trkpt>
      <trkpt lat="47.34506" lon="-1.41055">
        <ele>120</ele>
        <time>2021-02-28T09:57:55.553000+00:00</time>
      </trkpt>
      <trkpt lat="0" lon="0">
        <time>2021-02-28T09:57:55.558000+00:00</time>
      </trkpt>
      <trkpt lat="0" lon="0">
        <time>2021-02-28T09:57:55.561000+00:00</time>
      </trkpt>
      <trkpt lat="0" lon="0">
        <time>2021-02-28T09:57:55.563000+00:00</time>
      </trkpt>
      <trkpt lat="47.34501" lon="-1.41052">
        <ele>120</ele>
        <time>2021-02-28T09:57:56.519000+00:00</time>
      </trkpt>
      <trkpt lat="0" lon="0">
        <time>2021-02-28T09:57:56.528000+00:00</time>
      </trkpt>
      <trkpt lat="0" lon="0">
        <time>2021-02-28T09:57:56.533000+00:00</time>
      </trkpt>
      <trkpt lat="0" lon="0">
        <time>2021-02-28T09:57:56.536000+00:00</time>
      </trkpt>
      <trkpt lat="47.34496" lon="-1.41048">
        <ele>120</ele>
        <time>2021-02-28T09:57:57.522000+00:00</time>
      </trkpt>
      <trkpt lat="0" lon="0">
        <time>2021-02-28T09:57:57.528000+00:00</time>
      </trkpt>
      <trkpt lat="0" lon="0">
        <time>2021-02-28T09:57:57.533000+00:00</time>
      </trkpt>
      <trkpt lat="0" lon="0">
        <time>2021-02-28T09:57:57.536000+00:00</time>
      </trkpt>
      <trkpt lat="47.34491" lon="-1.41045">
        <ele>121</ele>
        <time>2021-02-28T09:57:58.562000+00:00</time>
      </trkpt>
      <trkpt lat="0" lon="0">
        <time>2021-02-28T09:57:58.568000+00:00</time>
      </trkpt>
      <trkpt lat="0" lon="0">
        <time>2021-02-28T09:57:58.573000+00:00</time>
      </trkpt>
      <trkpt lat="0" lon="0">
        <time>2021-02-28T09:57:58.576000+00:00</time>
      </trkpt>
      <trkpt lat="47.34486" lon="-1.41041">
        <ele>121</ele>
        <time>2021-02-28T09:57:59.502000+00:00</time>
      </trkpt>
      <trkpt lat="0" lon="0">
        <time>2021-02-28T09:57:59.507000+00:00</time>
      </trkpt>
      <trkpt lat="0" lon="0">
        <time>2021-02-28T09:57:59.511000+00:00</time>
      </trkpt>
      <trkpt lat="0" lon="0">
        <time>2021-02-28T09:57:59.514000+00:00</time>
      </trkpt>
      <trkpt lat="47.34481" lon="-1.41038">
        <ele>121</ele>
        <time>2021-02-28T09:58:00.545000+00:00</time>
      </trkpt>
      <trkpt lat="0" lon="0">
        <time>2021-02-28T09:58:00.547000+00:00</time>
      </trkpt>
      <trkpt lat="0" lon="0">
        <time>2021-02-28T09:58:00.550000+00:00</time>
      </trkpt>
      <trkpt lat="0" lon="0">
        <time>2021-02-28T09:58:00.551000+00:00</time>
      </trkpt>
      <trkpt lat="47.34476" lon="-1.41034">
        <ele>121</ele>
        <time>2021-02-28T09:58:01.467000+00:00</time>
      </trkpt>
      <trkpt lat="0" lon="0">
        <time>2021-02-28T09:58:01.469000+00:00</time>
      </trkpt>
      <trkpt lat="0" lon="0">
        <time>2021-02-28T09:58:01.471000+00:00</time>
      </trkpt>
      <trkpt lat="0" lon="0">
        <time>2021-02-28T09:58:01.472000+00:00</time>
      </trkpt>
      <trkpt lat="47.34471" lon="-1.4103">
        <ele>121</ele>
        <time>2021-02-28T09:58:02.425000+00:00</time>
      </trkpt>
      <trkpt lat="0" lon="0">
        <time>2021-02-28T09:58:02.427000+00:00</time>
      </trkpt>
      <trkpt lat="0" lon="0">
        <time>2021-02-28T09:58:02.428000+00:00</time>
      </trkpt>
      <trkpt lat="0" lon="0">
        <time>2021-02-28T09:58:02.429000+00:00</time>
      </trkpt>
      <trkpt lat="47.34466" lon="-1.41026">
        <ele>121</ele>
        <time>2021-02-28T09:58:03.454000+00:00</time>
      </trkpt>
      <trkpt lat="0" lon="0">
        <time>2021-02-28T09:58:03.464000+00:00</time>
      </trkpt>
      <trkpt lat="0" lon="0">
        <time>2021-02-28T09:58:03.470000+00:00</time>
      </trkpt>
      <trkpt lat="0" lon="0">
        <time>2021-02-28T09:58:03.476000+00:00</time>
      </trkpt>
      <trkpt lat="47.34462" lon="-1.41021">
        <ele>121</ele>
        <time>2021-02-28T09:58:04.550000+00:00</time>
      </trkpt>
      <trkpt lat="0" lon="0">
        <time>2021-02-28T09:58:04.561000+00:00</time>
      </trkpt>
      <trkpt lat="0" lon="0">
        <time>2021-02-28T09:58:04.566000+00:00</time>
      </trkpt>
      <trkpt lat="0" lon="0">
        <time>2021-02-28T09:58:04.572000+00:00</time>
      </trkpt>
      <trkpt lat="47.34455" lon="-1.41011">
        <ele>122</ele>
        <time>2021-02-28T09:58:06.481000+00:00</time>
      </trkpt>
      <trkpt lat="0" lon="0">
        <time>2021-02-28T09:58:06.486000+00:00</time>
      </trkpt>
      <trkpt lat="0" lon="0">
        <time>2021-02-28T09:58:06.490000+00:00</time>
      </trkpt>
      <trkpt lat="0" lon="0">
        <time>2021-02-28T09:58:06.491000+00:00</time>
      </trkpt>
      <trkpt lat="47.34454" lon="-1.41004">
        <ele>122</ele>
        <time>2021-02-28T09:58:07.484000+00:00</time>
      </trkpt>
      <trkpt lat="0" lon="0">
        <time>2021-02-28T09:58:07.493000+00:00</time>
      </trkpt>
      <trkpt lat="0" lon="0">
        <time>2021-02-28T09:58:07.498000+00:00</time>
      </trkpt>
      <trkpt lat="0" lon="0">
        <time>2021-02-28T09:58:07.500000+00:00</time>
      </trkpt>
      <trkpt lat="47.34454" lon="-1.40996">
        <ele>122</ele>
        <time>2021-02-28T09:58:08.513000+00:00</time>
      </trkpt>
      <trkpt lat="0" lon="0">
        <time>2021-02-28T09:58:08.526000+00:00</time>
      </trkpt>
      <trkpt lat="0" lon="0">
        <time>2021-02-28T09:58:08.531000+00:00</time>
      </trkpt>
      <trkpt lat="0" lon="0">
        <time>2021-02-28T09:58:08.534000+00:00</time>
      </trkpt>
      <trkpt lat="47.34454" lon="-1.40989">
        <ele>121</ele>
        <time>2021-02-28T09:58:09.527000+00:00</time>
      </trkpt>
      <trkpt lat="0" lon="0">
        <time>2021-02-28T09:58:09.534000+00:00</time>
      </trkpt>
      <trkpt lat="0" lon="0">
        <time>2021-02-28T09:58:09.538000+00:00</time>
      </trkpt>
      <trkpt lat="0" lon="0">
        <time>2021-02-28T09:58:09.540000+00:00</time>
      </trkpt>
      <trkpt lat="47.34454" lon="-1.40981">
        <ele>121</ele>
        <time>2021-02-28T09:58:10.533000+00:00</time>
      </trkpt>
      <trkpt lat="0" lon="0">
        <time>2021-02-28T09:58:10.539000+00:00</time>
      </trkpt>
      <trkpt lat="0" lon="0">
        <time>2021-02-28T09:58:10.543000+00:00</time>
      </trkpt>
      <trkpt lat="0" lon="0">
        <time>2021-02-28T09:58:10.546000+00:00</time>
      </trkpt>
      <trkpt lat="47.34455" lon="-1.40973">
        <ele>121</ele>
        <time>2021-02-28T09:58:11.534000+00:00</time>
      </trkpt>
      <trkpt lat="0" lon="0">
        <time>2021-02-28T09:58:11.545000+00:00</time>
      </trkpt>
      <trkpt lat="0" lon="0">
        <time>2021-02-28T09:58:11.551000+00:00</time>
      </trkpt>
      <trkpt lat="0" lon="0">
        <time>2021-02-28T09:58:11.555000+00:00</time>
      </trkpt>
      <trkpt lat="47.34456" lon="-1.40965">
        <ele>120</ele>
        <time>2021-02-28T09:58:12.512000+00:00</time>
      </trkpt>
      <trkpt lat="0" lon="0">
        <time>2021-02-28T09:58:12.526000+00:00</time>
      </trkpt>
      <trkpt lat="0" lon="0">
        <time>2021-02-28T09:58:12.531000+00:00</time>
      </trkpt>
      <trkpt lat="0" lon="0">
        <time>2021-02-28T09:58:12.535000+00:00</time>
      </trkpt>
      <trkpt lat="47.34457" lon="-1.40957">
        <ele>120</ele>
        <time>2021-02-28T09:58:13.527000+00:00</time>
      </trkpt>
      <trkpt lat="0" lon="0">
        <time>2021-02-28T09:58:13.534000+00:00</time>
      </trkpt>
      <trkpt lat="0" lon="0">
        <time>2021-02-28T09:58:13.540000+00:00</time>
      </trkpt>
      <trkpt lat="0" lon="0">
        <time>2021-02-28T09:58:13.543000+00:00</time>
      </trkpt>
      <trkpt lat="47.34459" lon="-1.40948">
        <ele>120</ele>
        <time>2021-02-28T09:58:14.555000+00:00</time>
      </trkpt>
      <trkpt lat="0" lon="0">
        <time>2021-02-28T09:58:14.565000+00:00</time>
      </trkpt>
      <trkpt lat="0" lon="0">
        <time>2021-02-28T09:58:14.569000+00:00</time>
      </trkpt>
      <trkpt lat="0" lon="0">
        <time>2021-02-28T09:58:14.572000+00:00</time>
      </trkpt>
      <trkpt lat="47.34461" lon="-1.4094">
        <ele>120</ele>
        <time>2021-02-28T09:58:15.565000+00:00</time>
      </trkpt>
      <trkpt lat="0" lon="0">
        <time>2021-02-28T09:58:15.578000+00:00</time>
      </trkpt>
      <trkpt lat="0" lon="0">
        <time>2021-02-28T09:58:15.585000+00:00</time>
      </trkpt>
      <trkpt lat="0" lon="0">
        <time>2021-02-28T09:58:15.590000+00:00</time>
      </trkpt>
      <trkpt lat="47.34463" lon="-1.40932">
        <ele>119</ele>
        <time>2021-02-28T09:58:16.489000+00:00</time>
      </trkpt>
      <trkpt lat="0" lon="0">
        <time>2021-02-28T09:58:16.496000+00:00</time>
      </trkpt>
      <trkpt lat="0" lon="0">
        <time>2021-02-28T09:58:16.501000+00:00</time>
      </trkpt>
      <trkpt lat="0" lon="0">
        <time>2021-02-28T09:58:16.503000+00:00</time>
      </trkpt>
      <trkpt lat="47.34465" lon="-1.40923">
        <ele>119</ele>
        <time>2021-02-28T09:58:17.534000+00:00</time>
      </trkpt>
      <trkpt lat="0" lon="0">
        <time>2021-02-28T09:58:17.544000+00:00</time>
      </trkpt>
      <trkpt lat="0" lon="0">
        <time>2021-02-28T09:58:17.549000+00:00</time>
      </trkpt>
      <trkpt lat="0" lon="0">
        <time>2021-02-28T09:58:17.552000+00:00</time>
      </trkpt>
      <trkpt lat="47.34468" lon="-1.40914">
        <ele>119</ele>
        <time>2021-02-28T09:58:18.509000+00:00</time>
      </trkpt>
      <trkpt lat="0" lon="0">
        <time>2021-02-28T09:58:18.516000+00:00</time>
      </trkpt>
      <trkpt lat="0" lon="0">
        <time>2021-02-28T09:58:18.522000+00:00</time>
      </trkpt>
      <trkpt lat="0" lon="0">
        <time>2021-02-28T09:58:18.525000+00:00</time>
      </trkpt>
      <trkpt lat="47.3447" lon="-1.40906">
        <ele>119</ele>
        <time>2021-02-28T09:58:19.537000+00:00</time>
      </trkpt>
      <trkpt lat="0" lon="0">
        <time>2021-02-28T09:58:19.544000+00:00</time>
      </trkpt>
      <trkpt lat="0" lon="0">
        <time>2021-02-28T09:58:19.548000+00:00</time>
      </trkpt>
      <trkpt lat="0" lon="0">
        <time>2021-02-28T09:58:19.550000+00:00</time>
      </trkpt>
      <trkpt lat="47.34473" lon="-1.40897">
        <ele>119</ele>
        <time>2021-02-28T09:58:20.535000+00:00</time>
      </trkpt>
      <trkpt lat="0" lon="0">
        <time>2021-02-28T09:58:20.543000+00:00</time>
      </trkpt>
      <trkpt lat="0" lon="0">
        <time>2021-02-28T09:58:20.550000+00:00</time>
      </trkpt>
      <trkpt lat="0" lon="0">
        <time>2021-02-28T09:58:20.553000+00:00</time>
      </trkpt>
      <trkpt lat="47.34476" lon="-1.40888">
        <ele>119</ele>
        <time>2021-02-28T09:58:21.540000+00:00</time>
      </trkpt>
      <trkpt lat="0" lon="0">
        <time>2021-02-28T09:58:21.552000+00:00</time>
      </trkpt>
      <trkpt lat="0" lon="0">
        <time>2021-02-28T09:58:21.558000+00:00</time>
      </trkpt>
      <trkpt lat="0" lon="0">
        <time>2021-02-28T09:58:21.561000+00:00</time>
      </trkpt>
      <trkpt lat="47.34478" lon="-1.4088">
        <ele>119</ele>
        <time>2021-02-28T09:58:22.515000+00:00</time>
      </trkpt>
      <trkpt lat="0" lon="0">
        <time>2021-02-28T09:58:22.525000+00:00</time>
      </trkpt>
      <trkpt lat="0" lon="0">
        <time>2021-02-28T09:58:22.530000+00:00</time>
      </trkpt>
      <trkpt lat="0" lon="0">
        <time>2021-02-28T09:58:22.532000+00:00</time>
      </trkpt>
      <trkpt lat="47.34481" lon="-1.40872">
        <ele>119</ele>
        <time>2021-02-28T09:58:23.516000+00:00</time>
      </trkpt>
      <trkpt lat="0" lon="0">
        <time>2021-02-28T09:58:23.522000+00:00</time>
      </trkpt>
      <trkpt lat="0" lon="0">
        <time>2021-02-28T09:58:23.527000+00:00</time>
      </trkpt>
      <trkpt lat="0" lon="0">
        <time>2021-02-28T09:58:23.530000+00:00</time>
      </trkpt>
      <trkpt lat="47.34484" lon="-1.40864">
        <ele>118</ele>
        <time>2021-02-28T09:58:24.518000+00:00</time>
      </trkpt>
      <trkpt lat="0" lon="0">
        <time>2021-02-28T09:58:24.528000+00:00</time>
      </trkpt>
      <trkpt lat="0" lon="0">
        <time>2021-02-28T09:58:24.533000+00:00</time>
      </trkpt>
      <trkpt lat="0" lon="0">
        <time>2021-02-28T09:58:24.535000+00:00</time>
      </trkpt>
      <trkpt lat="47.34486" lon="-1.40857">
        <ele>118</ele>
        <time>2021-02-28T09:58:25.513000+00:00</time>
      </trkpt>
      <trkpt lat="0" lon="0">
        <time>2021-02-28T09:58:25.522000+00:00</time>
      </trkpt>
      <trkpt lat="0" lon="0">
        <time>2021-02-28T09:58:25.527000+00:00</time>
      </trkpt>
      <trkpt lat="0" lon="0">
        <time>2021-02-28T09:58:25.529000+00:00</time>
      </trkpt>
      <trkpt lat="47.34489" lon="-1.40849">
        <ele>118</ele>
        <time>2021-02-28T09:58:26.527000+00:00</time>
      </trkpt>
      <trkpt lat="0" lon="0">
        <time>2021-02-28T09:58:26.536000+00:00</time>
      </trkpt>
      <trkpt lat="0" lon="0">
        <time>2021-02-28T09:58:26.541000+00:00</time>
      </trkpt>
      <trkpt lat="0" lon="0">
        <time>2021-02-28T09:58:26.544000+00:00</time>
      </trkpt>
      <trkpt lat="47.34491" lon="-1.40841">
        <ele>119</ele>
        <time>2021-02-28T09:58:27.533000+00:00</time>
      </trkpt>
      <trkpt lat="0" lon="0">
        <time>2021-02-28T09:58:27.539000+00:00</time>
      </trkpt>
      <trkpt lat="0" lon="0">
        <time>2021-02-28T09:58:27.543000+00:00</time>
      </trkpt>
      <trkpt lat="0" lon="0">
        <time>2021-02-28T09:58:27.545000+00:00</time>
      </trkpt>
      <trkpt lat="47.34493" lon="-1.40834">
        <ele>119</ele>
        <time>2021-02-28T09:58:28.521000+00:00</time>
      </trkpt>
      <trkpt lat="0" lon="0">
        <time>2021-02-28T09:58:28.525000+00:00</time>
      </trkpt>
      <trkpt lat="0" lon="0">
        <time>2021-02-28T09:58:28.532000+00:00</time>
      </trkpt>
      <trkpt lat="0" lon="0">
        <time>2021-02-28T09:58:28.534000+00:00</time>
      </trkpt>
      <trkpt lat="47.34496" lon="-1.40826">
        <ele>119</ele>
        <time>2021-02-28T09:58:29.508000+00:00</time>
      </trkpt>
      <trkpt lat="0" lon="0">
        <time>2021-02-28T09:58:29.514000+00:00</time>
      </trkpt>
      <trkpt lat="0" lon="0">
        <time>2021-02-28T09:58:29.519000+00:00</time>
      </trkpt>
      <trkpt lat="0" lon="0">
        <time>2021-02-28T09:58:29.522000+00:00</time>
      </trkpt>
      <trkpt lat="47.34498" lon="-1.40818">
        <ele>118</ele>
        <time>2021-02-28T09:58:30.468000+00:00</time>
      </trkpt>
      <trkpt lat="0" lon="0">
        <time>2021-02-28T09:58:30.474000+00:00</time>
      </trkpt>
      <trkpt lat="0" lon="0">
        <time>2021-02-28T09:58:30.483000+00:00</time>
      </trkpt>
      <trkpt lat="0" lon="0">
        <time>2021-02-28T09:58:30.485000+00:00</time>
      </trkpt>
      <trkpt lat="47.345" lon="-1.40809">
        <ele>118</ele>
        <time>2021-02-28T09:58:31.496000+00:00</time>
      </trkpt>
      <trkpt lat="0" lon="0">
        <time>2021-02-28T09:58:31.513000+00:00</time>
      </trkpt>
      <trkpt lat="0" lon="0">
        <time>2021-02-28T09:58:31.517000+00:00</time>
      </trkpt>
      <trkpt lat="0" lon="0">
        <time>2021-02-28T09:58:31.519000+00:00</time>
      </trkpt>
      <trkpt lat="47.34502" lon="-1.40801">
        <ele>119</ele>
        <time>2021-02-28T09:58:32.527000+00:00</time>
      </trkpt>
      <trkpt lat="0" lon="0">
        <time>2021-02-28T09:58:32.539000+00:00</time>
      </trkpt>
      <trkpt lat="0" lon="0">
        <time>2021-02-28T09:58:32.546000+00:00</time>
      </trkpt>
      <trkpt lat="0" lon="0">
        <time>2021-02-28T09:58:32.547000+00:00</time>
      </trkpt>
      <trkpt lat="47.34505" lon="-1.40792">
        <ele>119</ele>
        <time>2021-02-28T09:58:33.527000+00:00</time>
      </trkpt>
      <trkpt lat="0" lon="0">
        <time>2021-02-28T09:58:33.533000+00:00</time>
      </trkpt>
      <trkpt lat="0" lon="0">
        <time>2021-02-28T09:58:33.538000+00:00</time>
      </trkpt>
      <trkpt lat="0" lon="0">
        <time>2021-02-28T09:58:33.541000+00:00</time>
      </trkpt>
      <trkpt lat="47.34507" lon="-1.40783">
        <ele>119</ele>
        <time>2021-02-28T09:58:34.538000+00:00</time>
      </trkpt>
      <trkpt lat="0" lon="0">
        <time>2021-02-28T09:58:34.547000+00:00</time>
      </trkpt>
      <trkpt lat="0" lon="0">
        <time>2021-02-28T09:58:34.552000+00:00</time>
      </trkpt>
      <trkpt lat="0" lon="0">
        <time>2021-02-28T09:58:34.555000+00:00</time>
      </trkpt>
      <trkpt lat="47.34509" lon="-1.40775">
        <ele>119</ele>
        <time>2021-02-28T09:58:35.532000+00:00</time>
      </trkpt>
      <trkpt lat="0" lon="0">
        <time>2021-02-28T09:58:35.546000+00:00</time>
      </trkpt>
      <trkpt lat="0" lon="0">
        <time>2021-02-28T09:58:35.551000+00:00</time>
      </trkpt>
      <trkpt lat="0" lon="0">
        <time>2021-02-28T09:58:35.554000+00:00</time>
      </trkpt>
      <trkpt lat="47.34511" lon="-1.40766">
        <ele>119</ele>
        <time>2021-02-28T09:58:36.495000+00:00</time>
      </trkpt>
      <trkpt lat="0" lon="0">
        <time>2021-02-28T09:58:36.501000+00:00</time>
      </trkpt>
      <trkpt lat="0" lon="0">
        <time>2021-02-28T09:58:36.506000+00:00</time>
      </trkpt>
      <trkpt lat="0" lon="0">
        <time>2021-02-28T09:58:36.509000+00:00</time>
      </trkpt>
      <trkpt lat="47.34513" lon="-1.40757">
        <ele>118</ele>
        <time>2021-02-28T09:58:37.501000+00:00</time>
      </trkpt>
      <trkpt lat="0" lon="0">
        <time>2021-02-28T09:58:37.506000+00:00</time>
      </trkpt>
      <trkpt lat="0" lon="0">
        <time>2021-02-28T09:58:37.510000+00:00</time>
      </trkpt>
      <trkpt lat="0" lon="0">
        <time>2021-02-28T09:58:37.514000+00:00</time>
      </trkpt>
      <trkpt lat="47.34516" lon="-1.40749">
        <ele>118</ele>
        <time>2021-02-28T09:58:38.525000+00:00</time>
      </trkpt>
      <trkpt lat="0" lon="0">
        <time>2021-02-28T09:58:38.533000+00:00</time>
      </trkpt>
      <trkpt lat="0" lon="0">
        <time>2021-02-28T09:58:38.539000+00:00</time>
      </trkpt>
      <trkpt lat="0" lon="0">
        <time>2021-02-28T09:58:38.542000+00:00</time>
      </trkpt>
      <trkpt lat="47.34518" lon="-1.40741">
        <ele>118</ele>
        <time>2021-02-28T09:58:39.522000+00:00</time>
      </trkpt>
      <trkpt lat="0" lon="0">
        <time>2021-02-28T09:58:39.532000+00:00</time>
      </trkpt>
      <trkpt lat="0" lon="0">
        <time>2021-02-28T09:58:39.537000+00:00</time>
      </trkpt>
      <trkpt lat="0" lon="0">
        <time>2021-02-28T09:58:39.540000+00:00</time>
      </trkpt>
      <trkpt lat="47.3452" lon="-1.40733">
        <ele>118</ele>
        <time>2021-02-28T09:58:40.517000+00:00</time>
      </trkpt>
      <trkpt lat="0" lon="0">
        <time>2021-02-28T09:58:40.519000+00:00</time>
      </trkpt>
      <trkpt lat="0" lon="0">
        <time>2021-02-28T09:58:40.522000+00:00</time>
      </trkpt>
      <trkpt lat="0" lon="0">
        <time>2021-02-28T09:58:40.523000+00:00</time>
      </trkpt>
      <trkpt lat="47.34522" lon="-1.40725">
        <ele>117</ele>
        <time>2021-02-28T09:58:41.504000+00:00</time>
      </trkpt>
      <trkpt lat="0" lon="0">
        <time>2021-02-28T09:58:41.514000+00:00</time>
      </trkpt>
      <trkpt lat="0" lon="0">
        <time>2021-02-28T09:58:41.519000+00:00</time>
      </trkpt>
      <trkpt lat="0" lon="0">
        <time>2021-02-28T09:58:41.521000+00:00</time>
      </trkpt>
      <trkpt lat="47.34524" lon="-1.40717">
        <ele>117</ele>
        <time>2021-02-28T09:58:42.490000+00:00</time>
      </trkpt>
      <trkpt lat="0" lon="0">
        <time>2021-02-28T09:58:42.500000+00:00</time>
      </trkpt>
      <trkpt lat="0" lon="0">
        <time>2021-02-28T09:58:42.507000+00:00</time>
      </trkpt>
      <trkpt lat="0" lon="0">
        <time>2021-02-28T09:58:42.509000+00:00</time>
      </trkpt>
      <trkpt lat="47.34524" lon="-1.40709">
        <ele>117</ele>
        <time>2021-02-28T09:58:43.493000+00:00</time>
      </trkpt>
      <trkpt lat="0" lon="0">
        <time>2021-02-28T09:58:43.503000+00:00</time>
      </trkpt>
      <trkpt lat="0" lon="0">
        <time>2021-02-28T09:58:43.507000+00:00</time>
      </trkpt>
      <trkpt lat="0" lon="0">
        <time>2021-02-28T09:58:43.509000+00:00</time>
      </trkpt>
      <trkpt lat="47.34524" lon="-1.40702">
        <ele>117</ele>
        <time>2021-02-28T09:58:44.503000+00:00</time>
      </trkpt>
      <trkpt lat="0" lon="0">
        <time>2021-02-28T09:58:44.509000+00:00</time>
      </trkpt>
      <trkpt lat="0" lon="0">
        <time>2021-02-28T09:58:44.514000+00:00</time>
      </trkpt>
      <trkpt lat="0" lon="0">
        <time>2021-02-28T09:58:44.517000+00:00</time>
      </trkpt>
      <trkpt lat="47.34523" lon="-1.40696">
        <ele>117</ele>
        <time>2021-02-28T09:58:45.485000+00:00</time>
      </trkpt>
      <trkpt lat="0" lon="0">
        <time>2021-02-28T09:58:45.490000+00:00</time>
      </trkpt>
      <trkpt lat="0" lon="0">
        <time>2021-02-28T09:58:45.496000+00:00</time>
      </trkpt>
      <trkpt lat="0" lon="0">
        <time>2021-02-28T09:58:45.499000+00:00</time>
      </trkpt>
      <trkpt lat="47.34521" lon="-1.40691">
        <ele>117</ele>
        <time>2021-02-28T09:58:46.504000+00:00</time>
      </trkpt>
      <trkpt lat="0" lon="0">
        <time>2021-02-28T09:58:46.509000+00:00</time>
      </trkpt>
      <trkpt lat="0" lon="0">
        <time>2021-02-28T09:58:46.516000+00:00</time>
      </trkpt>
      <trkpt lat="0" lon="0">
        <time>2021-02-28T09:58:46.518000+00:00</time>
      </trkpt>
      <trkpt lat="47.34518" lon="-1.40687">
        <ele>118</ele>
        <time>2021-02-28T09:58:47.489000+00:00</time>
      </trkpt>
      <trkpt lat="0" lon="0">
        <time>2021-02-28T09:58:47.503000+00:00</time>
      </trkpt>
      <trkpt lat="0" lon="0">
        <time>2021-02-28T09:58:47.510000+00:00</time>
      </trkpt>
      <trkpt lat="0" lon="0">
        <time>2021-02-28T09:58:47.513000+00:00</time>
      </trkpt>
      <trkpt lat="47.34514" lon="-1.40683">
        <ele>117</ele>
        <time>2021-02-28T09:58:48.540000+00:00</time>
      </trkpt>
      <trkpt lat="0" lon="0">
        <time>2021-02-28T09:58:48.549000+00:00</time>
      </trkpt>
      <trkpt lat="0" lon="0">
        <time>2021-02-28T09:58:48.555000+00:00</time>
      </trkpt>
      <trkpt lat="0" lon="0">
        <time>2021-02-28T09:58:48.558000+00:00</time>
      </trkpt>
      <trkpt lat="47.3451" lon="-1.40681">
        <ele>117</ele>
        <time>2021-02-28T09:58:49.512000+00:00</time>
      </trkpt>
      <trkpt lat="0" lon="0">
        <time>2021-02-28T09:58:49.518000+00:00</time>
      </trkpt>
      <trkpt lat="0" lon="0">
        <time>2021-02-28T09:58:49.523000+00:00</time>
      </trkpt>
      <trkpt lat="0" lon="0">
        <time>2021-02-28T09:58:49.525000+00:00</time>
      </trkpt>
      <trkpt lat="47.34505" lon="-1.40679">
        <ele>117</ele>
        <time>2021-02-28T09:58:50.519000+00:00</time>
      </trkpt>
      <trkpt lat="0" lon="0">
        <time>2021-02-28T09:58:50.532000+00:00</time>
      </trkpt>
      <trkpt lat="0" lon="0">
        <time>2021-02-28T09:58:50.538000+00:00</time>
      </trkpt>
      <trkpt lat="0" lon="0">
        <time>2021-02-28T09:58:50.541000+00:00</time>
      </trkpt>
      <trkpt lat="47.345" lon="-1.40677">
        <ele>117</ele>
        <time>2021-02-28T09:58:51.445000+00:00</time>
      </trkpt>
      <trkpt lat="0" lon="0">
        <time>2021-02-28T09:58:51.450000+00:00</time>
      </trkpt>
      <trkpt lat="0" lon="0">
        <time>2021-02-28T09:58:51.458000+00:00</time>
      </trkpt>
      <trkpt lat="0" lon="0">
        <time>2021-02-28T09:58:51.460000+00:00</time>
      </trkpt>
      <trkpt lat="47.34495" lon="-1.40676">
        <ele>117</ele>
        <time>2021-02-28T09:58:52.493000+00:00</time>
      </trkpt>
      <trkpt lat="0" lon="0">
        <time>2021-02-28T09:58:52.498000+00:00</time>
      </trkpt>
      <trkpt lat="0" lon="0">
        <time>2021-02-28T09:58:52.503000+00:00</time>
      </trkpt>
      <trkpt lat="0" lon="0">
        <time>2021-02-28T09:58:52.506000+00:00</time>
      </trkpt>
      <trkpt lat="47.34489" lon="-1.40675">
        <ele>117</ele>
        <time>2021-02-28T09:58:53.522000+00:00</time>
      </trkpt>
      <trkpt lat="0" lon="0">
        <time>2021-02-28T09:58:53.531000+00:00</time>
      </trkpt>
      <trkpt lat="0" lon="0">
        <time>2021-02-28T09:58:53.535000+00:00</time>
      </trkpt>
      <trkpt lat="0" lon="0">
        <time>2021-02-28T09:58:53.537000+00:00</time>
      </trkpt>
      <trkpt lat="47.34483" lon="-1.40674">
        <ele>117</ele>
        <time>2021-02-28T09:58:54.517000+00:00</time>
      </trkpt>
      <trkpt lat="0" lon="0">
        <time>2021-02-28T09:58:54.526000+00:00</time>
      </trkpt>
      <trkpt lat="0" lon="0">
        <time>2021-02-28T09:58:54.531000+00:00</time>
      </trkpt>
      <trkpt lat="0" lon="0">
        <time>2021-02-28T09:58:54.533000+00:00</time>
      </trkpt>
      <trkpt lat="47.34478" lon="-1.40673">
        <ele>118</ele>
        <time>2021-02-28T09:58:55.506000+00:00</time>
      </trkpt>
      <trkpt lat="0" lon="0">
        <time>2021-02-28T09:58:55.513000+00:00</time>
      </trkpt>
      <trkpt lat="0" lon="0">
        <time>2021-02-28T09:58:55.518000+00:00</time>
      </trkpt>
      <trkpt lat="0" lon="0">
        <time>2021-02-28T09:58:55.521000+00:00</time>
      </trkpt>
      <trkpt lat="47.34472" lon="-1.40672">
        <ele>118</ele>
        <time>2021-02-28T09:58:56.530000+00:00</time>
      </trkpt>
      <trkpt lat="0" lon="0">
        <time>2021-02-28T09:58:56.541000+00:00</time>
      </trkpt>
      <trkpt lat="0" lon="0">
        <time>2021-02-28T09:58:56.550000+00:00</time>
      </trkpt>
      <trkpt lat="0" lon="0">
        <time>2021-02-28T09:58:56.554000+00:00</time>
      </trkpt>
      <trkpt lat="47.34466" lon="-1.4067">
        <ele>117</ele>
        <time>2021-02-28T09:58:57.532000+00:00</time>
      </trkpt>
      <trkpt lat="0" lon="0">
        <time>2021-02-28T09:58:57.534000+00:00</time>
      </trkpt>
      <trkpt lat="0" lon="0">
        <time>2021-02-28T09:58:57.536000+00:00</time>
      </trkpt>
      <trkpt lat="0" lon="0">
        <time>2021-02-28T09:58:57.537000+00:00</time>
      </trkpt>
      <trkpt lat="47.3446" lon="-1.40669">
        <ele>117</ele>
        <time>2021-02-28T09:58:58.553000+00:00</time>
      </trkpt>
      <trkpt lat="0" lon="0">
        <time>2021-02-28T09:58:58.565000+00:00</time>
      </trkpt>
      <trkpt lat="0" lon="0">
        <time>2021-02-28T09:58:58.570000+00:00</time>
      </trkpt>
      <trkpt lat="0" lon="0">
        <time>2021-02-28T09:58:58.572000+00:00</time>
      </trkpt>
      <trkpt lat="47.34455" lon="-1.40668">
        <ele>117</ele>
        <time>2021-02-28T09:58:59.531000+00:00</time>
      </trkpt>
      <trkpt lat="0" lon="0">
        <time>2021-02-28T09:58:59.539000+00:00</time>
      </trkpt>
      <trkpt lat="0" lon="0">
        <time>2021-02-28T09:58:59.544000+00:00</time>
      </trkpt>
      <trkpt lat="0" lon="0">
        <time>2021-02-28T09:58:59.547000+00:00</time>
      </trkpt>
      <trkpt lat="47.34449" lon="-1.40666">
        <ele>117</ele>
        <time>2021-02-28T09:59:00.515000+00:00</time>
      </trkpt>
      <trkpt lat="0" lon="0">
        <time>2021-02-28T09:59:00.528000+00:00</time>
      </trkpt>
      <trkpt lat="0" lon="0">
        <time>2021-02-28T09:59:00.542000+00:00</time>
      </trkpt>
      <trkpt lat="0" lon="0">
        <time>2021-02-28T09:59:00.546000+00:00</time>
      </trkpt>
      <trkpt lat="47.34443" lon="-1.40665">
        <ele>117</ele>
        <time>2021-02-28T09:59:01.495000+00:00</time>
      </trkpt>
      <trkpt lat="0" lon="0">
        <time>2021-02-28T09:59:01.505000+00:00</time>
      </trkpt>
      <trkpt lat="0" lon="0">
        <time>2021-02-28T09:59:01.511000+00:00</time>
      </trkpt>
      <trkpt lat="0" lon="0">
        <time>2021-02-28T09:59:01.513000+00:00</time>
      </trkpt>
      <trkpt lat="47.34437" lon="-1.40663">
        <ele>117</ele>
        <time>2021-02-28T09:59:02.470000+00:00</time>
      </trkpt>
      <trkpt lat="0" lon="0">
        <time>2021-02-28T09:59:02.478000+00:00</time>
      </trkpt>
      <trkpt lat="0" lon="0">
        <time>2021-02-28T09:59:02.483000+00:00</time>
      </trkpt>
      <trkpt lat="0" lon="0">
        <time>2021-02-28T09:59:02.489000+00:00</time>
      </trkpt>
      <trkpt lat="47.34432" lon="-1.40661">
        <ele>117</ele>
        <time>2021-02-28T09:59:03.526000+00:00</time>
      </trkpt>
      <trkpt lat="0" lon="0">
        <time>2021-02-28T09:59:03.533000+00:00</time>
      </trkpt>
      <trkpt lat="0" lon="0">
        <time>2021-02-28T09:59:03.536000+00:00</time>
      </trkpt>
      <trkpt lat="0" lon="0">
        <time>2021-02-28T09:59:03.540000+00:00</time>
      </trkpt>
      <trkpt lat="47.34426" lon="-1.40659">
        <ele>118</ele>
        <time>2021-02-28T09:59:04.494000+00:00</time>
      </trkpt>
      <trkpt lat="0" lon="0">
        <time>2021-02-28T09:59:04.505000+00:00</time>
      </trkpt>
      <trkpt lat="0" lon="0">
        <time>2021-02-28T09:59:04.511000+00:00</time>
      </trkpt>
      <trkpt lat="0" lon="0">
        <time>2021-02-28T09:59:04.513000+00:00</time>
      </trkpt>
      <trkpt lat="47.34421" lon="-1.40657">
        <ele>117</ele>
        <time>2021-02-28T09:59:05.511000+00:00</time>
      </trkpt>
      <trkpt lat="0" lon="0">
        <time>2021-02-28T09:59:05.513000+00:00</time>
      </trkpt>
      <trkpt lat="0" lon="0">
        <time>2021-02-28T09:59:05.517000+00:00</time>
      </trkpt>
      <trkpt lat="0" lon="0">
        <time>2021-02-28T09:59:05.518000+00:00</time>
      </trkpt>
      <trkpt lat="47.34415" lon="-1.40655">
        <ele>118</ele>
        <time>2021-02-28T09:59:06.504000+00:00</time>
      </trkpt>
      <trkpt lat="0" lon="0">
        <time>2021-02-28T09:59:06.511000+00:00</time>
      </trkpt>
      <trkpt lat="0" lon="0">
        <time>2021-02-28T09:59:06.518000+00:00</time>
      </trkpt>
      <trkpt lat="0" lon="0">
        <time>2021-02-28T09:59:06.521000+00:00</time>
      </trkpt>
      <trkpt lat="47.3441" lon="-1.40654">
        <ele>118</ele>
        <time>2021-02-28T09:59:07.530000+00:00</time>
      </trkpt>
      <trkpt lat="0" lon="0">
        <time>2021-02-28T09:59:07.535000+00:00</time>
      </trkpt>
      <trkpt lat="0" lon="0">
        <time>2021-02-28T09:59:07.541000+00:00</time>
      </trkpt>
      <trkpt lat="0" lon="0">
        <time>2021-02-28T09:59:07.543000+00:00</time>
      </trkpt>
      <trkpt lat="47.34405" lon="-1.40652">
        <ele>118</ele>
        <time>2021-02-28T09:59:08.553000+00:00</time>
      </trkpt>
      <trkpt lat="0" lon="0">
        <time>2021-02-28T09:59:08.558000+00:00</time>
      </trkpt>
      <trkpt lat="0" lon="0">
        <time>2021-02-28T09:59:08.565000+00:00</time>
      </trkpt>
      <trkpt lat="0" lon="0">
        <time>2021-02-28T09:59:08.567000+00:00</time>
      </trkpt>
      <trkpt lat="47.344" lon="-1.4065">
        <ele>118</ele>
        <time>2021-02-28T09:59:09.502000+00:00</time>
      </trkpt>
      <trkpt lat="0" lon="0">
        <time>2021-02-28T09:59:09.509000+00:00</time>
      </trkpt>
      <trkpt lat="0" lon="0">
        <time>2021-02-28T09:59:09.514000+00:00</time>
      </trkpt>
      <trkpt lat="0" lon="0">
        <time>2021-02-28T09:59:09.517000+00:00</time>
      </trkpt>
      <trkpt lat="47.34395" lon="-1.40648">
        <ele>118</ele>
        <time>2021-02-28T09:59:10.505000+00:00</time>
      </trkpt>
      <trkpt lat="0" lon="0">
        <time>2021-02-28T09:59:10.517000+00:00</time>
      </trkpt>
      <trkpt lat="0" lon="0">
        <time>2021-02-28T09:59:10.523000+00:00</time>
      </trkpt>
      <trkpt lat="0" lon="0">
        <time>2021-02-28T09:59:10.525000+00:00</time>
      </trkpt>
      <trkpt lat="47.3439" lon="-1.40646">
        <ele>117</ele>
        <time>2021-02-28T09:59:11.519000+00:00</time>
      </trkpt>
      <trkpt lat="0" lon="0">
        <time>2021-02-28T09:59:11.530000+00:00</time>
      </trkpt>
      <trkpt lat="0" lon="0">
        <time>2021-02-28T09:59:11.536000+00:00</time>
      </trkpt>
      <trkpt lat="0" lon="0">
        <time>2021-02-28T09:59:11.539000+00:00</time>
      </trkpt>
      <trkpt lat="47.34385" lon="-1.40644">
        <ele>117</ele>
        <time>2021-02-28T09:59:12.508000+00:00</time>
      </trkpt>
      <trkpt lat="0" lon="0">
        <time>2021-02-28T09:59:12.514000+00:00</time>
      </trkpt>
      <trkpt lat="0" lon="0">
        <time>2021-02-28T09:59:12.520000+00:00</time>
      </trkpt>
      <trkpt lat="0" lon="0">
        <time>2021-02-28T09:59:12.523000+00:00</time>
      </trkpt>
      <trkpt lat="47.3438" lon="-1.40642">
        <ele>118</ele>
        <time>2021-02-28T09:59:13.482000+00:00</time>
      </trkpt>
      <trkpt lat="0" lon="0">
        <time>2021-02-28T09:59:13.495000+00:00</time>
      </trkpt>
      <trkpt lat="0" lon="0">
        <time>2021-02-28T09:59:13.501000+00:00</time>
      </trkpt>
      <trkpt lat="0" lon="0">
        <time>2021-02-28T09:59:13.503000+00:00</time>
      </trkpt>
      <trkpt lat="47.34377" lon="-1.4064">
        <ele>118</ele>
        <time>2021-02-28T09:59:14.521000+00:00</time>
      </trkpt>
      <trkpt lat="0" lon="0">
        <time>2021-02-28T09:59:14.531000+00:00</time>
      </trkpt>
      <trkpt lat="0" lon="0">
        <time>2021-02-28T09:59:14.535000+00:00</time>
      </trkpt>
      <trkpt lat="0" lon="0">
        <time>2021-02-28T09:59:14.538000+00:00</time>
      </trkpt>
      <trkpt lat="47.34373" lon="-1.40638">
        <ele>118</ele>
        <time>2021-02-28T09:59:15.520000+00:00</time>
      </trkpt>
      <trkpt lat="0" lon="0">
        <time>2021-02-28T09:59:15.526000+00:00</time>
      </trkpt>
      <trkpt lat="0" lon="0">
        <time>2021-02-28T09:59:15.530000+00:00</time>
      </trkpt>
      <trkpt lat="0" lon="0">
        <time>2021-02-28T09:59:15.533000+00:00</time>
      </trkpt>
      <trkpt lat="47.3437" lon="-1.40637">
        <ele>118</ele>
        <time>2021-02-28T09:59:16.518000+00:00</time>
      </trkpt>
      <trkpt lat="0" lon="0">
        <time>2021-02-28T09:59:16.526000+00:00</time>
      </trkpt>
      <trkpt lat="0" lon="0">
        <time>2021-02-28T09:59:16.531000+00:00</time>
      </trkpt>
      <trkpt lat="0" lon="0">
        <time>2021-02-28T09:59:16.534000+00:00</time>
      </trkpt>
      <trkpt lat="47.34368" lon="-1.40636">
        <ele>119</ele>
        <time>2021-02-28T09:59:17.488000+00:00</time>
      </trkpt>
      <trkpt lat="0" lon="0">
        <time>2021-02-28T09:59:17.494000+00:00</time>
      </trkpt>
      <trkpt lat="0" lon="0">
        <time>2021-02-28T09:59:17.499000+00:00</time>
      </trkpt>
      <trkpt lat="0" lon="0">
        <time>2021-02-28T09:59:17.502000+00:00</time>
      </trkpt>
      <trkpt lat="47.34366" lon="-1.40635">
        <ele>119</ele>
        <time>2021-02-28T09:59:18.500000+00:00</time>
      </trkpt>
      <trkpt lat="0" lon="0">
        <time>2021-02-28T09:59:18.506000+00:00</time>
      </trkpt>
      <trkpt lat="0" lon="0">
        <time>2021-02-28T09:59:18.511000+00:00</time>
      </trkpt>
      <trkpt lat="0" lon="0">
        <time>2021-02-28T09:59:18.514000+00:00</time>
      </trkpt>
      <trkpt lat="47.34365" lon="-1.40634">
        <ele>119</ele>
        <time>2021-02-28T09:59:19.482000+00:00</time>
      </trkpt>
      <trkpt lat="0" lon="0">
        <time>2021-02-28T09:59:19.491000+00:00</time>
      </trkpt>
      <trkpt lat="0" lon="0">
        <time>2021-02-28T09:59:19.496000+00:00</time>
      </trkpt>
      <trkpt lat="0" lon="0">
        <time>2021-02-28T09:59:19.498000+00:00</time>
      </trkpt>
      <trkpt lat="47.34364" lon="-1.40634">
        <ele>119</ele>
        <time>2021-02-28T09:59:20.535000+00:00</time>
      </trkpt>
      <trkpt lat="0" lon="0">
        <time>2021-02-28T09:59:20.538000+00:00</time>
      </trkpt>
      <trkpt lat="0" lon="0">
        <time>2021-02-28T09:59:20.540000+00:00</time>
      </trkpt>
      <trkpt lat="0" lon="0">
        <time>2021-02-28T09:59:20.542000+00:00</time>
      </trkpt>
      <trkpt lat="47.34364" lon="-1.40633">
        <ele>119</ele>
        <time>2021-02-28T09:59:21.530000+00:00</time>
      </trkpt>
      <trkpt lat="0" lon="0">
        <time>2021-02-28T09:59:21.537000+00:00</time>
      </trkpt>
      <trkpt lat="0" lon="0">
        <time>2021-02-28T09:59:21.541000+00:00</time>
      </trkpt>
      <trkpt lat="0" lon="0">
        <time>2021-02-28T09:59:21.544000+00:00</time>
      </trkpt>
      <trkpt lat="47.34364" lon="-1.40633">
        <ele>119</ele>
        <time>2021-02-28T09:59:22.503000+00:00</time>
      </trkpt>
      <trkpt lat="0" lon="0">
        <time>2021-02-28T09:59:22.508000+00:00</time>
      </trkpt>
      <trkpt lat="0" lon="0">
        <time>2021-02-28T09:59:22.513000+00:00</time>
      </trkpt>
      <trkpt lat="0" lon="0">
        <time>2021-02-28T09:59:22.515000+00:00</time>
      </trkpt>
      <trkpt lat="47.34364" lon="-1.40633">
        <ele>119</ele>
        <time>2021-02-28T09:59:23.530000+00:00</time>
      </trkpt>
      <trkpt lat="0" lon="0">
        <time>2021-02-28T09:59:23.539000+00:00</time>
      </trkpt>
      <trkpt lat="0" lon="0">
        <time>2021-02-28T09:59:23.546000+00:00</time>
      </trkpt>
      <trkpt lat="0" lon="0">
        <time>2021-02-28T09:59:23.550000+00:00</time>
      </trkpt>
      <trkpt lat="47.34365" lon="-1.40634">
        <ele>119</ele>
        <time>2021-02-28T09:59:24.498000+00:00</time>
      </trkpt>
      <trkpt lat="0" lon="0">
        <time>2021-02-28T09:59:24.510000+00:00</time>
      </trkpt>
      <trkpt lat="0" lon="0">
        <time>2021-02-28T09:59:24.515000+00:00</time>
      </trkpt>
      <trkpt lat="0" lon="0">
        <time>2021-02-28T09:59:24.517000+00:00</time>
      </trkpt>
      <trkpt lat="47.34366" lon="-1.40634">
        <ele>119</ele>
        <time>2021-02-28T09:59:25.526000+00:00</time>
      </trkpt>
      <trkpt lat="0" lon="0">
        <time>2021-02-28T09:59:25.531000+00:00</time>
      </trkpt>
      <trkpt lat="0" lon="0">
        <time>2021-02-28T09:59:25.536000+00:00</time>
      </trkpt>
      <trkpt lat="0" lon="0">
        <time>2021-02-28T09:59:25.540000+00:00</time>
      </trkpt>
      <trkpt lat="47.34366" lon="-1.40634">
        <ele>119</ele>
        <time>2021-02-28T09:59:26.512000+00:00</time>
      </trkpt>
      <trkpt lat="0" lon="0">
        <time>2021-02-28T09:59:26.517000+00:00</time>
      </trkpt>
      <trkpt lat="0" lon="0">
        <time>2021-02-28T09:59:26.522000+00:00</time>
      </trkpt>
      <trkpt lat="0" lon="0">
        <time>2021-02-28T09:59:26.525000+00:00</time>
      </trkpt>
      <trkpt lat="47.34367" lon="-1.40634">
        <ele>119</ele>
        <time>2021-02-28T09:59:27.506000+00:00</time>
      </trkpt>
      <trkpt lat="0" lon="0">
        <time>2021-02-28T09:59:27.516000+00:00</time>
      </trkpt>
      <trkpt lat="0" lon="0">
        <time>2021-02-28T09:59:27.521000+00:00</time>
      </trkpt>
      <trkpt lat="0" lon="0">
        <time>2021-02-28T09:59:27.523000+00:00</time>
      </trkpt>
      <trkpt lat="47.34368" lon="-1.40634">
        <ele>118</ele>
        <time>2021-02-28T09:59:28.499000+00:00</time>
      </trkpt>
      <trkpt lat="0" lon="0">
        <time>2021-02-28T09:59:28.507000+00:00</time>
      </trkpt>
      <trkpt lat="0" lon="0">
        <time>2021-02-28T09:59:28.512000+00:00</time>
      </trkpt>
      <trkpt lat="0" lon="0">
        <time>2021-02-28T09:59:28.515000+00:00</time>
      </trkpt>
      <trkpt lat="47.34368" lon="-1.40634">
        <ele>118</ele>
        <time>2021-02-28T09:59:29.535000+00:00</time>
      </trkpt>
      <trkpt lat="0" lon="0">
        <time>2021-02-28T09:59:29.541000+00:00</time>
      </trkpt>
      <trkpt lat="0" lon="0">
        <time>2021-02-28T09:59:29.546000+00:00</time>
      </trkpt>
      <trkpt lat="0" lon="0">
        <time>2021-02-28T09:59:29.549000+00:00</time>
      </trkpt>
      <trkpt lat="47.34369" lon="-1.40632">
        <ele>118</ele>
        <time>2021-02-28T09:59:30.521000+00:00</time>
      </trkpt>
      <trkpt lat="0" lon="0">
        <time>2021-02-28T09:59:30.531000+00:00</time>
      </trkpt>
      <trkpt lat="0" lon="0">
        <time>2021-02-28T09:59:30.540000+00:00</time>
      </trkpt>
      <trkpt lat="0" lon="0">
        <time>2021-02-28T09:59:30.555000+00:00</time>
      </trkpt>
      <trkpt lat="47.34386" lon="-1.4061">
        <ele>118</ele>
        <time>2021-02-28T09:59:31.491000+00:00</time>
      </trkpt>
      <trkpt lat="0" lon="0">
        <time>2021-02-28T09:59:31.496000+00:00</time>
      </trkpt>
      <trkpt lat="0" lon="0">
        <time>2021-02-28T09:59:31.502000+00:00</time>
      </trkpt>
      <trkpt lat="0" lon="0">
        <time>2021-02-28T09:59:31.504000+00:00</time>
      </trkpt>
      <trkpt lat="47.34389" lon="-1.40606">
        <ele>118</ele>
        <time>2021-02-28T09:59:32.570000+00:00</time>
      </trkpt>
      <trkpt lat="0" lon="0">
        <time>2021-02-28T09:59:32.575000+00:00</time>
      </trkpt>
      <trkpt lat="0" lon="0">
        <time>2021-02-28T09:59:32.578000+00:00</time>
      </trkpt>
      <trkpt lat="0" lon="0">
        <time>2021-02-28T09:59:32.581000+00:00</time>
      </trkpt>
      <trkpt lat="47.34392" lon="-1.40601">
        <ele>118</ele>
        <time>2021-02-28T09:59:33.561000+00:00</time>
      </trkpt>
      <trkpt lat="0" lon="0">
        <time>2021-02-28T09:59:33.573000+00:00</time>
      </trkpt>
      <trkpt lat="0" lon="0">
        <time>2021-02-28T09:59:33.578000+00:00</time>
      </trkpt>
      <trkpt lat="0" lon="0">
        <time>2021-02-28T09:59:33.580000+00:00</time>
      </trkpt>
      <trkpt lat="47.34395" lon="-1.40597">
        <ele>119</ele>
        <time>2021-02-28T09:59:34.611000+00:00</time>
      </trkpt>
      <trkpt lat="0" lon="0">
        <time>2021-02-28T09:59:34.614000+00:00</time>
      </trkpt>
      <trkpt lat="0" lon="0">
        <time>2021-02-28T09:59:34.618000+00:00</time>
      </trkpt>
      <trkpt lat="0" lon="0">
        <time>2021-02-28T09:59:34.620000+00:00</time>
      </trkpt>
      <trkpt lat="47.34399" lon="-1.40592">
        <ele>119</ele>
        <time>2021-02-28T09:59:35.658000+00:00</time>
      </trkpt>
      <trkpt lat="0" lon="0">
        <time>2021-02-28T09:59:35.679000+00:00</time>
      </trkpt>
      <trkpt lat="0" lon="0">
        <time>2021-02-28T09:59:35.681000+00:00</time>
      </trkpt>
      <trkpt lat="0" lon="0">
        <time>2021-02-28T09:59:35.683000+00:00</time>
      </trkpt>
      <trkpt lat="47.34402" lon="-1.40587">
        <ele>119</ele>
        <time>2021-02-28T09:59:36.533000+00:00</time>
      </trkpt>
      <trkpt lat="0" lon="0">
        <time>2021-02-28T09:59:36.541000+00:00</time>
      </trkpt>
      <trkpt lat="0" lon="0">
        <time>2021-02-28T09:59:36.545000+00:00</time>
      </trkpt>
      <trkpt lat="0" lon="0">
        <time>2021-02-28T09:59:36.547000+00:00</time>
      </trkpt>
      <trkpt lat="47.34406" lon="-1.40582">
        <ele>120</ele>
        <time>2021-02-28T09:59:37.569000+00:00</time>
      </trkpt>
      <trkpt lat="0" lon="0">
        <time>2021-02-28T09:59:37.581000+00:00</time>
      </trkpt>
      <trkpt lat="0" lon="0">
        <time>2021-02-28T09:59:37.587000+00:00</time>
      </trkpt>
      <trkpt lat="0" lon="0">
        <time>2021-02-28T09:59:37.589000+00:00</time>
      </trkpt>
      <trkpt lat="47.3441" lon="-1.40577">
        <ele>120</ele>
        <time>2021-02-28T09:59:38.566000+00:00</time>
      </trkpt>
      <trkpt lat="0" lon="0">
        <time>2021-02-28T09:59:38.571000+00:00</time>
      </trkpt>
      <trkpt lat="0" lon="0">
        <time>2021-02-28T09:59:38.575000+00:00</time>
      </trkpt>
      <trkpt lat="0" lon="0">
        <time>2021-02-28T09:59:38.577000+00:00</time>
      </trkpt>
      <trkpt lat="47.34413" lon="-1.40572">
        <ele>120</ele>
        <time>2021-02-28T09:59:39.530000+00:00</time>
      </trkpt>
      <trkpt lat="0" lon="0">
        <time>2021-02-28T09:59:39.545000+00:00</time>
      </trkpt>
      <trkpt lat="0" lon="0">
        <time>2021-02-28T09:59:39.550000+00:00</time>
      </trkpt>
      <trkpt lat="0" lon="0">
        <time>2021-02-28T09:59:39.552000+00:00</time>
      </trkpt>
      <trkpt lat="47.34417" lon="-1.40567">
        <ele>120</ele>
        <time>2021-02-28T09:59:40.550000+00:00</time>
      </trkpt>
      <trkpt lat="0" lon="0">
        <time>2021-02-28T09:59:40.558000+00:00</time>
      </trkpt>
      <trkpt lat="0" lon="0">
        <time>2021-02-28T09:59:40.564000+00:00</time>
      </trkpt>
      <trkpt lat="0" lon="0">
        <time>2021-02-28T09:59:40.566000+00:00</time>
      </trkpt>
      <trkpt lat="47.34421" lon="-1.40562">
        <ele>120</ele>
        <time>2021-02-28T09:59:41.566000+00:00</time>
      </trkpt>
      <trkpt lat="0" lon="0">
        <time>2021-02-28T09:59:41.575000+00:00</time>
      </trkpt>
      <trkpt lat="0" lon="0">
        <time>2021-02-28T09:59:41.583000+00:00</time>
      </trkpt>
      <trkpt lat="0" lon="0">
        <time>2021-02-28T09:59:41.585000+00:00</time>
      </trkpt>
      <trkpt lat="47.34425" lon="-1.40556">
        <ele>120</ele>
        <time>2021-02-28T09:59:42.603000+00:00</time>
      </trkpt>
      <trkpt lat="0" lon="0">
        <time>2021-02-28T09:59:42.609000+00:00</time>
      </trkpt>
      <trkpt lat="0" lon="0">
        <time>2021-02-28T09:59:42.614000+00:00</time>
      </trkpt>
      <trkpt lat="0" lon="0">
        <time>2021-02-28T09:59:42.616000+00:00</time>
      </trkpt>
      <trkpt lat="47.34428" lon="-1.40551">
        <ele>121</ele>
        <time>2021-02-28T09:59:43.587000+00:00</time>
      </trkpt>
      <trkpt lat="0" lon="0">
        <time>2021-02-28T09:59:43.597000+00:00</time>
      </trkpt>
      <trkpt lat="0" lon="0">
        <time>2021-02-28T09:59:43.606000+00:00</time>
      </trkpt>
      <trkpt lat="0" lon="0">
        <time>2021-02-28T09:59:43.609000+00:00</time>
      </trkpt>
      <trkpt lat="47.34432" lon="-1.40546">
        <ele>121</ele>
        <time>2021-02-28T09:59:44.612000+00:00</time>
      </trkpt>
      <trkpt lat="0" lon="0">
        <time>2021-02-28T09:59:44.618000+00:00</time>
      </trkpt>
      <trkpt lat="0" lon="0">
        <time>2021-02-28T09:59:44.625000+00:00</time>
      </trkpt>
      <trkpt lat="0" lon="0">
        <time>2021-02-28T09:59:44.628000+00:00</time>
      </trkpt>
      <trkpt lat="47.34436" lon="-1.40541">
        <ele>121</ele>
        <time>2021-02-28T09:59:45.603000+00:00</time>
      </trkpt>
      <trkpt lat="0" lon="0">
        <time>2021-02-28T09:59:45.616000+00:00</time>
      </trkpt>
      <trkpt lat="0" lon="0">
        <time>2021-02-28T09:59:45.620000+00:00</time>
      </trkpt>
      <trkpt lat="0" lon="0">
        <time>2021-02-28T09:59:45.623000+00:00</time>
      </trkpt>
      <trkpt lat="47.34439" lon="-1.40536">
        <ele>122</ele>
        <time>2021-02-28T09:59:46.595000+00:00</time>
      </trkpt>
      <trkpt lat="0" lon="0">
        <time>2021-02-28T09:59:46.600000+00:00</time>
      </trkpt>
      <trkpt lat="0" lon="0">
        <time>2021-02-28T09:59:46.604000+00:00</time>
      </trkpt>
      <trkpt lat="0" lon="0">
        <time>2021-02-28T09:59:46.607000+00:00</time>
      </trkpt>
      <trkpt lat="47.34443" lon="-1.40531">
        <ele>122</ele>
        <time>2021-02-28T09:59:47.578000+00:00</time>
      </trkpt>
      <trkpt lat="0" lon="0">
        <time>2021-02-28T09:59:47.581000+00:00</time>
      </trkpt>
      <trkpt lat="0" lon="0">
        <time>2021-02-28T09:59:47.583000+00:00</time>
      </trkpt>
      <trkpt lat="0" lon="0">
        <time>2021-02-28T09:59:47.585000+00:00</time>
      </trkpt>
      <trkpt lat="47.34447" lon="-1.40526">
        <ele>122</ele>
        <time>2021-02-28T09:59:48.560000+00:00</time>
      </trkpt>
      <trkpt lat="0" lon="0">
        <time>2021-02-28T09:59:48.568000+00:00</time>
      </trkpt>
      <trkpt lat="0" lon="0">
        <time>2021-02-28T09:59:48.572000+00:00</time>
      </trkpt>
      <trkpt lat="0" lon="0">
        <time>2021-02-28T09:59:48.574000+00:00</time>
      </trkpt>
      <trkpt lat="47.34451" lon="-1.4052">
        <ele>122</ele>
        <time>2021-02-28T09:59:49.497000+00:00</time>
      </trkpt>
      <trkpt lat="0" lon="0">
        <time>2021-02-28T09:59:49.507000+00:00</time>
      </trkpt>
      <trkpt lat="0" lon="0">
        <time>2021-02-28T09:59:49.511000+00:00</time>
      </trkpt>
      <trkpt lat="0" lon="0">
        <time>2021-02-28T09:59:49.513000+00:00</time>
      </trkpt>
      <trkpt lat="47.34455" lon="-1.40515">
        <ele>122</ele>
        <time>2021-02-28T09:59:50.593000+00:00</time>
      </trkpt>
      <trkpt lat="0" lon="0">
        <time>2021-02-28T09:59:50.597000+00:00</time>
      </trkpt>
      <trkpt lat="0" lon="0">
        <time>2021-02-28T09:59:50.601000+00:00</time>
      </trkpt>
      <trkpt lat="0" lon="0">
        <time>2021-02-28T09:59:50.603000+00:00</time>
      </trkpt>
      <trkpt lat="47.34459" lon="-1.4051">
        <ele>123</ele>
        <time>2021-02-28T09:59:51.584000+00:00</time>
      </trkpt>
      <trkpt lat="0" lon="0">
        <time>2021-02-28T09:59:51.589000+00:00</time>
      </trkpt>
      <trkpt lat="0" lon="0">
        <time>2021-02-28T09:59:51.594000+00:00</time>
      </trkpt>
      <trkpt lat="0" lon="0">
        <time>2021-02-28T09:59:51.596000+00:00</time>
      </trkpt>
      <trkpt lat="47.34463" lon="-1.40505">
        <ele>123</ele>
        <time>2021-02-28T09:59:52.627000+00:00</time>
      </trkpt>
      <trkpt lat="0" lon="0">
        <time>2021-02-28T09:59:52.640000+00:00</time>
      </trkpt>
      <trkpt lat="0" lon="0">
        <time>2021-02-28T09:59:52.645000+00:00</time>
      </trkpt>
      <trkpt lat="0" lon="0">
        <time>2021-02-28T09:59:52.649000+00:00</time>
      </trkpt>
      <trkpt lat="47.34467" lon="-1.40499">
        <ele>123</ele>
        <time>2021-02-28T09:59:53.620000+00:00</time>
      </trkpt>
      <trkpt lat="0" lon="0">
        <time>2021-02-28T09:59:53.625000+00:00</time>
      </trkpt>
      <trkpt lat="0" lon="0">
        <time>2021-02-28T09:59:53.630000+00:00</time>
      </trkpt>
      <trkpt lat="0" lon="0">
        <time>2021-02-28T09:59:53.633000+00:00</time>
      </trkpt>
      <trkpt lat="47.34471" lon="-1.40494">
        <ele>124</ele>
        <time>2021-02-28T09:59:54.583000+00:00</time>
      </trkpt>
      <trkpt lat="0" lon="0">
        <time>2021-02-28T09:59:54.592000+00:00</time>
      </trkpt>
      <trkpt lat="0" lon="0">
        <time>2021-02-28T09:59:54.596000+00:00</time>
      </trkpt>
      <trkpt lat="0" lon="0">
        <time>2021-02-28T09:59:54.598000+00:00</time>
      </trkpt>
      <trkpt lat="47.34475" lon="-1.40489">
        <ele>124</ele>
        <time>2021-02-28T09:59:55.628000+00:00</time>
      </trkpt>
      <trkpt lat="0" lon="0">
        <time>2021-02-28T09:59:55.638000+00:00</time>
      </trkpt>
      <trkpt lat="0" lon="0">
        <time>2021-02-28T09:59:55.645000+00:00</time>
      </trkpt>
      <trkpt lat="0" lon="0">
        <time>2021-02-28T09:59:55.648000+00:00</time>
      </trkpt>
      <trkpt lat="47.34479" lon="-1.40483">
        <ele>124</ele>
        <time>2021-02-28T09:59:56.561000+00:00</time>
      </trkpt>
      <trkpt lat="0" lon="0">
        <time>2021-02-28T09:59:56.566000+00:00</time>
      </trkpt>
      <trkpt lat="0" lon="0">
        <time>2021-02-28T09:59:56.571000+00:00</time>
      </trkpt>
      <trkpt lat="0" lon="0">
        <time>2021-02-28T09:59:56.573000+00:00</time>
      </trkpt>
      <trkpt lat="47.34483" lon="-1.40477">
        <ele>124</ele>
        <time>2021-02-28T09:59:57.630000+00:00</time>
      </trkpt>
      <trkpt lat="0" lon="0">
        <time>2021-02-28T09:59:57.639000+00:00</time>
      </trkpt>
      <trkpt lat="0" lon="0">
        <time>2021-02-28T09:59:57.644000+00:00</time>
      </trkpt>
      <trkpt lat="0" lon="0">
        <time>2021-02-28T09:59:57.646000+00:00</time>
      </trkpt>
      <trkpt lat="47.34487" lon="-1.40472">
        <ele>124</ele>
        <time>2021-02-28T09:59:58.591000+00:00</time>
      </trkpt>
      <trkpt lat="0" lon="0">
        <time>2021-02-28T09:59:58.595000+00:00</time>
      </trkpt>
      <trkpt lat="0" lon="0">
        <time>2021-02-28T09:59:58.600000+00:00</time>
      </trkpt>
      <trkpt lat="0" lon="0">
        <time>2021-02-28T09:59:58.603000+00:00</time>
      </trkpt>
      <trkpt lat="47.34491" lon="-1.40466">
        <ele>123</ele>
        <time>2021-02-28T09:59:59.593000+00:00</time>
      </trkpt>
      <trkpt lat="0" lon="0">
        <time>2021-02-28T09:59:59.608000+00:00</time>
      </trkpt>
      <trkpt lat="0" lon="0">
        <time>2021-02-28T09:59:59.617000+00:00</time>
      </trkpt>
      <trkpt lat="0" lon="0">
        <time>2021-02-28T09:59:59.621000+00:00</time>
      </trkpt>
      <trkpt lat="47.34495" lon="-1.40459">
        <ele>122</ele>
        <time>2021-02-28T10:00:00.606000+00:00</time>
      </trkpt>
      <trkpt lat="0" lon="0">
        <time>2021-02-28T10:00:00.613000+00:00</time>
      </trkpt>
      <trkpt lat="0" lon="0">
        <time>2021-02-28T10:00:00.619000+00:00</time>
      </trkpt>
      <trkpt lat="0" lon="0">
        <time>2021-02-28T10:00:00.623000+00:00</time>
      </trkpt>
      <trkpt lat="47.345" lon="-1.40453">
        <ele>122</ele>
        <time>2021-02-28T10:00:01.590000+00:00</time>
      </trkpt>
      <trkpt lat="0" lon="0">
        <time>2021-02-28T10:00:01.600000+00:00</time>
      </trkpt>
      <trkpt lat="0" lon="0">
        <time>2021-02-28T10:00:01.609000+00:00</time>
      </trkpt>
      <trkpt lat="0" lon="0">
        <time>2021-02-28T10:00:01.612000+00:00</time>
      </trkpt>
      <trkpt lat="47.34504" lon="-1.40447">
        <ele>122</ele>
        <time>2021-02-28T10:00:02.600000+00:00</time>
      </trkpt>
      <trkpt lat="0" lon="0">
        <time>2021-02-28T10:00:02.608000+00:00</time>
      </trkpt>
      <trkpt lat="0" lon="0">
        <time>2021-02-28T10:00:02.614000+00:00</time>
      </trkpt>
      <trkpt lat="0" lon="0">
        <time>2021-02-28T10:00:02.617000+00:00</time>
      </trkpt>
      <trkpt lat="47.34509" lon="-1.4044">
        <ele>122</ele>
        <time>2021-02-28T10:00:03.589000+00:00</time>
      </trkpt>
      <trkpt lat="0" lon="0">
        <time>2021-02-28T10:00:03.596000+00:00</time>
      </trkpt>
      <trkpt lat="0" lon="0">
        <time>2021-02-28T10:00:03.603000+00:00</time>
      </trkpt>
      <trkpt lat="0" lon="0">
        <time>2021-02-28T10:00:03.605000+00:00</time>
      </trkpt>
      <trkpt lat="47.34513" lon="-1.40434">
        <ele>121</ele>
        <time>2021-02-28T10:00:04.485000+00:00</time>
      </trkpt>
      <trkpt lat="0" lon="0">
        <time>2021-02-28T10:00:04.500000+00:00</time>
      </trkpt>
      <trkpt lat="0" lon="0">
        <time>2021-02-28T10:00:04.507000+00:00</time>
      </trkpt>
      <trkpt lat="0" lon="0">
        <time>2021-02-28T10:00:04.509000+00:00</time>
      </trkpt>
      <trkpt lat="47.34518" lon="-1.40428">
        <ele>120</ele>
        <time>2021-02-28T10:00:05.602000+00:00</time>
      </trkpt>
      <trkpt lat="0" lon="0">
        <time>2021-02-28T10:00:05.608000+00:00</time>
      </trkpt>
      <trkpt lat="0" lon="0">
        <time>2021-02-28T10:00:05.618000+00:00</time>
      </trkpt>
      <trkpt lat="0" lon="0">
        <time>2021-02-28T10:00:05.621000+00:00</time>
      </trkpt>
      <trkpt lat="47.34523" lon="-1.40422">
        <ele>120</ele>
        <time>2021-02-28T10:00:06.574000+00:00</time>
      </trkpt>
      <trkpt lat="0" lon="0">
        <time>2021-02-28T10:00:06.579000+00:00</time>
      </trkpt>
      <trkpt lat="0" lon="0">
        <time>2021-02-28T10:00:06.583000+00:00</time>
      </trkpt>
      <trkpt lat="0" lon="0">
        <time>2021-02-28T10:00:06.586000+00:00</time>
      </trkpt>
      <trkpt lat="47.34528" lon="-1.40415">
        <ele>120</ele>
        <time>2021-02-28T10:00:07.574000+00:00</time>
      </trkpt>
      <trkpt lat="0" lon="0">
        <time>2021-02-28T10:00:07.590000+00:00</time>
      </trkpt>
      <trkpt lat="0" lon="0">
        <time>2021-02-28T10:00:07.595000+00:00</time>
      </trkpt>
      <trkpt lat="0" lon="0">
        <time>2021-02-28T10:00:07.597000+00:00</time>
      </trkpt>
      <trkpt lat="47.34532" lon="-1.40409">
        <ele>119</ele>
        <time>2021-02-28T10:00:08.590000+00:00</time>
      </trkpt>
      <trkpt lat="0" lon="0">
        <time>2021-02-28T10:00:08.599000+00:00</time>
      </trkpt>
      <trkpt lat="0" lon="0">
        <time>2021-02-28T10:00:08.603000+00:00</time>
      </trkpt>
      <trkpt lat="0" lon="0">
        <time>2021-02-28T10:00:08.605000+00:00</time>
      </trkpt>
      <trkpt lat="47.34537" lon="-1.40403">
        <ele>119</ele>
        <time>2021-02-28T10:00:09.558000+00:00</time>
      </trkpt>
      <trkpt lat="0" lon="0">
        <time>2021-02-28T10:00:09.565000+00:00</time>
      </trkpt>
      <trkpt lat="0" lon="0">
        <time>2021-02-28T10:00:09.569000+00:00</time>
      </trkpt>
      <trkpt lat="0" lon="0">
        <time>2021-02-28T10:00:09.571000+00:00</time>
      </trkpt>
      <trkpt lat="47.34542" lon="-1.40396">
        <ele>119</ele>
        <time>2021-02-28T10:00:10.603000+00:00</time>
      </trkpt>
      <trkpt lat="0" lon="0">
        <time>2021-02-28T10:00:10.611000+00:00</time>
      </trkpt>
      <trkpt lat="0" lon="0">
        <time>2021-02-28T10:00:10.616000+00:00</time>
      </trkpt>
      <trkpt lat="0" lon="0">
        <time>2021-02-28T10:00:10.619000+00:00</time>
      </trkpt>
      <trkpt lat="47.34546" lon="-1.4039">
        <ele>118</ele>
        <time>2021-02-28T10:00:11.571000+00:00</time>
      </trkpt>
      <trkpt lat="0" lon="0">
        <time>2021-02-28T10:00:11.577000+00:00</time>
      </trkpt>
      <trkpt lat="0" lon="0">
        <time>2021-02-28T10:00:11.583000+00:00</time>
      </trkpt>
      <trkpt lat="0" lon="0">
        <time>2021-02-28T10:00:11.585000+00:00</time>
      </trkpt>
      <trkpt lat="47.34551" lon="-1.40384">
        <ele>119</ele>
        <time>2021-02-28T10:00:12.599000+00:00</time>
      </trkpt>
      <trkpt lat="0" lon="0">
        <time>2021-02-28T10:00:12.605000+00:00</time>
      </trkpt>
      <trkpt lat="0" lon="0">
        <time>2021-02-28T10:00:12.609000+00:00</time>
      </trkpt>
      <trkpt lat="0" lon="0">
        <time>2021-02-28T10:00:12.612000+00:00</time>
      </trkpt>
      <trkpt lat="47.34555" lon="-1.40378">
        <ele>119</ele>
        <time>2021-02-28T10:00:13.616000+00:00</time>
      </trkpt>
      <trkpt lat="0" lon="0">
        <time>2021-02-28T10:00:13.629000+00:00</time>
      </trkpt>
      <trkpt lat="0" lon="0">
        <time>2021-02-28T10:00:13.640000+00:00</time>
      </trkpt>
      <trkpt lat="0" lon="0">
        <time>2021-02-28T10:00:13.642000+00:00</time>
      </trkpt>
      <trkpt lat="47.3456" lon="-1.40372">
        <ele>119</ele>
        <time>2021-02-28T10:00:14.541000+00:00</time>
      </trkpt>
      <trkpt lat="0" lon="0">
        <time>2021-02-28T10:00:14.546000+00:00</time>
      </trkpt>
      <trkpt lat="0" lon="0">
        <time>2021-02-28T10:00:14.551000+00:00</time>
      </trkpt>
      <trkpt lat="0" lon="0">
        <time>2021-02-28T10:00:14.553000+00:00</time>
      </trkpt>
      <trkpt lat="47.34564" lon="-1.40366">
        <ele>119</ele>
        <time>2021-02-28T10:00:15.600000+00:00</time>
      </trkpt>
      <trkpt lat="0" lon="0">
        <time>2021-02-28T10:00:15.606000+00:00</time>
      </trkpt>
      <trkpt lat="0" lon="0">
        <time>2021-02-28T10:00:15.613000+00:00</time>
      </trkpt>
      <trkpt lat="0" lon="0">
        <time>2021-02-28T10:00:15.615000+00:00</time>
      </trkpt>
      <trkpt lat="47.34568" lon="-1.40361">
        <ele>119</ele>
        <time>2021-02-28T10:00:16.598000+00:00</time>
      </trkpt>
      <trkpt lat="0" lon="0">
        <time>2021-02-28T10:00:16.602000+00:00</time>
      </trkpt>
      <trkpt lat="0" lon="0">
        <time>2021-02-28T10:00:16.606000+00:00</time>
      </trkpt>
      <trkpt lat="0" lon="0">
        <time>2021-02-28T10:00:16.607000+00:00</time>
      </trkpt>
      <trkpt lat="47.34572" lon="-1.40355">
        <ele>119</ele>
        <time>2021-02-28T10:00:17.505000+00:00</time>
      </trkpt>
      <trkpt lat="0" lon="0">
        <time>2021-02-28T10:00:17.512000+00:00</time>
      </trkpt>
      <trkpt lat="0" lon="0">
        <time>2021-02-28T10:00:17.517000+00:00</time>
      </trkpt>
      <trkpt lat="0" lon="0">
        <time>2021-02-28T10:00:17.519000+00:00</time>
      </trkpt>
      <trkpt lat="47.34576" lon="-1.40349">
        <ele>118</ele>
        <time>2021-02-28T10:00:18.573000+00:00</time>
      </trkpt>
      <trkpt lat="0" lon="0">
        <time>2021-02-28T10:00:18.579000+00:00</time>
      </trkpt>
      <trkpt lat="0" lon="0">
        <time>2021-02-28T10:00:18.584000+00:00</time>
      </trkpt>
      <trkpt lat="0" lon="0">
        <time>2021-02-28T10:00:18.588000+00:00</time>
      </trkpt>
      <trkpt lat="47.3458" lon="-1.40343">
        <ele>118</ele>
        <time>2021-02-28T10:00:19.539000+00:00</time>
      </trkpt>
      <trkpt lat="0" lon="0">
        <time>2021-02-28T10:00:19.549000+00:00</time>
      </trkpt>
      <trkpt lat="0" lon="0">
        <time>2021-02-28T10:00:19.553000+00:00</time>
      </trkpt>
      <trkpt lat="0" lon="0">
        <time>2021-02-28T10:00:19.556000+00:00</time>
      </trkpt>
      <trkpt lat="47.34584" lon="-1.40338">
        <ele>119</ele>
        <time>2021-02-28T10:00:20.562000+00:00</time>
      </trkpt>
      <trkpt lat="0" lon="0">
        <time>2021-02-28T10:00:20.572000+00:00</time>
      </trkpt>
      <trkpt lat="0" lon="0">
        <time>2021-02-28T10:00:20.577000+00:00</time>
      </trkpt>
      <trkpt lat="0" lon="0">
        <time>2021-02-28T10:00:20.579000+00:00</time>
      </trkpt>
      <trkpt lat="47.34588" lon="-1.40332">
        <ele>119</ele>
        <time>2021-02-28T10:00:21.564000+00:00</time>
      </trkpt>
      <trkpt lat="0" lon="0">
        <time>2021-02-28T10:00:21.578000+00:00</time>
      </trkpt>
      <trkpt lat="0" lon="0">
        <time>2021-02-28T10:00:21.582000+00:00</time>
      </trkpt>
      <trkpt lat="0" lon="0">
        <time>2021-02-28T10:00:21.584000+00:00</time>
      </trkpt>
      <trkpt lat="47.34592" lon="-1.40326">
        <ele>119</ele>
        <time>2021-02-28T10:00:22.535000+00:00</time>
      </trkpt>
      <trkpt lat="0" lon="0">
        <time>2021-02-28T10:00:22.537000+00:00</time>
      </trkpt>
      <trkpt lat="0" lon="0">
        <time>2021-02-28T10:00:22.538000+00:00</time>
      </trkpt>
      <trkpt lat="0" lon="0">
        <time>2021-02-28T10:00:22.539000+00:00</time>
      </trkpt>
      <trkpt lat="47.34596" lon="-1.40321">
        <ele>119</ele>
        <time>2021-02-28T10:00:23.554000+00:00</time>
      </trkpt>
      <trkpt lat="0" lon="0">
        <time>2021-02-28T10:00:23.566000+00:00</time>
      </trkpt>
      <trkpt lat="0" lon="0">
        <time>2021-02-28T10:00:23.571000+00:00</time>
      </trkpt>
      <trkpt lat="0" lon="0">
        <time>2021-02-28T10:00:23.573000+00:00</time>
      </trkpt>
      <trkpt lat="47.346" lon="-1.40316">
        <ele>119</ele>
        <time>2021-02-28T10:00:24.528000+00:00</time>
      </trkpt>
      <trkpt lat="0" lon="0">
        <time>2021-02-28T10:00:24.540000+00:00</time>
      </trkpt>
      <trkpt lat="0" lon="0">
        <time>2021-02-28T10:00:24.545000+00:00</time>
      </trkpt>
      <trkpt lat="0" lon="0">
        <time>2021-02-28T10:00:24.548000+00:00</time>
      </trkpt>
      <trkpt lat="47.34604" lon="-1.4031">
        <ele>119</ele>
        <time>2021-02-28T10:00:25.580000+00:00</time>
      </trkpt>
      <trkpt lat="0" lon="0">
        <time>2021-02-28T10:00:25.582000+00:00</time>
      </trkpt>
      <trkpt lat="0" lon="0">
        <time>2021-02-28T10:00:25.584000+00:00</time>
      </trkpt>
      <trkpt lat="0" lon="0">
        <time>2021-02-28T10:00:25.586000+00:00</time>
      </trkpt>
      <trkpt lat="47.34608" lon="-1.40305">
        <ele>119</ele>
        <time>2021-02-28T10:00:26.507000+00:00</time>
      </trkpt>
      <trkpt lat="0" lon="0">
        <time>2021-02-28T10:00:26.515000+00:00</time>
      </trkpt>
      <trkpt lat="0" lon="0">
        <time>2021-02-28T10:00:26.519000+00:00</time>
      </trkpt>
      <trkpt lat="0" lon="0">
        <time>2021-02-28T10:00:26.522000+00:00</time>
      </trkpt>
      <trkpt lat="47.34611" lon="-1.403">
        <ele>119</ele>
        <time>2021-02-28T10:00:27.529000+00:00</time>
      </trkpt>
      <trkpt lat="0" lon="0">
        <time>2021-02-28T10:00:27.537000+00:00</time>
      </trkpt>
      <trkpt lat="0" lon="0">
        <time>2021-02-28T10:00:27.544000+00:00</time>
      </trkpt>
      <trkpt lat="0" lon="0">
        <time>2021-02-28T10:00:27.547000+00:00</time>
      </trkpt>
      <trkpt lat="47.34615" lon="-1.40294">
        <ele>119</ele>
        <time>2021-02-28T10:00:28.550000+00:00</time>
      </trkpt>
      <trkpt lat="0" lon="0">
        <time>2021-02-28T10:00:28.561000+00:00</time>
      </trkpt>
      <trkpt lat="0" lon="0">
        <time>2021-02-28T10:00:28.568000+00:00</time>
      </trkpt>
      <trkpt lat="0" lon="0">
        <time>2021-02-28T10:00:28.570000+00:00</time>
      </trkpt>
      <trkpt lat="47.34619" lon="-1.40289">
        <ele>119</ele>
        <time>2021-02-28T10:00:29.558000+00:00</time>
      </trkpt>
      <trkpt lat="0" lon="0">
        <time>2021-02-28T10:00:29.567000+00:00</time>
      </trkpt>
      <trkpt lat="0" lon="0">
        <time>2021-02-28T10:00:29.574000+00:00</time>
      </trkpt>
      <trkpt lat="0" lon="0">
        <time>2021-02-28T10:00:29.576000+00:00</time>
      </trkpt>
      <trkpt lat="47.34622" lon="-1.40284">
        <ele>119</ele>
        <time>2021-02-28T10:00:30.576000+00:00</time>
      </trkpt>
      <trkpt lat="0" lon="0">
        <time>2021-02-28T10:00:30.588000+00:00</time>
      </trkpt>
      <trkpt lat="0" lon="0">
        <time>2021-02-28T10:00:30.594000+00:00</time>
      </trkpt>
      <trkpt lat="0" lon="0">
        <time>2021-02-28T10:00:30.597000+00:00</time>
      </trkpt>
      <trkpt lat="47.34626" lon="-1.40279">
        <ele>119</ele>
        <time>2021-02-28T10:00:31.587000+00:00</time>
      </trkpt>
      <trkpt lat="0" lon="0">
        <time>2021-02-28T10:00:31.595000+00:00</time>
      </trkpt>
      <trkpt lat="0" lon="0">
        <time>2021-02-28T10:00:31.601000+00:00</time>
      </trkpt>
      <trkpt lat="0" lon="0">
        <time>2021-02-28T10:00:31.604000+00:00</time>
      </trkpt>
      <trkpt lat="47.3463" lon="-1.40274">
        <ele>119</ele>
        <time>2021-02-28T10:00:32.574000+00:00</time>
      </trkpt>
      <trkpt lat="0" lon="0">
        <time>2021-02-28T10:00:32.584000+00:00</time>
      </trkpt>
      <trkpt lat="0" lon="0">
        <time>2021-02-28T10:00:32.589000+00:00</time>
      </trkpt>
      <trkpt lat="0" lon="0">
        <time>2021-02-28T10:00:32.592000+00:00</time>
      </trkpt>
      <trkpt lat="47.34633" lon="-1.40269">
        <ele>119</ele>
        <time>2021-02-28T10:00:33.593000+00:00</time>
      </trkpt>
      <trkpt lat="0" lon="0">
        <time>2021-02-28T10:00:33.602000+00:00</time>
      </trkpt>
      <trkpt lat="0" lon="0">
        <time>2021-02-28T10:00:33.608000+00:00</time>
      </trkpt>
      <trkpt lat="0" lon="0">
        <time>2021-02-28T10:00:33.611000+00:00</time>
      </trkpt>
      <trkpt lat="47.34637" lon="-1.40265">
        <ele>119</ele>
        <time>2021-02-28T10:00:34.539000+00:00</time>
      </trkpt>
      <trkpt lat="0" lon="0">
        <time>2021-02-28T10:00:34.551000+00:00</time>
      </trkpt>
      <trkpt lat="0" lon="0">
        <time>2021-02-28T10:00:34.555000+00:00</time>
      </trkpt>
      <trkpt lat="0" lon="0">
        <time>2021-02-28T10:00:34.557000+00:00</time>
      </trkpt>
      <trkpt lat="47.3464" lon="-1.4026">
        <ele>119</ele>
        <time>2021-02-28T10:00:35.549000+00:00</time>
      </trkpt>
      <trkpt lat="0" lon="0">
        <time>2021-02-28T10:00:35.554000+00:00</time>
      </trkpt>
      <trkpt lat="0" lon="0">
        <time>2021-02-28T10:00:35.558000+00:00</time>
      </trkpt>
      <trkpt lat="0" lon="0">
        <time>2021-02-28T10:00:35.560000+00:00</time>
      </trkpt>
      <trkpt lat="47.34644" lon="-1.40256">
        <ele>119</ele>
        <time>2021-02-28T10:00:36.566000+00:00</time>
      </trkpt>
      <trkpt lat="0" lon="0">
        <time>2021-02-28T10:00:36.583000+00:00</time>
      </trkpt>
      <trkpt lat="0" lon="0">
        <time>2021-02-28T10:00:36.589000+00:00</time>
      </trkpt>
      <trkpt lat="0" lon="0">
        <time>2021-02-28T10:00:36.592000+00:00</time>
      </trkpt>
      <trkpt lat="47.34647" lon="-1.40251">
        <ele>119</ele>
        <time>2021-02-28T10:00:37.603000+00:00</time>
      </trkpt>
      <trkpt lat="0" lon="0">
        <time>2021-02-28T10:00:37.619000+00:00</time>
      </trkpt>
      <trkpt lat="0" lon="0">
        <time>2021-02-28T10:00:37.626000+00:00</time>
      </trkpt>
      <trkpt lat="0" lon="0">
        <time>2021-02-28T10:00:37.631000+00:00</time>
      </trkpt>
      <trkpt lat="47.3465" lon="-1.40247">
        <ele>119</ele>
        <time>2021-02-28T10:00:38.578000+00:00</time>
      </trkpt>
      <trkpt lat="0" lon="0">
        <time>2021-02-28T10:00:38.589000+00:00</time>
      </trkpt>
      <trkpt lat="0" lon="0">
        <time>2021-02-28T10:00:38.594000+00:00</time>
      </trkpt>
      <trkpt lat="0" lon="0">
        <time>2021-02-28T10:00:38.597000+00:00</time>
      </trkpt>
      <trkpt lat="47.34652" lon="-1.40243">
        <ele>119</ele>
        <time>2021-02-28T10:00:39.535000+00:00</time>
      </trkpt>
      <trkpt lat="0" lon="0">
        <time>2021-02-28T10:00:39.541000+00:00</time>
      </trkpt>
      <trkpt lat="0" lon="0">
        <time>2021-02-28T10:00:39.545000+00:00</time>
      </trkpt>
      <trkpt lat="0" lon="0">
        <time>2021-02-28T10:00:39.547000+00:00</time>
      </trkpt>
      <trkpt lat="47.34654" lon="-1.40238">
        <ele>119</ele>
        <time>2021-02-28T10:00:40.555000+00:00</time>
      </trkpt>
      <trkpt lat="0" lon="0">
        <time>2021-02-28T10:00:40.562000+00:00</time>
      </trkpt>
      <trkpt lat="0" lon="0">
        <time>2021-02-28T10:00:40.568000+00:00</time>
      </trkpt>
      <trkpt lat="0" lon="0">
        <time>2021-02-28T10:00:40.572000+00:00</time>
      </trkpt>
      <trkpt lat="47.34653" lon="-1.40234">
        <ele>119</ele>
        <time>2021-02-28T10:00:41.536000+00:00</time>
      </trkpt>
      <trkpt lat="0" lon="0">
        <time>2021-02-28T10:00:41.547000+00:00</time>
      </trkpt>
      <trkpt lat="0" lon="0">
        <time>2021-02-28T10:00:41.554000+00:00</time>
      </trkpt>
      <trkpt lat="0" lon="0">
        <time>2021-02-28T10:00:41.557000+00:00</time>
      </trkpt>
      <trkpt lat="47.34651" lon="-1.40231">
        <ele>119</ele>
        <time>2021-02-28T10:00:42.558000+00:00</time>
      </trkpt>
      <trkpt lat="0" lon="0">
        <time>2021-02-28T10:00:42.569000+00:00</time>
      </trkpt>
      <trkpt lat="0" lon="0">
        <time>2021-02-28T10:00:42.577000+00:00</time>
      </trkpt>
      <trkpt lat="0" lon="0">
        <time>2021-02-28T10:00:42.582000+00:00</time>
      </trkpt>
      <trkpt lat="47.34649" lon="-1.40229">
        <ele>119</ele>
        <time>2021-02-28T10:00:43.590000+00:00</time>
      </trkpt>
      <trkpt lat="0" lon="0">
        <time>2021-02-28T10:00:43.604000+00:00</time>
      </trkpt>
      <trkpt lat="0" lon="0">
        <time>2021-02-28T10:00:43.610000+00:00</time>
      </trkpt>
      <trkpt lat="0" lon="0">
        <time>2021-02-28T10:00:43.614000+00:00</time>
      </trkpt>
      <trkpt lat="47.34645" lon="-1.40228">
        <ele>119</ele>
        <time>2021-02-28T10:00:44.589000+00:00</time>
      </trkpt>
      <trkpt lat="0" lon="0">
        <time>2021-02-28T10:00:44.596000+00:00</time>
      </trkpt>
      <trkpt lat="0" lon="0">
        <time>2021-02-28T10:00:44.600000+00:00</time>
      </trkpt>
      <trkpt lat="0" lon="0">
        <time>2021-02-28T10:00:44.604000+00:00</time>
      </trkpt>
      <trkpt lat="47.3464" lon="-1.40227">
        <ele>120</ele>
        <time>2021-02-28T10:00:45.585000+00:00</time>
      </trkpt>
      <trkpt lat="0" lon="0">
        <time>2021-02-28T10:00:45.589000+00:00</time>
      </trkpt>
      <trkpt lat="0" lon="0">
        <time>2021-02-28T10:00:45.593000+00:00</time>
      </trkpt>
      <trkpt lat="0" lon="0">
        <time>2021-02-28T10:00:45.596000+00:00</time>
      </trkpt>
      <trkpt lat="47.34635" lon="-1.40227">
        <ele>120</ele>
        <time>2021-02-28T10:00:46.598000+00:00</time>
      </trkpt>
      <trkpt lat="0" lon="0">
        <time>2021-02-28T10:00:46.604000+00:00</time>
      </trkpt>
      <trkpt lat="0" lon="0">
        <time>2021-02-28T10:00:46.608000+00:00</time>
      </trkpt>
      <trkpt lat="0" lon="0">
        <time>2021-02-28T10:00:46.611000+00:00</time>
      </trkpt>
      <trkpt lat="47.34629" lon="-1.40226">
        <ele>120</ele>
        <time>2021-02-28T10:00:47.616000+00:00</time>
      </trkpt>
      <trkpt lat="0" lon="0">
        <time>2021-02-28T10:00:47.630000+00:00</time>
      </trkpt>
      <trkpt lat="0" lon="0">
        <time>2021-02-28T10:00:47.637000+00:00</time>
      </trkpt>
      <trkpt lat="0" lon="0">
        <time>2021-02-28T10:00:47.641000+00:00</time>
      </trkpt>
      <trkpt lat="47.34622" lon="-1.40226">
        <ele>119</ele>
        <time>2021-02-28T10:00:48.573000+00:00</time>
      </trkpt>
      <trkpt lat="0" lon="0">
        <time>2021-02-28T10:00:48.582000+00:00</time>
      </trkpt>
      <trkpt lat="0" lon="0">
        <time>2021-02-28T10:00:48.589000+00:00</time>
      </trkpt>
      <trkpt lat="0" lon="0">
        <time>2021-02-28T10:00:48.591000+00:00</time>
      </trkpt>
      <trkpt lat="47.34616" lon="-1.40226">
        <ele>119</ele>
        <time>2021-02-28T10:00:49.581000+00:00</time>
      </trkpt>
      <trkpt lat="0" lon="0">
        <time>2021-02-28T10:00:49.592000+00:00</time>
      </trkpt>
      <trkpt lat="0" lon="0">
        <time>2021-02-28T10:00:49.596000+00:00</time>
      </trkpt>
      <trkpt lat="0" lon="0">
        <time>2021-02-28T10:00:49.598000+00:00</time>
      </trkpt>
      <trkpt lat="47.34608" lon="-1.40226">
        <ele>119</ele>
        <time>2021-02-28T10:00:50.561000+00:00</time>
      </trkpt>
      <trkpt lat="0" lon="0">
        <time>2021-02-28T10:00:50.565000+00:00</time>
      </trkpt>
      <trkpt lat="0" lon="0">
        <time>2021-02-28T10:00:50.570000+00:00</time>
      </trkpt>
      <trkpt lat="0" lon="0">
        <time>2021-02-28T10:00:50.572000+00:00</time>
      </trkpt>
      <trkpt lat="47.34601" lon="-1.40226">
        <ele>118</ele>
        <time>2021-02-28T10:00:51.609000+00:00</time>
      </trkpt>
      <trkpt lat="0" lon="0">
        <time>2021-02-28T10:00:51.618000+00:00</time>
      </trkpt>
      <trkpt lat="0" lon="0">
        <time>2021-02-28T10:00:51.623000+00:00</time>
      </trkpt>
      <trkpt lat="0" lon="0">
        <time>2021-02-28T10:00:51.627000+00:00</time>
      </trkpt>
      <trkpt lat="47.34593" lon="-1.40226">
        <ele>118</ele>
        <time>2021-02-28T10:00:52.570000+00:00</time>
      </trkpt>
      <trkpt lat="0" lon="0">
        <time>2021-02-28T10:00:52.574000+00:00</time>
      </trkpt>
      <trkpt lat="0" lon="0">
        <time>2021-02-28T10:00:52.578000+00:00</time>
      </trkpt>
      <trkpt lat="0" lon="0">
        <time>2021-02-28T10:00:52.580000+00:00</time>
      </trkpt>
      <trkpt lat="47.34585" lon="-1.40226">
        <ele>118</ele>
        <time>2021-02-28T10:00:53.584000+00:00</time>
      </trkpt>
      <trkpt lat="0" lon="0">
        <time>2021-02-28T10:00:53.596000+00:00</time>
      </trkpt>
      <trkpt lat="0" lon="0">
        <time>2021-02-28T10:00:53.605000+00:00</time>
      </trkpt>
      <trkpt lat="0" lon="0">
        <time>2021-02-28T10:00:53.609000+00:00</time>
      </trkpt>
      <trkpt lat="47.34578" lon="-1.40227">
        <ele>117</ele>
        <time>2021-02-28T10:00:54.477000+00:00</time>
      </trkpt>
      <trkpt lat="0" lon="0">
        <time>2021-02-28T10:00:54.483000+00:00</time>
      </trkpt>
      <trkpt lat="0" lon="0">
        <time>2021-02-28T10:00:54.485000+00:00</time>
      </trkpt>
      <trkpt lat="0" lon="0">
        <time>2021-02-28T10:00:54.486000+00:00</time>
      </trkpt>
      <trkpt lat="47.3457" lon="-1.40227">
        <ele>117</ele>
        <time>2021-02-28T10:00:55.503000+00:00</time>
      </trkpt>
      <trkpt lat="0" lon="0">
        <time>2021-02-28T10:00:55.509000+00:00</time>
      </trkpt>
      <trkpt lat="0" lon="0">
        <time>2021-02-28T10:00:55.511000+00:00</time>
      </trkpt>
      <trkpt lat="0" lon="0">
        <time>2021-02-28T10:00:55.513000+00:00</time>
      </trkpt>
      <trkpt lat="47.34563" lon="-1.40228">
        <ele>117</ele>
        <time>2021-02-28T10:00:56.583000+00:00</time>
      </trkpt>
      <trkpt lat="0" lon="0">
        <time>2021-02-28T10:00:56.592000+00:00</time>
      </trkpt>
      <trkpt lat="0" lon="0">
        <time>2021-02-28T10:00:56.597000+00:00</time>
      </trkpt>
      <trkpt lat="0" lon="0">
        <time>2021-02-28T10:00:56.600000+00:00</time>
      </trkpt>
      <trkpt lat="47.34555" lon="-1.4023">
        <ele>117</ele>
        <time>2021-02-28T10:00:57.577000+00:00</time>
      </trkpt>
      <trkpt lat="0" lon="0">
        <time>2021-02-28T10:00:57.582000+00:00</time>
      </trkpt>
      <trkpt lat="0" lon="0">
        <time>2021-02-28T10:00:57.587000+00:00</time>
      </trkpt>
      <trkpt lat="0" lon="0">
        <time>2021-02-28T10:00:57.589000+00:00</time>
      </trkpt>
      <trkpt lat="47.34548" lon="-1.40232">
        <ele>117</ele>
        <time>2021-02-28T10:00:58.578000+00:00</time>
      </trkpt>
      <trkpt lat="0" lon="0">
        <time>2021-02-28T10:00:58.585000+00:00</time>
      </trkpt>
      <trkpt lat="0" lon="0">
        <time>2021-02-28T10:00:58.591000+00:00</time>
      </trkpt>
      <trkpt lat="0" lon="0">
        <time>2021-02-28T10:00:58.594000+00:00</time>
      </trkpt>
      <trkpt lat="47.34541" lon="-1.40235">
        <ele>117</ele>
        <time>2021-02-28T10:00:59.588000+00:00</time>
      </trkpt>
      <trkpt lat="0" lon="0">
        <time>2021-02-28T10:00:59.597000+00:00</time>
      </trkpt>
      <trkpt lat="0" lon="0">
        <time>2021-02-28T10:00:59.602000+00:00</time>
      </trkpt>
      <trkpt lat="0" lon="0">
        <time>2021-02-28T10:00:59.605000+00:00</time>
      </trkpt>
      <trkpt lat="47.34535" lon="-1.40238">
        <ele>117</ele>
        <time>2021-02-28T10:01:00.595000+00:00</time>
      </trkpt>
      <trkpt lat="0" lon="0">
        <time>2021-02-28T10:01:00.602000+00:00</time>
      </trkpt>
      <trkpt lat="0" lon="0">
        <time>2021-02-28T10:01:00.607000+00:00</time>
      </trkpt>
      <trkpt lat="0" lon="0">
        <time>2021-02-28T10:01:00.611000+00:00</time>
      </trkpt>
      <trkpt lat="47.34529" lon="-1.40242">
        <ele>117</ele>
        <time>2021-02-28T10:01:01.583000+00:00</time>
      </trkpt>
      <trkpt lat="0" lon="0">
        <time>2021-02-28T10:01:01.590000+00:00</time>
      </trkpt>
      <trkpt lat="0" lon="0">
        <time>2021-02-28T10:01:01.595000+00:00</time>
      </trkpt>
      <trkpt lat="0" lon="0">
        <time>2021-02-28T10:01:01.597000+00:00</time>
      </trkpt>
      <trkpt lat="47.34523" lon="-1.40247">
        <ele>117</ele>
        <time>2021-02-28T10:01:02.597000+00:00</time>
      </trkpt>
      <trkpt lat="0" lon="0">
        <time>2021-02-28T10:01:02.603000+00:00</time>
      </trkpt>
      <trkpt lat="0" lon="0">
        <time>2021-02-28T10:01:02.608000+00:00</time>
      </trkpt>
      <trkpt lat="0" lon="0">
        <time>2021-02-28T10:01:02.611000+00:00</time>
      </trkpt>
      <trkpt lat="47.34518" lon="-1.40252">
        <ele>117</ele>
        <time>2021-02-28T10:01:03.620000+00:00</time>
      </trkpt>
      <trkpt lat="0" lon="0">
        <time>2021-02-28T10:01:03.629000+00:00</time>
      </trkpt>
      <trkpt lat="0" lon="0">
        <time>2021-02-28T10:01:03.633000+00:00</time>
      </trkpt>
      <trkpt lat="0" lon="0">
        <time>2021-02-28T10:01:03.636000+00:00</time>
      </trkpt>
      <trkpt lat="47.34513" lon="-1.40257">
        <ele>117</ele>
        <time>2021-02-28T10:01:04.595000+00:00</time>
      </trkpt>
      <trkpt lat="0" lon="0">
        <time>2021-02-28T10:01:04.605000+00:00</time>
      </trkpt>
      <trkpt lat="0" lon="0">
        <time>2021-02-28T10:01:04.610000+00:00</time>
      </trkpt>
      <trkpt lat="0" lon="0">
        <time>2021-02-28T10:01:04.613000+00:00</time>
      </trkpt>
      <trkpt lat="47.34509" lon="-1.40263">
        <ele>117</ele>
        <time>2021-02-28T10:01:05.614000+00:00</time>
      </trkpt>
      <trkpt lat="0" lon="0">
        <time>2021-02-28T10:01:05.620000+00:00</time>
      </trkpt>
      <trkpt lat="0" lon="0">
        <time>2021-02-28T10:01:05.625000+00:00</time>
      </trkpt>
      <trkpt lat="0" lon="0">
        <time>2021-02-28T10:01:05.630000+00:00</time>
      </trkpt>
      <trkpt lat="47.34504" lon="-1.40268">
        <ele>117</ele>
        <time>2021-02-28T10:01:06.595000+00:00</time>
      </trkpt>
      <trkpt lat="0" lon="0">
        <time>2021-02-28T10:01:06.604000+00:00</time>
      </trkpt>
      <trkpt lat="0" lon="0">
        <time>2021-02-28T10:01:06.609000+00:00</time>
      </trkpt>
      <trkpt lat="0" lon="0">
        <time>2021-02-28T10:01:06.611000+00:00</time>
      </trkpt>
      <trkpt lat="47.345" lon="-1.40274">
        <ele>117</ele>
        <time>2021-02-28T10:01:07.568000+00:00</time>
      </trkpt>
      <trkpt lat="0" lon="0">
        <time>2021-02-28T10:01:07.575000+00:00</time>
      </trkpt>
      <trkpt lat="0" lon="0">
        <time>2021-02-28T10:01:07.582000+00:00</time>
      </trkpt>
      <trkpt lat="0" lon="0">
        <time>2021-02-28T10:01:07.585000+00:00</time>
      </trkpt>
      <trkpt lat="47.34496" lon="-1.4028">
        <ele>117</ele>
        <time>2021-02-28T10:01:08.583000+00:00</time>
      </trkpt>
      <trkpt lat="0" lon="0">
        <time>2021-02-28T10:01:08.599000+00:00</time>
      </trkpt>
      <trkpt lat="0" lon="0">
        <time>2021-02-28T10:01:08.604000+00:00</time>
      </trkpt>
      <trkpt lat="0" lon="0">
        <time>2021-02-28T10:01:08.607000+00:00</time>
      </trkpt>
      <trkpt lat="47.34492" lon="-1.40287">
        <ele>117</ele>
        <time>2021-02-28T10:01:09.544000+00:00</time>
      </trkpt>
      <trkpt lat="0" lon="0">
        <time>2021-02-28T10:01:09.550000+00:00</time>
      </trkpt>
      <trkpt lat="0" lon="0">
        <time>2021-02-28T10:01:09.557000+00:00</time>
      </trkpt>
      <trkpt lat="0" lon="0">
        <time>2021-02-28T10:01:09.559000+00:00</time>
      </trkpt>
      <trkpt lat="47.34488" lon="-1.40292">
        <ele>117</ele>
        <time>2021-02-28T10:01:10.497000+00:00</time>
      </trkpt>
      <trkpt lat="0" lon="0">
        <time>2021-02-28T10:01:10.506000+00:00</time>
      </trkpt>
      <trkpt lat="0" lon="0">
        <time>2021-02-28T10:01:10.508000+00:00</time>
      </trkpt>
      <trkpt lat="0" lon="0">
        <time>2021-02-28T10:01:10.510000+00:00</time>
      </trkpt>
      <trkpt lat="47.34483" lon="-1.40298">
        <ele>117</ele>
        <time>2021-02-28T10:01:11.578000+00:00</time>
      </trkpt>
      <trkpt lat="0" lon="0">
        <time>2021-02-28T10:01:11.583000+00:00</time>
      </trkpt>
      <trkpt lat="0" lon="0">
        <time>2021-02-28T10:01:11.588000+00:00</time>
      </trkpt>
      <trkpt lat="0" lon="0">
        <time>2021-02-28T10:01:11.591000+00:00</time>
      </trkpt>
      <trkpt lat="47.34479" lon="-1.40304">
        <ele>117</ele>
        <time>2021-02-28T10:01:12.592000+00:00</time>
      </trkpt>
      <trkpt lat="0" lon="0">
        <time>2021-02-28T10:01:12.600000+00:00</time>
      </trkpt>
      <trkpt lat="0" lon="0">
        <time>2021-02-28T10:01:12.604000+00:00</time>
      </trkpt>
      <trkpt lat="0" lon="0">
        <time>2021-02-28T10:01:12.607000+00:00</time>
      </trkpt>
      <trkpt lat="47.34475" lon="-1.40309">
        <ele>117</ele>
        <time>2021-02-28T10:01:13.589000+00:00</time>
      </trkpt>
      <trkpt lat="0" lon="0">
        <time>2021-02-28T10:01:13.595000+00:00</time>
      </trkpt>
      <trkpt lat="0" lon="0">
        <time>2021-02-28T10:01:13.599000+00:00</time>
      </trkpt>
      <trkpt lat="0" lon="0">
        <time>2021-02-28T10:01:13.603000+00:00</time>
      </trkpt>
      <trkpt lat="47.34471" lon="-1.40314">
        <ele>117</ele>
        <time>2021-02-28T10:01:14.570000+00:00</time>
      </trkpt>
      <trkpt lat="0" lon="0">
        <time>2021-02-28T10:01:14.583000+00:00</time>
      </trkpt>
      <trkpt lat="0" lon="0">
        <time>2021-02-28T10:01:14.589000+00:00</time>
      </trkpt>
      <trkpt lat="0" lon="0">
        <time>2021-02-28T10:01:14.591000+00:00</time>
      </trkpt>
      <trkpt lat="47.34467" lon="-1.40319">
        <ele>117</ele>
        <time>2021-02-28T10:01:15.575000+00:00</time>
      </trkpt>
      <trkpt lat="0" lon="0">
        <time>2021-02-28T10:01:15.581000+00:00</time>
      </trkpt>
      <trkpt lat="0" lon="0">
        <time>2021-02-28T10:01:15.587000+00:00</time>
      </trkpt>
      <trkpt lat="0" lon="0">
        <time>2021-02-28T10:01:15.590000+00:00</time>
      </trkpt>
      <trkpt lat="47.34462" lon="-1.40324">
        <ele>118</ele>
        <time>2021-02-28T10:01:16.605000+00:00</time>
      </trkpt>
      <trkpt lat="0" lon="0">
        <time>2021-02-28T10:01:16.617000+00:00</time>
      </trkpt>
      <trkpt lat="0" lon="0">
        <time>2021-02-28T10:01:16.628000+00:00</time>
      </trkpt>
      <trkpt lat="0" lon="0">
        <time>2021-02-28T10:01:16.632000+00:00</time>
      </trkpt>
      <trkpt lat="47.34457" lon="-1.40328">
        <ele>118</ele>
        <time>2021-02-28T10:01:17.589000+00:00</time>
      </trkpt>
      <trkpt lat="0" lon="0">
        <time>2021-02-28T10:01:17.600000+00:00</time>
      </trkpt>
      <trkpt lat="0" lon="0">
        <time>2021-02-28T10:01:17.606000+00:00</time>
      </trkpt>
      <trkpt lat="0" lon="0">
        <time>2021-02-28T10:01:17.609000+00:00</time>
      </trkpt>
      <trkpt lat="47.34452" lon="-1.40332">
        <ele>117</ele>
        <time>2021-02-28T10:01:18.589000+00:00</time>
      </trkpt>
      <trkpt lat="0" lon="0">
        <time>2021-02-28T10:01:18.594000+00:00</time>
      </trkpt>
      <trkpt lat="0" lon="0">
        <time>2021-02-28T10:01:18.597000+00:00</time>
      </trkpt>
      <trkpt lat="0" lon="0">
        <time>2021-02-28T10:01:18.600000+00:00</time>
      </trkpt>
      <trkpt lat="47.34446" lon="-1.40336">
        <ele>118</ele>
        <time>2021-02-28T10:01:19.632000+00:00</time>
      </trkpt>
      <trkpt lat="0" lon="0">
        <time>2021-02-28T10:01:19.637000+00:00</time>
      </trkpt>
      <trkpt lat="0" lon="0">
        <time>2021-02-28T10:01:19.644000+00:00</time>
      </trkpt>
      <trkpt lat="0" lon="0">
        <time>2021-02-28T10:01:19.646000+00:00</time>
      </trkpt>
      <trkpt lat="47.34441" lon="-1.40339">
        <ele>118</ele>
        <time>2021-02-28T10:01:20.564000+00:00</time>
      </trkpt>
      <trkpt lat="0" lon="0">
        <time>2021-02-28T10:01:20.571000+00:00</time>
      </trkpt>
      <trkpt lat="0" lon="0">
        <time>2021-02-28T10:01:20.575000+00:00</time>
      </trkpt>
      <trkpt lat="0" lon="0">
        <time>2021-02-28T10:01:20.577000+00:00</time>
      </trkpt>
      <trkpt lat="47.34435" lon="-1.40342">
        <ele>118</ele>
        <time>2021-02-28T10:01:21.592000+00:00</time>
      </trkpt>
      <trkpt lat="0" lon="0">
        <time>2021-02-28T10:01:21.608000+00:00</time>
      </trkpt>
      <trkpt lat="0" lon="0">
        <time>2021-02-28T10:01:21.616000+00:00</time>
      </trkpt>
      <trkpt lat="0" lon="0">
        <time>2021-02-28T10:01:21.620000+00:00</time>
      </trkpt>
      <trkpt lat="47.3443" lon="-1.40345">
        <ele>117</ele>
        <time>2021-02-28T10:01:22.565000+00:00</time>
      </trkpt>
      <trkpt lat="0" lon="0">
        <time>2021-02-28T10:01:22.574000+00:00</time>
      </trkpt>
      <trkpt lat="0" lon="0">
        <time>2021-02-28T10:01:22.579000+00:00</time>
      </trkpt>
      <trkpt lat="0" lon="0">
        <time>2021-02-28T10:01:22.581000+00:00</time>
      </trkpt>
      <trkpt lat="47.34424" lon="-1.40348">
        <ele>118</ele>
        <time>2021-02-28T10:01:23.574000+00:00</time>
      </trkpt>
      <trkpt lat="0" lon="0">
        <time>2021-02-28T10:01:23.581000+00:00</time>
      </trkpt>
      <trkpt lat="0" lon="0">
        <time>2021-02-28T10:01:23.587000+00:00</time>
      </trkpt>
      <trkpt lat="0" lon="0">
        <time>2021-02-28T10:01:23.589000+00:00</time>
      </trkpt>
      <trkpt lat="47.34418" lon="-1.40351">
        <ele>118</ele>
        <time>2021-02-28T10:01:24.586000+00:00</time>
      </trkpt>
      <trkpt lat="0" lon="0">
        <time>2021-02-28T10:01:24.596000+00:00</time>
      </trkpt>
      <trkpt lat="0" lon="0">
        <time>2021-02-28T10:01:24.601000+00:00</time>
      </trkpt>
      <trkpt lat="0" lon="0">
        <time>2021-02-28T10:01:24.603000+00:00</time>
      </trkpt>
      <trkpt lat="47.34412" lon="-1.40353">
        <ele>118</ele>
        <time>2021-02-28T10:01:25.588000+00:00</time>
      </trkpt>
      <trkpt lat="0" lon="0">
        <time>2021-02-28T10:01:25.602000+00:00</time>
      </trkpt>
      <trkpt lat="0" lon="0">
        <time>2021-02-28T10:01:25.611000+00:00</time>
      </trkpt>
      <trkpt lat="0" lon="0">
        <time>2021-02-28T10:01:25.613000+00:00</time>
      </trkpt>
      <trkpt lat="47.34406" lon="-1.40356">
        <ele>119</ele>
        <time>2021-02-28T10:01:26.618000+00:00</time>
      </trkpt>
      <trkpt lat="0" lon="0">
        <time>2021-02-28T10:01:26.629000+00:00</time>
      </trkpt>
      <trkpt lat="0" lon="0">
        <time>2021-02-28T10:01:26.638000+00:00</time>
      </trkpt>
      <trkpt lat="0" lon="0">
        <time>2021-02-28T10:01:26.642000+00:00</time>
      </trkpt>
      <trkpt lat="47.344" lon="-1.40358">
        <ele>119</ele>
        <time>2021-02-28T10:01:27.585000+00:00</time>
      </trkpt>
      <trkpt lat="0" lon="0">
        <time>2021-02-28T10:01:27.599000+00:00</time>
      </trkpt>
      <trkpt lat="0" lon="0">
        <time>2021-02-28T10:01:27.604000+00:00</time>
      </trkpt>
      <trkpt lat="0" lon="0">
        <time>2021-02-28T10:01:27.606000+00:00</time>
      </trkpt>
      <trkpt lat="47.34394" lon="-1.4036">
        <ele>119</ele>
        <time>2021-02-28T10:01:28.589000+00:00</time>
      </trkpt>
      <trkpt lat="0" lon="0">
        <time>2021-02-28T10:01:28.596000+00:00</time>
      </trkpt>
      <trkpt lat="0" lon="0">
        <time>2021-02-28T10:01:28.602000+00:00</time>
      </trkpt>
      <trkpt lat="0" lon="0">
        <time>2021-02-28T10:01:28.605000+00:00</time>
      </trkpt>
      <trkpt lat="47.34388" lon="-1.40362">
        <ele>119</ele>
        <time>2021-02-28T10:01:29.601000+00:00</time>
      </trkpt>
      <trkpt lat="0" lon="0">
        <time>2021-02-28T10:01:29.609000+00:00</time>
      </trkpt>
      <trkpt lat="0" lon="0">
        <time>2021-02-28T10:01:29.616000+00:00</time>
      </trkpt>
      <trkpt lat="0" lon="0">
        <time>2021-02-28T10:01:29.619000+00:00</time>
      </trkpt>
      <trkpt lat="47.34383" lon="-1.40364">
        <ele>119</ele>
        <time>2021-02-28T10:01:30.625000+00:00</time>
      </trkpt>
      <trkpt lat="0" lon="0">
        <time>2021-02-28T10:01:30.631000+00:00</time>
      </trkpt>
      <trkpt lat="0" lon="0">
        <time>2021-02-28T10:01:30.635000+00:00</time>
      </trkpt>
      <trkpt lat="0" lon="0">
        <time>2021-02-28T10:01:30.637000+00:00</time>
      </trkpt>
      <trkpt lat="47.34377" lon="-1.40366">
        <ele>120</ele>
        <time>2021-02-28T10:01:31.590000+00:00</time>
      </trkpt>
      <trkpt lat="0" lon="0">
        <time>2021-02-28T10:01:31.596000+00:00</time>
      </trkpt>
      <trkpt lat="0" lon="0">
        <time>2021-02-28T10:01:31.600000+00:00</time>
      </trkpt>
      <trkpt lat="0" lon="0">
        <time>2021-02-28T10:01:31.603000+00:00</time>
      </trkpt>
      <trkpt lat="47.34371" lon="-1.40368">
        <ele>120</ele>
        <time>2021-02-28T10:01:32.592000+00:00</time>
      </trkpt>
      <trkpt lat="0" lon="0">
        <time>2021-02-28T10:01:32.600000+00:00</time>
      </trkpt>
      <trkpt lat="0" lon="0">
        <time>2021-02-28T10:01:32.605000+00:00</time>
      </trkpt>
      <trkpt lat="0" lon="0">
        <time>2021-02-28T10:01:32.608000+00:00</time>
      </trkpt>
      <trkpt lat="47.34365" lon="-1.4037">
        <ele>121</ele>
        <time>2021-02-28T10:01:33.569000+00:00</time>
      </trkpt>
      <trkpt lat="0" lon="0">
        <time>2021-02-28T10:01:33.578000+00:00</time>
      </trkpt>
      <trkpt lat="0" lon="0">
        <time>2021-02-28T10:01:33.583000+00:00</time>
      </trkpt>
      <trkpt lat="0" lon="0">
        <time>2021-02-28T10:01:33.585000+00:00</time>
      </trkpt>
      <trkpt lat="47.3436" lon="-1.40372">
        <ele>121</ele>
        <time>2021-02-28T10:01:34.588000+00:00</time>
      </trkpt>
      <trkpt lat="0" lon="0">
        <time>2021-02-28T10:01:34.594000+00:00</time>
      </trkpt>
      <trkpt lat="0" lon="0">
        <time>2021-02-28T10:01:34.598000+00:00</time>
      </trkpt>
      <trkpt lat="0" lon="0">
        <time>2021-02-28T10:01:34.600000+00:00</time>
      </trkpt>
      <trkpt lat="47.34354" lon="-1.40374">
        <ele>121</ele>
        <time>2021-02-28T10:01:35.565000+00:00</time>
      </trkpt>
      <trkpt lat="0" lon="0">
        <time>2021-02-28T10:01:35.575000+00:00</time>
      </trkpt>
      <trkpt lat="0" lon="0">
        <time>2021-02-28T10:01:35.579000+00:00</time>
      </trkpt>
      <trkpt lat="0" lon="0">
        <time>2021-02-28T10:01:35.582000+00:00</time>
      </trkpt>
      <trkpt lat="47.34349" lon="-1.40376">
        <ele>121</ele>
        <time>2021-02-28T10:01:36.570000+00:00</time>
      </trkpt>
      <trkpt lat="0" lon="0">
        <time>2021-02-28T10:01:36.577000+00:00</time>
      </trkpt>
      <trkpt lat="0" lon="0">
        <time>2021-02-28T10:01:36.582000+00:00</time>
      </trkpt>
      <trkpt lat="0" lon="0">
        <time>2021-02-28T10:01:36.585000+00:00</time>
      </trkpt>
      <trkpt lat="47.34343" lon="-1.40378">
        <ele>122</ele>
        <time>2021-02-28T10:01:37.583000+00:00</time>
      </trkpt>
      <trkpt lat="0" lon="0">
        <time>2021-02-28T10:01:37.588000+00:00</time>
      </trkpt>
      <trkpt lat="0" lon="0">
        <time>2021-02-28T10:01:37.592000+00:00</time>
      </trkpt>
      <trkpt lat="0" lon="0">
        <time>2021-02-28T10:01:37.595000+00:00</time>
      </trkpt>
      <trkpt lat="47.34338" lon="-1.40379">
        <ele>122</ele>
        <time>2021-02-28T10:01:38.591000+00:00</time>
      </trkpt>
      <trkpt lat="0" lon="0">
        <time>2021-02-28T10:01:38.596000+00:00</time>
      </trkpt>
      <trkpt lat="0" lon="0">
        <time>2021-02-28T10:01:38.601000+00:00</time>
      </trkpt>
      <trkpt lat="0" lon="0">
        <time>2021-02-28T10:01:38.604000+00:00</time>
      </trkpt>
      <trkpt lat="47.34333" lon="-1.40381">
        <ele>123</ele>
        <time>2021-02-28T10:01:39.598000+00:00</time>
      </trkpt>
      <trkpt lat="0" lon="0">
        <time>2021-02-28T10:01:39.604000+00:00</time>
      </trkpt>
      <trkpt lat="0" lon="0">
        <time>2021-02-28T10:01:39.614000+00:00</time>
      </trkpt>
      <trkpt lat="0" lon="0">
        <time>2021-02-28T10:01:39.616000+00:00</time>
      </trkpt>
      <trkpt lat="47.34328" lon="-1.40382">
        <ele>123</ele>
        <time>2021-02-28T10:01:40.549000+00:00</time>
      </trkpt>
      <trkpt lat="0" lon="0">
        <time>2021-02-28T10:01:40.559000+00:00</time>
      </trkpt>
      <trkpt lat="0" lon="0">
        <time>2021-02-28T10:01:40.563000+00:00</time>
      </trkpt>
      <trkpt lat="0" lon="0">
        <time>2021-02-28T10:01:40.565000+00:00</time>
      </trkpt>
      <trkpt lat="47.34323" lon="-1.40384">
        <ele>123</ele>
        <time>2021-02-28T10:01:41.525000+00:00</time>
      </trkpt>
      <trkpt lat="0" lon="0">
        <time>2021-02-28T10:01:41.533000+00:00</time>
      </trkpt>
      <trkpt lat="0" lon="0">
        <time>2021-02-28T10:01:41.539000+00:00</time>
      </trkpt>
      <trkpt lat="0" lon="0">
        <time>2021-02-28T10:01:41.542000+00:00</time>
      </trkpt>
      <trkpt lat="47.34318" lon="-1.40385">
        <ele>123</ele>
        <time>2021-02-28T10:01:42.592000+00:00</time>
      </trkpt>
      <trkpt lat="0" lon="0">
        <time>2021-02-28T10:01:42.602000+00:00</time>
      </trkpt>
      <trkpt lat="0" lon="0">
        <time>2021-02-28T10:01:42.606000+00:00</time>
      </trkpt>
      <trkpt lat="0" lon="0">
        <time>2021-02-28T10:01:42.608000+00:00</time>
      </trkpt>
      <trkpt lat="47.34313" lon="-1.40386">
        <ele>123</ele>
        <time>2021-02-28T10:01:43.591000+00:00</time>
      </trkpt>
      <trkpt lat="0" lon="0">
        <time>2021-02-28T10:01:43.603000+00:00</time>
      </trkpt>
      <trkpt lat="0" lon="0">
        <time>2021-02-28T10:01:43.612000+00:00</time>
      </trkpt>
      <trkpt lat="0" lon="0">
        <time>2021-02-28T10:01:43.614000+00:00</time>
      </trkpt>
      <trkpt lat="47.34308" lon="-1.40388">
        <ele>124</ele>
        <time>2021-02-28T10:01:44.558000+00:00</time>
      </trkpt>
      <trkpt lat="0" lon="0">
        <time>2021-02-28T10:01:44.568000+00:00</time>
      </trkpt>
      <trkpt lat="0" lon="0">
        <time>2021-02-28T10:01:44.572000+00:00</time>
      </trkpt>
      <trkpt lat="0" lon="0">
        <time>2021-02-28T10:01:44.574000+00:00</time>
      </trkpt>
      <trkpt lat="47.34303" lon="-1.40389">
        <ele>124</ele>
        <time>2021-02-28T10:01:45.541000+00:00</time>
      </trkpt>
      <trkpt lat="0" lon="0">
        <time>2021-02-28T10:01:45.546000+00:00</time>
      </trkpt>
      <trkpt lat="0" lon="0">
        <time>2021-02-28T10:01:45.550000+00:00</time>
      </trkpt>
      <trkpt lat="0" lon="0">
        <time>2021-02-28T10:01:45.553000+00:00</time>
      </trkpt>
      <trkpt lat="47.34297" lon="-1.4039">
        <ele>124</ele>
        <time>2021-02-28T10:01:46.597000+00:00</time>
      </trkpt>
      <trkpt lat="0" lon="0">
        <time>2021-02-28T10:01:46.603000+00:00</time>
      </trkpt>
      <trkpt lat="0" lon="0">
        <time>2021-02-28T10:01:46.609000+00:00</time>
      </trkpt>
      <trkpt lat="0" lon="0">
        <time>2021-02-28T10:01:46.612000+00:00</time>
      </trkpt>
      <trkpt lat="47.34292" lon="-1.40392">
        <ele>124</ele>
        <time>2021-02-28T10:01:47.568000+00:00</time>
      </trkpt>
      <trkpt lat="0" lon="0">
        <time>2021-02-28T10:01:47.570000+00:00</time>
      </trkpt>
      <trkpt lat="0" lon="0">
        <time>2021-02-28T10:01:47.572000+00:00</time>
      </trkpt>
      <trkpt lat="0" lon="0">
        <time>2021-02-28T10:01:47.573000+00:00</time>
      </trkpt>
      <trkpt lat="47.34286" lon="-1.40393">
        <ele>125</ele>
        <time>2021-02-28T10:01:48.611000+00:00</time>
      </trkpt>
      <trkpt lat="0" lon="0">
        <time>2021-02-28T10:01:48.621000+00:00</time>
      </trkpt>
      <trkpt lat="0" lon="0">
        <time>2021-02-28T10:01:48.626000+00:00</time>
      </trkpt>
      <trkpt lat="0" lon="0">
        <time>2021-02-28T10:01:48.629000+00:00</time>
      </trkpt>
      <trkpt lat="47.3428" lon="-1.40395">
        <ele>125</ele>
        <time>2021-02-28T10:01:49.600000+00:00</time>
      </trkpt>
      <trkpt lat="0" lon="0">
        <time>2021-02-28T10:01:49.611000+00:00</time>
      </trkpt>
      <trkpt lat="0" lon="0">
        <time>2021-02-28T10:01:49.616000+00:00</time>
      </trkpt>
      <trkpt lat="0" lon="0">
        <time>2021-02-28T10:01:49.619000+00:00</time>
      </trkpt>
      <trkpt lat="47.34275" lon="-1.40396">
        <ele>125</ele>
        <time>2021-02-28T10:01:50.611000+00:00</time>
      </trkpt>
      <trkpt lat="0" lon="0">
        <time>2021-02-28T10:01:50.617000+00:00</time>
      </trkpt>
      <trkpt lat="0" lon="0">
        <time>2021-02-28T10:01:50.623000+00:00</time>
      </trkpt>
      <trkpt lat="0" lon="0">
        <time>2021-02-28T10:01:50.626000+00:00</time>
      </trkpt>
      <trkpt lat="47.34269" lon="-1.40398">
        <ele>125</ele>
        <time>2021-02-28T10:01:51.572000+00:00</time>
      </trkpt>
      <trkpt lat="0" lon="0">
        <time>2021-02-28T10:01:51.580000+00:00</time>
      </trkpt>
      <trkpt lat="0" lon="0">
        <time>2021-02-28T10:01:51.585000+00:00</time>
      </trkpt>
      <trkpt lat="0" lon="0">
        <time>2021-02-28T10:01:51.588000+00:00</time>
      </trkpt>
      <trkpt lat="47.34263" lon="-1.404">
        <ele>125</ele>
        <time>2021-02-28T10:01:52.615000+00:00</time>
      </trkpt>
      <trkpt lat="0" lon="0">
        <time>2021-02-28T10:01:52.627000+00:00</time>
      </trkpt>
      <trkpt lat="0" lon="0">
        <time>2021-02-28T10:01:52.632000+00:00</time>
      </trkpt>
      <trkpt lat="0" lon="0">
        <time>2021-02-28T10:01:52.634000+00:00</time>
      </trkpt>
      <trkpt lat="47.34257" lon="-1.40402">
        <ele>125</ele>
        <time>2021-02-28T10:01:53.574000+00:00</time>
      </trkpt>
      <trkpt lat="0" lon="0">
        <time>2021-02-28T10:01:53.576000+00:00</time>
      </trkpt>
      <trkpt lat="0" lon="0">
        <time>2021-02-28T10:01:53.577000+00:00</time>
      </trkpt>
      <trkpt lat="0" lon="0">
        <time>2021-02-28T10:01:53.579000+00:00</time>
      </trkpt>
      <trkpt lat="47.34251" lon="-1.40404">
        <ele>126</ele>
        <time>2021-02-28T10:01:54.593000+00:00</time>
      </trkpt>
      <trkpt lat="0" lon="0">
        <time>2021-02-28T10:01:54.604000+00:00</time>
      </trkpt>
      <trkpt lat="0" lon="0">
        <time>2021-02-28T10:01:54.611000+00:00</time>
      </trkpt>
      <trkpt lat="0" lon="0">
        <time>2021-02-28T10:01:54.613000+00:00</time>
      </trkpt>
      <trkpt lat="47.34245" lon="-1.40405">
        <ele>125</ele>
        <time>2021-02-28T10:01:55.612000+00:00</time>
      </trkpt>
      <trkpt lat="0" lon="0">
        <time>2021-02-28T10:01:55.621000+00:00</time>
      </trkpt>
      <trkpt lat="0" lon="0">
        <time>2021-02-28T10:01:55.626000+00:00</time>
      </trkpt>
      <trkpt lat="0" lon="0">
        <time>2021-02-28T10:01:55.629000+00:00</time>
      </trkpt>
      <trkpt lat="47.34239" lon="-1.40407">
        <ele>125</ele>
        <time>2021-02-28T10:01:56.613000+00:00</time>
      </trkpt>
      <trkpt lat="0" lon="0">
        <time>2021-02-28T10:01:56.622000+00:00</time>
      </trkpt>
      <trkpt lat="0" lon="0">
        <time>2021-02-28T10:01:56.626000+00:00</time>
      </trkpt>
      <trkpt lat="0" lon="0">
        <time>2021-02-28T10:01:56.628000+00:00</time>
      </trkpt>
      <trkpt lat="47.34234" lon="-1.40408">
        <ele>125</ele>
        <time>2021-02-28T10:01:57.588000+00:00</time>
      </trkpt>
      <trkpt lat="0" lon="0">
        <time>2021-02-28T10:01:57.595000+00:00</time>
      </trkpt>
      <trkpt lat="0" lon="0">
        <time>2021-02-28T10:01:57.602000+00:00</time>
      </trkpt>
      <trkpt lat="0" lon="0">
        <time>2021-02-28T10:01:57.605000+00:00</time>
      </trkpt>
      <trkpt lat="47.34228" lon="-1.40408">
        <ele>125</ele>
        <time>2021-02-28T10:01:58.598000+00:00</time>
      </trkpt>
      <trkpt lat="0" lon="0">
        <time>2021-02-28T10:01:58.609000+00:00</time>
      </trkpt>
      <trkpt lat="0" lon="0">
        <time>2021-02-28T10:01:58.614000+00:00</time>
      </trkpt>
      <trkpt lat="0" lon="0">
        <time>2021-02-28T10:01:58.617000+00:00</time>
      </trkpt>
      <trkpt lat="47.34223" lon="-1.40409">
        <ele>125</ele>
        <time>2021-02-28T10:01:59.579000+00:00</time>
      </trkpt>
      <trkpt lat="0" lon="0">
        <time>2021-02-28T10:01:59.584000+00:00</time>
      </trkpt>
      <trkpt lat="0" lon="0">
        <time>2021-02-28T10:01:59.589000+00:00</time>
      </trkpt>
      <trkpt lat="0" lon="0">
        <time>2021-02-28T10:01:59.592000+00:00</time>
      </trkpt>
      <trkpt lat="47.34217" lon="-1.4041">
        <ele>126</ele>
        <time>2021-02-28T10:02:00.592000+00:00</time>
      </trkpt>
      <trkpt lat="0" lon="0">
        <time>2021-02-28T10:02:00.606000+00:00</time>
      </trkpt>
      <trkpt lat="0" lon="0">
        <time>2021-02-28T10:02:00.611000+00:00</time>
      </trkpt>
      <trkpt lat="0" lon="0">
        <time>2021-02-28T10:02:00.613000+00:00</time>
      </trkpt>
      <trkpt lat="47.34212" lon="-1.4041">
        <ele>126</ele>
        <time>2021-02-28T10:02:01.612000+00:00</time>
      </trkpt>
      <trkpt lat="0" lon="0">
        <time>2021-02-28T10:02:01.619000+00:00</time>
      </trkpt>
      <trkpt lat="0" lon="0">
        <time>2021-02-28T10:02:01.624000+00:00</time>
      </trkpt>
      <trkpt lat="0" lon="0">
        <time>2021-02-28T10:02:01.627000+00:00</time>
      </trkpt>
      <trkpt lat="47.34207" lon="-1.4041">
        <ele>126</ele>
        <time>2021-02-28T10:02:02.500000+00:00</time>
      </trkpt>
      <trkpt lat="0" lon="0">
        <time>2021-02-28T10:02:02.506000+00:00</time>
      </trkpt>
      <trkpt lat="0" lon="0">
        <time>2021-02-28T10:02:02.511000+00:00</time>
      </trkpt>
      <trkpt lat="0" lon="0">
        <time>2021-02-28T10:02:02.515000+00:00</time>
      </trkpt>
      <trkpt lat="47.34201" lon="-1.4041">
        <ele>126</ele>
        <time>2021-02-28T10:02:03.593000+00:00</time>
      </trkpt>
      <trkpt lat="0" lon="0">
        <time>2021-02-28T10:02:03.605000+00:00</time>
      </trkpt>
      <trkpt lat="0" lon="0">
        <time>2021-02-28T10:02:03.611000+00:00</time>
      </trkpt>
      <trkpt lat="0" lon="0">
        <time>2021-02-28T10:02:03.613000+00:00</time>
      </trkpt>
      <trkpt lat="47.34196" lon="-1.4041">
        <ele>126</ele>
        <time>2021-02-28T10:02:04.593000+00:00</time>
      </trkpt>
      <trkpt lat="0" lon="0">
        <time>2021-02-28T10:02:04.601000+00:00</time>
      </trkpt>
      <trkpt lat="0" lon="0">
        <time>2021-02-28T10:02:04.606000+00:00</time>
      </trkpt>
      <trkpt lat="0" lon="0">
        <time>2021-02-28T10:02:04.609000+00:00</time>
      </trkpt>
      <trkpt lat="47.34191" lon="-1.40411">
        <ele>126</ele>
        <time>2021-02-28T10:02:05.603000+00:00</time>
      </trkpt>
      <trkpt lat="0" lon="0">
        <time>2021-02-28T10:02:05.612000+00:00</time>
      </trkpt>
      <trkpt lat="0" lon="0">
        <time>2021-02-28T10:02:05.618000+00:00</time>
      </trkpt>
      <trkpt lat="0" lon="0">
        <time>2021-02-28T10:02:05.621000+00:00</time>
      </trkpt>
      <trkpt lat="47.34185" lon="-1.40411">
        <ele>127</ele>
        <time>2021-02-28T10:02:06.626000+00:00</time>
      </trkpt>
      <trkpt lat="0" lon="0">
        <time>2021-02-28T10:02:06.636000+00:00</time>
      </trkpt>
      <trkpt lat="0" lon="0">
        <time>2021-02-28T10:02:06.642000+00:00</time>
      </trkpt>
      <trkpt lat="0" lon="0">
        <time>2021-02-28T10:02:06.645000+00:00</time>
      </trkpt>
      <trkpt lat="47.34179" lon="-1.40411">
        <ele>127</ele>
        <time>2021-02-28T10:02:07.589000+00:00</time>
      </trkpt>
      <trkpt lat="0" lon="0">
        <time>2021-02-28T10:02:07.597000+00:00</time>
      </trkpt>
      <trkpt lat="0" lon="0">
        <time>2021-02-28T10:02:07.602000+00:00</time>
      </trkpt>
      <trkpt lat="0" lon="0">
        <time>2021-02-28T10:02:07.605000+00:00</time>
      </trkpt>
      <trkpt lat="47.34174" lon="-1.4041">
        <ele>127</ele>
        <time>2021-02-28T10:02:08.540000+00:00</time>
      </trkpt>
      <trkpt lat="0" lon="0">
        <time>2021-02-28T10:02:08.542000+00:00</time>
      </trkpt>
      <trkpt lat="0" lon="0">
        <time>2021-02-28T10:02:08.543000+00:00</time>
      </trkpt>
      <trkpt lat="0" lon="0">
        <time>2021-02-28T10:02:08.544000+00:00</time>
      </trkpt>
      <trkpt lat="47.34168" lon="-1.4041">
        <ele>127</ele>
        <time>2021-02-28T10:02:09.560000+00:00</time>
      </trkpt>
      <trkpt lat="0" lon="0">
        <time>2021-02-28T10:02:09.569000+00:00</time>
      </trkpt>
      <trkpt lat="0" lon="0">
        <time>2021-02-28T10:02:09.574000+00:00</time>
      </trkpt>
      <trkpt lat="0" lon="0">
        <time>2021-02-28T10:02:09.576000+00:00</time>
      </trkpt>
      <trkpt lat="47.34162" lon="-1.40409">
        <ele>127</ele>
        <time>2021-02-28T10:02:10.565000+00:00</time>
      </trkpt>
      <trkpt lat="0" lon="0">
        <time>2021-02-28T10:02:10.573000+00:00</time>
      </trkpt>
      <trkpt lat="0" lon="0">
        <time>2021-02-28T10:02:10.578000+00:00</time>
      </trkpt>
      <trkpt lat="0" lon="0">
        <time>2021-02-28T10:02:10.581000+00:00</time>
      </trkpt>
      <trkpt lat="47.34156" lon="-1.40409">
        <ele>127</ele>
        <time>2021-02-28T10:02:11.608000+00:00</time>
      </trkpt>
      <trkpt lat="0" lon="0">
        <time>2021-02-28T10:02:11.619000+00:00</time>
      </trkpt>
      <trkpt lat="0" lon="0">
        <time>2021-02-28T10:02:11.626000+00:00</time>
      </trkpt>
      <trkpt lat="0" lon="0">
        <time>2021-02-28T10:02:11.629000+00:00</time>
      </trkpt>
      <trkpt lat="47.34149" lon="-1.40408">
        <ele>127</ele>
        <time>2021-02-28T10:02:12.583000+00:00</time>
      </trkpt>
      <trkpt lat="0" lon="0">
        <time>2021-02-28T10:02:12.592000+00:00</time>
      </trkpt>
      <trkpt lat="0" lon="0">
        <time>2021-02-28T10:02:12.597000+00:00</time>
      </trkpt>
      <trkpt lat="0" lon="0">
        <time>2021-02-28T10:02:12.599000+00:00</time>
      </trkpt>
      <trkpt lat="47.34143" lon="-1.40407">
        <ele>127</ele>
        <time>2021-02-28T10:02:13.593000+00:00</time>
      </trkpt>
      <trkpt lat="0" lon="0">
        <time>2021-02-28T10:02:13.603000+00:00</time>
      </trkpt>
      <trkpt lat="0" lon="0">
        <time>2021-02-28T10:02:13.607000+00:00</time>
      </trkpt>
      <trkpt lat="0" lon="0">
        <time>2021-02-28T10:02:13.610000+00:00</time>
      </trkpt>
      <trkpt lat="47.34137" lon="-1.40406">
        <ele>128</ele>
        <time>2021-02-28T10:02:14.593000+00:00</time>
      </trkpt>
      <trkpt lat="0" lon="0">
        <time>2021-02-28T10:02:14.599000+00:00</time>
      </trkpt>
      <trkpt lat="0" lon="0">
        <time>2021-02-28T10:02:14.603000+00:00</time>
      </trkpt>
      <trkpt lat="0" lon="0">
        <time>2021-02-28T10:02:14.605000+00:00</time>
      </trkpt>
      <trkpt lat="47.3413" lon="-1.40405">
        <ele>128</ele>
        <time>2021-02-28T10:02:15.526000+00:00</time>
      </trkpt>
      <trkpt lat="0" lon="0">
        <time>2021-02-28T10:02:15.532000+00:00</time>
      </trkpt>
      <trkpt lat="0" lon="0">
        <time>2021-02-28T10:02:15.538000+00:00</time>
      </trkpt>
      <trkpt lat="0" lon="0">
        <time>2021-02-28T10:02:15.541000+00:00</time>
      </trkpt>
      <trkpt lat="47.34124" lon="-1.40405">
        <ele>128</ele>
        <time>2021-02-28T10:02:16.590000+00:00</time>
      </trkpt>
      <trkpt lat="0" lon="0">
        <time>2021-02-28T10:02:16.597000+00:00</time>
      </trkpt>
      <trkpt lat="0" lon="0">
        <time>2021-02-28T10:02:16.605000+00:00</time>
      </trkpt>
      <trkpt lat="0" lon="0">
        <time>2021-02-28T10:02:16.608000+00:00</time>
      </trkpt>
      <trkpt lat="47.34117" lon="-1.40404">
        <ele>128</ele>
        <time>2021-02-28T10:02:17.571000+00:00</time>
      </trkpt>
      <trkpt lat="0" lon="0">
        <time>2021-02-28T10:02:17.582000+00:00</time>
      </trkpt>
      <trkpt lat="0" lon="0">
        <time>2021-02-28T10:02:17.587000+00:00</time>
      </trkpt>
      <trkpt lat="0" lon="0">
        <time>2021-02-28T10:02:17.589000+00:00</time>
      </trkpt>
      <trkpt lat="47.34111" lon="-1.40403">
        <ele>128</ele>
        <time>2021-02-28T10:02:18.589000+00:00</time>
      </trkpt>
      <trkpt lat="0" lon="0">
        <time>2021-02-28T10:02:18.595000+00:00</time>
      </trkpt>
      <trkpt lat="0" lon="0">
        <time>2021-02-28T10:02:18.600000+00:00</time>
      </trkpt>
      <trkpt lat="0" lon="0">
        <time>2021-02-28T10:02:18.602000+00:00</time>
      </trkpt>
      <trkpt lat="47.34105" lon="-1.40401">
        <ele>128</ele>
        <time>2021-02-28T10:02:19.625000+00:00</time>
      </trkpt>
      <trkpt lat="0" lon="0">
        <time>2021-02-28T10:02:19.634000+00:00</time>
      </trkpt>
      <trkpt lat="0" lon="0">
        <time>2021-02-28T10:02:19.643000+00:00</time>
      </trkpt>
      <trkpt lat="0" lon="0">
        <time>2021-02-28T10:02:19.645000+00:00</time>
      </trkpt>
      <trkpt lat="47.34099" lon="-1.404">
        <ele>128</ele>
        <time>2021-02-28T10:02:20.582000+00:00</time>
      </trkpt>
      <trkpt lat="0" lon="0">
        <time>2021-02-28T10:02:20.597000+00:00</time>
      </trkpt>
      <trkpt lat="0" lon="0">
        <time>2021-02-28T10:02:20.610000+00:00</time>
      </trkpt>
      <trkpt lat="0" lon="0">
        <time>2021-02-28T10:02:20.612000+00:00</time>
      </trkpt>
      <trkpt lat="47.34092" lon="-1.40399">
        <ele>129</ele>
        <time>2021-02-28T10:02:21.589000+00:00</time>
      </trkpt>
      <trkpt lat="0" lon="0">
        <time>2021-02-28T10:02:21.593000+00:00</time>
      </trkpt>
      <trkpt lat="0" lon="0">
        <time>2021-02-28T10:02:21.598000+00:00</time>
      </trkpt>
      <trkpt lat="0" lon="0">
        <time>2021-02-28T10:02:21.601000+00:00</time>
      </trkpt>
      <trkpt lat="47.34086" lon="-1.40397">
        <ele>129</ele>
        <time>2021-02-28T10:02:22.599000+00:00</time>
      </trkpt>
      <trkpt lat="0" lon="0">
        <time>2021-02-28T10:02:22.605000+00:00</time>
      </trkpt>
      <trkpt lat="0" lon="0">
        <time>2021-02-28T10:02:22.610000+00:00</time>
      </trkpt>
      <trkpt lat="0" lon="0">
        <time>2021-02-28T10:02:22.612000+00:00</time>
      </trkpt>
      <trkpt lat="47.3408" lon="-1.40395">
        <ele>129</ele>
        <time>2021-02-28T10:02:23.561000+00:00</time>
      </trkpt>
      <trkpt lat="0" lon="0">
        <time>2021-02-28T10:02:23.567000+00:00</time>
      </trkpt>
      <trkpt lat="0" lon="0">
        <time>2021-02-28T10:02:23.571000+00:00</time>
      </trkpt>
      <trkpt lat="0" lon="0">
        <time>2021-02-28T10:02:23.573000+00:00</time>
      </trkpt>
      <trkpt lat="47.34074" lon="-1.40393">
        <ele>129</ele>
        <time>2021-02-28T10:02:24.587000+00:00</time>
      </trkpt>
      <trkpt lat="0" lon="0">
        <time>2021-02-28T10:02:24.607000+00:00</time>
      </trkpt>
      <trkpt lat="0" lon="0">
        <time>2021-02-28T10:02:24.612000+00:00</time>
      </trkpt>
      <trkpt lat="0" lon="0">
        <time>2021-02-28T10:02:24.614000+00:00</time>
      </trkpt>
      <trkpt lat="47.34068" lon="-1.40391">
        <ele>129</ele>
        <time>2021-02-28T10:02:25.579000+00:00</time>
      </trkpt>
      <trkpt lat="0" lon="0">
        <time>2021-02-28T10:02:25.585000+00:00</time>
      </trkpt>
      <trkpt lat="0" lon="0">
        <time>2021-02-28T10:02:25.591000+00:00</time>
      </trkpt>
      <trkpt lat="0" lon="0">
        <time>2021-02-28T10:02:25.594000+00:00</time>
      </trkpt>
      <trkpt lat="47.34062" lon="-1.40388">
        <ele>129</ele>
        <time>2021-02-28T10:02:26.607000+00:00</time>
      </trkpt>
      <trkpt lat="0" lon="0">
        <time>2021-02-28T10:02:26.616000+00:00</time>
      </trkpt>
      <trkpt lat="0" lon="0">
        <time>2021-02-28T10:02:26.620000+00:00</time>
      </trkpt>
      <trkpt lat="0" lon="0">
        <time>2021-02-28T10:02:26.622000+00:00</time>
      </trkpt>
      <trkpt lat="47.34056" lon="-1.40385">
        <ele>129</ele>
        <time>2021-02-28T10:02:27.550000+00:00</time>
      </trkpt>
      <trkpt lat="0" lon="0">
        <time>2021-02-28T10:02:27.555000+00:00</time>
      </trkpt>
      <trkpt lat="0" lon="0">
        <time>2021-02-28T10:02:27.562000+00:00</time>
      </trkpt>
      <trkpt lat="0" lon="0">
        <time>2021-02-28T10:02:27.564000+00:00</time>
      </trkpt>
      <trkpt lat="47.34051" lon="-1.40381">
        <ele>129</ele>
        <time>2021-02-28T10:02:28.578000+00:00</time>
      </trkpt>
      <trkpt lat="0" lon="0">
        <time>2021-02-28T10:02:28.587000+00:00</time>
      </trkpt>
      <trkpt lat="0" lon="0">
        <time>2021-02-28T10:02:28.592000+00:00</time>
      </trkpt>
      <trkpt lat="0" lon="0">
        <time>2021-02-28T10:02:28.595000+00:00</time>
      </trkpt>
      <trkpt lat="47.34046" lon="-1.40378">
        <ele>130</ele>
        <time>2021-02-28T10:02:29.582000+00:00</time>
      </trkpt>
      <trkpt lat="0" lon="0">
        <time>2021-02-28T10:02:29.589000+00:00</time>
      </trkpt>
      <trkpt lat="0" lon="0">
        <time>2021-02-28T10:02:29.592000+00:00</time>
      </trkpt>
      <trkpt lat="0" lon="0">
        <time>2021-02-28T10:02:29.595000+00:00</time>
      </trkpt>
      <trkpt lat="47.34041" lon="-1.40374">
        <ele>130</ele>
        <time>2021-02-28T10:02:30.584000+00:00</time>
      </trkpt>
      <trkpt lat="0" lon="0">
        <time>2021-02-28T10:02:30.591000+00:00</time>
      </trkpt>
      <trkpt lat="0" lon="0">
        <time>2021-02-28T10:02:30.595000+00:00</time>
      </trkpt>
      <trkpt lat="0" lon="0">
        <time>2021-02-28T10:02:30.598000+00:00</time>
      </trkpt>
      <trkpt lat="47.34036" lon="-1.4037">
        <ele>130</ele>
        <time>2021-02-28T10:02:31.582000+00:00</time>
      </trkpt>
      <trkpt lat="0" lon="0">
        <time>2021-02-28T10:02:31.595000+00:00</time>
      </trkpt>
      <trkpt lat="0" lon="0">
        <time>2021-02-28T10:02:31.601000+00:00</time>
      </trkpt>
      <trkpt lat="0" lon="0">
        <time>2021-02-28T10:02:31.604000+00:00</time>
      </trkpt>
      <trkpt lat="47.34032" lon="-1.40366">
        <ele>130</ele>
        <time>2021-02-28T10:02:32.608000+00:00</time>
      </trkpt>
      <trkpt lat="0" lon="0">
        <time>2021-02-28T10:02:32.620000+00:00</time>
      </trkpt>
      <trkpt lat="0" lon="0">
        <time>2021-02-28T10:02:32.625000+00:00</time>
      </trkpt>
      <trkpt lat="0" lon="0">
        <time>2021-02-28T10:02:32.630000+00:00</time>
      </trkpt>
      <trkpt lat="47.34027" lon="-1.40362">
        <ele>130</ele>
        <time>2021-02-28T10:02:33.582000+00:00</time>
      </trkpt>
      <trkpt lat="0" lon="0">
        <time>2021-02-28T10:02:33.592000+00:00</time>
      </trkpt>
      <trkpt lat="0" lon="0">
        <time>2021-02-28T10:02:33.600000+00:00</time>
      </trkpt>
      <trkpt lat="0" lon="0">
        <time>2021-02-28T10:02:33.603000+00:00</time>
      </trkpt>
      <trkpt lat="47.34023" lon="-1.40357">
        <ele>130</ele>
        <time>2021-02-28T10:02:34.604000+00:00</time>
      </trkpt>
      <trkpt lat="0" lon="0">
        <time>2021-02-28T10:02:34.609000+00:00</time>
      </trkpt>
      <trkpt lat="0" lon="0">
        <time>2021-02-28T10:02:34.615000+00:00</time>
      </trkpt>
      <trkpt lat="0" lon="0">
        <time>2021-02-28T10:02:34.617000+00:00</time>
      </trkpt>
      <trkpt lat="47.34018" lon="-1.40352">
        <ele>130</ele>
        <time>2021-02-28T10:02:35.593000+00:00</time>
      </trkpt>
      <trkpt lat="0" lon="0">
        <time>2021-02-28T10:02:35.600000+00:00</time>
      </trkpt>
      <trkpt lat="0" lon="0">
        <time>2021-02-28T10:02:35.606000+00:00</time>
      </trkpt>
      <trkpt lat="0" lon="0">
        <time>2021-02-28T10:02:35.610000+00:00</time>
      </trkpt>
      <trkpt lat="47.34014" lon="-1.40347">
        <ele>130</ele>
        <time>2021-02-28T10:02:36.602000+00:00</time>
      </trkpt>
      <trkpt lat="0" lon="0">
        <time>2021-02-28T10:02:36.616000+00:00</time>
      </trkpt>
      <trkpt lat="0" lon="0">
        <time>2021-02-28T10:02:36.621000+00:00</time>
      </trkpt>
      <trkpt lat="0" lon="0">
        <time>2021-02-28T10:02:36.624000+00:00</time>
      </trkpt>
      <trkpt lat="47.3401" lon="-1.40342">
        <ele>131</ele>
        <time>2021-02-28T10:02:37.574000+00:00</time>
      </trkpt>
      <trkpt lat="0" lon="0">
        <time>2021-02-28T10:02:37.580000+00:00</time>
      </trkpt>
      <trkpt lat="0" lon="0">
        <time>2021-02-28T10:02:37.586000+00:00</time>
      </trkpt>
      <trkpt lat="0" lon="0">
        <time>2021-02-28T10:02:37.588000+00:00</time>
      </trkpt>
      <trkpt lat="47.34006" lon="-1.40337">
        <ele>131</ele>
        <time>2021-02-28T10:02:38.582000+00:00</time>
      </trkpt>
      <trkpt lat="0" lon="0">
        <time>2021-02-28T10:02:38.588000+00:00</time>
      </trkpt>
      <trkpt lat="0" lon="0">
        <time>2021-02-28T10:02:38.592000+00:00</time>
      </trkpt>
      <trkpt lat="0" lon="0">
        <time>2021-02-28T10:02:38.594000+00:00</time>
      </trkpt>
      <trkpt lat="47.34001" lon="-1.40331">
        <ele>131</ele>
        <time>2021-02-28T10:02:39.577000+00:00</time>
      </trkpt>
      <trkpt lat="0" lon="0">
        <time>2021-02-28T10:02:39.585000+00:00</time>
      </trkpt>
      <trkpt lat="0" lon="0">
        <time>2021-02-28T10:02:39.590000+00:00</time>
      </trkpt>
      <trkpt lat="0" lon="0">
        <time>2021-02-28T10:02:39.593000+00:00</time>
      </trkpt>
      <trkpt lat="47.33997" lon="-1.40326">
        <ele>131</ele>
        <time>2021-02-28T10:02:40.577000+00:00</time>
      </trkpt>
      <trkpt lat="0" lon="0">
        <time>2021-02-28T10:02:40.586000+00:00</time>
      </trkpt>
      <trkpt lat="0" lon="0">
        <time>2021-02-28T10:02:40.591000+00:00</time>
      </trkpt>
      <trkpt lat="0" lon="0">
        <time>2021-02-28T10:02:40.594000+00:00</time>
      </trkpt>
      <trkpt lat="47.33992" lon="-1.4032">
        <ele>131</ele>
        <time>2021-02-28T10:02:41.599000+00:00</time>
      </trkpt>
      <trkpt lat="0" lon="0">
        <time>2021-02-28T10:02:41.613000+00:00</time>
      </trkpt>
      <trkpt lat="0" lon="0">
        <time>2021-02-28T10:02:41.622000+00:00</time>
      </trkpt>
      <trkpt lat="0" lon="0">
        <time>2021-02-28T10:02:41.625000+00:00</time>
      </trkpt>
      <trkpt lat="47.33987" lon="-1.40315">
        <ele>131</ele>
        <time>2021-02-28T10:02:42.605000+00:00</time>
      </trkpt>
      <trkpt lat="0" lon="0">
        <time>2021-02-28T10:02:42.610000+00:00</time>
      </trkpt>
      <trkpt lat="0" lon="0">
        <time>2021-02-28T10:02:42.615000+00:00</time>
      </trkpt>
      <trkpt lat="0" lon="0">
        <time>2021-02-28T10:02:42.617000+00:00</time>
      </trkpt>
      <trkpt lat="47.33982" lon="-1.40309">
        <ele>131</ele>
        <time>2021-02-28T10:02:43.605000+00:00</time>
      </trkpt>
      <trkpt lat="0" lon="0">
        <time>2021-02-28T10:02:43.611000+00:00</time>
      </trkpt>
      <trkpt lat="0" lon="0">
        <time>2021-02-28T10:02:43.616000+00:00</time>
      </trkpt>
      <trkpt lat="0" lon="0">
        <time>2021-02-28T10:02:43.619000+00:00</time>
      </trkpt>
      <trkpt lat="47.33978" lon="-1.40304">
        <ele>131</ele>
        <time>2021-02-28T10:02:44.573000+00:00</time>
      </trkpt>
      <trkpt lat="0" lon="0">
        <time>2021-02-28T10:02:44.582000+00:00</time>
      </trkpt>
      <trkpt lat="0" lon="0">
        <time>2021-02-28T10:02:44.588000+00:00</time>
      </trkpt>
      <trkpt lat="0" lon="0">
        <time>2021-02-28T10:02:44.591000+00:00</time>
      </trkpt>
      <trkpt lat="47.33973" lon="-1.40298">
        <ele>131</ele>
        <time>2021-02-28T10:02:45.576000+00:00</time>
      </trkpt>
      <trkpt lat="0" lon="0">
        <time>2021-02-28T10:02:45.583000+00:00</time>
      </trkpt>
      <trkpt lat="0" lon="0">
        <time>2021-02-28T10:02:45.587000+00:00</time>
      </trkpt>
      <trkpt lat="0" lon="0">
        <time>2021-02-28T10:02:45.589000+00:00</time>
      </trkpt>
      <trkpt lat="47.33968" lon="-1.40293">
        <ele>131</ele>
        <time>2021-02-28T10:02:46.591000+00:00</time>
      </trkpt>
      <trkpt lat="0" lon="0">
        <time>2021-02-28T10:02:46.597000+00:00</time>
      </trkpt>
      <trkpt lat="0" lon="0">
        <time>2021-02-28T10:02:46.603000+00:00</time>
      </trkpt>
      <trkpt lat="0" lon="0">
        <time>2021-02-28T10:02:46.606000+00:00</time>
      </trkpt>
      <trkpt lat="47.33963" lon="-1.40287">
        <ele>132</ele>
        <time>2021-02-28T10:02:47.574000+00:00</time>
      </trkpt>
      <trkpt lat="0" lon="0">
        <time>2021-02-28T10:02:47.589000+00:00</time>
      </trkpt>
      <trkpt lat="0" lon="0">
        <time>2021-02-28T10:02:47.595000+00:00</time>
      </trkpt>
      <trkpt lat="0" lon="0">
        <time>2021-02-28T10:02:47.597000+00:00</time>
      </trkpt>
      <trkpt lat="47.33959" lon="-1.40282">
        <ele>132</ele>
        <time>2021-02-28T10:02:48.549000+00:00</time>
      </trkpt>
      <trkpt lat="0" lon="0">
        <time>2021-02-28T10:02:48.555000+00:00</time>
      </trkpt>
      <trkpt lat="0" lon="0">
        <time>2021-02-28T10:02:48.560000+00:00</time>
      </trkpt>
      <trkpt lat="0" lon="0">
        <time>2021-02-28T10:02:48.562000+00:00</time>
      </trkpt>
      <trkpt lat="47.33954" lon="-1.40277">
        <ele>131</ele>
        <time>2021-02-28T10:02:49.576000+00:00</time>
      </trkpt>
      <trkpt lat="0" lon="0">
        <time>2021-02-28T10:02:49.586000+00:00</time>
      </trkpt>
      <trkpt lat="0" lon="0">
        <time>2021-02-28T10:02:49.591000+00:00</time>
      </trkpt>
      <trkpt lat="0" lon="0">
        <time>2021-02-28T10:02:49.593000+00:00</time>
      </trkpt>
      <trkpt lat="47.33949" lon="-1.40271">
        <ele>131</ele>
        <time>2021-02-28T10:02:50.560000+00:00</time>
      </trkpt>
      <trkpt lat="0" lon="0">
        <time>2021-02-28T10:02:50.568000+00:00</time>
      </trkpt>
      <trkpt lat="0" lon="0">
        <time>2021-02-28T10:02:50.573000+00:00</time>
      </trkpt>
      <trkpt lat="0" lon="0">
        <time>2021-02-28T10:02:50.576000+00:00</time>
      </trkpt>
      <trkpt lat="47.33944" lon="-1.40265">
        <ele>131</ele>
        <time>2021-02-28T10:02:51.594000+00:00</time>
      </trkpt>
      <trkpt lat="0" lon="0">
        <time>2021-02-28T10:02:51.601000+00:00</time>
      </trkpt>
      <trkpt lat="0" lon="0">
        <time>2021-02-28T10:02:51.606000+00:00</time>
      </trkpt>
      <trkpt lat="0" lon="0">
        <time>2021-02-28T10:02:51.609000+00:00</time>
      </trkpt>
      <trkpt lat="47.33939" lon="-1.40259">
        <ele>130</ele>
        <time>2021-02-28T10:02:52.585000+00:00</time>
      </trkpt>
      <trkpt lat="0" lon="0">
        <time>2021-02-28T10:02:52.595000+00:00</time>
      </trkpt>
      <trkpt lat="0" lon="0">
        <time>2021-02-28T10:02:52.601000+00:00</time>
      </trkpt>
      <trkpt lat="0" lon="0">
        <time>2021-02-28T10:02:52.603000+00:00</time>
      </trkpt>
      <trkpt lat="47.33934" lon="-1.40253">
        <ele>129</ele>
        <time>2021-02-28T10:02:53.556000+00:00</time>
      </trkpt>
      <trkpt lat="0" lon="0">
        <time>2021-02-28T10:02:53.563000+00:00</time>
      </trkpt>
      <trkpt lat="0" lon="0">
        <time>2021-02-28T10:02:53.568000+00:00</time>
      </trkpt>
      <trkpt lat="0" lon="0">
        <time>2021-02-28T10:02:53.570000+00:00</time>
      </trkpt>
      <trkpt lat="47.33929" lon="-1.40247">
        <ele>128</ele>
        <time>2021-02-28T10:02:54.558000+00:00</time>
      </trkpt>
      <trkpt lat="0" lon="0">
        <time>2021-02-28T10:02:54.566000+00:00</time>
      </trkpt>
      <trkpt lat="0" lon="0">
        <time>2021-02-28T10:02:54.572000+00:00</time>
      </trkpt>
      <trkpt lat="0" lon="0">
        <time>2021-02-28T10:02:54.575000+00:00</time>
      </trkpt>
      <trkpt lat="47.33923" lon="-1.40241">
        <ele>128</ele>
        <time>2021-02-28T10:02:55.607000+00:00</time>
      </trkpt>
      <trkpt lat="0" lon="0">
        <time>2021-02-28T10:02:55.609000+00:00</time>
      </trkpt>
      <trkpt lat="0" lon="0">
        <time>2021-02-28T10:02:55.611000+00:00</time>
      </trkpt>
      <trkpt lat="0" lon="0">
        <time>2021-02-28T10:02:55.612000+00:00</time>
      </trkpt>
      <trkpt lat="47.33918" lon="-1.40235">
        <ele>127</ele>
        <time>2021-02-28T10:02:56.562000+00:00</time>
      </trkpt>
      <trkpt lat="0" lon="0">
        <time>2021-02-28T10:02:56.570000+00:00</time>
      </trkpt>
      <trkpt lat="0" lon="0">
        <time>2021-02-28T10:02:56.577000+00:00</time>
      </trkpt>
      <trkpt lat="0" lon="0">
        <time>2021-02-28T10:02:56.579000+00:00</time>
      </trkpt>
      <trkpt lat="47.33913" lon="-1.40229">
        <ele>127</ele>
        <time>2021-02-28T10:02:57.581000+00:00</time>
      </trkpt>
      <trkpt lat="0" lon="0">
        <time>2021-02-28T10:02:57.592000+00:00</time>
      </trkpt>
      <trkpt lat="0" lon="0">
        <time>2021-02-28T10:02:57.602000+00:00</time>
      </trkpt>
      <trkpt lat="0" lon="0">
        <time>2021-02-28T10:02:57.605000+00:00</time>
      </trkpt>
      <trkpt lat="47.33908" lon="-1.40223">
        <ele>127</ele>
        <time>2021-02-28T10:02:58.559000+00:00</time>
      </trkpt>
      <trkpt lat="0" lon="0">
        <time>2021-02-28T10:02:58.570000+00:00</time>
      </trkpt>
      <trkpt lat="0" lon="0">
        <time>2021-02-28T10:02:58.575000+00:00</time>
      </trkpt>
      <trkpt lat="0" lon="0">
        <time>2021-02-28T10:02:58.577000+00:00</time>
      </trkpt>
      <trkpt lat="47.33903" lon="-1.40217">
        <ele>127</ele>
        <time>2021-02-28T10:02:59.589000+00:00</time>
      </trkpt>
      <trkpt lat="0" lon="0">
        <time>2021-02-28T10:02:59.596000+00:00</time>
      </trkpt>
      <trkpt lat="0" lon="0">
        <time>2021-02-28T10:02:59.603000+00:00</time>
      </trkpt>
      <trkpt lat="0" lon="0">
        <time>2021-02-28T10:02:59.607000+00:00</time>
      </trkpt>
      <trkpt lat="47.33898" lon="-1.40211">
        <ele>126</ele>
        <time>2021-02-28T10:03:00.583000+00:00</time>
      </trkpt>
      <trkpt lat="0" lon="0">
        <time>2021-02-28T10:03:00.595000+00:00</time>
      </trkpt>
      <trkpt lat="0" lon="0">
        <time>2021-02-28T10:03:00.601000+00:00</time>
      </trkpt>
      <trkpt lat="0" lon="0">
        <time>2021-02-28T10:03:00.604000+00:00</time>
      </trkpt>
      <trkpt lat="47.33893" lon="-1.40206">
        <ele>125</ele>
        <time>2021-02-28T10:03:01.576000+00:00</time>
      </trkpt>
      <trkpt lat="0" lon="0">
        <time>2021-02-28T10:03:01.584000+00:00</time>
      </trkpt>
      <trkpt lat="0" lon="0">
        <time>2021-02-28T10:03:01.589000+00:00</time>
      </trkpt>
      <trkpt lat="0" lon="0">
        <time>2021-02-28T10:03:01.592000+00:00</time>
      </trkpt>
      <trkpt lat="47.33888" lon="-1.402">
        <ele>125</ele>
        <time>2021-02-28T10:03:02.612000+00:00</time>
      </trkpt>
      <trkpt lat="0" lon="0">
        <time>2021-02-28T10:03:02.624000+00:00</time>
      </trkpt>
      <trkpt lat="0" lon="0">
        <time>2021-02-28T10:03:02.629000+00:00</time>
      </trkpt>
      <trkpt lat="0" lon="0">
        <time>2021-02-28T10:03:02.632000+00:00</time>
      </trkpt>
      <trkpt lat="47.33883" lon="-1.40194">
        <ele>124</ele>
        <time>2021-02-28T10:03:03.571000+00:00</time>
      </trkpt>
      <trkpt lat="0" lon="0">
        <time>2021-02-28T10:03:03.578000+00:00</time>
      </trkpt>
      <trkpt lat="0" lon="0">
        <time>2021-02-28T10:03:03.583000+00:00</time>
      </trkpt>
      <trkpt lat="0" lon="0">
        <time>2021-02-28T10:03:03.585000+00:00</time>
      </trkpt>
      <trkpt lat="47.33879" lon="-1.40188">
        <ele>124</ele>
        <time>2021-02-28T10:03:04.579000+00:00</time>
      </trkpt>
      <trkpt lat="0" lon="0">
        <time>2021-02-28T10:03:04.587000+00:00</time>
      </trkpt>
      <trkpt lat="0" lon="0">
        <time>2021-02-28T10:03:04.592000+00:00</time>
      </trkpt>
      <trkpt lat="0" lon="0">
        <time>2021-02-28T10:03:04.595000+00:00</time>
      </trkpt>
      <trkpt lat="47.33874" lon="-1.40182">
        <ele>125</ele>
        <time>2021-02-28T10:03:05.583000+00:00</time>
      </trkpt>
      <trkpt lat="0" lon="0">
        <time>2021-02-28T10:03:05.589000+00:00</time>
      </trkpt>
      <trkpt lat="0" lon="0">
        <time>2021-02-28T10:03:05.593000+00:00</time>
      </trkpt>
      <trkpt lat="0" lon="0">
        <time>2021-02-28T10:03:05.596000+00:00</time>
      </trkpt>
      <trkpt lat="47.3387" lon="-1.40177">
        <ele>125</ele>
        <time>2021-02-28T10:03:06.585000+00:00</time>
      </trkpt>
      <trkpt lat="0" lon="0">
        <time>2021-02-28T10:03:06.593000+00:00</time>
      </trkpt>
      <trkpt lat="0" lon="0">
        <time>2021-02-28T10:03:06.595000+00:00</time>
      </trkpt>
      <trkpt lat="0" lon="0">
        <time>2021-02-28T10:03:06.596000+00:00</time>
      </trkpt>
      <trkpt lat="47.33865" lon="-1.40172">
        <ele>125</ele>
        <time>2021-02-28T10:03:07.604000+00:00</time>
      </trkpt>
      <trkpt lat="0" lon="0">
        <time>2021-02-28T10:03:07.612000+00:00</time>
      </trkpt>
      <trkpt lat="0" lon="0">
        <time>2021-02-28T10:03:07.616000+00:00</time>
      </trkpt>
      <trkpt lat="0" lon="0">
        <time>2021-02-28T10:03:07.620000+00:00</time>
      </trkpt>
      <trkpt lat="47.33861" lon="-1.40167">
        <ele>125</ele>
        <time>2021-02-28T10:03:08.594000+00:00</time>
      </trkpt>
      <trkpt lat="0" lon="0">
        <time>2021-02-28T10:03:08.601000+00:00</time>
      </trkpt>
      <trkpt lat="0" lon="0">
        <time>2021-02-28T10:03:08.609000+00:00</time>
      </trkpt>
      <trkpt lat="0" lon="0">
        <time>2021-02-28T10:03:08.612000+00:00</time>
      </trkpt>
      <trkpt lat="47.33857" lon="-1.40162">
        <ele>126</ele>
        <time>2021-02-28T10:03:09.586000+00:00</time>
      </trkpt>
      <trkpt lat="0" lon="0">
        <time>2021-02-28T10:03:09.596000+00:00</time>
      </trkpt>
      <trkpt lat="0" lon="0">
        <time>2021-02-28T10:03:09.602000+00:00</time>
      </trkpt>
      <trkpt lat="0" lon="0">
        <time>2021-02-28T10:03:09.605000+00:00</time>
      </trkpt>
      <trkpt lat="47.33853" lon="-1.40157">
        <ele>126</ele>
        <time>2021-02-28T10:03:10.560000+00:00</time>
      </trkpt>
      <trkpt lat="0" lon="0">
        <time>2021-02-28T10:03:10.567000+00:00</time>
      </trkpt>
      <trkpt lat="0" lon="0">
        <time>2021-02-28T10:03:10.570000+00:00</time>
      </trkpt>
      <trkpt lat="0" lon="0">
        <time>2021-02-28T10:03:10.572000+00:00</time>
      </trkpt>
      <trkpt lat="47.33848" lon="-1.40152">
        <ele>126</ele>
        <time>2021-02-28T10:03:11.529000+00:00</time>
      </trkpt>
      <trkpt lat="0" lon="0">
        <time>2021-02-28T10:03:11.535000+00:00</time>
      </trkpt>
      <trkpt lat="0" lon="0">
        <time>2021-02-28T10:03:11.541000+00:00</time>
      </trkpt>
      <trkpt lat="0" lon="0">
        <time>2021-02-28T10:03:11.543000+00:00</time>
      </trkpt>
      <trkpt lat="47.33844" lon="-1.40147">
        <ele>126</ele>
        <time>2021-02-28T10:03:12.566000+00:00</time>
      </trkpt>
      <trkpt lat="0" lon="0">
        <time>2021-02-28T10:03:12.568000+00:00</time>
      </trkpt>
      <trkpt lat="0" lon="0">
        <time>2021-02-28T10:03:12.573000+00:00</time>
      </trkpt>
      <trkpt lat="0" lon="0">
        <time>2021-02-28T10:03:12.576000+00:00</time>
      </trkpt>
      <trkpt lat="47.3384" lon="-1.40142">
        <ele>126</ele>
        <time>2021-02-28T10:03:13.581000+00:00</time>
      </trkpt>
      <trkpt lat="0" lon="0">
        <time>2021-02-28T10:03:13.586000+00:00</time>
      </trkpt>
      <trkpt lat="0" lon="0">
        <time>2021-02-28T10:03:13.591000+00:00</time>
      </trkpt>
      <trkpt lat="0" lon="0">
        <time>2021-02-28T10:03:13.594000+00:00</time>
      </trkpt>
      <trkpt lat="47.33836" lon="-1.40137">
        <ele>126</ele>
        <time>2021-02-28T10:03:14.565000+00:00</time>
      </trkpt>
      <trkpt lat="0" lon="0">
        <time>2021-02-28T10:03:14.575000+00:00</time>
      </trkpt>
      <trkpt lat="0" lon="0">
        <time>2021-02-28T10:03:14.579000+00:00</time>
      </trkpt>
      <trkpt lat="0" lon="0">
        <time>2021-02-28T10:03:14.581000+00:00</time>
      </trkpt>
      <trkpt lat="47.33832" lon="-1.40132">
        <ele>126</ele>
        <time>2021-02-28T10:03:15.570000+00:00</time>
      </trkpt>
      <trkpt lat="0" lon="0">
        <time>2021-02-28T10:03:15.576000+00:00</time>
      </trkpt>
      <trkpt lat="0" lon="0">
        <time>2021-02-28T10:03:15.581000+00:00</time>
      </trkpt>
      <trkpt lat="0" lon="0">
        <time>2021-02-28T10:03:15.582000+00:00</time>
      </trkpt>
      <trkpt lat="47.33827" lon="-1.40127">
        <ele>126</ele>
        <time>2021-02-28T10:03:16.581000+00:00</time>
      </trkpt>
      <trkpt lat="0" lon="0">
        <time>2021-02-28T10:03:16.587000+00:00</time>
      </trkpt>
      <trkpt lat="0" lon="0">
        <time>2021-02-28T10:03:16.591000+00:00</time>
      </trkpt>
      <trkpt lat="0" lon="0">
        <time>2021-02-28T10:03:16.593000+00:00</time>
      </trkpt>
      <trkpt lat="47.33823" lon="-1.40123">
        <ele>126</ele>
        <time>2021-02-28T10:03:17.618000+00:00</time>
      </trkpt>
      <trkpt lat="0" lon="0">
        <time>2021-02-28T10:03:17.636000+00:00</time>
      </trkpt>
      <trkpt lat="0" lon="0">
        <time>2021-02-28T10:03:17.643000+00:00</time>
      </trkpt>
      <trkpt lat="0" lon="0">
        <time>2021-02-28T10:03:17.646000+00:00</time>
      </trkpt>
      <trkpt lat="47.33819" lon="-1.40118">
        <ele>126</ele>
        <time>2021-02-28T10:03:18.551000+00:00</time>
      </trkpt>
      <trkpt lat="0" lon="0">
        <time>2021-02-28T10:03:18.556000+00:00</time>
      </trkpt>
      <trkpt lat="0" lon="0">
        <time>2021-02-28T10:03:18.565000+00:00</time>
      </trkpt>
      <trkpt lat="0" lon="0">
        <time>2021-02-28T10:03:18.567000+00:00</time>
      </trkpt>
      <trkpt lat="47.33815" lon="-1.40112">
        <ele>126</ele>
        <time>2021-02-28T10:03:19.584000+00:00</time>
      </trkpt>
      <trkpt lat="0" lon="0">
        <time>2021-02-28T10:03:19.595000+00:00</time>
      </trkpt>
      <trkpt lat="0" lon="0">
        <time>2021-02-28T10:03:19.601000+00:00</time>
      </trkpt>
      <trkpt lat="0" lon="0">
        <time>2021-02-28T10:03:19.604000+00:00</time>
      </trkpt>
      <trkpt lat="47.33811" lon="-1.40107">
        <ele>125</ele>
        <time>2021-02-28T10:03:20.565000+00:00</time>
      </trkpt>
      <trkpt lat="0" lon="0">
        <time>2021-02-28T10:03:20.572000+00:00</time>
      </trkpt>
      <trkpt lat="0" lon="0">
        <time>2021-02-28T10:03:20.579000+00:00</time>
      </trkpt>
      <trkpt lat="0" lon="0">
        <time>2021-02-28T10:03:20.581000+00:00</time>
      </trkpt>
      <trkpt lat="47.33807" lon="-1.40101">
        <ele>125</ele>
        <time>2021-02-28T10:03:21.605000+00:00</time>
      </trkpt>
      <trkpt lat="0" lon="0">
        <time>2021-02-28T10:03:21.616000+00:00</time>
      </trkpt>
      <trkpt lat="0" lon="0">
        <time>2021-02-28T10:03:21.626000+00:00</time>
      </trkpt>
      <trkpt lat="0" lon="0">
        <time>2021-02-28T10:03:21.629000+00:00</time>
      </trkpt>
      <trkpt lat="47.33802" lon="-1.40096">
        <ele>125</ele>
        <time>2021-02-28T10:03:22.605000+00:00</time>
      </trkpt>
      <trkpt lat="0" lon="0">
        <time>2021-02-28T10:03:22.612000+00:00</time>
      </trkpt>
      <trkpt lat="0" lon="0">
        <time>2021-02-28T10:03:22.618000+00:00</time>
      </trkpt>
      <trkpt lat="0" lon="0">
        <time>2021-02-28T10:03:22.621000+00:00</time>
      </trkpt>
      <trkpt lat="47.33798" lon="-1.4009">
        <ele>125</ele>
        <time>2021-02-28T10:03:23.591000+00:00</time>
      </trkpt>
      <trkpt lat="0" lon="0">
        <time>2021-02-28T10:03:23.603000+00:00</time>
      </trkpt>
      <trkpt lat="0" lon="0">
        <time>2021-02-28T10:03:23.607000+00:00</time>
      </trkpt>
      <trkpt lat="0" lon="0">
        <time>2021-02-28T10:03:23.609000+00:00</time>
      </trkpt>
      <trkpt lat="47.33793" lon="-1.40085">
        <ele>125</ele>
        <time>2021-02-28T10:03:24.556000+00:00</time>
      </trkpt>
      <trkpt lat="0" lon="0">
        <time>2021-02-28T10:03:24.566000+00:00</time>
      </trkpt>
      <trkpt lat="0" lon="0">
        <time>2021-02-28T10:03:24.571000+00:00</time>
      </trkpt>
      <trkpt lat="0" lon="0">
        <time>2021-02-28T10:03:24.574000+00:00</time>
      </trkpt>
      <trkpt lat="47.33788" lon="-1.40079">
        <ele>125</ele>
        <time>2021-02-28T10:03:25.621000+00:00</time>
      </trkpt>
      <trkpt lat="0" lon="0">
        <time>2021-02-28T10:03:25.626000+00:00</time>
      </trkpt>
      <trkpt lat="0" lon="0">
        <time>2021-02-28T10:03:25.632000+00:00</time>
      </trkpt>
      <trkpt lat="0" lon="0">
        <time>2021-02-28T10:03:25.636000+00:00</time>
      </trkpt>
      <trkpt lat="47.33783" lon="-1.40073">
        <ele>124</ele>
        <time>2021-02-28T10:03:26.593000+00:00</time>
      </trkpt>
      <trkpt lat="0" lon="0">
        <time>2021-02-28T10:03:26.600000+00:00</time>
      </trkpt>
      <trkpt lat="0" lon="0">
        <time>2021-02-28T10:03:26.604000+00:00</time>
      </trkpt>
      <trkpt lat="0" lon="0">
        <time>2021-02-28T10:03:26.607000+00:00</time>
      </trkpt>
      <trkpt lat="47.33778" lon="-1.40067">
        <ele>124</ele>
        <time>2021-02-28T10:03:27.588000+00:00</time>
      </trkpt>
      <trkpt lat="0" lon="0">
        <time>2021-02-28T10:03:27.602000+00:00</time>
      </trkpt>
      <trkpt lat="0" lon="0">
        <time>2021-02-28T10:03:27.608000+00:00</time>
      </trkpt>
      <trkpt lat="0" lon="0">
        <time>2021-02-28T10:03:27.611000+00:00</time>
      </trkpt>
      <trkpt lat="47.33773" lon="-1.40061">
        <ele>124</ele>
        <time>2021-02-28T10:03:28.586000+00:00</time>
      </trkpt>
      <trkpt lat="0" lon="0">
        <time>2021-02-28T10:03:28.592000+00:00</time>
      </trkpt>
      <trkpt lat="0" lon="0">
        <time>2021-02-28T10:03:28.596000+00:00</time>
      </trkpt>
      <trkpt lat="0" lon="0">
        <time>2021-02-28T10:03:28.598000+00:00</time>
      </trkpt>
      <trkpt lat="47.33768" lon="-1.40054">
        <ele>124</ele>
        <time>2021-02-28T10:03:29.538000+00:00</time>
      </trkpt>
      <trkpt lat="0" lon="0">
        <time>2021-02-28T10:03:29.540000+00:00</time>
      </trkpt>
      <trkpt lat="0" lon="0">
        <time>2021-02-28T10:03:29.542000+00:00</time>
      </trkpt>
      <trkpt lat="0" lon="0">
        <time>2021-02-28T10:03:29.543000+00:00</time>
      </trkpt>
      <trkpt lat="47.33763" lon="-1.40048">
        <ele>123</ele>
        <time>2021-02-28T10:03:30.543000+00:00</time>
      </trkpt>
      <trkpt lat="0" lon="0">
        <time>2021-02-28T10:03:30.552000+00:00</time>
      </trkpt>
      <trkpt lat="0" lon="0">
        <time>2021-02-28T10:03:30.556000+00:00</time>
      </trkpt>
      <trkpt lat="0" lon="0">
        <time>2021-02-28T10:03:30.559000+00:00</time>
      </trkpt>
      <trkpt lat="47.33758" lon="-1.40042">
        <ele>123</ele>
        <time>2021-02-28T10:03:31.561000+00:00</time>
      </trkpt>
      <trkpt lat="0" lon="0">
        <time>2021-02-28T10:03:31.576000+00:00</time>
      </trkpt>
      <trkpt lat="0" lon="0">
        <time>2021-02-28T10:03:31.583000+00:00</time>
      </trkpt>
      <trkpt lat="0" lon="0">
        <time>2021-02-28T10:03:31.587000+00:00</time>
      </trkpt>
      <trkpt lat="47.33753" lon="-1.40036">
        <ele>123</ele>
        <time>2021-02-28T10:03:32.554000+00:00</time>
      </trkpt>
      <trkpt lat="0" lon="0">
        <time>2021-02-28T10:03:32.561000+00:00</time>
      </trkpt>
      <trkpt lat="0" lon="0">
        <time>2021-02-28T10:03:32.566000+00:00</time>
      </trkpt>
      <trkpt lat="0" lon="0">
        <time>2021-02-28T10:03:32.569000+00:00</time>
      </trkpt>
      <trkpt lat="47.33748" lon="-1.4003">
        <ele>123</ele>
        <time>2021-02-28T10:03:33.588000+00:00</time>
      </trkpt>
      <trkpt lat="0" lon="0">
        <time>2021-02-28T10:03:33.599000+00:00</time>
      </trkpt>
      <trkpt lat="0" lon="0">
        <time>2021-02-28T10:03:33.604000+00:00</time>
      </trkpt>
      <trkpt lat="0" lon="0">
        <time>2021-02-28T10:03:33.607000+00:00</time>
      </trkpt>
      <trkpt lat="47.33744" lon="-1.40023">
        <ele>122</ele>
        <time>2021-02-28T10:03:34.594000+00:00</time>
      </trkpt>
      <trkpt lat="0" lon="0">
        <time>2021-02-28T10:03:34.605000+00:00</time>
      </trkpt>
      <trkpt lat="0" lon="0">
        <time>2021-02-28T10:03:34.611000+00:00</time>
      </trkpt>
      <trkpt lat="0" lon="0">
        <time>2021-02-28T10:03:34.615000+00:00</time>
      </trkpt>
      <trkpt lat="47.33739" lon="-1.40016">
        <ele>122</ele>
        <time>2021-02-28T10:03:35.514000+00:00</time>
      </trkpt>
      <trkpt lat="0" lon="0">
        <time>2021-02-28T10:03:35.523000+00:00</time>
      </trkpt>
      <trkpt lat="0" lon="0">
        <time>2021-02-28T10:03:35.527000+00:00</time>
      </trkpt>
      <trkpt lat="0" lon="0">
        <time>2021-02-28T10:03:35.530000+00:00</time>
      </trkpt>
      <trkpt lat="47.33734" lon="-1.4001">
        <ele>122</ele>
        <time>2021-02-28T10:03:36.572000+00:00</time>
      </trkpt>
      <trkpt lat="0" lon="0">
        <time>2021-02-28T10:03:36.586000+00:00</time>
      </trkpt>
      <trkpt lat="0" lon="0">
        <time>2021-02-28T10:03:36.592000+00:00</time>
      </trkpt>
      <trkpt lat="0" lon="0">
        <time>2021-02-28T10:03:36.596000+00:00</time>
      </trkpt>
      <trkpt lat="47.33729" lon="-1.40003">
        <ele>122</ele>
        <time>2021-02-28T10:03:37.572000+00:00</time>
      </trkpt>
      <trkpt lat="0" lon="0">
        <time>2021-02-28T10:03:37.579000+00:00</time>
      </trkpt>
      <trkpt lat="0" lon="0">
        <time>2021-02-28T10:03:37.586000+00:00</time>
      </trkpt>
      <trkpt lat="0" lon="0">
        <time>2021-02-28T10:03:37.593000+00:00</time>
      </trkpt>
      <trkpt lat="47.33725" lon="-1.39996">
        <ele>122</ele>
        <time>2021-02-28T10:03:38.573000+00:00</time>
      </trkpt>
      <trkpt lat="0" lon="0">
        <time>2021-02-28T10:03:38.588000+00:00</time>
      </trkpt>
      <trkpt lat="0" lon="0">
        <time>2021-02-28T10:03:38.593000+00:00</time>
      </trkpt>
      <trkpt lat="0" lon="0">
        <time>2021-02-28T10:03:38.595000+00:00</time>
      </trkpt>
      <trkpt lat="47.3372" lon="-1.39989">
        <ele>121</ele>
        <time>2021-02-28T10:03:39.568000+00:00</time>
      </trkpt>
      <trkpt lat="0" lon="0">
        <time>2021-02-28T10:03:39.576000+00:00</time>
      </trkpt>
      <trkpt lat="0" lon="0">
        <time>2021-02-28T10:03:39.581000+00:00</time>
      </trkpt>
      <trkpt lat="0" lon="0">
        <time>2021-02-28T10:03:39.584000+00:00</time>
      </trkpt>
      <trkpt lat="47.33715" lon="-1.39981">
        <ele>120</ele>
        <time>2021-02-28T10:03:40.582000+00:00</time>
      </trkpt>
      <trkpt lat="0" lon="0">
        <time>2021-02-28T10:03:40.590000+00:00</time>
      </trkpt>
      <trkpt lat="0" lon="0">
        <time>2021-02-28T10:03:40.595000+00:00</time>
      </trkpt>
      <trkpt lat="0" lon="0">
        <time>2021-02-28T10:03:40.597000+00:00</time>
      </trkpt>
      <trkpt lat="47.3371" lon="-1.39974">
        <ele>120</ele>
        <time>2021-02-28T10:03:41.617000+00:00</time>
      </trkpt>
      <trkpt lat="0" lon="0">
        <time>2021-02-28T10:03:41.627000+00:00</time>
      </trkpt>
      <trkpt lat="0" lon="0">
        <time>2021-02-28T10:03:41.632000+00:00</time>
      </trkpt>
      <trkpt lat="0" lon="0">
        <time>2021-02-28T10:03:41.635000+00:00</time>
      </trkpt>
      <trkpt lat="47.33706" lon="-1.39967">
        <ele>120</ele>
        <time>2021-02-28T10:03:42.579000+00:00</time>
      </trkpt>
      <trkpt lat="0" lon="0">
        <time>2021-02-28T10:03:42.589000+00:00</time>
      </trkpt>
      <trkpt lat="0" lon="0">
        <time>2021-02-28T10:03:42.595000+00:00</time>
      </trkpt>
      <trkpt lat="0" lon="0">
        <time>2021-02-28T10:03:42.598000+00:00</time>
      </trkpt>
      <trkpt lat="47.33701" lon="-1.3996">
        <ele>119</ele>
        <time>2021-02-28T10:03:43.601000+00:00</time>
      </trkpt>
      <trkpt lat="0" lon="0">
        <time>2021-02-28T10:03:43.609000+00:00</time>
      </trkpt>
      <trkpt lat="0" lon="0">
        <time>2021-02-28T10:03:43.614000+00:00</time>
      </trkpt>
      <trkpt lat="0" lon="0">
        <time>2021-02-28T10:03:43.617000+00:00</time>
      </trkpt>
      <trkpt lat="47.33697" lon="-1.39952">
        <ele>119</ele>
        <time>2021-02-28T10:03:44.570000+00:00</time>
      </trkpt>
      <trkpt lat="0" lon="0">
        <time>2021-02-28T10:03:44.579000+00:00</time>
      </trkpt>
      <trkpt lat="0" lon="0">
        <time>2021-02-28T10:03:44.584000+00:00</time>
      </trkpt>
      <trkpt lat="0" lon="0">
        <time>2021-02-28T10:03:44.587000+00:00</time>
      </trkpt>
      <trkpt lat="47.33692" lon="-1.39945">
        <ele>119</ele>
        <time>2021-02-28T10:03:45.591000+00:00</time>
      </trkpt>
      <trkpt lat="0" lon="0">
        <time>2021-02-28T10:03:45.597000+00:00</time>
      </trkpt>
      <trkpt lat="0" lon="0">
        <time>2021-02-28T10:03:45.604000+00:00</time>
      </trkpt>
      <trkpt lat="0" lon="0">
        <time>2021-02-28T10:03:45.607000+00:00</time>
      </trkpt>
      <trkpt lat="47.33687" lon="-1.39938">
        <ele>119</ele>
        <time>2021-02-28T10:03:46.541000+00:00</time>
      </trkpt>
      <trkpt lat="0" lon="0">
        <time>2021-02-28T10:03:46.552000+00:00</time>
      </trkpt>
      <trkpt lat="0" lon="0">
        <time>2021-02-28T10:03:46.562000+00:00</time>
      </trkpt>
      <trkpt lat="0" lon="0">
        <time>2021-02-28T10:03:46.565000+00:00</time>
      </trkpt>
      <trkpt lat="47.33683" lon="-1.3993">
        <ele>119</ele>
        <time>2021-02-28T10:03:47.545000+00:00</time>
      </trkpt>
      <trkpt lat="0" lon="0">
        <time>2021-02-28T10:03:47.560000+00:00</time>
      </trkpt>
      <trkpt lat="0" lon="0">
        <time>2021-02-28T10:03:47.568000+00:00</time>
      </trkpt>
      <trkpt lat="0" lon="0">
        <time>2021-02-28T10:03:47.571000+00:00</time>
      </trkpt>
      <trkpt lat="47.33678" lon="-1.39923">
        <ele>119</ele>
        <time>2021-02-28T10:03:48.594000+00:00</time>
      </trkpt>
      <trkpt lat="0" lon="0">
        <time>2021-02-28T10:03:48.601000+00:00</time>
      </trkpt>
      <trkpt lat="0" lon="0">
        <time>2021-02-28T10:03:48.606000+00:00</time>
      </trkpt>
      <trkpt lat="0" lon="0">
        <time>2021-02-28T10:03:48.608000+00:00</time>
      </trkpt>
      <trkpt lat="47.33673" lon="-1.39916">
        <ele>119</ele>
        <time>2021-02-28T10:03:49.550000+00:00</time>
      </trkpt>
      <trkpt lat="0" lon="0">
        <time>2021-02-28T10:03:49.559000+00:00</time>
      </trkpt>
      <trkpt lat="0" lon="0">
        <time>2021-02-28T10:03:49.564000+00:00</time>
      </trkpt>
      <trkpt lat="0" lon="0">
        <time>2021-02-28T10:03:49.568000+00:00</time>
      </trkpt>
      <trkpt lat="47.33669" lon="-1.39909">
        <ele>119</ele>
        <time>2021-02-28T10:03:50.584000+00:00</time>
      </trkpt>
      <trkpt lat="0" lon="0">
        <time>2021-02-28T10:03:50.591000+00:00</time>
      </trkpt>
      <trkpt lat="0" lon="0">
        <time>2021-02-28T10:03:50.595000+00:00</time>
      </trkpt>
      <trkpt lat="0" lon="0">
        <time>2021-02-28T10:03:50.597000+00:00</time>
      </trkpt>
      <trkpt lat="47.33664" lon="-1.39902">
        <ele>119</ele>
        <time>2021-02-28T10:03:51.564000+00:00</time>
      </trkpt>
      <trkpt lat="0" lon="0">
        <time>2021-02-28T10:03:51.569000+00:00</time>
      </trkpt>
      <trkpt lat="0" lon="0">
        <time>2021-02-28T10:03:51.574000+00:00</time>
      </trkpt>
      <trkpt lat="0" lon="0">
        <time>2021-02-28T10:03:51.577000+00:00</time>
      </trkpt>
      <trkpt lat="47.33659" lon="-1.39895">
        <ele>119</ele>
        <time>2021-02-28T10:03:52.566000+00:00</time>
      </trkpt>
      <trkpt lat="0" lon="0">
        <time>2021-02-28T10:03:52.571000+00:00</time>
      </trkpt>
      <trkpt lat="0" lon="0">
        <time>2021-02-28T10:03:52.577000+00:00</time>
      </trkpt>
      <trkpt lat="0" lon="0">
        <time>2021-02-28T10:03:52.579000+00:00</time>
      </trkpt>
      <trkpt lat="47.33654" lon="-1.39888">
        <ele>119</ele>
        <time>2021-02-28T10:03:53.591000+00:00</time>
      </trkpt>
      <trkpt lat="0" lon="0">
        <time>2021-02-28T10:03:53.595000+00:00</time>
      </trkpt>
      <trkpt lat="0" lon="0">
        <time>2021-02-28T10:03:53.601000+00:00</time>
      </trkpt>
      <trkpt lat="0" lon="0">
        <time>2021-02-28T10:03:53.604000+00:00</time>
      </trkpt>
      <trkpt lat="47.33649" lon="-1.39882">
        <ele>118</ele>
        <time>2021-02-28T10:03:54.589000+00:00</time>
      </trkpt>
      <trkpt lat="0" lon="0">
        <time>2021-02-28T10:03:54.597000+00:00</time>
      </trkpt>
      <trkpt lat="0" lon="0">
        <time>2021-02-28T10:03:54.601000+00:00</time>
      </trkpt>
      <trkpt lat="0" lon="0">
        <time>2021-02-28T10:03:54.603000+00:00</time>
      </trkpt>
      <trkpt lat="47.33644" lon="-1.39875">
        <ele>118</ele>
        <time>2021-02-28T10:03:55.593000+00:00</time>
      </trkpt>
      <trkpt lat="0" lon="0">
        <time>2021-02-28T10:03:55.597000+00:00</time>
      </trkpt>
      <trkpt lat="0" lon="0">
        <time>2021-02-28T10:03:55.602000+00:00</time>
      </trkpt>
      <trkpt lat="0" lon="0">
        <time>2021-02-28T10:03:55.605000+00:00</time>
      </trkpt>
      <trkpt lat="47.33639" lon="-1.39868">
        <ele>118</ele>
        <time>2021-02-28T10:03:56.565000+00:00</time>
      </trkpt>
      <trkpt lat="0" lon="0">
        <time>2021-02-28T10:03:56.570000+00:00</time>
      </trkpt>
      <trkpt lat="0" lon="0">
        <time>2021-02-28T10:03:56.574000+00:00</time>
      </trkpt>
      <trkpt lat="0" lon="0">
        <time>2021-02-28T10:03:56.580000+00:00</time>
      </trkpt>
      <trkpt lat="47.33634" lon="-1.39861">
        <ele>118</ele>
        <time>2021-02-28T10:03:57.601000+00:00</time>
      </trkpt>
      <trkpt lat="0" lon="0">
        <time>2021-02-28T10:03:57.609000+00:00</time>
      </trkpt>
      <trkpt lat="0" lon="0">
        <time>2021-02-28T10:03:57.615000+00:00</time>
      </trkpt>
      <trkpt lat="0" lon="0">
        <time>2021-02-28T10:03:57.617000+00:00</time>
      </trkpt>
      <trkpt lat="47.33629" lon="-1.39855">
        <ele>117</ele>
        <time>2021-02-28T10:03:58.575000+00:00</time>
      </trkpt>
      <trkpt lat="0" lon="0">
        <time>2021-02-28T10:03:58.577000+00:00</time>
      </trkpt>
      <trkpt lat="0" lon="0">
        <time>2021-02-28T10:03:58.580000+00:00</time>
      </trkpt>
      <trkpt lat="0" lon="0">
        <time>2021-02-28T10:03:58.581000+00:00</time>
      </trkpt>
      <trkpt lat="47.33624" lon="-1.39848">
        <ele>117</ele>
        <time>2021-02-28T10:03:59.565000+00:00</time>
      </trkpt>
      <trkpt lat="0" lon="0">
        <time>2021-02-28T10:03:59.572000+00:00</time>
      </trkpt>
      <trkpt lat="0" lon="0">
        <time>2021-02-28T10:03:59.578000+00:00</time>
      </trkpt>
      <trkpt lat="0" lon="0">
        <time>2021-02-28T10:03:59.581000+00:00</time>
      </trkpt>
      <trkpt lat="47.33619" lon="-1.39842">
        <ele>117</ele>
        <time>2021-02-28T10:04:00.581000+00:00</time>
      </trkpt>
      <trkpt lat="0" lon="0">
        <time>2021-02-28T10:04:00.588000+00:00</time>
      </trkpt>
      <trkpt lat="0" lon="0">
        <time>2021-02-28T10:04:00.593000+00:00</time>
      </trkpt>
      <trkpt lat="0" lon="0">
        <time>2021-02-28T10:04:00.595000+00:00</time>
      </trkpt>
      <trkpt lat="47.33614" lon="-1.39835">
        <ele>117</ele>
        <time>2021-02-28T10:04:01.588000+00:00</time>
      </trkpt>
      <trkpt lat="0" lon="0">
        <time>2021-02-28T10:04:01.599000+00:00</time>
      </trkpt>
      <trkpt lat="0" lon="0">
        <time>2021-02-28T10:04:01.604000+00:00</time>
      </trkpt>
      <trkpt lat="0" lon="0">
        <time>2021-02-28T10:04:01.607000+00:00</time>
      </trkpt>
      <trkpt lat="47.3361" lon="-1.39829">
        <ele>117</ele>
        <time>2021-02-28T10:04:02.598000+00:00</time>
      </trkpt>
      <trkpt lat="0" lon="0">
        <time>2021-02-28T10:04:02.604000+00:00</time>
      </trkpt>
      <trkpt lat="0" lon="0">
        <time>2021-02-28T10:04:02.609000+00:00</time>
      </trkpt>
      <trkpt lat="0" lon="0">
        <time>2021-02-28T10:04:02.612000+00:00</time>
      </trkpt>
      <trkpt lat="47.33605" lon="-1.39822">
        <ele>116</ele>
        <time>2021-02-28T10:04:03.591000+00:00</time>
      </trkpt>
      <trkpt lat="0" lon="0">
        <time>2021-02-28T10:04:03.600000+00:00</time>
      </trkpt>
      <trkpt lat="0" lon="0">
        <time>2021-02-28T10:04:03.608000+00:00</time>
      </trkpt>
      <trkpt lat="0" lon="0">
        <time>2021-02-28T10:04:03.611000+00:00</time>
      </trkpt>
      <trkpt lat="47.336" lon="-1.39816">
        <ele>116</ele>
        <time>2021-02-28T10:04:04.561000+00:00</time>
      </trkpt>
      <trkpt lat="0" lon="0">
        <time>2021-02-28T10:04:04.566000+00:00</time>
      </trkpt>
      <trkpt lat="0" lon="0">
        <time>2021-02-28T10:04:04.571000+00:00</time>
      </trkpt>
      <trkpt lat="0" lon="0">
        <time>2021-02-28T10:04:04.573000+00:00</time>
      </trkpt>
      <trkpt lat="47.33595" lon="-1.39809">
        <ele>116</ele>
        <time>2021-02-28T10:04:05.537000+00:00</time>
      </trkpt>
      <trkpt lat="0" lon="0">
        <time>2021-02-28T10:04:05.542000+00:00</time>
      </trkpt>
      <trkpt lat="0" lon="0">
        <time>2021-02-28T10:04:05.546000+00:00</time>
      </trkpt>
      <trkpt lat="0" lon="0">
        <time>2021-02-28T10:04:05.549000+00:00</time>
      </trkpt>
      <trkpt lat="47.33591" lon="-1.39803">
        <ele>116</ele>
        <time>2021-02-28T10:04:06.578000+00:00</time>
      </trkpt>
      <trkpt lat="0" lon="0">
        <time>2021-02-28T10:04:06.590000+00:00</time>
      </trkpt>
      <trkpt lat="0" lon="0">
        <time>2021-02-28T10:04:06.595000+00:00</time>
      </trkpt>
      <trkpt lat="0" lon="0">
        <time>2021-02-28T10:04:06.597000+00:00</time>
      </trkpt>
      <trkpt lat="47.33586" lon="-1.39797">
        <ele>116</ele>
        <time>2021-02-28T10:04:07.570000+00:00</time>
      </trkpt>
      <trkpt lat="0" lon="0">
        <time>2021-02-28T10:04:07.582000+00:00</time>
      </trkpt>
      <trkpt lat="0" lon="0">
        <time>2021-02-28T10:04:07.587000+00:00</time>
      </trkpt>
      <trkpt lat="0" lon="0">
        <time>2021-02-28T10:04:07.590000+00:00</time>
      </trkpt>
      <trkpt lat="47.33581" lon="-1.3979">
        <ele>116</ele>
        <time>2021-02-28T10:04:08.593000+00:00</time>
      </trkpt>
      <trkpt lat="0" lon="0">
        <time>2021-02-28T10:04:08.599000+00:00</time>
      </trkpt>
      <trkpt lat="0" lon="0">
        <time>2021-02-28T10:04:08.607000+00:00</time>
      </trkpt>
      <trkpt lat="0" lon="0">
        <time>2021-02-28T10:04:08.610000+00:00</time>
      </trkpt>
      <trkpt lat="47.33577" lon="-1.39784">
        <ele>116</ele>
        <time>2021-02-28T10:04:09.552000+00:00</time>
      </trkpt>
      <trkpt lat="0" lon="0">
        <time>2021-02-28T10:04:09.565000+00:00</time>
      </trkpt>
      <trkpt lat="0" lon="0">
        <time>2021-02-28T10:04:09.571000+00:00</time>
      </trkpt>
      <trkpt lat="0" lon="0">
        <time>2021-02-28T10:04:09.573000+00:00</time>
      </trkpt>
      <trkpt lat="47.33572" lon="-1.39777">
        <ele>116</ele>
        <time>2021-02-28T10:04:10.568000+00:00</time>
      </trkpt>
      <trkpt lat="0" lon="0">
        <time>2021-02-28T10:04:10.578000+00:00</time>
      </trkpt>
      <trkpt lat="0" lon="0">
        <time>2021-02-28T10:04:10.584000+00:00</time>
      </trkpt>
      <trkpt lat="0" lon="0">
        <time>2021-02-28T10:04:10.586000+00:00</time>
      </trkpt>
      <trkpt lat="47.33568" lon="-1.39771">
        <ele>116</ele>
        <time>2021-02-28T10:04:11.596000+00:00</time>
      </trkpt>
      <trkpt lat="0" lon="0">
        <time>2021-02-28T10:04:11.604000+00:00</time>
      </trkpt>
      <trkpt lat="0" lon="0">
        <time>2021-02-28T10:04:11.609000+00:00</time>
      </trkpt>
      <trkpt lat="0" lon="0">
        <time>2021-02-28T10:04:11.612000+00:00</time>
      </trkpt>
      <trkpt lat="47.33563" lon="-1.39764">
        <ele>116</ele>
        <time>2021-02-28T10:04:12.585000+00:00</time>
      </trkpt>
      <trkpt lat="0" lon="0">
        <time>2021-02-28T10:04:12.595000+00:00</time>
      </trkpt>
      <trkpt lat="0" lon="0">
        <time>2021-02-28T10:04:12.600000+00:00</time>
      </trkpt>
      <trkpt lat="0" lon="0">
        <time>2021-02-28T10:04:12.603000+00:00</time>
      </trkpt>
      <trkpt lat="47.33559" lon="-1.39757">
        <ele>116</ele>
        <time>2021-02-28T10:04:13.613000+00:00</time>
      </trkpt>
      <trkpt lat="0" lon="0">
        <time>2021-02-28T10:04:13.621000+00:00</time>
      </trkpt>
      <trkpt lat="0" lon="0">
        <time>2021-02-28T10:04:13.625000+00:00</time>
      </trkpt>
      <trkpt lat="0" lon="0">
        <time>2021-02-28T10:04:13.628000+00:00</time>
      </trkpt>
      <trkpt lat="47.33554" lon="-1.39751">
        <ele>115</ele>
        <time>2021-02-28T10:04:14.594000+00:00</time>
      </trkpt>
      <trkpt lat="0" lon="0">
        <time>2021-02-28T10:04:14.604000+00:00</time>
      </trkpt>
      <trkpt lat="0" lon="0">
        <time>2021-02-28T10:04:14.612000+00:00</time>
      </trkpt>
      <trkpt lat="0" lon="0">
        <time>2021-02-28T10:04:14.615000+00:00</time>
      </trkpt>
      <trkpt lat="47.33549" lon="-1.39744">
        <ele>115</ele>
        <time>2021-02-28T10:04:15.572000+00:00</time>
      </trkpt>
      <trkpt lat="0" lon="0">
        <time>2021-02-28T10:04:15.579000+00:00</time>
      </trkpt>
      <trkpt lat="0" lon="0">
        <time>2021-02-28T10:04:15.583000+00:00</time>
      </trkpt>
      <trkpt lat="0" lon="0">
        <time>2021-02-28T10:04:15.586000+00:00</time>
      </trkpt>
      <trkpt lat="47.33545" lon="-1.39737">
        <ele>115</ele>
        <time>2021-02-28T10:04:16.583000+00:00</time>
      </trkpt>
      <trkpt lat="0" lon="0">
        <time>2021-02-28T10:04:16.592000+00:00</time>
      </trkpt>
      <trkpt lat="0" lon="0">
        <time>2021-02-28T10:04:16.597000+00:00</time>
      </trkpt>
      <trkpt lat="0" lon="0">
        <time>2021-02-28T10:04:16.600000+00:00</time>
      </trkpt>
      <trkpt lat="47.33541" lon="-1.39731">
        <ele>115</ele>
        <time>2021-02-28T10:04:17.564000+00:00</time>
      </trkpt>
      <trkpt lat="0" lon="0">
        <time>2021-02-28T10:04:17.572000+00:00</time>
      </trkpt>
      <trkpt lat="0" lon="0">
        <time>2021-02-28T10:04:17.577000+00:00</time>
      </trkpt>
      <trkpt lat="0" lon="0">
        <time>2021-02-28T10:04:17.579000+00:00</time>
      </trkpt>
      <trkpt lat="47.33536" lon="-1.39724">
        <ele>116</ele>
        <time>2021-02-28T10:04:18.549000+00:00</time>
      </trkpt>
      <trkpt lat="0" lon="0">
        <time>2021-02-28T10:04:18.555000+00:00</time>
      </trkpt>
      <trkpt lat="0" lon="0">
        <time>2021-02-28T10:04:18.559000+00:00</time>
      </trkpt>
      <trkpt lat="0" lon="0">
        <time>2021-02-28T10:04:18.561000+00:00</time>
      </trkpt>
      <trkpt lat="47.33532" lon="-1.39718">
        <ele>116</ele>
        <time>2021-02-28T10:04:19.579000+00:00</time>
      </trkpt>
      <trkpt lat="0" lon="0">
        <time>2021-02-28T10:04:19.589000+00:00</time>
      </trkpt>
      <trkpt lat="0" lon="0">
        <time>2021-02-28T10:04:19.593000+00:00</time>
      </trkpt>
      <trkpt lat="0" lon="0">
        <time>2021-02-28T10:04:19.596000+00:00</time>
      </trkpt>
      <trkpt lat="47.33528" lon="-1.39711">
        <ele>116</ele>
        <time>2021-02-28T10:04:20.529000+00:00</time>
      </trkpt>
      <trkpt lat="0" lon="0">
        <time>2021-02-28T10:04:20.537000+00:00</time>
      </trkpt>
      <trkpt lat="0" lon="0">
        <time>2021-02-28T10:04:20.541000+00:00</time>
      </trkpt>
      <trkpt lat="0" lon="0">
        <time>2021-02-28T10:04:20.544000+00:00</time>
      </trkpt>
      <trkpt lat="47.33524" lon="-1.39705">
        <ele>115</ele>
        <time>2021-02-28T10:04:21.608000+00:00</time>
      </trkpt>
      <trkpt lat="0" lon="0">
        <time>2021-02-28T10:04:21.616000+00:00</time>
      </trkpt>
      <trkpt lat="0" lon="0">
        <time>2021-02-28T10:04:21.622000+00:00</time>
      </trkpt>
      <trkpt lat="0" lon="0">
        <time>2021-02-28T10:04:21.625000+00:00</time>
      </trkpt>
      <trkpt lat="47.3352" lon="-1.39698">
        <ele>115</ele>
        <time>2021-02-28T10:04:22.594000+00:00</time>
      </trkpt>
      <trkpt lat="0" lon="0">
        <time>2021-02-28T10:04:22.598000+00:00</time>
      </trkpt>
      <trkpt lat="0" lon="0">
        <time>2021-02-28T10:04:22.602000+00:00</time>
      </trkpt>
      <trkpt lat="0" lon="0">
        <time>2021-02-28T10:04:22.604000+00:00</time>
      </trkpt>
      <trkpt lat="47.33516" lon="-1.39692">
        <ele>115</ele>
        <time>2021-02-28T10:04:23.550000+00:00</time>
      </trkpt>
      <trkpt lat="0" lon="0">
        <time>2021-02-28T10:04:23.555000+00:00</time>
      </trkpt>
      <trkpt lat="0" lon="0">
        <time>2021-02-28T10:04:23.559000+00:00</time>
      </trkpt>
      <trkpt lat="0" lon="0">
        <time>2021-02-28T10:04:23.561000+00:00</time>
      </trkpt>
      <trkpt lat="47.33512" lon="-1.39687">
        <ele>116</ele>
        <time>2021-02-28T10:04:24.599000+00:00</time>
      </trkpt>
      <trkpt lat="0" lon="0">
        <time>2021-02-28T10:04:24.607000+00:00</time>
      </trkpt>
      <trkpt lat="0" lon="0">
        <time>2021-02-28T10:04:24.612000+00:00</time>
      </trkpt>
      <trkpt lat="0" lon="0">
        <time>2021-02-28T10:04:24.615000+00:00</time>
      </trkpt>
      <trkpt lat="47.33508" lon="-1.39681">
        <ele>116</ele>
        <time>2021-02-28T10:04:25.612000+00:00</time>
      </trkpt>
      <trkpt lat="0" lon="0">
        <time>2021-02-28T10:04:25.628000+00:00</time>
      </trkpt>
      <trkpt lat="0" lon="0">
        <time>2021-02-28T10:04:25.634000+00:00</time>
      </trkpt>
      <trkpt lat="0" lon="0">
        <time>2021-02-28T10:04:25.637000+00:00</time>
      </trkpt>
      <trkpt lat="47.33504" lon="-1.39676">
        <ele>116</ele>
        <time>2021-02-28T10:04:26.532000+00:00</time>
      </trkpt>
      <trkpt lat="0" lon="0">
        <time>2021-02-28T10:04:26.535000+00:00</time>
      </trkpt>
      <trkpt lat="0" lon="0">
        <time>2021-02-28T10:04:26.536000+00:00</time>
      </trkpt>
      <trkpt lat="0" lon="0">
        <time>2021-02-28T10:04:26.537000+00:00</time>
      </trkpt>
      <trkpt lat="47.33501" lon="-1.3967">
        <ele>116</ele>
        <time>2021-02-28T10:04:27.493000+00:00</time>
      </trkpt>
      <trkpt lat="0" lon="0">
        <time>2021-02-28T10:04:27.500000+00:00</time>
      </trkpt>
      <trkpt lat="0" lon="0">
        <time>2021-02-28T10:04:27.503000+00:00</time>
      </trkpt>
      <trkpt lat="0" lon="0">
        <time>2021-02-28T10:04:27.505000+00:00</time>
      </trkpt>
      <trkpt lat="47.33498" lon="-1.39665">
        <ele>117</ele>
        <time>2021-02-28T10:04:28.514000+00:00</time>
      </trkpt>
      <trkpt lat="0" lon="0">
        <time>2021-02-28T10:04:28.521000+00:00</time>
      </trkpt>
      <trkpt lat="0" lon="0">
        <time>2021-02-28T10:04:28.528000+00:00</time>
      </trkpt>
      <trkpt lat="0" lon="0">
        <time>2021-02-28T10:04:28.530000+00:00</time>
      </trkpt>
      <trkpt lat="47.33494" lon="-1.3966">
        <ele>117</ele>
        <time>2021-02-28T10:04:29.508000+00:00</time>
      </trkpt>
      <trkpt lat="0" lon="0">
        <time>2021-02-28T10:04:29.515000+00:00</time>
      </trkpt>
      <trkpt lat="0" lon="0">
        <time>2021-02-28T10:04:29.518000+00:00</time>
      </trkpt>
      <trkpt lat="0" lon="0">
        <time>2021-02-28T10:04:29.519000+00:00</time>
      </trkpt>
      <trkpt lat="47.33491" lon="-1.39655">
        <ele>117</ele>
        <time>2021-02-28T10:04:30.537000+00:00</time>
      </trkpt>
      <trkpt lat="0" lon="0">
        <time>2021-02-28T10:04:30.542000+00:00</time>
      </trkpt>
      <trkpt lat="0" lon="0">
        <time>2021-02-28T10:04:30.546000+00:00</time>
      </trkpt>
      <trkpt lat="0" lon="0">
        <time>2021-02-28T10:04:30.547000+00:00</time>
      </trkpt>
      <trkpt lat="47.33488" lon="-1.39651">
        <ele>118</ele>
        <time>2021-02-28T10:04:31.546000+00:00</time>
      </trkpt>
      <trkpt lat="0" lon="0">
        <time>2021-02-28T10:04:31.553000+00:00</time>
      </trkpt>
      <trkpt lat="0" lon="0">
        <time>2021-02-28T10:04:31.560000+00:00</time>
      </trkpt>
      <trkpt lat="0" lon="0">
        <time>2021-02-28T10:04:31.563000+00:00</time>
      </trkpt>
      <trkpt lat="47.33484" lon="-1.39647">
        <ele>118</ele>
        <time>2021-02-28T10:04:32.496000+00:00</time>
      </trkpt>
      <trkpt lat="0" lon="0">
        <time>2021-02-28T10:04:32.503000+00:00</time>
      </trkpt>
      <trkpt lat="0" lon="0">
        <time>2021-02-28T10:04:32.509000+00:00</time>
      </trkpt>
      <trkpt lat="0" lon="0">
        <time>2021-02-28T10:04:32.511000+00:00</time>
      </trkpt>
      <trkpt lat="47.33481" lon="-1.39642">
        <ele>118</ele>
        <time>2021-02-28T10:04:33.572000+00:00</time>
      </trkpt>
      <trkpt lat="0" lon="0">
        <time>2021-02-28T10:04:33.580000+00:00</time>
      </trkpt>
      <trkpt lat="0" lon="0">
        <time>2021-02-28T10:04:33.587000+00:00</time>
      </trkpt>
      <trkpt lat="0" lon="0">
        <time>2021-02-28T10:04:33.590000+00:00</time>
      </trkpt>
      <trkpt lat="47.33477" lon="-1.39638">
        <ele>118</ele>
        <time>2021-02-28T10:04:34.558000+00:00</time>
      </trkpt>
      <trkpt lat="0" lon="0">
        <time>2021-02-28T10:04:34.563000+00:00</time>
      </trkpt>
      <trkpt lat="0" lon="0">
        <time>2021-02-28T10:04:34.568000+00:00</time>
      </trkpt>
      <trkpt lat="0" lon="0">
        <time>2021-02-28T10:04:34.571000+00:00</time>
      </trkpt>
      <trkpt lat="47.33474" lon="-1.39634">
        <ele>119</ele>
        <time>2021-02-28T10:04:35.550000+00:00</time>
      </trkpt>
      <trkpt lat="0" lon="0">
        <time>2021-02-28T10:04:35.558000+00:00</time>
      </trkpt>
      <trkpt lat="0" lon="0">
        <time>2021-02-28T10:04:35.563000+00:00</time>
      </trkpt>
      <trkpt lat="0" lon="0">
        <time>2021-02-28T10:04:35.565000+00:00</time>
      </trkpt>
      <trkpt lat="47.33471" lon="-1.3963">
        <ele>119</ele>
        <time>2021-02-28T10:04:36.541000+00:00</time>
      </trkpt>
      <trkpt lat="0" lon="0">
        <time>2021-02-28T10:04:36.553000+00:00</time>
      </trkpt>
      <trkpt lat="0" lon="0">
        <time>2021-02-28T10:04:36.557000+00:00</time>
      </trkpt>
      <trkpt lat="0" lon="0">
        <time>2021-02-28T10:04:36.560000+00:00</time>
      </trkpt>
      <trkpt lat="47.33467" lon="-1.39626">
        <ele>119</ele>
        <time>2021-02-28T10:04:37.542000+00:00</time>
      </trkpt>
      <trkpt lat="0" lon="0">
        <time>2021-02-28T10:04:37.554000+00:00</time>
      </trkpt>
      <trkpt lat="0" lon="0">
        <time>2021-02-28T10:04:37.559000+00:00</time>
      </trkpt>
      <trkpt lat="0" lon="0">
        <time>2021-02-28T10:04:37.561000+00:00</time>
      </trkpt>
      <trkpt lat="47.33464" lon="-1.39622">
        <ele>119</ele>
        <time>2021-02-28T10:04:38.607000+00:00</time>
      </trkpt>
      <trkpt lat="0" lon="0">
        <time>2021-02-28T10:04:38.613000+00:00</time>
      </trkpt>
      <trkpt lat="0" lon="0">
        <time>2021-02-28T10:04:38.618000+00:00</time>
      </trkpt>
      <trkpt lat="0" lon="0">
        <time>2021-02-28T10:04:38.621000+00:00</time>
      </trkpt>
      <trkpt lat="47.3346" lon="-1.39618">
        <ele>120</ele>
        <time>2021-02-28T10:04:39.606000+00:00</time>
      </trkpt>
      <trkpt lat="0" lon="0">
        <time>2021-02-28T10:04:39.615000+00:00</time>
      </trkpt>
      <trkpt lat="0" lon="0">
        <time>2021-02-28T10:04:39.621000+00:00</time>
      </trkpt>
      <trkpt lat="0" lon="0">
        <time>2021-02-28T10:04:39.625000+00:00</time>
      </trkpt>
      <trkpt lat="47.33456" lon="-1.39614">
        <ele>120</ele>
        <time>2021-02-28T10:04:40.509000+00:00</time>
      </trkpt>
      <trkpt lat="0" lon="0">
        <time>2021-02-28T10:04:40.518000+00:00</time>
      </trkpt>
      <trkpt lat="0" lon="0">
        <time>2021-02-28T10:04:40.523000+00:00</time>
      </trkpt>
      <trkpt lat="0" lon="0">
        <time>2021-02-28T10:04:40.525000+00:00</time>
      </trkpt>
      <trkpt lat="47.33453" lon="-1.3961">
        <ele>120</ele>
        <time>2021-02-28T10:04:41.610000+00:00</time>
      </trkpt>
      <trkpt lat="0" lon="0">
        <time>2021-02-28T10:04:41.616000+00:00</time>
      </trkpt>
      <trkpt lat="0" lon="0">
        <time>2021-02-28T10:04:41.623000+00:00</time>
      </trkpt>
      <trkpt lat="0" lon="0">
        <time>2021-02-28T10:04:41.626000+00:00</time>
      </trkpt>
      <trkpt lat="47.33449" lon="-1.39606">
        <ele>120</ele>
        <time>2021-02-28T10:04:42.556000+00:00</time>
      </trkpt>
      <trkpt lat="0" lon="0">
        <time>2021-02-28T10:04:42.565000+00:00</time>
      </trkpt>
      <trkpt lat="0" lon="0">
        <time>2021-02-28T10:04:42.571000+00:00</time>
      </trkpt>
      <trkpt lat="0" lon="0">
        <time>2021-02-28T10:04:42.574000+00:00</time>
      </trkpt>
      <trkpt lat="47.33445" lon="-1.39603">
        <ele>120</ele>
        <time>2021-02-28T10:04:43.595000+00:00</time>
      </trkpt>
      <trkpt lat="0" lon="0">
        <time>2021-02-28T10:04:43.609000+00:00</time>
      </trkpt>
      <trkpt lat="0" lon="0">
        <time>2021-02-28T10:04:43.619000+00:00</time>
      </trkpt>
      <trkpt lat="0" lon="0">
        <time>2021-02-28T10:04:43.622000+00:00</time>
      </trkpt>
      <trkpt lat="47.33441" lon="-1.396">
        <ele>121</ele>
        <time>2021-02-28T10:04:44.628000+00:00</time>
      </trkpt>
      <trkpt lat="0" lon="0">
        <time>2021-02-28T10:04:44.638000+00:00</time>
      </trkpt>
      <trkpt lat="0" lon="0">
        <time>2021-02-28T10:04:44.645000+00:00</time>
      </trkpt>
      <trkpt lat="0" lon="0">
        <time>2021-02-28T10:04:44.648000+00:00</time>
      </trkpt>
      <trkpt lat="47.33437" lon="-1.39596">
        <ele>121</ele>
        <time>2021-02-28T10:04:45.546000+00:00</time>
      </trkpt>
      <trkpt lat="0" lon="0">
        <time>2021-02-28T10:04:45.555000+00:00</time>
      </trkpt>
      <trkpt lat="0" lon="0">
        <time>2021-02-28T10:04:45.561000+00:00</time>
      </trkpt>
      <trkpt lat="0" lon="0">
        <time>2021-02-28T10:04:45.564000+00:00</time>
      </trkpt>
      <trkpt lat="47.33433" lon="-1.39593">
        <ele>121</ele>
        <time>2021-02-28T10:04:46.591000+00:00</time>
      </trkpt>
      <trkpt lat="0" lon="0">
        <time>2021-02-28T10:04:46.600000+00:00</time>
      </trkpt>
      <trkpt lat="0" lon="0">
        <time>2021-02-28T10:04:46.608000+00:00</time>
      </trkpt>
      <trkpt lat="0" lon="0">
        <time>2021-02-28T10:04:46.612000+00:00</time>
      </trkpt>
      <trkpt lat="47.33429" lon="-1.3959">
        <ele>121</ele>
        <time>2021-02-28T10:04:47.572000+00:00</time>
      </trkpt>
      <trkpt lat="0" lon="0">
        <time>2021-02-28T10:04:47.579000+00:00</time>
      </trkpt>
      <trkpt lat="0" lon="0">
        <time>2021-02-28T10:04:47.584000+00:00</time>
      </trkpt>
      <trkpt lat="0" lon="0">
        <time>2021-02-28T10:04:47.586000+00:00</time>
      </trkpt>
      <trkpt lat="47.33425" lon="-1.39586">
        <ele>121</ele>
        <time>2021-02-28T10:04:48.579000+00:00</time>
      </trkpt>
      <trkpt lat="0" lon="0">
        <time>2021-02-28T10:04:48.584000+00:00</time>
      </trkpt>
      <trkpt lat="0" lon="0">
        <time>2021-02-28T10:04:48.589000+00:00</time>
      </trkpt>
      <trkpt lat="0" lon="0">
        <time>2021-02-28T10:04:48.591000+00:00</time>
      </trkpt>
      <trkpt lat="47.33422" lon="-1.39583">
        <ele>121</ele>
        <time>2021-02-28T10:04:49.601000+00:00</time>
      </trkpt>
      <trkpt lat="0" lon="0">
        <time>2021-02-28T10:04:49.608000+00:00</time>
      </trkpt>
      <trkpt lat="0" lon="0">
        <time>2021-02-28T10:04:49.613000+00:00</time>
      </trkpt>
      <trkpt lat="0" lon="0">
        <time>2021-02-28T10:04:49.615000+00:00</time>
      </trkpt>
      <trkpt lat="47.33418" lon="-1.39581">
        <ele>121</ele>
        <time>2021-02-28T10:04:50.591000+00:00</time>
      </trkpt>
      <trkpt lat="0" lon="0">
        <time>2021-02-28T10:04:50.597000+00:00</time>
      </trkpt>
      <trkpt lat="0" lon="0">
        <time>2021-02-28T10:04:50.603000+00:00</time>
      </trkpt>
      <trkpt lat="0" lon="0">
        <time>2021-02-28T10:04:50.606000+00:00</time>
      </trkpt>
      <trkpt lat="47.33414" lon="-1.39578">
        <ele>122</ele>
        <time>2021-02-28T10:04:51.597000+00:00</time>
      </trkpt>
      <trkpt lat="0" lon="0">
        <time>2021-02-28T10:04:51.605000+00:00</time>
      </trkpt>
      <trkpt lat="0" lon="0">
        <time>2021-02-28T10:04:51.613000+00:00</time>
      </trkpt>
      <trkpt lat="0" lon="0">
        <time>2021-02-28T10:04:51.616000+00:00</time>
      </trkpt>
      <trkpt lat="47.3341" lon="-1.39575">
        <ele>122</ele>
        <time>2021-02-28T10:04:52.613000+00:00</time>
      </trkpt>
      <trkpt lat="0" lon="0">
        <time>2021-02-28T10:04:52.628000+00:00</time>
      </trkpt>
      <trkpt lat="0" lon="0">
        <time>2021-02-28T10:04:52.633000+00:00</time>
      </trkpt>
      <trkpt lat="0" lon="0">
        <time>2021-02-28T10:04:52.636000+00:00</time>
      </trkpt>
      <trkpt lat="47.33406" lon="-1.39573">
        <ele>122</ele>
        <time>2021-02-28T10:04:53.605000+00:00</time>
      </trkpt>
      <trkpt lat="0" lon="0">
        <time>2021-02-28T10:04:53.609000+00:00</time>
      </trkpt>
      <trkpt lat="0" lon="0">
        <time>2021-02-28T10:04:53.616000+00:00</time>
      </trkpt>
      <trkpt lat="0" lon="0">
        <time>2021-02-28T10:04:53.618000+00:00</time>
      </trkpt>
      <trkpt lat="47.33402" lon="-1.3957">
        <ele>122</ele>
        <time>2021-02-28T10:04:54.587000+00:00</time>
      </trkpt>
      <trkpt lat="0" lon="0">
        <time>2021-02-28T10:04:54.593000+00:00</time>
      </trkpt>
      <trkpt lat="0" lon="0">
        <time>2021-02-28T10:04:54.598000+00:00</time>
      </trkpt>
      <trkpt lat="0" lon="0">
        <time>2021-02-28T10:04:54.600000+00:00</time>
      </trkpt>
      <trkpt lat="47.33398" lon="-1.39567">
        <ele>123</ele>
        <time>2021-02-28T10:04:55.617000+00:00</time>
      </trkpt>
      <trkpt lat="0" lon="0">
        <time>2021-02-28T10:04:55.630000+00:00</time>
      </trkpt>
      <trkpt lat="0" lon="0">
        <time>2021-02-28T10:04:55.637000+00:00</time>
      </trkpt>
      <trkpt lat="0" lon="0">
        <time>2021-02-28T10:04:55.641000+00:00</time>
      </trkpt>
      <trkpt lat="47.33394" lon="-1.39565">
        <ele>123</ele>
        <time>2021-02-28T10:04:56.634000+00:00</time>
      </trkpt>
      <trkpt lat="0" lon="0">
        <time>2021-02-28T10:04:56.643000+00:00</time>
      </trkpt>
      <trkpt lat="0" lon="0">
        <time>2021-02-28T10:04:56.648000+00:00</time>
      </trkpt>
      <trkpt lat="0" lon="0">
        <time>2021-02-28T10:04:56.650000+00:00</time>
      </trkpt>
      <trkpt lat="47.3339" lon="-1.39562">
        <ele>123</ele>
        <time>2021-02-28T10:04:57.612000+00:00</time>
      </trkpt>
      <trkpt lat="0" lon="0">
        <time>2021-02-28T10:04:57.625000+00:00</time>
      </trkpt>
      <trkpt lat="0" lon="0">
        <time>2021-02-28T10:04:57.631000+00:00</time>
      </trkpt>
      <trkpt lat="0" lon="0">
        <time>2021-02-28T10:04:57.634000+00:00</time>
      </trkpt>
      <trkpt lat="47.33386" lon="-1.39559">
        <ele>123</ele>
        <time>2021-02-28T10:04:58.505000+00:00</time>
      </trkpt>
      <trkpt lat="0" lon="0">
        <time>2021-02-28T10:04:58.510000+00:00</time>
      </trkpt>
      <trkpt lat="0" lon="0">
        <time>2021-02-28T10:04:58.514000+00:00</time>
      </trkpt>
      <trkpt lat="0" lon="0">
        <time>2021-02-28T10:04:58.516000+00:00</time>
      </trkpt>
      <trkpt lat="47.33382" lon="-1.39556">
        <ele>123</ele>
        <time>2021-02-28T10:04:59.570000+00:00</time>
      </trkpt>
      <trkpt lat="0" lon="0">
        <time>2021-02-28T10:04:59.577000+00:00</time>
      </trkpt>
      <trkpt lat="0" lon="0">
        <time>2021-02-28T10:04:59.580000+00:00</time>
      </trkpt>
      <trkpt lat="0" lon="0">
        <time>2021-02-28T10:04:59.583000+00:00</time>
      </trkpt>
      <trkpt lat="47.33378" lon="-1.39553">
        <ele>123</ele>
        <time>2021-02-28T10:05:00.624000+00:00</time>
      </trkpt>
      <trkpt lat="0" lon="0">
        <time>2021-02-28T10:05:00.637000+00:00</time>
      </trkpt>
      <trkpt lat="0" lon="0">
        <time>2021-02-28T10:05:00.641000+00:00</time>
      </trkpt>
      <trkpt lat="0" lon="0">
        <time>2021-02-28T10:05:00.644000+00:00</time>
      </trkpt>
      <trkpt lat="47.33374" lon="-1.3955">
        <ele>123</ele>
        <time>2021-02-28T10:05:01.549000+00:00</time>
      </trkpt>
      <trkpt lat="0" lon="0">
        <time>2021-02-28T10:05:01.563000+00:00</time>
      </trkpt>
      <trkpt lat="0" lon="0">
        <time>2021-02-28T10:05:01.565000+00:00</time>
      </trkpt>
      <trkpt lat="0" lon="0">
        <time>2021-02-28T10:05:01.567000+00:00</time>
      </trkpt>
      <trkpt lat="47.3337" lon="-1.39548">
        <ele>123</ele>
        <time>2021-02-28T10:05:02.582000+00:00</time>
      </trkpt>
      <trkpt lat="0" lon="0">
        <time>2021-02-28T10:05:02.590000+00:00</time>
      </trkpt>
      <trkpt lat="0" lon="0">
        <time>2021-02-28T10:05:02.594000+00:00</time>
      </trkpt>
      <trkpt lat="0" lon="0">
        <time>2021-02-28T10:05:02.597000+00:00</time>
      </trkpt>
      <trkpt lat="47.33366" lon="-1.39545">
        <ele>123</ele>
        <time>2021-02-28T10:05:03.607000+00:00</time>
      </trkpt>
      <trkpt lat="0" lon="0">
        <time>2021-02-28T10:05:03.612000+00:00</time>
      </trkpt>
      <trkpt lat="0" lon="0">
        <time>2021-02-28T10:05:03.617000+00:00</time>
      </trkpt>
      <trkpt lat="0" lon="0">
        <time>2021-02-28T10:05:03.621000+00:00</time>
      </trkpt>
      <trkpt lat="47.33362" lon="-1.39542">
        <ele>123</ele>
        <time>2021-02-28T10:05:04.613000+00:00</time>
      </trkpt>
      <trkpt lat="0" lon="0">
        <time>2021-02-28T10:05:04.620000+00:00</time>
      </trkpt>
      <trkpt lat="0" lon="0">
        <time>2021-02-28T10:05:04.625000+00:00</time>
      </trkpt>
      <trkpt lat="0" lon="0">
        <time>2021-02-28T10:05:04.628000+00:00</time>
      </trkpt>
      <trkpt lat="47.33357" lon="-1.39539">
        <ele>123</ele>
        <time>2021-02-28T10:05:05.579000+00:00</time>
      </trkpt>
      <trkpt lat="0" lon="0">
        <time>2021-02-28T10:05:05.586000+00:00</time>
      </trkpt>
      <trkpt lat="0" lon="0">
        <time>2021-02-28T10:05:05.590000+00:00</time>
      </trkpt>
      <trkpt lat="0" lon="0">
        <time>2021-02-28T10:05:05.592000+00:00</time>
      </trkpt>
      <trkpt lat="47.33353" lon="-1.39537">
        <ele>123</ele>
        <time>2021-02-28T10:05:06.599000+00:00</time>
      </trkpt>
      <trkpt lat="0" lon="0">
        <time>2021-02-28T10:05:06.607000+00:00</time>
      </trkpt>
      <trkpt lat="0" lon="0">
        <time>2021-02-28T10:05:06.613000+00:00</time>
      </trkpt>
      <trkpt lat="0" lon="0">
        <time>2021-02-28T10:05:06.615000+00:00</time>
      </trkpt>
      <trkpt lat="47.33349" lon="-1.39534">
        <ele>123</ele>
        <time>2021-02-28T10:05:07.566000+00:00</time>
      </trkpt>
      <trkpt lat="0" lon="0">
        <time>2021-02-28T10:05:07.568000+00:00</time>
      </trkpt>
      <trkpt lat="0" lon="0">
        <time>2021-02-28T10:05:07.570000+00:00</time>
      </trkpt>
      <trkpt lat="0" lon="0">
        <time>2021-02-28T10:05:07.571000+00:00</time>
      </trkpt>
      <trkpt lat="47.33344" lon="-1.39532">
        <ele>123</ele>
        <time>2021-02-28T10:05:08.611000+00:00</time>
      </trkpt>
      <trkpt lat="0" lon="0">
        <time>2021-02-28T10:05:08.617000+00:00</time>
      </trkpt>
      <trkpt lat="0" lon="0">
        <time>2021-02-28T10:05:08.626000+00:00</time>
      </trkpt>
      <trkpt lat="0" lon="0">
        <time>2021-02-28T10:05:08.628000+00:00</time>
      </trkpt>
      <trkpt lat="47.3334" lon="-1.39529">
        <ele>123</ele>
        <time>2021-02-28T10:05:09.574000+00:00</time>
      </trkpt>
      <trkpt lat="0" lon="0">
        <time>2021-02-28T10:05:09.581000+00:00</time>
      </trkpt>
      <trkpt lat="0" lon="0">
        <time>2021-02-28T10:05:09.586000+00:00</time>
      </trkpt>
      <trkpt lat="0" lon="0">
        <time>2021-02-28T10:05:09.589000+00:00</time>
      </trkpt>
      <trkpt lat="47.33335" lon="-1.39527">
        <ele>123</ele>
        <time>2021-02-28T10:05:10.510000+00:00</time>
      </trkpt>
      <trkpt lat="0" lon="0">
        <time>2021-02-28T10:05:10.517000+00:00</time>
      </trkpt>
      <trkpt lat="0" lon="0">
        <time>2021-02-28T10:05:10.520000+00:00</time>
      </trkpt>
      <trkpt lat="0" lon="0">
        <time>2021-02-28T10:05:10.523000+00:00</time>
      </trkpt>
      <trkpt lat="47.33331" lon="-1.39524">
        <ele>123</ele>
        <time>2021-02-28T10:05:11.577000+00:00</time>
      </trkpt>
      <trkpt lat="0" lon="0">
        <time>2021-02-28T10:05:11.590000+00:00</time>
      </trkpt>
      <trkpt lat="0" lon="0">
        <time>2021-02-28T10:05:11.596000+00:00</time>
      </trkpt>
      <trkpt lat="0" lon="0">
        <time>2021-02-28T10:05:11.599000+00:00</time>
      </trkpt>
      <trkpt lat="47.33326" lon="-1.39522">
        <ele>123</ele>
        <time>2021-02-28T10:05:12.571000+00:00</time>
      </trkpt>
      <trkpt lat="0" lon="0">
        <time>2021-02-28T10:05:12.577000+00:00</time>
      </trkpt>
      <trkpt lat="0" lon="0">
        <time>2021-02-28T10:05:12.583000+00:00</time>
      </trkpt>
      <trkpt lat="0" lon="0">
        <time>2021-02-28T10:05:12.585000+00:00</time>
      </trkpt>
      <trkpt lat="47.33321" lon="-1.39519">
        <ele>123</ele>
        <time>2021-02-28T10:05:13.594000+00:00</time>
      </trkpt>
      <trkpt lat="0" lon="0">
        <time>2021-02-28T10:05:13.607000+00:00</time>
      </trkpt>
      <trkpt lat="0" lon="0">
        <time>2021-02-28T10:05:13.611000+00:00</time>
      </trkpt>
      <trkpt lat="0" lon="0">
        <time>2021-02-28T10:05:13.614000+00:00</time>
      </trkpt>
      <trkpt lat="47.33316" lon="-1.39517">
        <ele>123</ele>
        <time>2021-02-28T10:05:14.569000+00:00</time>
      </trkpt>
      <trkpt lat="0" lon="0">
        <time>2021-02-28T10:05:14.574000+00:00</time>
      </trkpt>
      <trkpt lat="0" lon="0">
        <time>2021-02-28T10:05:14.581000+00:00</time>
      </trkpt>
      <trkpt lat="0" lon="0">
        <time>2021-02-28T10:05:14.583000+00:00</time>
      </trkpt>
      <trkpt lat="47.33311" lon="-1.39514">
        <ele>123</ele>
        <time>2021-02-28T10:05:15.589000+00:00</time>
      </trkpt>
      <trkpt lat="0" lon="0">
        <time>2021-02-28T10:05:15.600000+00:00</time>
      </trkpt>
      <trkpt lat="0" lon="0">
        <time>2021-02-28T10:05:15.606000+00:00</time>
      </trkpt>
      <trkpt lat="0" lon="0">
        <time>2021-02-28T10:05:15.609000+00:00</time>
      </trkpt>
      <trkpt lat="47.33306" lon="-1.39511">
        <ele>123</ele>
        <time>2021-02-28T10:05:16.577000+00:00</time>
      </trkpt>
      <trkpt lat="0" lon="0">
        <time>2021-02-28T10:05:16.586000+00:00</time>
      </trkpt>
      <trkpt lat="0" lon="0">
        <time>2021-02-28T10:05:16.591000+00:00</time>
      </trkpt>
      <trkpt lat="0" lon="0">
        <time>2021-02-28T10:05:16.593000+00:00</time>
      </trkpt>
      <trkpt lat="47.33301" lon="-1.39508">
        <ele>123</ele>
        <time>2021-02-28T10:05:17.593000+00:00</time>
      </trkpt>
      <trkpt lat="0" lon="0">
        <time>2021-02-28T10:05:17.600000+00:00</time>
      </trkpt>
      <trkpt lat="0" lon="0">
        <time>2021-02-28T10:05:17.608000+00:00</time>
      </trkpt>
      <trkpt lat="0" lon="0">
        <time>2021-02-28T10:05:17.611000+00:00</time>
      </trkpt>
      <trkpt lat="47.33296" lon="-1.39506">
        <ele>123</ele>
        <time>2021-02-28T10:05:18.548000+00:00</time>
      </trkpt>
      <trkpt lat="0" lon="0">
        <time>2021-02-28T10:05:18.555000+00:00</time>
      </trkpt>
      <trkpt lat="0" lon="0">
        <time>2021-02-28T10:05:18.562000+00:00</time>
      </trkpt>
      <trkpt lat="0" lon="0">
        <time>2021-02-28T10:05:18.567000+00:00</time>
      </trkpt>
      <trkpt lat="47.3329" lon="-1.39503">
        <ele>123</ele>
        <time>2021-02-28T10:05:19.557000+00:00</time>
      </trkpt>
      <trkpt lat="0" lon="0">
        <time>2021-02-28T10:05:19.566000+00:00</time>
      </trkpt>
      <trkpt lat="0" lon="0">
        <time>2021-02-28T10:05:19.572000+00:00</time>
      </trkpt>
      <trkpt lat="0" lon="0">
        <time>2021-02-28T10:05:19.575000+00:00</time>
      </trkpt>
      <trkpt lat="47.33285" lon="-1.39501">
        <ele>123</ele>
        <time>2021-02-28T10:05:20.588000+00:00</time>
      </trkpt>
      <trkpt lat="0" lon="0">
        <time>2021-02-28T10:05:20.600000+00:00</time>
      </trkpt>
      <trkpt lat="0" lon="0">
        <time>2021-02-28T10:05:20.605000+00:00</time>
      </trkpt>
      <trkpt lat="0" lon="0">
        <time>2021-02-28T10:05:20.608000+00:00</time>
      </trkpt>
      <trkpt lat="47.33279" lon="-1.39499">
        <ele>123</ele>
        <time>2021-02-28T10:05:21.516000+00:00</time>
      </trkpt>
      <trkpt lat="0" lon="0">
        <time>2021-02-28T10:05:21.523000+00:00</time>
      </trkpt>
      <trkpt lat="0" lon="0">
        <time>2021-02-28T10:05:21.525000+00:00</time>
      </trkpt>
      <trkpt lat="0" lon="0">
        <time>2021-02-28T10:05:21.527000+00:00</time>
      </trkpt>
      <trkpt lat="47.33274" lon="-1.39497">
        <ele>122</ele>
        <time>2021-02-28T10:05:22.567000+00:00</time>
      </trkpt>
      <trkpt lat="0" lon="0">
        <time>2021-02-28T10:05:22.582000+00:00</time>
      </trkpt>
      <trkpt lat="0" lon="0">
        <time>2021-02-28T10:05:22.587000+00:00</time>
      </trkpt>
      <trkpt lat="0" lon="0">
        <time>2021-02-28T10:05:22.589000+00:00</time>
      </trkpt>
      <trkpt lat="47.33268" lon="-1.39495">
        <ele>122</ele>
        <time>2021-02-28T10:05:23.554000+00:00</time>
      </trkpt>
      <trkpt lat="0" lon="0">
        <time>2021-02-28T10:05:23.559000+00:00</time>
      </trkpt>
      <trkpt lat="0" lon="0">
        <time>2021-02-28T10:05:23.564000+00:00</time>
      </trkpt>
      <trkpt lat="0" lon="0">
        <time>2021-02-28T10:05:23.566000+00:00</time>
      </trkpt>
      <trkpt lat="47.33262" lon="-1.39493">
        <ele>122</ele>
        <time>2021-02-28T10:05:24.586000+00:00</time>
      </trkpt>
      <trkpt lat="0" lon="0">
        <time>2021-02-28T10:05:24.593000+00:00</time>
      </trkpt>
      <trkpt lat="0" lon="0">
        <time>2021-02-28T10:05:24.597000+00:00</time>
      </trkpt>
      <trkpt lat="0" lon="0">
        <time>2021-02-28T10:05:24.600000+00:00</time>
      </trkpt>
      <trkpt lat="47.33255" lon="-1.39491">
        <ele>122</ele>
        <time>2021-02-28T10:05:25.563000+00:00</time>
      </trkpt>
      <trkpt lat="0" lon="0">
        <time>2021-02-28T10:05:25.571000+00:00</time>
      </trkpt>
      <trkpt lat="0" lon="0">
        <time>2021-02-28T10:05:25.578000+00:00</time>
      </trkpt>
      <trkpt lat="0" lon="0">
        <time>2021-02-28T10:05:25.580000+00:00</time>
      </trkpt>
      <trkpt lat="47.33249" lon="-1.39489">
        <ele>121</ele>
        <time>2021-02-28T10:05:26.554000+00:00</time>
      </trkpt>
      <trkpt lat="0" lon="0">
        <time>2021-02-28T10:05:26.559000+00:00</time>
      </trkpt>
      <trkpt lat="0" lon="0">
        <time>2021-02-28T10:05:26.564000+00:00</time>
      </trkpt>
      <trkpt lat="0" lon="0">
        <time>2021-02-28T10:05:26.569000+00:00</time>
      </trkpt>
      <trkpt lat="47.33242" lon="-1.39487">
        <ele>121</ele>
        <time>2021-02-28T10:05:27.563000+00:00</time>
      </trkpt>
      <trkpt lat="0" lon="0">
        <time>2021-02-28T10:05:27.571000+00:00</time>
      </trkpt>
      <trkpt lat="0" lon="0">
        <time>2021-02-28T10:05:27.577000+00:00</time>
      </trkpt>
      <trkpt lat="0" lon="0">
        <time>2021-02-28T10:05:27.580000+00:00</time>
      </trkpt>
      <trkpt lat="47.33235" lon="-1.39486">
        <ele>120</ele>
        <time>2021-02-28T10:05:28.512000+00:00</time>
      </trkpt>
      <trkpt lat="0" lon="0">
        <time>2021-02-28T10:05:28.521000+00:00</time>
      </trkpt>
      <trkpt lat="0" lon="0">
        <time>2021-02-28T10:05:28.529000+00:00</time>
      </trkpt>
      <trkpt lat="0" lon="0">
        <time>2021-02-28T10:05:28.530000+00:00</time>
      </trkpt>
      <trkpt lat="47.33228" lon="-1.39484">
        <ele>120</ele>
        <time>2021-02-28T10:05:29.518000+00:00</time>
      </trkpt>
      <trkpt lat="0" lon="0">
        <time>2021-02-28T10:05:29.524000+00:00</time>
      </trkpt>
      <trkpt lat="0" lon="0">
        <time>2021-02-28T10:05:29.528000+00:00</time>
      </trkpt>
      <trkpt lat="0" lon="0">
        <time>2021-02-28T10:05:29.530000+00:00</time>
      </trkpt>
      <trkpt lat="47.33221" lon="-1.39483">
        <ele>120</ele>
        <time>2021-02-28T10:05:30.514000+00:00</time>
      </trkpt>
      <trkpt lat="0" lon="0">
        <time>2021-02-28T10:05:30.522000+00:00</time>
      </trkpt>
      <trkpt lat="0" lon="0">
        <time>2021-02-28T10:05:30.528000+00:00</time>
      </trkpt>
      <trkpt lat="0" lon="0">
        <time>2021-02-28T10:05:30.530000+00:00</time>
      </trkpt>
      <trkpt lat="47.33213" lon="-1.39482">
        <ele>119</ele>
        <time>2021-02-28T10:05:31.504000+00:00</time>
      </trkpt>
      <trkpt lat="0" lon="0">
        <time>2021-02-28T10:05:31.508000+00:00</time>
      </trkpt>
      <trkpt lat="0" lon="0">
        <time>2021-02-28T10:05:31.512000+00:00</time>
      </trkpt>
      <trkpt lat="0" lon="0">
        <time>2021-02-28T10:05:31.515000+00:00</time>
      </trkpt>
      <trkpt lat="47.33206" lon="-1.39481">
        <ele>119</ele>
        <time>2021-02-28T10:05:32.568000+00:00</time>
      </trkpt>
      <trkpt lat="0" lon="0">
        <time>2021-02-28T10:05:32.575000+00:00</time>
      </trkpt>
      <trkpt lat="0" lon="0">
        <time>2021-02-28T10:05:32.581000+00:00</time>
      </trkpt>
      <trkpt lat="0" lon="0">
        <time>2021-02-28T10:05:32.584000+00:00</time>
      </trkpt>
      <trkpt lat="47.33198" lon="-1.3948">
        <ele>118</ele>
        <time>2021-02-28T10:05:33.559000+00:00</time>
      </trkpt>
      <trkpt lat="0" lon="0">
        <time>2021-02-28T10:05:33.569000+00:00</time>
      </trkpt>
      <trkpt lat="0" lon="0">
        <time>2021-02-28T10:05:33.575000+00:00</time>
      </trkpt>
      <trkpt lat="0" lon="0">
        <time>2021-02-28T10:05:33.578000+00:00</time>
      </trkpt>
      <trkpt lat="47.3319" lon="-1.39478">
        <ele>118</ele>
        <time>2021-02-28T10:05:34.483000+00:00</time>
      </trkpt>
      <trkpt lat="0" lon="0">
        <time>2021-02-28T10:05:34.488000+00:00</time>
      </trkpt>
      <trkpt lat="0" lon="0">
        <time>2021-02-28T10:05:34.493000+00:00</time>
      </trkpt>
      <trkpt lat="0" lon="0">
        <time>2021-02-28T10:05:34.496000+00:00</time>
      </trkpt>
      <trkpt lat="47.33182" lon="-1.39477">
        <ele>117</ele>
        <time>2021-02-28T10:05:35.578000+00:00</time>
      </trkpt>
      <trkpt lat="0" lon="0">
        <time>2021-02-28T10:05:35.587000+00:00</time>
      </trkpt>
      <trkpt lat="0" lon="0">
        <time>2021-02-28T10:05:35.593000+00:00</time>
      </trkpt>
      <trkpt lat="0" lon="0">
        <time>2021-02-28T10:05:35.595000+00:00</time>
      </trkpt>
      <trkpt lat="47.33174" lon="-1.39476">
        <ele>117</ele>
        <time>2021-02-28T10:05:36.561000+00:00</time>
      </trkpt>
      <trkpt lat="0" lon="0">
        <time>2021-02-28T10:05:36.573000+00:00</time>
      </trkpt>
      <trkpt lat="0" lon="0">
        <time>2021-02-28T10:05:36.577000+00:00</time>
      </trkpt>
      <trkpt lat="0" lon="0">
        <time>2021-02-28T10:05:36.580000+00:00</time>
      </trkpt>
      <trkpt lat="47.33166" lon="-1.39474">
        <ele>117</ele>
        <time>2021-02-28T10:05:37.586000+00:00</time>
      </trkpt>
      <trkpt lat="0" lon="0">
        <time>2021-02-28T10:05:37.596000+00:00</time>
      </trkpt>
      <trkpt lat="0" lon="0">
        <time>2021-02-28T10:05:37.600000+00:00</time>
      </trkpt>
      <trkpt lat="0" lon="0">
        <time>2021-02-28T10:05:37.604000+00:00</time>
      </trkpt>
      <trkpt lat="47.33157" lon="-1.39473">
        <ele>116</ele>
        <time>2021-02-28T10:05:38.594000+00:00</time>
      </trkpt>
      <trkpt lat="0" lon="0">
        <time>2021-02-28T10:05:38.601000+00:00</time>
      </trkpt>
      <trkpt lat="0" lon="0">
        <time>2021-02-28T10:05:38.605000+00:00</time>
      </trkpt>
      <trkpt lat="0" lon="0">
        <time>2021-02-28T10:05:38.608000+00:00</time>
      </trkpt>
      <trkpt lat="47.33148" lon="-1.39472">
        <ele>116</ele>
        <time>2021-02-28T10:05:39.552000+00:00</time>
      </trkpt>
      <trkpt lat="0" lon="0">
        <time>2021-02-28T10:05:39.561000+00:00</time>
      </trkpt>
      <trkpt lat="0" lon="0">
        <time>2021-02-28T10:05:39.566000+00:00</time>
      </trkpt>
      <trkpt lat="0" lon="0">
        <time>2021-02-28T10:05:39.569000+00:00</time>
      </trkpt>
      <trkpt lat="47.33139" lon="-1.3947">
        <ele>115</ele>
        <time>2021-02-28T10:05:40.563000+00:00</time>
      </trkpt>
      <trkpt lat="0" lon="0">
        <time>2021-02-28T10:05:40.571000+00:00</time>
      </trkpt>
      <trkpt lat="0" lon="0">
        <time>2021-02-28T10:05:40.576000+00:00</time>
      </trkpt>
      <trkpt lat="0" lon="0">
        <time>2021-02-28T10:05:40.578000+00:00</time>
      </trkpt>
      <trkpt lat="47.3313" lon="-1.39468">
        <ele>115</ele>
        <time>2021-02-28T10:05:41.531000+00:00</time>
      </trkpt>
      <trkpt lat="0" lon="0">
        <time>2021-02-28T10:05:41.540000+00:00</time>
      </trkpt>
      <trkpt lat="0" lon="0">
        <time>2021-02-28T10:05:41.544000+00:00</time>
      </trkpt>
      <trkpt lat="0" lon="0">
        <time>2021-02-28T10:05:41.546000+00:00</time>
      </trkpt>
      <trkpt lat="47.33121" lon="-1.39466">
        <ele>115</ele>
        <time>2021-02-28T10:05:42.467000+00:00</time>
      </trkpt>
      <trkpt lat="0" lon="0">
        <time>2021-02-28T10:05:42.475000+00:00</time>
      </trkpt>
      <trkpt lat="0" lon="0">
        <time>2021-02-28T10:05:42.480000+00:00</time>
      </trkpt>
      <trkpt lat="0" lon="0">
        <time>2021-02-28T10:05:42.483000+00:00</time>
      </trkpt>
      <trkpt lat="47.33112" lon="-1.39463">
        <ele>115</ele>
        <time>2021-02-28T10:05:43.521000+00:00</time>
      </trkpt>
      <trkpt lat="0" lon="0">
        <time>2021-02-28T10:05:43.533000+00:00</time>
      </trkpt>
      <trkpt lat="0" lon="0">
        <time>2021-02-28T10:05:43.537000+00:00</time>
      </trkpt>
      <trkpt lat="0" lon="0">
        <time>2021-02-28T10:05:43.539000+00:00</time>
      </trkpt>
      <trkpt lat="47.33104" lon="-1.3946">
        <ele>115</ele>
        <time>2021-02-28T10:05:44.541000+00:00</time>
      </trkpt>
      <trkpt lat="0" lon="0">
        <time>2021-02-28T10:05:44.551000+00:00</time>
      </trkpt>
      <trkpt lat="0" lon="0">
        <time>2021-02-28T10:05:44.556000+00:00</time>
      </trkpt>
      <trkpt lat="0" lon="0">
        <time>2021-02-28T10:05:44.558000+00:00</time>
      </trkpt>
      <trkpt lat="47.33095" lon="-1.39457">
        <ele>116</ele>
        <time>2021-02-28T10:05:45.529000+00:00</time>
      </trkpt>
      <trkpt lat="0" lon="0">
        <time>2021-02-28T10:05:45.537000+00:00</time>
      </trkpt>
      <trkpt lat="0" lon="0">
        <time>2021-02-28T10:05:45.541000+00:00</time>
      </trkpt>
      <trkpt lat="0" lon="0">
        <time>2021-02-28T10:05:45.543000+00:00</time>
      </trkpt>
      <trkpt lat="47.33087" lon="-1.39454">
        <ele>116</ele>
        <time>2021-02-28T10:05:46.515000+00:00</time>
      </trkpt>
      <trkpt lat="0" lon="0">
        <time>2021-02-28T10:05:46.520000+00:00</time>
      </trkpt>
      <trkpt lat="0" lon="0">
        <time>2021-02-28T10:05:46.524000+00:00</time>
      </trkpt>
      <trkpt lat="0" lon="0">
        <time>2021-02-28T10:05:46.527000+00:00</time>
      </trkpt>
      <trkpt lat="47.3308" lon="-1.39451">
        <ele>116</ele>
        <time>2021-02-28T10:05:47.526000+00:00</time>
      </trkpt>
      <trkpt lat="0" lon="0">
        <time>2021-02-28T10:05:47.537000+00:00</time>
      </trkpt>
      <trkpt lat="0" lon="0">
        <time>2021-02-28T10:05:47.542000+00:00</time>
      </trkpt>
      <trkpt lat="0" lon="0">
        <time>2021-02-28T10:05:47.544000+00:00</time>
      </trkpt>
      <trkpt lat="47.33072" lon="-1.39448">
        <ele>116</ele>
        <time>2021-02-28T10:05:48.564000+00:00</time>
      </trkpt>
      <trkpt lat="0" lon="0">
        <time>2021-02-28T10:05:48.570000+00:00</time>
      </trkpt>
      <trkpt lat="0" lon="0">
        <time>2021-02-28T10:05:48.575000+00:00</time>
      </trkpt>
      <trkpt lat="0" lon="0">
        <time>2021-02-28T10:05:48.577000+00:00</time>
      </trkpt>
      <trkpt lat="47.33065" lon="-1.39445">
        <ele>117</ele>
        <time>2021-02-28T10:05:49.533000+00:00</time>
      </trkpt>
      <trkpt lat="0" lon="0">
        <time>2021-02-28T10:05:49.539000+00:00</time>
      </trkpt>
      <trkpt lat="0" lon="0">
        <time>2021-02-28T10:05:49.544000+00:00</time>
      </trkpt>
      <trkpt lat="0" lon="0">
        <time>2021-02-28T10:05:49.547000+00:00</time>
      </trkpt>
      <trkpt lat="47.33058" lon="-1.39442">
        <ele>116</ele>
        <time>2021-02-28T10:05:50.532000+00:00</time>
      </trkpt>
      <trkpt lat="0" lon="0">
        <time>2021-02-28T10:05:50.538000+00:00</time>
      </trkpt>
      <trkpt lat="0" lon="0">
        <time>2021-02-28T10:05:50.544000+00:00</time>
      </trkpt>
      <trkpt lat="0" lon="0">
        <time>2021-02-28T10:05:50.546000+00:00</time>
      </trkpt>
      <trkpt lat="47.33051" lon="-1.3944">
        <ele>117</ele>
        <time>2021-02-28T10:05:51.528000+00:00</time>
      </trkpt>
      <trkpt lat="0" lon="0">
        <time>2021-02-28T10:05:51.542000+00:00</time>
      </trkpt>
      <trkpt lat="0" lon="0">
        <time>2021-02-28T10:05:51.546000+00:00</time>
      </trkpt>
      <trkpt lat="0" lon="0">
        <time>2021-02-28T10:05:51.548000+00:00</time>
      </trkpt>
      <trkpt lat="47.33044" lon="-1.39437">
        <ele>116</ele>
        <time>2021-02-28T10:05:52.532000+00:00</time>
      </trkpt>
      <trkpt lat="0" lon="0">
        <time>2021-02-28T10:05:52.536000+00:00</time>
      </trkpt>
      <trkpt lat="0" lon="0">
        <time>2021-02-28T10:05:52.541000+00:00</time>
      </trkpt>
      <trkpt lat="0" lon="0">
        <time>2021-02-28T10:05:52.543000+00:00</time>
      </trkpt>
      <trkpt lat="47.33038" lon="-1.39435">
        <ele>117</ele>
        <time>2021-02-28T10:05:53.535000+00:00</time>
      </trkpt>
      <trkpt lat="0" lon="0">
        <time>2021-02-28T10:05:53.569000+00:00</time>
      </trkpt>
      <trkpt lat="0" lon="0">
        <time>2021-02-28T10:05:53.575000+00:00</time>
      </trkpt>
      <trkpt lat="0" lon="0">
        <time>2021-02-28T10:05:53.577000+00:00</time>
      </trkpt>
      <trkpt lat="47.33031" lon="-1.39433">
        <ele>117</ele>
        <time>2021-02-28T10:05:54.519000+00:00</time>
      </trkpt>
      <trkpt lat="0" lon="0">
        <time>2021-02-28T10:05:54.533000+00:00</time>
      </trkpt>
      <trkpt lat="0" lon="0">
        <time>2021-02-28T10:05:54.537000+00:00</time>
      </trkpt>
      <trkpt lat="0" lon="0">
        <time>2021-02-28T10:05:54.539000+00:00</time>
      </trkpt>
      <trkpt lat="47.33024" lon="-1.39431">
        <ele>117</ele>
        <time>2021-02-28T10:05:55.526000+00:00</time>
      </trkpt>
      <trkpt lat="0" lon="0">
        <time>2021-02-28T10:05:55.531000+00:00</time>
      </trkpt>
      <trkpt lat="0" lon="0">
        <time>2021-02-28T10:05:55.535000+00:00</time>
      </trkpt>
      <trkpt lat="0" lon="0">
        <time>2021-02-28T10:05:55.537000+00:00</time>
      </trkpt>
      <trkpt lat="47.33018" lon="-1.3943">
        <ele>117</ele>
        <time>2021-02-28T10:05:56.447000+00:00</time>
      </trkpt>
      <trkpt lat="0" lon="0">
        <time>2021-02-28T10:05:56.452000+00:00</time>
      </trkpt>
      <trkpt lat="0" lon="0">
        <time>2021-02-28T10:05:56.454000+00:00</time>
      </trkpt>
      <trkpt lat="0" lon="0">
        <time>2021-02-28T10:05:56.456000+00:00</time>
      </trkpt>
      <trkpt lat="47.33012" lon="-1.39429">
        <ele>117</ele>
        <time>2021-02-28T10:05:57.528000+00:00</time>
      </trkpt>
      <trkpt lat="0" lon="0">
        <time>2021-02-28T10:05:57.541000+00:00</time>
      </trkpt>
      <trkpt lat="0" lon="0">
        <time>2021-02-28T10:05:57.546000+00:00</time>
      </trkpt>
      <trkpt lat="0" lon="0">
        <time>2021-02-28T10:05:57.548000+00:00</time>
      </trkpt>
      <trkpt lat="47.33006" lon="-1.39428">
        <ele>116</ele>
        <time>2021-02-28T10:05:58.507000+00:00</time>
      </trkpt>
      <trkpt lat="0" lon="0">
        <time>2021-02-28T10:05:58.520000+00:00</time>
      </trkpt>
      <trkpt lat="0" lon="0">
        <time>2021-02-28T10:05:58.525000+00:00</time>
      </trkpt>
      <trkpt lat="0" lon="0">
        <time>2021-02-28T10:05:58.527000+00:00</time>
      </trkpt>
      <trkpt lat="47.33" lon="-1.39427">
        <ele>116</ele>
        <time>2021-02-28T10:05:59.535000+00:00</time>
      </trkpt>
      <trkpt lat="0" lon="0">
        <time>2021-02-28T10:05:59.541000+00:00</time>
      </trkpt>
      <trkpt lat="0" lon="0">
        <time>2021-02-28T10:05:59.547000+00:00</time>
      </trkpt>
      <trkpt lat="0" lon="0">
        <time>2021-02-28T10:05:59.553000+00:00</time>
      </trkpt>
      <trkpt lat="47.32994" lon="-1.39426">
        <ele>116</ele>
        <time>2021-02-28T10:06:00.523000+00:00</time>
      </trkpt>
      <trkpt lat="0" lon="0">
        <time>2021-02-28T10:06:00.529000+00:00</time>
      </trkpt>
      <trkpt lat="0" lon="0">
        <time>2021-02-28T10:06:00.535000+00:00</time>
      </trkpt>
      <trkpt lat="0" lon="0">
        <time>2021-02-28T10:06:00.537000+00:00</time>
      </trkpt>
      <trkpt lat="47.32989" lon="-1.39425">
        <ele>116</ele>
        <time>2021-02-28T10:06:01.508000+00:00</time>
      </trkpt>
      <trkpt lat="0" lon="0">
        <time>2021-02-28T10:06:01.524000+00:00</time>
      </trkpt>
      <trkpt lat="0" lon="0">
        <time>2021-02-28T10:06:01.529000+00:00</time>
      </trkpt>
      <trkpt lat="0" lon="0">
        <time>2021-02-28T10:06:01.530000+00:00</time>
      </trkpt>
      <trkpt lat="47.32983" lon="-1.39424">
        <ele>115</ele>
        <time>2021-02-28T10:06:02.525000+00:00</time>
      </trkpt>
      <trkpt lat="0" lon="0">
        <time>2021-02-28T10:06:02.537000+00:00</time>
      </trkpt>
      <trkpt lat="0" lon="0">
        <time>2021-02-28T10:06:02.541000+00:00</time>
      </trkpt>
      <trkpt lat="0" lon="0">
        <time>2021-02-28T10:06:02.543000+00:00</time>
      </trkpt>
      <trkpt lat="47.32978" lon="-1.39424">
        <ele>115</ele>
        <time>2021-02-28T10:06:03.509000+00:00</time>
      </trkpt>
      <trkpt lat="0" lon="0">
        <time>2021-02-28T10:06:03.517000+00:00</time>
      </trkpt>
      <trkpt lat="0" lon="0">
        <time>2021-02-28T10:06:03.523000+00:00</time>
      </trkpt>
      <trkpt lat="0" lon="0">
        <time>2021-02-28T10:06:03.526000+00:00</time>
      </trkpt>
      <trkpt lat="47.32972" lon="-1.39423">
        <ele>115</ele>
        <time>2021-02-28T10:06:04.521000+00:00</time>
      </trkpt>
      <trkpt lat="0" lon="0">
        <time>2021-02-28T10:06:04.536000+00:00</time>
      </trkpt>
      <trkpt lat="0" lon="0">
        <time>2021-02-28T10:06:04.539000+00:00</time>
      </trkpt>
      <trkpt lat="0" lon="0">
        <time>2021-02-28T10:06:04.541000+00:00</time>
      </trkpt>
      <trkpt lat="47.32967" lon="-1.39422">
        <ele>116</ele>
        <time>2021-02-28T10:06:05.526000+00:00</time>
      </trkpt>
      <trkpt lat="0" lon="0">
        <time>2021-02-28T10:06:05.532000+00:00</time>
      </trkpt>
      <trkpt lat="0" lon="0">
        <time>2021-02-28T10:06:05.540000+00:00</time>
      </trkpt>
      <trkpt lat="0" lon="0">
        <time>2021-02-28T10:06:05.546000+00:00</time>
      </trkpt>
      <trkpt lat="47.32962" lon="-1.39422">
        <ele>116</ele>
        <time>2021-02-28T10:06:06.460000+00:00</time>
      </trkpt>
      <trkpt lat="0" lon="0">
        <time>2021-02-28T10:06:06.464000+00:00</time>
      </trkpt>
      <trkpt lat="0" lon="0">
        <time>2021-02-28T10:06:06.468000+00:00</time>
      </trkpt>
      <trkpt lat="0" lon="0">
        <time>2021-02-28T10:06:06.475000+00:00</time>
      </trkpt>
      <trkpt lat="47.32957" lon="-1.39421">
        <ele>115</ele>
        <time>2021-02-28T10:06:07.527000+00:00</time>
      </trkpt>
      <trkpt lat="0" lon="0">
        <time>2021-02-28T10:06:07.535000+00:00</time>
      </trkpt>
      <trkpt lat="0" lon="0">
        <time>2021-02-28T10:06:07.540000+00:00</time>
      </trkpt>
      <trkpt lat="0" lon="0">
        <time>2021-02-28T10:06:07.543000+00:00</time>
      </trkpt>
      <trkpt lat="47.32952" lon="-1.3942">
        <ele>115</ele>
        <time>2021-02-28T10:06:08.535000+00:00</time>
      </trkpt>
      <trkpt lat="0" lon="0">
        <time>2021-02-28T10:06:08.545000+00:00</time>
      </trkpt>
      <trkpt lat="0" lon="0">
        <time>2021-02-28T10:06:08.550000+00:00</time>
      </trkpt>
      <trkpt lat="0" lon="0">
        <time>2021-02-28T10:06:08.553000+00:00</time>
      </trkpt>
      <trkpt lat="47.32948" lon="-1.39419">
        <ele>115</ele>
        <time>2021-02-28T10:06:09.526000+00:00</time>
      </trkpt>
      <trkpt lat="0" lon="0">
        <time>2021-02-28T10:06:09.532000+00:00</time>
      </trkpt>
      <trkpt lat="0" lon="0">
        <time>2021-02-28T10:06:09.536000+00:00</time>
      </trkpt>
      <trkpt lat="0" lon="0">
        <time>2021-02-28T10:06:09.539000+00:00</time>
      </trkpt>
      <trkpt lat="47.32943" lon="-1.39418">
        <ele>114</ele>
        <time>2021-02-28T10:06:10.537000+00:00</time>
      </trkpt>
      <trkpt lat="0" lon="0">
        <time>2021-02-28T10:06:10.539000+00:00</time>
      </trkpt>
      <trkpt lat="0" lon="0">
        <time>2021-02-28T10:06:10.545000+00:00</time>
      </trkpt>
      <trkpt lat="0" lon="0">
        <time>2021-02-28T10:06:10.547000+00:00</time>
      </trkpt>
      <trkpt lat="47.32939" lon="-1.39417">
        <ele>114</ele>
        <time>2021-02-28T10:06:11.508000+00:00</time>
      </trkpt>
      <trkpt lat="0" lon="0">
        <time>2021-02-28T10:06:11.519000+00:00</time>
      </trkpt>
      <trkpt lat="0" lon="0">
        <time>2021-02-28T10:06:11.523000+00:00</time>
      </trkpt>
      <trkpt lat="0" lon="0">
        <time>2021-02-28T10:06:11.525000+00:00</time>
      </trkpt>
      <trkpt lat="47.32935" lon="-1.39416">
        <ele>114</ele>
        <time>2021-02-28T10:06:12.495000+00:00</time>
      </trkpt>
      <trkpt lat="0" lon="0">
        <time>2021-02-28T10:06:12.500000+00:00</time>
      </trkpt>
      <trkpt lat="0" lon="0">
        <time>2021-02-28T10:06:12.508000+00:00</time>
      </trkpt>
      <trkpt lat="0" lon="0">
        <time>2021-02-28T10:06:12.516000+00:00</time>
      </trkpt>
      <trkpt lat="47.32932" lon="-1.39416">
        <ele>114</ele>
        <time>2021-02-28T10:06:13.529000+00:00</time>
      </trkpt>
      <trkpt lat="0" lon="0">
        <time>2021-02-28T10:06:13.534000+00:00</time>
      </trkpt>
      <trkpt lat="0" lon="0">
        <time>2021-02-28T10:06:13.539000+00:00</time>
      </trkpt>
      <trkpt lat="0" lon="0">
        <time>2021-02-28T10:06:13.541000+00:00</time>
      </trkpt>
      <trkpt lat="47.32928" lon="-1.39415">
        <ele>114</ele>
        <time>2021-02-28T10:06:14.528000+00:00</time>
      </trkpt>
      <trkpt lat="0" lon="0">
        <time>2021-02-28T10:06:14.539000+00:00</time>
      </trkpt>
      <trkpt lat="0" lon="0">
        <time>2021-02-28T10:06:14.547000+00:00</time>
      </trkpt>
      <trkpt lat="0" lon="0">
        <time>2021-02-28T10:06:14.556000+00:00</time>
      </trkpt>
      <trkpt lat="47.32924" lon="-1.39414">
        <ele>114</ele>
        <time>2021-02-28T10:06:15.535000+00:00</time>
      </trkpt>
      <trkpt lat="0" lon="0">
        <time>2021-02-28T10:06:15.541000+00:00</time>
      </trkpt>
      <trkpt lat="0" lon="0">
        <time>2021-02-28T10:06:15.546000+00:00</time>
      </trkpt>
      <trkpt lat="0" lon="0">
        <time>2021-02-28T10:06:15.549000+00:00</time>
      </trkpt>
      <trkpt lat="47.32921" lon="-1.39414">
        <ele>114</ele>
        <time>2021-02-28T10:06:16.497000+00:00</time>
      </trkpt>
      <trkpt lat="0" lon="0">
        <time>2021-02-28T10:06:16.503000+00:00</time>
      </trkpt>
      <trkpt lat="0" lon="0">
        <time>2021-02-28T10:06:16.505000+00:00</time>
      </trkpt>
      <trkpt lat="0" lon="0">
        <time>2021-02-28T10:06:16.506000+00:00</time>
      </trkpt>
      <trkpt lat="47.32918" lon="-1.39414">
        <ele>114</ele>
        <time>2021-02-28T10:06:17.517000+00:00</time>
      </trkpt>
      <trkpt lat="0" lon="0">
        <time>2021-02-28T10:06:17.528000+00:00</time>
      </trkpt>
      <trkpt lat="0" lon="0">
        <time>2021-02-28T10:06:17.536000+00:00</time>
      </trkpt>
      <trkpt lat="0" lon="0">
        <time>2021-02-28T10:06:17.539000+00:00</time>
      </trkpt>
      <trkpt lat="47.32916" lon="-1.39414">
        <ele>114</ele>
        <time>2021-02-28T10:06:18.490000+00:00</time>
      </trkpt>
      <trkpt lat="0" lon="0">
        <time>2021-02-28T10:06:18.498000+00:00</time>
      </trkpt>
      <trkpt lat="0" lon="0">
        <time>2021-02-28T10:06:18.505000+00:00</time>
      </trkpt>
      <trkpt lat="0" lon="0">
        <time>2021-02-28T10:06:18.508000+00:00</time>
      </trkpt>
      <trkpt lat="47.32914" lon="-1.39414">
        <ele>115</ele>
        <time>2021-02-28T10:06:19.540000+00:00</time>
      </trkpt>
      <trkpt lat="0" lon="0">
        <time>2021-02-28T10:06:19.548000+00:00</time>
      </trkpt>
      <trkpt lat="0" lon="0">
        <time>2021-02-28T10:06:19.553000+00:00</time>
      </trkpt>
      <trkpt lat="0" lon="0">
        <time>2021-02-28T10:06:19.555000+00:00</time>
      </trkpt>
      <trkpt lat="47.32913" lon="-1.39414">
        <ele>114</ele>
        <time>2021-02-28T10:06:20.543000+00:00</time>
      </trkpt>
      <trkpt lat="0" lon="0">
        <time>2021-02-28T10:06:20.553000+00:00</time>
      </trkpt>
      <trkpt lat="0" lon="0">
        <time>2021-02-28T10:06:20.558000+00:00</time>
      </trkpt>
      <trkpt lat="0" lon="0">
        <time>2021-02-28T10:06:20.560000+00:00</time>
      </trkpt>
      <trkpt lat="47.32913" lon="-1.39415">
        <ele>114</ele>
        <time>2021-02-28T10:06:21.531000+00:00</time>
      </trkpt>
      <trkpt lat="0" lon="0">
        <time>2021-02-28T10:06:21.539000+00:00</time>
      </trkpt>
      <trkpt lat="0" lon="0">
        <time>2021-02-28T10:06:21.545000+00:00</time>
      </trkpt>
      <trkpt lat="0" lon="0">
        <time>2021-02-28T10:06:21.548000+00:00</time>
      </trkpt>
      <trkpt lat="47.32912" lon="-1.39415">
        <ele>114</ele>
        <time>2021-02-28T10:06:22.540000+00:00</time>
      </trkpt>
      <trkpt lat="0" lon="0">
        <time>2021-02-28T10:06:22.544000+00:00</time>
      </trkpt>
      <trkpt lat="0" lon="0">
        <time>2021-02-28T10:06:22.552000+00:00</time>
      </trkpt>
      <trkpt lat="0" lon="0">
        <time>2021-02-28T10:06:22.554000+00:00</time>
      </trkpt>
      <trkpt lat="47.32912" lon="-1.39415">
        <ele>114</ele>
        <time>2021-02-28T10:06:23.543000+00:00</time>
      </trkpt>
      <trkpt lat="0" lon="0">
        <time>2021-02-28T10:06:23.553000+00:00</time>
      </trkpt>
      <trkpt lat="0" lon="0">
        <time>2021-02-28T10:06:23.557000+00:00</time>
      </trkpt>
      <trkpt lat="0" lon="0">
        <time>2021-02-28T10:06:23.560000+00:00</time>
      </trkpt>
      <trkpt lat="47.32913" lon="-1.39416">
        <ele>114</ele>
        <time>2021-02-28T10:06:24.525000+00:00</time>
      </trkpt>
      <trkpt lat="0" lon="0">
        <time>2021-02-28T10:06:24.532000+00:00</time>
      </trkpt>
      <trkpt lat="0" lon="0">
        <time>2021-02-28T10:06:24.537000+00:00</time>
      </trkpt>
      <trkpt lat="0" lon="0">
        <time>2021-02-28T10:06:24.540000+00:00</time>
      </trkpt>
      <trkpt lat="47.32913" lon="-1.39416">
        <ele>114</ele>
        <time>2021-02-28T10:06:25.612000+00:00</time>
      </trkpt>
      <trkpt lat="0" lon="0">
        <time>2021-02-28T10:06:25.620000+00:00</time>
      </trkpt>
      <trkpt lat="0" lon="0">
        <time>2021-02-28T10:06:25.626000+00:00</time>
      </trkpt>
      <trkpt lat="0" lon="0">
        <time>2021-02-28T10:06:25.628000+00:00</time>
      </trkpt>
      <trkpt lat="47.32914" lon="-1.39416">
        <ele>114</ele>
        <time>2021-02-28T10:06:26.561000+00:00</time>
      </trkpt>
      <trkpt lat="0" lon="0">
        <time>2021-02-28T10:06:26.567000+00:00</time>
      </trkpt>
      <trkpt lat="0" lon="0">
        <time>2021-02-28T10:06:26.572000+00:00</time>
      </trkpt>
      <trkpt lat="0" lon="0">
        <time>2021-02-28T10:06:26.574000+00:00</time>
      </trkpt>
      <trkpt lat="47.32914" lon="-1.39416">
        <ele>114</ele>
        <time>2021-02-28T10:06:27.605000+00:00</time>
      </trkpt>
      <trkpt lat="0" lon="0">
        <time>2021-02-28T10:06:27.614000+00:00</time>
      </trkpt>
      <trkpt lat="0" lon="0">
        <time>2021-02-28T10:06:27.621000+00:00</time>
      </trkpt>
      <trkpt lat="0" lon="0">
        <time>2021-02-28T10:06:27.625000+00:00</time>
      </trkpt>
      <trkpt lat="47.32915" lon="-1.39417">
        <ele>114</ele>
        <time>2021-02-28T10:06:28.495000+00:00</time>
      </trkpt>
      <trkpt lat="0" lon="0">
        <time>2021-02-28T10:06:28.503000+00:00</time>
      </trkpt>
      <trkpt lat="0" lon="0">
        <time>2021-02-28T10:06:28.507000+00:00</time>
      </trkpt>
      <trkpt lat="0" lon="0">
        <time>2021-02-28T10:06:28.510000+00:00</time>
      </trkpt>
      <trkpt lat="47.32916" lon="-1.39417">
        <ele>114</ele>
        <time>2021-02-28T10:06:29.567000+00:00</time>
      </trkpt>
      <trkpt lat="0" lon="0">
        <time>2021-02-28T10:06:29.579000+00:00</time>
      </trkpt>
      <trkpt lat="0" lon="0">
        <time>2021-02-28T10:06:29.584000+00:00</time>
      </trkpt>
      <trkpt lat="0" lon="0">
        <time>2021-02-28T10:06:29.587000+00:00</time>
      </trkpt>
      <trkpt lat="47.32917" lon="-1.39417">
        <ele>114</ele>
        <time>2021-02-28T10:06:30.582000+00:00</time>
      </trkpt>
      <trkpt lat="0" lon="0">
        <time>2021-02-28T10:06:30.584000+00:00</time>
      </trkpt>
      <trkpt lat="0" lon="0">
        <time>2021-02-28T10:06:30.587000+00:00</time>
      </trkpt>
      <trkpt lat="0" lon="0">
        <time>2021-02-28T10:06:30.588000+00:00</time>
      </trkpt>
      <trkpt lat="47.32917" lon="-1.39417">
        <ele>114</ele>
        <time>2021-02-28T10:06:31.502000+00:00</time>
      </trkpt>
      <trkpt lat="0" lon="0">
        <time>2021-02-28T10:06:31.507000+00:00</time>
      </trkpt>
      <trkpt lat="0" lon="0">
        <time>2021-02-28T10:06:31.511000+00:00</time>
      </trkpt>
      <trkpt lat="0" lon="0">
        <time>2021-02-28T10:06:31.526000+00:00</time>
      </trkpt>
      <trkpt lat="47.32901" lon="-1.3941">
        <ele>114</ele>
        <time>2021-02-28T10:06:32.491000+00:00</time>
      </trkpt>
      <trkpt lat="0" lon="0">
        <time>2021-02-28T10:06:32.498000+00:00</time>
      </trkpt>
      <trkpt lat="0" lon="0">
        <time>2021-02-28T10:06:32.502000+00:00</time>
      </trkpt>
      <trkpt lat="0" lon="0">
        <time>2021-02-28T10:06:32.505000+00:00</time>
      </trkpt>
      <trkpt lat="47.32897" lon="-1.39409">
        <ele>115</ele>
        <time>2021-02-28T10:06:33.518000+00:00</time>
      </trkpt>
      <trkpt lat="0" lon="0">
        <time>2021-02-28T10:06:33.526000+00:00</time>
      </trkpt>
      <trkpt lat="0" lon="0">
        <time>2021-02-28T10:06:33.531000+00:00</time>
      </trkpt>
      <trkpt lat="0" lon="0">
        <time>2021-02-28T10:06:33.534000+00:00</time>
      </trkpt>
      <trkpt lat="47.32894" lon="-1.39408">
        <ele>115</ele>
        <time>2021-02-28T10:06:34.481000+00:00</time>
      </trkpt>
      <trkpt lat="0" lon="0">
        <time>2021-02-28T10:06:34.489000+00:00</time>
      </trkpt>
      <trkpt lat="0" lon="0">
        <time>2021-02-28T10:06:34.493000+00:00</time>
      </trkpt>
      <trkpt lat="0" lon="0">
        <time>2021-02-28T10:06:34.495000+00:00</time>
      </trkpt>
      <trkpt lat="47.3289" lon="-1.39408">
        <ele>116</ele>
        <time>2021-02-28T10:06:35.490000+00:00</time>
      </trkpt>
      <trkpt lat="0" lon="0">
        <time>2021-02-28T10:06:35.499000+00:00</time>
      </trkpt>
      <trkpt lat="0" lon="0">
        <time>2021-02-28T10:06:35.504000+00:00</time>
      </trkpt>
      <trkpt lat="0" lon="0">
        <time>2021-02-28T10:06:35.506000+00:00</time>
      </trkpt>
      <trkpt lat="47.32886" lon="-1.39407">
        <ele>117</ele>
        <time>2021-02-28T10:06:36.588000+00:00</time>
      </trkpt>
      <trkpt lat="0" lon="0">
        <time>2021-02-28T10:06:36.593000+00:00</time>
      </trkpt>
      <trkpt lat="0" lon="0">
        <time>2021-02-28T10:06:36.597000+00:00</time>
      </trkpt>
      <trkpt lat="0" lon="0">
        <time>2021-02-28T10:06:36.599000+00:00</time>
      </trkpt>
      <trkpt lat="47.32882" lon="-1.39406">
        <ele>117</ele>
        <time>2021-02-28T10:06:37.571000+00:00</time>
      </trkpt>
      <trkpt lat="0" lon="0">
        <time>2021-02-28T10:06:37.578000+00:00</time>
      </trkpt>
      <trkpt lat="0" lon="0">
        <time>2021-02-28T10:06:37.583000+00:00</time>
      </trkpt>
      <trkpt lat="0" lon="0">
        <time>2021-02-28T10:06:37.586000+00:00</time>
      </trkpt>
      <trkpt lat="47.32877" lon="-1.39406">
        <ele>118</ele>
        <time>2021-02-28T10:06:38.563000+00:00</time>
      </trkpt>
      <trkpt lat="0" lon="0">
        <time>2021-02-28T10:06:38.573000+00:00</time>
      </trkpt>
      <trkpt lat="0" lon="0">
        <time>2021-02-28T10:06:38.577000+00:00</time>
      </trkpt>
      <trkpt lat="0" lon="0">
        <time>2021-02-28T10:06:38.580000+00:00</time>
      </trkpt>
      <trkpt lat="47.32873" lon="-1.39406">
        <ele>118</ele>
        <time>2021-02-28T10:06:39.522000+00:00</time>
      </trkpt>
      <trkpt lat="0" lon="0">
        <time>2021-02-28T10:06:39.526000+00:00</time>
      </trkpt>
      <trkpt lat="0" lon="0">
        <time>2021-02-28T10:06:39.531000+00:00</time>
      </trkpt>
      <trkpt lat="0" lon="0">
        <time>2021-02-28T10:06:39.533000+00:00</time>
      </trkpt>
      <trkpt lat="47.32868" lon="-1.39406">
        <ele>118</ele>
        <time>2021-02-28T10:06:40.514000+00:00</time>
      </trkpt>
      <trkpt lat="0" lon="0">
        <time>2021-02-28T10:06:40.526000+00:00</time>
      </trkpt>
      <trkpt lat="0" lon="0">
        <time>2021-02-28T10:06:40.531000+00:00</time>
      </trkpt>
      <trkpt lat="0" lon="0">
        <time>2021-02-28T10:06:40.534000+00:00</time>
      </trkpt>
      <trkpt lat="47.32864" lon="-1.39406">
        <ele>118</ele>
        <time>2021-02-28T10:06:41.477000+00:00</time>
      </trkpt>
      <trkpt lat="0" lon="0">
        <time>2021-02-28T10:06:41.483000+00:00</time>
      </trkpt>
      <trkpt lat="0" lon="0">
        <time>2021-02-28T10:06:41.488000+00:00</time>
      </trkpt>
      <trkpt lat="0" lon="0">
        <time>2021-02-28T10:06:41.491000+00:00</time>
      </trkpt>
      <trkpt lat="47.32859" lon="-1.39405">
        <ele>118</ele>
        <time>2021-02-28T10:06:42.506000+00:00</time>
      </trkpt>
      <trkpt lat="0" lon="0">
        <time>2021-02-28T10:06:42.517000+00:00</time>
      </trkpt>
      <trkpt lat="0" lon="0">
        <time>2021-02-28T10:06:42.521000+00:00</time>
      </trkpt>
      <trkpt lat="0" lon="0">
        <time>2021-02-28T10:06:42.523000+00:00</time>
      </trkpt>
      <trkpt lat="47.32855" lon="-1.39405">
        <ele>119</ele>
        <time>2021-02-28T10:06:43.536000+00:00</time>
      </trkpt>
      <trkpt lat="0" lon="0">
        <time>2021-02-28T10:06:43.542000+00:00</time>
      </trkpt>
      <trkpt lat="0" lon="0">
        <time>2021-02-28T10:06:43.549000+00:00</time>
      </trkpt>
      <trkpt lat="0" lon="0">
        <time>2021-02-28T10:06:43.552000+00:00</time>
      </trkpt>
      <trkpt lat="47.3285" lon="-1.39405">
        <ele>119</ele>
        <time>2021-02-28T10:06:44.540000+00:00</time>
      </trkpt>
      <trkpt lat="0" lon="0">
        <time>2021-02-28T10:06:44.545000+00:00</time>
      </trkpt>
      <trkpt lat="0" lon="0">
        <time>2021-02-28T10:06:44.550000+00:00</time>
      </trkpt>
      <trkpt lat="0" lon="0">
        <time>2021-02-28T10:06:44.552000+00:00</time>
      </trkpt>
      <trkpt lat="47.32845" lon="-1.39404">
        <ele>119</ele>
        <time>2021-02-28T10:06:45.520000+00:00</time>
      </trkpt>
      <trkpt lat="0" lon="0">
        <time>2021-02-28T10:06:45.522000+00:00</time>
      </trkpt>
      <trkpt lat="0" lon="0">
        <time>2021-02-28T10:06:45.524000+00:00</time>
      </trkpt>
      <trkpt lat="0" lon="0">
        <time>2021-02-28T10:06:45.525000+00:00</time>
      </trkpt>
      <trkpt lat="47.3284" lon="-1.39404">
        <ele>119</ele>
        <time>2021-02-28T10:06:46.542000+00:00</time>
      </trkpt>
      <trkpt lat="0" lon="0">
        <time>2021-02-28T10:06:46.550000+00:00</time>
      </trkpt>
      <trkpt lat="0" lon="0">
        <time>2021-02-28T10:06:46.554000+00:00</time>
      </trkpt>
      <trkpt lat="0" lon="0">
        <time>2021-02-28T10:06:46.557000+00:00</time>
      </trkpt>
      <trkpt lat="47.32835" lon="-1.39403">
        <ele>119</ele>
        <time>2021-02-28T10:06:47.499000+00:00</time>
      </trkpt>
      <trkpt lat="0" lon="0">
        <time>2021-02-28T10:06:47.511000+00:00</time>
      </trkpt>
      <trkpt lat="0" lon="0">
        <time>2021-02-28T10:06:47.515000+00:00</time>
      </trkpt>
      <trkpt lat="0" lon="0">
        <time>2021-02-28T10:06:47.517000+00:00</time>
      </trkpt>
      <trkpt lat="47.3283" lon="-1.39402">
        <ele>119</ele>
        <time>2021-02-28T10:06:48.553000+00:00</time>
      </trkpt>
      <trkpt lat="0" lon="0">
        <time>2021-02-28T10:06:48.558000+00:00</time>
      </trkpt>
      <trkpt lat="0" lon="0">
        <time>2021-02-28T10:06:48.563000+00:00</time>
      </trkpt>
      <trkpt lat="0" lon="0">
        <time>2021-02-28T10:06:48.565000+00:00</time>
      </trkpt>
      <trkpt lat="47.32825" lon="-1.39401">
        <ele>119</ele>
        <time>2021-02-28T10:06:49.541000+00:00</time>
      </trkpt>
      <trkpt lat="0" lon="0">
        <time>2021-02-28T10:06:49.551000+00:00</time>
      </trkpt>
      <trkpt lat="0" lon="0">
        <time>2021-02-28T10:06:49.558000+00:00</time>
      </trkpt>
      <trkpt lat="0" lon="0">
        <time>2021-02-28T10:06:49.561000+00:00</time>
      </trkpt>
      <trkpt lat="47.3282" lon="-1.394">
        <ele>119</ele>
        <time>2021-02-28T10:06:50.525000+00:00</time>
      </trkpt>
      <trkpt lat="0" lon="0">
        <time>2021-02-28T10:06:50.532000+00:00</time>
      </trkpt>
      <trkpt lat="0" lon="0">
        <time>2021-02-28T10:06:50.537000+00:00</time>
      </trkpt>
      <trkpt lat="0" lon="0">
        <time>2021-02-28T10:06:50.540000+00:00</time>
      </trkpt>
      <trkpt lat="47.32814" lon="-1.39399">
        <ele>119</ele>
        <time>2021-02-28T10:06:51.578000+00:00</time>
      </trkpt>
      <trkpt lat="0" lon="0">
        <time>2021-02-28T10:06:51.585000+00:00</time>
      </trkpt>
      <trkpt lat="0" lon="0">
        <time>2021-02-28T10:06:51.596000+00:00</time>
      </trkpt>
      <trkpt lat="0" lon="0">
        <time>2021-02-28T10:06:51.599000+00:00</time>
      </trkpt>
      <trkpt lat="47.32809" lon="-1.39398">
        <ele>119</ele>
        <time>2021-02-28T10:06:52.528000+00:00</time>
      </trkpt>
      <trkpt lat="0" lon="0">
        <time>2021-02-28T10:06:52.536000+00:00</time>
      </trkpt>
      <trkpt lat="0" lon="0">
        <time>2021-02-28T10:06:52.542000+00:00</time>
      </trkpt>
      <trkpt lat="0" lon="0">
        <time>2021-02-28T10:06:52.546000+00:00</time>
      </trkpt>
      <trkpt lat="47.32804" lon="-1.39397">
        <ele>119</ele>
        <time>2021-02-28T10:06:53.555000+00:00</time>
      </trkpt>
      <trkpt lat="0" lon="0">
        <time>2021-02-28T10:06:53.563000+00:00</time>
      </trkpt>
      <trkpt lat="0" lon="0">
        <time>2021-02-28T10:06:53.568000+00:00</time>
      </trkpt>
      <trkpt lat="0" lon="0">
        <time>2021-02-28T10:06:53.571000+00:00</time>
      </trkpt>
      <trkpt lat="47.32799" lon="-1.39396">
        <ele>119</ele>
        <time>2021-02-28T10:06:54.540000+00:00</time>
      </trkpt>
      <trkpt lat="0" lon="0">
        <time>2021-02-28T10:06:54.550000+00:00</time>
      </trkpt>
      <trkpt lat="0" lon="0">
        <time>2021-02-28T10:06:54.555000+00:00</time>
      </trkpt>
      <trkpt lat="0" lon="0">
        <time>2021-02-28T10:06:54.558000+00:00</time>
      </trkpt>
      <trkpt lat="47.32794" lon="-1.39395">
        <ele>119</ele>
        <time>2021-02-28T10:06:55.553000+00:00</time>
      </trkpt>
      <trkpt lat="0" lon="0">
        <time>2021-02-28T10:06:55.567000+00:00</time>
      </trkpt>
      <trkpt lat="0" lon="0">
        <time>2021-02-28T10:06:55.572000+00:00</time>
      </trkpt>
      <trkpt lat="0" lon="0">
        <time>2021-02-28T10:06:55.574000+00:00</time>
      </trkpt>
      <trkpt lat="47.32789" lon="-1.39394">
        <ele>119</ele>
        <time>2021-02-28T10:06:56.538000+00:00</time>
      </trkpt>
      <trkpt lat="0" lon="0">
        <time>2021-02-28T10:06:56.542000+00:00</time>
      </trkpt>
      <trkpt lat="0" lon="0">
        <time>2021-02-28T10:06:56.547000+00:00</time>
      </trkpt>
      <trkpt lat="0" lon="0">
        <time>2021-02-28T10:06:56.549000+00:00</time>
      </trkpt>
      <trkpt lat="47.32783" lon="-1.39393">
        <ele>119</ele>
        <time>2021-02-28T10:06:57.428000+00:00</time>
      </trkpt>
      <trkpt lat="0" lon="0">
        <time>2021-02-28T10:06:57.433000+00:00</time>
      </trkpt>
      <trkpt lat="0" lon="0">
        <time>2021-02-28T10:06:57.442000+00:00</time>
      </trkpt>
      <trkpt lat="0" lon="0">
        <time>2021-02-28T10:06:57.444000+00:00</time>
      </trkpt>
      <trkpt lat="47.32778" lon="-1.39392">
        <ele>120</ele>
        <time>2021-02-28T10:06:58.458000+00:00</time>
      </trkpt>
      <trkpt lat="0" lon="0">
        <time>2021-02-28T10:06:58.466000+00:00</time>
      </trkpt>
      <trkpt lat="0" lon="0">
        <time>2021-02-28T10:06:58.472000+00:00</time>
      </trkpt>
      <trkpt lat="0" lon="0">
        <time>2021-02-28T10:06:58.476000+00:00</time>
      </trkpt>
      <trkpt lat="47.32774" lon="-1.39391">
        <ele>120</ele>
        <time>2021-02-28T10:06:59.433000+00:00</time>
      </trkpt>
      <trkpt lat="0" lon="0">
        <time>2021-02-28T10:06:59.440000+00:00</time>
      </trkpt>
      <trkpt lat="0" lon="0">
        <time>2021-02-28T10:06:59.444000+00:00</time>
      </trkpt>
      <trkpt lat="0" lon="0">
        <time>2021-02-28T10:06:59.446000+00:00</time>
      </trkpt>
      <trkpt lat="47.32769" lon="-1.3939">
        <ele>120</ele>
        <time>2021-02-28T10:07:00.496000+00:00</time>
      </trkpt>
      <trkpt lat="0" lon="0">
        <time>2021-02-28T10:07:00.502000+00:00</time>
      </trkpt>
      <trkpt lat="0" lon="0">
        <time>2021-02-28T10:07:00.510000+00:00</time>
      </trkpt>
      <trkpt lat="0" lon="0">
        <time>2021-02-28T10:07:00.514000+00:00</time>
      </trkpt>
      <trkpt lat="47.32764" lon="-1.39389">
        <ele>119</ele>
        <time>2021-02-28T10:07:01.547000+00:00</time>
      </trkpt>
      <trkpt lat="0" lon="0">
        <time>2021-02-28T10:07:01.558000+00:00</time>
      </trkpt>
      <trkpt lat="0" lon="0">
        <time>2021-02-28T10:07:01.567000+00:00</time>
      </trkpt>
      <trkpt lat="0" lon="0">
        <time>2021-02-28T10:07:01.574000+00:00</time>
      </trkpt>
      <trkpt lat="47.32759" lon="-1.39388">
        <ele>120</ele>
        <time>2021-02-28T10:07:02.544000+00:00</time>
      </trkpt>
      <trkpt lat="0" lon="0">
        <time>2021-02-28T10:07:02.550000+00:00</time>
      </trkpt>
      <trkpt lat="0" lon="0">
        <time>2021-02-28T10:07:02.555000+00:00</time>
      </trkpt>
      <trkpt lat="0" lon="0">
        <time>2021-02-28T10:07:02.559000+00:00</time>
      </trkpt>
      <trkpt lat="47.32755" lon="-1.39387">
        <ele>120</ele>
        <time>2021-02-28T10:07:03.566000+00:00</time>
      </trkpt>
      <trkpt lat="0" lon="0">
        <time>2021-02-28T10:07:03.573000+00:00</time>
      </trkpt>
      <trkpt lat="0" lon="0">
        <time>2021-02-28T10:07:03.579000+00:00</time>
      </trkpt>
      <trkpt lat="0" lon="0">
        <time>2021-02-28T10:07:03.582000+00:00</time>
      </trkpt>
      <trkpt lat="47.3275" lon="-1.39386">
        <ele>120</ele>
        <time>2021-02-28T10:07:04.532000+00:00</time>
      </trkpt>
      <trkpt lat="0" lon="0">
        <time>2021-02-28T10:07:04.538000+00:00</time>
      </trkpt>
      <trkpt lat="0" lon="0">
        <time>2021-02-28T10:07:04.543000+00:00</time>
      </trkpt>
      <trkpt lat="0" lon="0">
        <time>2021-02-28T10:07:04.547000+00:00</time>
      </trkpt>
      <trkpt lat="47.32745" lon="-1.39385">
        <ele>120</ele>
        <time>2021-02-28T10:07:05.499000+00:00</time>
      </trkpt>
      <trkpt lat="0" lon="0">
        <time>2021-02-28T10:07:05.513000+00:00</time>
      </trkpt>
      <trkpt lat="0" lon="0">
        <time>2021-02-28T10:07:05.517000+00:00</time>
      </trkpt>
      <trkpt lat="0" lon="0">
        <time>2021-02-28T10:07:05.519000+00:00</time>
      </trkpt>
      <trkpt lat="47.3274" lon="-1.39384">
        <ele>121</ele>
        <time>2021-02-28T10:07:06.557000+00:00</time>
      </trkpt>
      <trkpt lat="0" lon="0">
        <time>2021-02-28T10:07:06.561000+00:00</time>
      </trkpt>
      <trkpt lat="0" lon="0">
        <time>2021-02-28T10:07:06.566000+00:00</time>
      </trkpt>
      <trkpt lat="0" lon="0">
        <time>2021-02-28T10:07:06.571000+00:00</time>
      </trkpt>
      <trkpt lat="47.32736" lon="-1.39384">
        <ele>121</ele>
        <time>2021-02-28T10:07:07.557000+00:00</time>
      </trkpt>
      <trkpt lat="0" lon="0">
        <time>2021-02-28T10:07:07.568000+00:00</time>
      </trkpt>
      <trkpt lat="0" lon="0">
        <time>2021-02-28T10:07:07.573000+00:00</time>
      </trkpt>
      <trkpt lat="0" lon="0">
        <time>2021-02-28T10:07:07.575000+00:00</time>
      </trkpt>
      <trkpt lat="47.32731" lon="-1.39383">
        <ele>121</ele>
        <time>2021-02-28T10:07:08.534000+00:00</time>
      </trkpt>
      <trkpt lat="0" lon="0">
        <time>2021-02-28T10:07:08.543000+00:00</time>
      </trkpt>
      <trkpt lat="0" lon="0">
        <time>2021-02-28T10:07:08.548000+00:00</time>
      </trkpt>
      <trkpt lat="0" lon="0">
        <time>2021-02-28T10:07:08.553000+00:00</time>
      </trkpt>
      <trkpt lat="47.32726" lon="-1.39383">
        <ele>121</ele>
        <time>2021-02-28T10:07:09.562000+00:00</time>
      </trkpt>
      <trkpt lat="0" lon="0">
        <time>2021-02-28T10:07:09.571000+00:00</time>
      </trkpt>
      <trkpt lat="0" lon="0">
        <time>2021-02-28T10:07:09.578000+00:00</time>
      </trkpt>
      <trkpt lat="0" lon="0">
        <time>2021-02-28T10:07:09.580000+00:00</time>
      </trkpt>
      <trkpt lat="47.32721" lon="-1.39383">
        <ele>121</ele>
        <time>2021-02-28T10:07:10.501000+00:00</time>
      </trkpt>
      <trkpt lat="0" lon="0">
        <time>2021-02-28T10:07:10.510000+00:00</time>
      </trkpt>
      <trkpt lat="0" lon="0">
        <time>2021-02-28T10:07:10.514000+00:00</time>
      </trkpt>
      <trkpt lat="0" lon="0">
        <time>2021-02-28T10:07:10.516000+00:00</time>
      </trkpt>
      <trkpt lat="47.32715" lon="-1.39382">
        <ele>121</ele>
        <time>2021-02-28T10:07:11.567000+00:00</time>
      </trkpt>
      <trkpt lat="0" lon="0">
        <time>2021-02-28T10:07:11.573000+00:00</time>
      </trkpt>
      <trkpt lat="0" lon="0">
        <time>2021-02-28T10:07:11.579000+00:00</time>
      </trkpt>
      <trkpt lat="0" lon="0">
        <time>2021-02-28T10:07:11.590000+00:00</time>
      </trkpt>
      <trkpt lat="47.3271" lon="-1.39382">
        <ele>121</ele>
        <time>2021-02-28T10:07:12.545000+00:00</time>
      </trkpt>
      <trkpt lat="0" lon="0">
        <time>2021-02-28T10:07:12.549000+00:00</time>
      </trkpt>
      <trkpt lat="0" lon="0">
        <time>2021-02-28T10:07:12.555000+00:00</time>
      </trkpt>
      <trkpt lat="0" lon="0">
        <time>2021-02-28T10:07:12.558000+00:00</time>
      </trkpt>
      <trkpt lat="47.32704" lon="-1.39381">
        <ele>121</ele>
        <time>2021-02-28T10:07:13.565000+00:00</time>
      </trkpt>
      <trkpt lat="0" lon="0">
        <time>2021-02-28T10:07:13.581000+00:00</time>
      </trkpt>
      <trkpt lat="0" lon="0">
        <time>2021-02-28T10:07:13.585000+00:00</time>
      </trkpt>
      <trkpt lat="0" lon="0">
        <time>2021-02-28T10:07:13.587000+00:00</time>
      </trkpt>
      <trkpt lat="47.32699" lon="-1.39381">
        <ele>121</ele>
        <time>2021-02-28T10:07:14.507000+00:00</time>
      </trkpt>
      <trkpt lat="0" lon="0">
        <time>2021-02-28T10:07:14.515000+00:00</time>
      </trkpt>
      <trkpt lat="0" lon="0">
        <time>2021-02-28T10:07:14.520000+00:00</time>
      </trkpt>
      <trkpt lat="0" lon="0">
        <time>2021-02-28T10:07:14.523000+00:00</time>
      </trkpt>
      <trkpt lat="47.32693" lon="-1.3938">
        <ele>122</ele>
        <time>2021-02-28T10:07:15.490000+00:00</time>
      </trkpt>
      <trkpt lat="0" lon="0">
        <time>2021-02-28T10:07:15.495000+00:00</time>
      </trkpt>
      <trkpt lat="0" lon="0">
        <time>2021-02-28T10:07:15.499000+00:00</time>
      </trkpt>
      <trkpt lat="0" lon="0">
        <time>2021-02-28T10:07:15.501000+00:00</time>
      </trkpt>
      <trkpt lat="47.32686" lon="-1.39379">
        <ele>122</ele>
        <time>2021-02-28T10:07:16.540000+00:00</time>
      </trkpt>
      <trkpt lat="0" lon="0">
        <time>2021-02-28T10:07:16.544000+00:00</time>
      </trkpt>
      <trkpt lat="0" lon="0">
        <time>2021-02-28T10:07:16.549000+00:00</time>
      </trkpt>
      <trkpt lat="0" lon="0">
        <time>2021-02-28T10:07:16.551000+00:00</time>
      </trkpt>
      <trkpt lat="47.3268" lon="-1.39377">
        <ele>121</ele>
        <time>2021-02-28T10:07:17.537000+00:00</time>
      </trkpt>
      <trkpt lat="0" lon="0">
        <time>2021-02-28T10:07:17.549000+00:00</time>
      </trkpt>
      <trkpt lat="0" lon="0">
        <time>2021-02-28T10:07:17.554000+00:00</time>
      </trkpt>
      <trkpt lat="0" lon="0">
        <time>2021-02-28T10:07:17.557000+00:00</time>
      </trkpt>
      <trkpt lat="47.32673" lon="-1.39375">
        <ele>122</ele>
        <time>2021-02-28T10:07:18.535000+00:00</time>
      </trkpt>
      <trkpt lat="0" lon="0">
        <time>2021-02-28T10:07:18.547000+00:00</time>
      </trkpt>
      <trkpt lat="0" lon="0">
        <time>2021-02-28T10:07:18.553000+00:00</time>
      </trkpt>
      <trkpt lat="0" lon="0">
        <time>2021-02-28T10:07:18.556000+00:00</time>
      </trkpt>
      <trkpt lat="47.32667" lon="-1.39373">
        <ele>121</ele>
        <time>2021-02-28T10:07:19.517000+00:00</time>
      </trkpt>
      <trkpt lat="0" lon="0">
        <time>2021-02-28T10:07:19.520000+00:00</time>
      </trkpt>
      <trkpt lat="0" lon="0">
        <time>2021-02-28T10:07:19.522000+00:00</time>
      </trkpt>
      <trkpt lat="0" lon="0">
        <time>2021-02-28T10:07:19.525000+00:00</time>
      </trkpt>
      <trkpt lat="47.3266" lon="-1.3937">
        <ele>121</ele>
        <time>2021-02-28T10:07:20.553000+00:00</time>
      </trkpt>
      <trkpt lat="0" lon="0">
        <time>2021-02-28T10:07:20.562000+00:00</time>
      </trkpt>
      <trkpt lat="0" lon="0">
        <time>2021-02-28T10:07:20.568000+00:00</time>
      </trkpt>
      <trkpt lat="0" lon="0">
        <time>2021-02-28T10:07:20.572000+00:00</time>
      </trkpt>
      <trkpt lat="47.32654" lon="-1.39368">
        <ele>121</ele>
        <time>2021-02-28T10:07:21.502000+00:00</time>
      </trkpt>
      <trkpt lat="0" lon="0">
        <time>2021-02-28T10:07:21.508000+00:00</time>
      </trkpt>
      <trkpt lat="0" lon="0">
        <time>2021-02-28T10:07:21.514000+00:00</time>
      </trkpt>
      <trkpt lat="0" lon="0">
        <time>2021-02-28T10:07:21.517000+00:00</time>
      </trkpt>
      <trkpt lat="47.32648" lon="-1.39365">
        <ele>121</ele>
        <time>2021-02-28T10:07:22.532000+00:00</time>
      </trkpt>
      <trkpt lat="0" lon="0">
        <time>2021-02-28T10:07:22.541000+00:00</time>
      </trkpt>
      <trkpt lat="0" lon="0">
        <time>2021-02-28T10:07:22.549000+00:00</time>
      </trkpt>
      <trkpt lat="0" lon="0">
        <time>2021-02-28T10:07:22.551000+00:00</time>
      </trkpt>
      <trkpt lat="47.32641" lon="-1.39363">
        <ele>121</ele>
        <time>2021-02-28T10:07:23.453000+00:00</time>
      </trkpt>
      <trkpt lat="0" lon="0">
        <time>2021-02-28T10:07:23.460000+00:00</time>
      </trkpt>
      <trkpt lat="0" lon="0">
        <time>2021-02-28T10:07:23.464000+00:00</time>
      </trkpt>
      <trkpt lat="0" lon="0">
        <time>2021-02-28T10:07:23.466000+00:00</time>
      </trkpt>
      <trkpt lat="47.32635" lon="-1.3936">
        <ele>121</ele>
        <time>2021-02-28T10:07:24.477000+00:00</time>
      </trkpt>
      <trkpt lat="0" lon="0">
        <time>2021-02-28T10:07:24.483000+00:00</time>
      </trkpt>
      <trkpt lat="0" lon="0">
        <time>2021-02-28T10:07:24.488000+00:00</time>
      </trkpt>
      <trkpt lat="0" lon="0">
        <time>2021-02-28T10:07:24.491000+00:00</time>
      </trkpt>
      <trkpt lat="47.32628" lon="-1.39357">
        <ele>121</ele>
        <time>2021-02-28T10:07:25.556000+00:00</time>
      </trkpt>
      <trkpt lat="0" lon="0">
        <time>2021-02-28T10:07:25.561000+00:00</time>
      </trkpt>
      <trkpt lat="0" lon="0">
        <time>2021-02-28T10:07:25.564000+00:00</time>
      </trkpt>
      <trkpt lat="0" lon="0">
        <time>2021-02-28T10:07:25.565000+00:00</time>
      </trkpt>
      <trkpt lat="47.32622" lon="-1.39355">
        <ele>121</ele>
        <time>2021-02-28T10:07:26.531000+00:00</time>
      </trkpt>
      <trkpt lat="0" lon="0">
        <time>2021-02-28T10:07:26.548000+00:00</time>
      </trkpt>
      <trkpt lat="0" lon="0">
        <time>2021-02-28T10:07:26.554000+00:00</time>
      </trkpt>
      <trkpt lat="0" lon="0">
        <time>2021-02-28T10:07:26.557000+00:00</time>
      </trkpt>
      <trkpt lat="47.32615" lon="-1.39352">
        <ele>121</ele>
        <time>2021-02-28T10:07:27.580000+00:00</time>
      </trkpt>
      <trkpt lat="0" lon="0">
        <time>2021-02-28T10:07:27.589000+00:00</time>
      </trkpt>
      <trkpt lat="0" lon="0">
        <time>2021-02-28T10:07:27.597000+00:00</time>
      </trkpt>
      <trkpt lat="0" lon="0">
        <time>2021-02-28T10:07:27.601000+00:00</time>
      </trkpt>
      <trkpt lat="47.32608" lon="-1.3935">
        <ele>120</ele>
        <time>2021-02-28T10:07:28.559000+00:00</time>
      </trkpt>
      <trkpt lat="0" lon="0">
        <time>2021-02-28T10:07:28.565000+00:00</time>
      </trkpt>
      <trkpt lat="0" lon="0">
        <time>2021-02-28T10:07:28.570000+00:00</time>
      </trkpt>
      <trkpt lat="0" lon="0">
        <time>2021-02-28T10:07:28.573000+00:00</time>
      </trkpt>
      <trkpt lat="47.32602" lon="-1.39347">
        <ele>119</ele>
        <time>2021-02-28T10:07:29.514000+00:00</time>
      </trkpt>
      <trkpt lat="0" lon="0">
        <time>2021-02-28T10:07:29.527000+00:00</time>
      </trkpt>
      <trkpt lat="0" lon="0">
        <time>2021-02-28T10:07:29.536000+00:00</time>
      </trkpt>
      <trkpt lat="0" lon="0">
        <time>2021-02-28T10:07:29.539000+00:00</time>
      </trkpt>
      <trkpt lat="47.32595" lon="-1.39345">
        <ele>119</ele>
        <time>2021-02-28T10:07:30.546000+00:00</time>
      </trkpt>
      <trkpt lat="0" lon="0">
        <time>2021-02-28T10:07:30.552000+00:00</time>
      </trkpt>
      <trkpt lat="0" lon="0">
        <time>2021-02-28T10:07:30.557000+00:00</time>
      </trkpt>
      <trkpt lat="0" lon="0">
        <time>2021-02-28T10:07:30.560000+00:00</time>
      </trkpt>
      <trkpt lat="47.32588" lon="-1.39343">
        <ele>118</ele>
        <time>2021-02-28T10:07:31.494000+00:00</time>
      </trkpt>
      <trkpt lat="0" lon="0">
        <time>2021-02-28T10:07:31.501000+00:00</time>
      </trkpt>
      <trkpt lat="0" lon="0">
        <time>2021-02-28T10:07:31.507000+00:00</time>
      </trkpt>
      <trkpt lat="0" lon="0">
        <time>2021-02-28T10:07:31.510000+00:00</time>
      </trkpt>
      <trkpt lat="47.32581" lon="-1.3934">
        <ele>118</ele>
        <time>2021-02-28T10:07:32.506000+00:00</time>
      </trkpt>
      <trkpt lat="0" lon="0">
        <time>2021-02-28T10:07:32.512000+00:00</time>
      </trkpt>
      <trkpt lat="0" lon="0">
        <time>2021-02-28T10:07:32.517000+00:00</time>
      </trkpt>
      <trkpt lat="0" lon="0">
        <time>2021-02-28T10:07:32.523000+00:00</time>
      </trkpt>
      <trkpt lat="47.32574" lon="-1.39337">
        <ele>117</ele>
        <time>2021-02-28T10:07:33.518000+00:00</time>
      </trkpt>
      <trkpt lat="0" lon="0">
        <time>2021-02-28T10:07:33.530000+00:00</time>
      </trkpt>
      <trkpt lat="0" lon="0">
        <time>2021-02-28T10:07:33.534000+00:00</time>
      </trkpt>
      <trkpt lat="0" lon="0">
        <time>2021-02-28T10:07:33.536000+00:00</time>
      </trkpt>
      <trkpt lat="47.32566" lon="-1.39335">
        <ele>117</ele>
        <time>2021-02-28T10:07:34.528000+00:00</time>
      </trkpt>
      <trkpt lat="0" lon="0">
        <time>2021-02-28T10:07:34.535000+00:00</time>
      </trkpt>
      <trkpt lat="0" lon="0">
        <time>2021-02-28T10:07:34.539000+00:00</time>
      </trkpt>
      <trkpt lat="0" lon="0">
        <time>2021-02-28T10:07:34.542000+00:00</time>
      </trkpt>
      <trkpt lat="47.32559" lon="-1.39333">
        <ele>116</ele>
        <time>2021-02-28T10:07:35.530000+00:00</time>
      </trkpt>
      <trkpt lat="0" lon="0">
        <time>2021-02-28T10:07:35.535000+00:00</time>
      </trkpt>
      <trkpt lat="0" lon="0">
        <time>2021-02-28T10:07:35.540000+00:00</time>
      </trkpt>
      <trkpt lat="0" lon="0">
        <time>2021-02-28T10:07:35.543000+00:00</time>
      </trkpt>
      <trkpt lat="47.32552" lon="-1.39331">
        <ele>116</ele>
        <time>2021-02-28T10:07:36.507000+00:00</time>
      </trkpt>
      <trkpt lat="0" lon="0">
        <time>2021-02-28T10:07:36.513000+00:00</time>
      </trkpt>
      <trkpt lat="0" lon="0">
        <time>2021-02-28T10:07:36.518000+00:00</time>
      </trkpt>
      <trkpt lat="0" lon="0">
        <time>2021-02-28T10:07:36.523000+00:00</time>
      </trkpt>
      <trkpt lat="47.32545" lon="-1.39329">
        <ele>116</ele>
        <time>2021-02-28T10:07:37.515000+00:00</time>
      </trkpt>
      <trkpt lat="0" lon="0">
        <time>2021-02-28T10:07:37.522000+00:00</time>
      </trkpt>
      <trkpt lat="0" lon="0">
        <time>2021-02-28T10:07:37.528000+00:00</time>
      </trkpt>
      <trkpt lat="0" lon="0">
        <time>2021-02-28T10:07:37.532000+00:00</time>
      </trkpt>
      <trkpt lat="47.32538" lon="-1.39328">
        <ele>115</ele>
        <time>2021-02-28T10:07:38.532000+00:00</time>
      </trkpt>
      <trkpt lat="0" lon="0">
        <time>2021-02-28T10:07:38.542000+00:00</time>
      </trkpt>
      <trkpt lat="0" lon="0">
        <time>2021-02-28T10:07:38.546000+00:00</time>
      </trkpt>
      <trkpt lat="0" lon="0">
        <time>2021-02-28T10:07:38.550000+00:00</time>
      </trkpt>
      <trkpt lat="47.32531" lon="-1.39328">
        <ele>115</ele>
        <time>2021-02-28T10:07:39.527000+00:00</time>
      </trkpt>
      <trkpt lat="0" lon="0">
        <time>2021-02-28T10:07:39.533000+00:00</time>
      </trkpt>
      <trkpt lat="0" lon="0">
        <time>2021-02-28T10:07:39.542000+00:00</time>
      </trkpt>
      <trkpt lat="0" lon="0">
        <time>2021-02-28T10:07:39.545000+00:00</time>
      </trkpt>
      <trkpt lat="47.32524" lon="-1.39328">
        <ele>116</ele>
        <time>2021-02-28T10:07:40.515000+00:00</time>
      </trkpt>
      <trkpt lat="0" lon="0">
        <time>2021-02-28T10:07:40.521000+00:00</time>
      </trkpt>
      <trkpt lat="0" lon="0">
        <time>2021-02-28T10:07:40.526000+00:00</time>
      </trkpt>
      <trkpt lat="0" lon="0">
        <time>2021-02-28T10:07:40.529000+00:00</time>
      </trkpt>
      <trkpt lat="47.32517" lon="-1.3933">
        <ele>116</ele>
        <time>2021-02-28T10:07:41.566000+00:00</time>
      </trkpt>
      <trkpt lat="0" lon="0">
        <time>2021-02-28T10:07:41.571000+00:00</time>
      </trkpt>
      <trkpt lat="0" lon="0">
        <time>2021-02-28T10:07:41.577000+00:00</time>
      </trkpt>
      <trkpt lat="0" lon="0">
        <time>2021-02-28T10:07:41.579000+00:00</time>
      </trkpt>
      <trkpt lat="47.3251" lon="-1.39332">
        <ele>116</ele>
        <time>2021-02-28T10:07:42.569000+00:00</time>
      </trkpt>
      <trkpt lat="0" lon="0">
        <time>2021-02-28T10:07:42.571000+00:00</time>
      </trkpt>
      <trkpt lat="0" lon="0">
        <time>2021-02-28T10:07:42.574000+00:00</time>
      </trkpt>
      <trkpt lat="0" lon="0">
        <time>2021-02-28T10:07:42.578000+00:00</time>
      </trkpt>
      <trkpt lat="47.32503" lon="-1.39335">
        <ele>116</ele>
        <time>2021-02-28T10:07:43.506000+00:00</time>
      </trkpt>
      <trkpt lat="0" lon="0">
        <time>2021-02-28T10:07:43.513000+00:00</time>
      </trkpt>
      <trkpt lat="0" lon="0">
        <time>2021-02-28T10:07:43.519000+00:00</time>
      </trkpt>
      <trkpt lat="0" lon="0">
        <time>2021-02-28T10:07:43.522000+00:00</time>
      </trkpt>
      <trkpt lat="47.32496" lon="-1.39338">
        <ele>116</ele>
        <time>2021-02-28T10:07:44.509000+00:00</time>
      </trkpt>
      <trkpt lat="0" lon="0">
        <time>2021-02-28T10:07:44.517000+00:00</time>
      </trkpt>
      <trkpt lat="0" lon="0">
        <time>2021-02-28T10:07:44.521000+00:00</time>
      </trkpt>
      <trkpt lat="0" lon="0">
        <time>2021-02-28T10:07:44.523000+00:00</time>
      </trkpt>
      <trkpt lat="47.32489" lon="-1.39343">
        <ele>115</ele>
        <time>2021-02-28T10:07:45.546000+00:00</time>
      </trkpt>
      <trkpt lat="0" lon="0">
        <time>2021-02-28T10:07:45.554000+00:00</time>
      </trkpt>
      <trkpt lat="0" lon="0">
        <time>2021-02-28T10:07:45.559000+00:00</time>
      </trkpt>
      <trkpt lat="0" lon="0">
        <time>2021-02-28T10:07:45.561000+00:00</time>
      </trkpt>
      <trkpt lat="47.32482" lon="-1.39347">
        <ele>115</ele>
        <time>2021-02-28T10:07:46.541000+00:00</time>
      </trkpt>
      <trkpt lat="0" lon="0">
        <time>2021-02-28T10:07:46.551000+00:00</time>
      </trkpt>
      <trkpt lat="0" lon="0">
        <time>2021-02-28T10:07:46.555000+00:00</time>
      </trkpt>
      <trkpt lat="0" lon="0">
        <time>2021-02-28T10:07:46.557000+00:00</time>
      </trkpt>
      <trkpt lat="47.32475" lon="-1.39352">
        <ele>115</ele>
        <time>2021-02-28T10:07:47.520000+00:00</time>
      </trkpt>
      <trkpt lat="0" lon="0">
        <time>2021-02-28T10:07:47.529000+00:00</time>
      </trkpt>
      <trkpt lat="0" lon="0">
        <time>2021-02-28T10:07:47.534000+00:00</time>
      </trkpt>
      <trkpt lat="0" lon="0">
        <time>2021-02-28T10:07:47.537000+00:00</time>
      </trkpt>
      <trkpt lat="47.32468" lon="-1.39357">
        <ele>116</ele>
        <time>2021-02-28T10:07:48.503000+00:00</time>
      </trkpt>
      <trkpt lat="0" lon="0">
        <time>2021-02-28T10:07:48.513000+00:00</time>
      </trkpt>
      <trkpt lat="0" lon="0">
        <time>2021-02-28T10:07:48.518000+00:00</time>
      </trkpt>
      <trkpt lat="0" lon="0">
        <time>2021-02-28T10:07:48.520000+00:00</time>
      </trkpt>
      <trkpt lat="47.32462" lon="-1.39363">
        <ele>116</ele>
        <time>2021-02-28T10:07:49.538000+00:00</time>
      </trkpt>
      <trkpt lat="0" lon="0">
        <time>2021-02-28T10:07:49.548000+00:00</time>
      </trkpt>
      <trkpt lat="0" lon="0">
        <time>2021-02-28T10:07:49.553000+00:00</time>
      </trkpt>
      <trkpt lat="0" lon="0">
        <time>2021-02-28T10:07:49.556000+00:00</time>
      </trkpt>
      <trkpt lat="47.32455" lon="-1.39368">
        <ele>116</ele>
        <time>2021-02-28T10:07:50.550000+00:00</time>
      </trkpt>
      <trkpt lat="0" lon="0">
        <time>2021-02-28T10:07:50.562000+00:00</time>
      </trkpt>
      <trkpt lat="0" lon="0">
        <time>2021-02-28T10:07:50.566000+00:00</time>
      </trkpt>
      <trkpt lat="0" lon="0">
        <time>2021-02-28T10:07:50.570000+00:00</time>
      </trkpt>
      <trkpt lat="47.32449" lon="-1.39373">
        <ele>116</ele>
        <time>2021-02-28T10:07:51.554000+00:00</time>
      </trkpt>
      <trkpt lat="0" lon="0">
        <time>2021-02-28T10:07:51.561000+00:00</time>
      </trkpt>
      <trkpt lat="0" lon="0">
        <time>2021-02-28T10:07:51.567000+00:00</time>
      </trkpt>
      <trkpt lat="0" lon="0">
        <time>2021-02-28T10:07:51.570000+00:00</time>
      </trkpt>
      <trkpt lat="47.32443" lon="-1.3938">
        <ele>116</ele>
        <time>2021-02-28T10:07:52.572000+00:00</time>
      </trkpt>
      <trkpt lat="0" lon="0">
        <time>2021-02-28T10:07:52.578000+00:00</time>
      </trkpt>
      <trkpt lat="0" lon="0">
        <time>2021-02-28T10:07:52.584000+00:00</time>
      </trkpt>
      <trkpt lat="0" lon="0">
        <time>2021-02-28T10:07:52.589000+00:00</time>
      </trkpt>
      <trkpt lat="47.32439" lon="-1.39387">
        <ele>116</ele>
        <time>2021-02-28T10:07:53.539000+00:00</time>
      </trkpt>
      <trkpt lat="0" lon="0">
        <time>2021-02-28T10:07:53.550000+00:00</time>
      </trkpt>
      <trkpt lat="0" lon="0">
        <time>2021-02-28T10:07:53.556000+00:00</time>
      </trkpt>
      <trkpt lat="0" lon="0">
        <time>2021-02-28T10:07:53.559000+00:00</time>
      </trkpt>
      <trkpt lat="47.32435" lon="-1.39395">
        <ele>116</ele>
        <time>2021-02-28T10:07:54.513000+00:00</time>
      </trkpt>
      <trkpt lat="0" lon="0">
        <time>2021-02-28T10:07:54.518000+00:00</time>
      </trkpt>
      <trkpt lat="0" lon="0">
        <time>2021-02-28T10:07:54.523000+00:00</time>
      </trkpt>
      <trkpt lat="0" lon="0">
        <time>2021-02-28T10:07:54.526000+00:00</time>
      </trkpt>
      <trkpt lat="47.32431" lon="-1.39404">
        <ele>116</ele>
        <time>2021-02-28T10:07:55.546000+00:00</time>
      </trkpt>
      <trkpt lat="0" lon="0">
        <time>2021-02-28T10:07:55.553000+00:00</time>
      </trkpt>
      <trkpt lat="0" lon="0">
        <time>2021-02-28T10:07:55.559000+00:00</time>
      </trkpt>
      <trkpt lat="0" lon="0">
        <time>2021-02-28T10:07:55.563000+00:00</time>
      </trkpt>
      <trkpt lat="47.32428" lon="-1.39412">
        <ele>116</ele>
        <time>2021-02-28T10:07:56.555000+00:00</time>
      </trkpt>
      <trkpt lat="0" lon="0">
        <time>2021-02-28T10:07:56.565000+00:00</time>
      </trkpt>
      <trkpt lat="0" lon="0">
        <time>2021-02-28T10:07:56.574000+00:00</time>
      </trkpt>
      <trkpt lat="0" lon="0">
        <time>2021-02-28T10:07:56.582000+00:00</time>
      </trkpt>
      <trkpt lat="47.32426" lon="-1.39421">
        <ele>115</ele>
        <time>2021-02-28T10:07:57.609000+00:00</time>
      </trkpt>
      <trkpt lat="0" lon="0">
        <time>2021-02-28T10:07:57.622000+00:00</time>
      </trkpt>
      <trkpt lat="0" lon="0">
        <time>2021-02-28T10:07:57.629000+00:00</time>
      </trkpt>
      <trkpt lat="0" lon="0">
        <time>2021-02-28T10:07:57.632000+00:00</time>
      </trkpt>
      <trkpt lat="47.32423" lon="-1.39429">
        <ele>115</ele>
        <time>2021-02-28T10:07:58.565000+00:00</time>
      </trkpt>
      <trkpt lat="0" lon="0">
        <time>2021-02-28T10:07:58.575000+00:00</time>
      </trkpt>
      <trkpt lat="0" lon="0">
        <time>2021-02-28T10:07:58.584000+00:00</time>
      </trkpt>
      <trkpt lat="0" lon="0">
        <time>2021-02-28T10:07:58.587000+00:00</time>
      </trkpt>
      <trkpt lat="47.32421" lon="-1.39438">
        <ele>115</ele>
        <time>2021-02-28T10:07:59.547000+00:00</time>
      </trkpt>
      <trkpt lat="0" lon="0">
        <time>2021-02-28T10:07:59.556000+00:00</time>
      </trkpt>
      <trkpt lat="0" lon="0">
        <time>2021-02-28T10:07:59.560000+00:00</time>
      </trkpt>
      <trkpt lat="0" lon="0">
        <time>2021-02-28T10:07:59.563000+00:00</time>
      </trkpt>
      <trkpt lat="47.32419" lon="-1.39446">
        <ele>115</ele>
        <time>2021-02-28T10:08:00.569000+00:00</time>
      </trkpt>
      <trkpt lat="0" lon="0">
        <time>2021-02-28T10:08:00.577000+00:00</time>
      </trkpt>
      <trkpt lat="0" lon="0">
        <time>2021-02-28T10:08:00.586000+00:00</time>
      </trkpt>
      <trkpt lat="0" lon="0">
        <time>2021-02-28T10:08:00.589000+00:00</time>
      </trkpt>
      <trkpt lat="47.32417" lon="-1.39454">
        <ele>115</ele>
        <time>2021-02-28T10:08:01.577000+00:00</time>
      </trkpt>
      <trkpt lat="0" lon="0">
        <time>2021-02-28T10:08:01.582000+00:00</time>
      </trkpt>
      <trkpt lat="0" lon="0">
        <time>2021-02-28T10:08:01.588000+00:00</time>
      </trkpt>
      <trkpt lat="0" lon="0">
        <time>2021-02-28T10:08:01.591000+00:00</time>
      </trkpt>
      <trkpt lat="47.32415" lon="-1.39462">
        <ele>115</ele>
        <time>2021-02-28T10:08:02.561000+00:00</time>
      </trkpt>
      <trkpt lat="0" lon="0">
        <time>2021-02-28T10:08:02.567000+00:00</time>
      </trkpt>
      <trkpt lat="0" lon="0">
        <time>2021-02-28T10:08:02.572000+00:00</time>
      </trkpt>
      <trkpt lat="0" lon="0">
        <time>2021-02-28T10:08:02.575000+00:00</time>
      </trkpt>
      <trkpt lat="47.32413" lon="-1.39469">
        <ele>115</ele>
        <time>2021-02-28T10:08:03.547000+00:00</time>
      </trkpt>
      <trkpt lat="0" lon="0">
        <time>2021-02-28T10:08:03.552000+00:00</time>
      </trkpt>
      <trkpt lat="0" lon="0">
        <time>2021-02-28T10:08:03.557000+00:00</time>
      </trkpt>
      <trkpt lat="0" lon="0">
        <time>2021-02-28T10:08:03.559000+00:00</time>
      </trkpt>
      <trkpt lat="47.32411" lon="-1.39477">
        <ele>115</ele>
        <time>2021-02-28T10:08:04.546000+00:00</time>
      </trkpt>
      <trkpt lat="0" lon="0">
        <time>2021-02-28T10:08:04.560000+00:00</time>
      </trkpt>
      <trkpt lat="0" lon="0">
        <time>2021-02-28T10:08:04.566000+00:00</time>
      </trkpt>
      <trkpt lat="0" lon="0">
        <time>2021-02-28T10:08:04.570000+00:00</time>
      </trkpt>
      <trkpt lat="47.32409" lon="-1.39484">
        <ele>114</ele>
        <time>2021-02-28T10:08:05.548000+00:00</time>
      </trkpt>
      <trkpt lat="0" lon="0">
        <time>2021-02-28T10:08:05.556000+00:00</time>
      </trkpt>
      <trkpt lat="0" lon="0">
        <time>2021-02-28T10:08:05.561000+00:00</time>
      </trkpt>
      <trkpt lat="0" lon="0">
        <time>2021-02-28T10:08:05.564000+00:00</time>
      </trkpt>
      <trkpt lat="47.32406" lon="-1.39492">
        <ele>114</ele>
        <time>2021-02-28T10:08:06.543000+00:00</time>
      </trkpt>
      <trkpt lat="0" lon="0">
        <time>2021-02-28T10:08:06.549000+00:00</time>
      </trkpt>
      <trkpt lat="0" lon="0">
        <time>2021-02-28T10:08:06.554000+00:00</time>
      </trkpt>
      <trkpt lat="0" lon="0">
        <time>2021-02-28T10:08:06.557000+00:00</time>
      </trkpt>
      <trkpt lat="47.32403" lon="-1.39498">
        <ele>114</ele>
        <time>2021-02-28T10:08:07.552000+00:00</time>
      </trkpt>
      <trkpt lat="0" lon="0">
        <time>2021-02-28T10:08:07.560000+00:00</time>
      </trkpt>
      <trkpt lat="0" lon="0">
        <time>2021-02-28T10:08:07.565000+00:00</time>
      </trkpt>
      <trkpt lat="0" lon="0">
        <time>2021-02-28T10:08:07.568000+00:00</time>
      </trkpt>
      <trkpt lat="47.324" lon="-1.39505">
        <ele>114</ele>
        <time>2021-02-28T10:08:08.570000+00:00</time>
      </trkpt>
      <trkpt lat="0" lon="0">
        <time>2021-02-28T10:08:08.581000+00:00</time>
      </trkpt>
      <trkpt lat="0" lon="0">
        <time>2021-02-28T10:08:08.590000+00:00</time>
      </trkpt>
      <trkpt lat="0" lon="0">
        <time>2021-02-28T10:08:08.592000+00:00</time>
      </trkpt>
      <trkpt lat="47.32397" lon="-1.39511">
        <ele>114</ele>
        <time>2021-02-28T10:08:09.590000+00:00</time>
      </trkpt>
      <trkpt lat="0" lon="0">
        <time>2021-02-28T10:08:09.595000+00:00</time>
      </trkpt>
      <trkpt lat="0" lon="0">
        <time>2021-02-28T10:08:09.601000+00:00</time>
      </trkpt>
      <trkpt lat="0" lon="0">
        <time>2021-02-28T10:08:09.605000+00:00</time>
      </trkpt>
      <trkpt lat="47.32394" lon="-1.39517">
        <ele>114</ele>
        <time>2021-02-28T10:08:10.565000+00:00</time>
      </trkpt>
      <trkpt lat="0" lon="0">
        <time>2021-02-28T10:08:10.583000+00:00</time>
      </trkpt>
      <trkpt lat="0" lon="0">
        <time>2021-02-28T10:08:10.588000+00:00</time>
      </trkpt>
      <trkpt lat="0" lon="0">
        <time>2021-02-28T10:08:10.592000+00:00</time>
      </trkpt>
      <trkpt lat="47.3239" lon="-1.39522">
        <ele>114</ele>
        <time>2021-02-28T10:08:11.497000+00:00</time>
      </trkpt>
      <trkpt lat="0" lon="0">
        <time>2021-02-28T10:08:11.502000+00:00</time>
      </trkpt>
      <trkpt lat="0" lon="0">
        <time>2021-02-28T10:08:11.507000+00:00</time>
      </trkpt>
      <trkpt lat="0" lon="0">
        <time>2021-02-28T10:08:11.515000+00:00</time>
      </trkpt>
      <trkpt lat="47.32387" lon="-1.39525">
        <ele>114</ele>
        <time>2021-02-28T10:08:12.528000+00:00</time>
      </trkpt>
      <trkpt lat="0" lon="0">
        <time>2021-02-28T10:08:12.535000+00:00</time>
      </trkpt>
      <trkpt lat="0" lon="0">
        <time>2021-02-28T10:08:12.539000+00:00</time>
      </trkpt>
      <trkpt lat="0" lon="0">
        <time>2021-02-28T10:08:12.541000+00:00</time>
      </trkpt>
      <trkpt lat="47.32381" lon="-1.39533">
        <ele>113</ele>
        <time>2021-02-28T10:08:14.458000+00:00</time>
      </trkpt>
      <trkpt lat="0" lon="0">
        <time>2021-02-28T10:08:14.463000+00:00</time>
      </trkpt>
      <trkpt lat="0" lon="0">
        <time>2021-02-28T10:08:14.467000+00:00</time>
      </trkpt>
      <trkpt lat="0" lon="0">
        <time>2021-02-28T10:08:14.470000+00:00</time>
      </trkpt>
      <trkpt lat="47.32379" lon="-1.39533">
        <ele>113</ele>
        <time>2021-02-28T10:08:15.472000+00:00</time>
      </trkpt>
      <trkpt lat="0" lon="0">
        <time>2021-02-28T10:08:15.475000+00:00</time>
      </trkpt>
      <trkpt lat="0" lon="0">
        <time>2021-02-28T10:08:15.479000+00:00</time>
      </trkpt>
      <trkpt lat="0" lon="0">
        <time>2021-02-28T10:08:15.480000+00:00</time>
      </trkpt>
      <trkpt lat="47.32376" lon="-1.39534">
        <ele>113</ele>
        <time>2021-02-28T10:08:16.540000+00:00</time>
      </trkpt>
      <trkpt lat="0" lon="0">
        <time>2021-02-28T10:08:16.548000+00:00</time>
      </trkpt>
      <trkpt lat="0" lon="0">
        <time>2021-02-28T10:08:16.553000+00:00</time>
      </trkpt>
      <trkpt lat="0" lon="0">
        <time>2021-02-28T10:08:16.556000+00:00</time>
      </trkpt>
      <trkpt lat="47.32374" lon="-1.39535">
        <ele>113</ele>
        <time>2021-02-28T10:08:17.520000+00:00</time>
      </trkpt>
      <trkpt lat="0" lon="0">
        <time>2021-02-28T10:08:17.525000+00:00</time>
      </trkpt>
      <trkpt lat="0" lon="0">
        <time>2021-02-28T10:08:17.530000+00:00</time>
      </trkpt>
      <trkpt lat="0" lon="0">
        <time>2021-02-28T10:08:17.534000+00:00</time>
      </trkpt>
      <trkpt lat="47.32371" lon="-1.39536">
        <ele>113</ele>
        <time>2021-02-28T10:08:18.553000+00:00</time>
      </trkpt>
      <trkpt lat="0" lon="0">
        <time>2021-02-28T10:08:18.557000+00:00</time>
      </trkpt>
      <trkpt lat="0" lon="0">
        <time>2021-02-28T10:08:18.561000+00:00</time>
      </trkpt>
      <trkpt lat="0" lon="0">
        <time>2021-02-28T10:08:18.564000+00:00</time>
      </trkpt>
      <trkpt lat="47.32369" lon="-1.39537">
        <ele>113</ele>
        <time>2021-02-28T10:08:19.511000+00:00</time>
      </trkpt>
      <trkpt lat="0" lon="0">
        <time>2021-02-28T10:08:19.533000+00:00</time>
      </trkpt>
      <trkpt lat="0" lon="0">
        <time>2021-02-28T10:08:19.537000+00:00</time>
      </trkpt>
      <trkpt lat="0" lon="0">
        <time>2021-02-28T10:08:19.540000+00:00</time>
      </trkpt>
      <trkpt lat="47.32367" lon="-1.39539">
        <ele>113</ele>
        <time>2021-02-28T10:08:20.566000+00:00</time>
      </trkpt>
      <trkpt lat="0" lon="0">
        <time>2021-02-28T10:08:20.579000+00:00</time>
      </trkpt>
      <trkpt lat="0" lon="0">
        <time>2021-02-28T10:08:20.587000+00:00</time>
      </trkpt>
      <trkpt lat="0" lon="0">
        <time>2021-02-28T10:08:20.589000+00:00</time>
      </trkpt>
      <trkpt lat="47.32364" lon="-1.39541">
        <ele>113</ele>
        <time>2021-02-28T10:08:21.573000+00:00</time>
      </trkpt>
      <trkpt lat="0" lon="0">
        <time>2021-02-28T10:08:21.585000+00:00</time>
      </trkpt>
      <trkpt lat="0" lon="0">
        <time>2021-02-28T10:08:21.594000+00:00</time>
      </trkpt>
      <trkpt lat="0" lon="0">
        <time>2021-02-28T10:08:21.601000+00:00</time>
      </trkpt>
      <trkpt lat="47.32362" lon="-1.39542">
        <ele>113</ele>
        <time>2021-02-28T10:08:22.574000+00:00</time>
      </trkpt>
      <trkpt lat="0" lon="0">
        <time>2021-02-28T10:08:22.586000+00:00</time>
      </trkpt>
      <trkpt lat="0" lon="0">
        <time>2021-02-28T10:08:22.595000+00:00</time>
      </trkpt>
      <trkpt lat="0" lon="0">
        <time>2021-02-28T10:08:22.598000+00:00</time>
      </trkpt>
      <trkpt lat="47.3236" lon="-1.39545">
        <ele>113</ele>
        <time>2021-02-28T10:08:23.523000+00:00</time>
      </trkpt>
      <trkpt lat="0" lon="0">
        <time>2021-02-28T10:08:23.530000+00:00</time>
      </trkpt>
      <trkpt lat="0" lon="0">
        <time>2021-02-28T10:08:23.532000+00:00</time>
      </trkpt>
      <trkpt lat="0" lon="0">
        <time>2021-02-28T10:08:23.534000+00:00</time>
      </trkpt>
      <trkpt lat="47.32358" lon="-1.39547">
        <ele>114</ele>
        <time>2021-02-28T10:08:24.534000+00:00</time>
      </trkpt>
      <trkpt lat="0" lon="0">
        <time>2021-02-28T10:08:24.540000+00:00</time>
      </trkpt>
      <trkpt lat="0" lon="0">
        <time>2021-02-28T10:08:24.547000+00:00</time>
      </trkpt>
      <trkpt lat="0" lon="0">
        <time>2021-02-28T10:08:24.549000+00:00</time>
      </trkpt>
      <trkpt lat="47.32355" lon="-1.3955">
        <ele>114</ele>
        <time>2021-02-28T10:08:25.546000+00:00</time>
      </trkpt>
      <trkpt lat="0" lon="0">
        <time>2021-02-28T10:08:25.557000+00:00</time>
      </trkpt>
      <trkpt lat="0" lon="0">
        <time>2021-02-28T10:08:25.563000+00:00</time>
      </trkpt>
      <trkpt lat="0" lon="0">
        <time>2021-02-28T10:08:25.567000+00:00</time>
      </trkpt>
      <trkpt lat="47.32353" lon="-1.39553">
        <ele>114</ele>
        <time>2021-02-28T10:08:26.534000+00:00</time>
      </trkpt>
      <trkpt lat="0" lon="0">
        <time>2021-02-28T10:08:26.548000+00:00</time>
      </trkpt>
      <trkpt lat="0" lon="0">
        <time>2021-02-28T10:08:26.552000+00:00</time>
      </trkpt>
      <trkpt lat="0" lon="0">
        <time>2021-02-28T10:08:26.556000+00:00</time>
      </trkpt>
      <trkpt lat="47.3235" lon="-1.39556">
        <ele>114</ele>
        <time>2021-02-28T10:08:27.561000+00:00</time>
      </trkpt>
      <trkpt lat="0" lon="0">
        <time>2021-02-28T10:08:27.569000+00:00</time>
      </trkpt>
      <trkpt lat="0" lon="0">
        <time>2021-02-28T10:08:27.575000+00:00</time>
      </trkpt>
      <trkpt lat="0" lon="0">
        <time>2021-02-28T10:08:27.578000+00:00</time>
      </trkpt>
      <trkpt lat="47.32347" lon="-1.39561">
        <ele>114</ele>
        <time>2021-02-28T10:08:28.516000+00:00</time>
      </trkpt>
      <trkpt lat="0" lon="0">
        <time>2021-02-28T10:08:28.534000+00:00</time>
      </trkpt>
      <trkpt lat="0" lon="0">
        <time>2021-02-28T10:08:28.537000+00:00</time>
      </trkpt>
      <trkpt lat="0" lon="0">
        <time>2021-02-28T10:08:28.539000+00:00</time>
      </trkpt>
      <trkpt lat="47.32344" lon="-1.39565">
        <ele>114</ele>
        <time>2021-02-28T10:08:29.566000+00:00</time>
      </trkpt>
      <trkpt lat="0" lon="0">
        <time>2021-02-28T10:08:29.577000+00:00</time>
      </trkpt>
      <trkpt lat="0" lon="0">
        <time>2021-02-28T10:08:29.583000+00:00</time>
      </trkpt>
      <trkpt lat="0" lon="0">
        <time>2021-02-28T10:08:29.586000+00:00</time>
      </trkpt>
      <trkpt lat="47.32342" lon="-1.39569">
        <ele>114</ele>
        <time>2021-02-28T10:08:30.532000+00:00</time>
      </trkpt>
      <trkpt lat="0" lon="0">
        <time>2021-02-28T10:08:30.539000+00:00</time>
      </trkpt>
      <trkpt lat="0" lon="0">
        <time>2021-02-28T10:08:30.544000+00:00</time>
      </trkpt>
      <trkpt lat="0" lon="0">
        <time>2021-02-28T10:08:30.550000+00:00</time>
      </trkpt>
      <trkpt lat="47.32339" lon="-1.39574">
        <ele>114</ele>
        <time>2021-02-28T10:08:31.526000+00:00</time>
      </trkpt>
      <trkpt lat="0" lon="0">
        <time>2021-02-28T10:08:31.534000+00:00</time>
      </trkpt>
      <trkpt lat="0" lon="0">
        <time>2021-02-28T10:08:31.538000+00:00</time>
      </trkpt>
      <trkpt lat="0" lon="0">
        <time>2021-02-28T10:08:31.540000+00:00</time>
      </trkpt>
      <trkpt lat="47.32337" lon="-1.39579">
        <ele>114</ele>
        <time>2021-02-28T10:08:32.537000+00:00</time>
      </trkpt>
      <trkpt lat="0" lon="0">
        <time>2021-02-28T10:08:32.558000+00:00</time>
      </trkpt>
      <trkpt lat="0" lon="0">
        <time>2021-02-28T10:08:32.562000+00:00</time>
      </trkpt>
      <trkpt lat="0" lon="0">
        <time>2021-02-28T10:08:32.564000+00:00</time>
      </trkpt>
      <trkpt lat="47.32334" lon="-1.39583">
        <ele>114</ele>
        <time>2021-02-28T10:08:33.539000+00:00</time>
      </trkpt>
      <trkpt lat="0" lon="0">
        <time>2021-02-28T10:08:33.551000+00:00</time>
      </trkpt>
      <trkpt lat="0" lon="0">
        <time>2021-02-28T10:08:33.556000+00:00</time>
      </trkpt>
      <trkpt lat="0" lon="0">
        <time>2021-02-28T10:08:33.559000+00:00</time>
      </trkpt>
      <trkpt lat="47.32332" lon="-1.39588">
        <ele>114</ele>
        <time>2021-02-28T10:08:34.534000+00:00</time>
      </trkpt>
      <trkpt lat="0" lon="0">
        <time>2021-02-28T10:08:34.541000+00:00</time>
      </trkpt>
      <trkpt lat="0" lon="0">
        <time>2021-02-28T10:08:34.545000+00:00</time>
      </trkpt>
      <trkpt lat="0" lon="0">
        <time>2021-02-28T10:08:34.548000+00:00</time>
      </trkpt>
      <trkpt lat="47.32331" lon="-1.39593">
        <ele>114</ele>
        <time>2021-02-28T10:08:35.551000+00:00</time>
      </trkpt>
      <trkpt lat="0" lon="0">
        <time>2021-02-28T10:08:35.557000+00:00</time>
      </trkpt>
      <trkpt lat="0" lon="0">
        <time>2021-02-28T10:08:35.559000+00:00</time>
      </trkpt>
      <trkpt lat="0" lon="0">
        <time>2021-02-28T10:08:35.561000+00:00</time>
      </trkpt>
      <trkpt lat="47.32329" lon="-1.39597">
        <ele>114</ele>
        <time>2021-02-28T10:08:36.548000+00:00</time>
      </trkpt>
      <trkpt lat="0" lon="0">
        <time>2021-02-28T10:08:36.558000+00:00</time>
      </trkpt>
      <trkpt lat="0" lon="0">
        <time>2021-02-28T10:08:36.564000+00:00</time>
      </trkpt>
      <trkpt lat="0" lon="0">
        <time>2021-02-28T10:08:36.568000+00:00</time>
      </trkpt>
      <trkpt lat="47.32328" lon="-1.39602">
        <ele>114</ele>
        <time>2021-02-28T10:08:37.553000+00:00</time>
      </trkpt>
      <trkpt lat="0" lon="0">
        <time>2021-02-28T10:08:37.562000+00:00</time>
      </trkpt>
      <trkpt lat="0" lon="0">
        <time>2021-02-28T10:08:37.568000+00:00</time>
      </trkpt>
      <trkpt lat="0" lon="0">
        <time>2021-02-28T10:08:37.571000+00:00</time>
      </trkpt>
      <trkpt lat="47.32327" lon="-1.39606">
        <ele>114</ele>
        <time>2021-02-28T10:08:38.539000+00:00</time>
      </trkpt>
      <trkpt lat="0" lon="0">
        <time>2021-02-28T10:08:38.547000+00:00</time>
      </trkpt>
      <trkpt lat="0" lon="0">
        <time>2021-02-28T10:08:38.553000+00:00</time>
      </trkpt>
      <trkpt lat="0" lon="0">
        <time>2021-02-28T10:08:38.556000+00:00</time>
      </trkpt>
      <trkpt lat="47.32327" lon="-1.3961">
        <ele>114</ele>
        <time>2021-02-28T10:08:39.563000+00:00</time>
      </trkpt>
      <trkpt lat="0" lon="0">
        <time>2021-02-28T10:08:39.570000+00:00</time>
      </trkpt>
      <trkpt lat="0" lon="0">
        <time>2021-02-28T10:08:39.575000+00:00</time>
      </trkpt>
      <trkpt lat="0" lon="0">
        <time>2021-02-28T10:08:39.577000+00:00</time>
      </trkpt>
      <trkpt lat="47.32326" lon="-1.39613">
        <ele>115</ele>
        <time>2021-02-28T10:08:40.463000+00:00</time>
      </trkpt>
      <trkpt lat="0" lon="0">
        <time>2021-02-28T10:08:40.480000+00:00</time>
      </trkpt>
      <trkpt lat="0" lon="0">
        <time>2021-02-28T10:08:40.484000+00:00</time>
      </trkpt>
      <trkpt lat="0" lon="0">
        <time>2021-02-28T10:08:40.488000+00:00</time>
      </trkpt>
      <trkpt lat="47.32326" lon="-1.39617">
        <ele>115</ele>
        <time>2021-02-28T10:08:41.564000+00:00</time>
      </trkpt>
      <trkpt lat="0" lon="0">
        <time>2021-02-28T10:08:41.569000+00:00</time>
      </trkpt>
      <trkpt lat="0" lon="0">
        <time>2021-02-28T10:08:41.575000+00:00</time>
      </trkpt>
      <trkpt lat="0" lon="0">
        <time>2021-02-28T10:08:41.579000+00:00</time>
      </trkpt>
      <trkpt lat="47.32325" lon="-1.39622">
        <ele>115</ele>
        <time>2021-02-28T10:08:42.569000+00:00</time>
      </trkpt>
      <trkpt lat="0" lon="0">
        <time>2021-02-28T10:08:42.577000+00:00</time>
      </trkpt>
      <trkpt lat="0" lon="0">
        <time>2021-02-28T10:08:42.581000+00:00</time>
      </trkpt>
      <trkpt lat="0" lon="0">
        <time>2021-02-28T10:08:42.583000+00:00</time>
      </trkpt>
      <trkpt lat="47.32326" lon="-1.39626">
        <ele>115</ele>
        <time>2021-02-28T10:08:43.545000+00:00</time>
      </trkpt>
      <trkpt lat="0" lon="0">
        <time>2021-02-28T10:08:43.552000+00:00</time>
      </trkpt>
      <trkpt lat="0" lon="0">
        <time>2021-02-28T10:08:43.558000+00:00</time>
      </trkpt>
      <trkpt lat="0" lon="0">
        <time>2021-02-28T10:08:43.561000+00:00</time>
      </trkpt>
      <trkpt lat="47.32326" lon="-1.3963">
        <ele>115</ele>
        <time>2021-02-28T10:08:44.553000+00:00</time>
      </trkpt>
      <trkpt lat="0" lon="0">
        <time>2021-02-28T10:08:44.563000+00:00</time>
      </trkpt>
      <trkpt lat="0" lon="0">
        <time>2021-02-28T10:08:44.570000+00:00</time>
      </trkpt>
      <trkpt lat="0" lon="0">
        <time>2021-02-28T10:08:44.573000+00:00</time>
      </trkpt>
      <trkpt lat="47.32327" lon="-1.39634">
        <ele>115</ele>
        <time>2021-02-28T10:08:45.560000+00:00</time>
      </trkpt>
      <trkpt lat="0" lon="0">
        <time>2021-02-28T10:08:45.568000+00:00</time>
      </trkpt>
      <trkpt lat="0" lon="0">
        <time>2021-02-28T10:08:45.574000+00:00</time>
      </trkpt>
      <trkpt lat="0" lon="0">
        <time>2021-02-28T10:08:45.577000+00:00</time>
      </trkpt>
      <trkpt lat="47.32328" lon="-1.39638">
        <ele>116</ele>
        <time>2021-02-28T10:08:46.527000+00:00</time>
      </trkpt>
      <trkpt lat="0" lon="0">
        <time>2021-02-28T10:08:46.529000+00:00</time>
      </trkpt>
      <trkpt lat="0" lon="0">
        <time>2021-02-28T10:08:46.532000+00:00</time>
      </trkpt>
      <trkpt lat="0" lon="0">
        <time>2021-02-28T10:08:46.533000+00:00</time>
      </trkpt>
      <trkpt lat="47.32329" lon="-1.39642">
        <ele>116</ele>
        <time>2021-02-28T10:08:47.579000+00:00</time>
      </trkpt>
      <trkpt lat="0" lon="0">
        <time>2021-02-28T10:08:47.592000+00:00</time>
      </trkpt>
      <trkpt lat="0" lon="0">
        <time>2021-02-28T10:08:47.600000+00:00</time>
      </trkpt>
      <trkpt lat="0" lon="0">
        <time>2021-02-28T10:08:47.603000+00:00</time>
      </trkpt>
      <trkpt lat="47.3233" lon="-1.39646">
        <ele>116</ele>
        <time>2021-02-28T10:08:48.534000+00:00</time>
      </trkpt>
      <trkpt lat="0" lon="0">
        <time>2021-02-28T10:08:48.542000+00:00</time>
      </trkpt>
      <trkpt lat="0" lon="0">
        <time>2021-02-28T10:08:48.547000+00:00</time>
      </trkpt>
      <trkpt lat="0" lon="0">
        <time>2021-02-28T10:08:48.551000+00:00</time>
      </trkpt>
      <trkpt lat="47.3233" lon="-1.39651">
        <ele>117</ele>
        <time>2021-02-28T10:08:49.569000+00:00</time>
      </trkpt>
      <trkpt lat="0" lon="0">
        <time>2021-02-28T10:08:49.577000+00:00</time>
      </trkpt>
      <trkpt lat="0" lon="0">
        <time>2021-02-28T10:08:49.582000+00:00</time>
      </trkpt>
      <trkpt lat="0" lon="0">
        <time>2021-02-28T10:08:49.584000+00:00</time>
      </trkpt>
      <trkpt lat="47.3233" lon="-1.39659">
        <ele>117</ele>
        <time>2021-02-28T10:08:51.446000+00:00</time>
      </trkpt>
      <trkpt lat="0" lon="0">
        <time>2021-02-28T10:08:51.453000+00:00</time>
      </trkpt>
      <trkpt lat="0" lon="0">
        <time>2021-02-28T10:08:51.459000+00:00</time>
      </trkpt>
      <trkpt lat="0" lon="0">
        <time>2021-02-28T10:08:51.465000+00:00</time>
      </trkpt>
      <trkpt lat="47.3233" lon="-1.39664">
        <ele>117</ele>
        <time>2021-02-28T10:08:52.545000+00:00</time>
      </trkpt>
      <trkpt lat="0" lon="0">
        <time>2021-02-28T10:08:52.550000+00:00</time>
      </trkpt>
      <trkpt lat="0" lon="0">
        <time>2021-02-28T10:08:52.555000+00:00</time>
      </trkpt>
      <trkpt lat="0" lon="0">
        <time>2021-02-28T10:08:52.557000+00:00</time>
      </trkpt>
      <trkpt lat="47.3233" lon="-1.39669">
        <ele>117</ele>
        <time>2021-02-28T10:08:53.518000+00:00</time>
      </trkpt>
      <trkpt lat="0" lon="0">
        <time>2021-02-28T10:08:53.533000+00:00</time>
      </trkpt>
      <trkpt lat="0" lon="0">
        <time>2021-02-28T10:08:53.539000+00:00</time>
      </trkpt>
      <trkpt lat="0" lon="0">
        <time>2021-02-28T10:08:53.542000+00:00</time>
      </trkpt>
      <trkpt lat="47.3233" lon="-1.39674">
        <ele>118</ele>
        <time>2021-02-28T10:08:54.586000+00:00</time>
      </trkpt>
      <trkpt lat="0" lon="0">
        <time>2021-02-28T10:08:54.591000+00:00</time>
      </trkpt>
      <trkpt lat="0" lon="0">
        <time>2021-02-28T10:08:54.597000+00:00</time>
      </trkpt>
      <trkpt lat="0" lon="0">
        <time>2021-02-28T10:08:54.600000+00:00</time>
      </trkpt>
      <trkpt lat="47.3233" lon="-1.39678">
        <ele>118</ele>
        <time>2021-02-28T10:08:55.594000+00:00</time>
      </trkpt>
      <trkpt lat="0" lon="0">
        <time>2021-02-28T10:08:55.604000+00:00</time>
      </trkpt>
      <trkpt lat="0" lon="0">
        <time>2021-02-28T10:08:55.610000+00:00</time>
      </trkpt>
      <trkpt lat="0" lon="0">
        <time>2021-02-28T10:08:55.614000+00:00</time>
      </trkpt>
      <trkpt lat="47.3233" lon="-1.39683">
        <ele>118</ele>
        <time>2021-02-28T10:08:56.576000+00:00</time>
      </trkpt>
      <trkpt lat="0" lon="0">
        <time>2021-02-28T10:08:56.584000+00:00</time>
      </trkpt>
      <trkpt lat="0" lon="0">
        <time>2021-02-28T10:08:56.593000+00:00</time>
      </trkpt>
      <trkpt lat="0" lon="0">
        <time>2021-02-28T10:08:56.597000+00:00</time>
      </trkpt>
      <trkpt lat="47.3233" lon="-1.39688">
        <ele>118</ele>
        <time>2021-02-28T10:08:57.548000+00:00</time>
      </trkpt>
      <trkpt lat="0" lon="0">
        <time>2021-02-28T10:08:57.550000+00:00</time>
      </trkpt>
      <trkpt lat="0" lon="0">
        <time>2021-02-28T10:08:57.552000+00:00</time>
      </trkpt>
      <trkpt lat="0" lon="0">
        <time>2021-02-28T10:08:57.555000+00:00</time>
      </trkpt>
      <trkpt lat="47.3233" lon="-1.39693">
        <ele>119</ele>
        <time>2021-02-28T10:08:58.540000+00:00</time>
      </trkpt>
      <trkpt lat="0" lon="0">
        <time>2021-02-28T10:08:58.552000+00:00</time>
      </trkpt>
      <trkpt lat="0" lon="0">
        <time>2021-02-28T10:08:58.557000+00:00</time>
      </trkpt>
      <trkpt lat="0" lon="0">
        <time>2021-02-28T10:08:58.559000+00:00</time>
      </trkpt>
      <trkpt lat="47.32329" lon="-1.39698">
        <ele>119</ele>
        <time>2021-02-28T10:08:59.579000+00:00</time>
      </trkpt>
      <trkpt lat="0" lon="0">
        <time>2021-02-28T10:08:59.592000+00:00</time>
      </trkpt>
      <trkpt lat="0" lon="0">
        <time>2021-02-28T10:08:59.599000+00:00</time>
      </trkpt>
      <trkpt lat="0" lon="0">
        <time>2021-02-28T10:08:59.602000+00:00</time>
      </trkpt>
      <trkpt lat="47.32329" lon="-1.39703">
        <ele>119</ele>
        <time>2021-02-28T10:09:00.565000+00:00</time>
      </trkpt>
      <trkpt lat="0" lon="0">
        <time>2021-02-28T10:09:00.576000+00:00</time>
      </trkpt>
      <trkpt lat="0" lon="0">
        <time>2021-02-28T10:09:00.581000+00:00</time>
      </trkpt>
      <trkpt lat="0" lon="0">
        <time>2021-02-28T10:09:00.584000+00:00</time>
      </trkpt>
      <trkpt lat="47.32328" lon="-1.39708">
        <ele>119</ele>
        <time>2021-02-28T10:09:01.556000+00:00</time>
      </trkpt>
      <trkpt lat="0" lon="0">
        <time>2021-02-28T10:09:01.564000+00:00</time>
      </trkpt>
      <trkpt lat="0" lon="0">
        <time>2021-02-28T10:09:01.570000+00:00</time>
      </trkpt>
      <trkpt lat="0" lon="0">
        <time>2021-02-28T10:09:01.573000+00:00</time>
      </trkpt>
      <trkpt lat="47.32328" lon="-1.39713">
        <ele>119</ele>
        <time>2021-02-28T10:09:02.556000+00:00</time>
      </trkpt>
      <trkpt lat="0" lon="0">
        <time>2021-02-28T10:09:02.566000+00:00</time>
      </trkpt>
      <trkpt lat="0" lon="0">
        <time>2021-02-28T10:09:02.573000+00:00</time>
      </trkpt>
      <trkpt lat="0" lon="0">
        <time>2021-02-28T10:09:02.576000+00:00</time>
      </trkpt>
      <trkpt lat="47.32327" lon="-1.39719">
        <ele>119</ele>
        <time>2021-02-28T10:09:03.567000+00:00</time>
      </trkpt>
      <trkpt lat="0" lon="0">
        <time>2021-02-28T10:09:03.572000+00:00</time>
      </trkpt>
      <trkpt lat="0" lon="0">
        <time>2021-02-28T10:09:03.577000+00:00</time>
      </trkpt>
      <trkpt lat="0" lon="0">
        <time>2021-02-28T10:09:03.579000+00:00</time>
      </trkpt>
      <trkpt lat="47.32326" lon="-1.39724">
        <ele>119</ele>
        <time>2021-02-28T10:09:04.544000+00:00</time>
      </trkpt>
      <trkpt lat="0" lon="0">
        <time>2021-02-28T10:09:04.552000+00:00</time>
      </trkpt>
      <trkpt lat="0" lon="0">
        <time>2021-02-28T10:09:04.559000+00:00</time>
      </trkpt>
      <trkpt lat="0" lon="0">
        <time>2021-02-28T10:09:04.562000+00:00</time>
      </trkpt>
      <trkpt lat="47.32325" lon="-1.39728">
        <ele>119</ele>
        <time>2021-02-28T10:09:05.504000+00:00</time>
      </trkpt>
      <trkpt lat="0" lon="0">
        <time>2021-02-28T10:09:05.512000+00:00</time>
      </trkpt>
      <trkpt lat="0" lon="0">
        <time>2021-02-28T10:09:05.518000+00:00</time>
      </trkpt>
      <trkpt lat="0" lon="0">
        <time>2021-02-28T10:09:05.522000+00:00</time>
      </trkpt>
      <trkpt lat="47.32324" lon="-1.39732">
        <ele>118</ele>
        <time>2021-02-28T10:09:06.575000+00:00</time>
      </trkpt>
      <trkpt lat="0" lon="0">
        <time>2021-02-28T10:09:06.585000+00:00</time>
      </trkpt>
      <trkpt lat="0" lon="0">
        <time>2021-02-28T10:09:06.591000+00:00</time>
      </trkpt>
      <trkpt lat="0" lon="0">
        <time>2021-02-28T10:09:06.593000+00:00</time>
      </trkpt>
      <trkpt lat="47.32324" lon="-1.39736">
        <ele>118</ele>
        <time>2021-02-28T10:09:07.545000+00:00</time>
      </trkpt>
      <trkpt lat="0" lon="0">
        <time>2021-02-28T10:09:07.556000+00:00</time>
      </trkpt>
      <trkpt lat="0" lon="0">
        <time>2021-02-28T10:09:07.564000+00:00</time>
      </trkpt>
      <trkpt lat="0" lon="0">
        <time>2021-02-28T10:09:07.567000+00:00</time>
      </trkpt>
      <trkpt lat="47.32324" lon="-1.3974">
        <ele>118</ele>
        <time>2021-02-28T10:09:08.528000+00:00</time>
      </trkpt>
      <trkpt lat="0" lon="0">
        <time>2021-02-28T10:09:08.539000+00:00</time>
      </trkpt>
      <trkpt lat="0" lon="0">
        <time>2021-02-28T10:09:08.546000+00:00</time>
      </trkpt>
      <trkpt lat="0" lon="0">
        <time>2021-02-28T10:09:08.548000+00:00</time>
      </trkpt>
      <trkpt lat="47.32323" lon="-1.39743">
        <ele>117</ele>
        <time>2021-02-28T10:09:09.529000+00:00</time>
      </trkpt>
      <trkpt lat="0" lon="0">
        <time>2021-02-28T10:09:09.531000+00:00</time>
      </trkpt>
      <trkpt lat="0" lon="0">
        <time>2021-02-28T10:09:09.535000+00:00</time>
      </trkpt>
      <trkpt lat="0" lon="0">
        <time>2021-02-28T10:09:09.536000+00:00</time>
      </trkpt>
      <trkpt lat="47.32323" lon="-1.39746">
        <ele>117</ele>
        <time>2021-02-28T10:09:10.550000+00:00</time>
      </trkpt>
      <trkpt lat="0" lon="0">
        <time>2021-02-28T10:09:10.567000+00:00</time>
      </trkpt>
      <trkpt lat="0" lon="0">
        <time>2021-02-28T10:09:10.573000+00:00</time>
      </trkpt>
      <trkpt lat="0" lon="0">
        <time>2021-02-28T10:09:10.577000+00:00</time>
      </trkpt>
      <trkpt lat="47.32323" lon="-1.39749">
        <ele>117</ele>
        <time>2021-02-28T10:09:11.524000+00:00</time>
      </trkpt>
      <trkpt lat="0" lon="0">
        <time>2021-02-28T10:09:11.537000+00:00</time>
      </trkpt>
      <trkpt lat="0" lon="0">
        <time>2021-02-28T10:09:11.546000+00:00</time>
      </trkpt>
      <trkpt lat="0" lon="0">
        <time>2021-02-28T10:09:11.554000+00:00</time>
      </trkpt>
      <trkpt lat="47.32322" lon="-1.39752">
        <ele>117</ele>
        <time>2021-02-28T10:09:12.582000+00:00</time>
      </trkpt>
      <trkpt lat="0" lon="0">
        <time>2021-02-28T10:09:12.591000+00:00</time>
      </trkpt>
      <trkpt lat="0" lon="0">
        <time>2021-02-28T10:09:12.597000+00:00</time>
      </trkpt>
      <trkpt lat="0" lon="0">
        <time>2021-02-28T10:09:12.601000+00:00</time>
      </trkpt>
      <trkpt lat="47.32322" lon="-1.39754">
        <ele>117</ele>
        <time>2021-02-28T10:09:13.549000+00:00</time>
      </trkpt>
      <trkpt lat="0" lon="0">
        <time>2021-02-28T10:09:13.564000+00:00</time>
      </trkpt>
      <trkpt lat="0" lon="0">
        <time>2021-02-28T10:09:13.569000+00:00</time>
      </trkpt>
      <trkpt lat="0" lon="0">
        <time>2021-02-28T10:09:13.572000+00:00</time>
      </trkpt>
      <trkpt lat="47.32323" lon="-1.39757">
        <ele>117</ele>
        <time>2021-02-28T10:09:14.550000+00:00</time>
      </trkpt>
      <trkpt lat="0" lon="0">
        <time>2021-02-28T10:09:14.556000+00:00</time>
      </trkpt>
      <trkpt lat="0" lon="0">
        <time>2021-02-28T10:09:14.563000+00:00</time>
      </trkpt>
      <trkpt lat="0" lon="0">
        <time>2021-02-28T10:09:14.566000+00:00</time>
      </trkpt>
      <trkpt lat="47.32323" lon="-1.39759">
        <ele>116</ele>
        <time>2021-02-28T10:09:15.521000+00:00</time>
      </trkpt>
      <trkpt lat="0" lon="0">
        <time>2021-02-28T10:09:15.523000+00:00</time>
      </trkpt>
      <trkpt lat="0" lon="0">
        <time>2021-02-28T10:09:15.526000+00:00</time>
      </trkpt>
      <trkpt lat="0" lon="0">
        <time>2021-02-28T10:09:15.527000+00:00</time>
      </trkpt>
      <trkpt lat="47.32323" lon="-1.39762">
        <ele>116</ele>
        <time>2021-02-28T10:09:16.494000+00:00</time>
      </trkpt>
      <trkpt lat="0" lon="0">
        <time>2021-02-28T10:09:16.502000+00:00</time>
      </trkpt>
      <trkpt lat="0" lon="0">
        <time>2021-02-28T10:09:16.508000+00:00</time>
      </trkpt>
      <trkpt lat="0" lon="0">
        <time>2021-02-28T10:09:16.511000+00:00</time>
      </trkpt>
      <trkpt lat="47.32323" lon="-1.39764">
        <ele>116</ele>
        <time>2021-02-28T10:09:17.489000+00:00</time>
      </trkpt>
      <trkpt lat="0" lon="0">
        <time>2021-02-28T10:09:17.499000+00:00</time>
      </trkpt>
      <trkpt lat="0" lon="0">
        <time>2021-02-28T10:09:17.504000+00:00</time>
      </trkpt>
      <trkpt lat="0" lon="0">
        <time>2021-02-28T10:09:17.507000+00:00</time>
      </trkpt>
      <trkpt lat="47.32324" lon="-1.39766">
        <ele>116</ele>
        <time>2021-02-28T10:09:18.573000+00:00</time>
      </trkpt>
      <trkpt lat="0" lon="0">
        <time>2021-02-28T10:09:18.583000+00:00</time>
      </trkpt>
      <trkpt lat="0" lon="0">
        <time>2021-02-28T10:09:18.588000+00:00</time>
      </trkpt>
      <trkpt lat="0" lon="0">
        <time>2021-02-28T10:09:18.591000+00:00</time>
      </trkpt>
      <trkpt lat="47.32324" lon="-1.39767">
        <ele>116</ele>
        <time>2021-02-28T10:09:19.493000+00:00</time>
      </trkpt>
      <trkpt lat="0" lon="0">
        <time>2021-02-28T10:09:19.498000+00:00</time>
      </trkpt>
      <trkpt lat="0" lon="0">
        <time>2021-02-28T10:09:19.506000+00:00</time>
      </trkpt>
      <trkpt lat="0" lon="0">
        <time>2021-02-28T10:09:19.508000+00:00</time>
      </trkpt>
      <trkpt lat="47.32324" lon="-1.39768">
        <ele>116</ele>
        <time>2021-02-28T10:09:20.506000+00:00</time>
      </trkpt>
      <trkpt lat="0" lon="0">
        <time>2021-02-28T10:09:20.513000+00:00</time>
      </trkpt>
      <trkpt lat="0" lon="0">
        <time>2021-02-28T10:09:20.518000+00:00</time>
      </trkpt>
      <trkpt lat="0" lon="0">
        <time>2021-02-28T10:09:20.520000+00:00</time>
      </trkpt>
      <trkpt lat="47.32325" lon="-1.3977">
        <ele>116</ele>
        <time>2021-02-28T10:09:21.484000+00:00</time>
      </trkpt>
      <trkpt lat="0" lon="0">
        <time>2021-02-28T10:09:21.495000+00:00</time>
      </trkpt>
      <trkpt lat="0" lon="0">
        <time>2021-02-28T10:09:21.500000+00:00</time>
      </trkpt>
      <trkpt lat="0" lon="0">
        <time>2021-02-28T10:09:21.503000+00:00</time>
      </trkpt>
      <trkpt lat="47.32325" lon="-1.39771">
        <ele>116</ele>
        <time>2021-02-28T10:09:22.522000+00:00</time>
      </trkpt>
      <trkpt lat="0" lon="0">
        <time>2021-02-28T10:09:22.535000+00:00</time>
      </trkpt>
      <trkpt lat="0" lon="0">
        <time>2021-02-28T10:09:22.542000+00:00</time>
      </trkpt>
      <trkpt lat="0" lon="0">
        <time>2021-02-28T10:09:22.545000+00:00</time>
      </trkpt>
      <trkpt lat="47.32326" lon="-1.39773">
        <ele>117</ele>
        <time>2021-02-28T10:09:23.512000+00:00</time>
      </trkpt>
      <trkpt lat="0" lon="0">
        <time>2021-02-28T10:09:23.520000+00:00</time>
      </trkpt>
      <trkpt lat="0" lon="0">
        <time>2021-02-28T10:09:23.531000+00:00</time>
      </trkpt>
      <trkpt lat="0" lon="0">
        <time>2021-02-28T10:09:23.536000+00:00</time>
      </trkpt>
      <trkpt lat="47.32326" lon="-1.39775">
        <ele>116</ele>
        <time>2021-02-28T10:09:24.529000+00:00</time>
      </trkpt>
      <trkpt lat="0" lon="0">
        <time>2021-02-28T10:09:24.539000+00:00</time>
      </trkpt>
      <trkpt lat="0" lon="0">
        <time>2021-02-28T10:09:24.546000+00:00</time>
      </trkpt>
      <trkpt lat="0" lon="0">
        <time>2021-02-28T10:09:24.549000+00:00</time>
      </trkpt>
      <trkpt lat="47.32327" lon="-1.39777">
        <ele>116</ele>
        <time>2021-02-28T10:09:25.534000+00:00</time>
      </trkpt>
      <trkpt lat="0" lon="0">
        <time>2021-02-28T10:09:25.549000+00:00</time>
      </trkpt>
      <trkpt lat="0" lon="0">
        <time>2021-02-28T10:09:25.558000+00:00</time>
      </trkpt>
      <trkpt lat="0" lon="0">
        <time>2021-02-28T10:09:25.562000+00:00</time>
      </trkpt>
      <trkpt lat="47.32328" lon="-1.39779">
        <ele>116</ele>
        <time>2021-02-28T10:09:26.492000+00:00</time>
      </trkpt>
      <trkpt lat="0" lon="0">
        <time>2021-02-28T10:09:26.504000+00:00</time>
      </trkpt>
      <trkpt lat="0" lon="0">
        <time>2021-02-28T10:09:26.509000+00:00</time>
      </trkpt>
      <trkpt lat="0" lon="0">
        <time>2021-02-28T10:09:26.510000+00:00</time>
      </trkpt>
      <trkpt lat="47.32328" lon="-1.39781">
        <ele>116</ele>
        <time>2021-02-28T10:09:27.500000+00:00</time>
      </trkpt>
      <trkpt lat="0" lon="0">
        <time>2021-02-28T10:09:27.506000+00:00</time>
      </trkpt>
      <trkpt lat="0" lon="0">
        <time>2021-02-28T10:09:27.511000+00:00</time>
      </trkpt>
      <trkpt lat="0" lon="0">
        <time>2021-02-28T10:09:27.514000+00:00</time>
      </trkpt>
      <trkpt lat="47.32329" lon="-1.39783">
        <ele>116</ele>
        <time>2021-02-28T10:09:28.561000+00:00</time>
      </trkpt>
      <trkpt lat="0" lon="0">
        <time>2021-02-28T10:09:28.567000+00:00</time>
      </trkpt>
      <trkpt lat="0" lon="0">
        <time>2021-02-28T10:09:28.573000+00:00</time>
      </trkpt>
      <trkpt lat="0" lon="0">
        <time>2021-02-28T10:09:28.576000+00:00</time>
      </trkpt>
      <trkpt lat="47.3233" lon="-1.39785">
        <ele>116</ele>
        <time>2021-02-28T10:09:29.510000+00:00</time>
      </trkpt>
      <trkpt lat="0" lon="0">
        <time>2021-02-28T10:09:29.518000+00:00</time>
      </trkpt>
      <trkpt lat="0" lon="0">
        <time>2021-02-28T10:09:29.524000+00:00</time>
      </trkpt>
      <trkpt lat="0" lon="0">
        <time>2021-02-28T10:09:29.527000+00:00</time>
      </trkpt>
      <trkpt lat="47.32331" lon="-1.39787">
        <ele>117</ele>
        <time>2021-02-28T10:09:30.524000+00:00</time>
      </trkpt>
      <trkpt lat="0" lon="0">
        <time>2021-02-28T10:09:30.532000+00:00</time>
      </trkpt>
      <trkpt lat="0" lon="0">
        <time>2021-02-28T10:09:30.538000+00:00</time>
      </trkpt>
      <trkpt lat="0" lon="0">
        <time>2021-02-28T10:09:30.540000+00:00</time>
      </trkpt>
      <trkpt lat="47.32332" lon="-1.3979">
        <ele>117</ele>
        <time>2021-02-28T10:09:31.413000+00:00</time>
      </trkpt>
      <trkpt lat="0" lon="0">
        <time>2021-02-28T10:09:31.414000+00:00</time>
      </trkpt>
      <trkpt lat="0" lon="0">
        <time>2021-02-28T10:09:31.415000+00:00</time>
      </trkpt>
      <trkpt lat="0" lon="0">
        <time>2021-02-28T10:09:31.416000+00:00</time>
      </trkpt>
      <trkpt lat="47.32333" lon="-1.39792">
        <ele>118</ele>
        <time>2021-02-28T10:09:32.517000+00:00</time>
      </trkpt>
      <trkpt lat="0" lon="0">
        <time>2021-02-28T10:09:32.524000+00:00</time>
      </trkpt>
      <trkpt lat="0" lon="0">
        <time>2021-02-28T10:09:32.526000+00:00</time>
      </trkpt>
      <trkpt lat="0" lon="0">
        <time>2021-02-28T10:09:32.528000+00:00</time>
      </trkpt>
      <trkpt lat="47.32334" lon="-1.39795">
        <ele>118</ele>
        <time>2021-02-28T10:09:33.518000+00:00</time>
      </trkpt>
      <trkpt lat="0" lon="0">
        <time>2021-02-28T10:09:33.525000+00:00</time>
      </trkpt>
      <trkpt lat="0" lon="0">
        <time>2021-02-28T10:09:33.531000+00:00</time>
      </trkpt>
      <trkpt lat="0" lon="0">
        <time>2021-02-28T10:09:33.533000+00:00</time>
      </trkpt>
      <trkpt lat="47.32334" lon="-1.39797">
        <ele>118</ele>
        <time>2021-02-28T10:09:34.508000+00:00</time>
      </trkpt>
      <trkpt lat="0" lon="0">
        <time>2021-02-28T10:09:34.515000+00:00</time>
      </trkpt>
      <trkpt lat="0" lon="0">
        <time>2021-02-28T10:09:34.520000+00:00</time>
      </trkpt>
      <trkpt lat="0" lon="0">
        <time>2021-02-28T10:09:34.522000+00:00</time>
      </trkpt>
      <trkpt lat="47.32335" lon="-1.39799">
        <ele>118</ele>
        <time>2021-02-28T10:09:35.530000+00:00</time>
      </trkpt>
      <trkpt lat="0" lon="0">
        <time>2021-02-28T10:09:35.539000+00:00</time>
      </trkpt>
      <trkpt lat="0" lon="0">
        <time>2021-02-28T10:09:35.546000+00:00</time>
      </trkpt>
      <trkpt lat="0" lon="0">
        <time>2021-02-28T10:09:35.550000+00:00</time>
      </trkpt>
      <trkpt lat="47.32335" lon="-1.39802">
        <ele>121</ele>
        <time>2021-02-28T10:09:36.477000+00:00</time>
      </trkpt>
      <trkpt lat="0" lon="0">
        <time>2021-02-28T10:09:36.484000+00:00</time>
      </trkpt>
      <trkpt lat="0" lon="0">
        <time>2021-02-28T10:09:36.490000+00:00</time>
      </trkpt>
      <trkpt lat="0" lon="0">
        <time>2021-02-28T10:09:36.492000+00:00</time>
      </trkpt>
      <trkpt lat="47.32335" lon="-1.39805">
        <ele>122</ele>
        <time>2021-02-28T10:09:37.522000+00:00</time>
      </trkpt>
      <trkpt lat="0" lon="0">
        <time>2021-02-28T10:09:37.530000+00:00</time>
      </trkpt>
      <trkpt lat="0" lon="0">
        <time>2021-02-28T10:09:37.536000+00:00</time>
      </trkpt>
      <trkpt lat="0" lon="0">
        <time>2021-02-28T10:09:37.537000+00:00</time>
      </trkpt>
      <trkpt lat="47.32336" lon="-1.39809">
        <ele>123</ele>
        <time>2021-02-28T10:09:38.545000+00:00</time>
      </trkpt>
      <trkpt lat="0" lon="0">
        <time>2021-02-28T10:09:38.555000+00:00</time>
      </trkpt>
      <trkpt lat="0" lon="0">
        <time>2021-02-28T10:09:38.557000+00:00</time>
      </trkpt>
      <trkpt lat="0" lon="0">
        <time>2021-02-28T10:09:38.558000+00:00</time>
      </trkpt>
      <trkpt lat="47.32336" lon="-1.39813">
        <ele>125</ele>
        <time>2021-02-28T10:09:39.539000+00:00</time>
      </trkpt>
      <trkpt lat="0" lon="0">
        <time>2021-02-28T10:09:39.545000+00:00</time>
      </trkpt>
      <trkpt lat="0" lon="0">
        <time>2021-02-28T10:09:39.553000+00:00</time>
      </trkpt>
      <trkpt lat="0" lon="0">
        <time>2021-02-28T10:09:39.556000+00:00</time>
      </trkpt>
      <trkpt lat="47.32337" lon="-1.39816">
        <ele>125</ele>
        <time>2021-02-28T10:09:40.521000+00:00</time>
      </trkpt>
      <trkpt lat="0" lon="0">
        <time>2021-02-28T10:09:40.533000+00:00</time>
      </trkpt>
      <trkpt lat="0" lon="0">
        <time>2021-02-28T10:09:40.539000+00:00</time>
      </trkpt>
      <trkpt lat="0" lon="0">
        <time>2021-02-28T10:09:40.542000+00:00</time>
      </trkpt>
      <trkpt lat="47.32337" lon="-1.39818">
        <ele>125</ele>
        <time>2021-02-28T10:09:41.489000+00:00</time>
      </trkpt>
      <trkpt lat="0" lon="0">
        <time>2021-02-28T10:09:41.496000+00:00</time>
      </trkpt>
      <trkpt lat="0" lon="0">
        <time>2021-02-28T10:09:41.500000+00:00</time>
      </trkpt>
      <trkpt lat="0" lon="0">
        <time>2021-02-28T10:09:41.502000+00:00</time>
      </trkpt>
      <trkpt lat="47.32337" lon="-1.39821">
        <ele>127</ele>
        <time>2021-02-28T10:09:42.546000+00:00</time>
      </trkpt>
      <trkpt lat="0" lon="0">
        <time>2021-02-28T10:09:42.557000+00:00</time>
      </trkpt>
      <trkpt lat="0" lon="0">
        <time>2021-02-28T10:09:42.568000+00:00</time>
      </trkpt>
      <trkpt lat="0" lon="0">
        <time>2021-02-28T10:09:42.571000+00:00</time>
      </trkpt>
      <trkpt lat="47.32338" lon="-1.39825">
        <ele>128</ele>
        <time>2021-02-28T10:09:43.537000+00:00</time>
      </trkpt>
      <trkpt lat="0" lon="0">
        <time>2021-02-28T10:09:43.547000+00:00</time>
      </trkpt>
      <trkpt lat="0" lon="0">
        <time>2021-02-28T10:09:43.554000+00:00</time>
      </trkpt>
      <trkpt lat="0" lon="0">
        <time>2021-02-28T10:09:43.556000+00:00</time>
      </trkpt>
      <trkpt lat="47.32338" lon="-1.39828">
        <ele>129</ele>
        <time>2021-02-28T10:09:44.521000+00:00</time>
      </trkpt>
      <trkpt lat="0" lon="0">
        <time>2021-02-28T10:09:44.525000+00:00</time>
      </trkpt>
      <trkpt lat="0" lon="0">
        <time>2021-02-28T10:09:44.533000+00:00</time>
      </trkpt>
      <trkpt lat="0" lon="0">
        <time>2021-02-28T10:09:44.536000+00:00</time>
      </trkpt>
      <trkpt lat="47.32339" lon="-1.39832">
        <ele>129</ele>
        <time>2021-02-28T10:09:45.543000+00:00</time>
      </trkpt>
      <trkpt lat="0" lon="0">
        <time>2021-02-28T10:09:45.549000+00:00</time>
      </trkpt>
      <trkpt lat="0" lon="0">
        <time>2021-02-28T10:09:45.554000+00:00</time>
      </trkpt>
      <trkpt lat="0" lon="0">
        <time>2021-02-28T10:09:45.558000+00:00</time>
      </trkpt>
      <trkpt lat="47.3234" lon="-1.39836">
        <ele>130</ele>
        <time>2021-02-28T10:09:46.511000+00:00</time>
      </trkpt>
      <trkpt lat="0" lon="0">
        <time>2021-02-28T10:09:46.523000+00:00</time>
      </trkpt>
      <trkpt lat="0" lon="0">
        <time>2021-02-28T10:09:46.527000+00:00</time>
      </trkpt>
      <trkpt lat="0" lon="0">
        <time>2021-02-28T10:09:46.529000+00:00</time>
      </trkpt>
      <trkpt lat="47.3234" lon="-1.39839">
        <ele>130</ele>
        <time>2021-02-28T10:09:47.553000+00:00</time>
      </trkpt>
      <trkpt lat="0" lon="0">
        <time>2021-02-28T10:09:47.563000+00:00</time>
      </trkpt>
      <trkpt lat="0" lon="0">
        <time>2021-02-28T10:09:47.571000+00:00</time>
      </trkpt>
      <trkpt lat="0" lon="0">
        <time>2021-02-28T10:09:47.575000+00:00</time>
      </trkpt>
      <trkpt lat="47.32341" lon="-1.39841">
        <ele>130</ele>
        <time>2021-02-28T10:09:48.539000+00:00</time>
      </trkpt>
      <trkpt lat="0" lon="0">
        <time>2021-02-28T10:09:48.546000+00:00</time>
      </trkpt>
      <trkpt lat="0" lon="0">
        <time>2021-02-28T10:09:48.553000+00:00</time>
      </trkpt>
      <trkpt lat="0" lon="0">
        <time>2021-02-28T10:09:48.557000+00:00</time>
      </trkpt>
      <trkpt lat="47.32341" lon="-1.39845">
        <ele>134</ele>
        <time>2021-02-28T10:09:49.549000+00:00</time>
      </trkpt>
      <trkpt lat="0" lon="0">
        <time>2021-02-28T10:09:49.563000+00:00</time>
      </trkpt>
      <trkpt lat="0" lon="0">
        <time>2021-02-28T10:09:49.575000+00:00</time>
      </trkpt>
      <trkpt lat="0" lon="0">
        <time>2021-02-28T10:09:49.578000+00:00</time>
      </trkpt>
      <trkpt lat="47.32342" lon="-1.39849">
        <ele>135</ele>
        <time>2021-02-28T10:09:50.538000+00:00</time>
      </trkpt>
      <trkpt lat="0" lon="0">
        <time>2021-02-28T10:09:50.547000+00:00</time>
      </trkpt>
      <trkpt lat="0" lon="0">
        <time>2021-02-28T10:09:50.552000+00:00</time>
      </trkpt>
      <trkpt lat="0" lon="0">
        <time>2021-02-28T10:09:50.555000+00:00</time>
      </trkpt>
      <trkpt lat="47.32343" lon="-1.39852">
        <ele>136</ele>
        <time>2021-02-28T10:09:51.501000+00:00</time>
      </trkpt>
      <trkpt lat="0" lon="0">
        <time>2021-02-28T10:09:51.508000+00:00</time>
      </trkpt>
      <trkpt lat="0" lon="0">
        <time>2021-02-28T10:09:51.513000+00:00</time>
      </trkpt>
      <trkpt lat="0" lon="0">
        <time>2021-02-28T10:09:51.516000+00:00</time>
      </trkpt>
      <trkpt lat="47.32344" lon="-1.39856">
        <ele>137</ele>
        <time>2021-02-28T10:09:52.551000+00:00</time>
      </trkpt>
      <trkpt lat="0" lon="0">
        <time>2021-02-28T10:09:52.567000+00:00</time>
      </trkpt>
      <trkpt lat="0" lon="0">
        <time>2021-02-28T10:09:52.575000+00:00</time>
      </trkpt>
      <trkpt lat="0" lon="0">
        <time>2021-02-28T10:09:52.578000+00:00</time>
      </trkpt>
      <trkpt lat="47.32344" lon="-1.3986">
        <ele>138</ele>
        <time>2021-02-28T10:09:53.563000+00:00</time>
      </trkpt>
      <trkpt lat="0" lon="0">
        <time>2021-02-28T10:09:53.569000+00:00</time>
      </trkpt>
      <trkpt lat="0" lon="0">
        <time>2021-02-28T10:09:53.574000+00:00</time>
      </trkpt>
      <trkpt lat="0" lon="0">
        <time>2021-02-28T10:09:53.576000+00:00</time>
      </trkpt>
      <trkpt lat="47.32345" lon="-1.39863">
        <ele>138</ele>
        <time>2021-02-28T10:09:54.560000+00:00</time>
      </trkpt>
      <trkpt lat="0" lon="0">
        <time>2021-02-28T10:09:54.574000+00:00</time>
      </trkpt>
      <trkpt lat="0" lon="0">
        <time>2021-02-28T10:09:54.580000+00:00</time>
      </trkpt>
      <trkpt lat="0" lon="0">
        <time>2021-02-28T10:09:54.583000+00:00</time>
      </trkpt>
      <trkpt lat="47.32346" lon="-1.39865">
        <ele>138</ele>
        <time>2021-02-28T10:09:55.489000+00:00</time>
      </trkpt>
      <trkpt lat="0" lon="0">
        <time>2021-02-28T10:09:55.498000+00:00</time>
      </trkpt>
      <trkpt lat="0" lon="0">
        <time>2021-02-28T10:09:55.500000+00:00</time>
      </trkpt>
      <trkpt lat="0" lon="0">
        <time>2021-02-28T10:09:55.501000+00:00</time>
      </trkpt>
      <trkpt lat="47.32346" lon="-1.39869">
        <ele>140</ele>
        <time>2021-02-28T10:09:56.553000+00:00</time>
      </trkpt>
      <trkpt lat="0" lon="0">
        <time>2021-02-28T10:09:56.557000+00:00</time>
      </trkpt>
      <trkpt lat="0" lon="0">
        <time>2021-02-28T10:09:56.561000+00:00</time>
      </trkpt>
      <trkpt lat="0" lon="0">
        <time>2021-02-28T10:09:56.563000+00:00</time>
      </trkpt>
      <trkpt lat="47.32347" lon="-1.39872">
        <ele>141</ele>
        <time>2021-02-28T10:09:57.525000+00:00</time>
      </trkpt>
      <trkpt lat="0" lon="0">
        <time>2021-02-28T10:09:57.533000+00:00</time>
      </trkpt>
      <trkpt lat="0" lon="0">
        <time>2021-02-28T10:09:57.540000+00:00</time>
      </trkpt>
      <trkpt lat="0" lon="0">
        <time>2021-02-28T10:09:57.543000+00:00</time>
      </trkpt>
      <trkpt lat="47.32348" lon="-1.39875">
        <ele>142</ele>
        <time>2021-02-28T10:09:58.573000+00:00</time>
      </trkpt>
      <trkpt lat="0" lon="0">
        <time>2021-02-28T10:09:58.579000+00:00</time>
      </trkpt>
      <trkpt lat="0" lon="0">
        <time>2021-02-28T10:09:58.584000+00:00</time>
      </trkpt>
      <trkpt lat="0" lon="0">
        <time>2021-02-28T10:09:58.587000+00:00</time>
      </trkpt>
      <trkpt lat="47.32349" lon="-1.39879">
        <ele>143</ele>
        <time>2021-02-28T10:09:59.543000+00:00</time>
      </trkpt>
      <trkpt lat="0" lon="0">
        <time>2021-02-28T10:09:59.553000+00:00</time>
      </trkpt>
      <trkpt lat="0" lon="0">
        <time>2021-02-28T10:09:59.558000+00:00</time>
      </trkpt>
      <trkpt lat="0" lon="0">
        <time>2021-02-28T10:09:59.561000+00:00</time>
      </trkpt>
      <trkpt lat="47.3235" lon="-1.39881">
        <ele>143</ele>
        <time>2021-02-28T10:10:00.563000+00:00</time>
      </trkpt>
      <trkpt lat="0" lon="0">
        <time>2021-02-28T10:10:00.577000+00:00</time>
      </trkpt>
      <trkpt lat="0" lon="0">
        <time>2021-02-28T10:10:00.582000+00:00</time>
      </trkpt>
      <trkpt lat="0" lon="0">
        <time>2021-02-28T10:10:00.585000+00:00</time>
      </trkpt>
      <trkpt lat="47.3235" lon="-1.39885">
        <ele>145</ele>
        <time>2021-02-28T10:10:01.507000+00:00</time>
      </trkpt>
      <trkpt lat="0" lon="0">
        <time>2021-02-28T10:10:01.509000+00:00</time>
      </trkpt>
      <trkpt lat="0" lon="0">
        <time>2021-02-28T10:10:01.511000+00:00</time>
      </trkpt>
      <trkpt lat="0" lon="0">
        <time>2021-02-28T10:10:01.513000+00:00</time>
      </trkpt>
      <trkpt lat="47.32351" lon="-1.39888">
        <ele>146</ele>
        <time>2021-02-28T10:10:02.514000+00:00</time>
      </trkpt>
      <trkpt lat="0" lon="0">
        <time>2021-02-28T10:10:02.530000+00:00</time>
      </trkpt>
      <trkpt lat="0" lon="0">
        <time>2021-02-28T10:10:02.535000+00:00</time>
      </trkpt>
      <trkpt lat="0" lon="0">
        <time>2021-02-28T10:10:02.538000+00:00</time>
      </trkpt>
      <trkpt lat="47.32352" lon="-1.39892">
        <ele>146</ele>
        <time>2021-02-28T10:10:03.557000+00:00</time>
      </trkpt>
      <trkpt lat="0" lon="0">
        <time>2021-02-28T10:10:03.567000+00:00</time>
      </trkpt>
      <trkpt lat="0" lon="0">
        <time>2021-02-28T10:10:03.574000+00:00</time>
      </trkpt>
      <trkpt lat="0" lon="0">
        <time>2021-02-28T10:10:03.577000+00:00</time>
      </trkpt>
      <trkpt lat="47.32352" lon="-1.39895">
        <ele>146</ele>
        <time>2021-02-28T10:10:04.534000+00:00</time>
      </trkpt>
      <trkpt lat="0" lon="0">
        <time>2021-02-28T10:10:04.542000+00:00</time>
      </trkpt>
      <trkpt lat="0" lon="0">
        <time>2021-02-28T10:10:04.547000+00:00</time>
      </trkpt>
      <trkpt lat="0" lon="0">
        <time>2021-02-28T10:10:04.550000+00:00</time>
      </trkpt>
      <trkpt lat="47.32353" lon="-1.39898">
        <ele>146</ele>
        <time>2021-02-28T10:10:05.544000+00:00</time>
      </trkpt>
      <trkpt lat="0" lon="0">
        <time>2021-02-28T10:10:05.550000+00:00</time>
      </trkpt>
      <trkpt lat="0" lon="0">
        <time>2021-02-28T10:10:05.555000+00:00</time>
      </trkpt>
      <trkpt lat="0" lon="0">
        <time>2021-02-28T10:10:05.558000+00:00</time>
      </trkpt>
      <trkpt lat="47.32353" lon="-1.399">
        <ele>146</ele>
        <time>2021-02-28T10:10:06.534000+00:00</time>
      </trkpt>
      <trkpt lat="0" lon="0">
        <time>2021-02-28T10:10:06.542000+00:00</time>
      </trkpt>
      <trkpt lat="0" lon="0">
        <time>2021-02-28T10:10:06.545000+00:00</time>
      </trkpt>
      <trkpt lat="0" lon="0">
        <time>2021-02-28T10:10:06.547000+00:00</time>
      </trkpt>
      <trkpt lat="47.32353" lon="-1.39904">
        <ele>148</ele>
        <time>2021-02-28T10:10:07.555000+00:00</time>
      </trkpt>
      <trkpt lat="0" lon="0">
        <time>2021-02-28T10:10:07.563000+00:00</time>
      </trkpt>
      <trkpt lat="0" lon="0">
        <time>2021-02-28T10:10:07.568000+00:00</time>
      </trkpt>
      <trkpt lat="0" lon="0">
        <time>2021-02-28T10:10:07.571000+00:00</time>
      </trkpt>
      <trkpt lat="47.32353" lon="-1.39908">
        <ele>149</ele>
        <time>2021-02-28T10:10:08.542000+00:00</time>
      </trkpt>
      <trkpt lat="0" lon="0">
        <time>2021-02-28T10:10:08.550000+00:00</time>
      </trkpt>
      <trkpt lat="0" lon="0">
        <time>2021-02-28T10:10:08.558000+00:00</time>
      </trkpt>
      <trkpt lat="0" lon="0">
        <time>2021-02-28T10:10:08.561000+00:00</time>
      </trkpt>
      <trkpt lat="47.32353" lon="-1.39911">
        <ele>150</ele>
        <time>2021-02-28T10:10:09.573000+00:00</time>
      </trkpt>
      <trkpt lat="0" lon="0">
        <time>2021-02-28T10:10:09.581000+00:00</time>
      </trkpt>
      <trkpt lat="0" lon="0">
        <time>2021-02-28T10:10:09.588000+00:00</time>
      </trkpt>
      <trkpt lat="0" lon="0">
        <time>2021-02-28T10:10:09.593000+00:00</time>
      </trkpt>
      <trkpt lat="47.32353" lon="-1.39915">
        <ele>152</ele>
        <time>2021-02-28T10:10:10.547000+00:00</time>
      </trkpt>
      <trkpt lat="0" lon="0">
        <time>2021-02-28T10:10:10.565000+00:00</time>
      </trkpt>
      <trkpt lat="0" lon="0">
        <time>2021-02-28T10:10:10.573000+00:00</time>
      </trkpt>
      <trkpt lat="0" lon="0">
        <time>2021-02-28T10:10:10.576000+00:00</time>
      </trkpt>
      <trkpt lat="47.32353" lon="-1.39918">
        <ele>152</ele>
        <time>2021-02-28T10:10:11.528000+00:00</time>
      </trkpt>
      <trkpt lat="0" lon="0">
        <time>2021-02-28T10:10:11.534000+00:00</time>
      </trkpt>
      <trkpt lat="0" lon="0">
        <time>2021-02-28T10:10:11.539000+00:00</time>
      </trkpt>
      <trkpt lat="0" lon="0">
        <time>2021-02-28T10:10:11.543000+00:00</time>
      </trkpt>
      <trkpt lat="47.32353" lon="-1.3992">
        <ele>152</ele>
        <time>2021-02-28T10:10:12.541000+00:00</time>
      </trkpt>
      <trkpt lat="0" lon="0">
        <time>2021-02-28T10:10:12.543000+00:00</time>
      </trkpt>
      <trkpt lat="0" lon="0">
        <time>2021-02-28T10:10:12.544000+00:00</time>
      </trkpt>
      <trkpt lat="0" lon="0">
        <time>2021-02-28T10:10:12.545000+00:00</time>
      </trkpt>
      <trkpt lat="47.32354" lon="-1.39924">
        <ele>155</ele>
        <time>2021-02-28T10:10:13.506000+00:00</time>
      </trkpt>
      <trkpt lat="0" lon="0">
        <time>2021-02-28T10:10:13.515000+00:00</time>
      </trkpt>
      <trkpt lat="0" lon="0">
        <time>2021-02-28T10:10:13.520000+00:00</time>
      </trkpt>
      <trkpt lat="0" lon="0">
        <time>2021-02-28T10:10:13.522000+00:00</time>
      </trkpt>
      <trkpt lat="47.32354" lon="-1.39928">
        <ele>156</ele>
        <time>2021-02-28T10:10:14.535000+00:00</time>
      </trkpt>
      <trkpt lat="0" lon="0">
        <time>2021-02-28T10:10:14.545000+00:00</time>
      </trkpt>
      <trkpt lat="0" lon="0">
        <time>2021-02-28T10:10:14.550000+00:00</time>
      </trkpt>
      <trkpt lat="0" lon="0">
        <time>2021-02-28T10:10:14.553000+00:00</time>
      </trkpt>
      <trkpt lat="47.32354" lon="-1.39932">
        <ele>157</ele>
        <time>2021-02-28T10:10:15.550000+00:00</time>
      </trkpt>
      <trkpt lat="0" lon="0">
        <time>2021-02-28T10:10:15.554000+00:00</time>
      </trkpt>
      <trkpt lat="0" lon="0">
        <time>2021-02-28T10:10:15.560000+00:00</time>
      </trkpt>
      <trkpt lat="0" lon="0">
        <time>2021-02-28T10:10:15.563000+00:00</time>
      </trkpt>
      <trkpt lat="47.32355" lon="-1.39935">
        <ele>158</ele>
        <time>2021-02-28T10:10:16.577000+00:00</time>
      </trkpt>
      <trkpt lat="0" lon="0">
        <time>2021-02-28T10:10:16.593000+00:00</time>
      </trkpt>
      <trkpt lat="0" lon="0">
        <time>2021-02-28T10:10:16.598000+00:00</time>
      </trkpt>
      <trkpt lat="0" lon="0">
        <time>2021-02-28T10:10:16.603000+00:00</time>
      </trkpt>
      <trkpt lat="47.32355" lon="-1.39938">
        <ele>158</ele>
        <time>2021-02-28T10:10:17.503000+00:00</time>
      </trkpt>
      <trkpt lat="0" lon="0">
        <time>2021-02-28T10:10:17.509000+00:00</time>
      </trkpt>
      <trkpt lat="0" lon="0">
        <time>2021-02-28T10:10:17.513000+00:00</time>
      </trkpt>
      <trkpt lat="0" lon="0">
        <time>2021-02-28T10:10:17.516000+00:00</time>
      </trkpt>
      <trkpt lat="47.32355" lon="-1.3994">
        <ele>158</ele>
        <time>2021-02-28T10:10:18.482000+00:00</time>
      </trkpt>
      <trkpt lat="0" lon="0">
        <time>2021-02-28T10:10:18.484000+00:00</time>
      </trkpt>
      <trkpt lat="0" lon="0">
        <time>2021-02-28T10:10:18.485000+00:00</time>
      </trkpt>
      <trkpt lat="0" lon="0">
        <time>2021-02-28T10:10:18.486000+00:00</time>
      </trkpt>
      <trkpt lat="47.32355" lon="-1.39944">
        <ele>161</ele>
        <time>2021-02-28T10:10:19.536000+00:00</time>
      </trkpt>
      <trkpt lat="0" lon="0">
        <time>2021-02-28T10:10:19.545000+00:00</time>
      </trkpt>
      <trkpt lat="0" lon="0">
        <time>2021-02-28T10:10:19.550000+00:00</time>
      </trkpt>
      <trkpt lat="0" lon="0">
        <time>2021-02-28T10:10:19.554000+00:00</time>
      </trkpt>
      <trkpt lat="47.32355" lon="-1.39947">
        <ele>162</ele>
        <time>2021-02-28T10:10:20.515000+00:00</time>
      </trkpt>
      <trkpt lat="0" lon="0">
        <time>2021-02-28T10:10:20.526000+00:00</time>
      </trkpt>
      <trkpt lat="0" lon="0">
        <time>2021-02-28T10:10:20.531000+00:00</time>
      </trkpt>
      <trkpt lat="0" lon="0">
        <time>2021-02-28T10:10:20.535000+00:00</time>
      </trkpt>
      <trkpt lat="47.32356" lon="-1.3995">
        <ele>164</ele>
        <time>2021-02-28T10:10:21.579000+00:00</time>
      </trkpt>
      <trkpt lat="0" lon="0">
        <time>2021-02-28T10:10:21.590000+00:00</time>
      </trkpt>
      <trkpt lat="0" lon="0">
        <time>2021-02-28T10:10:21.596000+00:00</time>
      </trkpt>
      <trkpt lat="0" lon="0">
        <time>2021-02-28T10:10:21.599000+00:00</time>
      </trkpt>
      <trkpt lat="47.32356" lon="-1.39953">
        <ele>165</ele>
        <time>2021-02-28T10:10:22.514000+00:00</time>
      </trkpt>
      <trkpt lat="0" lon="0">
        <time>2021-02-28T10:10:22.532000+00:00</time>
      </trkpt>
      <trkpt lat="0" lon="0">
        <time>2021-02-28T10:10:22.536000+00:00</time>
      </trkpt>
      <trkpt lat="0" lon="0">
        <time>2021-02-28T10:10:22.540000+00:00</time>
      </trkpt>
      <trkpt lat="47.32356" lon="-1.39956">
        <ele>165</ele>
        <time>2021-02-28T10:10:23.538000+00:00</time>
      </trkpt>
      <trkpt lat="0" lon="0">
        <time>2021-02-28T10:10:23.546000+00:00</time>
      </trkpt>
      <trkpt lat="0" lon="0">
        <time>2021-02-28T10:10:23.552000+00:00</time>
      </trkpt>
      <trkpt lat="0" lon="0">
        <time>2021-02-28T10:10:23.556000+00:00</time>
      </trkpt>
      <trkpt lat="47.32356" lon="-1.39957">
        <ele>165</ele>
        <time>2021-02-28T10:10:24.524000+00:00</time>
      </trkpt>
      <trkpt lat="0" lon="0">
        <time>2021-02-28T10:10:24.533000+00:00</time>
      </trkpt>
      <trkpt lat="0" lon="0">
        <time>2021-02-28T10:10:24.538000+00:00</time>
      </trkpt>
      <trkpt lat="0" lon="0">
        <time>2021-02-28T10:10:24.540000+00:00</time>
      </trkpt>
      <trkpt lat="47.32356" lon="-1.39961">
        <ele>168</ele>
        <time>2021-02-28T10:10:25.543000+00:00</time>
      </trkpt>
      <trkpt lat="0" lon="0">
        <time>2021-02-28T10:10:25.556000+00:00</time>
      </trkpt>
      <trkpt lat="0" lon="0">
        <time>2021-02-28T10:10:25.563000+00:00</time>
      </trkpt>
      <trkpt lat="0" lon="0">
        <time>2021-02-28T10:10:25.566000+00:00</time>
      </trkpt>
      <trkpt lat="47.32357" lon="-1.39964">
        <ele>170</ele>
        <time>2021-02-28T10:10:26.575000+00:00</time>
      </trkpt>
      <trkpt lat="0" lon="0">
        <time>2021-02-28T10:10:26.582000+00:00</time>
      </trkpt>
      <trkpt lat="0" lon="0">
        <time>2021-02-28T10:10:26.588000+00:00</time>
      </trkpt>
      <trkpt lat="0" lon="0">
        <time>2021-02-28T10:10:26.591000+00:00</time>
      </trkpt>
      <trkpt lat="47.32357" lon="-1.39967">
        <ele>171</ele>
        <time>2021-02-28T10:10:27.559000+00:00</time>
      </trkpt>
      <trkpt lat="0" lon="0">
        <time>2021-02-28T10:10:27.569000+00:00</time>
      </trkpt>
      <trkpt lat="0" lon="0">
        <time>2021-02-28T10:10:27.575000+00:00</time>
      </trkpt>
      <trkpt lat="0" lon="0">
        <time>2021-02-28T10:10:27.578000+00:00</time>
      </trkpt>
      <trkpt lat="47.32358" lon="-1.3997">
        <ele>173</ele>
        <time>2021-02-28T10:10:28.546000+00:00</time>
      </trkpt>
      <trkpt lat="0" lon="0">
        <time>2021-02-28T10:10:28.554000+00:00</time>
      </trkpt>
      <trkpt lat="0" lon="0">
        <time>2021-02-28T10:10:28.559000+00:00</time>
      </trkpt>
      <trkpt lat="0" lon="0">
        <time>2021-02-28T10:10:28.561000+00:00</time>
      </trkpt>
      <trkpt lat="47.32359" lon="-1.39973">
        <ele>173</ele>
        <time>2021-02-28T10:10:29.514000+00:00</time>
      </trkpt>
      <trkpt lat="0" lon="0">
        <time>2021-02-28T10:10:29.517000+00:00</time>
      </trkpt>
      <trkpt lat="0" lon="0">
        <time>2021-02-28T10:10:29.525000+00:00</time>
      </trkpt>
      <trkpt lat="0" lon="0">
        <time>2021-02-28T10:10:29.530000+00:00</time>
      </trkpt>
      <trkpt lat="47.32359" lon="-1.39975">
        <ele>173</ele>
        <time>2021-02-28T10:10:30.529000+00:00</time>
      </trkpt>
      <trkpt lat="0" lon="0">
        <time>2021-02-28T10:10:30.537000+00:00</time>
      </trkpt>
      <trkpt lat="0" lon="0">
        <time>2021-02-28T10:10:30.542000+00:00</time>
      </trkpt>
      <trkpt lat="0" lon="0">
        <time>2021-02-28T10:10:30.545000+00:00</time>
      </trkpt>
      <trkpt lat="47.3236" lon="-1.39978">
        <ele>175</ele>
        <time>2021-02-28T10:10:31.527000+00:00</time>
      </trkpt>
      <trkpt lat="0" lon="0">
        <time>2021-02-28T10:10:31.533000+00:00</time>
      </trkpt>
      <trkpt lat="0" lon="0">
        <time>2021-02-28T10:10:31.538000+00:00</time>
      </trkpt>
      <trkpt lat="0" lon="0">
        <time>2021-02-28T10:10:31.541000+00:00</time>
      </trkpt>
      <trkpt lat="47.32361" lon="-1.39981">
        <ele>176</ele>
        <time>2021-02-28T10:10:32.526000+00:00</time>
      </trkpt>
      <trkpt lat="0" lon="0">
        <time>2021-02-28T10:10:32.532000+00:00</time>
      </trkpt>
      <trkpt lat="0" lon="0">
        <time>2021-02-28T10:10:32.537000+00:00</time>
      </trkpt>
      <trkpt lat="0" lon="0">
        <time>2021-02-28T10:10:32.539000+00:00</time>
      </trkpt>
      <trkpt lat="47.32362" lon="-1.39984">
        <ele>176</ele>
        <time>2021-02-28T10:10:33.465000+00:00</time>
      </trkpt>
      <trkpt lat="0" lon="0">
        <time>2021-02-28T10:10:33.478000+00:00</time>
      </trkpt>
      <trkpt lat="0" lon="0">
        <time>2021-02-28T10:10:33.483000+00:00</time>
      </trkpt>
      <trkpt lat="0" lon="0">
        <time>2021-02-28T10:10:33.486000+00:00</time>
      </trkpt>
      <trkpt lat="47.32362" lon="-1.39987">
        <ele>176</ele>
        <time>2021-02-28T10:10:34.539000+00:00</time>
      </trkpt>
      <trkpt lat="0" lon="0">
        <time>2021-02-28T10:10:34.545000+00:00</time>
      </trkpt>
      <trkpt lat="0" lon="0">
        <time>2021-02-28T10:10:34.552000+00:00</time>
      </trkpt>
      <trkpt lat="0" lon="0">
        <time>2021-02-28T10:10:34.555000+00:00</time>
      </trkpt>
      <trkpt lat="47.32363" lon="-1.3999">
        <ele>176</ele>
        <time>2021-02-28T10:10:35.527000+00:00</time>
      </trkpt>
      <trkpt lat="0" lon="0">
        <time>2021-02-28T10:10:35.541000+00:00</time>
      </trkpt>
      <trkpt lat="0" lon="0">
        <time>2021-02-28T10:10:35.546000+00:00</time>
      </trkpt>
      <trkpt lat="0" lon="0">
        <time>2021-02-28T10:10:35.548000+00:00</time>
      </trkpt>
      <trkpt lat="47.32363" lon="-1.39993">
        <ele>175</ele>
        <time>2021-02-28T10:10:36.528000+00:00</time>
      </trkpt>
      <trkpt lat="0" lon="0">
        <time>2021-02-28T10:10:36.538000+00:00</time>
      </trkpt>
      <trkpt lat="0" lon="0">
        <time>2021-02-28T10:10:36.544000+00:00</time>
      </trkpt>
      <trkpt lat="0" lon="0">
        <time>2021-02-28T10:10:36.547000+00:00</time>
      </trkpt>
      <trkpt lat="47.32364" lon="-1.39995">
        <ele>175</ele>
        <time>2021-02-28T10:10:37.559000+00:00</time>
      </trkpt>
      <trkpt lat="0" lon="0">
        <time>2021-02-28T10:10:37.570000+00:00</time>
      </trkpt>
      <trkpt lat="0" lon="0">
        <time>2021-02-28T10:10:37.578000+00:00</time>
      </trkpt>
      <trkpt lat="0" lon="0">
        <time>2021-02-28T10:10:37.581000+00:00</time>
      </trkpt>
      <trkpt lat="47.32365" lon="-1.39999">
        <ele>174</ele>
        <time>2021-02-28T10:10:38.559000+00:00</time>
      </trkpt>
      <trkpt lat="0" lon="0">
        <time>2021-02-28T10:10:38.566000+00:00</time>
      </trkpt>
      <trkpt lat="0" lon="0">
        <time>2021-02-28T10:10:38.572000+00:00</time>
      </trkpt>
      <trkpt lat="0" lon="0">
        <time>2021-02-28T10:10:38.575000+00:00</time>
      </trkpt>
      <trkpt lat="47.32366" lon="-1.40002">
        <ele>174</ele>
        <time>2021-02-28T10:10:39.558000+00:00</time>
      </trkpt>
      <trkpt lat="0" lon="0">
        <time>2021-02-28T10:10:39.566000+00:00</time>
      </trkpt>
      <trkpt lat="0" lon="0">
        <time>2021-02-28T10:10:39.574000+00:00</time>
      </trkpt>
      <trkpt lat="0" lon="0">
        <time>2021-02-28T10:10:39.577000+00:00</time>
      </trkpt>
      <trkpt lat="47.32366" lon="-1.40005">
        <ele>174</ele>
        <time>2021-02-28T10:10:40.514000+00:00</time>
      </trkpt>
      <trkpt lat="0" lon="0">
        <time>2021-02-28T10:10:40.522000+00:00</time>
      </trkpt>
      <trkpt lat="0" lon="0">
        <time>2021-02-28T10:10:40.527000+00:00</time>
      </trkpt>
      <trkpt lat="0" lon="0">
        <time>2021-02-28T10:10:40.529000+00:00</time>
      </trkpt>
      <trkpt lat="47.32367" lon="-1.40007">
        <ele>174</ele>
        <time>2021-02-28T10:10:41.548000+00:00</time>
      </trkpt>
      <trkpt lat="0" lon="0">
        <time>2021-02-28T10:10:41.562000+00:00</time>
      </trkpt>
      <trkpt lat="0" lon="0">
        <time>2021-02-28T10:10:41.567000+00:00</time>
      </trkpt>
      <trkpt lat="0" lon="0">
        <time>2021-02-28T10:10:41.570000+00:00</time>
      </trkpt>
      <trkpt lat="47.32367" lon="-1.4001">
        <ele>173</ele>
        <time>2021-02-28T10:10:42.568000+00:00</time>
      </trkpt>
      <trkpt lat="0" lon="0">
        <time>2021-02-28T10:10:42.574000+00:00</time>
      </trkpt>
      <trkpt lat="0" lon="0">
        <time>2021-02-28T10:10:42.580000+00:00</time>
      </trkpt>
      <trkpt lat="0" lon="0">
        <time>2021-02-28T10:10:42.582000+00:00</time>
      </trkpt>
      <trkpt lat="47.32368" lon="-1.40014">
        <ele>173</ele>
        <time>2021-02-28T10:10:43.567000+00:00</time>
      </trkpt>
      <trkpt lat="0" lon="0">
        <time>2021-02-28T10:10:43.580000+00:00</time>
      </trkpt>
      <trkpt lat="0" lon="0">
        <time>2021-02-28T10:10:43.588000+00:00</time>
      </trkpt>
      <trkpt lat="0" lon="0">
        <time>2021-02-28T10:10:43.591000+00:00</time>
      </trkpt>
      <trkpt lat="47.32368" lon="-1.40018">
        <ele>173</ele>
        <time>2021-02-28T10:10:44.542000+00:00</time>
      </trkpt>
      <trkpt lat="0" lon="0">
        <time>2021-02-28T10:10:44.547000+00:00</time>
      </trkpt>
      <trkpt lat="0" lon="0">
        <time>2021-02-28T10:10:44.552000+00:00</time>
      </trkpt>
      <trkpt lat="0" lon="0">
        <time>2021-02-28T10:10:44.555000+00:00</time>
      </trkpt>
      <trkpt lat="47.32369" lon="-1.40022">
        <ele>172</ele>
        <time>2021-02-28T10:10:45.548000+00:00</time>
      </trkpt>
      <trkpt lat="0" lon="0">
        <time>2021-02-28T10:10:45.553000+00:00</time>
      </trkpt>
      <trkpt lat="0" lon="0">
        <time>2021-02-28T10:10:45.558000+00:00</time>
      </trkpt>
      <trkpt lat="0" lon="0">
        <time>2021-02-28T10:10:45.561000+00:00</time>
      </trkpt>
      <trkpt lat="47.32369" lon="-1.40026">
        <ele>171</ele>
        <time>2021-02-28T10:10:46.571000+00:00</time>
      </trkpt>
      <trkpt lat="0" lon="0">
        <time>2021-02-28T10:10:46.574000+00:00</time>
      </trkpt>
      <trkpt lat="0" lon="0">
        <time>2021-02-28T10:10:46.576000+00:00</time>
      </trkpt>
      <trkpt lat="0" lon="0">
        <time>2021-02-28T10:10:46.577000+00:00</time>
      </trkpt>
      <trkpt lat="47.32369" lon="-1.40031">
        <ele>171</ele>
        <time>2021-02-28T10:10:47.521000+00:00</time>
      </trkpt>
      <trkpt lat="0" lon="0">
        <time>2021-02-28T10:10:47.527000+00:00</time>
      </trkpt>
      <trkpt lat="0" lon="0">
        <time>2021-02-28T10:10:47.533000+00:00</time>
      </trkpt>
      <trkpt lat="0" lon="0">
        <time>2021-02-28T10:10:47.535000+00:00</time>
      </trkpt>
      <trkpt lat="47.32369" lon="-1.40035">
        <ele>170</ele>
        <time>2021-02-28T10:10:48.521000+00:00</time>
      </trkpt>
      <trkpt lat="0" lon="0">
        <time>2021-02-28T10:10:48.526000+00:00</time>
      </trkpt>
      <trkpt lat="0" lon="0">
        <time>2021-02-28T10:10:48.530000+00:00</time>
      </trkpt>
      <trkpt lat="0" lon="0">
        <time>2021-02-28T10:10:48.532000+00:00</time>
      </trkpt>
      <trkpt lat="47.32369" lon="-1.40039">
        <ele>168</ele>
        <time>2021-02-28T10:10:49.523000+00:00</time>
      </trkpt>
      <trkpt lat="0" lon="0">
        <time>2021-02-28T10:10:49.531000+00:00</time>
      </trkpt>
      <trkpt lat="0" lon="0">
        <time>2021-02-28T10:10:49.536000+00:00</time>
      </trkpt>
      <trkpt lat="0" lon="0">
        <time>2021-02-28T10:10:49.539000+00:00</time>
      </trkpt>
      <trkpt lat="47.32369" lon="-1.40044">
        <ele>167</ele>
        <time>2021-02-28T10:10:50.572000+00:00</time>
      </trkpt>
      <trkpt lat="0" lon="0">
        <time>2021-02-28T10:10:50.584000+00:00</time>
      </trkpt>
      <trkpt lat="0" lon="0">
        <time>2021-02-28T10:10:50.589000+00:00</time>
      </trkpt>
      <trkpt lat="0" lon="0">
        <time>2021-02-28T10:10:50.591000+00:00</time>
      </trkpt>
      <trkpt lat="47.3237" lon="-1.40048">
        <ele>165</ele>
        <time>2021-02-28T10:10:51.547000+00:00</time>
      </trkpt>
      <trkpt lat="0" lon="0">
        <time>2021-02-28T10:10:51.556000+00:00</time>
      </trkpt>
      <trkpt lat="0" lon="0">
        <time>2021-02-28T10:10:51.562000+00:00</time>
      </trkpt>
      <trkpt lat="0" lon="0">
        <time>2021-02-28T10:10:51.566000+00:00</time>
      </trkpt>
      <trkpt lat="47.3237" lon="-1.40052">
        <ele>165</ele>
        <time>2021-02-28T10:10:52.523000+00:00</time>
      </trkpt>
      <trkpt lat="0" lon="0">
        <time>2021-02-28T10:10:52.531000+00:00</time>
      </trkpt>
      <trkpt lat="0" lon="0">
        <time>2021-02-28T10:10:52.537000+00:00</time>
      </trkpt>
      <trkpt lat="0" lon="0">
        <time>2021-02-28T10:10:52.540000+00:00</time>
      </trkpt>
      <trkpt lat="47.3237" lon="-1.40055">
        <ele>165</ele>
        <time>2021-02-28T10:10:53.558000+00:00</time>
      </trkpt>
      <trkpt lat="0" lon="0">
        <time>2021-02-28T10:10:53.568000+00:00</time>
      </trkpt>
      <trkpt lat="0" lon="0">
        <time>2021-02-28T10:10:53.574000+00:00</time>
      </trkpt>
      <trkpt lat="0" lon="0">
        <time>2021-02-28T10:10:53.576000+00:00</time>
      </trkpt>
      <trkpt lat="47.3237" lon="-1.40057">
        <ele>165</ele>
        <time>2021-02-28T10:10:54.562000+00:00</time>
      </trkpt>
      <trkpt lat="0" lon="0">
        <time>2021-02-28T10:10:54.570000+00:00</time>
      </trkpt>
      <trkpt lat="0" lon="0">
        <time>2021-02-28T10:10:54.577000+00:00</time>
      </trkpt>
      <trkpt lat="0" lon="0">
        <time>2021-02-28T10:10:54.580000+00:00</time>
      </trkpt>
      <trkpt lat="47.3237" lon="-1.40061">
        <ele>162</ele>
        <time>2021-02-28T10:10:55.553000+00:00</time>
      </trkpt>
      <trkpt lat="0" lon="0">
        <time>2021-02-28T10:10:55.561000+00:00</time>
      </trkpt>
      <trkpt lat="0" lon="0">
        <time>2021-02-28T10:10:55.566000+00:00</time>
      </trkpt>
      <trkpt lat="0" lon="0">
        <time>2021-02-28T10:10:55.569000+00:00</time>
      </trkpt>
      <trkpt lat="47.3237" lon="-1.40064">
        <ele>161</ele>
        <time>2021-02-28T10:10:56.542000+00:00</time>
      </trkpt>
      <trkpt lat="0" lon="0">
        <time>2021-02-28T10:10:56.546000+00:00</time>
      </trkpt>
      <trkpt lat="0" lon="0">
        <time>2021-02-28T10:10:56.551000+00:00</time>
      </trkpt>
      <trkpt lat="0" lon="0">
        <time>2021-02-28T10:10:56.553000+00:00</time>
      </trkpt>
      <trkpt lat="47.3237" lon="-1.40068">
        <ele>160</ele>
        <time>2021-02-28T10:10:57.557000+00:00</time>
      </trkpt>
      <trkpt lat="0" lon="0">
        <time>2021-02-28T10:10:57.572000+00:00</time>
      </trkpt>
      <trkpt lat="0" lon="0">
        <time>2021-02-28T10:10:57.578000+00:00</time>
      </trkpt>
      <trkpt lat="0" lon="0">
        <time>2021-02-28T10:10:57.580000+00:00</time>
      </trkpt>
      <trkpt lat="47.3237" lon="-1.40071">
        <ele>160</ele>
        <time>2021-02-28T10:10:58.558000+00:00</time>
      </trkpt>
      <trkpt lat="0" lon="0">
        <time>2021-02-28T10:10:58.563000+00:00</time>
      </trkpt>
      <trkpt lat="0" lon="0">
        <time>2021-02-28T10:10:58.568000+00:00</time>
      </trkpt>
      <trkpt lat="0" lon="0">
        <time>2021-02-28T10:10:58.570000+00:00</time>
      </trkpt>
      <trkpt lat="47.3237" lon="-1.40075">
        <ele>159</ele>
        <time>2021-02-28T10:10:59.535000+00:00</time>
      </trkpt>
      <trkpt lat="0" lon="0">
        <time>2021-02-28T10:10:59.541000+00:00</time>
      </trkpt>
      <trkpt lat="0" lon="0">
        <time>2021-02-28T10:10:59.546000+00:00</time>
      </trkpt>
      <trkpt lat="0" lon="0">
        <time>2021-02-28T10:10:59.549000+00:00</time>
      </trkpt>
      <trkpt lat="47.3237" lon="-1.40079">
        <ele>158</ele>
        <time>2021-02-28T10:11:00.505000+00:00</time>
      </trkpt>
      <trkpt lat="0" lon="0">
        <time>2021-02-28T10:11:00.520000+00:00</time>
      </trkpt>
      <trkpt lat="0" lon="0">
        <time>2021-02-28T10:11:00.524000+00:00</time>
      </trkpt>
      <trkpt lat="0" lon="0">
        <time>2021-02-28T10:11:00.526000+00:00</time>
      </trkpt>
      <trkpt lat="47.3237" lon="-1.40082">
        <ele>158</ele>
        <time>2021-02-28T10:11:01.564000+00:00</time>
      </trkpt>
      <trkpt lat="0" lon="0">
        <time>2021-02-28T10:11:01.577000+00:00</time>
      </trkpt>
      <trkpt lat="0" lon="0">
        <time>2021-02-28T10:11:01.583000+00:00</time>
      </trkpt>
      <trkpt lat="0" lon="0">
        <time>2021-02-28T10:11:01.585000+00:00</time>
      </trkpt>
      <trkpt lat="47.3237" lon="-1.40086">
        <ele>157</ele>
        <time>2021-02-28T10:11:02.583000+00:00</time>
      </trkpt>
      <trkpt lat="0" lon="0">
        <time>2021-02-28T10:11:02.589000+00:00</time>
      </trkpt>
      <trkpt lat="0" lon="0">
        <time>2021-02-28T10:11:02.594000+00:00</time>
      </trkpt>
      <trkpt lat="0" lon="0">
        <time>2021-02-28T10:11:02.596000+00:00</time>
      </trkpt>
      <trkpt lat="47.3237" lon="-1.4009">
        <ele>157</ele>
        <time>2021-02-28T10:11:03.541000+00:00</time>
      </trkpt>
      <trkpt lat="0" lon="0">
        <time>2021-02-28T10:11:03.548000+00:00</time>
      </trkpt>
      <trkpt lat="0" lon="0">
        <time>2021-02-28T10:11:03.555000+00:00</time>
      </trkpt>
      <trkpt lat="0" lon="0">
        <time>2021-02-28T10:11:03.558000+00:00</time>
      </trkpt>
      <trkpt lat="47.3237" lon="-1.40093">
        <ele>157</ele>
        <time>2021-02-28T10:11:04.596000+00:00</time>
      </trkpt>
      <trkpt lat="0" lon="0">
        <time>2021-02-28T10:11:04.602000+00:00</time>
      </trkpt>
      <trkpt lat="0" lon="0">
        <time>2021-02-28T10:11:04.607000+00:00</time>
      </trkpt>
      <trkpt lat="0" lon="0">
        <time>2021-02-28T10:11:04.610000+00:00</time>
      </trkpt>
      <trkpt lat="47.3237" lon="-1.40097">
        <ele>156</ele>
        <time>2021-02-28T10:11:05.576000+00:00</time>
      </trkpt>
      <trkpt lat="0" lon="0">
        <time>2021-02-28T10:11:05.586000+00:00</time>
      </trkpt>
      <trkpt lat="0" lon="0">
        <time>2021-02-28T10:11:05.594000+00:00</time>
      </trkpt>
      <trkpt lat="0" lon="0">
        <time>2021-02-28T10:11:05.598000+00:00</time>
      </trkpt>
      <trkpt lat="47.3237" lon="-1.40101">
        <ele>155</ele>
        <time>2021-02-28T10:11:06.556000+00:00</time>
      </trkpt>
      <trkpt lat="0" lon="0">
        <time>2021-02-28T10:11:06.561000+00:00</time>
      </trkpt>
      <trkpt lat="0" lon="0">
        <time>2021-02-28T10:11:06.569000+00:00</time>
      </trkpt>
      <trkpt lat="0" lon="0">
        <time>2021-02-28T10:11:06.572000+00:00</time>
      </trkpt>
      <trkpt lat="47.3237" lon="-1.40104">
        <ele>154</ele>
        <time>2021-02-28T10:11:07.529000+00:00</time>
      </trkpt>
      <trkpt lat="0" lon="0">
        <time>2021-02-28T10:11:07.537000+00:00</time>
      </trkpt>
      <trkpt lat="0" lon="0">
        <time>2021-02-28T10:11:07.541000+00:00</time>
      </trkpt>
      <trkpt lat="0" lon="0">
        <time>2021-02-28T10:11:07.543000+00:00</time>
      </trkpt>
      <trkpt lat="47.32371" lon="-1.40107">
        <ele>154</ele>
        <time>2021-02-28T10:11:08.522000+00:00</time>
      </trkpt>
      <trkpt lat="0" lon="0">
        <time>2021-02-28T10:11:08.530000+00:00</time>
      </trkpt>
      <trkpt lat="0" lon="0">
        <time>2021-02-28T10:11:08.540000+00:00</time>
      </trkpt>
      <trkpt lat="0" lon="0">
        <time>2021-02-28T10:11:08.542000+00:00</time>
      </trkpt>
      <trkpt lat="47.32371" lon="-1.4011">
        <ele>153</ele>
        <time>2021-02-28T10:11:09.530000+00:00</time>
      </trkpt>
      <trkpt lat="0" lon="0">
        <time>2021-02-28T10:11:09.535000+00:00</time>
      </trkpt>
      <trkpt lat="0" lon="0">
        <time>2021-02-28T10:11:09.540000+00:00</time>
      </trkpt>
      <trkpt lat="0" lon="0">
        <time>2021-02-28T10:11:09.543000+00:00</time>
      </trkpt>
      <trkpt lat="47.32372" lon="-1.40113">
        <ele>152</ele>
        <time>2021-02-28T10:11:10.533000+00:00</time>
      </trkpt>
      <trkpt lat="0" lon="0">
        <time>2021-02-28T10:11:10.539000+00:00</time>
      </trkpt>
      <trkpt lat="0" lon="0">
        <time>2021-02-28T10:11:10.544000+00:00</time>
      </trkpt>
      <trkpt lat="0" lon="0">
        <time>2021-02-28T10:11:10.547000+00:00</time>
      </trkpt>
      <trkpt lat="47.32372" lon="-1.40116">
        <ele>151</ele>
        <time>2021-02-28T10:11:11.562000+00:00</time>
      </trkpt>
      <trkpt lat="0" lon="0">
        <time>2021-02-28T10:11:11.571000+00:00</time>
      </trkpt>
      <trkpt lat="0" lon="0">
        <time>2021-02-28T10:11:11.577000+00:00</time>
      </trkpt>
      <trkpt lat="0" lon="0">
        <time>2021-02-28T10:11:11.581000+00:00</time>
      </trkpt>
      <trkpt lat="47.32373" lon="-1.4012">
        <ele>150</ele>
        <time>2021-02-28T10:11:12.569000+00:00</time>
      </trkpt>
      <trkpt lat="0" lon="0">
        <time>2021-02-28T10:11:12.580000+00:00</time>
      </trkpt>
      <trkpt lat="0" lon="0">
        <time>2021-02-28T10:11:12.589000+00:00</time>
      </trkpt>
      <trkpt lat="0" lon="0">
        <time>2021-02-28T10:11:12.591000+00:00</time>
      </trkpt>
      <trkpt lat="47.32373" lon="-1.40124">
        <ele>149</ele>
        <time>2021-02-28T10:11:13.548000+00:00</time>
      </trkpt>
      <trkpt lat="0" lon="0">
        <time>2021-02-28T10:11:13.557000+00:00</time>
      </trkpt>
      <trkpt lat="0" lon="0">
        <time>2021-02-28T10:11:13.562000+00:00</time>
      </trkpt>
      <trkpt lat="0" lon="0">
        <time>2021-02-28T10:11:13.565000+00:00</time>
      </trkpt>
      <trkpt lat="47.32374" lon="-1.40128">
        <ele>149</ele>
        <time>2021-02-28T10:11:14.555000+00:00</time>
      </trkpt>
      <trkpt lat="0" lon="0">
        <time>2021-02-28T10:11:14.559000+00:00</time>
      </trkpt>
      <trkpt lat="0" lon="0">
        <time>2021-02-28T10:11:14.561000+00:00</time>
      </trkpt>
      <trkpt lat="0" lon="0">
        <time>2021-02-28T10:11:14.562000+00:00</time>
      </trkpt>
      <trkpt lat="47.32374" lon="-1.40133">
        <ele>148</ele>
        <time>2021-02-28T10:11:15.551000+00:00</time>
      </trkpt>
      <trkpt lat="0" lon="0">
        <time>2021-02-28T10:11:15.561000+00:00</time>
      </trkpt>
      <trkpt lat="0" lon="0">
        <time>2021-02-28T10:11:15.568000+00:00</time>
      </trkpt>
      <trkpt lat="0" lon="0">
        <time>2021-02-28T10:11:15.571000+00:00</time>
      </trkpt>
      <trkpt lat="47.32374" lon="-1.40138">
        <ele>148</ele>
        <time>2021-02-28T10:11:16.561000+00:00</time>
      </trkpt>
      <trkpt lat="0" lon="0">
        <time>2021-02-28T10:11:16.566000+00:00</time>
      </trkpt>
      <trkpt lat="0" lon="0">
        <time>2021-02-28T10:11:16.571000+00:00</time>
      </trkpt>
      <trkpt lat="0" lon="0">
        <time>2021-02-28T10:11:16.573000+00:00</time>
      </trkpt>
      <trkpt lat="47.32374" lon="-1.40142">
        <ele>148</ele>
        <time>2021-02-28T10:11:17.543000+00:00</time>
      </trkpt>
      <trkpt lat="0" lon="0">
        <time>2021-02-28T10:11:17.551000+00:00</time>
      </trkpt>
      <trkpt lat="0" lon="0">
        <time>2021-02-28T10:11:17.557000+00:00</time>
      </trkpt>
      <trkpt lat="0" lon="0">
        <time>2021-02-28T10:11:17.560000+00:00</time>
      </trkpt>
      <trkpt lat="47.32374" lon="-1.40147">
        <ele>148</ele>
        <time>2021-02-28T10:11:18.519000+00:00</time>
      </trkpt>
      <trkpt lat="0" lon="0">
        <time>2021-02-28T10:11:18.524000+00:00</time>
      </trkpt>
      <trkpt lat="0" lon="0">
        <time>2021-02-28T10:11:18.529000+00:00</time>
      </trkpt>
      <trkpt lat="0" lon="0">
        <time>2021-02-28T10:11:18.532000+00:00</time>
      </trkpt>
      <trkpt lat="47.32374" lon="-1.40151">
        <ele>147</ele>
        <time>2021-02-28T10:11:19.525000+00:00</time>
      </trkpt>
      <trkpt lat="0" lon="0">
        <time>2021-02-28T10:11:19.535000+00:00</time>
      </trkpt>
      <trkpt lat="0" lon="0">
        <time>2021-02-28T10:11:19.548000+00:00</time>
      </trkpt>
      <trkpt lat="0" lon="0">
        <time>2021-02-28T10:11:19.551000+00:00</time>
      </trkpt>
      <trkpt lat="47.32374" lon="-1.40155">
        <ele>147</ele>
        <time>2021-02-28T10:11:20.559000+00:00</time>
      </trkpt>
      <trkpt lat="0" lon="0">
        <time>2021-02-28T10:11:20.566000+00:00</time>
      </trkpt>
      <trkpt lat="0" lon="0">
        <time>2021-02-28T10:11:20.571000+00:00</time>
      </trkpt>
      <trkpt lat="0" lon="0">
        <time>2021-02-28T10:11:20.573000+00:00</time>
      </trkpt>
      <trkpt lat="47.32374" lon="-1.40159">
        <ele>146</ele>
        <time>2021-02-28T10:11:21.541000+00:00</time>
      </trkpt>
      <trkpt lat="0" lon="0">
        <time>2021-02-28T10:11:21.550000+00:00</time>
      </trkpt>
      <trkpt lat="0" lon="0">
        <time>2021-02-28T10:11:21.556000+00:00</time>
      </trkpt>
      <trkpt lat="0" lon="0">
        <time>2021-02-28T10:11:21.559000+00:00</time>
      </trkpt>
      <trkpt lat="47.32374" lon="-1.40163">
        <ele>145</ele>
        <time>2021-02-28T10:11:22.600000+00:00</time>
      </trkpt>
      <trkpt lat="0" lon="0">
        <time>2021-02-28T10:11:22.614000+00:00</time>
      </trkpt>
      <trkpt lat="0" lon="0">
        <time>2021-02-28T10:11:22.621000+00:00</time>
      </trkpt>
      <trkpt lat="0" lon="0">
        <time>2021-02-28T10:11:22.624000+00:00</time>
      </trkpt>
      <trkpt lat="47.32374" lon="-1.40167">
        <ele>145</ele>
        <time>2021-02-28T10:11:23.547000+00:00</time>
      </trkpt>
      <trkpt lat="0" lon="0">
        <time>2021-02-28T10:11:23.559000+00:00</time>
      </trkpt>
      <trkpt lat="0" lon="0">
        <time>2021-02-28T10:11:23.565000+00:00</time>
      </trkpt>
      <trkpt lat="0" lon="0">
        <time>2021-02-28T10:11:23.568000+00:00</time>
      </trkpt>
      <trkpt lat="47.32374" lon="-1.40171">
        <ele>144</ele>
        <time>2021-02-28T10:11:24.526000+00:00</time>
      </trkpt>
      <trkpt lat="0" lon="0">
        <time>2021-02-28T10:11:24.534000+00:00</time>
      </trkpt>
      <trkpt lat="0" lon="0">
        <time>2021-02-28T10:11:24.540000+00:00</time>
      </trkpt>
      <trkpt lat="0" lon="0">
        <time>2021-02-28T10:11:24.543000+00:00</time>
      </trkpt>
      <trkpt lat="47.32374" lon="-1.40175">
        <ele>144</ele>
        <time>2021-02-28T10:11:25.561000+00:00</time>
      </trkpt>
      <trkpt lat="0" lon="0">
        <time>2021-02-28T10:11:25.575000+00:00</time>
      </trkpt>
      <trkpt lat="0" lon="0">
        <time>2021-02-28T10:11:25.584000+00:00</time>
      </trkpt>
      <trkpt lat="0" lon="0">
        <time>2021-02-28T10:11:25.588000+00:00</time>
      </trkpt>
      <trkpt lat="47.32373" lon="-1.4018">
        <ele>143</ele>
        <time>2021-02-28T10:11:26.519000+00:00</time>
      </trkpt>
      <trkpt lat="0" lon="0">
        <time>2021-02-28T10:11:26.521000+00:00</time>
      </trkpt>
      <trkpt lat="0" lon="0">
        <time>2021-02-28T10:11:26.523000+00:00</time>
      </trkpt>
      <trkpt lat="0" lon="0">
        <time>2021-02-28T10:11:26.524000+00:00</time>
      </trkpt>
      <trkpt lat="47.32373" lon="-1.40184">
        <ele>143</ele>
        <time>2021-02-28T10:11:27.564000+00:00</time>
      </trkpt>
      <trkpt lat="0" lon="0">
        <time>2021-02-28T10:11:27.573000+00:00</time>
      </trkpt>
      <trkpt lat="0" lon="0">
        <time>2021-02-28T10:11:27.579000+00:00</time>
      </trkpt>
      <trkpt lat="0" lon="0">
        <time>2021-02-28T10:11:27.583000+00:00</time>
      </trkpt>
      <trkpt lat="47.32372" lon="-1.40188">
        <ele>143</ele>
        <time>2021-02-28T10:11:28.553000+00:00</time>
      </trkpt>
      <trkpt lat="0" lon="0">
        <time>2021-02-28T10:11:28.561000+00:00</time>
      </trkpt>
      <trkpt lat="0" lon="0">
        <time>2021-02-28T10:11:28.566000+00:00</time>
      </trkpt>
      <trkpt lat="0" lon="0">
        <time>2021-02-28T10:11:28.569000+00:00</time>
      </trkpt>
      <trkpt lat="47.32372" lon="-1.40192">
        <ele>143</ele>
        <time>2021-02-28T10:11:29.532000+00:00</time>
      </trkpt>
      <trkpt lat="0" lon="0">
        <time>2021-02-28T10:11:29.538000+00:00</time>
      </trkpt>
      <trkpt lat="0" lon="0">
        <time>2021-02-28T10:11:29.544000+00:00</time>
      </trkpt>
      <trkpt lat="0" lon="0">
        <time>2021-02-28T10:11:29.547000+00:00</time>
      </trkpt>
      <trkpt lat="47.32371" lon="-1.40197">
        <ele>142</ele>
        <time>2021-02-28T10:11:30.519000+00:00</time>
      </trkpt>
      <trkpt lat="0" lon="0">
        <time>2021-02-28T10:11:30.529000+00:00</time>
      </trkpt>
      <trkpt lat="0" lon="0">
        <time>2021-02-28T10:11:30.536000+00:00</time>
      </trkpt>
      <trkpt lat="0" lon="0">
        <time>2021-02-28T10:11:30.538000+00:00</time>
      </trkpt>
      <trkpt lat="47.3237" lon="-1.402">
        <ele>141</ele>
        <time>2021-02-28T10:11:31.529000+00:00</time>
      </trkpt>
      <trkpt lat="0" lon="0">
        <time>2021-02-28T10:11:31.537000+00:00</time>
      </trkpt>
      <trkpt lat="0" lon="0">
        <time>2021-02-28T10:11:31.542000+00:00</time>
      </trkpt>
      <trkpt lat="0" lon="0">
        <time>2021-02-28T10:11:31.545000+00:00</time>
      </trkpt>
      <trkpt lat="47.32369" lon="-1.40204">
        <ele>141</ele>
        <time>2021-02-28T10:11:32.511000+00:00</time>
      </trkpt>
      <trkpt lat="0" lon="0">
        <time>2021-02-28T10:11:32.522000+00:00</time>
      </trkpt>
      <trkpt lat="0" lon="0">
        <time>2021-02-28T10:11:32.530000+00:00</time>
      </trkpt>
      <trkpt lat="0" lon="0">
        <time>2021-02-28T10:11:32.532000+00:00</time>
      </trkpt>
      <trkpt lat="47.32368" lon="-1.40207">
        <ele>140</ele>
        <time>2021-02-28T10:11:33.501000+00:00</time>
      </trkpt>
      <trkpt lat="0" lon="0">
        <time>2021-02-28T10:11:33.511000+00:00</time>
      </trkpt>
      <trkpt lat="0" lon="0">
        <time>2021-02-28T10:11:33.516000+00:00</time>
      </trkpt>
      <trkpt lat="0" lon="0">
        <time>2021-02-28T10:11:33.518000+00:00</time>
      </trkpt>
      <trkpt lat="47.32367" lon="-1.4021">
        <ele>138</ele>
        <time>2021-02-28T10:11:34.584000+00:00</time>
      </trkpt>
      <trkpt lat="0" lon="0">
        <time>2021-02-28T10:11:34.595000+00:00</time>
      </trkpt>
      <trkpt lat="0" lon="0">
        <time>2021-02-28T10:11:34.600000+00:00</time>
      </trkpt>
      <trkpt lat="0" lon="0">
        <time>2021-02-28T10:11:34.603000+00:00</time>
      </trkpt>
      <trkpt lat="47.32366" lon="-1.40213">
        <ele>138</ele>
        <time>2021-02-28T10:11:35.547000+00:00</time>
      </trkpt>
      <trkpt lat="0" lon="0">
        <time>2021-02-28T10:11:35.558000+00:00</time>
      </trkpt>
      <trkpt lat="0" lon="0">
        <time>2021-02-28T10:11:35.566000+00:00</time>
      </trkpt>
      <trkpt lat="0" lon="0">
        <time>2021-02-28T10:11:35.568000+00:00</time>
      </trkpt>
      <trkpt lat="47.32365" lon="-1.40216">
        <ele>136</ele>
        <time>2021-02-28T10:11:36.532000+00:00</time>
      </trkpt>
      <trkpt lat="0" lon="0">
        <time>2021-02-28T10:11:36.537000+00:00</time>
      </trkpt>
      <trkpt lat="0" lon="0">
        <time>2021-02-28T10:11:36.543000+00:00</time>
      </trkpt>
      <trkpt lat="0" lon="0">
        <time>2021-02-28T10:11:36.547000+00:00</time>
      </trkpt>
      <trkpt lat="47.32363" lon="-1.40218">
        <ele>134</ele>
        <time>2021-02-28T10:11:37.442000+00:00</time>
      </trkpt>
      <trkpt lat="0" lon="0">
        <time>2021-02-28T10:11:37.443000+00:00</time>
      </trkpt>
      <trkpt lat="0" lon="0">
        <time>2021-02-28T10:11:37.446000+00:00</time>
      </trkpt>
      <trkpt lat="0" lon="0">
        <time>2021-02-28T10:11:37.448000+00:00</time>
      </trkpt>
      <trkpt lat="47.32362" lon="-1.40221">
        <ele>131</ele>
        <time>2021-02-28T10:11:38.574000+00:00</time>
      </trkpt>
      <trkpt lat="0" lon="0">
        <time>2021-02-28T10:11:38.580000+00:00</time>
      </trkpt>
      <trkpt lat="0" lon="0">
        <time>2021-02-28T10:11:38.586000+00:00</time>
      </trkpt>
      <trkpt lat="0" lon="0">
        <time>2021-02-28T10:11:38.588000+00:00</time>
      </trkpt>
      <trkpt lat="47.3236" lon="-1.40223">
        <ele>130</ele>
        <time>2021-02-28T10:11:39.567000+00:00</time>
      </trkpt>
      <trkpt lat="0" lon="0">
        <time>2021-02-28T10:11:39.580000+00:00</time>
      </trkpt>
      <trkpt lat="0" lon="0">
        <time>2021-02-28T10:11:39.585000+00:00</time>
      </trkpt>
      <trkpt lat="0" lon="0">
        <time>2021-02-28T10:11:39.588000+00:00</time>
      </trkpt>
      <trkpt lat="47.32358" lon="-1.40224">
        <ele>128</ele>
        <time>2021-02-28T10:11:40.581000+00:00</time>
      </trkpt>
      <trkpt lat="0" lon="0">
        <time>2021-02-28T10:11:40.594000+00:00</time>
      </trkpt>
      <trkpt lat="0" lon="0">
        <time>2021-02-28T10:11:40.598000+00:00</time>
      </trkpt>
      <trkpt lat="0" lon="0">
        <time>2021-02-28T10:11:40.603000+00:00</time>
      </trkpt>
      <trkpt lat="47.32356" lon="-1.40225">
        <ele>128</ele>
        <time>2021-02-28T10:11:41.526000+00:00</time>
      </trkpt>
      <trkpt lat="0" lon="0">
        <time>2021-02-28T10:11:41.537000+00:00</time>
      </trkpt>
      <trkpt lat="0" lon="0">
        <time>2021-02-28T10:11:41.541000+00:00</time>
      </trkpt>
      <trkpt lat="0" lon="0">
        <time>2021-02-28T10:11:41.544000+00:00</time>
      </trkpt>
      <trkpt lat="47.32353" lon="-1.40226">
        <ele>127</ele>
        <time>2021-02-28T10:11:42.518000+00:00</time>
      </trkpt>
      <trkpt lat="0" lon="0">
        <time>2021-02-28T10:11:42.528000+00:00</time>
      </trkpt>
      <trkpt lat="0" lon="0">
        <time>2021-02-28T10:11:42.536000+00:00</time>
      </trkpt>
      <trkpt lat="0" lon="0">
        <time>2021-02-28T10:11:42.539000+00:00</time>
      </trkpt>
      <trkpt lat="47.32351" lon="-1.40226">
        <ele>126</ele>
        <time>2021-02-28T10:11:43.501000+00:00</time>
      </trkpt>
      <trkpt lat="0" lon="0">
        <time>2021-02-28T10:11:43.511000+00:00</time>
      </trkpt>
      <trkpt lat="0" lon="0">
        <time>2021-02-28T10:11:43.518000+00:00</time>
      </trkpt>
      <trkpt lat="47.32349" lon="-1.40226">
        <ele>126</ele>
        <time>2021-02-28T10:11:44.518000+00:00</time>
      </trkpt>
      <trkpt lat="0" lon="0">
        <time>2021-02-28T10:11:44.524000+00:00</time>
      </trkpt>
      <trkpt lat="0" lon="0">
        <time>2021-02-28T10:11:44.527000+00:00</time>
      </trkpt>
      <trkpt lat="0" lon="0">
        <time>2021-02-28T10:11:44.529000+00:00</time>
      </trkpt>
      <trkpt lat="47.32346" lon="-1.40226">
        <ele>125</ele>
        <time>2021-02-28T10:11:45.527000+00:00</time>
      </trkpt>
      <trkpt lat="0" lon="0">
        <time>2021-02-28T10:11:45.548000+00:00</time>
      </trkpt>
      <trkpt lat="0" lon="0">
        <time>2021-02-28T10:11:45.556000+00:00</time>
      </trkpt>
      <trkpt lat="0" lon="0">
        <time>2021-02-28T10:11:45.559000+00:00</time>
      </trkpt>
      <trkpt lat="47.32344" lon="-1.40226">
        <ele>124</ele>
        <time>2021-02-28T10:11:46.513000+00:00</time>
      </trkpt>
      <trkpt lat="0" lon="0">
        <time>2021-02-28T10:11:46.520000+00:00</time>
      </trkpt>
      <trkpt lat="0" lon="0">
        <time>2021-02-28T10:11:46.525000+00:00</time>
      </trkpt>
      <trkpt lat="0" lon="0">
        <time>2021-02-28T10:11:46.530000+00:00</time>
      </trkpt>
      <trkpt lat="47.32341" lon="-1.40226">
        <ele>124</ele>
        <time>2021-02-28T10:11:47.545000+00:00</time>
      </trkpt>
      <trkpt lat="0" lon="0">
        <time>2021-02-28T10:11:47.553000+00:00</time>
      </trkpt>
      <trkpt lat="0" lon="0">
        <time>2021-02-28T10:11:47.558000+00:00</time>
      </trkpt>
      <trkpt lat="0" lon="0">
        <time>2021-02-28T10:11:47.560000+00:00</time>
      </trkpt>
      <trkpt lat="47.32338" lon="-1.40225">
        <ele>123</ele>
        <time>2021-02-28T10:11:48.529000+00:00</time>
      </trkpt>
      <trkpt lat="0" lon="0">
        <time>2021-02-28T10:11:48.535000+00:00</time>
      </trkpt>
      <trkpt lat="0" lon="0">
        <time>2021-02-28T10:11:48.539000+00:00</time>
      </trkpt>
      <trkpt lat="0" lon="0">
        <time>2021-02-28T10:11:48.543000+00:00</time>
      </trkpt>
      <trkpt lat="47.32335" lon="-1.40224">
        <ele>123</ele>
        <time>2021-02-28T10:11:49.523000+00:00</time>
      </trkpt>
      <trkpt lat="0" lon="0">
        <time>2021-02-28T10:11:49.525000+00:00</time>
      </trkpt>
      <trkpt lat="0" lon="0">
        <time>2021-02-28T10:11:49.527000+00:00</time>
      </trkpt>
      <trkpt lat="0" lon="0">
        <time>2021-02-28T10:11:49.529000+00:00</time>
      </trkpt>
      <trkpt lat="47.32332" lon="-1.40223">
        <ele>123</ele>
        <time>2021-02-28T10:11:50.565000+00:00</time>
      </trkpt>
      <trkpt lat="0" lon="0">
        <time>2021-02-28T10:11:50.585000+00:00</time>
      </trkpt>
      <trkpt lat="0" lon="0">
        <time>2021-02-28T10:11:50.591000+00:00</time>
      </trkpt>
      <trkpt lat="0" lon="0">
        <time>2021-02-28T10:11:50.594000+00:00</time>
      </trkpt>
      <trkpt lat="47.32329" lon="-1.40222">
        <ele>123</ele>
        <time>2021-02-28T10:11:51.553000+00:00</time>
      </trkpt>
      <trkpt lat="0" lon="0">
        <time>2021-02-28T10:11:51.561000+00:00</time>
      </trkpt>
      <trkpt lat="0" lon="0">
        <time>2021-02-28T10:11:51.568000+00:00</time>
      </trkpt>
      <trkpt lat="0" lon="0">
        <time>2021-02-28T10:11:51.570000+00:00</time>
      </trkpt>
      <trkpt lat="47.32326" lon="-1.40221">
        <ele>123</ele>
        <time>2021-02-28T10:11:52.539000+00:00</time>
      </trkpt>
      <trkpt lat="0" lon="0">
        <time>2021-02-28T10:11:52.549000+00:00</time>
      </trkpt>
      <trkpt lat="0" lon="0">
        <time>2021-02-28T10:11:52.555000+00:00</time>
      </trkpt>
      <trkpt lat="0" lon="0">
        <time>2021-02-28T10:11:52.558000+00:00</time>
      </trkpt>
      <trkpt lat="47.32323" lon="-1.40219">
        <ele>123</ele>
        <time>2021-02-28T10:11:53.556000+00:00</time>
      </trkpt>
      <trkpt lat="0" lon="0">
        <time>2021-02-28T10:11:53.568000+00:00</time>
      </trkpt>
      <trkpt lat="0" lon="0">
        <time>2021-02-28T10:11:53.573000+00:00</time>
      </trkpt>
      <trkpt lat="0" lon="0">
        <time>2021-02-28T10:11:53.576000+00:00</time>
      </trkpt>
      <trkpt lat="47.3232" lon="-1.40218">
        <ele>123</ele>
        <time>2021-02-28T10:11:54.514000+00:00</time>
      </trkpt>
      <trkpt lat="0" lon="0">
        <time>2021-02-28T10:11:54.522000+00:00</time>
      </trkpt>
      <trkpt lat="0" lon="0">
        <time>2021-02-28T10:11:54.527000+00:00</time>
      </trkpt>
      <trkpt lat="0" lon="0">
        <time>2021-02-28T10:11:54.529000+00:00</time>
      </trkpt>
      <trkpt lat="47.32317" lon="-1.40217">
        <ele>123</ele>
        <time>2021-02-28T10:11:55.522000+00:00</time>
      </trkpt>
      <trkpt lat="0" lon="0">
        <time>2021-02-28T10:11:55.529000+00:00</time>
      </trkpt>
      <trkpt lat="0" lon="0">
        <time>2021-02-28T10:11:55.533000+00:00</time>
      </trkpt>
      <trkpt lat="0" lon="0">
        <time>2021-02-28T10:11:55.536000+00:00</time>
      </trkpt>
      <trkpt lat="47.32314" lon="-1.40215">
        <ele>123</ele>
        <time>2021-02-28T10:11:56.493000+00:00</time>
      </trkpt>
      <trkpt lat="0" lon="0">
        <time>2021-02-28T10:11:56.499000+00:00</time>
      </trkpt>
      <trkpt lat="0" lon="0">
        <time>2021-02-28T10:11:56.506000+00:00</time>
      </trkpt>
      <trkpt lat="0" lon="0">
        <time>2021-02-28T10:11:56.508000+00:00</time>
      </trkpt>
      <trkpt lat="47.32311" lon="-1.40214">
        <ele>123</ele>
        <time>2021-02-28T10:11:57.525000+00:00</time>
      </trkpt>
      <trkpt lat="0" lon="0">
        <time>2021-02-28T10:11:57.534000+00:00</time>
      </trkpt>
      <trkpt lat="0" lon="0">
        <time>2021-02-28T10:11:57.540000+00:00</time>
      </trkpt>
      <trkpt lat="0" lon="0">
        <time>2021-02-28T10:11:57.542000+00:00</time>
      </trkpt>
      <trkpt lat="47.32308" lon="-1.40212">
        <ele>123</ele>
        <time>2021-02-28T10:11:58.554000+00:00</time>
      </trkpt>
      <trkpt lat="0" lon="0">
        <time>2021-02-28T10:11:58.567000+00:00</time>
      </trkpt>
      <trkpt lat="0" lon="0">
        <time>2021-02-28T10:11:58.572000+00:00</time>
      </trkpt>
      <trkpt lat="0" lon="0">
        <time>2021-02-28T10:11:58.578000+00:00</time>
      </trkpt>
      <trkpt lat="47.32304" lon="-1.40211">
        <ele>123</ele>
        <time>2021-02-28T10:11:59.527000+00:00</time>
      </trkpt>
      <trkpt lat="0" lon="0">
        <time>2021-02-28T10:11:59.538000+00:00</time>
      </trkpt>
      <trkpt lat="0" lon="0">
        <time>2021-02-28T10:11:59.546000+00:00</time>
      </trkpt>
      <trkpt lat="0" lon="0">
        <time>2021-02-28T10:11:59.549000+00:00</time>
      </trkpt>
      <trkpt lat="47.32301" lon="-1.4021">
        <ele>122</ele>
        <time>2021-02-28T10:12:00.560000+00:00</time>
      </trkpt>
      <trkpt lat="0" lon="0">
        <time>2021-02-28T10:12:00.571000+00:00</time>
      </trkpt>
      <trkpt lat="0" lon="0">
        <time>2021-02-28T10:12:00.578000+00:00</time>
      </trkpt>
      <trkpt lat="0" lon="0">
        <time>2021-02-28T10:12:00.582000+00:00</time>
      </trkpt>
      <trkpt lat="47.32298" lon="-1.40208">
        <ele>122</ele>
        <time>2021-02-28T10:12:01.552000+00:00</time>
      </trkpt>
      <trkpt lat="0" lon="0">
        <time>2021-02-28T10:12:01.561000+00:00</time>
      </trkpt>
      <trkpt lat="0" lon="0">
        <time>2021-02-28T10:12:01.566000+00:00</time>
      </trkpt>
      <trkpt lat="0" lon="0">
        <time>2021-02-28T10:12:01.569000+00:00</time>
      </trkpt>
      <trkpt lat="47.32295" lon="-1.40206">
        <ele>123</ele>
        <time>2021-02-28T10:12:02.555000+00:00</time>
      </trkpt>
      <trkpt lat="0" lon="0">
        <time>2021-02-28T10:12:02.561000+00:00</time>
      </trkpt>
      <trkpt lat="0" lon="0">
        <time>2021-02-28T10:12:02.566000+00:00</time>
      </trkpt>
      <trkpt lat="0" lon="0">
        <time>2021-02-28T10:12:02.569000+00:00</time>
      </trkpt>
      <trkpt lat="47.32291" lon="-1.40205">
        <ele>123</ele>
        <time>2021-02-28T10:12:03.550000+00:00</time>
      </trkpt>
      <trkpt lat="0" lon="0">
        <time>2021-02-28T10:12:03.556000+00:00</time>
      </trkpt>
      <trkpt lat="0" lon="0">
        <time>2021-02-28T10:12:03.563000+00:00</time>
      </trkpt>
      <trkpt lat="0" lon="0">
        <time>2021-02-28T10:12:03.566000+00:00</time>
      </trkpt>
      <trkpt lat="47.32288" lon="-1.40203">
        <ele>123</ele>
        <time>2021-02-28T10:12:04.566000+00:00</time>
      </trkpt>
      <trkpt lat="0" lon="0">
        <time>2021-02-28T10:12:04.581000+00:00</time>
      </trkpt>
      <trkpt lat="0" lon="0">
        <time>2021-02-28T10:12:04.588000+00:00</time>
      </trkpt>
      <trkpt lat="0" lon="0">
        <time>2021-02-28T10:12:04.591000+00:00</time>
      </trkpt>
      <trkpt lat="47.32285" lon="-1.40202">
        <ele>122</ele>
        <time>2021-02-28T10:12:05.542000+00:00</time>
      </trkpt>
      <trkpt lat="0" lon="0">
        <time>2021-02-28T10:12:05.550000+00:00</time>
      </trkpt>
      <trkpt lat="0" lon="0">
        <time>2021-02-28T10:12:05.555000+00:00</time>
      </trkpt>
      <trkpt lat="0" lon="0">
        <time>2021-02-28T10:12:05.558000+00:00</time>
      </trkpt>
      <trkpt lat="47.32281" lon="-1.402">
        <ele>122</ele>
        <time>2021-02-28T10:12:06.499000+00:00</time>
      </trkpt>
      <trkpt lat="0" lon="0">
        <time>2021-02-28T10:12:06.513000+00:00</time>
      </trkpt>
      <trkpt lat="0" lon="0">
        <time>2021-02-28T10:12:06.517000+00:00</time>
      </trkpt>
      <trkpt lat="0" lon="0">
        <time>2021-02-28T10:12:06.520000+00:00</time>
      </trkpt>
      <trkpt lat="47.32278" lon="-1.40199">
        <ele>122</ele>
        <time>2021-02-28T10:12:07.499000+00:00</time>
      </trkpt>
      <trkpt lat="0" lon="0">
        <time>2021-02-28T10:12:07.508000+00:00</time>
      </trkpt>
      <trkpt lat="0" lon="0">
        <time>2021-02-28T10:12:07.513000+00:00</time>
      </trkpt>
      <trkpt lat="0" lon="0">
        <time>2021-02-28T10:12:07.515000+00:00</time>
      </trkpt>
      <trkpt lat="47.32275" lon="-1.40197">
        <ele>122</ele>
        <time>2021-02-28T10:12:08.535000+00:00</time>
      </trkpt>
      <trkpt lat="0" lon="0">
        <time>2021-02-28T10:12:08.557000+00:00</time>
      </trkpt>
      <trkpt lat="0" lon="0">
        <time>2021-02-28T10:12:08.561000+00:00</time>
      </trkpt>
      <trkpt lat="0" lon="0">
        <time>2021-02-28T10:12:08.564000+00:00</time>
      </trkpt>
      <trkpt lat="47.32271" lon="-1.40196">
        <ele>122</ele>
        <time>2021-02-28T10:12:09.542000+00:00</time>
      </trkpt>
      <trkpt lat="0" lon="0">
        <time>2021-02-28T10:12:09.552000+00:00</time>
      </trkpt>
      <trkpt lat="0" lon="0">
        <time>2021-02-28T10:12:09.561000+00:00</time>
      </trkpt>
      <trkpt lat="0" lon="0">
        <time>2021-02-28T10:12:09.564000+00:00</time>
      </trkpt>
      <trkpt lat="47.32267" lon="-1.40194">
        <ele>122</ele>
        <time>2021-02-28T10:12:10.550000+00:00</time>
      </trkpt>
      <trkpt lat="0" lon="0">
        <time>2021-02-28T10:12:10.555000+00:00</time>
      </trkpt>
      <trkpt lat="0" lon="0">
        <time>2021-02-28T10:12:10.562000+00:00</time>
      </trkpt>
      <trkpt lat="0" lon="0">
        <time>2021-02-28T10:12:10.564000+00:00</time>
      </trkpt>
      <trkpt lat="47.32264" lon="-1.40193">
        <ele>122</ele>
        <time>2021-02-28T10:12:11.498000+00:00</time>
      </trkpt>
      <trkpt lat="0" lon="0">
        <time>2021-02-28T10:12:11.513000+00:00</time>
      </trkpt>
      <trkpt lat="0" lon="0">
        <time>2021-02-28T10:12:11.522000+00:00</time>
      </trkpt>
      <trkpt lat="0" lon="0">
        <time>2021-02-28T10:12:11.523000+00:00</time>
      </trkpt>
      <trkpt lat="47.3226" lon="-1.40191">
        <ele>122</ele>
        <time>2021-02-28T10:12:12.464000+00:00</time>
      </trkpt>
      <trkpt lat="0" lon="0">
        <time>2021-02-28T10:12:12.467000+00:00</time>
      </trkpt>
      <trkpt lat="0" lon="0">
        <time>2021-02-28T10:12:12.472000+00:00</time>
      </trkpt>
      <trkpt lat="0" lon="0">
        <time>2021-02-28T10:12:12.476000+00:00</time>
      </trkpt>
      <trkpt lat="47.32255" lon="-1.40189">
        <ele>122</ele>
        <time>2021-02-28T10:12:13.528000+00:00</time>
      </trkpt>
      <trkpt lat="0" lon="0">
        <time>2021-02-28T10:12:13.537000+00:00</time>
      </trkpt>
      <trkpt lat="0" lon="0">
        <time>2021-02-28T10:12:13.545000+00:00</time>
      </trkpt>
      <trkpt lat="0" lon="0">
        <time>2021-02-28T10:12:13.547000+00:00</time>
      </trkpt>
      <trkpt lat="47.32251" lon="-1.40187">
        <ele>122</ele>
        <time>2021-02-28T10:12:14.522000+00:00</time>
      </trkpt>
      <trkpt lat="0" lon="0">
        <time>2021-02-28T10:12:14.531000+00:00</time>
      </trkpt>
      <trkpt lat="0" lon="0">
        <time>2021-02-28T10:12:14.535000+00:00</time>
      </trkpt>
      <trkpt lat="0" lon="0">
        <time>2021-02-28T10:12:14.541000+00:00</time>
      </trkpt>
      <trkpt lat="47.32247" lon="-1.40185">
        <ele>122</ele>
        <time>2021-02-28T10:12:15.533000+00:00</time>
      </trkpt>
      <trkpt lat="0" lon="0">
        <time>2021-02-28T10:12:15.537000+00:00</time>
      </trkpt>
      <trkpt lat="0" lon="0">
        <time>2021-02-28T10:12:15.541000+00:00</time>
      </trkpt>
      <trkpt lat="0" lon="0">
        <time>2021-02-28T10:12:15.543000+00:00</time>
      </trkpt>
      <trkpt lat="47.32242" lon="-1.40184">
        <ele>121</ele>
        <time>2021-02-28T10:12:16.530000+00:00</time>
      </trkpt>
      <trkpt lat="0" lon="0">
        <time>2021-02-28T10:12:16.537000+00:00</time>
      </trkpt>
      <trkpt lat="0" lon="0">
        <time>2021-02-28T10:12:16.542000+00:00</time>
      </trkpt>
      <trkpt lat="0" lon="0">
        <time>2021-02-28T10:12:16.545000+00:00</time>
      </trkpt>
      <trkpt lat="47.32237" lon="-1.40182">
        <ele>121</ele>
        <time>2021-02-28T10:12:17.516000+00:00</time>
      </trkpt>
      <trkpt lat="0" lon="0">
        <time>2021-02-28T10:12:17.532000+00:00</time>
      </trkpt>
      <trkpt lat="0" lon="0">
        <time>2021-02-28T10:12:17.541000+00:00</time>
      </trkpt>
      <trkpt lat="0" lon="0">
        <time>2021-02-28T10:12:17.546000+00:00</time>
      </trkpt>
      <trkpt lat="47.32232" lon="-1.40181">
        <ele>120</ele>
        <time>2021-02-28T10:12:18.543000+00:00</time>
      </trkpt>
      <trkpt lat="0" lon="0">
        <time>2021-02-28T10:12:18.553000+00:00</time>
      </trkpt>
      <trkpt lat="0" lon="0">
        <time>2021-02-28T10:12:18.557000+00:00</time>
      </trkpt>
      <trkpt lat="0" lon="0">
        <time>2021-02-28T10:12:18.559000+00:00</time>
      </trkpt>
      <trkpt lat="47.32226" lon="-1.4018">
        <ele>120</ele>
        <time>2021-02-28T10:12:19.536000+00:00</time>
      </trkpt>
      <trkpt lat="0" lon="0">
        <time>2021-02-28T10:12:19.542000+00:00</time>
      </trkpt>
      <trkpt lat="0" lon="0">
        <time>2021-02-28T10:12:19.549000+00:00</time>
      </trkpt>
      <trkpt lat="0" lon="0">
        <time>2021-02-28T10:12:19.551000+00:00</time>
      </trkpt>
      <trkpt lat="47.3222" lon="-1.40179">
        <ele>119</ele>
        <time>2021-02-28T10:12:20.550000+00:00</time>
      </trkpt>
      <trkpt lat="0" lon="0">
        <time>2021-02-28T10:12:20.564000+00:00</time>
      </trkpt>
      <trkpt lat="0" lon="0">
        <time>2021-02-28T10:12:20.571000+00:00</time>
      </trkpt>
      <trkpt lat="0" lon="0">
        <time>2021-02-28T10:12:20.575000+00:00</time>
      </trkpt>
      <trkpt lat="47.32214" lon="-1.40177">
        <ele>118</ele>
        <time>2021-02-28T10:12:21.502000+00:00</time>
      </trkpt>
      <trkpt lat="0" lon="0">
        <time>2021-02-28T10:12:21.511000+00:00</time>
      </trkpt>
      <trkpt lat="0" lon="0">
        <time>2021-02-28T10:12:21.515000+00:00</time>
      </trkpt>
      <trkpt lat="0" lon="0">
        <time>2021-02-28T10:12:21.518000+00:00</time>
      </trkpt>
      <trkpt lat="47.32208" lon="-1.40177">
        <ele>118</ele>
        <time>2021-02-28T10:12:22.485000+00:00</time>
      </trkpt>
      <trkpt lat="0" lon="0">
        <time>2021-02-28T10:12:22.490000+00:00</time>
      </trkpt>
      <trkpt lat="0" lon="0">
        <time>2021-02-28T10:12:22.501000+00:00</time>
      </trkpt>
      <trkpt lat="0" lon="0">
        <time>2021-02-28T10:12:22.503000+00:00</time>
      </trkpt>
      <trkpt lat="47.32202" lon="-1.40176">
        <ele>117</ele>
        <time>2021-02-28T10:12:23.527000+00:00</time>
      </trkpt>
      <trkpt lat="0" lon="0">
        <time>2021-02-28T10:12:23.532000+00:00</time>
      </trkpt>
      <trkpt lat="0" lon="0">
        <time>2021-02-28T10:12:23.537000+00:00</time>
      </trkpt>
      <trkpt lat="0" lon="0">
        <time>2021-02-28T10:12:23.539000+00:00</time>
      </trkpt>
      <trkpt lat="47.32196" lon="-1.40175">
        <ele>117</ele>
        <time>2021-02-28T10:12:24.529000+00:00</time>
      </trkpt>
      <trkpt lat="0" lon="0">
        <time>2021-02-28T10:12:24.537000+00:00</time>
      </trkpt>
      <trkpt lat="0" lon="0">
        <time>2021-02-28T10:12:24.543000+00:00</time>
      </trkpt>
      <trkpt lat="0" lon="0">
        <time>2021-02-28T10:12:24.545000+00:00</time>
      </trkpt>
      <trkpt lat="47.32189" lon="-1.40175">
        <ele>117</ele>
        <time>2021-02-28T10:12:25.572000+00:00</time>
      </trkpt>
      <trkpt lat="0" lon="0">
        <time>2021-02-28T10:12:25.578000+00:00</time>
      </trkpt>
      <trkpt lat="0" lon="0">
        <time>2021-02-28T10:12:25.586000+00:00</time>
      </trkpt>
      <trkpt lat="0" lon="0">
        <time>2021-02-28T10:12:25.589000+00:00</time>
      </trkpt>
      <trkpt lat="47.32182" lon="-1.40174">
        <ele>117</ele>
        <time>2021-02-28T10:12:26.569000+00:00</time>
      </trkpt>
      <trkpt lat="0" lon="0">
        <time>2021-02-28T10:12:26.576000+00:00</time>
      </trkpt>
      <trkpt lat="0" lon="0">
        <time>2021-02-28T10:12:26.581000+00:00</time>
      </trkpt>
      <trkpt lat="0" lon="0">
        <time>2021-02-28T10:12:26.584000+00:00</time>
      </trkpt>
      <trkpt lat="47.32175" lon="-1.40174">
        <ele>117</ele>
        <time>2021-02-28T10:12:27.509000+00:00</time>
      </trkpt>
      <trkpt lat="0" lon="0">
        <time>2021-02-28T10:12:27.514000+00:00</time>
      </trkpt>
      <trkpt lat="0" lon="0">
        <time>2021-02-28T10:12:27.518000+00:00</time>
      </trkpt>
      <trkpt lat="0" lon="0">
        <time>2021-02-28T10:12:27.520000+00:00</time>
      </trkpt>
      <trkpt lat="47.32168" lon="-1.40173">
        <ele>117</ele>
        <time>2021-02-28T10:12:28.554000+00:00</time>
      </trkpt>
      <trkpt lat="0" lon="0">
        <time>2021-02-28T10:12:28.560000+00:00</time>
      </trkpt>
      <trkpt lat="0" lon="0">
        <time>2021-02-28T10:12:28.571000+00:00</time>
      </trkpt>
      <trkpt lat="0" lon="0">
        <time>2021-02-28T10:12:28.574000+00:00</time>
      </trkpt>
      <trkpt lat="47.32161" lon="-1.40172">
        <ele>116</ele>
        <time>2021-02-28T10:12:29.543000+00:00</time>
      </trkpt>
      <trkpt lat="0" lon="0">
        <time>2021-02-28T10:12:29.551000+00:00</time>
      </trkpt>
      <trkpt lat="0" lon="0">
        <time>2021-02-28T10:12:29.557000+00:00</time>
      </trkpt>
      <trkpt lat="0" lon="0">
        <time>2021-02-28T10:12:29.560000+00:00</time>
      </trkpt>
      <trkpt lat="47.32154" lon="-1.40171">
        <ele>116</ele>
        <time>2021-02-28T10:12:30.461000+00:00</time>
      </trkpt>
      <trkpt lat="0" lon="0">
        <time>2021-02-28T10:12:30.464000+00:00</time>
      </trkpt>
      <trkpt lat="0" lon="0">
        <time>2021-02-28T10:12:30.472000+00:00</time>
      </trkpt>
      <trkpt lat="0" lon="0">
        <time>2021-02-28T10:12:30.474000+00:00</time>
      </trkpt>
      <trkpt lat="47.32147" lon="-1.4017">
        <ele>115</ele>
        <time>2021-02-28T10:12:31.452000+00:00</time>
      </trkpt>
      <trkpt lat="0" lon="0">
        <time>2021-02-28T10:12:31.458000+00:00</time>
      </trkpt>
      <trkpt lat="0" lon="0">
        <time>2021-02-28T10:12:31.464000+00:00</time>
      </trkpt>
      <trkpt lat="0" lon="0">
        <time>2021-02-28T10:12:31.467000+00:00</time>
      </trkpt>
      <trkpt lat="47.3214" lon="-1.40169">
        <ele>116</ele>
        <time>2021-02-28T10:12:32.534000+00:00</time>
      </trkpt>
      <trkpt lat="0" lon="0">
        <time>2021-02-28T10:12:32.538000+00:00</time>
      </trkpt>
      <trkpt lat="0" lon="0">
        <time>2021-02-28T10:12:32.542000+00:00</time>
      </trkpt>
      <trkpt lat="0" lon="0">
        <time>2021-02-28T10:12:32.545000+00:00</time>
      </trkpt>
      <trkpt lat="47.32132" lon="-1.40168">
        <ele>116</ele>
        <time>2021-02-28T10:12:33.539000+00:00</time>
      </trkpt>
      <trkpt lat="0" lon="0">
        <time>2021-02-28T10:12:33.550000+00:00</time>
      </trkpt>
      <trkpt lat="0" lon="0">
        <time>2021-02-28T10:12:33.556000+00:00</time>
      </trkpt>
      <trkpt lat="0" lon="0">
        <time>2021-02-28T10:12:33.559000+00:00</time>
      </trkpt>
      <trkpt lat="47.32125" lon="-1.40167">
        <ele>116</ele>
        <time>2021-02-28T10:12:34.533000+00:00</time>
      </trkpt>
      <trkpt lat="0" lon="0">
        <time>2021-02-28T10:12:34.541000+00:00</time>
      </trkpt>
      <trkpt lat="0" lon="0">
        <time>2021-02-28T10:12:34.546000+00:00</time>
      </trkpt>
      <trkpt lat="0" lon="0">
        <time>2021-02-28T10:12:34.548000+00:00</time>
      </trkpt>
      <trkpt lat="47.32118" lon="-1.40167">
        <ele>116</ele>
        <time>2021-02-28T10:12:35.558000+00:00</time>
      </trkpt>
      <trkpt lat="0" lon="0">
        <time>2021-02-28T10:12:35.564000+00:00</time>
      </trkpt>
      <trkpt lat="0" lon="0">
        <time>2021-02-28T10:12:35.574000+00:00</time>
      </trkpt>
      <trkpt lat="0" lon="0">
        <time>2021-02-28T10:12:35.575000+00:00</time>
      </trkpt>
      <trkpt lat="47.3211" lon="-1.40166">
        <ele>116</ele>
        <time>2021-02-28T10:12:36.511000+00:00</time>
      </trkpt>
      <trkpt lat="0" lon="0">
        <time>2021-02-28T10:12:36.516000+00:00</time>
      </trkpt>
      <trkpt lat="0" lon="0">
        <time>2021-02-28T10:12:36.521000+00:00</time>
      </trkpt>
      <trkpt lat="0" lon="0">
        <time>2021-02-28T10:12:36.524000+00:00</time>
      </trkpt>
      <trkpt lat="47.32103" lon="-1.40165">
        <ele>115</ele>
        <time>2021-02-28T10:12:37.542000+00:00</time>
      </trkpt>
      <trkpt lat="0" lon="0">
        <time>2021-02-28T10:12:37.545000+00:00</time>
      </trkpt>
      <trkpt lat="0" lon="0">
        <time>2021-02-28T10:12:37.549000+00:00</time>
      </trkpt>
      <trkpt lat="0" lon="0">
        <time>2021-02-28T10:12:37.552000+00:00</time>
      </trkpt>
      <trkpt lat="47.32096" lon="-1.40164">
        <ele>116</ele>
        <time>2021-02-28T10:12:38.588000+00:00</time>
      </trkpt>
      <trkpt lat="0" lon="0">
        <time>2021-02-28T10:12:38.594000+00:00</time>
      </trkpt>
      <trkpt lat="0" lon="0">
        <time>2021-02-28T10:12:38.600000+00:00</time>
      </trkpt>
      <trkpt lat="0" lon="0">
        <time>2021-02-28T10:12:38.602000+00:00</time>
      </trkpt>
      <trkpt lat="47.32089" lon="-1.40164">
        <ele>115</ele>
        <time>2021-02-28T10:12:39.532000+00:00</time>
      </trkpt>
      <trkpt lat="0" lon="0">
        <time>2021-02-28T10:12:39.545000+00:00</time>
      </trkpt>
      <trkpt lat="0" lon="0">
        <time>2021-02-28T10:12:39.551000+00:00</time>
      </trkpt>
      <trkpt lat="0" lon="0">
        <time>2021-02-28T10:12:39.553000+00:00</time>
      </trkpt>
      <trkpt lat="47.32082" lon="-1.40164">
        <ele>115</ele>
        <time>2021-02-28T10:12:40.539000+00:00</time>
      </trkpt>
      <trkpt lat="0" lon="0">
        <time>2021-02-28T10:12:40.541000+00:00</time>
      </trkpt>
      <trkpt lat="0" lon="0">
        <time>2021-02-28T10:12:40.543000+00:00</time>
      </trkpt>
      <trkpt lat="0" lon="0">
        <time>2021-02-28T10:12:40.548000+00:00</time>
      </trkpt>
      <trkpt lat="47.32076" lon="-1.40164">
        <ele>115</ele>
        <time>2021-02-28T10:12:41.531000+00:00</time>
      </trkpt>
      <trkpt lat="0" lon="0">
        <time>2021-02-28T10:12:41.540000+00:00</time>
      </trkpt>
      <trkpt lat="0" lon="0">
        <time>2021-02-28T10:12:41.545000+00:00</time>
      </trkpt>
      <trkpt lat="0" lon="0">
        <time>2021-02-28T10:12:41.549000+00:00</time>
      </trkpt>
      <trkpt lat="47.32069" lon="-1.40163">
        <ele>115</ele>
        <time>2021-02-28T10:12:42.523000+00:00</time>
      </trkpt>
      <trkpt lat="0" lon="0">
        <time>2021-02-28T10:12:42.527000+00:00</time>
      </trkpt>
      <trkpt lat="0" lon="0">
        <time>2021-02-28T10:12:42.531000+00:00</time>
      </trkpt>
      <trkpt lat="0" lon="0">
        <time>2021-02-28T10:12:42.537000+00:00</time>
      </trkpt>
      <trkpt lat="47.32063" lon="-1.40163">
        <ele>115</ele>
        <time>2021-02-28T10:12:43.538000+00:00</time>
      </trkpt>
      <trkpt lat="0" lon="0">
        <time>2021-02-28T10:12:43.545000+00:00</time>
      </trkpt>
      <trkpt lat="0" lon="0">
        <time>2021-02-28T10:12:43.551000+00:00</time>
      </trkpt>
      <trkpt lat="0" lon="0">
        <time>2021-02-28T10:12:43.554000+00:00</time>
      </trkpt>
      <trkpt lat="47.32057" lon="-1.40163">
        <ele>115</ele>
        <time>2021-02-28T10:12:44.523000+00:00</time>
      </trkpt>
      <trkpt lat="0" lon="0">
        <time>2021-02-28T10:12:44.534000+00:00</time>
      </trkpt>
      <trkpt lat="0" lon="0">
        <time>2021-02-28T10:12:44.539000+00:00</time>
      </trkpt>
      <trkpt lat="0" lon="0">
        <time>2021-02-28T10:12:44.542000+00:00</time>
      </trkpt>
      <trkpt lat="47.32051" lon="-1.40162">
        <ele>115</ele>
        <time>2021-02-28T10:12:45.546000+00:00</time>
      </trkpt>
      <trkpt lat="0" lon="0">
        <time>2021-02-28T10:12:45.555000+00:00</time>
      </trkpt>
      <trkpt lat="0" lon="0">
        <time>2021-02-28T10:12:45.561000+00:00</time>
      </trkpt>
      <trkpt lat="0" lon="0">
        <time>2021-02-28T10:12:45.564000+00:00</time>
      </trkpt>
      <trkpt lat="47.32045" lon="-1.40162">
        <ele>115</ele>
        <time>2021-02-28T10:12:46.538000+00:00</time>
      </trkpt>
      <trkpt lat="0" lon="0">
        <time>2021-02-28T10:12:46.541000+00:00</time>
      </trkpt>
      <trkpt lat="0" lon="0">
        <time>2021-02-28T10:12:46.543000+00:00</time>
      </trkpt>
      <trkpt lat="0" lon="0">
        <time>2021-02-28T10:12:46.544000+00:00</time>
      </trkpt>
      <trkpt lat="47.32039" lon="-1.40161">
        <ele>115</ele>
        <time>2021-02-28T10:12:47.537000+00:00</time>
      </trkpt>
      <trkpt lat="0" lon="0">
        <time>2021-02-28T10:12:47.539000+00:00</time>
      </trkpt>
      <trkpt lat="0" lon="0">
        <time>2021-02-28T10:12:47.541000+00:00</time>
      </trkpt>
      <trkpt lat="0" lon="0">
        <time>2021-02-28T10:12:47.542000+00:00</time>
      </trkpt>
      <trkpt lat="47.32033" lon="-1.4016">
        <ele>115</ele>
        <time>2021-02-28T10:12:48.558000+00:00</time>
      </trkpt>
      <trkpt lat="0" lon="0">
        <time>2021-02-28T10:12:48.563000+00:00</time>
      </trkpt>
      <trkpt lat="0" lon="0">
        <time>2021-02-28T10:12:48.567000+00:00</time>
      </trkpt>
      <trkpt lat="0" lon="0">
        <time>2021-02-28T10:12:48.570000+00:00</time>
      </trkpt>
      <trkpt lat="47.32027" lon="-1.40159">
        <ele>115</ele>
        <time>2021-02-28T10:12:49.601000+00:00</time>
      </trkpt>
      <trkpt lat="0" lon="0">
        <time>2021-02-28T10:12:49.633000+00:00</time>
      </trkpt>
      <trkpt lat="0" lon="0">
        <time>2021-02-28T10:12:49.635000+00:00</time>
      </trkpt>
      <trkpt lat="0" lon="0">
        <time>2021-02-28T10:12:49.636000+00:00</time>
      </trkpt>
      <trkpt lat="47.32022" lon="-1.40158">
        <ele>115</ele>
        <time>2021-02-28T10:12:50.431000+00:00</time>
      </trkpt>
      <trkpt lat="0" lon="0">
        <time>2021-02-28T10:12:50.434000+00:00</time>
      </trkpt>
      <trkpt lat="0" lon="0">
        <time>2021-02-28T10:12:50.436000+00:00</time>
      </trkpt>
      <trkpt lat="0" lon="0">
        <time>2021-02-28T10:12:50.437000+00:00</time>
      </trkpt>
      <trkpt lat="47.32016" lon="-1.40157">
        <ele>115</ele>
        <time>2021-02-28T10:12:51.489000+00:00</time>
      </trkpt>
      <trkpt lat="0" lon="0">
        <time>2021-02-28T10:12:51.498000+00:00</time>
      </trkpt>
      <trkpt lat="0" lon="0">
        <time>2021-02-28T10:12:51.506000+00:00</time>
      </trkpt>
      <trkpt lat="0" lon="0">
        <time>2021-02-28T10:12:51.508000+00:00</time>
      </trkpt>
      <trkpt lat="47.3201" lon="-1.40155">
        <ele>115</ele>
        <time>2021-02-28T10:12:52.441000+00:00</time>
      </trkpt>
      <trkpt lat="0" lon="0">
        <time>2021-02-28T10:12:52.450000+00:00</time>
      </trkpt>
      <trkpt lat="0" lon="0">
        <time>2021-02-28T10:12:52.454000+00:00</time>
      </trkpt>
      <trkpt lat="0" lon="0">
        <time>2021-02-28T10:12:52.456000+00:00</time>
      </trkpt>
      <trkpt lat="47.32005" lon="-1.40153">
        <ele>116</ele>
        <time>2021-02-28T10:12:53.442000+00:00</time>
      </trkpt>
      <trkpt lat="0" lon="0">
        <time>2021-02-28T10:12:53.448000+00:00</time>
      </trkpt>
      <trkpt lat="0" lon="0">
        <time>2021-02-28T10:12:53.452000+00:00</time>
      </trkpt>
      <trkpt lat="0" lon="0">
        <time>2021-02-28T10:12:53.455000+00:00</time>
      </trkpt>
      <trkpt lat="47.32" lon="-1.40151">
        <ele>116</ele>
        <time>2021-02-28T10:12:54.468000+00:00</time>
      </trkpt>
      <trkpt lat="0" lon="0">
        <time>2021-02-28T10:12:54.472000+00:00</time>
      </trkpt>
      <trkpt lat="0" lon="0">
        <time>2021-02-28T10:12:54.479000+00:00</time>
      </trkpt>
      <trkpt lat="0" lon="0">
        <time>2021-02-28T10:12:54.482000+00:00</time>
      </trkpt>
      <trkpt lat="47.31995" lon="-1.40149">
        <ele>116</ele>
        <time>2021-02-28T10:12:55.490000+00:00</time>
      </trkpt>
      <trkpt lat="0" lon="0">
        <time>2021-02-28T10:12:55.497000+00:00</time>
      </trkpt>
      <trkpt lat="0" lon="0">
        <time>2021-02-28T10:12:55.501000+00:00</time>
      </trkpt>
      <trkpt lat="0" lon="0">
        <time>2021-02-28T10:12:55.503000+00:00</time>
      </trkpt>
      <trkpt lat="47.3199" lon="-1.40147">
        <ele>116</ele>
        <time>2021-02-28T10:12:56.473000+00:00</time>
      </trkpt>
      <trkpt lat="0" lon="0">
        <time>2021-02-28T10:12:56.483000+00:00</time>
      </trkpt>
      <trkpt lat="0" lon="0">
        <time>2021-02-28T10:12:56.488000+00:00</time>
      </trkpt>
      <trkpt lat="0" lon="0">
        <time>2021-02-28T10:12:56.491000+00:00</time>
      </trkpt>
      <trkpt lat="47.31985" lon="-1.40144">
        <ele>116</ele>
        <time>2021-02-28T10:12:57.506000+00:00</time>
      </trkpt>
      <trkpt lat="0" lon="0">
        <time>2021-02-28T10:12:57.513000+00:00</time>
      </trkpt>
      <trkpt lat="0" lon="0">
        <time>2021-02-28T10:12:57.517000+00:00</time>
      </trkpt>
      <trkpt lat="0" lon="0">
        <time>2021-02-28T10:12:57.520000+00:00</time>
      </trkpt>
      <trkpt lat="47.3198" lon="-1.40142">
        <ele>116</ele>
        <time>2021-02-28T10:12:58.502000+00:00</time>
      </trkpt>
      <trkpt lat="0" lon="0">
        <time>2021-02-28T10:12:58.517000+00:00</time>
      </trkpt>
      <trkpt lat="0" lon="0">
        <time>2021-02-28T10:12:58.522000+00:00</time>
      </trkpt>
      <trkpt lat="0" lon="0">
        <time>2021-02-28T10:12:58.524000+00:00</time>
      </trkpt>
      <trkpt lat="47.31975" lon="-1.4014">
        <ele>116</ele>
        <time>2021-02-28T10:12:59.522000+00:00</time>
      </trkpt>
      <trkpt lat="0" lon="0">
        <time>2021-02-28T10:12:59.532000+00:00</time>
      </trkpt>
      <trkpt lat="0" lon="0">
        <time>2021-02-28T10:12:59.540000+00:00</time>
      </trkpt>
      <trkpt lat="0" lon="0">
        <time>2021-02-28T10:12:59.543000+00:00</time>
      </trkpt>
      <trkpt lat="47.3197" lon="-1.40139">
        <ele>115</ele>
        <time>2021-02-28T10:13:00.484000+00:00</time>
      </trkpt>
      <trkpt lat="0" lon="0">
        <time>2021-02-28T10:13:00.492000+00:00</time>
      </trkpt>
      <trkpt lat="0" lon="0">
        <time>2021-02-28T10:13:00.497000+00:00</time>
      </trkpt>
      <trkpt lat="0" lon="0">
        <time>2021-02-28T10:13:00.500000+00:00</time>
      </trkpt>
      <trkpt lat="47.31965" lon="-1.40138">
        <ele>115</ele>
        <time>2021-02-28T10:13:01.569000+00:00</time>
      </trkpt>
      <trkpt lat="0" lon="0">
        <time>2021-02-28T10:13:01.575000+00:00</time>
      </trkpt>
      <trkpt lat="0" lon="0">
        <time>2021-02-28T10:13:01.581000+00:00</time>
      </trkpt>
      <trkpt lat="0" lon="0">
        <time>2021-02-28T10:13:01.584000+00:00</time>
      </trkpt>
      <trkpt lat="47.31961" lon="-1.40137">
        <ele>114</ele>
        <time>2021-02-28T10:13:02.499000+00:00</time>
      </trkpt>
      <trkpt lat="0" lon="0">
        <time>2021-02-28T10:13:02.507000+00:00</time>
      </trkpt>
      <trkpt lat="0" lon="0">
        <time>2021-02-28T10:13:02.513000+00:00</time>
      </trkpt>
      <trkpt lat="0" lon="0">
        <time>2021-02-28T10:13:02.515000+00:00</time>
      </trkpt>
      <trkpt lat="47.31956" lon="-1.40137">
        <ele>114</ele>
        <time>2021-02-28T10:13:03.509000+00:00</time>
      </trkpt>
      <trkpt lat="0" lon="0">
        <time>2021-02-28T10:13:03.518000+00:00</time>
      </trkpt>
      <trkpt lat="0" lon="0">
        <time>2021-02-28T10:13:03.522000+00:00</time>
      </trkpt>
      <trkpt lat="0" lon="0">
        <time>2021-02-28T10:13:03.528000+00:00</time>
      </trkpt>
      <trkpt lat="47.31951" lon="-1.40137">
        <ele>114</ele>
        <time>2021-02-28T10:13:04.429000+00:00</time>
      </trkpt>
      <trkpt lat="0" lon="0">
        <time>2021-02-28T10:13:04.437000+00:00</time>
      </trkpt>
      <trkpt lat="0" lon="0">
        <time>2021-02-28T10:13:04.442000+00:00</time>
      </trkpt>
      <trkpt lat="0" lon="0">
        <time>2021-02-28T10:13:04.444000+00:00</time>
      </trkpt>
      <trkpt lat="47.31946" lon="-1.40138">
        <ele>114</ele>
        <time>2021-02-28T10:13:05.529000+00:00</time>
      </trkpt>
      <trkpt lat="0" lon="0">
        <time>2021-02-28T10:13:05.536000+00:00</time>
      </trkpt>
      <trkpt lat="0" lon="0">
        <time>2021-02-28T10:13:05.541000+00:00</time>
      </trkpt>
      <trkpt lat="0" lon="0">
        <time>2021-02-28T10:13:05.543000+00:00</time>
      </trkpt>
      <trkpt lat="47.31941" lon="-1.40138">
        <ele>114</ele>
        <time>2021-02-28T10:13:06.507000+00:00</time>
      </trkpt>
      <trkpt lat="0" lon="0">
        <time>2021-02-28T10:13:06.516000+00:00</time>
      </trkpt>
      <trkpt lat="0" lon="0">
        <time>2021-02-28T10:13:06.521000+00:00</time>
      </trkpt>
      <trkpt lat="0" lon="0">
        <time>2021-02-28T10:13:06.523000+00:00</time>
      </trkpt>
      <trkpt lat="47.31936" lon="-1.40139">
        <ele>114</ele>
        <time>2021-02-28T10:13:07.523000+00:00</time>
      </trkpt>
      <trkpt lat="0" lon="0">
        <time>2021-02-28T10:13:07.526000+00:00</time>
      </trkpt>
      <trkpt lat="0" lon="0">
        <time>2021-02-28T10:13:07.531000+00:00</time>
      </trkpt>
      <trkpt lat="0" lon="0">
        <time>2021-02-28T10:13:07.534000+00:00</time>
      </trkpt>
      <trkpt lat="47.31931" lon="-1.40141">
        <ele>114</ele>
        <time>2021-02-28T10:13:08.537000+00:00</time>
      </trkpt>
      <trkpt lat="0" lon="0">
        <time>2021-02-28T10:13:08.539000+00:00</time>
      </trkpt>
      <trkpt lat="0" lon="0">
        <time>2021-02-28T10:13:08.540000+00:00</time>
      </trkpt>
      <trkpt lat="0" lon="0">
        <time>2021-02-28T10:13:08.541000+00:00</time>
      </trkpt>
      <trkpt lat="47.31926" lon="-1.40142">
        <ele>114</ele>
        <time>2021-02-28T10:13:09.541000+00:00</time>
      </trkpt>
      <trkpt lat="0" lon="0">
        <time>2021-02-28T10:13:09.550000+00:00</time>
      </trkpt>
      <trkpt lat="0" lon="0">
        <time>2021-02-28T10:13:09.555000+00:00</time>
      </trkpt>
      <trkpt lat="0" lon="0">
        <time>2021-02-28T10:13:09.558000+00:00</time>
      </trkpt>
      <trkpt lat="47.31921" lon="-1.40144">
        <ele>114</ele>
        <time>2021-02-28T10:13:10.527000+00:00</time>
      </trkpt>
      <trkpt lat="0" lon="0">
        <time>2021-02-28T10:13:10.533000+00:00</time>
      </trkpt>
      <trkpt lat="0" lon="0">
        <time>2021-02-28T10:13:10.538000+00:00</time>
      </trkpt>
      <trkpt lat="0" lon="0">
        <time>2021-02-28T10:13:10.541000+00:00</time>
      </trkpt>
      <trkpt lat="47.31916" lon="-1.40146">
        <ele>113</ele>
        <time>2021-02-28T10:13:11.479000+00:00</time>
      </trkpt>
      <trkpt lat="0" lon="0">
        <time>2021-02-28T10:13:11.486000+00:00</time>
      </trkpt>
      <trkpt lat="0" lon="0">
        <time>2021-02-28T10:13:11.491000+00:00</time>
      </trkpt>
      <trkpt lat="0" lon="0">
        <time>2021-02-28T10:13:11.496000+00:00</time>
      </trkpt>
      <trkpt lat="47.31911" lon="-1.40148">
        <ele>113</ele>
        <time>2021-02-28T10:13:12.525000+00:00</time>
      </trkpt>
      <trkpt lat="0" lon="0">
        <time>2021-02-28T10:13:12.531000+00:00</time>
      </trkpt>
      <trkpt lat="0" lon="0">
        <time>2021-02-28T10:13:12.537000+00:00</time>
      </trkpt>
      <trkpt lat="0" lon="0">
        <time>2021-02-28T10:13:12.540000+00:00</time>
      </trkpt>
      <trkpt lat="47.31906" lon="-1.4015">
        <ele>113</ele>
        <time>2021-02-28T10:13:13.545000+00:00</time>
      </trkpt>
      <trkpt lat="0" lon="0">
        <time>2021-02-28T10:13:13.553000+00:00</time>
      </trkpt>
      <trkpt lat="0" lon="0">
        <time>2021-02-28T10:13:13.559000+00:00</time>
      </trkpt>
      <trkpt lat="0" lon="0">
        <time>2021-02-28T10:13:13.562000+00:00</time>
      </trkpt>
      <trkpt lat="47.31902" lon="-1.40151">
        <ele>113</ele>
        <time>2021-02-28T10:13:14.498000+00:00</time>
      </trkpt>
      <trkpt lat="0" lon="0">
        <time>2021-02-28T10:13:14.511000+00:00</time>
      </trkpt>
      <trkpt lat="0" lon="0">
        <time>2021-02-28T10:13:14.516000+00:00</time>
      </trkpt>
      <trkpt lat="0" lon="0">
        <time>2021-02-28T10:13:14.519000+00:00</time>
      </trkpt>
      <trkpt lat="47.31896" lon="-1.40153">
        <ele>113</ele>
        <time>2021-02-28T10:13:15.518000+00:00</time>
      </trkpt>
      <trkpt lat="0" lon="0">
        <time>2021-02-28T10:13:15.524000+00:00</time>
      </trkpt>
      <trkpt lat="0" lon="0">
        <time>2021-02-28T10:13:15.529000+00:00</time>
      </trkpt>
      <trkpt lat="0" lon="0">
        <time>2021-02-28T10:13:15.532000+00:00</time>
      </trkpt>
      <trkpt lat="47.31891" lon="-1.40155">
        <ele>113</ele>
        <time>2021-02-28T10:13:16.529000+00:00</time>
      </trkpt>
      <trkpt lat="0" lon="0">
        <time>2021-02-28T10:13:16.546000+00:00</time>
      </trkpt>
      <trkpt lat="0" lon="0">
        <time>2021-02-28T10:13:16.553000+00:00</time>
      </trkpt>
      <trkpt lat="0" lon="0">
        <time>2021-02-28T10:13:16.557000+00:00</time>
      </trkpt>
      <trkpt lat="47.31886" lon="-1.40156">
        <ele>113</ele>
        <time>2021-02-28T10:13:17.532000+00:00</time>
      </trkpt>
      <trkpt lat="0" lon="0">
        <time>2021-02-28T10:13:17.538000+00:00</time>
      </trkpt>
      <trkpt lat="0" lon="0">
        <time>2021-02-28T10:13:17.544000+00:00</time>
      </trkpt>
      <trkpt lat="0" lon="0">
        <time>2021-02-28T10:13:17.546000+00:00</time>
      </trkpt>
      <trkpt lat="47.31881" lon="-1.40158">
        <ele>113</ele>
        <time>2021-02-28T10:13:18.501000+00:00</time>
      </trkpt>
      <trkpt lat="0" lon="0">
        <time>2021-02-28T10:13:18.507000+00:00</time>
      </trkpt>
      <trkpt lat="0" lon="0">
        <time>2021-02-28T10:13:18.514000+00:00</time>
      </trkpt>
      <trkpt lat="0" lon="0">
        <time>2021-02-28T10:13:18.517000+00:00</time>
      </trkpt>
      <trkpt lat="47.31875" lon="-1.40159">
        <ele>113</ele>
        <time>2021-02-28T10:13:19.533000+00:00</time>
      </trkpt>
      <trkpt lat="0" lon="0">
        <time>2021-02-28T10:13:19.541000+00:00</time>
      </trkpt>
      <trkpt lat="0" lon="0">
        <time>2021-02-28T10:13:19.546000+00:00</time>
      </trkpt>
      <trkpt lat="0" lon="0">
        <time>2021-02-28T10:13:19.547000+00:00</time>
      </trkpt>
      <trkpt lat="47.31869" lon="-1.4016">
        <ele>113</ele>
        <time>2021-02-28T10:13:20.538000+00:00</time>
      </trkpt>
      <trkpt lat="0" lon="0">
        <time>2021-02-28T10:13:20.548000+00:00</time>
      </trkpt>
      <trkpt lat="0" lon="0">
        <time>2021-02-28T10:13:20.557000+00:00</time>
      </trkpt>
      <trkpt lat="0" lon="0">
        <time>2021-02-28T10:13:20.561000+00:00</time>
      </trkpt>
      <trkpt lat="47.31863" lon="-1.40161">
        <ele>113</ele>
        <time>2021-02-28T10:13:21.566000+00:00</time>
      </trkpt>
      <trkpt lat="0" lon="0">
        <time>2021-02-28T10:13:21.577000+00:00</time>
      </trkpt>
      <trkpt lat="0" lon="0">
        <time>2021-02-28T10:13:21.582000+00:00</time>
      </trkpt>
      <trkpt lat="0" lon="0">
        <time>2021-02-28T10:13:21.585000+00:00</time>
      </trkpt>
      <trkpt lat="47.31857" lon="-1.40162">
        <ele>113</ele>
        <time>2021-02-28T10:13:22.529000+00:00</time>
      </trkpt>
      <trkpt lat="0" lon="0">
        <time>2021-02-28T10:13:22.537000+00:00</time>
      </trkpt>
      <trkpt lat="0" lon="0">
        <time>2021-02-28T10:13:22.542000+00:00</time>
      </trkpt>
      <trkpt lat="0" lon="0">
        <time>2021-02-28T10:13:22.546000+00:00</time>
      </trkpt>
      <trkpt lat="47.3185" lon="-1.40163">
        <ele>113</ele>
        <time>2021-02-28T10:13:23.539000+00:00</time>
      </trkpt>
      <trkpt lat="0" lon="0">
        <time>2021-02-28T10:13:23.546000+00:00</time>
      </trkpt>
      <trkpt lat="0" lon="0">
        <time>2021-02-28T10:13:23.551000+00:00</time>
      </trkpt>
      <trkpt lat="0" lon="0">
        <time>2021-02-28T10:13:23.554000+00:00</time>
      </trkpt>
      <trkpt lat="47.31843" lon="-1.40164">
        <ele>112</ele>
        <time>2021-02-28T10:13:24.513000+00:00</time>
      </trkpt>
      <trkpt lat="0" lon="0">
        <time>2021-02-28T10:13:24.521000+00:00</time>
      </trkpt>
      <trkpt lat="0" lon="0">
        <time>2021-02-28T10:13:24.525000+00:00</time>
      </trkpt>
      <trkpt lat="0" lon="0">
        <time>2021-02-28T10:13:24.528000+00:00</time>
      </trkpt>
      <trkpt lat="47.31836" lon="-1.40165">
        <ele>112</ele>
        <time>2021-02-28T10:13:25.549000+00:00</time>
      </trkpt>
      <trkpt lat="0" lon="0">
        <time>2021-02-28T10:13:25.568000+00:00</time>
      </trkpt>
      <trkpt lat="0" lon="0">
        <time>2021-02-28T10:13:25.572000+00:00</time>
      </trkpt>
      <trkpt lat="0" lon="0">
        <time>2021-02-28T10:13:25.574000+00:00</time>
      </trkpt>
      <trkpt lat="47.31829" lon="-1.40166">
        <ele>112</ele>
        <time>2021-02-28T10:13:26.524000+00:00</time>
      </trkpt>
      <trkpt lat="0" lon="0">
        <time>2021-02-28T10:13:26.530000+00:00</time>
      </trkpt>
      <trkpt lat="0" lon="0">
        <time>2021-02-28T10:13:26.534000+00:00</time>
      </trkpt>
      <trkpt lat="0" lon="0">
        <time>2021-02-28T10:13:26.537000+00:00</time>
      </trkpt>
      <trkpt lat="47.31822" lon="-1.40168">
        <ele>112</ele>
        <time>2021-02-28T10:13:27.547000+00:00</time>
      </trkpt>
      <trkpt lat="0" lon="0">
        <time>2021-02-28T10:13:27.554000+00:00</time>
      </trkpt>
      <trkpt lat="0" lon="0">
        <time>2021-02-28T10:13:27.560000+00:00</time>
      </trkpt>
      <trkpt lat="0" lon="0">
        <time>2021-02-28T10:13:27.562000+00:00</time>
      </trkpt>
      <trkpt lat="47.31815" lon="-1.4017">
        <ele>112</ele>
        <time>2021-02-28T10:13:28.521000+00:00</time>
      </trkpt>
      <trkpt lat="0" lon="0">
        <time>2021-02-28T10:13:28.526000+00:00</time>
      </trkpt>
      <trkpt lat="0" lon="0">
        <time>2021-02-28T10:13:28.532000+00:00</time>
      </trkpt>
      <trkpt lat="0" lon="0">
        <time>2021-02-28T10:13:28.535000+00:00</time>
      </trkpt>
      <trkpt lat="47.31809" lon="-1.40173">
        <ele>112</ele>
        <time>2021-02-28T10:13:29.533000+00:00</time>
      </trkpt>
      <trkpt lat="0" lon="0">
        <time>2021-02-28T10:13:29.546000+00:00</time>
      </trkpt>
      <trkpt lat="0" lon="0">
        <time>2021-02-28T10:13:29.551000+00:00</time>
      </trkpt>
      <trkpt lat="0" lon="0">
        <time>2021-02-28T10:13:29.554000+00:00</time>
      </trkpt>
      <trkpt lat="47.31802" lon="-1.40176">
        <ele>112</ele>
        <time>2021-02-28T10:13:30.544000+00:00</time>
      </trkpt>
      <trkpt lat="0" lon="0">
        <time>2021-02-28T10:13:30.553000+00:00</time>
      </trkpt>
      <trkpt lat="0" lon="0">
        <time>2021-02-28T10:13:30.557000+00:00</time>
      </trkpt>
      <trkpt lat="0" lon="0">
        <time>2021-02-28T10:13:30.559000+00:00</time>
      </trkpt>
      <trkpt lat="47.31796" lon="-1.40181">
        <ele>112</ele>
        <time>2021-02-28T10:13:31.526000+00:00</time>
      </trkpt>
      <trkpt lat="0" lon="0">
        <time>2021-02-28T10:13:31.531000+00:00</time>
      </trkpt>
      <trkpt lat="0" lon="0">
        <time>2021-02-28T10:13:31.537000+00:00</time>
      </trkpt>
      <trkpt lat="0" lon="0">
        <time>2021-02-28T10:13:31.540000+00:00</time>
      </trkpt>
      <trkpt lat="47.31791" lon="-1.40185">
        <ele>112</ele>
        <time>2021-02-28T10:13:32.536000+00:00</time>
      </trkpt>
      <trkpt lat="0" lon="0">
        <time>2021-02-28T10:13:32.553000+00:00</time>
      </trkpt>
      <trkpt lat="0" lon="0">
        <time>2021-02-28T10:13:32.561000+00:00</time>
      </trkpt>
      <trkpt lat="0" lon="0">
        <time>2021-02-28T10:13:32.562000+00:00</time>
      </trkpt>
      <trkpt lat="47.31785" lon="-1.40191">
        <ele>112</ele>
        <time>2021-02-28T10:13:33.553000+00:00</time>
      </trkpt>
      <trkpt lat="0" lon="0">
        <time>2021-02-28T10:13:33.558000+00:00</time>
      </trkpt>
      <trkpt lat="0" lon="0">
        <time>2021-02-28T10:13:33.564000+00:00</time>
      </trkpt>
      <trkpt lat="0" lon="0">
        <time>2021-02-28T10:13:33.567000+00:00</time>
      </trkpt>
      <trkpt lat="47.31781" lon="-1.40197">
        <ele>112</ele>
        <time>2021-02-28T10:13:34.545000+00:00</time>
      </trkpt>
      <trkpt lat="0" lon="0">
        <time>2021-02-28T10:13:34.553000+00:00</time>
      </trkpt>
      <trkpt lat="0" lon="0">
        <time>2021-02-28T10:13:34.561000+00:00</time>
      </trkpt>
      <trkpt lat="0" lon="0">
        <time>2021-02-28T10:13:34.564000+00:00</time>
      </trkpt>
      <trkpt lat="47.31776" lon="-1.40203">
        <ele>113</ele>
        <time>2021-02-28T10:13:35.566000+00:00</time>
      </trkpt>
      <trkpt lat="0" lon="0">
        <time>2021-02-28T10:13:35.572000+00:00</time>
      </trkpt>
      <trkpt lat="0" lon="0">
        <time>2021-02-28T10:13:35.577000+00:00</time>
      </trkpt>
      <trkpt lat="0" lon="0">
        <time>2021-02-28T10:13:35.579000+00:00</time>
      </trkpt>
      <trkpt lat="47.31772" lon="-1.4021">
        <ele>113</ele>
        <time>2021-02-28T10:13:36.554000+00:00</time>
      </trkpt>
      <trkpt lat="0" lon="0">
        <time>2021-02-28T10:13:36.559000+00:00</time>
      </trkpt>
      <trkpt lat="0" lon="0">
        <time>2021-02-28T10:13:36.564000+00:00</time>
      </trkpt>
      <trkpt lat="0" lon="0">
        <time>2021-02-28T10:13:36.567000+00:00</time>
      </trkpt>
      <trkpt lat="47.31768" lon="-1.40217">
        <ele>113</ele>
        <time>2021-02-28T10:13:37.469000+00:00</time>
      </trkpt>
      <trkpt lat="0" lon="0">
        <time>2021-02-28T10:13:37.471000+00:00</time>
      </trkpt>
      <trkpt lat="0" lon="0">
        <time>2021-02-28T10:13:37.473000+00:00</time>
      </trkpt>
      <trkpt lat="0" lon="0">
        <time>2021-02-28T10:13:37.474000+00:00</time>
      </trkpt>
      <trkpt lat="47.31765" lon="-1.40223">
        <ele>113</ele>
        <time>2021-02-28T10:13:38.539000+00:00</time>
      </trkpt>
      <trkpt lat="0" lon="0">
        <time>2021-02-28T10:13:38.544000+00:00</time>
      </trkpt>
      <trkpt lat="0" lon="0">
        <time>2021-02-28T10:13:38.549000+00:00</time>
      </trkpt>
      <trkpt lat="0" lon="0">
        <time>2021-02-28T10:13:38.551000+00:00</time>
      </trkpt>
      <trkpt lat="47.31761" lon="-1.4023">
        <ele>113</ele>
        <time>2021-02-28T10:13:39.551000+00:00</time>
      </trkpt>
      <trkpt lat="0" lon="0">
        <time>2021-02-28T10:13:39.567000+00:00</time>
      </trkpt>
      <trkpt lat="0" lon="0">
        <time>2021-02-28T10:13:39.575000+00:00</time>
      </trkpt>
      <trkpt lat="0" lon="0">
        <time>2021-02-28T10:13:39.579000+00:00</time>
      </trkpt>
      <trkpt lat="47.31758" lon="-1.40236">
        <ele>113</ele>
        <time>2021-02-28T10:13:40.557000+00:00</time>
      </trkpt>
      <trkpt lat="0" lon="0">
        <time>2021-02-28T10:13:40.570000+00:00</time>
      </trkpt>
      <trkpt lat="0" lon="0">
        <time>2021-02-28T10:13:40.577000+00:00</time>
      </trkpt>
      <trkpt lat="0" lon="0">
        <time>2021-02-28T10:13:40.581000+00:00</time>
      </trkpt>
      <trkpt lat="47.31755" lon="-1.40242">
        <ele>113</ele>
        <time>2021-02-28T10:13:41.530000+00:00</time>
      </trkpt>
      <trkpt lat="0" lon="0">
        <time>2021-02-28T10:13:41.540000+00:00</time>
      </trkpt>
      <trkpt lat="0" lon="0">
        <time>2021-02-28T10:13:41.545000+00:00</time>
      </trkpt>
      <trkpt lat="0" lon="0">
        <time>2021-02-28T10:13:41.547000+00:00</time>
      </trkpt>
      <trkpt lat="47.31752" lon="-1.40249">
        <ele>113</ele>
        <time>2021-02-28T10:13:42.493000+00:00</time>
      </trkpt>
      <trkpt lat="0" lon="0">
        <time>2021-02-28T10:13:42.496000+00:00</time>
      </trkpt>
      <trkpt lat="0" lon="0">
        <time>2021-02-28T10:13:42.500000+00:00</time>
      </trkpt>
      <trkpt lat="0" lon="0">
        <time>2021-02-28T10:13:42.501000+00:00</time>
      </trkpt>
      <trkpt lat="47.31749" lon="-1.40254">
        <ele>113</ele>
        <time>2021-02-28T10:13:43.490000+00:00</time>
      </trkpt>
      <trkpt lat="0" lon="0">
        <time>2021-02-28T10:13:43.495000+00:00</time>
      </trkpt>
      <trkpt lat="0" lon="0">
        <time>2021-02-28T10:13:43.503000+00:00</time>
      </trkpt>
      <trkpt lat="0" lon="0">
        <time>2021-02-28T10:13:43.506000+00:00</time>
      </trkpt>
      <trkpt lat="47.31746" lon="-1.4026">
        <ele>113</ele>
        <time>2021-02-28T10:13:44.539000+00:00</time>
      </trkpt>
      <trkpt lat="0" lon="0">
        <time>2021-02-28T10:13:44.552000+00:00</time>
      </trkpt>
      <trkpt lat="0" lon="0">
        <time>2021-02-28T10:13:44.558000+00:00</time>
      </trkpt>
      <trkpt lat="0" lon="0">
        <time>2021-02-28T10:13:44.561000+00:00</time>
      </trkpt>
      <trkpt lat="47.31743" lon="-1.40265">
        <ele>113</ele>
        <time>2021-02-28T10:13:45.544000+00:00</time>
      </trkpt>
      <trkpt lat="0" lon="0">
        <time>2021-02-28T10:13:45.553000+00:00</time>
      </trkpt>
      <trkpt lat="0" lon="0">
        <time>2021-02-28T10:13:45.558000+00:00</time>
      </trkpt>
      <trkpt lat="0" lon="0">
        <time>2021-02-28T10:13:45.561000+00:00</time>
      </trkpt>
      <trkpt lat="47.31739" lon="-1.4027">
        <ele>113</ele>
        <time>2021-02-28T10:13:46.542000+00:00</time>
      </trkpt>
      <trkpt lat="0" lon="0">
        <time>2021-02-28T10:13:46.548000+00:00</time>
      </trkpt>
      <trkpt lat="0" lon="0">
        <time>2021-02-28T10:13:46.554000+00:00</time>
      </trkpt>
      <trkpt lat="0" lon="0">
        <time>2021-02-28T10:13:46.556000+00:00</time>
      </trkpt>
      <trkpt lat="47.31736" lon="-1.40275">
        <ele>112</ele>
        <time>2021-02-28T10:13:47.525000+00:00</time>
      </trkpt>
      <trkpt lat="0" lon="0">
        <time>2021-02-28T10:13:47.535000+00:00</time>
      </trkpt>
      <trkpt lat="0" lon="0">
        <time>2021-02-28T10:13:47.541000+00:00</time>
      </trkpt>
      <trkpt lat="0" lon="0">
        <time>2021-02-28T10:13:47.545000+00:00</time>
      </trkpt>
      <trkpt lat="47.31732" lon="-1.4028">
        <ele>112</ele>
        <time>2021-02-28T10:13:48.522000+00:00</time>
      </trkpt>
      <trkpt lat="0" lon="0">
        <time>2021-02-28T10:13:48.528000+00:00</time>
      </trkpt>
      <trkpt lat="0" lon="0">
        <time>2021-02-28T10:13:48.532000+00:00</time>
      </trkpt>
      <trkpt lat="0" lon="0">
        <time>2021-02-28T10:13:48.535000+00:00</time>
      </trkpt>
      <trkpt lat="47.31728" lon="-1.40285">
        <ele>112</ele>
        <time>2021-02-28T10:13:49.543000+00:00</time>
      </trkpt>
      <trkpt lat="0" lon="0">
        <time>2021-02-28T10:13:49.554000+00:00</time>
      </trkpt>
      <trkpt lat="0" lon="0">
        <time>2021-02-28T10:13:49.559000+00:00</time>
      </trkpt>
      <trkpt lat="0" lon="0">
        <time>2021-02-28T10:13:49.562000+00:00</time>
      </trkpt>
      <trkpt lat="47.31724" lon="-1.40289">
        <ele>112</ele>
        <time>2021-02-28T10:13:50.507000+00:00</time>
      </trkpt>
      <trkpt lat="0" lon="0">
        <time>2021-02-28T10:13:50.512000+00:00</time>
      </trkpt>
      <trkpt lat="0" lon="0">
        <time>2021-02-28T10:13:50.517000+00:00</time>
      </trkpt>
      <trkpt lat="0" lon="0">
        <time>2021-02-28T10:13:50.520000+00:00</time>
      </trkpt>
      <trkpt lat="47.3172" lon="-1.40293">
        <ele>112</ele>
        <time>2021-02-28T10:13:51.548000+00:00</time>
      </trkpt>
      <trkpt lat="0" lon="0">
        <time>2021-02-28T10:13:51.553000+00:00</time>
      </trkpt>
      <trkpt lat="0" lon="0">
        <time>2021-02-28T10:13:51.559000+00:00</time>
      </trkpt>
      <trkpt lat="0" lon="0">
        <time>2021-02-28T10:13:51.561000+00:00</time>
      </trkpt>
      <trkpt lat="47.31716" lon="-1.40298">
        <ele>112</ele>
        <time>2021-02-28T10:13:52.521000+00:00</time>
      </trkpt>
      <trkpt lat="0" lon="0">
        <time>2021-02-28T10:13:52.527000+00:00</time>
      </trkpt>
      <trkpt lat="0" lon="0">
        <time>2021-02-28T10:13:52.533000+00:00</time>
      </trkpt>
      <trkpt lat="0" lon="0">
        <time>2021-02-28T10:13:52.536000+00:00</time>
      </trkpt>
      <trkpt lat="47.31711" lon="-1.40302">
        <ele>112</ele>
        <time>2021-02-28T10:13:53.527000+00:00</time>
      </trkpt>
      <trkpt lat="0" lon="0">
        <time>2021-02-28T10:13:53.537000+00:00</time>
      </trkpt>
      <trkpt lat="0" lon="0">
        <time>2021-02-28T10:13:53.541000+00:00</time>
      </trkpt>
      <trkpt lat="0" lon="0">
        <time>2021-02-28T10:13:53.543000+00:00</time>
      </trkpt>
      <trkpt lat="47.31707" lon="-1.40306">
        <ele>112</ele>
        <time>2021-02-28T10:13:54.509000+00:00</time>
      </trkpt>
      <trkpt lat="0" lon="0">
        <time>2021-02-28T10:13:54.512000+00:00</time>
      </trkpt>
      <trkpt lat="0" lon="0">
        <time>2021-02-28T10:13:54.514000+00:00</time>
      </trkpt>
      <trkpt lat="0" lon="0">
        <time>2021-02-28T10:13:54.515000+00:00</time>
      </trkpt>
      <trkpt lat="47.31703" lon="-1.40311">
        <ele>112</ele>
        <time>2021-02-28T10:13:55.535000+00:00</time>
      </trkpt>
      <trkpt lat="0" lon="0">
        <time>2021-02-28T10:13:55.543000+00:00</time>
      </trkpt>
      <trkpt lat="0" lon="0">
        <time>2021-02-28T10:13:55.553000+00:00</time>
      </trkpt>
      <trkpt lat="0" lon="0">
        <time>2021-02-28T10:13:55.556000+00:00</time>
      </trkpt>
      <trkpt lat="47.31698" lon="-1.40315">
        <ele>112</ele>
        <time>2021-02-28T10:13:56.556000+00:00</time>
      </trkpt>
      <trkpt lat="0" lon="0">
        <time>2021-02-28T10:13:56.563000+00:00</time>
      </trkpt>
      <trkpt lat="0" lon="0">
        <time>2021-02-28T10:13:56.567000+00:00</time>
      </trkpt>
      <trkpt lat="0" lon="0">
        <time>2021-02-28T10:13:56.569000+00:00</time>
      </trkpt>
      <trkpt lat="47.31694" lon="-1.4032">
        <ele>112</ele>
        <time>2021-02-28T10:13:57.536000+00:00</time>
      </trkpt>
      <trkpt lat="0" lon="0">
        <time>2021-02-28T10:13:57.545000+00:00</time>
      </trkpt>
      <trkpt lat="0" lon="0">
        <time>2021-02-28T10:13:57.551000+00:00</time>
      </trkpt>
      <trkpt lat="0" lon="0">
        <time>2021-02-28T10:13:57.554000+00:00</time>
      </trkpt>
      <trkpt lat="47.31689" lon="-1.40324">
        <ele>112</ele>
        <time>2021-02-28T10:13:58.537000+00:00</time>
      </trkpt>
      <trkpt lat="0" lon="0">
        <time>2021-02-28T10:13:58.547000+00:00</time>
      </trkpt>
      <trkpt lat="0" lon="0">
        <time>2021-02-28T10:13:58.555000+00:00</time>
      </trkpt>
      <trkpt lat="0" lon="0">
        <time>2021-02-28T10:13:58.557000+00:00</time>
      </trkpt>
      <trkpt lat="47.31684" lon="-1.40329">
        <ele>112</ele>
        <time>2021-02-28T10:13:59.540000+00:00</time>
      </trkpt>
      <trkpt lat="0" lon="0">
        <time>2021-02-28T10:13:59.552000+00:00</time>
      </trkpt>
      <trkpt lat="0" lon="0">
        <time>2021-02-28T10:13:59.557000+00:00</time>
      </trkpt>
      <trkpt lat="0" lon="0">
        <time>2021-02-28T10:13:59.561000+00:00</time>
      </trkpt>
      <trkpt lat="47.31679" lon="-1.40333">
        <ele>112</ele>
        <time>2021-02-28T10:14:00.503000+00:00</time>
      </trkpt>
      <trkpt lat="0" lon="0">
        <time>2021-02-28T10:14:00.509000+00:00</time>
      </trkpt>
      <trkpt lat="0" lon="0">
        <time>2021-02-28T10:14:00.513000+00:00</time>
      </trkpt>
      <trkpt lat="0" lon="0">
        <time>2021-02-28T10:14:00.516000+00:00</time>
      </trkpt>
      <trkpt lat="47.31674" lon="-1.40337">
        <ele>112</ele>
        <time>2021-02-28T10:14:01.539000+00:00</time>
      </trkpt>
      <trkpt lat="0" lon="0">
        <time>2021-02-28T10:14:01.555000+00:00</time>
      </trkpt>
      <trkpt lat="0" lon="0">
        <time>2021-02-28T10:14:01.565000+00:00</time>
      </trkpt>
      <trkpt lat="0" lon="0">
        <time>2021-02-28T10:14:01.570000+00:00</time>
      </trkpt>
      <trkpt lat="47.31669" lon="-1.40342">
        <ele>112</ele>
        <time>2021-02-28T10:14:02.543000+00:00</time>
      </trkpt>
      <trkpt lat="0" lon="0">
        <time>2021-02-28T10:14:02.551000+00:00</time>
      </trkpt>
      <trkpt lat="0" lon="0">
        <time>2021-02-28T10:14:02.556000+00:00</time>
      </trkpt>
      <trkpt lat="0" lon="0">
        <time>2021-02-28T10:14:02.558000+00:00</time>
      </trkpt>
      <trkpt lat="47.31664" lon="-1.40346">
        <ele>112</ele>
        <time>2021-02-28T10:14:03.540000+00:00</time>
      </trkpt>
      <trkpt lat="0" lon="0">
        <time>2021-02-28T10:14:03.551000+00:00</time>
      </trkpt>
      <trkpt lat="0" lon="0">
        <time>2021-02-28T10:14:03.559000+00:00</time>
      </trkpt>
      <trkpt lat="0" lon="0">
        <time>2021-02-28T10:14:03.565000+00:00</time>
      </trkpt>
      <trkpt lat="47.31659" lon="-1.40351">
        <ele>111</ele>
        <time>2021-02-28T10:14:04.531000+00:00</time>
      </trkpt>
      <trkpt lat="0" lon="0">
        <time>2021-02-28T10:14:04.537000+00:00</time>
      </trkpt>
      <trkpt lat="0" lon="0">
        <time>2021-02-28T10:14:04.543000+00:00</time>
      </trkpt>
      <trkpt lat="0" lon="0">
        <time>2021-02-28T10:14:04.546000+00:00</time>
      </trkpt>
      <trkpt lat="47.31654" lon="-1.40356">
        <ele>111</ele>
        <time>2021-02-28T10:14:05.529000+00:00</time>
      </trkpt>
      <trkpt lat="0" lon="0">
        <time>2021-02-28T10:14:05.542000+00:00</time>
      </trkpt>
      <trkpt lat="0" lon="0">
        <time>2021-02-28T10:14:05.550000+00:00</time>
      </trkpt>
      <trkpt lat="0" lon="0">
        <time>2021-02-28T10:14:05.554000+00:00</time>
      </trkpt>
      <trkpt lat="47.31649" lon="-1.4036">
        <ele>111</ele>
        <time>2021-02-28T10:14:06.527000+00:00</time>
      </trkpt>
      <trkpt lat="0" lon="0">
        <time>2021-02-28T10:14:06.535000+00:00</time>
      </trkpt>
      <trkpt lat="0" lon="0">
        <time>2021-02-28T10:14:06.541000+00:00</time>
      </trkpt>
      <trkpt lat="0" lon="0">
        <time>2021-02-28T10:14:06.543000+00:00</time>
      </trkpt>
      <trkpt lat="47.31644" lon="-1.40365">
        <ele>111</ele>
        <time>2021-02-28T10:14:07.531000+00:00</time>
      </trkpt>
      <trkpt lat="0" lon="0">
        <time>2021-02-28T10:14:07.538000+00:00</time>
      </trkpt>
      <trkpt lat="0" lon="0">
        <time>2021-02-28T10:14:07.544000+00:00</time>
      </trkpt>
      <trkpt lat="0" lon="0">
        <time>2021-02-28T10:14:07.547000+00:00</time>
      </trkpt>
      <trkpt lat="47.31639" lon="-1.40371">
        <ele>111</ele>
        <time>2021-02-28T10:14:08.571000+00:00</time>
      </trkpt>
      <trkpt lat="0" lon="0">
        <time>2021-02-28T10:14:08.577000+00:00</time>
      </trkpt>
      <trkpt lat="0" lon="0">
        <time>2021-02-28T10:14:08.583000+00:00</time>
      </trkpt>
      <trkpt lat="0" lon="0">
        <time>2021-02-28T10:14:08.586000+00:00</time>
      </trkpt>
      <trkpt lat="47.31634" lon="-1.40376">
        <ele>111</ele>
        <time>2021-02-28T10:14:09.549000+00:00</time>
      </trkpt>
      <trkpt lat="0" lon="0">
        <time>2021-02-28T10:14:09.560000+00:00</time>
      </trkpt>
      <trkpt lat="0" lon="0">
        <time>2021-02-28T10:14:09.565000+00:00</time>
      </trkpt>
      <trkpt lat="0" lon="0">
        <time>2021-02-28T10:14:09.568000+00:00</time>
      </trkpt>
      <trkpt lat="47.31629" lon="-1.40382">
        <ele>111</ele>
        <time>2021-02-28T10:14:10.505000+00:00</time>
      </trkpt>
      <trkpt lat="0" lon="0">
        <time>2021-02-28T10:14:10.512000+00:00</time>
      </trkpt>
      <trkpt lat="0" lon="0">
        <time>2021-02-28T10:14:10.517000+00:00</time>
      </trkpt>
      <trkpt lat="0" lon="0">
        <time>2021-02-28T10:14:10.520000+00:00</time>
      </trkpt>
      <trkpt lat="47.31625" lon="-1.40389">
        <ele>110</ele>
        <time>2021-02-28T10:14:11.487000+00:00</time>
      </trkpt>
      <trkpt lat="0" lon="0">
        <time>2021-02-28T10:14:11.501000+00:00</time>
      </trkpt>
      <trkpt lat="0" lon="0">
        <time>2021-02-28T10:14:11.503000+00:00</time>
      </trkpt>
      <trkpt lat="0" lon="0">
        <time>2021-02-28T10:14:11.504000+00:00</time>
      </trkpt>
      <trkpt lat="47.3162" lon="-1.40396">
        <ele>110</ele>
        <time>2021-02-28T10:14:12.557000+00:00</time>
      </trkpt>
      <trkpt lat="0" lon="0">
        <time>2021-02-28T10:14:12.568000+00:00</time>
      </trkpt>
      <trkpt lat="0" lon="0">
        <time>2021-02-28T10:14:12.574000+00:00</time>
      </trkpt>
      <trkpt lat="0" lon="0">
        <time>2021-02-28T10:14:12.577000+00:00</time>
      </trkpt>
      <trkpt lat="47.31616" lon="-1.40403">
        <ele>110</ele>
        <time>2021-02-28T10:14:13.583000+00:00</time>
      </trkpt>
      <trkpt lat="0" lon="0">
        <time>2021-02-28T10:14:13.589000+00:00</time>
      </trkpt>
      <trkpt lat="0" lon="0">
        <time>2021-02-28T10:14:13.595000+00:00</time>
      </trkpt>
      <trkpt lat="0" lon="0">
        <time>2021-02-28T10:14:13.598000+00:00</time>
      </trkpt>
      <trkpt lat="47.31612" lon="-1.4041">
        <ele>110</ele>
        <time>2021-02-28T10:14:14.557000+00:00</time>
      </trkpt>
      <trkpt lat="0" lon="0">
        <time>2021-02-28T10:14:14.568000+00:00</time>
      </trkpt>
      <trkpt lat="0" lon="0">
        <time>2021-02-28T10:14:14.574000+00:00</time>
      </trkpt>
      <trkpt lat="0" lon="0">
        <time>2021-02-28T10:14:14.577000+00:00</time>
      </trkpt>
      <trkpt lat="47.31608" lon="-1.40418">
        <ele>109</ele>
        <time>2021-02-28T10:14:15.537000+00:00</time>
      </trkpt>
      <trkpt lat="0" lon="0">
        <time>2021-02-28T10:14:15.551000+00:00</time>
      </trkpt>
      <trkpt lat="0" lon="0">
        <time>2021-02-28T10:14:15.557000+00:00</time>
      </trkpt>
      <trkpt lat="0" lon="0">
        <time>2021-02-28T10:14:15.560000+00:00</time>
      </trkpt>
      <trkpt lat="47.31605" lon="-1.40426">
        <ele>109</ele>
        <time>2021-02-28T10:14:16.539000+00:00</time>
      </trkpt>
      <trkpt lat="0" lon="0">
        <time>2021-02-28T10:14:16.549000+00:00</time>
      </trkpt>
      <trkpt lat="0" lon="0">
        <time>2021-02-28T10:14:16.556000+00:00</time>
      </trkpt>
      <trkpt lat="0" lon="0">
        <time>2021-02-28T10:14:16.559000+00:00</time>
      </trkpt>
      <trkpt lat="47.31601" lon="-1.40434">
        <ele>109</ele>
        <time>2021-02-28T10:14:17.523000+00:00</time>
      </trkpt>
      <trkpt lat="0" lon="0">
        <time>2021-02-28T10:14:17.535000+00:00</time>
      </trkpt>
      <trkpt lat="0" lon="0">
        <time>2021-02-28T10:14:17.540000+00:00</time>
      </trkpt>
      <trkpt lat="0" lon="0">
        <time>2021-02-28T10:14:17.542000+00:00</time>
      </trkpt>
      <trkpt lat="47.31597" lon="-1.40443">
        <ele>108</ele>
        <time>2021-02-28T10:14:18.566000+00:00</time>
      </trkpt>
      <trkpt lat="0" lon="0">
        <time>2021-02-28T10:14:18.572000+00:00</time>
      </trkpt>
      <trkpt lat="0" lon="0">
        <time>2021-02-28T10:14:18.577000+00:00</time>
      </trkpt>
      <trkpt lat="0" lon="0">
        <time>2021-02-28T10:14:18.580000+00:00</time>
      </trkpt>
      <trkpt lat="47.31593" lon="-1.4045">
        <ele>108</ele>
        <time>2021-02-28T10:14:19.505000+00:00</time>
      </trkpt>
      <trkpt lat="0" lon="0">
        <time>2021-02-28T10:14:19.514000+00:00</time>
      </trkpt>
      <trkpt lat="0" lon="0">
        <time>2021-02-28T10:14:19.519000+00:00</time>
      </trkpt>
      <trkpt lat="0" lon="0">
        <time>2021-02-28T10:14:19.522000+00:00</time>
      </trkpt>
      <trkpt lat="47.31589" lon="-1.40457">
        <ele>108</ele>
        <time>2021-02-28T10:14:20.514000+00:00</time>
      </trkpt>
      <trkpt lat="0" lon="0">
        <time>2021-02-28T10:14:20.519000+00:00</time>
      </trkpt>
      <trkpt lat="0" lon="0">
        <time>2021-02-28T10:14:20.526000+00:00</time>
      </trkpt>
      <trkpt lat="0" lon="0">
        <time>2021-02-28T10:14:20.528000+00:00</time>
      </trkpt>
      <trkpt lat="47.31584" lon="-1.40461">
        <ele>108</ele>
        <time>2021-02-28T10:14:21.514000+00:00</time>
      </trkpt>
      <trkpt lat="0" lon="0">
        <time>2021-02-28T10:14:21.525000+00:00</time>
      </trkpt>
      <trkpt lat="0" lon="0">
        <time>2021-02-28T10:14:21.530000+00:00</time>
      </trkpt>
      <trkpt lat="0" lon="0">
        <time>2021-02-28T10:14:21.533000+00:00</time>
      </trkpt>
      <trkpt lat="47.31579" lon="-1.40462">
        <ele>108</ele>
        <time>2021-02-28T10:14:22.522000+00:00</time>
      </trkpt>
      <trkpt lat="0" lon="0">
        <time>2021-02-28T10:14:22.532000+00:00</time>
      </trkpt>
      <trkpt lat="0" lon="0">
        <time>2021-02-28T10:14:22.537000+00:00</time>
      </trkpt>
      <trkpt lat="0" lon="0">
        <time>2021-02-28T10:14:22.540000+00:00</time>
      </trkpt>
      <trkpt lat="47.31574" lon="-1.40462">
        <ele>108</ele>
        <time>2021-02-28T10:14:23.473000+00:00</time>
      </trkpt>
      <trkpt lat="0" lon="0">
        <time>2021-02-28T10:14:23.485000+00:00</time>
      </trkpt>
      <trkpt lat="0" lon="0">
        <time>2021-02-28T10:14:23.490000+00:00</time>
      </trkpt>
      <trkpt lat="0" lon="0">
        <time>2021-02-28T10:14:23.493000+00:00</time>
      </trkpt>
      <trkpt lat="47.3157" lon="-1.4046">
        <ele>108</ele>
        <time>2021-02-28T10:14:24.539000+00:00</time>
      </trkpt>
      <trkpt lat="0" lon="0">
        <time>2021-02-28T10:14:24.546000+00:00</time>
      </trkpt>
      <trkpt lat="0" lon="0">
        <time>2021-02-28T10:14:24.553000+00:00</time>
      </trkpt>
      <trkpt lat="0" lon="0">
        <time>2021-02-28T10:14:24.556000+00:00</time>
      </trkpt>
      <trkpt lat="47.31566" lon="-1.40456">
        <ele>108</ele>
        <time>2021-02-28T10:14:25.526000+00:00</time>
      </trkpt>
      <trkpt lat="0" lon="0">
        <time>2021-02-28T10:14:25.532000+00:00</time>
      </trkpt>
      <trkpt lat="0" lon="0">
        <time>2021-02-28T10:14:25.538000+00:00</time>
      </trkpt>
      <trkpt lat="0" lon="0">
        <time>2021-02-28T10:14:25.540000+00:00</time>
      </trkpt>
      <trkpt lat="47.31563" lon="-1.40451">
        <ele>108</ele>
        <time>2021-02-28T10:14:26.548000+00:00</time>
      </trkpt>
      <trkpt lat="0" lon="0">
        <time>2021-02-28T10:14:26.559000+00:00</time>
      </trkpt>
      <trkpt lat="0" lon="0">
        <time>2021-02-28T10:14:26.564000+00:00</time>
      </trkpt>
      <trkpt lat="0" lon="0">
        <time>2021-02-28T10:14:26.567000+00:00</time>
      </trkpt>
      <trkpt lat="47.31559" lon="-1.40445">
        <ele>108</ele>
        <time>2021-02-28T10:14:27.558000+00:00</time>
      </trkpt>
      <trkpt lat="0" lon="0">
        <time>2021-02-28T10:14:27.565000+00:00</time>
      </trkpt>
      <trkpt lat="0" lon="0">
        <time>2021-02-28T10:14:27.571000+00:00</time>
      </trkpt>
      <trkpt lat="0" lon="0">
        <time>2021-02-28T10:14:27.573000+00:00</time>
      </trkpt>
      <trkpt lat="47.31556" lon="-1.40438">
        <ele>108</ele>
        <time>2021-02-28T10:14:28.501000+00:00</time>
      </trkpt>
      <trkpt lat="0" lon="0">
        <time>2021-02-28T10:14:28.503000+00:00</time>
      </trkpt>
      <trkpt lat="0" lon="0">
        <time>2021-02-28T10:14:28.507000+00:00</time>
      </trkpt>
      <trkpt lat="0" lon="0">
        <time>2021-02-28T10:14:28.508000+00:00</time>
      </trkpt>
      <trkpt lat="47.31554" lon="-1.4043">
        <ele>108</ele>
        <time>2021-02-28T10:14:29.542000+00:00</time>
      </trkpt>
      <trkpt lat="0" lon="0">
        <time>2021-02-28T10:14:29.552000+00:00</time>
      </trkpt>
      <trkpt lat="0" lon="0">
        <time>2021-02-28T10:14:29.559000+00:00</time>
      </trkpt>
      <trkpt lat="0" lon="0">
        <time>2021-02-28T10:14:29.563000+00:00</time>
      </trkpt>
      <trkpt lat="47.31551" lon="-1.40422">
        <ele>107</ele>
        <time>2021-02-28T10:14:30.539000+00:00</time>
      </trkpt>
      <trkpt lat="0" lon="0">
        <time>2021-02-28T10:14:30.546000+00:00</time>
      </trkpt>
      <trkpt lat="0" lon="0">
        <time>2021-02-28T10:14:30.550000+00:00</time>
      </trkpt>
      <trkpt lat="0" lon="0">
        <time>2021-02-28T10:14:30.552000+00:00</time>
      </trkpt>
      <trkpt lat="47.31549" lon="-1.40414">
        <ele>108</ele>
        <time>2021-02-28T10:14:31.526000+00:00</time>
      </trkpt>
      <trkpt lat="0" lon="0">
        <time>2021-02-28T10:14:31.543000+00:00</time>
      </trkpt>
      <trkpt lat="0" lon="0">
        <time>2021-02-28T10:14:31.551000+00:00</time>
      </trkpt>
      <trkpt lat="0" lon="0">
        <time>2021-02-28T10:14:31.554000+00:00</time>
      </trkpt>
      <trkpt lat="47.31547" lon="-1.40406">
        <ele>108</ele>
        <time>2021-02-28T10:14:32.533000+00:00</time>
      </trkpt>
      <trkpt lat="0" lon="0">
        <time>2021-02-28T10:14:32.542000+00:00</time>
      </trkpt>
      <trkpt lat="0" lon="0">
        <time>2021-02-28T10:14:32.547000+00:00</time>
      </trkpt>
      <trkpt lat="0" lon="0">
        <time>2021-02-28T10:14:32.550000+00:00</time>
      </trkpt>
      <trkpt lat="47.31545" lon="-1.40398">
        <ele>108</ele>
        <time>2021-02-28T10:14:33.541000+00:00</time>
      </trkpt>
      <trkpt lat="0" lon="0">
        <time>2021-02-28T10:14:33.550000+00:00</time>
      </trkpt>
      <trkpt lat="0" lon="0">
        <time>2021-02-28T10:14:33.555000+00:00</time>
      </trkpt>
      <trkpt lat="0" lon="0">
        <time>2021-02-28T10:14:33.558000+00:00</time>
      </trkpt>
      <trkpt lat="47.31543" lon="-1.40389">
        <ele>108</ele>
        <time>2021-02-28T10:14:34.523000+00:00</time>
      </trkpt>
      <trkpt lat="0" lon="0">
        <time>2021-02-28T10:14:34.525000+00:00</time>
      </trkpt>
      <trkpt lat="0" lon="0">
        <time>2021-02-28T10:14:34.528000+00:00</time>
      </trkpt>
      <trkpt lat="0" lon="0">
        <time>2021-02-28T10:14:34.530000+00:00</time>
      </trkpt>
      <trkpt lat="47.31542" lon="-1.40381">
        <ele>108</ele>
        <time>2021-02-28T10:14:35.555000+00:00</time>
      </trkpt>
      <trkpt lat="0" lon="0">
        <time>2021-02-28T10:14:35.567000+00:00</time>
      </trkpt>
      <trkpt lat="0" lon="0">
        <time>2021-02-28T10:14:35.573000+00:00</time>
      </trkpt>
      <trkpt lat="0" lon="0">
        <time>2021-02-28T10:14:35.577000+00:00</time>
      </trkpt>
      <trkpt lat="47.31541" lon="-1.40373">
        <ele>109</ele>
        <time>2021-02-28T10:14:36.552000+00:00</time>
      </trkpt>
      <trkpt lat="0" lon="0">
        <time>2021-02-28T10:14:36.558000+00:00</time>
      </trkpt>
      <trkpt lat="0" lon="0">
        <time>2021-02-28T10:14:36.563000+00:00</time>
      </trkpt>
      <trkpt lat="0" lon="0">
        <time>2021-02-28T10:14:36.567000+00:00</time>
      </trkpt>
      <trkpt lat="47.31539" lon="-1.40365">
        <ele>109</ele>
        <time>2021-02-28T10:14:37.538000+00:00</time>
      </trkpt>
      <trkpt lat="0" lon="0">
        <time>2021-02-28T10:14:37.546000+00:00</time>
      </trkpt>
      <trkpt lat="0" lon="0">
        <time>2021-02-28T10:14:37.552000+00:00</time>
      </trkpt>
      <trkpt lat="0" lon="0">
        <time>2021-02-28T10:14:37.555000+00:00</time>
      </trkpt>
      <trkpt lat="47.31538" lon="-1.40357">
        <ele>109</ele>
        <time>2021-02-28T10:14:38.536000+00:00</time>
      </trkpt>
      <trkpt lat="0" lon="0">
        <time>2021-02-28T10:14:38.549000+00:00</time>
      </trkpt>
      <trkpt lat="0" lon="0">
        <time>2021-02-28T10:14:38.557000+00:00</time>
      </trkpt>
      <trkpt lat="0" lon="0">
        <time>2021-02-28T10:14:38.560000+00:00</time>
      </trkpt>
      <trkpt lat="47.31537" lon="-1.40349">
        <ele>110</ele>
        <time>2021-02-28T10:14:39.529000+00:00</time>
      </trkpt>
      <trkpt lat="0" lon="0">
        <time>2021-02-28T10:14:39.542000+00:00</time>
      </trkpt>
      <trkpt lat="0" lon="0">
        <time>2021-02-28T10:14:39.559000+00:00</time>
      </trkpt>
      <trkpt lat="0" lon="0">
        <time>2021-02-28T10:14:39.563000+00:00</time>
      </trkpt>
      <trkpt lat="47.31535" lon="-1.40342">
        <ele>110</ele>
        <time>2021-02-28T10:14:40.549000+00:00</time>
      </trkpt>
      <trkpt lat="0" lon="0">
        <time>2021-02-28T10:14:40.551000+00:00</time>
      </trkpt>
      <trkpt lat="0" lon="0">
        <time>2021-02-28T10:14:40.553000+00:00</time>
      </trkpt>
      <trkpt lat="0" lon="0">
        <time>2021-02-28T10:14:40.554000+00:00</time>
      </trkpt>
      <trkpt lat="47.31534" lon="-1.40335">
        <ele>110</ele>
        <time>2021-02-28T10:14:41.538000+00:00</time>
      </trkpt>
      <trkpt lat="0" lon="0">
        <time>2021-02-28T10:14:41.545000+00:00</time>
      </trkpt>
      <trkpt lat="0" lon="0">
        <time>2021-02-28T10:14:41.551000+00:00</time>
      </trkpt>
      <trkpt lat="0" lon="0">
        <time>2021-02-28T10:14:41.555000+00:00</time>
      </trkpt>
      <trkpt lat="47.31532" lon="-1.40328">
        <ele>110</ele>
        <time>2021-02-28T10:14:42.539000+00:00</time>
      </trkpt>
      <trkpt lat="0" lon="0">
        <time>2021-02-28T10:14:42.546000+00:00</time>
      </trkpt>
      <trkpt lat="0" lon="0">
        <time>2021-02-28T10:14:42.553000+00:00</time>
      </trkpt>
      <trkpt lat="0" lon="0">
        <time>2021-02-28T10:14:42.556000+00:00</time>
      </trkpt>
      <trkpt lat="47.3153" lon="-1.40321">
        <ele>110</ele>
        <time>2021-02-28T10:14:43.563000+00:00</time>
      </trkpt>
      <trkpt lat="0" lon="0">
        <time>2021-02-28T10:14:43.573000+00:00</time>
      </trkpt>
      <trkpt lat="0" lon="0">
        <time>2021-02-28T10:14:43.578000+00:00</time>
      </trkpt>
      <trkpt lat="0" lon="0">
        <time>2021-02-28T10:14:43.581000+00:00</time>
      </trkpt>
      <trkpt lat="47.31529" lon="-1.40314">
        <ele>110</ele>
        <time>2021-02-28T10:14:44.444000+00:00</time>
      </trkpt>
      <trkpt lat="0" lon="0">
        <time>2021-02-28T10:14:44.446000+00:00</time>
      </trkpt>
      <trkpt lat="0" lon="0">
        <time>2021-02-28T10:14:44.452000+00:00</time>
      </trkpt>
      <trkpt lat="0" lon="0">
        <time>2021-02-28T10:14:44.454000+00:00</time>
      </trkpt>
      <trkpt lat="47.31527" lon="-1.40308">
        <ele>110</ele>
        <time>2021-02-28T10:14:45.539000+00:00</time>
      </trkpt>
      <trkpt lat="0" lon="0">
        <time>2021-02-28T10:14:45.545000+00:00</time>
      </trkpt>
      <trkpt lat="0" lon="0">
        <time>2021-02-28T10:14:45.551000+00:00</time>
      </trkpt>
      <trkpt lat="0" lon="0">
        <time>2021-02-28T10:14:45.554000+00:00</time>
      </trkpt>
      <trkpt lat="47.31525" lon="-1.40301">
        <ele>110</ele>
        <time>2021-02-28T10:14:46.551000+00:00</time>
      </trkpt>
      <trkpt lat="0" lon="0">
        <time>2021-02-28T10:14:46.561000+00:00</time>
      </trkpt>
      <trkpt lat="0" lon="0">
        <time>2021-02-28T10:14:46.569000+00:00</time>
      </trkpt>
      <trkpt lat="0" lon="0">
        <time>2021-02-28T10:14:46.574000+00:00</time>
      </trkpt>
      <trkpt lat="47.31523" lon="-1.40295">
        <ele>111</ele>
        <time>2021-02-28T10:14:47.547000+00:00</time>
      </trkpt>
      <trkpt lat="0" lon="0">
        <time>2021-02-28T10:14:47.554000+00:00</time>
      </trkpt>
      <trkpt lat="0" lon="0">
        <time>2021-02-28T10:14:47.560000+00:00</time>
      </trkpt>
      <trkpt lat="0" lon="0">
        <time>2021-02-28T10:14:47.564000+00:00</time>
      </trkpt>
      <trkpt lat="47.31521" lon="-1.40288">
        <ele>111</ele>
        <time>2021-02-28T10:14:48.551000+00:00</time>
      </trkpt>
      <trkpt lat="0" lon="0">
        <time>2021-02-28T10:14:48.556000+00:00</time>
      </trkpt>
      <trkpt lat="0" lon="0">
        <time>2021-02-28T10:14:48.562000+00:00</time>
      </trkpt>
      <trkpt lat="0" lon="0">
        <time>2021-02-28T10:14:48.565000+00:00</time>
      </trkpt>
      <trkpt lat="47.31519" lon="-1.40282">
        <ele>111</ele>
        <time>2021-02-28T10:14:49.562000+00:00</time>
      </trkpt>
      <trkpt lat="0" lon="0">
        <time>2021-02-28T10:14:49.567000+00:00</time>
      </trkpt>
      <trkpt lat="0" lon="0">
        <time>2021-02-28T10:14:49.577000+00:00</time>
      </trkpt>
      <trkpt lat="0" lon="0">
        <time>2021-02-28T10:14:49.580000+00:00</time>
      </trkpt>
      <trkpt lat="47.31517" lon="-1.40276">
        <ele>111</ele>
        <time>2021-02-28T10:14:50.577000+00:00</time>
      </trkpt>
      <trkpt lat="0" lon="0">
        <time>2021-02-28T10:14:50.582000+00:00</time>
      </trkpt>
      <trkpt lat="0" lon="0">
        <time>2021-02-28T10:14:50.587000+00:00</time>
      </trkpt>
      <trkpt lat="0" lon="0">
        <time>2021-02-28T10:14:50.590000+00:00</time>
      </trkpt>
      <trkpt lat="47.31515" lon="-1.4027">
        <ele>111</ele>
        <time>2021-02-28T10:14:51.567000+00:00</time>
      </trkpt>
      <trkpt lat="0" lon="0">
        <time>2021-02-28T10:14:51.583000+00:00</time>
      </trkpt>
      <trkpt lat="0" lon="0">
        <time>2021-02-28T10:14:51.588000+00:00</time>
      </trkpt>
      <trkpt lat="0" lon="0">
        <time>2021-02-28T10:14:51.591000+00:00</time>
      </trkpt>
      <trkpt lat="47.31512" lon="-1.40265">
        <ele>111</ele>
        <time>2021-02-28T10:14:52.543000+00:00</time>
      </trkpt>
      <trkpt lat="0" lon="0">
        <time>2021-02-28T10:14:52.550000+00:00</time>
      </trkpt>
      <trkpt lat="0" lon="0">
        <time>2021-02-28T10:14:52.552000+00:00</time>
      </trkpt>
      <trkpt lat="0" lon="0">
        <time>2021-02-28T10:14:52.553000+00:00</time>
      </trkpt>
      <trkpt lat="47.31509" lon="-1.4026">
        <ele>111</ele>
        <time>2021-02-28T10:14:53.532000+00:00</time>
      </trkpt>
      <trkpt lat="0" lon="0">
        <time>2021-02-28T10:14:53.549000+00:00</time>
      </trkpt>
      <trkpt lat="0" lon="0">
        <time>2021-02-28T10:14:53.560000+00:00</time>
      </trkpt>
      <trkpt lat="0" lon="0">
        <time>2021-02-28T10:14:53.566000+00:00</time>
      </trkpt>
      <trkpt lat="47.31505" lon="-1.40255">
        <ele>110</ele>
        <time>2021-02-28T10:14:54.530000+00:00</time>
      </trkpt>
      <trkpt lat="0" lon="0">
        <time>2021-02-28T10:14:54.542000+00:00</time>
      </trkpt>
      <trkpt lat="0" lon="0">
        <time>2021-02-28T10:14:54.546000+00:00</time>
      </trkpt>
      <trkpt lat="0" lon="0">
        <time>2021-02-28T10:14:54.549000+00:00</time>
      </trkpt>
      <trkpt lat="47.31502" lon="-1.40252">
        <ele>111</ele>
        <time>2021-02-28T10:14:55.469000+00:00</time>
      </trkpt>
      <trkpt lat="0" lon="0">
        <time>2021-02-28T10:14:55.480000+00:00</time>
      </trkpt>
      <trkpt lat="0" lon="0">
        <time>2021-02-28T10:14:55.484000+00:00</time>
      </trkpt>
      <trkpt lat="0" lon="0">
        <time>2021-02-28T10:14:55.487000+00:00</time>
      </trkpt>
      <trkpt lat="47.31498" lon="-1.40248">
        <ele>110</ele>
        <time>2021-02-28T10:14:56.514000+00:00</time>
      </trkpt>
      <trkpt lat="0" lon="0">
        <time>2021-02-28T10:14:56.524000+00:00</time>
      </trkpt>
      <trkpt lat="0" lon="0">
        <time>2021-02-28T10:14:56.528000+00:00</time>
      </trkpt>
      <trkpt lat="0" lon="0">
        <time>2021-02-28T10:14:56.531000+00:00</time>
      </trkpt>
      <trkpt lat="47.31494" lon="-1.40245">
        <ele>111</ele>
        <time>2021-02-28T10:14:57.525000+00:00</time>
      </trkpt>
      <trkpt lat="0" lon="0">
        <time>2021-02-28T10:14:57.531000+00:00</time>
      </trkpt>
      <trkpt lat="0" lon="0">
        <time>2021-02-28T10:14:57.536000+00:00</time>
      </trkpt>
      <trkpt lat="0" lon="0">
        <time>2021-02-28T10:14:57.539000+00:00</time>
      </trkpt>
      <trkpt lat="47.3149" lon="-1.40242">
        <ele>111</ele>
        <time>2021-02-28T10:14:58.480000+00:00</time>
      </trkpt>
      <trkpt lat="0" lon="0">
        <time>2021-02-28T10:14:58.486000+00:00</time>
      </trkpt>
      <trkpt lat="0" lon="0">
        <time>2021-02-28T10:14:58.493000+00:00</time>
      </trkpt>
      <trkpt lat="0" lon="0">
        <time>2021-02-28T10:14:58.496000+00:00</time>
      </trkpt>
      <trkpt lat="47.31487" lon="-1.4024">
        <ele>111</ele>
        <time>2021-02-28T10:14:59.548000+00:00</time>
      </trkpt>
      <trkpt lat="0" lon="0">
        <time>2021-02-28T10:14:59.559000+00:00</time>
      </trkpt>
      <trkpt lat="0" lon="0">
        <time>2021-02-28T10:14:59.566000+00:00</time>
      </trkpt>
      <trkpt lat="0" lon="0">
        <time>2021-02-28T10:14:59.569000+00:00</time>
      </trkpt>
      <trkpt lat="47.31483" lon="-1.40237">
        <ele>111</ele>
        <time>2021-02-28T10:15:00.510000+00:00</time>
      </trkpt>
      <trkpt lat="0" lon="0">
        <time>2021-02-28T10:15:00.516000+00:00</time>
      </trkpt>
      <trkpt lat="0" lon="0">
        <time>2021-02-28T10:15:00.521000+00:00</time>
      </trkpt>
      <trkpt lat="0" lon="0">
        <time>2021-02-28T10:15:00.523000+00:00</time>
      </trkpt>
      <trkpt lat="47.3148" lon="-1.40235">
        <ele>110</ele>
        <time>2021-02-28T10:15:01.487000+00:00</time>
      </trkpt>
      <trkpt lat="0" lon="0">
        <time>2021-02-28T10:15:01.495000+00:00</time>
      </trkpt>
      <trkpt lat="0" lon="0">
        <time>2021-02-28T10:15:01.500000+00:00</time>
      </trkpt>
      <trkpt lat="0" lon="0">
        <time>2021-02-28T10:15:01.504000+00:00</time>
      </trkpt>
      <trkpt lat="47.31477" lon="-1.40232">
        <ele>110</ele>
        <time>2021-02-28T10:15:02.513000+00:00</time>
      </trkpt>
      <trkpt lat="0" lon="0">
        <time>2021-02-28T10:15:02.523000+00:00</time>
      </trkpt>
      <trkpt lat="0" lon="0">
        <time>2021-02-28T10:15:02.527000+00:00</time>
      </trkpt>
      <trkpt lat="0" lon="0">
        <time>2021-02-28T10:15:02.530000+00:00</time>
      </trkpt>
      <trkpt lat="47.31474" lon="-1.40228">
        <ele>110</ele>
        <time>2021-02-28T10:15:03.438000+00:00</time>
      </trkpt>
      <trkpt lat="0" lon="0">
        <time>2021-02-28T10:15:03.449000+00:00</time>
      </trkpt>
      <trkpt lat="0" lon="0">
        <time>2021-02-28T10:15:03.453000+00:00</time>
      </trkpt>
      <trkpt lat="0" lon="0">
        <time>2021-02-28T10:15:03.456000+00:00</time>
      </trkpt>
      <trkpt lat="47.31472" lon="-1.40225">
        <ele>110</ele>
        <time>2021-02-28T10:15:04.524000+00:00</time>
      </trkpt>
      <trkpt lat="0" lon="0">
        <time>2021-02-28T10:15:04.533000+00:00</time>
      </trkpt>
      <trkpt lat="0" lon="0">
        <time>2021-02-28T10:15:04.539000+00:00</time>
      </trkpt>
      <trkpt lat="0" lon="0">
        <time>2021-02-28T10:15:04.542000+00:00</time>
      </trkpt>
      <trkpt lat="47.31469" lon="-1.40221">
        <ele>110</ele>
        <time>2021-02-28T10:15:05.510000+00:00</time>
      </trkpt>
      <trkpt lat="0" lon="0">
        <time>2021-02-28T10:15:05.515000+00:00</time>
      </trkpt>
      <trkpt lat="0" lon="0">
        <time>2021-02-28T10:15:05.519000+00:00</time>
      </trkpt>
      <trkpt lat="0" lon="0">
        <time>2021-02-28T10:15:05.522000+00:00</time>
      </trkpt>
      <trkpt lat="47.31467" lon="-1.40216">
        <ele>109</ele>
        <time>2021-02-28T10:15:06.535000+00:00</time>
      </trkpt>
      <trkpt lat="0" lon="0">
        <time>2021-02-28T10:15:06.547000+00:00</time>
      </trkpt>
      <trkpt lat="0" lon="0">
        <time>2021-02-28T10:15:06.555000+00:00</time>
      </trkpt>
      <trkpt lat="0" lon="0">
        <time>2021-02-28T10:15:06.558000+00:00</time>
      </trkpt>
      <trkpt lat="47.31464" lon="-1.40211">
        <ele>109</ele>
        <time>2021-02-28T10:15:07.545000+00:00</time>
      </trkpt>
      <trkpt lat="0" lon="0">
        <time>2021-02-28T10:15:07.555000+00:00</time>
      </trkpt>
      <trkpt lat="0" lon="0">
        <time>2021-02-28T10:15:07.561000+00:00</time>
      </trkpt>
      <trkpt lat="0" lon="0">
        <time>2021-02-28T10:15:07.564000+00:00</time>
      </trkpt>
      <trkpt lat="47.31462" lon="-1.40205">
        <ele>108</ele>
        <time>2021-02-28T10:15:08.491000+00:00</time>
      </trkpt>
      <trkpt lat="0" lon="0">
        <time>2021-02-28T10:15:08.501000+00:00</time>
      </trkpt>
      <trkpt lat="0" lon="0">
        <time>2021-02-28T10:15:08.509000+00:00</time>
      </trkpt>
      <trkpt lat="0" lon="0">
        <time>2021-02-28T10:15:08.518000+00:00</time>
      </trkpt>
      <trkpt lat="47.3146" lon="-1.40199">
        <ele>108</ele>
        <time>2021-02-28T10:15:09.514000+00:00</time>
      </trkpt>
      <trkpt lat="0" lon="0">
        <time>2021-02-28T10:15:09.526000+00:00</time>
      </trkpt>
      <trkpt lat="0" lon="0">
        <time>2021-02-28T10:15:09.534000+00:00</time>
      </trkpt>
      <trkpt lat="0" lon="0">
        <time>2021-02-28T10:15:09.539000+00:00</time>
      </trkpt>
      <trkpt lat="47.31457" lon="-1.40192">
        <ele>107</ele>
        <time>2021-02-28T10:15:10.530000+00:00</time>
      </trkpt>
      <trkpt lat="0" lon="0">
        <time>2021-02-28T10:15:10.538000+00:00</time>
      </trkpt>
      <trkpt lat="0" lon="0">
        <time>2021-02-28T10:15:10.544000+00:00</time>
      </trkpt>
      <trkpt lat="0" lon="0">
        <time>2021-02-28T10:15:10.548000+00:00</time>
      </trkpt>
      <trkpt lat="47.31455" lon="-1.40185">
        <ele>107</ele>
        <time>2021-02-28T10:15:11.456000+00:00</time>
      </trkpt>
      <trkpt lat="0" lon="0">
        <time>2021-02-28T10:15:11.472000+00:00</time>
      </trkpt>
      <trkpt lat="0" lon="0">
        <time>2021-02-28T10:15:11.476000+00:00</time>
      </trkpt>
      <trkpt lat="0" lon="0">
        <time>2021-02-28T10:15:11.479000+00:00</time>
      </trkpt>
      <trkpt lat="47.31453" lon="-1.40177">
        <ele>107</ele>
        <time>2021-02-28T10:15:12.538000+00:00</time>
      </trkpt>
      <trkpt lat="0" lon="0">
        <time>2021-02-28T10:15:12.550000+00:00</time>
      </trkpt>
      <trkpt lat="0" lon="0">
        <time>2021-02-28T10:15:12.555000+00:00</time>
      </trkpt>
      <trkpt lat="0" lon="0">
        <time>2021-02-28T10:15:12.558000+00:00</time>
      </trkpt>
      <trkpt lat="47.31451" lon="-1.4017">
        <ele>106</ele>
        <time>2021-02-28T10:15:13.493000+00:00</time>
      </trkpt>
      <trkpt lat="0" lon="0">
        <time>2021-02-28T10:15:13.505000+00:00</time>
      </trkpt>
      <trkpt lat="0" lon="0">
        <time>2021-02-28T10:15:13.509000+00:00</time>
      </trkpt>
      <trkpt lat="0" lon="0">
        <time>2021-02-28T10:15:13.511000+00:00</time>
      </trkpt>
      <trkpt lat="47.31449" lon="-1.40162">
        <ele>106</ele>
        <time>2021-02-28T10:15:14.518000+00:00</time>
      </trkpt>
      <trkpt lat="0" lon="0">
        <time>2021-02-28T10:15:14.529000+00:00</time>
      </trkpt>
      <trkpt lat="0" lon="0">
        <time>2021-02-28T10:15:14.532000+00:00</time>
      </trkpt>
      <trkpt lat="0" lon="0">
        <time>2021-02-28T10:15:14.533000+00:00</time>
      </trkpt>
      <trkpt lat="47.31447" lon="-1.40154">
        <ele>106</ele>
        <time>2021-02-28T10:15:15.555000+00:00</time>
      </trkpt>
      <trkpt lat="0" lon="0">
        <time>2021-02-28T10:15:15.571000+00:00</time>
      </trkpt>
      <trkpt lat="0" lon="0">
        <time>2021-02-28T10:15:15.579000+00:00</time>
      </trkpt>
      <trkpt lat="0" lon="0">
        <time>2021-02-28T10:15:15.582000+00:00</time>
      </trkpt>
      <trkpt lat="47.31446" lon="-1.40147">
        <ele>105</ele>
        <time>2021-02-28T10:15:16.540000+00:00</time>
      </trkpt>
      <trkpt lat="0" lon="0">
        <time>2021-02-28T10:15:16.549000+00:00</time>
      </trkpt>
      <trkpt lat="0" lon="0">
        <time>2021-02-28T10:15:16.557000+00:00</time>
      </trkpt>
      <trkpt lat="0" lon="0">
        <time>2021-02-28T10:15:16.560000+00:00</time>
      </trkpt>
      <trkpt lat="47.31444" lon="-1.40141">
        <ele>105</ele>
        <time>2021-02-28T10:15:17.432000+00:00</time>
      </trkpt>
      <trkpt lat="0" lon="0">
        <time>2021-02-28T10:15:17.442000+00:00</time>
      </trkpt>
      <trkpt lat="0" lon="0">
        <time>2021-02-28T10:15:17.446000+00:00</time>
      </trkpt>
      <trkpt lat="0" lon="0">
        <time>2021-02-28T10:15:17.449000+00:00</time>
      </trkpt>
      <trkpt lat="47.31443" lon="-1.40135">
        <ele>105</ele>
        <time>2021-02-28T10:15:18.478000+00:00</time>
      </trkpt>
      <trkpt lat="0" lon="0">
        <time>2021-02-28T10:15:18.486000+00:00</time>
      </trkpt>
      <trkpt lat="0" lon="0">
        <time>2021-02-28T10:15:18.491000+00:00</time>
      </trkpt>
      <trkpt lat="0" lon="0">
        <time>2021-02-28T10:15:18.493000+00:00</time>
      </trkpt>
      <trkpt lat="47.31441" lon="-1.40131">
        <ele>105</ele>
        <time>2021-02-28T10:15:19.523000+00:00</time>
      </trkpt>
      <trkpt lat="0" lon="0">
        <time>2021-02-28T10:15:19.529000+00:00</time>
      </trkpt>
      <trkpt lat="0" lon="0">
        <time>2021-02-28T10:15:19.534000+00:00</time>
      </trkpt>
      <trkpt lat="0" lon="0">
        <time>2021-02-28T10:15:19.537000+00:00</time>
      </trkpt>
      <trkpt lat="47.3144" lon="-1.40127">
        <ele>105</ele>
        <time>2021-02-28T10:15:20.488000+00:00</time>
      </trkpt>
      <trkpt lat="0" lon="0">
        <time>2021-02-28T10:15:20.498000+00:00</time>
      </trkpt>
      <trkpt lat="0" lon="0">
        <time>2021-02-28T10:15:20.503000+00:00</time>
      </trkpt>
      <trkpt lat="0" lon="0">
        <time>2021-02-28T10:15:20.506000+00:00</time>
      </trkpt>
      <trkpt lat="47.31438" lon="-1.40124">
        <ele>105</ele>
        <time>2021-02-28T10:15:21.501000+00:00</time>
      </trkpt>
      <trkpt lat="0" lon="0">
        <time>2021-02-28T10:15:21.508000+00:00</time>
      </trkpt>
      <trkpt lat="0" lon="0">
        <time>2021-02-28T10:15:21.513000+00:00</time>
      </trkpt>
      <trkpt lat="0" lon="0">
        <time>2021-02-28T10:15:21.517000+00:00</time>
      </trkpt>
      <trkpt lat="47.31437" lon="-1.40123">
        <ele>105</ele>
        <time>2021-02-28T10:15:22.530000+00:00</time>
      </trkpt>
      <trkpt lat="0" lon="0">
        <time>2021-02-28T10:15:22.540000+00:00</time>
      </trkpt>
      <trkpt lat="0" lon="0">
        <time>2021-02-28T10:15:22.543000+00:00</time>
      </trkpt>
      <trkpt lat="0" lon="0">
        <time>2021-02-28T10:15:22.552000+00:00</time>
      </trkpt>
      <trkpt lat="47.31437" lon="-1.40122">
        <ele>105</ele>
        <time>2021-02-28T10:15:23.510000+00:00</time>
      </trkpt>
      <trkpt lat="0" lon="0">
        <time>2021-02-28T10:15:23.517000+00:00</time>
      </trkpt>
      <trkpt lat="0" lon="0">
        <time>2021-02-28T10:15:23.524000+00:00</time>
      </trkpt>
      <trkpt lat="0" lon="0">
        <time>2021-02-28T10:15:23.528000+00:00</time>
      </trkpt>
      <trkpt lat="47.31436" lon="-1.40121">
        <ele>105</ele>
        <time>2021-02-28T10:15:24.510000+00:00</time>
      </trkpt>
      <trkpt lat="0" lon="0">
        <time>2021-02-28T10:15:24.519000+00:00</time>
      </trkpt>
      <trkpt lat="0" lon="0">
        <time>2021-02-28T10:15:24.524000+00:00</time>
      </trkpt>
      <trkpt lat="0" lon="0">
        <time>2021-02-28T10:15:24.527000+00:00</time>
      </trkpt>
      <trkpt lat="47.31436" lon="-1.40121">
        <ele>105</ele>
        <time>2021-02-28T10:15:25.531000+00:00</time>
      </trkpt>
      <trkpt lat="0" lon="0">
        <time>2021-02-28T10:15:25.543000+00:00</time>
      </trkpt>
      <trkpt lat="0" lon="0">
        <time>2021-02-28T10:15:25.553000+00:00</time>
      </trkpt>
      <trkpt lat="0" lon="0">
        <time>2021-02-28T10:15:25.558000+00:00</time>
      </trkpt>
      <trkpt lat="47.31436" lon="-1.40122">
        <ele>105</ele>
        <time>2021-02-28T10:15:26.492000+00:00</time>
      </trkpt>
      <trkpt lat="0" lon="0">
        <time>2021-02-28T10:15:26.502000+00:00</time>
      </trkpt>
      <trkpt lat="0" lon="0">
        <time>2021-02-28T10:15:26.504000+00:00</time>
      </trkpt>
      <trkpt lat="0" lon="0">
        <time>2021-02-28T10:15:26.505000+00:00</time>
      </trkpt>
      <trkpt lat="47.31435" lon="-1.40123">
        <ele>105</ele>
        <time>2021-02-28T10:15:27.510000+00:00</time>
      </trkpt>
      <trkpt lat="0" lon="0">
        <time>2021-02-28T10:15:27.518000+00:00</time>
      </trkpt>
      <trkpt lat="0" lon="0">
        <time>2021-02-28T10:15:27.524000+00:00</time>
      </trkpt>
      <trkpt lat="0" lon="0">
        <time>2021-02-28T10:15:27.529000+00:00</time>
      </trkpt>
      <trkpt lat="47.31435" lon="-1.40123">
        <ele>105</ele>
        <time>2021-02-28T10:15:28.513000+00:00</time>
      </trkpt>
      <trkpt lat="0" lon="0">
        <time>2021-02-28T10:15:28.520000+00:00</time>
      </trkpt>
      <trkpt lat="0" lon="0">
        <time>2021-02-28T10:15:28.524000+00:00</time>
      </trkpt>
      <trkpt lat="0" lon="0">
        <time>2021-02-28T10:15:28.529000+00:00</time>
      </trkpt>
      <trkpt lat="47.31435" lon="-1.40124">
        <ele>105</ele>
        <time>2021-02-28T10:15:29.526000+00:00</time>
      </trkpt>
      <trkpt lat="0" lon="0">
        <time>2021-02-28T10:15:29.531000+00:00</time>
      </trkpt>
      <trkpt lat="0" lon="0">
        <time>2021-02-28T10:15:29.536000+00:00</time>
      </trkpt>
      <trkpt lat="0" lon="0">
        <time>2021-02-28T10:15:29.542000+00:00</time>
      </trkpt>
      <trkpt lat="47.31434" lon="-1.40124">
        <ele>104</ele>
        <time>2021-02-28T10:15:30.496000+00:00</time>
      </trkpt>
      <trkpt lat="0" lon="0">
        <time>2021-02-28T10:15:30.505000+00:00</time>
      </trkpt>
      <trkpt lat="0" lon="0">
        <time>2021-02-28T10:15:30.510000+00:00</time>
      </trkpt>
      <trkpt lat="0" lon="0">
        <time>2021-02-28T10:15:30.512000+00:00</time>
      </trkpt>
      <trkpt lat="47.31434" lon="-1.40124">
        <ele>104</ele>
        <time>2021-02-28T10:15:31.535000+00:00</time>
      </trkpt>
      <trkpt lat="0" lon="0">
        <time>2021-02-28T10:15:31.547000+00:00</time>
      </trkpt>
      <trkpt lat="0" lon="0">
        <time>2021-02-28T10:15:31.551000+00:00</time>
      </trkpt>
      <trkpt lat="0" lon="0">
        <time>2021-02-28T10:15:31.555000+00:00</time>
      </trkpt>
      <trkpt lat="47.31433" lon="-1.40124">
        <ele>104</ele>
        <time>2021-02-28T10:15:32.508000+00:00</time>
      </trkpt>
      <trkpt lat="0" lon="0">
        <time>2021-02-28T10:15:32.511000+00:00</time>
      </trkpt>
      <trkpt lat="0" lon="0">
        <time>2021-02-28T10:15:32.514000+00:00</time>
      </trkpt>
      <trkpt lat="0" lon="0">
        <time>2021-02-28T10:15:32.516000+00:00</time>
      </trkpt>
      <trkpt lat="47.31433" lon="-1.40124">
        <ele>104</ele>
        <time>2021-02-28T10:15:33.419000+00:00</time>
      </trkpt>
      <trkpt lat="0" lon="0">
        <time>2021-02-28T10:15:33.423000+00:00</time>
      </trkpt>
      <trkpt lat="0" lon="0">
        <time>2021-02-28T10:15:33.428000+00:00</time>
      </trkpt>
      <trkpt lat="0" lon="0">
        <time>2021-02-28T10:15:33.431000+00:00</time>
      </trkpt>
      <trkpt lat="47.31432" lon="-1.40123">
        <ele>104</ele>
        <time>2021-02-28T10:15:34.579000+00:00</time>
      </trkpt>
      <trkpt lat="0" lon="0">
        <time>2021-02-28T10:15:34.590000+00:00</time>
      </trkpt>
      <trkpt lat="0" lon="0">
        <time>2021-02-28T10:15:34.595000+00:00</time>
      </trkpt>
      <trkpt lat="0" lon="0">
        <time>2021-02-28T10:15:34.598000+00:00</time>
      </trkpt>
      <trkpt lat="47.31432" lon="-1.40122">
        <ele>104</ele>
        <time>2021-02-28T10:15:35.546000+00:00</time>
      </trkpt>
      <trkpt lat="0" lon="0">
        <time>2021-02-28T10:15:35.561000+00:00</time>
      </trkpt>
      <trkpt lat="0" lon="0">
        <time>2021-02-28T10:15:35.568000+00:00</time>
      </trkpt>
      <trkpt lat="0" lon="0">
        <time>2021-02-28T10:15:35.571000+00:00</time>
      </trkpt>
      <trkpt lat="47.31431" lon="-1.40121">
        <ele>104</ele>
        <time>2021-02-28T10:15:36.518000+00:00</time>
      </trkpt>
      <trkpt lat="0" lon="0">
        <time>2021-02-28T10:15:36.525000+00:00</time>
      </trkpt>
      <trkpt lat="0" lon="0">
        <time>2021-02-28T10:15:36.531000+00:00</time>
      </trkpt>
      <trkpt lat="0" lon="0">
        <time>2021-02-28T10:15:36.534000+00:00</time>
      </trkpt>
      <trkpt lat="47.31431" lon="-1.4012">
        <ele>104</ele>
        <time>2021-02-28T10:15:37.508000+00:00</time>
      </trkpt>
      <trkpt lat="0" lon="0">
        <time>2021-02-28T10:15:37.514000+00:00</time>
      </trkpt>
      <trkpt lat="0" lon="0">
        <time>2021-02-28T10:15:37.521000+00:00</time>
      </trkpt>
      <trkpt lat="0" lon="0">
        <time>2021-02-28T10:15:37.525000+00:00</time>
      </trkpt>
      <trkpt lat="47.3143" lon="-1.40119">
        <ele>104</ele>
        <time>2021-02-28T10:15:38.496000+00:00</time>
      </trkpt>
      <trkpt lat="0" lon="0">
        <time>2021-02-28T10:15:38.499000+00:00</time>
      </trkpt>
      <trkpt lat="0" lon="0">
        <time>2021-02-28T10:15:38.501000+00:00</time>
      </trkpt>
      <trkpt lat="0" lon="0">
        <time>2021-02-28T10:15:38.503000+00:00</time>
      </trkpt>
      <trkpt lat="47.3143" lon="-1.40118">
        <ele>104</ele>
        <time>2021-02-28T10:15:39.496000+00:00</time>
      </trkpt>
      <trkpt lat="0" lon="0">
        <time>2021-02-28T10:15:39.512000+00:00</time>
      </trkpt>
      <trkpt lat="0" lon="0">
        <time>2021-02-28T10:15:39.518000+00:00</time>
      </trkpt>
      <trkpt lat="0" lon="0">
        <time>2021-02-28T10:15:39.521000+00:00</time>
      </trkpt>
      <trkpt lat="47.3143" lon="-1.40117">
        <ele>104</ele>
        <time>2021-02-28T10:15:40.489000+00:00</time>
      </trkpt>
      <trkpt lat="0" lon="0">
        <time>2021-02-28T10:15:40.506000+00:00</time>
      </trkpt>
      <trkpt lat="0" lon="0">
        <time>2021-02-28T10:15:40.511000+00:00</time>
      </trkpt>
      <trkpt lat="0" lon="0">
        <time>2021-02-28T10:15:40.513000+00:00</time>
      </trkpt>
      <trkpt lat="47.3143" lon="-1.40116">
        <ele>104</ele>
        <time>2021-02-28T10:15:41.558000+00:00</time>
      </trkpt>
      <trkpt lat="0" lon="0">
        <time>2021-02-28T10:15:41.570000+00:00</time>
      </trkpt>
      <trkpt lat="0" lon="0">
        <time>2021-02-28T10:15:41.576000+00:00</time>
      </trkpt>
      <trkpt lat="0" lon="0">
        <time>2021-02-28T10:15:41.591000+00:00</time>
      </trkpt>
      <trkpt lat="47.3143" lon="-1.40101">
        <ele>103</ele>
        <time>2021-02-28T10:15:42.539000+00:00</time>
      </trkpt>
      <trkpt lat="0" lon="0">
        <time>2021-02-28T10:15:42.544000+00:00</time>
      </trkpt>
      <trkpt lat="0" lon="0">
        <time>2021-02-28T10:15:42.551000+00:00</time>
      </trkpt>
      <trkpt lat="0" lon="0">
        <time>2021-02-28T10:15:42.553000+00:00</time>
      </trkpt>
      <trkpt lat="47.31431" lon="-1.40097">
        <ele>103</ele>
        <time>2021-02-28T10:15:43.659000+00:00</time>
      </trkpt>
      <trkpt lat="0" lon="0">
        <time>2021-02-28T10:15:43.663000+00:00</time>
      </trkpt>
      <trkpt lat="0" lon="0">
        <time>2021-02-28T10:15:43.665000+00:00</time>
      </trkpt>
      <trkpt lat="0" lon="0">
        <time>2021-02-28T10:15:43.667000+00:00</time>
      </trkpt>
      <trkpt lat="47.31431" lon="-1.40094">
        <ele>103</ele>
        <time>2021-02-28T10:15:44.636000+00:00</time>
      </trkpt>
      <trkpt lat="0" lon="0">
        <time>2021-02-28T10:15:44.641000+00:00</time>
      </trkpt>
      <trkpt lat="0" lon="0">
        <time>2021-02-28T10:15:44.646000+00:00</time>
      </trkpt>
      <trkpt lat="0" lon="0">
        <time>2021-02-28T10:15:44.648000+00:00</time>
      </trkpt>
      <trkpt lat="47.31431" lon="-1.4009">
        <ele>103</ele>
        <time>2021-02-28T10:15:45.635000+00:00</time>
      </trkpt>
      <trkpt lat="0" lon="0">
        <time>2021-02-28T10:15:45.641000+00:00</time>
      </trkpt>
      <trkpt lat="0" lon="0">
        <time>2021-02-28T10:15:45.645000+00:00</time>
      </trkpt>
      <trkpt lat="0" lon="0">
        <time>2021-02-28T10:15:45.648000+00:00</time>
      </trkpt>
      <trkpt lat="47.31431" lon="-1.40086">
        <ele>103</ele>
        <time>2021-02-28T10:15:46.634000+00:00</time>
      </trkpt>
      <trkpt lat="0" lon="0">
        <time>2021-02-28T10:15:46.640000+00:00</time>
      </trkpt>
      <trkpt lat="0" lon="0">
        <time>2021-02-28T10:15:46.644000+00:00</time>
      </trkpt>
      <trkpt lat="0" lon="0">
        <time>2021-02-28T10:15:46.650000+00:00</time>
      </trkpt>
      <trkpt lat="47.31431" lon="-1.40083">
        <ele>102</ele>
        <time>2021-02-28T10:15:47.626000+00:00</time>
      </trkpt>
      <trkpt lat="0" lon="0">
        <time>2021-02-28T10:15:47.633000+00:00</time>
      </trkpt>
      <trkpt lat="0" lon="0">
        <time>2021-02-28T10:15:47.637000+00:00</time>
      </trkpt>
      <trkpt lat="0" lon="0">
        <time>2021-02-28T10:15:47.639000+00:00</time>
      </trkpt>
      <trkpt lat="47.31432" lon="-1.40079">
        <ele>102</ele>
        <time>2021-02-28T10:15:48.611000+00:00</time>
      </trkpt>
      <trkpt lat="0" lon="0">
        <time>2021-02-28T10:15:48.626000+00:00</time>
      </trkpt>
      <trkpt lat="0" lon="0">
        <time>2021-02-28T10:15:48.630000+00:00</time>
      </trkpt>
      <trkpt lat="0" lon="0">
        <time>2021-02-28T10:15:48.632000+00:00</time>
      </trkpt>
      <trkpt lat="47.31432" lon="-1.40076">
        <ele>102</ele>
        <time>2021-02-28T10:15:49.602000+00:00</time>
      </trkpt>
      <trkpt lat="0" lon="0">
        <time>2021-02-28T10:15:49.609000+00:00</time>
      </trkpt>
      <trkpt lat="0" lon="0">
        <time>2021-02-28T10:15:49.614000+00:00</time>
      </trkpt>
      <trkpt lat="0" lon="0">
        <time>2021-02-28T10:15:49.617000+00:00</time>
      </trkpt>
      <trkpt lat="47.31432" lon="-1.40073">
        <ele>102</ele>
        <time>2021-02-28T10:15:50.587000+00:00</time>
      </trkpt>
      <trkpt lat="0" lon="0">
        <time>2021-02-28T10:15:50.592000+00:00</time>
      </trkpt>
      <trkpt lat="0" lon="0">
        <time>2021-02-28T10:15:50.600000+00:00</time>
      </trkpt>
      <trkpt lat="0" lon="0">
        <time>2021-02-28T10:15:50.602000+00:00</time>
      </trkpt>
      <trkpt lat="47.31433" lon="-1.4007">
        <ele>102</ele>
        <time>2021-02-28T10:15:51.538000+00:00</time>
      </trkpt>
      <trkpt lat="0" lon="0">
        <time>2021-02-28T10:15:51.545000+00:00</time>
      </trkpt>
      <trkpt lat="0" lon="0">
        <time>2021-02-28T10:15:51.550000+00:00</time>
      </trkpt>
      <trkpt lat="0" lon="0">
        <time>2021-02-28T10:15:51.553000+00:00</time>
      </trkpt>
      <trkpt lat="47.31434" lon="-1.40067">
        <ele>101</ele>
        <time>2021-02-28T10:15:52.602000+00:00</time>
      </trkpt>
      <trkpt lat="0" lon="0">
        <time>2021-02-28T10:15:52.610000+00:00</time>
      </trkpt>
      <trkpt lat="0" lon="0">
        <time>2021-02-28T10:15:52.617000+00:00</time>
      </trkpt>
      <trkpt lat="0" lon="0">
        <time>2021-02-28T10:15:52.619000+00:00</time>
      </trkpt>
      <trkpt lat="47.31435" lon="-1.40064">
        <ele>100</ele>
        <time>2021-02-28T10:15:53.543000+00:00</time>
      </trkpt>
      <trkpt lat="0" lon="0">
        <time>2021-02-28T10:15:53.548000+00:00</time>
      </trkpt>
      <trkpt lat="0" lon="0">
        <time>2021-02-28T10:15:53.554000+00:00</time>
      </trkpt>
      <trkpt lat="0" lon="0">
        <time>2021-02-28T10:15:53.557000+00:00</time>
      </trkpt>
      <trkpt lat="47.31436" lon="-1.40061">
        <ele>100</ele>
        <time>2021-02-28T10:15:54.559000+00:00</time>
      </trkpt>
      <trkpt lat="0" lon="0">
        <time>2021-02-28T10:15:54.567000+00:00</time>
      </trkpt>
      <trkpt lat="0" lon="0">
        <time>2021-02-28T10:15:54.573000+00:00</time>
      </trkpt>
      <trkpt lat="0" lon="0">
        <time>2021-02-28T10:15:54.578000+00:00</time>
      </trkpt>
      <trkpt lat="47.31437" lon="-1.40058">
        <ele>99</ele>
        <time>2021-02-28T10:15:55.627000+00:00</time>
      </trkpt>
      <trkpt lat="0" lon="0">
        <time>2021-02-28T10:15:55.641000+00:00</time>
      </trkpt>
      <trkpt lat="0" lon="0">
        <time>2021-02-28T10:15:55.648000+00:00</time>
      </trkpt>
      <trkpt lat="0" lon="0">
        <time>2021-02-28T10:15:55.651000+00:00</time>
      </trkpt>
      <trkpt lat="47.31438" lon="-1.40055">
        <ele>99</ele>
        <time>2021-02-28T10:15:56.557000+00:00</time>
      </trkpt>
      <trkpt lat="0" lon="0">
        <time>2021-02-28T10:15:56.561000+00:00</time>
      </trkpt>
      <trkpt lat="0" lon="0">
        <time>2021-02-28T10:15:56.564000+00:00</time>
      </trkpt>
      <trkpt lat="0" lon="0">
        <time>2021-02-28T10:15:56.566000+00:00</time>
      </trkpt>
      <trkpt lat="47.31439" lon="-1.40052">
        <ele>99</ele>
        <time>2021-02-28T10:15:57.598000+00:00</time>
      </trkpt>
      <trkpt lat="0" lon="0">
        <time>2021-02-28T10:15:57.612000+00:00</time>
      </trkpt>
      <trkpt lat="0" lon="0">
        <time>2021-02-28T10:15:57.618000+00:00</time>
      </trkpt>
      <trkpt lat="0" lon="0">
        <time>2021-02-28T10:15:57.621000+00:00</time>
      </trkpt>
      <trkpt lat="47.31441" lon="-1.40049">
        <ele>99</ele>
        <time>2021-02-28T10:15:58.581000+00:00</time>
      </trkpt>
      <trkpt lat="0" lon="0">
        <time>2021-02-28T10:15:58.587000+00:00</time>
      </trkpt>
      <trkpt lat="0" lon="0">
        <time>2021-02-28T10:15:58.593000+00:00</time>
      </trkpt>
      <trkpt lat="0" lon="0">
        <time>2021-02-28T10:15:58.596000+00:00</time>
      </trkpt>
      <trkpt lat="47.31442" lon="-1.40046">
        <ele>99</ele>
        <time>2021-02-28T10:15:59.580000+00:00</time>
      </trkpt>
      <trkpt lat="0" lon="0">
        <time>2021-02-28T10:15:59.593000+00:00</time>
      </trkpt>
      <trkpt lat="0" lon="0">
        <time>2021-02-28T10:15:59.598000+00:00</time>
      </trkpt>
      <trkpt lat="0" lon="0">
        <time>2021-02-28T10:15:59.601000+00:00</time>
      </trkpt>
      <trkpt lat="47.31443" lon="-1.40043">
        <ele>100</ele>
        <time>2021-02-28T10:16:00.579000+00:00</time>
      </trkpt>
      <trkpt lat="0" lon="0">
        <time>2021-02-28T10:16:00.585000+00:00</time>
      </trkpt>
      <trkpt lat="0" lon="0">
        <time>2021-02-28T10:16:00.587000+00:00</time>
      </trkpt>
      <trkpt lat="0" lon="0">
        <time>2021-02-28T10:16:00.588000+00:00</time>
      </trkpt>
      <trkpt lat="47.31444" lon="-1.4004">
        <ele>100</ele>
        <time>2021-02-28T10:16:01.610000+00:00</time>
      </trkpt>
      <trkpt lat="0" lon="0">
        <time>2021-02-28T10:16:01.633000+00:00</time>
      </trkpt>
      <trkpt lat="0" lon="0">
        <time>2021-02-28T10:16:01.639000+00:00</time>
      </trkpt>
      <trkpt lat="0" lon="0">
        <time>2021-02-28T10:16:01.641000+00:00</time>
      </trkpt>
      <trkpt lat="47.31444" lon="-1.40038">
        <ele>100</ele>
        <time>2021-02-28T10:16:02.565000+00:00</time>
      </trkpt>
      <trkpt lat="0" lon="0">
        <time>2021-02-28T10:16:02.572000+00:00</time>
      </trkpt>
      <trkpt lat="0" lon="0">
        <time>2021-02-28T10:16:02.577000+00:00</time>
      </trkpt>
      <trkpt lat="0" lon="0">
        <time>2021-02-28T10:16:02.579000+00:00</time>
      </trkpt>
      <trkpt lat="47.31445" lon="-1.40035">
        <ele>100</ele>
        <time>2021-02-28T10:16:03.597000+00:00</time>
      </trkpt>
      <trkpt lat="0" lon="0">
        <time>2021-02-28T10:16:03.607000+00:00</time>
      </trkpt>
      <trkpt lat="0" lon="0">
        <time>2021-02-28T10:16:03.612000+00:00</time>
      </trkpt>
      <trkpt lat="0" lon="0">
        <time>2021-02-28T10:16:03.614000+00:00</time>
      </trkpt>
      <trkpt lat="47.31446" lon="-1.40033">
        <ele>100</ele>
        <time>2021-02-28T10:16:04.617000+00:00</time>
      </trkpt>
      <trkpt lat="0" lon="0">
        <time>2021-02-28T10:16:04.627000+00:00</time>
      </trkpt>
      <trkpt lat="0" lon="0">
        <time>2021-02-28T10:16:04.633000+00:00</time>
      </trkpt>
      <trkpt lat="0" lon="0">
        <time>2021-02-28T10:16:04.637000+00:00</time>
      </trkpt>
      <trkpt lat="47.31446" lon="-1.40032">
        <ele>100</ele>
        <time>2021-02-28T10:16:05.580000+00:00</time>
      </trkpt>
      <trkpt lat="0" lon="0">
        <time>2021-02-28T10:16:05.586000+00:00</time>
      </trkpt>
      <trkpt lat="0" lon="0">
        <time>2021-02-28T10:16:05.591000+00:00</time>
      </trkpt>
      <trkpt lat="0" lon="0">
        <time>2021-02-28T10:16:05.595000+00:00</time>
      </trkpt>
      <trkpt lat="47.31446" lon="-1.40031">
        <ele>100</ele>
        <time>2021-02-28T10:16:06.640000+00:00</time>
      </trkpt>
      <trkpt lat="0" lon="0">
        <time>2021-02-28T10:16:06.643000+00:00</time>
      </trkpt>
      <trkpt lat="0" lon="0">
        <time>2021-02-28T10:16:06.647000+00:00</time>
      </trkpt>
      <trkpt lat="0" lon="0">
        <time>2021-02-28T10:16:06.648000+00:00</time>
      </trkpt>
      <trkpt lat="47.31446" lon="-1.4003">
        <ele>100</ele>
        <time>2021-02-28T10:16:07.644000+00:00</time>
      </trkpt>
      <trkpt lat="0" lon="0">
        <time>2021-02-28T10:16:07.654000+00:00</time>
      </trkpt>
      <trkpt lat="0" lon="0">
        <time>2021-02-28T10:16:07.659000+00:00</time>
      </trkpt>
      <trkpt lat="0" lon="0">
        <time>2021-02-28T10:16:07.662000+00:00</time>
      </trkpt>
      <trkpt lat="47.31447" lon="-1.40029">
        <ele>100</ele>
        <time>2021-02-28T10:16:08.607000+00:00</time>
      </trkpt>
      <trkpt lat="0" lon="0">
        <time>2021-02-28T10:16:08.617000+00:00</time>
      </trkpt>
      <trkpt lat="0" lon="0">
        <time>2021-02-28T10:16:08.625000+00:00</time>
      </trkpt>
      <trkpt lat="0" lon="0">
        <time>2021-02-28T10:16:08.628000+00:00</time>
      </trkpt>
      <trkpt lat="47.31447" lon="-1.40029">
        <ele>100</ele>
        <time>2021-02-28T10:16:09.641000+00:00</time>
      </trkpt>
      <trkpt lat="0" lon="0">
        <time>2021-02-28T10:16:09.646000+00:00</time>
      </trkpt>
      <trkpt lat="0" lon="0">
        <time>2021-02-28T10:16:09.656000+00:00</time>
      </trkpt>
      <trkpt lat="0" lon="0">
        <time>2021-02-28T10:16:09.660000+00:00</time>
      </trkpt>
      <trkpt lat="47.31447" lon="-1.40028">
        <ele>100</ele>
        <time>2021-02-28T10:16:10.608000+00:00</time>
      </trkpt>
      <trkpt lat="0" lon="0">
        <time>2021-02-28T10:16:10.614000+00:00</time>
      </trkpt>
      <trkpt lat="0" lon="0">
        <time>2021-02-28T10:16:10.620000+00:00</time>
      </trkpt>
      <trkpt lat="0" lon="0">
        <time>2021-02-28T10:16:10.623000+00:00</time>
      </trkpt>
      <trkpt lat="47.31447" lon="-1.40028">
        <ele>99</ele>
        <time>2021-02-28T10:16:11.607000+00:00</time>
      </trkpt>
      <trkpt lat="0" lon="0">
        <time>2021-02-28T10:16:11.619000+00:00</time>
      </trkpt>
      <trkpt lat="0" lon="0">
        <time>2021-02-28T10:16:11.625000+00:00</time>
      </trkpt>
      <trkpt lat="0" lon="0">
        <time>2021-02-28T10:16:11.630000+00:00</time>
      </trkpt>
      <trkpt lat="47.31447" lon="-1.40028">
        <ele>99</ele>
        <time>2021-02-28T10:16:12.613000+00:00</time>
      </trkpt>
      <trkpt lat="0" lon="0">
        <time>2021-02-28T10:16:12.629000+00:00</time>
      </trkpt>
      <trkpt lat="0" lon="0">
        <time>2021-02-28T10:16:12.635000+00:00</time>
      </trkpt>
      <trkpt lat="0" lon="0">
        <time>2021-02-28T10:16:12.637000+00:00</time>
      </trkpt>
      <trkpt lat="47.31447" lon="-1.40028">
        <ele>99</ele>
        <time>2021-02-28T10:16:13.642000+00:00</time>
      </trkpt>
      <trkpt lat="0" lon="0">
        <time>2021-02-28T10:16:13.654000+00:00</time>
      </trkpt>
      <trkpt lat="0" lon="0">
        <time>2021-02-28T10:16:13.660000+00:00</time>
      </trkpt>
      <trkpt lat="0" lon="0">
        <time>2021-02-28T10:16:13.663000+00:00</time>
      </trkpt>
      <trkpt lat="47.31447" lon="-1.40028">
        <ele>99</ele>
        <time>2021-02-28T10:16:14.577000+00:00</time>
      </trkpt>
      <trkpt lat="0" lon="0">
        <time>2021-02-28T10:16:14.582000+00:00</time>
      </trkpt>
      <trkpt lat="0" lon="0">
        <time>2021-02-28T10:16:14.590000+00:00</time>
      </trkpt>
      <trkpt lat="0" lon="0">
        <time>2021-02-28T10:16:14.593000+00:00</time>
      </trkpt>
      <trkpt lat="47.31447" lon="-1.40027">
        <ele>100</ele>
        <time>2021-02-28T10:16:15.630000+00:00</time>
      </trkpt>
      <trkpt lat="0" lon="0">
        <time>2021-02-28T10:16:15.644000+00:00</time>
      </trkpt>
      <trkpt lat="0" lon="0">
        <time>2021-02-28T10:16:15.650000+00:00</time>
      </trkpt>
      <trkpt lat="0" lon="0">
        <time>2021-02-28T10:16:15.659000+00:00</time>
      </trkpt>
      <trkpt lat="47.31449" lon="-1.39994">
        <ele>84</ele>
        <time>2021-02-28T10:16:16.686000+00:00</time>
      </trkpt>
      <trkpt lat="0" lon="0">
        <time>2021-02-28T10:16:16.691000+00:00</time>
      </trkpt>
      <trkpt lat="0" lon="0">
        <time>2021-02-28T10:16:16.696000+00:00</time>
      </trkpt>
      <trkpt lat="0" lon="0">
        <time>2021-02-28T10:16:16.698000+00:00</time>
      </trkpt>
      <trkpt lat="47.31449" lon="-1.39992">
        <ele>84</ele>
        <time>2021-02-28T10:16:17.705000+00:00</time>
      </trkpt>
      <trkpt lat="0" lon="0">
        <time>2021-02-28T10:16:17.709000+00:00</time>
      </trkpt>
      <trkpt lat="0" lon="0">
        <time>2021-02-28T10:16:17.717000+00:00</time>
      </trkpt>
      <trkpt lat="0" lon="0">
        <time>2021-02-28T10:16:17.720000+00:00</time>
      </trkpt>
      <trkpt lat="47.31449" lon="-1.39991">
        <ele>83</ele>
        <time>2021-02-28T10:16:18.702000+00:00</time>
      </trkpt>
      <trkpt lat="0" lon="0">
        <time>2021-02-28T10:16:18.706000+00:00</time>
      </trkpt>
      <trkpt lat="0" lon="0">
        <time>2021-02-28T10:16:18.715000+00:00</time>
      </trkpt>
      <trkpt lat="0" lon="0">
        <time>2021-02-28T10:16:18.717000+00:00</time>
      </trkpt>
      <trkpt lat="47.31449" lon="-1.39989">
        <ele>83</ele>
        <time>2021-02-28T10:16:19.608000+00:00</time>
      </trkpt>
      <trkpt lat="0" lon="0">
        <time>2021-02-28T10:16:19.613000+00:00</time>
      </trkpt>
      <trkpt lat="0" lon="0">
        <time>2021-02-28T10:16:19.618000+00:00</time>
      </trkpt>
      <trkpt lat="0" lon="0">
        <time>2021-02-28T10:16:19.620000+00:00</time>
      </trkpt>
      <trkpt lat="47.31449" lon="-1.39988">
        <ele>82</ele>
        <time>2021-02-28T10:16:20.727000+00:00</time>
      </trkpt>
      <trkpt lat="0" lon="0">
        <time>2021-02-28T10:16:20.734000+00:00</time>
      </trkpt>
      <trkpt lat="0" lon="0">
        <time>2021-02-28T10:16:20.739000+00:00</time>
      </trkpt>
      <trkpt lat="0" lon="0">
        <time>2021-02-28T10:16:20.742000+00:00</time>
      </trkpt>
      <trkpt lat="47.31449" lon="-1.39987">
        <ele>82</ele>
        <time>2021-02-28T10:16:21.675000+00:00</time>
      </trkpt>
      <trkpt lat="0" lon="0">
        <time>2021-02-28T10:16:21.684000+00:00</time>
      </trkpt>
      <trkpt lat="0" lon="0">
        <time>2021-02-28T10:16:21.689000+00:00</time>
      </trkpt>
      <trkpt lat="0" lon="0">
        <time>2021-02-28T10:16:21.691000+00:00</time>
      </trkpt>
      <trkpt lat="47.31449" lon="-1.39986">
        <ele>81</ele>
        <time>2021-02-28T10:16:22.734000+00:00</time>
      </trkpt>
      <trkpt lat="0" lon="0">
        <time>2021-02-28T10:16:22.741000+00:00</time>
      </trkpt>
      <trkpt lat="0" lon="0">
        <time>2021-02-28T10:16:22.748000+00:00</time>
      </trkpt>
      <trkpt lat="0" lon="0">
        <time>2021-02-28T10:16:22.751000+00:00</time>
      </trkpt>
      <trkpt lat="47.31449" lon="-1.39986">
        <ele>82</ele>
        <time>2021-02-28T10:16:23.711000+00:00</time>
      </trkpt>
      <trkpt lat="0" lon="0">
        <time>2021-02-28T10:16:23.718000+00:00</time>
      </trkpt>
      <trkpt lat="0" lon="0">
        <time>2021-02-28T10:16:23.724000+00:00</time>
      </trkpt>
      <trkpt lat="0" lon="0">
        <time>2021-02-28T10:16:23.727000+00:00</time>
      </trkpt>
      <trkpt lat="47.31449" lon="-1.39985">
        <ele>82</ele>
        <time>2021-02-28T10:16:24.697000+00:00</time>
      </trkpt>
      <trkpt lat="0" lon="0">
        <time>2021-02-28T10:16:24.700000+00:00</time>
      </trkpt>
      <trkpt lat="0" lon="0">
        <time>2021-02-28T10:16:24.703000+00:00</time>
      </trkpt>
      <trkpt lat="0" lon="0">
        <time>2021-02-28T10:16:24.705000+00:00</time>
      </trkpt>
      <trkpt lat="47.31449" lon="-1.39985">
        <ele>82</ele>
        <time>2021-02-28T10:16:25.614000+00:00</time>
      </trkpt>
      <trkpt lat="0" lon="0">
        <time>2021-02-28T10:16:25.623000+00:00</time>
      </trkpt>
      <trkpt lat="0" lon="0">
        <time>2021-02-28T10:16:25.627000+00:00</time>
      </trkpt>
      <trkpt lat="0" lon="0">
        <time>2021-02-28T10:16:25.638000+00:00</time>
      </trkpt>
      <trkpt lat="47.31417" lon="-1.3995">
        <ele>68</ele>
        <time>2021-02-28T10:16:26.662000+00:00</time>
      </trkpt>
      <trkpt lat="0" lon="0">
        <time>2021-02-28T10:16:26.670000+00:00</time>
      </trkpt>
      <trkpt lat="0" lon="0">
        <time>2021-02-28T10:16:26.677000+00:00</time>
      </trkpt>
      <trkpt lat="0" lon="0">
        <time>2021-02-28T10:16:26.679000+00:00</time>
      </trkpt>
      <trkpt lat="47.31416" lon="-1.39948">
        <ele>68</ele>
        <time>2021-02-28T10:16:27.601000+00:00</time>
      </trkpt>
      <trkpt lat="0" lon="0">
        <time>2021-02-28T10:16:27.610000+00:00</time>
      </trkpt>
      <trkpt lat="0" lon="0">
        <time>2021-02-28T10:16:27.615000+00:00</time>
      </trkpt>
      <trkpt lat="0" lon="0">
        <time>2021-02-28T10:16:27.618000+00:00</time>
      </trkpt>
      <trkpt lat="47.31415" lon="-1.39945">
        <ele>68</ele>
        <time>2021-02-28T10:16:28.649000+00:00</time>
      </trkpt>
      <trkpt lat="0" lon="0">
        <time>2021-02-28T10:16:28.654000+00:00</time>
      </trkpt>
      <trkpt lat="0" lon="0">
        <time>2021-02-28T10:16:28.658000+00:00</time>
      </trkpt>
      <trkpt lat="0" lon="0">
        <time>2021-02-28T10:16:28.661000+00:00</time>
      </trkpt>
      <trkpt lat="47.31414" lon="-1.39943">
        <ele>68</ele>
        <time>2021-02-28T10:16:29.629000+00:00</time>
      </trkpt>
      <trkpt lat="0" lon="0">
        <time>2021-02-28T10:16:29.638000+00:00</time>
      </trkpt>
      <trkpt lat="0" lon="0">
        <time>2021-02-28T10:16:29.644000+00:00</time>
      </trkpt>
      <trkpt lat="0" lon="0">
        <time>2021-02-28T10:16:29.647000+00:00</time>
      </trkpt>
      <trkpt lat="47.31412" lon="-1.39941">
        <ele>69</ele>
        <time>2021-02-28T10:16:30.625000+00:00</time>
      </trkpt>
      <trkpt lat="0" lon="0">
        <time>2021-02-28T10:16:30.629000+00:00</time>
      </trkpt>
      <trkpt lat="0" lon="0">
        <time>2021-02-28T10:16:30.634000+00:00</time>
      </trkpt>
      <trkpt lat="0" lon="0">
        <time>2021-02-28T10:16:30.637000+00:00</time>
      </trkpt>
      <trkpt lat="47.31411" lon="-1.39938">
        <ele>69</ele>
        <time>2021-02-28T10:16:31.634000+00:00</time>
      </trkpt>
      <trkpt lat="0" lon="0">
        <time>2021-02-28T10:16:31.645000+00:00</time>
      </trkpt>
      <trkpt lat="0" lon="0">
        <time>2021-02-28T10:16:31.650000+00:00</time>
      </trkpt>
      <trkpt lat="0" lon="0">
        <time>2021-02-28T10:16:31.653000+00:00</time>
      </trkpt>
      <trkpt lat="47.31409" lon="-1.39936">
        <ele>70</ele>
        <time>2021-02-28T10:16:32.612000+00:00</time>
      </trkpt>
      <trkpt lat="0" lon="0">
        <time>2021-02-28T10:16:32.618000+00:00</time>
      </trkpt>
      <trkpt lat="0" lon="0">
        <time>2021-02-28T10:16:32.625000+00:00</time>
      </trkpt>
      <trkpt lat="0" lon="0">
        <time>2021-02-28T10:16:32.628000+00:00</time>
      </trkpt>
      <trkpt lat="47.31408" lon="-1.39934">
        <ele>70</ele>
        <time>2021-02-28T10:16:33.638000+00:00</time>
      </trkpt>
      <trkpt lat="0" lon="0">
        <time>2021-02-28T10:16:33.647000+00:00</time>
      </trkpt>
      <trkpt lat="0" lon="0">
        <time>2021-02-28T10:16:33.651000+00:00</time>
      </trkpt>
      <trkpt lat="0" lon="0">
        <time>2021-02-28T10:16:33.654000+00:00</time>
      </trkpt>
      <trkpt lat="47.31406" lon="-1.39931">
        <ele>70</ele>
        <time>2021-02-28T10:16:34.658000+00:00</time>
      </trkpt>
      <trkpt lat="0" lon="0">
        <time>2021-02-28T10:16:34.663000+00:00</time>
      </trkpt>
      <trkpt lat="0" lon="0">
        <time>2021-02-28T10:16:34.673000+00:00</time>
      </trkpt>
      <trkpt lat="0" lon="0">
        <time>2021-02-28T10:16:34.677000+00:00</time>
      </trkpt>
      <trkpt lat="47.31405" lon="-1.39929">
        <ele>70</ele>
        <time>2021-02-28T10:16:35.646000+00:00</time>
      </trkpt>
      <trkpt lat="0" lon="0">
        <time>2021-02-28T10:16:35.660000+00:00</time>
      </trkpt>
      <trkpt lat="0" lon="0">
        <time>2021-02-28T10:16:35.669000+00:00</time>
      </trkpt>
      <trkpt lat="0" lon="0">
        <time>2021-02-28T10:16:35.675000+00:00</time>
      </trkpt>
      <trkpt lat="47.31403" lon="-1.39927">
        <ele>70</ele>
        <time>2021-02-28T10:16:36.638000+00:00</time>
      </trkpt>
      <trkpt lat="0" lon="0">
        <time>2021-02-28T10:16:36.650000+00:00</time>
      </trkpt>
      <trkpt lat="0" lon="0">
        <time>2021-02-28T10:16:36.655000+00:00</time>
      </trkpt>
      <trkpt lat="0" lon="0">
        <time>2021-02-28T10:16:36.657000+00:00</time>
      </trkpt>
      <trkpt lat="47.31402" lon="-1.39926">
        <ele>70</ele>
        <time>2021-02-28T10:16:37.643000+00:00</time>
      </trkpt>
      <trkpt lat="0" lon="0">
        <time>2021-02-28T10:16:37.653000+00:00</time>
      </trkpt>
      <trkpt lat="0" lon="0">
        <time>2021-02-28T10:16:37.661000+00:00</time>
      </trkpt>
      <trkpt lat="0" lon="0">
        <time>2021-02-28T10:16:37.663000+00:00</time>
      </trkpt>
      <trkpt lat="47.31401" lon="-1.39925">
        <ele>70</ele>
        <time>2021-02-28T10:16:38.628000+00:00</time>
      </trkpt>
      <trkpt lat="0" lon="0">
        <time>2021-02-28T10:16:38.635000+00:00</time>
      </trkpt>
      <trkpt lat="0" lon="0">
        <time>2021-02-28T10:16:38.640000+00:00</time>
      </trkpt>
      <trkpt lat="0" lon="0">
        <time>2021-02-28T10:16:38.643000+00:00</time>
      </trkpt>
      <trkpt lat="47.314" lon="-1.39923">
        <ele>70</ele>
        <time>2021-02-28T10:16:39.555000+00:00</time>
      </trkpt>
      <trkpt lat="0" lon="0">
        <time>2021-02-28T10:16:39.560000+00:00</time>
      </trkpt>
      <trkpt lat="0" lon="0">
        <time>2021-02-28T10:16:39.565000+00:00</time>
      </trkpt>
      <trkpt lat="0" lon="0">
        <time>2021-02-28T10:16:39.569000+00:00</time>
      </trkpt>
      <trkpt lat="47.31399" lon="-1.39921">
        <ele>70</ele>
        <time>2021-02-28T10:16:40.556000+00:00</time>
      </trkpt>
      <trkpt lat="0" lon="0">
        <time>2021-02-28T10:16:40.561000+00:00</time>
      </trkpt>
      <trkpt lat="0" lon="0">
        <time>2021-02-28T10:16:40.565000+00:00</time>
      </trkpt>
      <trkpt lat="0" lon="0">
        <time>2021-02-28T10:16:40.567000+00:00</time>
      </trkpt>
      <trkpt lat="47.31398" lon="-1.3992">
        <ele>71</ele>
        <time>2021-02-28T10:16:41.615000+00:00</time>
      </trkpt>
      <trkpt lat="0" lon="0">
        <time>2021-02-28T10:16:41.623000+00:00</time>
      </trkpt>
      <trkpt lat="0" lon="0">
        <time>2021-02-28T10:16:41.628000+00:00</time>
      </trkpt>
      <trkpt lat="0" lon="0">
        <time>2021-02-28T10:16:41.631000+00:00</time>
      </trkpt>
      <trkpt lat="47.31397" lon="-1.39918">
        <ele>72</ele>
        <time>2021-02-28T10:16:42.605000+00:00</time>
      </trkpt>
      <trkpt lat="0" lon="0">
        <time>2021-02-28T10:16:42.611000+00:00</time>
      </trkpt>
      <trkpt lat="0" lon="0">
        <time>2021-02-28T10:16:42.615000+00:00</time>
      </trkpt>
      <trkpt lat="0" lon="0">
        <time>2021-02-28T10:16:42.618000+00:00</time>
      </trkpt>
      <trkpt lat="47.31396" lon="-1.39916">
        <ele>73</ele>
        <time>2021-02-28T10:16:43.603000+00:00</time>
      </trkpt>
      <trkpt lat="0" lon="0">
        <time>2021-02-28T10:16:43.618000+00:00</time>
      </trkpt>
      <trkpt lat="0" lon="0">
        <time>2021-02-28T10:16:43.623000+00:00</time>
      </trkpt>
      <trkpt lat="0" lon="0">
        <time>2021-02-28T10:16:43.626000+00:00</time>
      </trkpt>
      <trkpt lat="47.31395" lon="-1.39914">
        <ele>74</ele>
        <time>2021-02-28T10:16:44.668000+00:00</time>
      </trkpt>
      <trkpt lat="0" lon="0">
        <time>2021-02-28T10:16:44.684000+00:00</time>
      </trkpt>
      <trkpt lat="0" lon="0">
        <time>2021-02-28T10:16:44.693000+00:00</time>
      </trkpt>
      <trkpt lat="0" lon="0">
        <time>2021-02-28T10:16:44.697000+00:00</time>
      </trkpt>
      <trkpt lat="47.31394" lon="-1.39912">
        <ele>74</ele>
        <time>2021-02-28T10:16:45.647000+00:00</time>
      </trkpt>
      <trkpt lat="0" lon="0">
        <time>2021-02-28T10:16:45.655000+00:00</time>
      </trkpt>
      <trkpt lat="0" lon="0">
        <time>2021-02-28T10:16:45.661000+00:00</time>
      </trkpt>
      <trkpt lat="0" lon="0">
        <time>2021-02-28T10:16:45.664000+00:00</time>
      </trkpt>
      <trkpt lat="47.31393" lon="-1.3991">
        <ele>74</ele>
        <time>2021-02-28T10:16:46.653000+00:00</time>
      </trkpt>
      <trkpt lat="0" lon="0">
        <time>2021-02-28T10:16:46.661000+00:00</time>
      </trkpt>
      <trkpt lat="0" lon="0">
        <time>2021-02-28T10:16:46.666000+00:00</time>
      </trkpt>
      <trkpt lat="0" lon="0">
        <time>2021-02-28T10:16:46.668000+00:00</time>
      </trkpt>
      <trkpt lat="47.31392" lon="-1.39908">
        <ele>75</ele>
        <time>2021-02-28T10:16:47.623000+00:00</time>
      </trkpt>
      <trkpt lat="0" lon="0">
        <time>2021-02-28T10:16:47.633000+00:00</time>
      </trkpt>
      <trkpt lat="0" lon="0">
        <time>2021-02-28T10:16:47.639000+00:00</time>
      </trkpt>
      <trkpt lat="0" lon="0">
        <time>2021-02-28T10:16:47.647000+00:00</time>
      </trkpt>
      <trkpt lat="47.31391" lon="-1.39906">
        <ele>75</ele>
        <time>2021-02-28T10:16:48.615000+00:00</time>
      </trkpt>
      <trkpt lat="0" lon="0">
        <time>2021-02-28T10:16:48.629000+00:00</time>
      </trkpt>
      <trkpt lat="0" lon="0">
        <time>2021-02-28T10:16:48.635000+00:00</time>
      </trkpt>
      <trkpt lat="0" lon="0">
        <time>2021-02-28T10:16:48.637000+00:00</time>
      </trkpt>
      <trkpt lat="47.3139" lon="-1.39904">
        <ele>75</ele>
        <time>2021-02-28T10:16:49.637000+00:00</time>
      </trkpt>
      <trkpt lat="0" lon="0">
        <time>2021-02-28T10:16:49.646000+00:00</time>
      </trkpt>
      <trkpt lat="0" lon="0">
        <time>2021-02-28T10:16:49.651000+00:00</time>
      </trkpt>
      <trkpt lat="0" lon="0">
        <time>2021-02-28T10:16:49.653000+00:00</time>
      </trkpt>
      <trkpt lat="47.31389" lon="-1.39902">
        <ele>75</ele>
        <time>2021-02-28T10:16:50.622000+00:00</time>
      </trkpt>
      <trkpt lat="0" lon="0">
        <time>2021-02-28T10:16:50.633000+00:00</time>
      </trkpt>
      <trkpt lat="0" lon="0">
        <time>2021-02-28T10:16:50.641000+00:00</time>
      </trkpt>
      <trkpt lat="0" lon="0">
        <time>2021-02-28T10:16:50.643000+00:00</time>
      </trkpt>
      <trkpt lat="47.31388" lon="-1.399">
        <ele>76</ele>
        <time>2021-02-28T10:16:51.615000+00:00</time>
      </trkpt>
      <trkpt lat="0" lon="0">
        <time>2021-02-28T10:16:51.628000+00:00</time>
      </trkpt>
      <trkpt lat="0" lon="0">
        <time>2021-02-28T10:16:51.640000+00:00</time>
      </trkpt>
      <trkpt lat="0" lon="0">
        <time>2021-02-28T10:16:51.643000+00:00</time>
      </trkpt>
      <trkpt lat="47.31387" lon="-1.39898">
        <ele>76</ele>
        <time>2021-02-28T10:16:52.611000+00:00</time>
      </trkpt>
      <trkpt lat="0" lon="0">
        <time>2021-02-28T10:16:52.617000+00:00</time>
      </trkpt>
      <trkpt lat="0" lon="0">
        <time>2021-02-28T10:16:52.622000+00:00</time>
      </trkpt>
      <trkpt lat="0" lon="0">
        <time>2021-02-28T10:16:52.625000+00:00</time>
      </trkpt>
      <trkpt lat="47.31385" lon="-1.39896">
        <ele>76</ele>
        <time>2021-02-28T10:16:53.659000+00:00</time>
      </trkpt>
      <trkpt lat="0" lon="0">
        <time>2021-02-28T10:16:53.662000+00:00</time>
      </trkpt>
      <trkpt lat="0" lon="0">
        <time>2021-02-28T10:16:53.664000+00:00</time>
      </trkpt>
      <trkpt lat="0" lon="0">
        <time>2021-02-28T10:16:53.665000+00:00</time>
      </trkpt>
      <trkpt lat="47.31384" lon="-1.39894">
        <ele>77</ele>
        <time>2021-02-28T10:16:54.607000+00:00</time>
      </trkpt>
      <trkpt lat="0" lon="0">
        <time>2021-02-28T10:16:54.618000+00:00</time>
      </trkpt>
      <trkpt lat="0" lon="0">
        <time>2021-02-28T10:16:54.623000+00:00</time>
      </trkpt>
      <trkpt lat="0" lon="0">
        <time>2021-02-28T10:16:54.625000+00:00</time>
      </trkpt>
      <trkpt lat="47.31382" lon="-1.39892">
        <ele>78</ele>
        <time>2021-02-28T10:16:55.631000+00:00</time>
      </trkpt>
      <trkpt lat="0" lon="0">
        <time>2021-02-28T10:16:55.638000+00:00</time>
      </trkpt>
      <trkpt lat="0" lon="0">
        <time>2021-02-28T10:16:55.645000+00:00</time>
      </trkpt>
      <trkpt lat="0" lon="0">
        <time>2021-02-28T10:16:55.647000+00:00</time>
      </trkpt>
      <trkpt lat="47.3138" lon="-1.3989">
        <ele>78</ele>
        <time>2021-02-28T10:16:56.614000+00:00</time>
      </trkpt>
      <trkpt lat="0" lon="0">
        <time>2021-02-28T10:16:56.625000+00:00</time>
      </trkpt>
      <trkpt lat="0" lon="0">
        <time>2021-02-28T10:16:56.630000+00:00</time>
      </trkpt>
      <trkpt lat="0" lon="0">
        <time>2021-02-28T10:16:56.633000+00:00</time>
      </trkpt>
      <trkpt lat="47.31378" lon="-1.39888">
        <ele>78</ele>
        <time>2021-02-28T10:16:57.641000+00:00</time>
      </trkpt>
      <trkpt lat="0" lon="0">
        <time>2021-02-28T10:16:57.652000+00:00</time>
      </trkpt>
      <trkpt lat="0" lon="0">
        <time>2021-02-28T10:16:57.657000+00:00</time>
      </trkpt>
      <trkpt lat="0" lon="0">
        <time>2021-02-28T10:16:57.660000+00:00</time>
      </trkpt>
      <trkpt lat="47.31377" lon="-1.39886">
        <ele>79</ele>
        <time>2021-02-28T10:16:58.651000+00:00</time>
      </trkpt>
      <trkpt lat="0" lon="0">
        <time>2021-02-28T10:16:58.659000+00:00</time>
      </trkpt>
      <trkpt lat="0" lon="0">
        <time>2021-02-28T10:16:58.666000+00:00</time>
      </trkpt>
      <trkpt lat="0" lon="0">
        <time>2021-02-28T10:16:58.670000+00:00</time>
      </trkpt>
      <trkpt lat="47.31375" lon="-1.39883">
        <ele>79</ele>
        <time>2021-02-28T10:16:59.578000+00:00</time>
      </trkpt>
      <trkpt lat="0" lon="0">
        <time>2021-02-28T10:16:59.584000+00:00</time>
      </trkpt>
      <trkpt lat="0" lon="0">
        <time>2021-02-28T10:16:59.589000+00:00</time>
      </trkpt>
      <trkpt lat="0" lon="0">
        <time>2021-02-28T10:16:59.591000+00:00</time>
      </trkpt>
      <trkpt lat="47.31373" lon="-1.39881">
        <ele>79</ele>
        <time>2021-02-28T10:17:00.662000+00:00</time>
      </trkpt>
      <trkpt lat="0" lon="0">
        <time>2021-02-28T10:17:00.668000+00:00</time>
      </trkpt>
      <trkpt lat="0" lon="0">
        <time>2021-02-28T10:17:00.676000+00:00</time>
      </trkpt>
      <trkpt lat="0" lon="0">
        <time>2021-02-28T10:17:00.679000+00:00</time>
      </trkpt>
      <trkpt lat="47.31372" lon="-1.39879">
        <ele>80</ele>
        <time>2021-02-28T10:17:01.632000+00:00</time>
      </trkpt>
      <trkpt lat="0" lon="0">
        <time>2021-02-28T10:17:01.639000+00:00</time>
      </trkpt>
      <trkpt lat="0" lon="0">
        <time>2021-02-28T10:17:01.644000+00:00</time>
      </trkpt>
      <trkpt lat="0" lon="0">
        <time>2021-02-28T10:17:01.647000+00:00</time>
      </trkpt>
      <trkpt lat="47.31371" lon="-1.39877">
        <ele>81</ele>
        <time>2021-02-28T10:17:02.634000+00:00</time>
      </trkpt>
      <trkpt lat="0" lon="0">
        <time>2021-02-28T10:17:02.640000+00:00</time>
      </trkpt>
      <trkpt lat="0" lon="0">
        <time>2021-02-28T10:17:02.646000+00:00</time>
      </trkpt>
      <trkpt lat="0" lon="0">
        <time>2021-02-28T10:17:02.649000+00:00</time>
      </trkpt>
      <trkpt lat="47.3137" lon="-1.39875">
        <ele>82</ele>
        <time>2021-02-28T10:17:03.646000+00:00</time>
      </trkpt>
      <trkpt lat="0" lon="0">
        <time>2021-02-28T10:17:03.656000+00:00</time>
      </trkpt>
      <trkpt lat="0" lon="0">
        <time>2021-02-28T10:17:03.662000+00:00</time>
      </trkpt>
      <trkpt lat="0" lon="0">
        <time>2021-02-28T10:17:03.665000+00:00</time>
      </trkpt>
      <trkpt lat="47.31369" lon="-1.39873">
        <ele>82</ele>
        <time>2021-02-28T10:17:04.622000+00:00</time>
      </trkpt>
      <trkpt lat="0" lon="0">
        <time>2021-02-28T10:17:04.634000+00:00</time>
      </trkpt>
      <trkpt lat="0" lon="0">
        <time>2021-02-28T10:17:04.639000+00:00</time>
      </trkpt>
      <trkpt lat="0" lon="0">
        <time>2021-02-28T10:17:04.642000+00:00</time>
      </trkpt>
      <trkpt lat="47.31367" lon="-1.39871">
        <ele>82</ele>
        <time>2021-02-28T10:17:05.661000+00:00</time>
      </trkpt>
      <trkpt lat="0" lon="0">
        <time>2021-02-28T10:17:05.670000+00:00</time>
      </trkpt>
      <trkpt lat="0" lon="0">
        <time>2021-02-28T10:17:05.676000+00:00</time>
      </trkpt>
      <trkpt lat="0" lon="0">
        <time>2021-02-28T10:17:05.679000+00:00</time>
      </trkpt>
      <trkpt lat="47.31366" lon="-1.39869">
        <ele>82</ele>
        <time>2021-02-28T10:17:06.657000+00:00</time>
      </trkpt>
      <trkpt lat="0" lon="0">
        <time>2021-02-28T10:17:06.680000+00:00</time>
      </trkpt>
      <trkpt lat="0" lon="0">
        <time>2021-02-28T10:17:06.685000+00:00</time>
      </trkpt>
      <trkpt lat="0" lon="0">
        <time>2021-02-28T10:17:06.688000+00:00</time>
      </trkpt>
      <trkpt lat="47.31365" lon="-1.39866">
        <ele>83</ele>
        <time>2021-02-28T10:17:07.638000+00:00</time>
      </trkpt>
      <trkpt lat="0" lon="0">
        <time>2021-02-28T10:17:07.644000+00:00</time>
      </trkpt>
      <trkpt lat="0" lon="0">
        <time>2021-02-28T10:17:07.651000+00:00</time>
      </trkpt>
      <trkpt lat="0" lon="0">
        <time>2021-02-28T10:17:07.654000+00:00</time>
      </trkpt>
      <trkpt lat="47.31365" lon="-1.39863">
        <ele>83</ele>
        <time>2021-02-28T10:17:08.626000+00:00</time>
      </trkpt>
      <trkpt lat="0" lon="0">
        <time>2021-02-28T10:17:08.634000+00:00</time>
      </trkpt>
      <trkpt lat="0" lon="0">
        <time>2021-02-28T10:17:08.639000+00:00</time>
      </trkpt>
      <trkpt lat="0" lon="0">
        <time>2021-02-28T10:17:08.642000+00:00</time>
      </trkpt>
      <trkpt lat="47.31363" lon="-1.39861">
        <ele>83</ele>
        <time>2021-02-28T10:17:09.618000+00:00</time>
      </trkpt>
      <trkpt lat="0" lon="0">
        <time>2021-02-28T10:17:09.626000+00:00</time>
      </trkpt>
      <trkpt lat="0" lon="0">
        <time>2021-02-28T10:17:09.633000+00:00</time>
      </trkpt>
      <trkpt lat="0" lon="0">
        <time>2021-02-28T10:17:09.637000+00:00</time>
      </trkpt>
      <trkpt lat="47.31362" lon="-1.39858">
        <ele>83</ele>
        <time>2021-02-28T10:17:10.606000+00:00</time>
      </trkpt>
      <trkpt lat="0" lon="0">
        <time>2021-02-28T10:17:10.608000+00:00</time>
      </trkpt>
      <trkpt lat="0" lon="0">
        <time>2021-02-28T10:17:10.610000+00:00</time>
      </trkpt>
      <trkpt lat="0" lon="0">
        <time>2021-02-28T10:17:10.611000+00:00</time>
      </trkpt>
      <trkpt lat="47.31361" lon="-1.39855">
        <ele>84</ele>
        <time>2021-02-28T10:17:11.620000+00:00</time>
      </trkpt>
      <trkpt lat="0" lon="0">
        <time>2021-02-28T10:17:11.625000+00:00</time>
      </trkpt>
      <trkpt lat="0" lon="0">
        <time>2021-02-28T10:17:11.630000+00:00</time>
      </trkpt>
      <trkpt lat="0" lon="0">
        <time>2021-02-28T10:17:11.633000+00:00</time>
      </trkpt>
      <trkpt lat="47.3136" lon="-1.39852">
        <ele>84</ele>
        <time>2021-02-28T10:17:12.653000+00:00</time>
      </trkpt>
      <trkpt lat="0" lon="0">
        <time>2021-02-28T10:17:12.656000+00:00</time>
      </trkpt>
      <trkpt lat="0" lon="0">
        <time>2021-02-28T10:17:12.660000+00:00</time>
      </trkpt>
      <trkpt lat="0" lon="0">
        <time>2021-02-28T10:17:12.661000+00:00</time>
      </trkpt>
      <trkpt lat="47.31359" lon="-1.39849">
        <ele>85</ele>
        <time>2021-02-28T10:17:13.662000+00:00</time>
      </trkpt>
      <trkpt lat="0" lon="0">
        <time>2021-02-28T10:17:13.674000+00:00</time>
      </trkpt>
      <trkpt lat="0" lon="0">
        <time>2021-02-28T10:17:13.681000+00:00</time>
      </trkpt>
      <trkpt lat="0" lon="0">
        <time>2021-02-28T10:17:13.684000+00:00</time>
      </trkpt>
      <trkpt lat="47.31359" lon="-1.39846">
        <ele>85</ele>
        <time>2021-02-28T10:17:14.656000+00:00</time>
      </trkpt>
      <trkpt lat="0" lon="0">
        <time>2021-02-28T10:17:14.662000+00:00</time>
      </trkpt>
      <trkpt lat="0" lon="0">
        <time>2021-02-28T10:17:14.667000+00:00</time>
      </trkpt>
      <trkpt lat="0" lon="0">
        <time>2021-02-28T10:17:14.671000+00:00</time>
      </trkpt>
      <trkpt lat="47.31358" lon="-1.39843">
        <ele>85</ele>
        <time>2021-02-28T10:17:15.639000+00:00</time>
      </trkpt>
      <trkpt lat="0" lon="0">
        <time>2021-02-28T10:17:15.654000+00:00</time>
      </trkpt>
      <trkpt lat="0" lon="0">
        <time>2021-02-28T10:17:15.659000+00:00</time>
      </trkpt>
      <trkpt lat="0" lon="0">
        <time>2021-02-28T10:17:15.666000+00:00</time>
      </trkpt>
      <trkpt lat="47.31357" lon="-1.3984">
        <ele>85</ele>
        <time>2021-02-28T10:17:16.625000+00:00</time>
      </trkpt>
      <trkpt lat="0" lon="0">
        <time>2021-02-28T10:17:16.627000+00:00</time>
      </trkpt>
      <trkpt lat="0" lon="0">
        <time>2021-02-28T10:17:16.629000+00:00</time>
      </trkpt>
      <trkpt lat="0" lon="0">
        <time>2021-02-28T10:17:16.632000+00:00</time>
      </trkpt>
      <trkpt lat="47.31356" lon="-1.39837">
        <ele>86</ele>
        <time>2021-02-28T10:17:17.612000+00:00</time>
      </trkpt>
      <trkpt lat="0" lon="0">
        <time>2021-02-28T10:17:17.619000+00:00</time>
      </trkpt>
      <trkpt lat="0" lon="0">
        <time>2021-02-28T10:17:17.626000+00:00</time>
      </trkpt>
      <trkpt lat="0" lon="0">
        <time>2021-02-28T10:17:17.630000+00:00</time>
      </trkpt>
      <trkpt lat="47.31355" lon="-1.39835">
        <ele>86</ele>
        <time>2021-02-28T10:17:18.615000+00:00</time>
      </trkpt>
      <trkpt lat="0" lon="0">
        <time>2021-02-28T10:17:18.626000+00:00</time>
      </trkpt>
      <trkpt lat="0" lon="0">
        <time>2021-02-28T10:17:18.634000+00:00</time>
      </trkpt>
      <trkpt lat="0" lon="0">
        <time>2021-02-28T10:17:18.636000+00:00</time>
      </trkpt>
      <trkpt lat="47.31354" lon="-1.39833">
        <ele>86</ele>
        <time>2021-02-28T10:17:19.625000+00:00</time>
      </trkpt>
      <trkpt lat="0" lon="0">
        <time>2021-02-28T10:17:19.631000+00:00</time>
      </trkpt>
      <trkpt lat="0" lon="0">
        <time>2021-02-28T10:17:19.638000+00:00</time>
      </trkpt>
      <trkpt lat="0" lon="0">
        <time>2021-02-28T10:17:19.642000+00:00</time>
      </trkpt>
      <trkpt lat="47.31353" lon="-1.3983">
        <ele>87</ele>
        <time>2021-02-28T10:17:20.645000+00:00</time>
      </trkpt>
      <trkpt lat="0" lon="0">
        <time>2021-02-28T10:17:20.651000+00:00</time>
      </trkpt>
      <trkpt lat="0" lon="0">
        <time>2021-02-28T10:17:20.655000+00:00</time>
      </trkpt>
      <trkpt lat="0" lon="0">
        <time>2021-02-28T10:17:20.658000+00:00</time>
      </trkpt>
      <trkpt lat="47.31353" lon="-1.39827">
        <ele>88</ele>
        <time>2021-02-28T10:17:21.641000+00:00</time>
      </trkpt>
      <trkpt lat="0" lon="0">
        <time>2021-02-28T10:17:21.647000+00:00</time>
      </trkpt>
      <trkpt lat="0" lon="0">
        <time>2021-02-28T10:17:21.652000+00:00</time>
      </trkpt>
      <trkpt lat="0" lon="0">
        <time>2021-02-28T10:17:21.655000+00:00</time>
      </trkpt>
      <trkpt lat="47.31352" lon="-1.39825">
        <ele>89</ele>
        <time>2021-02-28T10:17:22.613000+00:00</time>
      </trkpt>
      <trkpt lat="0" lon="0">
        <time>2021-02-28T10:17:22.621000+00:00</time>
      </trkpt>
      <trkpt lat="0" lon="0">
        <time>2021-02-28T10:17:22.625000+00:00</time>
      </trkpt>
      <trkpt lat="0" lon="0">
        <time>2021-02-28T10:17:22.629000+00:00</time>
      </trkpt>
      <trkpt lat="47.31352" lon="-1.39822">
        <ele>89</ele>
        <time>2021-02-28T10:17:23.607000+00:00</time>
      </trkpt>
      <trkpt lat="0" lon="0">
        <time>2021-02-28T10:17:23.617000+00:00</time>
      </trkpt>
      <trkpt lat="0" lon="0">
        <time>2021-02-28T10:17:23.622000+00:00</time>
      </trkpt>
      <trkpt lat="0" lon="0">
        <time>2021-02-28T10:17:23.626000+00:00</time>
      </trkpt>
      <trkpt lat="47.31351" lon="-1.39819">
        <ele>90</ele>
        <time>2021-02-28T10:17:24.639000+00:00</time>
      </trkpt>
      <trkpt lat="0" lon="0">
        <time>2021-02-28T10:17:24.651000+00:00</time>
      </trkpt>
      <trkpt lat="0" lon="0">
        <time>2021-02-28T10:17:24.659000+00:00</time>
      </trkpt>
      <trkpt lat="0" lon="0">
        <time>2021-02-28T10:17:24.662000+00:00</time>
      </trkpt>
      <trkpt lat="47.31351" lon="-1.39817">
        <ele>91</ele>
        <time>2021-02-28T10:17:25.666000+00:00</time>
      </trkpt>
      <trkpt lat="0" lon="0">
        <time>2021-02-28T10:17:25.673000+00:00</time>
      </trkpt>
      <trkpt lat="0" lon="0">
        <time>2021-02-28T10:17:25.679000+00:00</time>
      </trkpt>
      <trkpt lat="0" lon="0">
        <time>2021-02-28T10:17:25.682000+00:00</time>
      </trkpt>
      <trkpt lat="47.3135" lon="-1.39815">
        <ele>91</ele>
        <time>2021-02-28T10:17:26.641000+00:00</time>
      </trkpt>
      <trkpt lat="0" lon="0">
        <time>2021-02-28T10:17:26.648000+00:00</time>
      </trkpt>
      <trkpt lat="0" lon="0">
        <time>2021-02-28T10:17:26.654000+00:00</time>
      </trkpt>
      <trkpt lat="0" lon="0">
        <time>2021-02-28T10:17:26.657000+00:00</time>
      </trkpt>
      <trkpt lat="47.3135" lon="-1.39812">
        <ele>92</ele>
        <time>2021-02-28T10:17:27.644000+00:00</time>
      </trkpt>
      <trkpt lat="0" lon="0">
        <time>2021-02-28T10:17:27.657000+00:00</time>
      </trkpt>
      <trkpt lat="0" lon="0">
        <time>2021-02-28T10:17:27.665000+00:00</time>
      </trkpt>
      <trkpt lat="0" lon="0">
        <time>2021-02-28T10:17:27.669000+00:00</time>
      </trkpt>
      <trkpt lat="47.31349" lon="-1.3981">
        <ele>92</ele>
        <time>2021-02-28T10:17:28.583000+00:00</time>
      </trkpt>
      <trkpt lat="0" lon="0">
        <time>2021-02-28T10:17:28.593000+00:00</time>
      </trkpt>
      <trkpt lat="0" lon="0">
        <time>2021-02-28T10:17:28.597000+00:00</time>
      </trkpt>
      <trkpt lat="0" lon="0">
        <time>2021-02-28T10:17:28.600000+00:00</time>
      </trkpt>
      <trkpt lat="47.31348" lon="-1.39808">
        <ele>93</ele>
        <time>2021-02-28T10:17:29.645000+00:00</time>
      </trkpt>
      <trkpt lat="0" lon="0">
        <time>2021-02-28T10:17:29.659000+00:00</time>
      </trkpt>
      <trkpt lat="0" lon="0">
        <time>2021-02-28T10:17:29.665000+00:00</time>
      </trkpt>
      <trkpt lat="0" lon="0">
        <time>2021-02-28T10:17:29.669000+00:00</time>
      </trkpt>
      <trkpt lat="47.31347" lon="-1.39805">
        <ele>93</ele>
        <time>2021-02-28T10:17:30.654000+00:00</time>
      </trkpt>
      <trkpt lat="0" lon="0">
        <time>2021-02-28T10:17:30.672000+00:00</time>
      </trkpt>
      <trkpt lat="0" lon="0">
        <time>2021-02-28T10:17:30.677000+00:00</time>
      </trkpt>
      <trkpt lat="0" lon="0">
        <time>2021-02-28T10:17:30.679000+00:00</time>
      </trkpt>
      <trkpt lat="47.31346" lon="-1.39802">
        <ele>94</ele>
        <time>2021-02-28T10:17:31.667000+00:00</time>
      </trkpt>
      <trkpt lat="0" lon="0">
        <time>2021-02-28T10:17:31.673000+00:00</time>
      </trkpt>
      <trkpt lat="0" lon="0">
        <time>2021-02-28T10:17:31.678000+00:00</time>
      </trkpt>
      <trkpt lat="0" lon="0">
        <time>2021-02-28T10:17:31.681000+00:00</time>
      </trkpt>
      <trkpt lat="47.31345" lon="-1.398">
        <ele>94</ele>
        <time>2021-02-28T10:17:32.615000+00:00</time>
      </trkpt>
      <trkpt lat="0" lon="0">
        <time>2021-02-28T10:17:32.625000+00:00</time>
      </trkpt>
      <trkpt lat="0" lon="0">
        <time>2021-02-28T10:17:32.629000+00:00</time>
      </trkpt>
      <trkpt lat="0" lon="0">
        <time>2021-02-28T10:17:32.631000+00:00</time>
      </trkpt>
      <trkpt lat="47.31345" lon="-1.39797">
        <ele>95</ele>
        <time>2021-02-28T10:17:33.574000+00:00</time>
      </trkpt>
      <trkpt lat="0" lon="0">
        <time>2021-02-28T10:17:33.585000+00:00</time>
      </trkpt>
      <trkpt lat="0" lon="0">
        <time>2021-02-28T10:17:33.589000+00:00</time>
      </trkpt>
      <trkpt lat="0" lon="0">
        <time>2021-02-28T10:17:33.591000+00:00</time>
      </trkpt>
      <trkpt lat="47.31344" lon="-1.39795">
        <ele>96</ele>
        <time>2021-02-28T10:17:34.627000+00:00</time>
      </trkpt>
      <trkpt lat="0" lon="0">
        <time>2021-02-28T10:17:34.633000+00:00</time>
      </trkpt>
      <trkpt lat="0" lon="0">
        <time>2021-02-28T10:17:34.639000+00:00</time>
      </trkpt>
      <trkpt lat="0" lon="0">
        <time>2021-02-28T10:17:34.642000+00:00</time>
      </trkpt>
      <trkpt lat="47.31343" lon="-1.39792">
        <ele>97</ele>
        <time>2021-02-28T10:17:35.615000+00:00</time>
      </trkpt>
      <trkpt lat="0" lon="0">
        <time>2021-02-28T10:17:35.624000+00:00</time>
      </trkpt>
      <trkpt lat="0" lon="0">
        <time>2021-02-28T10:17:35.630000+00:00</time>
      </trkpt>
      <trkpt lat="0" lon="0">
        <time>2021-02-28T10:17:35.633000+00:00</time>
      </trkpt>
      <trkpt lat="47.31342" lon="-1.39789">
        <ele>97</ele>
        <time>2021-02-28T10:17:36.645000+00:00</time>
      </trkpt>
      <trkpt lat="0" lon="0">
        <time>2021-02-28T10:17:36.652000+00:00</time>
      </trkpt>
      <trkpt lat="0" lon="0">
        <time>2021-02-28T10:17:36.657000+00:00</time>
      </trkpt>
      <trkpt lat="0" lon="0">
        <time>2021-02-28T10:17:36.661000+00:00</time>
      </trkpt>
      <trkpt lat="47.31341" lon="-1.39787">
        <ele>98</ele>
        <time>2021-02-28T10:17:37.613000+00:00</time>
      </trkpt>
      <trkpt lat="0" lon="0">
        <time>2021-02-28T10:17:37.621000+00:00</time>
      </trkpt>
      <trkpt lat="0" lon="0">
        <time>2021-02-28T10:17:37.628000+00:00</time>
      </trkpt>
      <trkpt lat="0" lon="0">
        <time>2021-02-28T10:17:37.631000+00:00</time>
      </trkpt>
      <trkpt lat="47.3134" lon="-1.39784">
        <ele>99</ele>
        <time>2021-02-28T10:17:38.623000+00:00</time>
      </trkpt>
      <trkpt lat="0" lon="0">
        <time>2021-02-28T10:17:38.631000+00:00</time>
      </trkpt>
      <trkpt lat="0" lon="0">
        <time>2021-02-28T10:17:38.640000+00:00</time>
      </trkpt>
      <trkpt lat="0" lon="0">
        <time>2021-02-28T10:17:38.642000+00:00</time>
      </trkpt>
      <trkpt lat="47.31339" lon="-1.39781">
        <ele>99</ele>
        <time>2021-02-28T10:17:39.657000+00:00</time>
      </trkpt>
      <trkpt lat="0" lon="0">
        <time>2021-02-28T10:17:39.671000+00:00</time>
      </trkpt>
      <trkpt lat="0" lon="0">
        <time>2021-02-28T10:17:39.681000+00:00</time>
      </trkpt>
      <trkpt lat="0" lon="0">
        <time>2021-02-28T10:17:39.684000+00:00</time>
      </trkpt>
      <trkpt lat="47.31338" lon="-1.39778">
        <ele>99</ele>
        <time>2021-02-28T10:17:40.612000+00:00</time>
      </trkpt>
      <trkpt lat="0" lon="0">
        <time>2021-02-28T10:17:40.619000+00:00</time>
      </trkpt>
      <trkpt lat="0" lon="0">
        <time>2021-02-28T10:17:40.625000+00:00</time>
      </trkpt>
      <trkpt lat="0" lon="0">
        <time>2021-02-28T10:17:40.628000+00:00</time>
      </trkpt>
      <trkpt lat="47.31336" lon="-1.39775">
        <ele>100</ele>
        <time>2021-02-28T10:17:41.622000+00:00</time>
      </trkpt>
      <trkpt lat="0" lon="0">
        <time>2021-02-28T10:17:41.629000+00:00</time>
      </trkpt>
      <trkpt lat="0" lon="0">
        <time>2021-02-28T10:17:41.634000+00:00</time>
      </trkpt>
      <trkpt lat="0" lon="0">
        <time>2021-02-28T10:17:41.638000+00:00</time>
      </trkpt>
      <trkpt lat="47.31335" lon="-1.39772">
        <ele>100</ele>
        <time>2021-02-28T10:17:42.663000+00:00</time>
      </trkpt>
      <trkpt lat="0" lon="0">
        <time>2021-02-28T10:17:42.677000+00:00</time>
      </trkpt>
      <trkpt lat="0" lon="0">
        <time>2021-02-28T10:17:42.682000+00:00</time>
      </trkpt>
      <trkpt lat="0" lon="0">
        <time>2021-02-28T10:17:42.685000+00:00</time>
      </trkpt>
      <trkpt lat="47.31334" lon="-1.39769">
        <ele>99</ele>
        <time>2021-02-28T10:17:43.647000+00:00</time>
      </trkpt>
      <trkpt lat="0" lon="0">
        <time>2021-02-28T10:17:43.658000+00:00</time>
      </trkpt>
      <trkpt lat="0" lon="0">
        <time>2021-02-28T10:17:43.666000+00:00</time>
      </trkpt>
      <trkpt lat="0" lon="0">
        <time>2021-02-28T10:17:43.668000+00:00</time>
      </trkpt>
      <trkpt lat="47.31334" lon="-1.39766">
        <ele>99</ele>
        <time>2021-02-28T10:17:44.642000+00:00</time>
      </trkpt>
      <trkpt lat="0" lon="0">
        <time>2021-02-28T10:17:44.651000+00:00</time>
      </trkpt>
      <trkpt lat="0" lon="0">
        <time>2021-02-28T10:17:44.653000+00:00</time>
      </trkpt>
      <trkpt lat="0" lon="0">
        <time>2021-02-28T10:17:44.654000+00:00</time>
      </trkpt>
      <trkpt lat="47.31333" lon="-1.39763">
        <ele>99</ele>
        <time>2021-02-28T10:17:45.562000+00:00</time>
      </trkpt>
      <trkpt lat="0" lon="0">
        <time>2021-02-28T10:17:45.568000+00:00</time>
      </trkpt>
      <trkpt lat="0" lon="0">
        <time>2021-02-28T10:17:45.573000+00:00</time>
      </trkpt>
      <trkpt lat="0" lon="0">
        <time>2021-02-28T10:17:45.577000+00:00</time>
      </trkpt>
      <trkpt lat="47.31332" lon="-1.39759">
        <ele>99</ele>
        <time>2021-02-28T10:17:46.657000+00:00</time>
      </trkpt>
      <trkpt lat="0" lon="0">
        <time>2021-02-28T10:17:46.670000+00:00</time>
      </trkpt>
      <trkpt lat="0" lon="0">
        <time>2021-02-28T10:17:46.676000+00:00</time>
      </trkpt>
      <trkpt lat="0" lon="0">
        <time>2021-02-28T10:17:46.679000+00:00</time>
      </trkpt>
      <trkpt lat="47.31332" lon="-1.39756">
        <ele>99</ele>
        <time>2021-02-28T10:17:47.655000+00:00</time>
      </trkpt>
      <trkpt lat="0" lon="0">
        <time>2021-02-28T10:17:47.664000+00:00</time>
      </trkpt>
      <trkpt lat="0" lon="0">
        <time>2021-02-28T10:17:47.670000+00:00</time>
      </trkpt>
      <trkpt lat="0" lon="0">
        <time>2021-02-28T10:17:47.673000+00:00</time>
      </trkpt>
      <trkpt lat="47.31331" lon="-1.39753">
        <ele>99</ele>
        <time>2021-02-28T10:17:48.645000+00:00</time>
      </trkpt>
      <trkpt lat="0" lon="0">
        <time>2021-02-28T10:17:48.653000+00:00</time>
      </trkpt>
      <trkpt lat="0" lon="0">
        <time>2021-02-28T10:17:48.658000+00:00</time>
      </trkpt>
      <trkpt lat="0" lon="0">
        <time>2021-02-28T10:17:48.661000+00:00</time>
      </trkpt>
      <trkpt lat="47.31331" lon="-1.3975">
        <ele>99</ele>
        <time>2021-02-28T10:17:49.609000+00:00</time>
      </trkpt>
      <trkpt lat="0" lon="0">
        <time>2021-02-28T10:17:49.623000+00:00</time>
      </trkpt>
      <trkpt lat="0" lon="0">
        <time>2021-02-28T10:17:49.633000+00:00</time>
      </trkpt>
      <trkpt lat="0" lon="0">
        <time>2021-02-28T10:17:49.636000+00:00</time>
      </trkpt>
      <trkpt lat="47.3133" lon="-1.39746">
        <ele>99</ele>
        <time>2021-02-28T10:17:50.626000+00:00</time>
      </trkpt>
      <trkpt lat="0" lon="0">
        <time>2021-02-28T10:17:50.635000+00:00</time>
      </trkpt>
      <trkpt lat="0" lon="0">
        <time>2021-02-28T10:17:50.644000+00:00</time>
      </trkpt>
      <trkpt lat="0" lon="0">
        <time>2021-02-28T10:17:50.648000+00:00</time>
      </trkpt>
      <trkpt lat="47.31329" lon="-1.39743">
        <ele>99</ele>
        <time>2021-02-28T10:17:51.651000+00:00</time>
      </trkpt>
      <trkpt lat="0" lon="0">
        <time>2021-02-28T10:17:51.659000+00:00</time>
      </trkpt>
      <trkpt lat="0" lon="0">
        <time>2021-02-28T10:17:51.665000+00:00</time>
      </trkpt>
      <trkpt lat="0" lon="0">
        <time>2021-02-28T10:17:51.668000+00:00</time>
      </trkpt>
      <trkpt lat="47.31328" lon="-1.39739">
        <ele>100</ele>
        <time>2021-02-28T10:17:52.660000+00:00</time>
      </trkpt>
      <trkpt lat="0" lon="0">
        <time>2021-02-28T10:17:52.677000+00:00</time>
      </trkpt>
      <trkpt lat="0" lon="0">
        <time>2021-02-28T10:17:52.681000+00:00</time>
      </trkpt>
      <trkpt lat="0" lon="0">
        <time>2021-02-28T10:17:52.683000+00:00</time>
      </trkpt>
      <trkpt lat="47.31327" lon="-1.39736">
        <ele>101</ele>
        <time>2021-02-28T10:17:53.664000+00:00</time>
      </trkpt>
      <trkpt lat="0" lon="0">
        <time>2021-02-28T10:17:53.675000+00:00</time>
      </trkpt>
      <trkpt lat="0" lon="0">
        <time>2021-02-28T10:17:53.682000+00:00</time>
      </trkpt>
      <trkpt lat="0" lon="0">
        <time>2021-02-28T10:17:53.686000+00:00</time>
      </trkpt>
      <trkpt lat="47.31326" lon="-1.39732">
        <ele>101</ele>
        <time>2021-02-28T10:17:54.630000+00:00</time>
      </trkpt>
      <trkpt lat="0" lon="0">
        <time>2021-02-28T10:17:54.637000+00:00</time>
      </trkpt>
      <trkpt lat="0" lon="0">
        <time>2021-02-28T10:17:54.641000+00:00</time>
      </trkpt>
      <trkpt lat="0" lon="0">
        <time>2021-02-28T10:17:54.644000+00:00</time>
      </trkpt>
      <trkpt lat="47.31325" lon="-1.39729">
        <ele>102</ele>
        <time>2021-02-28T10:17:55.652000+00:00</time>
      </trkpt>
      <trkpt lat="0" lon="0">
        <time>2021-02-28T10:17:55.660000+00:00</time>
      </trkpt>
      <trkpt lat="0" lon="0">
        <time>2021-02-28T10:17:55.668000+00:00</time>
      </trkpt>
      <trkpt lat="0" lon="0">
        <time>2021-02-28T10:17:55.671000+00:00</time>
      </trkpt>
      <trkpt lat="47.31325" lon="-1.39726">
        <ele>102</ele>
        <time>2021-02-28T10:17:56.681000+00:00</time>
      </trkpt>
      <trkpt lat="0" lon="0">
        <time>2021-02-28T10:17:56.687000+00:00</time>
      </trkpt>
      <trkpt lat="0" lon="0">
        <time>2021-02-28T10:17:56.692000+00:00</time>
      </trkpt>
      <trkpt lat="0" lon="0">
        <time>2021-02-28T10:17:56.695000+00:00</time>
      </trkpt>
      <trkpt lat="47.31324" lon="-1.39723">
        <ele>104</ele>
        <time>2021-02-28T10:17:57.630000+00:00</time>
      </trkpt>
      <trkpt lat="0" lon="0">
        <time>2021-02-28T10:17:57.636000+00:00</time>
      </trkpt>
      <trkpt lat="0" lon="0">
        <time>2021-02-28T10:17:57.642000+00:00</time>
      </trkpt>
      <trkpt lat="0" lon="0">
        <time>2021-02-28T10:17:57.645000+00:00</time>
      </trkpt>
      <trkpt lat="47.31323" lon="-1.3972">
        <ele>104</ele>
        <time>2021-02-28T10:17:58.639000+00:00</time>
      </trkpt>
      <trkpt lat="0" lon="0">
        <time>2021-02-28T10:17:58.648000+00:00</time>
      </trkpt>
      <trkpt lat="0" lon="0">
        <time>2021-02-28T10:17:58.654000+00:00</time>
      </trkpt>
      <trkpt lat="0" lon="0">
        <time>2021-02-28T10:17:58.657000+00:00</time>
      </trkpt>
      <trkpt lat="47.31322" lon="-1.39716">
        <ele>105</ele>
        <time>2021-02-28T10:17:59.679000+00:00</time>
      </trkpt>
      <trkpt lat="0" lon="0">
        <time>2021-02-28T10:17:59.683000+00:00</time>
      </trkpt>
      <trkpt lat="0" lon="0">
        <time>2021-02-28T10:17:59.687000+00:00</time>
      </trkpt>
      <trkpt lat="0" lon="0">
        <time>2021-02-28T10:17:59.690000+00:00</time>
      </trkpt>
      <trkpt lat="47.31322" lon="-1.39713">
        <ele>106</ele>
        <time>2021-02-28T10:18:00.637000+00:00</time>
      </trkpt>
      <trkpt lat="0" lon="0">
        <time>2021-02-28T10:18:00.646000+00:00</time>
      </trkpt>
      <trkpt lat="0" lon="0">
        <time>2021-02-28T10:18:00.653000+00:00</time>
      </trkpt>
      <trkpt lat="0" lon="0">
        <time>2021-02-28T10:18:00.657000+00:00</time>
      </trkpt>
      <trkpt lat="47.31321" lon="-1.3971">
        <ele>106</ele>
        <time>2021-02-28T10:18:01.643000+00:00</time>
      </trkpt>
      <trkpt lat="0" lon="0">
        <time>2021-02-28T10:18:01.651000+00:00</time>
      </trkpt>
      <trkpt lat="0" lon="0">
        <time>2021-02-28T10:18:01.661000+00:00</time>
      </trkpt>
      <trkpt lat="0" lon="0">
        <time>2021-02-28T10:18:01.664000+00:00</time>
      </trkpt>
      <trkpt lat="47.3132" lon="-1.39708">
        <ele>107</ele>
        <time>2021-02-28T10:18:02.678000+00:00</time>
      </trkpt>
      <trkpt lat="0" lon="0">
        <time>2021-02-28T10:18:02.689000+00:00</time>
      </trkpt>
      <trkpt lat="0" lon="0">
        <time>2021-02-28T10:18:02.695000+00:00</time>
      </trkpt>
      <trkpt lat="0" lon="0">
        <time>2021-02-28T10:18:02.698000+00:00</time>
      </trkpt>
      <trkpt lat="47.3132" lon="-1.39705">
        <ele>107</ele>
        <time>2021-02-28T10:18:03.683000+00:00</time>
      </trkpt>
      <trkpt lat="0" lon="0">
        <time>2021-02-28T10:18:03.689000+00:00</time>
      </trkpt>
      <trkpt lat="0" lon="0">
        <time>2021-02-28T10:18:03.695000+00:00</time>
      </trkpt>
      <trkpt lat="0" lon="0">
        <time>2021-02-28T10:18:03.698000+00:00</time>
      </trkpt>
      <trkpt lat="47.31319" lon="-1.39702">
        <ele>108</ele>
        <time>2021-02-28T10:18:04.635000+00:00</time>
      </trkpt>
      <trkpt lat="0" lon="0">
        <time>2021-02-28T10:18:04.644000+00:00</time>
      </trkpt>
      <trkpt lat="0" lon="0">
        <time>2021-02-28T10:18:04.650000+00:00</time>
      </trkpt>
      <trkpt lat="0" lon="0">
        <time>2021-02-28T10:18:04.652000+00:00</time>
      </trkpt>
      <trkpt lat="47.31318" lon="-1.397">
        <ele>109</ele>
        <time>2021-02-28T10:18:05.647000+00:00</time>
      </trkpt>
      <trkpt lat="0" lon="0">
        <time>2021-02-28T10:18:05.666000+00:00</time>
      </trkpt>
      <trkpt lat="0" lon="0">
        <time>2021-02-28T10:18:05.674000+00:00</time>
      </trkpt>
      <trkpt lat="0" lon="0">
        <time>2021-02-28T10:18:05.678000+00:00</time>
      </trkpt>
      <trkpt lat="47.31317" lon="-1.39697">
        <ele>110</ele>
        <time>2021-02-28T10:18:06.653000+00:00</time>
      </trkpt>
      <trkpt lat="0" lon="0">
        <time>2021-02-28T10:18:06.662000+00:00</time>
      </trkpt>
      <trkpt lat="0" lon="0">
        <time>2021-02-28T10:18:06.666000+00:00</time>
      </trkpt>
      <trkpt lat="0" lon="0">
        <time>2021-02-28T10:18:06.669000+00:00</time>
      </trkpt>
      <trkpt lat="47.31316" lon="-1.39695">
        <ele>111</ele>
        <time>2021-02-28T10:18:07.638000+00:00</time>
      </trkpt>
      <trkpt lat="0" lon="0">
        <time>2021-02-28T10:18:07.645000+00:00</time>
      </trkpt>
      <trkpt lat="0" lon="0">
        <time>2021-02-28T10:18:07.651000+00:00</time>
      </trkpt>
      <trkpt lat="0" lon="0">
        <time>2021-02-28T10:18:07.654000+00:00</time>
      </trkpt>
      <trkpt lat="47.31315" lon="-1.39692">
        <ele>111</ele>
        <time>2021-02-28T10:18:08.638000+00:00</time>
      </trkpt>
      <trkpt lat="0" lon="0">
        <time>2021-02-28T10:18:08.645000+00:00</time>
      </trkpt>
      <trkpt lat="0" lon="0">
        <time>2021-02-28T10:18:08.649000+00:00</time>
      </trkpt>
      <trkpt lat="0" lon="0">
        <time>2021-02-28T10:18:08.651000+00:00</time>
      </trkpt>
      <trkpt lat="47.31315" lon="-1.3969">
        <ele>113</ele>
        <time>2021-02-28T10:18:09.626000+00:00</time>
      </trkpt>
      <trkpt lat="0" lon="0">
        <time>2021-02-28T10:18:09.633000+00:00</time>
      </trkpt>
      <trkpt lat="0" lon="0">
        <time>2021-02-28T10:18:09.638000+00:00</time>
      </trkpt>
      <trkpt lat="0" lon="0">
        <time>2021-02-28T10:18:09.641000+00:00</time>
      </trkpt>
      <trkpt lat="47.31314" lon="-1.39688">
        <ele>113</ele>
        <time>2021-02-28T10:18:10.606000+00:00</time>
      </trkpt>
      <trkpt lat="0" lon="0">
        <time>2021-02-28T10:18:10.624000+00:00</time>
      </trkpt>
      <trkpt lat="0" lon="0">
        <time>2021-02-28T10:18:10.628000+00:00</time>
      </trkpt>
      <trkpt lat="0" lon="0">
        <time>2021-02-28T10:18:10.633000+00:00</time>
      </trkpt>
      <trkpt lat="47.31313" lon="-1.39685">
        <ele>114</ele>
        <time>2021-02-28T10:18:11.666000+00:00</time>
      </trkpt>
      <trkpt lat="0" lon="0">
        <time>2021-02-28T10:18:11.678000+00:00</time>
      </trkpt>
      <trkpt lat="0" lon="0">
        <time>2021-02-28T10:18:11.687000+00:00</time>
      </trkpt>
      <trkpt lat="0" lon="0">
        <time>2021-02-28T10:18:11.690000+00:00</time>
      </trkpt>
      <trkpt lat="47.31313" lon="-1.39683">
        <ele>114</ele>
        <time>2021-02-28T10:18:12.585000+00:00</time>
      </trkpt>
      <trkpt lat="0" lon="0">
        <time>2021-02-28T10:18:12.591000+00:00</time>
      </trkpt>
      <trkpt lat="0" lon="0">
        <time>2021-02-28T10:18:12.593000+00:00</time>
      </trkpt>
      <trkpt lat="0" lon="0">
        <time>2021-02-28T10:18:12.594000+00:00</time>
      </trkpt>
      <trkpt lat="47.31312" lon="-1.39681">
        <ele>113</ele>
        <time>2021-02-28T10:18:13.541000+00:00</time>
      </trkpt>
      <trkpt lat="0" lon="0">
        <time>2021-02-28T10:18:13.546000+00:00</time>
      </trkpt>
      <trkpt lat="0" lon="0">
        <time>2021-02-28T10:18:13.550000+00:00</time>
      </trkpt>
      <trkpt lat="0" lon="0">
        <time>2021-02-28T10:18:13.552000+00:00</time>
      </trkpt>
      <trkpt lat="47.31312" lon="-1.39679">
        <ele>114</ele>
        <time>2021-02-28T10:18:14.581000+00:00</time>
      </trkpt>
      <trkpt lat="0" lon="0">
        <time>2021-02-28T10:18:14.589000+00:00</time>
      </trkpt>
      <trkpt lat="0" lon="0">
        <time>2021-02-28T10:18:14.595000+00:00</time>
      </trkpt>
      <trkpt lat="0" lon="0">
        <time>2021-02-28T10:18:14.598000+00:00</time>
      </trkpt>
      <trkpt lat="47.31311" lon="-1.39677">
        <ele>113</ele>
        <time>2021-02-28T10:18:15.620000+00:00</time>
      </trkpt>
      <trkpt lat="0" lon="0">
        <time>2021-02-28T10:18:15.630000+00:00</time>
      </trkpt>
      <trkpt lat="0" lon="0">
        <time>2021-02-28T10:18:15.635000+00:00</time>
      </trkpt>
      <trkpt lat="0" lon="0">
        <time>2021-02-28T10:18:15.640000+00:00</time>
      </trkpt>
      <trkpt lat="47.31311" lon="-1.39674">
        <ele>113</ele>
        <time>2021-02-28T10:18:16.639000+00:00</time>
      </trkpt>
      <trkpt lat="0" lon="0">
        <time>2021-02-28T10:18:16.651000+00:00</time>
      </trkpt>
      <trkpt lat="0" lon="0">
        <time>2021-02-28T10:18:16.656000+00:00</time>
      </trkpt>
      <trkpt lat="0" lon="0">
        <time>2021-02-28T10:18:16.658000+00:00</time>
      </trkpt>
      <trkpt lat="47.31311" lon="-1.39672">
        <ele>114</ele>
        <time>2021-02-28T10:18:17.650000+00:00</time>
      </trkpt>
      <trkpt lat="0" lon="0">
        <time>2021-02-28T10:18:17.658000+00:00</time>
      </trkpt>
      <trkpt lat="0" lon="0">
        <time>2021-02-28T10:18:17.664000+00:00</time>
      </trkpt>
      <trkpt lat="0" lon="0">
        <time>2021-02-28T10:18:17.666000+00:00</time>
      </trkpt>
      <trkpt lat="47.31311" lon="-1.3967">
        <ele>114</ele>
        <time>2021-02-28T10:18:18.613000+00:00</time>
      </trkpt>
      <trkpt lat="0" lon="0">
        <time>2021-02-28T10:18:18.623000+00:00</time>
      </trkpt>
      <trkpt lat="0" lon="0">
        <time>2021-02-28T10:18:18.630000+00:00</time>
      </trkpt>
      <trkpt lat="0" lon="0">
        <time>2021-02-28T10:18:18.634000+00:00</time>
      </trkpt>
      <trkpt lat="47.3131" lon="-1.39668">
        <ele>115</ele>
        <time>2021-02-28T10:18:19.680000+00:00</time>
      </trkpt>
      <trkpt lat="0" lon="0">
        <time>2021-02-28T10:18:19.693000+00:00</time>
      </trkpt>
      <trkpt lat="0" lon="0">
        <time>2021-02-28T10:18:19.700000+00:00</time>
      </trkpt>
      <trkpt lat="0" lon="0">
        <time>2021-02-28T10:18:19.704000+00:00</time>
      </trkpt>
      <trkpt lat="47.3131" lon="-1.39665">
        <ele>115</ele>
        <time>2021-02-28T10:18:20.594000+00:00</time>
      </trkpt>
      <trkpt lat="0" lon="0">
        <time>2021-02-28T10:18:20.600000+00:00</time>
      </trkpt>
      <trkpt lat="0" lon="0">
        <time>2021-02-28T10:18:20.604000+00:00</time>
      </trkpt>
      <trkpt lat="0" lon="0">
        <time>2021-02-28T10:18:20.606000+00:00</time>
      </trkpt>
      <trkpt lat="47.3131" lon="-1.39663">
        <ele>115</ele>
        <time>2021-02-28T10:18:21.599000+00:00</time>
      </trkpt>
      <trkpt lat="0" lon="0">
        <time>2021-02-28T10:18:21.604000+00:00</time>
      </trkpt>
      <trkpt lat="0" lon="0">
        <time>2021-02-28T10:18:21.611000+00:00</time>
      </trkpt>
      <trkpt lat="0" lon="0">
        <time>2021-02-28T10:18:21.615000+00:00</time>
      </trkpt>
      <trkpt lat="47.31309" lon="-1.3966">
        <ele>115</ele>
        <time>2021-02-28T10:18:22.648000+00:00</time>
      </trkpt>
      <trkpt lat="0" lon="0">
        <time>2021-02-28T10:18:22.654000+00:00</time>
      </trkpt>
      <trkpt lat="0" lon="0">
        <time>2021-02-28T10:18:22.660000+00:00</time>
      </trkpt>
      <trkpt lat="0" lon="0">
        <time>2021-02-28T10:18:22.662000+00:00</time>
      </trkpt>
      <trkpt lat="47.31308" lon="-1.39657">
        <ele>115</ele>
        <time>2021-02-28T10:18:23.640000+00:00</time>
      </trkpt>
      <trkpt lat="0" lon="0">
        <time>2021-02-28T10:18:23.653000+00:00</time>
      </trkpt>
      <trkpt lat="0" lon="0">
        <time>2021-02-28T10:18:23.661000+00:00</time>
      </trkpt>
      <trkpt lat="0" lon="0">
        <time>2021-02-28T10:18:23.663000+00:00</time>
      </trkpt>
      <trkpt lat="47.31308" lon="-1.39655">
        <ele>115</ele>
        <time>2021-02-28T10:18:24.650000+00:00</time>
      </trkpt>
      <trkpt lat="0" lon="0">
        <time>2021-02-28T10:18:24.663000+00:00</time>
      </trkpt>
      <trkpt lat="0" lon="0">
        <time>2021-02-28T10:18:24.669000+00:00</time>
      </trkpt>
      <trkpt lat="0" lon="0">
        <time>2021-02-28T10:18:24.672000+00:00</time>
      </trkpt>
      <trkpt lat="47.31307" lon="-1.39652">
        <ele>115</ele>
        <time>2021-02-28T10:18:25.646000+00:00</time>
      </trkpt>
      <trkpt lat="0" lon="0">
        <time>2021-02-28T10:18:25.651000+00:00</time>
      </trkpt>
      <trkpt lat="0" lon="0">
        <time>2021-02-28T10:18:25.660000+00:00</time>
      </trkpt>
      <trkpt lat="0" lon="0">
        <time>2021-02-28T10:18:25.662000+00:00</time>
      </trkpt>
      <trkpt lat="47.31307" lon="-1.39649">
        <ele>115</ele>
        <time>2021-02-28T10:18:26.627000+00:00</time>
      </trkpt>
      <trkpt lat="0" lon="0">
        <time>2021-02-28T10:18:26.633000+00:00</time>
      </trkpt>
      <trkpt lat="0" lon="0">
        <time>2021-02-28T10:18:26.640000+00:00</time>
      </trkpt>
      <trkpt lat="0" lon="0">
        <time>2021-02-28T10:18:26.643000+00:00</time>
      </trkpt>
      <trkpt lat="47.31307" lon="-1.39645">
        <ele>115</ele>
        <time>2021-02-28T10:18:27.662000+00:00</time>
      </trkpt>
      <trkpt lat="0" lon="0">
        <time>2021-02-28T10:18:27.668000+00:00</time>
      </trkpt>
      <trkpt lat="0" lon="0">
        <time>2021-02-28T10:18:27.674000+00:00</time>
      </trkpt>
      <trkpt lat="0" lon="0">
        <time>2021-02-28T10:18:27.677000+00:00</time>
      </trkpt>
      <trkpt lat="47.31306" lon="-1.39642">
        <ele>115</ele>
        <time>2021-02-28T10:18:28.654000+00:00</time>
      </trkpt>
      <trkpt lat="0" lon="0">
        <time>2021-02-28T10:18:28.667000+00:00</time>
      </trkpt>
      <trkpt lat="0" lon="0">
        <time>2021-02-28T10:18:28.671000+00:00</time>
      </trkpt>
      <trkpt lat="0" lon="0">
        <time>2021-02-28T10:18:28.674000+00:00</time>
      </trkpt>
      <trkpt lat="47.31306" lon="-1.39638">
        <ele>115</ele>
        <time>2021-02-28T10:18:29.629000+00:00</time>
      </trkpt>
      <trkpt lat="0" lon="0">
        <time>2021-02-28T10:18:29.634000+00:00</time>
      </trkpt>
      <trkpt lat="0" lon="0">
        <time>2021-02-28T10:18:29.640000+00:00</time>
      </trkpt>
      <trkpt lat="0" lon="0">
        <time>2021-02-28T10:18:29.642000+00:00</time>
      </trkpt>
      <trkpt lat="47.31305" lon="-1.39635">
        <ele>114</ele>
        <time>2021-02-28T10:18:30.625000+00:00</time>
      </trkpt>
      <trkpt lat="0" lon="0">
        <time>2021-02-28T10:18:30.635000+00:00</time>
      </trkpt>
      <trkpt lat="0" lon="0">
        <time>2021-02-28T10:18:30.640000+00:00</time>
      </trkpt>
      <trkpt lat="0" lon="0">
        <time>2021-02-28T10:18:30.642000+00:00</time>
      </trkpt>
      <trkpt lat="47.31305" lon="-1.39631">
        <ele>113</ele>
        <time>2021-02-28T10:18:31.613000+00:00</time>
      </trkpt>
      <trkpt lat="0" lon="0">
        <time>2021-02-28T10:18:31.618000+00:00</time>
      </trkpt>
      <trkpt lat="0" lon="0">
        <time>2021-02-28T10:18:31.623000+00:00</time>
      </trkpt>
      <trkpt lat="0" lon="0">
        <time>2021-02-28T10:18:31.626000+00:00</time>
      </trkpt>
      <trkpt lat="47.31304" lon="-1.39628">
        <ele>113</ele>
        <time>2021-02-28T10:18:32.634000+00:00</time>
      </trkpt>
      <trkpt lat="0" lon="0">
        <time>2021-02-28T10:18:32.646000+00:00</time>
      </trkpt>
      <trkpt lat="0" lon="0">
        <time>2021-02-28T10:18:32.651000+00:00</time>
      </trkpt>
      <trkpt lat="0" lon="0">
        <time>2021-02-28T10:18:32.653000+00:00</time>
      </trkpt>
      <trkpt lat="47.31303" lon="-1.39625">
        <ele>113</ele>
        <time>2021-02-28T10:18:33.625000+00:00</time>
      </trkpt>
      <trkpt lat="0" lon="0">
        <time>2021-02-28T10:18:33.635000+00:00</time>
      </trkpt>
      <trkpt lat="0" lon="0">
        <time>2021-02-28T10:18:33.642000+00:00</time>
      </trkpt>
      <trkpt lat="0" lon="0">
        <time>2021-02-28T10:18:33.645000+00:00</time>
      </trkpt>
      <trkpt lat="47.31302" lon="-1.39621">
        <ele>113</ele>
        <time>2021-02-28T10:18:34.583000+00:00</time>
      </trkpt>
      <trkpt lat="0" lon="0">
        <time>2021-02-28T10:18:34.591000+00:00</time>
      </trkpt>
      <trkpt lat="0" lon="0">
        <time>2021-02-28T10:18:34.596000+00:00</time>
      </trkpt>
      <trkpt lat="0" lon="0">
        <time>2021-02-28T10:18:34.599000+00:00</time>
      </trkpt>
      <trkpt lat="47.31301" lon="-1.39618">
        <ele>114</ele>
        <time>2021-02-28T10:18:35.647000+00:00</time>
      </trkpt>
      <trkpt lat="0" lon="0">
        <time>2021-02-28T10:18:35.658000+00:00</time>
      </trkpt>
      <trkpt lat="0" lon="0">
        <time>2021-02-28T10:18:35.668000+00:00</time>
      </trkpt>
      <trkpt lat="0" lon="0">
        <time>2021-02-28T10:18:35.670000+00:00</time>
      </trkpt>
      <trkpt lat="47.313" lon="-1.39614">
        <ele>114</ele>
        <time>2021-02-28T10:18:36.663000+00:00</time>
      </trkpt>
      <trkpt lat="0" lon="0">
        <time>2021-02-28T10:18:36.675000+00:00</time>
      </trkpt>
      <trkpt lat="0" lon="0">
        <time>2021-02-28T10:18:36.686000+00:00</time>
      </trkpt>
      <trkpt lat="0" lon="0">
        <time>2021-02-28T10:18:36.689000+00:00</time>
      </trkpt>
      <trkpt lat="47.31299" lon="-1.39611">
        <ele>114</ele>
        <time>2021-02-28T10:18:37.620000+00:00</time>
      </trkpt>
      <trkpt lat="0" lon="0">
        <time>2021-02-28T10:18:37.628000+00:00</time>
      </trkpt>
      <trkpt lat="0" lon="0">
        <time>2021-02-28T10:18:37.634000+00:00</time>
      </trkpt>
      <trkpt lat="0" lon="0">
        <time>2021-02-28T10:18:37.636000+00:00</time>
      </trkpt>
      <trkpt lat="47.31298" lon="-1.39608">
        <ele>114</ele>
        <time>2021-02-28T10:18:38.666000+00:00</time>
      </trkpt>
      <trkpt lat="0" lon="0">
        <time>2021-02-28T10:18:38.669000+00:00</time>
      </trkpt>
      <trkpt lat="0" lon="0">
        <time>2021-02-28T10:18:38.674000+00:00</time>
      </trkpt>
      <trkpt lat="0" lon="0">
        <time>2021-02-28T10:18:38.676000+00:00</time>
      </trkpt>
      <trkpt lat="47.31297" lon="-1.39605">
        <ele>114</ele>
        <time>2021-02-28T10:18:39.621000+00:00</time>
      </trkpt>
      <trkpt lat="0" lon="0">
        <time>2021-02-28T10:18:39.633000+00:00</time>
      </trkpt>
      <trkpt lat="0" lon="0">
        <time>2021-02-28T10:18:39.639000+00:00</time>
      </trkpt>
      <trkpt lat="0" lon="0">
        <time>2021-02-28T10:18:39.642000+00:00</time>
      </trkpt>
      <trkpt lat="47.31296" lon="-1.39603">
        <ele>114</ele>
        <time>2021-02-28T10:18:40.507000+00:00</time>
      </trkpt>
      <trkpt lat="0" lon="0">
        <time>2021-02-28T10:18:40.512000+00:00</time>
      </trkpt>
      <trkpt lat="0" lon="0">
        <time>2021-02-28T10:18:40.515000+00:00</time>
      </trkpt>
      <trkpt lat="0" lon="0">
        <time>2021-02-28T10:18:40.517000+00:00</time>
      </trkpt>
      <trkpt lat="47.31294" lon="-1.39601">
        <ele>115</ele>
        <time>2021-02-28T10:18:41.603000+00:00</time>
      </trkpt>
      <trkpt lat="0" lon="0">
        <time>2021-02-28T10:18:41.614000+00:00</time>
      </trkpt>
      <trkpt lat="0" lon="0">
        <time>2021-02-28T10:18:41.618000+00:00</time>
      </trkpt>
      <trkpt lat="0" lon="0">
        <time>2021-02-28T10:18:41.621000+00:00</time>
      </trkpt>
      <trkpt lat="47.31293" lon="-1.39598">
        <ele>115</ele>
        <time>2021-02-28T10:18:42.642000+00:00</time>
      </trkpt>
      <trkpt lat="0" lon="0">
        <time>2021-02-28T10:18:42.649000+00:00</time>
      </trkpt>
      <trkpt lat="0" lon="0">
        <time>2021-02-28T10:18:42.655000+00:00</time>
      </trkpt>
      <trkpt lat="0" lon="0">
        <time>2021-02-28T10:18:42.658000+00:00</time>
      </trkpt>
      <trkpt lat="47.31292" lon="-1.39596">
        <ele>115</ele>
        <time>2021-02-28T10:18:43.657000+00:00</time>
      </trkpt>
      <trkpt lat="0" lon="0">
        <time>2021-02-28T10:18:43.665000+00:00</time>
      </trkpt>
      <trkpt lat="0" lon="0">
        <time>2021-02-28T10:18:43.673000+00:00</time>
      </trkpt>
      <trkpt lat="0" lon="0">
        <time>2021-02-28T10:18:43.677000+00:00</time>
      </trkpt>
      <trkpt lat="47.31291" lon="-1.39594">
        <ele>116</ele>
        <time>2021-02-28T10:18:44.669000+00:00</time>
      </trkpt>
      <trkpt lat="0" lon="0">
        <time>2021-02-28T10:18:44.687000+00:00</time>
      </trkpt>
      <trkpt lat="0" lon="0">
        <time>2021-02-28T10:18:44.693000+00:00</time>
      </trkpt>
      <trkpt lat="0" lon="0">
        <time>2021-02-28T10:18:44.696000+00:00</time>
      </trkpt>
      <trkpt lat="47.3129" lon="-1.39592">
        <ele>116</ele>
        <time>2021-02-28T10:18:45.604000+00:00</time>
      </trkpt>
      <trkpt lat="0" lon="0">
        <time>2021-02-28T10:18:45.614000+00:00</time>
      </trkpt>
      <trkpt lat="0" lon="0">
        <time>2021-02-28T10:18:45.619000+00:00</time>
      </trkpt>
      <trkpt lat="0" lon="0">
        <time>2021-02-28T10:18:45.622000+00:00</time>
      </trkpt>
      <trkpt lat="47.31289" lon="-1.3959">
        <ele>116</ele>
        <time>2021-02-28T10:18:46.628000+00:00</time>
      </trkpt>
      <trkpt lat="0" lon="0">
        <time>2021-02-28T10:18:46.634000+00:00</time>
      </trkpt>
      <trkpt lat="0" lon="0">
        <time>2021-02-28T10:18:46.639000+00:00</time>
      </trkpt>
      <trkpt lat="0" lon="0">
        <time>2021-02-28T10:18:46.642000+00:00</time>
      </trkpt>
      <trkpt lat="47.31288" lon="-1.39588">
        <ele>116</ele>
        <time>2021-02-28T10:18:47.672000+00:00</time>
      </trkpt>
      <trkpt lat="0" lon="0">
        <time>2021-02-28T10:18:47.681000+00:00</time>
      </trkpt>
      <trkpt lat="0" lon="0">
        <time>2021-02-28T10:18:47.687000+00:00</time>
      </trkpt>
      <trkpt lat="0" lon="0">
        <time>2021-02-28T10:18:47.689000+00:00</time>
      </trkpt>
      <trkpt lat="47.31287" lon="-1.39586">
        <ele>116</ele>
        <time>2021-02-28T10:18:48.653000+00:00</time>
      </trkpt>
      <trkpt lat="0" lon="0">
        <time>2021-02-28T10:18:48.663000+00:00</time>
      </trkpt>
      <trkpt lat="0" lon="0">
        <time>2021-02-28T10:18:48.669000+00:00</time>
      </trkpt>
      <trkpt lat="0" lon="0">
        <time>2021-02-28T10:18:48.672000+00:00</time>
      </trkpt>
      <trkpt lat="47.31286" lon="-1.39584">
        <ele>116</ele>
        <time>2021-02-28T10:18:49.665000+00:00</time>
      </trkpt>
      <trkpt lat="0" lon="0">
        <time>2021-02-28T10:18:49.671000+00:00</time>
      </trkpt>
      <trkpt lat="0" lon="0">
        <time>2021-02-28T10:18:49.678000+00:00</time>
      </trkpt>
      <trkpt lat="0" lon="0">
        <time>2021-02-28T10:18:49.682000+00:00</time>
      </trkpt>
      <trkpt lat="47.31285" lon="-1.39582">
        <ele>116</ele>
        <time>2021-02-28T10:18:50.621000+00:00</time>
      </trkpt>
      <trkpt lat="0" lon="0">
        <time>2021-02-28T10:18:50.626000+00:00</time>
      </trkpt>
      <trkpt lat="0" lon="0">
        <time>2021-02-28T10:18:50.630000+00:00</time>
      </trkpt>
      <trkpt lat="0" lon="0">
        <time>2021-02-28T10:18:50.633000+00:00</time>
      </trkpt>
      <trkpt lat="47.31284" lon="-1.3958">
        <ele>117</ele>
        <time>2021-02-28T10:18:51.611000+00:00</time>
      </trkpt>
      <trkpt lat="0" lon="0">
        <time>2021-02-28T10:18:51.621000+00:00</time>
      </trkpt>
      <trkpt lat="0" lon="0">
        <time>2021-02-28T10:18:51.636000+00:00</time>
      </trkpt>
      <trkpt lat="0" lon="0">
        <time>2021-02-28T10:18:51.638000+00:00</time>
      </trkpt>
      <trkpt lat="47.31283" lon="-1.39578">
        <ele>117</ele>
        <time>2021-02-28T10:18:52.671000+00:00</time>
      </trkpt>
      <trkpt lat="0" lon="0">
        <time>2021-02-28T10:18:52.678000+00:00</time>
      </trkpt>
      <trkpt lat="0" lon="0">
        <time>2021-02-28T10:18:52.683000+00:00</time>
      </trkpt>
      <trkpt lat="0" lon="0">
        <time>2021-02-28T10:18:52.686000+00:00</time>
      </trkpt>
      <trkpt lat="47.31281" lon="-1.39575">
        <ele>118</ele>
        <time>2021-02-28T10:18:53.618000+00:00</time>
      </trkpt>
      <trkpt lat="0" lon="0">
        <time>2021-02-28T10:18:53.628000+00:00</time>
      </trkpt>
      <trkpt lat="0" lon="0">
        <time>2021-02-28T10:18:53.633000+00:00</time>
      </trkpt>
      <trkpt lat="0" lon="0">
        <time>2021-02-28T10:18:53.635000+00:00</time>
      </trkpt>
      <trkpt lat="47.3128" lon="-1.39573">
        <ele>118</ele>
        <time>2021-02-28T10:18:54.650000+00:00</time>
      </trkpt>
      <trkpt lat="0" lon="0">
        <time>2021-02-28T10:18:54.655000+00:00</time>
      </trkpt>
      <trkpt lat="0" lon="0">
        <time>2021-02-28T10:18:54.664000+00:00</time>
      </trkpt>
      <trkpt lat="0" lon="0">
        <time>2021-02-28T10:18:54.667000+00:00</time>
      </trkpt>
      <trkpt lat="47.31279" lon="-1.3957">
        <ele>118</ele>
        <time>2021-02-28T10:18:55.593000+00:00</time>
      </trkpt>
      <trkpt lat="0" lon="0">
        <time>2021-02-28T10:18:55.595000+00:00</time>
      </trkpt>
      <trkpt lat="0" lon="0">
        <time>2021-02-28T10:18:55.598000+00:00</time>
      </trkpt>
      <trkpt lat="0" lon="0">
        <time>2021-02-28T10:18:55.599000+00:00</time>
      </trkpt>
      <trkpt lat="47.31278" lon="-1.39568">
        <ele>118</ele>
        <time>2021-02-28T10:18:56.646000+00:00</time>
      </trkpt>
      <trkpt lat="0" lon="0">
        <time>2021-02-28T10:18:56.653000+00:00</time>
      </trkpt>
      <trkpt lat="0" lon="0">
        <time>2021-02-28T10:18:56.659000+00:00</time>
      </trkpt>
      <trkpt lat="0" lon="0">
        <time>2021-02-28T10:18:56.663000+00:00</time>
      </trkpt>
      <trkpt lat="47.31276" lon="-1.39565">
        <ele>119</ele>
        <time>2021-02-28T10:18:57.667000+00:00</time>
      </trkpt>
      <trkpt lat="0" lon="0">
        <time>2021-02-28T10:18:57.675000+00:00</time>
      </trkpt>
      <trkpt lat="0" lon="0">
        <time>2021-02-28T10:18:57.677000+00:00</time>
      </trkpt>
      <trkpt lat="0" lon="0">
        <time>2021-02-28T10:18:57.678000+00:00</time>
      </trkpt>
      <trkpt lat="47.31275" lon="-1.39563">
        <ele>120</ele>
        <time>2021-02-28T10:18:58.647000+00:00</time>
      </trkpt>
      <trkpt lat="0" lon="0">
        <time>2021-02-28T10:18:58.658000+00:00</time>
      </trkpt>
      <trkpt lat="0" lon="0">
        <time>2021-02-28T10:18:58.662000+00:00</time>
      </trkpt>
      <trkpt lat="0" lon="0">
        <time>2021-02-28T10:18:58.664000+00:00</time>
      </trkpt>
      <trkpt lat="47.31274" lon="-1.3956">
        <ele>120</ele>
        <time>2021-02-28T10:18:59.689000+00:00</time>
      </trkpt>
      <trkpt lat="0" lon="0">
        <time>2021-02-28T10:18:59.697000+00:00</time>
      </trkpt>
      <trkpt lat="0" lon="0">
        <time>2021-02-28T10:18:59.703000+00:00</time>
      </trkpt>
      <trkpt lat="0" lon="0">
        <time>2021-02-28T10:18:59.706000+00:00</time>
      </trkpt>
      <trkpt lat="47.31273" lon="-1.39557">
        <ele>120</ele>
        <time>2021-02-28T10:19:00.623000+00:00</time>
      </trkpt>
      <trkpt lat="0" lon="0">
        <time>2021-02-28T10:19:00.631000+00:00</time>
      </trkpt>
      <trkpt lat="0" lon="0">
        <time>2021-02-28T10:19:00.637000+00:00</time>
      </trkpt>
      <trkpt lat="0" lon="0">
        <time>2021-02-28T10:19:00.641000+00:00</time>
      </trkpt>
      <trkpt lat="47.31271" lon="-1.39555">
        <ele>121</ele>
        <time>2021-02-28T10:19:01.601000+00:00</time>
      </trkpt>
      <trkpt lat="0" lon="0">
        <time>2021-02-28T10:19:01.612000+00:00</time>
      </trkpt>
      <trkpt lat="0" lon="0">
        <time>2021-02-28T10:19:01.617000+00:00</time>
      </trkpt>
      <trkpt lat="0" lon="0">
        <time>2021-02-28T10:19:01.620000+00:00</time>
      </trkpt>
      <trkpt lat="47.3127" lon="-1.39553">
        <ele>121</ele>
        <time>2021-02-28T10:19:02.627000+00:00</time>
      </trkpt>
      <trkpt lat="0" lon="0">
        <time>2021-02-28T10:19:02.639000+00:00</time>
      </trkpt>
      <trkpt lat="0" lon="0">
        <time>2021-02-28T10:19:02.645000+00:00</time>
      </trkpt>
      <trkpt lat="0" lon="0">
        <time>2021-02-28T10:19:02.647000+00:00</time>
      </trkpt>
      <trkpt lat="47.31269" lon="-1.3955">
        <ele>121</ele>
        <time>2021-02-28T10:19:03.652000+00:00</time>
      </trkpt>
      <trkpt lat="0" lon="0">
        <time>2021-02-28T10:19:03.662000+00:00</time>
      </trkpt>
      <trkpt lat="0" lon="0">
        <time>2021-02-28T10:19:03.668000+00:00</time>
      </trkpt>
      <trkpt lat="0" lon="0">
        <time>2021-02-28T10:19:03.671000+00:00</time>
      </trkpt>
      <trkpt lat="47.31268" lon="-1.39548">
        <ele>122</ele>
        <time>2021-02-28T10:19:04.656000+00:00</time>
      </trkpt>
      <trkpt lat="0" lon="0">
        <time>2021-02-28T10:19:04.667000+00:00</time>
      </trkpt>
      <trkpt lat="0" lon="0">
        <time>2021-02-28T10:19:04.676000+00:00</time>
      </trkpt>
      <trkpt lat="0" lon="0">
        <time>2021-02-28T10:19:04.679000+00:00</time>
      </trkpt>
      <trkpt lat="47.31268" lon="-1.39546">
        <ele>122</ele>
        <time>2021-02-28T10:19:05.663000+00:00</time>
      </trkpt>
      <trkpt lat="0" lon="0">
        <time>2021-02-28T10:19:05.669000+00:00</time>
      </trkpt>
      <trkpt lat="0" lon="0">
        <time>2021-02-28T10:19:05.674000+00:00</time>
      </trkpt>
      <trkpt lat="0" lon="0">
        <time>2021-02-28T10:19:05.677000+00:00</time>
      </trkpt>
      <trkpt lat="47.31267" lon="-1.39544">
        <ele>122</ele>
        <time>2021-02-28T10:19:06.619000+00:00</time>
      </trkpt>
      <trkpt lat="0" lon="0">
        <time>2021-02-28T10:19:06.624000+00:00</time>
      </trkpt>
      <trkpt lat="0" lon="0">
        <time>2021-02-28T10:19:06.632000+00:00</time>
      </trkpt>
      <trkpt lat="0" lon="0">
        <time>2021-02-28T10:19:06.634000+00:00</time>
      </trkpt>
      <trkpt lat="47.31266" lon="-1.39542">
        <ele>123</ele>
        <time>2021-02-28T10:19:07.635000+00:00</time>
      </trkpt>
      <trkpt lat="0" lon="0">
        <time>2021-02-28T10:19:07.641000+00:00</time>
      </trkpt>
      <trkpt lat="0" lon="0">
        <time>2021-02-28T10:19:07.646000+00:00</time>
      </trkpt>
      <trkpt lat="0" lon="0">
        <time>2021-02-28T10:19:07.648000+00:00</time>
      </trkpt>
      <trkpt lat="47.31265" lon="-1.39539">
        <ele>123</ele>
        <time>2021-02-28T10:19:08.624000+00:00</time>
      </trkpt>
      <trkpt lat="0" lon="0">
        <time>2021-02-28T10:19:08.631000+00:00</time>
      </trkpt>
      <trkpt lat="0" lon="0">
        <time>2021-02-28T10:19:08.636000+00:00</time>
      </trkpt>
      <trkpt lat="0" lon="0">
        <time>2021-02-28T10:19:08.640000+00:00</time>
      </trkpt>
      <trkpt lat="47.31264" lon="-1.39537">
        <ele>123</ele>
        <time>2021-02-28T10:19:09.611000+00:00</time>
      </trkpt>
      <trkpt lat="0" lon="0">
        <time>2021-02-28T10:19:09.623000+00:00</time>
      </trkpt>
      <trkpt lat="0" lon="0">
        <time>2021-02-28T10:19:09.630000+00:00</time>
      </trkpt>
      <trkpt lat="0" lon="0">
        <time>2021-02-28T10:19:09.633000+00:00</time>
      </trkpt>
      <trkpt lat="47.31263" lon="-1.39535">
        <ele>123</ele>
        <time>2021-02-28T10:19:10.633000+00:00</time>
      </trkpt>
      <trkpt lat="0" lon="0">
        <time>2021-02-28T10:19:10.638000+00:00</time>
      </trkpt>
      <trkpt lat="0" lon="0">
        <time>2021-02-28T10:19:10.645000+00:00</time>
      </trkpt>
      <trkpt lat="0" lon="0">
        <time>2021-02-28T10:19:10.647000+00:00</time>
      </trkpt>
      <trkpt lat="47.31262" lon="-1.39532">
        <ele>123</ele>
        <time>2021-02-28T10:19:11.629000+00:00</time>
      </trkpt>
      <trkpt lat="0" lon="0">
        <time>2021-02-28T10:19:11.638000+00:00</time>
      </trkpt>
      <trkpt lat="0" lon="0">
        <time>2021-02-28T10:19:11.643000+00:00</time>
      </trkpt>
      <trkpt lat="0" lon="0">
        <time>2021-02-28T10:19:11.646000+00:00</time>
      </trkpt>
      <trkpt lat="47.31261" lon="-1.3953">
        <ele>123</ele>
        <time>2021-02-28T10:19:12.647000+00:00</time>
      </trkpt>
      <trkpt lat="0" lon="0">
        <time>2021-02-28T10:19:12.662000+00:00</time>
      </trkpt>
      <trkpt lat="0" lon="0">
        <time>2021-02-28T10:19:12.667000+00:00</time>
      </trkpt>
      <trkpt lat="0" lon="0">
        <time>2021-02-28T10:19:12.669000+00:00</time>
      </trkpt>
      <trkpt lat="47.31261" lon="-1.39528">
        <ele>123</ele>
        <time>2021-02-28T10:19:13.661000+00:00</time>
      </trkpt>
      <trkpt lat="0" lon="0">
        <time>2021-02-28T10:19:13.672000+00:00</time>
      </trkpt>
      <trkpt lat="0" lon="0">
        <time>2021-02-28T10:19:13.680000+00:00</time>
      </trkpt>
      <trkpt lat="0" lon="0">
        <time>2021-02-28T10:19:13.683000+00:00</time>
      </trkpt>
      <trkpt lat="47.3126" lon="-1.39526">
        <ele>123</ele>
        <time>2021-02-28T10:19:14.630000+00:00</time>
      </trkpt>
      <trkpt lat="0" lon="0">
        <time>2021-02-28T10:19:14.640000+00:00</time>
      </trkpt>
      <trkpt lat="0" lon="0">
        <time>2021-02-28T10:19:14.645000+00:00</time>
      </trkpt>
      <trkpt lat="0" lon="0">
        <time>2021-02-28T10:19:14.648000+00:00</time>
      </trkpt>
      <trkpt lat="47.31259" lon="-1.39524">
        <ele>123</ele>
        <time>2021-02-28T10:19:15.594000+00:00</time>
      </trkpt>
      <trkpt lat="0" lon="0">
        <time>2021-02-28T10:19:15.603000+00:00</time>
      </trkpt>
      <trkpt lat="0" lon="0">
        <time>2021-02-28T10:19:15.608000+00:00</time>
      </trkpt>
      <trkpt lat="0" lon="0">
        <time>2021-02-28T10:19:15.611000+00:00</time>
      </trkpt>
      <trkpt lat="47.31258" lon="-1.39521">
        <ele>123</ele>
        <time>2021-02-28T10:19:16.611000+00:00</time>
      </trkpt>
      <trkpt lat="0" lon="0">
        <time>2021-02-28T10:19:16.618000+00:00</time>
      </trkpt>
      <trkpt lat="0" lon="0">
        <time>2021-02-28T10:19:16.627000+00:00</time>
      </trkpt>
      <trkpt lat="0" lon="0">
        <time>2021-02-28T10:19:16.633000+00:00</time>
      </trkpt>
      <trkpt lat="47.31258" lon="-1.39519">
        <ele>123</ele>
        <time>2021-02-28T10:19:17.646000+00:00</time>
      </trkpt>
      <trkpt lat="0" lon="0">
        <time>2021-02-28T10:19:17.651000+00:00</time>
      </trkpt>
      <trkpt lat="0" lon="0">
        <time>2021-02-28T10:19:17.657000+00:00</time>
      </trkpt>
      <trkpt lat="0" lon="0">
        <time>2021-02-28T10:19:17.659000+00:00</time>
      </trkpt>
      <trkpt lat="47.31257" lon="-1.39516">
        <ele>124</ele>
        <time>2021-02-28T10:19:18.643000+00:00</time>
      </trkpt>
      <trkpt lat="0" lon="0">
        <time>2021-02-28T10:19:18.648000+00:00</time>
      </trkpt>
      <trkpt lat="0" lon="0">
        <time>2021-02-28T10:19:18.652000+00:00</time>
      </trkpt>
      <trkpt lat="0" lon="0">
        <time>2021-02-28T10:19:18.655000+00:00</time>
      </trkpt>
      <trkpt lat="47.31256" lon="-1.39513">
        <ele>124</ele>
        <time>2021-02-28T10:19:19.635000+00:00</time>
      </trkpt>
      <trkpt lat="0" lon="0">
        <time>2021-02-28T10:19:19.650000+00:00</time>
      </trkpt>
      <trkpt lat="0" lon="0">
        <time>2021-02-28T10:19:19.658000+00:00</time>
      </trkpt>
      <trkpt lat="0" lon="0">
        <time>2021-02-28T10:19:19.662000+00:00</time>
      </trkpt>
      <trkpt lat="47.31255" lon="-1.39511">
        <ele>124</ele>
        <time>2021-02-28T10:19:20.594000+00:00</time>
      </trkpt>
      <trkpt lat="0" lon="0">
        <time>2021-02-28T10:19:20.607000+00:00</time>
      </trkpt>
      <trkpt lat="0" lon="0">
        <time>2021-02-28T10:19:20.613000+00:00</time>
      </trkpt>
      <trkpt lat="0" lon="0">
        <time>2021-02-28T10:19:20.616000+00:00</time>
      </trkpt>
      <trkpt lat="47.31254" lon="-1.39508">
        <ele>125</ele>
        <time>2021-02-28T10:19:21.594000+00:00</time>
      </trkpt>
      <trkpt lat="0" lon="0">
        <time>2021-02-28T10:19:21.596000+00:00</time>
      </trkpt>
      <trkpt lat="0" lon="0">
        <time>2021-02-28T10:19:21.598000+00:00</time>
      </trkpt>
      <trkpt lat="0" lon="0">
        <time>2021-02-28T10:19:21.599000+00:00</time>
      </trkpt>
      <trkpt lat="47.31253" lon="-1.39505">
        <ele>125</ele>
        <time>2021-02-28T10:19:22.596000+00:00</time>
      </trkpt>
      <trkpt lat="0" lon="0">
        <time>2021-02-28T10:19:22.605000+00:00</time>
      </trkpt>
      <trkpt lat="0" lon="0">
        <time>2021-02-28T10:19:22.609000+00:00</time>
      </trkpt>
      <trkpt lat="0" lon="0">
        <time>2021-02-28T10:19:22.611000+00:00</time>
      </trkpt>
      <trkpt lat="47.31252" lon="-1.39503">
        <ele>125</ele>
        <time>2021-02-28T10:19:23.617000+00:00</time>
      </trkpt>
      <trkpt lat="0" lon="0">
        <time>2021-02-28T10:19:23.624000+00:00</time>
      </trkpt>
      <trkpt lat="0" lon="0">
        <time>2021-02-28T10:19:23.629000+00:00</time>
      </trkpt>
      <trkpt lat="0" lon="0">
        <time>2021-02-28T10:19:23.631000+00:00</time>
      </trkpt>
      <trkpt lat="47.31251" lon="-1.395">
        <ele>125</ele>
        <time>2021-02-28T10:19:24.633000+00:00</time>
      </trkpt>
      <trkpt lat="0" lon="0">
        <time>2021-02-28T10:19:24.642000+00:00</time>
      </trkpt>
      <trkpt lat="0" lon="0">
        <time>2021-02-28T10:19:24.647000+00:00</time>
      </trkpt>
      <trkpt lat="0" lon="0">
        <time>2021-02-28T10:19:24.649000+00:00</time>
      </trkpt>
      <trkpt lat="47.3125" lon="-1.39498">
        <ele>126</ele>
        <time>2021-02-28T10:19:25.652000+00:00</time>
      </trkpt>
      <trkpt lat="0" lon="0">
        <time>2021-02-28T10:19:25.669000+00:00</time>
      </trkpt>
      <trkpt lat="0" lon="0">
        <time>2021-02-28T10:19:25.678000+00:00</time>
      </trkpt>
      <trkpt lat="0" lon="0">
        <time>2021-02-28T10:19:25.681000+00:00</time>
      </trkpt>
      <trkpt lat="47.31249" lon="-1.39495">
        <ele>125</ele>
        <time>2021-02-28T10:19:26.648000+00:00</time>
      </trkpt>
      <trkpt lat="0" lon="0">
        <time>2021-02-28T10:19:26.655000+00:00</time>
      </trkpt>
      <trkpt lat="0" lon="0">
        <time>2021-02-28T10:19:26.661000+00:00</time>
      </trkpt>
      <trkpt lat="0" lon="0">
        <time>2021-02-28T10:19:26.663000+00:00</time>
      </trkpt>
      <trkpt lat="47.31248" lon="-1.39492">
        <ele>126</ele>
        <time>2021-02-28T10:19:27.613000+00:00</time>
      </trkpt>
      <trkpt lat="0" lon="0">
        <time>2021-02-28T10:19:27.620000+00:00</time>
      </trkpt>
      <trkpt lat="0" lon="0">
        <time>2021-02-28T10:19:27.625000+00:00</time>
      </trkpt>
      <trkpt lat="0" lon="0">
        <time>2021-02-28T10:19:27.627000+00:00</time>
      </trkpt>
      <trkpt lat="47.31247" lon="-1.3949">
        <ele>126</ele>
        <time>2021-02-28T10:19:28.654000+00:00</time>
      </trkpt>
      <trkpt lat="0" lon="0">
        <time>2021-02-28T10:19:28.665000+00:00</time>
      </trkpt>
      <trkpt lat="0" lon="0">
        <time>2021-02-28T10:19:28.670000+00:00</time>
      </trkpt>
      <trkpt lat="0" lon="0">
        <time>2021-02-28T10:19:28.673000+00:00</time>
      </trkpt>
      <trkpt lat="47.31246" lon="-1.39487">
        <ele>126</ele>
        <time>2021-02-28T10:19:29.669000+00:00</time>
      </trkpt>
      <trkpt lat="0" lon="0">
        <time>2021-02-28T10:19:29.678000+00:00</time>
      </trkpt>
      <trkpt lat="0" lon="0">
        <time>2021-02-28T10:19:29.682000+00:00</time>
      </trkpt>
      <trkpt lat="0" lon="0">
        <time>2021-02-28T10:19:29.685000+00:00</time>
      </trkpt>
      <trkpt lat="47.31245" lon="-1.39483">
        <ele>127</ele>
        <time>2021-02-28T10:19:30.646000+00:00</time>
      </trkpt>
      <trkpt lat="0" lon="0">
        <time>2021-02-28T10:19:30.654000+00:00</time>
      </trkpt>
      <trkpt lat="0" lon="0">
        <time>2021-02-28T10:19:30.659000+00:00</time>
      </trkpt>
      <trkpt lat="0" lon="0">
        <time>2021-02-28T10:19:30.662000+00:00</time>
      </trkpt>
      <trkpt lat="47.31243" lon="-1.3948">
        <ele>127</ele>
        <time>2021-02-28T10:19:31.647000+00:00</time>
      </trkpt>
      <trkpt lat="0" lon="0">
        <time>2021-02-28T10:19:31.662000+00:00</time>
      </trkpt>
      <trkpt lat="0" lon="0">
        <time>2021-02-28T10:19:31.670000+00:00</time>
      </trkpt>
      <trkpt lat="0" lon="0">
        <time>2021-02-28T10:19:31.673000+00:00</time>
      </trkpt>
      <trkpt lat="47.31242" lon="-1.39477">
        <ele>127</ele>
        <time>2021-02-28T10:19:32.663000+00:00</time>
      </trkpt>
      <trkpt lat="0" lon="0">
        <time>2021-02-28T10:19:32.674000+00:00</time>
      </trkpt>
      <trkpt lat="0" lon="0">
        <time>2021-02-28T10:19:32.679000+00:00</time>
      </trkpt>
      <trkpt lat="0" lon="0">
        <time>2021-02-28T10:19:32.682000+00:00</time>
      </trkpt>
      <trkpt lat="47.31241" lon="-1.39473">
        <ele>127</ele>
        <time>2021-02-28T10:19:33.656000+00:00</time>
      </trkpt>
      <trkpt lat="0" lon="0">
        <time>2021-02-28T10:19:33.660000+00:00</time>
      </trkpt>
      <trkpt lat="0" lon="0">
        <time>2021-02-28T10:19:33.662000+00:00</time>
      </trkpt>
      <trkpt lat="0" lon="0">
        <time>2021-02-28T10:19:33.663000+00:00</time>
      </trkpt>
      <trkpt lat="47.3124" lon="-1.3947">
        <ele>127</ele>
        <time>2021-02-28T10:19:34.649000+00:00</time>
      </trkpt>
      <trkpt lat="0" lon="0">
        <time>2021-02-28T10:19:34.661000+00:00</time>
      </trkpt>
      <trkpt lat="0" lon="0">
        <time>2021-02-28T10:19:34.667000+00:00</time>
      </trkpt>
      <trkpt lat="0" lon="0">
        <time>2021-02-28T10:19:34.669000+00:00</time>
      </trkpt>
      <trkpt lat="47.31239" lon="-1.39466">
        <ele>127</ele>
        <time>2021-02-28T10:19:35.673000+00:00</time>
      </trkpt>
      <trkpt lat="0" lon="0">
        <time>2021-02-28T10:19:35.684000+00:00</time>
      </trkpt>
      <trkpt lat="0" lon="0">
        <time>2021-02-28T10:19:35.689000+00:00</time>
      </trkpt>
      <trkpt lat="0" lon="0">
        <time>2021-02-28T10:19:35.692000+00:00</time>
      </trkpt>
      <trkpt lat="47.31238" lon="-1.39463">
        <ele>127</ele>
        <time>2021-02-28T10:19:36.671000+00:00</time>
      </trkpt>
      <trkpt lat="0" lon="0">
        <time>2021-02-28T10:19:36.681000+00:00</time>
      </trkpt>
      <trkpt lat="0" lon="0">
        <time>2021-02-28T10:19:36.686000+00:00</time>
      </trkpt>
      <trkpt lat="0" lon="0">
        <time>2021-02-28T10:19:36.688000+00:00</time>
      </trkpt>
      <trkpt lat="47.31237" lon="-1.3946">
        <ele>128</ele>
        <time>2021-02-28T10:19:37.676000+00:00</time>
      </trkpt>
      <trkpt lat="0" lon="0">
        <time>2021-02-28T10:19:37.684000+00:00</time>
      </trkpt>
      <trkpt lat="0" lon="0">
        <time>2021-02-28T10:19:37.689000+00:00</time>
      </trkpt>
      <trkpt lat="0" lon="0">
        <time>2021-02-28T10:19:37.692000+00:00</time>
      </trkpt>
      <trkpt lat="47.31236" lon="-1.39456">
        <ele>128</ele>
        <time>2021-02-28T10:19:38.657000+00:00</time>
      </trkpt>
      <trkpt lat="0" lon="0">
        <time>2021-02-28T10:19:38.667000+00:00</time>
      </trkpt>
      <trkpt lat="0" lon="0">
        <time>2021-02-28T10:19:38.675000+00:00</time>
      </trkpt>
      <trkpt lat="0" lon="0">
        <time>2021-02-28T10:19:38.678000+00:00</time>
      </trkpt>
      <trkpt lat="47.31235" lon="-1.39453">
        <ele>129</ele>
        <time>2021-02-28T10:19:39.644000+00:00</time>
      </trkpt>
      <trkpt lat="0" lon="0">
        <time>2021-02-28T10:19:39.646000+00:00</time>
      </trkpt>
      <trkpt lat="0" lon="0">
        <time>2021-02-28T10:19:39.648000+00:00</time>
      </trkpt>
      <trkpt lat="0" lon="0">
        <time>2021-02-28T10:19:39.649000+00:00</time>
      </trkpt>
      <trkpt lat="47.31234" lon="-1.3945">
        <ele>129</ele>
        <time>2021-02-28T10:19:40.646000+00:00</time>
      </trkpt>
      <trkpt lat="0" lon="0">
        <time>2021-02-28T10:19:40.658000+00:00</time>
      </trkpt>
      <trkpt lat="0" lon="0">
        <time>2021-02-28T10:19:40.665000+00:00</time>
      </trkpt>
      <trkpt lat="0" lon="0">
        <time>2021-02-28T10:19:40.668000+00:00</time>
      </trkpt>
      <trkpt lat="47.31233" lon="-1.39446">
        <ele>129</ele>
        <time>2021-02-28T10:19:41.623000+00:00</time>
      </trkpt>
      <trkpt lat="0" lon="0">
        <time>2021-02-28T10:19:41.637000+00:00</time>
      </trkpt>
      <trkpt lat="0" lon="0">
        <time>2021-02-28T10:19:41.646000+00:00</time>
      </trkpt>
      <trkpt lat="0" lon="0">
        <time>2021-02-28T10:19:41.648000+00:00</time>
      </trkpt>
      <trkpt lat="47.31232" lon="-1.39443">
        <ele>129</ele>
        <time>2021-02-28T10:19:42.663000+00:00</time>
      </trkpt>
      <trkpt lat="0" lon="0">
        <time>2021-02-28T10:19:42.671000+00:00</time>
      </trkpt>
      <trkpt lat="0" lon="0">
        <time>2021-02-28T10:19:42.677000+00:00</time>
      </trkpt>
      <trkpt lat="0" lon="0">
        <time>2021-02-28T10:19:42.682000+00:00</time>
      </trkpt>
      <trkpt lat="47.31231" lon="-1.3944">
        <ele>129</ele>
        <time>2021-02-28T10:19:43.634000+00:00</time>
      </trkpt>
      <trkpt lat="0" lon="0">
        <time>2021-02-28T10:19:43.646000+00:00</time>
      </trkpt>
      <trkpt lat="0" lon="0">
        <time>2021-02-28T10:19:43.653000+00:00</time>
      </trkpt>
      <trkpt lat="0" lon="0">
        <time>2021-02-28T10:19:43.656000+00:00</time>
      </trkpt>
      <trkpt lat="47.3123" lon="-1.39437">
        <ele>130</ele>
        <time>2021-02-28T10:19:44.658000+00:00</time>
      </trkpt>
      <trkpt lat="0" lon="0">
        <time>2021-02-28T10:19:44.667000+00:00</time>
      </trkpt>
      <trkpt lat="0" lon="0">
        <time>2021-02-28T10:19:44.674000+00:00</time>
      </trkpt>
      <trkpt lat="0" lon="0">
        <time>2021-02-28T10:19:44.677000+00:00</time>
      </trkpt>
      <trkpt lat="47.3123" lon="-1.39435">
        <ele>130</ele>
        <time>2021-02-28T10:19:45.681000+00:00</time>
      </trkpt>
      <trkpt lat="0" lon="0">
        <time>2021-02-28T10:19:45.683000+00:00</time>
      </trkpt>
      <trkpt lat="0" lon="0">
        <time>2021-02-28T10:19:45.687000+00:00</time>
      </trkpt>
      <trkpt lat="0" lon="0">
        <time>2021-02-28T10:19:45.688000+00:00</time>
      </trkpt>
      <trkpt lat="47.31229" lon="-1.39432">
        <ele>130</ele>
        <time>2021-02-28T10:19:46.655000+00:00</time>
      </trkpt>
      <trkpt lat="0" lon="0">
        <time>2021-02-28T10:19:46.671000+00:00</time>
      </trkpt>
      <trkpt lat="0" lon="0">
        <time>2021-02-28T10:19:46.677000+00:00</time>
      </trkpt>
      <trkpt lat="0" lon="0">
        <time>2021-02-28T10:19:46.679000+00:00</time>
      </trkpt>
      <trkpt lat="47.31229" lon="-1.39429">
        <ele>129</ele>
        <time>2021-02-28T10:19:47.646000+00:00</time>
      </trkpt>
      <trkpt lat="0" lon="0">
        <time>2021-02-28T10:19:47.655000+00:00</time>
      </trkpt>
      <trkpt lat="0" lon="0">
        <time>2021-02-28T10:19:47.660000+00:00</time>
      </trkpt>
      <trkpt lat="0" lon="0">
        <time>2021-02-28T10:19:47.663000+00:00</time>
      </trkpt>
      <trkpt lat="47.31229" lon="-1.39426">
        <ele>129</ele>
        <time>2021-02-28T10:19:48.654000+00:00</time>
      </trkpt>
      <trkpt lat="0" lon="0">
        <time>2021-02-28T10:19:48.660000+00:00</time>
      </trkpt>
      <trkpt lat="0" lon="0">
        <time>2021-02-28T10:19:48.664000+00:00</time>
      </trkpt>
      <trkpt lat="0" lon="0">
        <time>2021-02-28T10:19:48.667000+00:00</time>
      </trkpt>
      <trkpt lat="47.31229" lon="-1.39423">
        <ele>130</ele>
        <time>2021-02-28T10:19:49.629000+00:00</time>
      </trkpt>
      <trkpt lat="0" lon="0">
        <time>2021-02-28T10:19:49.637000+00:00</time>
      </trkpt>
      <trkpt lat="0" lon="0">
        <time>2021-02-28T10:19:49.643000+00:00</time>
      </trkpt>
      <trkpt lat="0" lon="0">
        <time>2021-02-28T10:19:49.646000+00:00</time>
      </trkpt>
      <trkpt lat="47.31229" lon="-1.39421">
        <ele>130</ele>
        <time>2021-02-28T10:19:50.657000+00:00</time>
      </trkpt>
      <trkpt lat="0" lon="0">
        <time>2021-02-28T10:19:50.663000+00:00</time>
      </trkpt>
      <trkpt lat="0" lon="0">
        <time>2021-02-28T10:19:50.670000+00:00</time>
      </trkpt>
      <trkpt lat="0" lon="0">
        <time>2021-02-28T10:19:50.673000+00:00</time>
      </trkpt>
      <trkpt lat="47.31228" lon="-1.39418">
        <ele>129</ele>
        <time>2021-02-28T10:19:51.643000+00:00</time>
      </trkpt>
      <trkpt lat="0" lon="0">
        <time>2021-02-28T10:19:51.649000+00:00</time>
      </trkpt>
      <trkpt lat="0" lon="0">
        <time>2021-02-28T10:19:51.654000+00:00</time>
      </trkpt>
      <trkpt lat="0" lon="0">
        <time>2021-02-28T10:19:51.658000+00:00</time>
      </trkpt>
      <trkpt lat="47.31228" lon="-1.39416">
        <ele>128</ele>
        <time>2021-02-28T10:19:52.668000+00:00</time>
      </trkpt>
      <trkpt lat="0" lon="0">
        <time>2021-02-28T10:19:52.675000+00:00</time>
      </trkpt>
      <trkpt lat="0" lon="0">
        <time>2021-02-28T10:19:52.680000+00:00</time>
      </trkpt>
      <trkpt lat="0" lon="0">
        <time>2021-02-28T10:19:52.684000+00:00</time>
      </trkpt>
      <trkpt lat="47.31228" lon="-1.39413">
        <ele>127</ele>
        <time>2021-02-28T10:19:53.685000+00:00</time>
      </trkpt>
      <trkpt lat="0" lon="0">
        <time>2021-02-28T10:19:53.697000+00:00</time>
      </trkpt>
      <trkpt lat="0" lon="0">
        <time>2021-02-28T10:19:53.702000+00:00</time>
      </trkpt>
      <trkpt lat="0" lon="0">
        <time>2021-02-28T10:19:53.706000+00:00</time>
      </trkpt>
      <trkpt lat="47.31227" lon="-1.3941">
        <ele>127</ele>
        <time>2021-02-28T10:19:54.589000+00:00</time>
      </trkpt>
      <trkpt lat="0" lon="0">
        <time>2021-02-28T10:19:54.596000+00:00</time>
      </trkpt>
      <trkpt lat="0" lon="0">
        <time>2021-02-28T10:19:54.600000+00:00</time>
      </trkpt>
      <trkpt lat="0" lon="0">
        <time>2021-02-28T10:19:54.603000+00:00</time>
      </trkpt>
      <trkpt lat="47.31227" lon="-1.39407">
        <ele>127</ele>
        <time>2021-02-28T10:19:55.643000+00:00</time>
      </trkpt>
      <trkpt lat="0" lon="0">
        <time>2021-02-28T10:19:55.655000+00:00</time>
      </trkpt>
      <trkpt lat="0" lon="0">
        <time>2021-02-28T10:19:55.662000+00:00</time>
      </trkpt>
      <trkpt lat="0" lon="0">
        <time>2021-02-28T10:19:55.665000+00:00</time>
      </trkpt>
      <trkpt lat="47.31226" lon="-1.39404">
        <ele>127</ele>
        <time>2021-02-28T10:19:56.677000+00:00</time>
      </trkpt>
      <trkpt lat="0" lon="0">
        <time>2021-02-28T10:19:56.685000+00:00</time>
      </trkpt>
      <trkpt lat="0" lon="0">
        <time>2021-02-28T10:19:56.690000+00:00</time>
      </trkpt>
      <trkpt lat="0" lon="0">
        <time>2021-02-28T10:19:56.692000+00:00</time>
      </trkpt>
      <trkpt lat="47.31225" lon="-1.39401">
        <ele>127</ele>
        <time>2021-02-28T10:19:57.606000+00:00</time>
      </trkpt>
      <trkpt lat="0" lon="0">
        <time>2021-02-28T10:19:57.617000+00:00</time>
      </trkpt>
      <trkpt lat="0" lon="0">
        <time>2021-02-28T10:19:57.624000+00:00</time>
      </trkpt>
      <trkpt lat="0" lon="0">
        <time>2021-02-28T10:19:57.627000+00:00</time>
      </trkpt>
      <trkpt lat="47.31225" lon="-1.39398">
        <ele>127</ele>
        <time>2021-02-28T10:19:58.662000+00:00</time>
      </trkpt>
      <trkpt lat="0" lon="0">
        <time>2021-02-28T10:19:58.674000+00:00</time>
      </trkpt>
      <trkpt lat="0" lon="0">
        <time>2021-02-28T10:19:58.679000+00:00</time>
      </trkpt>
      <trkpt lat="0" lon="0">
        <time>2021-02-28T10:19:58.681000+00:00</time>
      </trkpt>
      <trkpt lat="47.31224" lon="-1.39394">
        <ele>127</ele>
        <time>2021-02-28T10:19:59.636000+00:00</time>
      </trkpt>
      <trkpt lat="0" lon="0">
        <time>2021-02-28T10:19:59.640000+00:00</time>
      </trkpt>
      <trkpt lat="0" lon="0">
        <time>2021-02-28T10:19:59.644000+00:00</time>
      </trkpt>
      <trkpt lat="0" lon="0">
        <time>2021-02-28T10:19:59.647000+00:00</time>
      </trkpt>
      <trkpt lat="47.31223" lon="-1.39391">
        <ele>128</ele>
        <time>2021-02-28T10:20:00.645000+00:00</time>
      </trkpt>
      <trkpt lat="0" lon="0">
        <time>2021-02-28T10:20:00.651000+00:00</time>
      </trkpt>
      <trkpt lat="0" lon="0">
        <time>2021-02-28T10:20:00.655000+00:00</time>
      </trkpt>
      <trkpt lat="0" lon="0">
        <time>2021-02-28T10:20:00.658000+00:00</time>
      </trkpt>
      <trkpt lat="47.31223" lon="-1.39388">
        <ele>128</ele>
        <time>2021-02-28T10:20:01.674000+00:00</time>
      </trkpt>
      <trkpt lat="0" lon="0">
        <time>2021-02-28T10:20:01.687000+00:00</time>
      </trkpt>
      <trkpt lat="0" lon="0">
        <time>2021-02-28T10:20:01.697000+00:00</time>
      </trkpt>
      <trkpt lat="0" lon="0">
        <time>2021-02-28T10:20:01.701000+00:00</time>
      </trkpt>
      <trkpt lat="47.31222" lon="-1.39385">
        <ele>128</ele>
        <time>2021-02-28T10:20:02.637000+00:00</time>
      </trkpt>
      <trkpt lat="0" lon="0">
        <time>2021-02-28T10:20:02.639000+00:00</time>
      </trkpt>
      <trkpt lat="0" lon="0">
        <time>2021-02-28T10:20:02.641000+00:00</time>
      </trkpt>
      <trkpt lat="0" lon="0">
        <time>2021-02-28T10:20:02.643000+00:00</time>
      </trkpt>
      <trkpt lat="47.31221" lon="-1.39383">
        <ele>127</ele>
        <time>2021-02-28T10:20:03.642000+00:00</time>
      </trkpt>
      <trkpt lat="0" lon="0">
        <time>2021-02-28T10:20:03.648000+00:00</time>
      </trkpt>
      <trkpt lat="0" lon="0">
        <time>2021-02-28T10:20:03.654000+00:00</time>
      </trkpt>
      <trkpt lat="0" lon="0">
        <time>2021-02-28T10:20:03.657000+00:00</time>
      </trkpt>
      <trkpt lat="47.3122" lon="-1.3938">
        <ele>128</ele>
        <time>2021-02-28T10:20:04.647000+00:00</time>
      </trkpt>
      <trkpt lat="0" lon="0">
        <time>2021-02-28T10:20:04.653000+00:00</time>
      </trkpt>
      <trkpt lat="0" lon="0">
        <time>2021-02-28T10:20:04.657000+00:00</time>
      </trkpt>
      <trkpt lat="0" lon="0">
        <time>2021-02-28T10:20:04.660000+00:00</time>
      </trkpt>
      <trkpt lat="47.31219" lon="-1.39378">
        <ele>127</ele>
        <time>2021-02-28T10:20:05.688000+00:00</time>
      </trkpt>
      <trkpt lat="0" lon="0">
        <time>2021-02-28T10:20:05.698000+00:00</time>
      </trkpt>
      <trkpt lat="0" lon="0">
        <time>2021-02-28T10:20:05.704000+00:00</time>
      </trkpt>
      <trkpt lat="0" lon="0">
        <time>2021-02-28T10:20:05.707000+00:00</time>
      </trkpt>
      <trkpt lat="47.31218" lon="-1.39376">
        <ele>128</ele>
        <time>2021-02-28T10:20:06.647000+00:00</time>
      </trkpt>
      <trkpt lat="0" lon="0">
        <time>2021-02-28T10:20:06.656000+00:00</time>
      </trkpt>
      <trkpt lat="0" lon="0">
        <time>2021-02-28T10:20:06.670000+00:00</time>
      </trkpt>
      <trkpt lat="0" lon="0">
        <time>2021-02-28T10:20:06.677000+00:00</time>
      </trkpt>
      <trkpt lat="47.31218" lon="-1.39375">
        <ele>127</ele>
        <time>2021-02-28T10:20:07.650000+00:00</time>
      </trkpt>
      <trkpt lat="0" lon="0">
        <time>2021-02-28T10:20:07.662000+00:00</time>
      </trkpt>
      <trkpt lat="0" lon="0">
        <time>2021-02-28T10:20:07.669000+00:00</time>
      </trkpt>
      <trkpt lat="0" lon="0">
        <time>2021-02-28T10:20:07.672000+00:00</time>
      </trkpt>
      <trkpt lat="47.31217" lon="-1.39373">
        <ele>127</ele>
        <time>2021-02-28T10:20:08.635000+00:00</time>
      </trkpt>
      <trkpt lat="0" lon="0">
        <time>2021-02-28T10:20:08.640000+00:00</time>
      </trkpt>
      <trkpt lat="0" lon="0">
        <time>2021-02-28T10:20:08.645000+00:00</time>
      </trkpt>
      <trkpt lat="0" lon="0">
        <time>2021-02-28T10:20:08.647000+00:00</time>
      </trkpt>
      <trkpt lat="47.31216" lon="-1.39372">
        <ele>127</ele>
        <time>2021-02-28T10:20:09.628000+00:00</time>
      </trkpt>
      <trkpt lat="0" lon="0">
        <time>2021-02-28T10:20:09.642000+00:00</time>
      </trkpt>
      <trkpt lat="0" lon="0">
        <time>2021-02-28T10:20:09.647000+00:00</time>
      </trkpt>
      <trkpt lat="0" lon="0">
        <time>2021-02-28T10:20:09.649000+00:00</time>
      </trkpt>
      <trkpt lat="47.31215" lon="-1.39371">
        <ele>128</ele>
        <time>2021-02-28T10:20:10.645000+00:00</time>
      </trkpt>
      <trkpt lat="0" lon="0">
        <time>2021-02-28T10:20:10.654000+00:00</time>
      </trkpt>
      <trkpt lat="0" lon="0">
        <time>2021-02-28T10:20:10.663000+00:00</time>
      </trkpt>
      <trkpt lat="0" lon="0">
        <time>2021-02-28T10:20:10.665000+00:00</time>
      </trkpt>
      <trkpt lat="47.31213" lon="-1.39371">
        <ele>128</ele>
        <time>2021-02-28T10:20:11.664000+00:00</time>
      </trkpt>
      <trkpt lat="0" lon="0">
        <time>2021-02-28T10:20:11.670000+00:00</time>
      </trkpt>
      <trkpt lat="0" lon="0">
        <time>2021-02-28T10:20:11.677000+00:00</time>
      </trkpt>
      <trkpt lat="0" lon="0">
        <time>2021-02-28T10:20:11.681000+00:00</time>
      </trkpt>
      <trkpt lat="47.31212" lon="-1.3937">
        <ele>127</ele>
        <time>2021-02-28T10:20:12.690000+00:00</time>
      </trkpt>
      <trkpt lat="0" lon="0">
        <time>2021-02-28T10:20:12.701000+00:00</time>
      </trkpt>
      <trkpt lat="0" lon="0">
        <time>2021-02-28T10:20:12.710000+00:00</time>
      </trkpt>
      <trkpt lat="0" lon="0">
        <time>2021-02-28T10:20:12.714000+00:00</time>
      </trkpt>
      <trkpt lat="47.31211" lon="-1.3937">
        <ele>127</ele>
        <time>2021-02-28T10:20:13.636000+00:00</time>
      </trkpt>
      <trkpt lat="0" lon="0">
        <time>2021-02-28T10:20:13.645000+00:00</time>
      </trkpt>
      <trkpt lat="0" lon="0">
        <time>2021-02-28T10:20:13.647000+00:00</time>
      </trkpt>
      <trkpt lat="0" lon="0">
        <time>2021-02-28T10:20:13.649000+00:00</time>
      </trkpt>
      <trkpt lat="47.3121" lon="-1.39369">
        <ele>126</ele>
        <time>2021-02-28T10:20:14.633000+00:00</time>
      </trkpt>
      <trkpt lat="0" lon="0">
        <time>2021-02-28T10:20:14.638000+00:00</time>
      </trkpt>
      <trkpt lat="0" lon="0">
        <time>2021-02-28T10:20:14.643000+00:00</time>
      </trkpt>
      <trkpt lat="0" lon="0">
        <time>2021-02-28T10:20:14.647000+00:00</time>
      </trkpt>
      <trkpt lat="47.3121" lon="-1.39369">
        <ele>126</ele>
        <time>2021-02-28T10:20:15.714000+00:00</time>
      </trkpt>
      <trkpt lat="0" lon="0">
        <time>2021-02-28T10:20:15.728000+00:00</time>
      </trkpt>
      <trkpt lat="0" lon="0">
        <time>2021-02-28T10:20:15.736000+00:00</time>
      </trkpt>
      <trkpt lat="0" lon="0">
        <time>2021-02-28T10:20:15.741000+00:00</time>
      </trkpt>
      <trkpt lat="47.31209" lon="-1.39369">
        <ele>126</ele>
        <time>2021-02-28T10:20:16.667000+00:00</time>
      </trkpt>
      <trkpt lat="0" lon="0">
        <time>2021-02-28T10:20:16.672000+00:00</time>
      </trkpt>
      <trkpt lat="0" lon="0">
        <time>2021-02-28T10:20:16.676000+00:00</time>
      </trkpt>
      <trkpt lat="0" lon="0">
        <time>2021-02-28T10:20:16.679000+00:00</time>
      </trkpt>
      <trkpt lat="47.31208" lon="-1.39368">
        <ele>125</ele>
        <time>2021-02-28T10:20:17.658000+00:00</time>
      </trkpt>
      <trkpt lat="0" lon="0">
        <time>2021-02-28T10:20:17.669000+00:00</time>
      </trkpt>
      <trkpt lat="0" lon="0">
        <time>2021-02-28T10:20:17.675000+00:00</time>
      </trkpt>
      <trkpt lat="0" lon="0">
        <time>2021-02-28T10:20:17.679000+00:00</time>
      </trkpt>
      <trkpt lat="47.31207" lon="-1.39368">
        <ele>125</ele>
        <time>2021-02-28T10:20:18.661000+00:00</time>
      </trkpt>
      <trkpt lat="0" lon="0">
        <time>2021-02-28T10:20:18.674000+00:00</time>
      </trkpt>
      <trkpt lat="0" lon="0">
        <time>2021-02-28T10:20:18.680000+00:00</time>
      </trkpt>
      <trkpt lat="0" lon="0">
        <time>2021-02-28T10:20:18.684000+00:00</time>
      </trkpt>
      <trkpt lat="47.31206" lon="-1.39368">
        <ele>125</ele>
        <time>2021-02-28T10:20:19.606000+00:00</time>
      </trkpt>
      <trkpt lat="0" lon="0">
        <time>2021-02-28T10:20:19.610000+00:00</time>
      </trkpt>
      <trkpt lat="0" lon="0">
        <time>2021-02-28T10:20:19.613000+00:00</time>
      </trkpt>
      <trkpt lat="0" lon="0">
        <time>2021-02-28T10:20:19.614000+00:00</time>
      </trkpt>
      <trkpt lat="47.31205" lon="-1.39368">
        <ele>125</ele>
        <time>2021-02-28T10:20:20.615000+00:00</time>
      </trkpt>
      <trkpt lat="0" lon="0">
        <time>2021-02-28T10:20:20.623000+00:00</time>
      </trkpt>
      <trkpt lat="0" lon="0">
        <time>2021-02-28T10:20:20.628000+00:00</time>
      </trkpt>
      <trkpt lat="0" lon="0">
        <time>2021-02-28T10:20:20.630000+00:00</time>
      </trkpt>
      <trkpt lat="47.31204" lon="-1.39368">
        <ele>125</ele>
        <time>2021-02-28T10:20:21.635000+00:00</time>
      </trkpt>
      <trkpt lat="0" lon="0">
        <time>2021-02-28T10:20:21.648000+00:00</time>
      </trkpt>
      <trkpt lat="0" lon="0">
        <time>2021-02-28T10:20:21.654000+00:00</time>
      </trkpt>
      <trkpt lat="0" lon="0">
        <time>2021-02-28T10:20:21.657000+00:00</time>
      </trkpt>
      <trkpt lat="47.31203" lon="-1.39367">
        <ele>125</ele>
        <time>2021-02-28T10:20:22.646000+00:00</time>
      </trkpt>
      <trkpt lat="0" lon="0">
        <time>2021-02-28T10:20:22.656000+00:00</time>
      </trkpt>
      <trkpt lat="0" lon="0">
        <time>2021-02-28T10:20:22.661000+00:00</time>
      </trkpt>
      <trkpt lat="0" lon="0">
        <time>2021-02-28T10:20:22.664000+00:00</time>
      </trkpt>
      <trkpt lat="47.31202" lon="-1.39367">
        <ele>125</ele>
        <time>2021-02-28T10:20:23.624000+00:00</time>
      </trkpt>
      <trkpt lat="0" lon="0">
        <time>2021-02-28T10:20:23.633000+00:00</time>
      </trkpt>
      <trkpt lat="0" lon="0">
        <time>2021-02-28T10:20:23.639000+00:00</time>
      </trkpt>
      <trkpt lat="0" lon="0">
        <time>2021-02-28T10:20:23.642000+00:00</time>
      </trkpt>
      <trkpt lat="47.31201" lon="-1.39367">
        <ele>125</ele>
        <time>2021-02-28T10:20:24.674000+00:00</time>
      </trkpt>
      <trkpt lat="0" lon="0">
        <time>2021-02-28T10:20:24.681000+00:00</time>
      </trkpt>
      <trkpt lat="0" lon="0">
        <time>2021-02-28T10:20:24.688000+00:00</time>
      </trkpt>
      <trkpt lat="0" lon="0">
        <time>2021-02-28T10:20:24.691000+00:00</time>
      </trkpt>
      <trkpt lat="47.312" lon="-1.39367">
        <ele>125</ele>
        <time>2021-02-28T10:20:25.618000+00:00</time>
      </trkpt>
      <trkpt lat="0" lon="0">
        <time>2021-02-28T10:20:25.620000+00:00</time>
      </trkpt>
      <trkpt lat="0" lon="0">
        <time>2021-02-28T10:20:25.623000+00:00</time>
      </trkpt>
      <trkpt lat="0" lon="0">
        <time>2021-02-28T10:20:25.624000+00:00</time>
      </trkpt>
      <trkpt lat="47.31199" lon="-1.39366">
        <ele>125</ele>
        <time>2021-02-28T10:20:26.641000+00:00</time>
      </trkpt>
      <trkpt lat="0" lon="0">
        <time>2021-02-28T10:20:26.650000+00:00</time>
      </trkpt>
      <trkpt lat="0" lon="0">
        <time>2021-02-28T10:20:26.657000+00:00</time>
      </trkpt>
      <trkpt lat="0" lon="0">
        <time>2021-02-28T10:20:26.661000+00:00</time>
      </trkpt>
      <trkpt lat="47.31197" lon="-1.39366">
        <ele>125</ele>
        <time>2021-02-28T10:20:27.633000+00:00</time>
      </trkpt>
      <trkpt lat="0" lon="0">
        <time>2021-02-28T10:20:27.643000+00:00</time>
      </trkpt>
      <trkpt lat="0" lon="0">
        <time>2021-02-28T10:20:27.649000+00:00</time>
      </trkpt>
      <trkpt lat="0" lon="0">
        <time>2021-02-28T10:20:27.651000+00:00</time>
      </trkpt>
      <trkpt lat="47.31196" lon="-1.39366">
        <ele>125</ele>
        <time>2021-02-28T10:20:28.646000+00:00</time>
      </trkpt>
      <trkpt lat="0" lon="0">
        <time>2021-02-28T10:20:28.657000+00:00</time>
      </trkpt>
      <trkpt lat="0" lon="0">
        <time>2021-02-28T10:20:28.665000+00:00</time>
      </trkpt>
      <trkpt lat="0" lon="0">
        <time>2021-02-28T10:20:28.667000+00:00</time>
      </trkpt>
      <trkpt lat="47.31195" lon="-1.39366">
        <ele>125</ele>
        <time>2021-02-28T10:20:29.670000+00:00</time>
      </trkpt>
      <trkpt lat="0" lon="0">
        <time>2021-02-28T10:20:29.677000+00:00</time>
      </trkpt>
      <trkpt lat="0" lon="0">
        <time>2021-02-28T10:20:29.684000+00:00</time>
      </trkpt>
      <trkpt lat="0" lon="0">
        <time>2021-02-28T10:20:29.687000+00:00</time>
      </trkpt>
      <trkpt lat="47.31194" lon="-1.39365">
        <ele>125</ele>
        <time>2021-02-28T10:20:30.565000+00:00</time>
      </trkpt>
      <trkpt lat="0" lon="0">
        <time>2021-02-28T10:20:30.570000+00:00</time>
      </trkpt>
      <trkpt lat="0" lon="0">
        <time>2021-02-28T10:20:30.574000+00:00</time>
      </trkpt>
      <trkpt lat="0" lon="0">
        <time>2021-02-28T10:20:30.577000+00:00</time>
      </trkpt>
      <trkpt lat="47.31194" lon="-1.39365">
        <ele>125</ele>
        <time>2021-02-28T10:20:31.592000+00:00</time>
      </trkpt>
      <trkpt lat="0" lon="0">
        <time>2021-02-28T10:20:31.599000+00:00</time>
      </trkpt>
      <trkpt lat="0" lon="0">
        <time>2021-02-28T10:20:31.603000+00:00</time>
      </trkpt>
      <trkpt lat="0" lon="0">
        <time>2021-02-28T10:20:31.606000+00:00</time>
      </trkpt>
      <trkpt lat="47.31193" lon="-1.39365">
        <ele>126</ele>
        <time>2021-02-28T10:20:32.584000+00:00</time>
      </trkpt>
      <trkpt lat="0" lon="0">
        <time>2021-02-28T10:20:32.594000+00:00</time>
      </trkpt>
      <trkpt lat="0" lon="0">
        <time>2021-02-28T10:20:32.603000+00:00</time>
      </trkpt>
      <trkpt lat="0" lon="0">
        <time>2021-02-28T10:20:32.606000+00:00</time>
      </trkpt>
      <trkpt lat="47.31191" lon="-1.39364">
        <ele>126</ele>
        <time>2021-02-28T10:20:33.584000+00:00</time>
      </trkpt>
      <trkpt lat="0" lon="0">
        <time>2021-02-28T10:20:33.592000+00:00</time>
      </trkpt>
      <trkpt lat="0" lon="0">
        <time>2021-02-28T10:20:33.603000+00:00</time>
      </trkpt>
      <trkpt lat="0" lon="0">
        <time>2021-02-28T10:20:33.605000+00:00</time>
      </trkpt>
      <trkpt lat="47.3119" lon="-1.39364">
        <ele>126</ele>
        <time>2021-02-28T10:20:34.629000+00:00</time>
      </trkpt>
      <trkpt lat="0" lon="0">
        <time>2021-02-28T10:20:34.637000+00:00</time>
      </trkpt>
      <trkpt lat="0" lon="0">
        <time>2021-02-28T10:20:34.641000+00:00</time>
      </trkpt>
      <trkpt lat="0" lon="0">
        <time>2021-02-28T10:20:34.644000+00:00</time>
      </trkpt>
      <trkpt lat="47.31188" lon="-1.39363">
        <ele>125</ele>
        <time>2021-02-28T10:20:35.547000+00:00</time>
      </trkpt>
      <trkpt lat="0" lon="0">
        <time>2021-02-28T10:20:35.552000+00:00</time>
      </trkpt>
      <trkpt lat="0" lon="0">
        <time>2021-02-28T10:20:35.555000+00:00</time>
      </trkpt>
      <trkpt lat="0" lon="0">
        <time>2021-02-28T10:20:35.558000+00:00</time>
      </trkpt>
      <trkpt lat="47.31187" lon="-1.39363">
        <ele>125</ele>
        <time>2021-02-28T10:20:36.556000+00:00</time>
      </trkpt>
      <trkpt lat="0" lon="0">
        <time>2021-02-28T10:20:36.557000+00:00</time>
      </trkpt>
      <trkpt lat="0" lon="0">
        <time>2021-02-28T10:20:36.558000+00:00</time>
      </trkpt>
      <trkpt lat="0" lon="0">
        <time>2021-02-28T10:20:36.559000+00:00</time>
      </trkpt>
      <trkpt lat="47.31185" lon="-1.39363">
        <ele>124</ele>
        <time>2021-02-28T10:20:37.554000+00:00</time>
      </trkpt>
      <trkpt lat="0" lon="0">
        <time>2021-02-28T10:20:37.558000+00:00</time>
      </trkpt>
      <trkpt lat="0" lon="0">
        <time>2021-02-28T10:20:37.563000+00:00</time>
      </trkpt>
      <trkpt lat="0" lon="0">
        <time>2021-02-28T10:20:37.566000+00:00</time>
      </trkpt>
      <trkpt lat="47.31184" lon="-1.39362">
        <ele>125</ele>
        <time>2021-02-28T10:20:38.623000+00:00</time>
      </trkpt>
      <trkpt lat="0" lon="0">
        <time>2021-02-28T10:20:38.626000+00:00</time>
      </trkpt>
      <trkpt lat="0" lon="0">
        <time>2021-02-28T10:20:38.630000+00:00</time>
      </trkpt>
      <trkpt lat="0" lon="0">
        <time>2021-02-28T10:20:38.631000+00:00</time>
      </trkpt>
      <trkpt lat="47.31183" lon="-1.39362">
        <ele>125</ele>
        <time>2021-02-28T10:20:39.653000+00:00</time>
      </trkpt>
      <trkpt lat="0" lon="0">
        <time>2021-02-28T10:20:39.659000+00:00</time>
      </trkpt>
      <trkpt lat="0" lon="0">
        <time>2021-02-28T10:20:39.664000+00:00</time>
      </trkpt>
      <trkpt lat="0" lon="0">
        <time>2021-02-28T10:20:39.667000+00:00</time>
      </trkpt>
      <trkpt lat="47.31181" lon="-1.39361">
        <ele>124</ele>
        <time>2021-02-28T10:20:40.660000+00:00</time>
      </trkpt>
      <trkpt lat="0" lon="0">
        <time>2021-02-28T10:20:40.669000+00:00</time>
      </trkpt>
      <trkpt lat="0" lon="0">
        <time>2021-02-28T10:20:40.674000+00:00</time>
      </trkpt>
      <trkpt lat="0" lon="0">
        <time>2021-02-28T10:20:40.677000+00:00</time>
      </trkpt>
      <trkpt lat="47.3118" lon="-1.3936">
        <ele>124</ele>
        <time>2021-02-28T10:20:41.628000+00:00</time>
      </trkpt>
      <trkpt lat="0" lon="0">
        <time>2021-02-28T10:20:41.633000+00:00</time>
      </trkpt>
      <trkpt lat="0" lon="0">
        <time>2021-02-28T10:20:41.638000+00:00</time>
      </trkpt>
      <trkpt lat="0" lon="0">
        <time>2021-02-28T10:20:41.641000+00:00</time>
      </trkpt>
      <trkpt lat="47.31179" lon="-1.3936">
        <ele>124</ele>
        <time>2021-02-28T10:20:42.655000+00:00</time>
      </trkpt>
      <trkpt lat="0" lon="0">
        <time>2021-02-28T10:20:42.669000+00:00</time>
      </trkpt>
      <trkpt lat="0" lon="0">
        <time>2021-02-28T10:20:42.674000+00:00</time>
      </trkpt>
      <trkpt lat="0" lon="0">
        <time>2021-02-28T10:20:42.677000+00:00</time>
      </trkpt>
      <trkpt lat="47.31177" lon="-1.39359">
        <ele>123</ele>
        <time>2021-02-28T10:20:43.587000+00:00</time>
      </trkpt>
      <trkpt lat="0" lon="0">
        <time>2021-02-28T10:20:43.592000+00:00</time>
      </trkpt>
      <trkpt lat="0" lon="0">
        <time>2021-02-28T10:20:43.599000+00:00</time>
      </trkpt>
      <trkpt lat="0" lon="0">
        <time>2021-02-28T10:20:43.601000+00:00</time>
      </trkpt>
      <trkpt lat="47.31176" lon="-1.39358">
        <ele>123</ele>
        <time>2021-02-28T10:20:44.619000+00:00</time>
      </trkpt>
      <trkpt lat="0" lon="0">
        <time>2021-02-28T10:20:44.625000+00:00</time>
      </trkpt>
      <trkpt lat="0" lon="0">
        <time>2021-02-28T10:20:44.631000+00:00</time>
      </trkpt>
      <trkpt lat="0" lon="0">
        <time>2021-02-28T10:20:44.633000+00:00</time>
      </trkpt>
      <trkpt lat="47.31175" lon="-1.39357">
        <ele>122</ele>
        <time>2021-02-28T10:20:45.620000+00:00</time>
      </trkpt>
      <trkpt lat="0" lon="0">
        <time>2021-02-28T10:20:45.629000+00:00</time>
      </trkpt>
      <trkpt lat="0" lon="0">
        <time>2021-02-28T10:20:45.633000+00:00</time>
      </trkpt>
      <trkpt lat="0" lon="0">
        <time>2021-02-28T10:20:45.635000+00:00</time>
      </trkpt>
      <trkpt lat="47.31173" lon="-1.39356">
        <ele>122</ele>
        <time>2021-02-28T10:20:46.633000+00:00</time>
      </trkpt>
      <trkpt lat="0" lon="0">
        <time>2021-02-28T10:20:46.637000+00:00</time>
      </trkpt>
      <trkpt lat="0" lon="0">
        <time>2021-02-28T10:20:46.641000+00:00</time>
      </trkpt>
      <trkpt lat="0" lon="0">
        <time>2021-02-28T10:20:46.644000+00:00</time>
      </trkpt>
      <trkpt lat="47.31172" lon="-1.39356">
        <ele>122</ele>
        <time>2021-02-28T10:20:47.674000+00:00</time>
      </trkpt>
      <trkpt lat="0" lon="0">
        <time>2021-02-28T10:20:47.685000+00:00</time>
      </trkpt>
      <trkpt lat="0" lon="0">
        <time>2021-02-28T10:20:47.689000+00:00</time>
      </trkpt>
      <trkpt lat="0" lon="0">
        <time>2021-02-28T10:20:47.692000+00:00</time>
      </trkpt>
      <trkpt lat="47.3117" lon="-1.39355">
        <ele>122</ele>
        <time>2021-02-28T10:20:48.650000+00:00</time>
      </trkpt>
      <trkpt lat="0" lon="0">
        <time>2021-02-28T10:20:48.662000+00:00</time>
      </trkpt>
      <trkpt lat="0" lon="0">
        <time>2021-02-28T10:20:48.667000+00:00</time>
      </trkpt>
      <trkpt lat="0" lon="0">
        <time>2021-02-28T10:20:48.671000+00:00</time>
      </trkpt>
      <trkpt lat="47.31169" lon="-1.39355">
        <ele>122</ele>
        <time>2021-02-28T10:20:49.650000+00:00</time>
      </trkpt>
      <trkpt lat="0" lon="0">
        <time>2021-02-28T10:20:49.661000+00:00</time>
      </trkpt>
      <trkpt lat="0" lon="0">
        <time>2021-02-28T10:20:49.669000+00:00</time>
      </trkpt>
      <trkpt lat="0" lon="0">
        <time>2021-02-28T10:20:49.673000+00:00</time>
      </trkpt>
      <trkpt lat="47.31167" lon="-1.39354">
        <ele>123</ele>
        <time>2021-02-28T10:20:50.643000+00:00</time>
      </trkpt>
      <trkpt lat="0" lon="0">
        <time>2021-02-28T10:20:50.651000+00:00</time>
      </trkpt>
      <trkpt lat="0" lon="0">
        <time>2021-02-28T10:20:50.655000+00:00</time>
      </trkpt>
      <trkpt lat="0" lon="0">
        <time>2021-02-28T10:20:50.658000+00:00</time>
      </trkpt>
      <trkpt lat="47.31166" lon="-1.39354">
        <ele>123</ele>
        <time>2021-02-28T10:20:51.627000+00:00</time>
      </trkpt>
      <trkpt lat="0" lon="0">
        <time>2021-02-28T10:20:51.639000+00:00</time>
      </trkpt>
      <trkpt lat="0" lon="0">
        <time>2021-02-28T10:20:51.648000+00:00</time>
      </trkpt>
      <trkpt lat="0" lon="0">
        <time>2021-02-28T10:20:51.655000+00:00</time>
      </trkpt>
      <trkpt lat="47.31164" lon="-1.39354">
        <ele>123</ele>
        <time>2021-02-28T10:20:52.627000+00:00</time>
      </trkpt>
      <trkpt lat="0" lon="0">
        <time>2021-02-28T10:20:52.634000+00:00</time>
      </trkpt>
      <trkpt lat="0" lon="0">
        <time>2021-02-28T10:20:52.641000+00:00</time>
      </trkpt>
      <trkpt lat="0" lon="0">
        <time>2021-02-28T10:20:52.643000+00:00</time>
      </trkpt>
      <trkpt lat="47.31163" lon="-1.39353">
        <ele>123</ele>
        <time>2021-02-28T10:20:53.646000+00:00</time>
      </trkpt>
      <trkpt lat="0" lon="0">
        <time>2021-02-28T10:20:53.654000+00:00</time>
      </trkpt>
      <trkpt lat="0" lon="0">
        <time>2021-02-28T10:20:53.659000+00:00</time>
      </trkpt>
      <trkpt lat="0" lon="0">
        <time>2021-02-28T10:20:53.662000+00:00</time>
      </trkpt>
      <trkpt lat="47.31162" lon="-1.39353">
        <ele>123</ele>
        <time>2021-02-28T10:20:54.615000+00:00</time>
      </trkpt>
      <trkpt lat="0" lon="0">
        <time>2021-02-28T10:20:54.624000+00:00</time>
      </trkpt>
      <trkpt lat="0" lon="0">
        <time>2021-02-28T10:20:54.630000+00:00</time>
      </trkpt>
      <trkpt lat="0" lon="0">
        <time>2021-02-28T10:20:54.632000+00:00</time>
      </trkpt>
      <trkpt lat="47.3116" lon="-1.39353">
        <ele>124</ele>
        <time>2021-02-28T10:20:55.649000+00:00</time>
      </trkpt>
      <trkpt lat="0" lon="0">
        <time>2021-02-28T10:20:55.659000+00:00</time>
      </trkpt>
      <trkpt lat="0" lon="0">
        <time>2021-02-28T10:20:55.664000+00:00</time>
      </trkpt>
      <trkpt lat="0" lon="0">
        <time>2021-02-28T10:20:55.667000+00:00</time>
      </trkpt>
      <trkpt lat="47.31159" lon="-1.39353">
        <ele>124</ele>
        <time>2021-02-28T10:20:56.529000+00:00</time>
      </trkpt>
      <trkpt lat="0" lon="0">
        <time>2021-02-28T10:20:56.530000+00:00</time>
      </trkpt>
      <trkpt lat="0" lon="0">
        <time>2021-02-28T10:20:56.532000+00:00</time>
      </trkpt>
      <trkpt lat="0" lon="0">
        <time>2021-02-28T10:20:56.533000+00:00</time>
      </trkpt>
      <trkpt lat="47.31158" lon="-1.39353">
        <ele>124</ele>
        <time>2021-02-28T10:20:57.642000+00:00</time>
      </trkpt>
      <trkpt lat="0" lon="0">
        <time>2021-02-28T10:20:57.653000+00:00</time>
      </trkpt>
      <trkpt lat="0" lon="0">
        <time>2021-02-28T10:20:57.657000+00:00</time>
      </trkpt>
      <trkpt lat="0" lon="0">
        <time>2021-02-28T10:20:57.659000+00:00</time>
      </trkpt>
      <trkpt lat="47.31157" lon="-1.39353">
        <ele>124</ele>
        <time>2021-02-28T10:20:58.671000+00:00</time>
      </trkpt>
      <trkpt lat="0" lon="0">
        <time>2021-02-28T10:20:58.681000+00:00</time>
      </trkpt>
      <trkpt lat="0" lon="0">
        <time>2021-02-28T10:20:58.687000+00:00</time>
      </trkpt>
      <trkpt lat="0" lon="0">
        <time>2021-02-28T10:20:58.689000+00:00</time>
      </trkpt>
      <trkpt lat="47.31156" lon="-1.39353">
        <ele>124</ele>
        <time>2021-02-28T10:20:59.633000+00:00</time>
      </trkpt>
      <trkpt lat="0" lon="0">
        <time>2021-02-28T10:20:59.641000+00:00</time>
      </trkpt>
      <trkpt lat="0" lon="0">
        <time>2021-02-28T10:20:59.646000+00:00</time>
      </trkpt>
      <trkpt lat="0" lon="0">
        <time>2021-02-28T10:20:59.649000+00:00</time>
      </trkpt>
      <trkpt lat="47.31155" lon="-1.39353">
        <ele>124</ele>
        <time>2021-02-28T10:21:00.661000+00:00</time>
      </trkpt>
      <trkpt lat="0" lon="0">
        <time>2021-02-28T10:21:00.669000+00:00</time>
      </trkpt>
      <trkpt lat="0" lon="0">
        <time>2021-02-28T10:21:00.677000+00:00</time>
      </trkpt>
      <trkpt lat="0" lon="0">
        <time>2021-02-28T10:21:00.680000+00:00</time>
      </trkpt>
      <trkpt lat="47.31154" lon="-1.39353">
        <ele>124</ele>
        <time>2021-02-28T10:21:01.638000+00:00</time>
      </trkpt>
      <trkpt lat="0" lon="0">
        <time>2021-02-28T10:21:01.645000+00:00</time>
      </trkpt>
      <trkpt lat="0" lon="0">
        <time>2021-02-28T10:21:01.651000+00:00</time>
      </trkpt>
      <trkpt lat="0" lon="0">
        <time>2021-02-28T10:21:01.653000+00:00</time>
      </trkpt>
      <trkpt lat="47.31153" lon="-1.39353">
        <ele>124</ele>
        <time>2021-02-28T10:21:02.644000+00:00</time>
      </trkpt>
      <trkpt lat="0" lon="0">
        <time>2021-02-28T10:21:02.653000+00:00</time>
      </trkpt>
      <trkpt lat="0" lon="0">
        <time>2021-02-28T10:21:02.658000+00:00</time>
      </trkpt>
      <trkpt lat="0" lon="0">
        <time>2021-02-28T10:21:02.660000+00:00</time>
      </trkpt>
      <trkpt lat="47.31152" lon="-1.39354">
        <ele>124</ele>
        <time>2021-02-28T10:21:03.619000+00:00</time>
      </trkpt>
      <trkpt lat="0" lon="0">
        <time>2021-02-28T10:21:03.627000+00:00</time>
      </trkpt>
      <trkpt lat="0" lon="0">
        <time>2021-02-28T10:21:03.632000+00:00</time>
      </trkpt>
      <trkpt lat="0" lon="0">
        <time>2021-02-28T10:21:03.634000+00:00</time>
      </trkpt>
      <trkpt lat="47.31152" lon="-1.39354">
        <ele>124</ele>
        <time>2021-02-28T10:21:04.623000+00:00</time>
      </trkpt>
      <trkpt lat="0" lon="0">
        <time>2021-02-28T10:21:04.634000+00:00</time>
      </trkpt>
      <trkpt lat="0" lon="0">
        <time>2021-02-28T10:21:04.643000+00:00</time>
      </trkpt>
      <trkpt lat="0" lon="0">
        <time>2021-02-28T10:21:04.645000+00:00</time>
      </trkpt>
      <trkpt lat="47.31151" lon="-1.39354">
        <ele>124</ele>
        <time>2021-02-28T10:21:05.622000+00:00</time>
      </trkpt>
      <trkpt lat="0" lon="0">
        <time>2021-02-28T10:21:05.631000+00:00</time>
      </trkpt>
      <trkpt lat="0" lon="0">
        <time>2021-02-28T10:21:05.635000+00:00</time>
      </trkpt>
      <trkpt lat="0" lon="0">
        <time>2021-02-28T10:21:05.638000+00:00</time>
      </trkpt>
      <trkpt lat="47.3115" lon="-1.39354">
        <ele>124</ele>
        <time>2021-02-28T10:21:06.658000+00:00</time>
      </trkpt>
      <trkpt lat="0" lon="0">
        <time>2021-02-28T10:21:06.666000+00:00</time>
      </trkpt>
      <trkpt lat="0" lon="0">
        <time>2021-02-28T10:21:06.671000+00:00</time>
      </trkpt>
      <trkpt lat="0" lon="0">
        <time>2021-02-28T10:21:06.673000+00:00</time>
      </trkpt>
      <trkpt lat="47.31149" lon="-1.39354">
        <ele>124</ele>
        <time>2021-02-28T10:21:07.624000+00:00</time>
      </trkpt>
      <trkpt lat="0" lon="0">
        <time>2021-02-28T10:21:07.630000+00:00</time>
      </trkpt>
      <trkpt lat="0" lon="0">
        <time>2021-02-28T10:21:07.635000+00:00</time>
      </trkpt>
      <trkpt lat="0" lon="0">
        <time>2021-02-28T10:21:07.638000+00:00</time>
      </trkpt>
      <trkpt lat="47.31148" lon="-1.39354">
        <ele>124</ele>
        <time>2021-02-28T10:21:08.664000+00:00</time>
      </trkpt>
      <trkpt lat="0" lon="0">
        <time>2021-02-28T10:21:08.672000+00:00</time>
      </trkpt>
      <trkpt lat="0" lon="0">
        <time>2021-02-28T10:21:08.676000+00:00</time>
      </trkpt>
      <trkpt lat="0" lon="0">
        <time>2021-02-28T10:21:08.680000+00:00</time>
      </trkpt>
      <trkpt lat="47.31146" lon="-1.39354">
        <ele>124</ele>
        <time>2021-02-28T10:21:09.558000+00:00</time>
      </trkpt>
      <trkpt lat="0" lon="0">
        <time>2021-02-28T10:21:09.563000+00:00</time>
      </trkpt>
      <trkpt lat="0" lon="0">
        <time>2021-02-28T10:21:09.570000+00:00</time>
      </trkpt>
      <trkpt lat="0" lon="0">
        <time>2021-02-28T10:21:09.573000+00:00</time>
      </trkpt>
      <trkpt lat="47.31145" lon="-1.39354">
        <ele>124</ele>
        <time>2021-02-28T10:21:10.615000+00:00</time>
      </trkpt>
      <trkpt lat="0" lon="0">
        <time>2021-02-28T10:21:10.617000+00:00</time>
      </trkpt>
      <trkpt lat="0" lon="0">
        <time>2021-02-28T10:21:10.618000+00:00</time>
      </trkpt>
      <trkpt lat="0" lon="0">
        <time>2021-02-28T10:21:10.621000+00:00</time>
      </trkpt>
      <trkpt lat="47.31144" lon="-1.39353">
        <ele>125</ele>
        <time>2021-02-28T10:21:11.622000+00:00</time>
      </trkpt>
      <trkpt lat="0" lon="0">
        <time>2021-02-28T10:21:11.630000+00:00</time>
      </trkpt>
      <trkpt lat="0" lon="0">
        <time>2021-02-28T10:21:11.635000+00:00</time>
      </trkpt>
      <trkpt lat="0" lon="0">
        <time>2021-02-28T10:21:11.637000+00:00</time>
      </trkpt>
      <trkpt lat="47.31142" lon="-1.39353">
        <ele>125</ele>
        <time>2021-02-28T10:21:12.641000+00:00</time>
      </trkpt>
      <trkpt lat="0" lon="0">
        <time>2021-02-28T10:21:12.646000+00:00</time>
      </trkpt>
      <trkpt lat="0" lon="0">
        <time>2021-02-28T10:21:12.650000+00:00</time>
      </trkpt>
      <trkpt lat="0" lon="0">
        <time>2021-02-28T10:21:12.652000+00:00</time>
      </trkpt>
      <trkpt lat="47.31141" lon="-1.39353">
        <ele>125</ele>
        <time>2021-02-28T10:21:13.607000+00:00</time>
      </trkpt>
      <trkpt lat="0" lon="0">
        <time>2021-02-28T10:21:13.618000+00:00</time>
      </trkpt>
      <trkpt lat="0" lon="0">
        <time>2021-02-28T10:21:13.623000+00:00</time>
      </trkpt>
      <trkpt lat="0" lon="0">
        <time>2021-02-28T10:21:13.626000+00:00</time>
      </trkpt>
      <trkpt lat="47.3114" lon="-1.39353">
        <ele>125</ele>
        <time>2021-02-28T10:21:14.647000+00:00</time>
      </trkpt>
      <trkpt lat="0" lon="0">
        <time>2021-02-28T10:21:14.660000+00:00</time>
      </trkpt>
      <trkpt lat="0" lon="0">
        <time>2021-02-28T10:21:14.669000+00:00</time>
      </trkpt>
      <trkpt lat="0" lon="0">
        <time>2021-02-28T10:21:14.672000+00:00</time>
      </trkpt>
      <trkpt lat="47.31139" lon="-1.39353">
        <ele>125</ele>
        <time>2021-02-28T10:21:15.664000+00:00</time>
      </trkpt>
      <trkpt lat="0" lon="0">
        <time>2021-02-28T10:21:15.670000+00:00</time>
      </trkpt>
      <trkpt lat="0" lon="0">
        <time>2021-02-28T10:21:15.676000+00:00</time>
      </trkpt>
      <trkpt lat="0" lon="0">
        <time>2021-02-28T10:21:15.678000+00:00</time>
      </trkpt>
      <trkpt lat="47.31138" lon="-1.39353">
        <ele>124</ele>
        <time>2021-02-28T10:21:16.664000+00:00</time>
      </trkpt>
      <trkpt lat="0" lon="0">
        <time>2021-02-28T10:21:16.670000+00:00</time>
      </trkpt>
      <trkpt lat="0" lon="0">
        <time>2021-02-28T10:21:16.675000+00:00</time>
      </trkpt>
      <trkpt lat="0" lon="0">
        <time>2021-02-28T10:21:16.677000+00:00</time>
      </trkpt>
      <trkpt lat="47.31137" lon="-1.39353">
        <ele>124</ele>
        <time>2021-02-28T10:21:17.656000+00:00</time>
      </trkpt>
      <trkpt lat="0" lon="0">
        <time>2021-02-28T10:21:17.665000+00:00</time>
      </trkpt>
      <trkpt lat="0" lon="0">
        <time>2021-02-28T10:21:17.669000+00:00</time>
      </trkpt>
      <trkpt lat="0" lon="0">
        <time>2021-02-28T10:21:17.672000+00:00</time>
      </trkpt>
      <trkpt lat="47.31136" lon="-1.39353">
        <ele>124</ele>
        <time>2021-02-28T10:21:18.658000+00:00</time>
      </trkpt>
      <trkpt lat="0" lon="0">
        <time>2021-02-28T10:21:18.664000+00:00</time>
      </trkpt>
      <trkpt lat="0" lon="0">
        <time>2021-02-28T10:21:18.670000+00:00</time>
      </trkpt>
      <trkpt lat="0" lon="0">
        <time>2021-02-28T10:21:18.673000+00:00</time>
      </trkpt>
      <trkpt lat="47.31135" lon="-1.39352">
        <ele>124</ele>
        <time>2021-02-28T10:21:19.594000+00:00</time>
      </trkpt>
      <trkpt lat="0" lon="0">
        <time>2021-02-28T10:21:19.604000+00:00</time>
      </trkpt>
      <trkpt lat="0" lon="0">
        <time>2021-02-28T10:21:19.608000+00:00</time>
      </trkpt>
      <trkpt lat="0" lon="0">
        <time>2021-02-28T10:21:19.611000+00:00</time>
      </trkpt>
      <trkpt lat="47.31134" lon="-1.39351">
        <ele>124</ele>
        <time>2021-02-28T10:21:20.680000+00:00</time>
      </trkpt>
      <trkpt lat="0" lon="0">
        <time>2021-02-28T10:21:20.685000+00:00</time>
      </trkpt>
      <trkpt lat="0" lon="0">
        <time>2021-02-28T10:21:20.690000+00:00</time>
      </trkpt>
      <trkpt lat="0" lon="0">
        <time>2021-02-28T10:21:20.693000+00:00</time>
      </trkpt>
      <trkpt lat="47.31133" lon="-1.39351">
        <ele>124</ele>
        <time>2021-02-28T10:21:21.615000+00:00</time>
      </trkpt>
      <trkpt lat="0" lon="0">
        <time>2021-02-28T10:21:21.625000+00:00</time>
      </trkpt>
      <trkpt lat="0" lon="0">
        <time>2021-02-28T10:21:21.630000+00:00</time>
      </trkpt>
      <trkpt lat="0" lon="0">
        <time>2021-02-28T10:21:21.633000+00:00</time>
      </trkpt>
      <trkpt lat="47.31131" lon="-1.3935">
        <ele>125</ele>
        <time>2021-02-28T10:21:22.614000+00:00</time>
      </trkpt>
      <trkpt lat="0" lon="0">
        <time>2021-02-28T10:21:22.627000+00:00</time>
      </trkpt>
      <trkpt lat="0" lon="0">
        <time>2021-02-28T10:21:22.631000+00:00</time>
      </trkpt>
      <trkpt lat="0" lon="0">
        <time>2021-02-28T10:21:22.634000+00:00</time>
      </trkpt>
      <trkpt lat="47.3113" lon="-1.39349">
        <ele>125</ele>
        <time>2021-02-28T10:21:23.634000+00:00</time>
      </trkpt>
      <trkpt lat="0" lon="0">
        <time>2021-02-28T10:21:23.640000+00:00</time>
      </trkpt>
      <trkpt lat="0" lon="0">
        <time>2021-02-28T10:21:23.645000+00:00</time>
      </trkpt>
      <trkpt lat="0" lon="0">
        <time>2021-02-28T10:21:23.648000+00:00</time>
      </trkpt>
      <trkpt lat="47.31128" lon="-1.39348">
        <ele>126</ele>
        <time>2021-02-28T10:21:24.608000+00:00</time>
      </trkpt>
      <trkpt lat="0" lon="0">
        <time>2021-02-28T10:21:24.617000+00:00</time>
      </trkpt>
      <trkpt lat="0" lon="0">
        <time>2021-02-28T10:21:24.621000+00:00</time>
      </trkpt>
      <trkpt lat="0" lon="0">
        <time>2021-02-28T10:21:24.623000+00:00</time>
      </trkpt>
      <trkpt lat="47.31127" lon="-1.39348">
        <ele>126</ele>
        <time>2021-02-28T10:21:25.691000+00:00</time>
      </trkpt>
      <trkpt lat="0" lon="0">
        <time>2021-02-28T10:21:25.699000+00:00</time>
      </trkpt>
      <trkpt lat="0" lon="0">
        <time>2021-02-28T10:21:25.706000+00:00</time>
      </trkpt>
      <trkpt lat="0" lon="0">
        <time>2021-02-28T10:21:25.710000+00:00</time>
      </trkpt>
      <trkpt lat="47.31126" lon="-1.39347">
        <ele>126</ele>
        <time>2021-02-28T10:21:26.651000+00:00</time>
      </trkpt>
      <trkpt lat="0" lon="0">
        <time>2021-02-28T10:21:26.660000+00:00</time>
      </trkpt>
      <trkpt lat="0" lon="0">
        <time>2021-02-28T10:21:26.666000+00:00</time>
      </trkpt>
      <trkpt lat="0" lon="0">
        <time>2021-02-28T10:21:26.669000+00:00</time>
      </trkpt>
      <trkpt lat="47.31124" lon="-1.39347">
        <ele>126</ele>
        <time>2021-02-28T10:21:27.600000+00:00</time>
      </trkpt>
      <trkpt lat="0" lon="0">
        <time>2021-02-28T10:21:27.617000+00:00</time>
      </trkpt>
      <trkpt lat="0" lon="0">
        <time>2021-02-28T10:21:27.621000+00:00</time>
      </trkpt>
      <trkpt lat="0" lon="0">
        <time>2021-02-28T10:21:27.623000+00:00</time>
      </trkpt>
      <trkpt lat="47.31123" lon="-1.39346">
        <ele>126</ele>
        <time>2021-02-28T10:21:28.646000+00:00</time>
      </trkpt>
      <trkpt lat="0" lon="0">
        <time>2021-02-28T10:21:28.655000+00:00</time>
      </trkpt>
      <trkpt lat="0" lon="0">
        <time>2021-02-28T10:21:28.659000+00:00</time>
      </trkpt>
      <trkpt lat="0" lon="0">
        <time>2021-02-28T10:21:28.662000+00:00</time>
      </trkpt>
      <trkpt lat="47.31122" lon="-1.39346">
        <ele>126</ele>
        <time>2021-02-28T10:21:29.651000+00:00</time>
      </trkpt>
      <trkpt lat="0" lon="0">
        <time>2021-02-28T10:21:29.657000+00:00</time>
      </trkpt>
      <trkpt lat="0" lon="0">
        <time>2021-02-28T10:21:29.663000+00:00</time>
      </trkpt>
      <trkpt lat="0" lon="0">
        <time>2021-02-28T10:21:29.666000+00:00</time>
      </trkpt>
      <trkpt lat="47.3112" lon="-1.39345">
        <ele>126</ele>
        <time>2021-02-28T10:21:30.627000+00:00</time>
      </trkpt>
      <trkpt lat="0" lon="0">
        <time>2021-02-28T10:21:30.639000+00:00</time>
      </trkpt>
      <trkpt lat="0" lon="0">
        <time>2021-02-28T10:21:30.643000+00:00</time>
      </trkpt>
      <trkpt lat="0" lon="0">
        <time>2021-02-28T10:21:30.645000+00:00</time>
      </trkpt>
      <trkpt lat="47.31119" lon="-1.39345">
        <ele>126</ele>
        <time>2021-02-28T10:21:31.647000+00:00</time>
      </trkpt>
      <trkpt lat="0" lon="0">
        <time>2021-02-28T10:21:31.655000+00:00</time>
      </trkpt>
      <trkpt lat="0" lon="0">
        <time>2021-02-28T10:21:31.659000+00:00</time>
      </trkpt>
      <trkpt lat="0" lon="0">
        <time>2021-02-28T10:21:31.661000+00:00</time>
      </trkpt>
      <trkpt lat="47.31117" lon="-1.39344">
        <ele>126</ele>
        <time>2021-02-28T10:21:32.691000+00:00</time>
      </trkpt>
      <trkpt lat="0" lon="0">
        <time>2021-02-28T10:21:32.697000+00:00</time>
      </trkpt>
      <trkpt lat="0" lon="0">
        <time>2021-02-28T10:21:32.699000+00:00</time>
      </trkpt>
      <trkpt lat="0" lon="0">
        <time>2021-02-28T10:21:32.700000+00:00</time>
      </trkpt>
      <trkpt lat="47.31116" lon="-1.39343">
        <ele>127</ele>
        <time>2021-02-28T10:21:33.666000+00:00</time>
      </trkpt>
      <trkpt lat="0" lon="0">
        <time>2021-02-28T10:21:33.672000+00:00</time>
      </trkpt>
      <trkpt lat="0" lon="0">
        <time>2021-02-28T10:21:33.676000+00:00</time>
      </trkpt>
      <trkpt lat="0" lon="0">
        <time>2021-02-28T10:21:33.679000+00:00</time>
      </trkpt>
      <trkpt lat="47.31114" lon="-1.39343">
        <ele>127</ele>
        <time>2021-02-28T10:21:34.614000+00:00</time>
      </trkpt>
      <trkpt lat="0" lon="0">
        <time>2021-02-28T10:21:34.626000+00:00</time>
      </trkpt>
      <trkpt lat="0" lon="0">
        <time>2021-02-28T10:21:34.631000+00:00</time>
      </trkpt>
      <trkpt lat="0" lon="0">
        <time>2021-02-28T10:21:34.633000+00:00</time>
      </trkpt>
      <trkpt lat="47.31113" lon="-1.39342">
        <ele>126</ele>
        <time>2021-02-28T10:21:35.632000+00:00</time>
      </trkpt>
      <trkpt lat="0" lon="0">
        <time>2021-02-28T10:21:35.639000+00:00</time>
      </trkpt>
      <trkpt lat="0" lon="0">
        <time>2021-02-28T10:21:35.645000+00:00</time>
      </trkpt>
      <trkpt lat="0" lon="0">
        <time>2021-02-28T10:21:35.648000+00:00</time>
      </trkpt>
      <trkpt lat="47.31111" lon="-1.39341">
        <ele>126</ele>
        <time>2021-02-28T10:21:36.669000+00:00</time>
      </trkpt>
      <trkpt lat="0" lon="0">
        <time>2021-02-28T10:21:36.678000+00:00</time>
      </trkpt>
      <trkpt lat="0" lon="0">
        <time>2021-02-28T10:21:36.682000+00:00</time>
      </trkpt>
      <trkpt lat="0" lon="0">
        <time>2021-02-28T10:21:36.685000+00:00</time>
      </trkpt>
      <trkpt lat="47.3111" lon="-1.3934">
        <ele>126</ele>
        <time>2021-02-28T10:21:37.644000+00:00</time>
      </trkpt>
      <trkpt lat="0" lon="0">
        <time>2021-02-28T10:21:37.656000+00:00</time>
      </trkpt>
      <trkpt lat="0" lon="0">
        <time>2021-02-28T10:21:37.663000+00:00</time>
      </trkpt>
      <trkpt lat="0" lon="0">
        <time>2021-02-28T10:21:37.666000+00:00</time>
      </trkpt>
      <trkpt lat="47.31108" lon="-1.39339">
        <ele>126</ele>
        <time>2021-02-28T10:21:38.661000+00:00</time>
      </trkpt>
      <trkpt lat="0" lon="0">
        <time>2021-02-28T10:21:38.669000+00:00</time>
      </trkpt>
      <trkpt lat="0" lon="0">
        <time>2021-02-28T10:21:38.674000+00:00</time>
      </trkpt>
      <trkpt lat="0" lon="0">
        <time>2021-02-28T10:21:38.677000+00:00</time>
      </trkpt>
      <trkpt lat="47.31107" lon="-1.39339">
        <ele>126</ele>
        <time>2021-02-28T10:21:39.645000+00:00</time>
      </trkpt>
      <trkpt lat="0" lon="0">
        <time>2021-02-28T10:21:39.652000+00:00</time>
      </trkpt>
      <trkpt lat="0" lon="0">
        <time>2021-02-28T10:21:39.657000+00:00</time>
      </trkpt>
      <trkpt lat="0" lon="0">
        <time>2021-02-28T10:21:39.661000+00:00</time>
      </trkpt>
      <trkpt lat="47.31106" lon="-1.39338">
        <ele>126</ele>
        <time>2021-02-28T10:21:40.634000+00:00</time>
      </trkpt>
      <trkpt lat="0" lon="0">
        <time>2021-02-28T10:21:40.646000+00:00</time>
      </trkpt>
      <trkpt lat="0" lon="0">
        <time>2021-02-28T10:21:40.653000+00:00</time>
      </trkpt>
      <trkpt lat="0" lon="0">
        <time>2021-02-28T10:21:40.657000+00:00</time>
      </trkpt>
      <trkpt lat="47.31104" lon="-1.39337">
        <ele>126</ele>
        <time>2021-02-28T10:21:41.644000+00:00</time>
      </trkpt>
      <trkpt lat="0" lon="0">
        <time>2021-02-28T10:21:41.653000+00:00</time>
      </trkpt>
      <trkpt lat="0" lon="0">
        <time>2021-02-28T10:21:41.658000+00:00</time>
      </trkpt>
      <trkpt lat="0" lon="0">
        <time>2021-02-28T10:21:41.661000+00:00</time>
      </trkpt>
      <trkpt lat="47.31103" lon="-1.39337">
        <ele>126</ele>
        <time>2021-02-28T10:21:42.653000+00:00</time>
      </trkpt>
      <trkpt lat="0" lon="0">
        <time>2021-02-28T10:21:42.661000+00:00</time>
      </trkpt>
      <trkpt lat="0" lon="0">
        <time>2021-02-28T10:21:42.666000+00:00</time>
      </trkpt>
      <trkpt lat="0" lon="0">
        <time>2021-02-28T10:21:42.668000+00:00</time>
      </trkpt>
      <trkpt lat="47.31101" lon="-1.39336">
        <ele>127</ele>
        <time>2021-02-28T10:21:43.631000+00:00</time>
      </trkpt>
      <trkpt lat="0" lon="0">
        <time>2021-02-28T10:21:43.637000+00:00</time>
      </trkpt>
      <trkpt lat="0" lon="0">
        <time>2021-02-28T10:21:43.642000+00:00</time>
      </trkpt>
      <trkpt lat="0" lon="0">
        <time>2021-02-28T10:21:43.646000+00:00</time>
      </trkpt>
      <trkpt lat="47.31099" lon="-1.39335">
        <ele>127</ele>
        <time>2021-02-28T10:21:44.616000+00:00</time>
      </trkpt>
      <trkpt lat="0" lon="0">
        <time>2021-02-28T10:21:44.622000+00:00</time>
      </trkpt>
      <trkpt lat="0" lon="0">
        <time>2021-02-28T10:21:44.628000+00:00</time>
      </trkpt>
      <trkpt lat="0" lon="0">
        <time>2021-02-28T10:21:44.631000+00:00</time>
      </trkpt>
      <trkpt lat="47.31097" lon="-1.39334">
        <ele>127</ele>
        <time>2021-02-28T10:21:45.645000+00:00</time>
      </trkpt>
      <trkpt lat="0" lon="0">
        <time>2021-02-28T10:21:45.654000+00:00</time>
      </trkpt>
      <trkpt lat="0" lon="0">
        <time>2021-02-28T10:21:45.659000+00:00</time>
      </trkpt>
      <trkpt lat="0" lon="0">
        <time>2021-02-28T10:21:45.662000+00:00</time>
      </trkpt>
      <trkpt lat="47.31095" lon="-1.39333">
        <ele>127</ele>
        <time>2021-02-28T10:21:46.634000+00:00</time>
      </trkpt>
      <trkpt lat="0" lon="0">
        <time>2021-02-28T10:21:46.642000+00:00</time>
      </trkpt>
      <trkpt lat="0" lon="0">
        <time>2021-02-28T10:21:46.645000+00:00</time>
      </trkpt>
      <trkpt lat="0" lon="0">
        <time>2021-02-28T10:21:46.648000+00:00</time>
      </trkpt>
      <trkpt lat="47.31093" lon="-1.39332">
        <ele>127</ele>
        <time>2021-02-28T10:21:47.668000+00:00</time>
      </trkpt>
      <trkpt lat="0" lon="0">
        <time>2021-02-28T10:21:47.673000+00:00</time>
      </trkpt>
      <trkpt lat="0" lon="0">
        <time>2021-02-28T10:21:47.677000+00:00</time>
      </trkpt>
      <trkpt lat="0" lon="0">
        <time>2021-02-28T10:21:47.680000+00:00</time>
      </trkpt>
      <trkpt lat="47.31091" lon="-1.39331">
        <ele>127</ele>
        <time>2021-02-28T10:21:48.624000+00:00</time>
      </trkpt>
      <trkpt lat="0" lon="0">
        <time>2021-02-28T10:21:48.627000+00:00</time>
      </trkpt>
      <trkpt lat="0" lon="0">
        <time>2021-02-28T10:21:48.629000+00:00</time>
      </trkpt>
      <trkpt lat="0" lon="0">
        <time>2021-02-28T10:21:48.630000+00:00</time>
      </trkpt>
      <trkpt lat="47.31089" lon="-1.3933">
        <ele>127</ele>
        <time>2021-02-28T10:21:49.682000+00:00</time>
      </trkpt>
      <trkpt lat="0" lon="0">
        <time>2021-02-28T10:21:49.688000+00:00</time>
      </trkpt>
      <trkpt lat="0" lon="0">
        <time>2021-02-28T10:21:49.693000+00:00</time>
      </trkpt>
      <trkpt lat="0" lon="0">
        <time>2021-02-28T10:21:49.696000+00:00</time>
      </trkpt>
      <trkpt lat="47.31087" lon="-1.39329">
        <ele>127</ele>
        <time>2021-02-28T10:21:50.622000+00:00</time>
      </trkpt>
      <trkpt lat="0" lon="0">
        <time>2021-02-28T10:21:50.632000+00:00</time>
      </trkpt>
      <trkpt lat="0" lon="0">
        <time>2021-02-28T10:21:50.637000+00:00</time>
      </trkpt>
      <trkpt lat="0" lon="0">
        <time>2021-02-28T10:21:50.640000+00:00</time>
      </trkpt>
      <trkpt lat="47.31085" lon="-1.39329">
        <ele>128</ele>
        <time>2021-02-28T10:21:51.622000+00:00</time>
      </trkpt>
      <trkpt lat="0" lon="0">
        <time>2021-02-28T10:21:51.626000+00:00</time>
      </trkpt>
      <trkpt lat="0" lon="0">
        <time>2021-02-28T10:21:51.636000+00:00</time>
      </trkpt>
      <trkpt lat="0" lon="0">
        <time>2021-02-28T10:21:51.638000+00:00</time>
      </trkpt>
      <trkpt lat="47.31083" lon="-1.39328">
        <ele>127</ele>
        <time>2021-02-28T10:21:52.611000+00:00</time>
      </trkpt>
      <trkpt lat="0" lon="0">
        <time>2021-02-28T10:21:52.616000+00:00</time>
      </trkpt>
      <trkpt lat="0" lon="0">
        <time>2021-02-28T10:21:52.620000+00:00</time>
      </trkpt>
      <trkpt lat="0" lon="0">
        <time>2021-02-28T10:21:52.622000+00:00</time>
      </trkpt>
      <trkpt lat="47.31082" lon="-1.39328">
        <ele>127</ele>
        <time>2021-02-28T10:21:53.672000+00:00</time>
      </trkpt>
      <trkpt lat="0" lon="0">
        <time>2021-02-28T10:21:53.686000+00:00</time>
      </trkpt>
      <trkpt lat="0" lon="0">
        <time>2021-02-28T10:21:53.693000+00:00</time>
      </trkpt>
      <trkpt lat="0" lon="0">
        <time>2021-02-28T10:21:53.698000+00:00</time>
      </trkpt>
      <trkpt lat="47.3108" lon="-1.39327">
        <ele>128</ele>
        <time>2021-02-28T10:21:54.654000+00:00</time>
      </trkpt>
      <trkpt lat="0" lon="0">
        <time>2021-02-28T10:21:54.657000+00:00</time>
      </trkpt>
      <trkpt lat="0" lon="0">
        <time>2021-02-28T10:21:54.659000+00:00</time>
      </trkpt>
      <trkpt lat="0" lon="0">
        <time>2021-02-28T10:21:54.661000+00:00</time>
      </trkpt>
      <trkpt lat="47.31078" lon="-1.39326">
        <ele>128</ele>
        <time>2021-02-28T10:21:55.625000+00:00</time>
      </trkpt>
      <trkpt lat="0" lon="0">
        <time>2021-02-28T10:21:55.631000+00:00</time>
      </trkpt>
      <trkpt lat="0" lon="0">
        <time>2021-02-28T10:21:55.638000+00:00</time>
      </trkpt>
      <trkpt lat="0" lon="0">
        <time>2021-02-28T10:21:55.641000+00:00</time>
      </trkpt>
      <trkpt lat="47.31076" lon="-1.39324">
        <ele>128</ele>
        <time>2021-02-28T10:21:56.617000+00:00</time>
      </trkpt>
      <trkpt lat="0" lon="0">
        <time>2021-02-28T10:21:56.623000+00:00</time>
      </trkpt>
      <trkpt lat="0" lon="0">
        <time>2021-02-28T10:21:56.628000+00:00</time>
      </trkpt>
      <trkpt lat="0" lon="0">
        <time>2021-02-28T10:21:56.631000+00:00</time>
      </trkpt>
      <trkpt lat="47.31074" lon="-1.39322">
        <ele>128</ele>
        <time>2021-02-28T10:21:57.637000+00:00</time>
      </trkpt>
      <trkpt lat="0" lon="0">
        <time>2021-02-28T10:21:57.645000+00:00</time>
      </trkpt>
      <trkpt lat="0" lon="0">
        <time>2021-02-28T10:21:57.652000+00:00</time>
      </trkpt>
      <trkpt lat="0" lon="0">
        <time>2021-02-28T10:21:57.655000+00:00</time>
      </trkpt>
      <trkpt lat="47.31072" lon="-1.3932">
        <ele>128</ele>
        <time>2021-02-28T10:21:58.651000+00:00</time>
      </trkpt>
      <trkpt lat="0" lon="0">
        <time>2021-02-28T10:21:58.659000+00:00</time>
      </trkpt>
      <trkpt lat="0" lon="0">
        <time>2021-02-28T10:21:58.665000+00:00</time>
      </trkpt>
      <trkpt lat="0" lon="0">
        <time>2021-02-28T10:21:58.667000+00:00</time>
      </trkpt>
      <trkpt lat="47.3107" lon="-1.39318">
        <ele>129</ele>
        <time>2021-02-28T10:21:59.645000+00:00</time>
      </trkpt>
      <trkpt lat="0" lon="0">
        <time>2021-02-28T10:21:59.651000+00:00</time>
      </trkpt>
      <trkpt lat="0" lon="0">
        <time>2021-02-28T10:21:59.657000+00:00</time>
      </trkpt>
      <trkpt lat="0" lon="0">
        <time>2021-02-28T10:21:59.659000+00:00</time>
      </trkpt>
      <trkpt lat="47.31069" lon="-1.39315">
        <ele>129</ele>
        <time>2021-02-28T10:22:00.636000+00:00</time>
      </trkpt>
      <trkpt lat="0" lon="0">
        <time>2021-02-28T10:22:00.639000+00:00</time>
      </trkpt>
      <trkpt lat="0" lon="0">
        <time>2021-02-28T10:22:00.642000+00:00</time>
      </trkpt>
      <trkpt lat="0" lon="0">
        <time>2021-02-28T10:22:00.643000+00:00</time>
      </trkpt>
      <trkpt lat="47.31067" lon="-1.39312">
        <ele>129</ele>
        <time>2021-02-28T10:22:01.638000+00:00</time>
      </trkpt>
      <trkpt lat="0" lon="0">
        <time>2021-02-28T10:22:01.644000+00:00</time>
      </trkpt>
      <trkpt lat="0" lon="0">
        <time>2021-02-28T10:22:01.649000+00:00</time>
      </trkpt>
      <trkpt lat="0" lon="0">
        <time>2021-02-28T10:22:01.651000+00:00</time>
      </trkpt>
      <trkpt lat="47.31066" lon="-1.39309">
        <ele>129</ele>
        <time>2021-02-28T10:22:02.585000+00:00</time>
      </trkpt>
      <trkpt lat="0" lon="0">
        <time>2021-02-28T10:22:02.593000+00:00</time>
      </trkpt>
      <trkpt lat="0" lon="0">
        <time>2021-02-28T10:22:02.597000+00:00</time>
      </trkpt>
      <trkpt lat="0" lon="0">
        <time>2021-02-28T10:22:02.600000+00:00</time>
      </trkpt>
      <trkpt lat="47.31065" lon="-1.39306">
        <ele>129</ele>
        <time>2021-02-28T10:22:03.632000+00:00</time>
      </trkpt>
      <trkpt lat="0" lon="0">
        <time>2021-02-28T10:22:03.638000+00:00</time>
      </trkpt>
      <trkpt lat="0" lon="0">
        <time>2021-02-28T10:22:03.642000+00:00</time>
      </trkpt>
      <trkpt lat="0" lon="0">
        <time>2021-02-28T10:22:03.644000+00:00</time>
      </trkpt>
      <trkpt lat="47.31064" lon="-1.39302">
        <ele>128</ele>
        <time>2021-02-28T10:22:04.636000+00:00</time>
      </trkpt>
      <trkpt lat="0" lon="0">
        <time>2021-02-28T10:22:04.652000+00:00</time>
      </trkpt>
      <trkpt lat="0" lon="0">
        <time>2021-02-28T10:22:04.657000+00:00</time>
      </trkpt>
      <trkpt lat="0" lon="0">
        <time>2021-02-28T10:22:04.659000+00:00</time>
      </trkpt>
      <trkpt lat="47.31063" lon="-1.39299">
        <ele>128</ele>
        <time>2021-02-28T10:22:05.631000+00:00</time>
      </trkpt>
      <trkpt lat="0" lon="0">
        <time>2021-02-28T10:22:05.639000+00:00</time>
      </trkpt>
      <trkpt lat="0" lon="0">
        <time>2021-02-28T10:22:05.644000+00:00</time>
      </trkpt>
      <trkpt lat="0" lon="0">
        <time>2021-02-28T10:22:05.647000+00:00</time>
      </trkpt>
      <trkpt lat="47.31062" lon="-1.39296">
        <ele>128</ele>
        <time>2021-02-28T10:22:06.661000+00:00</time>
      </trkpt>
      <trkpt lat="0" lon="0">
        <time>2021-02-28T10:22:06.666000+00:00</time>
      </trkpt>
      <trkpt lat="0" lon="0">
        <time>2021-02-28T10:22:06.671000+00:00</time>
      </trkpt>
      <trkpt lat="0" lon="0">
        <time>2021-02-28T10:22:06.673000+00:00</time>
      </trkpt>
      <trkpt lat="47.31061" lon="-1.39293">
        <ele>128</ele>
        <time>2021-02-28T10:22:07.638000+00:00</time>
      </trkpt>
      <trkpt lat="0" lon="0">
        <time>2021-02-28T10:22:07.647000+00:00</time>
      </trkpt>
      <trkpt lat="0" lon="0">
        <time>2021-02-28T10:22:07.653000+00:00</time>
      </trkpt>
      <trkpt lat="0" lon="0">
        <time>2021-02-28T10:22:07.655000+00:00</time>
      </trkpt>
      <trkpt lat="47.3106" lon="-1.3929">
        <ele>128</ele>
        <time>2021-02-28T10:22:08.658000+00:00</time>
      </trkpt>
      <trkpt lat="0" lon="0">
        <time>2021-02-28T10:22:08.671000+00:00</time>
      </trkpt>
      <trkpt lat="0" lon="0">
        <time>2021-02-28T10:22:08.678000+00:00</time>
      </trkpt>
      <trkpt lat="0" lon="0">
        <time>2021-02-28T10:22:08.681000+00:00</time>
      </trkpt>
      <trkpt lat="47.31058" lon="-1.39287">
        <ele>128</ele>
        <time>2021-02-28T10:22:09.632000+00:00</time>
      </trkpt>
      <trkpt lat="0" lon="0">
        <time>2021-02-28T10:22:09.636000+00:00</time>
      </trkpt>
      <trkpt lat="0" lon="0">
        <time>2021-02-28T10:22:09.640000+00:00</time>
      </trkpt>
      <trkpt lat="0" lon="0">
        <time>2021-02-28T10:22:09.643000+00:00</time>
      </trkpt>
      <trkpt lat="47.31057" lon="-1.39285">
        <ele>128</ele>
        <time>2021-02-28T10:22:10.667000+00:00</time>
      </trkpt>
      <trkpt lat="0" lon="0">
        <time>2021-02-28T10:22:10.675000+00:00</time>
      </trkpt>
      <trkpt lat="0" lon="0">
        <time>2021-02-28T10:22:10.679000+00:00</time>
      </trkpt>
      <trkpt lat="0" lon="0">
        <time>2021-02-28T10:22:10.682000+00:00</time>
      </trkpt>
      <trkpt lat="47.31055" lon="-1.39283">
        <ele>128</ele>
        <time>2021-02-28T10:22:11.686000+00:00</time>
      </trkpt>
      <trkpt lat="0" lon="0">
        <time>2021-02-28T10:22:11.691000+00:00</time>
      </trkpt>
      <trkpt lat="0" lon="0">
        <time>2021-02-28T10:22:11.695000+00:00</time>
      </trkpt>
      <trkpt lat="0" lon="0">
        <time>2021-02-28T10:22:11.698000+00:00</time>
      </trkpt>
      <trkpt lat="47.31054" lon="-1.39281">
        <ele>128</ele>
        <time>2021-02-28T10:22:12.644000+00:00</time>
      </trkpt>
      <trkpt lat="0" lon="0">
        <time>2021-02-28T10:22:12.652000+00:00</time>
      </trkpt>
      <trkpt lat="0" lon="0">
        <time>2021-02-28T10:22:12.658000+00:00</time>
      </trkpt>
      <trkpt lat="0" lon="0">
        <time>2021-02-28T10:22:12.660000+00:00</time>
      </trkpt>
      <trkpt lat="47.31052" lon="-1.39279">
        <ele>128</ele>
        <time>2021-02-28T10:22:13.669000+00:00</time>
      </trkpt>
      <trkpt lat="0" lon="0">
        <time>2021-02-28T10:22:13.677000+00:00</time>
      </trkpt>
      <trkpt lat="0" lon="0">
        <time>2021-02-28T10:22:13.682000+00:00</time>
      </trkpt>
      <trkpt lat="0" lon="0">
        <time>2021-02-28T10:22:13.685000+00:00</time>
      </trkpt>
      <trkpt lat="47.3105" lon="-1.39278">
        <ele>128</ele>
        <time>2021-02-28T10:22:14.663000+00:00</time>
      </trkpt>
      <trkpt lat="0" lon="0">
        <time>2021-02-28T10:22:14.670000+00:00</time>
      </trkpt>
      <trkpt lat="0" lon="0">
        <time>2021-02-28T10:22:14.675000+00:00</time>
      </trkpt>
      <trkpt lat="0" lon="0">
        <time>2021-02-28T10:22:14.678000+00:00</time>
      </trkpt>
      <trkpt lat="47.31048" lon="-1.39277">
        <ele>128</ele>
        <time>2021-02-28T10:22:15.644000+00:00</time>
      </trkpt>
      <trkpt lat="0" lon="0">
        <time>2021-02-28T10:22:15.651000+00:00</time>
      </trkpt>
      <trkpt lat="0" lon="0">
        <time>2021-02-28T10:22:15.656000+00:00</time>
      </trkpt>
      <trkpt lat="0" lon="0">
        <time>2021-02-28T10:22:15.660000+00:00</time>
      </trkpt>
      <trkpt lat="47.31046" lon="-1.39276">
        <ele>129</ele>
        <time>2021-02-28T10:22:16.612000+00:00</time>
      </trkpt>
      <trkpt lat="0" lon="0">
        <time>2021-02-28T10:22:16.616000+00:00</time>
      </trkpt>
      <trkpt lat="0" lon="0">
        <time>2021-02-28T10:22:16.621000+00:00</time>
      </trkpt>
      <trkpt lat="0" lon="0">
        <time>2021-02-28T10:22:16.623000+00:00</time>
      </trkpt>
      <trkpt lat="47.31044" lon="-1.39275">
        <ele>129</ele>
        <time>2021-02-28T10:22:17.653000+00:00</time>
      </trkpt>
      <trkpt lat="0" lon="0">
        <time>2021-02-28T10:22:17.658000+00:00</time>
      </trkpt>
      <trkpt lat="0" lon="0">
        <time>2021-02-28T10:22:17.662000+00:00</time>
      </trkpt>
      <trkpt lat="0" lon="0">
        <time>2021-02-28T10:22:17.667000+00:00</time>
      </trkpt>
      <trkpt lat="47.31042" lon="-1.39273">
        <ele>129</ele>
        <time>2021-02-28T10:22:18.646000+00:00</time>
      </trkpt>
      <trkpt lat="0" lon="0">
        <time>2021-02-28T10:22:18.654000+00:00</time>
      </trkpt>
      <trkpt lat="0" lon="0">
        <time>2021-02-28T10:22:18.659000+00:00</time>
      </trkpt>
      <trkpt lat="0" lon="0">
        <time>2021-02-28T10:22:18.662000+00:00</time>
      </trkpt>
      <trkpt lat="47.31039" lon="-1.39272">
        <ele>129</ele>
        <time>2021-02-28T10:22:19.655000+00:00</time>
      </trkpt>
      <trkpt lat="0" lon="0">
        <time>2021-02-28T10:22:19.665000+00:00</time>
      </trkpt>
      <trkpt lat="0" lon="0">
        <time>2021-02-28T10:22:19.671000+00:00</time>
      </trkpt>
      <trkpt lat="0" lon="0">
        <time>2021-02-28T10:22:19.675000+00:00</time>
      </trkpt>
      <trkpt lat="47.31037" lon="-1.39271">
        <ele>129</ele>
        <time>2021-02-28T10:22:20.672000+00:00</time>
      </trkpt>
      <trkpt lat="0" lon="0">
        <time>2021-02-28T10:22:20.679000+00:00</time>
      </trkpt>
      <trkpt lat="0" lon="0">
        <time>2021-02-28T10:22:20.685000+00:00</time>
      </trkpt>
      <trkpt lat="0" lon="0">
        <time>2021-02-28T10:22:20.687000+00:00</time>
      </trkpt>
      <trkpt lat="47.31034" lon="-1.3927">
        <ele>129</ele>
        <time>2021-02-28T10:22:21.679000+00:00</time>
      </trkpt>
      <trkpt lat="0" lon="0">
        <time>2021-02-28T10:22:21.689000+00:00</time>
      </trkpt>
      <trkpt lat="0" lon="0">
        <time>2021-02-28T10:22:21.695000+00:00</time>
      </trkpt>
      <trkpt lat="0" lon="0">
        <time>2021-02-28T10:22:21.698000+00:00</time>
      </trkpt>
      <trkpt lat="47.31032" lon="-1.39269">
        <ele>128</ele>
        <time>2021-02-28T10:22:22.639000+00:00</time>
      </trkpt>
      <trkpt lat="0" lon="0">
        <time>2021-02-28T10:22:22.648000+00:00</time>
      </trkpt>
      <trkpt lat="0" lon="0">
        <time>2021-02-28T10:22:22.653000+00:00</time>
      </trkpt>
      <trkpt lat="0" lon="0">
        <time>2021-02-28T10:22:22.656000+00:00</time>
      </trkpt>
      <trkpt lat="47.3103" lon="-1.39268">
        <ele>128</ele>
        <time>2021-02-28T10:22:23.653000+00:00</time>
      </trkpt>
      <trkpt lat="0" lon="0">
        <time>2021-02-28T10:22:23.659000+00:00</time>
      </trkpt>
      <trkpt lat="0" lon="0">
        <time>2021-02-28T10:22:23.661000+00:00</time>
      </trkpt>
      <trkpt lat="0" lon="0">
        <time>2021-02-28T10:22:23.663000+00:00</time>
      </trkpt>
      <trkpt lat="47.31027" lon="-1.39267">
        <ele>128</ele>
        <time>2021-02-28T10:22:24.658000+00:00</time>
      </trkpt>
      <trkpt lat="0" lon="0">
        <time>2021-02-28T10:22:24.665000+00:00</time>
      </trkpt>
      <trkpt lat="0" lon="0">
        <time>2021-02-28T10:22:24.669000+00:00</time>
      </trkpt>
      <trkpt lat="0" lon="0">
        <time>2021-02-28T10:22:24.671000+00:00</time>
      </trkpt>
      <trkpt lat="47.31025" lon="-1.39265">
        <ele>128</ele>
        <time>2021-02-28T10:22:25.645000+00:00</time>
      </trkpt>
      <trkpt lat="0" lon="0">
        <time>2021-02-28T10:22:25.651000+00:00</time>
      </trkpt>
      <trkpt lat="0" lon="0">
        <time>2021-02-28T10:22:25.655000+00:00</time>
      </trkpt>
      <trkpt lat="0" lon="0">
        <time>2021-02-28T10:22:25.658000+00:00</time>
      </trkpt>
      <trkpt lat="47.31023" lon="-1.39264">
        <ele>128</ele>
        <time>2021-02-28T10:22:26.658000+00:00</time>
      </trkpt>
      <trkpt lat="0" lon="0">
        <time>2021-02-28T10:22:26.663000+00:00</time>
      </trkpt>
      <trkpt lat="0" lon="0">
        <time>2021-02-28T10:22:26.668000+00:00</time>
      </trkpt>
      <trkpt lat="0" lon="0">
        <time>2021-02-28T10:22:26.670000+00:00</time>
      </trkpt>
      <trkpt lat="47.3102" lon="-1.39263">
        <ele>128</ele>
        <time>2021-02-28T10:22:27.688000+00:00</time>
      </trkpt>
      <trkpt lat="0" lon="0">
        <time>2021-02-28T10:22:27.699000+00:00</time>
      </trkpt>
      <trkpt lat="0" lon="0">
        <time>2021-02-28T10:22:27.705000+00:00</time>
      </trkpt>
      <trkpt lat="0" lon="0">
        <time>2021-02-28T10:22:27.707000+00:00</time>
      </trkpt>
      <trkpt lat="47.31018" lon="-1.39261">
        <ele>127</ele>
        <time>2021-02-28T10:22:28.671000+00:00</time>
      </trkpt>
      <trkpt lat="0" lon="0">
        <time>2021-02-28T10:22:28.680000+00:00</time>
      </trkpt>
      <trkpt lat="0" lon="0">
        <time>2021-02-28T10:22:28.689000+00:00</time>
      </trkpt>
      <trkpt lat="0" lon="0">
        <time>2021-02-28T10:22:28.692000+00:00</time>
      </trkpt>
      <trkpt lat="47.31015" lon="-1.39259">
        <ele>127</ele>
        <time>2021-02-28T10:22:29.641000+00:00</time>
      </trkpt>
      <trkpt lat="0" lon="0">
        <time>2021-02-28T10:22:29.647000+00:00</time>
      </trkpt>
      <trkpt lat="0" lon="0">
        <time>2021-02-28T10:22:29.652000+00:00</time>
      </trkpt>
      <trkpt lat="0" lon="0">
        <time>2021-02-28T10:22:29.655000+00:00</time>
      </trkpt>
      <trkpt lat="47.31013" lon="-1.39258">
        <ele>128</ele>
        <time>2021-02-28T10:22:30.644000+00:00</time>
      </trkpt>
      <trkpt lat="0" lon="0">
        <time>2021-02-28T10:22:30.653000+00:00</time>
      </trkpt>
      <trkpt lat="0" lon="0">
        <time>2021-02-28T10:22:30.659000+00:00</time>
      </trkpt>
      <trkpt lat="0" lon="0">
        <time>2021-02-28T10:22:30.662000+00:00</time>
      </trkpt>
      <trkpt lat="47.3101" lon="-1.39256">
        <ele>128</ele>
        <time>2021-02-28T10:22:31.677000+00:00</time>
      </trkpt>
      <trkpt lat="0" lon="0">
        <time>2021-02-28T10:22:31.692000+00:00</time>
      </trkpt>
      <trkpt lat="0" lon="0">
        <time>2021-02-28T10:22:31.702000+00:00</time>
      </trkpt>
      <trkpt lat="0" lon="0">
        <time>2021-02-28T10:22:31.705000+00:00</time>
      </trkpt>
      <trkpt lat="47.31008" lon="-1.39254">
        <ele>128</ele>
        <time>2021-02-28T10:22:32.682000+00:00</time>
      </trkpt>
      <trkpt lat="0" lon="0">
        <time>2021-02-28T10:22:32.692000+00:00</time>
      </trkpt>
      <trkpt lat="0" lon="0">
        <time>2021-02-28T10:22:32.697000+00:00</time>
      </trkpt>
      <trkpt lat="0" lon="0">
        <time>2021-02-28T10:22:32.700000+00:00</time>
      </trkpt>
      <trkpt lat="47.31006" lon="-1.39252">
        <ele>129</ele>
        <time>2021-02-28T10:22:33.616000+00:00</time>
      </trkpt>
      <trkpt lat="0" lon="0">
        <time>2021-02-28T10:22:33.624000+00:00</time>
      </trkpt>
      <trkpt lat="0" lon="0">
        <time>2021-02-28T10:22:33.631000+00:00</time>
      </trkpt>
      <trkpt lat="0" lon="0">
        <time>2021-02-28T10:22:33.633000+00:00</time>
      </trkpt>
      <trkpt lat="47.31004" lon="-1.39251">
        <ele>129</ele>
        <time>2021-02-28T10:22:34.656000+00:00</time>
      </trkpt>
      <trkpt lat="0" lon="0">
        <time>2021-02-28T10:22:34.664000+00:00</time>
      </trkpt>
      <trkpt lat="0" lon="0">
        <time>2021-02-28T10:22:34.669000+00:00</time>
      </trkpt>
      <trkpt lat="0" lon="0">
        <time>2021-02-28T10:22:34.674000+00:00</time>
      </trkpt>
      <trkpt lat="47.31003" lon="-1.39249">
        <ele>129</ele>
        <time>2021-02-28T10:22:35.604000+00:00</time>
      </trkpt>
      <trkpt lat="0" lon="0">
        <time>2021-02-28T10:22:35.620000+00:00</time>
      </trkpt>
      <trkpt lat="0" lon="0">
        <time>2021-02-28T10:22:35.625000+00:00</time>
      </trkpt>
      <trkpt lat="0" lon="0">
        <time>2021-02-28T10:22:35.627000+00:00</time>
      </trkpt>
      <trkpt lat="47.31001" lon="-1.39247">
        <ele>129</ele>
        <time>2021-02-28T10:22:36.641000+00:00</time>
      </trkpt>
      <trkpt lat="0" lon="0">
        <time>2021-02-28T10:22:36.649000+00:00</time>
      </trkpt>
      <trkpt lat="0" lon="0">
        <time>2021-02-28T10:22:36.653000+00:00</time>
      </trkpt>
      <trkpt lat="0" lon="0">
        <time>2021-02-28T10:22:36.655000+00:00</time>
      </trkpt>
      <trkpt lat="47.30999" lon="-1.39246">
        <ele>129</ele>
        <time>2021-02-28T10:22:37.642000+00:00</time>
      </trkpt>
      <trkpt lat="0" lon="0">
        <time>2021-02-28T10:22:37.652000+00:00</time>
      </trkpt>
      <trkpt lat="0" lon="0">
        <time>2021-02-28T10:22:37.658000+00:00</time>
      </trkpt>
      <trkpt lat="0" lon="0">
        <time>2021-02-28T10:22:37.659000+00:00</time>
      </trkpt>
      <trkpt lat="47.30997" lon="-1.39244">
        <ele>129</ele>
        <time>2021-02-28T10:22:38.667000+00:00</time>
      </trkpt>
      <trkpt lat="0" lon="0">
        <time>2021-02-28T10:22:38.674000+00:00</time>
      </trkpt>
      <trkpt lat="0" lon="0">
        <time>2021-02-28T10:22:38.679000+00:00</time>
      </trkpt>
      <trkpt lat="0" lon="0">
        <time>2021-02-28T10:22:38.681000+00:00</time>
      </trkpt>
      <trkpt lat="47.30996" lon="-1.39242">
        <ele>128</ele>
        <time>2021-02-28T10:22:39.639000+00:00</time>
      </trkpt>
      <trkpt lat="0" lon="0">
        <time>2021-02-28T10:22:39.645000+00:00</time>
      </trkpt>
      <trkpt lat="0" lon="0">
        <time>2021-02-28T10:22:39.649000+00:00</time>
      </trkpt>
      <trkpt lat="0" lon="0">
        <time>2021-02-28T10:22:39.650000+00:00</time>
      </trkpt>
      <trkpt lat="47.30994" lon="-1.39241">
        <ele>128</ele>
        <time>2021-02-28T10:22:40.645000+00:00</time>
      </trkpt>
      <trkpt lat="0" lon="0">
        <time>2021-02-28T10:22:40.651000+00:00</time>
      </trkpt>
      <trkpt lat="0" lon="0">
        <time>2021-02-28T10:22:40.657000+00:00</time>
      </trkpt>
      <trkpt lat="0" lon="0">
        <time>2021-02-28T10:22:40.659000+00:00</time>
      </trkpt>
      <trkpt lat="47.30992" lon="-1.39239">
        <ele>128</ele>
        <time>2021-02-28T10:22:41.628000+00:00</time>
      </trkpt>
      <trkpt lat="0" lon="0">
        <time>2021-02-28T10:22:41.630000+00:00</time>
      </trkpt>
      <trkpt lat="0" lon="0">
        <time>2021-02-28T10:22:41.632000+00:00</time>
      </trkpt>
      <trkpt lat="0" lon="0">
        <time>2021-02-28T10:22:41.633000+00:00</time>
      </trkpt>
      <trkpt lat="47.30991" lon="-1.39237">
        <ele>128</ele>
        <time>2021-02-28T10:22:42.661000+00:00</time>
      </trkpt>
      <trkpt lat="0" lon="0">
        <time>2021-02-28T10:22:42.668000+00:00</time>
      </trkpt>
      <trkpt lat="0" lon="0">
        <time>2021-02-28T10:22:42.673000+00:00</time>
      </trkpt>
      <trkpt lat="0" lon="0">
        <time>2021-02-28T10:22:42.675000+00:00</time>
      </trkpt>
      <trkpt lat="47.30989" lon="-1.39235">
        <ele>128</ele>
        <time>2021-02-28T10:22:43.663000+00:00</time>
      </trkpt>
      <trkpt lat="0" lon="0">
        <time>2021-02-28T10:22:43.673000+00:00</time>
      </trkpt>
      <trkpt lat="0" lon="0">
        <time>2021-02-28T10:22:43.679000+00:00</time>
      </trkpt>
      <trkpt lat="0" lon="0">
        <time>2021-02-28T10:22:43.682000+00:00</time>
      </trkpt>
      <trkpt lat="47.30987" lon="-1.39233">
        <ele>129</ele>
        <time>2021-02-28T10:22:44.647000+00:00</time>
      </trkpt>
      <trkpt lat="0" lon="0">
        <time>2021-02-28T10:22:44.660000+00:00</time>
      </trkpt>
      <trkpt lat="0" lon="0">
        <time>2021-02-28T10:22:44.665000+00:00</time>
      </trkpt>
      <trkpt lat="0" lon="0">
        <time>2021-02-28T10:22:44.667000+00:00</time>
      </trkpt>
      <trkpt lat="47.30984" lon="-1.39231">
        <ele>129</ele>
        <time>2021-02-28T10:22:45.640000+00:00</time>
      </trkpt>
      <trkpt lat="0" lon="0">
        <time>2021-02-28T10:22:45.645000+00:00</time>
      </trkpt>
      <trkpt lat="0" lon="0">
        <time>2021-02-28T10:22:45.650000+00:00</time>
      </trkpt>
      <trkpt lat="0" lon="0">
        <time>2021-02-28T10:22:45.653000+00:00</time>
      </trkpt>
      <trkpt lat="47.30982" lon="-1.3923">
        <ele>129</ele>
        <time>2021-02-28T10:22:46.640000+00:00</time>
      </trkpt>
      <trkpt lat="0" lon="0">
        <time>2021-02-28T10:22:46.650000+00:00</time>
      </trkpt>
      <trkpt lat="0" lon="0">
        <time>2021-02-28T10:22:46.657000+00:00</time>
      </trkpt>
      <trkpt lat="0" lon="0">
        <time>2021-02-28T10:22:46.659000+00:00</time>
      </trkpt>
      <trkpt lat="47.30979" lon="-1.39228">
        <ele>129</ele>
        <time>2021-02-28T10:22:47.691000+00:00</time>
      </trkpt>
      <trkpt lat="0" lon="0">
        <time>2021-02-28T10:22:47.703000+00:00</time>
      </trkpt>
      <trkpt lat="0" lon="0">
        <time>2021-02-28T10:22:47.709000+00:00</time>
      </trkpt>
      <trkpt lat="0" lon="0">
        <time>2021-02-28T10:22:47.713000+00:00</time>
      </trkpt>
      <trkpt lat="47.30977" lon="-1.39227">
        <ele>129</ele>
        <time>2021-02-28T10:22:48.586000+00:00</time>
      </trkpt>
      <trkpt lat="0" lon="0">
        <time>2021-02-28T10:22:48.593000+00:00</time>
      </trkpt>
      <trkpt lat="0" lon="0">
        <time>2021-02-28T10:22:48.598000+00:00</time>
      </trkpt>
      <trkpt lat="0" lon="0">
        <time>2021-02-28T10:22:48.600000+00:00</time>
      </trkpt>
      <trkpt lat="47.30974" lon="-1.39226">
        <ele>129</ele>
        <time>2021-02-28T10:22:49.583000+00:00</time>
      </trkpt>
      <trkpt lat="0" lon="0">
        <time>2021-02-28T10:22:49.584000+00:00</time>
      </trkpt>
      <trkpt lat="0" lon="0">
        <time>2021-02-28T10:22:49.585000+00:00</time>
      </trkpt>
      <trkpt lat="0" lon="0">
        <time>2021-02-28T10:22:49.586000+00:00</time>
      </trkpt>
      <trkpt lat="47.30971" lon="-1.39224">
        <ele>129</ele>
        <time>2021-02-28T10:22:50.671000+00:00</time>
      </trkpt>
      <trkpt lat="0" lon="0">
        <time>2021-02-28T10:22:50.681000+00:00</time>
      </trkpt>
      <trkpt lat="0" lon="0">
        <time>2021-02-28T10:22:50.686000+00:00</time>
      </trkpt>
      <trkpt lat="0" lon="0">
        <time>2021-02-28T10:22:50.690000+00:00</time>
      </trkpt>
      <trkpt lat="47.30968" lon="-1.39223">
        <ele>129</ele>
        <time>2021-02-28T10:22:51.658000+00:00</time>
      </trkpt>
      <trkpt lat="0" lon="0">
        <time>2021-02-28T10:22:51.673000+00:00</time>
      </trkpt>
      <trkpt lat="0" lon="0">
        <time>2021-02-28T10:22:51.678000+00:00</time>
      </trkpt>
      <trkpt lat="0" lon="0">
        <time>2021-02-28T10:22:51.681000+00:00</time>
      </trkpt>
      <trkpt lat="47.30966" lon="-1.39222">
        <ele>128</ele>
        <time>2021-02-28T10:22:52.650000+00:00</time>
      </trkpt>
      <trkpt lat="0" lon="0">
        <time>2021-02-28T10:22:52.654000+00:00</time>
      </trkpt>
      <trkpt lat="0" lon="0">
        <time>2021-02-28T10:22:52.657000+00:00</time>
      </trkpt>
      <trkpt lat="0" lon="0">
        <time>2021-02-28T10:22:52.658000+00:00</time>
      </trkpt>
      <trkpt lat="47.30963" lon="-1.39221">
        <ele>128</ele>
        <time>2021-02-28T10:22:53.646000+00:00</time>
      </trkpt>
      <trkpt lat="0" lon="0">
        <time>2021-02-28T10:22:53.653000+00:00</time>
      </trkpt>
      <trkpt lat="0" lon="0">
        <time>2021-02-28T10:22:53.659000+00:00</time>
      </trkpt>
      <trkpt lat="0" lon="0">
        <time>2021-02-28T10:22:53.662000+00:00</time>
      </trkpt>
      <trkpt lat="47.3096" lon="-1.3922">
        <ele>128</ele>
        <time>2021-02-28T10:22:54.690000+00:00</time>
      </trkpt>
      <trkpt lat="0" lon="0">
        <time>2021-02-28T10:22:54.698000+00:00</time>
      </trkpt>
      <trkpt lat="0" lon="0">
        <time>2021-02-28T10:22:54.702000+00:00</time>
      </trkpt>
      <trkpt lat="0" lon="0">
        <time>2021-02-28T10:22:54.706000+00:00</time>
      </trkpt>
      <trkpt lat="47.30957" lon="-1.39219">
        <ele>128</ele>
        <time>2021-02-28T10:22:55.660000+00:00</time>
      </trkpt>
      <trkpt lat="0" lon="0">
        <time>2021-02-28T10:22:55.667000+00:00</time>
      </trkpt>
      <trkpt lat="0" lon="0">
        <time>2021-02-28T10:22:55.672000+00:00</time>
      </trkpt>
      <trkpt lat="0" lon="0">
        <time>2021-02-28T10:22:55.674000+00:00</time>
      </trkpt>
      <trkpt lat="47.30954" lon="-1.39217">
        <ele>128</ele>
        <time>2021-02-28T10:22:56.678000+00:00</time>
      </trkpt>
      <trkpt lat="0" lon="0">
        <time>2021-02-28T10:22:56.683000+00:00</time>
      </trkpt>
      <trkpt lat="0" lon="0">
        <time>2021-02-28T10:22:56.687000+00:00</time>
      </trkpt>
      <trkpt lat="0" lon="0">
        <time>2021-02-28T10:22:56.690000+00:00</time>
      </trkpt>
      <trkpt lat="47.30951" lon="-1.39215">
        <ele>129</ele>
        <time>2021-02-28T10:22:57.645000+00:00</time>
      </trkpt>
      <trkpt lat="0" lon="0">
        <time>2021-02-28T10:22:57.654000+00:00</time>
      </trkpt>
      <trkpt lat="0" lon="0">
        <time>2021-02-28T10:22:57.661000+00:00</time>
      </trkpt>
      <trkpt lat="0" lon="0">
        <time>2021-02-28T10:22:57.664000+00:00</time>
      </trkpt>
      <trkpt lat="47.30949" lon="-1.39214">
        <ele>128</ele>
        <time>2021-02-28T10:22:58.598000+00:00</time>
      </trkpt>
      <trkpt lat="0" lon="0">
        <time>2021-02-28T10:22:58.606000+00:00</time>
      </trkpt>
      <trkpt lat="0" lon="0">
        <time>2021-02-28T10:22:58.610000+00:00</time>
      </trkpt>
      <trkpt lat="0" lon="0">
        <time>2021-02-28T10:22:58.614000+00:00</time>
      </trkpt>
      <trkpt lat="47.30946" lon="-1.39212">
        <ele>128</ele>
        <time>2021-02-28T10:22:59.631000+00:00</time>
      </trkpt>
      <trkpt lat="0" lon="0">
        <time>2021-02-28T10:22:59.635000+00:00</time>
      </trkpt>
      <trkpt lat="0" lon="0">
        <time>2021-02-28T10:22:59.638000+00:00</time>
      </trkpt>
      <trkpt lat="0" lon="0">
        <time>2021-02-28T10:22:59.640000+00:00</time>
      </trkpt>
      <trkpt lat="47.30943" lon="-1.39211">
        <ele>128</ele>
        <time>2021-02-28T10:23:00.568000+00:00</time>
      </trkpt>
      <trkpt lat="0" lon="0">
        <time>2021-02-28T10:23:00.580000+00:00</time>
      </trkpt>
      <trkpt lat="0" lon="0">
        <time>2021-02-28T10:23:00.585000+00:00</time>
      </trkpt>
      <trkpt lat="0" lon="0">
        <time>2021-02-28T10:23:00.587000+00:00</time>
      </trkpt>
      <trkpt lat="47.3094" lon="-1.39209">
        <ele>128</ele>
        <time>2021-02-28T10:23:01.651000+00:00</time>
      </trkpt>
      <trkpt lat="0" lon="0">
        <time>2021-02-28T10:23:01.661000+00:00</time>
      </trkpt>
      <trkpt lat="0" lon="0">
        <time>2021-02-28T10:23:01.665000+00:00</time>
      </trkpt>
      <trkpt lat="0" lon="0">
        <time>2021-02-28T10:23:01.668000+00:00</time>
      </trkpt>
      <trkpt lat="47.30936" lon="-1.39208">
        <ele>128</ele>
        <time>2021-02-28T10:23:02.687000+00:00</time>
      </trkpt>
      <trkpt lat="0" lon="0">
        <time>2021-02-28T10:23:02.700000+00:00</time>
      </trkpt>
      <trkpt lat="0" lon="0">
        <time>2021-02-28T10:23:02.712000+00:00</time>
      </trkpt>
      <trkpt lat="0" lon="0">
        <time>2021-02-28T10:23:02.716000+00:00</time>
      </trkpt>
      <trkpt lat="47.30933" lon="-1.39207">
        <ele>128</ele>
        <time>2021-02-28T10:23:03.662000+00:00</time>
      </trkpt>
      <trkpt lat="0" lon="0">
        <time>2021-02-28T10:23:03.673000+00:00</time>
      </trkpt>
      <trkpt lat="0" lon="0">
        <time>2021-02-28T10:23:03.679000+00:00</time>
      </trkpt>
      <trkpt lat="0" lon="0">
        <time>2021-02-28T10:23:03.682000+00:00</time>
      </trkpt>
      <trkpt lat="47.30929" lon="-1.39207">
        <ele>127</ele>
        <time>2021-02-28T10:23:04.623000+00:00</time>
      </trkpt>
      <trkpt lat="0" lon="0">
        <time>2021-02-28T10:23:04.629000+00:00</time>
      </trkpt>
      <trkpt lat="0" lon="0">
        <time>2021-02-28T10:23:04.637000+00:00</time>
      </trkpt>
      <trkpt lat="0" lon="0">
        <time>2021-02-28T10:23:04.640000+00:00</time>
      </trkpt>
      <trkpt lat="47.30926" lon="-1.39208">
        <ele>128</ele>
        <time>2021-02-28T10:23:05.637000+00:00</time>
      </trkpt>
      <trkpt lat="0" lon="0">
        <time>2021-02-28T10:23:05.646000+00:00</time>
      </trkpt>
      <trkpt lat="0" lon="0">
        <time>2021-02-28T10:23:05.652000+00:00</time>
      </trkpt>
      <trkpt lat="0" lon="0">
        <time>2021-02-28T10:23:05.654000+00:00</time>
      </trkpt>
      <trkpt lat="47.30922" lon="-1.39209">
        <ele>128</ele>
        <time>2021-02-28T10:23:06.635000+00:00</time>
      </trkpt>
      <trkpt lat="0" lon="0">
        <time>2021-02-28T10:23:06.649000+00:00</time>
      </trkpt>
      <trkpt lat="0" lon="0">
        <time>2021-02-28T10:23:06.654000+00:00</time>
      </trkpt>
      <trkpt lat="0" lon="0">
        <time>2021-02-28T10:23:06.657000+00:00</time>
      </trkpt>
      <trkpt lat="47.30919" lon="-1.39212">
        <ele>128</ele>
        <time>2021-02-28T10:23:07.636000+00:00</time>
      </trkpt>
      <trkpt lat="0" lon="0">
        <time>2021-02-28T10:23:07.642000+00:00</time>
      </trkpt>
      <trkpt lat="0" lon="0">
        <time>2021-02-28T10:23:07.648000+00:00</time>
      </trkpt>
      <trkpt lat="0" lon="0">
        <time>2021-02-28T10:23:07.651000+00:00</time>
      </trkpt>
      <trkpt lat="47.30916" lon="-1.39215">
        <ele>128</ele>
        <time>2021-02-28T10:23:08.670000+00:00</time>
      </trkpt>
      <trkpt lat="0" lon="0">
        <time>2021-02-28T10:23:08.678000+00:00</time>
      </trkpt>
      <trkpt lat="0" lon="0">
        <time>2021-02-28T10:23:08.684000+00:00</time>
      </trkpt>
      <trkpt lat="0" lon="0">
        <time>2021-02-28T10:23:08.687000+00:00</time>
      </trkpt>
      <trkpt lat="47.30913" lon="-1.39219">
        <ele>128</ele>
        <time>2021-02-28T10:23:09.615000+00:00</time>
      </trkpt>
      <trkpt lat="0" lon="0">
        <time>2021-02-28T10:23:09.632000+00:00</time>
      </trkpt>
      <trkpt lat="0" lon="0">
        <time>2021-02-28T10:23:09.635000+00:00</time>
      </trkpt>
      <trkpt lat="47.30909" lon="-1.39223">
        <ele>127</ele>
        <time>2021-02-28T10:23:10.636000+00:00</time>
      </trkpt>
      <trkpt lat="0" lon="0">
        <time>2021-02-28T10:23:10.640000+00:00</time>
      </trkpt>
      <trkpt lat="0" lon="0">
        <time>2021-02-28T10:23:10.646000+00:00</time>
      </trkpt>
      <trkpt lat="0" lon="0">
        <time>2021-02-28T10:23:10.647000+00:00</time>
      </trkpt>
      <trkpt lat="47.30905" lon="-1.39227">
        <ele>128</ele>
        <time>2021-02-28T10:23:11.665000+00:00</time>
      </trkpt>
      <trkpt lat="0" lon="0">
        <time>2021-02-28T10:23:11.678000+00:00</time>
      </trkpt>
      <trkpt lat="0" lon="0">
        <time>2021-02-28T10:23:11.683000+00:00</time>
      </trkpt>
      <trkpt lat="0" lon="0">
        <time>2021-02-28T10:23:11.686000+00:00</time>
      </trkpt>
      <trkpt lat="47.30902" lon="-1.39231">
        <ele>129</ele>
        <time>2021-02-28T10:23:12.636000+00:00</time>
      </trkpt>
      <trkpt lat="0" lon="0">
        <time>2021-02-28T10:23:12.642000+00:00</time>
      </trkpt>
      <trkpt lat="0" lon="0">
        <time>2021-02-28T10:23:12.647000+00:00</time>
      </trkpt>
      <trkpt lat="0" lon="0">
        <time>2021-02-28T10:23:12.654000+00:00</time>
      </trkpt>
      <trkpt lat="47.30898" lon="-1.39235">
        <ele>129</ele>
        <time>2021-02-28T10:23:13.600000+00:00</time>
      </trkpt>
      <trkpt lat="0" lon="0">
        <time>2021-02-28T10:23:13.603000+00:00</time>
      </trkpt>
      <trkpt lat="0" lon="0">
        <time>2021-02-28T10:23:13.608000+00:00</time>
      </trkpt>
      <trkpt lat="0" lon="0">
        <time>2021-02-28T10:23:13.610000+00:00</time>
      </trkpt>
      <trkpt lat="47.30893" lon="-1.39239">
        <ele>129</ele>
        <time>2021-02-28T10:23:14.620000+00:00</time>
      </trkpt>
      <trkpt lat="0" lon="0">
        <time>2021-02-28T10:23:14.628000+00:00</time>
      </trkpt>
      <trkpt lat="0" lon="0">
        <time>2021-02-28T10:23:14.633000+00:00</time>
      </trkpt>
      <trkpt lat="0" lon="0">
        <time>2021-02-28T10:23:14.636000+00:00</time>
      </trkpt>
      <trkpt lat="47.30889" lon="-1.39242">
        <ele>129</ele>
        <time>2021-02-28T10:23:15.621000+00:00</time>
      </trkpt>
      <trkpt lat="0" lon="0">
        <time>2021-02-28T10:23:15.627000+00:00</time>
      </trkpt>
      <trkpt lat="0" lon="0">
        <time>2021-02-28T10:23:15.633000+00:00</time>
      </trkpt>
      <trkpt lat="0" lon="0">
        <time>2021-02-28T10:23:15.636000+00:00</time>
      </trkpt>
      <trkpt lat="47.30884" lon="-1.39242">
        <ele>131</ele>
        <time>2021-02-28T10:23:16.603000+00:00</time>
      </trkpt>
      <trkpt lat="0" lon="0">
        <time>2021-02-28T10:23:16.615000+00:00</time>
      </trkpt>
      <trkpt lat="0" lon="0">
        <time>2021-02-28T10:23:16.619000+00:00</time>
      </trkpt>
      <trkpt lat="0" lon="0">
        <time>2021-02-28T10:23:16.622000+00:00</time>
      </trkpt>
      <trkpt lat="47.30879" lon="-1.39242">
        <ele>132</ele>
        <time>2021-02-28T10:23:17.653000+00:00</time>
      </trkpt>
      <trkpt lat="0" lon="0">
        <time>2021-02-28T10:23:17.661000+00:00</time>
      </trkpt>
      <trkpt lat="0" lon="0">
        <time>2021-02-28T10:23:17.669000+00:00</time>
      </trkpt>
      <trkpt lat="0" lon="0">
        <time>2021-02-28T10:23:17.672000+00:00</time>
      </trkpt>
      <trkpt lat="47.30873" lon="-1.39242">
        <ele>132</ele>
        <time>2021-02-28T10:23:18.671000+00:00</time>
      </trkpt>
      <trkpt lat="0" lon="0">
        <time>2021-02-28T10:23:18.679000+00:00</time>
      </trkpt>
      <trkpt lat="0" lon="0">
        <time>2021-02-28T10:23:18.684000+00:00</time>
      </trkpt>
      <trkpt lat="0" lon="0">
        <time>2021-02-28T10:23:18.687000+00:00</time>
      </trkpt>
      <trkpt lat="47.30867" lon="-1.3924">
        <ele>131</ele>
        <time>2021-02-28T10:23:19.622000+00:00</time>
      </trkpt>
      <trkpt lat="0" lon="0">
        <time>2021-02-28T10:23:19.626000+00:00</time>
      </trkpt>
      <trkpt lat="0" lon="0">
        <time>2021-02-28T10:23:19.627000+00:00</time>
      </trkpt>
      <trkpt lat="47.30861" lon="-1.39239">
        <ele>130</ele>
        <time>2021-02-28T10:23:20.666000+00:00</time>
      </trkpt>
      <trkpt lat="0" lon="0">
        <time>2021-02-28T10:23:20.677000+00:00</time>
      </trkpt>
      <trkpt lat="0" lon="0">
        <time>2021-02-28T10:23:20.683000+00:00</time>
      </trkpt>
      <trkpt lat="0" lon="0">
        <time>2021-02-28T10:23:20.686000+00:00</time>
      </trkpt>
      <trkpt lat="47.30855" lon="-1.39237">
        <ele>130</ele>
        <time>2021-02-28T10:23:21.662000+00:00</time>
      </trkpt>
      <trkpt lat="0" lon="0">
        <time>2021-02-28T10:23:21.668000+00:00</time>
      </trkpt>
      <trkpt lat="0" lon="0">
        <time>2021-02-28T10:23:21.673000+00:00</time>
      </trkpt>
      <trkpt lat="0" lon="0">
        <time>2021-02-28T10:23:21.675000+00:00</time>
      </trkpt>
      <trkpt lat="47.3085" lon="-1.39236">
        <ele>130</ele>
        <time>2021-02-28T10:23:22.662000+00:00</time>
      </trkpt>
      <trkpt lat="0" lon="0">
        <time>2021-02-28T10:23:22.669000+00:00</time>
      </trkpt>
      <trkpt lat="0" lon="0">
        <time>2021-02-28T10:23:22.673000+00:00</time>
      </trkpt>
      <trkpt lat="0" lon="0">
        <time>2021-02-28T10:23:22.675000+00:00</time>
      </trkpt>
      <trkpt lat="47.30844" lon="-1.39235">
        <ele>130</ele>
        <time>2021-02-28T10:23:23.679000+00:00</time>
      </trkpt>
      <trkpt lat="0" lon="0">
        <time>2021-02-28T10:23:23.688000+00:00</time>
      </trkpt>
      <trkpt lat="0" lon="0">
        <time>2021-02-28T10:23:23.694000+00:00</time>
      </trkpt>
      <trkpt lat="0" lon="0">
        <time>2021-02-28T10:23:23.697000+00:00</time>
      </trkpt>
      <trkpt lat="47.30839" lon="-1.39233">
        <ele>130</ele>
        <time>2021-02-28T10:23:24.678000+00:00</time>
      </trkpt>
      <trkpt lat="0" lon="0">
        <time>2021-02-28T10:23:24.689000+00:00</time>
      </trkpt>
      <trkpt lat="0" lon="0">
        <time>2021-02-28T10:23:24.694000+00:00</time>
      </trkpt>
      <trkpt lat="0" lon="0">
        <time>2021-02-28T10:23:24.696000+00:00</time>
      </trkpt>
      <trkpt lat="47.30833" lon="-1.39232">
        <ele>130</ele>
        <time>2021-02-28T10:23:25.642000+00:00</time>
      </trkpt>
      <trkpt lat="0" lon="0">
        <time>2021-02-28T10:23:25.647000+00:00</time>
      </trkpt>
      <trkpt lat="0" lon="0">
        <time>2021-02-28T10:23:25.651000+00:00</time>
      </trkpt>
      <trkpt lat="0" lon="0">
        <time>2021-02-28T10:23:25.653000+00:00</time>
      </trkpt>
      <trkpt lat="47.30828" lon="-1.39231">
        <ele>130</ele>
        <time>2021-02-28T10:23:26.647000+00:00</time>
      </trkpt>
      <trkpt lat="0" lon="0">
        <time>2021-02-28T10:23:26.654000+00:00</time>
      </trkpt>
      <trkpt lat="0" lon="0">
        <time>2021-02-28T10:23:26.660000+00:00</time>
      </trkpt>
      <trkpt lat="0" lon="0">
        <time>2021-02-28T10:23:26.663000+00:00</time>
      </trkpt>
      <trkpt lat="47.30823" lon="-1.39229">
        <ele>131</ele>
        <time>2021-02-28T10:23:27.643000+00:00</time>
      </trkpt>
      <trkpt lat="0" lon="0">
        <time>2021-02-28T10:23:27.645000+00:00</time>
      </trkpt>
      <trkpt lat="0" lon="0">
        <time>2021-02-28T10:23:27.648000+00:00</time>
      </trkpt>
      <trkpt lat="0" lon="0">
        <time>2021-02-28T10:23:27.649000+00:00</time>
      </trkpt>
      <trkpt lat="47.30818" lon="-1.39228">
        <ele>131</ele>
        <time>2021-02-28T10:23:28.656000+00:00</time>
      </trkpt>
      <trkpt lat="0" lon="0">
        <time>2021-02-28T10:23:28.662000+00:00</time>
      </trkpt>
      <trkpt lat="0" lon="0">
        <time>2021-02-28T10:23:28.668000+00:00</time>
      </trkpt>
      <trkpt lat="0" lon="0">
        <time>2021-02-28T10:23:28.671000+00:00</time>
      </trkpt>
      <trkpt lat="47.30813" lon="-1.39227">
        <ele>131</ele>
        <time>2021-02-28T10:23:29.675000+00:00</time>
      </trkpt>
      <trkpt lat="0" lon="0">
        <time>2021-02-28T10:23:29.683000+00:00</time>
      </trkpt>
      <trkpt lat="0" lon="0">
        <time>2021-02-28T10:23:29.687000+00:00</time>
      </trkpt>
      <trkpt lat="0" lon="0">
        <time>2021-02-28T10:23:29.690000+00:00</time>
      </trkpt>
      <trkpt lat="47.30807" lon="-1.39225">
        <ele>131</ele>
        <time>2021-02-28T10:23:30.655000+00:00</time>
      </trkpt>
      <trkpt lat="0" lon="0">
        <time>2021-02-28T10:23:30.662000+00:00</time>
      </trkpt>
      <trkpt lat="0" lon="0">
        <time>2021-02-28T10:23:30.666000+00:00</time>
      </trkpt>
      <trkpt lat="0" lon="0">
        <time>2021-02-28T10:23:30.668000+00:00</time>
      </trkpt>
      <trkpt lat="47.30802" lon="-1.39224">
        <ele>131</ele>
        <time>2021-02-28T10:23:31.710000+00:00</time>
      </trkpt>
      <trkpt lat="0" lon="0">
        <time>2021-02-28T10:23:31.716000+00:00</time>
      </trkpt>
      <trkpt lat="0" lon="0">
        <time>2021-02-28T10:23:31.722000+00:00</time>
      </trkpt>
      <trkpt lat="0" lon="0">
        <time>2021-02-28T10:23:31.724000+00:00</time>
      </trkpt>
      <trkpt lat="47.30797" lon="-1.39223">
        <ele>130</ele>
        <time>2021-02-28T10:23:32.661000+00:00</time>
      </trkpt>
      <trkpt lat="0" lon="0">
        <time>2021-02-28T10:23:32.669000+00:00</time>
      </trkpt>
      <trkpt lat="0" lon="0">
        <time>2021-02-28T10:23:32.675000+00:00</time>
      </trkpt>
      <trkpt lat="0" lon="0">
        <time>2021-02-28T10:23:32.678000+00:00</time>
      </trkpt>
      <trkpt lat="47.30791" lon="-1.39222">
        <ele>130</ele>
        <time>2021-02-28T10:23:33.652000+00:00</time>
      </trkpt>
      <trkpt lat="0" lon="0">
        <time>2021-02-28T10:23:33.666000+00:00</time>
      </trkpt>
      <trkpt lat="0" lon="0">
        <time>2021-02-28T10:23:33.671000+00:00</time>
      </trkpt>
      <trkpt lat="0" lon="0">
        <time>2021-02-28T10:23:33.673000+00:00</time>
      </trkpt>
      <trkpt lat="47.30785" lon="-1.39221">
        <ele>129</ele>
        <time>2021-02-28T10:23:34.639000+00:00</time>
      </trkpt>
      <trkpt lat="0" lon="0">
        <time>2021-02-28T10:23:34.642000+00:00</time>
      </trkpt>
      <trkpt lat="0" lon="0">
        <time>2021-02-28T10:23:34.643000+00:00</time>
      </trkpt>
      <trkpt lat="47.30779" lon="-1.3922">
        <ele>129</ele>
        <time>2021-02-28T10:23:35.646000+00:00</time>
      </trkpt>
      <trkpt lat="0" lon="0">
        <time>2021-02-28T10:23:35.661000+00:00</time>
      </trkpt>
      <trkpt lat="0" lon="0">
        <time>2021-02-28T10:23:35.666000+00:00</time>
      </trkpt>
      <trkpt lat="0" lon="0">
        <time>2021-02-28T10:23:35.669000+00:00</time>
      </trkpt>
      <trkpt lat="47.30774" lon="-1.39218">
        <ele>129</ele>
        <time>2021-02-28T10:23:36.676000+00:00</time>
      </trkpt>
      <trkpt lat="0" lon="0">
        <time>2021-02-28T10:23:36.687000+00:00</time>
      </trkpt>
      <trkpt lat="0" lon="0">
        <time>2021-02-28T10:23:36.693000+00:00</time>
      </trkpt>
      <trkpt lat="0" lon="0">
        <time>2021-02-28T10:23:36.696000+00:00</time>
      </trkpt>
      <trkpt lat="47.30768" lon="-1.39217">
        <ele>129</ele>
        <time>2021-02-28T10:23:37.652000+00:00</time>
      </trkpt>
      <trkpt lat="0" lon="0">
        <time>2021-02-28T10:23:37.664000+00:00</time>
      </trkpt>
      <trkpt lat="0" lon="0">
        <time>2021-02-28T10:23:37.667000+00:00</time>
      </trkpt>
      <trkpt lat="0" lon="0">
        <time>2021-02-28T10:23:37.670000+00:00</time>
      </trkpt>
      <trkpt lat="47.30762" lon="-1.39216">
        <ele>129</ele>
        <time>2021-02-28T10:23:38.622000+00:00</time>
      </trkpt>
      <trkpt lat="0" lon="0">
        <time>2021-02-28T10:23:38.624000+00:00</time>
      </trkpt>
      <trkpt lat="0" lon="0">
        <time>2021-02-28T10:23:38.628000+00:00</time>
      </trkpt>
      <trkpt lat="0" lon="0">
        <time>2021-02-28T10:23:38.629000+00:00</time>
      </trkpt>
      <trkpt lat="47.30756" lon="-1.39214">
        <ele>129</ele>
        <time>2021-02-28T10:23:39.633000+00:00</time>
      </trkpt>
      <trkpt lat="0" lon="0">
        <time>2021-02-28T10:23:39.639000+00:00</time>
      </trkpt>
      <trkpt lat="0" lon="0">
        <time>2021-02-28T10:23:39.645000+00:00</time>
      </trkpt>
      <trkpt lat="0" lon="0">
        <time>2021-02-28T10:23:39.647000+00:00</time>
      </trkpt>
      <trkpt lat="47.30751" lon="-1.39213">
        <ele>129</ele>
        <time>2021-02-28T10:23:40.545000+00:00</time>
      </trkpt>
      <trkpt lat="0" lon="0">
        <time>2021-02-28T10:23:40.554000+00:00</time>
      </trkpt>
      <trkpt lat="0" lon="0">
        <time>2021-02-28T10:23:40.558000+00:00</time>
      </trkpt>
      <trkpt lat="0" lon="0">
        <time>2021-02-28T10:23:40.560000+00:00</time>
      </trkpt>
      <trkpt lat="47.30745" lon="-1.39211">
        <ele>130</ele>
        <time>2021-02-28T10:23:41.666000+00:00</time>
      </trkpt>
      <trkpt lat="0" lon="0">
        <time>2021-02-28T10:23:41.677000+00:00</time>
      </trkpt>
      <trkpt lat="0" lon="0">
        <time>2021-02-28T10:23:41.685000+00:00</time>
      </trkpt>
      <trkpt lat="0" lon="0">
        <time>2021-02-28T10:23:41.688000+00:00</time>
      </trkpt>
      <trkpt lat="47.3074" lon="-1.39208">
        <ele>130</ele>
        <time>2021-02-28T10:23:42.630000+00:00</time>
      </trkpt>
      <trkpt lat="0" lon="0">
        <time>2021-02-28T10:23:42.638000+00:00</time>
      </trkpt>
      <trkpt lat="0" lon="0">
        <time>2021-02-28T10:23:42.647000+00:00</time>
      </trkpt>
      <trkpt lat="0" lon="0">
        <time>2021-02-28T10:23:42.649000+00:00</time>
      </trkpt>
      <trkpt lat="47.30735" lon="-1.39206">
        <ele>130</ele>
        <time>2021-02-28T10:23:43.668000+00:00</time>
      </trkpt>
      <trkpt lat="0" lon="0">
        <time>2021-02-28T10:23:43.675000+00:00</time>
      </trkpt>
      <trkpt lat="0" lon="0">
        <time>2021-02-28T10:23:43.680000+00:00</time>
      </trkpt>
      <trkpt lat="0" lon="0">
        <time>2021-02-28T10:23:43.682000+00:00</time>
      </trkpt>
      <trkpt lat="47.3073" lon="-1.39204">
        <ele>130</ele>
        <time>2021-02-28T10:23:44.628000+00:00</time>
      </trkpt>
      <trkpt lat="0" lon="0">
        <time>2021-02-28T10:23:44.633000+00:00</time>
      </trkpt>
      <trkpt lat="0" lon="0">
        <time>2021-02-28T10:23:44.638000+00:00</time>
      </trkpt>
      <trkpt lat="0" lon="0">
        <time>2021-02-28T10:23:44.641000+00:00</time>
      </trkpt>
      <trkpt lat="47.30725" lon="-1.39201">
        <ele>130</ele>
        <time>2021-02-28T10:23:45.616000+00:00</time>
      </trkpt>
      <trkpt lat="0" lon="0">
        <time>2021-02-28T10:23:45.625000+00:00</time>
      </trkpt>
      <trkpt lat="0" lon="0">
        <time>2021-02-28T10:23:45.628000+00:00</time>
      </trkpt>
      <trkpt lat="0" lon="0">
        <time>2021-02-28T10:23:45.631000+00:00</time>
      </trkpt>
      <trkpt lat="47.3072" lon="-1.39197">
        <ele>130</ele>
        <time>2021-02-28T10:23:46.639000+00:00</time>
      </trkpt>
      <trkpt lat="0" lon="0">
        <time>2021-02-28T10:23:46.650000+00:00</time>
      </trkpt>
      <trkpt lat="0" lon="0">
        <time>2021-02-28T10:23:46.655000+00:00</time>
      </trkpt>
      <trkpt lat="0" lon="0">
        <time>2021-02-28T10:23:46.657000+00:00</time>
      </trkpt>
      <trkpt lat="47.30716" lon="-1.39194">
        <ele>130</ele>
        <time>2021-02-28T10:23:47.628000+00:00</time>
      </trkpt>
      <trkpt lat="0" lon="0">
        <time>2021-02-28T10:23:47.635000+00:00</time>
      </trkpt>
      <trkpt lat="0" lon="0">
        <time>2021-02-28T10:23:47.638000+00:00</time>
      </trkpt>
      <trkpt lat="0" lon="0">
        <time>2021-02-28T10:23:47.640000+00:00</time>
      </trkpt>
      <trkpt lat="47.30711" lon="-1.39191">
        <ele>130</ele>
        <time>2021-02-28T10:23:48.669000+00:00</time>
      </trkpt>
      <trkpt lat="0" lon="0">
        <time>2021-02-28T10:23:48.676000+00:00</time>
      </trkpt>
      <trkpt lat="0" lon="0">
        <time>2021-02-28T10:23:48.682000+00:00</time>
      </trkpt>
      <trkpt lat="0" lon="0">
        <time>2021-02-28T10:23:48.684000+00:00</time>
      </trkpt>
      <trkpt lat="47.30707" lon="-1.39188">
        <ele>130</ele>
        <time>2021-02-28T10:23:49.642000+00:00</time>
      </trkpt>
      <trkpt lat="0" lon="0">
        <time>2021-02-28T10:23:49.660000+00:00</time>
      </trkpt>
      <trkpt lat="0" lon="0">
        <time>2021-02-28T10:23:49.671000+00:00</time>
      </trkpt>
      <trkpt lat="0" lon="0">
        <time>2021-02-28T10:23:49.673000+00:00</time>
      </trkpt>
      <trkpt lat="47.30703" lon="-1.39185">
        <ele>130</ele>
        <time>2021-02-28T10:23:50.657000+00:00</time>
      </trkpt>
      <trkpt lat="0" lon="0">
        <time>2021-02-28T10:23:50.662000+00:00</time>
      </trkpt>
      <trkpt lat="0" lon="0">
        <time>2021-02-28T10:23:50.668000+00:00</time>
      </trkpt>
      <trkpt lat="0" lon="0">
        <time>2021-02-28T10:23:50.671000+00:00</time>
      </trkpt>
      <trkpt lat="47.307" lon="-1.39182">
        <ele>130</ele>
        <time>2021-02-28T10:23:51.648000+00:00</time>
      </trkpt>
      <trkpt lat="0" lon="0">
        <time>2021-02-28T10:23:51.659000+00:00</time>
      </trkpt>
      <trkpt lat="0" lon="0">
        <time>2021-02-28T10:23:51.665000+00:00</time>
      </trkpt>
      <trkpt lat="0" lon="0">
        <time>2021-02-28T10:23:51.668000+00:00</time>
      </trkpt>
      <trkpt lat="47.30696" lon="-1.3918">
        <ele>130</ele>
        <time>2021-02-28T10:23:52.589000+00:00</time>
      </trkpt>
      <trkpt lat="0" lon="0">
        <time>2021-02-28T10:23:52.594000+00:00</time>
      </trkpt>
      <trkpt lat="0" lon="0">
        <time>2021-02-28T10:23:52.598000+00:00</time>
      </trkpt>
      <trkpt lat="0" lon="0">
        <time>2021-02-28T10:23:52.600000+00:00</time>
      </trkpt>
      <trkpt lat="47.30694" lon="-1.39178">
        <ele>130</ele>
        <time>2021-02-28T10:23:53.608000+00:00</time>
      </trkpt>
      <trkpt lat="0" lon="0">
        <time>2021-02-28T10:23:53.618000+00:00</time>
      </trkpt>
      <trkpt lat="0" lon="0">
        <time>2021-02-28T10:23:53.622000+00:00</time>
      </trkpt>
      <trkpt lat="0" lon="0">
        <time>2021-02-28T10:23:53.625000+00:00</time>
      </trkpt>
      <trkpt lat="47.30691" lon="-1.39176">
        <ele>130</ele>
        <time>2021-02-28T10:23:54.668000+00:00</time>
      </trkpt>
      <trkpt lat="0" lon="0">
        <time>2021-02-28T10:23:54.678000+00:00</time>
      </trkpt>
      <trkpt lat="0" lon="0">
        <time>2021-02-28T10:23:54.686000+00:00</time>
      </trkpt>
      <trkpt lat="0" lon="0">
        <time>2021-02-28T10:23:54.687000+00:00</time>
      </trkpt>
      <trkpt lat="47.30685" lon="-1.39174">
        <ele>130</ele>
        <time>2021-02-28T10:23:56.571000+00:00</time>
      </trkpt>
      <trkpt lat="0" lon="0">
        <time>2021-02-28T10:23:56.579000+00:00</time>
      </trkpt>
      <trkpt lat="0" lon="0">
        <time>2021-02-28T10:23:56.586000+00:00</time>
      </trkpt>
      <trkpt lat="0" lon="0">
        <time>2021-02-28T10:23:56.589000+00:00</time>
      </trkpt>
      <trkpt lat="47.30682" lon="-1.39174">
        <ele>129</ele>
        <time>2021-02-28T10:23:57.613000+00:00</time>
      </trkpt>
      <trkpt lat="0" lon="0">
        <time>2021-02-28T10:23:57.621000+00:00</time>
      </trkpt>
      <trkpt lat="0" lon="0">
        <time>2021-02-28T10:23:57.625000+00:00</time>
      </trkpt>
      <trkpt lat="0" lon="0">
        <time>2021-02-28T10:23:57.628000+00:00</time>
      </trkpt>
      <trkpt lat="47.30679" lon="-1.39175">
        <ele>129</ele>
        <time>2021-02-28T10:23:58.643000+00:00</time>
      </trkpt>
      <trkpt lat="0" lon="0">
        <time>2021-02-28T10:23:58.654000+00:00</time>
      </trkpt>
      <trkpt lat="0" lon="0">
        <time>2021-02-28T10:23:58.659000+00:00</time>
      </trkpt>
      <trkpt lat="0" lon="0">
        <time>2021-02-28T10:23:58.662000+00:00</time>
      </trkpt>
      <trkpt lat="47.30677" lon="-1.39177">
        <ele>129</ele>
        <time>2021-02-28T10:23:59.641000+00:00</time>
      </trkpt>
      <trkpt lat="0" lon="0">
        <time>2021-02-28T10:23:59.652000+00:00</time>
      </trkpt>
      <trkpt lat="0" lon="0">
        <time>2021-02-28T10:23:59.658000+00:00</time>
      </trkpt>
      <trkpt lat="0" lon="0">
        <time>2021-02-28T10:23:59.660000+00:00</time>
      </trkpt>
      <trkpt lat="47.30673" lon="-1.39179">
        <ele>130</ele>
        <time>2021-02-28T10:24:00.656000+00:00</time>
      </trkpt>
      <trkpt lat="0" lon="0">
        <time>2021-02-28T10:24:00.663000+00:00</time>
      </trkpt>
      <trkpt lat="0" lon="0">
        <time>2021-02-28T10:24:00.669000+00:00</time>
      </trkpt>
      <trkpt lat="0" lon="0">
        <time>2021-02-28T10:24:00.671000+00:00</time>
      </trkpt>
      <trkpt lat="47.3067" lon="-1.39181">
        <ele>130</ele>
        <time>2021-02-28T10:24:01.630000+00:00</time>
      </trkpt>
      <trkpt lat="0" lon="0">
        <time>2021-02-28T10:24:01.637000+00:00</time>
      </trkpt>
      <trkpt lat="0" lon="0">
        <time>2021-02-28T10:24:01.644000+00:00</time>
      </trkpt>
      <trkpt lat="0" lon="0">
        <time>2021-02-28T10:24:01.647000+00:00</time>
      </trkpt>
      <trkpt lat="47.30667" lon="-1.39184">
        <ele>129</ele>
        <time>2021-02-28T10:24:02.620000+00:00</time>
      </trkpt>
      <trkpt lat="0" lon="0">
        <time>2021-02-28T10:24:02.633000+00:00</time>
      </trkpt>
      <trkpt lat="0" lon="0">
        <time>2021-02-28T10:24:02.641000+00:00</time>
      </trkpt>
      <trkpt lat="0" lon="0">
        <time>2021-02-28T10:24:02.649000+00:00</time>
      </trkpt>
      <trkpt lat="47.30663" lon="-1.39187">
        <ele>129</ele>
        <time>2021-02-28T10:24:03.655000+00:00</time>
      </trkpt>
      <trkpt lat="0" lon="0">
        <time>2021-02-28T10:24:03.665000+00:00</time>
      </trkpt>
      <trkpt lat="0" lon="0">
        <time>2021-02-28T10:24:03.671000+00:00</time>
      </trkpt>
      <trkpt lat="0" lon="0">
        <time>2021-02-28T10:24:03.675000+00:00</time>
      </trkpt>
      <trkpt lat="47.3066" lon="-1.39191">
        <ele>128</ele>
        <time>2021-02-28T10:24:04.634000+00:00</time>
      </trkpt>
      <trkpt lat="0" lon="0">
        <time>2021-02-28T10:24:04.644000+00:00</time>
      </trkpt>
      <trkpt lat="0" lon="0">
        <time>2021-02-28T10:24:04.649000+00:00</time>
      </trkpt>
      <trkpt lat="0" lon="0">
        <time>2021-02-28T10:24:04.652000+00:00</time>
      </trkpt>
      <trkpt lat="47.30656" lon="-1.39194">
        <ele>128</ele>
        <time>2021-02-28T10:24:05.571000+00:00</time>
      </trkpt>
      <trkpt lat="0" lon="0">
        <time>2021-02-28T10:24:05.579000+00:00</time>
      </trkpt>
      <trkpt lat="0" lon="0">
        <time>2021-02-28T10:24:05.583000+00:00</time>
      </trkpt>
      <trkpt lat="0" lon="0">
        <time>2021-02-28T10:24:05.585000+00:00</time>
      </trkpt>
      <trkpt lat="47.30653" lon="-1.39198">
        <ele>128</ele>
        <time>2021-02-28T10:24:06.537000+00:00</time>
      </trkpt>
      <trkpt lat="0" lon="0">
        <time>2021-02-28T10:24:06.539000+00:00</time>
      </trkpt>
      <trkpt lat="0" lon="0">
        <time>2021-02-28T10:24:06.541000+00:00</time>
      </trkpt>
      <trkpt lat="0" lon="0">
        <time>2021-02-28T10:24:06.543000+00:00</time>
      </trkpt>
      <trkpt lat="47.3065" lon="-1.39201">
        <ele>128</ele>
        <time>2021-02-28T10:24:07.641000+00:00</time>
      </trkpt>
      <trkpt lat="0" lon="0">
        <time>2021-02-28T10:24:07.647000+00:00</time>
      </trkpt>
      <trkpt lat="0" lon="0">
        <time>2021-02-28T10:24:07.653000+00:00</time>
      </trkpt>
      <trkpt lat="0" lon="0">
        <time>2021-02-28T10:24:07.656000+00:00</time>
      </trkpt>
      <trkpt lat="47.30647" lon="-1.39204">
        <ele>127</ele>
        <time>2021-02-28T10:24:08.665000+00:00</time>
      </trkpt>
      <trkpt lat="0" lon="0">
        <time>2021-02-28T10:24:08.672000+00:00</time>
      </trkpt>
      <trkpt lat="0" lon="0">
        <time>2021-02-28T10:24:08.678000+00:00</time>
      </trkpt>
      <trkpt lat="0" lon="0">
        <time>2021-02-28T10:24:08.681000+00:00</time>
      </trkpt>
      <trkpt lat="47.30644" lon="-1.39205">
        <ele>127</ele>
        <time>2021-02-28T10:24:09.667000+00:00</time>
      </trkpt>
      <trkpt lat="0" lon="0">
        <time>2021-02-28T10:24:09.679000+00:00</time>
      </trkpt>
      <trkpt lat="0" lon="0">
        <time>2021-02-28T10:24:09.687000+00:00</time>
      </trkpt>
      <trkpt lat="0" lon="0">
        <time>2021-02-28T10:24:09.690000+00:00</time>
      </trkpt>
      <trkpt lat="47.30641" lon="-1.39206">
        <ele>127</ele>
        <time>2021-02-28T10:24:10.610000+00:00</time>
      </trkpt>
      <trkpt lat="0" lon="0">
        <time>2021-02-28T10:24:10.618000+00:00</time>
      </trkpt>
      <trkpt lat="0" lon="0">
        <time>2021-02-28T10:24:10.622000+00:00</time>
      </trkpt>
      <trkpt lat="0" lon="0">
        <time>2021-02-28T10:24:10.625000+00:00</time>
      </trkpt>
      <trkpt lat="47.30638" lon="-1.39205">
        <ele>127</ele>
        <time>2021-02-28T10:24:11.634000+00:00</time>
      </trkpt>
      <trkpt lat="0" lon="0">
        <time>2021-02-28T10:24:11.643000+00:00</time>
      </trkpt>
      <trkpt lat="0" lon="0">
        <time>2021-02-28T10:24:11.648000+00:00</time>
      </trkpt>
      <trkpt lat="0" lon="0">
        <time>2021-02-28T10:24:11.650000+00:00</time>
      </trkpt>
      <trkpt lat="47.30636" lon="-1.39203">
        <ele>127</ele>
        <time>2021-02-28T10:24:12.578000+00:00</time>
      </trkpt>
      <trkpt lat="0" lon="0">
        <time>2021-02-28T10:24:12.584000+00:00</time>
      </trkpt>
      <trkpt lat="0" lon="0">
        <time>2021-02-28T10:24:12.589000+00:00</time>
      </trkpt>
      <trkpt lat="0" lon="0">
        <time>2021-02-28T10:24:12.591000+00:00</time>
      </trkpt>
      <trkpt lat="47.30634" lon="-1.39199">
        <ele>127</ele>
        <time>2021-02-28T10:24:13.630000+00:00</time>
      </trkpt>
      <trkpt lat="0" lon="0">
        <time>2021-02-28T10:24:13.638000+00:00</time>
      </trkpt>
      <trkpt lat="0" lon="0">
        <time>2021-02-28T10:24:13.643000+00:00</time>
      </trkpt>
      <trkpt lat="0" lon="0">
        <time>2021-02-28T10:24:13.646000+00:00</time>
      </trkpt>
      <trkpt lat="47.30632" lon="-1.39193">
        <ele>126</ele>
        <time>2021-02-28T10:24:14.566000+00:00</time>
      </trkpt>
      <trkpt lat="0" lon="0">
        <time>2021-02-28T10:24:14.570000+00:00</time>
      </trkpt>
      <trkpt lat="0" lon="0">
        <time>2021-02-28T10:24:14.573000+00:00</time>
      </trkpt>
      <trkpt lat="0" lon="0">
        <time>2021-02-28T10:24:14.574000+00:00</time>
      </trkpt>
      <trkpt lat="47.3063" lon="-1.39187">
        <ele>126</ele>
        <time>2021-02-28T10:24:15.620000+00:00</time>
      </trkpt>
      <trkpt lat="0" lon="0">
        <time>2021-02-28T10:24:15.629000+00:00</time>
      </trkpt>
      <trkpt lat="0" lon="0">
        <time>2021-02-28T10:24:15.635000+00:00</time>
      </trkpt>
      <trkpt lat="0" lon="0">
        <time>2021-02-28T10:24:15.637000+00:00</time>
      </trkpt>
      <trkpt lat="47.30629" lon="-1.39181">
        <ele>126</ele>
        <time>2021-02-28T10:24:16.650000+00:00</time>
      </trkpt>
      <trkpt lat="0" lon="0">
        <time>2021-02-28T10:24:16.658000+00:00</time>
      </trkpt>
      <trkpt lat="0" lon="0">
        <time>2021-02-28T10:24:16.663000+00:00</time>
      </trkpt>
      <trkpt lat="0" lon="0">
        <time>2021-02-28T10:24:16.666000+00:00</time>
      </trkpt>
      <trkpt lat="47.30627" lon="-1.39173">
        <ele>126</ele>
        <time>2021-02-28T10:24:17.587000+00:00</time>
      </trkpt>
      <trkpt lat="0" lon="0">
        <time>2021-02-28T10:24:17.597000+00:00</time>
      </trkpt>
      <trkpt lat="0" lon="0">
        <time>2021-02-28T10:24:17.603000+00:00</time>
      </trkpt>
      <trkpt lat="0" lon="0">
        <time>2021-02-28T10:24:17.605000+00:00</time>
      </trkpt>
      <trkpt lat="47.30626" lon="-1.39166">
        <ele>125</ele>
        <time>2021-02-28T10:24:18.644000+00:00</time>
      </trkpt>
      <trkpt lat="0" lon="0">
        <time>2021-02-28T10:24:18.654000+00:00</time>
      </trkpt>
      <trkpt lat="0" lon="0">
        <time>2021-02-28T10:24:18.659000+00:00</time>
      </trkpt>
      <trkpt lat="0" lon="0">
        <time>2021-02-28T10:24:18.662000+00:00</time>
      </trkpt>
      <trkpt lat="47.30625" lon="-1.39158">
        <ele>125</ele>
        <time>2021-02-28T10:24:19.600000+00:00</time>
      </trkpt>
      <trkpt lat="0" lon="0">
        <time>2021-02-28T10:24:19.605000+00:00</time>
      </trkpt>
      <trkpt lat="0" lon="0">
        <time>2021-02-28T10:24:19.609000+00:00</time>
      </trkpt>
      <trkpt lat="0" lon="0">
        <time>2021-02-28T10:24:19.611000+00:00</time>
      </trkpt>
      <trkpt lat="47.30623" lon="-1.3915">
        <ele>125</ele>
        <time>2021-02-28T10:24:20.616000+00:00</time>
      </trkpt>
      <trkpt lat="0" lon="0">
        <time>2021-02-28T10:24:20.630000+00:00</time>
      </trkpt>
      <trkpt lat="0" lon="0">
        <time>2021-02-28T10:24:20.634000+00:00</time>
      </trkpt>
      <trkpt lat="0" lon="0">
        <time>2021-02-28T10:24:20.637000+00:00</time>
      </trkpt>
      <trkpt lat="47.30622" lon="-1.39142">
        <ele>124</ele>
        <time>2021-02-28T10:24:21.654000+00:00</time>
      </trkpt>
      <trkpt lat="0" lon="0">
        <time>2021-02-28T10:24:21.660000+00:00</time>
      </trkpt>
      <trkpt lat="0" lon="0">
        <time>2021-02-28T10:24:21.666000+00:00</time>
      </trkpt>
      <trkpt lat="0" lon="0">
        <time>2021-02-28T10:24:21.669000+00:00</time>
      </trkpt>
      <trkpt lat="47.3062" lon="-1.39134">
        <ele>124</ele>
        <time>2021-02-28T10:24:22.610000+00:00</time>
      </trkpt>
      <trkpt lat="0" lon="0">
        <time>2021-02-28T10:24:22.618000+00:00</time>
      </trkpt>
      <trkpt lat="0" lon="0">
        <time>2021-02-28T10:24:22.622000+00:00</time>
      </trkpt>
      <trkpt lat="0" lon="0">
        <time>2021-02-28T10:24:22.625000+00:00</time>
      </trkpt>
      <trkpt lat="47.30618" lon="-1.39126">
        <ele>124</ele>
        <time>2021-02-28T10:24:23.616000+00:00</time>
      </trkpt>
      <trkpt lat="0" lon="0">
        <time>2021-02-28T10:24:23.623000+00:00</time>
      </trkpt>
      <trkpt lat="0" lon="0">
        <time>2021-02-28T10:24:23.627000+00:00</time>
      </trkpt>
      <trkpt lat="0" lon="0">
        <time>2021-02-28T10:24:23.630000+00:00</time>
      </trkpt>
      <trkpt lat="47.30615" lon="-1.39118">
        <ele>123</ele>
        <time>2021-02-28T10:24:24.649000+00:00</time>
      </trkpt>
      <trkpt lat="0" lon="0">
        <time>2021-02-28T10:24:24.662000+00:00</time>
      </trkpt>
      <trkpt lat="0" lon="0">
        <time>2021-02-28T10:24:24.671000+00:00</time>
      </trkpt>
      <trkpt lat="0" lon="0">
        <time>2021-02-28T10:24:24.675000+00:00</time>
      </trkpt>
      <trkpt lat="47.30613" lon="-1.3911">
        <ele>122</ele>
        <time>2021-02-28T10:24:25.651000+00:00</time>
      </trkpt>
      <trkpt lat="0" lon="0">
        <time>2021-02-28T10:24:25.666000+00:00</time>
      </trkpt>
      <trkpt lat="0" lon="0">
        <time>2021-02-28T10:24:25.671000+00:00</time>
      </trkpt>
      <trkpt lat="0" lon="0">
        <time>2021-02-28T10:24:25.674000+00:00</time>
      </trkpt>
      <trkpt lat="47.30611" lon="-1.39102">
        <ele>122</ele>
        <time>2021-02-28T10:24:26.660000+00:00</time>
      </trkpt>
      <trkpt lat="0" lon="0">
        <time>2021-02-28T10:24:26.674000+00:00</time>
      </trkpt>
      <trkpt lat="0" lon="0">
        <time>2021-02-28T10:24:26.679000+00:00</time>
      </trkpt>
      <trkpt lat="0" lon="0">
        <time>2021-02-28T10:24:26.683000+00:00</time>
      </trkpt>
      <trkpt lat="47.30608" lon="-1.39094">
        <ele>121</ele>
        <time>2021-02-28T10:24:27.632000+00:00</time>
      </trkpt>
      <trkpt lat="0" lon="0">
        <time>2021-02-28T10:24:27.639000+00:00</time>
      </trkpt>
      <trkpt lat="0" lon="0">
        <time>2021-02-28T10:24:27.643000+00:00</time>
      </trkpt>
      <trkpt lat="0" lon="0">
        <time>2021-02-28T10:24:27.646000+00:00</time>
      </trkpt>
      <trkpt lat="47.30605" lon="-1.39087">
        <ele>121</ele>
        <time>2021-02-28T10:24:28.617000+00:00</time>
      </trkpt>
      <trkpt lat="0" lon="0">
        <time>2021-02-28T10:24:28.622000+00:00</time>
      </trkpt>
      <trkpt lat="0" lon="0">
        <time>2021-02-28T10:24:28.626000+00:00</time>
      </trkpt>
      <trkpt lat="0" lon="0">
        <time>2021-02-28T10:24:28.628000+00:00</time>
      </trkpt>
      <trkpt lat="47.30603" lon="-1.3908">
        <ele>121</ele>
        <time>2021-02-28T10:24:29.625000+00:00</time>
      </trkpt>
      <trkpt lat="0" lon="0">
        <time>2021-02-28T10:24:29.632000+00:00</time>
      </trkpt>
      <trkpt lat="0" lon="0">
        <time>2021-02-28T10:24:29.638000+00:00</time>
      </trkpt>
      <trkpt lat="0" lon="0">
        <time>2021-02-28T10:24:29.641000+00:00</time>
      </trkpt>
      <trkpt lat="47.306" lon="-1.39072">
        <ele>121</ele>
        <time>2021-02-28T10:24:30.647000+00:00</time>
      </trkpt>
      <trkpt lat="0" lon="0">
        <time>2021-02-28T10:24:30.649000+00:00</time>
      </trkpt>
      <trkpt lat="0" lon="0">
        <time>2021-02-28T10:24:30.651000+00:00</time>
      </trkpt>
      <trkpt lat="0" lon="0">
        <time>2021-02-28T10:24:30.652000+00:00</time>
      </trkpt>
      <trkpt lat="47.30597" lon="-1.39065">
        <ele>120</ele>
        <time>2021-02-28T10:24:31.629000+00:00</time>
      </trkpt>
      <trkpt lat="0" lon="0">
        <time>2021-02-28T10:24:31.644000+00:00</time>
      </trkpt>
      <trkpt lat="0" lon="0">
        <time>2021-02-28T10:24:31.650000+00:00</time>
      </trkpt>
      <trkpt lat="0" lon="0">
        <time>2021-02-28T10:24:31.655000+00:00</time>
      </trkpt>
      <trkpt lat="47.30594" lon="-1.39058">
        <ele>120</ele>
        <time>2021-02-28T10:24:32.630000+00:00</time>
      </trkpt>
      <trkpt lat="0" lon="0">
        <time>2021-02-28T10:24:32.642000+00:00</time>
      </trkpt>
      <trkpt lat="0" lon="0">
        <time>2021-02-28T10:24:32.646000+00:00</time>
      </trkpt>
      <trkpt lat="0" lon="0">
        <time>2021-02-28T10:24:32.651000+00:00</time>
      </trkpt>
      <trkpt lat="47.30591" lon="-1.39051">
        <ele>120</ele>
        <time>2021-02-28T10:24:33.606000+00:00</time>
      </trkpt>
      <trkpt lat="0" lon="0">
        <time>2021-02-28T10:24:33.617000+00:00</time>
      </trkpt>
      <trkpt lat="0" lon="0">
        <time>2021-02-28T10:24:33.622000+00:00</time>
      </trkpt>
      <trkpt lat="0" lon="0">
        <time>2021-02-28T10:24:33.623000+00:00</time>
      </trkpt>
      <trkpt lat="47.30588" lon="-1.39044">
        <ele>120</ele>
        <time>2021-02-28T10:24:34.611000+00:00</time>
      </trkpt>
      <trkpt lat="0" lon="0">
        <time>2021-02-28T10:24:34.619000+00:00</time>
      </trkpt>
      <trkpt lat="0" lon="0">
        <time>2021-02-28T10:24:34.621000+00:00</time>
      </trkpt>
      <trkpt lat="0" lon="0">
        <time>2021-02-28T10:24:34.623000+00:00</time>
      </trkpt>
      <trkpt lat="47.30584" lon="-1.39037">
        <ele>120</ele>
        <time>2021-02-28T10:24:35.535000+00:00</time>
      </trkpt>
      <trkpt lat="0" lon="0">
        <time>2021-02-28T10:24:35.541000+00:00</time>
      </trkpt>
      <trkpt lat="0" lon="0">
        <time>2021-02-28T10:24:35.548000+00:00</time>
      </trkpt>
      <trkpt lat="0" lon="0">
        <time>2021-02-28T10:24:35.550000+00:00</time>
      </trkpt>
      <trkpt lat="47.30581" lon="-1.3903">
        <ele>120</ele>
        <time>2021-02-28T10:24:36.604000+00:00</time>
      </trkpt>
      <trkpt lat="0" lon="0">
        <time>2021-02-28T10:24:36.607000+00:00</time>
      </trkpt>
      <trkpt lat="0" lon="0">
        <time>2021-02-28T10:24:36.613000+00:00</time>
      </trkpt>
      <trkpt lat="0" lon="0">
        <time>2021-02-28T10:24:36.615000+00:00</time>
      </trkpt>
      <trkpt lat="47.30578" lon="-1.39024">
        <ele>120</ele>
        <time>2021-02-28T10:24:37.619000+00:00</time>
      </trkpt>
      <trkpt lat="0" lon="0">
        <time>2021-02-28T10:24:37.626000+00:00</time>
      </trkpt>
      <trkpt lat="0" lon="0">
        <time>2021-02-28T10:24:37.632000+00:00</time>
      </trkpt>
      <trkpt lat="0" lon="0">
        <time>2021-02-28T10:24:37.635000+00:00</time>
      </trkpt>
      <trkpt lat="47.30574" lon="-1.39017">
        <ele>120</ele>
        <time>2021-02-28T10:24:38.605000+00:00</time>
      </trkpt>
      <trkpt lat="0" lon="0">
        <time>2021-02-28T10:24:38.616000+00:00</time>
      </trkpt>
      <trkpt lat="0" lon="0">
        <time>2021-02-28T10:24:38.622000+00:00</time>
      </trkpt>
      <trkpt lat="0" lon="0">
        <time>2021-02-28T10:24:38.624000+00:00</time>
      </trkpt>
      <trkpt lat="47.30571" lon="-1.3901">
        <ele>121</ele>
        <time>2021-02-28T10:24:39.587000+00:00</time>
      </trkpt>
      <trkpt lat="0" lon="0">
        <time>2021-02-28T10:24:39.595000+00:00</time>
      </trkpt>
      <trkpt lat="0" lon="0">
        <time>2021-02-28T10:24:39.600000+00:00</time>
      </trkpt>
      <trkpt lat="0" lon="0">
        <time>2021-02-28T10:24:39.603000+00:00</time>
      </trkpt>
      <trkpt lat="47.30567" lon="-1.39004">
        <ele>120</ele>
        <time>2021-02-28T10:24:40.607000+00:00</time>
      </trkpt>
      <trkpt lat="0" lon="0">
        <time>2021-02-28T10:24:40.622000+00:00</time>
      </trkpt>
      <trkpt lat="0" lon="0">
        <time>2021-02-28T10:24:40.625000+00:00</time>
      </trkpt>
      <trkpt lat="0" lon="0">
        <time>2021-02-28T10:24:40.628000+00:00</time>
      </trkpt>
      <trkpt lat="47.30564" lon="-1.38997">
        <ele>120</ele>
        <time>2021-02-28T10:24:41.610000+00:00</time>
      </trkpt>
      <trkpt lat="0" lon="0">
        <time>2021-02-28T10:24:41.617000+00:00</time>
      </trkpt>
      <trkpt lat="0" lon="0">
        <time>2021-02-28T10:24:41.623000+00:00</time>
      </trkpt>
      <trkpt lat="0" lon="0">
        <time>2021-02-28T10:24:41.625000+00:00</time>
      </trkpt>
      <trkpt lat="47.3056" lon="-1.3899">
        <ele>120</ele>
        <time>2021-02-28T10:24:42.618000+00:00</time>
      </trkpt>
      <trkpt lat="0" lon="0">
        <time>2021-02-28T10:24:42.627000+00:00</time>
      </trkpt>
      <trkpt lat="0" lon="0">
        <time>2021-02-28T10:24:42.633000+00:00</time>
      </trkpt>
      <trkpt lat="0" lon="0">
        <time>2021-02-28T10:24:42.636000+00:00</time>
      </trkpt>
      <trkpt lat="47.30557" lon="-1.38983">
        <ele>120</ele>
        <time>2021-02-28T10:24:43.681000+00:00</time>
      </trkpt>
      <trkpt lat="0" lon="0">
        <time>2021-02-28T10:24:43.694000+00:00</time>
      </trkpt>
      <trkpt lat="0" lon="0">
        <time>2021-02-28T10:24:43.701000+00:00</time>
      </trkpt>
      <trkpt lat="0" lon="0">
        <time>2021-02-28T10:24:43.704000+00:00</time>
      </trkpt>
      <trkpt lat="47.30553" lon="-1.38976">
        <ele>120</ele>
        <time>2021-02-28T10:24:44.580000+00:00</time>
      </trkpt>
      <trkpt lat="0" lon="0">
        <time>2021-02-28T10:24:44.586000+00:00</time>
      </trkpt>
      <trkpt lat="0" lon="0">
        <time>2021-02-28T10:24:44.590000+00:00</time>
      </trkpt>
      <trkpt lat="0" lon="0">
        <time>2021-02-28T10:24:44.593000+00:00</time>
      </trkpt>
      <trkpt lat="47.3055" lon="-1.38969">
        <ele>119</ele>
        <time>2021-02-28T10:24:45.623000+00:00</time>
      </trkpt>
      <trkpt lat="0" lon="0">
        <time>2021-02-28T10:24:45.628000+00:00</time>
      </trkpt>
      <trkpt lat="0" lon="0">
        <time>2021-02-28T10:24:45.633000+00:00</time>
      </trkpt>
      <trkpt lat="0" lon="0">
        <time>2021-02-28T10:24:45.637000+00:00</time>
      </trkpt>
      <trkpt lat="47.30546" lon="-1.38962">
        <ele>119</ele>
        <time>2021-02-28T10:24:46.652000+00:00</time>
      </trkpt>
      <trkpt lat="0" lon="0">
        <time>2021-02-28T10:24:46.656000+00:00</time>
      </trkpt>
      <trkpt lat="0" lon="0">
        <time>2021-02-28T10:24:46.658000+00:00</time>
      </trkpt>
      <trkpt lat="0" lon="0">
        <time>2021-02-28T10:24:46.659000+00:00</time>
      </trkpt>
      <trkpt lat="47.30543" lon="-1.38955">
        <ele>119</ele>
        <time>2021-02-28T10:24:47.559000+00:00</time>
      </trkpt>
      <trkpt lat="0" lon="0">
        <time>2021-02-28T10:24:47.569000+00:00</time>
      </trkpt>
      <trkpt lat="0" lon="0">
        <time>2021-02-28T10:24:47.573000+00:00</time>
      </trkpt>
      <trkpt lat="0" lon="0">
        <time>2021-02-28T10:24:47.575000+00:00</time>
      </trkpt>
      <trkpt lat="47.3054" lon="-1.38948">
        <ele>119</ele>
        <time>2021-02-28T10:24:48.685000+00:00</time>
      </trkpt>
      <trkpt lat="0" lon="0">
        <time>2021-02-28T10:24:48.696000+00:00</time>
      </trkpt>
      <trkpt lat="0" lon="0">
        <time>2021-02-28T10:24:48.701000+00:00</time>
      </trkpt>
      <trkpt lat="0" lon="0">
        <time>2021-02-28T10:24:48.704000+00:00</time>
      </trkpt>
      <trkpt lat="47.30536" lon="-1.38942">
        <ele>119</ele>
        <time>2021-02-28T10:24:49.606000+00:00</time>
      </trkpt>
      <trkpt lat="0" lon="0">
        <time>2021-02-28T10:24:49.614000+00:00</time>
      </trkpt>
      <trkpt lat="0" lon="0">
        <time>2021-02-28T10:24:49.619000+00:00</time>
      </trkpt>
      <trkpt lat="0" lon="0">
        <time>2021-02-28T10:24:49.622000+00:00</time>
      </trkpt>
      <trkpt lat="47.30533" lon="-1.38935">
        <ele>119</ele>
        <time>2021-02-28T10:24:50.651000+00:00</time>
      </trkpt>
      <trkpt lat="0" lon="0">
        <time>2021-02-28T10:24:50.658000+00:00</time>
      </trkpt>
      <trkpt lat="0" lon="0">
        <time>2021-02-28T10:24:50.662000+00:00</time>
      </trkpt>
      <trkpt lat="0" lon="0">
        <time>2021-02-28T10:24:50.665000+00:00</time>
      </trkpt>
      <trkpt lat="47.30529" lon="-1.38928">
        <ele>119</ele>
        <time>2021-02-28T10:24:51.643000+00:00</time>
      </trkpt>
      <trkpt lat="0" lon="0">
        <time>2021-02-28T10:24:51.650000+00:00</time>
      </trkpt>
      <trkpt lat="0" lon="0">
        <time>2021-02-28T10:24:51.655000+00:00</time>
      </trkpt>
      <trkpt lat="0" lon="0">
        <time>2021-02-28T10:24:51.658000+00:00</time>
      </trkpt>
      <trkpt lat="47.30525" lon="-1.38921">
        <ele>119</ele>
        <time>2021-02-28T10:24:52.661000+00:00</time>
      </trkpt>
      <trkpt lat="0" lon="0">
        <time>2021-02-28T10:24:52.668000+00:00</time>
      </trkpt>
      <trkpt lat="0" lon="0">
        <time>2021-02-28T10:24:52.673000+00:00</time>
      </trkpt>
      <trkpt lat="0" lon="0">
        <time>2021-02-28T10:24:52.676000+00:00</time>
      </trkpt>
      <trkpt lat="47.30522" lon="-1.38914">
        <ele>119</ele>
        <time>2021-02-28T10:24:53.665000+00:00</time>
      </trkpt>
      <trkpt lat="0" lon="0">
        <time>2021-02-28T10:24:53.672000+00:00</time>
      </trkpt>
      <trkpt lat="0" lon="0">
        <time>2021-02-28T10:24:53.677000+00:00</time>
      </trkpt>
      <trkpt lat="0" lon="0">
        <time>2021-02-28T10:24:53.680000+00:00</time>
      </trkpt>
      <trkpt lat="47.30518" lon="-1.38907">
        <ele>119</ele>
        <time>2021-02-28T10:24:54.638000+00:00</time>
      </trkpt>
      <trkpt lat="0" lon="0">
        <time>2021-02-28T10:24:54.645000+00:00</time>
      </trkpt>
      <trkpt lat="0" lon="0">
        <time>2021-02-28T10:24:54.649000+00:00</time>
      </trkpt>
      <trkpt lat="0" lon="0">
        <time>2021-02-28T10:24:54.651000+00:00</time>
      </trkpt>
      <trkpt lat="47.30514" lon="-1.389">
        <ele>119</ele>
        <time>2021-02-28T10:24:55.610000+00:00</time>
      </trkpt>
      <trkpt lat="0" lon="0">
        <time>2021-02-28T10:24:55.621000+00:00</time>
      </trkpt>
      <trkpt lat="0" lon="0">
        <time>2021-02-28T10:24:55.625000+00:00</time>
      </trkpt>
      <trkpt lat="0" lon="0">
        <time>2021-02-28T10:24:55.628000+00:00</time>
      </trkpt>
      <trkpt lat="47.30511" lon="-1.38893">
        <ele>120</ele>
        <time>2021-02-28T10:24:56.641000+00:00</time>
      </trkpt>
      <trkpt lat="0" lon="0">
        <time>2021-02-28T10:24:56.646000+00:00</time>
      </trkpt>
      <trkpt lat="0" lon="0">
        <time>2021-02-28T10:24:56.651000+00:00</time>
      </trkpt>
      <trkpt lat="0" lon="0">
        <time>2021-02-28T10:24:56.653000+00:00</time>
      </trkpt>
      <trkpt lat="47.30507" lon="-1.38886">
        <ele>120</ele>
        <time>2021-02-28T10:24:57.640000+00:00</time>
      </trkpt>
      <trkpt lat="0" lon="0">
        <time>2021-02-28T10:24:57.661000+00:00</time>
      </trkpt>
      <trkpt lat="0" lon="0">
        <time>2021-02-28T10:24:57.666000+00:00</time>
      </trkpt>
      <trkpt lat="0" lon="0">
        <time>2021-02-28T10:24:57.668000+00:00</time>
      </trkpt>
      <trkpt lat="47.30504" lon="-1.38879">
        <ele>119</ele>
        <time>2021-02-28T10:24:58.627000+00:00</time>
      </trkpt>
      <trkpt lat="0" lon="0">
        <time>2021-02-28T10:24:58.640000+00:00</time>
      </trkpt>
      <trkpt lat="0" lon="0">
        <time>2021-02-28T10:24:58.649000+00:00</time>
      </trkpt>
      <trkpt lat="0" lon="0">
        <time>2021-02-28T10:24:58.655000+00:00</time>
      </trkpt>
      <trkpt lat="47.30501" lon="-1.38872">
        <ele>119</ele>
        <time>2021-02-28T10:24:59.657000+00:00</time>
      </trkpt>
      <trkpt lat="0" lon="0">
        <time>2021-02-28T10:24:59.668000+00:00</time>
      </trkpt>
      <trkpt lat="0" lon="0">
        <time>2021-02-28T10:24:59.674000+00:00</time>
      </trkpt>
      <trkpt lat="0" lon="0">
        <time>2021-02-28T10:24:59.676000+00:00</time>
      </trkpt>
      <trkpt lat="47.30498" lon="-1.38864">
        <ele>119</ele>
        <time>2021-02-28T10:25:00.666000+00:00</time>
      </trkpt>
      <trkpt lat="0" lon="0">
        <time>2021-02-28T10:25:00.671000+00:00</time>
      </trkpt>
      <trkpt lat="0" lon="0">
        <time>2021-02-28T10:25:00.675000+00:00</time>
      </trkpt>
      <trkpt lat="0" lon="0">
        <time>2021-02-28T10:25:00.679000+00:00</time>
      </trkpt>
      <trkpt lat="47.30494" lon="-1.38857">
        <ele>119</ele>
        <time>2021-02-28T10:25:01.642000+00:00</time>
      </trkpt>
      <trkpt lat="0" lon="0">
        <time>2021-02-28T10:25:01.650000+00:00</time>
      </trkpt>
      <trkpt lat="0" lon="0">
        <time>2021-02-28T10:25:01.658000+00:00</time>
      </trkpt>
      <trkpt lat="0" lon="0">
        <time>2021-02-28T10:25:01.661000+00:00</time>
      </trkpt>
      <trkpt lat="47.3049" lon="-1.38851">
        <ele>119</ele>
        <time>2021-02-28T10:25:02.619000+00:00</time>
      </trkpt>
      <trkpt lat="0" lon="0">
        <time>2021-02-28T10:25:02.624000+00:00</time>
      </trkpt>
      <trkpt lat="0" lon="0">
        <time>2021-02-28T10:25:02.629000+00:00</time>
      </trkpt>
      <trkpt lat="0" lon="0">
        <time>2021-02-28T10:25:02.631000+00:00</time>
      </trkpt>
      <trkpt lat="47.30486" lon="-1.38847">
        <ele>119</ele>
        <time>2021-02-28T10:25:03.516000+00:00</time>
      </trkpt>
      <trkpt lat="0" lon="0">
        <time>2021-02-28T10:25:03.520000+00:00</time>
      </trkpt>
      <trkpt lat="0" lon="0">
        <time>2021-02-28T10:25:03.522000+00:00</time>
      </trkpt>
      <trkpt lat="0" lon="0">
        <time>2021-02-28T10:25:03.523000+00:00</time>
      </trkpt>
      <trkpt lat="47.30481" lon="-1.38844">
        <ele>119</ele>
        <time>2021-02-28T10:25:04.648000+00:00</time>
      </trkpt>
      <trkpt lat="0" lon="0">
        <time>2021-02-28T10:25:04.657000+00:00</time>
      </trkpt>
      <trkpt lat="0" lon="0">
        <time>2021-02-28T10:25:04.663000+00:00</time>
      </trkpt>
      <trkpt lat="0" lon="0">
        <time>2021-02-28T10:25:04.665000+00:00</time>
      </trkpt>
      <trkpt lat="47.30476" lon="-1.38843">
        <ele>119</ele>
        <time>2021-02-28T10:25:05.587000+00:00</time>
      </trkpt>
      <trkpt lat="0" lon="0">
        <time>2021-02-28T10:25:05.594000+00:00</time>
      </trkpt>
      <trkpt lat="0" lon="0">
        <time>2021-02-28T10:25:05.599000+00:00</time>
      </trkpt>
      <trkpt lat="0" lon="0">
        <time>2021-02-28T10:25:05.601000+00:00</time>
      </trkpt>
      <trkpt lat="47.3047" lon="-1.38844">
        <ele>119</ele>
        <time>2021-02-28T10:25:06.633000+00:00</time>
      </trkpt>
      <trkpt lat="0" lon="0">
        <time>2021-02-28T10:25:06.639000+00:00</time>
      </trkpt>
      <trkpt lat="0" lon="0">
        <time>2021-02-28T10:25:06.644000+00:00</time>
      </trkpt>
      <trkpt lat="0" lon="0">
        <time>2021-02-28T10:25:06.647000+00:00</time>
      </trkpt>
      <trkpt lat="47.30464" lon="-1.38846">
        <ele>119</ele>
        <time>2021-02-28T10:25:07.654000+00:00</time>
      </trkpt>
      <trkpt lat="0" lon="0">
        <time>2021-02-28T10:25:07.668000+00:00</time>
      </trkpt>
      <trkpt lat="0" lon="0">
        <time>2021-02-28T10:25:07.681000+00:00</time>
      </trkpt>
      <trkpt lat="0" lon="0">
        <time>2021-02-28T10:25:07.683000+00:00</time>
      </trkpt>
      <trkpt lat="47.30458" lon="-1.38849">
        <ele>119</ele>
        <time>2021-02-28T10:25:08.621000+00:00</time>
      </trkpt>
      <trkpt lat="0" lon="0">
        <time>2021-02-28T10:25:08.629000+00:00</time>
      </trkpt>
      <trkpt lat="0" lon="0">
        <time>2021-02-28T10:25:08.637000+00:00</time>
      </trkpt>
      <trkpt lat="0" lon="0">
        <time>2021-02-28T10:25:08.640000+00:00</time>
      </trkpt>
      <trkpt lat="47.30451" lon="-1.38854">
        <ele>119</ele>
        <time>2021-02-28T10:25:09.635000+00:00</time>
      </trkpt>
      <trkpt lat="0" lon="0">
        <time>2021-02-28T10:25:09.643000+00:00</time>
      </trkpt>
      <trkpt lat="0" lon="0">
        <time>2021-02-28T10:25:09.648000+00:00</time>
      </trkpt>
      <trkpt lat="0" lon="0">
        <time>2021-02-28T10:25:09.651000+00:00</time>
      </trkpt>
      <trkpt lat="47.30445" lon="-1.3886">
        <ele>119</ele>
        <time>2021-02-28T10:25:10.669000+00:00</time>
      </trkpt>
      <trkpt lat="0" lon="0">
        <time>2021-02-28T10:25:10.676000+00:00</time>
      </trkpt>
      <trkpt lat="0" lon="0">
        <time>2021-02-28T10:25:10.682000+00:00</time>
      </trkpt>
      <trkpt lat="0" lon="0">
        <time>2021-02-28T10:25:10.685000+00:00</time>
      </trkpt>
      <trkpt lat="47.30438" lon="-1.38866">
        <ele>119</ele>
        <time>2021-02-28T10:25:11.550000+00:00</time>
      </trkpt>
      <trkpt lat="0" lon="0">
        <time>2021-02-28T10:25:11.556000+00:00</time>
      </trkpt>
      <trkpt lat="0" lon="0">
        <time>2021-02-28T10:25:11.560000+00:00</time>
      </trkpt>
      <trkpt lat="0" lon="0">
        <time>2021-02-28T10:25:11.561000+00:00</time>
      </trkpt>
      <trkpt lat="47.30431" lon="-1.38873">
        <ele>119</ele>
        <time>2021-02-28T10:25:12.679000+00:00</time>
      </trkpt>
      <trkpt lat="0" lon="0">
        <time>2021-02-28T10:25:12.684000+00:00</time>
      </trkpt>
      <trkpt lat="0" lon="0">
        <time>2021-02-28T10:25:12.688000+00:00</time>
      </trkpt>
      <trkpt lat="0" lon="0">
        <time>2021-02-28T10:25:12.691000+00:00</time>
      </trkpt>
      <trkpt lat="47.30425" lon="-1.38881">
        <ele>120</ele>
        <time>2021-02-28T10:25:13.634000+00:00</time>
      </trkpt>
      <trkpt lat="0" lon="0">
        <time>2021-02-28T10:25:13.639000+00:00</time>
      </trkpt>
      <trkpt lat="0" lon="0">
        <time>2021-02-28T10:25:13.645000+00:00</time>
      </trkpt>
      <trkpt lat="0" lon="0">
        <time>2021-02-28T10:25:13.647000+00:00</time>
      </trkpt>
      <trkpt lat="47.30419" lon="-1.3889">
        <ele>120</ele>
        <time>2021-02-28T10:25:14.625000+00:00</time>
      </trkpt>
      <trkpt lat="0" lon="0">
        <time>2021-02-28T10:25:14.631000+00:00</time>
      </trkpt>
      <trkpt lat="0" lon="0">
        <time>2021-02-28T10:25:14.633000+00:00</time>
      </trkpt>
      <trkpt lat="0" lon="0">
        <time>2021-02-28T10:25:14.635000+00:00</time>
      </trkpt>
      <trkpt lat="47.30414" lon="-1.38899">
        <ele>120</ele>
        <time>2021-02-28T10:25:15.645000+00:00</time>
      </trkpt>
      <trkpt lat="0" lon="0">
        <time>2021-02-28T10:25:15.649000+00:00</time>
      </trkpt>
      <trkpt lat="0" lon="0">
        <time>2021-02-28T10:25:15.654000+00:00</time>
      </trkpt>
      <trkpt lat="0" lon="0">
        <time>2021-02-28T10:25:15.656000+00:00</time>
      </trkpt>
      <trkpt lat="47.30408" lon="-1.38908">
        <ele>120</ele>
        <time>2021-02-28T10:25:16.648000+00:00</time>
      </trkpt>
      <trkpt lat="0" lon="0">
        <time>2021-02-28T10:25:16.660000+00:00</time>
      </trkpt>
      <trkpt lat="0" lon="0">
        <time>2021-02-28T10:25:16.667000+00:00</time>
      </trkpt>
      <trkpt lat="0" lon="0">
        <time>2021-02-28T10:25:16.670000+00:00</time>
      </trkpt>
      <trkpt lat="47.30403" lon="-1.38918">
        <ele>120</ele>
        <time>2021-02-28T10:25:17.640000+00:00</time>
      </trkpt>
      <trkpt lat="0" lon="0">
        <time>2021-02-28T10:25:17.650000+00:00</time>
      </trkpt>
      <trkpt lat="0" lon="0">
        <time>2021-02-28T10:25:17.655000+00:00</time>
      </trkpt>
      <trkpt lat="0" lon="0">
        <time>2021-02-28T10:25:17.657000+00:00</time>
      </trkpt>
      <trkpt lat="47.30398" lon="-1.38929">
        <ele>120</ele>
        <time>2021-02-28T10:25:18.537000+00:00</time>
      </trkpt>
      <trkpt lat="0" lon="0">
        <time>2021-02-28T10:25:18.539000+00:00</time>
      </trkpt>
      <trkpt lat="0" lon="0">
        <time>2021-02-28T10:25:18.541000+00:00</time>
      </trkpt>
      <trkpt lat="0" lon="0">
        <time>2021-02-28T10:25:18.542000+00:00</time>
      </trkpt>
      <trkpt lat="47.30394" lon="-1.38939">
        <ele>119</ele>
        <time>2021-02-28T10:25:19.626000+00:00</time>
      </trkpt>
      <trkpt lat="0" lon="0">
        <time>2021-02-28T10:25:19.631000+00:00</time>
      </trkpt>
      <trkpt lat="0" lon="0">
        <time>2021-02-28T10:25:19.634000+00:00</time>
      </trkpt>
      <trkpt lat="0" lon="0">
        <time>2021-02-28T10:25:19.635000+00:00</time>
      </trkpt>
      <trkpt lat="47.30389" lon="-1.38949">
        <ele>119</ele>
        <time>2021-02-28T10:25:20.671000+00:00</time>
      </trkpt>
      <trkpt lat="0" lon="0">
        <time>2021-02-28T10:25:20.673000+00:00</time>
      </trkpt>
      <trkpt lat="0" lon="0">
        <time>2021-02-28T10:25:20.676000+00:00</time>
      </trkpt>
      <trkpt lat="0" lon="0">
        <time>2021-02-28T10:25:20.677000+00:00</time>
      </trkpt>
      <trkpt lat="47.30386" lon="-1.38958">
        <ele>119</ele>
        <time>2021-02-28T10:25:21.646000+00:00</time>
      </trkpt>
      <trkpt lat="0" lon="0">
        <time>2021-02-28T10:25:21.655000+00:00</time>
      </trkpt>
      <trkpt lat="0" lon="0">
        <time>2021-02-28T10:25:21.660000+00:00</time>
      </trkpt>
      <trkpt lat="0" lon="0">
        <time>2021-02-28T10:25:21.662000+00:00</time>
      </trkpt>
      <trkpt lat="47.30382" lon="-1.38966">
        <ele>119</ele>
        <time>2021-02-28T10:25:22.602000+00:00</time>
      </trkpt>
      <trkpt lat="0" lon="0">
        <time>2021-02-28T10:25:22.611000+00:00</time>
      </trkpt>
      <trkpt lat="0" lon="0">
        <time>2021-02-28T10:25:22.615000+00:00</time>
      </trkpt>
      <trkpt lat="0" lon="0">
        <time>2021-02-28T10:25:22.618000+00:00</time>
      </trkpt>
      <trkpt lat="47.3038" lon="-1.38973">
        <ele>118</ele>
        <time>2021-02-28T10:25:23.648000+00:00</time>
      </trkpt>
      <trkpt lat="0" lon="0">
        <time>2021-02-28T10:25:23.657000+00:00</time>
      </trkpt>
      <trkpt lat="0" lon="0">
        <time>2021-02-28T10:25:23.663000+00:00</time>
      </trkpt>
      <trkpt lat="0" lon="0">
        <time>2021-02-28T10:25:23.666000+00:00</time>
      </trkpt>
      <trkpt lat="47.30377" lon="-1.38979">
        <ele>118</ele>
        <time>2021-02-28T10:25:24.638000+00:00</time>
      </trkpt>
      <trkpt lat="0" lon="0">
        <time>2021-02-28T10:25:24.643000+00:00</time>
      </trkpt>
      <trkpt lat="0" lon="0">
        <time>2021-02-28T10:25:24.648000+00:00</time>
      </trkpt>
      <trkpt lat="0" lon="0">
        <time>2021-02-28T10:25:24.650000+00:00</time>
      </trkpt>
      <trkpt lat="47.30375" lon="-1.38983">
        <ele>118</ele>
        <time>2021-02-28T10:25:25.654000+00:00</time>
      </trkpt>
      <trkpt lat="0" lon="0">
        <time>2021-02-28T10:25:25.667000+00:00</time>
      </trkpt>
      <trkpt lat="0" lon="0">
        <time>2021-02-28T10:25:25.670000+00:00</time>
      </trkpt>
      <trkpt lat="0" lon="0">
        <time>2021-02-28T10:25:25.673000+00:00</time>
      </trkpt>
      <trkpt lat="47.30374" lon="-1.38986">
        <ele>118</ele>
        <time>2021-02-28T10:25:26.633000+00:00</time>
      </trkpt>
      <trkpt lat="0" lon="0">
        <time>2021-02-28T10:25:26.639000+00:00</time>
      </trkpt>
      <trkpt lat="0" lon="0">
        <time>2021-02-28T10:25:26.644000+00:00</time>
      </trkpt>
      <trkpt lat="0" lon="0">
        <time>2021-02-28T10:25:26.646000+00:00</time>
      </trkpt>
      <trkpt lat="47.30374" lon="-1.38988">
        <ele>118</ele>
        <time>2021-02-28T10:25:27.606000+00:00</time>
      </trkpt>
      <trkpt lat="0" lon="0">
        <time>2021-02-28T10:25:27.614000+00:00</time>
      </trkpt>
      <trkpt lat="0" lon="0">
        <time>2021-02-28T10:25:27.617000+00:00</time>
      </trkpt>
      <trkpt lat="0" lon="0">
        <time>2021-02-28T10:25:27.618000+00:00</time>
      </trkpt>
      <trkpt lat="47.30374" lon="-1.38989">
        <ele>118</ele>
        <time>2021-02-28T10:25:28.581000+00:00</time>
      </trkpt>
      <trkpt lat="0" lon="0">
        <time>2021-02-28T10:25:28.585000+00:00</time>
      </trkpt>
      <trkpt lat="0" lon="0">
        <time>2021-02-28T10:25:28.590000+00:00</time>
      </trkpt>
      <trkpt lat="0" lon="0">
        <time>2021-02-28T10:25:28.592000+00:00</time>
      </trkpt>
      <trkpt lat="47.30374" lon="-1.38989">
        <ele>118</ele>
        <time>2021-02-28T10:25:29.615000+00:00</time>
      </trkpt>
      <trkpt lat="0" lon="0">
        <time>2021-02-28T10:25:29.624000+00:00</time>
      </trkpt>
      <trkpt lat="0" lon="0">
        <time>2021-02-28T10:25:29.629000+00:00</time>
      </trkpt>
      <trkpt lat="0" lon="0">
        <time>2021-02-28T10:25:29.632000+00:00</time>
      </trkpt>
      <trkpt lat="47.30375" lon="-1.38989">
        <ele>118</ele>
        <time>2021-02-28T10:25:30.600000+00:00</time>
      </trkpt>
      <trkpt lat="0" lon="0">
        <time>2021-02-28T10:25:30.606000+00:00</time>
      </trkpt>
      <trkpt lat="0" lon="0">
        <time>2021-02-28T10:25:30.612000+00:00</time>
      </trkpt>
      <trkpt lat="0" lon="0">
        <time>2021-02-28T10:25:30.615000+00:00</time>
      </trkpt>
      <trkpt lat="47.30375" lon="-1.38989">
        <ele>118</ele>
        <time>2021-02-28T10:25:31.615000+00:00</time>
      </trkpt>
      <trkpt lat="0" lon="0">
        <time>2021-02-28T10:25:31.617000+00:00</time>
      </trkpt>
      <trkpt lat="0" lon="0">
        <time>2021-02-28T10:25:31.619000+00:00</time>
      </trkpt>
      <trkpt lat="0" lon="0">
        <time>2021-02-28T10:25:31.621000+00:00</time>
      </trkpt>
      <trkpt lat="47.30376" lon="-1.38988">
        <ele>118</ele>
        <time>2021-02-28T10:25:32.619000+00:00</time>
      </trkpt>
      <trkpt lat="0" lon="0">
        <time>2021-02-28T10:25:32.640000+00:00</time>
      </trkpt>
      <trkpt lat="0" lon="0">
        <time>2021-02-28T10:25:32.652000+00:00</time>
      </trkpt>
      <trkpt lat="0" lon="0">
        <time>2021-02-28T10:25:32.656000+00:00</time>
      </trkpt>
      <trkpt lat="47.30377" lon="-1.38987">
        <ele>117</ele>
        <time>2021-02-28T10:25:33.559000+00:00</time>
      </trkpt>
      <trkpt lat="0" lon="0">
        <time>2021-02-28T10:25:33.567000+00:00</time>
      </trkpt>
      <trkpt lat="0" lon="0">
        <time>2021-02-28T10:25:33.571000+00:00</time>
      </trkpt>
      <trkpt lat="0" lon="0">
        <time>2021-02-28T10:25:33.574000+00:00</time>
      </trkpt>
      <trkpt lat="47.30378" lon="-1.38986">
        <ele>116</ele>
        <time>2021-02-28T10:25:34.586000+00:00</time>
      </trkpt>
      <trkpt lat="0" lon="0">
        <time>2021-02-28T10:25:34.593000+00:00</time>
      </trkpt>
      <trkpt lat="0" lon="0">
        <time>2021-02-28T10:25:34.601000+00:00</time>
      </trkpt>
      <trkpt lat="0" lon="0">
        <time>2021-02-28T10:25:34.604000+00:00</time>
      </trkpt>
      <trkpt lat="47.30379" lon="-1.38985">
        <ele>116</ele>
        <time>2021-02-28T10:25:35.559000+00:00</time>
      </trkpt>
      <trkpt lat="0" lon="0">
        <time>2021-02-28T10:25:35.568000+00:00</time>
      </trkpt>
      <trkpt lat="0" lon="0">
        <time>2021-02-28T10:25:35.575000+00:00</time>
      </trkpt>
      <trkpt lat="0" lon="0">
        <time>2021-02-28T10:25:35.579000+00:00</time>
      </trkpt>
      <trkpt lat="47.3038" lon="-1.38985">
        <ele>116</ele>
        <time>2021-02-28T10:25:36.590000+00:00</time>
      </trkpt>
      <trkpt lat="0" lon="0">
        <time>2021-02-28T10:25:36.598000+00:00</time>
      </trkpt>
      <trkpt lat="0" lon="0">
        <time>2021-02-28T10:25:36.603000+00:00</time>
      </trkpt>
      <trkpt lat="0" lon="0">
        <time>2021-02-28T10:25:36.606000+00:00</time>
      </trkpt>
      <trkpt lat="47.3038" lon="-1.38984">
        <ele>116</ele>
        <time>2021-02-28T10:25:37.595000+00:00</time>
      </trkpt>
      <trkpt lat="0" lon="0">
        <time>2021-02-28T10:25:37.612000+00:00</time>
      </trkpt>
      <trkpt lat="0" lon="0">
        <time>2021-02-28T10:25:37.616000+00:00</time>
      </trkpt>
      <trkpt lat="0" lon="0">
        <time>2021-02-28T10:25:37.618000+00:00</time>
      </trkpt>
      <trkpt lat="47.30381" lon="-1.38983">
        <ele>116</ele>
        <time>2021-02-28T10:25:38.619000+00:00</time>
      </trkpt>
      <trkpt lat="0" lon="0">
        <time>2021-02-28T10:25:38.625000+00:00</time>
      </trkpt>
      <trkpt lat="0" lon="0">
        <time>2021-02-28T10:25:38.632000+00:00</time>
      </trkpt>
      <trkpt lat="0" lon="0">
        <time>2021-02-28T10:25:38.635000+00:00</time>
      </trkpt>
      <trkpt lat="47.30382" lon="-1.38982">
        <ele>116</ele>
        <time>2021-02-28T10:25:39.657000+00:00</time>
      </trkpt>
      <trkpt lat="0" lon="0">
        <time>2021-02-28T10:25:39.663000+00:00</time>
      </trkpt>
      <trkpt lat="0" lon="0">
        <time>2021-02-28T10:25:39.668000+00:00</time>
      </trkpt>
      <trkpt lat="0" lon="0">
        <time>2021-02-28T10:25:39.681000+00:00</time>
      </trkpt>
      <trkpt lat="47.30372" lon="-1.39003">
        <ele>114</ele>
        <time>2021-02-28T10:25:40.681000+00:00</time>
      </trkpt>
      <trkpt lat="0" lon="0">
        <time>2021-02-28T10:25:40.690000+00:00</time>
      </trkpt>
      <trkpt lat="0" lon="0">
        <time>2021-02-28T10:25:40.696000+00:00</time>
      </trkpt>
      <trkpt lat="0" lon="0">
        <time>2021-02-28T10:25:40.698000+00:00</time>
      </trkpt>
      <trkpt lat="47.30369" lon="-1.39008">
        <ele>114</ele>
        <time>2021-02-28T10:25:41.647000+00:00</time>
      </trkpt>
      <trkpt lat="0" lon="0">
        <time>2021-02-28T10:25:41.655000+00:00</time>
      </trkpt>
      <trkpt lat="0" lon="0">
        <time>2021-02-28T10:25:41.659000+00:00</time>
      </trkpt>
      <trkpt lat="0" lon="0">
        <time>2021-02-28T10:25:41.660000+00:00</time>
      </trkpt>
      <trkpt lat="47.30367" lon="-1.39013">
        <ele>114</ele>
        <time>2021-02-28T10:25:42.650000+00:00</time>
      </trkpt>
      <trkpt lat="0" lon="0">
        <time>2021-02-28T10:25:42.662000+00:00</time>
      </trkpt>
      <trkpt lat="0" lon="0">
        <time>2021-02-28T10:25:42.669000+00:00</time>
      </trkpt>
      <trkpt lat="0" lon="0">
        <time>2021-02-28T10:25:42.672000+00:00</time>
      </trkpt>
      <trkpt lat="47.30364" lon="-1.39018">
        <ele>114</ele>
        <time>2021-02-28T10:25:43.769000+00:00</time>
      </trkpt>
      <trkpt lat="0" lon="0">
        <time>2021-02-28T10:25:43.777000+00:00</time>
      </trkpt>
      <trkpt lat="0" lon="0">
        <time>2021-02-28T10:25:43.781000+00:00</time>
      </trkpt>
      <trkpt lat="0" lon="0">
        <time>2021-02-28T10:25:43.783000+00:00</time>
      </trkpt>
      <trkpt lat="47.30361" lon="-1.39024">
        <ele>114</ele>
        <time>2021-02-28T10:25:44.669000+00:00</time>
      </trkpt>
      <trkpt lat="0" lon="0">
        <time>2021-02-28T10:25:44.674000+00:00</time>
      </trkpt>
      <trkpt lat="0" lon="0">
        <time>2021-02-28T10:25:44.680000+00:00</time>
      </trkpt>
      <trkpt lat="0" lon="0">
        <time>2021-02-28T10:25:44.683000+00:00</time>
      </trkpt>
      <trkpt lat="47.30358" lon="-1.39029">
        <ele>114</ele>
        <time>2021-02-28T10:25:45.730000+00:00</time>
      </trkpt>
      <trkpt lat="0" lon="0">
        <time>2021-02-28T10:25:45.743000+00:00</time>
      </trkpt>
      <trkpt lat="0" lon="0">
        <time>2021-02-28T10:25:45.747000+00:00</time>
      </trkpt>
      <trkpt lat="0" lon="0">
        <time>2021-02-28T10:25:45.749000+00:00</time>
      </trkpt>
      <trkpt lat="47.30355" lon="-1.39035">
        <ele>114</ele>
        <time>2021-02-28T10:25:46.730000+00:00</time>
      </trkpt>
      <trkpt lat="0" lon="0">
        <time>2021-02-28T10:25:46.737000+00:00</time>
      </trkpt>
      <trkpt lat="0" lon="0">
        <time>2021-02-28T10:25:46.741000+00:00</time>
      </trkpt>
      <trkpt lat="0" lon="0">
        <time>2021-02-28T10:25:46.744000+00:00</time>
      </trkpt>
      <trkpt lat="47.30352" lon="-1.39041">
        <ele>114</ele>
        <time>2021-02-28T10:25:47.779000+00:00</time>
      </trkpt>
      <trkpt lat="0" lon="0">
        <time>2021-02-28T10:25:47.785000+00:00</time>
      </trkpt>
      <trkpt lat="0" lon="0">
        <time>2021-02-28T10:25:47.789000+00:00</time>
      </trkpt>
      <trkpt lat="0" lon="0">
        <time>2021-02-28T10:25:47.791000+00:00</time>
      </trkpt>
      <trkpt lat="47.30348" lon="-1.39048">
        <ele>114</ele>
        <time>2021-02-28T10:25:48.728000+00:00</time>
      </trkpt>
      <trkpt lat="0" lon="0">
        <time>2021-02-28T10:25:48.740000+00:00</time>
      </trkpt>
      <trkpt lat="0" lon="0">
        <time>2021-02-28T10:25:48.744000+00:00</time>
      </trkpt>
      <trkpt lat="0" lon="0">
        <time>2021-02-28T10:25:48.746000+00:00</time>
      </trkpt>
      <trkpt lat="47.30344" lon="-1.39055">
        <ele>113</ele>
        <time>2021-02-28T10:25:49.738000+00:00</time>
      </trkpt>
      <trkpt lat="0" lon="0">
        <time>2021-02-28T10:25:49.742000+00:00</time>
      </trkpt>
      <trkpt lat="0" lon="0">
        <time>2021-02-28T10:25:49.747000+00:00</time>
      </trkpt>
      <trkpt lat="0" lon="0">
        <time>2021-02-28T10:25:49.749000+00:00</time>
      </trkpt>
      <trkpt lat="47.3034" lon="-1.39061">
        <ele>113</ele>
        <time>2021-02-28T10:25:50.705000+00:00</time>
      </trkpt>
      <trkpt lat="0" lon="0">
        <time>2021-02-28T10:25:50.708000+00:00</time>
      </trkpt>
      <trkpt lat="0" lon="0">
        <time>2021-02-28T10:25:50.711000+00:00</time>
      </trkpt>
      <trkpt lat="0" lon="0">
        <time>2021-02-28T10:25:50.713000+00:00</time>
      </trkpt>
      <trkpt lat="47.30336" lon="-1.39068">
        <ele>113</ele>
        <time>2021-02-28T10:25:51.753000+00:00</time>
      </trkpt>
      <trkpt lat="0" lon="0">
        <time>2021-02-28T10:25:51.758000+00:00</time>
      </trkpt>
      <trkpt lat="0" lon="0">
        <time>2021-02-28T10:25:51.762000+00:00</time>
      </trkpt>
      <trkpt lat="0" lon="0">
        <time>2021-02-28T10:25:51.764000+00:00</time>
      </trkpt>
      <trkpt lat="47.30333" lon="-1.39075">
        <ele>113</ele>
        <time>2021-02-28T10:25:52.752000+00:00</time>
      </trkpt>
      <trkpt lat="0" lon="0">
        <time>2021-02-28T10:25:52.757000+00:00</time>
      </trkpt>
      <trkpt lat="0" lon="0">
        <time>2021-02-28T10:25:52.763000+00:00</time>
      </trkpt>
      <trkpt lat="0" lon="0">
        <time>2021-02-28T10:25:52.766000+00:00</time>
      </trkpt>
      <trkpt lat="47.30329" lon="-1.39083">
        <ele>112</ele>
        <time>2021-02-28T10:25:53.748000+00:00</time>
      </trkpt>
      <trkpt lat="0" lon="0">
        <time>2021-02-28T10:25:53.752000+00:00</time>
      </trkpt>
      <trkpt lat="0" lon="0">
        <time>2021-02-28T10:25:53.756000+00:00</time>
      </trkpt>
      <trkpt lat="0" lon="0">
        <time>2021-02-28T10:25:53.758000+00:00</time>
      </trkpt>
      <trkpt lat="47.30326" lon="-1.3909">
        <ele>112</ele>
        <time>2021-02-28T10:25:54.679000+00:00</time>
      </trkpt>
      <trkpt lat="0" lon="0">
        <time>2021-02-28T10:25:54.684000+00:00</time>
      </trkpt>
      <trkpt lat="0" lon="0">
        <time>2021-02-28T10:25:54.688000+00:00</time>
      </trkpt>
      <trkpt lat="0" lon="0">
        <time>2021-02-28T10:25:54.691000+00:00</time>
      </trkpt>
      <trkpt lat="47.30324" lon="-1.39098">
        <ele>112</ele>
        <time>2021-02-28T10:25:55.666000+00:00</time>
      </trkpt>
      <trkpt lat="0" lon="0">
        <time>2021-02-28T10:25:55.673000+00:00</time>
      </trkpt>
      <trkpt lat="0" lon="0">
        <time>2021-02-28T10:25:55.683000+00:00</time>
      </trkpt>
      <trkpt lat="0" lon="0">
        <time>2021-02-28T10:25:55.685000+00:00</time>
      </trkpt>
      <trkpt lat="47.30321" lon="-1.39106">
        <ele>112</ele>
        <time>2021-02-28T10:25:56.636000+00:00</time>
      </trkpt>
      <trkpt lat="0" lon="0">
        <time>2021-02-28T10:25:56.638000+00:00</time>
      </trkpt>
      <trkpt lat="0" lon="0">
        <time>2021-02-28T10:25:56.640000+00:00</time>
      </trkpt>
      <trkpt lat="0" lon="0">
        <time>2021-02-28T10:25:56.641000+00:00</time>
      </trkpt>
      <trkpt lat="47.30319" lon="-1.39113">
        <ele>112</ele>
        <time>2021-02-28T10:25:57.718000+00:00</time>
      </trkpt>
      <trkpt lat="0" lon="0">
        <time>2021-02-28T10:25:57.727000+00:00</time>
      </trkpt>
      <trkpt lat="0" lon="0">
        <time>2021-02-28T10:25:57.731000+00:00</time>
      </trkpt>
      <trkpt lat="0" lon="0">
        <time>2021-02-28T10:25:57.735000+00:00</time>
      </trkpt>
      <trkpt lat="47.30316" lon="-1.39121">
        <ele>112</ele>
        <time>2021-02-28T10:25:58.715000+00:00</time>
      </trkpt>
      <trkpt lat="0" lon="0">
        <time>2021-02-28T10:25:58.721000+00:00</time>
      </trkpt>
      <trkpt lat="0" lon="0">
        <time>2021-02-28T10:25:58.726000+00:00</time>
      </trkpt>
      <trkpt lat="0" lon="0">
        <time>2021-02-28T10:25:58.729000+00:00</time>
      </trkpt>
      <trkpt lat="47.30314" lon="-1.39129">
        <ele>112</ele>
        <time>2021-02-28T10:25:59.736000+00:00</time>
      </trkpt>
      <trkpt lat="0" lon="0">
        <time>2021-02-28T10:25:59.747000+00:00</time>
      </trkpt>
      <trkpt lat="0" lon="0">
        <time>2021-02-28T10:25:59.752000+00:00</time>
      </trkpt>
      <trkpt lat="0" lon="0">
        <time>2021-02-28T10:25:59.755000+00:00</time>
      </trkpt>
      <trkpt lat="47.30312" lon="-1.39136">
        <ele>112</ele>
        <time>2021-02-28T10:26:00.725000+00:00</time>
      </trkpt>
      <trkpt lat="0" lon="0">
        <time>2021-02-28T10:26:00.728000+00:00</time>
      </trkpt>
      <trkpt lat="0" lon="0">
        <time>2021-02-28T10:26:00.731000+00:00</time>
      </trkpt>
      <trkpt lat="0" lon="0">
        <time>2021-02-28T10:26:00.733000+00:00</time>
      </trkpt>
      <trkpt lat="47.3031" lon="-1.39144">
        <ele>112</ele>
        <time>2021-02-28T10:26:01.693000+00:00</time>
      </trkpt>
      <trkpt lat="0" lon="0">
        <time>2021-02-28T10:26:01.700000+00:00</time>
      </trkpt>
      <trkpt lat="0" lon="0">
        <time>2021-02-28T10:26:01.706000+00:00</time>
      </trkpt>
      <trkpt lat="0" lon="0">
        <time>2021-02-28T10:26:01.710000+00:00</time>
      </trkpt>
      <trkpt lat="47.30309" lon="-1.39151">
        <ele>112</ele>
        <time>2021-02-28T10:26:02.702000+00:00</time>
      </trkpt>
      <trkpt lat="0" lon="0">
        <time>2021-02-28T10:26:02.712000+00:00</time>
      </trkpt>
      <trkpt lat="0" lon="0">
        <time>2021-02-28T10:26:02.717000+00:00</time>
      </trkpt>
      <trkpt lat="0" lon="0">
        <time>2021-02-28T10:26:02.718000+00:00</time>
      </trkpt>
      <trkpt lat="47.30307" lon="-1.39158">
        <ele>112</ele>
        <time>2021-02-28T10:26:03.735000+00:00</time>
      </trkpt>
      <trkpt lat="0" lon="0">
        <time>2021-02-28T10:26:03.743000+00:00</time>
      </trkpt>
      <trkpt lat="0" lon="0">
        <time>2021-02-28T10:26:03.748000+00:00</time>
      </trkpt>
      <trkpt lat="0" lon="0">
        <time>2021-02-28T10:26:03.750000+00:00</time>
      </trkpt>
      <trkpt lat="47.30305" lon="-1.39165">
        <ele>113</ele>
        <time>2021-02-28T10:26:04.718000+00:00</time>
      </trkpt>
      <trkpt lat="0" lon="0">
        <time>2021-02-28T10:26:04.727000+00:00</time>
      </trkpt>
      <trkpt lat="0" lon="0">
        <time>2021-02-28T10:26:04.733000+00:00</time>
      </trkpt>
      <trkpt lat="0" lon="0">
        <time>2021-02-28T10:26:04.736000+00:00</time>
      </trkpt>
      <trkpt lat="47.30303" lon="-1.39171">
        <ele>112</ele>
        <time>2021-02-28T10:26:05.708000+00:00</time>
      </trkpt>
      <trkpt lat="0" lon="0">
        <time>2021-02-28T10:26:05.714000+00:00</time>
      </trkpt>
      <trkpt lat="0" lon="0">
        <time>2021-02-28T10:26:05.720000+00:00</time>
      </trkpt>
      <trkpt lat="0" lon="0">
        <time>2021-02-28T10:26:05.723000+00:00</time>
      </trkpt>
      <trkpt lat="47.30301" lon="-1.39177">
        <ele>112</ele>
        <time>2021-02-28T10:26:06.749000+00:00</time>
      </trkpt>
      <trkpt lat="0" lon="0">
        <time>2021-02-28T10:26:06.752000+00:00</time>
      </trkpt>
      <trkpt lat="0" lon="0">
        <time>2021-02-28T10:26:06.754000+00:00</time>
      </trkpt>
      <trkpt lat="0" lon="0">
        <time>2021-02-28T10:26:06.755000+00:00</time>
      </trkpt>
      <trkpt lat="47.30299" lon="-1.39183">
        <ele>112</ele>
        <time>2021-02-28T10:26:07.709000+00:00</time>
      </trkpt>
      <trkpt lat="0" lon="0">
        <time>2021-02-28T10:26:07.718000+00:00</time>
      </trkpt>
      <trkpt lat="0" lon="0">
        <time>2021-02-28T10:26:07.723000+00:00</time>
      </trkpt>
      <trkpt lat="0" lon="0">
        <time>2021-02-28T10:26:07.726000+00:00</time>
      </trkpt>
      <trkpt lat="47.30297" lon="-1.39186">
        <ele>112</ele>
        <time>2021-02-28T10:26:08.717000+00:00</time>
      </trkpt>
      <trkpt lat="0" lon="0">
        <time>2021-02-28T10:26:08.726000+00:00</time>
      </trkpt>
      <trkpt lat="0" lon="0">
        <time>2021-02-28T10:26:08.730000+00:00</time>
      </trkpt>
      <trkpt lat="0" lon="0">
        <time>2021-02-28T10:26:08.732000+00:00</time>
      </trkpt>
      <trkpt lat="47.30295" lon="-1.39189">
        <ele>113</ele>
        <time>2021-02-28T10:26:09.685000+00:00</time>
      </trkpt>
      <trkpt lat="0" lon="0">
        <time>2021-02-28T10:26:09.697000+00:00</time>
      </trkpt>
      <trkpt lat="0" lon="0">
        <time>2021-02-28T10:26:09.702000+00:00</time>
      </trkpt>
      <trkpt lat="0" lon="0">
        <time>2021-02-28T10:26:09.706000+00:00</time>
      </trkpt>
      <trkpt lat="47.30293" lon="-1.39191">
        <ele>113</ele>
        <time>2021-02-28T10:26:10.622000+00:00</time>
      </trkpt>
      <trkpt lat="0" lon="0">
        <time>2021-02-28T10:26:10.628000+00:00</time>
      </trkpt>
      <trkpt lat="0" lon="0">
        <time>2021-02-28T10:26:10.633000+00:00</time>
      </trkpt>
      <trkpt lat="0" lon="0">
        <time>2021-02-28T10:26:10.635000+00:00</time>
      </trkpt>
      <trkpt lat="47.30292" lon="-1.39191">
        <ele>113</ele>
        <time>2021-02-28T10:26:11.704000+00:00</time>
      </trkpt>
      <trkpt lat="0" lon="0">
        <time>2021-02-28T10:26:11.712000+00:00</time>
      </trkpt>
      <trkpt lat="0" lon="0">
        <time>2021-02-28T10:26:11.720000+00:00</time>
      </trkpt>
      <trkpt lat="0" lon="0">
        <time>2021-02-28T10:26:11.722000+00:00</time>
      </trkpt>
      <trkpt lat="47.30291" lon="-1.39191">
        <ele>113</ele>
        <time>2021-02-28T10:26:12.702000+00:00</time>
      </trkpt>
      <trkpt lat="0" lon="0">
        <time>2021-02-28T10:26:12.708000+00:00</time>
      </trkpt>
      <trkpt lat="0" lon="0">
        <time>2021-02-28T10:26:12.712000+00:00</time>
      </trkpt>
      <trkpt lat="0" lon="0">
        <time>2021-02-28T10:26:12.714000+00:00</time>
      </trkpt>
      <trkpt lat="47.30291" lon="-1.39191">
        <ele>113</ele>
        <time>2021-02-28T10:26:13.692000+00:00</time>
      </trkpt>
      <trkpt lat="0" lon="0">
        <time>2021-02-28T10:26:13.698000+00:00</time>
      </trkpt>
      <trkpt lat="0" lon="0">
        <time>2021-02-28T10:26:13.703000+00:00</time>
      </trkpt>
      <trkpt lat="0" lon="0">
        <time>2021-02-28T10:26:13.706000+00:00</time>
      </trkpt>
      <trkpt lat="47.30291" lon="-1.3919">
        <ele>113</ele>
        <time>2021-02-28T10:26:14.715000+00:00</time>
      </trkpt>
      <trkpt lat="0" lon="0">
        <time>2021-02-28T10:26:14.722000+00:00</time>
      </trkpt>
      <trkpt lat="0" lon="0">
        <time>2021-02-28T10:26:14.726000+00:00</time>
      </trkpt>
      <trkpt lat="0" lon="0">
        <time>2021-02-28T10:26:14.728000+00:00</time>
      </trkpt>
      <trkpt lat="47.3029" lon="-1.39189">
        <ele>113</ele>
        <time>2021-02-28T10:26:15.664000+00:00</time>
      </trkpt>
      <trkpt lat="0" lon="0">
        <time>2021-02-28T10:26:15.668000+00:00</time>
      </trkpt>
      <trkpt lat="0" lon="0">
        <time>2021-02-28T10:26:15.675000+00:00</time>
      </trkpt>
      <trkpt lat="0" lon="0">
        <time>2021-02-28T10:26:15.678000+00:00</time>
      </trkpt>
      <trkpt lat="47.30291" lon="-1.39187">
        <ele>113</ele>
        <time>2021-02-28T10:26:16.725000+00:00</time>
      </trkpt>
      <trkpt lat="0" lon="0">
        <time>2021-02-28T10:26:16.737000+00:00</time>
      </trkpt>
      <trkpt lat="0" lon="0">
        <time>2021-02-28T10:26:16.742000+00:00</time>
      </trkpt>
      <trkpt lat="0" lon="0">
        <time>2021-02-28T10:26:16.744000+00:00</time>
      </trkpt>
      <trkpt lat="47.30291" lon="-1.39186">
        <ele>113</ele>
        <time>2021-02-28T10:26:17.737000+00:00</time>
      </trkpt>
      <trkpt lat="0" lon="0">
        <time>2021-02-28T10:26:17.742000+00:00</time>
      </trkpt>
      <trkpt lat="0" lon="0">
        <time>2021-02-28T10:26:17.750000+00:00</time>
      </trkpt>
      <trkpt lat="0" lon="0">
        <time>2021-02-28T10:26:17.752000+00:00</time>
      </trkpt>
      <trkpt lat="47.30291" lon="-1.39185">
        <ele>113</ele>
        <time>2021-02-28T10:26:18.746000+00:00</time>
      </trkpt>
      <trkpt lat="0" lon="0">
        <time>2021-02-28T10:26:18.763000+00:00</time>
      </trkpt>
      <trkpt lat="0" lon="0">
        <time>2021-02-28T10:26:18.767000+00:00</time>
      </trkpt>
      <trkpt lat="0" lon="0">
        <time>2021-02-28T10:26:18.769000+00:00</time>
      </trkpt>
      <trkpt lat="47.30291" lon="-1.39184">
        <ele>113</ele>
        <time>2021-02-28T10:26:19.722000+00:00</time>
      </trkpt>
      <trkpt lat="0" lon="0">
        <time>2021-02-28T10:26:19.735000+00:00</time>
      </trkpt>
      <trkpt lat="0" lon="0">
        <time>2021-02-28T10:26:19.740000+00:00</time>
      </trkpt>
      <trkpt lat="0" lon="0">
        <time>2021-02-28T10:26:19.743000+00:00</time>
      </trkpt>
      <trkpt lat="47.30291" lon="-1.39184">
        <ele>113</ele>
        <time>2021-02-28T10:26:20.722000+00:00</time>
      </trkpt>
      <trkpt lat="0" lon="0">
        <time>2021-02-28T10:26:20.734000+00:00</time>
      </trkpt>
      <trkpt lat="0" lon="0">
        <time>2021-02-28T10:26:20.739000+00:00</time>
      </trkpt>
      <trkpt lat="0" lon="0">
        <time>2021-02-28T10:26:20.741000+00:00</time>
      </trkpt>
      <trkpt lat="47.30291" lon="-1.39183">
        <ele>113</ele>
        <time>2021-02-28T10:26:21.735000+00:00</time>
      </trkpt>
      <trkpt lat="0" lon="0">
        <time>2021-02-28T10:26:21.743000+00:00</time>
      </trkpt>
      <trkpt lat="0" lon="0">
        <time>2021-02-28T10:26:21.749000+00:00</time>
      </trkpt>
      <trkpt lat="0" lon="0">
        <time>2021-02-28T10:26:21.752000+00:00</time>
      </trkpt>
      <trkpt lat="47.3029" lon="-1.39181">
        <ele>113</ele>
        <time>2021-02-28T10:26:22.712000+00:00</time>
      </trkpt>
      <trkpt lat="0" lon="0">
        <time>2021-02-28T10:26:22.719000+00:00</time>
      </trkpt>
      <trkpt lat="0" lon="0">
        <time>2021-02-28T10:26:22.726000+00:00</time>
      </trkpt>
      <trkpt lat="0" lon="0">
        <time>2021-02-28T10:26:22.740000+00:00</time>
      </trkpt>
      <trkpt lat="47.30284" lon="-1.39161">
        <ele>113</ele>
        <time>2021-02-28T10:26:23.789000+00:00</time>
      </trkpt>
      <trkpt lat="0" lon="0">
        <time>2021-02-28T10:26:23.794000+00:00</time>
      </trkpt>
      <trkpt lat="0" lon="0">
        <time>2021-02-28T10:26:23.800000+00:00</time>
      </trkpt>
      <trkpt lat="0" lon="0">
        <time>2021-02-28T10:26:23.802000+00:00</time>
      </trkpt>
      <trkpt lat="47.30282" lon="-1.3916">
        <ele>114</ele>
        <time>2021-02-28T10:26:24.729000+00:00</time>
      </trkpt>
      <trkpt lat="0" lon="0">
        <time>2021-02-28T10:26:24.742000+00:00</time>
      </trkpt>
      <trkpt lat="0" lon="0">
        <time>2021-02-28T10:26:24.747000+00:00</time>
      </trkpt>
      <trkpt lat="0" lon="0">
        <time>2021-02-28T10:26:24.750000+00:00</time>
      </trkpt>
      <trkpt lat="47.30281" lon="-1.39159">
        <ele>114</ele>
        <time>2021-02-28T10:26:25.746000+00:00</time>
      </trkpt>
      <trkpt lat="0" lon="0">
        <time>2021-02-28T10:26:25.750000+00:00</time>
      </trkpt>
      <trkpt lat="0" lon="0">
        <time>2021-02-28T10:26:25.751000+00:00</time>
      </trkpt>
      <trkpt lat="0" lon="0">
        <time>2021-02-28T10:26:25.753000+00:00</time>
      </trkpt>
      <trkpt lat="47.3028" lon="-1.39157">
        <ele>114</ele>
        <time>2021-02-28T10:26:26.755000+00:00</time>
      </trkpt>
      <trkpt lat="0" lon="0">
        <time>2021-02-28T10:26:26.762000+00:00</time>
      </trkpt>
      <trkpt lat="0" lon="0">
        <time>2021-02-28T10:26:26.768000+00:00</time>
      </trkpt>
      <trkpt lat="0" lon="0">
        <time>2021-02-28T10:26:26.770000+00:00</time>
      </trkpt>
      <trkpt lat="47.30278" lon="-1.39156">
        <ele>113</ele>
        <time>2021-02-28T10:26:27.744000+00:00</time>
      </trkpt>
      <trkpt lat="0" lon="0">
        <time>2021-02-28T10:26:27.753000+00:00</time>
      </trkpt>
      <trkpt lat="0" lon="0">
        <time>2021-02-28T10:26:27.761000+00:00</time>
      </trkpt>
      <trkpt lat="0" lon="0">
        <time>2021-02-28T10:26:27.763000+00:00</time>
      </trkpt>
      <trkpt lat="47.30276" lon="-1.39155">
        <ele>113</ele>
        <time>2021-02-28T10:26:28.641000+00:00</time>
      </trkpt>
      <trkpt lat="0" lon="0">
        <time>2021-02-28T10:26:28.649000+00:00</time>
      </trkpt>
      <trkpt lat="0" lon="0">
        <time>2021-02-28T10:26:28.651000+00:00</time>
      </trkpt>
      <trkpt lat="0" lon="0">
        <time>2021-02-28T10:26:28.653000+00:00</time>
      </trkpt>
      <trkpt lat="47.30275" lon="-1.39154">
        <ele>113</ele>
        <time>2021-02-28T10:26:29.762000+00:00</time>
      </trkpt>
      <trkpt lat="0" lon="0">
        <time>2021-02-28T10:26:29.768000+00:00</time>
      </trkpt>
      <trkpt lat="0" lon="0">
        <time>2021-02-28T10:26:29.772000+00:00</time>
      </trkpt>
      <trkpt lat="0" lon="0">
        <time>2021-02-28T10:26:29.775000+00:00</time>
      </trkpt>
      <trkpt lat="47.30274" lon="-1.39154">
        <ele>113</ele>
        <time>2021-02-28T10:26:30.748000+00:00</time>
      </trkpt>
      <trkpt lat="0" lon="0">
        <time>2021-02-28T10:26:30.755000+00:00</time>
      </trkpt>
      <trkpt lat="0" lon="0">
        <time>2021-02-28T10:26:30.767000+00:00</time>
      </trkpt>
      <trkpt lat="0" lon="0">
        <time>2021-02-28T10:26:30.771000+00:00</time>
      </trkpt>
      <trkpt lat="47.30273" lon="-1.39153">
        <ele>112</ele>
        <time>2021-02-28T10:26:31.712000+00:00</time>
      </trkpt>
      <trkpt lat="0" lon="0">
        <time>2021-02-28T10:26:31.717000+00:00</time>
      </trkpt>
      <trkpt lat="0" lon="0">
        <time>2021-02-28T10:26:31.723000+00:00</time>
      </trkpt>
      <trkpt lat="0" lon="0">
        <time>2021-02-28T10:26:31.726000+00:00</time>
      </trkpt>
      <trkpt lat="47.30273" lon="-1.39153">
        <ele>112</ele>
        <time>2021-02-28T10:26:32.697000+00:00</time>
      </trkpt>
      <trkpt lat="0" lon="0">
        <time>2021-02-28T10:26:32.704000+00:00</time>
      </trkpt>
      <trkpt lat="0" lon="0">
        <time>2021-02-28T10:26:32.708000+00:00</time>
      </trkpt>
      <trkpt lat="0" lon="0">
        <time>2021-02-28T10:26:32.711000+00:00</time>
      </trkpt>
      <trkpt lat="47.30272" lon="-1.39153">
        <ele>112</ele>
        <time>2021-02-28T10:26:33.769000+00:00</time>
      </trkpt>
      <trkpt lat="0" lon="0">
        <time>2021-02-28T10:26:33.783000+00:00</time>
      </trkpt>
      <trkpt lat="0" lon="0">
        <time>2021-02-28T10:26:33.789000+00:00</time>
      </trkpt>
      <trkpt lat="0" lon="0">
        <time>2021-02-28T10:26:33.791000+00:00</time>
      </trkpt>
      <trkpt lat="47.30271" lon="-1.39152">
        <ele>112</ele>
        <time>2021-02-28T10:26:35.691000+00:00</time>
      </trkpt>
      <trkpt lat="0" lon="0">
        <time>2021-02-28T10:26:35.694000+00:00</time>
      </trkpt>
      <trkpt lat="0" lon="0">
        <time>2021-02-28T10:26:35.698000+00:00</time>
      </trkpt>
      <trkpt lat="0" lon="0">
        <time>2021-02-28T10:26:35.700000+00:00</time>
      </trkpt>
      <trkpt lat="47.30271" lon="-1.39153">
        <ele>112</ele>
        <time>2021-02-28T10:26:36.712000+00:00</time>
      </trkpt>
      <trkpt lat="0" lon="0">
        <time>2021-02-28T10:26:36.714000+00:00</time>
      </trkpt>
      <trkpt lat="0" lon="0">
        <time>2021-02-28T10:26:36.717000+00:00</time>
      </trkpt>
      <trkpt lat="0" lon="0">
        <time>2021-02-28T10:26:36.720000+00:00</time>
      </trkpt>
      <trkpt lat="47.30271" lon="-1.39153">
        <ele>112</ele>
        <time>2021-02-28T10:26:37.691000+00:00</time>
      </trkpt>
      <trkpt lat="0" lon="0">
        <time>2021-02-28T10:26:37.695000+00:00</time>
      </trkpt>
      <trkpt lat="0" lon="0">
        <time>2021-02-28T10:26:37.700000+00:00</time>
      </trkpt>
      <trkpt lat="0" lon="0">
        <time>2021-02-28T10:26:37.702000+00:00</time>
      </trkpt>
      <trkpt lat="47.30271" lon="-1.39153">
        <ele>112</ele>
        <time>2021-02-28T10:26:38.703000+00:00</time>
      </trkpt>
      <trkpt lat="0" lon="0">
        <time>2021-02-28T10:26:38.718000+00:00</time>
      </trkpt>
      <trkpt lat="0" lon="0">
        <time>2021-02-28T10:26:38.721000+00:00</time>
      </trkpt>
    </trkseg>
  </trk>
</gpx>